<?xml version='1.0' encoding='UTF-8'?><gpx version="1.1" creator="JPX - https://github.com/jenetics/jpx" xmlns="http://www.topografix.com/GPX/1/1"><trk><trkseg><trkpt lat="41.636206275708076" lon="19.589457313790167"><ele>1.0</ele><time>2026-05-04T06:17:25.009Z</time></trkpt><trkpt lat="41.636287941267064" lon="19.58956156083333"><ele>1.0</ele><time>2026-05-04T06:17:27.009Z</time></trkpt><trkpt lat="41.63635433013378" lon="19.589698689643573"><ele>1.0</ele><time>2026-05-04T06:17:29Z</time></trkpt><trkpt lat="41.63640103294862" lon="19.589834828302866"><ele>1.0</ele><time>2026-05-04T06:17:31Z</time></trkpt><trkpt lat="41.63644312024976" lon="19.589951145130193"><ele>1.0</ele><time>2026-05-04T06:17:33Z</time></trkpt><trkpt lat="41.636523041494115" lon="19.589953979338507"><ele>1.0</ele><time>2026-05-04T06:17:38Z</time></trkpt><trkpt lat="41.63665282407903" lon="19.58987260919659"><ele>1.0</ele><time>2026-05-04T06:17:40Z</time></trkpt><trkpt lat="41.636747574071904" lon="19.589827536216735"><ele>1.0</ele><time>2026-05-04T06:17:41Z</time></trkpt><trkpt lat="41.63685742236719" lon="19.589766833668673"><ele>1.0</ele><time>2026-05-04T06:17:42Z</time></trkpt><trkpt lat="41.6369627515474" lon="19.589709572823665"><ele>0.75</ele><time>2026-05-04T06:17:43Z</time></trkpt><trkpt lat="41.63706124514879" lon="19.589656782391604"><ele>0.5</ele><time>2026-05-04T06:17:44Z</time></trkpt><trkpt lat="41.6371667402666" lon="19.589597450953054"><ele>0.25</ele><time>2026-05-04T06:17:45Z</time></trkpt><trkpt lat="41.63728593211298" lon="19.589525588285426"><ele>0.0</ele><time>2026-05-04T06:17:46Z</time></trkpt><trkpt lat="41.63742582507893" lon="19.58944084391684"><ele>0.0</ele><time>2026-05-04T06:17:47Z</time></trkpt><trkpt lat="41.63755466252681" lon="19.589377953114298"><ele>0.0</ele><time>2026-05-04T06:17:48Z</time></trkpt><trkpt lat="41.63766122438231" lon="19.589343372737552"><ele>0.0</ele><time>2026-05-04T06:17:49Z</time></trkpt><trkpt lat="41.6377300585951" lon="19.58934762279964"><ele>0.0</ele><time>2026-05-04T06:17:50Z</time></trkpt><trkpt lat="41.637801268157304" lon="19.58949575217883"><ele>0.0</ele><time>2026-05-04T06:17:52Z</time></trkpt><trkpt lat="41.63782843991537" lon="19.589638402096746"><ele>0.0</ele><time>2026-05-04T06:17:53Z</time></trkpt><trkpt lat="41.637868607464625" lon="19.589790455355786"><ele>0.0</ele><time>2026-05-04T06:17:54Z</time></trkpt><trkpt lat="41.63791616814906" lon="19.589943707433463"><ele>0.0</ele><time>2026-05-04T06:17:55Z</time></trkpt><trkpt lat="41.63796660981948" lon="19.59010550832015"><ele>0.0</ele><time>2026-05-04T06:17:56Z</time></trkpt><trkpt lat="41.63802527924625" lon="19.590282234918043"><ele>0.0</ele><time>2026-05-04T06:17:57Z</time></trkpt><trkpt lat="41.638089843814896" lon="19.590482051637103"><ele>0.0</ele><time>2026-05-04T06:17:58Z</time></trkpt><trkpt lat="41.63816394701671" lon="19.590681540935016"><ele>0.0</ele><time>2026-05-04T06:17:59Z</time></trkpt><trkpt lat="41.63823197965364" lon="19.590877660942873"><ele>0.0</ele><time>2026-05-04T06:18:00Z</time></trkpt><trkpt lat="41.63828712237041" lon="19.59103443785272"><ele>0.0</ele><time>2026-05-04T06:18:01Z</time></trkpt><trkpt lat="41.63833722858426" lon="19.591173520305325"><ele>0.0</ele><time>2026-05-04T06:18:02Z</time></trkpt><trkpt lat="41.63837785268293" lon="19.591299475828112"><ele>0.0</ele><time>2026-05-04T06:18:03Z</time></trkpt><trkpt lat="41.63841947708092" lon="19.59141823188572"><ele>0.0</ele><time>2026-05-04T06:18:04Z</time></trkpt><trkpt lat="41.638459117847994" lon="19.591518457744932"><ele>0.0</ele><time>2026-05-04T06:18:05Z</time></trkpt><trkpt lat="41.63849305405748" lon="19.591610622002975"><ele>0.0</ele><time>2026-05-04T06:18:06Z</time></trkpt><trkpt lat="41.63852654977677" lon="19.5916909899761"><ele>0.0</ele><time>2026-05-04T06:18:07Z</time></trkpt><trkpt lat="41.63857520856105" lon="19.5918551847342"><ele>0.0</ele><time>2026-05-04T06:18:09Z</time></trkpt><trkpt lat="41.638614199825525" lon="19.59198210513821"><ele>0.0</ele><time>2026-05-04T06:18:10Z</time></trkpt><trkpt lat="41.63866544837051" lon="19.59213271558398"><ele>0.0</ele><time>2026-05-04T06:18:11Z</time></trkpt><trkpt lat="41.638713346653404" lon="19.59229638522768"><ele>0.0</ele><time>2026-05-04T06:18:12Z</time></trkpt><trkpt lat="41.6387654813821" lon="19.592469411369574"><ele>0.0</ele><time>2026-05-04T06:18:13Z</time></trkpt><trkpt lat="41.638821834038204" lon="19.59264558393432"><ele>0.0</ele><time>2026-05-04T06:18:14Z</time></trkpt><trkpt lat="41.63888539908386" lon="19.59282997479466"><ele>0.0</ele><time>2026-05-04T06:18:15Z</time></trkpt><trkpt lat="41.63895179744575" lon="19.59302753748596"><ele>0.0</ele><time>2026-05-04T06:18:16Z</time></trkpt><trkpt lat="41.639019013769634" lon="19.59323128561235"><ele>0.0</ele><time>2026-05-04T06:18:17Z</time></trkpt><trkpt lat="41.639094127429225" lon="19.593440275522504"><ele>0.0</ele><time>2026-05-04T06:18:18Z</time></trkpt><trkpt lat="41.639167443081185" lon="19.593654346495864"><ele>0.0</ele><time>2026-05-04T06:18:19Z</time></trkpt><trkpt lat="41.63924831274529" lon="19.59387802035967"><ele>0.0</ele><time>2026-05-04T06:18:20Z</time></trkpt><trkpt lat="41.639327762014176" lon="19.594101712610065"><ele>0.0</ele><time>2026-05-04T06:18:21Z</time></trkpt><trkpt lat="41.639407853616085" lon="19.594334038673505"><ele>0.0</ele><time>2026-05-04T06:18:22Z</time></trkpt><trkpt lat="41.63949132413286" lon="19.59457854332065"><ele>0.0</ele><time>2026-05-04T06:18:23Z</time></trkpt><trkpt lat="41.639572670998845" lon="19.594814485642416"><ele>0.0</ele><time>2026-05-04T06:18:24Z</time></trkpt><trkpt lat="41.6396583904535" lon="19.595051896810634"><ele>0.0</ele><time>2026-05-04T06:18:25Z</time></trkpt><trkpt lat="41.639748237171325" lon="19.59529045433291"><ele>0.0</ele><time>2026-05-04T06:18:26Z</time></trkpt><trkpt lat="41.639836056405024" lon="19.5955223629849"><ele>0.0</ele><time>2026-05-04T06:18:27Z</time></trkpt><trkpt lat="41.6399308328311" lon="19.595745700984345"><ele>0.0</ele><time>2026-05-04T06:18:28Z</time></trkpt><trkpt lat="41.640031062216856" lon="19.595967115426358"><ele>0.0</ele><time>2026-05-04T06:18:29Z</time></trkpt><trkpt lat="41.64013106255363" lon="19.596183854119783"><ele>0.0</ele><time>2026-05-04T06:18:30Z</time></trkpt><trkpt lat="41.640227914150934" lon="19.59640384725299"><ele>0.0</ele><time>2026-05-04T06:18:31Z</time></trkpt><trkpt lat="41.64032165344011" lon="19.59662079702362"><ele>0.0</ele><time>2026-05-04T06:18:32Z</time></trkpt><trkpt lat="41.640415050782956" lon="19.59683921715867"><ele>0.0</ele><time>2026-05-04T06:18:33Z</time></trkpt><trkpt lat="41.6405120479831" lon="19.597059639887032"><ele>0.0</ele><time>2026-05-04T06:18:34Z</time></trkpt><trkpt lat="41.64061251887381" lon="19.597269934875303"><ele>0.0</ele><time>2026-05-04T06:18:35Z</time></trkpt><trkpt lat="41.64071509335526" lon="19.597477673475304"><ele>0.0</ele><time>2026-05-04T06:18:36Z</time></trkpt><trkpt lat="41.640817027799365" lon="19.59768211968541"><ele>0.0</ele><time>2026-05-04T06:18:37Z</time></trkpt><trkpt lat="41.640920436551575" lon="19.597878355580974"><ele>0.0</ele><time>2026-05-04T06:18:38Z</time></trkpt><trkpt lat="41.64102246796119" lon="19.59805643093495"><ele>0.0</ele><time>2026-05-04T06:18:39Z</time></trkpt><trkpt lat="41.64112263721389" lon="19.59822756530737"><ele>0.0</ele><time>2026-05-04T06:18:40Z</time></trkpt><trkpt lat="41.641216169285336" lon="19.598393030280636"><ele>0.0</ele><time>2026-05-04T06:18:41Z</time></trkpt><trkpt lat="41.64130572303533" lon="19.59855013464423"><ele>-0.6666666666666666</ele><time>2026-05-04T06:18:42Z</time></trkpt><trkpt lat="41.6413945760695" lon="19.59871638429653"><ele>-1.3333333333333333</ele><time>2026-05-04T06:18:43Z</time></trkpt><trkpt lat="41.64148072602422" lon="19.598885347136722"><ele>-2.0</ele><time>2026-05-04T06:18:44Z</time></trkpt><trkpt lat="41.64156814357674" lon="19.599057431374227"><ele>-2.0</ele><time>2026-05-04T06:18:45Z</time></trkpt><trkpt lat="41.64165390228304" lon="19.59921845438036"><ele>-2.0</ele><time>2026-05-04T06:18:46Z</time></trkpt><trkpt lat="41.64173134690152" lon="19.599362846430235"><ele>-2.0</ele><time>2026-05-04T06:18:47Z</time></trkpt><trkpt lat="41.64178689624981" lon="19.59947614341905"><ele>-2.0</ele><time>2026-05-04T06:18:48Z</time></trkpt><trkpt lat="41.64182368075824" lon="19.599553784434857"><ele>-1.9999999999999998</ele><time>2026-05-04T06:18:48.999Z</time></trkpt><trkpt lat="41.64186500378347" lon="19.599624899261926"><ele>-2.0</ele><time>2026-05-04T06:18:50.999Z</time></trkpt><trkpt lat="41.64191685732926" lon="19.59970082498669"><ele>-2.0</ele><time>2026-05-04T06:19:23.999Z</time></trkpt><trkpt lat="41.641960003348835" lon="19.59978150461599"><ele>-2.0</ele><time>2026-05-04T06:19:24.999Z</time></trkpt><trkpt lat="41.64200977100561" lon="19.59986999759876"><ele>-1.9999999999999998</ele><time>2026-05-04T06:19:25.999Z</time></trkpt><trkpt lat="41.642065534620784" lon="19.599970605175656"><ele>-2.0</ele><time>2026-05-04T06:19:26.999Z</time></trkpt><trkpt lat="41.64212511171337" lon="19.600084388290522"><ele>-2.0</ele><time>2026-05-04T06:19:27.999Z</time></trkpt><trkpt lat="41.642191696235976" lon="19.600209773609993"><ele>-2.0</ele><time>2026-05-04T06:19:28.999Z</time></trkpt><trkpt lat="41.64226377262778" lon="19.60034133071117"><ele>-2.0</ele><time>2026-05-04T06:19:29.999Z</time></trkpt><trkpt lat="41.64234168449554" lon="19.600480424170183"><ele>-2.0</ele><time>2026-05-04T06:19:30.999Z</time></trkpt><trkpt lat="41.642424863145436" lon="19.60063353412941"><ele>-2.333333333333333</ele><time>2026-05-04T06:19:31.999Z</time></trkpt><trkpt lat="41.64251225876813" lon="19.60079541372746"><ele>-2.6666666666666665</ele><time>2026-05-04T06:19:33Z</time></trkpt><trkpt lat="41.642603426636846" lon="19.60096919997717"><ele>-3.0</ele><time>2026-05-04T06:19:34Z</time></trkpt><trkpt lat="41.64270259445502" lon="19.601149522502357"><ele>-2.3333333333333335</ele><time>2026-05-04T06:19:35Z</time></trkpt><trkpt lat="41.64280430390136" lon="19.601335856639942"><ele>-1.6666666666666665</ele><time>2026-05-04T06:19:36Z</time></trkpt><trkpt lat="41.64290767776014" lon="19.601529709622657"><ele>-1.0</ele><time>2026-05-04T06:19:37Z</time></trkpt><trkpt lat="41.64301587182338" lon="19.601731456082682"><ele>-1.0</ele><time>2026-05-04T06:19:38Z</time></trkpt><trkpt lat="41.643125543655245" lon="19.601937588836858"><ele>-1.0</ele><time>2026-05-04T06:19:39Z</time></trkpt><trkpt lat="41.643234151222295" lon="19.602148098200093"><ele>-1.0</ele><time>2026-05-04T06:19:40Z</time></trkpt><trkpt lat="41.64334624735295" lon="19.60236552570829"><ele>-1.0</ele><time>2026-05-04T06:19:41Z</time></trkpt><trkpt lat="41.64346219329072" lon="19.602581682087553"><ele>-1.0</ele><time>2026-05-04T06:19:42Z</time></trkpt><trkpt lat="41.64358172585631" lon="19.602799643168876"><ele>-1.0</ele><time>2026-05-04T06:19:43Z</time></trkpt><trkpt lat="41.643706167639465" lon="19.60301960505773"><ele>-1.3333333333333333</ele><time>2026-05-04T06:19:44Z</time></trkpt><trkpt lat="41.64382636742907" lon="19.603241667517544"><ele>-1.6666666666666665</ele><time>2026-05-04T06:19:45Z</time></trkpt><trkpt lat="41.643949359831325" lon="19.60346861743219"><ele>-2.0</ele><time>2026-05-04T06:19:46Z</time></trkpt><trkpt lat="41.6440735665824" lon="19.603695277624208"><ele>-2.333333333333333</ele><time>2026-05-04T06:19:47Z</time></trkpt><trkpt lat="41.64419780032933" lon="19.60392134779444"><ele>-2.6666666666666665</ele><time>2026-05-04T06:19:48Z</time></trkpt><trkpt lat="41.6443201259666" lon="19.604145524517474"><ele>-3.0</ele><time>2026-05-04T06:19:49Z</time></trkpt><trkpt lat="41.64444167495543" lon="19.604374897563456"><ele>-2.3333333333333335</ele><time>2026-05-04T06:19:50Z</time></trkpt><trkpt lat="41.644556528263486" lon="19.60459635310297"><ele>-1.6666666666666665</ele><time>2026-05-04T06:19:51Z</time></trkpt><trkpt lat="41.644671891830846" lon="19.60482398426511"><ele>-1.0</ele><time>2026-05-04T06:19:52Z</time></trkpt><trkpt lat="41.64478609891915" lon="19.60504925299972"><ele>-1.0</ele><time>2026-05-04T06:19:53Z</time></trkpt><trkpt lat="41.64489876162907" lon="19.605275696214036"><ele>-1.0</ele><time>2026-05-04T06:19:54Z</time></trkpt><trkpt lat="41.64501431517857" lon="19.605504965972933"><ele>-1.0</ele><time>2026-05-04T06:19:55Z</time></trkpt><trkpt lat="41.645124952884885" lon="19.60573029061721"><ele>-1.5</ele><time>2026-05-04T06:19:56Z</time></trkpt><trkpt lat="41.645343443351194" lon="19.606181335532472"><ele>-2.0</ele><time>2026-05-04T06:19:58Z</time></trkpt><trkpt lat="41.64544551743275" lon="19.606406577562346"><ele>-2.0</ele><time>2026-05-04T06:19:59Z</time></trkpt><trkpt lat="41.645537657252035" lon="19.606622078867257"><ele>-2.0</ele><time>2026-05-04T06:20:00Z</time></trkpt><trkpt lat="41.64560907292862" lon="19.606814858744407"><ele>-2.0</ele><time>2026-05-04T06:20:01Z</time></trkpt><trkpt lat="41.645655297583374" lon="19.607000320359"><ele>-2.0</ele><time>2026-05-04T06:20:02Z</time></trkpt><trkpt lat="41.645666601511735" lon="19.607192171461005"><ele>-2.0</ele><time>2026-05-04T06:20:03Z</time></trkpt><trkpt lat="41.64565781493679" lon="19.607386723980163"><ele>-2.0</ele><time>2026-05-04T06:20:04Z</time></trkpt><trkpt lat="41.64563956533797" lon="19.60758577659748"><ele>-2.0</ele><time>2026-05-04T06:20:05Z</time></trkpt><trkpt lat="41.64562430736315" lon="19.607795671483707"><ele>-2.0</ele><time>2026-05-04T06:20:05.999Z</time></trkpt><trkpt lat="41.645611633724755" lon="19.608018203118483"><ele>-2.0</ele><time>2026-05-04T06:20:06.999Z</time></trkpt><trkpt lat="41.64559858233134" lon="19.60824580670632"><ele>-2.0</ele><time>2026-05-04T06:20:07.999Z</time></trkpt><trkpt lat="41.645583451299714" lon="19.608479948088554"><ele>-3.0</ele><time>2026-05-04T06:20:08.999Z</time></trkpt><trkpt lat="41.64556925766344" lon="19.608716914242674"><ele>-4.0</ele><time>2026-05-04T06:20:09.999Z</time></trkpt><trkpt lat="41.645554504533045" lon="19.60895833051658"><ele>-5.0</ele><time>2026-05-04T06:20:10.999Z</time></trkpt><trkpt lat="41.64553816123151" lon="19.609202977144175"><ele>-5.0</ele><time>2026-05-04T06:20:11.999Z</time></trkpt><trkpt lat="41.645519026991" lon="19.609450876646243"><ele>-5.0</ele><time>2026-05-04T06:20:12.999Z</time></trkpt><trkpt lat="41.64549864740355" lon="19.609700503197782"><ele>-5.0</ele><time>2026-05-04T06:20:13.999Z</time></trkpt><trkpt lat="41.645480491425495" lon="19.609953266166187"><ele>-4.666666666666667</ele><time>2026-05-04T06:20:14.999Z</time></trkpt><trkpt lat="41.64546479723365" lon="19.61020809258774"><ele>-4.333333333333333</ele><time>2026-05-04T06:20:15.999Z</time></trkpt><trkpt lat="41.645449703566925" lon="19.61046278937139"><ele>-4.0</ele><time>2026-05-04T06:20:16.999Z</time></trkpt><trkpt lat="41.64543530986696" lon="19.610717495953086"><ele>-4.0</ele><time>2026-05-04T06:20:17.999Z</time></trkpt><trkpt lat="41.64541460327571" lon="19.610972140354118"><ele>-4.0</ele><time>2026-05-04T06:20:18.999Z</time></trkpt><trkpt lat="41.64539010932878" lon="19.611227379157395"><ele>-4.0</ele><time>2026-05-04T06:20:19.999Z</time></trkpt><trkpt lat="41.645367654886606" lon="19.611477605476413"><ele>-3.333333333333333</ele><time>2026-05-04T06:20:20.999Z</time></trkpt><trkpt lat="41.645349696390205" lon="19.611734150185356"><ele>-2.6666666666666665</ele><time>2026-05-04T06:20:21.999Z</time></trkpt><trkpt lat="41.645336089074824" lon="19.611991822102084"><ele>-2.0</ele><time>2026-05-04T06:20:22.999Z</time></trkpt><trkpt lat="41.64531959675527" lon="19.61225042292183"><ele>-2.0</ele><time>2026-05-04T06:20:23.999Z</time></trkpt><trkpt lat="41.645302077101135" lon="19.612513382593768"><ele>-2.0</ele><time>2026-05-04T06:20:24.999Z</time></trkpt><trkpt lat="41.64528173619658" lon="19.61277532255868"><ele>-2.0</ele><time>2026-05-04T06:20:25.999Z</time></trkpt><trkpt lat="41.645258632533675" lon="19.6130426560038"><ele>-2.333333333333333</ele><time>2026-05-04T06:20:26.999Z</time></trkpt><trkpt lat="41.64523787370719" lon="19.613310572637054"><ele>-2.6666666666666665</ele><time>2026-05-04T06:20:27.999Z</time></trkpt><trkpt lat="41.6452166724434" lon="19.61357819884978"><ele>-3.0</ele><time>2026-05-04T06:20:28.999Z</time></trkpt><trkpt lat="41.645196820953124" lon="19.613850945765265"><ele>-3.0</ele><time>2026-05-04T06:20:29.999Z</time></trkpt><trkpt lat="41.645175060066464" lon="19.614127073857965"><ele>-3.0</ele><time>2026-05-04T06:20:30.999Z</time></trkpt><trkpt lat="41.645155185981494" lon="19.61440636365978"><ele>-3.0</ele><time>2026-05-04T06:20:31.999Z</time></trkpt><trkpt lat="41.645136179845856" lon="19.614691928961058"><ele>-2.6666666666666665</ele><time>2026-05-04T06:20:32.999Z</time></trkpt><trkpt lat="41.64511899667058" lon="19.614977703756452"><ele>-2.333333333333333</ele><time>2026-05-04T06:20:33.999Z</time></trkpt><trkpt lat="41.64510050222097" lon="19.61526623258751"><ele>-2.0</ele><time>2026-05-04T06:20:34.999Z</time></trkpt><trkpt lat="41.645080640730804" lon="19.61555385530931"><ele>-2.0</ele><time>2026-05-04T06:20:35.999Z</time></trkpt><trkpt lat="41.64506034902099" lon="19.615842360118958"><ele>-2.0</ele><time>2026-05-04T06:20:36.999Z</time></trkpt><trkpt lat="41.64504141528787" lon="19.616130403512315"><ele>-2.0</ele><time>2026-05-04T06:20:37.999Z</time></trkpt><trkpt lat="41.64502331649214" lon="19.616416102722884"><ele>-2.333333333333333</ele><time>2026-05-04T06:20:38.999Z</time></trkpt><trkpt lat="41.645004033996706" lon="19.61670234386081"><ele>-2.6666666666666665</ele><time>2026-05-04T06:20:39.999Z</time></trkpt><trkpt lat="41.644983202288614" lon="19.616981968309684"><ele>-3.0</ele><time>2026-05-04T06:20:40.999Z</time></trkpt><trkpt lat="41.644961985436346" lon="19.617268080929847"><ele>-3.333333333333333</ele><time>2026-05-04T06:20:41.999Z</time></trkpt><trkpt lat="41.64493998687136" lon="19.61756203609114"><ele>-3.6666666666666665</ele><time>2026-05-04T06:20:42.999Z</time></trkpt><trkpt lat="41.64492050548996" lon="19.617861874250814"><ele>-4.0</ele><time>2026-05-04T06:20:43.999Z</time></trkpt><trkpt lat="41.64490212958587" lon="19.618164347329934"><ele>-3.333333333333333</ele><time>2026-05-04T06:20:44.999Z</time></trkpt><trkpt lat="41.64488340672461" lon="19.618467361669758"><ele>-2.6666666666666665</ele><time>2026-05-04T06:20:45.999Z</time></trkpt><trkpt lat="41.64486648831576" lon="19.618756463769238"><ele>-2.0</ele><time>2026-05-04T06:20:46.999Z</time></trkpt><trkpt lat="41.64484779093539" lon="19.61904460082375"><ele>-2.0</ele><time>2026-05-04T06:20:47.999Z</time></trkpt><trkpt lat="41.64482823144943" lon="19.61932918073988"><ele>-2.0</ele><time>2026-05-04T06:20:48.999Z</time></trkpt><trkpt lat="41.64480939201138" lon="19.619612717032897"><ele>-2.0</ele><time>2026-05-04T06:20:49.999Z</time></trkpt><trkpt lat="41.644792753864785" lon="19.61988953883138"><ele>-1.6666666666666665</ele><time>2026-05-04T06:20:50.999Z</time></trkpt><trkpt lat="41.64477558989923" lon="19.620162185303457"><ele>-1.3333333333333333</ele><time>2026-05-04T06:20:51.999Z</time></trkpt><trkpt lat="41.64475833667656" lon="19.620427352608885"><ele>-1.0</ele><time>2026-05-04T06:20:52.999Z</time></trkpt><trkpt lat="41.64474151019185" lon="19.620686111429745"><ele>-1.0</ele><time>2026-05-04T06:20:53.999Z</time></trkpt><trkpt lat="41.644725311474254" lon="19.6209323874645"><ele>-1.0</ele><time>2026-05-04T06:20:54.999Z</time></trkpt><trkpt lat="41.64471167127768" lon="19.621173113405952"><ele>-1.0</ele><time>2026-05-04T06:20:55.999Z</time></trkpt><trkpt lat="41.644696030185244" lon="19.621402401785602"><ele>-1.0</ele><time>2026-05-04T06:20:56.999Z</time></trkpt><trkpt lat="41.644680858276544" lon="19.621606879458064"><ele>-1.0</ele><time>2026-05-04T06:20:57.999Z</time></trkpt><trkpt lat="41.64467108657832" lon="19.62177939910541"><ele>-1.0</ele><time>2026-05-04T06:20:58.999Z</time></trkpt><trkpt lat="41.64466316219129" lon="19.621921974030148"><ele>-1.0</ele><time>2026-05-04T06:20:59.999Z</time></trkpt><trkpt lat="41.64465515486089" lon="19.622045143736244"><ele>-0.8571428571428571</ele><time>2026-05-04T06:21:00.999Z</time></trkpt><trkpt lat="41.644644374992325" lon="19.622161189651628"><ele>-0.7142857142857142</ele><time>2026-05-04T06:21:01.999Z</time></trkpt><trkpt lat="41.644632913720216" lon="19.622249471560384"><ele>-0.5714285714285714</ele><time>2026-05-04T06:21:02.999Z</time></trkpt><trkpt lat="41.6446197404679" lon="19.622336097982593"><ele>-0.42857142857142855</ele><time>2026-05-04T06:21:03.999Z</time></trkpt><trkpt lat="41.64461170387443" lon="19.62242154261432"><ele>-0.2857142857142857</ele><time>2026-05-04T06:21:04.999Z</time></trkpt><trkpt lat="41.644601297558175" lon="19.622518593422217"><ele>-0.14285714285714285</ele><time>2026-05-04T06:21:05.999Z</time></trkpt><trkpt lat="41.64459108735667" lon="19.62262862609011"><ele>0.0</ele><time>2026-05-04T06:21:06.999Z</time></trkpt><trkpt lat="41.644581963622365" lon="19.622745072178397"><ele>0.25</ele><time>2026-05-04T06:21:07.999Z</time></trkpt><trkpt lat="41.64457524030199" lon="19.622879319096974"><ele>0.5</ele><time>2026-05-04T06:21:08.999Z</time></trkpt><trkpt lat="41.644567963695856" lon="19.6230465271594"><ele>0.75</ele><time>2026-05-04T06:21:09.999Z</time></trkpt><trkpt lat="41.644564277759216" lon="19.62323816915209"><ele>1.0</ele><time>2026-05-04T06:21:10.999Z</time></trkpt><trkpt lat="41.644546600754175" lon="19.623472788547343"><ele>0.0</ele><time>2026-05-04T06:21:11.999Z</time></trkpt><trkpt lat="41.644519983354016" lon="19.62371162689042"><ele>-1.0</ele><time>2026-05-04T06:21:12.999Z</time></trkpt><trkpt lat="41.644502179876206" lon="19.623964848517037"><ele>-2.0</ele><time>2026-05-04T06:21:13.999Z</time></trkpt><trkpt lat="41.64448709210544" lon="19.624222232197972"><ele>-1.6666666666666665</ele><time>2026-05-04T06:21:14.999Z</time></trkpt><trkpt lat="41.6444712063088" lon="19.62448617348423"><ele>-1.3333333333333333</ele><time>2026-05-04T06:21:15.999Z</time></trkpt><trkpt lat="41.644453326537864" lon="19.624750130946854"><ele>-1.0</ele><time>2026-05-04T06:21:16.999Z</time></trkpt><trkpt lat="41.64443769625649" lon="19.625011717332157"><ele>-1.0</ele><time>2026-05-04T06:21:17.999Z</time></trkpt><trkpt lat="41.6444211836019" lon="19.625273996560413"><ele>-1.0</ele><time>2026-05-04T06:21:18.999Z</time></trkpt><trkpt lat="41.64440240617692" lon="19.62553730105907"><ele>-1.0</ele><time>2026-05-04T06:21:19.999Z</time></trkpt><trkpt lat="41.644383384547794" lon="19.625803171605355"><ele>-1.0</ele><time>2026-05-04T06:21:20.999Z</time></trkpt><trkpt lat="41.64436633541766" lon="19.626067929025236"><ele>-1.0</ele><time>2026-05-04T06:21:21.999Z</time></trkpt><trkpt lat="41.644350813347295" lon="19.626338865778965"><ele>-1.0</ele><time>2026-05-04T06:21:22.999Z</time></trkpt><trkpt lat="41.644336578510845" lon="19.62660630693878"><ele>-1.0</ele><time>2026-05-04T06:21:23.999Z</time></trkpt><trkpt lat="41.64432284624977" lon="19.62686416128782"><ele>-1.0</ele><time>2026-05-04T06:21:24.999Z</time></trkpt><trkpt lat="41.64431296193831" lon="19.627133176694088"><ele>-1.0</ele><time>2026-05-04T06:21:25.999Z</time></trkpt><trkpt lat="41.644304297759234" lon="19.62740591696982"><ele>-1.3333333333333333</ele><time>2026-05-04T06:21:26.999Z</time></trkpt><trkpt lat="41.64429706529695" lon="19.627680683305503"><ele>-1.6666666666666665</ele><time>2026-05-04T06:21:27.999Z</time></trkpt><trkpt lat="41.64429262621463" lon="19.627959691843294"><ele>-2.0</ele><time>2026-05-04T06:21:28.999Z</time></trkpt><trkpt lat="41.64424674486539" lon="19.628186781861775"><ele>-2.0</ele><time>2026-05-04T06:21:29.999Z</time></trkpt><trkpt lat="41.644226129666166" lon="19.628451307421454"><ele>-2.0</ele><time>2026-05-04T06:21:30.999Z</time></trkpt><trkpt lat="41.64420741819698" lon="19.628718639293353"><ele>-2.0</ele><time>2026-05-04T06:21:31.999Z</time></trkpt><trkpt lat="41.64419147631361" lon="19.62898806762408"><ele>-2.0</ele><time>2026-05-04T06:21:32.999Z</time></trkpt><trkpt lat="41.64417386929361" lon="19.629259088145343"><ele>-2.0</ele><time>2026-05-04T06:21:33.999Z</time></trkpt><trkpt lat="41.64415668391509" lon="19.629530004387032"><ele>-2.0</ele><time>2026-05-04T06:21:34.999Z</time></trkpt><trkpt lat="41.644139746528005" lon="19.629804713793845"><ele>-2.0</ele><time>2026-05-04T06:21:35.999Z</time></trkpt><trkpt lat="41.64412336547589" lon="19.63008202988731"><ele>-2.0</ele><time>2026-05-04T06:21:36.999Z</time></trkpt><trkpt lat="41.64410674190242" lon="19.630359689966536"><ele>-2.0</ele><time>2026-05-04T06:21:37.999Z</time></trkpt><trkpt lat="41.64408992337871" lon="19.63063952657318"><ele>-2.0</ele><time>2026-05-04T06:21:39Z</time></trkpt><trkpt lat="41.64407135515312" lon="19.63091912818402"><ele>-2.0</ele><time>2026-05-04T06:21:40Z</time></trkpt><trkpt lat="41.644053281671404" lon="19.63120695023062"><ele>-2.0</ele><time>2026-05-04T06:21:41Z</time></trkpt><trkpt lat="41.644035133090256" lon="19.63150510259049"><ele>-1.5</ele><time>2026-05-04T06:21:42Z</time></trkpt><trkpt lat="41.64401685731182" lon="19.631805832023833"><ele>-1.0</ele><time>2026-05-04T06:21:43Z</time></trkpt><trkpt lat="41.643996801310124" lon="19.632109140729938"><ele>-1.0</ele><time>2026-05-04T06:21:44Z</time></trkpt><trkpt lat="41.6439781464638" lon="19.632414825597504"><ele>-1.0</ele><time>2026-05-04T06:21:45Z</time></trkpt><trkpt lat="41.64395920538365" lon="19.632723100839147"><ele>-1.5</ele><time>2026-05-04T06:21:46Z</time></trkpt><trkpt lat="41.64394163044129" lon="19.633035489975107"><ele>-2.0</ele><time>2026-05-04T06:21:47Z</time></trkpt><trkpt lat="41.64392479812" lon="19.63335384439134"><ele>-2.5</ele><time>2026-05-04T06:21:48Z</time></trkpt><trkpt lat="41.64390622576571" lon="19.63367013443632"><ele>-3.0</ele><time>2026-05-04T06:21:49Z</time></trkpt><trkpt lat="41.643884588956645" lon="19.633992959279638"><ele>-3.0</ele><time>2026-05-04T06:21:50Z</time></trkpt><trkpt lat="41.64386259049694" lon="19.63431672105775"><ele>-3.0</ele><time>2026-05-04T06:21:51Z</time></trkpt><trkpt lat="41.643842780545214" lon="19.634639591665046"><ele>-1.5</ele><time>2026-05-04T06:21:52Z</time></trkpt><trkpt lat="41.64382424646798" lon="19.634962521578302"><ele>0.0</ele><time>2026-05-04T06:21:53Z</time></trkpt><trkpt lat="41.6438052202109" lon="19.63528322545753"><ele>-0.5</ele><time>2026-05-04T06:21:54Z</time></trkpt><trkpt lat="41.64378782876413" lon="19.63559985138139"><ele>-1.0</ele><time>2026-05-04T06:21:55Z</time></trkpt><trkpt lat="41.6437717135605" lon="19.635909977642253"><ele>-1.3333333333333333</ele><time>2026-05-04T06:21:56Z</time></trkpt><trkpt lat="41.64375199161632" lon="19.636206451817834"><ele>-1.6666666666666665</ele><time>2026-05-04T06:21:57Z</time></trkpt><trkpt lat="41.643733609691814" lon="19.636487641823166"><ele>-2.0</ele><time>2026-05-04T06:21:58Z</time></trkpt><trkpt lat="41.643718465633114" lon="19.636755417444398"><ele>-1.6666666666666665</ele><time>2026-05-04T06:21:59Z</time></trkpt><trkpt lat="41.64370271161945" lon="19.637008357605545"><ele>-1.3333333333333333</ele><time>2026-05-04T06:22:00Z</time></trkpt><trkpt lat="41.643685367871704" lon="19.637247795743033"><ele>-1.0</ele><time>2026-05-04T06:22:01Z</time></trkpt><trkpt lat="41.64366934883201" lon="19.637475473711064"><ele>-1.0</ele><time>2026-05-04T06:22:02Z</time></trkpt><trkpt lat="41.643655558044415" lon="19.637689956557963"><ele>-1.0</ele><time>2026-05-04T06:22:03Z</time></trkpt><trkpt lat="41.64364728786441" lon="19.637900784151228"><ele>-1.0</ele><time>2026-05-04T06:22:04Z</time></trkpt><trkpt lat="41.643646654864376" lon="19.638132429073973"><ele>-1.3333333333333333</ele><time>2026-05-04T06:22:05Z</time></trkpt><trkpt lat="41.64364123545568" lon="19.638381722776234"><ele>-1.6666666666666665</ele><time>2026-05-04T06:22:06Z</time></trkpt><trkpt lat="41.64363242488357" lon="19.638636338785243"><ele>-2.0</ele><time>2026-05-04T06:22:07Z</time></trkpt><trkpt lat="41.64361597599794" lon="19.638893179687873"><ele>-2.0</ele><time>2026-05-04T06:22:08Z</time></trkpt><trkpt lat="41.643594857180936" lon="19.63915502551952"><ele>-2.0</ele><time>2026-05-04T06:22:09Z</time></trkpt><trkpt lat="41.64357344154288" lon="19.63942342897026"><ele>-2.0</ele><time>2026-05-04T06:22:10Z</time></trkpt><trkpt lat="41.64355653942881" lon="19.63970078550176"><ele>-2.333333333333333</ele><time>2026-05-04T06:22:11Z</time></trkpt><trkpt lat="41.643542904874145" lon="19.63995418007289"><ele>-2.6666666666666665</ele><time>2026-05-04T06:22:12Z</time></trkpt><trkpt lat="41.643525589752606" lon="19.64015989325064"><ele>-3.0</ele><time>2026-05-04T06:22:13Z</time></trkpt><trkpt lat="41.64351084329254" lon="19.640335211905573"><ele>-2.25</ele><time>2026-05-04T06:22:14Z</time></trkpt><trkpt lat="41.643501364518265" lon="19.640487324274662"><ele>-1.5</ele><time>2026-05-04T06:22:15Z</time></trkpt><trkpt lat="41.64349322823838" lon="19.64069663483229"><ele>-0.75</ele><time>2026-05-04T06:22:17Z</time></trkpt><trkpt lat="41.643479726140384" lon="19.640865327453394"><ele>0.0</ele><time>2026-05-04T06:22:18Z</time></trkpt><trkpt lat="41.643457984742895" lon="19.641060602474894"><ele>0.0</ele><time>2026-05-04T06:22:19Z</time></trkpt><trkpt lat="41.64343881456127" lon="19.64126894205724"><ele>0.0</ele><time>2026-05-04T06:22:20Z</time></trkpt><trkpt lat="41.643429267218316" lon="19.641497876229664"><ele>0.0</ele><time>2026-05-04T06:22:21Z</time></trkpt><trkpt lat="41.643423453658805" lon="19.641747935933353"><ele>0.3333333333333333</ele><time>2026-05-04T06:22:22Z</time></trkpt><trkpt lat="41.64340787525351" lon="19.64200746370995"><ele>0.6666666666666666</ele><time>2026-05-04T06:22:23Z</time></trkpt><trkpt lat="41.643391048554086" lon="19.64226573293913"><ele>1.0</ele><time>2026-05-04T06:22:24Z</time></trkpt><trkpt lat="41.64337156261487" lon="19.64253336101926"><ele>0.6666666666666666</ele><time>2026-05-04T06:22:25Z</time></trkpt><trkpt lat="41.643356838154496" lon="19.642810159144474"><ele>0.3333333333333333</ele><time>2026-05-04T06:22:26Z</time></trkpt><trkpt lat="41.64333697062019" lon="19.64306374488389"><ele>0.0</ele><time>2026-05-04T06:22:27Z</time></trkpt><trkpt lat="41.643309031116" lon="19.643291236579852"><ele>0.0</ele><time>2026-05-04T06:22:28Z</time></trkpt><trkpt lat="41.64325700739041" lon="19.643486626425485"><ele>0.0</ele><time>2026-05-04T06:22:29Z</time></trkpt><trkpt lat="41.643179160676524" lon="19.643609750698037"><ele>0.0</ele><time>2026-05-04T06:22:30Z</time></trkpt><trkpt lat="41.643064171686845" lon="19.643690799849953"><ele>0.0</ele><time>2026-05-04T06:22:31Z</time></trkpt><trkpt lat="41.64293092487942" lon="19.643734382114705"><ele>0.25</ele><time>2026-05-04T06:22:32Z</time></trkpt><trkpt lat="41.64279747997042" lon="19.64378269443057"><ele>0.5</ele><time>2026-05-04T06:22:33Z</time></trkpt><trkpt lat="41.642679386011714" lon="19.643862482793075"><ele>0.75</ele><time>2026-05-04T06:22:34Z</time></trkpt><trkpt lat="41.642581145346675" lon="19.64397332292562"><ele>1.0</ele><time>2026-05-04T06:22:35Z</time></trkpt><trkpt lat="41.64252029681136" lon="19.644107302601093"><ele>1.0</ele><time>2026-05-04T06:22:36Z</time></trkpt><trkpt lat="41.64250089651288" lon="19.644263223883357"><ele>1.0</ele><time>2026-05-04T06:22:37Z</time></trkpt><trkpt lat="41.642515749649746" lon="19.64444385506704"><ele>1.0</ele><time>2026-05-04T06:22:38Z</time></trkpt><trkpt lat="41.642552519906744" lon="19.644640696060318"><ele>1.0</ele><time>2026-05-04T06:22:39Z</time></trkpt><trkpt lat="41.64259381423068" lon="19.644864458183196"><ele>1.0</ele><time>2026-05-04T06:22:40Z</time></trkpt><trkpt lat="41.64263414675999" lon="19.64508926429087"><ele>1.0</ele><time>2026-05-04T06:22:41Z</time></trkpt><trkpt lat="41.64267738873884" lon="19.645334820102264"><ele>1.0</ele><time>2026-05-04T06:22:42Z</time></trkpt><trkpt lat="41.64272350163884" lon="19.64559735340612"><ele>1.0</ele><time>2026-05-04T06:22:43Z</time></trkpt><trkpt lat="41.642775383509736" lon="19.64585987892111"><ele>1.0</ele><time>2026-05-04T06:22:44Z</time></trkpt><trkpt lat="41.64283632744408" lon="19.6461319455245"><ele>1.0</ele><time>2026-05-04T06:22:45Z</time></trkpt><trkpt lat="41.64290082387404" lon="19.646409497450584"><ele>0.6666666666666666</ele><time>2026-05-04T06:22:46Z</time></trkpt><trkpt lat="41.642966437883814" lon="19.646697751097737"><ele>0.3333333333333333</ele><time>2026-05-04T06:22:47Z</time></trkpt><trkpt lat="41.6430196789605" lon="19.646967558030404"><ele>0.0</ele><time>2026-05-04T06:22:48Z</time></trkpt><trkpt lat="41.64305720632996" lon="19.647223145952147"><ele>0.0</ele><time>2026-05-04T06:22:49Z</time></trkpt><trkpt lat="41.643063752761854" lon="19.647491045684617"><ele>0.0</ele><time>2026-05-04T06:22:50Z</time></trkpt><trkpt lat="41.64304580306021" lon="19.64776920764587"><ele>0.0</ele><time>2026-05-04T06:22:51Z</time></trkpt><trkpt lat="41.643022131046415" lon="19.648065523893067"><ele>0.0</ele><time>2026-05-04T06:22:51.999Z</time></trkpt><trkpt lat="41.643001057289275" lon="19.648388910195003"><ele>0.0</ele><time>2026-05-04T06:22:52.999Z</time></trkpt><trkpt lat="41.64298206049925" lon="19.64871051121683"><ele>0.5</ele><time>2026-05-04T06:22:53.999Z</time></trkpt><trkpt lat="41.642963114444164" lon="19.649039376217278"><ele>1.0</ele><time>2026-05-04T06:22:54.999Z</time></trkpt><trkpt lat="41.64294107001135" lon="19.649374302289207"><ele>0.5</ele><time>2026-05-04T06:22:55.999Z</time></trkpt><trkpt lat="41.64291761272446" lon="19.649712011758158"><ele>0.0</ele><time>2026-05-04T06:22:56.999Z</time></trkpt><trkpt lat="41.642896833021446" lon="19.650056264427906"><ele>-0.5</ele><time>2026-05-04T06:22:57.999Z</time></trkpt><trkpt lat="41.642875911933245" lon="19.65040391909712"><ele>-1.0</ele><time>2026-05-04T06:22:58.999Z</time></trkpt><trkpt lat="41.6428555470305" lon="19.650755874233003"><ele>-1.0</ele><time>2026-05-04T06:22:59.999Z</time></trkpt><trkpt lat="41.6428331782698" lon="19.65111047460783"><ele>-1.0</ele><time>2026-05-04T06:23:00.999Z</time></trkpt><trkpt lat="41.64281173850703" lon="19.651464236554073"><ele>0.0</ele><time>2026-05-04T06:23:01.999Z</time></trkpt><trkpt lat="41.64278885709498" lon="19.651816297507516"><ele>1.0</ele><time>2026-05-04T06:23:02.999Z</time></trkpt><trkpt lat="41.64276581448084" lon="19.652163862664437"><ele>1.0</ele><time>2026-05-04T06:23:03.999Z</time></trkpt><trkpt lat="41.64274367994756" lon="19.652506653474784"><ele>1.0</ele><time>2026-05-04T06:23:04.999Z</time></trkpt><trkpt lat="41.64271944680473" lon="19.652845385059628"><ele>0.0</ele><time>2026-05-04T06:23:05.999Z</time></trkpt><trkpt lat="41.642696198016274" lon="19.6531834580227"><ele>-1.0</ele><time>2026-05-04T06:23:06.999Z</time></trkpt><trkpt lat="41.64267507811175" lon="19.65351945345489"><ele>-1.0</ele><time>2026-05-04T06:23:07.999Z</time></trkpt><trkpt lat="41.642655563895346" lon="19.653854684643683"><ele>-1.0</ele><time>2026-05-04T06:23:08.999Z</time></trkpt><trkpt lat="41.642638669680856" lon="19.654186331202467"><ele>0.5</ele><time>2026-05-04T06:23:09.999Z</time></trkpt><trkpt lat="41.64262130796103" lon="19.65451475809326"><ele>2.0</ele><time>2026-05-04T06:23:10.999Z</time></trkpt><trkpt lat="41.64260094476976" lon="19.654844536001146"><ele>2.0</ele><time>2026-05-04T06:23:11.999Z</time></trkpt><trkpt lat="41.64258306644692" lon="19.655175073518848"><ele>2.0</ele><time>2026-05-04T06:23:12.999Z</time></trkpt><trkpt lat="41.64257612889564" lon="19.655508076700727"><ele>1.5</ele><time>2026-05-04T06:23:13.999Z</time></trkpt><trkpt lat="41.642574647783356" lon="19.65584569669872"><ele>1.0</ele><time>2026-05-04T06:23:14.999Z</time></trkpt><trkpt lat="41.64251730603914" lon="19.65615981721777"><ele>0.0</ele><time>2026-05-04T06:23:15.999Z</time></trkpt><trkpt lat="41.642495666302736" lon="19.656487177769005"><ele>-1.0</ele><time>2026-05-04T06:23:16.999Z</time></trkpt><trkpt lat="41.64247624025725" lon="19.656816451534112"><ele>-0.5</ele><time>2026-05-04T06:23:17.999Z</time></trkpt><trkpt lat="41.64245533646166" lon="19.65714572843421"><ele>0.0</ele><time>2026-05-04T06:23:18.999Z</time></trkpt><trkpt lat="41.6424369427652" lon="19.657477866513403"><ele>0.0</ele><time>2026-05-04T06:23:19.999Z</time></trkpt><trkpt lat="41.642416437430384" lon="19.65780561636758"><ele>0.0</ele><time>2026-05-04T06:23:20.999Z</time></trkpt><trkpt lat="41.64239610916162" lon="19.65813569499418"><ele>0.0</ele><time>2026-05-04T06:23:21.999Z</time></trkpt><trkpt lat="41.64237718944293" lon="19.658466986052474"><ele>0.0</ele><time>2026-05-04T06:23:22.999Z</time></trkpt><trkpt lat="41.64235713031832" lon="19.658793708212478"><ele>-0.5</ele><time>2026-05-04T06:23:23.999Z</time></trkpt><trkpt lat="41.64233825730499" lon="19.65911930428517"><ele>-1.0</ele><time>2026-05-04T06:23:24.999Z</time></trkpt><trkpt lat="41.64231967244854" lon="19.659444334648136"><ele>-1.0</ele><time>2026-05-04T06:23:25.999Z</time></trkpt><trkpt lat="41.64229832479119" lon="19.659770398680553"><ele>-1.0</ele><time>2026-05-04T06:23:26.999Z</time></trkpt><trkpt lat="41.642275886270376" lon="19.660095025860507"><ele>-1.0</ele><time>2026-05-04T06:23:27.999Z</time></trkpt><trkpt lat="41.64225494893446" lon="19.66042461322014"><ele>-1.0</ele><time>2026-05-04T06:23:28.999Z</time></trkpt><trkpt lat="41.642237536906954" lon="19.660750312913205"><ele>-1.0</ele><time>2026-05-04T06:23:29.999Z</time></trkpt><trkpt lat="41.64221817222607" lon="19.661077125706417"><ele>-1.0</ele><time>2026-05-04T06:23:30.999Z</time></trkpt><trkpt lat="41.642198900667076" lon="19.661400082891596"><ele>-1.0</ele><time>2026-05-04T06:23:31.999Z</time></trkpt><trkpt lat="41.64217968015973" lon="19.66172654278855"><ele>-1.0</ele><time>2026-05-04T06:23:32.999Z</time></trkpt><trkpt lat="41.64215917239503" lon="19.66205316193519"><ele>-1.0</ele><time>2026-05-04T06:23:33.999Z</time></trkpt><trkpt lat="41.642138400017515" lon="19.66237977534638"><ele>-1.0</ele><time>2026-05-04T06:23:34.999Z</time></trkpt><trkpt lat="41.642117220625714" lon="19.662705092709224"><ele>-1.5</ele><time>2026-05-04T06:23:35.999Z</time></trkpt><trkpt lat="41.642098974581884" lon="19.663033006784794"><ele>-2.0</ele><time>2026-05-04T06:23:36.999Z</time></trkpt><trkpt lat="41.64208102406116" lon="19.663342546636155"><ele>-2.0</ele><time>2026-05-04T06:23:37.999Z</time></trkpt><trkpt lat="41.64206601719096" lon="19.663613388907127"><ele>-2.0</ele><time>2026-05-04T06:23:38.999Z</time></trkpt><trkpt lat="41.64205546775693" lon="19.663836296447705"><ele>-2.0</ele><time>2026-05-04T06:23:39.999Z</time></trkpt><trkpt lat="41.64204335237942" lon="19.664047619370034"><ele>-2.0</ele><time>2026-05-04T06:23:40.999Z</time></trkpt><trkpt lat="41.642028676631796" lon="19.664245618926216"><ele>-2.0</ele><time>2026-05-04T06:23:41.999Z</time></trkpt><trkpt lat="41.64201342520846" lon="19.664443251720783"><ele>-2.0</ele><time>2026-05-04T06:23:42.999Z</time></trkpt><trkpt lat="41.641999855343975" lon="19.66465287225144"><ele>-2.333333333333333</ele><time>2026-05-04T06:23:43.999Z</time></trkpt><trkpt lat="41.64198610392682" lon="19.66486749251774"><ele>-2.6666666666666665</ele><time>2026-05-04T06:23:45Z</time></trkpt><trkpt lat="41.6419684255024" lon="19.665076662996707"><ele>-3.0</ele><time>2026-05-04T06:23:46Z</time></trkpt><trkpt lat="41.641950537924714" lon="19.665300947187877"><ele>-3.0</ele><time>2026-05-04T06:23:47Z</time></trkpt><trkpt lat="41.64193427930615" lon="19.66552662102078"><ele>-3.0</ele><time>2026-05-04T06:23:48Z</time></trkpt><trkpt lat="41.64191787706933" lon="19.665758572296415"><ele>-3.0</ele><time>2026-05-04T06:23:49Z</time></trkpt><trkpt lat="41.64190267607043" lon="19.665983394053953"><ele>-2.6666666666666665</ele><time>2026-05-04T06:23:50Z</time></trkpt><trkpt lat="41.641889596710286" lon="19.66622024303567"><ele>-2.333333333333333</ele><time>2026-05-04T06:23:51Z</time></trkpt><trkpt lat="41.641877710689954" lon="19.66645702063655"><ele>-2.0</ele><time>2026-05-04T06:23:52Z</time></trkpt><trkpt lat="41.64186365818457" lon="19.666692837322074"><ele>-2.0</ele><time>2026-05-04T06:23:53Z</time></trkpt><trkpt lat="41.641848231084" lon="19.666926161636468"><ele>-2.0</ele><time>2026-05-04T06:23:54Z</time></trkpt><trkpt lat="41.64183505004867" lon="19.667149477150886"><ele>-2.0</ele><time>2026-05-04T06:23:55Z</time></trkpt><trkpt lat="41.64181744844913" lon="19.667371079143845"><ele>-1.6666666666666665</ele><time>2026-05-04T06:23:56Z</time></trkpt><trkpt lat="41.64180288885002" lon="19.667593526683866"><ele>-1.3333333333333333</ele><time>2026-05-04T06:23:57Z</time></trkpt><trkpt lat="41.641791943958886" lon="19.667821056325707"><ele>-1.0</ele><time>2026-05-04T06:23:58Z</time></trkpt><trkpt lat="41.64177842267657" lon="19.66804905094971"><ele>-1.3333333333333333</ele><time>2026-05-04T06:23:59Z</time></trkpt><trkpt lat="41.641764089621304" lon="19.668279700721985"><ele>-1.6666666666666665</ele><time>2026-05-04T06:24:00Z</time></trkpt><trkpt lat="41.6417508785127" lon="19.668515263006597"><ele>-2.0</ele><time>2026-05-04T06:24:01Z</time></trkpt><trkpt lat="41.64173539638651" lon="19.668754877605114"><ele>-2.0</ele><time>2026-05-04T06:24:02Z</time></trkpt><trkpt lat="41.64171855858261" lon="19.668996276309915"><ele>-2.0</ele><time>2026-05-04T06:24:03Z</time></trkpt><trkpt lat="41.64170444941744" lon="19.66924378506007"><ele>-2.0</ele><time>2026-05-04T06:24:04Z</time></trkpt><trkpt lat="41.64168622437245" lon="19.66950197649229"><ele>-2.0</ele><time>2026-05-04T06:24:05Z</time></trkpt><trkpt lat="41.6416525986526" lon="19.66977315154176"><ele>-2.0</ele><time>2026-05-04T06:24:06Z</time></trkpt><trkpt lat="41.64162030954005" lon="19.670045312430233"><ele>-2.0</ele><time>2026-05-04T06:24:07Z</time></trkpt><trkpt lat="41.64158478583753" lon="19.67031635897287"><ele>-1.3333333333333333</ele><time>2026-05-04T06:24:08Z</time></trkpt><trkpt lat="41.641552559553176" lon="19.670569506085904"><ele>-0.6666666666666666</ele><time>2026-05-04T06:24:09Z</time></trkpt><trkpt lat="41.64152638300726" lon="19.670799351831683"><ele>0.0</ele><time>2026-05-04T06:24:10Z</time></trkpt><trkpt lat="41.64151141523217" lon="19.6709979993402"><ele>0.0</ele><time>2026-05-04T06:24:11Z</time></trkpt><trkpt lat="41.641506863916774" lon="19.67117926584585"><ele>0.0</ele><time>2026-05-04T06:24:12Z</time></trkpt><trkpt lat="41.64151065139257" lon="19.67133221483875"><ele>0.0</ele><time>2026-05-04T06:24:13Z</time></trkpt><trkpt lat="41.64150561320357" lon="19.67148227728688"><ele>0.0</ele><time>2026-05-04T06:24:14Z</time></trkpt><trkpt lat="41.64149609972595" lon="19.67165807242805"><ele>0.0</ele><time>2026-05-04T06:24:15Z</time></trkpt><trkpt lat="41.641476436579104" lon="19.671857981206003"><ele>0.0</ele><time>2026-05-04T06:24:16Z</time></trkpt><trkpt lat="41.64145952166566" lon="19.67204037833958"><ele>0.0</ele><time>2026-05-04T06:24:17Z</time></trkpt><trkpt lat="41.64145588782618" lon="19.672169902491568"><ele>0.0</ele><time>2026-05-04T06:24:18Z</time></trkpt><trkpt lat="41.64146329980905" lon="19.672275166553213"><ele>-0.2</ele><time>2026-05-04T06:24:19Z</time></trkpt><trkpt lat="41.64152443579392" lon="19.67238742804875"><ele>-0.4</ele><time>2026-05-04T06:24:21Z</time></trkpt><trkpt lat="41.64165336832514" lon="19.672399694922532"><ele>-0.6000000000000001</ele><time>2026-05-04T06:24:23Z</time></trkpt><trkpt lat="41.641746502684796" lon="19.672389930612706"><ele>-0.8</ele><time>2026-05-04T06:24:24Z</time></trkpt><trkpt lat="41.641858972802815" lon="19.672397254642306"><ele>-1.0</ele><time>2026-05-04T06:24:25Z</time></trkpt><trkpt lat="41.641967738327445" lon="19.672402624131845"><ele>-1.0</ele><time>2026-05-04T06:24:26Z</time></trkpt><trkpt lat="41.642070712549085" lon="19.672383207343362"><ele>-1.0</ele><time>2026-05-04T06:24:27Z</time></trkpt><trkpt lat="41.64215958083441" lon="19.672333108914145"><ele>-1.0</ele><time>2026-05-04T06:24:28Z</time></trkpt><trkpt lat="41.6422383822387" lon="19.672250269145838"><ele>-1.0</ele><time>2026-05-04T06:24:29Z</time></trkpt><trkpt lat="41.64231189087449" lon="19.672143739909973"><ele>-1.0</ele><time>2026-05-04T06:24:30Z</time></trkpt><trkpt lat="41.6423926602675" lon="19.672027351017157"><ele>-1.0</ele><time>2026-05-04T06:24:31Z</time></trkpt><trkpt lat="41.64248625650596" lon="19.67191361049887"><ele>-1.0</ele><time>2026-05-04T06:24:32Z</time></trkpt><trkpt lat="41.64258582073796" lon="19.671805681224278"><ele>-1.0</ele><time>2026-05-04T06:24:33Z</time></trkpt><trkpt lat="41.64267806350561" lon="19.671707927558444"><ele>-1.0</ele><time>2026-05-04T06:24:34Z</time></trkpt><trkpt lat="41.642759099578306" lon="19.67162238572504"><ele>-0.8</ele><time>2026-05-04T06:24:35Z</time></trkpt><trkpt lat="41.6428234877969" lon="19.67157201364511"><ele>-0.6000000000000001</ele><time>2026-05-04T06:24:36Z</time></trkpt><trkpt lat="41.64289056743128" lon="19.671556754981708"><ele>-0.4</ele><time>2026-05-04T06:24:37Z</time></trkpt><trkpt lat="41.64297797205524" lon="19.671558617920855"><ele>-0.2</ele><time>2026-05-04T06:24:38Z</time></trkpt><trkpt lat="41.64311370614312" lon="19.671575411620868"><ele>0.0</ele><time>2026-05-04T06:24:39Z</time></trkpt><trkpt lat="41.64326271044162" lon="19.671584985154702"><ele>0.0</ele><time>2026-05-04T06:24:40Z</time></trkpt><trkpt lat="41.64343262227716" lon="19.671593697919114"><ele>0.0</ele><time>2026-05-04T06:24:41Z</time></trkpt><trkpt lat="41.64361702029295" lon="19.671600807978184"><ele>0.0</ele><time>2026-05-04T06:24:42Z</time></trkpt><trkpt lat="41.64383487868583" lon="19.671610980391247"><ele>0.0</ele><time>2026-05-04T06:24:43Z</time></trkpt><trkpt lat="41.644052636835276" lon="19.671624620652313"><ele>0.0</ele><time>2026-05-04T06:24:44Z</time></trkpt><trkpt lat="41.644275682528715" lon="19.67164030985169"><ele>0.0</ele><time>2026-05-04T06:24:45Z</time></trkpt><trkpt lat="41.644501922123474" lon="19.67166050723458"><ele>0.0</ele><time>2026-05-04T06:24:46Z</time></trkpt><trkpt lat="41.644731692479716" lon="19.671684800900998"><ele>0.0</ele><time>2026-05-04T06:24:47Z</time></trkpt><trkpt lat="41.644985321020634" lon="19.671705675788793"><ele>0.0</ele><time>2026-05-04T06:24:48Z</time></trkpt><trkpt lat="41.645265946205924" lon="19.671727019653165"><ele>0.0</ele><time>2026-05-04T06:24:49Z</time></trkpt><trkpt lat="41.6455502739393" lon="19.671741813939114"><ele>-0.5</ele><time>2026-05-04T06:24:50Z</time></trkpt><trkpt lat="41.64583952798371" lon="19.671749082028192"><ele>-1.0</ele><time>2026-05-04T06:24:51Z</time></trkpt><trkpt lat="41.64612233878307" lon="19.671756825903174"><ele>0.0</ele><time>2026-05-04T06:24:52Z</time></trkpt><trkpt lat="41.6463736915094" lon="19.67177508705588"><ele>1.0</ele><time>2026-05-04T06:24:53Z</time></trkpt><trkpt lat="41.64661771388187" lon="19.67179558738858"><ele>1.0</ele><time>2026-05-04T06:24:54Z</time></trkpt><trkpt lat="41.64684458979823" lon="19.671815380053964"><ele>1.0</ele><time>2026-05-04T06:24:55Z</time></trkpt><trkpt lat="41.64705409706752" lon="19.671831318375546"><ele>1.0</ele><time>2026-05-04T06:24:56Z</time></trkpt><trkpt lat="41.64726081893741" lon="19.67184181106091"><ele>1.0</ele><time>2026-05-04T06:24:57Z</time></trkpt><trkpt lat="41.64747070825856" lon="19.671844176808186"><ele>1.0</ele><time>2026-05-04T06:24:58Z</time></trkpt><trkpt lat="41.647694742913984" lon="19.67183744408032"><ele>1.0</ele><time>2026-05-04T06:24:59Z</time></trkpt><trkpt lat="41.647933060696886" lon="19.671835729734237"><ele>1.0</ele><time>2026-05-04T06:25:00Z</time></trkpt><trkpt lat="41.64818413233051" lon="19.671850607360287"><ele>1.0</ele><time>2026-05-04T06:25:01Z</time></trkpt><trkpt lat="41.64844514751695" lon="19.671886806997186"><ele>1.0</ele><time>2026-05-04T06:25:02Z</time></trkpt><trkpt lat="41.64870821569546" lon="19.671932983061772"><ele>1.0</ele><time>2026-05-04T06:25:03Z</time></trkpt><trkpt lat="41.648969223280744" lon="19.67197185259333"><ele>0.5</ele><time>2026-05-04T06:25:04Z</time></trkpt><trkpt lat="41.64922027640748" lon="19.671995719081615"><ele>0.0</ele><time>2026-05-04T06:25:05Z</time></trkpt><trkpt lat="41.64945102144668" lon="19.67201298424557"><ele>1.0</ele><time>2026-05-04T06:25:06Z</time></trkpt><trkpt lat="41.649683422701166" lon="19.67203120169666"><ele>2.0</ele><time>2026-05-04T06:25:07Z</time></trkpt><trkpt lat="41.64991677900796" lon="19.67204432213618"><ele>2.0</ele><time>2026-05-04T06:25:08Z</time></trkpt><trkpt lat="41.650157981666936" lon="19.67206012980679"><ele>2.0</ele><time>2026-05-04T06:25:09Z</time></trkpt><trkpt lat="41.650393931629736" lon="19.672077194963048"><ele>2.0</ele><time>2026-05-04T06:25:10Z</time></trkpt><trkpt lat="41.650631928419834" lon="19.672094469820284"><ele>2.0</ele><time>2026-05-04T06:25:11Z</time></trkpt><trkpt lat="41.65086938736686" lon="19.672111176304064"><ele>2.0</ele><time>2026-05-04T06:25:12Z</time></trkpt><trkpt lat="41.65110882563153" lon="19.67212710424081"><ele>2.0</ele><time>2026-05-04T06:25:13Z</time></trkpt><trkpt lat="41.65134768872781" lon="19.672146132121203"><ele>1.5</ele><time>2026-05-04T06:25:14Z</time></trkpt><trkpt lat="41.651588109540434" lon="19.672168710116605"><ele>1.0</ele><time>2026-05-04T06:25:15Z</time></trkpt><trkpt lat="41.65182694157759" lon="19.67218814005762"><ele>2.0</ele><time>2026-05-04T06:25:16Z</time></trkpt><trkpt lat="41.65206673656708" lon="19.672203158265393"><ele>3.0</ele><time>2026-05-04T06:25:17Z</time></trkpt><trkpt lat="41.652306959946635" lon="19.67221867306043"><ele>3.0</ele><time>2026-05-04T06:25:18Z</time></trkpt><trkpt lat="41.65254251219556" lon="19.672232412840152"><ele>3.0</ele><time>2026-05-04T06:25:19Z</time></trkpt><trkpt lat="41.65277233819465" lon="19.672248608456552"><ele>2.5</ele><time>2026-05-04T06:25:20Z</time></trkpt><trkpt lat="41.65300102821563" lon="19.67226342420348"><ele>2.0</ele><time>2026-05-04T06:25:21Z</time></trkpt><trkpt lat="41.65322743396505" lon="19.6722853252195"><ele>2.0</ele><time>2026-05-04T06:25:22Z</time></trkpt><trkpt lat="41.653453560066154" lon="19.672305798216296"><ele>2.0</ele><time>2026-05-04T06:25:23Z</time></trkpt><trkpt lat="41.65368029036078" lon="19.672327180990333"><ele>2.0</ele><time>2026-05-04T06:25:24Z</time></trkpt><trkpt lat="41.65390890308703" lon="19.67234667483987"><ele>2.0</ele><time>2026-05-04T06:25:25Z</time></trkpt><trkpt lat="41.65413042614953" lon="19.67236722878656"><ele>2.0</ele><time>2026-05-04T06:25:26Z</time></trkpt><trkpt lat="41.65435175783823" lon="19.672393287136643"><ele>2.0</ele><time>2026-05-04T06:25:27Z</time></trkpt><trkpt lat="41.65457050782196" lon="19.672416913243932"><ele>2.0</ele><time>2026-05-04T06:25:28Z</time></trkpt><trkpt lat="41.6547926944272" lon="19.67243967128842"><ele>2.0</ele><time>2026-05-04T06:25:29Z</time></trkpt><trkpt lat="41.6550205627859" lon="19.672462165807573"><ele>2.0</ele><time>2026-05-04T06:25:30Z</time></trkpt><trkpt lat="41.65524869974581" lon="19.67248752163648"><ele>2.0</ele><time>2026-05-04T06:25:31Z</time></trkpt><trkpt lat="41.65548108975484" lon="19.672517216139404"><ele>2.0</ele><time>2026-05-04T06:25:32Z</time></trkpt><trkpt lat="41.65571230139535" lon="19.67254897000632"><ele>2.0</ele><time>2026-05-04T06:25:33Z</time></trkpt><trkpt lat="41.65594648709052" lon="19.672581488282248"><ele>2.0</ele><time>2026-05-04T06:25:34Z</time></trkpt><trkpt lat="41.656179491777564" lon="19.672613952858768"><ele>2.0</ele><time>2026-05-04T06:25:35Z</time></trkpt><trkpt lat="41.656409286792965" lon="19.67264735411253"><ele>2.0</ele><time>2026-05-04T06:25:36Z</time></trkpt><trkpt lat="41.65663510858928" lon="19.6726795333533"><ele>2.0</ele><time>2026-05-04T06:25:37Z</time></trkpt><trkpt lat="41.656861252433494" lon="19.672712141490994"><ele>2.0</ele><time>2026-05-04T06:25:38Z</time></trkpt><trkpt lat="41.65708665123599" lon="19.67274591692013"><ele>1.5</ele><time>2026-05-04T06:25:39Z</time></trkpt><trkpt lat="41.65731538798207" lon="19.67277736923942"><ele>1.0</ele><time>2026-05-04T06:25:40Z</time></trkpt><trkpt lat="41.657546031220974" lon="19.672809975568182"><ele>1.0</ele><time>2026-05-04T06:25:41Z</time></trkpt><trkpt lat="41.657777409759085" lon="19.672844025298847"><ele>1.0</ele><time>2026-05-04T06:25:42Z</time></trkpt><trkpt lat="41.65800433554774" lon="19.67287841011229"><ele>2.5</ele><time>2026-05-04T06:25:43Z</time></trkpt><trkpt lat="41.658234263874995" lon="19.67291904261724"><ele>4.0</ele><time>2026-05-04T06:25:44Z</time></trkpt><trkpt lat="41.65846272094516" lon="19.67296535668203"><ele>4.0</ele><time>2026-05-04T06:25:45Z</time></trkpt><trkpt lat="41.65869086003626" lon="19.673024933623868"><ele>4.0</ele><time>2026-05-04T06:25:46Z</time></trkpt><trkpt lat="41.65891686924861" lon="19.673101452766332"><ele>4.0</ele><time>2026-05-04T06:25:47Z</time></trkpt><trkpt lat="41.659141417317265" lon="19.67319441315381"><ele>4.0</ele><time>2026-05-04T06:25:48Z</time></trkpt><trkpt lat="41.65936425829161" lon="19.673297554257374"><ele>4.0</ele><time>2026-05-04T06:25:49Z</time></trkpt><trkpt lat="41.65958697582643" lon="19.673407636306298"><ele>4.0</ele><time>2026-05-04T06:25:50.001Z</time></trkpt><trkpt lat="41.659804325415024" lon="19.67353182664612"><ele>4.0</ele><time>2026-05-04T06:25:51.001Z</time></trkpt><trkpt lat="41.66001780863636" lon="19.673674621174108"><ele>4.0</ele><time>2026-05-04T06:25:52.001Z</time></trkpt><trkpt lat="41.66022970677983" lon="19.67383458021335"><ele>4.5</ele><time>2026-05-04T06:25:53.001Z</time></trkpt><trkpt lat="41.660436681269154" lon="19.674003503039323"><ele>5.0</ele><time>2026-05-04T06:25:54.001Z</time></trkpt><trkpt lat="41.660640183314406" lon="19.674185963256306"><ele>5.0</ele><time>2026-05-04T06:25:55.001Z</time></trkpt><trkpt lat="41.66083895205286" lon="19.674375223968017"><ele>5.0</ele><time>2026-05-04T06:25:56.001Z</time></trkpt><trkpt lat="41.661028884163244" lon="19.674576074340525"><ele>4.5</ele><time>2026-05-04T06:25:57.001Z</time></trkpt><trkpt lat="41.661209872358334" lon="19.674791351831846"><ele>4.0</ele><time>2026-05-04T06:25:58.001Z</time></trkpt><trkpt lat="41.661387948315024" lon="19.675008947393174"><ele>4.0</ele><time>2026-05-04T06:25:59.001Z</time></trkpt><trkpt lat="41.6615578035092" lon="19.67523241158536"><ele>4.0</ele><time>2026-05-04T06:26:00.001Z</time></trkpt><trkpt lat="41.661717906145576" lon="19.675457546666927"><ele>4.0</ele><time>2026-05-04T06:26:01.001Z</time></trkpt><trkpt lat="41.66184958537006" lon="19.67566861853849"><ele>4.0</ele><time>2026-05-04T06:26:02.001Z</time></trkpt><trkpt lat="41.661953426733184" lon="19.67585779142022"><ele>4.0</ele><time>2026-05-04T06:26:03.001Z</time></trkpt><trkpt lat="41.662033974580545" lon="19.67602125632392"><ele>4.75</ele><time>2026-05-04T06:26:04.001Z</time></trkpt><trkpt lat="41.66210337554511" lon="19.676162726017534"><ele>5.5</ele><time>2026-05-04T06:26:05.001Z</time></trkpt><trkpt lat="41.66216812038657" lon="19.676297416443884"><ele>6.25</ele><time>2026-05-04T06:26:06.001Z</time></trkpt><trkpt lat="41.662229570253785" lon="19.676425363077165"><ele>7.0</ele><time>2026-05-04T06:26:07.001Z</time></trkpt><trkpt lat="41.66229488226777" lon="19.676557489875606"><ele>7.0</ele><time>2026-05-04T06:26:08.001Z</time></trkpt><trkpt lat="41.662363420331616" lon="19.67669503434668"><ele>7.0</ele><time>2026-05-04T06:26:09.001Z</time></trkpt><trkpt lat="41.6624349681403" lon="19.676848299337518"><ele>7.0</ele><time>2026-05-04T06:26:10.001Z</time></trkpt><trkpt lat="41.66251061236121" lon="19.677025601831154"><ele>7.0</ele><time>2026-05-04T06:26:11.001Z</time></trkpt><trkpt lat="41.66258807200675" lon="19.67719854149775"><ele>6.5</ele><time>2026-05-04T06:26:12.001Z</time></trkpt><trkpt lat="41.662663832131315" lon="19.677387058785015"><ele>6.0</ele><time>2026-05-04T06:26:13.001Z</time></trkpt><trkpt lat="41.66273401385944" lon="19.677564412045285"><ele>5.5</ele><time>2026-05-04T06:26:14.001Z</time></trkpt><trkpt lat="41.66279576485923" lon="19.677721256948374"><ele>5.0</ele><time>2026-05-04T06:26:15.001Z</time></trkpt><trkpt lat="41.662855786793486" lon="19.677867459581766"><ele>4.25</ele><time>2026-05-04T06:26:16.001Z</time></trkpt><trkpt lat="41.66291276938315" lon="19.678005385284635"><ele>3.5</ele><time>2026-05-04T06:26:17.001Z</time></trkpt><trkpt lat="41.66296604987376" lon="19.678131692640175"><ele>2.75</ele><time>2026-05-04T06:26:18Z</time></trkpt><trkpt lat="41.66303302773512" lon="19.678259940070156"><ele>2.0</ele><time>2026-05-04T06:26:19Z</time></trkpt><trkpt lat="41.66310796149215" lon="19.678391906770884"><ele>2.0</ele><time>2026-05-04T06:26:20Z</time></trkpt><trkpt lat="41.6631809445594" lon="19.678540353103195"><ele>2.0</ele><time>2026-05-04T06:26:21Z</time></trkpt><trkpt lat="41.66324750148063" lon="19.678698349080882"><ele>2.0</ele><time>2026-05-04T06:26:22Z</time></trkpt><trkpt lat="41.6633094795864" lon="19.67885423541169"><ele>2.0</ele><time>2026-05-04T06:26:23Z</time></trkpt><trkpt lat="41.66337692803703" lon="19.679013838457067"><ele>2.0</ele><time>2026-05-04T06:26:24Z</time></trkpt><trkpt lat="41.663462179368004" lon="19.679211869510464"><ele>2.0</ele><time>2026-05-04T06:26:25Z</time></trkpt><trkpt lat="41.66355626391496" lon="19.679444882438233"><ele>2.0</ele><time>2026-05-04T06:26:26Z</time></trkpt><trkpt lat="41.66364600626724" lon="19.679682936518695"><ele>2.333333333333333</ele><time>2026-05-04T06:26:27Z</time></trkpt><trkpt lat="41.66374372669293" lon="19.67993024368174"><ele>2.6666666666666665</ele><time>2026-05-04T06:26:28Z</time></trkpt><trkpt lat="41.66385077487403" lon="19.68018863337972"><ele>3.0</ele><time>2026-05-04T06:26:29Z</time></trkpt><trkpt lat="41.66396172786871" lon="19.680458973181175"><ele>3.5</ele><time>2026-05-04T06:26:30Z</time></trkpt><trkpt lat="41.66407622292477" lon="19.680729057251146"><ele>4.0</ele><time>2026-05-04T06:26:31Z</time></trkpt><trkpt lat="41.66419635597776" lon="19.68101269280998"><ele>5.5</ele><time>2026-05-04T06:26:32Z</time></trkpt><trkpt lat="41.664317015573175" lon="19.68131592292173"><ele>7.0</ele><time>2026-05-04T06:26:33Z</time></trkpt><trkpt lat="41.66443554632368" lon="19.68163077531948"><ele>3.5</ele><time>2026-05-04T06:26:34Z</time></trkpt><trkpt lat="41.66455615328552" lon="19.681944459873584"><ele>0.0</ele><time>2026-05-04T06:26:35Z</time></trkpt><trkpt lat="41.66467913698261" lon="19.682253032725615"><ele>0.0</ele><time>2026-05-04T06:26:36Z</time></trkpt><trkpt lat="41.66479957831405" lon="19.682560199489103"><ele>0.0</ele><time>2026-05-04T06:26:37Z</time></trkpt><trkpt lat="41.664919661435576" lon="19.68286804998701"><ele>1.0</ele><time>2026-05-04T06:26:38Z</time></trkpt><trkpt lat="41.66504172540239" lon="19.683174949066636"><ele>2.0</ele><time>2026-05-04T06:26:39Z</time></trkpt><trkpt lat="41.665166913764864" lon="19.683481052966297"><ele>4.0</ele><time>2026-05-04T06:26:40Z</time></trkpt><trkpt lat="41.66529232077405" lon="19.683788307308884"><ele>6.0</ele><time>2026-05-04T06:26:41Z</time></trkpt><trkpt lat="41.665416664902594" lon="19.684095798250496"><ele>6.0</ele><time>2026-05-04T06:26:42Z</time></trkpt><trkpt lat="41.66554126194831" lon="19.684404539539162"><ele>6.0</ele><time>2026-05-04T06:26:43Z</time></trkpt><trkpt lat="41.66566757449333" lon="19.684710999109114"><ele>6.0</ele><time>2026-05-04T06:26:44Z</time></trkpt><trkpt lat="41.66579358961838" lon="19.685018504203224"><ele>6.0</ele><time>2026-05-04T06:26:45Z</time></trkpt><trkpt lat="41.66591833401909" lon="19.685328061616147"><ele>6.0</ele><time>2026-05-04T06:26:45.999Z</time></trkpt><trkpt lat="41.6660431575919" lon="19.685639317707086"><ele>6.0</ele><time>2026-05-04T06:26:46.999Z</time></trkpt><trkpt lat="41.66616761908633" lon="19.685950468581556"><ele>5.0</ele><time>2026-05-04T06:26:47.999Z</time></trkpt><trkpt lat="41.66629258006187" lon="19.686260092363"><ele>4.0</ele><time>2026-05-04T06:26:48.999Z</time></trkpt><trkpt lat="41.66641838135557" lon="19.686569549547006"><ele>4.0</ele><time>2026-05-04T06:26:49.999Z</time></trkpt><trkpt lat="41.66654574828804" lon="19.68688002646565"><ele>4.0</ele><time>2026-05-04T06:26:50.999Z</time></trkpt><trkpt lat="41.66667233623801" lon="19.687190242026936"><ele>4.0</ele><time>2026-05-04T06:26:51.999Z</time></trkpt><trkpt lat="41.666796395891474" lon="19.68750143295945"><ele>4.0</ele><time>2026-05-04T06:26:52.999Z</time></trkpt><trkpt lat="41.66692150161861" lon="19.687810820610558"><ele>4.0</ele><time>2026-05-04T06:26:53.999Z</time></trkpt><trkpt lat="41.66704645343823" lon="19.688118848540043"><ele>4.0</ele><time>2026-05-04T06:26:54.999Z</time></trkpt><trkpt lat="41.66717263731204" lon="19.688427070022364"><ele>3.5</ele><time>2026-05-04T06:26:55.999Z</time></trkpt><trkpt lat="41.667297305559856" lon="19.688735540279584"><ele>3.0</ele><time>2026-05-04T06:26:56.999Z</time></trkpt><trkpt lat="41.66742084927868" lon="19.689042688282143"><ele>3.0</ele><time>2026-05-04T06:26:57.999Z</time></trkpt><trkpt lat="41.6675460505625" lon="19.689350296602147"><ele>3.0</ele><time>2026-05-04T06:26:58.999Z</time></trkpt><trkpt lat="41.667671591663144" lon="19.68965769388692"><ele>4.5</ele><time>2026-05-04T06:26:59.999Z</time></trkpt><trkpt lat="41.66779777631325" lon="19.689962406181365"><ele>6.0</ele><time>2026-05-04T06:27:00.999Z</time></trkpt><trkpt lat="41.667923075200825" lon="19.690265486292446"><ele>7.5</ele><time>2026-05-04T06:27:01.999Z</time></trkpt><trkpt lat="41.66804778735022" lon="19.690570200655145"><ele>9.0</ele><time>2026-05-04T06:27:02.999Z</time></trkpt><trkpt lat="41.66817056025162" lon="19.690875016744144"><ele>9.5</ele><time>2026-05-04T06:27:03.999Z</time></trkpt><trkpt lat="41.66829133275586" lon="19.69117716392521"><ele>10.0</ele><time>2026-05-04T06:27:04.999Z</time></trkpt><trkpt lat="41.66841493107222" lon="19.691481601839236"><ele>10.0</ele><time>2026-05-04T06:27:05.999Z</time></trkpt><trkpt lat="41.66853990264925" lon="19.691786268091157"><ele>10.0</ele><time>2026-05-04T06:27:06.999Z</time></trkpt><trkpt lat="41.668664329988395" lon="19.69209298305482"><ele>11.0</ele><time>2026-05-04T06:27:07.999Z</time></trkpt><trkpt lat="41.668787627206214" lon="19.692399457202008"><ele>12.0</ele><time>2026-05-04T06:27:08.999Z</time></trkpt><trkpt lat="41.66891032326409" lon="19.69270786161499"><ele>10.0</ele><time>2026-05-04T06:27:09.999Z</time></trkpt><trkpt lat="41.66903518234312" lon="19.69301676115226"><ele>8.0</ele><time>2026-05-04T06:27:10.999Z</time></trkpt><trkpt lat="41.669159372145614" lon="19.693326359707154"><ele>6.5</ele><time>2026-05-04T06:27:11.999Z</time></trkpt><trkpt lat="41.66928519327733" lon="19.693638692827243"><ele>5.0</ele><time>2026-05-04T06:27:12.999Z</time></trkpt><trkpt lat="41.669413944500484" lon="19.693954079497427"><ele>7.0</ele><time>2026-05-04T06:27:13.999Z</time></trkpt><trkpt lat="41.669545056890755" lon="19.694271619016053"><ele>9.0</ele><time>2026-05-04T06:27:14.999Z</time></trkpt><trkpt lat="41.669676941873824" lon="19.694590803993464"><ele>9.0</ele><time>2026-05-04T06:27:15.999Z</time></trkpt><trkpt lat="41.66981083430793" lon="19.694912567837505"><ele>9.0</ele><time>2026-05-04T06:27:16.999Z</time></trkpt><trkpt lat="41.669944985441056" lon="19.69523441872903"><ele>9.5</ele><time>2026-05-04T06:27:17.999Z</time></trkpt><trkpt lat="41.670080961236714" lon="19.695552470742093"><ele>10.0</ele><time>2026-05-04T06:27:18.999Z</time></trkpt><trkpt lat="41.670222258694345" lon="19.69586620023134"><ele>10.0</ele><time>2026-05-04T06:27:19.999Z</time></trkpt><trkpt lat="41.67037220597704" lon="19.696173893232338"><ele>10.0</ele><time>2026-05-04T06:27:20.999Z</time></trkpt><trkpt lat="41.670531810678824" lon="19.69647078670683"><ele>10.0</ele><time>2026-05-04T06:27:21.999Z</time></trkpt><trkpt lat="41.67070045374721" lon="19.696762116440574"><ele>10.0</ele><time>2026-05-04T06:27:22.999Z</time></trkpt><trkpt lat="41.6708796308565" lon="19.6970424710446"><ele>10.0</ele><time>2026-05-04T06:27:23.999Z</time></trkpt><trkpt lat="41.67106588588463" lon="19.697314765250834"><ele>10.0</ele><time>2026-05-04T06:27:24.999Z</time></trkpt><trkpt lat="41.67125750701248" lon="19.697578854253372"><ele>8.5</ele><time>2026-05-04T06:27:25.999Z</time></trkpt><trkpt lat="41.671459237028444" lon="19.697832343745983"><ele>7.0</ele><time>2026-05-04T06:27:26.999Z</time></trkpt><trkpt lat="41.67166977102037" lon="19.69807100363031"><ele>7.0</ele><time>2026-05-04T06:27:27.999Z</time></trkpt><trkpt lat="41.671884542093736" lon="19.69829910479083"><ele>7.0</ele><time>2026-05-04T06:27:28.999Z</time></trkpt><trkpt lat="41.67210626693235" lon="19.698517687754645"><ele>8.5</ele><time>2026-05-04T06:27:29.999Z</time></trkpt><trkpt lat="41.672329340852436" lon="19.698727177245377"><ele>10.0</ele><time>2026-05-04T06:27:30.999Z</time></trkpt><trkpt lat="41.67255387519418" lon="19.698926781061086"><ele>10.5</ele><time>2026-05-04T06:27:31.999Z</time></trkpt><trkpt lat="41.67277429887278" lon="19.699105380506655"><ele>11.0</ele><time>2026-05-04T06:27:32.999Z</time></trkpt><trkpt lat="41.672990067223566" lon="19.69927733203259"><ele>10.5</ele><time>2026-05-04T06:27:33.999Z</time></trkpt><trkpt lat="41.6731946858342" lon="19.699434851613514"><ele>10.0</ele><time>2026-05-04T06:27:34.999Z</time></trkpt><trkpt lat="41.67339654171672" lon="19.6995870792175"><ele>10.0</ele><time>2026-05-04T06:27:35.999Z</time></trkpt><trkpt lat="41.67360178041791" lon="19.699737351918714"><ele>10.0</ele><time>2026-05-04T06:27:36.999Z</time></trkpt><trkpt lat="41.67382293075019" lon="19.69989402689763"><ele>11.0</ele><time>2026-05-04T06:27:37.999Z</time></trkpt><trkpt lat="41.674052328473806" lon="19.700062901896292"><ele>12.0</ele><time>2026-05-04T06:27:38.999Z</time></trkpt><trkpt lat="41.67428024688852" lon="19.7002417638666"><ele>12.0</ele><time>2026-05-04T06:27:39.999Z</time></trkpt><trkpt lat="41.674506897433886" lon="19.70043112975341"><ele>12.0</ele><time>2026-05-04T06:27:40.999Z</time></trkpt><trkpt lat="41.67473356393546" lon="19.70061796851669"><ele>12.0</ele><time>2026-05-04T06:27:41.999Z</time></trkpt><trkpt lat="41.674965016139645" lon="19.70079561365607"><ele>12.0</ele><time>2026-05-04T06:27:42.999Z</time></trkpt><trkpt lat="41.67519557084483" lon="19.700969086051188"><ele>10.0</ele><time>2026-05-04T06:27:43.999Z</time></trkpt><trkpt lat="41.67542562524394" lon="19.701135917133694"><ele>8.0</ele><time>2026-05-04T06:27:44.999Z</time></trkpt><trkpt lat="41.675642232575974" lon="19.70129745245459"><ele>8.0</ele><time>2026-05-04T06:27:45.999Z</time></trkpt><trkpt lat="41.67585328002282" lon="19.701460913250592"><ele>8.0</ele><time>2026-05-04T06:27:46.999Z</time></trkpt><trkpt lat="41.67606268825483" lon="19.701624808467265"><ele>9.0</ele><time>2026-05-04T06:27:47.999Z</time></trkpt><trkpt lat="41.676271927782686" lon="19.701785388187247"><ele>10.0</ele><time>2026-05-04T06:27:48.999Z</time></trkpt><trkpt lat="41.676480870787856" lon="19.701941551739043"><ele>10.0</ele><time>2026-05-04T06:27:49.999Z</time></trkpt><trkpt lat="41.67668893034952" lon="19.702101228989548"><ele>10.0</ele><time>2026-05-04T06:27:50.999Z</time></trkpt><trkpt lat="41.67689459525192" lon="19.702263698050466"><ele>10.0</ele><time>2026-05-04T06:27:51.999Z</time></trkpt><trkpt lat="41.67709336578317" lon="19.702428329151367"><ele>10.0</ele><time>2026-05-04T06:27:52.999Z</time></trkpt><trkpt lat="41.67728609455301" lon="19.702591634761987"><ele>10.333333333333334</ele><time>2026-05-04T06:27:53.999Z</time></trkpt><trkpt lat="41.6774730914893" lon="19.70275507934166"><ele>10.666666666666666</ele><time>2026-05-04T06:27:54.999Z</time></trkpt><trkpt lat="41.67765343299119" lon="19.70292671437742"><ele>11.0</ele><time>2026-05-04T06:27:56Z</time></trkpt><trkpt lat="41.67783291923094" lon="19.703103474462615"><ele>9.5</ele><time>2026-05-04T06:27:57Z</time></trkpt><trkpt lat="41.67801283407425" lon="19.70328438059806"><ele>8.0</ele><time>2026-05-04T06:27:58Z</time></trkpt><trkpt lat="41.67819301566513" lon="19.70346741569278"><ele>9.0</ele><time>2026-05-04T06:27:59Z</time></trkpt><trkpt lat="41.67837112602881" lon="19.70365783554998"><ele>10.0</ele><time>2026-05-04T06:28:00Z</time></trkpt><trkpt lat="41.67854410127783" lon="19.703856029239056"><ele>9.5</ele><time>2026-05-04T06:28:01Z</time></trkpt><trkpt lat="41.678715461827956" lon="19.704060740275075"><ele>9.0</ele><time>2026-05-04T06:28:02Z</time></trkpt><trkpt lat="41.67888666645642" lon="19.704267887266422"><ele>9.5</ele><time>2026-05-04T06:28:03Z</time></trkpt><trkpt lat="41.679055464032686" lon="19.704484198373386"><ele>10.0</ele><time>2026-05-04T06:28:04Z</time></trkpt><trkpt lat="41.679221229882" lon="19.70470711723899"><ele>10.0</ele><time>2026-05-04T06:28:05Z</time></trkpt><trkpt lat="41.6793863114803" lon="19.704935332999387"><ele>10.0</ele><time>2026-05-04T06:28:06Z</time></trkpt><trkpt lat="41.67955091313975" lon="19.70516780287298"><ele>10.5</ele><time>2026-05-04T06:28:07Z</time></trkpt><trkpt lat="41.67970661879782" lon="19.705397760716124"><ele>11.0</ele><time>2026-05-04T06:28:08Z</time></trkpt><trkpt lat="41.67985508006471" lon="19.70562717370223"><ele>11.0</ele><time>2026-05-04T06:28:09Z</time></trkpt><trkpt lat="41.67999751381873" lon="19.705860378673563"><ele>11.0</ele><time>2026-05-04T06:28:10Z</time></trkpt><trkpt lat="41.68013594115799" lon="19.706096365014275"><ele>11.0</ele><time>2026-05-04T06:28:11Z</time></trkpt><trkpt lat="41.68027194071481" lon="19.706329769225004"><ele>11.666666666666666</ele><time>2026-05-04T06:28:12Z</time></trkpt><trkpt lat="41.68040359936691" lon="19.706562984597245"><ele>12.333333333333332</ele><time>2026-05-04T06:28:13Z</time></trkpt><trkpt lat="41.6805345113706" lon="19.706795413025546"><ele>13.0</ele><time>2026-05-04T06:28:14Z</time></trkpt><trkpt lat="41.68066473585842" lon="19.707030704053057"><ele>13.0</ele><time>2026-05-04T06:28:15Z</time></trkpt><trkpt lat="41.680794774120464" lon="19.70726829743679"><ele>13.0</ele><time>2026-05-04T06:28:16Z</time></trkpt><trkpt lat="41.68092625206722" lon="19.70750896796932"><ele>13.0</ele><time>2026-05-04T06:28:17Z</time></trkpt><trkpt lat="41.68105881759888" lon="19.707750844808544"><ele>13.5</ele><time>2026-05-04T06:28:18Z</time></trkpt><trkpt lat="41.68119249887718" lon="19.70799491863723"><ele>14.0</ele><time>2026-05-04T06:28:19Z</time></trkpt><trkpt lat="41.68132765625764" lon="19.70824240338567"><ele>14.0</ele><time>2026-05-04T06:28:20Z</time></trkpt><trkpt lat="41.68146418736173" lon="19.708491641883903"><ele>14.0</ele><time>2026-05-04T06:28:21Z</time></trkpt><trkpt lat="41.681602360434646" lon="19.70874221127266"><ele>14.0</ele><time>2026-05-04T06:28:22Z</time></trkpt><trkpt lat="41.68174327821342" lon="19.708993953930406"><ele>14.0</ele><time>2026-05-04T06:28:23Z</time></trkpt><trkpt lat="41.68202793075262" lon="19.70950011579888"><ele>14.0</ele><time>2026-05-04T06:28:25Z</time></trkpt><trkpt lat="41.68217074852964" lon="19.70975775836177"><ele>14.0</ele><time>2026-05-04T06:28:26Z</time></trkpt><trkpt lat="41.68231342865924" lon="19.71001721615178"><ele>14.0</ele><time>2026-05-04T06:28:27Z</time></trkpt><trkpt lat="41.682456941089" lon="19.710279011626977"><ele>14.0</ele><time>2026-05-04T06:28:28Z</time></trkpt><trkpt lat="41.68260943641266" lon="19.71055141731682"><ele>14.0</ele><time>2026-05-04T06:28:29Z</time></trkpt><trkpt lat="41.68275851556837" lon="19.710827283789428"><ele>14.0</ele><time>2026-05-04T06:28:30Z</time></trkpt><trkpt lat="41.68290813753123" lon="19.711107277068336"><ele>14.0</ele><time>2026-05-04T06:28:31Z</time></trkpt><trkpt lat="41.68305915050529" lon="19.71139033867799"><ele>14.0</ele><time>2026-05-04T06:28:32Z</time></trkpt><trkpt lat="41.68321442904604" lon="19.711665446552985"><ele>14.5</ele><time>2026-05-04T06:28:33Z</time></trkpt><trkpt lat="41.68337557114751" lon="19.711936009937826"><ele>15.0</ele><time>2026-05-04T06:28:34Z</time></trkpt><trkpt lat="41.68354269630166" lon="19.712201373072652"><ele>15.0</ele><time>2026-05-04T06:28:35Z</time></trkpt><trkpt lat="41.68371661448339" lon="19.712460282053705"><ele>15.0</ele><time>2026-05-04T06:28:36Z</time></trkpt><trkpt lat="41.683886872416096" lon="19.71270624722854"><ele>14.0</ele><time>2026-05-04T06:28:37Z</time></trkpt><trkpt lat="41.684056389819325" lon="19.71294040443435"><ele>13.0</ele><time>2026-05-04T06:28:38Z</time></trkpt><trkpt lat="41.68422668329957" lon="19.713174426440645"><ele>13.0</ele><time>2026-05-04T06:28:39Z</time></trkpt><trkpt lat="41.68440183008189" lon="19.713404012121014"><ele>13.0</ele><time>2026-05-04T06:28:40Z</time></trkpt><trkpt lat="41.68457964987767" lon="19.713632463401453"><ele>14.5</ele><time>2026-05-04T06:28:41Z</time></trkpt><trkpt lat="41.68475836419895" lon="19.71386601860435"><ele>16.0</ele><time>2026-05-04T06:28:42Z</time></trkpt><trkpt lat="41.68494024441704" lon="19.71409732854803"><ele>16.0</ele><time>2026-05-04T06:28:43Z</time></trkpt><trkpt lat="41.6851270947032" lon="19.714325768200354"><ele>16.0</ele><time>2026-05-04T06:28:44Z</time></trkpt><trkpt lat="41.685312582593816" lon="19.71455592648762"><ele>16.0</ele><time>2026-05-04T06:28:45Z</time></trkpt><trkpt lat="41.685495742532325" lon="19.71478453929098"><ele>16.0</ele><time>2026-05-04T06:28:46Z</time></trkpt><trkpt lat="41.685674559272414" lon="19.715011413030098"><ele>17.0</ele><time>2026-05-04T06:28:47Z</time></trkpt><trkpt lat="41.68585178532841" lon="19.715237456585985"><ele>18.0</ele><time>2026-05-04T06:28:48Z</time></trkpt><trkpt lat="41.68602560498649" lon="19.715459701011998"><ele>15.5</ele><time>2026-05-04T06:28:49Z</time></trkpt><trkpt lat="41.68619922327063" lon="19.715678723068432"><ele>13.0</ele><time>2026-05-04T06:28:50Z</time></trkpt><trkpt lat="41.6863739190192" lon="19.715895799481913"><ele>15.333333333333332</ele><time>2026-05-04T06:28:51Z</time></trkpt><trkpt lat="41.686542582980636" lon="19.716107597767504"><ele>17.666666666666668</ele><time>2026-05-04T06:28:52Z</time></trkpt><trkpt lat="41.68670255483256" lon="19.71630427085784"><ele>20.0</ele><time>2026-05-04T06:28:53Z</time></trkpt><trkpt lat="41.686861560993314" lon="19.71649892823776"><ele>20.666666666666668</ele><time>2026-05-04T06:28:53.999Z</time></trkpt><trkpt lat="41.68701008832461" lon="19.71668657960396"><ele>21.333333333333332</ele><time>2026-05-04T06:28:54.999Z</time></trkpt><trkpt lat="41.68715613027645" lon="19.716866607190028"><ele>22.0</ele><time>2026-05-04T06:28:55.999Z</time></trkpt><trkpt lat="41.687305976258585" lon="19.717046555457394"><ele>22.0</ele><time>2026-05-04T06:28:56.999Z</time></trkpt><trkpt lat="41.68745864331383" lon="19.717230909980678"><ele>22.0</ele><time>2026-05-04T06:28:57.999Z</time></trkpt><trkpt lat="41.687608603863474" lon="19.717416345270344"><ele>22.0</ele><time>2026-05-04T06:28:58.999Z</time></trkpt><trkpt lat="41.687753109228176" lon="19.717599404572823"><ele>21.333333333333332</ele><time>2026-05-04T06:28:59.999Z</time></trkpt><trkpt lat="41.68789735394422" lon="19.71778203458764"><ele>20.666666666666668</ele><time>2026-05-04T06:29:00.999Z</time></trkpt><trkpt lat="41.688042028329484" lon="19.717964996653517"><ele>20.0</ele><time>2026-05-04T06:29:01.999Z</time></trkpt><trkpt lat="41.68818716961397" lon="19.718147211490994"><ele>20.0</ele><time>2026-05-04T06:29:02.999Z</time></trkpt><trkpt lat="41.688335801546366" lon="19.71833428415132"><ele>20.0</ele><time>2026-05-04T06:29:03.999Z</time></trkpt><trkpt lat="41.688486659967914" lon="19.718523922185817"><ele>20.0</ele><time>2026-05-04T06:29:04.999Z</time></trkpt><trkpt lat="41.688639230422325" lon="19.718713837935727"><ele>19.0</ele><time>2026-05-04T06:29:05.999Z</time></trkpt><trkpt lat="41.68879301964905" lon="19.718905687394933"><ele>18.0</ele><time>2026-05-04T06:29:06.999Z</time></trkpt><trkpt lat="41.68894614082134" lon="19.719099012248666"><ele>17.0</ele><time>2026-05-04T06:29:07.999Z</time></trkpt><trkpt lat="41.689099958856474" lon="19.719291301978444"><ele>16.0</ele><time>2026-05-04T06:29:08.999Z</time></trkpt><trkpt lat="41.68925759926364" lon="19.719478084976895"><ele>15.0</ele><time>2026-05-04T06:29:09.999Z</time></trkpt><trkpt lat="41.689422959829436" lon="19.719654818720787"><ele>14.0</ele><time>2026-05-04T06:29:10.999Z</time></trkpt><trkpt lat="41.68959413172805" lon="19.719821354055853"><ele>14.0</ele><time>2026-05-04T06:29:11.999Z</time></trkpt><trkpt lat="41.68977284489215" lon="19.71997487387947"><ele>14.0</ele><time>2026-05-04T06:29:12.999Z</time></trkpt><trkpt lat="41.689962534523445" lon="19.72011843591999"><ele>14.0</ele><time>2026-05-04T06:29:13.999Z</time></trkpt><trkpt lat="41.69016362767331" lon="19.720261235737972"><ele>14.5</ele><time>2026-05-04T06:29:14.999Z</time></trkpt><trkpt lat="41.69037330400833" lon="19.720410156301533"><ele>15.0</ele><time>2026-05-04T06:29:15.999Z</time></trkpt><trkpt lat="41.6905879053772" lon="19.720559537805528"><ele>15.0</ele><time>2026-05-04T06:29:16.999Z</time></trkpt><trkpt lat="41.69080543340528" lon="19.720709587592257"><ele>15.0</ele><time>2026-05-04T06:29:17.999Z</time></trkpt><trkpt lat="41.691022210399254" lon="19.720859599423434"><ele>15.0</ele><time>2026-05-04T06:29:18.999Z</time></trkpt><trkpt lat="41.69123846824648" lon="19.721019281068234"><ele>15.0</ele><time>2026-05-04T06:29:19.999Z</time></trkpt><trkpt lat="41.691451745243334" lon="19.72118637915287"><ele>17.5</ele><time>2026-05-04T06:29:20.999Z</time></trkpt><trkpt lat="41.69166364530307" lon="19.721358598132277"><ele>20.0</ele><time>2026-05-04T06:29:21.999Z</time></trkpt><trkpt lat="41.69187009050623" lon="19.721540292402075"><ele>17.0</ele><time>2026-05-04T06:29:22.999Z</time></trkpt><trkpt lat="41.692073316313504" lon="19.721724870008995"><ele>14.0</ele><time>2026-05-04T06:29:23.999Z</time></trkpt><trkpt lat="41.692275228270496" lon="19.721910174134585"><ele>13.5</ele><time>2026-05-04T06:29:24.999Z</time></trkpt><trkpt lat="41.692477741955734" lon="19.72209629480572"><ele>13.0</ele><time>2026-05-04T06:29:25.999Z</time></trkpt><trkpt lat="41.69267752075206" lon="19.72227735414879"><ele>13.0</ele><time>2026-05-04T06:29:26.999Z</time></trkpt><trkpt lat="41.69287816520424" lon="19.722454790168165"><ele>13.0</ele><time>2026-05-04T06:29:27.999Z</time></trkpt><trkpt lat="41.693076292959944" lon="19.722630862881346"><ele>17.5</ele><time>2026-05-04T06:29:28.999Z</time></trkpt><trkpt lat="41.69327240720044" lon="19.722807025680655"><ele>22.0</ele><time>2026-05-04T06:29:29.999Z</time></trkpt><trkpt lat="41.69346541257783" lon="19.72298455397971"><ele>20.0</ele><time>2026-05-04T06:29:30.999Z</time></trkpt><trkpt lat="41.693660003590445" lon="19.72315860872706"><ele>18.0</ele><time>2026-05-04T06:29:31.999Z</time></trkpt><trkpt lat="41.693847206170915" lon="19.723337011587727"><ele>18.0</ele><time>2026-05-04T06:29:32.999Z</time></trkpt><trkpt lat="41.69402462278801" lon="19.723525409070565"><ele>18.0</ele><time>2026-05-04T06:29:33.999Z</time></trkpt><trkpt lat="41.694197694403" lon="19.723717283350783"><ele>18.0</ele><time>2026-05-04T06:29:34.999Z</time></trkpt><trkpt lat="41.69436631801165" lon="19.723913159780547"><ele>18.0</ele><time>2026-05-04T06:29:35.999Z</time></trkpt><trkpt lat="41.69452115694602" lon="19.724120141500453"><ele>18.0</ele><time>2026-05-04T06:29:36.999Z</time></trkpt><trkpt lat="41.6946643868017" lon="19.724337996724543"><ele>18.0</ele><time>2026-05-04T06:29:37.999Z</time></trkpt><trkpt lat="41.69479801129426" lon="19.724554681605692"><ele>18.0</ele><time>2026-05-04T06:29:38.999Z</time></trkpt><trkpt lat="41.69493216196657" lon="19.72476640211385"><ele>18.0</ele><time>2026-05-04T06:29:39.999Z</time></trkpt><trkpt lat="41.69506191763527" lon="19.72497557414933"><ele>18.0</ele><time>2026-05-04T06:29:40.999Z</time></trkpt><trkpt lat="41.695184957392804" lon="19.725187605302136"><ele>18.0</ele><time>2026-05-04T06:29:41.999Z</time></trkpt><trkpt lat="41.695308117395115" lon="19.72539732928065"><ele>18.0</ele><time>2026-05-04T06:29:42.999Z</time></trkpt><trkpt lat="41.69543245800798" lon="19.725602545774485"><ele>18.666666666666668</ele><time>2026-05-04T06:29:43.999Z</time></trkpt><trkpt lat="41.69555553655619" lon="19.72580939584498"><ele>19.333333333333336</ele><time>2026-05-04T06:29:44.999Z</time></trkpt><trkpt lat="41.695675820398144" lon="19.726015178929586"><ele>20.0</ele><time>2026-05-04T06:29:45.999Z</time></trkpt><trkpt lat="41.69579542791097" lon="19.72622143745822"><ele>20.333333333333336</ele><time>2026-05-04T06:29:46.999Z</time></trkpt><trkpt lat="41.695912421504" lon="19.726426829401408"><ele>20.666666666666668</ele><time>2026-05-04T06:29:47.999Z</time></trkpt><trkpt lat="41.6960322202971" lon="19.72662980220713"><ele>21.0</ele><time>2026-05-04T06:29:48.999Z</time></trkpt><trkpt lat="41.69615465592904" lon="19.726830611187168"><ele>19.333333333333332</ele><time>2026-05-04T06:29:49.999Z</time></trkpt><trkpt lat="41.696274220244916" lon="19.727025570939272"><ele>17.666666666666664</ele><time>2026-05-04T06:29:50.999Z</time></trkpt><trkpt lat="41.696385464269014" lon="19.727211233798734"><ele>16.0</ele><time>2026-05-04T06:29:51.999Z</time></trkpt><trkpt lat="41.69649661494283" lon="19.727400651183412"><ele>16.0</ele><time>2026-05-04T06:29:52.999Z</time></trkpt><trkpt lat="41.696607628642624" lon="19.727590374190466"><ele>16.0</ele><time>2026-05-04T06:29:53.999Z</time></trkpt><trkpt lat="41.69671916314809" lon="19.72777499890235"><ele>16.0</ele><time>2026-05-04T06:29:54.999Z</time></trkpt><trkpt lat="41.69683453712779" lon="19.727961458078383"><ele>16.333333333333332</ele><time>2026-05-04T06:29:55.999Z</time></trkpt><trkpt lat="41.696956565789534" lon="19.728159984601223"><ele>16.666666666666668</ele><time>2026-05-04T06:29:56.999Z</time></trkpt><trkpt lat="41.697082427325036" lon="19.728362024506186"><ele>17.0</ele><time>2026-05-04T06:29:57.999Z</time></trkpt><trkpt lat="41.69720857096513" lon="19.728567852624508"><ele>20.333333333333336</ele><time>2026-05-04T06:29:58.999Z</time></trkpt><trkpt lat="41.69733611004552" lon="19.7287780045055"><ele>23.666666666666668</ele><time>2026-05-04T06:29:59.999Z</time></trkpt><trkpt lat="41.69746474010158" lon="19.72899082841261"><ele>27.0</ele><time>2026-05-04T06:30:00.999Z</time></trkpt><trkpt lat="41.697592322186054" lon="19.729208080121754"><ele>24.666666666666668</ele><time>2026-05-04T06:30:02Z</time></trkpt><trkpt lat="41.69772077829689" lon="19.729424770693438"><ele>22.333333333333336</ele><time>2026-05-04T06:30:03Z</time></trkpt><trkpt lat="41.69785182150071" lon="19.72965017300707"><ele>20.0</ele><time>2026-05-04T06:30:04Z</time></trkpt><trkpt lat="41.69798458103491" lon="19.729888687248007"><ele>20.0</ele><time>2026-05-04T06:30:05Z</time></trkpt><trkpt lat="41.69812014164995" lon="19.73013569279234"><ele>20.0</ele><time>2026-05-04T06:30:06Z</time></trkpt><trkpt lat="41.69825346386467" lon="19.73038621428567"><ele>20.666666666666668</ele><time>2026-05-04T06:30:07Z</time></trkpt><trkpt lat="41.69837627424324" lon="19.73063379883138"><ele>21.333333333333332</ele><time>2026-05-04T06:30:08Z</time></trkpt><trkpt lat="41.698484108377514" lon="19.730894450035926"><ele>22.0</ele><time>2026-05-04T06:30:09Z</time></trkpt><trkpt lat="41.698576430642554" lon="19.731161543638475"><ele>19.5</ele><time>2026-05-04T06:30:10Z</time></trkpt><trkpt lat="41.69865982003179" lon="19.7314349756678"><ele>17.0</ele><time>2026-05-04T06:30:11Z</time></trkpt><trkpt lat="41.69873826048573" lon="19.731724475088008"><ele>11.0</ele><time>2026-05-04T06:30:12Z</time></trkpt><trkpt lat="41.698806049673976" lon="19.732046813151577"><ele>5.0</ele><time>2026-05-04T06:30:13Z</time></trkpt><trkpt lat="41.698848421358775" lon="19.732402144213008"><ele>10.0</ele><time>2026-05-04T06:30:14Z</time></trkpt><trkpt lat="41.698875209534435" lon="19.73276909588089"><ele>15.0</ele><time>2026-05-04T06:30:15Z</time></trkpt><trkpt lat="41.698882993759185" lon="19.733150930246097"><ele>15.0</ele><time>2026-05-04T06:30:16Z</time></trkpt><trkpt lat="41.69886929818305" lon="19.73353599293105"><ele>15.0</ele><time>2026-05-04T06:30:17Z</time></trkpt><trkpt lat="41.698832794977186" lon="19.733917916786844"><ele>15.0</ele><time>2026-05-04T06:30:18Z</time></trkpt><trkpt lat="41.69878411111285" lon="19.73429671805387"><ele>15.0</ele><time>2026-05-04T06:30:19Z</time></trkpt><trkpt lat="41.698716679939366" lon="19.73467112288967"><ele>13.5</ele><time>2026-05-04T06:30:20Z</time></trkpt><trkpt lat="41.698637919081264" lon="19.735044156839564"><ele>12.0</ele><time>2026-05-04T06:30:21Z</time></trkpt><trkpt lat="41.69855452312934" lon="19.735415678210455"><ele>16.0</ele><time>2026-05-04T06:30:22Z</time></trkpt><trkpt lat="41.69846673572552" lon="19.73578459979053"><ele>20.0</ele><time>2026-05-04T06:30:23Z</time></trkpt><trkpt lat="41.69838377403147" lon="19.736154218977386"><ele>20.0</ele><time>2026-05-04T06:30:24Z</time></trkpt><trkpt lat="41.69830928642688" lon="19.73651942603794"><ele>20.0</ele><time>2026-05-04T06:30:25Z</time></trkpt><trkpt lat="41.69824618402323" lon="19.736890858567516"><ele>18.5</ele><time>2026-05-04T06:30:26Z</time></trkpt><trkpt lat="41.698189879392686" lon="19.73726308816532"><ele>17.0</ele><time>2026-05-04T06:30:27Z</time></trkpt><trkpt lat="41.69814747438616" lon="19.737634039588322"><ele>16.5</ele><time>2026-05-04T06:30:28Z</time></trkpt><trkpt lat="41.698121326882706" lon="19.737997846053673"><ele>16.0</ele><time>2026-05-04T06:30:29Z</time></trkpt><trkpt lat="41.69811146941247" lon="19.73831305889796"><ele>16.333333333333332</ele><time>2026-05-04T06:30:30Z</time></trkpt><trkpt lat="41.69811279098045" lon="19.738591525573828"><ele>16.666666666666668</ele><time>2026-05-04T06:30:31Z</time></trkpt><trkpt lat="41.69812049271984" lon="19.738873664977724"><ele>17.0</ele><time>2026-05-04T06:30:32Z</time></trkpt><trkpt lat="41.698125388466536" lon="19.739166475154555"><ele>18.0</ele><time>2026-05-04T06:30:33Z</time></trkpt><trkpt lat="41.69812939172942" lon="19.73946937427907"><ele>19.0</ele><time>2026-05-04T06:30:34Z</time></trkpt><trkpt lat="41.698136243955595" lon="19.73977950728758"><ele>19.0</ele><time>2026-05-04T06:30:35Z</time></trkpt><trkpt lat="41.69814671123455" lon="19.740095713766394"><ele>19.0</ele><time>2026-05-04T06:30:36Z</time></trkpt><trkpt lat="41.69815869703315" lon="19.740419423558"><ele>19.5</ele><time>2026-05-04T06:30:37Z</time></trkpt><trkpt lat="41.6981725983324" lon="19.74075025099632"><ele>20.0</ele><time>2026-05-04T06:30:38Z</time></trkpt><trkpt lat="41.698187112069355" lon="19.741084446382743"><ele>20.5</ele><time>2026-05-04T06:30:39Z</time></trkpt><trkpt lat="41.69820204405369" lon="19.741421838667982"><ele>21.0</ele><time>2026-05-04T06:30:40Z</time></trkpt><trkpt lat="41.69821722578521" lon="19.74175825155382"><ele>21.5</ele><time>2026-05-04T06:30:41Z</time></trkpt><trkpt lat="41.69823243414131" lon="19.74209283885326"><ele>22.0</ele><time>2026-05-04T06:30:42Z</time></trkpt><trkpt lat="41.69824939785695" lon="19.74242289541406"><ele>22.0</ele><time>2026-05-04T06:30:43Z</time></trkpt><trkpt lat="41.69826615473043" lon="19.74274875666045"><ele>22.0</ele><time>2026-05-04T06:30:44Z</time></trkpt><trkpt lat="41.69828284588598" lon="19.743076505908594"><ele>22.0</ele><time>2026-05-04T06:30:45Z</time></trkpt><trkpt lat="41.69830116337714" lon="19.74340397602348"><ele>22.0</ele><time>2026-05-04T06:30:46Z</time></trkpt><trkpt lat="41.6983178873669" lon="19.743732982585172"><ele>22.0</ele><time>2026-05-04T06:30:47Z</time></trkpt><trkpt lat="41.69833264790031" lon="19.744065589090877"><ele>22.0</ele><time>2026-05-04T06:30:48Z</time></trkpt><trkpt lat="41.69834554433716" lon="19.744396586786774"><ele>21.0</ele><time>2026-05-04T06:30:49Z</time></trkpt><trkpt lat="41.698358326670444" lon="19.744724423312704"><ele>20.0</ele><time>2026-05-04T06:30:50Z</time></trkpt><trkpt lat="41.69837266444987" lon="19.74505594423607"><ele>20.5</ele><time>2026-05-04T06:30:51Z</time></trkpt><trkpt lat="41.69838878239808" lon="19.74538961781268"><ele>21.0</ele><time>2026-05-04T06:30:52Z</time></trkpt><trkpt lat="41.69840531113617" lon="19.74572573725467"><ele>21.0</ele><time>2026-05-04T06:30:53Z</time></trkpt><trkpt lat="41.698420878317314" lon="19.746061548613916"><ele>21.0</ele><time>2026-05-04T06:30:54Z</time></trkpt><trkpt lat="41.698436347730414" lon="19.74639725445027"><ele>21.0</ele><time>2026-05-04T06:30:55Z</time></trkpt><trkpt lat="41.69845365957639" lon="19.74673653046013"><ele>21.0</ele><time>2026-05-04T06:30:56Z</time></trkpt><trkpt lat="41.69847148333198" lon="19.7470759620523"><ele>21.5</ele><time>2026-05-04T06:30:57Z</time></trkpt><trkpt lat="41.69848983247017" lon="19.747416632753414"><ele>22.0</ele><time>2026-05-04T06:30:58Z</time></trkpt><trkpt lat="41.6985070492625" lon="19.747758958933204"><ele>22.0</ele><time>2026-05-04T06:30:59Z</time></trkpt><trkpt lat="41.69852361084428" lon="19.748100044821804"><ele>22.0</ele><time>2026-05-04T06:31:00Z</time></trkpt><trkpt lat="41.69854142442959" lon="19.748439609560126"><ele>21.5</ele><time>2026-05-04T06:31:01Z</time></trkpt><trkpt lat="41.698558964403176" lon="19.748778955595164"><ele>21.0</ele><time>2026-05-04T06:31:02Z</time></trkpt><trkpt lat="41.69857598091013" lon="19.749119713311604"><ele>20.5</ele><time>2026-05-04T06:31:03Z</time></trkpt><trkpt lat="41.69859146649925" lon="19.74945770595959"><ele>20.0</ele><time>2026-05-04T06:31:04Z</time></trkpt><trkpt lat="41.69860781112724" lon="19.749795117693143"><ele>20.0</ele><time>2026-05-04T06:31:05Z</time></trkpt><trkpt lat="41.6986226036334" lon="19.750134076537798"><ele>20.0</ele><time>2026-05-04T06:31:06Z</time></trkpt><trkpt lat="41.69863707525501" lon="19.75047021719048"><ele>21.0</ele><time>2026-05-04T06:31:07Z</time></trkpt><trkpt lat="41.698648791948386" lon="19.75080568243467"><ele>22.0</ele><time>2026-05-04T06:31:08Z</time></trkpt><trkpt lat="41.69866263652119" lon="19.75114089624969"><ele>20.0</ele><time>2026-05-04T06:31:09Z</time></trkpt><trkpt lat="41.698679932537765" lon="19.751478975870125"><ele>18.0</ele><time>2026-05-04T06:31:10Z</time></trkpt><trkpt lat="41.698696852824824" lon="19.751819079187932"><ele>18.0</ele><time>2026-05-04T06:31:11Z</time></trkpt><trkpt lat="41.69871528412084" lon="19.752158641073876"><ele>18.0</ele><time>2026-05-04T06:31:12Z</time></trkpt><trkpt lat="41.69873580551215" lon="19.75249692388244"><ele>20.0</ele><time>2026-05-04T06:31:13Z</time></trkpt><trkpt lat="41.69875372425059" lon="19.75283210353245"><ele>22.0</ele><time>2026-05-04T06:31:14Z</time></trkpt><trkpt lat="41.69877070364119" lon="19.753166769647105"><ele>22.0</ele><time>2026-05-04T06:31:15Z</time></trkpt><trkpt lat="41.698787187054705" lon="19.75349962888696"><ele>22.0</ele><time>2026-05-04T06:31:16Z</time></trkpt><trkpt lat="41.69880368223639" lon="19.753833337879307"><ele>22.0</ele><time>2026-05-04T06:31:17Z</time></trkpt><trkpt lat="41.69882055124789" lon="19.75416878478919"><ele>22.0</ele><time>2026-05-04T06:31:18Z</time></trkpt><trkpt lat="41.69883858754746" lon="19.754503307309523"><ele>21.5</ele><time>2026-05-04T06:31:19Z</time></trkpt><trkpt lat="41.69885983053654" lon="19.754840008238936"><ele>21.0</ele><time>2026-05-04T06:31:20Z</time></trkpt><trkpt lat="41.698880898842994" lon="19.75517713048359"><ele>22.5</ele><time>2026-05-04T06:31:21Z</time></trkpt><trkpt lat="41.69889801148327" lon="19.75551636289489"><ele>24.0</ele><time>2026-05-04T06:31:22Z</time></trkpt><trkpt lat="41.69891177986953" lon="19.755854214363215"><ele>25.0</ele><time>2026-05-04T06:31:23Z</time></trkpt><trkpt lat="41.698927982024955" lon="19.756190865340038"><ele>26.0</ele><time>2026-05-04T06:31:24Z</time></trkpt><trkpt lat="41.69894519578077" lon="19.75652678676611"><ele>26.0</ele><time>2026-05-04T06:31:25Z</time></trkpt><trkpt lat="41.698964706176085" lon="19.756865072680174"><ele>26.0</ele><time>2026-05-04T06:31:26Z</time></trkpt><trkpt lat="41.698985276616526" lon="19.75720041575274"><ele>27.0</ele><time>2026-05-04T06:31:27Z</time></trkpt><trkpt lat="41.69901136079508" lon="19.757531032261927"><ele>28.0</ele><time>2026-05-04T06:31:28Z</time></trkpt><trkpt lat="41.69904677577461" lon="19.757859213113377"><ele>28.0</ele><time>2026-05-04T06:31:29Z</time></trkpt><trkpt lat="41.699089095431454" lon="19.758185181953355"><ele>28.0</ele><time>2026-05-04T06:31:30Z</time></trkpt><trkpt lat="41.69913467861475" lon="19.758513795427483"><ele>26.5</ele><time>2026-05-04T06:31:31Z</time></trkpt><trkpt lat="41.69918213084798" lon="19.758846787199992"><ele>25.0</ele><time>2026-05-04T06:31:32Z</time></trkpt><trkpt lat="41.699231840405" lon="19.759178594718932"><ele>24.5</ele><time>2026-05-04T06:31:32.999Z</time></trkpt><trkpt lat="41.699282681746425" lon="19.75951039144619"><ele>24.0</ele><time>2026-05-04T06:31:33.999Z</time></trkpt><trkpt lat="41.69933337508231" lon="19.759843923328013"><ele>24.0</ele><time>2026-05-04T06:31:34.999Z</time></trkpt><trkpt lat="41.69938142232373" lon="19.760176147737887"><ele>24.0</ele><time>2026-05-04T06:31:35.999Z</time></trkpt><trkpt lat="41.699428183402205" lon="19.760501796082647"><ele>23.0</ele><time>2026-05-04T06:31:36.999Z</time></trkpt><trkpt lat="41.69947002280673" lon="19.760827481223807"><ele>22.0</ele><time>2026-05-04T06:31:37.999Z</time></trkpt><trkpt lat="41.69949626038377" lon="19.761158101336278"><ele>22.0</ele><time>2026-05-04T06:31:38.999Z</time></trkpt><trkpt lat="41.69950751392161" lon="19.76148817079157"><ele>22.0</ele><time>2026-05-04T06:31:39.999Z</time></trkpt><trkpt lat="41.699501998564706" lon="19.761816190475255"><ele>20.0</ele><time>2026-05-04T06:31:40.999Z</time></trkpt><trkpt lat="41.69947906599969" lon="19.762144375676343"><ele>18.0</ele><time>2026-05-04T06:31:41.999Z</time></trkpt><trkpt lat="41.6994405615348" lon="19.76246890635923"><ele>21.0</ele><time>2026-05-04T06:31:42.999Z</time></trkpt><trkpt lat="41.699395240548974" lon="19.76279074752529"><ele>24.0</ele><time>2026-05-04T06:31:43.999Z</time></trkpt><trkpt lat="41.69934546640617" lon="19.763111987099293"><ele>24.0</ele><time>2026-05-04T06:31:44.999Z</time></trkpt><trkpt lat="41.699294561154026" lon="19.763427617136124"><ele>24.0</ele><time>2026-05-04T06:31:45.999Z</time></trkpt><trkpt lat="41.699245420443646" lon="19.763747117565504"><ele>23.5</ele><time>2026-05-04T06:31:46.999Z</time></trkpt><trkpt lat="41.699198395793694" lon="19.764069656633215"><ele>23.0</ele><time>2026-05-04T06:31:47.999Z</time></trkpt><trkpt lat="41.69915105173642" lon="19.764392279305554"><ele>23.0</ele><time>2026-05-04T06:31:48.999Z</time></trkpt><trkpt lat="41.69910198301363" lon="19.764713040201134"><ele>23.0</ele><time>2026-05-04T06:31:49.999Z</time></trkpt><trkpt lat="41.6990618418845" lon="19.765031462151597"><ele>23.0</ele><time>2026-05-04T06:31:50.999Z</time></trkpt><trkpt lat="41.699036411958" lon="19.765345740442346"><ele>23.0</ele><time>2026-05-04T06:31:51.999Z</time></trkpt><trkpt lat="41.69902935865814" lon="19.76566581994215"><ele>23.0</ele><time>2026-05-04T06:31:52.999Z</time></trkpt><trkpt lat="41.69904927648129" lon="19.76598796252715"><ele>23.0</ele><time>2026-05-04T06:31:53.999Z</time></trkpt><trkpt lat="41.69908441586798" lon="19.766315725000787"><ele>25.0</ele><time>2026-05-04T06:31:54.999Z</time></trkpt><trkpt lat="41.69914297543763" lon="19.766640928997358"><ele>27.0</ele><time>2026-05-04T06:31:55.999Z</time></trkpt><trkpt lat="41.69922747651463" lon="19.766963336342197"><ele>25.0</ele><time>2026-05-04T06:31:56.999Z</time></trkpt><trkpt lat="41.69932934209605" lon="19.767276220770334"><ele>23.0</ele><time>2026-05-04T06:31:57.999Z</time></trkpt><trkpt lat="41.69946025406638" lon="19.767574513406323"><ele>26.0</ele><time>2026-05-04T06:31:58.999Z</time></trkpt><trkpt lat="41.69961454001042" lon="19.767857879933462"><ele>29.0</ele><time>2026-05-04T06:31:59.999Z</time></trkpt><trkpt lat="41.69978598735072" lon="19.76813025666986"><ele>29.0</ele><time>2026-05-04T06:32:00.999Z</time></trkpt><trkpt lat="41.699970001308095" lon="19.768388377485554"><ele>29.0</ele><time>2026-05-04T06:32:01.999Z</time></trkpt><trkpt lat="41.7001597671199" lon="19.76864333560413"><ele>25.0</ele><time>2026-05-04T06:32:02.999Z</time></trkpt><trkpt lat="41.700351776339346" lon="19.768893199906927"><ele>21.0</ele><time>2026-05-04T06:32:03.999Z</time></trkpt><trkpt lat="41.70054671984724" lon="19.769145496163414"><ele>26.0</ele><time>2026-05-04T06:32:04.999Z</time></trkpt><trkpt lat="41.70074120172879" lon="19.76939480619664"><ele>31.0</ele><time>2026-05-04T06:32:05.999Z</time></trkpt><trkpt lat="41.70093499801999" lon="19.769643034518904"><ele>27.5</ele><time>2026-05-04T06:32:06.999Z</time></trkpt><trkpt lat="41.701128208918135" lon="19.76989057837784"><ele>24.0</ele><time>2026-05-04T06:32:08Z</time></trkpt><trkpt lat="41.701319568560365" lon="19.770136811401244"><ele>26.5</ele><time>2026-05-04T06:32:09Z</time></trkpt><trkpt lat="41.70150726517046" lon="19.77038160501634"><ele>29.0</ele><time>2026-05-04T06:32:10Z</time></trkpt><trkpt lat="41.701694713143425" lon="19.770624509690577"><ele>29.0</ele><time>2026-05-04T06:32:11Z</time></trkpt><trkpt lat="41.701882854101285" lon="19.770863479206756"><ele>29.0</ele><time>2026-05-04T06:32:12Z</time></trkpt><trkpt lat="41.70206798102194" lon="19.771097130073663"><ele>28.0</ele><time>2026-05-04T06:32:13Z</time></trkpt><trkpt lat="41.70224859832206" lon="19.77132718382211"><ele>27.0</ele><time>2026-05-04T06:32:14Z</time></trkpt><trkpt lat="41.702426124026715" lon="19.771558018760413"><ele>27.0</ele><time>2026-05-04T06:32:15Z</time></trkpt><trkpt lat="41.70260195322429" lon="19.77178439955308"><ele>27.0</ele><time>2026-05-04T06:32:16Z</time></trkpt><trkpt lat="41.70278154213873" lon="19.772010402216583"><ele>25.5</ele><time>2026-05-04T06:32:17Z</time></trkpt><trkpt lat="41.7029598122132" lon="19.772236613173835"><ele>24.0</ele><time>2026-05-04T06:32:18Z</time></trkpt><trkpt lat="41.703137378902134" lon="19.772459690446986"><ele>24.0</ele><time>2026-05-04T06:32:19Z</time></trkpt><trkpt lat="41.703317077587215" lon="19.772681884497626"><ele>24.0</ele><time>2026-05-04T06:32:20Z</time></trkpt><trkpt lat="41.70349275451931" lon="19.77290876592344"><ele>22.5</ele><time>2026-05-04T06:32:21Z</time></trkpt><trkpt lat="41.703666473292344" lon="19.773136736339886"><ele>21.0</ele><time>2026-05-04T06:32:22Z</time></trkpt><trkpt lat="41.703840423889964" lon="19.77336534611585"><ele>23.5</ele><time>2026-05-04T06:32:23Z</time></trkpt><trkpt lat="41.70401290397541" lon="19.77359063599645"><ele>26.0</ele><time>2026-05-04T06:32:24Z</time></trkpt><trkpt lat="41.70418201841389" lon="19.773811290264568"><ele>26.0</ele><time>2026-05-04T06:32:25Z</time></trkpt><trkpt lat="41.70434391542791" lon="19.774024622972373"><ele>26.0</ele><time>2026-05-04T06:32:26Z</time></trkpt><trkpt lat="41.704504395929575" lon="19.774236552418312"><ele>25.5</ele><time>2026-05-04T06:32:27Z</time></trkpt><trkpt lat="41.704668804572044" lon="19.774446256021452"><ele>25.0</ele><time>2026-05-04T06:32:28Z</time></trkpt><trkpt lat="41.70484094775995" lon="19.774650008315877"><ele>25.0</ele><time>2026-05-04T06:32:29Z</time></trkpt><trkpt lat="41.705020715583665" lon="19.774844086210813"><ele>25.0</ele><time>2026-05-04T06:32:30Z</time></trkpt><trkpt lat="41.705200325437254" lon="19.775015583932817"><ele>25.0</ele><time>2026-05-04T06:32:31Z</time></trkpt><trkpt lat="41.705380240882185" lon="19.775170141637513"><ele>25.0</ele><time>2026-05-04T06:32:32Z</time></trkpt><trkpt lat="41.70556504006196" lon="19.7753174411073"><ele>25.0</ele><time>2026-05-04T06:32:33Z</time></trkpt><trkpt lat="41.70576369303619" lon="19.77545429279341"><ele>25.0</ele><time>2026-05-04T06:32:34Z</time></trkpt><trkpt lat="41.70597255242548" lon="19.775587519604745"><ele>25.0</ele><time>2026-05-04T06:32:35Z</time></trkpt><trkpt lat="41.70619144469515" lon="19.775713540652294"><ele>25.0</ele><time>2026-05-04T06:32:36Z</time></trkpt><trkpt lat="41.70641822360057" lon="19.77583710285055"><ele>25.0</ele><time>2026-05-04T06:32:37Z</time></trkpt><trkpt lat="41.706651296293366" lon="19.775960871578082"><ele>26.0</ele><time>2026-05-04T06:32:38Z</time></trkpt><trkpt lat="41.70688204230705" lon="19.77608038259208"><ele>27.0</ele><time>2026-05-04T06:32:39Z</time></trkpt><trkpt lat="41.70709998479605" lon="19.776185790443662"><ele>27.0</ele><time>2026-05-04T06:32:40Z</time></trkpt><trkpt lat="41.707321345843866" lon="19.776287715996745"><ele>27.0</ele><time>2026-05-04T06:32:41Z</time></trkpt><trkpt lat="41.707545799230466" lon="19.776393388194037"><ele>26.0</ele><time>2026-05-04T06:32:42Z</time></trkpt><trkpt lat="41.70776722276461" lon="19.776504610940513"><ele>25.0</ele><time>2026-05-04T06:32:43Z</time></trkpt><trkpt lat="41.70798496622167" lon="19.776617659630283"><ele>25.0</ele><time>2026-05-04T06:32:44Z</time></trkpt><trkpt lat="41.70820838128401" lon="19.776726463754738"><ele>25.0</ele><time>2026-05-04T06:32:45Z</time></trkpt><trkpt lat="41.708431379233275" lon="19.776828366122775"><ele>26.0</ele><time>2026-05-04T06:32:46Z</time></trkpt><trkpt lat="41.70865882578182" lon="19.77692287273721"><ele>27.0</ele><time>2026-05-04T06:32:47Z</time></trkpt><trkpt lat="41.708889716623176" lon="19.777011408220094"><ele>27.0</ele><time>2026-05-04T06:32:48Z</time></trkpt><trkpt lat="41.70912135734681" lon="19.777096257371564"><ele>27.0</ele><time>2026-05-04T06:32:49Z</time></trkpt><trkpt lat="41.709351260712914" lon="19.777181009607705"><ele>25.5</ele><time>2026-05-04T06:32:50Z</time></trkpt><trkpt lat="41.709581521667204" lon="19.777266821217196"><ele>24.0</ele><time>2026-05-04T06:32:51Z</time></trkpt><trkpt lat="41.70981414652795" lon="19.77735121095583"><ele>24.0</ele><time>2026-05-04T06:32:52Z</time></trkpt><trkpt lat="41.71004837986939" lon="19.777434400217356"><ele>24.0</ele><time>2026-05-04T06:32:53Z</time></trkpt><trkpt lat="41.71028462993443" lon="19.77751655110601"><ele>25.5</ele><time>2026-05-04T06:32:54Z</time></trkpt><trkpt lat="41.71052219485829" lon="19.777599657333393"><ele>27.0</ele><time>2026-05-04T06:32:55Z</time></trkpt><trkpt lat="41.71076144771209" lon="19.777681462539743"><ele>27.5</ele><time>2026-05-04T06:32:56Z</time></trkpt><trkpt lat="41.71099927425172" lon="19.77776133074402"><ele>28.0</ele><time>2026-05-04T06:32:57Z</time></trkpt><trkpt lat="41.711236628463524" lon="19.77784333142081"><ele>28.0</ele><time>2026-05-04T06:32:58Z</time></trkpt><trkpt lat="41.71147140494085" lon="19.777925645910365"><ele>28.0</ele><time>2026-05-04T06:32:59Z</time></trkpt><trkpt lat="41.71170513991909" lon="19.778008218102627"><ele>28.0</ele><time>2026-05-04T06:33:00Z</time></trkpt><trkpt lat="41.711939125822944" lon="19.778088806381174"><ele>28.0</ele><time>2026-05-04T06:33:01Z</time></trkpt><trkpt lat="41.71217290385734" lon="19.778167420456093"><ele>28.0</ele><time>2026-05-04T06:33:02Z</time></trkpt><trkpt lat="41.71241088660905" lon="19.77823460325583"><ele>28.0</ele><time>2026-05-04T06:33:03Z</time></trkpt><trkpt lat="41.71265162838606" lon="19.77827251724188"><ele>29.5</ele><time>2026-05-04T06:33:04Z</time></trkpt><trkpt lat="41.712893316461034" lon="19.77829325784319"><ele>31.0</ele><time>2026-05-04T06:33:05Z</time></trkpt><trkpt lat="41.71313722634976" lon="19.77832555756328"><ele>31.0</ele><time>2026-05-04T06:33:06Z</time></trkpt><trkpt lat="41.71338954493251" lon="19.778314566672826"><ele>31.0</ele><time>2026-05-04T06:33:07Z</time></trkpt><trkpt lat="41.713641451246275" lon="19.778285741241994"><ele>32.0</ele><time>2026-05-04T06:33:08Z</time></trkpt><trkpt lat="41.71389297682611" lon="19.77823685680948"><ele>33.0</ele><time>2026-05-04T06:33:09Z</time></trkpt><trkpt lat="41.71414830679996" lon="19.778175399283388"><ele>33.0</ele><time>2026-05-04T06:33:10Z</time></trkpt><trkpt lat="41.7144039220589" lon="19.778109585759314"><ele>33.0</ele><time>2026-05-04T06:33:11Z</time></trkpt><trkpt lat="41.714658056568425" lon="19.77804215601696"><ele>36.0</ele><time>2026-05-04T06:33:12Z</time></trkpt><trkpt lat="41.714910866955826" lon="19.777979746191303"><ele>39.0</ele><time>2026-05-04T06:33:13Z</time></trkpt><trkpt lat="41.71516256097222" lon="19.777925433268283"><ele>42.5</ele><time>2026-05-04T06:33:14Z</time></trkpt><trkpt lat="41.715412921622026" lon="19.777889244834807"><ele>46.0</ele><time>2026-05-04T06:33:15Z</time></trkpt><trkpt lat="41.71566125273084" lon="19.77787621781381"><ele>46.0</ele><time>2026-05-04T06:33:16Z</time></trkpt><trkpt lat="41.71590932209462" lon="19.777887519989832"><ele>46.0</ele><time>2026-05-04T06:33:17Z</time></trkpt><trkpt lat="41.71615709828594" lon="19.77791597401821"><ele>44.5</ele><time>2026-05-04T06:33:18Z</time></trkpt><trkpt lat="41.716405705197204" lon="19.77795428711736"><ele>43.0</ele><time>2026-05-04T06:33:19Z</time></trkpt><trkpt lat="41.71665414705643" lon="19.77800529219185"><ele>42.5</ele><time>2026-05-04T06:33:20Z</time></trkpt><trkpt lat="41.71690504470326" lon="19.77807010014227"><ele>42.0</ele><time>2026-05-04T06:33:21Z</time></trkpt><trkpt lat="41.717154088555716" lon="19.778158593399684"><ele>42.0</ele><time>2026-05-04T06:33:22Z</time></trkpt><trkpt lat="41.717402247999054" lon="19.77827222702824"><ele>42.0</ele><time>2026-05-04T06:33:23Z</time></trkpt><trkpt lat="41.71764379101264" lon="19.778407731644453"><ele>44.5</ele><time>2026-05-04T06:33:24Z</time></trkpt><trkpt lat="41.71788337868904" lon="19.778561170229263"><ele>47.0</ele><time>2026-05-04T06:33:25Z</time></trkpt><trkpt lat="41.71811786919159" lon="19.77873281153874"><ele>47.0</ele><time>2026-05-04T06:33:26Z</time></trkpt><trkpt lat="41.71834368029727" lon="19.778917039749537"><ele>47.0</ele><time>2026-05-04T06:33:27Z</time></trkpt><trkpt lat="41.71856611270495" lon="19.779105146331823"><ele>42.0</ele><time>2026-05-04T06:33:28Z</time></trkpt><trkpt lat="41.71878708095065" lon="19.77929162123701"><ele>37.0</ele><time>2026-05-04T06:33:29Z</time></trkpt><trkpt lat="41.719007101613954" lon="19.779473619208094"><ele>35.0</ele><time>2026-05-04T06:33:30Z</time></trkpt><trkpt lat="41.719225130232985" lon="19.77965358218603"><ele>33.0</ele><time>2026-05-04T06:33:31Z</time></trkpt><trkpt lat="41.719439580316575" lon="19.779833511240795"><ele>33.0</ele><time>2026-05-04T06:33:32Z</time></trkpt><trkpt lat="41.719656478747936" lon="19.78001323815042"><ele>33.0</ele><time>2026-05-04T06:33:33Z</time></trkpt><trkpt lat="41.719872774658405" lon="19.78018944801443"><ele>40.5</ele><time>2026-05-04T06:33:34Z</time></trkpt><trkpt lat="41.72008905580097" lon="19.780367271134246"><ele>48.0</ele><time>2026-05-04T06:33:35Z</time></trkpt><trkpt lat="41.7203048842567" lon="19.780538865531867"><ele>48.0</ele><time>2026-05-04T06:33:36Z</time></trkpt><trkpt lat="41.72052405249963" lon="19.78069945622574"><ele>48.0</ele><time>2026-05-04T06:33:37Z</time></trkpt><trkpt lat="41.720747354279034" lon="19.780849369958496"><ele>48.0</ele><time>2026-05-04T06:33:38Z</time></trkpt><trkpt lat="41.720977716981395" lon="19.780980067042034"><ele>48.0</ele><time>2026-05-04T06:33:39Z</time></trkpt><trkpt lat="41.72121540550477" lon="19.781086754676753"><ele>51.5</ele><time>2026-05-04T06:33:40Z</time></trkpt><trkpt lat="41.721456740895825" lon="19.78117344645489"><ele>55.0</ele><time>2026-05-04T06:33:41Z</time></trkpt><trkpt lat="41.72170393379373" lon="19.78123991434159"><ele>49.0</ele><time>2026-05-04T06:33:42Z</time></trkpt><trkpt lat="41.72195317855904" lon="19.78130010413123"><ele>43.0</ele><time>2026-05-04T06:33:43Z</time></trkpt><trkpt lat="41.722203604272416" lon="19.78135399558712"><ele>43.0</ele><time>2026-05-04T06:33:44Z</time></trkpt><trkpt lat="41.72245547653777" lon="19.78140518110495"><ele>43.0</ele><time>2026-05-04T06:33:45Z</time></trkpt><trkpt lat="41.72271333036371" lon="19.781458500324792"><ele>39.5</ele><time>2026-05-04T06:33:46Z</time></trkpt><trkpt lat="41.72297298530952" lon="19.781511143183955"><ele>36.0</ele><time>2026-05-04T06:33:47Z</time></trkpt><trkpt lat="41.723233663946104" lon="19.78155863057612"><ele>36.0</ele><time>2026-05-04T06:33:48Z</time></trkpt><trkpt lat="41.72349587560076" lon="19.781605758975974"><ele>36.0</ele><time>2026-05-04T06:33:49Z</time></trkpt><trkpt lat="41.72376099393305" lon="19.781656840771927"><ele>34.5</ele><time>2026-05-04T06:33:50Z</time></trkpt><trkpt lat="41.72402608205022" lon="19.781709202187404"><ele>33.0</ele><time>2026-05-04T06:33:51Z</time></trkpt><trkpt lat="41.72429038276445" lon="19.78176015183687"><ele>33.5</ele><time>2026-05-04T06:33:52Z</time></trkpt><trkpt lat="41.72455573191871" lon="19.78180592133616"><ele>34.0</ele><time>2026-05-04T06:33:53Z</time></trkpt><trkpt lat="41.724823154247325" lon="19.78184438959913"><ele>35.5</ele><time>2026-05-04T06:33:54Z</time></trkpt><trkpt lat="41.72509216534725" lon="19.781869580610437"><ele>37.0</ele><time>2026-05-04T06:33:55Z</time></trkpt><trkpt lat="41.72536268772115" lon="19.78188093484278"><ele>37.0</ele><time>2026-05-04T06:33:56Z</time></trkpt><trkpt lat="41.725634032830726" lon="19.78188933726651"><ele>37.0</ele><time>2026-05-04T06:33:57Z</time></trkpt><trkpt lat="41.725903166146054" lon="19.78189848778986"><ele>37.0</ele><time>2026-05-04T06:33:58Z</time></trkpt><trkpt lat="41.726169877572794" lon="19.781908675484377"><ele>37.0</ele><time>2026-05-04T06:33:59Z</time></trkpt><trkpt lat="41.726434854570705" lon="19.781923066351318"><ele>37.0</ele><time>2026-05-04T06:34:00Z</time></trkpt><trkpt lat="41.72670077688123" lon="19.78193655204204"><ele>37.0</ele><time>2026-05-04T06:34:01Z</time></trkpt><trkpt lat="41.726964139531006" lon="19.78194955811285"><ele>37.0</ele><time>2026-05-04T06:34:02Z</time></trkpt><trkpt lat="41.72722728603175" lon="19.781967592723532"><ele>37.0</ele><time>2026-05-04T06:34:03Z</time></trkpt><trkpt lat="41.727487734661445" lon="19.78198224573762"><ele>37.0</ele><time>2026-05-04T06:34:04Z</time></trkpt><trkpt lat="41.72799276499795" lon="19.782000133365308"><ele>37.0</ele><time>2026-05-04T06:34:06Z</time></trkpt><trkpt lat="41.7282380894848" lon="19.782009463175097"><ele>37.0</ele><time>2026-05-04T06:34:07Z</time></trkpt><trkpt lat="41.72847907661444" lon="19.782019845058674"><ele>38.0</ele><time>2026-05-04T06:34:08Z</time></trkpt><trkpt lat="41.728718677642114" lon="19.782031316640587"><ele>39.0</ele><time>2026-05-04T06:34:09Z</time></trkpt><trkpt lat="41.728961723929906" lon="19.782039414699078"><ele>39.0</ele><time>2026-05-04T06:34:10Z</time></trkpt><trkpt lat="41.729205671830364" lon="19.782046930322153"><ele>39.0</ele><time>2026-05-04T06:34:11Z</time></trkpt><trkpt lat="41.72945124738847" lon="19.78205676854693"><ele>41.5</ele><time>2026-05-04T06:34:12Z</time></trkpt><trkpt lat="41.72969723015439" lon="19.782067845760345"><ele>44.0</ele><time>2026-05-04T06:34:13.001Z</time></trkpt><trkpt lat="41.72994198716335" lon="19.782078770874595"><ele>44.0</ele><time>2026-05-04T06:34:14.001Z</time></trkpt><trkpt lat="41.73018674496302" lon="19.782090213916387"><ele>44.0</ele><time>2026-05-04T06:34:15.001Z</time></trkpt><trkpt lat="41.73043361505386" lon="19.78210506877058"><ele>45.0</ele><time>2026-05-04T06:34:16.001Z</time></trkpt><trkpt lat="41.73067969204994" lon="19.782114785174407"><ele>46.0</ele><time>2026-05-04T06:34:17.001Z</time></trkpt><trkpt lat="41.730916557377" lon="19.782120977569555"><ele>46.0</ele><time>2026-05-04T06:34:18Z</time></trkpt><trkpt lat="41.7311391685579" lon="19.78212931515328"><ele>46.0</ele><time>2026-05-04T06:34:19Z</time></trkpt><trkpt lat="41.731347262149995" lon="19.782138730055152"><ele>46.0</ele><time>2026-05-04T06:34:20.001Z</time></trkpt><trkpt lat="41.73153299780903" lon="19.782150791463444"><ele>46.0</ele><time>2026-05-04T06:34:21Z</time></trkpt><trkpt lat="41.73170972070322" lon="19.78216041996858"><ele>46.0</ele><time>2026-05-04T06:34:22Z</time></trkpt><trkpt lat="41.731883001432074" lon="19.78216878999991"><ele>46.0</ele><time>2026-05-04T06:34:23Z</time></trkpt><trkpt lat="41.73205708929057" lon="19.782178695736135"><ele>45.66666666666667</ele><time>2026-05-04T06:34:24Z</time></trkpt><trkpt lat="41.732235407673876" lon="19.782191382742052"><ele>45.333333333333336</ele><time>2026-05-04T06:34:25Z</time></trkpt><trkpt lat="41.73241205614583" lon="19.78220916995419"><ele>45.0</ele><time>2026-05-04T06:34:25.999Z</time></trkpt><trkpt lat="41.73259069574413" lon="19.782231910749584"><ele>45.0</ele><time>2026-05-04T06:34:26.999Z</time></trkpt><trkpt lat="41.73277049499789" lon="19.782266579847022"><ele>45.0</ele><time>2026-05-04T06:34:27.999Z</time></trkpt><trkpt lat="41.73295016774518" lon="19.78231345020696"><ele>45.0</ele><time>2026-05-04T06:34:28.999Z</time></trkpt><trkpt lat="41.7331290087438" lon="19.78236858975133"><ele>45.0</ele><time>2026-05-04T06:34:29.999Z</time></trkpt><trkpt lat="41.73330646510835" lon="19.78242565449436"><ele>45.0</ele><time>2026-05-04T06:34:30.999Z</time></trkpt><trkpt lat="41.733484063105074" lon="19.782488757283218"><ele>45.0</ele><time>2026-05-04T06:34:31.999Z</time></trkpt><trkpt lat="41.73366530525864" lon="19.782561689127938"><ele>45.333333333333336</ele><time>2026-05-04T06:34:32.999Z</time></trkpt><trkpt lat="41.73385498974892" lon="19.78263599955206"><ele>45.66666666666667</ele><time>2026-05-04T06:34:33.999Z</time></trkpt><trkpt lat="41.734079420859544" lon="19.782726556088157"><ele>46.0</ele><time>2026-05-04T06:34:34.999Z</time></trkpt><trkpt lat="41.73430998811324" lon="19.782828381973797"><ele>42.5</ele><time>2026-05-04T06:34:35.999Z</time></trkpt><trkpt lat="41.73455143363005" lon="19.782936629718147"><ele>39.0</ele><time>2026-05-04T06:34:36.999Z</time></trkpt><trkpt lat="41.73480064967715" lon="19.7830543968105"><ele>39.0</ele><time>2026-05-04T06:34:37.999Z</time></trkpt><trkpt lat="41.73505025658223" lon="19.783166878140023"><ele>39.0</ele><time>2026-05-04T06:34:38.999Z</time></trkpt><trkpt lat="41.73530987147599" lon="19.78327991781119"><ele>38.0</ele><time>2026-05-04T06:34:39.999Z</time></trkpt><trkpt lat="41.73557124084278" lon="19.78339072167906"><ele>37.0</ele><time>2026-05-04T06:34:40.999Z</time></trkpt><trkpt lat="41.735832548472104" lon="19.783504934457884"><ele>37.5</ele><time>2026-05-04T06:34:41.999Z</time></trkpt><trkpt lat="41.73609381628895" lon="19.78361791888312"><ele>38.0</ele><time>2026-05-04T06:34:42.999Z</time></trkpt><trkpt lat="41.73635393504385" lon="19.783731593358336"><ele>38.0</ele><time>2026-05-04T06:34:43.999Z</time></trkpt><trkpt lat="41.736614104683575" lon="19.78383589047406"><ele>38.0</ele><time>2026-05-04T06:34:44.999Z</time></trkpt><trkpt lat="41.73687634508097" lon="19.783932161114677"><ele>39.0</ele><time>2026-05-04T06:34:45.999Z</time></trkpt><trkpt lat="41.73713630709785" lon="19.78401665822337"><ele>40.0</ele><time>2026-05-04T06:34:46.999Z</time></trkpt><trkpt lat="41.73740077785893" lon="19.784084037078433"><ele>40.0</ele><time>2026-05-04T06:34:47.999Z</time></trkpt><trkpt lat="41.73766645802334" lon="19.78413016270641"><ele>40.0</ele><time>2026-05-04T06:34:48.999Z</time></trkpt><trkpt lat="41.73793439324072" lon="19.784145195775764"><ele>40.0</ele><time>2026-05-04T06:34:49.999Z</time></trkpt><trkpt lat="41.73820228379127" lon="19.78414591044663"><ele>40.0</ele><time>2026-05-04T06:34:50.999Z</time></trkpt><trkpt lat="41.738470125962266" lon="19.784146109367768"><ele>39.0</ele><time>2026-05-04T06:34:51.999Z</time></trkpt><trkpt lat="41.73873055349521" lon="19.784144222209655"><ele>38.0</ele><time>2026-05-04T06:34:52.999Z</time></trkpt><trkpt lat="41.73895736266358" lon="19.784149206455236"><ele>38.0</ele><time>2026-05-04T06:34:53.999Z</time></trkpt><trkpt lat="41.73916450800995" lon="19.78415719355411"><ele>38.0</ele><time>2026-05-04T06:34:54.999Z</time></trkpt><trkpt lat="41.73934442519562" lon="19.784161919428183"><ele>38.0</ele><time>2026-05-04T06:34:55.999Z</time></trkpt><trkpt lat="41.73952816646688" lon="19.784162117397987"><ele>40.666666666666664</ele><time>2026-05-04T06:34:56.999Z</time></trkpt><trkpt lat="41.73972084597993" lon="19.78416163294716"><ele>43.333333333333336</ele><time>2026-05-04T06:34:57.999Z</time></trkpt><trkpt lat="41.739916463628475" lon="19.784164114293812"><ele>46.0</ele><time>2026-05-04T06:34:58.999Z</time></trkpt><trkpt lat="41.74010913420475" lon="19.78416080060928"><ele>47.0</ele><time>2026-05-04T06:34:59.999Z</time></trkpt><trkpt lat="41.74029488386209" lon="19.784159706210765"><ele>48.0</ele><time>2026-05-04T06:35:00.999Z</time></trkpt><trkpt lat="41.74047897635431" lon="19.78416964553562"><ele>49.0</ele><time>2026-05-04T06:35:01.999Z</time></trkpt><trkpt lat="41.74066702662409" lon="19.784188104759604"><ele>49.0</ele><time>2026-05-04T06:35:02.999Z</time></trkpt><trkpt lat="41.74085882315512" lon="19.784210886142585"><ele>49.0</ele><time>2026-05-04T06:35:03.999Z</time></trkpt><trkpt lat="41.7410534167338" lon="19.784240747186644"><ele>49.0</ele><time>2026-05-04T06:35:04.999Z</time></trkpt><trkpt lat="41.74124351933818" lon="19.784277824534133"><ele>48.33333333333333</ele><time>2026-05-04T06:35:05.999Z</time></trkpt><trkpt lat="41.74143289233653" lon="19.784315995082217"><ele>47.666666666666664</ele><time>2026-05-04T06:35:06.999Z</time></trkpt><trkpt lat="41.74162535542681" lon="19.784349825575646"><ele>47.0</ele><time>2026-05-04T06:35:07.999Z</time></trkpt><trkpt lat="41.7418216419696" lon="19.784386177810347"><ele>52.0</ele><time>2026-05-04T06:35:08.999Z</time></trkpt><trkpt lat="41.74202057183577" lon="19.784426221761645"><ele>57.0</ele><time>2026-05-04T06:35:09.999Z</time></trkpt><trkpt lat="41.74222231917741" lon="19.784467782905903"><ele>62.0</ele><time>2026-05-04T06:35:10.999Z</time></trkpt><trkpt lat="41.74243857378652" lon="19.784504383462085"><ele>62.0</ele><time>2026-05-04T06:35:11.999Z</time></trkpt><trkpt lat="41.74267398203738" lon="19.78454209840186"><ele>62.0</ele><time>2026-05-04T06:35:12.999Z</time></trkpt><trkpt lat="41.74292251004004" lon="19.784591555655506"><ele>61.0</ele><time>2026-05-04T06:35:13.999Z</time></trkpt><trkpt lat="41.74317372587722" lon="19.78465069082156"><ele>60.0</ele><time>2026-05-04T06:35:14.999Z</time></trkpt><trkpt lat="41.74343004854664" lon="19.78471917088953"><ele>55.0</ele><time>2026-05-04T06:35:15.999Z</time></trkpt><trkpt lat="41.7436861428539" lon="19.784791048549273"><ele>50.0</ele><time>2026-05-04T06:35:16.999Z</time></trkpt><trkpt lat="41.74394261806495" lon="19.784866406166877"><ele>50.0</ele><time>2026-05-04T06:35:17.999Z</time></trkpt><trkpt lat="41.744200141407234" lon="19.7849442266083"><ele>50.0</ele><time>2026-05-04T06:35:18.999Z</time></trkpt><trkpt lat="41.74445612313376" lon="19.78501835887882"><ele>50.5</ele><time>2026-05-04T06:35:19.999Z</time></trkpt><trkpt lat="41.744709928617596" lon="19.78509165668683"><ele>51.0</ele><time>2026-05-04T06:35:20.999Z</time></trkpt><trkpt lat="41.74496310856943" lon="19.785163208813305"><ele>55.0</ele><time>2026-05-04T06:35:21.999Z</time></trkpt><trkpt lat="41.745216433642135" lon="19.78523650359218"><ele>59.0</ele><time>2026-05-04T06:35:22.999Z</time></trkpt><trkpt lat="41.745469429994436" lon="19.785313193621967"><ele>59.0</ele><time>2026-05-04T06:35:23.999Z</time></trkpt><trkpt lat="41.745720033669926" lon="19.785396331789105"><ele>59.0</ele><time>2026-05-04T06:35:24.999Z</time></trkpt><trkpt lat="41.745968986984636" lon="19.785485503318622"><ele>54.0</ele><time>2026-05-04T06:35:25.999Z</time></trkpt><trkpt lat="41.746217181289346" lon="19.785582414938723"><ele>49.0</ele><time>2026-05-04T06:35:26.999Z</time></trkpt><trkpt lat="41.74646535408618" lon="19.785682024105295"><ele>49.0</ele><time>2026-05-04T06:35:27.999Z</time></trkpt><trkpt lat="41.74671139620617" lon="19.78578092708384"><ele>49.0</ele><time>2026-05-04T06:35:28.999Z</time></trkpt><trkpt lat="41.746956088086016" lon="19.785882208896595"><ele>49.0</ele><time>2026-05-04T06:35:29.999Z</time></trkpt><trkpt lat="41.74719952501814" lon="19.78598608542546"><ele>49.0</ele><time>2026-05-04T06:35:30.999Z</time></trkpt><trkpt lat="41.747444235901824" lon="19.786089396026597"><ele>49.0</ele><time>2026-05-04T06:35:31.999Z</time></trkpt><trkpt lat="41.74768835626838" lon="19.78619697001675"><ele>49.0</ele><time>2026-05-04T06:35:32.999Z</time></trkpt><trkpt lat="41.747931983447174" lon="19.786306885781187"><ele>46.5</ele><time>2026-05-04T06:35:33.999Z</time></trkpt><trkpt lat="41.748174080851456" lon="19.7864168957102"><ele>44.0</ele><time>2026-05-04T06:35:34.999Z</time></trkpt><trkpt lat="41.74841615453766" lon="19.7865259161947"><ele>43.5</ele><time>2026-05-04T06:35:35.999Z</time></trkpt><trkpt lat="41.74866140627594" lon="19.786635357294532"><ele>43.0</ele><time>2026-05-04T06:35:36.999Z</time></trkpt><trkpt lat="41.748907738971255" lon="19.78674794044514"><ele>45.0</ele><time>2026-05-04T06:35:37.999Z</time></trkpt><trkpt lat="41.749154127868366" lon="19.78686018376731"><ele>47.0</ele><time>2026-05-04T06:35:38.999Z</time></trkpt><trkpt lat="41.74940055127687" lon="19.78697284352812"><ele>47.0</ele><time>2026-05-04T06:35:39.999Z</time></trkpt><trkpt lat="41.74964673200722" lon="19.787083872577714"><ele>47.0</ele><time>2026-05-04T06:35:40.999Z</time></trkpt><trkpt lat="41.74989622319144" lon="19.787191898566697"><ele>47.0</ele><time>2026-05-04T06:35:41.999Z</time></trkpt><trkpt lat="41.750145114850504" lon="19.787292586062858"><ele>47.0</ele><time>2026-05-04T06:35:42.999Z</time></trkpt><trkpt lat="41.75039979140506" lon="19.787375900261242"><ele>46.5</ele><time>2026-05-04T06:35:43.999Z</time></trkpt><trkpt lat="41.75065757885656" lon="19.78744292079539"><ele>46.0</ele><time>2026-05-04T06:35:44.999Z</time></trkpt><trkpt lat="41.750919241708196" lon="19.787487681241142"><ele>46.5</ele><time>2026-05-04T06:35:45.999Z</time></trkpt><trkpt lat="41.75118223575997" lon="19.787505810083466"><ele>47.0</ele><time>2026-05-04T06:35:46.999Z</time></trkpt><trkpt lat="41.751447146142254" lon="19.787503500441076"><ele>47.0</ele><time>2026-05-04T06:35:47.999Z</time></trkpt><trkpt lat="41.75171144445457" lon="19.78748323876876"><ele>47.0</ele><time>2026-05-04T06:35:48.999Z</time></trkpt><trkpt lat="41.751973809740754" lon="19.78745230466731"><ele>47.5</ele><time>2026-05-04T06:35:49.999Z</time></trkpt><trkpt lat="41.752239059875855" lon="19.78740825342165"><ele>48.0</ele><time>2026-05-04T06:35:50.999Z</time></trkpt><trkpt lat="41.752502448802105" lon="19.78735941382205"><ele>50.0</ele><time>2026-05-04T06:35:51.999Z</time></trkpt><trkpt lat="41.75277224555612" lon="19.78730830157727"><ele>52.0</ele><time>2026-05-04T06:35:52.999Z</time></trkpt><trkpt lat="41.75303871621886" lon="19.787256859780708"><ele>52.0</ele><time>2026-05-04T06:35:53.999Z</time></trkpt><trkpt lat="41.753304767501945" lon="19.787201542202567"><ele>52.0</ele><time>2026-05-04T06:35:54.999Z</time></trkpt><trkpt lat="41.75357269471724" lon="19.787140645832356"><ele>56.0</ele><time>2026-05-04T06:35:55.999Z</time></trkpt><trkpt lat="41.753838808651466" lon="19.787071331795048"><ele>60.0</ele><time>2026-05-04T06:35:56.999Z</time></trkpt><trkpt lat="41.75410419936783" lon="19.786992891488836"><ele>60.0</ele><time>2026-05-04T06:35:57.999Z</time></trkpt><trkpt lat="41.754367025804086" lon="19.786909551859104"><ele>60.0</ele><time>2026-05-04T06:35:58.999Z</time></trkpt><trkpt lat="41.75462840828509" lon="19.78681885900525"><ele>54.5</ele><time>2026-05-04T06:35:59.999Z</time></trkpt><trkpt lat="41.754889409880604" lon="19.78672022217373"><ele>49.0</ele><time>2026-05-04T06:36:00.999Z</time></trkpt><trkpt lat="41.75514782241778" lon="19.78661915722535"><ele>46.5</ele><time>2026-05-04T06:36:01.999Z</time></trkpt><trkpt lat="41.75540067411524" lon="19.786514059329694"><ele>44.0</ele><time>2026-05-04T06:36:02.999Z</time></trkpt><trkpt lat="41.755652132387205" lon="19.786394908842357"><ele>44.0</ele><time>2026-05-04T06:36:03.999Z</time></trkpt><trkpt lat="41.755902147158785" lon="19.786272815796917"><ele>44.0</ele><time>2026-05-04T06:36:04.999Z</time></trkpt><trkpt lat="41.75614869170459" lon="19.78614964433264"><ele>44.0</ele><time>2026-05-04T06:36:05.999Z</time></trkpt><trkpt lat="41.75639981365932" lon="19.786029372583506"><ele>44.0</ele><time>2026-05-04T06:36:06.999Z</time></trkpt><trkpt lat="41.756651801275055" lon="19.78591755041716"><ele>43.5</ele><time>2026-05-04T06:36:07.999Z</time></trkpt><trkpt lat="41.75690072318475" lon="19.78580428094398"><ele>43.0</ele><time>2026-05-04T06:36:08.999Z</time></trkpt><trkpt lat="41.75714898102221" lon="19.78568812893361"><ele>43.0</ele><time>2026-05-04T06:36:09.999Z</time></trkpt><trkpt lat="41.75739640318743" lon="19.785570612821925"><ele>43.0</ele><time>2026-05-04T06:36:10.999Z</time></trkpt><trkpt lat="41.75764810132681" lon="19.785453760617216"><ele>47.5</ele><time>2026-05-04T06:36:11.999Z</time></trkpt><trkpt lat="41.75789569350284" lon="19.785337286239773"><ele>52.0</ele><time>2026-05-04T06:36:12.999Z</time></trkpt><trkpt lat="41.75814049275289" lon="19.785218607307346"><ele>51.0</ele><time>2026-05-04T06:36:13.999Z</time></trkpt><trkpt lat="41.7583879210067" lon="19.785099732306556"><ele>50.0</ele><time>2026-05-04T06:36:14.999Z</time></trkpt><trkpt lat="41.75863042670837" lon="19.78498744239667"><ele>50.0</ele><time>2026-05-04T06:36:15.999Z</time></trkpt><trkpt lat="41.75887566709837" lon="19.784879317292926"><ele>50.0</ele><time>2026-05-04T06:36:16.999Z</time></trkpt><trkpt lat="41.759119384895655" lon="19.784774113520374"><ele>50.5</ele><time>2026-05-04T06:36:17.999Z</time></trkpt><trkpt lat="41.759367615346044" lon="19.78465954238789"><ele>51.0</ele><time>2026-05-04T06:36:19Z</time></trkpt><trkpt lat="41.75961247662747" lon="19.78455988869259"><ele>51.0</ele><time>2026-05-04T06:36:20Z</time></trkpt><trkpt lat="41.75985984001266" lon="19.784473801900916"><ele>51.0</ele><time>2026-05-04T06:36:21Z</time></trkpt><trkpt lat="41.76010840331016" lon="19.784383358584144"><ele>49.0</ele><time>2026-05-04T06:36:22Z</time></trkpt><trkpt lat="41.76035540940961" lon="19.784289193967993"><ele>47.0</ele><time>2026-05-04T06:36:22.999Z</time></trkpt><trkpt lat="41.760600537402524" lon="19.78418625400514"><ele>47.0</ele><time>2026-05-04T06:36:23.999Z</time></trkpt><trkpt lat="41.76084688044668" lon="19.78407588118037"><ele>47.0</ele><time>2026-05-04T06:36:24.999Z</time></trkpt><trkpt lat="41.76109065314081" lon="19.78396728495457"><ele>47.0</ele><time>2026-05-04T06:36:26Z</time></trkpt><trkpt lat="41.76133320965927" lon="19.78385555780388"><ele>47.0</ele><time>2026-05-04T06:36:27Z</time></trkpt><trkpt lat="41.761563926419186" lon="19.783744817408934"><ele>47.0</ele><time>2026-05-04T06:36:28Z</time></trkpt><trkpt lat="41.76179404817496" lon="19.783649776187836"><ele>47.0</ele><time>2026-05-04T06:36:29Z</time></trkpt><trkpt lat="41.76201738536925" lon="19.783554717578582"><ele>46.5</ele><time>2026-05-04T06:36:30Z</time></trkpt><trkpt lat="41.762241549248664" lon="19.783468173182666"><ele>46.0</ele><time>2026-05-04T06:36:31Z</time></trkpt><trkpt lat="41.76245797607449" lon="19.78340842917328"><ele>46.0</ele><time>2026-05-04T06:36:32Z</time></trkpt><trkpt lat="41.76267548119549" lon="19.783389020859172"><ele>46.0</ele><time>2026-05-04T06:36:33Z</time></trkpt><trkpt lat="41.76288445190543" lon="19.783395542205696"><ele>46.0</ele><time>2026-05-04T06:36:34Z</time></trkpt><trkpt lat="41.76309411623805" lon="19.78342900941365"><ele>46.66666666666667</ele><time>2026-05-04T06:36:35Z</time></trkpt><trkpt lat="41.76330522594135" lon="19.783393949918306"><ele>47.333333333333336</ele><time>2026-05-04T06:36:36Z</time></trkpt><trkpt lat="41.76350679041507" lon="19.783422577101863"><ele>48.0</ele><time>2026-05-04T06:36:37Z</time></trkpt><trkpt lat="41.76370550406706" lon="19.783468770189117"><ele>49.33333333333333</ele><time>2026-05-04T06:36:38Z</time></trkpt><trkpt lat="41.76390913276706" lon="19.783514316046475"><ele>50.666666666666664</ele><time>2026-05-04T06:36:39Z</time></trkpt><trkpt lat="41.76410443722637" lon="19.783569393084747"><ele>52.0</ele><time>2026-05-04T06:36:40Z</time></trkpt><trkpt lat="41.76429598676644" lon="19.78362389535568"><ele>51.666666666666664</ele><time>2026-05-04T06:36:41Z</time></trkpt><trkpt lat="41.76448116094298" lon="19.783693980108612"><ele>51.33333333333333</ele><time>2026-05-04T06:36:42Z</time></trkpt><trkpt lat="41.76465814768216" lon="19.783788446095052"><ele>51.0</ele><time>2026-05-04T06:36:43Z</time></trkpt><trkpt lat="41.76482527768669" lon="19.783907226019966"><ele>51.0</ele><time>2026-05-04T06:36:44Z</time></trkpt><trkpt lat="41.764971190472515" lon="19.784053754564415"><ele>51.0</ele><time>2026-05-04T06:36:45Z</time></trkpt><trkpt lat="41.765123742192024" lon="19.78419884119611"><ele>51.0</ele><time>2026-05-04T06:36:46Z</time></trkpt><trkpt lat="41.7653129222668" lon="19.78433169610425"><ele>51.33333333333333</ele><time>2026-05-04T06:36:47Z</time></trkpt><trkpt lat="41.765467526644564" lon="19.784495548557757"><ele>51.666666666666664</ele><time>2026-05-04T06:36:48Z</time></trkpt><trkpt lat="41.76561506703688" lon="19.78466703298073"><ele>52.0</ele><time>2026-05-04T06:36:49Z</time></trkpt><trkpt lat="41.76575678829422" lon="19.784852199218818"><ele>52.0</ele><time>2026-05-04T06:36:50Z</time></trkpt><trkpt lat="41.765889500039385" lon="19.785046756732232"><ele>52.0</ele><time>2026-05-04T06:36:51Z</time></trkpt><trkpt lat="41.76600508859545" lon="19.785262570808793"><ele>52.0</ele><time>2026-05-04T06:36:52Z</time></trkpt><trkpt lat="41.766098688186794" lon="19.785491408740324"><ele>52.666666666666664</ele><time>2026-05-04T06:36:53Z</time></trkpt><trkpt lat="41.766164601195186" lon="19.785708854012345"><ele>53.33333333333333</ele><time>2026-05-04T06:36:54Z</time></trkpt><trkpt lat="41.766233216748454" lon="19.785927542421124"><ele>54.0</ele><time>2026-05-04T06:36:55Z</time></trkpt><trkpt lat="41.766392867966296" lon="19.786199322638844"><ele>55.33333333333333</ele><time>2026-05-04T06:36:56Z</time></trkpt><trkpt lat="41.76650991203774" lon="19.786441687806203"><ele>56.666666666666664</ele><time>2026-05-04T06:36:57Z</time></trkpt><trkpt lat="41.76661672920113" lon="19.786686242024228"><ele>58.0</ele><time>2026-05-04T06:36:58Z</time></trkpt><trkpt lat="41.76672553748938" lon="19.78694368231325"><ele>58.0</ele><time>2026-05-04T06:36:59Z</time></trkpt><trkpt lat="41.76683688675196" lon="19.78720263976163"><ele>58.0</ele><time>2026-05-04T06:37:00Z</time></trkpt><trkpt lat="41.76696185606396" lon="19.787453759244894"><ele>58.0</ele><time>2026-05-04T06:37:01Z</time></trkpt><trkpt lat="41.76710693353743" lon="19.78770177264987"><ele>51.0</ele><time>2026-05-04T06:37:02Z</time></trkpt><trkpt lat="41.767260332745714" lon="19.78793745590161"><ele>44.0</ele><time>2026-05-04T06:37:03Z</time></trkpt><trkpt lat="41.767427392257424" lon="19.788168265319307"><ele>44.0</ele><time>2026-05-04T06:37:04Z</time></trkpt><trkpt lat="41.76760941106787" lon="19.7883797226541"><ele>44.0</ele><time>2026-05-04T06:37:05Z</time></trkpt><trkpt lat="41.76780578400774" lon="19.78857559867548"><ele>59.5</ele><time>2026-05-04T06:37:06Z</time></trkpt><trkpt lat="41.76801610312274" lon="19.788749207396805"><ele>75.0</ele><time>2026-05-04T06:37:07Z</time></trkpt><trkpt lat="41.76823886759832" lon="19.7888916412342"><ele>75.0</ele><time>2026-05-04T06:37:08Z</time></trkpt><trkpt lat="41.76847485072204" lon="19.789011191978272"><ele>75.0</ele><time>2026-05-04T06:37:09Z</time></trkpt><trkpt lat="41.768716637589804" lon="19.7891185081377"><ele>66.5</ele><time>2026-05-04T06:37:10Z</time></trkpt><trkpt lat="41.768965403276205" lon="19.78922652829665"><ele>58.0</ele><time>2026-05-04T06:37:11Z</time></trkpt><trkpt lat="41.76921342175159" lon="19.789336743874507"><ele>68.5</ele><time>2026-05-04T06:37:12Z</time></trkpt><trkpt lat="41.76946506130639" lon="19.789444164830325"><ele>79.0</ele><time>2026-05-04T06:37:13Z</time></trkpt><trkpt lat="41.769712838882555" lon="19.78953909905041"><ele>79.0</ele><time>2026-05-04T06:37:14Z</time></trkpt><trkpt lat="41.76996388905107" lon="19.78961878451003"><ele>79.0</ele><time>2026-05-04T06:37:15Z</time></trkpt><trkpt lat="41.77021392773806" lon="19.789680367853038"><ele>80.5</ele><time>2026-05-04T06:37:16Z</time></trkpt><trkpt lat="41.77046745080246" lon="19.789730939128248"><ele>82.0</ele><time>2026-05-04T06:37:16.999Z</time></trkpt><trkpt lat="41.77072134709488" lon="19.789767226803654"><ele>82.0</ele><time>2026-05-04T06:37:17.999Z</time></trkpt><trkpt lat="41.77097434611854" lon="19.789788350268584"><ele>82.0</ele><time>2026-05-04T06:37:18.999Z</time></trkpt><trkpt lat="41.771230611634785" lon="19.789795078140976"><ele>78.5</ele><time>2026-05-04T06:37:19.999Z</time></trkpt><trkpt lat="41.77148191707472" lon="19.78978855505993"><ele>75.0</ele><time>2026-05-04T06:37:20.999Z</time></trkpt><trkpt lat="41.77173432474707" lon="19.789769988037705"><ele>77.5</ele><time>2026-05-04T06:37:21.999Z</time></trkpt><trkpt lat="41.77198612714121" lon="19.78975194698805"><ele>80.0</ele><time>2026-05-04T06:37:22.999Z</time></trkpt><trkpt lat="41.772241119458144" lon="19.78973208431881"><ele>80.0</ele><time>2026-05-04T06:37:23.999Z</time></trkpt><trkpt lat="41.77249590139671" lon="19.789712180036"><ele>80.0</ele><time>2026-05-04T06:37:24.999Z</time></trkpt><trkpt lat="41.772749772899296" lon="19.789689455008286"><ele>84.5</ele><time>2026-05-04T06:37:25.999Z</time></trkpt><trkpt lat="41.77300647781418" lon="19.789666139758115"><ele>89.0</ele><time>2026-05-04T06:37:26.999Z</time></trkpt><trkpt lat="41.77325739289671" lon="19.789640251947784"><ele>89.0</ele><time>2026-05-04T06:37:27.999Z</time></trkpt><trkpt lat="41.77351146891096" lon="19.7896023714063"><ele>89.0</ele><time>2026-05-04T06:37:28.999Z</time></trkpt><trkpt lat="41.77375890016519" lon="19.789539850295167"><ele>84.0</ele><time>2026-05-04T06:37:29.999Z</time></trkpt><trkpt lat="41.77399975765883" lon="19.789453110386432"><ele>79.0</ele><time>2026-05-04T06:37:30.999Z</time></trkpt><trkpt lat="41.77423873065471" lon="19.789349021208164"><ele>76.0</ele><time>2026-05-04T06:37:31.999Z</time></trkpt><trkpt lat="41.77447549126792" lon="19.789223812929954"><ele>73.0</ele><time>2026-05-04T06:37:32.999Z</time></trkpt><trkpt lat="41.77470645541053" lon="19.78908731024724"><ele>73.0</ele><time>2026-05-04T06:37:33.999Z</time></trkpt><trkpt lat="41.77493194222718" lon="19.788930770600096"><ele>73.0</ele><time>2026-05-04T06:37:34.999Z</time></trkpt><trkpt lat="41.7751487005252" lon="19.788746762936047"><ele>73.5</ele><time>2026-05-04T06:37:35.999Z</time></trkpt><trkpt lat="41.7753545165374" lon="19.788549576085096"><ele>74.0</ele><time>2026-05-04T06:37:36.999Z</time></trkpt><trkpt lat="41.77555214197468" lon="19.788334434962028"><ele>74.0</ele><time>2026-05-04T06:37:37.999Z</time></trkpt><trkpt lat="41.77574563228055" lon="19.788116438681136"><ele>74.0</ele><time>2026-05-04T06:37:38.999Z</time></trkpt><trkpt lat="41.77593883724348" lon="19.78790222469288"><ele>73.0</ele><time>2026-05-04T06:37:39.999Z</time></trkpt><trkpt lat="41.776135676809425" lon="19.787686053909948"><ele>72.0</ele><time>2026-05-04T06:37:40.999Z</time></trkpt><trkpt lat="41.77633057154838" lon="19.78747071233733"><ele>72.0</ele><time>2026-05-04T06:37:41.999Z</time></trkpt><trkpt lat="41.77652381990564" lon="19.787252583289337"><ele>72.0</ele><time>2026-05-04T06:37:42.999Z</time></trkpt><trkpt lat="41.77671230629236" lon="19.787030621367638"><ele>72.0</ele><time>2026-05-04T06:37:43.999Z</time></trkpt><trkpt lat="41.77690181751778" lon="19.786810300593757"><ele>72.0</ele><time>2026-05-04T06:37:44.999Z</time></trkpt><trkpt lat="41.7770930231708" lon="19.78659237212664"><ele>72.0</ele><time>2026-05-04T06:37:45.999Z</time></trkpt><trkpt lat="41.77728137160121" lon="19.786378025290738"><ele>72.0</ele><time>2026-05-04T06:37:46.999Z</time></trkpt><trkpt lat="41.77746653199689" lon="19.786169530344512"><ele>73.0</ele><time>2026-05-04T06:37:47.999Z</time></trkpt><trkpt lat="41.77765623702111" lon="19.785967580892883"><ele>74.0</ele><time>2026-05-04T06:37:48.999Z</time></trkpt><trkpt lat="41.77784772958759" lon="19.785778187244347"><ele>74.0</ele><time>2026-05-04T06:37:49.999Z</time></trkpt><trkpt lat="41.77804446770553" lon="19.78559390105456"><ele>74.0</ele><time>2026-05-04T06:37:50.999Z</time></trkpt><trkpt lat="41.77823552807928" lon="19.78540739048257"><ele>74.0</ele><time>2026-05-04T06:37:51.999Z</time></trkpt><trkpt lat="41.7784223402425" lon="19.78520806046684"><ele>74.0</ele><time>2026-05-04T06:37:52.999Z</time></trkpt><trkpt lat="41.77860143143173" lon="19.784999591063837"><ele>71.0</ele><time>2026-05-04T06:37:53.999Z</time></trkpt><trkpt lat="41.77878560997956" lon="19.784804898552625"><ele>68.0</ele><time>2026-05-04T06:37:54.999Z</time></trkpt><trkpt lat="41.77897952758985" lon="19.784625485605467"><ele>68.0</ele><time>2026-05-04T06:37:55.999Z</time></trkpt><trkpt lat="41.77918192007638" lon="19.784465019274663"><ele>68.0</ele><time>2026-05-04T06:37:56.999Z</time></trkpt><trkpt lat="41.77939184942618" lon="19.78431920008758"><ele>64.0</ele><time>2026-05-04T06:37:57.999Z</time></trkpt><trkpt lat="41.77960975200632" lon="19.784181273887256"><ele>60.0</ele><time>2026-05-04T06:37:58.999Z</time></trkpt><trkpt lat="41.779831149176225" lon="19.78405274995068"><ele>60.0</ele><time>2026-05-04T06:37:59.999Z</time></trkpt><trkpt lat="41.78006258874316" lon="19.783932666528788"><ele>60.0</ele><time>2026-05-04T06:38:00.999Z</time></trkpt><trkpt lat="41.780295918209475" lon="19.78382842040956"><ele>63.5</ele><time>2026-05-04T06:38:01.999Z</time></trkpt><trkpt lat="41.780539324765755" lon="19.783744556200922"><ele>67.0</ele><time>2026-05-04T06:38:02.999Z</time></trkpt><trkpt lat="41.78078901948279" lon="19.783688171517177"><ele>66.5</ele><time>2026-05-04T06:38:03.999Z</time></trkpt><trkpt lat="41.78104335564521" lon="19.783653434206602"><ele>66.0</ele><time>2026-05-04T06:38:04.999Z</time></trkpt><trkpt lat="41.781301044705174" lon="19.78363586047632"><ele>66.0</ele><time>2026-05-04T06:38:05.999Z</time></trkpt><trkpt lat="41.78155323888129" lon="19.783636771706526"><ele>66.0</ele><time>2026-05-04T06:38:06.999Z</time></trkpt><trkpt lat="41.7818085036045" lon="19.783653824762904"><ele>66.5</ele><time>2026-05-04T06:38:07.999Z</time></trkpt><trkpt lat="41.78206255885572" lon="19.7836825843269"><ele>67.0</ele><time>2026-05-04T06:38:08.999Z</time></trkpt><trkpt lat="41.78231692557395" lon="19.783719918342488"><ele>67.0</ele><time>2026-05-04T06:38:09.999Z</time></trkpt><trkpt lat="41.78256189883568" lon="19.783782183005727"><ele>67.0</ele><time>2026-05-04T06:38:10.999Z</time></trkpt><trkpt lat="41.78279373745683" lon="19.78387431074939"><ele>65.66666666666666</ele><time>2026-05-04T06:38:11.999Z</time></trkpt><trkpt lat="41.783010881893546" lon="19.783971982467637"><ele>64.33333333333333</ele><time>2026-05-04T06:38:12.999Z</time></trkpt><trkpt lat="41.783205911002845" lon="19.78407901798517"><ele>63.0</ele><time>2026-05-04T06:38:13.999Z</time></trkpt><trkpt lat="41.7833937183655" lon="19.784185366427806"><ele>62.0</ele><time>2026-05-04T06:38:14.999Z</time></trkpt><trkpt lat="41.78358016801069" lon="19.784297496459164"><ele>61.0</ele><time>2026-05-04T06:38:15.999Z</time></trkpt><trkpt lat="41.78377159192134" lon="19.784408235992654"><ele>60.0</ele><time>2026-05-04T06:38:16.999Z</time></trkpt><trkpt lat="41.78396005403402" lon="19.78451668252364"><ele>60.0</ele><time>2026-05-04T06:38:17.999Z</time></trkpt><trkpt lat="41.784150742175925" lon="19.784629774175784"><ele>60.0</ele><time>2026-05-04T06:38:18.999Z</time></trkpt><trkpt lat="41.784346181703" lon="19.784744488208002"><ele>60.0</ele><time>2026-05-04T06:38:19.999Z</time></trkpt><trkpt lat="41.78454420501696" lon="19.784863414258844"><ele>58.0</ele><time>2026-05-04T06:38:20.999Z</time></trkpt><trkpt lat="41.7847406578479" lon="19.784983953744856"><ele>56.0</ele><time>2026-05-04T06:38:21.999Z</time></trkpt><trkpt lat="41.784938492005146" lon="19.785104511075996"><ele>54.0</ele><time>2026-05-04T06:38:22.999Z</time></trkpt><trkpt lat="41.78513548583907" lon="19.785225910777807"><ele>53.33333333333333</ele><time>2026-05-04T06:38:24Z</time></trkpt><trkpt lat="41.785323735377744" lon="19.7853356841471"><ele>52.666666666666664</ele><time>2026-05-04T06:38:25Z</time></trkpt><trkpt lat="41.78549739729104" lon="19.785439023110584"><ele>52.0</ele><time>2026-05-04T06:38:26Z</time></trkpt><trkpt lat="41.785673945568995" lon="19.78553750463928"><ele>52.0</ele><time>2026-05-04T06:38:27Z</time></trkpt><trkpt lat="41.78584889845621" lon="19.785641322873165"><ele>52.0</ele><time>2026-05-04T06:38:28Z</time></trkpt><trkpt lat="41.78602050511062" lon="19.785752432551917"><ele>52.0</ele><time>2026-05-04T06:38:29Z</time></trkpt><trkpt lat="41.78618563190094" lon="19.785882369102122"><ele>54.0</ele><time>2026-05-04T06:38:30Z</time></trkpt><trkpt lat="41.786346052468545" lon="19.78603752272029"><ele>56.0</ele><time>2026-05-04T06:38:31Z</time></trkpt><trkpt lat="41.78650039706468" lon="19.786215858892486"><ele>58.0</ele><time>2026-05-04T06:38:32Z</time></trkpt><trkpt lat="41.78664879561971" lon="19.786412393667877"><ele>58.0</ele><time>2026-05-04T06:38:33Z</time></trkpt><trkpt lat="41.78678591029114" lon="19.786624698780013"><ele>58.0</ele><time>2026-05-04T06:38:34Z</time></trkpt><trkpt lat="41.78691325568903" lon="19.786849864436842"><ele>58.0</ele><time>2026-05-04T06:38:35Z</time></trkpt><trkpt lat="41.78702702618681" lon="19.787086793807244"><ele>59.33333333333333</ele><time>2026-05-04T06:38:36Z</time></trkpt><trkpt lat="41.787132575311155" lon="19.787331699844568"><ele>60.66666666666667</ele><time>2026-05-04T06:38:37Z</time></trkpt><trkpt lat="41.78722849289475" lon="19.787593819906206"><ele>62.0</ele><time>2026-05-04T06:38:38Z</time></trkpt><trkpt lat="41.78731200262812" lon="19.787863553381534"><ele>62.0</ele><time>2026-05-04T06:38:39Z</time></trkpt><trkpt lat="41.78739514617038" lon="19.788135078397083"><ele>62.0</ele><time>2026-05-04T06:38:40Z</time></trkpt><trkpt lat="41.78748282895916" lon="19.788412141112627"><ele>62.0</ele><time>2026-05-04T06:38:41Z</time></trkpt><trkpt lat="41.78757117237111" lon="19.788688710712638"><ele>62.0</ele><time>2026-05-04T06:38:42Z</time></trkpt><trkpt lat="41.78765908432238" lon="19.78896180232775"><ele>62.0</ele><time>2026-05-04T06:38:43Z</time></trkpt><trkpt lat="41.78774960746266" lon="19.789243228664567"><ele>64.0</ele><time>2026-05-04T06:38:44Z</time></trkpt><trkpt lat="41.787837274758225" lon="19.789523257375976"><ele>66.0</ele><time>2026-05-04T06:38:45Z</time></trkpt><trkpt lat="41.7879277878375" lon="19.789808322495812"><ele>66.0</ele><time>2026-05-04T06:38:46Z</time></trkpt><trkpt lat="41.78801884674907" lon="19.79009567575988"><ele>66.0</ele><time>2026-05-04T06:38:47Z</time></trkpt><trkpt lat="41.788111898892765" lon="19.79038113691636"><ele>65.0</ele><time>2026-05-04T06:38:48Z</time></trkpt><trkpt lat="41.788204727450236" lon="19.790670923794284"><ele>64.0</ele><time>2026-05-04T06:38:49Z</time></trkpt><trkpt lat="41.78829677065621" lon="19.790960235004537"><ele>63.0</ele><time>2026-05-04T06:38:50Z</time></trkpt><trkpt lat="41.78838726542212" lon="19.791252342985082"><ele>62.0</ele><time>2026-05-04T06:38:51Z</time></trkpt><trkpt lat="41.78847836954268" lon="19.79154414624879"><ele>63.0</ele><time>2026-05-04T06:38:52Z</time></trkpt><trkpt lat="41.78857053583431" lon="19.791832870680043"><ele>64.0</ele><time>2026-05-04T06:38:53Z</time></trkpt><trkpt lat="41.788671190820324" lon="19.79212093627968"><ele>64.0</ele><time>2026-05-04T06:38:54Z</time></trkpt><trkpt lat="41.78877548325472" lon="19.792412492281603"><ele>64.0</ele><time>2026-05-04T06:38:55Z</time></trkpt><trkpt lat="41.78883511104764" lon="19.792685156787172"><ele>62.5</ele><time>2026-05-04T06:38:56Z</time></trkpt><trkpt lat="41.78890674173991" lon="19.79297997682849"><ele>61.0</ele><time>2026-05-04T06:38:57Z</time></trkpt><trkpt lat="41.78896388951656" lon="19.793286906800322"><ele>60.0</ele><time>2026-05-04T06:38:58Z</time></trkpt><trkpt lat="41.7890065474585" lon="19.79360195828829"><ele>59.0</ele><time>2026-05-04T06:38:59Z</time></trkpt><trkpt lat="41.78903425693057" lon="19.7939143521291"><ele>59.0</ele><time>2026-05-04T06:39:00Z</time></trkpt><trkpt lat="41.789042694287645" lon="19.79423841784279"><ele>59.0</ele><time>2026-05-04T06:39:01Z</time></trkpt><trkpt lat="41.78903843945839" lon="19.794557835407456"><ele>58.5</ele><time>2026-05-04T06:39:02Z</time></trkpt><trkpt lat="41.789019885441775" lon="19.79487591144834"><ele>58.0</ele><time>2026-05-04T06:39:03Z</time></trkpt><trkpt lat="41.78899690687656" lon="19.795193135022146"><ele>59.0</ele><time>2026-05-04T06:39:04Z</time></trkpt><trkpt lat="41.78897228802385" lon="19.795520856908677"><ele>60.0</ele><time>2026-05-04T06:39:05Z</time></trkpt><trkpt lat="41.78895308601409" lon="19.79583610140555"><ele>63.5</ele><time>2026-05-04T06:39:06Z</time></trkpt><trkpt lat="41.78894602981567" lon="19.796156989504524"><ele>67.0</ele><time>2026-05-04T06:39:07Z</time></trkpt><trkpt lat="41.78895786863282" lon="19.79648119640439"><ele>67.0</ele><time>2026-05-04T06:39:08Z</time></trkpt><trkpt lat="41.78899622905392" lon="19.796799844546197"><ele>67.0</ele><time>2026-05-04T06:39:09Z</time></trkpt><trkpt lat="41.789058024414906" lon="19.797107727176126"><ele>67.5</ele><time>2026-05-04T06:39:10Z</time></trkpt><trkpt lat="41.78913577614647" lon="19.79740636575843"><ele>68.0</ele><time>2026-05-04T06:39:11Z</time></trkpt><trkpt lat="41.7892318785949" lon="19.797701697986373"><ele>73.5</ele><time>2026-05-04T06:39:12Z</time></trkpt><trkpt lat="41.7893492347379" lon="19.797982539247286"><ele>79.0</ele><time>2026-05-04T06:39:13Z</time></trkpt><trkpt lat="41.78948997428519" lon="19.798249167603288"><ele>72.0</ele><time>2026-05-04T06:39:14Z</time></trkpt><trkpt lat="41.78964726224546" lon="19.79850193196875"><ele>65.0</ele><time>2026-05-04T06:39:15Z</time></trkpt><trkpt lat="41.78982378655662" lon="19.798738344164494"><ele>65.0</ele><time>2026-05-04T06:39:16Z</time></trkpt><trkpt lat="41.79000243841573" lon="19.798972401507005"><ele>65.0</ele><time>2026-05-04T06:39:17Z</time></trkpt><trkpt lat="41.790177531585485" lon="19.799203231901547"><ele>72.5</ele><time>2026-05-04T06:39:18Z</time></trkpt><trkpt lat="41.79036427329443" lon="19.799436699240246"><ele>80.0</ele><time>2026-05-04T06:39:19Z</time></trkpt><trkpt lat="41.790536316178276" lon="19.7996723896771"><ele>80.0</ele><time>2026-05-04T06:39:20Z</time></trkpt><trkpt lat="41.79070937709047" lon="19.799911372070575"><ele>80.0</ele><time>2026-05-04T06:39:21Z</time></trkpt><trkpt lat="41.79087999101331" lon="19.800149668730917"><ele>84.0</ele><time>2026-05-04T06:39:22Z</time></trkpt><trkpt lat="41.791053355936036" lon="19.800387700916772"><ele>88.0</ele><time>2026-05-04T06:39:23Z</time></trkpt><trkpt lat="41.79122719144002" lon="19.800622233686628"><ele>88.0</ele><time>2026-05-04T06:39:24Z</time></trkpt><trkpt lat="41.791402517078055" lon="19.80085707591429"><ele>88.0</ele><time>2026-05-04T06:39:25Z</time></trkpt><trkpt lat="41.79157693761246" lon="19.801094851439938"><ele>91.5</ele><time>2026-05-04T06:39:26Z</time></trkpt><trkpt lat="41.791750013371285" lon="19.8013322052408"><ele>95.0</ele><time>2026-05-04T06:39:27Z</time></trkpt><trkpt lat="41.79192081674181" lon="19.801575967802844"><ele>95.0</ele><time>2026-05-04T06:39:28Z</time></trkpt><trkpt lat="41.79208903830693" lon="19.801822356212384"><ele>95.0</ele><time>2026-05-04T06:39:29Z</time></trkpt><trkpt lat="41.792250542926794" lon="19.80207067846726"><ele>82.5</ele><time>2026-05-04T06:39:30Z</time></trkpt><trkpt lat="41.79240437730088" lon="19.802333579991494"><ele>70.0</ele><time>2026-05-04T06:39:31Z</time></trkpt><trkpt lat="41.79254116672497" lon="19.802615063075617"><ele>68.0</ele><time>2026-05-04T06:39:32Z</time></trkpt><trkpt lat="41.792658478832514" lon="19.802912107173697"><ele>66.0</ele><time>2026-05-04T06:39:33Z</time></trkpt><trkpt lat="41.79274988199952" lon="19.803220454365665"><ele>77.0</ele><time>2026-05-04T06:39:34Z</time></trkpt><trkpt lat="41.79282150497489" lon="19.803532309193024"><ele>88.0</ele><time>2026-05-04T06:39:35Z</time></trkpt><trkpt lat="41.792865084553355" lon="19.80381924871556"><ele>88.0</ele><time>2026-05-04T06:39:36Z</time></trkpt><trkpt lat="41.792894333783046" lon="19.804077090643784"><ele>88.0</ele><time>2026-05-04T06:39:37Z</time></trkpt><trkpt lat="41.792904812945835" lon="19.80431860607881"><ele>88.0</ele><time>2026-05-04T06:39:38Z</time></trkpt><trkpt lat="41.792902875133386" lon="19.804553914410665"><ele>88.0</ele><time>2026-05-04T06:39:39Z</time></trkpt><trkpt lat="41.79289126325" lon="19.80480078270574"><ele>88.0</ele><time>2026-05-04T06:39:40Z</time></trkpt><trkpt lat="41.79287258453294" lon="19.80506824780418"><ele>88.0</ele><time>2026-05-04T06:39:41Z</time></trkpt><trkpt lat="41.792840909405015" lon="19.805370604984848"><ele>92.5</ele><time>2026-05-04T06:39:42Z</time></trkpt><trkpt lat="41.7928004814351" lon="19.8057007079526"><ele>97.0</ele><time>2026-05-04T06:39:43Z</time></trkpt><trkpt lat="41.792758668477205" lon="19.80603046219562"><ele>97.5</ele><time>2026-05-04T06:39:44Z</time></trkpt><trkpt lat="41.79271021736883" lon="19.806375679013453"><ele>98.0</ele><time>2026-05-04T06:39:45Z</time></trkpt><trkpt lat="41.792651962076" lon="19.806734202209228"><ele>81.0</ele><time>2026-05-04T06:39:46Z</time></trkpt><trkpt lat="41.792595255423564" lon="19.80709821003973"><ele>64.0</ele><time>2026-05-04T06:39:47Z</time></trkpt><trkpt lat="41.79254681369221" lon="19.8074590356493"><ele>67.0</ele><time>2026-05-04T06:39:48Z</time></trkpt><trkpt lat="41.792504305452866" lon="19.807815819262785"><ele>70.0</ele><time>2026-05-04T06:39:49Z</time></trkpt><trkpt lat="41.79246223358853" lon="19.80817022179857"><ele>75.0</ele><time>2026-05-04T06:39:50Z</time></trkpt><trkpt lat="41.79241801275484" lon="19.808518978484983"><ele>80.0</ele><time>2026-05-04T06:39:51Z</time></trkpt><trkpt lat="41.792374717997994" lon="19.808862785383194"><ele>80.0</ele><time>2026-05-04T06:39:52Z</time></trkpt><trkpt lat="41.79233573156489" lon="19.809202809564294"><ele>80.0</ele><time>2026-05-04T06:39:53Z</time></trkpt><trkpt lat="41.79231596721844" lon="19.80953679684272"><ele>80.5</ele><time>2026-05-04T06:39:54Z</time></trkpt><trkpt lat="41.792317604458574" lon="19.80987009900951"><ele>81.0</ele><time>2026-05-04T06:39:54.999Z</time></trkpt><trkpt lat="41.79234432488258" lon="19.810202512437307"><ele>81.0</ele><time>2026-05-04T06:39:55.999Z</time></trkpt><trkpt lat="41.792392476935866" lon="19.810527991615636"><ele>81.0</ele><time>2026-05-04T06:39:56.999Z</time></trkpt><trkpt lat="41.79245043968342" lon="19.81085189636648"><ele>77.0</ele><time>2026-05-04T06:39:57.999Z</time></trkpt><trkpt lat="41.792507254713506" lon="19.811178982324925"><ele>73.0</ele><time>2026-05-04T06:39:58.999Z</time></trkpt><trkpt lat="41.79255129276393" lon="19.811510518327566"><ele>73.5</ele><time>2026-05-04T06:39:59.999Z</time></trkpt><trkpt lat="41.79257997652752" lon="19.811848049174092"><ele>74.0</ele><time>2026-05-04T06:40:00.999Z</time></trkpt><trkpt lat="41.79258264472933" lon="19.81219239722515"><ele>74.0</ele><time>2026-05-04T06:40:01.999Z</time></trkpt><trkpt lat="41.79256390656201" lon="19.8125344269376"><ele>74.0</ele><time>2026-05-04T06:40:02.999Z</time></trkpt><trkpt lat="41.79251163641645" lon="19.812869859970114"><ele>73.5</ele><time>2026-05-04T06:40:03.999Z</time></trkpt><trkpt lat="41.79242776152068" lon="19.81318539100303"><ele>73.0</ele><time>2026-05-04T06:40:04.999Z</time></trkpt><trkpt lat="41.792314866741556" lon="19.813487609826343"><ele>77.0</ele><time>2026-05-04T06:40:05.999Z</time></trkpt><trkpt lat="41.79217760815441" lon="19.813781832692282"><ele>81.0</ele><time>2026-05-04T06:40:06.999Z</time></trkpt><trkpt lat="41.792020252292886" lon="19.814050969982247"><ele>81.0</ele><time>2026-05-04T06:40:07.999Z</time></trkpt><trkpt lat="41.79184874683006" lon="19.814308896650324"><ele>81.0</ele><time>2026-05-04T06:40:08.999Z</time></trkpt><trkpt lat="41.79166398899923" lon="19.814552285555628"><ele>81.5</ele><time>2026-05-04T06:40:09.999Z</time></trkpt><trkpt lat="41.79147347413435" lon="19.81478725455396"><ele>82.0</ele><time>2026-05-04T06:40:10.999Z</time></trkpt><trkpt lat="41.79128058338766" lon="19.815022688150375"><ele>81.0</ele><time>2026-05-04T06:40:11.999Z</time></trkpt><trkpt lat="41.791090940695206" lon="19.815260568169656"><ele>80.0</ele><time>2026-05-04T06:40:12.999Z</time></trkpt><trkpt lat="41.79089973599306" lon="19.815498834798543"><ele>80.0</ele><time>2026-05-04T06:40:13.999Z</time></trkpt><trkpt lat="41.790706495237906" lon="19.81573273873046"><ele>80.0</ele><time>2026-05-04T06:40:14.999Z</time></trkpt><trkpt lat="41.790513611619964" lon="19.815961689728486"><ele>80.5</ele><time>2026-05-04T06:40:15.999Z</time></trkpt><trkpt lat="41.79031904044036" lon="19.816186355550094"><ele>81.0</ele><time>2026-05-04T06:40:16.999Z</time></trkpt><trkpt lat="41.79012283673248" lon="19.816410458427438"><ele>79.0</ele><time>2026-05-04T06:40:17.999Z</time></trkpt><trkpt lat="41.78993130933694" lon="19.816632769628693"><ele>77.0</ele><time>2026-05-04T06:40:18.999Z</time></trkpt><trkpt lat="41.789745243583766" lon="19.816857062977476"><ele>77.0</ele><time>2026-05-04T06:40:19.999Z</time></trkpt><trkpt lat="41.78956845370018" lon="19.817062190253232"><ele>77.0</ele><time>2026-05-04T06:40:20.999Z</time></trkpt><trkpt lat="41.78939619548204" lon="19.817247735797448"><ele>79.0</ele><time>2026-05-04T06:40:21.999Z</time></trkpt><trkpt lat="41.78922250880378" lon="19.81741487289146"><ele>81.0</ele><time>2026-05-04T06:40:22.999Z</time></trkpt><trkpt lat="41.78904475491449" lon="19.81757053038385"><ele>83.0</ele><time>2026-05-04T06:40:23.999Z</time></trkpt><trkpt lat="41.788861677003574" lon="19.8177232860457"><ele>83.0</ele><time>2026-05-04T06:40:24.999Z</time></trkpt><trkpt lat="41.78867311074271" lon="19.8178712868707"><ele>83.0</ele><time>2026-05-04T06:40:25.999Z</time></trkpt><trkpt lat="41.788480748489974" lon="19.818023177643788"><ele>83.0</ele><time>2026-05-04T06:40:26.999Z</time></trkpt><trkpt lat="41.7882846410166" lon="19.818181302112933"><ele>83.0</ele><time>2026-05-04T06:40:27.999Z</time></trkpt><trkpt lat="41.78808809231564" lon="19.818338735520282"><ele>83.0</ele><time>2026-05-04T06:40:28.999Z</time></trkpt><trkpt lat="41.787889988214594" lon="19.81850131587374"><ele>83.0</ele><time>2026-05-04T06:40:30Z</time></trkpt><trkpt lat="41.787691412654866" lon="19.81866616998945"><ele>83.0</ele><time>2026-05-04T06:40:31Z</time></trkpt><trkpt lat="41.787493078082775" lon="19.818827753406143"><ele>78.5</ele><time>2026-05-04T06:40:32Z</time></trkpt><trkpt lat="41.787292349147776" lon="19.8189911084495"><ele>74.0</ele><time>2026-05-04T06:40:33Z</time></trkpt><trkpt lat="41.78709078214605" lon="19.819150729691643"><ele>74.0</ele><time>2026-05-04T06:40:34Z</time></trkpt><trkpt lat="41.78688474502638" lon="19.81931574704663"><ele>74.0</ele><time>2026-05-04T06:40:35Z</time></trkpt><trkpt lat="41.78667833916002" lon="19.819477293615194"><ele>74.0</ele><time>2026-05-04T06:40:36Z</time></trkpt><trkpt lat="41.786469425104364" lon="19.81964282628817"><ele>74.0</ele><time>2026-05-04T06:40:37Z</time></trkpt><trkpt lat="41.78626272617767" lon="19.819809660492172"><ele>74.0</ele><time>2026-05-04T06:40:38Z</time></trkpt><trkpt lat="41.786053970956196" lon="19.819978078524148"><ele>74.0</ele><time>2026-05-04T06:40:39Z</time></trkpt><trkpt lat="41.78584313840135" lon="19.820144403315823"><ele>75.0</ele><time>2026-05-04T06:40:40Z</time></trkpt><trkpt lat="41.785632972817396" lon="19.82031197369098"><ele>76.0</ele><time>2026-05-04T06:40:41Z</time></trkpt><trkpt lat="41.78542461533317" lon="19.820486471031277"><ele>76.0</ele><time>2026-05-04T06:40:42Z</time></trkpt><trkpt lat="41.78522338170546" lon="19.82066715216375"><ele>76.0</ele><time>2026-05-04T06:40:43Z</time></trkpt><trkpt lat="41.78502807610537" lon="19.820859687611566"><ele>78.5</ele><time>2026-05-04T06:40:44Z</time></trkpt><trkpt lat="41.784844550440624" lon="19.821070154930318"><ele>81.0</ele><time>2026-05-04T06:40:45Z</time></trkpt><trkpt lat="41.78467505030649" lon="19.821296387502933"><ele>81.0</ele><time>2026-05-04T06:40:46Z</time></trkpt><trkpt lat="41.78451501414709" lon="19.821532102008675"><ele>81.0</ele><time>2026-05-04T06:40:47Z</time></trkpt><trkpt lat="41.78436984675042" lon="19.82178351624294"><ele>79.5</ele><time>2026-05-04T06:40:48Z</time></trkpt><trkpt lat="41.78422980274975" lon="19.822042602585018"><ele>78.0</ele><time>2026-05-04T06:40:49Z</time></trkpt><trkpt lat="41.78410426117878" lon="19.822312471080224"><ele>78.0</ele><time>2026-05-04T06:40:50Z</time></trkpt><trkpt lat="41.783987074732735" lon="19.822589815414617"><ele>78.0</ele><time>2026-05-04T06:40:51Z</time></trkpt><trkpt lat="41.78387383349949" lon="19.822868346754664"><ele>79.5</ele><time>2026-05-04T06:40:52Z</time></trkpt><trkpt lat="41.78376273016209" lon="19.823144628020092"><ele>81.0</ele><time>2026-05-04T06:40:53Z</time></trkpt><trkpt lat="41.78365031845218" lon="19.823422879649854"><ele>78.0</ele><time>2026-05-04T06:40:54Z</time></trkpt><trkpt lat="41.78353713579898" lon="19.82369867505302"><ele>75.0</ele><time>2026-05-04T06:40:55Z</time></trkpt><trkpt lat="41.78341691700577" lon="19.823974488181562"><ele>75.0</ele><time>2026-05-04T06:40:56Z</time></trkpt><trkpt lat="41.78329480937801" lon="19.824246865511224"><ele>75.0</ele><time>2026-05-04T06:40:57Z</time></trkpt><trkpt lat="41.78317571636055" lon="19.824519259283406"><ele>80.0</ele><time>2026-05-04T06:40:58Z</time></trkpt><trkpt lat="41.783057068943236" lon="19.824800732057334"><ele>85.0</ele><time>2026-05-04T06:40:59Z</time></trkpt><trkpt lat="41.782943688396244" lon="19.825083603713537"><ele>91.5</ele><time>2026-05-04T06:41:00Z</time></trkpt><trkpt lat="41.782827428213366" lon="19.825369124716474"><ele>98.0</ele><time>2026-05-04T06:41:01Z</time></trkpt><trkpt lat="41.78270286721279" lon="19.825666539164978"><ele>89.0</ele><time>2026-05-04T06:41:02Z</time></trkpt><trkpt lat="41.782570979546556" lon="19.825980272045882"><ele>80.0</ele><time>2026-05-04T06:41:03Z</time></trkpt><trkpt lat="41.782435738778645" lon="19.826294771839393"><ele>80.0</ele><time>2026-05-04T06:41:04Z</time></trkpt><trkpt lat="41.78230607101446" lon="19.82660088682017"><ele>80.0</ele><time>2026-05-04T06:41:05Z</time></trkpt><trkpt lat="41.78218152481768" lon="19.826911636212365"><ele>90.5</ele><time>2026-05-04T06:41:06Z</time></trkpt><trkpt lat="41.78206627726935" lon="19.827227123370868"><ele>101.0</ele><time>2026-05-04T06:41:07Z</time></trkpt><trkpt lat="41.78196569363745" lon="19.827548709854547"><ele>110.0</ele><time>2026-05-04T06:41:08Z</time></trkpt><trkpt lat="41.78187962682991" lon="19.82787079639544"><ele>119.0</ele><time>2026-05-04T06:41:09Z</time></trkpt><trkpt lat="41.78181092605646" lon="19.828203028256972"><ele>100.5</ele><time>2026-05-04T06:41:10Z</time></trkpt><trkpt lat="41.781754104335846" lon="19.828537461910425"><ele>82.0</ele><time>2026-05-04T06:41:11Z</time></trkpt><trkpt lat="41.78170996030144" lon="19.828880500157123"><ele>82.0</ele><time>2026-05-04T06:41:12Z</time></trkpt><trkpt lat="41.781675762322145" lon="19.829226993867678"><ele>82.0</ele><time>2026-05-04T06:41:13Z</time></trkpt><trkpt lat="41.781644212874134" lon="19.829573508316034"><ele>82.5</ele><time>2026-05-04T06:41:14Z</time></trkpt><trkpt lat="41.78160993553453" lon="19.82992013277242"><ele>83.0</ele><time>2026-05-04T06:41:15Z</time></trkpt><trkpt lat="41.78157442731024" lon="19.8302688532501"><ele>86.5</ele><time>2026-05-04T06:41:16Z</time></trkpt><trkpt lat="41.78154284059254" lon="19.830620549562358"><ele>90.0</ele><time>2026-05-04T06:41:17Z</time></trkpt><trkpt lat="41.781511162921056" lon="19.830970770087447"><ele>95.5</ele><time>2026-05-04T06:41:18Z</time></trkpt><trkpt lat="41.78147727631439" lon="19.831323521430562"><ele>101.0</ele><time>2026-05-04T06:41:19Z</time></trkpt><trkpt lat="41.781442135405506" lon="19.831674340309092"><ele>102.5</ele><time>2026-05-04T06:41:20Z</time></trkpt><trkpt lat="41.78140613003674" lon="19.832023026556804"><ele>104.0</ele><time>2026-05-04T06:41:21Z</time></trkpt><trkpt lat="41.78137131472165" lon="19.83237446425123"><ele>104.5</ele><time>2026-05-04T06:41:22Z</time></trkpt><trkpt lat="41.781335947045065" lon="19.83272535600437"><ele>105.0</ele><time>2026-05-04T06:41:23Z</time></trkpt><trkpt lat="41.78130118929535" lon="19.83307660029055"><ele>105.0</ele><time>2026-05-04T06:41:24Z</time></trkpt><trkpt lat="41.781266309879605" lon="19.83342704549783"><ele>105.0</ele><time>2026-05-04T06:41:25Z</time></trkpt><trkpt lat="41.781230999758705" lon="19.833776701587293"><ele>106.0</ele><time>2026-05-04T06:41:26Z</time></trkpt><trkpt lat="41.78119715726322" lon="19.834129426450232"><ele>107.0</ele><time>2026-05-04T06:41:27Z</time></trkpt><trkpt lat="41.78116359047707" lon="19.834481935051638"><ele>103.0</ele><time>2026-05-04T06:41:28Z</time></trkpt><trkpt lat="41.78112985469757" lon="19.83483189944304"><ele>99.0</ele><time>2026-05-04T06:41:29Z</time></trkpt><trkpt lat="41.781096159034036" lon="19.835180389538092"><ele>96.0</ele><time>2026-05-04T06:41:30Z</time></trkpt><trkpt lat="41.78106212337803" lon="19.83552735500727"><ele>93.0</ele><time>2026-05-04T06:41:31Z</time></trkpt><trkpt lat="41.781026600996285" lon="19.835871079885067"><ele>87.0</ele><time>2026-05-04T06:41:32Z</time></trkpt><trkpt lat="41.78099282188203" lon="19.83621527829904"><ele>81.0</ele><time>2026-05-04T06:41:33Z</time></trkpt><trkpt lat="41.780959905489425" lon="19.836558104072004"><ele>81.5</ele><time>2026-05-04T06:41:34Z</time></trkpt><trkpt lat="41.78092782301585" lon="19.836895320260545"><ele>82.0</ele><time>2026-05-04T06:41:35Z</time></trkpt><trkpt lat="41.78089113803113" lon="19.837227277004587"><ele>82.0</ele><time>2026-05-04T06:41:36Z</time></trkpt><trkpt lat="41.780859216830564" lon="19.837583954960653"><ele>82.0</ele><time>2026-05-04T06:41:37Z</time></trkpt><trkpt lat="41.780825923879576" lon="19.83792152427911"><ele>82.0</ele><time>2026-05-04T06:41:38Z</time></trkpt><trkpt lat="41.78079894419973" lon="19.838263075350454"><ele>82.0</ele><time>2026-05-04T06:41:39Z</time></trkpt><trkpt lat="41.780775732489" lon="19.838607563433328"><ele>82.0</ele><time>2026-05-04T06:41:40Z</time></trkpt><trkpt lat="41.78077402854916" lon="19.838949291176704"><ele>82.0</ele><time>2026-05-04T06:41:41Z</time></trkpt><trkpt lat="41.78079490410945" lon="19.839289022799104"><ele>80.0</ele><time>2026-05-04T06:41:42Z</time></trkpt><trkpt lat="41.78083002960096" lon="19.839627500018555"><ele>78.0</ele><time>2026-05-04T06:41:43Z</time></trkpt><trkpt lat="41.78087385690524" lon="19.83996323242646"><ele>78.5</ele><time>2026-05-04T06:41:44Z</time></trkpt><trkpt lat="41.78092039699058" lon="19.84029894670404"><ele>79.0</ele><time>2026-05-04T06:41:45Z</time></trkpt><trkpt lat="41.78096789947899" lon="19.84064386285959"><ele>79.0</ele><time>2026-05-04T06:41:46Z</time></trkpt><trkpt lat="41.78100612609984" lon="19.84098543942969"><ele>79.0</ele><time>2026-05-04T06:41:47Z</time></trkpt><trkpt lat="41.78104686386494" lon="19.841330970946522"><ele>96.0</ele><time>2026-05-04T06:41:48Z</time></trkpt><trkpt lat="41.78108211500688" lon="19.841681305217094"><ele>113.0</ele><time>2026-05-04T06:41:49Z</time></trkpt><trkpt lat="41.7811176824712" lon="19.842022746456504"><ele>113.0</ele><time>2026-05-04T06:41:50Z</time></trkpt><trkpt lat="41.78114101271754" lon="19.842371138789964"><ele>113.0</ele><time>2026-05-04T06:41:51Z</time></trkpt><trkpt lat="41.7811630311933" lon="19.84272318461922"><ele>108.0</ele><time>2026-05-04T06:41:52Z</time></trkpt><trkpt lat="41.78117233508076" lon="19.8430749593334"><ele>103.0</ele><time>2026-05-04T06:41:53Z</time></trkpt><trkpt lat="41.78117436224265" lon="19.843422079482593"><ele>94.0</ele><time>2026-05-04T06:41:54Z</time></trkpt><trkpt lat="41.78116561636456" lon="19.843778647867897"><ele>85.0</ele><time>2026-05-04T06:41:55Z</time></trkpt><trkpt lat="41.781147836635704" lon="19.844129118517174"><ele>79.5</ele><time>2026-05-04T06:41:56Z</time></trkpt><trkpt lat="41.78112063319251" lon="19.844478405060386"><ele>74.0</ele><time>2026-05-04T06:41:57Z</time></trkpt><trkpt lat="41.78108860142197" lon="19.844827272320277"><ele>74.0</ele><time>2026-05-04T06:41:58Z</time></trkpt><trkpt lat="41.781051298552164" lon="19.845169518157356"><ele>74.0</ele><time>2026-05-04T06:41:59Z</time></trkpt><trkpt lat="41.78101922192724" lon="19.84551440483152"><ele>75.0</ele><time>2026-05-04T06:42:00Z</time></trkpt><trkpt lat="41.78098520338151" lon="19.845855786107574"><ele>76.0</ele><time>2026-05-04T06:42:01Z</time></trkpt><trkpt lat="41.78095325414956" lon="19.846200880249167"><ele>78.0</ele><time>2026-05-04T06:42:02Z</time></trkpt><trkpt lat="41.78091834851776" lon="19.846544469149453"><ele>80.0</ele><time>2026-05-04T06:42:03Z</time></trkpt><trkpt lat="41.780881930568384" lon="19.846899193200812"><ele>80.0</ele><time>2026-05-04T06:42:04Z</time></trkpt><trkpt lat="41.7808420772033" lon="19.847256500555407"><ele>80.0</ele><time>2026-05-04T06:42:04.999Z</time></trkpt><trkpt lat="41.78080273732678" lon="19.847617828163095"><ele>81.5</ele><time>2026-05-04T06:42:05.999Z</time></trkpt><trkpt lat="41.78076601502288" lon="19.847978183411303"><ele>83.0</ele><time>2026-05-04T06:42:06.999Z</time></trkpt><trkpt lat="41.780736086408496" lon="19.848343496231497"><ele>84.0</ele><time>2026-05-04T06:42:07.999Z</time></trkpt><trkpt lat="41.78071262051139" lon="19.84871014940607"><ele>85.0</ele><time>2026-05-04T06:42:08.999Z</time></trkpt><trkpt lat="41.780700780984574" lon="19.849078496222614"><ele>85.0</ele><time>2026-05-04T06:42:09.999Z</time></trkpt><trkpt lat="41.780696279921294" lon="19.849450628369308"><ele>85.0</ele><time>2026-05-04T06:42:10.999Z</time></trkpt><trkpt lat="41.780697686639215" lon="19.84982302866099"><ele>80.5</ele><time>2026-05-04T06:42:11.999Z</time></trkpt><trkpt lat="41.78070450020706" lon="19.850194500922715"><ele>76.0</ele><time>2026-05-04T06:42:12.999Z</time></trkpt><trkpt lat="41.78071434682423" lon="19.850565952765155"><ele>76.0</ele><time>2026-05-04T06:42:13.999Z</time></trkpt><trkpt lat="41.78072786040712" lon="19.850936565131214"><ele>76.0</ele><time>2026-05-04T06:42:14.999Z</time></trkpt><trkpt lat="41.7807463098485" lon="19.85130499866808"><ele>76.0</ele><time>2026-05-04T06:42:15.999Z</time></trkpt><trkpt lat="41.78076761268897" lon="19.85167363937046"><ele>76.0</ele><time>2026-05-04T06:42:16.999Z</time></trkpt><trkpt lat="41.78079285234419" lon="19.852040377184398"><ele>76.0</ele><time>2026-05-04T06:42:17.999Z</time></trkpt><trkpt lat="41.78082336927274" lon="19.85240709356336"><ele>76.0</ele><time>2026-05-04T06:42:18.999Z</time></trkpt><trkpt lat="41.780852826604054" lon="19.852770296939582"><ele>77.5</ele><time>2026-05-04T06:42:19.999Z</time></trkpt><trkpt lat="41.78087993896658" lon="19.853134878291574"><ele>79.0</ele><time>2026-05-04T06:42:20.999Z</time></trkpt><trkpt lat="41.7809062197565" lon="19.853497629183323"><ele>80.5</ele><time>2026-05-04T06:42:21.999Z</time></trkpt><trkpt lat="41.78093240765397" lon="19.85386106120854"><ele>82.0</ele><time>2026-05-04T06:42:22.999Z</time></trkpt><trkpt lat="41.7809570707876" lon="19.854217743578396"><ele>80.5</ele><time>2026-05-04T06:42:23.999Z</time></trkpt><trkpt lat="41.780982294018635" lon="19.854567449885835"><ele>79.0</ele><time>2026-05-04T06:42:24.999Z</time></trkpt><trkpt lat="41.78100971957318" lon="19.85490833291378"><ele>80.0</ele><time>2026-05-04T06:42:25.999Z</time></trkpt><trkpt lat="41.78104175136085" lon="19.855241824547846"><ele>81.0</ele><time>2026-05-04T06:42:26.999Z</time></trkpt><trkpt lat="41.781081504506744" lon="19.855571782489186"><ele>81.0</ele><time>2026-05-04T06:42:27.999Z</time></trkpt><trkpt lat="41.78113349197596" lon="19.855895474455366"><ele>81.0</ele><time>2026-05-04T06:42:28.999Z</time></trkpt><trkpt lat="41.78119063647285" lon="19.85621411436616"><ele>78.0</ele><time>2026-05-04T06:42:29.999Z</time></trkpt><trkpt lat="41.78125568243918" lon="19.85653178593398"><ele>75.0</ele><time>2026-05-04T06:42:30.999Z</time></trkpt><trkpt lat="41.78132210354443" lon="19.856843728682712"><ele>74.5</ele><time>2026-05-04T06:42:31.999Z</time></trkpt><trkpt lat="41.78139627222608" lon="19.857153055191006"><ele>74.0</ele><time>2026-05-04T06:42:32.999Z</time></trkpt><trkpt lat="41.78147688070888" lon="19.85745730872016"><ele>77.0</ele><time>2026-05-04T06:42:33.999Z</time></trkpt><trkpt lat="41.781563744329404" lon="19.857755939688843"><ele>80.0</ele><time>2026-05-04T06:42:35Z</time></trkpt><trkpt lat="41.7816541485062" lon="19.85804159927485"><ele>80.0</ele><time>2026-05-04T06:42:36Z</time></trkpt><trkpt lat="41.78175347760718" lon="19.85832531222023"><ele>80.0</ele><time>2026-05-04T06:42:37Z</time></trkpt><trkpt lat="41.781853941136866" lon="19.85860654622221"><ele>85.0</ele><time>2026-05-04T06:42:38Z</time></trkpt><trkpt lat="41.78195617362346" lon="19.85888996421834"><ele>90.0</ele><time>2026-05-04T06:42:39Z</time></trkpt><trkpt lat="41.782061116185616" lon="19.859174485712067"><ele>96.0</ele><time>2026-05-04T06:42:40Z</time></trkpt><trkpt lat="41.78216389829155" lon="19.85945373798523"><ele>102.0</ele><time>2026-05-04T06:42:41Z</time></trkpt><trkpt lat="41.78226765077043" lon="19.85973340817804"><ele>102.0</ele><time>2026-05-04T06:42:42Z</time></trkpt><trkpt lat="41.782370944924594" lon="19.860012846404988"><ele>102.0</ele><time>2026-05-04T06:42:43Z</time></trkpt><trkpt lat="41.782469325665645" lon="19.86028114806095"><ele>106.0</ele><time>2026-05-04T06:42:44Z</time></trkpt><trkpt lat="41.78256738011001" lon="19.86054640853697"><ele>110.0</ele><time>2026-05-04T06:42:45Z</time></trkpt><trkpt lat="41.78266303541961" lon="19.86080656663934"><ele>114.0</ele><time>2026-05-04T06:42:46Z</time></trkpt><trkpt lat="41.78275799638865" lon="19.861065681004632"><ele>115.33333333333334</ele><time>2026-05-04T06:42:47Z</time></trkpt><trkpt lat="41.782850844847204" lon="19.861331400669858"><ele>116.66666666666667</ele><time>2026-05-04T06:42:48Z</time></trkpt><trkpt lat="41.78294098906459" lon="19.861603004855024"><ele>118.0</ele><time>2026-05-04T06:42:49Z</time></trkpt><trkpt lat="41.78303119253364" lon="19.86187853926409"><ele>119.66666666666667</ele><time>2026-05-04T06:42:50Z</time></trkpt><trkpt lat="41.78312054709419" lon="19.862145767528283"><ele>121.33333333333334</ele><time>2026-05-04T06:42:51Z</time></trkpt><trkpt lat="41.783207128049106" lon="19.862406340507576"><ele>123.0</ele><time>2026-05-04T06:42:52Z</time></trkpt><trkpt lat="41.78328965255261" lon="19.86266415918426"><ele>123.0</ele><time>2026-05-04T06:42:53Z</time></trkpt><trkpt lat="41.78336535138719" lon="19.86291906660028"><ele>123.0</ele><time>2026-05-04T06:42:54Z</time></trkpt><trkpt lat="41.78343688834998" lon="19.863176313124487"><ele>123.0</ele><time>2026-05-04T06:42:55Z</time></trkpt><trkpt lat="41.78351274356942" lon="19.86343159596363"><ele>124.66666666666666</ele><time>2026-05-04T06:42:56Z</time></trkpt><trkpt lat="41.7835862224201" lon="19.863677791218898"><ele>126.33333333333333</ele><time>2026-05-04T06:42:57Z</time></trkpt><trkpt lat="41.78366294810984" lon="19.863917975937053"><ele>128.0</ele><time>2026-05-04T06:42:58Z</time></trkpt><trkpt lat="41.78373687307685" lon="19.864148990474796"><ele>127.33333333333333</ele><time>2026-05-04T06:42:59Z</time></trkpt><trkpt lat="41.783807615038306" lon="19.86437146773411"><ele>126.66666666666666</ele><time>2026-05-04T06:43:00Z</time></trkpt><trkpt lat="41.78386768313187" lon="19.86457085226943"><ele>126.0</ele><time>2026-05-04T06:43:01Z</time></trkpt><trkpt lat="41.783908833031035" lon="19.86472076761963"><ele>126.0</ele><time>2026-05-04T06:43:02Z</time></trkpt><trkpt lat="41.78393680677783" lon="19.864821346599896"><ele>126.0</ele><time>2026-05-04T06:43:03Z</time></trkpt><trkpt lat="41.783962393700776" lon="19.86490708904364"><ele>126.0</ele><time>2026-05-04T06:43:05.999Z</time></trkpt><trkpt lat="41.784002511044264" lon="19.864986398119957"><ele>126.0</ele><time>2026-05-04T06:43:09.999Z</time></trkpt><trkpt lat="41.784106706656765" lon="19.864995427616186"><ele>126.0</ele><time>2026-05-04T06:43:11.999Z</time></trkpt><trkpt lat="41.784234408395356" lon="19.864923808964882"><ele>127.0</ele><time>2026-05-04T06:43:12.999Z</time></trkpt><trkpt lat="41.784356394270326" lon="19.864866745093334"><ele>128.0</ele><time>2026-05-04T06:43:13.999Z</time></trkpt><trkpt lat="41.78445721554156" lon="19.86482939048087"><ele>129.0</ele><time>2026-05-04T06:43:14.999Z</time></trkpt><trkpt lat="41.78454120021703" lon="19.86480133659151"><ele>130.0</ele><time>2026-05-04T06:43:15.999Z</time></trkpt><trkpt lat="41.784618320215806" lon="19.864769509796698"><ele>131.0</ele><time>2026-05-04T06:43:16.999Z</time></trkpt><trkpt lat="41.78468269847838" lon="19.86474070929379"><ele>131.0</ele><time>2026-05-04T06:43:17.999Z</time></trkpt><trkpt lat="41.784786489156744" lon="19.864698285447343"><ele>131.0</ele><time>2026-05-04T06:43:19.999Z</time></trkpt><trkpt lat="41.784912165748835" lon="19.864642377385305"><ele>131.0</ele><time>2026-05-04T06:43:21.999Z</time></trkpt><trkpt lat="41.78498883954191" lon="19.864614249619947"><ele>131.0</ele><time>2026-05-04T06:43:22.999Z</time></trkpt><trkpt lat="41.78506598815554" lon="19.864580489252564"><ele>131.0</ele><time>2026-05-04T06:43:23.999Z</time></trkpt><trkpt lat="41.78514579319919" lon="19.86454452263473"><ele>132.2</ele><time>2026-05-04T06:43:24.999Z</time></trkpt><trkpt lat="41.78523659613933" lon="19.864514564343672"><ele>133.39999999999998</ele><time>2026-05-04T06:43:25.999Z</time></trkpt><trkpt lat="41.785335830479085" lon="19.864489579446875"><ele>134.6</ele><time>2026-05-04T06:43:26.999Z</time></trkpt><trkpt lat="41.78543262004654" lon="19.864465167096224"><ele>135.79999999999998</ele><time>2026-05-04T06:43:27.999Z</time></trkpt><trkpt lat="41.785529366034865" lon="19.864439419015884"><ele>137.0</ele><time>2026-05-04T06:43:28.999Z</time></trkpt><trkpt lat="41.785632998201045" lon="19.86441324931846"><ele>137.0</ele><time>2026-05-04T06:43:29.999Z</time></trkpt><trkpt lat="41.78574012131304" lon="19.864379937026257"><ele>137.0</ele><time>2026-05-04T06:43:30.999Z</time></trkpt><trkpt lat="41.78584765617956" lon="19.864345910443983"><ele>137.0</ele><time>2026-05-04T06:43:31.999Z</time></trkpt><trkpt lat="41.78595108706652" lon="19.864322328312774"><ele>137.0</ele><time>2026-05-04T06:43:32.999Z</time></trkpt><trkpt lat="41.78605202477172" lon="19.86432755562866"><ele>137.0</ele><time>2026-05-04T06:43:33.999Z</time></trkpt><trkpt lat="41.78614627849421" lon="19.864383958423762"><ele>139.0</ele><time>2026-05-04T06:43:34.999Z</time></trkpt><trkpt lat="41.786230743153965" lon="19.864489910153424"><ele>141.0</ele><time>2026-05-04T06:43:35.999Z</time></trkpt><trkpt lat="41.78631063452828" lon="19.8645972768987"><ele>143.0</ele><time>2026-05-04T06:43:36.999Z</time></trkpt><trkpt lat="41.78638355227409" lon="19.8646902718023"><ele>145.0</ele><time>2026-05-04T06:43:37.999Z</time></trkpt><trkpt lat="41.78645799849217" lon="19.864759087393217"><ele>147.0</ele><time>2026-05-04T06:43:39.999Z</time></trkpt><trkpt lat="41.78651614957057" lon="19.86481002419752"><ele>147.0</ele><time>2026-05-04T06:46:18.999Z</time></trkpt><trkpt lat="41.78655161299537" lon="19.864893253121323"><ele>147.0</ele><time>2026-05-04T06:46:19.999Z</time></trkpt><trkpt lat="41.78655707572999" lon="19.865002937539238"><ele>147.0</ele><time>2026-05-04T06:46:20.999Z</time></trkpt><trkpt lat="41.786546101096214" lon="19.865120673945906"><ele>147.0</ele><time>2026-05-04T06:46:21.999Z</time></trkpt><trkpt lat="41.78653085888518" lon="19.865225957351907"><ele>147.0</ele><time>2026-05-04T06:46:22.999Z</time></trkpt><trkpt lat="41.78653863097587" lon="19.865338868866427"><ele>147.0</ele><time>2026-05-04T06:46:23.999Z</time></trkpt><trkpt lat="41.786577647501474" lon="19.865455410649865"><ele>146.25</ele><time>2026-05-04T06:46:24.999Z</time></trkpt><trkpt lat="41.786656764366796" lon="19.86557232913152"><ele>145.5</ele><time>2026-05-04T06:46:25.999Z</time></trkpt><trkpt lat="41.78676915868985" lon="19.865673179931992"><ele>144.75</ele><time>2026-05-04T06:46:26.999Z</time></trkpt><trkpt lat="41.78689426568414" lon="19.865777472521582"><ele>144.0</ele><time>2026-05-04T06:46:27.999Z</time></trkpt><trkpt lat="41.78701998445875" lon="19.86588624108751"><ele>144.0</ele><time>2026-05-04T06:46:28.999Z</time></trkpt><trkpt lat="41.787151984301325" lon="19.86600083848328"><ele>144.0</ele><time>2026-05-04T06:46:29.999Z</time></trkpt><trkpt lat="41.78728863861964" lon="19.86612580014558"><ele>144.0</ele><time>2026-05-04T06:46:30.999Z</time></trkpt><trkpt lat="41.78743048747037" lon="19.86624354265891"><ele>144.0</ele><time>2026-05-04T06:46:31.999Z</time></trkpt><trkpt lat="41.787581868444654" lon="19.866348810823585"><ele>144.0</ele><time>2026-05-04T06:46:32.999Z</time></trkpt><trkpt lat="41.7877408806869" lon="19.866440663471792"><ele>144.0</ele><time>2026-05-04T06:46:33.999Z</time></trkpt><trkpt lat="41.78790043679433" lon="19.866520406815027"><ele>145.5</ele><time>2026-05-04T06:46:34.999Z</time></trkpt><trkpt lat="41.78803287348684" lon="19.86659776340599"><ele>147.0</ele><time>2026-05-04T06:46:35.999Z</time></trkpt><trkpt lat="41.78813365789726" lon="19.866674174047166"><ele>148.5</ele><time>2026-05-04T06:46:36.999Z</time></trkpt><trkpt lat="41.788213312798796" lon="19.866762788603573"><ele>150.0</ele><time>2026-05-04T06:46:37.999Z</time></trkpt><trkpt lat="41.78827275436276" lon="19.866884615045223"><ele>150.0</ele><time>2026-05-04T06:46:38.999Z</time></trkpt><trkpt lat="41.788314565842754" lon="19.867049570034258"><ele>150.0</ele><time>2026-05-04T06:46:39.999Z</time></trkpt><trkpt lat="41.78833124096076" lon="19.86726210380007"><ele>150.0</ele><time>2026-05-04T06:46:40.999Z</time></trkpt><trkpt lat="41.788320921992266" lon="19.867503225007166"><ele>152.66666666666666</ele><time>2026-05-04T06:46:41.999Z</time></trkpt><trkpt lat="41.78829353187402" lon="19.867768047320176"><ele>155.33333333333331</ele><time>2026-05-04T06:46:42.999Z</time></trkpt><trkpt lat="41.78826229162613" lon="19.868037603446414"><ele>158.0</ele><time>2026-05-04T06:46:43.999Z</time></trkpt><trkpt lat="41.78823266674387" lon="19.868303601551634"><ele>159.0</ele><time>2026-05-04T06:46:45Z</time></trkpt><trkpt lat="41.78820565209748" lon="19.868552757126846"><ele>160.0</ele><time>2026-05-04T06:46:46Z</time></trkpt><trkpt lat="41.78818350729873" lon="19.868771235439866"><ele>161.0</ele><time>2026-05-04T06:46:47Z</time></trkpt><trkpt lat="41.78816447621969" lon="19.868972098950803"><ele>161.0</ele><time>2026-05-04T06:46:48Z</time></trkpt><trkpt lat="41.788150785109465" lon="19.86915814858607"><ele>161.0</ele><time>2026-05-04T06:46:49Z</time></trkpt><trkpt lat="41.788145879502906" lon="19.8693381414059"><ele>161.0</ele><time>2026-05-04T06:46:50Z</time></trkpt><trkpt lat="41.788148922675354" lon="19.869504914103793"><ele>161.0</ele><time>2026-05-04T06:46:51Z</time></trkpt><trkpt lat="41.788162142388025" lon="19.869658477437447"><ele>161.4</ele><time>2026-05-04T06:46:52Z</time></trkpt><trkpt lat="41.78817985836383" lon="19.86980154004875"><ele>161.8</ele><time>2026-05-04T06:46:53Z</time></trkpt><trkpt lat="41.78819563723475" lon="19.869930917412567"><ele>162.20000000000002</ele><time>2026-05-04T06:46:54Z</time></trkpt><trkpt lat="41.78822672584814" lon="19.870054112813616"><ele>162.60000000000002</ele><time>2026-05-04T06:46:55Z</time></trkpt><trkpt lat="41.78828105264488" lon="19.87017226216405"><ele>163.0</ele><time>2026-05-04T06:46:56Z</time></trkpt><trkpt lat="41.788352768765236" lon="19.870286473669108"><ele>163.0</ele><time>2026-05-04T06:46:57Z</time></trkpt><trkpt lat="41.788430043825855" lon="19.87039392120775"><ele>163.0</ele><time>2026-05-04T06:46:58Z</time></trkpt><trkpt lat="41.78852059410074" lon="19.870492141989853"><ele>163.0</ele><time>2026-05-04T06:46:59Z</time></trkpt><trkpt lat="41.78862266327128" lon="19.87056976867514"><ele>163.0</ele><time>2026-05-04T06:47:00Z</time></trkpt><trkpt lat="41.788739710765334" lon="19.87061828176885"><ele>163.5</ele><time>2026-05-04T06:47:01Z</time></trkpt><trkpt lat="41.788865175595504" lon="19.870667866979016"><ele>164.0</ele><time>2026-05-04T06:47:02Z</time></trkpt><trkpt lat="41.788993593102965" lon="19.870737724570642"><ele>164.5</ele><time>2026-05-04T06:47:03Z</time></trkpt><trkpt lat="41.78911705875966" lon="19.870839806175322"><ele>165.0</ele><time>2026-05-04T06:47:04Z</time></trkpt><trkpt lat="41.78923293309876" lon="19.870956817891962"><ele>167.25</ele><time>2026-05-04T06:47:05Z</time></trkpt><trkpt lat="41.78936080165782" lon="19.871046209421216"><ele>169.5</ele><time>2026-05-04T06:47:06Z</time></trkpt><trkpt lat="41.78950009830343" lon="19.87109063749078"><ele>171.75</ele><time>2026-05-04T06:47:07Z</time></trkpt><trkpt lat="41.78964657163865" lon="19.87107192978868"><ele>174.0</ele><time>2026-05-04T06:47:08Z</time></trkpt><trkpt lat="41.789789836782155" lon="19.871023921064282"><ele>174.0</ele><time>2026-05-04T06:47:09Z</time></trkpt><trkpt lat="41.789938728242205" lon="19.87095432417661"><ele>174.0</ele><time>2026-05-04T06:47:10Z</time></trkpt><trkpt lat="41.790095763663835" lon="19.870884401530738"><ele>174.0</ele><time>2026-05-04T06:47:11Z</time></trkpt><trkpt lat="41.79024563020521" lon="19.8708273428732"><ele>178.0</ele><time>2026-05-04T06:47:12Z</time></trkpt><trkpt lat="41.790376443061106" lon="19.870799736502207"><ele>182.0</ele><time>2026-05-04T06:47:13Z</time></trkpt><trkpt lat="41.79049227032469" lon="19.870770667678443"><ele>186.0</ele><time>2026-05-04T06:47:14Z</time></trkpt><trkpt lat="41.79059590214808" lon="19.87071528821458"><ele>190.0</ele><time>2026-05-04T06:47:15Z</time></trkpt><trkpt lat="41.79066953865794" lon="19.870617861021326"><ele>190.0</ele><time>2026-05-04T06:47:16Z</time></trkpt><trkpt lat="41.790716491629816" lon="19.870476590570505"><ele>190.0</ele><time>2026-05-04T06:47:17Z</time></trkpt><trkpt lat="41.7907177775401" lon="19.870301430213324"><ele>190.0</ele><time>2026-05-04T06:47:18Z</time></trkpt><trkpt lat="41.79072559692768" lon="19.870131560063335"><ele>190.0</ele><time>2026-05-04T06:47:19Z</time></trkpt><trkpt lat="41.79076030457279" lon="19.869987255509987"><ele>190.75</ele><time>2026-05-04T06:47:20Z</time></trkpt><trkpt lat="41.79082677864583" lon="19.869871247685715"><ele>191.5</ele><time>2026-05-04T06:47:21Z</time></trkpt><trkpt lat="41.79092041296422" lon="19.869797431981684"><ele>192.25</ele><time>2026-05-04T06:47:22Z</time></trkpt><trkpt lat="41.791045025109874" lon="19.869765389825833"><ele>193.0</ele><time>2026-05-04T06:47:23Z</time></trkpt><trkpt lat="41.79118424639613" lon="19.86977116649452"><ele>196.66666666666666</ele><time>2026-05-04T06:47:24Z</time></trkpt><trkpt lat="41.79133743265259" lon="19.869794745523343"><ele>200.33333333333331</ele><time>2026-05-04T06:47:25Z</time></trkpt><trkpt lat="41.791492825685985" lon="19.869808844997127"><ele>204.0</ele><time>2026-05-04T06:47:26Z</time></trkpt><trkpt lat="41.791648603694284" lon="19.869814563867298"><ele>204.0</ele><time>2026-05-04T06:47:27Z</time></trkpt><trkpt lat="41.79179897562513" lon="19.869819967750146"><ele>204.0</ele><time>2026-05-04T06:47:28Z</time></trkpt><trkpt lat="41.79191720996935" lon="19.869834790053137"><ele>204.0</ele><time>2026-05-04T06:47:29Z</time></trkpt><trkpt lat="41.79199964784981" lon="19.86987799163793"><ele>204.0</ele><time>2026-05-04T06:47:30Z</time></trkpt><trkpt lat="41.7920522298544" lon="19.869969010957096"><ele>204.0</ele><time>2026-05-04T06:47:31Z</time></trkpt><trkpt lat="41.79210733929298" lon="19.870113015821374"><ele>207.66666666666669</ele><time>2026-05-04T06:47:32Z</time></trkpt><trkpt lat="41.79216897262883" lon="19.870294942421822"><ele>211.33333333333334</ele><time>2026-05-04T06:47:33Z</time></trkpt><trkpt lat="41.792254963574365" lon="19.870487145040734"><ele>215.0</ele><time>2026-05-04T06:47:34Z</time></trkpt><trkpt lat="41.79235874870689" lon="19.870653916587933"><ele>215.0</ele><time>2026-05-04T06:47:35Z</time></trkpt><trkpt lat="41.79247903667156" lon="19.87081549898332"><ele>215.0</ele><time>2026-05-04T06:47:36Z</time></trkpt><trkpt lat="41.79259494953406" lon="19.87097653653269"><ele>215.0</ele><time>2026-05-04T06:47:37Z</time></trkpt><trkpt lat="41.79270330700852" lon="19.871104824428194"><ele>216.25</ele><time>2026-05-04T06:47:38Z</time></trkpt><trkpt lat="41.79282339457809" lon="19.871198709764716"><ele>217.5</ele><time>2026-05-04T06:47:39Z</time></trkpt><trkpt lat="41.79296227754353" lon="19.87124882595484"><ele>218.75</ele><time>2026-05-04T06:47:40Z</time></trkpt><trkpt lat="41.79311710726057" lon="19.871256459101772"><ele>220.0</ele><time>2026-05-04T06:47:41Z</time></trkpt><trkpt lat="41.79327923931989" lon="19.871234173763376"><ele>220.0</ele><time>2026-05-04T06:47:42Z</time></trkpt><trkpt lat="41.79344719090955" lon="19.871194482164988"><ele>220.0</ele><time>2026-05-04T06:47:43Z</time></trkpt><trkpt lat="41.79362581824284" lon="19.87115026851279"><ele>220.0</ele><time>2026-05-04T06:47:44Z</time></trkpt><trkpt lat="41.79380122891369" lon="19.871119410013396"><ele>222.0</ele><time>2026-05-04T06:47:45Z</time></trkpt><trkpt lat="41.79398169744423" lon="19.87108518794353"><ele>224.0</ele><time>2026-05-04T06:47:46Z</time></trkpt><trkpt lat="41.79416008761974" lon="19.87104871035217"><ele>226.0</ele><time>2026-05-04T06:47:47Z</time></trkpt><trkpt lat="41.794337566566526" lon="19.871017957917218"><ele>228.33333333333331</ele><time>2026-05-04T06:47:48Z</time></trkpt><trkpt lat="41.79451615489607" lon="19.870998457771684"><ele>230.66666666666669</ele><time>2026-05-04T06:47:49Z</time></trkpt><trkpt lat="41.79469462548416" lon="19.870990164306935"><ele>233.0</ele><time>2026-05-04T06:47:50Z</time></trkpt><trkpt lat="41.7948728499364" lon="19.87097599304643"><ele>233.0</ele><time>2026-05-04T06:47:51Z</time></trkpt><trkpt lat="41.79502368216774" lon="19.870952262678383"><ele>233.0</ele><time>2026-05-04T06:47:52Z</time></trkpt><trkpt lat="41.79515285281679" lon="19.870929927453624"><ele>233.0</ele><time>2026-05-04T06:47:53Z</time></trkpt><trkpt lat="41.79526546473877" lon="19.870937856104575"><ele>233.0</ele><time>2026-05-04T06:47:54Z</time></trkpt><trkpt lat="41.79534568328406" lon="19.870991677157996"><ele>233.0</ele><time>2026-05-04T06:47:55Z</time></trkpt><trkpt lat="41.79537565731682" lon="19.871084861908056"><ele>233.0</ele><time>2026-05-04T06:47:56Z</time></trkpt><trkpt lat="41.7953666915032" lon="19.871201443093252"><ele>233.0</ele><time>2026-05-04T06:47:57Z</time></trkpt><trkpt lat="41.79530841702351" lon="19.871313097100085"><ele>233.0</ele><time>2026-05-04T06:47:58Z</time></trkpt><trkpt lat="41.79521838631435" lon="19.87140032608357"><ele>233.0</ele><time>2026-05-04T06:47:59Z</time></trkpt><trkpt lat="41.79508592004829" lon="19.871443702113776"><ele>233.0</ele><time>2026-05-04T06:48:00Z</time></trkpt><trkpt lat="41.794942977587084" lon="19.87146318323909"><ele>233.0</ele><time>2026-05-04T06:48:01Z</time></trkpt><trkpt lat="41.794838556971214" lon="19.87152796592659"><ele>233.0</ele><time>2026-05-04T06:48:02Z</time></trkpt><trkpt lat="41.794780972468786" lon="19.871648041618922"><ele>233.0</ele><time>2026-05-04T06:48:03Z</time></trkpt><trkpt lat="41.79477414313158" lon="19.87179676545021"><ele>232.5</ele><time>2026-05-04T06:48:04Z</time></trkpt><trkpt lat="41.79481016567822" lon="19.871955202941542"><ele>232.0</ele><time>2026-05-04T06:48:05Z</time></trkpt><trkpt lat="41.79488342634283" lon="19.872129493771826"><ele>231.5</ele><time>2026-05-04T06:48:06Z</time></trkpt><trkpt lat="41.79496344640607" lon="19.872321586334955"><ele>231.0</ele><time>2026-05-04T06:48:07Z</time></trkpt><trkpt lat="41.79504206810956" lon="19.872521975526087"><ele>231.0</ele><time>2026-05-04T06:48:08Z</time></trkpt><trkpt lat="41.79512403887101" lon="19.87272146360643"><ele>231.0</ele><time>2026-05-04T06:48:09Z</time></trkpt><trkpt lat="41.795201227979774" lon="19.872917009997916"><ele>231.0</ele><time>2026-05-04T06:48:10Z</time></trkpt><trkpt lat="41.79527042169488" lon="19.873123103350505"><ele>231.0</ele><time>2026-05-04T06:48:11Z</time></trkpt><trkpt lat="41.795310653005565" lon="19.87334286566435"><ele>231.0</ele><time>2026-05-04T06:48:12Z</time></trkpt><trkpt lat="41.795327014314545" lon="19.873569447096163"><ele>231.0</ele><time>2026-05-04T06:48:13Z</time></trkpt><trkpt lat="41.795352922406785" lon="19.87378909027545"><ele>231.75</ele><time>2026-05-04T06:48:14Z</time></trkpt><trkpt lat="41.795413090577796" lon="19.873967593285265"><ele>232.5</ele><time>2026-05-04T06:48:15Z</time></trkpt><trkpt lat="41.79551600766502" lon="19.874109207989445"><ele>233.25</ele><time>2026-05-04T06:48:16Z</time></trkpt><trkpt lat="41.79565461855085" lon="19.874200453794142"><ele>234.0</ele><time>2026-05-04T06:48:17Z</time></trkpt><trkpt lat="41.79581588365615" lon="19.874259814533204"><ele>234.33333333333331</ele><time>2026-05-04T06:48:18Z</time></trkpt><trkpt lat="41.795976731760206" lon="19.874317177574632"><ele>234.66666666666666</ele><time>2026-05-04T06:48:19Z</time></trkpt><trkpt lat="41.79611145341477" lon="19.874417843827448"><ele>235.0</ele><time>2026-05-04T06:48:20Z</time></trkpt><trkpt lat="41.796222992730605" lon="19.874575172270045"><ele>235.0</ele><time>2026-05-04T06:48:21Z</time></trkpt><trkpt lat="41.796325737012886" lon="19.874765142223488"><ele>235.0</ele><time>2026-05-04T06:48:22Z</time></trkpt><trkpt lat="41.796423774688876" lon="19.874964159840946"><ele>235.0</ele><time>2026-05-04T06:48:23Z</time></trkpt><trkpt lat="41.796521118990796" lon="19.87517552127242"><ele>235.0</ele><time>2026-05-04T06:48:24Z</time></trkpt><trkpt lat="41.796610308489726" lon="19.87538769706387"><ele>235.0</ele><time>2026-05-04T06:48:25Z</time></trkpt><trkpt lat="41.7966927192569" lon="19.875580112861623"><ele>235.0</ele><time>2026-05-04T06:48:26Z</time></trkpt><trkpt lat="41.79676311357487" lon="19.875753960147932"><ele>235.0</ele><time>2026-05-04T06:48:27Z</time></trkpt><trkpt lat="41.796805205161675" lon="19.875922350032198"><ele>235.0</ele><time>2026-05-04T06:48:28Z</time></trkpt><trkpt lat="41.79682124412537" lon="19.87611281173422"><ele>235.0</ele><time>2026-05-04T06:48:29Z</time></trkpt><trkpt lat="41.796809176487734" lon="19.876313145401774"><ele>235.0</ele><time>2026-05-04T06:48:30Z</time></trkpt><trkpt lat="41.79679430549579" lon="19.87652168518055"><ele>236.0</ele><time>2026-05-04T06:48:31Z</time></trkpt><trkpt lat="41.796806691314956" lon="19.87672842139786"><ele>237.0</ele><time>2026-05-04T06:48:32Z</time></trkpt><trkpt lat="41.796861024270186" lon="19.876912661132682"><ele>238.0</ele><time>2026-05-04T06:48:33Z</time></trkpt><trkpt lat="41.79696040918986" lon="19.877063722378427"><ele>239.25</ele><time>2026-05-04T06:48:34Z</time></trkpt><trkpt lat="41.79707541325584" lon="19.877193038159742"><ele>240.5</ele><time>2026-05-04T06:48:35Z</time></trkpt><trkpt lat="41.79716070401538" lon="19.877343593108336"><ele>241.75</ele><time>2026-05-04T06:48:36Z</time></trkpt><trkpt lat="41.79719561943848" lon="19.87752294107563"><ele>243.0</ele><time>2026-05-04T06:48:37Z</time></trkpt><trkpt lat="41.79722844152299" lon="19.877693265608766"><ele>243.4</ele><time>2026-05-04T06:48:38Z</time></trkpt><trkpt lat="41.79727901804812" lon="19.87781388136974"><ele>243.8</ele><time>2026-05-04T06:48:39Z</time></trkpt><trkpt lat="41.79736532919721" lon="19.87788127008465"><ele>244.2</ele><time>2026-05-04T06:48:39.999Z</time></trkpt><trkpt lat="41.79747118193556" lon="19.877888477188854"><ele>244.6</ele><time>2026-05-04T06:48:40.999Z</time></trkpt><trkpt lat="41.7975591165648" lon="19.877850718705698"><ele>245.0</ele><time>2026-05-04T06:48:41.999Z</time></trkpt><trkpt lat="41.7976403661179" lon="19.87776058077736"><ele>245.25</ele><time>2026-05-04T06:48:42.999Z</time></trkpt><trkpt lat="41.79773431523351" lon="19.87765954309318"><ele>245.5</ele><time>2026-05-04T06:48:43.999Z</time></trkpt><trkpt lat="41.79784384011042" lon="19.87759056179547"><ele>245.75</ele><time>2026-05-04T06:48:44.999Z</time></trkpt><trkpt lat="41.79795003022297" lon="19.87758426006843"><ele>246.0</ele><time>2026-05-04T06:48:45.999Z</time></trkpt><trkpt lat="41.79806111947859" lon="19.87762288777152"><ele>246.0</ele><time>2026-05-04T06:48:46.999Z</time></trkpt><trkpt lat="41.798183633408456" lon="19.877691599973247"><ele>246.0</ele><time>2026-05-04T06:48:47.999Z</time></trkpt><trkpt lat="41.79830590215405" lon="19.87778581174972"><ele>246.0</ele><time>2026-05-04T06:48:48.999Z</time></trkpt><trkpt lat="41.7984180847885" lon="19.877880404686376"><ele>246.0</ele><time>2026-05-04T06:48:49.999Z</time></trkpt><trkpt lat="41.798500699745794" lon="19.877973853184727"><ele>244.0</ele><time>2026-05-04T06:48:51Z</time></trkpt><trkpt lat="41.79853552794611" lon="19.87807607811453"><ele>242.00000000000003</ele><time>2026-05-04T06:48:52Z</time></trkpt><trkpt lat="41.7985432201546" lon="19.878210016415455"><ele>240.00000000000003</ele><time>2026-05-04T06:48:53Z</time></trkpt><trkpt lat="41.79851519747022" lon="19.87836051477158"><ele>238.0</ele><time>2026-05-04T06:48:54Z</time></trkpt><trkpt lat="41.79845834486656" lon="19.878495869530468"><ele>236.0</ele><time>2026-05-04T06:48:55Z</time></trkpt><trkpt lat="41.79836707316222" lon="19.878602489560215"><ele>236.0</ele><time>2026-05-04T06:48:56Z</time></trkpt><trkpt lat="41.79826025297366" lon="19.87870473982914"><ele>236.0</ele><time>2026-05-04T06:48:57Z</time></trkpt><trkpt lat="41.79815494596492" lon="19.878809837106736"><ele>236.0</ele><time>2026-05-04T06:48:58Z</time></trkpt><trkpt lat="41.79806902391042" lon="19.878949836890484"><ele>236.0</ele><time>2026-05-04T06:48:59Z</time></trkpt><trkpt lat="41.798018088495084" lon="19.879139819095474"><ele>237.0</ele><time>2026-05-04T06:49:00Z</time></trkpt><trkpt lat="41.79797272874848" lon="19.879339219594623"><ele>238.0</ele><time>2026-05-04T06:49:01Z</time></trkpt><trkpt lat="41.797918154479774" lon="19.879544456467926"><ele>239.0</ele><time>2026-05-04T06:49:02Z</time></trkpt><trkpt lat="41.79785248640262" lon="19.87974840696801"><ele>239.0</ele><time>2026-05-04T06:49:03Z</time></trkpt><trkpt lat="41.79777828853883" lon="19.87996103844767"><ele>239.0</ele><time>2026-05-04T06:49:04Z</time></trkpt><trkpt lat="41.797719881102424" lon="19.880140086372553"><ele>239.0</ele><time>2026-05-04T06:49:05Z</time></trkpt><trkpt lat="41.79767672250777" lon="19.880311441273818"><ele>239.25</ele><time>2026-05-04T06:49:06Z</time></trkpt><trkpt lat="41.79764532133655" lon="19.88047444938716"><ele>239.5</ele><time>2026-05-04T06:49:07Z</time></trkpt><trkpt lat="41.79765478495619" lon="19.880638342563515"><ele>239.75</ele><time>2026-05-04T06:49:08Z</time></trkpt><trkpt lat="41.797704463010504" lon="19.880805142363002"><ele>240.0</ele><time>2026-05-04T06:49:09Z</time></trkpt><trkpt lat="41.79779190446435" lon="19.880961876494066"><ele>240.0</ele><time>2026-05-04T06:49:10Z</time></trkpt><trkpt lat="41.79790932443002" lon="19.881096915829946"><ele>240.0</ele><time>2026-05-04T06:49:11Z</time></trkpt><trkpt lat="41.79803922325824" lon="19.88123451983538"><ele>240.0</ele><time>2026-05-04T06:49:12Z</time></trkpt><trkpt lat="41.79815205803219" lon="19.881401953925838"><ele>240.0</ele><time>2026-05-04T06:49:13Z</time></trkpt><trkpt lat="41.79826348746155" lon="19.881591364550037"><ele>240.0</ele><time>2026-05-04T06:49:14Z</time></trkpt><trkpt lat="41.79838231924218" lon="19.881749793204488"><ele>240.0</ele><time>2026-05-04T06:49:15Z</time></trkpt><trkpt lat="41.79848449506025" lon="19.881883723605846"><ele>240.66666666666669</ele><time>2026-05-04T06:49:16Z</time></trkpt><trkpt lat="41.79856866464815" lon="19.882047798939368"><ele>241.33333333333334</ele><time>2026-05-04T06:49:17Z</time></trkpt><trkpt lat="41.79862810323331" lon="19.88225723446471"><ele>242.0</ele><time>2026-05-04T06:49:18Z</time></trkpt><trkpt lat="41.79867073314632" lon="19.882486938992777"><ele>239.33333333333334</ele><time>2026-05-04T06:49:19Z</time></trkpt><trkpt lat="41.798714440669535" lon="19.882726823148854"><ele>236.66666666666669</ele><time>2026-05-04T06:49:20Z</time></trkpt><trkpt lat="41.79874682879647" lon="19.882964704403612"><ele>234.0</ele><time>2026-05-04T06:49:21Z</time></trkpt><trkpt lat="41.79877367781531" lon="19.883180191358917"><ele>234.0</ele><time>2026-05-04T06:49:22Z</time></trkpt><trkpt lat="41.798807517092534" lon="19.883391057832583"><ele>234.0</ele><time>2026-05-04T06:49:23Z</time></trkpt><trkpt lat="41.79886978471768" lon="19.88358896886288"><ele>234.0</ele><time>2026-05-04T06:49:24Z</time></trkpt><trkpt lat="41.79896011712032" lon="19.88377830038241"><ele>230.66666666666669</ele><time>2026-05-04T06:49:25Z</time></trkpt><trkpt lat="41.79907996848459" lon="19.883954863054292"><ele>227.33333333333334</ele><time>2026-05-04T06:49:26Z</time></trkpt><trkpt lat="41.79920580337933" lon="19.88414118499566"><ele>224.0</ele><time>2026-05-04T06:49:27Z</time></trkpt><trkpt lat="41.799330802061796" lon="19.884340303671188"><ele>222.33333333333334</ele><time>2026-05-04T06:49:28Z</time></trkpt><trkpt lat="41.79945365690662" lon="19.884543774206914"><ele>220.66666666666669</ele><time>2026-05-04T06:49:29Z</time></trkpt><trkpt lat="41.799569399059436" lon="19.884756774200046"><ele>219.0</ele><time>2026-05-04T06:49:30Z</time></trkpt><trkpt lat="41.799652132343425" lon="19.884976099736285"><ele>218.66666666666669</ele><time>2026-05-04T06:49:31Z</time></trkpt><trkpt lat="41.79972028444217" lon="19.88519018576275"><ele>218.33333333333334</ele><time>2026-05-04T06:49:32Z</time></trkpt><trkpt lat="41.79979252500107" lon="19.88539163959979"><ele>218.0</ele><time>2026-05-04T06:49:33Z</time></trkpt><trkpt lat="41.79985899907941" lon="19.88558788304848"><ele>218.0</ele><time>2026-05-04T06:49:34Z</time></trkpt><trkpt lat="41.799901021300755" lon="19.88578264572291"><ele>218.0</ele><time>2026-05-04T06:49:35Z</time></trkpt><trkpt lat="41.79990701931274" lon="19.886001307941346"><ele>218.0</ele><time>2026-05-04T06:49:36Z</time></trkpt><trkpt lat="41.79987244445428" lon="19.886231791898236"><ele>217.0</ele><time>2026-05-04T06:49:37Z</time></trkpt><trkpt lat="41.799821157381885" lon="19.88646977945711"><ele>216.0</ele><time>2026-05-04T06:49:38Z</time></trkpt><trkpt lat="41.79980141897574" lon="19.886701724373424"><ele>215.0</ele><time>2026-05-04T06:49:39Z</time></trkpt><trkpt lat="41.799810218433954" lon="19.886916528409717"><ele>217.66666666666669</ele><time>2026-05-04T06:49:40Z</time></trkpt><trkpt lat="41.79985938403545" lon="19.887092400111175"><ele>220.33333333333331</ele><time>2026-05-04T06:49:41Z</time></trkpt><trkpt lat="41.79994589276254" lon="19.88725075335014"><ele>223.0</ele><time>2026-05-04T06:49:42Z</time></trkpt><trkpt lat="41.80007212871322" lon="19.887392995745568"><ele>223.66666666666666</ele><time>2026-05-04T06:49:43Z</time></trkpt><trkpt lat="41.800216690152986" lon="19.887529713372864"><ele>224.33333333333331</ele><time>2026-05-04T06:49:44Z</time></trkpt><trkpt lat="41.80036371611773" lon="19.887674436390306"><ele>225.0</ele><time>2026-05-04T06:49:44.999Z</time></trkpt><trkpt lat="41.80050953015509" lon="19.88782793944747"><ele>227.0</ele><time>2026-05-04T06:49:45.999Z</time></trkpt><trkpt lat="41.80065868776618" lon="19.887993493990738"><ele>229.0</ele><time>2026-05-04T06:49:46.999Z</time></trkpt><trkpt lat="41.80080345646324" lon="19.888155914048603"><ele>231.0</ele><time>2026-05-04T06:49:47.999Z</time></trkpt><trkpt lat="41.80093520793085" lon="19.88830227250089"><ele>230.33333333333331</ele><time>2026-05-04T06:49:48.999Z</time></trkpt><trkpt lat="41.80104230355856" lon="19.888444132507527"><ele>229.66666666666666</ele><time>2026-05-04T06:49:49.999Z</time></trkpt><trkpt lat="41.801112118824854" lon="19.88860866410794"><ele>229.0</ele><time>2026-05-04T06:49:50.999Z</time></trkpt><trkpt lat="41.80116870220141" lon="19.888808568695353"><ele>229.0</ele><time>2026-05-04T06:49:51.999Z</time></trkpt><trkpt lat="41.80123071466681" lon="19.88903609334071"><ele>229.0</ele><time>2026-05-04T06:49:52.999Z</time></trkpt><trkpt lat="41.80130269759604" lon="19.889270291109185"><ele>229.0</ele><time>2026-05-04T06:49:53.999Z</time></trkpt><trkpt lat="41.80139003881022" lon="19.889520957716087"><ele>231.0</ele><time>2026-05-04T06:49:54.999Z</time></trkpt><trkpt lat="41.801480350897315" lon="19.88977066355076"><ele>233.0</ele><time>2026-05-04T06:49:55.999Z</time></trkpt><trkpt lat="41.801575303319794" lon="19.89003826915822"><ele>235.0</ele><time>2026-05-04T06:49:56.999Z</time></trkpt><trkpt lat="41.80166414411242" lon="19.89029791354034"><ele>235.0</ele><time>2026-05-04T06:49:57.999Z</time></trkpt><trkpt lat="41.80175473216989" lon="19.890564891349946"><ele>235.0</ele><time>2026-05-04T06:49:58.999Z</time></trkpt><trkpt lat="41.80184682366987" lon="19.890833488132692"><ele>235.0</ele><time>2026-05-04T06:49:59.999Z</time></trkpt><trkpt lat="41.801941997414595" lon="19.89109769571615"><ele>237.0</ele><time>2026-05-04T06:50:00.999Z</time></trkpt><trkpt lat="41.8020348267906" lon="19.891342205916253"><ele>239.0</ele><time>2026-05-04T06:50:01.999Z</time></trkpt><trkpt lat="41.80212754531999" lon="19.891553447270486"><ele>241.0</ele><time>2026-05-04T06:50:02.999Z</time></trkpt><trkpt lat="41.80223417554507" lon="19.891736767304927"><ele>241.0</ele><time>2026-05-04T06:50:03.999Z</time></trkpt><trkpt lat="41.80236891311165" lon="19.891905564489573"><ele>241.0</ele><time>2026-05-04T06:50:04.999Z</time></trkpt><trkpt lat="41.80251648488403" lon="19.89206115488911"><ele>241.0</ele><time>2026-05-04T06:50:05.999Z</time></trkpt><trkpt lat="41.802665158079" lon="19.892224885846456"><ele>243.66666666666666</ele><time>2026-05-04T06:50:06.999Z</time></trkpt><trkpt lat="41.802797835188855" lon="19.892400390724504"><ele>246.33333333333331</ele><time>2026-05-04T06:50:07.999Z</time></trkpt><trkpt lat="41.8029163357767" lon="19.892588248135535"><ele>249.0</ele><time>2026-05-04T06:50:08.999Z</time></trkpt><trkpt lat="41.803030775886036" lon="19.892796281105024"><ele>249.0</ele><time>2026-05-04T06:50:09.999Z</time></trkpt><trkpt lat="41.803132646753596" lon="19.893014714576797"><ele>249.0</ele><time>2026-05-04T06:50:10.999Z</time></trkpt><trkpt lat="41.80321018800084" lon="19.893244786870664"><ele>249.0</ele><time>2026-05-04T06:50:11.999Z</time></trkpt><trkpt lat="41.80326093625445" lon="19.893481019401158"><ele>248.33333333333331</ele><time>2026-05-04T06:50:12.999Z</time></trkpt><trkpt lat="41.80329087162275" lon="19.893737299473"><ele>247.66666666666666</ele><time>2026-05-04T06:50:13.999Z</time></trkpt><trkpt lat="41.80330551216205" lon="19.893986387556257"><ele>247.0</ele><time>2026-05-04T06:50:14.999Z</time></trkpt><trkpt lat="41.80329291005445" lon="19.894221087942665"><ele>247.33333333333331</ele><time>2026-05-04T06:50:15.999Z</time></trkpt><trkpt lat="41.803241261179735" lon="19.89445158177477"><ele>247.66666666666669</ele><time>2026-05-04T06:50:16.999Z</time></trkpt><trkpt lat="41.803164736041" lon="19.894689384896"><ele>248.0</ele><time>2026-05-04T06:50:17.999Z</time></trkpt><trkpt lat="41.80308932715426" lon="19.894940004750516"><ele>246.0</ele><time>2026-05-04T06:50:18.999Z</time></trkpt><trkpt lat="41.80301812308941" lon="19.89518833374355"><ele>244.0</ele><time>2026-05-04T06:50:19.999Z</time></trkpt><trkpt lat="41.802942326136254" lon="19.89543902593378"><ele>242.0</ele><time>2026-05-04T06:50:20.999Z</time></trkpt><trkpt lat="41.80286404189665" lon="19.895687731777283"><ele>241.0</ele><time>2026-05-04T06:50:21.999Z</time></trkpt><trkpt lat="41.802790146033814" lon="19.895921423074352"><ele>240.0</ele><time>2026-05-04T06:50:22.999Z</time></trkpt><trkpt lat="41.80272744566664" lon="19.896147801868935"><ele>239.0</ele><time>2026-05-04T06:50:23.999Z</time></trkpt><trkpt lat="41.80269696363729" lon="19.896376739354313"><ele>239.0</ele><time>2026-05-04T06:50:24.999Z</time></trkpt><trkpt lat="41.80269479179363" lon="19.89661710006242"><ele>239.0</ele><time>2026-05-04T06:50:25.999Z</time></trkpt><trkpt lat="41.802708504241764" lon="19.896861860476175"><ele>239.0</ele><time>2026-05-04T06:50:26.999Z</time></trkpt><trkpt lat="41.8027411140712" lon="19.897104375667084"><ele>240.66666666666669</ele><time>2026-05-04T06:50:27.999Z</time></trkpt><trkpt lat="41.80281411518841" lon="19.89733487761145"><ele>242.33333333333331</ele><time>2026-05-04T06:50:28.999Z</time></trkpt><trkpt lat="41.8029172242816" lon="19.897552555286893"><ele>244.0</ele><time>2026-05-04T06:50:29.999Z</time></trkpt><trkpt lat="41.80303428320987" lon="19.897772446286712"><ele>244.0</ele><time>2026-05-04T06:50:30.999Z</time></trkpt><trkpt lat="41.8031567106589" lon="19.898000752562996"><ele>244.0</ele><time>2026-05-04T06:50:31.999Z</time></trkpt><trkpt lat="41.803282458847015" lon="19.898233399277284"><ele>244.0</ele><time>2026-05-04T06:50:32.999Z</time></trkpt><trkpt lat="41.80341042698482" lon="19.898473516815812"><ele>248.0</ele><time>2026-05-04T06:50:33.999Z</time></trkpt><trkpt lat="41.8035397128737" lon="19.898719018965398"><ele>252.0</ele><time>2026-05-04T06:50:34.999Z</time></trkpt><trkpt lat="41.8036650202648" lon="19.898973886949264"><ele>252.0</ele><time>2026-05-04T06:50:35.999Z</time></trkpt><trkpt lat="41.80378184718676" lon="19.89923735998786"><ele>252.0</ele><time>2026-05-04T06:50:36.999Z</time></trkpt><trkpt lat="41.8038918850129" lon="19.899512536406878"><ele>250.0</ele><time>2026-05-04T06:50:37.999Z</time></trkpt><trkpt lat="41.803990907112045" lon="19.899792406353644"><ele>248.0</ele><time>2026-05-04T06:50:38.999Z</time></trkpt><trkpt lat="41.80408802884599" lon="19.90008098230094"><ele>247.0</ele><time>2026-05-04T06:50:39.999Z</time></trkpt><trkpt lat="41.804184680290064" lon="19.90038172608802"><ele>246.0</ele><time>2026-05-04T06:50:40.999Z</time></trkpt><trkpt lat="41.804278360395486" lon="19.900689187183236"><ele>244.0</ele><time>2026-05-04T06:50:41.999Z</time></trkpt><trkpt lat="41.80437044527924" lon="19.900988424041124"><ele>242.0</ele><time>2026-05-04T06:50:42.999Z</time></trkpt><trkpt lat="41.80445918845757" lon="19.901226981413537"><ele>240.0</ele><time>2026-05-04T06:50:43.999Z</time></trkpt><trkpt lat="41.80454044353443" lon="19.901475555381673"><ele>240.0</ele><time>2026-05-04T06:50:44.999Z</time></trkpt><trkpt lat="41.8046177450407" lon="19.90173769878999"><ele>240.0</ele><time>2026-05-04T06:50:45.999Z</time></trkpt><trkpt lat="41.804694485883154" lon="19.90199077583503"><ele>240.0</ele><time>2026-05-04T06:50:46.999Z</time></trkpt><trkpt lat="41.804778418065496" lon="19.902222542013366"><ele>240.66666666666669</ele><time>2026-05-04T06:50:47.999Z</time></trkpt><trkpt lat="41.8048774909819" lon="19.90241975461318"><ele>241.33333333333334</ele><time>2026-05-04T06:50:48.999Z</time></trkpt><trkpt lat="41.805003784721364" lon="19.902599560920546"><ele>242.0</ele><time>2026-05-04T06:50:49.999Z</time></trkpt><trkpt lat="41.8051653807415" lon="19.902751539753677"><ele>244.0</ele><time>2026-05-04T06:50:50.999Z</time></trkpt><trkpt lat="41.80535014222097" lon="19.902898900182045"><ele>246.0</ele><time>2026-05-04T06:50:51.999Z</time></trkpt><trkpt lat="41.80552990731463" lon="19.903059179410544"><ele>248.0</ele><time>2026-05-04T06:50:52.999Z</time></trkpt><trkpt lat="41.80567451613329" lon="19.903251429785506"><ele>250.0</ele><time>2026-05-04T06:50:53.999Z</time></trkpt><trkpt lat="41.805782173593265" lon="19.903471753792957"><ele>252.0</ele><time>2026-05-04T06:50:54.999Z</time></trkpt><trkpt lat="41.80587508970762" lon="19.90367908502854"><ele>254.0</ele><time>2026-05-04T06:50:55.999Z</time></trkpt><trkpt lat="41.80594915739413" lon="19.903836002876385"><ele>254.0</ele><time>2026-05-04T06:50:57Z</time></trkpt><trkpt lat="41.80598875610535" lon="19.903982196814408"><ele>253.99999999999997</ele><time>2026-05-04T06:50:58Z</time></trkpt><trkpt lat="41.80597421566457" lon="19.90411609308874"><ele>253.99999999999997</ele><time>2026-05-04T06:50:59Z</time></trkpt><trkpt lat="41.80590452724737" lon="19.90423384932419"><ele>254.0</ele><time>2026-05-04T06:51:00Z</time></trkpt><trkpt lat="41.80581249530072" lon="19.904326471872483"><ele>254.0</ele><time>2026-05-04T06:51:01Z</time></trkpt><trkpt lat="41.80568181655551" lon="19.904383126415063"><ele>256.25</ele><time>2026-05-04T06:51:02Z</time></trkpt><trkpt lat="41.805545645839295" lon="19.904429849141145"><ele>258.5</ele><time>2026-05-04T06:51:03Z</time></trkpt><trkpt lat="41.80542898938951" lon="19.904514407128755"><ele>260.75</ele><time>2026-05-04T06:51:04Z</time></trkpt><trkpt lat="41.80532936895493" lon="19.904658857614702"><ele>263.0</ele><time>2026-05-04T06:51:05Z</time></trkpt><trkpt lat="41.80523443867592" lon="19.904846940996862"><ele>262.0</ele><time>2026-05-04T06:51:06Z</time></trkpt><trkpt lat="41.80511582441501" lon="19.905042852389254"><ele>261.0</ele><time>2026-05-04T06:51:07Z</time></trkpt><trkpt lat="41.80497632186644" lon="19.90519711733595"><ele>260.0</ele><time>2026-05-04T06:51:08Z</time></trkpt><trkpt lat="41.80483669314534" lon="19.90531907349274"><ele>264.75</ele><time>2026-05-04T06:51:09Z</time></trkpt><trkpt lat="41.804729486685545" lon="19.90542538487738"><ele>269.5</ele><time>2026-05-04T06:51:10Z</time></trkpt><trkpt lat="41.804652156183344" lon="19.905565096487873"><ele>274.25</ele><time>2026-05-04T06:51:11Z</time></trkpt><trkpt lat="41.804588074748224" lon="19.905739406098856"><ele>279.0</ele><time>2026-05-04T06:51:12Z</time></trkpt><trkpt lat="41.80454559220352" lon="19.905953098559138"><ele>280.6666666666667</ele><time>2026-05-04T06:51:13Z</time></trkpt><trkpt lat="41.80451113441176" lon="19.906173874998647"><ele>282.33333333333337</ele><time>2026-05-04T06:51:14Z</time></trkpt><trkpt lat="41.804478084166625" lon="19.906411153134556"><ele>284.0</ele><time>2026-05-04T06:51:15Z</time></trkpt><trkpt lat="41.80445445108115" lon="19.906636695113995"><ele>284.0</ele><time>2026-05-04T06:51:16Z</time></trkpt><trkpt lat="41.80445637142811" lon="19.906851786706582"><ele>284.0</ele><time>2026-05-04T06:51:17Z</time></trkpt><trkpt lat="41.80449158119673" lon="19.90707498917883"><ele>284.0</ele><time>2026-05-04T06:51:18Z</time></trkpt><trkpt lat="41.80455019182533" lon="19.907315747610514"><ele>284.0</ele><time>2026-05-04T06:51:19Z</time></trkpt><trkpt lat="41.8046004299606" lon="19.907562691796226"><ele>284.0</ele><time>2026-05-04T06:51:20Z</time></trkpt><trkpt lat="41.80464526834563" lon="19.907812703557465"><ele>284.0</ele><time>2026-05-04T06:51:21Z</time></trkpt><trkpt lat="41.80468414570765" lon="19.908025625151836"><ele>284.0</ele><time>2026-05-04T06:51:22Z</time></trkpt><trkpt lat="41.80474341741621" lon="19.908192782994067"><ele>284.0</ele><time>2026-05-04T06:51:23Z</time></trkpt><trkpt lat="41.80484583075468" lon="19.908298268919722"><ele>284.0</ele><time>2026-05-04T06:51:24Z</time></trkpt><trkpt lat="41.80498190640247" lon="19.908403018334333"><ele>284.0</ele><time>2026-05-04T06:51:25Z</time></trkpt><trkpt lat="41.805139369272055" lon="19.908506271522572"><ele>286.0</ele><time>2026-05-04T06:51:26Z</time></trkpt><trkpt lat="41.805310066114906" lon="19.908613511570348"><ele>288.0</ele><time>2026-05-04T06:51:27Z</time></trkpt><trkpt lat="41.80548137963629" lon="19.90872297030355"><ele>290.0</ele><time>2026-05-04T06:51:28Z</time></trkpt><trkpt lat="41.80565891420298" lon="19.90884140469634"><ele>290.0</ele><time>2026-05-04T06:51:29Z</time></trkpt><trkpt lat="41.80583859426625" lon="19.908966048557655"><ele>290.0</ele><time>2026-05-04T06:51:30Z</time></trkpt><trkpt lat="41.80601830408036" lon="19.909084659294265"><ele>290.0</ele><time>2026-05-04T06:51:31Z</time></trkpt><trkpt lat="41.8062018231143" lon="19.90920702981058"><ele>292.33333333333337</ele><time>2026-05-04T06:51:32Z</time></trkpt><trkpt lat="41.80638035811361" lon="19.909353147722967"><ele>294.6666666666667</ele><time>2026-05-04T06:51:33Z</time></trkpt><trkpt lat="41.80654251015095" lon="19.909534991616663"><ele>297.0</ele><time>2026-05-04T06:51:34Z</time></trkpt><trkpt lat="41.806682006773585" lon="19.90975275058652"><ele>297.0</ele><time>2026-05-04T06:51:35Z</time></trkpt><trkpt lat="41.806822566299594" lon="19.909983735278843"><ele>297.0</ele><time>2026-05-04T06:51:36Z</time></trkpt><trkpt lat="41.806965195597826" lon="19.91020414076519"><ele>297.0</ele><time>2026-05-04T06:51:37Z</time></trkpt><trkpt lat="41.807105643872774" lon="19.910407423241928"><ele>299.6666666666667</ele><time>2026-05-04T06:51:38Z</time></trkpt><trkpt lat="41.807210394652095" lon="19.910602753085776"><ele>302.33333333333337</ele><time>2026-05-04T06:51:39Z</time></trkpt><trkpt lat="41.807277797901776" lon="19.910804000089446"><ele>305.0</ele><time>2026-05-04T06:51:39.999Z</time></trkpt><trkpt lat="41.80733150735765" lon="19.911022373092482"><ele>307.6666666666667</ele><time>2026-05-04T06:51:40.999Z</time></trkpt><trkpt lat="41.80739382040033" lon="19.911250306903995"><ele>310.3333333333333</ele><time>2026-05-04T06:51:41.999Z</time></trkpt><trkpt lat="41.8074373071729" lon="19.911448270692112"><ele>313.0</ele><time>2026-05-04T06:51:42.999Z</time></trkpt><trkpt lat="41.80743256013672" lon="19.911605492363588"><ele>316.0</ele><time>2026-05-04T06:51:43.999Z</time></trkpt><trkpt lat="41.807385660245295" lon="19.91174292637996"><ele>319.0</ele><time>2026-05-04T06:51:44.999Z</time></trkpt><trkpt lat="41.807314649540174" lon="19.911868025676878"><ele>322.0</ele><time>2026-05-04T06:51:45.999Z</time></trkpt><trkpt lat="41.807207836600874" lon="19.91196690703169"><ele>325.0</ele><time>2026-05-04T06:51:46.999Z</time></trkpt><trkpt lat="41.80706373359598" lon="19.912041277835268"><ele>325.0</ele><time>2026-05-04T06:51:47.999Z</time></trkpt><trkpt lat="41.80689693167836" lon="19.912107330087935"><ele>325.0</ele><time>2026-05-04T06:51:48.999Z</time></trkpt><trkpt lat="41.8067273790865" lon="19.91218441823638"><ele>325.0</ele><time>2026-05-04T06:51:49.999Z</time></trkpt><trkpt lat="41.80656506104378" lon="19.912278881247655"><ele>326.0</ele><time>2026-05-04T06:51:50.999Z</time></trkpt><trkpt lat="41.80643232468015" lon="19.912392141821766"><ele>327.0</ele><time>2026-05-04T06:51:51.999Z</time></trkpt><trkpt lat="41.80633502122662" lon="19.91252511927561"><ele>328.0</ele><time>2026-05-04T06:51:52.999Z</time></trkpt><trkpt lat="41.80628672636712" lon="19.912709391205926"><ele>329.0</ele><time>2026-05-04T06:51:53.999Z</time></trkpt><trkpt lat="41.80626431834389" lon="19.91291900929053"><ele>329.0</ele><time>2026-05-04T06:51:54.999Z</time></trkpt><trkpt lat="41.80626220930209" lon="19.913166485235596"><ele>329.0</ele><time>2026-05-04T06:51:55.999Z</time></trkpt><trkpt lat="41.80626853509735" lon="19.913425244665696"><ele>329.0</ele><time>2026-05-04T06:51:56.999Z</time></trkpt><trkpt lat="41.806282516174534" lon="19.913678484713394"><ele>330.6666666666667</ele><time>2026-05-04T06:51:57.999Z</time></trkpt><trkpt lat="41.80628326363133" lon="19.913914949129065"><ele>332.3333333333333</ele><time>2026-05-04T06:51:58.999Z</time></trkpt><trkpt lat="41.80624641737422" lon="19.91411032268742"><ele>334.0</ele><time>2026-05-04T06:51:59.999Z</time></trkpt><trkpt lat="41.8061720425974" lon="19.914311415351396"><ele>337.3333333333333</ele><time>2026-05-04T06:52:00.999Z</time></trkpt><trkpt lat="41.8060960822754" lon="19.914521483143922"><ele>340.6666666666667</ele><time>2026-05-04T06:52:01.999Z</time></trkpt><trkpt lat="41.80605617909231" lon="19.914747458087305"><ele>344.0</ele><time>2026-05-04T06:52:02.999Z</time></trkpt><trkpt lat="41.80603388765692" lon="19.914980632247048"><ele>344.25</ele><time>2026-05-04T06:52:03.999Z</time></trkpt><trkpt lat="41.806024022323975" lon="19.915166641320997"><ele>344.5</ele><time>2026-05-04T06:52:04.999Z</time></trkpt><trkpt lat="41.80604622742836" lon="19.915341396097933"><ele>344.75</ele><time>2026-05-04T06:52:05.999Z</time></trkpt><trkpt lat="41.8061013257409" lon="19.915510097058974"><ele>345.0</ele><time>2026-05-04T06:52:06.999Z</time></trkpt><trkpt lat="41.80617053957017" lon="19.915704950885445"><ele>343.6666666666667</ele><time>2026-05-04T06:52:07.999Z</time></trkpt><trkpt lat="41.80622616081592" lon="19.915914301534745"><ele>342.33333333333337</ele><time>2026-05-04T06:52:08.999Z</time></trkpt><trkpt lat="41.806280006965096" lon="19.916118582842902"><ele>341.0</ele><time>2026-05-04T06:52:09.999Z</time></trkpt><trkpt lat="41.80636174878788" lon="19.916314203582072"><ele>341.0</ele><time>2026-05-04T06:52:10.999Z</time></trkpt><trkpt lat="41.80647885052278" lon="19.91649551126246"><ele>341.0</ele><time>2026-05-04T06:52:11.999Z</time></trkpt><trkpt lat="41.80662491197423" lon="19.916678996907258"><ele>341.0</ele><time>2026-05-04T06:52:12.999Z</time></trkpt><trkpt lat="41.80676641848375" lon="19.916871219889966"><ele>342.6666666666667</ele><time>2026-05-04T06:52:13.999Z</time></trkpt><trkpt lat="41.806900727036705" lon="19.917088536564325"><ele>344.3333333333333</ele><time>2026-05-04T06:52:14.999Z</time></trkpt><trkpt lat="41.80703406995414" lon="19.917322723816405"><ele>346.0</ele><time>2026-05-04T06:52:15.999Z</time></trkpt><trkpt lat="41.8071705242978" lon="19.91756413377418"><ele>347.66666666666663</ele><time>2026-05-04T06:52:16.999Z</time></trkpt><trkpt lat="41.80730609794113" lon="19.91779260536158"><ele>349.3333333333333</ele><time>2026-05-04T06:52:17.999Z</time></trkpt><trkpt lat="41.8074276797644" lon="19.917970637819955"><ele>351.0</ele><time>2026-05-04T06:52:18.999Z</time></trkpt><trkpt lat="41.80754882873101" lon="19.918132868187506"><ele>351.0</ele><time>2026-05-04T06:52:19.999Z</time></trkpt><trkpt lat="41.8076393405573" lon="19.918309653348928"><ele>351.0</ele><time>2026-05-04T06:52:20.999Z</time></trkpt><trkpt lat="41.80771533085489" lon="19.91853272892518"><ele>351.0</ele><time>2026-05-04T06:52:21.999Z</time></trkpt><trkpt lat="41.80777464250749" lon="19.918754476146198"><ele>352.25</ele><time>2026-05-04T06:52:22.999Z</time></trkpt><trkpt lat="41.80782823739053" lon="19.918934433770556"><ele>353.5</ele><time>2026-05-04T06:52:23.999Z</time></trkpt><trkpt lat="41.807904238288984" lon="19.919073265649747"><ele>354.75</ele><time>2026-05-04T06:52:24.999Z</time></trkpt><trkpt lat="41.80803397554988" lon="19.9191675645023"><ele>356.0</ele><time>2026-05-04T06:52:25.999Z</time></trkpt><trkpt lat="41.80819196940007" lon="19.919238293899014"><ele>357.6666666666667</ele><time>2026-05-04T06:52:26.999Z</time></trkpt><trkpt lat="41.8083425153511" lon="19.919343765305307"><ele>359.3333333333333</ele><time>2026-05-04T06:52:27.999Z</time></trkpt><trkpt lat="41.80847179425771" lon="19.919512276387778"><ele>361.0</ele><time>2026-05-04T06:52:28.999Z</time></trkpt><trkpt lat="41.80859566634056" lon="19.919737074502525"><ele>361.0</ele><time>2026-05-04T06:52:29.999Z</time></trkpt><trkpt lat="41.808714695204884" lon="19.919960779622937"><ele>361.0</ele><time>2026-05-04T06:52:30.999Z</time></trkpt><trkpt lat="41.80885432699411" lon="19.92016595152671"><ele>361.0</ele><time>2026-05-04T06:52:31.999Z</time></trkpt><trkpt lat="41.809020589620054" lon="19.920323284201864"><ele>362.3333333333333</ele><time>2026-05-04T06:52:32.999Z</time></trkpt><trkpt lat="41.809206120838596" lon="19.920442288195602"><ele>363.6666666666667</ele><time>2026-05-04T06:52:33.999Z</time></trkpt><trkpt lat="41.80936531775518" lon="19.920563492489496"><ele>365.0</ele><time>2026-05-04T06:52:34.999Z</time></trkpt><trkpt lat="41.80949550434992" lon="19.92071716159243"><ele>365.0</ele><time>2026-05-04T06:52:35.999Z</time></trkpt><trkpt lat="41.80960530675966" lon="19.920886667875422"><ele>365.0</ele><time>2026-05-04T06:52:36.999Z</time></trkpt><trkpt lat="41.80969414697717" lon="19.92105604647445"><ele>365.0</ele><time>2026-05-04T06:52:37.999Z</time></trkpt><trkpt lat="41.80976902840675" lon="19.921237114149275"><ele>367.0</ele><time>2026-05-04T06:52:38.999Z</time></trkpt><trkpt lat="41.809815636889496" lon="19.921439014954526"><ele>369.0</ele><time>2026-05-04T06:52:39.999Z</time></trkpt><trkpt lat="41.80984229620374" lon="19.92163067911646"><ele>371.0</ele><time>2026-05-04T06:52:40.999Z</time></trkpt><trkpt lat="41.809887506567364" lon="19.9217917500689"><ele>373.0</ele><time>2026-05-04T06:52:41.999Z</time></trkpt><trkpt lat="41.80996959470697" lon="19.921923390905373"><ele>373.0</ele><time>2026-05-04T06:52:42.999Z</time></trkpt><trkpt lat="41.810079859697765" lon="19.922023023907897"><ele>373.0</ele><time>2026-05-04T06:52:43.999Z</time></trkpt><trkpt lat="41.810198768701014" lon="19.92207386443435"><ele>373.0</ele><time>2026-05-04T06:52:44.999Z</time></trkpt><trkpt lat="41.81032075758375" lon="19.9220967229723"><ele>373.0</ele><time>2026-05-04T06:52:45.999Z</time></trkpt><trkpt lat="41.8104454472922" lon="19.92211921364378"><ele>373.0</ele><time>2026-05-04T06:52:46.999Z</time></trkpt><trkpt lat="41.81057190608194" lon="19.92215017495302"><ele>373.0</ele><time>2026-05-04T06:52:47.999Z</time></trkpt><trkpt lat="41.81070748281751" lon="19.92218759057046"><ele>373.0</ele><time>2026-05-04T06:52:48.999Z</time></trkpt><trkpt lat="41.81084823854667" lon="19.922223613021956"><ele>373.0</ele><time>2026-05-04T06:52:49.999Z</time></trkpt><trkpt lat="41.81099887060886" lon="19.922261084664193"><ele>376.3333333333333</ele><time>2026-05-04T06:52:50.999Z</time></trkpt><trkpt lat="41.81115599967642" lon="19.92231178598269"><ele>379.6666666666667</ele><time>2026-05-04T06:52:51.999Z</time></trkpt><trkpt lat="41.81131318127892" lon="19.92239929772058"><ele>383.0</ele><time>2026-05-04T06:52:52.999Z</time></trkpt><trkpt lat="41.81147813859928" lon="19.92251762752178"><ele>383.6666666666667</ele><time>2026-05-04T06:52:53.999Z</time></trkpt><trkpt lat="41.811652099129354" lon="19.922634537510998"><ele>384.33333333333337</ele><time>2026-05-04T06:52:54.999Z</time></trkpt><trkpt lat="41.81182570196772" lon="19.92273622958891"><ele>385.0</ele><time>2026-05-04T06:52:55.999Z</time></trkpt><trkpt lat="41.8120059959889" lon="19.922819966501322"><ele>385.0</ele><time>2026-05-04T06:52:56.999Z</time></trkpt><trkpt lat="41.812175669730536" lon="19.92286245304473"><ele>385.0</ele><time>2026-05-04T06:52:57.999Z</time></trkpt><trkpt lat="41.81233128243905" lon="19.922880333294028"><ele>385.0</ele><time>2026-05-04T06:52:58.999Z</time></trkpt><trkpt lat="41.8124569464315" lon="19.92292704724775"><ele>385.0</ele><time>2026-05-04T06:52:59.999Z</time></trkpt><trkpt lat="41.81256985652678" lon="19.92302876175063"><ele>385.0</ele><time>2026-05-04T06:53:00.999Z</time></trkpt><trkpt lat="41.81268207986221" lon="19.92316530834031"><ele>385.0</ele><time>2026-05-04T06:53:01.999Z</time></trkpt><trkpt lat="41.812794299622865" lon="19.92329711677575"><ele>385.0</ele><time>2026-05-04T06:53:03Z</time></trkpt><trkpt lat="41.81287472064895" lon="19.923421918208128"><ele>387.0</ele><time>2026-05-04T06:53:04Z</time></trkpt><trkpt lat="41.8128980413091" lon="19.92356345405441"><ele>389.0</ele><time>2026-05-04T06:53:05Z</time></trkpt><trkpt lat="41.81287720788733" lon="19.923716100171518"><ele>391.0</ele><time>2026-05-04T06:53:06Z</time></trkpt><trkpt lat="41.81280506597549" lon="19.92387072231416"><ele>393.0</ele><time>2026-05-04T06:53:07Z</time></trkpt><trkpt lat="41.812729815112974" lon="19.9240308725179"><ele>393.0</ele><time>2026-05-04T06:53:08Z</time></trkpt><trkpt lat="41.81271705136336" lon="19.92419573672768"><ele>393.0</ele><time>2026-05-04T06:53:09Z</time></trkpt><trkpt lat="41.81275818608124" lon="19.924359346055073"><ele>393.0</ele><time>2026-05-04T06:53:10Z</time></trkpt><trkpt lat="41.81285644884555" lon="19.92452074517526"><ele>393.0</ele><time>2026-05-04T06:53:11Z</time></trkpt><trkpt lat="41.81297765622997" lon="19.924681781697327"><ele>394.33333333333337</ele><time>2026-05-04T06:53:12Z</time></trkpt><trkpt lat="41.81305364458258" lon="19.92488297718635"><ele>395.6666666666667</ele><time>2026-05-04T06:53:13Z</time></trkpt><trkpt lat="41.81308674491707" lon="19.92513506831165"><ele>397.0</ele><time>2026-05-04T06:53:14Z</time></trkpt><trkpt lat="41.81310978682422" lon="19.925385828678323"><ele>397.0</ele><time>2026-05-04T06:53:15Z</time></trkpt><trkpt lat="41.81313659944061" lon="19.925646277690543"><ele>397.0</ele><time>2026-05-04T06:53:16Z</time></trkpt><trkpt lat="41.813172742842994" lon="19.92592114284778"><ele>397.0</ele><time>2026-05-04T06:53:17Z</time></trkpt><trkpt lat="41.81318814205558" lon="19.92618531599591"><ele>396.33333333333337</ele><time>2026-05-04T06:53:18Z</time></trkpt><trkpt lat="41.813163860005055" lon="19.9264133927857"><ele>395.66666666666663</ele><time>2026-05-04T06:53:19Z</time></trkpt><trkpt lat="41.81309838685337" lon="19.92661221810687"><ele>395.0</ele><time>2026-05-04T06:53:20Z</time></trkpt><trkpt lat="41.812995736500426" lon="19.926799411218216"><ele>393.66666666666663</ele><time>2026-05-04T06:53:21Z</time></trkpt><trkpt lat="41.812886245958474" lon="19.927003619631805"><ele>392.33333333333337</ele><time>2026-05-04T06:53:22Z</time></trkpt><trkpt lat="41.81278501233857" lon="19.92722666251357"><ele>391.0</ele><time>2026-05-04T06:53:23Z</time></trkpt><trkpt lat="41.81267590553795" lon="19.927464143233223"><ele>394.0</ele><time>2026-05-04T06:53:24Z</time></trkpt><trkpt lat="41.81256267380017" lon="19.92770085615979"><ele>397.0</ele><time>2026-05-04T06:53:25Z</time></trkpt><trkpt lat="41.81244561726863" lon="19.927942110506287"><ele>400.0</ele><time>2026-05-04T06:53:26Z</time></trkpt><trkpt lat="41.812325018299916" lon="19.92818351718641"><ele>398.0</ele><time>2026-05-04T06:53:27Z</time></trkpt><trkpt lat="41.81221286691911" lon="19.92840558221932"><ele>396.0</ele><time>2026-05-04T06:53:28Z</time></trkpt><trkpt lat="41.8121144806656" lon="19.928584349865258"><ele>394.0</ele><time>2026-05-04T06:53:29Z</time></trkpt><trkpt lat="41.81202392539096" lon="19.928748898120215"><ele>394.0</ele><time>2026-05-04T06:53:30Z</time></trkpt><trkpt lat="41.81193720996672" lon="19.92892288545726"><ele>394.0</ele><time>2026-05-04T06:53:31Z</time></trkpt><trkpt lat="41.81186760619182" lon="19.929118775830933"><ele>394.0</ele><time>2026-05-04T06:53:32Z</time></trkpt><trkpt lat="41.811834213738564" lon="19.929329190259832"><ele>392.0</ele><time>2026-05-04T06:53:33Z</time></trkpt><trkpt lat="41.81184948810134" lon="19.929531215607053"><ele>390.0</ele><time>2026-05-04T06:53:34Z</time></trkpt><trkpt lat="41.81190492345886" lon="19.929725685758264"><ele>388.0</ele><time>2026-05-04T06:53:35Z</time></trkpt><trkpt lat="41.81195609174045" lon="19.929918870575722"><ele>388.6666666666667</ele><time>2026-05-04T06:53:36Z</time></trkpt><trkpt lat="41.81195928866783" lon="19.93012617142872"><ele>389.33333333333337</ele><time>2026-05-04T06:53:37Z</time></trkpt><trkpt lat="41.81191006245333" lon="19.930341637828565"><ele>390.0</ele><time>2026-05-04T06:53:38Z</time></trkpt><trkpt lat="41.81185174216011" lon="19.93055685993499"><ele>391.66666666666663</ele><time>2026-05-04T06:53:39Z</time></trkpt><trkpt lat="41.81182290046266" lon="19.93077146770034"><ele>393.3333333333333</ele><time>2026-05-04T06:53:40Z</time></trkpt><trkpt lat="41.8118388010959" lon="19.930975798867834"><ele>395.0</ele><time>2026-05-04T06:53:41Z</time></trkpt><trkpt lat="41.81190155856017" lon="19.93117106929693"><ele>395.0</ele><time>2026-05-04T06:53:42Z</time></trkpt><trkpt lat="41.811999559820485" lon="19.931365953605933"><ele>395.0</ele><time>2026-05-04T06:53:43Z</time></trkpt><trkpt lat="41.812118946017144" lon="19.931569783329362"><ele>395.0</ele><time>2026-05-04T06:53:44Z</time></trkpt><trkpt lat="41.812240375707894" lon="19.93179364230492"><ele>396.66666666666663</ele><time>2026-05-04T06:53:45Z</time></trkpt><trkpt lat="41.812361744909545" lon="19.932022108405885"><ele>398.33333333333337</ele><time>2026-05-04T06:53:46Z</time></trkpt><trkpt lat="41.81248569713585" lon="19.932254268520023"><ele>400.0</ele><time>2026-05-04T06:53:47Z</time></trkpt><trkpt lat="41.812623756019" lon="19.932477022373845"><ele>404.6666666666667</ele><time>2026-05-04T06:53:48Z</time></trkpt><trkpt lat="41.812788382971775" lon="19.932664514457898"><ele>409.33333333333337</ele><time>2026-05-04T06:53:49Z</time></trkpt><trkpt lat="41.812961739305024" lon="19.93282650888453"><ele>414.0</ele><time>2026-05-04T06:53:50Z</time></trkpt><trkpt lat="41.81311649410236" lon="19.932984294087145"><ele>414.0</ele><time>2026-05-04T06:53:51Z</time></trkpt><trkpt lat="41.81327325797065" lon="19.933135219575167"><ele>414.0</ele><time>2026-05-04T06:53:52Z</time></trkpt><trkpt lat="41.81344597711082" lon="19.93326360669484"><ele>414.0</ele><time>2026-05-04T06:53:53Z</time></trkpt><trkpt lat="41.81363296153702" lon="19.933365439284344"><ele>417.33333333333337</ele><time>2026-05-04T06:53:54Z</time></trkpt><trkpt lat="41.81381463128543" lon="19.93346637596374"><ele>420.6666666666667</ele><time>2026-05-04T06:53:55Z</time></trkpt><trkpt lat="41.81398329190819" lon="19.93356721049497"><ele>424.0</ele><time>2026-05-04T06:53:56Z</time></trkpt><trkpt lat="41.814129786786275" lon="19.93367927732098"><ele>424.0</ele><time>2026-05-04T06:53:57Z</time></trkpt><trkpt lat="41.814266641519765" lon="19.933828508808872"><ele>424.0</ele><time>2026-05-04T06:53:58Z</time></trkpt><trkpt lat="41.814395337193105" lon="19.934006714570028"><ele>424.0</ele><time>2026-05-04T06:53:59Z</time></trkpt><trkpt lat="41.81452128647172" lon="19.934185626959845"><ele>425.6666666666667</ele><time>2026-05-04T06:54:00Z</time></trkpt><trkpt lat="41.81465892199439" lon="19.934343219951156"><ele>427.33333333333337</ele><time>2026-05-04T06:54:01Z</time></trkpt><trkpt lat="41.8148120018825" lon="19.934469729534115"><ele>429.0</ele><time>2026-05-04T06:54:02Z</time></trkpt><trkpt lat="41.81498613154837" lon="19.934564708271985"><ele>425.33333333333337</ele><time>2026-05-04T06:54:03Z</time></trkpt><trkpt lat="41.81516374701234" lon="19.934649814217835"><ele>421.6666666666667</ele><time>2026-05-04T06:54:04Z</time></trkpt><trkpt lat="41.81532074868157" lon="19.934742154980565"><ele>418.0</ele><time>2026-05-04T06:54:05Z</time></trkpt><trkpt lat="41.81544561901048" lon="19.93486505359527"><ele>418.0</ele><time>2026-05-04T06:54:06Z</time></trkpt><trkpt lat="41.81555549281669" lon="19.935024211803583"><ele>418.0</ele><time>2026-05-04T06:54:07Z</time></trkpt><trkpt lat="41.81564568821083" lon="19.93520639850045"><ele>418.0</ele><time>2026-05-04T06:54:08Z</time></trkpt><trkpt lat="41.81573333156054" lon="19.935367460474733"><ele>419.25</ele><time>2026-05-04T06:54:09Z</time></trkpt><trkpt lat="41.81583445874754" lon="19.93548402505659"><ele>420.5</ele><time>2026-05-04T06:54:10Z</time></trkpt><trkpt lat="41.8159489048171" lon="19.935560031830498"><ele>421.75</ele><time>2026-05-04T06:54:11Z</time></trkpt><trkpt lat="41.81606839258492" lon="19.935614406028826"><ele>423.0</ele><time>2026-05-04T06:54:12Z</time></trkpt><trkpt lat="41.81618422305365" lon="19.935676156472"><ele>423.5</ele><time>2026-05-04T06:54:13Z</time></trkpt><trkpt lat="41.81629817776077" lon="19.93576173026864"><ele>424.0</ele><time>2026-05-04T06:54:14Z</time></trkpt><trkpt lat="41.816399376931" lon="19.93587032609593"><ele>424.5</ele><time>2026-05-04T06:54:15Z</time></trkpt><trkpt lat="41.816478327506594" lon="19.936005241253557"><ele>425.0</ele><time>2026-05-04T06:54:16Z</time></trkpt><trkpt lat="41.81653861285551" lon="19.93610196657007"><ele>424.99999999999994</ele><time>2026-05-04T06:54:17Z</time></trkpt><trkpt lat="41.81661716894402" lon="19.936121336421348"><ele>425.0</ele><time>2026-05-04T06:54:18Z</time></trkpt><trkpt lat="41.81668863568334" lon="19.93609130553658"><ele>425.0</ele><time>2026-05-04T06:54:19Z</time></trkpt><trkpt lat="41.81674141907179" lon="19.936008823894237"><ele>425.0</ele><time>2026-05-04T06:54:20Z</time></trkpt><trkpt lat="41.81676151007399" lon="19.93588998434261"><ele>424.99999999999994</ele><time>2026-05-04T06:54:21Z</time></trkpt><trkpt lat="41.816757962734535" lon="19.9357564988727"><ele>425.0</ele><time>2026-05-04T06:54:22Z</time></trkpt><trkpt lat="41.816735145896324" lon="19.935600731875436"><ele>425.0</ele><time>2026-05-04T06:54:23Z</time></trkpt><trkpt lat="41.816708400939284" lon="19.935431591484246"><ele>425.0</ele><time>2026-05-04T06:54:23.999Z</time></trkpt><trkpt lat="41.81668392680495" lon="19.93524191694332"><ele>425.0</ele><time>2026-05-04T06:54:24.999Z</time></trkpt><trkpt lat="41.81666102004563" lon="19.935044321770825"><ele>425.0</ele><time>2026-05-04T06:54:25.999Z</time></trkpt><trkpt lat="41.81661745418899" lon="19.93486378613446"><ele>426.0</ele><time>2026-05-04T06:54:26.999Z</time></trkpt><trkpt lat="41.816559894419235" lon="19.934694627532892"><ele>427.0</ele><time>2026-05-04T06:54:27.999Z</time></trkpt><trkpt lat="41.81652396351402" lon="19.934543204791204"><ele>428.0</ele><time>2026-05-04T06:54:28.999Z</time></trkpt><trkpt lat="41.816519311477286" lon="19.934395446102116"><ele>429.0</ele><time>2026-05-04T06:54:29.999Z</time></trkpt><trkpt lat="41.81654069435227" lon="19.934273558378305"><ele>429.0</ele><time>2026-05-04T06:54:30.999Z</time></trkpt><trkpt lat="41.81662676364373" lon="19.934159905023535"><ele>429.0</ele><time>2026-05-04T06:54:32.999Z</time></trkpt><trkpt lat="41.81669723632728" lon="19.93411319505929"><ele>429.0</ele><time>2026-05-04T06:54:33.999Z</time></trkpt><trkpt lat="41.816788474879864" lon="19.934066126251793"><ele>429.0</ele><time>2026-05-04T06:54:34.999Z</time></trkpt><trkpt lat="41.81690451328078" lon="19.934027240707703"><ele>429.0</ele><time>2026-05-04T06:54:35.999Z</time></trkpt><trkpt lat="41.8170326515756" lon="19.934018609388303"><ele>431.6</ele><time>2026-05-04T06:54:36.999Z</time></trkpt><trkpt lat="41.81716517809029" lon="19.934059462922402"><ele>434.2</ele><time>2026-05-04T06:54:37.999Z</time></trkpt><trkpt lat="41.81728726572945" lon="19.934131764695977"><ele>436.80000000000007</ele><time>2026-05-04T06:54:38.999Z</time></trkpt><trkpt lat="41.81737890466871" lon="19.934170212674825"><ele>439.40000000000003</ele><time>2026-05-04T06:54:39.999Z</time></trkpt><trkpt lat="41.817443902801834" lon="19.934159767331536"><ele>442.0</ele><time>2026-05-04T06:54:40.999Z</time></trkpt><trkpt lat="41.81750549053069" lon="19.934109122597608"><ele>442.0</ele><time>2026-05-04T06:54:41.999Z</time></trkpt><trkpt lat="41.81752996560908" lon="19.934013254823537"><ele>442.00000000000006</ele><time>2026-05-04T06:54:42.999Z</time></trkpt><trkpt lat="41.817524295897655" lon="19.93389939599973"><ele>442.00000000000006</ele><time>2026-05-04T06:54:43.999Z</time></trkpt><trkpt lat="41.81748618188762" lon="19.933789031055724"><ele>442.0</ele><time>2026-05-04T06:54:44.999Z</time></trkpt><trkpt lat="41.8174228060785" lon="19.93367401447062"><ele>442.0</ele><time>2026-05-04T06:54:45.999Z</time></trkpt><trkpt lat="41.817360215952135" lon="19.933545774688938"><ele>442.0</ele><time>2026-05-04T06:54:46.999Z</time></trkpt><trkpt lat="41.817326734490734" lon="19.93340242823778"><ele>442.0</ele><time>2026-05-04T06:54:47.999Z</time></trkpt><trkpt lat="41.817298245958874" lon="19.933250481295403"><ele>442.0</ele><time>2026-05-04T06:54:48.999Z</time></trkpt><trkpt lat="41.81725691615041" lon="19.933100864995833"><ele>442.0</ele><time>2026-05-04T06:54:49.999Z</time></trkpt><trkpt lat="41.81719159082246" lon="19.932979721423877"><ele>442.75</ele><time>2026-05-04T06:54:50.999Z</time></trkpt><trkpt lat="41.81709649233735" lon="19.932889299635605"><ele>443.5</ele><time>2026-05-04T06:54:51.999Z</time></trkpt><trkpt lat="41.81697868308411" lon="19.932782213246288"><ele>444.25</ele><time>2026-05-04T06:54:52.999Z</time></trkpt><trkpt lat="41.816845139075504" lon="19.932659973517204"><ele>445.0</ele><time>2026-05-04T06:54:53.999Z</time></trkpt><trkpt lat="41.8167052716901" lon="19.932556322680323"><ele>444.2</ele><time>2026-05-04T06:54:54.999Z</time></trkpt><trkpt lat="41.81657364589805" lon="19.93247482862298"><ele>443.4</ele><time>2026-05-04T06:54:55.999Z</time></trkpt><trkpt lat="41.81647854113377" lon="19.932391897149685"><ele>442.6</ele><time>2026-05-04T06:54:56.999Z</time></trkpt><trkpt lat="41.81642812025354" lon="19.932299916607874"><ele>441.8</ele><time>2026-05-04T06:54:57.999Z</time></trkpt><trkpt lat="41.81642689876051" lon="19.93218647725199"><ele>441.0</ele><time>2026-05-04T06:54:58.999Z</time></trkpt><trkpt lat="41.816454134559976" lon="19.932034413838696"><ele>441.0</ele><time>2026-05-04T06:54:59.999Z</time></trkpt><trkpt lat="41.8165156876271" lon="19.93186959322081"><ele>441.0</ele><time>2026-05-04T06:55:00.999Z</time></trkpt><trkpt lat="41.81661897702504" lon="19.931731214600724"><ele>441.0</ele><time>2026-05-04T06:55:01.999Z</time></trkpt><trkpt lat="41.81672577870832" lon="19.93166287249269"><ele>441.0</ele><time>2026-05-04T06:55:02.999Z</time></trkpt><trkpt lat="41.816859055072406" lon="19.931647738354066"><ele>441.5</ele><time>2026-05-04T06:55:03.999Z</time></trkpt><trkpt lat="41.816988483129165" lon="19.93167572703045"><ele>442.0</ele><time>2026-05-04T06:55:04.999Z</time></trkpt><trkpt lat="41.817107289382086" lon="19.931767933941856"><ele>442.5</ele><time>2026-05-04T06:55:05.999Z</time></trkpt><trkpt lat="41.81721875094932" lon="19.93190975546895"><ele>443.0</ele><time>2026-05-04T06:55:06.999Z</time></trkpt><trkpt lat="41.817332736571124" lon="19.932078232793568"><ele>445.3333333333333</ele><time>2026-05-04T06:55:08Z</time></trkpt><trkpt lat="41.81745014798805" lon="19.93222711434108"><ele>447.66666666666663</ele><time>2026-05-04T06:55:09Z</time></trkpt><trkpt lat="41.81757981511132" lon="19.932359483051027"><ele>450.0</ele><time>2026-05-04T06:55:10Z</time></trkpt><trkpt lat="41.81772430624707" lon="19.93248394530698"><ele>453.33333333333337</ele><time>2026-05-04T06:55:11Z</time></trkpt><trkpt lat="41.81786938462883" lon="19.932601106885055"><ele>456.6666666666667</ele><time>2026-05-04T06:55:12Z</time></trkpt><trkpt lat="41.81801468865919" lon="19.9327191828059"><ele>460.0</ele><time>2026-05-04T06:55:13Z</time></trkpt><trkpt lat="41.81817613880276" lon="19.932855324170085"><ele>460.0</ele><time>2026-05-04T06:55:14Z</time></trkpt><trkpt lat="41.81833560973256" lon="19.93298440399332"><ele>460.0</ele><time>2026-05-04T06:55:15Z</time></trkpt><trkpt lat="41.8184884795663" lon="19.933097368284912"><ele>460.0</ele><time>2026-05-04T06:55:16Z</time></trkpt><trkpt lat="41.818641504930305" lon="19.93319731707446"><ele>460.6666666666667</ele><time>2026-05-04T06:55:17Z</time></trkpt><trkpt lat="41.81879479046359" lon="19.933276107288616"><ele>461.33333333333337</ele><time>2026-05-04T06:55:18Z</time></trkpt><trkpt lat="41.818939700547965" lon="19.93335100522247"><ele>462.0</ele><time>2026-05-04T06:55:19Z</time></trkpt><trkpt lat="41.81907498592276" lon="19.933426949361866"><ele>463.75</ele><time>2026-05-04T06:55:20Z</time></trkpt><trkpt lat="41.819196991158194" lon="19.93348950624653"><ele>465.5</ele><time>2026-05-04T06:55:21Z</time></trkpt><trkpt lat="41.819320276778875" lon="19.933528602252434"><ele>467.25</ele><time>2026-05-04T06:55:22Z</time></trkpt><trkpt lat="41.81944222664271" lon="19.933540895807575"><ele>469.0</ele><time>2026-05-04T06:55:23Z</time></trkpt><trkpt lat="41.819563498897914" lon="19.933547858290435"><ele>470.5</ele><time>2026-05-04T06:55:24Z</time></trkpt><trkpt lat="41.81968160484817" lon="19.933582896115848"><ele>472.0</ele><time>2026-05-04T06:55:25Z</time></trkpt><trkpt lat="41.819797975703395" lon="19.93365440855313"><ele>473.5</ele><time>2026-05-04T06:55:26Z</time></trkpt><trkpt lat="41.8199168927" lon="19.93373422656127"><ele>475.0</ele><time>2026-05-04T06:55:27Z</time></trkpt><trkpt lat="41.82003919491015" lon="19.933808952727833"><ele>476.0</ele><time>2026-05-04T06:55:28Z</time></trkpt><trkpt lat="41.820159217678885" lon="19.93387485787998"><ele>477.0</ele><time>2026-05-04T06:55:29Z</time></trkpt><trkpt lat="41.82025793186142" lon="19.933937779026927"><ele>478.0</ele><time>2026-05-04T06:55:30Z</time></trkpt><trkpt lat="41.82033508890233" lon="19.93401571457965"><ele>479.0</ele><time>2026-05-04T06:55:31Z</time></trkpt><trkpt lat="41.820390479792984" lon="19.934138564589436"><ele>480.0</ele><time>2026-05-04T06:55:32Z</time></trkpt><trkpt lat="41.8204322858379" lon="19.93428563429526"><ele>480.0</ele><time>2026-05-04T06:55:33Z</time></trkpt><trkpt lat="41.820455026633105" lon="19.934451622302753"><ele>480.0</ele><time>2026-05-04T06:55:34Z</time></trkpt><trkpt lat="41.820489642377645" lon="19.934614789795578"><ele>480.0</ele><time>2026-05-04T06:55:35Z</time></trkpt><trkpt lat="41.82055307266593" lon="19.934787199812263"><ele>480.0</ele><time>2026-05-04T06:55:36Z</time></trkpt><trkpt lat="41.82064224881746" lon="19.934965375783275"><ele>484.0</ele><time>2026-05-04T06:55:37Z</time></trkpt><trkpt lat="41.820739108453466" lon="19.935143117125396"><ele>488.0</ele><time>2026-05-04T06:55:38Z</time></trkpt><trkpt lat="41.82084071924612" lon="19.935314215743105"><ele>492.0</ele><time>2026-05-04T06:55:39Z</time></trkpt><trkpt lat="41.820935674759674" lon="19.935459132604503"><ele>491.25</ele><time>2026-05-04T06:55:40Z</time></trkpt><trkpt lat="41.821027399088756" lon="19.935578042070563"><ele>490.5</ele><time>2026-05-04T06:55:41Z</time></trkpt><trkpt lat="41.821136938046244" lon="19.935670971341366"><ele>489.75</ele><time>2026-05-04T06:55:42Z</time></trkpt><trkpt lat="41.821279350555976" lon="19.935739569190762"><ele>489.0</ele><time>2026-05-04T06:55:43Z</time></trkpt><trkpt lat="41.821444880796626" lon="19.935771532967667"><ele>489.0</ele><time>2026-05-04T06:55:44Z</time></trkpt><trkpt lat="41.821611290143615" lon="19.935773763371916"><ele>489.0</ele><time>2026-05-04T06:55:45Z</time></trkpt><trkpt lat="41.82178295718603" lon="19.935761914830593"><ele>489.0</ele><time>2026-05-04T06:55:46Z</time></trkpt><trkpt lat="41.82194439799753" lon="19.93576275157776"><ele>488.0</ele><time>2026-05-04T06:55:47Z</time></trkpt><trkpt lat="41.82209853571595" lon="19.935813533019473"><ele>487.0</ele><time>2026-05-04T06:55:48Z</time></trkpt><trkpt lat="41.82225851806213" lon="19.93588800497848"><ele>486.0</ele><time>2026-05-04T06:55:49Z</time></trkpt><trkpt lat="41.82243699740668" lon="19.935963495773436"><ele>493.0</ele><time>2026-05-04T06:55:50Z</time></trkpt><trkpt lat="41.822566891349624" lon="19.93605404580545"><ele>500.0</ele><time>2026-05-04T06:55:51Z</time></trkpt><trkpt lat="41.82266953791981" lon="19.93618734789477"><ele>507.0</ele><time>2026-05-04T06:55:52Z</time></trkpt><trkpt lat="41.82277856294849" lon="19.936327674005426"><ele>514.0</ele><time>2026-05-04T06:55:53Z</time></trkpt><trkpt lat="41.82289291961868" lon="19.936417157076956"><ele>514.0</ele><time>2026-05-04T06:55:54Z</time></trkpt><trkpt lat="41.822998992437554" lon="19.936446166513896"><ele>514.0</ele><time>2026-05-04T06:55:55Z</time></trkpt><trkpt lat="41.82310581816931" lon="19.936425499394836"><ele>514.0</ele><time>2026-05-04T06:55:56Z</time></trkpt><trkpt lat="41.82319941490627" lon="19.936345179546564"><ele>514.0</ele><time>2026-05-04T06:55:57Z</time></trkpt><trkpt lat="41.823291392704334" lon="19.936231872375263"><ele>514.0</ele><time>2026-05-04T06:55:58Z</time></trkpt><trkpt lat="41.82341490582694" lon="19.936105582946503"><ele>514.0</ele><time>2026-05-04T06:55:59Z</time></trkpt><trkpt lat="41.823559318270256" lon="19.93600290753041"><ele>514.0</ele><time>2026-05-04T06:56:00Z</time></trkpt><trkpt lat="41.823710979219555" lon="19.935937174375738"><ele>513.5</ele><time>2026-05-04T06:56:01Z</time></trkpt><trkpt lat="41.8238729551461" lon="19.93590468852394"><ele>513.0</ele><time>2026-05-04T06:56:02Z</time></trkpt><trkpt lat="41.824033690094296" lon="19.935900731439673"><ele>512.5</ele><time>2026-05-04T06:56:03Z</time></trkpt><trkpt lat="41.82413357708342" lon="19.93591410276413"><ele>512.0</ele><time>2026-05-04T06:56:04Z</time></trkpt><trkpt lat="41.82419533404531" lon="19.9359504907877"><ele>512.0</ele><time>2026-05-04T06:56:05Z</time></trkpt><trkpt lat="41.824250850151074" lon="19.936019786897198"><ele>512.0</ele><time>2026-05-04T06:56:06Z</time></trkpt><trkpt lat="41.82427843083295" lon="19.936129541800522"><ele>512.0</ele><time>2026-05-04T06:56:07Z</time></trkpt><trkpt lat="41.824276705323356" lon="19.93627749548761"><ele>512.0</ele><time>2026-05-04T06:56:08Z</time></trkpt><trkpt lat="41.82424706175651" lon="19.936468567830556"><ele>512.0</ele><time>2026-05-04T06:56:09Z</time></trkpt><trkpt lat="41.824205297844436" lon="19.936674015378344"><ele>511.66666666666663</ele><time>2026-05-04T06:56:10Z</time></trkpt><trkpt lat="41.8241574285256" lon="19.936894368546962"><ele>511.33333333333337</ele><time>2026-05-04T06:56:11Z</time></trkpt><trkpt lat="41.82410219470626" lon="19.937139478498274"><ele>511.0</ele><time>2026-05-04T06:56:12Z</time></trkpt><trkpt lat="41.824070117409285" lon="19.937366106933545"><ele>512.3333333333334</ele><time>2026-05-04T06:56:13Z</time></trkpt><trkpt lat="41.82408347182255" lon="19.937577953228836"><ele>513.6666666666666</ele><time>2026-05-04T06:56:14Z</time></trkpt><trkpt lat="41.82410582005406" lon="19.937799331021928"><ele>515.0</ele><time>2026-05-04T06:56:15Z</time></trkpt><trkpt lat="41.82411198842078" lon="19.938045605816974"><ele>515.0</ele><time>2026-05-04T06:56:16Z</time></trkpt><trkpt lat="41.824097121425396" lon="19.938244632779902"><ele>515.0</ele><time>2026-05-04T06:56:17Z</time></trkpt><trkpt lat="41.82406103622583" lon="19.938389648014468"><ele>515.0</ele><time>2026-05-04T06:56:18Z</time></trkpt><trkpt lat="41.82400271179292" lon="19.938478767845584"><ele>515.0</ele><time>2026-05-04T06:56:19Z</time></trkpt><trkpt lat="41.823906322033984" lon="19.938536938587443"><ele>516.5</ele><time>2026-05-04T06:56:20Z</time></trkpt><trkpt lat="41.823762681746224" lon="19.938575955730556"><ele>518.0</ele><time>2026-05-04T06:56:21Z</time></trkpt><trkpt lat="41.823618870367575" lon="19.938659185007438"><ele>519.5</ele><time>2026-05-04T06:56:22Z</time></trkpt><trkpt lat="41.823540929351914" lon="19.938771789294787"><ele>521.0</ele><time>2026-05-04T06:56:23Z</time></trkpt><trkpt lat="41.823518894242135" lon="19.938905030462426"><ele>521.0</ele><time>2026-05-04T06:56:24Z</time></trkpt><trkpt lat="41.823541069266696" lon="19.93904018060156"><ele>521.0</ele><time>2026-05-04T06:56:25Z</time></trkpt><trkpt lat="41.8236086575357" lon="19.939155826964726"><ele>521.0</ele><time>2026-05-04T06:56:26Z</time></trkpt><trkpt lat="41.82371323439918" lon="19.93924988839192"><ele>521.0</ele><time>2026-05-04T06:56:27Z</time></trkpt><trkpt lat="41.823813741540654" lon="19.939307708319454"><ele>521.0</ele><time>2026-05-04T06:56:28Z</time></trkpt><trkpt lat="41.823877698249554" lon="19.939340022809844"><ele>521.0</ele><time>2026-05-04T06:56:29Z</time></trkpt><trkpt lat="41.823938453481325" lon="19.93931300728042"><ele>521.0</ele><time>2026-05-04T06:57:34Z</time></trkpt><trkpt lat="41.823875357483296" lon="19.93930436299694"><ele>521.0</ele><time>2026-05-04T06:57:50.999Z</time></trkpt><trkpt lat="41.823804731782566" lon="19.939274861702092"><ele>521.0</ele><time>2026-05-04T06:57:56.999Z</time></trkpt><trkpt lat="41.823745393653255" lon="19.939228620021776"><ele>521.0</ele><time>2026-05-04T06:58:13.999Z</time></trkpt><trkpt lat="41.8236858649213" lon="19.939172698275044"><ele>521.0</ele><time>2026-05-04T06:58:24.999Z</time></trkpt><trkpt lat="41.82373924639507" lon="19.939227472149575"><ele>521.0</ele><time>2026-05-04T06:58:50.999Z</time></trkpt><trkpt lat="41.82380082142083" lon="19.939275023317904"><ele>523.3333333333333</ele><time>2026-05-04T06:58:57.999Z</time></trkpt><trkpt lat="41.823863946485226" lon="19.939306618085457"><ele>525.6666666666666</ele><time>2026-05-04T06:59:04.999Z</time></trkpt><trkpt lat="41.8239296012118" lon="19.939334879205433"><ele>528.0</ele><time>2026-05-04T06:59:12.999Z</time></trkpt><trkpt lat="41.82404050515655" lon="19.939449770152482"><ele>530.3333333333334</ele><time>2026-05-04T07:00:15.999Z</time></trkpt><trkpt lat="41.824106284719946" lon="19.93951262823674"><ele>532.6666666666667</ele><time>2026-05-04T07:00:16.999Z</time></trkpt><trkpt lat="41.82417947919031" lon="19.93957380641172"><ele>535.0</ele><time>2026-05-04T07:00:17.999Z</time></trkpt><trkpt lat="41.824239164752456" lon="19.939632081416885"><ele>535.0</ele><time>2026-05-04T07:00:18.999Z</time></trkpt><trkpt lat="41.824295378457805" lon="19.939701839346252"><ele>535.0</ele><time>2026-05-04T07:00:19.999Z</time></trkpt><trkpt lat="41.8243529182519" lon="19.93978435161945"><ele>535.0</ele><time>2026-05-04T07:00:20.999Z</time></trkpt><trkpt lat="41.82440297512549" lon="19.93987454487687"><ele>535.0</ele><time>2026-05-04T07:00:21.999Z</time></trkpt><trkpt lat="41.82445754673401" lon="19.939990536320042"><ele>535.0</ele><time>2026-05-04T07:00:22.999Z</time></trkpt><trkpt lat="41.82450711236459" lon="19.940118891658354"><ele>532.25</ele><time>2026-05-04T07:00:23.999Z</time></trkpt><trkpt lat="41.82456229526158" lon="19.940249704114233"><ele>529.5</ele><time>2026-05-04T07:00:24.999Z</time></trkpt><trkpt lat="41.82463443937077" lon="19.940376824831123"><ele>526.75</ele><time>2026-05-04T07:00:25.999Z</time></trkpt><trkpt lat="41.82472346983802" lon="19.94049207887168"><ele>524.0</ele><time>2026-05-04T07:00:26.999Z</time></trkpt><trkpt lat="41.82483018123397" lon="19.940590510922316"><ele>524.0</ele><time>2026-05-04T07:00:27.999Z</time></trkpt><trkpt lat="41.824941349048686" lon="19.94067942858012"><ele>524.0</ele><time>2026-05-04T07:00:28.999Z</time></trkpt><trkpt lat="41.82505101696671" lon="19.940753229146566"><ele>524.0</ele><time>2026-05-04T07:00:29.999Z</time></trkpt><trkpt lat="41.825168870837324" lon="19.940812656697826"><ele>524.0</ele><time>2026-05-04T07:00:30.999Z</time></trkpt><trkpt lat="41.82529106232024" lon="19.940868187279914"><ele>526.5</ele><time>2026-05-04T07:00:31.999Z</time></trkpt><trkpt lat="41.825418063612524" lon="19.940926320106236"><ele>529.0</ele><time>2026-05-04T07:00:32.999Z</time></trkpt><trkpt lat="41.825540409504214" lon="19.941008654694134"><ele>531.5</ele><time>2026-05-04T07:00:33.999Z</time></trkpt><trkpt lat="41.82565832636726" lon="19.941134467868462"><ele>534.0</ele><time>2026-05-04T07:00:34.999Z</time></trkpt><trkpt lat="41.82576947820646" lon="19.941292181944245"><ele>534.0</ele><time>2026-05-04T07:00:35.999Z</time></trkpt><trkpt lat="41.82585995934897" lon="19.94147187927664"><ele>534.0</ele><time>2026-05-04T07:00:36.999Z</time></trkpt><trkpt lat="41.825929543311446" lon="19.941668673492472"><ele>534.0</ele><time>2026-05-04T07:00:37.999Z</time></trkpt><trkpt lat="41.825982714361956" lon="19.941871822341128"><ele>536.6666666666666</ele><time>2026-05-04T07:00:38.999Z</time></trkpt><trkpt lat="41.82601804134508" lon="19.942073443093133"><ele>539.3333333333333</ele><time>2026-05-04T07:00:39.999Z</time></trkpt><trkpt lat="41.826047690065735" lon="19.942271598321636"><ele>542.0</ele><time>2026-05-04T07:00:40.999Z</time></trkpt><trkpt lat="41.826064063989634" lon="19.942473761578643"><ele>547.6666666666666</ele><time>2026-05-04T07:00:41.999Z</time></trkpt><trkpt lat="41.826063234472855" lon="19.942677827046378"><ele>553.3333333333334</ele><time>2026-05-04T07:00:42.999Z</time></trkpt><trkpt lat="41.82605382738599" lon="19.942888167108173"><ele>559.0</ele><time>2026-05-04T07:00:43.999Z</time></trkpt><trkpt lat="41.82603322132205" lon="19.943097118063715"><ele>559.0</ele><time>2026-05-04T07:00:44.999Z</time></trkpt><trkpt lat="41.825994773937985" lon="19.94330221135411"><ele>559.0</ele><time>2026-05-04T07:00:45.999Z</time></trkpt><trkpt lat="41.82594981542158" lon="19.943476095644698"><ele>559.0</ele><time>2026-05-04T07:00:46.999Z</time></trkpt><trkpt lat="41.82593357757984" lon="19.943613028650915"><ele>559.0</ele><time>2026-05-04T07:00:47.999Z</time></trkpt><trkpt lat="41.82596526330016" lon="19.943743925528135"><ele>562.5</ele><time>2026-05-04T07:00:48.999Z</time></trkpt><trkpt lat="41.826012110901075" lon="19.943902885254413"><ele>566.0</ele><time>2026-05-04T07:00:49.999Z</time></trkpt><trkpt lat="41.82603920376397" lon="19.94407586341998"><ele>569.5</ele><time>2026-05-04T07:00:50.999Z</time></trkpt><trkpt lat="41.826056865740235" lon="19.944244269890394"><ele>573.0</ele><time>2026-05-04T07:00:51.999Z</time></trkpt><trkpt lat="41.82606935099465" lon="19.944386621993736"><ele>573.3333333333334</ele><time>2026-05-04T07:00:52.999Z</time></trkpt><trkpt lat="41.82608175048747" lon="19.94449791390796"><ele>573.6666666666666</ele><time>2026-05-04T07:00:53.999Z</time></trkpt><trkpt lat="41.82609785898842" lon="19.94458666131196"><ele>574.0</ele><time>2026-05-04T07:00:54.999Z</time></trkpt><trkpt lat="41.826105959217294" lon="19.94469656439229"><ele>574.3333333333333</ele><time>2026-05-04T07:01:47Z</time></trkpt><trkpt lat="41.826115148753" lon="19.944855792370404"><ele>574.6666666666666</ele><time>2026-05-04T07:01:49Z</time></trkpt><trkpt lat="41.82612238529214" lon="19.944964067060678"><ele>575.0</ele><time>2026-05-04T07:01:50Z</time></trkpt><trkpt lat="41.82614183845896" lon="19.945088378143904"><ele>573.0</ele><time>2026-05-04T07:01:51Z</time></trkpt><trkpt lat="41.82618576807993" lon="19.945192052874706"><ele>571.0</ele><time>2026-05-04T07:01:52Z</time></trkpt><trkpt lat="41.82625606345816" lon="19.945295538637573"><ele>569.0</ele><time>2026-05-04T07:01:53Z</time></trkpt><trkpt lat="41.8263417194107" lon="19.945376941850594"><ele>567.0</ele><time>2026-05-04T07:01:54Z</time></trkpt><trkpt lat="41.82645719192232" lon="19.945424475360102"><ele>565.0</ele><time>2026-05-04T07:01:55Z</time></trkpt><trkpt lat="41.82658724232306" lon="19.945454190795893"><ele>565.0</ele><time>2026-05-04T07:01:56Z</time></trkpt><trkpt lat="41.8266959597556" lon="19.945492803815135"><ele>565.0</ele><time>2026-05-04T07:01:57Z</time></trkpt><trkpt lat="41.8267794955681" lon="19.945560701789763"><ele>565.0</ele><time>2026-05-04T07:01:58Z</time></trkpt><trkpt lat="41.826825302115985" lon="19.9456498053367"><ele>565.0</ele><time>2026-05-04T07:01:59Z</time></trkpt><trkpt lat="41.8268494181917" lon="19.945776135059862"><ele>565.0</ele><time>2026-05-04T07:02:00Z</time></trkpt><trkpt lat="41.82683314099197" lon="19.945910719557823"><ele>563.6</ele><time>2026-05-04T07:02:01Z</time></trkpt><trkpt lat="41.82680986093854" lon="19.94605683014273"><ele>562.2</ele><time>2026-05-04T07:02:02Z</time></trkpt><trkpt lat="41.82677197454918" lon="19.94621704679353"><ele>560.8</ele><time>2026-05-04T07:02:03Z</time></trkpt><trkpt lat="41.826758075252975" lon="19.94635598435585"><ele>559.4</ele><time>2026-05-04T07:02:04Z</time></trkpt><trkpt lat="41.82679180500692" lon="19.946467100565457"><ele>558.0</ele><time>2026-05-04T07:02:05Z</time></trkpt><trkpt lat="41.826874199141706" lon="19.946545219449245"><ele>562.5</ele><time>2026-05-04T07:02:06Z</time></trkpt><trkpt lat="41.826987025451395" lon="19.946578856058846"><ele>567.0</ele><time>2026-05-04T07:02:07Z</time></trkpt><trkpt lat="41.827115902304584" lon="19.946574709083375"><ele>571.5</ele><time>2026-05-04T07:02:08Z</time></trkpt><trkpt lat="41.827259729151876" lon="19.946539606461"><ele>576.0</ele><time>2026-05-04T07:02:09Z</time></trkpt><trkpt lat="41.82740460974603" lon="19.946499236148213"><ele>576.0</ele><time>2026-05-04T07:02:10Z</time></trkpt><trkpt lat="41.82754363327127" lon="19.946464288275347"><ele>576.0</ele><time>2026-05-04T07:02:11Z</time></trkpt><trkpt lat="41.8276539498543" lon="19.94642207677016"><ele>576.0</ele><time>2026-05-04T07:02:12Z</time></trkpt><trkpt lat="41.82773822694274" lon="19.946357318331916"><ele>576.0</ele><time>2026-05-04T07:02:13Z</time></trkpt><trkpt lat="41.827776442585396" lon="19.946265840027337"><ele>576.0</ele><time>2026-05-04T07:02:14Z</time></trkpt><trkpt lat="41.827766616946676" lon="19.946157265315176"><ele>578.0</ele><time>2026-05-04T07:02:15Z</time></trkpt><trkpt lat="41.82770746857548" lon="19.946024053483868"><ele>580.0</ele><time>2026-05-04T07:02:16Z</time></trkpt><trkpt lat="41.82763933439591" lon="19.945868683666905"><ele>582.0</ele><time>2026-05-04T07:02:17Z</time></trkpt><trkpt lat="41.82762486371579" lon="19.945755463422994"><ele>584.0</ele><time>2026-05-04T07:02:18Z</time></trkpt><trkpt lat="41.82766768840517" lon="19.945670748658063"><ele>586.0</ele><time>2026-05-04T07:02:19Z</time></trkpt><trkpt lat="41.82773459767264" lon="19.945619666053656"><ele>587.8</ele><time>2026-05-04T07:02:20Z</time></trkpt><trkpt lat="41.827820199866345" lon="19.945607027129114"><ele>589.6</ele><time>2026-05-04T07:02:21Z</time></trkpt><trkpt lat="41.82791431647919" lon="19.945649901180943"><ele>591.4</ele><time>2026-05-04T07:02:22Z</time></trkpt><trkpt lat="41.82797594853763" lon="19.945739679815258"><ele>593.2</ele><time>2026-05-04T07:02:23Z</time></trkpt><trkpt lat="41.82800018442048" lon="19.945870276562218"><ele>595.0</ele><time>2026-05-04T07:02:24Z</time></trkpt><trkpt lat="41.827998897058485" lon="19.946035809687167"><ele>595.0</ele><time>2026-05-04T07:02:25Z</time></trkpt><trkpt lat="41.82799048194374" lon="19.94621538818704"><ele>595.0</ele><time>2026-05-04T07:02:26Z</time></trkpt><trkpt lat="41.82800947310403" lon="19.946396065717664"><ele>595.0</ele><time>2026-05-04T07:02:27Z</time></trkpt><trkpt lat="41.82807254848966" lon="19.946564657781096"><ele>595.0</ele><time>2026-05-04T07:02:28Z</time></trkpt><trkpt lat="41.82815618630745" lon="19.946693182124932"><ele>596.25</ele><time>2026-05-04T07:02:29Z</time></trkpt><trkpt lat="41.82826568944528" lon="19.946772846712264"><ele>597.5</ele><time>2026-05-04T07:02:30Z</time></trkpt><trkpt lat="41.82837667752515" lon="19.946785776190342"><ele>598.75</ele><time>2026-05-04T07:02:31Z</time></trkpt><trkpt lat="41.828493870339194" lon="19.946730912909697"><ele>600.0</ele><time>2026-05-04T07:02:32Z</time></trkpt><trkpt lat="41.828616775741864" lon="19.946685642430012"><ele>600.0</ele><time>2026-05-04T07:02:33Z</time></trkpt><trkpt lat="41.8287379560578" lon="19.946712265762237"><ele>600.0</ele><time>2026-05-04T07:02:34Z</time></trkpt><trkpt lat="41.828840123489194" lon="19.946806035517334"><ele>600.0</ele><time>2026-05-04T07:02:35Z</time></trkpt><trkpt lat="41.828924531743056" lon="19.946917736052182"><ele>600.0</ele><time>2026-05-04T07:02:36Z</time></trkpt><trkpt lat="41.8290046014041" lon="19.946980976284653"><ele>600.0</ele><time>2026-05-04T07:02:37Z</time></trkpt><trkpt lat="41.829086590158745" lon="19.946957544745654"><ele>600.0</ele><time>2026-05-04T07:02:38Z</time></trkpt><trkpt lat="41.829162911590075" lon="19.94686104993034"><ele>600.0</ele><time>2026-05-04T07:02:39Z</time></trkpt><trkpt lat="41.82920983631494" lon="19.946717229665126"><ele>600.0</ele><time>2026-05-04T07:02:40Z</time></trkpt><trkpt lat="41.82924753171393" lon="19.946560838840576"><ele>600.0</ele><time>2026-05-04T07:02:41Z</time></trkpt><trkpt lat="41.82929191484888" lon="19.946460844325156"><ele>599.6666666666666</ele><time>2026-05-04T07:02:42Z</time></trkpt><trkpt lat="41.82936504645818" lon="19.94638710224747"><ele>599.3333333333334</ele><time>2026-05-04T07:02:43Z</time></trkpt><trkpt lat="41.82945766689926" lon="19.94633306015827"><ele>599.0</ele><time>2026-05-04T07:02:44Z</time></trkpt><trkpt lat="41.82954707655541" lon="19.946330345005013"><ele>598.6666666666667</ele><time>2026-05-04T07:02:45Z</time></trkpt><trkpt lat="41.82962290049575" lon="19.946364967443653"><ele>598.3333333333334</ele><time>2026-05-04T07:02:46Z</time></trkpt><trkpt lat="41.82965762995176" lon="19.946449614790502"><ele>598.0</ele><time>2026-05-04T07:02:47Z</time></trkpt><trkpt lat="41.82966252620361" lon="19.946573768570083"><ele>599.5</ele><time>2026-05-04T07:02:48Z</time></trkpt><trkpt lat="41.8296625267567" lon="19.946736403877168"><ele>601.0</ele><time>2026-05-04T07:02:49Z</time></trkpt><trkpt lat="41.82966934475995" lon="19.94692500825312"><ele>602.5</ele><time>2026-05-04T07:02:50Z</time></trkpt><trkpt lat="41.829691147843725" lon="19.947116890433108"><ele>604.0</ele><time>2026-05-04T07:02:51Z</time></trkpt><trkpt lat="41.82973194748622" lon="19.947298460047183"><ele>604.0</ele><time>2026-05-04T07:02:51.999Z</time></trkpt><trkpt lat="41.82978764738276" lon="19.94748135661638"><ele>604.0</ele><time>2026-05-04T07:02:52.999Z</time></trkpt><trkpt lat="41.829846178078185" lon="19.947659681563405"><ele>604.0</ele><time>2026-05-04T07:02:53.999Z</time></trkpt><trkpt lat="41.829908911941686" lon="19.947839077204776"><ele>604.0</ele><time>2026-05-04T07:02:54.999Z</time></trkpt><trkpt lat="41.8299692265438" lon="19.948011953805846"><ele>606.25</ele><time>2026-05-04T07:02:55.999Z</time></trkpt><trkpt lat="41.83003080578836" lon="19.948166321260757"><ele>608.5</ele><time>2026-05-04T07:02:56.999Z</time></trkpt><trkpt lat="41.83011278287283" lon="19.948282574002373"><ele>610.75</ele><time>2026-05-04T07:02:57.999Z</time></trkpt><trkpt lat="41.830231300808684" lon="19.948337083909696"><ele>613.0</ele><time>2026-05-04T07:02:58.999Z</time></trkpt><trkpt lat="41.83037298116357" lon="19.9483300603186"><ele>614.75</ele><time>2026-05-04T07:02:59.999Z</time></trkpt><trkpt lat="41.83051788275666" lon="19.948306728961263"><ele>616.5</ele><time>2026-05-04T07:03:00.999Z</time></trkpt><trkpt lat="41.83064816541135" lon="19.948316637344366"><ele>618.25</ele><time>2026-05-04T07:03:01.999Z</time></trkpt><trkpt lat="41.83076490749048" lon="19.948360597513656"><ele>620.0</ele><time>2026-05-04T07:03:02.999Z</time></trkpt><trkpt lat="41.83087448796366" lon="19.948419026079712"><ele>621.4</ele><time>2026-05-04T07:03:03.999Z</time></trkpt><trkpt lat="41.83097555689798" lon="19.94848599216769"><ele>622.8</ele><time>2026-05-04T07:03:04.999Z</time></trkpt><trkpt lat="41.831074738565874" lon="19.94855989142576"><ele>624.2</ele><time>2026-05-04T07:03:05.999Z</time></trkpt><trkpt lat="41.831175321732" lon="19.948624177458324"><ele>625.6</ele><time>2026-05-04T07:03:06.999Z</time></trkpt><trkpt lat="41.83127371706767" lon="19.948682755299405"><ele>627.0</ele><time>2026-05-04T07:03:07.999Z</time></trkpt><trkpt lat="41.83136585286562" lon="19.948738789928015"><ele>627.0</ele><time>2026-05-04T07:03:08.999Z</time></trkpt><trkpt lat="41.831452119808084" lon="19.9487938631221"><ele>627.0</ele><time>2026-05-04T07:03:09.999Z</time></trkpt><trkpt lat="41.8315389569254" lon="19.948849096743498"><ele>627.0</ele><time>2026-05-04T07:03:10.999Z</time></trkpt><trkpt lat="41.83162048373991" lon="19.948901198758403"><ele>627.0</ele><time>2026-05-04T07:03:11.999Z</time></trkpt><trkpt lat="41.83169504557617" lon="19.948951344024767"><ele>627.0</ele><time>2026-05-04T07:03:12.999Z</time></trkpt><trkpt lat="41.83176454462262" lon="19.94899481571383"><ele>627.0</ele><time>2026-05-04T07:03:13.999Z</time></trkpt><trkpt lat="41.831842863267006" lon="19.949033816390468"><ele>626.8333333333334</ele><time>2026-05-04T07:03:14.999Z</time></trkpt><trkpt lat="41.831916776164164" lon="19.94905795145762"><ele>626.6666666666666</ele><time>2026-05-04T07:03:15.999Z</time></trkpt><trkpt lat="41.831992859139405" lon="19.94908769972507"><ele>626.5</ele><time>2026-05-04T07:03:16.999Z</time></trkpt><trkpt lat="41.83206559030324" lon="19.949125056274724"><ele>626.3333333333333</ele><time>2026-05-04T07:03:17.999Z</time></trkpt><trkpt lat="41.832141658948196" lon="19.94916829413088"><ele>626.1666666666666</ele><time>2026-05-04T07:03:18.999Z</time></trkpt><trkpt lat="41.83221877580446" lon="19.949213221647184"><ele>626.0</ele><time>2026-05-04T07:03:19.999Z</time></trkpt><trkpt lat="41.832301247462986" lon="19.949264361703815"><ele>627.0</ele><time>2026-05-04T07:03:20.999Z</time></trkpt><trkpt lat="41.8323861379567" lon="19.949319346424726"><ele>628.0</ele><time>2026-05-04T07:03:21.999Z</time></trkpt><trkpt lat="41.832471646558005" lon="19.949388565483382"><ele>629.0</ele><time>2026-05-04T07:03:22.999Z</time></trkpt><trkpt lat="41.83255399781565" lon="19.949475293450277"><ele>630.0</ele><time>2026-05-04T07:03:23.999Z</time></trkpt><trkpt lat="41.8326247741955" lon="19.949576597484754"><ele>631.0</ele><time>2026-05-04T07:03:24.999Z</time></trkpt><trkpt lat="41.83270596397051" lon="19.94965533437675"><ele>633.6</ele><time>2026-05-04T07:03:25.999Z</time></trkpt><trkpt lat="41.83281570037395" lon="19.94968888030562"><ele>636.2</ele><time>2026-05-04T07:03:26.999Z</time></trkpt><trkpt lat="41.832931518935126" lon="19.949683052419957"><ele>638.8000000000001</ele><time>2026-05-04T07:03:27.999Z</time></trkpt><trkpt lat="41.833037952531235" lon="19.949685333831336"><ele>641.4000000000001</ele><time>2026-05-04T07:03:28.999Z</time></trkpt><trkpt lat="41.83311745540959" lon="19.949689753198648"><ele>644.0</ele><time>2026-05-04T07:03:29.999Z</time></trkpt><trkpt lat="41.833215561332665" lon="19.949715055581674"><ele>644.0</ele><time>2026-05-04T07:03:32Z</time></trkpt><trkpt lat="41.83327696472416" lon="19.949763397297996"><ele>644.0</ele><time>2026-05-04T07:03:34Z</time></trkpt><trkpt lat="41.83330636639741" lon="19.94984714977152"><ele>644.0</ele><time>2026-05-04T07:03:36Z</time></trkpt><trkpt lat="41.8332636682607" lon="19.949977800044046"><ele>644.0</ele><time>2026-05-04T07:03:38Z</time></trkpt><trkpt lat="41.83320658064975" lon="19.950015289448274"><ele>644.0</ele><time>2026-05-04T07:03:39Z</time></trkpt><trkpt lat="41.83313244450546" lon="19.950006646289744"><ele>644.0</ele><time>2026-05-04T07:03:40Z</time></trkpt><trkpt lat="41.83306181723103" lon="19.949972667436082"><ele>644.0</ele><time>2026-05-04T07:03:41Z</time></trkpt><trkpt lat="41.83297474305685" lon="19.949955948213297"><ele>644.0</ele><time>2026-05-04T07:03:42Z</time></trkpt><trkpt lat="41.83288318071586" lon="19.949972184138538"><ele>644.0</ele><time>2026-05-04T07:03:43Z</time></trkpt><trkpt lat="41.8327979415139" lon="19.95003303601235"><ele>644.0</ele><time>2026-05-04T07:03:44Z</time></trkpt><trkpt lat="41.83274043881474" lon="19.950123597378255"><ele>644.0</ele><time>2026-05-04T07:03:45Z</time></trkpt><trkpt lat="41.83271446959471" lon="19.950227841860524"><ele>644.0</ele><time>2026-05-04T07:03:46Z</time></trkpt><trkpt lat="41.83271544644921" lon="19.95033972364348"><ele>646.4000000000001</ele><time>2026-05-04T07:03:47Z</time></trkpt><trkpt lat="41.83275319517812" lon="19.950431510998072"><ele>648.8</ele><time>2026-05-04T07:03:48Z</time></trkpt><trkpt lat="41.83283234019141" lon="19.950490888120395"><ele>651.2</ele><time>2026-05-04T07:03:49Z</time></trkpt><trkpt lat="41.832929862081485" lon="19.9505233928274"><ele>653.5999999999999</ele><time>2026-05-04T07:03:50Z</time></trkpt><trkpt lat="41.833025874379715" lon="19.950563443746116"><ele>656.0</ele><time>2026-05-04T07:03:51Z</time></trkpt><trkpt lat="41.833119899764135" lon="19.950607155364263"><ele>656.0</ele><time>2026-05-04T07:03:52Z</time></trkpt><trkpt lat="41.833217362104804" lon="19.950644305172073"><ele>656.0</ele><time>2026-05-04T07:03:53Z</time></trkpt><trkpt lat="41.83332506662239" lon="19.95068127520925"><ele>656.0</ele><time>2026-05-04T07:03:54Z</time></trkpt><trkpt lat="41.83343564603536" lon="19.95072680912631"><ele>656.0</ele><time>2026-05-04T07:03:55Z</time></trkpt><trkpt lat="41.83352577989714" lon="19.950800300690897"><ele>656.0</ele><time>2026-05-04T07:03:56Z</time></trkpt><trkpt lat="41.8335918482863" lon="19.950908321732793"><ele>660.5</ele><time>2026-05-04T07:03:57Z</time></trkpt><trkpt lat="41.83362198229483" lon="19.95105029655908"><ele>665.0</ele><time>2026-05-04T07:03:58Z</time></trkpt><trkpt lat="41.83362330535404" lon="19.951214565648254"><ele>669.5</ele><time>2026-05-04T07:03:59Z</time></trkpt><trkpt lat="41.8335835518546" lon="19.95139492823179"><ele>674.0</ele><time>2026-05-04T07:04:00Z</time></trkpt><trkpt lat="41.83352322767614" lon="19.951567892733113"><ele>675.25</ele><time>2026-05-04T07:04:01Z</time></trkpt><trkpt lat="41.83347997914506" lon="19.951739871951585"><ele>676.5</ele><time>2026-05-04T07:04:02Z</time></trkpt><trkpt lat="41.833482934698836" lon="19.951924164788537"><ele>677.75</ele><time>2026-05-04T07:04:03Z</time></trkpt><trkpt lat="41.833500109350254" lon="19.95210984298407"><ele>679.0</ele><time>2026-05-04T07:04:04Z</time></trkpt><trkpt lat="41.83347921389485" lon="19.952269499919268"><ele>675.5</ele><time>2026-05-04T07:04:05Z</time></trkpt><trkpt lat="41.833426101052574" lon="19.952417590516948"><ele>672.0</ele><time>2026-05-04T07:04:06Z</time></trkpt><trkpt lat="41.83337166775493" lon="19.95255184831414"><ele>668.5</ele><time>2026-05-04T07:04:07Z</time></trkpt><trkpt lat="41.83335670365325" lon="19.95269185612852"><ele>665.0</ele><time>2026-05-04T07:04:08Z</time></trkpt><trkpt lat="41.83336855221828" lon="19.952844719274747"><ele>665.6</ele><time>2026-05-04T07:04:09Z</time></trkpt><trkpt lat="41.83338518424029" lon="19.952986156145094"><ele>666.2</ele><time>2026-05-04T07:04:10Z</time></trkpt><trkpt lat="41.833422623747786" lon="19.9531061021937"><ele>666.8</ele><time>2026-05-04T07:04:11Z</time></trkpt><trkpt lat="41.83349443051206" lon="19.953206048025624"><ele>667.4</ele><time>2026-05-04T07:04:12Z</time></trkpt><trkpt lat="41.83358573183617" lon="19.953278045993624"><ele>668.0</ele><time>2026-05-04T07:04:13Z</time></trkpt><trkpt lat="41.83370645764922" lon="19.953312845926348"><ele>668.0</ele><time>2026-05-04T07:04:14Z</time></trkpt><trkpt lat="41.83384371844375" lon="19.953327432842464"><ele>668.0</ele><time>2026-05-04T07:04:15Z</time></trkpt><trkpt lat="41.83398439534921" lon="19.953346809789217"><ele>668.0</ele><time>2026-05-04T07:04:16Z</time></trkpt><trkpt lat="41.83412858025263" lon="19.953362591471805"><ele>668.0</ele><time>2026-05-04T07:04:17Z</time></trkpt><trkpt lat="41.83425671340102" lon="19.95338563692982"><ele>666.2</ele><time>2026-05-04T07:04:18Z</time></trkpt><trkpt lat="41.834371101987635" lon="19.95343641329277"><ele>664.4</ele><time>2026-05-04T07:04:19Z</time></trkpt><trkpt lat="41.834454216462895" lon="19.953523858080743"><ele>662.6</ele><time>2026-05-04T07:04:20Z</time></trkpt><trkpt lat="41.83449823073742" lon="19.953651162702567"><ele>660.8000000000001</ele><time>2026-05-04T07:04:21Z</time></trkpt><trkpt lat="41.83453340885115" lon="19.95378928292055"><ele>659.0</ele><time>2026-05-04T07:04:22Z</time></trkpt><trkpt lat="41.834594979543205" lon="19.953919946568245"><ele>659.0</ele><time>2026-05-04T07:04:23Z</time></trkpt><trkpt lat="41.83470121019697" lon="19.95399571354254"><ele>659.0</ele><time>2026-05-04T07:04:24Z</time></trkpt><trkpt lat="41.83484163119508" lon="19.954022774489793"><ele>659.0</ele><time>2026-05-04T07:04:25Z</time></trkpt><trkpt lat="41.83500266500379" lon="19.95401554230217"><ele>659.0</ele><time>2026-05-04T07:04:26Z</time></trkpt><trkpt lat="41.835168487652965" lon="19.954018225663344"><ele>664.6666666666666</ele><time>2026-05-04T07:04:27Z</time></trkpt><trkpt lat="41.83533136973792" lon="19.954076395997344"><ele>670.3333333333334</ele><time>2026-05-04T07:04:28Z</time></trkpt><trkpt lat="41.83547656770081" lon="19.954191527117732"><ele>676.0</ele><time>2026-05-04T07:04:29Z</time></trkpt><trkpt lat="41.835617710290876" lon="19.954340109950255"><ele>672.0</ele><time>2026-05-04T07:04:30Z</time></trkpt><trkpt lat="41.83575945194011" lon="19.954488422323333"><ele>668.0</ele><time>2026-05-04T07:04:31Z</time></trkpt><trkpt lat="41.835913037066206" lon="19.954632821409387"><ele>664.0</ele><time>2026-05-04T07:04:32Z</time></trkpt><trkpt lat="41.83606462566881" lon="19.954772189487283"><ele>664.0</ele><time>2026-05-04T07:04:33Z</time></trkpt><trkpt lat="41.83620729527142" lon="19.954918577744074"><ele>664.0</ele><time>2026-05-04T07:04:34Z</time></trkpt><trkpt lat="41.83634073861061" lon="19.955062073214442"><ele>664.0</ele><time>2026-05-04T07:04:35Z</time></trkpt><trkpt lat="41.83647155989823" lon="19.955193477152612"><ele>665.75</ele><time>2026-05-04T07:04:36Z</time></trkpt><trkpt lat="41.83660361772747" lon="19.95530740059748"><ele>667.5</ele><time>2026-05-04T07:04:37Z</time></trkpt><trkpt lat="41.83673403299306" lon="19.955395174940524"><ele>669.25</ele><time>2026-05-04T07:04:38Z</time></trkpt><trkpt lat="41.83683764032874" lon="19.95547686354008"><ele>671.0</ele><time>2026-05-04T07:04:39Z</time></trkpt><trkpt lat="41.83690382129747" lon="19.955583281553917"><ele>671.0</ele><time>2026-05-04T07:04:40Z</time></trkpt><trkpt lat="41.83693031424166" lon="19.95571568396341"><ele>671.0</ele><time>2026-05-04T07:04:41Z</time></trkpt><trkpt lat="41.83691813569088" lon="19.95584404256338"><ele>671.0</ele><time>2026-05-04T07:04:42Z</time></trkpt><trkpt lat="41.83686131299308" lon="19.955951022856574"><ele>671.0</ele><time>2026-05-04T07:04:43Z</time></trkpt><trkpt lat="41.836764905707824" lon="19.95604839804724"><ele>671.0</ele><time>2026-05-04T07:04:44Z</time></trkpt><trkpt lat="41.83664407095816" lon="19.956153795973695"><ele>666.3333333333333</ele><time>2026-05-04T07:04:45Z</time></trkpt><trkpt lat="41.83651012816278" lon="19.9562441219328"><ele>661.6666666666666</ele><time>2026-05-04T07:04:46Z</time></trkpt><trkpt lat="41.83636628523939" lon="19.956309797553068"><ele>657.0</ele><time>2026-05-04T07:04:47Z</time></trkpt><trkpt lat="41.83621829018458" lon="19.956365495939444"><ele>657.0</ele><time>2026-05-04T07:04:48Z</time></trkpt><trkpt lat="41.8360871132595" lon="19.956410965843723"><ele>657.0</ele><time>2026-05-04T07:04:49Z</time></trkpt><trkpt lat="41.83596466009722" lon="19.95647259798198"><ele>657.0</ele><time>2026-05-04T07:04:50Z</time></trkpt><trkpt lat="41.835858374272654" lon="19.95654997014929"><ele>657.0</ele><time>2026-05-04T07:04:51Z</time></trkpt><trkpt lat="41.83574668603516" lon="19.956637728679066"><ele>652.0</ele><time>2026-05-04T07:04:52Z</time></trkpt><trkpt lat="41.835644166717" lon="19.956753316625523"><ele>647.0</ele><time>2026-05-04T07:04:53Z</time></trkpt><trkpt lat="41.83554087103231" lon="19.95689801549549"><ele>642.0</ele><time>2026-05-04T07:04:54Z</time></trkpt><trkpt lat="41.83542108419924" lon="19.9570481331929"><ele>637.0</ele><time>2026-05-04T07:04:55Z</time></trkpt><trkpt lat="41.83528276280369" lon="19.957169267408116"><ele>633.25</ele><time>2026-05-04T07:04:56Z</time></trkpt><trkpt lat="41.8351373500145" lon="19.95724190294261"><ele>629.5</ele><time>2026-05-04T07:04:57Z</time></trkpt><trkpt lat="41.83500397731852" lon="19.95729763225634"><ele>625.75</ele><time>2026-05-04T07:04:58Z</time></trkpt><trkpt lat="41.83489362633795" lon="19.95734778303112"><ele>622.0</ele><time>2026-05-04T07:04:59Z</time></trkpt><trkpt lat="41.83482041264474" lon="19.95740779833722"><ele>622.0</ele><time>2026-05-04T07:05:00Z</time></trkpt><trkpt lat="41.83477867794917" lon="19.957508678946454"><ele>622.0</ele><time>2026-05-04T07:05:01Z</time></trkpt><trkpt lat="41.83478187379162" lon="19.95763897696622"><ele>622.0</ele><time>2026-05-04T07:05:02Z</time></trkpt><trkpt lat="41.8348282352536" lon="19.95779244477191"><ele>622.0</ele><time>2026-05-04T07:05:03Z</time></trkpt><trkpt lat="41.83488049225613" lon="19.957948812961476"><ele>622.0</ele><time>2026-05-04T07:05:04Z</time></trkpt><trkpt lat="41.83489027316128" lon="19.958132176044764"><ele>622.5</ele><time>2026-05-04T07:05:05Z</time></trkpt><trkpt lat="41.83484612678697" lon="19.958306301457032"><ele>623.0</ele><time>2026-05-04T07:05:06Z</time></trkpt><trkpt lat="41.834771671563715" lon="19.958455331312802"><ele>623.5</ele><time>2026-05-04T07:05:07Z</time></trkpt><trkpt lat="41.834704119655434" lon="19.958565711666"><ele>624.0</ele><time>2026-05-04T07:05:08Z</time></trkpt><trkpt lat="41.83468181713378" lon="19.95866650832441"><ele>619.6</ele><time>2026-05-04T07:05:09Z</time></trkpt><trkpt lat="41.83470762489027" lon="19.95876003149211"><ele>615.2</ele><time>2026-05-04T07:05:10Z</time></trkpt><trkpt lat="41.83477943530965" lon="19.958829001782807"><ele>610.8000000000001</ele><time>2026-05-04T07:05:11Z</time></trkpt><trkpt lat="41.834879768358384" lon="19.958860727729505"><ele>606.4</ele><time>2026-05-04T07:05:12Z</time></trkpt><trkpt lat="41.83502038976409" lon="19.958877347539367"><ele>602.0</ele><time>2026-05-04T07:05:13Z</time></trkpt><trkpt lat="41.83515755482817" lon="19.958898256615555"><ele>599.6</ele><time>2026-05-04T07:05:14Z</time></trkpt><trkpt lat="41.83527589424424" lon="19.95891404145793"><ele>597.2</ele><time>2026-05-04T07:05:15Z</time></trkpt><trkpt lat="41.83536007792661" lon="19.95889445101288"><ele>594.8</ele><time>2026-05-04T07:05:16Z</time></trkpt><trkpt lat="41.83542425330955" lon="19.958807025792918"><ele>592.4</ele><time>2026-05-04T07:05:17Z</time></trkpt><trkpt lat="41.835496421307354" lon="19.958677620587025"><ele>590.0</ele><time>2026-05-04T07:05:18Z</time></trkpt><trkpt lat="41.83557623402031" lon="19.958531051081177"><ele>590.0</ele><time>2026-05-04T07:05:19Z</time></trkpt><trkpt lat="41.835695041528304" lon="19.958412267255756"><ele>590.0</ele><time>2026-05-04T07:05:20Z</time></trkpt><trkpt lat="41.83584120067854" lon="19.958320323041516"><ele>590.0</ele><time>2026-05-04T07:05:21Z</time></trkpt><trkpt lat="41.83598918330581" lon="19.958262008878656"><ele>588.5</ele><time>2026-05-04T07:05:22Z</time></trkpt><trkpt lat="41.83611597838845" lon="19.958248981515975"><ele>587.0</ele><time>2026-05-04T07:05:23Z</time></trkpt><trkpt lat="41.83623349065269" lon="19.958281073300075"><ele>585.5</ele><time>2026-05-04T07:05:24Z</time></trkpt><trkpt lat="41.836358240900346" lon="19.958358313332216"><ele>584.0</ele><time>2026-05-04T07:05:25Z</time></trkpt><trkpt lat="41.836473415670746" lon="19.958452309013573"><ele>584.0</ele><time>2026-05-04T07:05:26Z</time></trkpt><trkpt lat="41.836560366549534" lon="19.95856114277908"><ele>584.0</ele><time>2026-05-04T07:05:27Z</time></trkpt><trkpt lat="41.83663952995592" lon="19.958674250717607"><ele>584.0</ele><time>2026-05-04T07:05:27.999Z</time></trkpt><trkpt lat="41.836741297982925" lon="19.95878560363164"><ele>584.0</ele><time>2026-05-04T07:05:28.999Z</time></trkpt><trkpt lat="41.836873222974056" lon="19.9588727851496"><ele>583.6666666666666</ele><time>2026-05-04T07:05:29.999Z</time></trkpt><trkpt lat="41.83703267485655" lon="19.9589307434826"><ele>583.3333333333334</ele><time>2026-05-04T07:05:30.999Z</time></trkpt><trkpt lat="41.83720096029548" lon="19.958970992676562"><ele>583.0</ele><time>2026-05-04T07:05:31.999Z</time></trkpt><trkpt lat="41.83738114747957" lon="19.95899662653087"><ele>583.0</ele><time>2026-05-04T07:05:32.999Z</time></trkpt><trkpt lat="41.83757173599472" lon="19.959012776730646"><ele>583.0</ele><time>2026-05-04T07:05:33.999Z</time></trkpt><trkpt lat="41.837767447733675" lon="19.95902941085124"><ele>583.0</ele><time>2026-05-04T07:05:34.999Z</time></trkpt><trkpt lat="41.83794162409759" lon="19.95904528961634"><ele>579.0</ele><time>2026-05-04T07:05:35.999Z</time></trkpt><trkpt lat="41.83809054739909" lon="19.95903986013972"><ele>575.0</ele><time>2026-05-04T07:05:37Z</time></trkpt><trkpt lat="41.83824651390873" lon="19.958996670023307"><ele>571.0</ele><time>2026-05-04T07:05:38Z</time></trkpt><trkpt lat="41.838413017814" lon="19.958910747138127"><ele>565.3333333333334</ele><time>2026-05-04T07:05:39Z</time></trkpt><trkpt lat="41.83858790349347" lon="19.95881158100313"><ele>559.6666666666666</ele><time>2026-05-04T07:05:40Z</time></trkpt><trkpt lat="41.83877509137081" lon="19.95871851201275"><ele>554.0</ele><time>2026-05-04T07:05:41Z</time></trkpt><trkpt lat="41.838946373407005" lon="19.958643502087746"><ele>554.0</ele><time>2026-05-04T07:05:42Z</time></trkpt><trkpt lat="41.839100597500924" lon="19.958581579032117"><ele>554.0</ele><time>2026-05-04T07:05:43Z</time></trkpt><trkpt lat="41.839240217861125" lon="19.95854297375431"><ele>554.0</ele><time>2026-05-04T07:05:44Z</time></trkpt><trkpt lat="41.83937241661498" lon="19.9585248888828"><ele>554.0</ele><time>2026-05-04T07:05:45Z</time></trkpt><trkpt lat="41.839486839235335" lon="19.95853342703568"><ele>559.8</ele><time>2026-05-04T07:05:46Z</time></trkpt><trkpt lat="41.83957991669369" lon="19.958582455565068"><ele>565.5999999999999</ele><time>2026-05-04T07:05:47Z</time></trkpt><trkpt lat="41.839644395993965" lon="19.95867986091147"><ele>571.4</ele><time>2026-05-04T07:05:48Z</time></trkpt><trkpt lat="41.839683234854256" lon="19.958819403557015"><ele>577.1999999999999</ele><time>2026-05-04T07:05:49Z</time></trkpt><trkpt lat="41.83968881083939" lon="19.958986559356592"><ele>583.0</ele><time>2026-05-04T07:05:50Z</time></trkpt><trkpt lat="41.839676242637395" lon="19.95915438358832"><ele>578.1999999999999</ele><time>2026-05-04T07:05:51Z</time></trkpt><trkpt lat="41.83968718874785" lon="19.95928929050003"><ele>573.4</ele><time>2026-05-04T07:05:52Z</time></trkpt><trkpt lat="41.83973741331971" lon="19.95938347253356"><ele>568.5999999999999</ele><time>2026-05-04T07:05:53Z</time></trkpt><trkpt lat="41.8398372070071" lon="19.959463603441343"><ele>563.8</ele><time>2026-05-04T07:05:54Z</time></trkpt><trkpt lat="41.83995580465488" lon="19.959576819796002"><ele>559.0</ele><time>2026-05-04T07:05:55Z</time></trkpt><trkpt lat="41.84003177602156" lon="19.95973651501177"><ele>559.0</ele><time>2026-05-04T07:05:56Z</time></trkpt><trkpt lat="41.84005772310396" lon="19.959918610450718"><ele>559.0</ele><time>2026-05-04T07:05:57Z</time></trkpt><trkpt lat="41.8400656637742" lon="19.96008793523008"><ele>559.0</ele><time>2026-05-04T07:05:58Z</time></trkpt><trkpt lat="41.84010009432515" lon="19.9602183042321"><ele>559.0</ele><time>2026-05-04T07:05:59Z</time></trkpt><trkpt lat="41.84016914343299" lon="19.960304566520502"><ele>549.0</ele><time>2026-05-04T07:06:00Z</time></trkpt><trkpt lat="41.84026624378081" lon="19.960354689087268"><ele>539.0</ele><time>2026-05-04T07:06:01Z</time></trkpt><trkpt lat="41.84039130967821" lon="19.960356760650424"><ele>529.0</ele><time>2026-05-04T07:06:02Z</time></trkpt><trkpt lat="41.84053543352481" lon="19.960331970473387"><ele>519.0</ele><time>2026-05-04T07:06:03Z</time></trkpt><trkpt lat="41.84068518223001" lon="19.960287822464704"><ele>519.0</ele><time>2026-05-04T07:06:04Z</time></trkpt><trkpt lat="41.840843136887685" lon="19.96020142191481"><ele>519.0</ele><time>2026-05-04T07:06:05Z</time></trkpt><trkpt lat="41.84100115463764" lon="19.9600901187791"><ele>519.0</ele><time>2026-05-04T07:06:06Z</time></trkpt><trkpt lat="41.841147588117785" lon="19.96000764806182"><ele>522.75</ele><time>2026-05-04T07:06:07Z</time></trkpt><trkpt lat="41.84128068544433" lon="19.9599797822423"><ele>526.5</ele><time>2026-05-04T07:06:08Z</time></trkpt><trkpt lat="41.84142164954164" lon="19.960005576520253"><ele>530.25</ele><time>2026-05-04T07:06:09Z</time></trkpt><trkpt lat="41.84157007678438" lon="19.960085210688312"><ele>534.0</ele><time>2026-05-04T07:06:10Z</time></trkpt><trkpt lat="41.84171242644928" lon="19.960198557434488"><ele>545.25</ele><time>2026-05-04T07:06:11Z</time></trkpt><trkpt lat="41.84183272959719" lon="19.96032624710319"><ele>556.5</ele><time>2026-05-04T07:06:12Z</time></trkpt><trkpt lat="41.84191824664492" lon="19.96043078264693"><ele>567.75</ele><time>2026-05-04T07:06:13Z</time></trkpt><trkpt lat="41.84196559169807" lon="19.960536943113034"><ele>579.0</ele><time>2026-05-04T07:06:14Z</time></trkpt><trkpt lat="41.84197389111857" lon="19.960677371900534"><ele>579.0</ele><time>2026-05-04T07:06:15Z</time></trkpt><trkpt lat="41.84196359565498" lon="19.960858708894577"><ele>579.0</ele><time>2026-05-04T07:06:16Z</time></trkpt><trkpt lat="41.84195604873285" lon="19.961039848332756"><ele>579.0</ele><time>2026-05-04T07:06:17Z</time></trkpt><trkpt lat="41.84196615867818" lon="19.96122753110894"><ele>579.0</ele><time>2026-05-04T07:06:18Z</time></trkpt><trkpt lat="41.84200094833382" lon="19.96141023060497"><ele>571.25</ele><time>2026-05-04T07:06:19Z</time></trkpt><trkpt lat="41.842061683148906" lon="19.961562459129752"><ele>563.5</ele><time>2026-05-04T07:06:20Z</time></trkpt><trkpt lat="41.84215870006495" lon="19.961704872936252"><ele>555.75</ele><time>2026-05-04T07:06:21Z</time></trkpt><trkpt lat="41.84228131516768" lon="19.96185383138369"><ele>548.0</ele><time>2026-05-04T07:06:22Z</time></trkpt><trkpt lat="41.842397067957855" lon="19.96198645576388"><ele>549.0</ele><time>2026-05-04T07:06:23Z</time></trkpt><trkpt lat="41.84248636210573" lon="19.96205759427115"><ele>550.0</ele><time>2026-05-04T07:06:23.999Z</time></trkpt><trkpt lat="41.842587672113794" lon="19.962067359807573"><ele>551.0</ele><time>2026-05-04T07:06:24.999Z</time></trkpt><trkpt lat="41.842698969976404" lon="19.962056844786428"><ele>552.0</ele><time>2026-05-04T07:06:25.999Z</time></trkpt><trkpt lat="41.84280313544892" lon="19.96209343454595"><ele>553.0</ele><time>2026-05-04T07:06:26.999Z</time></trkpt><trkpt lat="41.842883650300486" lon="19.962193515459383"><ele>553.0</ele><time>2026-05-04T07:06:27.999Z</time></trkpt><trkpt lat="41.84294265381925" lon="19.9623329904133"><ele>553.0</ele><time>2026-05-04T07:06:28.999Z</time></trkpt><trkpt lat="41.8429732737043" lon="19.962510570911263"><ele>553.0</ele><time>2026-05-04T07:06:29.999Z</time></trkpt><trkpt lat="41.84298661449945" lon="19.96272391438488"><ele>553.0</ele><time>2026-05-04T07:06:30.999Z</time></trkpt><trkpt lat="41.84301682963249" lon="19.96295167100593"><ele>548.1999999999999</ele><time>2026-05-04T07:06:31.999Z</time></trkpt><trkpt lat="41.843062738001905" lon="19.963137100478917"><ele>543.4</ele><time>2026-05-04T07:06:32.999Z</time></trkpt><trkpt lat="41.84310695207132" lon="19.963259655381655"><ele>538.5999999999999</ele><time>2026-05-04T07:06:33.999Z</time></trkpt><trkpt lat="41.843165890271045" lon="19.963329099266574"><ele>533.8</ele><time>2026-05-04T07:06:34.999Z</time></trkpt><trkpt lat="41.84326748450903" lon="19.963380008011676"><ele>529.0</ele><time>2026-05-04T07:06:35.999Z</time></trkpt><trkpt lat="41.843390138163805" lon="19.96344211019564"><ele>528.75</ele><time>2026-05-04T07:06:36.999Z</time></trkpt><trkpt lat="41.84350203285717" lon="19.963555800681856"><ele>528.5</ele><time>2026-05-04T07:06:37.999Z</time></trkpt><trkpt lat="41.84358411163431" lon="19.963695964588293"><ele>528.25</ele><time>2026-05-04T07:06:38.999Z</time></trkpt><trkpt lat="41.84361445453914" lon="19.963850649756843"><ele>528.0</ele><time>2026-05-04T07:06:39.999Z</time></trkpt><trkpt lat="41.84362137143458" lon="19.96402010669954"><ele>528.0</ele><time>2026-05-04T07:06:40.999Z</time></trkpt><trkpt lat="41.84365131917232" lon="19.964163669546707"><ele>528.0</ele><time>2026-05-04T07:06:41.999Z</time></trkpt><trkpt lat="41.84371028300844" lon="19.96425647783927"><ele>528.0</ele><time>2026-05-04T07:06:42.999Z</time></trkpt><trkpt lat="41.84381676959738" lon="19.964309256626315"><ele>528.0</ele><time>2026-05-04T07:06:43.999Z</time></trkpt><trkpt lat="41.84396267806358" lon="19.964367724011108"><ele>519.6666666666666</ele><time>2026-05-04T07:06:44.999Z</time></trkpt><trkpt lat="41.84412726523056" lon="19.964435150188056"><ele>511.3333333333333</ele><time>2026-05-04T07:06:45.999Z</time></trkpt><trkpt lat="41.84429056450479" lon="19.964498378242585"><ele>503.0</ele><time>2026-05-04T07:06:46.999Z</time></trkpt><trkpt lat="41.84446566812627" lon="19.96454015728406"><ele>503.0</ele><time>2026-05-04T07:06:47.999Z</time></trkpt><trkpt lat="41.84461791325351" lon="19.964555713637427"><ele>503.0</ele><time>2026-05-04T07:06:48.999Z</time></trkpt><trkpt lat="41.844753694309475" lon="19.964576419520263"><ele>503.0</ele><time>2026-05-04T07:06:49.999Z</time></trkpt><trkpt lat="41.84486818085357" lon="19.96463020153597"><ele>503.0</ele><time>2026-05-04T07:06:50.999Z</time></trkpt><trkpt lat="41.84497619111395" lon="19.964726485319485"><ele>503.0</ele><time>2026-05-04T07:06:51.999Z</time></trkpt><trkpt lat="41.845089916112414" lon="19.964853781638897"><ele>503.0</ele><time>2026-05-04T07:06:52.999Z</time></trkpt><trkpt lat="41.845195086997634" lon="19.964978892841422"><ele>503.0</ele><time>2026-05-04T07:06:53.999Z</time></trkpt><trkpt lat="41.84526305289537" lon="19.965092239384138"><ele>503.0</ele><time>2026-05-04T07:06:54.999Z</time></trkpt><trkpt lat="41.84529942095036" lon="19.965233548385765"><ele>504.59999999999997</ele><time>2026-05-04T07:06:55.999Z</time></trkpt><trkpt lat="41.84531601330156" lon="19.96539239394759"><ele>506.19999999999993</ele><time>2026-05-04T07:06:56.999Z</time></trkpt><trkpt lat="41.84534981914107" lon="19.96549302826662"><ele>507.8</ele><time>2026-05-04T07:06:57.999Z</time></trkpt><trkpt lat="41.84542689541869" lon="19.965548939862302"><ele>509.4</ele><time>2026-05-04T07:06:58.999Z</time></trkpt><trkpt lat="41.84555089056735" lon="19.96558034256946"><ele>511.0</ele><time>2026-05-04T07:06:59.999Z</time></trkpt><trkpt lat="41.84569121681775" lon="19.96562923026105"><ele>511.0</ele><time>2026-05-04T07:07:00.999Z</time></trkpt><trkpt lat="41.845779681899096" lon="19.965704113898937"><ele>511.0</ele><time>2026-05-04T07:07:01.999Z</time></trkpt><trkpt lat="41.84581718188402" lon="19.9658088366273"><ele>511.0</ele><time>2026-05-04T07:07:02.999Z</time></trkpt><trkpt lat="41.84583176688964" lon="19.965950771308908"><ele>511.0</ele><time>2026-05-04T07:07:03.999Z</time></trkpt><trkpt lat="41.845840011440764" lon="19.966118387550686"><ele>511.0</ele><time>2026-05-04T07:07:04.999Z</time></trkpt><trkpt lat="41.845872276136284" lon="19.966262857114582"><ele>514.0</ele><time>2026-05-04T07:07:05.999Z</time></trkpt><trkpt lat="41.84594304117712" lon="19.96634585288508"><ele>517.0</ele><time>2026-05-04T07:07:06.999Z</time></trkpt><trkpt lat="41.84605392827758" lon="19.96638735033702"><ele>520.0</ele><time>2026-05-04T07:07:07.999Z</time></trkpt><trkpt lat="41.84619647555483" lon="19.966409491105654"><ele>523.0</ele><time>2026-05-04T07:07:08.999Z</time></trkpt><trkpt lat="41.84634861324818" lon="19.966444105942543"><ele>523.0</ele><time>2026-05-04T07:07:09.999Z</time></trkpt><trkpt lat="41.84645908646763" lon="19.966531085977284"><ele>523.0</ele><time>2026-05-04T07:07:10.999Z</time></trkpt><trkpt lat="41.84651346014082" lon="19.966652371853574"><ele>523.0</ele><time>2026-05-04T07:07:11.999Z</time></trkpt><trkpt lat="41.84652891699753" lon="19.966816606834705"><ele>523.0</ele><time>2026-05-04T07:07:12.999Z</time></trkpt><trkpt lat="41.84651683077553" lon="19.9670237814705"><ele>522.4</ele><time>2026-05-04T07:07:13.999Z</time></trkpt><trkpt lat="41.84649646649841" lon="19.967246583984544"><ele>521.8</ele><time>2026-05-04T07:07:14.999Z</time></trkpt><trkpt lat="41.84648420154855" lon="19.967416331963836"><ele>521.2</ele><time>2026-05-04T07:07:15.999Z</time></trkpt><trkpt lat="41.84650446571238" lon="19.967500972443393"><ele>520.6</ele><time>2026-05-04T07:07:16.999Z</time></trkpt><trkpt lat="41.84656362934392" lon="19.96756811769677"><ele>520.0</ele><time>2026-05-04T07:07:17.999Z</time></trkpt><trkpt lat="41.846671277094515" lon="19.96761395333499"><ele>527.75</ele><time>2026-05-04T07:07:18.999Z</time></trkpt><trkpt lat="41.84680380051776" lon="19.967657699970818"><ele>535.5</ele><time>2026-05-04T07:07:19.999Z</time></trkpt><trkpt lat="41.846936626843686" lon="19.96774863546246"><ele>543.25</ele><time>2026-05-04T07:07:20.999Z</time></trkpt><trkpt lat="41.847034583115935" lon="19.96786621711188"><ele>551.0</ele><time>2026-05-04T07:07:21.999Z</time></trkpt><trkpt lat="41.8470645961792" lon="19.967963641200647"><ele>551.0</ele><time>2026-05-04T07:07:22.999Z</time></trkpt><trkpt lat="41.84704207728702" lon="19.968065493519347"><ele>551.0</ele><time>2026-05-04T07:07:23.999Z</time></trkpt><trkpt lat="41.84697657787465" lon="19.968200633049197"><ele>551.0</ele><time>2026-05-04T07:07:24.999Z</time></trkpt><trkpt lat="41.84688017436796" lon="19.968348527162792"><ele>551.0</ele><time>2026-05-04T07:07:25.999Z</time></trkpt><trkpt lat="41.84678755595795" lon="19.968515301036934"><ele>550.5</ele><time>2026-05-04T07:07:26.999Z</time></trkpt><trkpt lat="41.846693727611765" lon="19.96869937792861"><ele>550.0</ele><time>2026-05-04T07:07:27.999Z</time></trkpt><trkpt lat="41.846597110060515" lon="19.968844359884436"><ele>549.5</ele><time>2026-05-04T07:07:28.999Z</time></trkpt><trkpt lat="41.846494305317556" lon="19.968922741048857"><ele>549.0</ele><time>2026-05-04T07:07:29.999Z</time></trkpt><trkpt lat="41.846367549324846" lon="19.968945029112263"><ele>549.0</ele><time>2026-05-04T07:07:30.999Z</time></trkpt><trkpt lat="41.846235951735615" lon="19.968940917178028"><ele>549.0</ele><time>2026-05-04T07:07:31.999Z</time></trkpt><trkpt lat="41.84615196567316" lon="19.96891906934845"><ele>549.0</ele><time>2026-05-04T07:07:32.999Z</time></trkpt><trkpt lat="41.8460868092735" lon="19.968909302179412"><ele>549.0</ele><time>2026-05-04T07:07:34.999Z</time></trkpt><trkpt lat="41.8460045176193" lon="19.968898440456197"><ele>549.0</ele><time>2026-05-04T07:08:31Z</time></trkpt><trkpt lat="41.84593309045677" lon="19.968924604755284"><ele>549.0</ele><time>2026-05-04T07:08:32Z</time></trkpt><trkpt lat="41.84586311408734" lon="19.968985245752197"><ele>547.4</ele><time>2026-05-04T07:08:33Z</time></trkpt><trkpt lat="41.84580950540203" lon="19.969067001331883"><ele>545.8</ele><time>2026-05-04T07:08:34Z</time></trkpt><trkpt lat="41.84579124644786" lon="19.96916397593457"><ele>544.2</ele><time>2026-05-04T07:08:35Z</time></trkpt><trkpt lat="41.84580510434923" lon="19.96925307544461"><ele>542.6</ele><time>2026-05-04T07:08:36Z</time></trkpt><trkpt lat="41.84588619078431" lon="19.969361331613353"><ele>541.0</ele><time>2026-05-04T07:08:37Z</time></trkpt><trkpt lat="41.84599365526524" lon="19.969411326999882"><ele>541.0</ele><time>2026-05-04T07:08:38Z</time></trkpt><trkpt lat="41.846112639847675" lon="19.96945242366797"><ele>541.0</ele><time>2026-05-04T07:08:39Z</time></trkpt><trkpt lat="41.84622987525757" lon="19.96951477519421"><ele>541.0</ele><time>2026-05-04T07:08:40Z</time></trkpt><trkpt lat="41.84633852254085" lon="19.969619226687264"><ele>541.0</ele><time>2026-05-04T07:08:41Z</time></trkpt><trkpt lat="41.8464258709936" lon="19.969749079248068"><ele>541.0</ele><time>2026-05-04T07:08:42Z</time></trkpt><trkpt lat="41.84647167904916" lon="19.969886627768823"><ele>541.0</ele><time>2026-05-04T07:08:43Z</time></trkpt><trkpt lat="41.84649010778339" lon="19.970040295107463"><ele>541.0</ele><time>2026-05-04T07:08:44Z</time></trkpt><trkpt lat="41.84647314075745" lon="19.970201281359085"><ele>541.0</ele><time>2026-05-04T07:08:45Z</time></trkpt><trkpt lat="41.84645195819845" lon="19.970353047598543"><ele>537.0</ele><time>2026-05-04T07:08:46Z</time></trkpt><trkpt lat="41.846470574363224" lon="19.970495068505077"><ele>533.0</ele><time>2026-05-04T07:08:47Z</time></trkpt><trkpt lat="41.846537932011664" lon="19.9706136648795"><ele>529.0</ele><time>2026-05-04T07:08:48Z</time></trkpt><trkpt lat="41.84664142163015" lon="19.970687619113598"><ele>525.0</ele><time>2026-05-04T07:08:49Z</time></trkpt><trkpt lat="41.846775710320834" lon="19.970725765726225"><ele>522.0</ele><time>2026-05-04T07:08:50Z</time></trkpt><trkpt lat="41.84692616489113" lon="19.970755954284126"><ele>519.0</ele><time>2026-05-04T07:08:51Z</time></trkpt><trkpt lat="41.84708278618103" lon="19.97080317925638"><ele>516.0</ele><time>2026-05-04T07:08:52Z</time></trkpt><trkpt lat="41.847235023187224" lon="19.970876726852076"><ele>516.0</ele><time>2026-05-04T07:08:53Z</time></trkpt><trkpt lat="41.847367654952365" lon="19.97098218366468"><ele>516.0</ele><time>2026-05-04T07:08:54Z</time></trkpt><trkpt lat="41.84747037637972" lon="19.97109610804165"><ele>516.0</ele><time>2026-05-04T07:08:55Z</time></trkpt><trkpt lat="41.84755778461234" lon="19.971185312061376"><ele>516.0</ele><time>2026-05-04T07:08:56Z</time></trkpt><trkpt lat="41.84766270095987" lon="19.97122290588461"><ele>522.5</ele><time>2026-05-04T07:08:57Z</time></trkpt><trkpt lat="41.84778730555625" lon="19.97120965909474"><ele>529.0</ele><time>2026-05-04T07:08:58Z</time></trkpt><trkpt lat="41.84791056735554" lon="19.971194421881204"><ele>535.5</ele><time>2026-05-04T07:08:59Z</time></trkpt><trkpt lat="41.84801448600681" lon="19.97123670023062"><ele>542.0</ele><time>2026-05-04T07:09:00Z</time></trkpt><trkpt lat="41.84809883341523" lon="19.971330247039408"><ele>542.0</ele><time>2026-05-04T07:09:01Z</time></trkpt><trkpt lat="41.84816170538567" lon="19.971439109207914"><ele>542.0</ele><time>2026-05-04T07:09:02Z</time></trkpt><trkpt lat="41.848231675567284" lon="19.971499920838635"><ele>542.0</ele><time>2026-05-04T07:09:03Z</time></trkpt><trkpt lat="41.848315746362594" lon="19.971508631490792"><ele>542.0</ele><time>2026-05-04T07:09:04Z</time></trkpt><trkpt lat="41.8484045391453" lon="19.971433678562423"><ele>542.0</ele><time>2026-05-04T07:09:05Z</time></trkpt><trkpt lat="41.84847857405816" lon="19.971306658209933"><ele>536.5</ele><time>2026-05-04T07:09:06Z</time></trkpt><trkpt lat="41.8485340229799" lon="19.97114826213611"><ele>531.0</ele><time>2026-05-04T07:09:07Z</time></trkpt><trkpt lat="41.8485751116311" lon="19.970977971198984"><ele>525.5</ele><time>2026-05-04T07:09:08Z</time></trkpt><trkpt lat="41.84858405725064" lon="19.97078193656573"><ele>520.0</ele><time>2026-05-04T07:09:09Z</time></trkpt><trkpt lat="41.8485805778926" lon="19.970564330001064"><ele>520.0</ele><time>2026-05-04T07:09:10Z</time></trkpt><trkpt lat="41.848612569177156" lon="19.97035248801797"><ele>520.0</ele><time>2026-05-04T07:09:11Z</time></trkpt><trkpt lat="41.848677134694114" lon="19.970188283069692"><ele>520.0</ele><time>2026-05-04T07:09:12Z</time></trkpt><trkpt lat="41.84871706766642" lon="19.970038138665316"><ele>520.0</ele><time>2026-05-04T07:09:13Z</time></trkpt><trkpt lat="41.84870766699411" lon="19.969855197850276"><ele>521.75</ele><time>2026-05-04T07:09:14Z</time></trkpt><trkpt lat="41.84867072505115" lon="19.969644543424977"><ele>523.5</ele><time>2026-05-04T07:09:14.999Z</time></trkpt><trkpt lat="41.848635848952455" lon="19.96946365987201"><ele>525.25</ele><time>2026-05-04T07:09:15.999Z</time></trkpt><trkpt lat="41.84863775515797" lon="19.969314922331723"><ele>527.0</ele><time>2026-05-04T07:09:16.999Z</time></trkpt><trkpt lat="41.84866689616883" lon="19.96917976285877"><ele>529.5</ele><time>2026-05-04T07:09:17.999Z</time></trkpt><trkpt lat="41.84873441966269" lon="19.969080629658812"><ele>532.0</ele><time>2026-05-04T07:09:18.999Z</time></trkpt><trkpt lat="41.84883482754961" lon="19.969027072247474"><ele>534.5</ele><time>2026-05-04T07:09:19.999Z</time></trkpt><trkpt lat="41.84895868885744" lon="19.96901428215945"><ele>537.0</ele><time>2026-05-04T07:09:20.999Z</time></trkpt><trkpt lat="41.84908470544489" lon="19.968987282899597"><ele>537.0</ele><time>2026-05-04T07:09:21.999Z</time></trkpt><trkpt lat="41.8491880394357" lon="19.968896207885862"><ele>537.0</ele><time>2026-05-04T07:09:22.999Z</time></trkpt><trkpt lat="41.84926225619826" lon="19.96875165986417"><ele>537.0</ele><time>2026-05-04T07:09:23.999Z</time></trkpt><trkpt lat="41.84932657305592" lon="19.968618453433287"><ele>537.0</ele><time>2026-05-04T07:09:24.999Z</time></trkpt><trkpt lat="41.84939875634404" lon="19.968548384740746"><ele>535.0</ele><time>2026-05-04T07:09:25.999Z</time></trkpt><trkpt lat="41.849488671150986" lon="19.96852925981787"><ele>533.0</ele><time>2026-05-04T07:09:26.999Z</time></trkpt><trkpt lat="41.84957834873261" lon="19.968573606775077"><ele>531.0</ele><time>2026-05-04T07:09:27.999Z</time></trkpt><trkpt lat="41.84965592507108" lon="19.96867452646504"><ele>529.0</ele><time>2026-05-04T07:09:28.999Z</time></trkpt><trkpt lat="41.84972412002929" lon="19.968828733492586"><ele>527.0</ele><time>2026-05-04T07:09:29.999Z</time></trkpt><trkpt lat="41.849793753904635" lon="19.969000399614938"><ele>527.0</ele><time>2026-05-04T07:09:30.999Z</time></trkpt><trkpt lat="41.84987025445343" lon="19.96917689443376"><ele>527.0</ele><time>2026-05-04T07:09:31.999Z</time></trkpt><trkpt lat="41.84993760480389" lon="19.96937147185234"><ele>527.0</ele><time>2026-05-04T07:09:32.999Z</time></trkpt><trkpt lat="41.84997804757598" lon="19.96958811798982"><ele>525.6666666666666</ele><time>2026-05-04T07:09:33.999Z</time></trkpt><trkpt lat="41.84999888869078" lon="19.969831147472217"><ele>524.3333333333334</ele><time>2026-05-04T07:09:34.999Z</time></trkpt><trkpt lat="41.850007038818426" lon="19.970056337032304"><ele>523.0</ele><time>2026-05-04T07:09:35.999Z</time></trkpt><trkpt lat="41.85001448316974" lon="19.970268175531594"><ele>519.0</ele><time>2026-05-04T07:09:36.999Z</time></trkpt><trkpt lat="41.85003846815782" lon="19.970464498849264"><ele>515.0</ele><time>2026-05-04T07:09:37.999Z</time></trkpt><trkpt lat="41.85009405082866" lon="19.97066463822353"><ele>511.0</ele><time>2026-05-04T07:09:38.999Z</time></trkpt><trkpt lat="41.85016518231235" lon="19.97084694423257"><ele>506.4</ele><time>2026-05-04T07:09:39.999Z</time></trkpt><trkpt lat="41.8502305521577" lon="19.970975060684093"><ele>501.8</ele><time>2026-05-04T07:09:40.999Z</time></trkpt><trkpt lat="41.85029080693798" lon="19.971045846690394"><ele>497.19999999999993</ele><time>2026-05-04T07:09:41.999Z</time></trkpt><trkpt lat="41.850371871127784" lon="19.971085415403767"><ele>492.59999999999997</ele><time>2026-05-04T07:09:42.999Z</time></trkpt><trkpt lat="41.85045824090719" lon="19.971066351588163"><ele>488.0</ele><time>2026-05-04T07:09:43.999Z</time></trkpt><trkpt lat="41.85052928945403" lon="19.970993734989378"><ele>488.0</ele><time>2026-05-04T07:09:44.999Z</time></trkpt><trkpt lat="41.850581057810516" lon="19.970869868724673"><ele>488.0</ele><time>2026-05-04T07:09:45.999Z</time></trkpt><trkpt lat="41.85063079869039" lon="19.970668019342092"><ele>488.0</ele><time>2026-05-04T07:09:46.999Z</time></trkpt><trkpt lat="41.850708469838146" lon="19.970469957371908"><ele>488.0</ele><time>2026-05-04T07:09:47.999Z</time></trkpt><trkpt lat="41.850850183487736" lon="19.97029422677948"><ele>490.0</ele><time>2026-05-04T07:09:49Z</time></trkpt><trkpt lat="41.85101998134119" lon="19.970149838686215"><ele>492.0</ele><time>2026-05-04T07:09:50Z</time></trkpt><trkpt lat="41.85120067436293" lon="19.970039769793793"><ele>494.0</ele><time>2026-05-04T07:09:51Z</time></trkpt><trkpt lat="41.85137017720408" lon="19.969950684129646"><ele>494.0</ele><time>2026-05-04T07:09:52Z</time></trkpt><trkpt lat="41.85153839498861" lon="19.969895961514126"><ele>494.0</ele><time>2026-05-04T07:09:53Z</time></trkpt><trkpt lat="41.85169934457128" lon="19.969868728830207"><ele>494.0</ele><time>2026-05-04T07:09:54Z</time></trkpt><trkpt lat="41.85184111828809" lon="19.96987670563673"><ele>496.75</ele><time>2026-05-04T07:09:55Z</time></trkpt><trkpt lat="41.85196699011029" lon="19.969920827814338"><ele>499.5</ele><time>2026-05-04T07:09:56Z</time></trkpt><trkpt lat="41.852065251167716" lon="19.970002084965113"><ele>502.25</ele><time>2026-05-04T07:09:57Z</time></trkpt><trkpt lat="41.852150914834205" lon="19.970106504589044"><ele>505.0</ele><time>2026-05-04T07:09:58Z</time></trkpt><trkpt lat="41.8522268031348" lon="19.97023835398003"><ele>505.0</ele><time>2026-05-04T07:09:59Z</time></trkpt><trkpt lat="41.852286925444666" lon="19.970396511173355"><ele>505.0</ele><time>2026-05-04T07:10:00Z</time></trkpt><trkpt lat="41.85234462327475" lon="19.97055805108434"><ele>505.0</ele><time>2026-05-04T07:10:01Z</time></trkpt><trkpt lat="41.85241999895168" lon="19.970721443863358"><ele>505.0</ele><time>2026-05-04T07:10:02Z</time></trkpt><trkpt lat="41.85252647007787" lon="19.970894628823903"><ele>508.6666666666667</ele><time>2026-05-04T07:10:03Z</time></trkpt><trkpt lat="41.85264294923571" lon="19.971079657959866"><ele>512.3333333333334</ele><time>2026-05-04T07:10:04Z</time></trkpt><trkpt lat="41.85276496740301" lon="19.971274760944482"><ele>516.0</ele><time>2026-05-04T07:10:05Z</time></trkpt><trkpt lat="41.85288134627932" lon="19.97146783922288"><ele>516.0</ele><time>2026-05-04T07:10:06Z</time></trkpt><trkpt lat="41.8529829796432" lon="19.97165998717338"><ele>516.0</ele><time>2026-05-04T07:10:07Z</time></trkpt><trkpt lat="41.853080345264445" lon="19.971847613742906"><ele>516.0</ele><time>2026-05-04T07:10:08Z</time></trkpt><trkpt lat="41.85318141932556" lon="19.97202527138835"><ele>511.75</ele><time>2026-05-04T07:10:09Z</time></trkpt><trkpt lat="41.853267876722235" lon="19.97217988479075"><ele>507.5</ele><time>2026-05-04T07:10:10Z</time></trkpt><trkpt lat="41.853340441030504" lon="19.9723119124033"><ele>503.25</ele><time>2026-05-04T07:10:11Z</time></trkpt><trkpt lat="41.85340154558229" lon="19.97241192836211"><ele>499.0</ele><time>2026-05-04T07:10:12Z</time></trkpt><trkpt lat="41.85348075489937" lon="19.972463747999246"><ele>499.0</ele><time>2026-05-04T07:10:13Z</time></trkpt><trkpt lat="41.85358700768574" lon="19.972484865028935"><ele>499.0</ele><time>2026-05-04T07:10:14Z</time></trkpt><trkpt lat="41.853711366423354" lon="19.972474768747244"><ele>499.0</ele><time>2026-05-04T07:10:15Z</time></trkpt><trkpt lat="41.853845631607236" lon="19.972465330558073"><ele>499.0</ele><time>2026-05-04T07:10:16Z</time></trkpt><trkpt lat="41.853963869254585" lon="19.972494655604958"><ele>493.25</ele><time>2026-05-04T07:10:17Z</time></trkpt><trkpt lat="41.854077436918544" lon="19.97256573337876"><ele>487.5</ele><time>2026-05-04T07:10:18Z</time></trkpt><trkpt lat="41.85417372381999" lon="19.972684373745714"><ele>481.75</ele><time>2026-05-04T07:10:19Z</time></trkpt><trkpt lat="41.85429070410964" lon="19.972792559864587"><ele>476.0</ele><time>2026-05-04T07:10:20Z</time></trkpt><trkpt lat="41.85441799731401" lon="19.97287019156101"><ele>476.0</ele><time>2026-05-04T07:10:21Z</time></trkpt><trkpt lat="41.85454571595272" lon="19.97293462625722"><ele>476.0</ele><time>2026-05-04T07:10:22Z</time></trkpt><trkpt lat="41.85466496024402" lon="19.97302380476799"><ele>476.0</ele><time>2026-05-04T07:10:23Z</time></trkpt><trkpt lat="41.85476729404631" lon="19.973117578384873"><ele>476.0</ele><time>2026-05-04T07:10:24Z</time></trkpt><trkpt lat="41.85485357197918" lon="19.973197039240127"><ele>476.0</ele><time>2026-05-04T07:10:25Z</time></trkpt><trkpt lat="41.854940882303" lon="19.973217720150835"><ele>476.0</ele><time>2026-05-04T07:10:26Z</time></trkpt><trkpt lat="41.85505245707373" lon="19.973171595930225"><ele>476.0</ele><time>2026-05-04T07:10:27Z</time></trkpt><trkpt lat="41.85519321335658" lon="19.97310464494838"><ele>476.0</ele><time>2026-05-04T07:10:28Z</time></trkpt><trkpt lat="41.85535015084787" lon="19.97307993973177"><ele>475.25</ele><time>2026-05-04T07:10:29Z</time></trkpt><trkpt lat="41.85552221081478" lon="19.973090817667856"><ele>474.5</ele><time>2026-05-04T07:10:30Z</time></trkpt><trkpt lat="41.85565664883436" lon="19.97312031342528"><ele>473.75</ele><time>2026-05-04T07:10:31Z</time></trkpt><trkpt lat="41.85576941550181" lon="19.973177420063987"><ele>473.0</ele><time>2026-05-04T07:10:32Z</time></trkpt><trkpt lat="41.855860741530776" lon="19.97328205658998"><ele>474.3333333333333</ele><time>2026-05-04T07:10:33Z</time></trkpt><trkpt lat="41.85594550624668" lon="19.973426209071498"><ele>475.66666666666663</ele><time>2026-05-04T07:10:34Z</time></trkpt><trkpt lat="41.85602101408574" lon="19.97362194254789"><ele>477.0</ele><time>2026-05-04T07:10:35Z</time></trkpt><trkpt lat="41.856103053913806" lon="19.973841349105697"><ele>477.0</ele><time>2026-05-04T07:10:36Z</time></trkpt><trkpt lat="41.856190314326476" lon="19.974053871737176"><ele>477.0</ele><time>2026-05-04T07:10:37Z</time></trkpt><trkpt lat="41.85625622334307" lon="19.97424415006257"><ele>477.0</ele><time>2026-05-04T07:10:38Z</time></trkpt><trkpt lat="41.85629953061683" lon="19.974424382806816"><ele>474.33333333333337</ele><time>2026-05-04T07:10:39Z</time></trkpt><trkpt lat="41.85634172669654" lon="19.974603392558098"><ele>471.6666666666667</ele><time>2026-05-04T07:10:40Z</time></trkpt><trkpt lat="41.85642827492583" lon="19.974776236665495"><ele>469.0</ele><time>2026-05-04T07:10:41Z</time></trkpt><trkpt lat="41.856562102023645" lon="19.974952086917497"><ele>467.0</ele><time>2026-05-04T07:10:42Z</time></trkpt><trkpt lat="41.85668838730456" lon="19.97514722878688"><ele>465.0</ele><time>2026-05-04T07:10:43Z</time></trkpt><trkpt lat="41.85679440836373" lon="19.97537174850575"><ele>463.0</ele><time>2026-05-04T07:10:44Z</time></trkpt><trkpt lat="41.856886769241875" lon="19.975600705912832"><ele>463.0</ele><time>2026-05-04T07:10:45Z</time></trkpt><trkpt lat="41.85696521063817" lon="19.97582224167495"><ele>463.0</ele><time>2026-05-04T07:10:46Z</time></trkpt><trkpt lat="41.85702806961945" lon="19.976032834997262"><ele>463.0</ele><time>2026-05-04T07:10:47Z</time></trkpt><trkpt lat="41.8570755953651" lon="19.976240447571783"><ele>467.25</ele><time>2026-05-04T07:10:48Z</time></trkpt><trkpt lat="41.85710809835492" lon="19.976422237478697"><ele>471.5</ele><time>2026-05-04T07:10:49Z</time></trkpt><trkpt lat="41.85712090411342" lon="19.976598578092425"><ele>475.75</ele><time>2026-05-04T07:10:50Z</time></trkpt><trkpt lat="41.857104426448565" lon="19.976782043171085"><ele>480.0</ele><time>2026-05-04T07:10:51Z</time></trkpt><trkpt lat="41.85705287572204" lon="19.9769950879493"><ele>487.33333333333337</ele><time>2026-05-04T07:10:52Z</time></trkpt><trkpt lat="41.857001136662596" lon="19.977236887023793"><ele>494.6666666666667</ele><time>2026-05-04T07:10:53Z</time></trkpt><trkpt lat="41.8569901459437" lon="19.9774954163587"><ele>502.0</ele><time>2026-05-04T07:10:54Z</time></trkpt><trkpt lat="41.85696505377455" lon="19.977781811031306"><ele>505.75</ele><time>2026-05-04T07:10:55Z</time></trkpt><trkpt lat="41.856901826269194" lon="19.978006181184828"><ele>509.5</ele><time>2026-05-04T07:10:56Z</time></trkpt><trkpt lat="41.85683072988225" lon="19.978129288040243"><ele>513.25</ele><time>2026-05-04T07:10:57Z</time></trkpt><trkpt lat="41.856713972073806" lon="19.978234826469546"><ele>517.0</ele><time>2026-05-04T07:10:58Z</time></trkpt><trkpt lat="41.856592331776" lon="19.978344128799087"><ele>508.0</ele><time>2026-05-04T07:10:59Z</time></trkpt><trkpt lat="41.856518674176336" lon="19.978499571523628"><ele>499.0</ele><time>2026-05-04T07:11:00Z</time></trkpt><trkpt lat="41.85649209119957" lon="19.978713110419807"><ele>490.0</ele><time>2026-05-04T07:11:01Z</time></trkpt><trkpt lat="41.8564892199312" lon="19.97895707205775"><ele>497.6666666666667</ele><time>2026-05-04T07:11:02Z</time></trkpt><trkpt lat="41.85646877650609" lon="19.97920870420407"><ele>505.33333333333337</ele><time>2026-05-04T07:11:03Z</time></trkpt><trkpt lat="41.8564084735635" lon="19.979430011114793"><ele>513.0</ele><time>2026-05-04T07:11:04Z</time></trkpt><trkpt lat="41.856327436921056" lon="19.979602078148137"><ele>513.0</ele><time>2026-05-04T07:11:05Z</time></trkpt><trkpt lat="41.85621115409513" lon="19.979732651918994"><ele>513.0</ele><time>2026-05-04T07:11:06Z</time></trkpt><trkpt lat="41.85607325621742" lon="19.979840910032543"><ele>513.0</ele><time>2026-05-04T07:11:07Z</time></trkpt><trkpt lat="41.85591093264269" lon="19.97990726991042"><ele>505.75</ele><time>2026-05-04T07:11:08Z</time></trkpt><trkpt lat="41.855759891512136" lon="19.979964062496627"><ele>498.5</ele><time>2026-05-04T07:11:09Z</time></trkpt><trkpt lat="41.85565703945571" lon="19.98006354213307"><ele>491.25</ele><time>2026-05-04T07:11:10Z</time></trkpt><trkpt lat="41.85561236298709" lon="19.980176595084508"><ele>484.0</ele><time>2026-05-04T07:11:11Z</time></trkpt><trkpt lat="41.85559422522273" lon="19.98028960366652"><ele>482.0</ele><time>2026-05-04T07:11:12Z</time></trkpt><trkpt lat="41.855605999556445" lon="19.980405770005067"><ele>480.0</ele><time>2026-05-04T07:11:13Z</time></trkpt><trkpt lat="41.85566931976256" lon="19.9805302687868"><ele>478.0</ele><time>2026-05-04T07:11:14Z</time></trkpt><trkpt lat="41.8557778622704" lon="19.980638141527635"><ele>476.0</ele><time>2026-05-04T07:11:15Z</time></trkpt><trkpt lat="41.85593249558028" lon="19.98074204790846"><ele>481.3333333333333</ele><time>2026-05-04T07:11:16Z</time></trkpt><trkpt lat="41.85609761392741" lon="19.980866618092016"><ele>486.66666666666663</ele><time>2026-05-04T07:11:17Z</time></trkpt><trkpt lat="41.856237433573355" lon="19.981047255063245"><ele>492.0</ele><time>2026-05-04T07:11:18Z</time></trkpt><trkpt lat="41.85635996262571" lon="19.981275954001138"><ele>492.0</ele><time>2026-05-04T07:11:19Z</time></trkpt><trkpt lat="41.85647148108728" lon="19.981527105562478"><ele>492.0</ele><time>2026-05-04T07:11:20Z</time></trkpt><trkpt lat="41.85657237731835" lon="19.981776185673315"><ele>492.0</ele><time>2026-05-04T07:11:21Z</time></trkpt><trkpt lat="41.85664252956129" lon="19.982001076646426"><ele>490.5</ele><time>2026-05-04T07:11:22Z</time></trkpt><trkpt lat="41.856675815157026" lon="19.982204985690984"><ele>489.0</ele><time>2026-05-04T07:11:23Z</time></trkpt><trkpt lat="41.856714195293165" lon="19.982366910161012"><ele>487.5</ele><time>2026-05-04T07:11:24Z</time></trkpt><trkpt lat="41.856796019848076" lon="19.98250051883942"><ele>486.0</ele><time>2026-05-04T07:11:25Z</time></trkpt><trkpt lat="41.85693403205289" lon="19.982596997461673"><ele>486.0</ele><time>2026-05-04T07:11:26Z</time></trkpt><trkpt lat="41.857084674970196" lon="19.98267937964985"><ele>486.0</ele><time>2026-05-04T07:11:27Z</time></trkpt><trkpt lat="41.85723198120757" lon="19.982783655709525"><ele>486.0</ele><time>2026-05-04T07:11:28Z</time></trkpt><trkpt lat="41.85737086445586" lon="19.982910310799603"><ele>486.0</ele><time>2026-05-04T07:11:29Z</time></trkpt><trkpt lat="41.857493686517934" lon="19.983028807446615"><ele>486.0</ele><time>2026-05-04T07:11:30Z</time></trkpt><trkpt lat="41.85764081572367" lon="19.983104098214408"><ele>486.0</ele><time>2026-05-04T07:11:31Z</time></trkpt><trkpt lat="41.8578216026001" lon="19.983151145055324"><ele>489.33333333333337</ele><time>2026-05-04T07:11:32Z</time></trkpt><trkpt lat="41.85800228599611" lon="19.98319129338853"><ele>492.6666666666667</ele><time>2026-05-04T07:11:33Z</time></trkpt><trkpt lat="41.858171667141136" lon="19.98325249301435"><ele>496.0</ele><time>2026-05-04T07:11:34Z</time></trkpt><trkpt lat="41.85832760421733" lon="19.98334565147592"><ele>494.33333333333337</ele><time>2026-05-04T07:11:35Z</time></trkpt><trkpt lat="41.858483653195826" lon="19.98347335243213"><ele>492.66666666666663</ele><time>2026-05-04T07:11:36Z</time></trkpt><trkpt lat="41.85863885573865" lon="19.98361914436964"><ele>491.0</ele><time>2026-05-04T07:11:37Z</time></trkpt><trkpt lat="41.858793333401124" lon="19.983742259389107"><ele>491.0</ele><time>2026-05-04T07:11:38Z</time></trkpt><trkpt lat="41.85895705197251" lon="19.983842714861826"><ele>491.0</ele><time>2026-05-04T07:11:39Z</time></trkpt><trkpt lat="41.85911315592153" lon="19.98394218603059"><ele>491.0</ele><time>2026-05-04T07:11:40Z</time></trkpt><trkpt lat="41.85926095199891" lon="19.984040646836537"><ele>497.0</ele><time>2026-05-04T07:11:41Z</time></trkpt><trkpt lat="41.8593912193623" lon="19.984120241697187"><ele>503.0</ele><time>2026-05-04T07:11:42Z</time></trkpt><trkpt lat="41.85950396044294" lon="19.984193296177107"><ele>509.0</ele><time>2026-05-04T07:11:43Z</time></trkpt><trkpt lat="41.85958013978011" lon="19.984277856129435"><ele>515.0</ele><time>2026-05-04T07:11:44Z</time></trkpt><trkpt lat="41.859611686362214" lon="19.98438233710962"><ele>515.0</ele><time>2026-05-04T07:11:45Z</time></trkpt><trkpt lat="41.85959260154197" lon="19.984503047674867"><ele>515.0</ele><time>2026-05-04T07:11:46Z</time></trkpt><trkpt lat="41.859539244918075" lon="19.98463560137477"><ele>515.0</ele><time>2026-05-04T07:11:46.999Z</time></trkpt><trkpt lat="41.859463225632176" lon="19.9847756819874"><ele>515.0</ele><time>2026-05-04T07:11:47.999Z</time></trkpt><trkpt lat="41.859394947609125" lon="19.984926347151106"><ele>515.0</ele><time>2026-05-04T07:11:48.999Z</time></trkpt><trkpt lat="41.859343046315736" lon="19.985080591128032"><ele>515.0</ele><time>2026-05-04T07:11:49.999Z</time></trkpt><trkpt lat="41.859341645207216" lon="19.985224545710718"><ele>515.0</ele><time>2026-05-04T07:11:50.999Z</time></trkpt><trkpt lat="41.85938974762262" lon="19.985393243932617"><ele>515.0</ele><time>2026-05-04T07:11:51.999Z</time></trkpt><trkpt lat="41.85943138811172" lon="19.985562120950036"><ele>515.0</ele><time>2026-05-04T07:11:52.999Z</time></trkpt><trkpt lat="41.859444665732845" lon="19.985700337238022"><ele>515.0</ele><time>2026-05-04T07:11:53.999Z</time></trkpt><trkpt lat="41.8594470093736" lon="19.98583230834792"><ele>515.0</ele><time>2026-05-04T07:11:55Z</time></trkpt><trkpt lat="41.85943467014803" lon="19.985960498166055"><ele>515.0</ele><time>2026-05-04T07:11:56Z</time></trkpt><trkpt lat="41.85940749532726" lon="19.986079576857563"><ele>515.0</ele><time>2026-05-04T07:11:57Z</time></trkpt><trkpt lat="41.85937753380144" lon="19.986189327330294"><ele>514.6666666666666</ele><time>2026-05-04T07:11:58Z</time></trkpt><trkpt lat="41.859349661821895" lon="19.986291114500926"><ele>514.3333333333333</ele><time>2026-05-04T07:11:59.001Z</time></trkpt><trkpt lat="41.859322887118616" lon="19.98638952426609"><ele>514.0</ele><time>2026-05-04T07:12:00Z</time></trkpt><trkpt lat="41.85929926776862" lon="19.986480216302425"><ele>513.6666666666666</ele><time>2026-05-04T07:12:01.001Z</time></trkpt><trkpt lat="41.85927639310953" lon="19.986575429961203"><ele>513.3333333333334</ele><time>2026-05-04T07:12:02.001Z</time></trkpt><trkpt lat="41.859255238864954" lon="19.98667767538044"><ele>513.0</ele><time>2026-05-04T07:12:03Z</time></trkpt><trkpt lat="41.85923595032858" lon="19.986781339773575"><ele>510.2</ele><time>2026-05-04T07:12:04Z</time></trkpt><trkpt lat="41.85922667867101" lon="19.986892131278243"><ele>507.4</ele><time>2026-05-04T07:12:05.001Z</time></trkpt><trkpt lat="41.859250133153836" lon="19.987009569078406"><ele>504.59999999999997</ele><time>2026-05-04T07:12:06Z</time></trkpt><trkpt lat="41.85931332867074" lon="19.98709828117564"><ele>501.79999999999995</ele><time>2026-05-04T07:12:07Z</time></trkpt><trkpt lat="41.85940629711822" lon="19.98713115543095"><ele>499.0</ele><time>2026-05-04T07:12:08.001Z</time></trkpt><trkpt lat="41.85951909370906" lon="19.9871316617594"><ele>499.0</ele><time>2026-05-04T07:12:09Z</time></trkpt><trkpt lat="41.8596436185475" lon="19.987130289591672"><ele>499.0</ele><time>2026-05-04T07:12:10Z</time></trkpt><trkpt lat="41.85978103894833" lon="19.98714786478284"><ele>499.0</ele><time>2026-05-04T07:12:11Z</time></trkpt><trkpt lat="41.85990977741215" lon="19.987195736162395"><ele>499.0</ele><time>2026-05-04T07:12:12Z</time></trkpt><trkpt lat="41.86003434046655" lon="19.987290071011834"><ele>497.75</ele><time>2026-05-04T07:12:13Z</time></trkpt><trkpt lat="41.86014282592032" lon="19.98741743960332"><ele>496.5</ele><time>2026-05-04T07:12:14Z</time></trkpt><trkpt lat="41.860243789747166" lon="19.98751913400232"><ele>495.25</ele><time>2026-05-04T07:12:15Z</time></trkpt><trkpt lat="41.860341628514995" lon="19.987572505909156"><ele>494.0</ele><time>2026-05-04T07:12:16Z</time></trkpt><trkpt lat="41.860482080380045" lon="19.987558036749146"><ele>494.0</ele><time>2026-05-04T07:12:17Z</time></trkpt><trkpt lat="41.860647048754636" lon="19.987527717341234"><ele>494.0</ele><time>2026-05-04T07:12:18Z</time></trkpt><trkpt lat="41.860819927809885" lon="19.98749332057485"><ele>494.0</ele><time>2026-05-04T07:12:19Z</time></trkpt><trkpt lat="41.86100307789694" lon="19.987455413889574"><ele>501.3333333333333</ele><time>2026-05-04T07:12:20Z</time></trkpt><trkpt lat="41.861185964317116" lon="19.987405809822828"><ele>508.66666666666663</ele><time>2026-05-04T07:12:21Z</time></trkpt><trkpt lat="41.86135896219215" lon="19.98735409954311"><ele>516.0</ele><time>2026-05-04T07:12:22Z</time></trkpt><trkpt lat="41.861504367457066" lon="19.98733743993596"><ele>516.0</ele><time>2026-05-04T07:12:23Z</time></trkpt><trkpt lat="41.86163548330802" lon="19.987382366824743"><ele>516.0</ele><time>2026-05-04T07:12:24Z</time></trkpt><trkpt lat="41.86175913845762" lon="19.98747818177412"><ele>516.0</ele><time>2026-05-04T07:12:25Z</time></trkpt><trkpt lat="41.86185986985047" lon="19.987612671437795"><ele>516.0</ele><time>2026-05-04T07:12:26Z</time></trkpt><trkpt lat="41.861914012858776" lon="19.987761440332825"><ele>515.5</ele><time>2026-05-04T07:12:27Z</time></trkpt><trkpt lat="41.861933012516474" lon="19.9879212023115"><ele>515.0</ele><time>2026-05-04T07:12:28Z</time></trkpt><trkpt lat="41.86193920892582" lon="19.988113079049818"><ele>514.5</ele><time>2026-05-04T07:12:29Z</time></trkpt><trkpt lat="41.86195133636114" lon="19.988275379923344"><ele>514.0</ele><time>2026-05-04T07:12:30Z</time></trkpt><trkpt lat="41.86201028432451" lon="19.988375779202368"><ele>514.0</ele><time>2026-05-04T07:12:31Z</time></trkpt><trkpt lat="41.86211999159481" lon="19.98843982068395"><ele>514.0</ele><time>2026-05-04T07:12:32Z</time></trkpt><trkpt lat="41.862259339983765" lon="19.98846364698516"><ele>514.0</ele><time>2026-05-04T07:12:33Z</time></trkpt><trkpt lat="41.862397275663675" lon="19.988421617371344"><ele>514.0</ele><time>2026-05-04T07:12:34Z</time></trkpt><trkpt lat="41.862551017618614" lon="19.988317301977823"><ele>510.0</ele><time>2026-05-04T07:12:35Z</time></trkpt><trkpt lat="41.86271032002869" lon="19.988191015055452"><ele>506.0</ele><time>2026-05-04T07:12:36Z</time></trkpt><trkpt lat="41.86288353435727" lon="19.988069720488635"><ele>502.0</ele><time>2026-05-04T07:12:37Z</time></trkpt><trkpt lat="41.863058802803046" lon="19.987938889348534"><ele>502.0</ele><time>2026-05-04T07:12:38Z</time></trkpt><trkpt lat="41.86322248699039" lon="19.98776204973595"><ele>502.0</ele><time>2026-05-04T07:12:39Z</time></trkpt><trkpt lat="41.86338655240799" lon="19.98756371052164"><ele>502.0</ele><time>2026-05-04T07:12:40Z</time></trkpt><trkpt lat="41.8635367353419" lon="19.987353805247125"><ele>509.6666666666667</ele><time>2026-05-04T07:12:41Z</time></trkpt><trkpt lat="41.86367705063129" lon="19.987166098741305"><ele>517.3333333333334</ele><time>2026-05-04T07:12:42Z</time></trkpt><trkpt lat="41.863804710381714" lon="19.98702786732097"><ele>525.0</ele><time>2026-05-04T07:12:43Z</time></trkpt><trkpt lat="41.86390569288773" lon="19.986933444771"><ele>525.0</ele><time>2026-05-04T07:12:44Z</time></trkpt><trkpt lat="41.86400484318423" lon="19.986884464352343"><ele>525.0</ele><time>2026-05-04T07:12:45Z</time></trkpt><trkpt lat="41.86410335447399" lon="19.986893657187906"><ele>525.0</ele><time>2026-05-04T07:12:46Z</time></trkpt><trkpt lat="41.864191183788996" lon="19.98696268329133"><ele>525.0</ele><time>2026-05-04T07:12:47Z</time></trkpt><trkpt lat="41.8642473551822" lon="19.987076933595997"><ele>525.0</ele><time>2026-05-04T07:12:48Z</time></trkpt><trkpt lat="41.86424341230999" lon="19.987204828358"><ele>525.0</ele><time>2026-05-04T07:12:49Z</time></trkpt><trkpt lat="41.8641979647055" lon="19.98733662710994"><ele>525.0</ele><time>2026-05-04T07:12:50Z</time></trkpt><trkpt lat="41.864170092717686" lon="19.987511720800867"><ele>525.0</ele><time>2026-05-04T07:12:51Z</time></trkpt><trkpt lat="41.86417969829706" lon="19.987747452429808"><ele>525.0</ele><time>2026-05-04T07:12:52Z</time></trkpt><trkpt lat="41.86419548414918" lon="19.98795669914054"><ele>525.8</ele><time>2026-05-04T07:12:53Z</time></trkpt><trkpt lat="41.86419258722772" lon="19.988132822011757"><ele>526.6</ele><time>2026-05-04T07:12:54Z</time></trkpt><trkpt lat="41.86420482188776" lon="19.988258429213207"><ele>527.4</ele><time>2026-05-04T07:12:55Z</time></trkpt><trkpt lat="41.86424526665977" lon="19.988332205749984"><ele>528.2</ele><time>2026-05-04T07:12:56Z</time></trkpt><trkpt lat="41.864318596476366" lon="19.988382886411955"><ele>529.0</ele><time>2026-05-04T07:12:57Z</time></trkpt><trkpt lat="41.86442635019885" lon="19.988403276393715"><ele>529.0</ele><time>2026-05-04T07:12:58Z</time></trkpt><trkpt lat="41.86454727946514" lon="19.98841287339265"><ele>529.0</ele><time>2026-05-04T07:12:59Z</time></trkpt><trkpt lat="41.86464593164318" lon="19.98845583664769"><ele>529.0</ele><time>2026-05-04T07:13:00Z</time></trkpt><trkpt lat="41.864693845248965" lon="19.988541506666134"><ele>529.0</ele><time>2026-05-04T07:13:01Z</time></trkpt><trkpt lat="41.86470441121292" lon="19.9886676224043"><ele>529.0</ele><time>2026-05-04T07:13:02Z</time></trkpt><trkpt lat="41.86468115826139" lon="19.98883299957254"><ele>529.0</ele><time>2026-05-04T07:13:03Z</time></trkpt><trkpt lat="41.86465537157011" lon="19.98902144277304"><ele>529.0</ele><time>2026-05-04T07:13:04Z</time></trkpt><trkpt lat="41.864660320003736" lon="19.989194137781116"><ele>529.0</ele><time>2026-05-04T07:13:05Z</time></trkpt><trkpt lat="41.8647139665925" lon="19.989327361701463"><ele>529.0</ele><time>2026-05-04T07:13:06Z</time></trkpt><trkpt lat="41.86481773737082" lon="19.989445770600614"><ele>524.5</ele><time>2026-05-04T07:13:07Z</time></trkpt><trkpt lat="41.86495226465032" lon="19.989567072096467"><ele>520.0</ele><time>2026-05-04T07:13:08Z</time></trkpt><trkpt lat="41.86505026853421" lon="19.989720343921885"><ele>515.5</ele><time>2026-05-04T07:13:09Z</time></trkpt><trkpt lat="41.86509573787701" lon="19.989892553869126"><ele>511.0</ele><time>2026-05-04T07:13:10Z</time></trkpt><trkpt lat="41.86510476338534" lon="19.990094226616037"><ele>510.25</ele><time>2026-05-04T07:13:11Z</time></trkpt><trkpt lat="41.86509025352085" lon="19.990307192712866"><ele>509.5</ele><time>2026-05-04T07:13:12Z</time></trkpt><trkpt lat="41.865097715195226" lon="19.99047198239361"><ele>508.75</ele><time>2026-05-04T07:13:13Z</time></trkpt><trkpt lat="41.86514783918546" lon="19.990606231921305"><ele>508.0</ele><time>2026-05-04T07:13:13.999Z</time></trkpt><trkpt lat="41.86522613069519" lon="19.990707058122315"><ele>508.0</ele><time>2026-05-04T07:13:14.999Z</time></trkpt><trkpt lat="41.86532328064801" lon="19.990748794225606"><ele>508.0</ele><time>2026-05-04T07:13:15.999Z</time></trkpt><trkpt lat="41.86543766494817" lon="19.990719531487517"><ele>508.0</ele><time>2026-05-04T07:13:16.999Z</time></trkpt><trkpt lat="41.86556888305574" lon="19.99065411958998"><ele>508.0</ele><time>2026-05-04T07:13:17.999Z</time></trkpt><trkpt lat="41.86572233328035" lon="19.990613498929026"><ele>508.0</ele><time>2026-05-04T07:13:18.999Z</time></trkpt><trkpt lat="41.8658754270478" lon="19.99059766954036"><ele>508.0</ele><time>2026-05-04T07:13:19.999Z</time></trkpt><trkpt lat="41.866043601384305" lon="19.99064620751235"><ele>508.0</ele><time>2026-05-04T07:13:20.999Z</time></trkpt><trkpt lat="41.866188067003044" lon="19.99070195177926"><ele>504.5</ele><time>2026-05-04T07:13:21.999Z</time></trkpt><trkpt lat="41.86630825674226" lon="19.990716683107348"><ele>501.0</ele><time>2026-05-04T07:13:22.999Z</time></trkpt><trkpt lat="41.86641552904261" lon="19.990649801952884"><ele>497.5</ele><time>2026-05-04T07:13:23.999Z</time></trkpt><trkpt lat="41.866532209330614" lon="19.99053334510933"><ele>494.0</ele><time>2026-05-04T07:13:24.999Z</time></trkpt><trkpt lat="41.86666696913091" lon="19.99038607148985"><ele>484.66666666666663</ele><time>2026-05-04T07:13:25.999Z</time></trkpt><trkpt lat="41.866798215419394" lon="19.99023572340701"><ele>475.33333333333337</ele><time>2026-05-04T07:13:26.999Z</time></trkpt><trkpt lat="41.86688006024899" lon="19.99007226399636"><ele>466.0</ele><time>2026-05-04T07:13:27.999Z</time></trkpt><trkpt lat="41.866916445927174" lon="19.989862640524382"><ele>466.0</ele><time>2026-05-04T07:13:28.999Z</time></trkpt><trkpt lat="41.86694928425161" lon="19.98963623870757"><ele>466.0</ele><time>2026-05-04T07:13:29.999Z</time></trkpt><trkpt lat="41.866968554809944" lon="19.989431117204568"><ele>466.0</ele><time>2026-05-04T07:13:30.999Z</time></trkpt><trkpt lat="41.86693053179671" lon="19.9892229835085"><ele>471.0</ele><time>2026-05-04T07:13:31.999Z</time></trkpt><trkpt lat="41.86690177746746" lon="19.989008930859757"><ele>476.0</ele><time>2026-05-04T07:13:32.999Z</time></trkpt><trkpt lat="41.86692653736923" lon="19.988794358252036"><ele>481.0</ele><time>2026-05-04T07:13:33.999Z</time></trkpt><trkpt lat="41.86698689528941" lon="19.988577488953833"><ele>481.0</ele><time>2026-05-04T07:13:34.999Z</time></trkpt><trkpt lat="41.867036764093335" lon="19.988345393589235"><ele>481.0</ele><time>2026-05-04T07:13:35.999Z</time></trkpt><trkpt lat="41.867076189508424" lon="19.988100439449298"><ele>481.0</ele><time>2026-05-04T07:13:36.999Z</time></trkpt><trkpt lat="41.86708711477364" lon="19.987849083309357"><ele>484.0</ele><time>2026-05-04T07:13:37.999Z</time></trkpt><trkpt lat="41.86705839286775" lon="19.987580454570775"><ele>487.0</ele><time>2026-05-04T07:13:38.999Z</time></trkpt><trkpt lat="41.86703540207617" lon="19.987326535207735"><ele>490.0</ele><time>2026-05-04T07:13:39.999Z</time></trkpt><trkpt lat="41.86704696465875" lon="19.98710671341632"><ele>493.0</ele><time>2026-05-04T07:13:40.999Z</time></trkpt><trkpt lat="41.86710537771498" lon="19.986908974566504"><ele>496.0</ele><time>2026-05-04T07:13:41.999Z</time></trkpt><trkpt lat="41.86719892310409" lon="19.986727360209184"><ele>499.0</ele><time>2026-05-04T07:13:42.999Z</time></trkpt><trkpt lat="41.867264737654935" lon="19.9865341780653"><ele>502.4</ele><time>2026-05-04T07:13:43.999Z</time></trkpt><trkpt lat="41.86725168070817" lon="19.986366744693793"><ele>505.79999999999995</ele><time>2026-05-04T07:13:44.999Z</time></trkpt><trkpt lat="41.86722371314171" lon="19.98621644629208"><ele>509.20000000000005</ele><time>2026-05-04T07:13:45.999Z</time></trkpt><trkpt lat="41.867252290393246" lon="19.986099388872454"><ele>512.6</ele><time>2026-05-04T07:13:46.999Z</time></trkpt><trkpt lat="41.86733982032056" lon="19.985995842922684"><ele>516.0</ele><time>2026-05-04T07:13:47.999Z</time></trkpt><trkpt lat="41.86745813016062" lon="19.985871522216396"><ele>516.0</ele><time>2026-05-04T07:13:48.999Z</time></trkpt><trkpt lat="41.867578768838" lon="19.98573737498936"><ele>516.0</ele><time>2026-05-04T07:13:49.999Z</time></trkpt><trkpt lat="41.86768960963698" lon="19.985654769913566"><ele>516.0</ele><time>2026-05-04T07:13:50.999Z</time></trkpt><trkpt lat="41.86780115208349" lon="19.985639529929507"><ele>516.0</ele><time>2026-05-04T07:13:51.999Z</time></trkpt><trkpt lat="41.86791713620578" lon="19.985666763930205"><ele>516.0</ele><time>2026-05-04T07:13:52.999Z</time></trkpt><trkpt lat="41.86801724960476" lon="19.985633110379943"><ele>516.0</ele><time>2026-05-04T07:13:53.999Z</time></trkpt><trkpt lat="41.86809966423959" lon="19.98552337705352"><ele>516.0</ele><time>2026-05-04T07:13:54.999Z</time></trkpt><trkpt lat="41.86816854951946" lon="19.985341829402632"><ele>516.0</ele><time>2026-05-04T07:13:55.999Z</time></trkpt><trkpt lat="41.868214466407686" lon="19.985120677207398"><ele>520.5</ele><time>2026-05-04T07:13:56.999Z</time></trkpt><trkpt lat="41.86826444313483" lon="19.98494203707004"><ele>525.0</ele><time>2026-05-04T07:13:57.999Z</time></trkpt><trkpt lat="41.868343402371764" lon="19.984838284722482"><ele>529.5</ele><time>2026-05-04T07:13:58.999Z</time></trkpt><trkpt lat="41.86846236330147" lon="19.984776374564493"><ele>534.0</ele><time>2026-05-04T07:13:59.999Z</time></trkpt><trkpt lat="41.868602345912564" lon="19.984727326787517"><ele>534.0</ele><time>2026-05-04T07:14:01Z</time></trkpt><trkpt lat="41.86876249357069" lon="19.9847253330441"><ele>534.0</ele><time>2026-05-04T07:14:02Z</time></trkpt><trkpt lat="41.86894691134104" lon="19.984759882120766"><ele>534.0</ele><time>2026-05-04T07:14:03Z</time></trkpt><trkpt lat="41.86914296808662" lon="19.984769819023416"><ele>538.6666666666666</ele><time>2026-05-04T07:14:04Z</time></trkpt><trkpt lat="41.869341886628376" lon="19.984744090912034"><ele>543.3333333333333</ele><time>2026-05-04T07:14:05Z</time></trkpt><trkpt lat="41.86952532572372" lon="19.984692239928602"><ele>548.0</ele><time>2026-05-04T07:14:06Z</time></trkpt><trkpt lat="41.86968212351521" lon="19.98461964543983"><ele>548.0</ele><time>2026-05-04T07:14:07Z</time></trkpt><trkpt lat="41.86983326655472" lon="19.984595932207696"><ele>548.0</ele><time>2026-05-04T07:14:08Z</time></trkpt><trkpt lat="41.87000626657784" lon="19.98463421117018"><ele>548.0</ele><time>2026-05-04T07:14:09Z</time></trkpt><trkpt lat="41.87016808429815" lon="19.9847009381785"><ele>546.75</ele><time>2026-05-04T07:14:10Z</time></trkpt><trkpt lat="41.8703035397065" lon="19.98472772479672"><ele>545.5</ele><time>2026-05-04T07:14:11Z</time></trkpt><trkpt lat="41.87042400368348" lon="19.984681519346704"><ele>544.25</ele><time>2026-05-04T07:14:12Z</time></trkpt><trkpt lat="41.87053912427438" lon="19.984570437482567"><ele>543.0</ele><time>2026-05-04T07:14:13Z</time></trkpt><trkpt lat="41.870649482117386" lon="19.984451805184296"><ele>543.0</ele><time>2026-05-04T07:14:14Z</time></trkpt><trkpt lat="41.8707703919993" lon="19.984396607661093"><ele>543.0</ele><time>2026-05-04T07:14:15Z</time></trkpt><trkpt lat="41.87090490169106" lon="19.984417270490088"><ele>543.0</ele><time>2026-05-04T07:14:16Z</time></trkpt><trkpt lat="41.87104580264079" lon="19.9844804315004"><ele>543.0</ele><time>2026-05-04T07:14:17Z</time></trkpt><trkpt lat="41.87119209343746" lon="19.984578500193457"><ele>541.0</ele><time>2026-05-04T07:14:18Z</time></trkpt><trkpt lat="41.87134283364827" lon="19.984696011820226"><ele>539.0</ele><time>2026-05-04T07:14:19Z</time></trkpt><trkpt lat="41.8715003749708" lon="19.984822194896275"><ele>537.0</ele><time>2026-05-04T07:14:20Z</time></trkpt><trkpt lat="41.871666953317686" lon="19.984948572196764"><ele>530.3333333333334</ele><time>2026-05-04T07:14:21Z</time></trkpt><trkpt lat="41.87183823718603" lon="19.985083761775464"><ele>523.6666666666667</ele><time>2026-05-04T07:14:22Z</time></trkpt><trkpt lat="41.87198028320857" lon="19.985221597038702"><ele>517.0</ele><time>2026-05-04T07:14:23Z</time></trkpt><trkpt lat="41.87208768197113" lon="19.985352883935715"><ele>517.0</ele><time>2026-05-04T07:14:24Z</time></trkpt><trkpt lat="41.87216045855226" lon="19.985449378246784"><ele>517.0</ele><time>2026-05-04T07:14:25Z</time></trkpt><trkpt lat="41.87225055681075" lon="19.985481160947465"><ele>517.0</ele><time>2026-05-04T07:14:26Z</time></trkpt><trkpt lat="41.87237763358283" lon="19.98543719343421"><ele>517.0</ele><time>2026-05-04T07:14:27Z</time></trkpt><trkpt lat="41.8725243672849" lon="19.985336668438734"><ele>521.6666666666667</ele><time>2026-05-04T07:14:28Z</time></trkpt><trkpt lat="41.87269300273828" lon="19.98523131020475"><ele>526.3333333333334</ele><time>2026-05-04T07:14:29Z</time></trkpt><trkpt lat="41.872891918813735" lon="19.985183883826046"><ele>531.0</ele><time>2026-05-04T07:14:30Z</time></trkpt><trkpt lat="41.873099918891164" lon="19.985188179868633"><ele>531.0</ele><time>2026-05-04T07:14:31Z</time></trkpt><trkpt lat="41.87329884365868" lon="19.985206488053862"><ele>531.0</ele><time>2026-05-04T07:14:32Z</time></trkpt><trkpt lat="41.87345676509642" lon="19.98521713306459"><ele>531.0</ele><time>2026-05-04T07:14:33Z</time></trkpt><trkpt lat="41.873585158861076" lon="19.985277703049192"><ele>537.6666666666666</ele><time>2026-05-04T07:14:34Z</time></trkpt><trkpt lat="41.87369526857175" lon="19.985413638031325"><ele>544.3333333333333</ele><time>2026-05-04T07:14:35Z</time></trkpt><trkpt lat="41.873804085784506" lon="19.985582014510335"><ele>551.0</ele><time>2026-05-04T07:14:36Z</time></trkpt><trkpt lat="41.87393332963517" lon="19.985739947747877"><ele>547.0</ele><time>2026-05-04T07:14:37Z</time></trkpt><trkpt lat="41.87408513550716" lon="19.985879602468266"><ele>543.0</ele><time>2026-05-04T07:14:38Z</time></trkpt><trkpt lat="41.874229918777765" lon="19.98598752910129"><ele>539.0</ele><time>2026-05-04T07:14:39Z</time></trkpt><trkpt lat="41.87435699949376" lon="19.9860452597769"><ele>545.25</ele><time>2026-05-04T07:14:40Z</time></trkpt><trkpt lat="41.87449755212669" lon="19.98603271082336"><ele>551.5</ele><time>2026-05-04T07:14:41Z</time></trkpt><trkpt lat="41.87463886012368" lon="19.986003442328787"><ele>557.75</ele><time>2026-05-04T07:14:42Z</time></trkpt><trkpt lat="41.8747589490151" lon="19.986022362948844"><ele>564.0</ele><time>2026-05-04T07:14:43Z</time></trkpt><trkpt lat="41.87484837657099" lon="19.986095846044233"><ele>564.0</ele><time>2026-05-04T07:14:43.999Z</time></trkpt><trkpt lat="41.87489350035817" lon="19.986214686019878"><ele>564.0</ele><time>2026-05-04T07:14:44.999Z</time></trkpt><trkpt lat="41.87488950049536" lon="19.986367315810817"><ele>564.0</ele><time>2026-05-04T07:14:45.999Z</time></trkpt><trkpt lat="41.87485828203264" lon="19.98655672071075"><ele>564.0</ele><time>2026-05-04T07:14:46.999Z</time></trkpt><trkpt lat="41.874828803447215" lon="19.986756177051202"><ele>568.0</ele><time>2026-05-04T07:14:47.999Z</time></trkpt><trkpt lat="41.874779252773486" lon="19.98693586330874"><ele>572.0</ele><time>2026-05-04T07:14:48.999Z</time></trkpt><trkpt lat="41.8746857414543" lon="19.98710418909877"><ele>576.0</ele><time>2026-05-04T07:14:49.999Z</time></trkpt><trkpt lat="41.87458096657519" lon="19.987285047406793"><ele>576.0</ele><time>2026-05-04T07:14:50.999Z</time></trkpt><trkpt lat="41.87452207082405" lon="19.987503311432814"><ele>576.0</ele><time>2026-05-04T07:14:51.999Z</time></trkpt><trkpt lat="41.87451479886011" lon="19.987741445922534"><ele>576.0</ele><time>2026-05-04T07:14:52.999Z</time></trkpt><trkpt lat="41.8745418499271" lon="19.987964406797676"><ele>574.8</ele><time>2026-05-04T07:14:53.999Z</time></trkpt><trkpt lat="41.87457506229151" lon="19.98811131050872"><ele>573.6</ele><time>2026-05-04T07:14:54.999Z</time></trkpt><trkpt lat="41.874625788768995" lon="19.988185810659733"><ele>572.4</ele><time>2026-05-04T07:14:55.999Z</time></trkpt><trkpt lat="41.87470273250817" lon="19.98824523076603"><ele>571.2</ele><time>2026-05-04T07:14:56.999Z</time></trkpt><trkpt lat="41.87483236653469" lon="19.98829757425781"><ele>570.0</ele><time>2026-05-04T07:14:57.999Z</time></trkpt><trkpt lat="41.874964209991816" lon="19.9883903151011"><ele>574.6666666666666</ele><time>2026-05-04T07:14:58.999Z</time></trkpt><trkpt lat="41.87506367242075" lon="19.988565648834474"><ele>579.3333333333333</ele><time>2026-05-04T07:14:59.999Z</time></trkpt><trkpt lat="41.87513774193158" lon="19.988797157176798"><ele>584.0</ele><time>2026-05-04T07:15:00.999Z</time></trkpt><trkpt lat="41.87521341675052" lon="19.98901321277101"><ele>584.0</ele><time>2026-05-04T07:15:01.999Z</time></trkpt><trkpt lat="41.87529655647035" lon="19.989160151210722"><ele>584.0</ele><time>2026-05-04T07:15:02.999Z</time></trkpt><trkpt lat="41.87539703246728" lon="19.98924212123187"><ele>584.0</ele><time>2026-05-04T07:15:03.999Z</time></trkpt><trkpt lat="41.87553984345755" lon="19.989296787866596"><ele>584.0</ele><time>2026-05-04T07:15:04.999Z</time></trkpt><trkpt lat="41.87568143198299" lon="19.9893553785095"><ele>580.0</ele><time>2026-05-04T07:15:05.999Z</time></trkpt><trkpt lat="41.87578217749231" lon="19.98950114190631"><ele>576.0</ele><time>2026-05-04T07:15:06.999Z</time></trkpt><trkpt lat="41.875838972107175" lon="19.989701688065914"><ele>572.0</ele><time>2026-05-04T07:15:07.999Z</time></trkpt><trkpt lat="41.87586307779245" lon="19.989925466115217"><ele>569.75</ele><time>2026-05-04T07:15:08.999Z</time></trkpt><trkpt lat="41.87590352184293" lon="19.990115271613064"><ele>567.5</ele><time>2026-05-04T07:15:09.999Z</time></trkpt><trkpt lat="41.87597853937615" lon="19.990235991054966"><ele>565.25</ele><time>2026-05-04T07:15:10.999Z</time></trkpt><trkpt lat="41.87610080557133" lon="19.990261388334055"><ele>563.0</ele><time>2026-05-04T07:15:11.999Z</time></trkpt><trkpt lat="41.876238945231854" lon="19.990280358981977"><ele>571.6666666666666</ele><time>2026-05-04T07:15:12.999Z</time></trkpt><trkpt lat="41.87640208402232" lon="19.99028000268779"><ele>580.3333333333334</ele><time>2026-05-04T07:15:13.999Z</time></trkpt><trkpt lat="41.87656477990494" lon="19.990335553573598"><ele>589.0</ele><time>2026-05-04T07:15:14.999Z</time></trkpt><trkpt lat="41.876684773918555" lon="19.990454392786788"><ele>589.0</ele><time>2026-05-04T07:15:15.999Z</time></trkpt><trkpt lat="41.87676226062904" lon="19.99063185426221"><ele>589.0</ele><time>2026-05-04T07:15:16.999Z</time></trkpt><trkpt lat="41.876827079539844" lon="19.99080623601354"><ele>589.0</ele><time>2026-05-04T07:15:17.999Z</time></trkpt><trkpt lat="41.876942629349564" lon="19.990912221306115"><ele>589.0</ele><time>2026-05-04T07:15:18.999Z</time></trkpt><trkpt lat="41.87710497727528" lon="19.99096629119711"><ele>592.75</ele><time>2026-05-04T07:15:19.999Z</time></trkpt><trkpt lat="41.87728166672308" lon="19.991046207657032"><ele>596.5</ele><time>2026-05-04T07:15:20.999Z</time></trkpt><trkpt lat="41.87740395456774" lon="19.99115491430518"><ele>600.25</ele><time>2026-05-04T07:15:21.999Z</time></trkpt><trkpt lat="41.87746090372721" lon="19.9912902317943"><ele>604.0</ele><time>2026-05-04T07:15:22.999Z</time></trkpt><trkpt lat="41.87747584941552" lon="19.991470421642894"><ele>604.0</ele><time>2026-05-04T07:15:23.999Z</time></trkpt><trkpt lat="41.87744755027365" lon="19.991668689152846"><ele>604.0</ele><time>2026-05-04T07:15:24.999Z</time></trkpt><trkpt lat="41.87741659662192" lon="19.99183132214567"><ele>604.0</ele><time>2026-05-04T07:15:25.999Z</time></trkpt><trkpt lat="41.87743008116186" lon="19.991931118984745"><ele>604.0</ele><time>2026-05-04T07:15:26.999Z</time></trkpt><trkpt lat="41.877495448876125" lon="19.991962876627184"><ele>604.0</ele><time>2026-05-04T07:15:27.999Z</time></trkpt><trkpt lat="41.87759096945464" lon="19.9919426907098"><ele>606.5</ele><time>2026-05-04T07:15:28.999Z</time></trkpt><trkpt lat="41.87770435348498" lon="19.99186662202876"><ele>609.0</ele><time>2026-05-04T07:15:29.999Z</time></trkpt><trkpt lat="41.87783029033392" lon="19.991781571933636"><ele>611.5</ele><time>2026-05-04T07:15:30.999Z</time></trkpt><trkpt lat="41.87796832609394" lon="19.991724799057188"><ele>614.0</ele><time>2026-05-04T07:15:31.999Z</time></trkpt><trkpt lat="41.87807793296988" lon="19.99164096701374"><ele>614.0</ele><time>2026-05-04T07:15:32.999Z</time></trkpt><trkpt lat="41.878152444192324" lon="19.99148468572689"><ele>614.0</ele><time>2026-05-04T07:15:33.999Z</time></trkpt><trkpt lat="41.878186202556904" lon="19.991291670443566"><ele>614.0</ele><time>2026-05-04T07:15:34.999Z</time></trkpt><trkpt lat="41.878192850101506" lon="19.991052917793937"><ele>615.3333333333333</ele><time>2026-05-04T07:15:35.999Z</time></trkpt><trkpt lat="41.8781833501223" lon="19.99079512676123"><ele>616.6666666666666</ele><time>2026-05-04T07:15:36.999Z</time></trkpt><trkpt lat="41.87815936652117" lon="19.990516199467848"><ele>618.0</ele><time>2026-05-04T07:15:37.999Z</time></trkpt><trkpt lat="41.87815522029036" lon="19.990244614772976"><ele>621.6666666666666</ele><time>2026-05-04T07:15:38.999Z</time></trkpt><trkpt lat="41.8781933298117" lon="19.989999762892904"><ele>625.3333333333333</ele><time>2026-05-04T07:15:39.999Z</time></trkpt><trkpt lat="41.878264149893766" lon="19.98977373318328"><ele>629.0</ele><time>2026-05-04T07:15:40.999Z</time></trkpt><trkpt lat="41.87833927601473" lon="19.989551240653682"><ele>629.0</ele><time>2026-05-04T07:15:41.999Z</time></trkpt><trkpt lat="41.87838950385062" lon="19.98936335547302"><ele>629.0</ele><time>2026-05-04T07:15:42.999Z</time></trkpt><trkpt lat="41.878444309418796" lon="19.989206268276433"><ele>629.0</ele><time>2026-05-04T07:15:43.999Z</time></trkpt><trkpt lat="41.87852249863443" lon="19.98909011225983"><ele>629.0</ele><time>2026-05-04T07:15:44.999Z</time></trkpt><trkpt lat="41.87860863156578" lon="19.989047592515714"><ele>630.5</ele><time>2026-05-04T07:15:45.999Z</time></trkpt><trkpt lat="41.87870683880822" lon="19.989054281841852"><ele>632.0</ele><time>2026-05-04T07:15:46.999Z</time></trkpt><trkpt lat="41.87880465163078" lon="19.98912502766735"><ele>633.5</ele><time>2026-05-04T07:15:47.999Z</time></trkpt><trkpt lat="41.8789069787663" lon="19.989244040182637"><ele>635.0</ele><time>2026-05-04T07:15:48.999Z</time></trkpt><trkpt lat="41.87903106631018" lon="19.98936302648422"><ele>635.0</ele><time>2026-05-04T07:15:49.999Z</time></trkpt><trkpt lat="41.87919771833444" lon="19.98942169966994"><ele>635.0</ele><time>2026-05-04T07:15:50.999Z</time></trkpt><trkpt lat="41.87939253410876" lon="19.989434902932977"><ele>635.0</ele><time>2026-05-04T07:15:51.999Z</time></trkpt><trkpt lat="41.87955271024197" lon="19.98946230022291"><ele>629.5</ele><time>2026-05-04T07:15:52.999Z</time></trkpt><trkpt lat="41.87965611990087" lon="19.98953000316865"><ele>624.0</ele><time>2026-05-04T07:15:53.999Z</time></trkpt><trkpt lat="41.87973149186469" lon="19.989651118147698"><ele>618.5</ele><time>2026-05-04T07:15:54.999Z</time></trkpt><trkpt lat="41.879780297101405" lon="19.989822667411094"><ele>613.0</ele><time>2026-05-04T07:15:55.999Z</time></trkpt><trkpt lat="41.87979509688028" lon="19.990031414860415"><ele>613.0</ele><time>2026-05-04T07:15:56.999Z</time></trkpt><trkpt lat="41.87979321332789" lon="19.99027547036024"><ele>613.0</ele><time>2026-05-04T07:15:57.999Z</time></trkpt><trkpt lat="41.8798033888202" lon="19.99052214339462"><ele>613.0</ele><time>2026-05-04T07:15:58.999Z</time></trkpt><trkpt lat="41.8798299332073" lon="19.99073125312211"><ele>615.6666666666667</ele><time>2026-05-04T07:15:59.999Z</time></trkpt><trkpt lat="41.8798870439191" lon="19.99092132115902"><ele>618.3333333333334</ele><time>2026-05-04T07:16:00.999Z</time></trkpt><trkpt lat="41.88000160087448" lon="19.991096345627803"><ele>621.0</ele><time>2026-05-04T07:16:01.999Z</time></trkpt><trkpt lat="41.88015142336714" lon="19.99125364247365"><ele>614.0</ele><time>2026-05-04T07:16:02.999Z</time></trkpt><trkpt lat="41.88028389870846" lon="19.99139376558676"><ele>607.0</ele><time>2026-05-04T07:16:03.999Z</time></trkpt><trkpt lat="41.8803627703286" lon="19.991544943571075"><ele>600.0</ele><time>2026-05-04T07:16:04.999Z</time></trkpt><trkpt lat="41.88040625462462" lon="19.9917418905227"><ele>600.0</ele><time>2026-05-04T07:16:05.999Z</time></trkpt><trkpt lat="41.880441837876965" lon="19.991946382495566"><ele>600.0</ele><time>2026-05-04T07:16:07Z</time></trkpt><trkpt lat="41.88050871170843" lon="19.992092764152307"><ele>600.0</ele><time>2026-05-04T07:16:08Z</time></trkpt><trkpt lat="41.88061549124997" lon="19.99220409493036"><ele>600.0</ele><time>2026-05-04T07:16:09Z</time></trkpt><trkpt lat="41.88069351936796" lon="19.992323136806938"><ele>600.0</ele><time>2026-05-04T07:16:10Z</time></trkpt><trkpt lat="41.88070869107405" lon="19.992460762169266"><ele>600.0</ele><time>2026-05-04T07:16:11Z</time></trkpt><trkpt lat="41.88066904959012" lon="19.99263049014679"><ele>600.0</ele><time>2026-05-04T07:16:12Z</time></trkpt><trkpt lat="41.88059232895466" lon="19.99281624024973"><ele>600.0</ele><time>2026-05-04T07:16:13Z</time></trkpt><trkpt lat="41.8805032770952" lon="19.993015803838734"><ele>600.5</ele><time>2026-05-04T07:16:14Z</time></trkpt><trkpt lat="41.88044397108502" lon="19.993232941527925"><ele>601.0</ele><time>2026-05-04T07:16:15Z</time></trkpt><trkpt lat="41.880436562420385" lon="19.993419864475875"><ele>601.5</ele><time>2026-05-04T07:16:16Z</time></trkpt><trkpt lat="41.88046795958522" lon="19.99357791989164"><ele>602.0</ele><time>2026-05-04T07:16:17Z</time></trkpt><trkpt lat="41.880552700492636" lon="19.99370777946447"><ele>602.0</ele><time>2026-05-04T07:16:18Z</time></trkpt><trkpt lat="41.880682184731675" lon="19.99382918590969"><ele>602.0</ele><time>2026-05-04T07:16:19Z</time></trkpt><trkpt lat="41.880835583115" lon="19.99395352948113"><ele>602.0</ele><time>2026-05-04T07:16:20Z</time></trkpt><trkpt lat="41.880980174796385" lon="19.994111891010185"><ele>600.0</ele><time>2026-05-04T07:16:21Z</time></trkpt><trkpt lat="41.88109128743405" lon="19.994318959016883"><ele>598.0</ele><time>2026-05-04T07:16:22Z</time></trkpt><trkpt lat="41.88118295611141" lon="19.99453689366141"><ele>596.0</ele><time>2026-05-04T07:16:23Z</time></trkpt><trkpt lat="41.88128789082389" lon="19.994712539382395"><ele>596.0</ele><time>2026-05-04T07:16:24Z</time></trkpt><trkpt lat="41.88142432521596" lon="19.994846876878213"><ele>596.0</ele><time>2026-05-04T07:16:25Z</time></trkpt><trkpt lat="41.881588100916765" lon="19.994949331310078"><ele>596.0</ele><time>2026-05-04T07:16:26Z</time></trkpt><trkpt lat="41.881761094251644" lon="19.99505536939983"><ele>590.6666666666666</ele><time>2026-05-04T07:16:27Z</time></trkpt><trkpt lat="41.881932224180545" lon="19.995181498182323"><ele>585.3333333333334</ele><time>2026-05-04T07:16:28Z</time></trkpt><trkpt lat="41.882077968470014" lon="19.995292805058586"><ele>580.0</ele><time>2026-05-04T07:16:29Z</time></trkpt><trkpt lat="41.8822246731829" lon="19.995361941169048"><ele>580.0</ele><time>2026-05-04T07:16:30Z</time></trkpt><trkpt lat="41.88238740595329" lon="19.995365039260246"><ele>580.0</ele><time>2026-05-04T07:16:31Z</time></trkpt><trkpt lat="41.882520166541596" lon="19.995322889296155"><ele>580.0</ele><time>2026-05-04T07:16:32Z</time></trkpt><trkpt lat="41.882608926066126" lon="19.99530509308539"><ele>580.0</ele><time>2026-05-04T07:16:33Z</time></trkpt><trkpt lat="41.88267049911722" lon="19.99535351014092"><ele>580.0</ele><time>2026-05-04T07:16:34Z</time></trkpt><trkpt lat="41.88268679237492" lon="19.99546875990072"><ele>580.0</ele><time>2026-05-04T07:16:35Z</time></trkpt><trkpt lat="41.88265515480638" lon="19.99560977485385"><ele>580.0</ele><time>2026-05-04T07:16:36Z</time></trkpt><trkpt lat="41.88257088857794" lon="19.99576174949198"><ele>580.0</ele><time>2026-05-04T07:16:37Z</time></trkpt><trkpt lat="41.88248438612112" lon="19.995933800270592"><ele>581.6</ele><time>2026-05-04T07:16:38Z</time></trkpt><trkpt lat="41.88243806997939" lon="19.99611313244221"><ele>583.2</ele><time>2026-05-04T07:16:39Z</time></trkpt><trkpt lat="41.88243156561823" lon="19.99625376378651"><ele>584.8</ele><time>2026-05-04T07:16:40Z</time></trkpt><trkpt lat="41.882481060944066" lon="19.996356976191098"><ele>586.4</ele><time>2026-05-04T07:16:41Z</time></trkpt><trkpt lat="41.8825746175663" lon="19.996432924100496"><ele>588.0</ele><time>2026-05-04T07:16:42Z</time></trkpt><trkpt lat="41.88270712042531" lon="19.99646485921323"><ele>581.6666666666666</ele><time>2026-05-04T07:16:43Z</time></trkpt><trkpt lat="41.88286781865491" lon="19.99646741517281"><ele>575.3333333333333</ele><time>2026-05-04T07:16:44Z</time></trkpt><trkpt lat="41.8830421467607" lon="19.996483674614627"><ele>569.0</ele><time>2026-05-04T07:16:45Z</time></trkpt><trkpt lat="41.88321614064759" lon="19.996523783675947"><ele>569.0</ele><time>2026-05-04T07:16:46Z</time></trkpt><trkpt lat="41.88335462736434" lon="19.996525822847538"><ele>569.0</ele><time>2026-05-04T07:16:47Z</time></trkpt><trkpt lat="41.88349790764215" lon="19.996451757755857"><ele>569.0</ele><time>2026-05-04T07:16:48Z</time></trkpt><trkpt lat="41.883642850278285" lon="19.996385374463717"><ele>569.0</ele><time>2026-05-04T07:16:49Z</time></trkpt><trkpt lat="41.88379553673426" lon="19.996396224674278"><ele>567.0</ele><time>2026-05-04T07:16:50Z</time></trkpt><trkpt lat="41.88394687222523" lon="19.996438645979644"><ele>565.0</ele><time>2026-05-04T07:16:51Z</time></trkpt><trkpt lat="41.88407872900185" lon="19.99648127839707"><ele>563.0</ele><time>2026-05-04T07:16:52Z</time></trkpt><trkpt lat="41.88417119825756" lon="19.996555715266663"><ele>561.0</ele><time>2026-05-04T07:16:53Z</time></trkpt><trkpt lat="41.88425062462567" lon="19.996688980621034"><ele>552.3333333333334</ele><time>2026-05-04T07:16:54Z</time></trkpt><trkpt lat="41.88433501043331" lon="19.996868966573118"><ele>543.6666666666667</ele><time>2026-05-04T07:16:55Z</time></trkpt><trkpt lat="41.884430145258804" lon="19.997047802544415"><ele>535.0</ele><time>2026-05-04T07:16:56Z</time></trkpt><trkpt lat="41.884512058970195" lon="19.997230264261276"><ele>535.0</ele><time>2026-05-04T07:16:57Z</time></trkpt><trkpt lat="41.88455583794625" lon="19.99742849408535"><ele>535.0</ele><time>2026-05-04T07:16:58Z</time></trkpt><trkpt lat="41.88458056451982" lon="19.99765034003053"><ele>535.0</ele><time>2026-05-04T07:16:59Z</time></trkpt><trkpt lat="41.884608915864156" lon="19.997868700622014"><ele>537.3333333333334</ele><time>2026-05-04T07:17:00Z</time></trkpt><trkpt lat="41.884682365751445" lon="19.998063871895848"><ele>539.6666666666666</ele><time>2026-05-04T07:17:01Z</time></trkpt><trkpt lat="41.884787213994656" lon="19.99822558171212"><ele>542.0</ele><time>2026-05-04T07:17:02Z</time></trkpt><trkpt lat="41.88490730464259" lon="19.99834107319001"><ele>542.6666666666666</ele><time>2026-05-04T07:17:03Z</time></trkpt><trkpt lat="41.8850466362163" lon="19.998407195461308"><ele>543.3333333333334</ele><time>2026-05-04T07:17:04Z</time></trkpt><trkpt lat="41.88520257320561" lon="19.998426937117415"><ele>544.0</ele><time>2026-05-04T07:17:05Z</time></trkpt><trkpt lat="41.88536187843721" lon="19.998424551296516"><ele>544.0</ele><time>2026-05-04T07:17:06Z</time></trkpt><trkpt lat="41.88550884953577" lon="19.99847055568152"><ele>544.0</ele><time>2026-05-04T07:17:07Z</time></trkpt><trkpt lat="41.88563699596381" lon="19.998581380692407"><ele>544.0</ele><time>2026-05-04T07:17:08Z</time></trkpt><trkpt lat="41.88575923039451" lon="19.99870296210368"><ele>544.0</ele><time>2026-05-04T07:17:09Z</time></trkpt><trkpt lat="41.885886907480995" lon="19.998793484347026"><ele>544.0</ele><time>2026-05-04T07:17:10Z</time></trkpt><trkpt lat="41.88602455086007" lon="19.9988713145884"><ele>544.0</ele><time>2026-05-04T07:17:11Z</time></trkpt><trkpt lat="41.88616312907576" lon="19.99895548065268"><ele>544.0</ele><time>2026-05-04T07:17:12Z</time></trkpt><trkpt lat="41.886291358445035" lon="19.999072926152717"><ele>548.3333333333334</ele><time>2026-05-04T07:17:13Z</time></trkpt><trkpt lat="41.88640257615574" lon="19.999237844658662"><ele>552.6666666666666</ele><time>2026-05-04T07:17:14Z</time></trkpt><trkpt lat="41.88649353386436" lon="19.999432493191424"><ele>557.0</ele><time>2026-05-04T07:17:15Z</time></trkpt><trkpt lat="41.88657166421238" lon="19.999654044648867"><ele>557.0</ele><time>2026-05-04T07:17:15.999Z</time></trkpt><trkpt lat="41.88663510820981" lon="19.99989397274931"><ele>557.0</ele><time>2026-05-04T07:17:16.999Z</time></trkpt><trkpt lat="41.88671298921922" lon="20.000132026999946"><ele>557.0</ele><time>2026-05-04T07:17:17.999Z</time></trkpt><trkpt lat="41.88681957278459" lon="20.00036874725105"><ele>555.0</ele><time>2026-05-04T07:17:18.999Z</time></trkpt><trkpt lat="41.886919469791785" lon="20.00059833231625"><ele>553.0</ele><time>2026-05-04T07:17:19.999Z</time></trkpt><trkpt lat="41.88703703028622" lon="20.000801457385858"><ele>551.0</ele><time>2026-05-04T07:17:20.999Z</time></trkpt><trkpt lat="41.887181301324645" lon="20.00099595828119"><ele>551.0</ele><time>2026-05-04T07:17:21.999Z</time></trkpt><trkpt lat="41.88729726677422" lon="20.001209588112104"><ele>551.0</ele><time>2026-05-04T07:17:22.999Z</time></trkpt><trkpt lat="41.88737984552664" lon="20.00139257353842"><ele>551.0</ele><time>2026-05-04T07:17:23.999Z</time></trkpt><trkpt lat="41.88747777780446" lon="20.001515682129693"><ele>555.25</ele><time>2026-05-04T07:17:24.999Z</time></trkpt><trkpt lat="41.88761957056281" lon="20.001605460939345"><ele>559.5</ele><time>2026-05-04T07:17:25.999Z</time></trkpt><trkpt lat="41.88776386112645" lon="20.001663136471414"><ele>563.75</ele><time>2026-05-04T07:17:26.999Z</time></trkpt><trkpt lat="41.88787318629477" lon="20.001671732877924"><ele>568.0</ele><time>2026-05-04T07:17:27.999Z</time></trkpt><trkpt lat="41.88796001639698" lon="20.0016205218136"><ele>568.0</ele><time>2026-05-04T07:17:28.999Z</time></trkpt><trkpt lat="41.88802773314026" lon="20.001506361213494"><ele>568.0</ele><time>2026-05-04T07:17:29.999Z</time></trkpt><trkpt lat="41.8880744529753" lon="20.00134526832968"><ele>568.0</ele><time>2026-05-04T07:17:30.999Z</time></trkpt><trkpt lat="41.88812182744277" lon="20.001156643222846"><ele>568.0</ele><time>2026-05-04T07:17:31.999Z</time></trkpt><trkpt lat="41.88818978121738" lon="20.001040755222995"><ele>568.0</ele><time>2026-05-04T07:17:32.999Z</time></trkpt><trkpt lat="41.888285018138" lon="20.001003219301133"><ele>568.0</ele><time>2026-05-04T07:17:33.999Z</time></trkpt><trkpt lat="41.88839286308854" lon="20.001034872759643"><ele>568.0</ele><time>2026-05-04T07:17:34.999Z</time></trkpt><trkpt lat="41.88851871375254" lon="20.001111493061924"><ele>568.0</ele><time>2026-05-04T07:17:35.999Z</time></trkpt><trkpt lat="41.888660149446004" lon="20.001167268773376"><ele>575.6666666666667</ele><time>2026-05-04T07:17:36.999Z</time></trkpt><trkpt lat="41.888813111070995" lon="20.00115006543603"><ele>583.3333333333334</ele><time>2026-05-04T07:17:37.999Z</time></trkpt><trkpt lat="41.88897547539808" lon="20.001052043269958"><ele>591.0</ele><time>2026-05-04T07:17:38.999Z</time></trkpt><trkpt lat="41.88914521777764" lon="20.000932730402962"><ele>602.5</ele><time>2026-05-04T07:17:39.999Z</time></trkpt><trkpt lat="41.889282445888945" lon="20.000851900860567"><ele>614.0</ele><time>2026-05-04T07:17:40.999Z</time></trkpt><trkpt lat="41.88936184534745" lon="20.000761776095406"><ele>625.5</ele><time>2026-05-04T07:17:41.999Z</time></trkpt><trkpt lat="41.88938645895081" lon="20.00062802931371"><ele>637.0</ele><time>2026-05-04T07:17:42.999Z</time></trkpt><trkpt lat="41.88937042006663" lon="20.000470778961525"><ele>637.6666666666667</ele><time>2026-05-04T07:17:43.999Z</time></trkpt><trkpt lat="41.88930783184362" lon="20.00029998470413"><ele>638.3333333333334</ele><time>2026-05-04T07:17:44.999Z</time></trkpt><trkpt lat="41.88923671858655" lon="20.00011374813148"><ele>639.0</ele><time>2026-05-04T07:17:45.999Z</time></trkpt><trkpt lat="41.88917820700221" lon="19.99989484426867"><ele>624.3333333333334</ele><time>2026-05-04T07:17:46.999Z</time></trkpt><trkpt lat="41.88914756316307" lon="19.999654627756176"><ele>609.6666666666667</ele><time>2026-05-04T07:17:47.999Z</time></trkpt><trkpt lat="41.88913701465503" lon="19.99939766266013"><ele>595.0</ele><time>2026-05-04T07:17:48.999Z</time></trkpt><trkpt lat="41.88912754621177" lon="19.999155396982648"><ele>595.0</ele><time>2026-05-04T07:17:49.999Z</time></trkpt><trkpt lat="41.889123797974044" lon="19.998957276628765"><ele>595.0</ele><time>2026-05-04T07:17:50.999Z</time></trkpt><trkpt lat="41.88914997267862" lon="19.99878804051485"><ele>595.0</ele><time>2026-05-04T07:17:51.999Z</time></trkpt><trkpt lat="41.8892218807332" lon="19.998649493486646"><ele>595.0</ele><time>2026-05-04T07:17:52.999Z</time></trkpt><trkpt lat="41.88932365703421" lon="19.998523290377257"><ele>600.3333333333334</ele><time>2026-05-04T07:17:53.999Z</time></trkpt><trkpt lat="41.88946807970569" lon="19.99844660759988"><ele>605.6666666666666</ele><time>2026-05-04T07:17:54.999Z</time></trkpt><trkpt lat="41.88964874133399" lon="19.998390363078713"><ele>611.0</ele><time>2026-05-04T07:17:55.999Z</time></trkpt><trkpt lat="41.88981993969912" lon="19.998299686733546"><ele>611.0</ele><time>2026-05-04T07:17:56.999Z</time></trkpt><trkpt lat="41.89000515818004" lon="19.99817619257699"><ele>611.0</ele><time>2026-05-04T07:17:57.999Z</time></trkpt><trkpt lat="41.89017976539146" lon="19.998087568149188"><ele>611.0</ele><time>2026-05-04T07:17:58.999Z</time></trkpt><trkpt lat="41.890365294936444" lon="19.99804474272784"><ele>616.0</ele><time>2026-05-04T07:17:59.999Z</time></trkpt><trkpt lat="41.890565271428216" lon="19.998017964241765"><ele>621.0</ele><time>2026-05-04T07:18:00.999Z</time></trkpt><trkpt lat="41.8907774286184" lon="19.997977272196913"><ele>626.0</ele><time>2026-05-04T07:18:01.999Z</time></trkpt><trkpt lat="41.89099251626327" lon="19.99794408762505"><ele>627.3333333333333</ele><time>2026-05-04T07:18:02.999Z</time></trkpt><trkpt lat="41.89119634493192" lon="19.99794733779776"><ele>628.6666666666666</ele><time>2026-05-04T07:18:03.999Z</time></trkpt><trkpt lat="41.891383955347806" lon="19.99798743891521"><ele>630.0</ele><time>2026-05-04T07:18:04.999Z</time></trkpt><trkpt lat="41.891543955707405" lon="19.998062427684477"><ele>630.0</ele><time>2026-05-04T07:18:05.999Z</time></trkpt><trkpt lat="41.89167274408814" lon="19.99813462687874"><ele>630.0</ele><time>2026-05-04T07:18:06.999Z</time></trkpt><trkpt lat="41.89180353072874" lon="19.99815327186796"><ele>630.0</ele><time>2026-05-04T07:18:07.999Z</time></trkpt><trkpt lat="41.89194185785935" lon="19.998128208905776"><ele>630.0</ele><time>2026-05-04T07:18:08.999Z</time></trkpt><trkpt lat="41.892081583127975" lon="19.99805197035196"><ele>633.0</ele><time>2026-05-04T07:18:09.999Z</time></trkpt><trkpt lat="41.892221614072625" lon="19.997932198266366"><ele>636.0</ele><time>2026-05-04T07:18:10.999Z</time></trkpt><trkpt lat="41.89236355455094" lon="19.997853444756746"><ele>639.0</ele><time>2026-05-04T07:18:11.999Z</time></trkpt><trkpt lat="41.89252423824566" lon="19.99782792349494"><ele>642.3333333333334</ele><time>2026-05-04T07:18:13Z</time></trkpt><trkpt lat="41.892699715846824" lon="19.99784728694601"><ele>645.6666666666667</ele><time>2026-05-04T07:18:14Z</time></trkpt><trkpt lat="41.892868788401294" lon="19.99787953806329"><ele>649.0</ele><time>2026-05-04T07:18:15Z</time></trkpt><trkpt lat="41.89301853654973" lon="19.997862202646523"><ele>649.0</ele><time>2026-05-04T07:18:16Z</time></trkpt><trkpt lat="41.89314904929827" lon="19.99777290982349"><ele>649.0</ele><time>2026-05-04T07:18:17Z</time></trkpt><trkpt lat="41.8932492425955" lon="19.997654223386494"><ele>649.0</ele><time>2026-05-04T07:18:18Z</time></trkpt><trkpt lat="41.8933156027735" lon="19.99750216955672"><ele>649.0</ele><time>2026-05-04T07:18:19Z</time></trkpt><trkpt lat="41.89332206267424" lon="19.9973498863531"><ele>640.3333333333334</ele><time>2026-05-04T07:18:20Z</time></trkpt><trkpt lat="41.89332521333344" lon="19.99715130372366"><ele>631.6666666666666</ele><time>2026-05-04T07:18:21Z</time></trkpt><trkpt lat="41.89332631992103" lon="19.996910411934532"><ele>623.0</ele><time>2026-05-04T07:18:22Z</time></trkpt><trkpt lat="41.89332993643289" lon="19.99666621868571"><ele>621.5</ele><time>2026-05-04T07:18:23Z</time></trkpt><trkpt lat="41.89334197314633" lon="19.996480943565736"><ele>620.0</ele><time>2026-05-04T07:18:24Z</time></trkpt><trkpt lat="41.89338719334325" lon="19.996321873658726"><ele>618.5</ele><time>2026-05-04T07:18:25Z</time></trkpt><trkpt lat="41.8934731994776" lon="19.996168181412592"><ele>617.0</ele><time>2026-05-04T07:18:26Z</time></trkpt><trkpt lat="41.89359168083808" lon="19.99601228464871"><ele>621.0</ele><time>2026-05-04T07:18:27Z</time></trkpt><trkpt lat="41.89372253060037" lon="19.995842080909192"><ele>625.0</ele><time>2026-05-04T07:18:28Z</time></trkpt><trkpt lat="41.89386663688737" lon="19.995684314739485"><ele>629.0</ele><time>2026-05-04T07:18:29Z</time></trkpt><trkpt lat="41.89400780626386" lon="19.99559182284612"><ele>629.0</ele><time>2026-05-04T07:18:30Z</time></trkpt><trkpt lat="41.89412532551687" lon="19.995569245172916"><ele>629.0</ele><time>2026-05-04T07:18:31Z</time></trkpt><trkpt lat="41.89421744040274" lon="19.995613835276014"><ele>629.0</ele><time>2026-05-04T07:18:32Z</time></trkpt><trkpt lat="41.89429798663953" lon="19.995717521853067"><ele>629.0</ele><time>2026-05-04T07:18:33Z</time></trkpt><trkpt lat="41.894391819331" lon="19.995867328938086"><ele>624.6666666666666</ele><time>2026-05-04T07:18:34Z</time></trkpt><trkpt lat="41.8945009683664" lon="19.996024432815283"><ele>620.3333333333334</ele><time>2026-05-04T07:18:35Z</time></trkpt><trkpt lat="41.89462040051285" lon="19.996182777985464"><ele>616.0</ele><time>2026-05-04T07:18:36Z</time></trkpt><trkpt lat="41.89473942587566" lon="19.996346628759095"><ele>616.0</ele><time>2026-05-04T07:18:37Z</time></trkpt><trkpt lat="41.89482847114938" lon="19.996483297066025"><ele>616.0</ele><time>2026-05-04T07:18:38Z</time></trkpt><trkpt lat="41.89487471058927" lon="19.996608334963"><ele>616.0</ele><time>2026-05-04T07:18:39Z</time></trkpt><trkpt lat="41.89488466075844" lon="19.996765059289356"><ele>616.0</ele><time>2026-05-04T07:18:40Z</time></trkpt><trkpt lat="41.89490080374164" lon="19.996944929839913"><ele>619.25</ele><time>2026-05-04T07:18:41Z</time></trkpt><trkpt lat="41.89496265980423" lon="19.997086769962383"><ele>622.5</ele><time>2026-05-04T07:18:42Z</time></trkpt><trkpt lat="41.89507892218049" lon="19.997187638315904"><ele>625.75</ele><time>2026-05-04T07:18:43Z</time></trkpt><trkpt lat="41.89521718290907" lon="19.99724942665819"><ele>629.0</ele><time>2026-05-04T07:18:44Z</time></trkpt><trkpt lat="41.89531931755032" lon="19.997308777332393"><ele>616.5</ele><time>2026-05-04T07:18:45Z</time></trkpt><trkpt lat="41.89535359896904" lon="19.997418656619782"><ele>604.0</ele><time>2026-05-04T07:18:46Z</time></trkpt><trkpt lat="41.89533932282689" lon="19.99757054720486"><ele>591.5</ele><time>2026-05-04T07:18:47Z</time></trkpt><trkpt lat="41.89529864509462" lon="19.99775624680217"><ele>579.0</ele><time>2026-05-04T07:18:48Z</time></trkpt><trkpt lat="41.89523074872969" lon="19.99795565527506"><ele>579.0</ele><time>2026-05-04T07:18:49Z</time></trkpt><trkpt lat="41.8951694264358" lon="19.998169386890666"><ele>579.0</ele><time>2026-05-04T07:18:50Z</time></trkpt><trkpt lat="41.895146826873976" lon="19.998394542435967"><ele>579.0</ele><time>2026-05-04T07:18:51Z</time></trkpt><trkpt lat="41.895154935318494" lon="19.998617323044556"><ele>583.25</ele><time>2026-05-04T07:18:52Z</time></trkpt><trkpt lat="41.8952015991438" lon="19.998802363213645"><ele>587.5</ele><time>2026-05-04T07:18:53Z</time></trkpt><trkpt lat="41.89530380256494" lon="19.99893646703151"><ele>591.75</ele><time>2026-05-04T07:18:54Z</time></trkpt><trkpt lat="41.89542553306007" lon="19.999062595883927"><ele>596.0</ele><time>2026-05-04T07:18:55Z</time></trkpt><trkpt lat="41.895514983360236" lon="19.999222265072397"><ele>602.75</ele><time>2026-05-04T07:18:56Z</time></trkpt><trkpt lat="41.895553560949715" lon="19.9994147247473"><ele>609.5</ele><time>2026-05-04T07:18:57Z</time></trkpt><trkpt lat="41.895609249881424" lon="19.999565277830833"><ele>616.25</ele><time>2026-05-04T07:18:58Z</time></trkpt><trkpt lat="41.89571973041569" lon="19.9996661470555"><ele>623.0</ele><time>2026-05-04T07:18:59Z</time></trkpt><trkpt lat="41.895860165042436" lon="19.999717622782917"><ele>627.3333333333333</ele><time>2026-05-04T07:19:00Z</time></trkpt><trkpt lat="41.896014413895095" lon="19.999725662676415"><ele>631.6666666666666</ele><time>2026-05-04T07:19:01Z</time></trkpt><trkpt lat="41.896164227826084" lon="19.9996858738355"><ele>636.0</ele><time>2026-05-04T07:19:02Z</time></trkpt><trkpt lat="41.89629789982749" lon="19.999587495825537"><ele>636.0</ele><time>2026-05-04T07:19:03Z</time></trkpt><trkpt lat="41.896402307562724" lon="19.999435190907562"><ele>636.0</ele><time>2026-05-04T07:19:04Z</time></trkpt><trkpt lat="41.89648293989614" lon="19.99925036841681"><ele>636.0</ele><time>2026-05-04T07:19:05Z</time></trkpt><trkpt lat="41.89657432433573" lon="19.99906927563298"><ele>629.25</ele><time>2026-05-04T07:19:06Z</time></trkpt><trkpt lat="41.89670181050038" lon="19.998945663487795"><ele>622.5</ele><time>2026-05-04T07:19:07Z</time></trkpt><trkpt lat="41.896846680586066" lon="19.998880745741467"><ele>615.75</ele><time>2026-05-04T07:19:08Z</time></trkpt><trkpt lat="41.89698232357607" lon="19.99885301982141"><ele>609.0</ele><time>2026-05-04T07:19:09Z</time></trkpt><trkpt lat="41.8971193709969" lon="19.99888380322593"><ele>609.0</ele><time>2026-05-04T07:19:10Z</time></trkpt><trkpt lat="41.89724883840292" lon="19.99896706273426"><ele>609.0</ele><time>2026-05-04T07:19:11Z</time></trkpt><trkpt lat="41.897370243497306" lon="19.99905392790599"><ele>609.0</ele><time>2026-05-04T07:19:12Z</time></trkpt><trkpt lat="41.89750195212678" lon="19.99907467046798"><ele>609.0</ele><time>2026-05-04T07:19:13Z</time></trkpt><trkpt lat="41.897653219903304" lon="19.999026765525215"><ele>611.0</ele><time>2026-05-04T07:19:14Z</time></trkpt><trkpt lat="41.89781863889959" lon="19.99895681954362"><ele>613.0</ele><time>2026-05-04T07:19:15Z</time></trkpt><trkpt lat="41.89798760319153" lon="19.99886936357296"><ele>615.0</ele><time>2026-05-04T07:19:16Z</time></trkpt><trkpt lat="41.89812910545819" lon="19.99876191732854"><ele>615.0</ele><time>2026-05-04T07:19:17Z</time></trkpt><trkpt lat="41.898235172602334" lon="19.99867370487199"><ele>615.0</ele><time>2026-05-04T07:19:18Z</time></trkpt><trkpt lat="41.89833442440888" lon="19.99864435595158"><ele>615.0</ele><time>2026-05-04T07:19:19Z</time></trkpt><trkpt lat="41.89842608111367" lon="19.99868182481636"><ele>615.0</ele><time>2026-05-04T07:19:20Z</time></trkpt><trkpt lat="41.898506572342164" lon="19.9987853212098"><ele>615.0</ele><time>2026-05-04T07:19:21Z</time></trkpt><trkpt lat="41.898575534727954" lon="19.99893877459528"><ele>620.75</ele><time>2026-05-04T07:19:22Z</time></trkpt><trkpt lat="41.89863991357793" lon="19.99910151948706"><ele>626.5</ele><time>2026-05-04T07:19:23Z</time></trkpt><trkpt lat="41.89871989513168" lon="19.999231508518413"><ele>632.25</ele><time>2026-05-04T07:19:24Z</time></trkpt><trkpt lat="41.89882544237314" lon="19.999296305769217"><ele>638.0</ele><time>2026-05-04T07:19:25Z</time></trkpt><trkpt lat="41.89895599774055" lon="19.999288861536463"><ele>638.0</ele><time>2026-05-04T07:19:26Z</time></trkpt><trkpt lat="41.899095340553984" lon="19.999217836854243"><ele>638.0</ele><time>2026-05-04T07:19:27Z</time></trkpt><trkpt lat="41.89923021550127" lon="19.999097039679214"><ele>638.0</ele><time>2026-05-04T07:19:28Z</time></trkpt><trkpt lat="41.899361436681794" lon="19.998969556686262"><ele>635.6</ele><time>2026-05-04T07:19:29Z</time></trkpt><trkpt lat="41.89945220267973" lon="19.998998934152425"><ele>633.1999999999999</ele><time>2026-05-04T07:19:30Z</time></trkpt><trkpt lat="41.89956358265546" lon="19.998998477216578"><ele>630.8</ele><time>2026-05-04T07:19:31Z</time></trkpt><trkpt lat="41.89967209662131" lon="19.999071507851784"><ele>628.4</ele><time>2026-05-04T07:19:32Z</time></trkpt><trkpt lat="41.89976558303863" lon="19.99917386699216"><ele>626.0</ele><time>2026-05-04T07:19:33Z</time></trkpt><trkpt lat="41.89986495697886" lon="19.999197194779526"><ele>617.25</ele><time>2026-05-04T07:19:34Z</time></trkpt><trkpt lat="41.899967517006" lon="19.999148999319104"><ele>608.5</ele><time>2026-05-04T07:19:35Z</time></trkpt><trkpt lat="41.90005804286276" lon="19.999038139073587"><ele>599.75</ele><time>2026-05-04T07:19:36Z</time></trkpt><trkpt lat="41.90012392753044" lon="19.998882864650735"><ele>591.0</ele><time>2026-05-04T07:19:37Z</time></trkpt><trkpt lat="41.90020280618885" lon="19.998754645961867"><ele>589.5</ele><time>2026-05-04T07:19:38Z</time></trkpt><trkpt lat="41.90031134904198" lon="19.998713682317565"><ele>588.0</ele><time>2026-05-04T07:19:39Z</time></trkpt><trkpt lat="41.90046053567495" lon="19.998720454520974"><ele>586.5</ele><time>2026-05-04T07:19:40Z</time></trkpt><trkpt lat="41.900618276531155" lon="19.998712717673005"><ele>585.0</ele><time>2026-05-04T07:19:41Z</time></trkpt><trkpt lat="41.90077195188998" lon="19.998681415790276"><ele>585.0</ele><time>2026-05-04T07:19:42Z</time></trkpt><trkpt lat="41.9008751006691" lon="19.998686805960087"><ele>585.0</ele><time>2026-05-04T07:19:43Z</time></trkpt><trkpt lat="41.90094815002258" lon="19.998765787132974"><ele>585.0</ele><time>2026-05-04T07:19:44Z</time></trkpt><trkpt lat="41.901016311811816" lon="19.99891600624279"><ele>585.0</ele><time>2026-05-04T07:19:45Z</time></trkpt><trkpt lat="41.90110234009797" lon="19.999093913042834"><ele>584.25</ele><time>2026-05-04T07:19:46Z</time></trkpt><trkpt lat="41.901211497249065" lon="19.999272540250896"><ele>583.5</ele><time>2026-05-04T07:19:47Z</time></trkpt><trkpt lat="41.90130202604147" lon="19.999434889976996"><ele>582.75</ele><time>2026-05-04T07:19:48Z</time></trkpt><trkpt lat="41.90139460703772" lon="19.99954049530118"><ele>582.0</ele><time>2026-05-04T07:19:49Z</time></trkpt><trkpt lat="41.90150542811233" lon="19.999564443113858"><ele>582.0</ele><time>2026-05-04T07:19:50Z</time></trkpt><trkpt lat="41.901637576393846" lon="19.99953402029264"><ele>582.0</ele><time>2026-05-04T07:19:51Z</time></trkpt><trkpt lat="41.901761977287066" lon="19.99951808570359"><ele>582.0</ele><time>2026-05-04T07:19:52Z</time></trkpt><trkpt lat="41.90186255687932" lon="19.999610896291482"><ele>582.0</ele><time>2026-05-04T07:19:53Z</time></trkpt><trkpt lat="41.90195306381662" lon="19.99977646105651"><ele>572.0</ele><time>2026-05-04T07:19:54Z</time></trkpt><trkpt lat="41.90205409338655" lon="19.999934200114563"><ele>562.0</ele><time>2026-05-04T07:19:55Z</time></trkpt><trkpt lat="41.90218726466216" lon="20.000038661978806"><ele>552.0</ele><time>2026-05-04T07:19:56Z</time></trkpt><trkpt lat="41.9023407567102" lon="20.0000896355711"><ele>552.0</ele><time>2026-05-04T07:19:57Z</time></trkpt><trkpt lat="41.90249280093015" lon="20.00009963946997"><ele>552.0</ele><time>2026-05-04T07:19:58Z</time></trkpt><trkpt lat="41.90259756329019" lon="20.000111877004827"><ele>552.0</ele><time>2026-05-04T07:19:59Z</time></trkpt><trkpt lat="41.9026577062077" lon="20.00017346364718"><ele>552.0</ele><time>2026-05-04T07:20:00Z</time></trkpt><trkpt lat="41.90267453790355" lon="20.000271068981757"><ele>552.0</ele><time>2026-05-04T07:20:00.999Z</time></trkpt><trkpt lat="41.90262919088588" lon="20.0003843523304"><ele>552.0</ele><time>2026-05-04T07:20:01.999Z</time></trkpt><trkpt lat="41.90252675538803" lon="20.00044850136838"><ele>552.0</ele><time>2026-05-04T07:20:02.999Z</time></trkpt><trkpt lat="41.902391129142046" lon="20.00045155250664"><ele>552.0</ele><time>2026-05-04T07:20:03.999Z</time></trkpt><trkpt lat="41.902244797121746" lon="20.00044052382824"><ele>552.0</ele><time>2026-05-04T07:20:04.999Z</time></trkpt><trkpt lat="41.90212327288603" lon="20.000509492624698"><ele>552.0</ele><time>2026-05-04T07:20:05.999Z</time></trkpt><trkpt lat="41.90204588637241" lon="20.000628198596697"><ele>552.0</ele><time>2026-05-04T07:20:06.999Z</time></trkpt><trkpt lat="41.902015110099214" lon="20.000776037494198"><ele>552.0</ele><time>2026-05-04T07:20:07.999Z</time></trkpt><trkpt lat="41.90203079369244" lon="20.000962982093984"><ele>552.0</ele><time>2026-05-04T07:20:08.999Z</time></trkpt><trkpt lat="41.90207695729979" lon="20.00117853854606"><ele>550.6666666666666</ele><time>2026-05-04T07:20:09.999Z</time></trkpt><trkpt lat="41.902138943483315" lon="20.00139240454051"><ele>549.3333333333333</ele><time>2026-05-04T07:20:10.999Z</time></trkpt><trkpt lat="41.90224993877276" lon="20.001585378210205"><ele>548.0</ele><time>2026-05-04T07:20:11.999Z</time></trkpt><trkpt lat="41.90235425645198" lon="20.001779051606963"><ele>548.0</ele><time>2026-05-04T07:20:12.999Z</time></trkpt><trkpt lat="41.90241697169915" lon="20.00198618178594"><ele>548.0</ele><time>2026-05-04T07:20:13.999Z</time></trkpt><trkpt lat="41.90248959954615" lon="20.0021384520814"><ele>548.0</ele><time>2026-05-04T07:20:14.999Z</time></trkpt><trkpt lat="41.90256016358794" lon="20.002306590007613"><ele>548.0</ele><time>2026-05-04T07:20:15.999Z</time></trkpt><trkpt lat="41.9027706081354" lon="20.00237904641694"><ele>540.6666666666666</ele><time>2026-05-04T07:20:16.999Z</time></trkpt><trkpt lat="41.902914842615814" lon="20.00256210888569"><ele>533.3333333333334</ele><time>2026-05-04T07:20:17.999Z</time></trkpt><trkpt lat="41.90306067975276" lon="20.00271743193712"><ele>526.0</ele><time>2026-05-04T07:20:19Z</time></trkpt><trkpt lat="41.9031532958147" lon="20.00279385238311"><ele>526.0</ele><time>2026-05-04T07:20:20Z</time></trkpt><trkpt lat="41.90322897113133" lon="20.002915257342007"><ele>526.0</ele><time>2026-05-04T07:20:21Z</time></trkpt><trkpt lat="41.9032329282303" lon="20.003023137982776"><ele>526.0</ele><time>2026-05-04T07:20:22Z</time></trkpt><trkpt lat="41.903172779885196" lon="20.003105531424154"><ele>526.0</ele><time>2026-05-04T07:20:23Z</time></trkpt><trkpt lat="41.90306335770565" lon="20.003154396175788"><ele>526.0</ele><time>2026-05-04T07:20:24Z</time></trkpt><trkpt lat="41.902915846965584" lon="20.00320089372412"><ele>526.0</ele><time>2026-05-04T07:20:25Z</time></trkpt><trkpt lat="41.902816469594924" lon="20.003292095607577"><ele>526.0</ele><time>2026-05-04T07:20:26Z</time></trkpt><trkpt lat="41.902757923061635" lon="20.003440305754044"><ele>526.0</ele><time>2026-05-04T07:20:27Z</time></trkpt><trkpt lat="41.90277970707818" lon="20.003593826164664"><ele>526.0</ele><time>2026-05-04T07:20:28Z</time></trkpt><trkpt lat="41.90284551591905" lon="20.003769138665973"><ele>526.0</ele><time>2026-05-04T07:20:29Z</time></trkpt><trkpt lat="41.90288085363025" lon="20.003937409350556"><ele>526.0</ele><time>2026-05-04T07:20:30Z</time></trkpt><trkpt lat="41.90286795225564" lon="20.004095383698193"><ele>526.0</ele><time>2026-05-04T07:20:31Z</time></trkpt><trkpt lat="41.90278919434478" lon="20.004200576167285"><ele>526.0</ele><time>2026-05-04T07:20:32Z</time></trkpt><trkpt lat="41.90266878476854" lon="20.00426024086786"><ele>532.3333333333334</ele><time>2026-05-04T07:20:33Z</time></trkpt><trkpt lat="41.9025269265054" lon="20.00436284185632"><ele>538.6666666666666</ele><time>2026-05-04T07:20:34Z</time></trkpt><trkpt lat="41.902354864756255" lon="20.004491931991026"><ele>545.0</ele><time>2026-05-04T07:20:35Z</time></trkpt><trkpt lat="41.90226185321983" lon="20.004628252512145"><ele>545.0</ele><time>2026-05-04T07:20:36Z</time></trkpt><trkpt lat="41.90221392034619" lon="20.004755298886643"><ele>545.0</ele><time>2026-05-04T07:20:37Z</time></trkpt><trkpt lat="41.902206923416365" lon="20.004911038889972"><ele>545.0</ele><time>2026-05-04T07:20:38Z</time></trkpt><trkpt lat="41.9022637503499" lon="20.005088357419393"><ele>545.0</ele><time>2026-05-04T07:20:39Z</time></trkpt><trkpt lat="41.902351574972236" lon="20.005236500386538"><ele>541.25</ele><time>2026-05-04T07:20:40Z</time></trkpt><trkpt lat="41.9024195858541" lon="20.00536650477535"><ele>537.5</ele><time>2026-05-04T07:20:41Z</time></trkpt><trkpt lat="41.902424542573016" lon="20.005511382142508"><ele>533.75</ele><time>2026-05-04T07:20:42Z</time></trkpt><trkpt lat="41.902377991041334" lon="20.005687188876184"><ele>530.0</ele><time>2026-05-04T07:20:43Z</time></trkpt><trkpt lat="41.902298101871004" lon="20.005872123721492"><ele>529.5</ele><time>2026-05-04T07:20:44Z</time></trkpt><trkpt lat="41.902259328231985" lon="20.006057881712632"><ele>529.0</ele><time>2026-05-04T07:20:45Z</time></trkpt><trkpt lat="41.90226340653354" lon="20.006229038053736"><ele>528.5</ele><time>2026-05-04T07:20:46Z</time></trkpt><trkpt lat="41.902300635832994" lon="20.00640048916964"><ele>528.0</ele><time>2026-05-04T07:20:47Z</time></trkpt><trkpt lat="41.90236352533777" lon="20.00656926520335"><ele>529.1999999999999</ele><time>2026-05-04T07:20:48Z</time></trkpt><trkpt lat="41.902437425406134" lon="20.0066990363374"><ele>530.4</ele><time>2026-05-04T07:20:49Z</time></trkpt><trkpt lat="41.90252367640918" lon="20.006777258097564"><ele>531.5999999999999</ele><time>2026-05-04T07:20:50Z</time></trkpt><trkpt lat="41.90262220928115" lon="20.006790256296842"><ele>532.8</ele><time>2026-05-04T07:20:51Z</time></trkpt><trkpt lat="41.90273151462011" lon="20.006736945966765"><ele>534.0</ele><time>2026-05-04T07:20:52Z</time></trkpt><trkpt lat="41.902866667151955" lon="20.00663889821668"><ele>524.0</ele><time>2026-05-04T07:20:53Z</time></trkpt><trkpt lat="41.90302377054708" lon="20.006550387371878"><ele>514.0</ele><time>2026-05-04T07:20:54Z</time></trkpt><trkpt lat="41.903177160583496" lon="20.0064448956226"><ele>504.0</ele><time>2026-05-04T07:20:55Z</time></trkpt><trkpt lat="41.90329396158779" lon="20.006289362513986"><ele>504.0</ele><time>2026-05-04T07:20:56Z</time></trkpt><trkpt lat="41.90336619623263" lon="20.00615177619444"><ele>504.0</ele><time>2026-05-04T07:20:57Z</time></trkpt><trkpt lat="41.903442819054476" lon="20.006091590645315"><ele>504.0</ele><time>2026-05-04T07:20:58Z</time></trkpt><trkpt lat="41.903531210996434" lon="20.006117156589802"><ele>504.0</ele><time>2026-05-04T07:20:58.999Z</time></trkpt><trkpt lat="41.90361103575061" lon="20.006203833464824"><ele>504.0</ele><time>2026-05-04T07:20:59.999Z</time></trkpt><trkpt lat="41.90368524408368" lon="20.00636089773278"><ele>506.25</ele><time>2026-05-04T07:21:00.999Z</time></trkpt><trkpt lat="41.90378776763092" lon="20.006492742536366"><ele>508.5</ele><time>2026-05-04T07:21:01.999Z</time></trkpt><trkpt lat="41.90390312091204" lon="20.006520169421986"><ele>510.75</ele><time>2026-05-04T07:21:02.999Z</time></trkpt><trkpt lat="41.90402802397714" lon="20.006456722639463"><ele>513.0</ele><time>2026-05-04T07:21:03.999Z</time></trkpt><trkpt lat="41.90416902474362" lon="20.006337908823568"><ele>517.6666666666666</ele><time>2026-05-04T07:21:04.999Z</time></trkpt><trkpt lat="41.90431305583713" lon="20.00620369578559"><ele>522.3333333333333</ele><time>2026-05-04T07:21:05.999Z</time></trkpt><trkpt lat="41.904462470129616" lon="20.006032197817408"><ele>527.0</ele><time>2026-05-04T07:21:06.999Z</time></trkpt><trkpt lat="41.90457924652918" lon="20.00585626169835"><ele>520.0</ele><time>2026-05-04T07:21:07.999Z</time></trkpt><trkpt lat="41.90465788307362" lon="20.005735286249024"><ele>513.0</ele><time>2026-05-04T07:21:08.999Z</time></trkpt><trkpt lat="41.90474676987722" lon="20.005680791278103"><ele>506.0</ele><time>2026-05-04T07:21:09.999Z</time></trkpt><trkpt lat="41.90486989036474" lon="20.005686712677257"><ele>499.0</ele><time>2026-05-04T07:21:10.999Z</time></trkpt><trkpt lat="41.90501612483907" lon="20.00571940114712"><ele>508.0</ele><time>2026-05-04T07:21:11.999Z</time></trkpt><trkpt lat="41.90514678770746" lon="20.005683813856212"><ele>517.0</ele><time>2026-05-04T07:21:12.999Z</time></trkpt><trkpt lat="41.90525008753042" lon="20.005577817008934"><ele>526.0</ele><time>2026-05-04T07:21:13.999Z</time></trkpt><trkpt lat="41.905329510485885" lon="20.005412546764852"><ele>535.0</ele><time>2026-05-04T07:21:14.999Z</time></trkpt><trkpt lat="41.90538608846973" lon="20.005229841489363"><ele>535.0</ele><time>2026-05-04T07:21:15.999Z</time></trkpt><trkpt lat="41.90540291059495" lon="20.0050444778105"><ele>535.0</ele><time>2026-05-04T07:21:16.999Z</time></trkpt><trkpt lat="41.905405583913584" lon="20.004862875150533"><ele>535.0</ele><time>2026-05-04T07:21:17.999Z</time></trkpt><trkpt lat="41.90543955175186" lon="20.00469086800743"><ele>535.0</ele><time>2026-05-04T07:21:18.999Z</time></trkpt><trkpt lat="41.90550287630494" lon="20.004535820632693"><ele>529.75</ele><time>2026-05-04T07:21:19.999Z</time></trkpt><trkpt lat="41.90554299312323" lon="20.004359676719403"><ele>524.5</ele><time>2026-05-04T07:21:20.999Z</time></trkpt><trkpt lat="41.90556840808988" lon="20.004157466766085"><ele>519.25</ele><time>2026-05-04T07:21:21.999Z</time></trkpt><trkpt lat="41.90562647325041" lon="20.003978488462877"><ele>514.0</ele><time>2026-05-04T07:21:22.999Z</time></trkpt><trkpt lat="41.90572679072662" lon="20.003832870745462"><ele>510.33333333333337</ele><time>2026-05-04T07:21:23.999Z</time></trkpt><trkpt lat="41.905848285010244" lon="20.00370008176665"><ele>506.66666666666663</ele><time>2026-05-04T07:21:24.999Z</time></trkpt><trkpt lat="41.90597754901485" lon="20.003576831737323"><ele>503.0</ele><time>2026-05-04T07:21:25.999Z</time></trkpt><trkpt lat="41.906109021073036" lon="20.003500569287397"><ele>503.0</ele><time>2026-05-04T07:21:26.999Z</time></trkpt><trkpt lat="41.90625923762749" lon="20.003471080228074"><ele>503.0</ele><time>2026-05-04T07:21:27.999Z</time></trkpt><trkpt lat="41.90643406668342" lon="20.003465000616075"><ele>503.0</ele><time>2026-05-04T07:21:28.999Z</time></trkpt><trkpt lat="41.90656167694063" lon="20.003454121890524"><ele>503.0</ele><time>2026-05-04T07:21:29.999Z</time></trkpt><trkpt lat="41.90665465858073" lon="20.00338293745525"><ele>503.0</ele><time>2026-05-04T07:21:30.999Z</time></trkpt><trkpt lat="41.90671935635081" lon="20.003236562638577"><ele>503.0</ele><time>2026-05-04T07:21:31.999Z</time></trkpt><trkpt lat="41.906762032530374" lon="20.00304457292181"><ele>503.0</ele><time>2026-05-04T07:21:32.999Z</time></trkpt><trkpt lat="41.906805484482845" lon="20.002844473519353"><ele>497.5</ele><time>2026-05-04T07:21:33.999Z</time></trkpt><trkpt lat="41.90688008021542" lon="20.002700385439628"><ele>492.0</ele><time>2026-05-04T07:21:34.999Z</time></trkpt><trkpt lat="41.90699383561503" lon="20.00260071128526"><ele>486.5</ele><time>2026-05-04T07:21:35.999Z</time></trkpt><trkpt lat="41.907131283140366" lon="20.00254821389471"><ele>481.0</ele><time>2026-05-04T07:21:36.999Z</time></trkpt><trkpt lat="41.90727541051042" lon="20.00255335552787"><ele>481.0</ele><time>2026-05-04T07:21:37.999Z</time></trkpt><trkpt lat="41.907403391312904" lon="20.00262205180221"><ele>481.0</ele><time>2026-05-04T07:21:38.999Z</time></trkpt><trkpt lat="41.90750590323052" lon="20.002736413319308"><ele>481.0</ele><time>2026-05-04T07:21:39.999Z</time></trkpt><trkpt lat="41.90760797138953" lon="20.002899122970426"><ele>481.0</ele><time>2026-05-04T07:21:40.999Z</time></trkpt><trkpt lat="41.90776461242867" lon="20.003021388779654"><ele>484.33333333333337</ele><time>2026-05-04T07:21:41.999Z</time></trkpt><trkpt lat="41.907972651358385" lon="20.003089196997454"><ele>487.66666666666663</ele><time>2026-05-04T07:21:42.999Z</time></trkpt><trkpt lat="41.908188568859494" lon="20.003154385483025"><ele>491.0</ele><time>2026-05-04T07:21:43.999Z</time></trkpt><trkpt lat="41.90841036648125" lon="20.003280026516162"><ele>489.3333333333333</ele><time>2026-05-04T07:21:44.999Z</time></trkpt><trkpt lat="41.9086095950128" lon="20.00340689296661"><ele>487.66666666666663</ele><time>2026-05-04T07:21:45.999Z</time></trkpt><trkpt lat="41.90879819652337" lon="20.003487360547037"><ele>486.0</ele><time>2026-05-04T07:21:46.999Z</time></trkpt><trkpt lat="41.908969714206755" lon="20.00352674221611"><ele>486.0</ele><time>2026-05-04T07:21:47.999Z</time></trkpt><trkpt lat="41.909122715961345" lon="20.003542012145637"><ele>486.0</ele><time>2026-05-04T07:21:48.999Z</time></trkpt><trkpt lat="41.90926229379152" lon="20.003529265331167"><ele>486.0</ele><time>2026-05-04T07:21:49.999Z</time></trkpt><trkpt lat="41.90937878047899" lon="20.00347248775313"><ele>486.0</ele><time>2026-05-04T07:21:50.999Z</time></trkpt><trkpt lat="41.90946521299804" lon="20.00338034155139"><ele>495.75</ele><time>2026-05-04T07:21:51.999Z</time></trkpt><trkpt lat="41.90950228545435" lon="20.003264783521754"><ele>505.5</ele><time>2026-05-04T07:21:52.999Z</time></trkpt><trkpt lat="41.90949246908113" lon="20.00313423083065"><ele>515.25</ele><time>2026-05-04T07:21:53.999Z</time></trkpt><trkpt lat="41.90943693742094" lon="20.002980641008378"><ele>525.0</ele><time>2026-05-04T07:21:54.999Z</time></trkpt><trkpt lat="41.90933687301632" lon="20.002814522574866"><ele>521.3333333333334</ele><time>2026-05-04T07:21:55.999Z</time></trkpt><trkpt lat="41.9092006711657" lon="20.00267757481997"><ele>517.6666666666667</ele><time>2026-05-04T07:21:56.999Z</time></trkpt><trkpt lat="41.90905981737842" lon="20.002538315400372"><ele>514.0</ele><time>2026-05-04T07:21:57.999Z</time></trkpt><trkpt lat="41.90894987250477" lon="20.00235462130579"><ele>514.0</ele><time>2026-05-04T07:21:58.999Z</time></trkpt><trkpt lat="41.908866838781336" lon="20.002132067076367"><ele>514.0</ele><time>2026-05-04T07:21:59.999Z</time></trkpt><trkpt lat="41.90880364412277" lon="20.00191570222831"><ele>514.0</ele><time>2026-05-04T07:22:00.999Z</time></trkpt><trkpt lat="41.908768519292494" lon="20.001711948781374"><ele>518.0</ele><time>2026-05-04T07:22:01.999Z</time></trkpt><trkpt lat="41.90876532129746" lon="20.00152897366618"><ele>522.0</ele><time>2026-05-04T07:22:02.999Z</time></trkpt><trkpt lat="41.908741805754595" lon="20.001365977705525"><ele>526.0</ele><time>2026-05-04T07:22:03.999Z</time></trkpt><trkpt lat="41.90865069481458" lon="20.001239961921403"><ele>530.0</ele><time>2026-05-04T07:22:04.999Z</time></trkpt><trkpt lat="41.908522293154164" lon="20.001140384914088"><ele>528.0</ele><time>2026-05-04T07:22:05.999Z</time></trkpt><trkpt lat="41.9083948975742" lon="20.0009981794691"><ele>526.0</ele><time>2026-05-04T07:22:06.999Z</time></trkpt><trkpt lat="41.90828335273712" lon="20.00077931587883"><ele>524.0</ele><time>2026-05-04T07:22:07.999Z</time></trkpt><trkpt lat="41.90816476727315" lon="20.000544068121602"><ele>524.0</ele><time>2026-05-04T07:22:08.999Z</time></trkpt><trkpt lat="41.908019291212284" lon="20.000326529603996"><ele>524.0</ele><time>2026-05-04T07:22:09.999Z</time></trkpt><trkpt lat="41.90786322406067" lon="20.00012542367862"><ele>524.0</ele><time>2026-05-04T07:22:10.999Z</time></trkpt><trkpt lat="41.90772716111622" lon="19.999958998408342"><ele>524.0</ele><time>2026-05-04T07:22:11.999Z</time></trkpt><trkpt lat="41.907600325880715" lon="19.9998374668861"><ele>524.0</ele><time>2026-05-04T07:22:12.999Z</time></trkpt><trkpt lat="41.907499034725376" lon="19.99974296500571"><ele>524.0</ele><time>2026-05-04T07:22:13.999Z</time></trkpt><trkpt lat="41.90744794514256" lon="19.999619565169713"><ele>524.0</ele><time>2026-05-04T07:22:14.999Z</time></trkpt><trkpt lat="41.907439877431884" lon="19.999462600962854"><ele>527.3333333333333</ele><time>2026-05-04T07:22:15.999Z</time></trkpt><trkpt lat="41.90747667834101" lon="19.99926844598324"><ele>530.6666666666666</ele><time>2026-05-04T07:22:16.999Z</time></trkpt><trkpt lat="41.90754240164867" lon="19.999052861550666"><ele>534.0</ele><time>2026-05-04T07:22:17.999Z</time></trkpt><trkpt lat="41.90761585422427" lon="19.998834818992286"><ele>534.0</ele><time>2026-05-04T07:22:18.999Z</time></trkpt><trkpt lat="41.90770314407026" lon="19.9986278971671"><ele>534.0</ele><time>2026-05-04T07:22:19.999Z</time></trkpt><trkpt lat="41.907790785141906" lon="19.998459326608224"><ele>534.0</ele><time>2026-05-04T07:22:20.999Z</time></trkpt><trkpt lat="41.90790532356716" lon="19.99829376411376"><ele>525.3333333333334</ele><time>2026-05-04T07:22:21.999Z</time></trkpt><trkpt lat="41.90804867822406" lon="19.998135839204807"><ele>516.6666666666667</ele><time>2026-05-04T07:22:22.999Z</time></trkpt><trkpt lat="41.90819717285818" lon="19.997959626319446"><ele>508.0</ele><time>2026-05-04T07:22:23.999Z</time></trkpt><trkpt lat="41.908335929778005" lon="19.997761383113772"><ele>515.3333333333334</ele><time>2026-05-04T07:22:25Z</time></trkpt><trkpt lat="41.90844729558194" lon="19.997549054767642"><ele>522.6666666666666</ele><time>2026-05-04T07:22:26Z</time></trkpt><trkpt lat="41.90851594204157" lon="19.99732528297786"><ele>530.0</ele><time>2026-05-04T07:22:27Z</time></trkpt><trkpt lat="41.908559650392796" lon="19.997140828032553"><ele>530.0</ele><time>2026-05-04T07:22:28Z</time></trkpt><trkpt lat="41.908623050275736" lon="19.997015519636278"><ele>530.0</ele><time>2026-05-04T07:22:29Z</time></trkpt><trkpt lat="41.9087194450904" lon="19.99693079004709"><ele>530.0</ele><time>2026-05-04T07:22:30Z</time></trkpt><trkpt lat="41.9088319525435" lon="19.996843063285837"><ele>530.0</ele><time>2026-05-04T07:22:31Z</time></trkpt><trkpt lat="41.908927996824694" lon="19.996718719660283"><ele>520.0</ele><time>2026-05-04T07:22:32Z</time></trkpt><trkpt lat="41.90899575307025" lon="19.996542754801364"><ele>510.0</ele><time>2026-05-04T07:22:33Z</time></trkpt><trkpt lat="41.909038477236585" lon="19.996326312326346"><ele>500.0</ele><time>2026-05-04T07:22:34Z</time></trkpt><trkpt lat="41.909082551635265" lon="19.996089999247378"><ele>500.0</ele><time>2026-05-04T07:22:35Z</time></trkpt><trkpt lat="41.90913511471298" lon="19.995859017114242"><ele>500.0</ele><time>2026-05-04T07:22:36Z</time></trkpt><trkpt lat="41.90916015913371" lon="19.995665850984818"><ele>500.0</ele><time>2026-05-04T07:22:37Z</time></trkpt><trkpt lat="41.90912937990373" lon="19.995514995541047"><ele>500.0</ele><time>2026-05-04T07:22:38Z</time></trkpt><trkpt lat="41.90904404706456" lon="19.995390192494256"><ele>495.3333333333333</ele><time>2026-05-04T07:22:39Z</time></trkpt><trkpt lat="41.90890940844026" lon="19.995271229516117"><ele>490.66666666666663</ele><time>2026-05-04T07:22:40Z</time></trkpt><trkpt lat="41.9087637540269" lon="19.995114024608192"><ele>486.0</ele><time>2026-05-04T07:22:41Z</time></trkpt><trkpt lat="41.908642369098565" lon="19.994923323569758"><ele>485.75</ele><time>2026-05-04T07:22:42Z</time></trkpt><trkpt lat="41.908558287097264" lon="19.99475147965413"><ele>485.5</ele><time>2026-05-04T07:22:43Z</time></trkpt><trkpt lat="41.908517767842625" lon="19.99458525201342"><ele>485.25</ele><time>2026-05-04T07:22:44Z</time></trkpt><trkpt lat="41.908529860086645" lon="19.99446146693935"><ele>485.0</ele><time>2026-05-04T07:22:45Z</time></trkpt><trkpt lat="41.908588558364684" lon="19.994385757319233"><ele>485.0</ele><time>2026-05-04T07:22:46Z</time></trkpt><trkpt lat="41.90867533939188" lon="19.994363049523926"><ele>485.0</ele><time>2026-05-04T07:22:47Z</time></trkpt><trkpt lat="41.90877768322212" lon="19.99440215169236"><ele>485.0</ele><time>2026-05-04T07:22:48Z</time></trkpt><trkpt lat="41.9088920868769" lon="19.99450065558832"><ele>485.0</ele><time>2026-05-04T07:22:49Z</time></trkpt><trkpt lat="41.90903015667631" lon="19.99460404217499"><ele>485.0</ele><time>2026-05-04T07:22:50Z</time></trkpt><trkpt lat="41.9092077716664" lon="19.994658978222237"><ele>485.0</ele><time>2026-05-04T07:22:51Z</time></trkpt><trkpt lat="41.90938096490808" lon="19.99465560787647"><ele>485.0</ele><time>2026-05-04T07:22:52Z</time></trkpt><trkpt lat="41.909506837959896" lon="19.99466704584365"><ele>490.0</ele><time>2026-05-04T07:22:53Z</time></trkpt><trkpt lat="41.90962241806695" lon="19.99476298743476"><ele>495.0</ele><time>2026-05-04T07:22:54Z</time></trkpt><trkpt lat="41.9097544492306" lon="19.994921864618053"><ele>500.0</ele><time>2026-05-04T07:22:55Z</time></trkpt><trkpt lat="41.90992439306554" lon="19.995089214041585"><ele>488.3333333333333</ele><time>2026-05-04T07:22:56Z</time></trkpt><trkpt lat="41.91010524458948" lon="19.995246345195287"><ele>476.66666666666663</ele><time>2026-05-04T07:22:57Z</time></trkpt><trkpt lat="41.910288964235555" lon="19.99542002544657"><ele>465.0</ele><time>2026-05-04T07:22:58Z</time></trkpt><trkpt lat="41.91044568579748" lon="19.995625301959638"><ele>465.0</ele><time>2026-05-04T07:22:59Z</time></trkpt><trkpt lat="41.91058587590203" lon="19.99578821579933"><ele>465.0</ele><time>2026-05-04T07:23:00Z</time></trkpt><trkpt lat="41.91074847584436" lon="19.99588850376284"><ele>465.0</ele><time>2026-05-04T07:23:01Z</time></trkpt><trkpt lat="41.910945474888635" lon="19.995952977389326"><ele>468.66666666666663</ele><time>2026-05-04T07:23:02Z</time></trkpt><trkpt lat="41.91115036249251" lon="19.99602865294374"><ele>472.3333333333333</ele><time>2026-05-04T07:23:03Z</time></trkpt><trkpt lat="41.91131935116357" lon="19.996139737327976"><ele>476.0</ele><time>2026-05-04T07:23:04Z</time></trkpt><trkpt lat="41.91145394867298" lon="19.996273410885895"><ele>476.0</ele><time>2026-05-04T07:23:05Z</time></trkpt><trkpt lat="41.91154148483054" lon="19.99641662619803"><ele>476.0</ele><time>2026-05-04T07:23:06Z</time></trkpt><trkpt lat="41.91162307077702" lon="19.996522988327946"><ele>476.0</ele><time>2026-05-04T07:23:07Z</time></trkpt><trkpt lat="41.91173022477074" lon="19.996548753727453"><ele>476.0</ele><time>2026-05-04T07:23:08Z</time></trkpt><trkpt lat="41.91186252454536" lon="19.996500534559008"><ele>471.0</ele><time>2026-05-04T07:23:09Z</time></trkpt><trkpt lat="41.91200589038812" lon="19.996415003134956"><ele>466.0</ele><time>2026-05-04T07:23:10Z</time></trkpt><trkpt lat="41.91215345696431" lon="19.996341191711313"><ele>461.0</ele><time>2026-05-04T07:23:10.999Z</time></trkpt><trkpt lat="41.912289842963006" lon="19.996291545086383"><ele>461.0</ele><time>2026-05-04T07:23:11.999Z</time></trkpt><trkpt lat="41.91240953546046" lon="19.996298424279328"><ele>461.0</ele><time>2026-05-04T07:23:12.999Z</time></trkpt><trkpt lat="41.9125202852358" lon="19.996376565986132"><ele>461.0</ele><time>2026-05-04T07:23:13.999Z</time></trkpt><trkpt lat="41.91261515404833" lon="19.996518343299925"><ele>461.0</ele><time>2026-05-04T07:23:14.999Z</time></trkpt><trkpt lat="41.912706280776916" lon="19.996691769894653"><ele>460.5</ele><time>2026-05-04T07:23:15.999Z</time></trkpt><trkpt lat="41.91279770346027" lon="19.996785282525178"><ele>460.0</ele><time>2026-05-04T07:23:16.999Z</time></trkpt><trkpt lat="41.91290763336701" lon="19.99677366654834"><ele>459.5</ele><time>2026-05-04T07:23:17.999Z</time></trkpt><trkpt lat="41.91303868937591" lon="19.996689855850462"><ele>459.0</ele><time>2026-05-04T07:23:18.999Z</time></trkpt><trkpt lat="41.9131748054356" lon="19.99653537108462"><ele>459.0</ele><time>2026-05-04T07:23:19.999Z</time></trkpt><trkpt lat="41.913321561337035" lon="19.996379434421012"><ele>459.0</ele><time>2026-05-04T07:23:20.999Z</time></trkpt><trkpt lat="41.913501070736224" lon="19.99626900049429"><ele>459.0</ele><time>2026-05-04T07:23:21.999Z</time></trkpt><trkpt lat="41.91367671378906" lon="19.9961555627272"><ele>462.25</ele><time>2026-05-04T07:23:22.999Z</time></trkpt><trkpt lat="41.91379921378925" lon="19.996007928382525"><ele>465.5</ele><time>2026-05-04T07:23:23.999Z</time></trkpt><trkpt lat="41.9138987414701" lon="19.995871481220497"><ele>468.75</ele><time>2026-05-04T07:23:24.999Z</time></trkpt><trkpt lat="41.91402498117523" lon="19.995794819536812"><ele>472.0</ele><time>2026-05-04T07:23:25.999Z</time></trkpt><trkpt lat="41.91418007869286" lon="19.995760866125913"><ele>463.6666666666667</ele><time>2026-05-04T07:23:26.999Z</time></trkpt><trkpt lat="41.91434875685061" lon="19.995756512188237"><ele>455.33333333333337</ele><time>2026-05-04T07:23:27.999Z</time></trkpt><trkpt lat="41.91452560017388" lon="19.99579762887734"><ele>447.0</ele><time>2026-05-04T07:23:28.999Z</time></trkpt><trkpt lat="41.91469003967513" lon="19.9958600489988"><ele>447.0</ele><time>2026-05-04T07:23:29.999Z</time></trkpt><trkpt lat="41.91484347627001" lon="19.995956414309234"><ele>447.0</ele><time>2026-05-04T07:23:30.999Z</time></trkpt><trkpt lat="41.914987770816595" lon="19.996081078087773"><ele>447.0</ele><time>2026-05-04T07:23:31.999Z</time></trkpt><trkpt lat="41.915111502799306" lon="19.996218031019957"><ele>437.0</ele><time>2026-05-04T07:23:32.999Z</time></trkpt><trkpt lat="41.91519244448154" lon="19.99635084863953"><ele>427.0</ele><time>2026-05-04T07:23:33.999Z</time></trkpt><trkpt lat="41.91524457771442" lon="19.996502926994168"><ele>417.0</ele><time>2026-05-04T07:23:34.999Z</time></trkpt><trkpt lat="41.915264852891376" lon="19.996708380464018"><ele>407.0</ele><time>2026-05-04T07:23:35.999Z</time></trkpt><trkpt lat="41.91528229069426" lon="19.99694935912434"><ele>407.0</ele><time>2026-05-04T07:23:36.999Z</time></trkpt><trkpt lat="41.9153166190105" lon="19.99722123542631"><ele>407.0</ele><time>2026-05-04T07:23:37.999Z</time></trkpt><trkpt lat="41.91535063375777" lon="19.997483210268452"><ele>407.0</ele><time>2026-05-04T07:23:38.999Z</time></trkpt><trkpt lat="41.915364578714524" lon="19.997706059732625"><ele>411.0</ele><time>2026-05-04T07:23:39.999Z</time></trkpt><trkpt lat="41.91540392462327" lon="19.997885843852668"><ele>415.0</ele><time>2026-05-04T07:23:40.999Z</time></trkpt><trkpt lat="41.91548279606837" lon="19.998033600180527"><ele>419.0</ele><time>2026-05-04T07:23:41.999Z</time></trkpt><trkpt lat="41.915613801895994" lon="19.99815366058736"><ele>423.0</ele><time>2026-05-04T07:23:42.999Z</time></trkpt><trkpt lat="41.91577036991412" lon="19.998273630190567"><ele>430.25</ele><time>2026-05-04T07:23:43.999Z</time></trkpt><trkpt lat="41.91590278215318" lon="19.998379446801255"><ele>437.5</ele><time>2026-05-04T07:23:44.999Z</time></trkpt><trkpt lat="41.91601691227827" lon="19.998439021816598"><ele>444.75</ele><time>2026-05-04T07:23:45.999Z</time></trkpt><trkpt lat="41.916117117481065" lon="19.998424958190054"><ele>452.0</ele><time>2026-05-04T07:23:46.999Z</time></trkpt><trkpt lat="41.91618972324733" lon="19.99835439932532"><ele>447.25</ele><time>2026-05-04T07:23:47.999Z</time></trkpt><trkpt lat="41.91623881679538" lon="19.998213487813945"><ele>442.5</ele><time>2026-05-04T07:23:48.999Z</time></trkpt><trkpt lat="41.91626673853667" lon="19.998026151520076"><ele>437.75</ele><time>2026-05-04T07:23:49.999Z</time></trkpt><trkpt lat="41.91629873581449" lon="19.997817139333602"><ele>433.0</ele><time>2026-05-04T07:23:50.999Z</time></trkpt><trkpt lat="41.9163898550787" lon="19.9976614472145"><ele>433.0</ele><time>2026-05-04T07:23:51.999Z</time></trkpt><trkpt lat="41.916539288689584" lon="19.997532063059104"><ele>433.0</ele><time>2026-05-04T07:23:52.999Z</time></trkpt><trkpt lat="41.916711815675995" lon="19.997403206487917"><ele>433.0</ele><time>2026-05-04T07:23:53.999Z</time></trkpt><trkpt lat="41.91691324797473" lon="19.997287672284077"><ele>429.0</ele><time>2026-05-04T07:23:54.999Z</time></trkpt><trkpt lat="41.91706509667726" lon="19.997202759228035"><ele>425.0</ele><time>2026-05-04T07:23:55.999Z</time></trkpt><trkpt lat="41.917180794230404" lon="19.997135863703946"><ele>421.0</ele><time>2026-05-04T07:23:56.999Z</time></trkpt><trkpt lat="41.917283619856946" lon="19.997103051704592"><ele>417.0</ele><time>2026-05-04T07:23:57.999Z</time></trkpt><trkpt lat="41.91738285749911" lon="19.997128632478447"><ele>417.0</ele><time>2026-05-04T07:23:58.999Z</time></trkpt><trkpt lat="41.917483745341976" lon="19.99723198738691"><ele>417.0</ele><time>2026-05-04T07:23:59.999Z</time></trkpt><trkpt lat="41.91760956441473" lon="19.997389767850883"><ele>417.0</ele><time>2026-05-04T07:24:00.999Z</time></trkpt><trkpt lat="41.91775674974555" lon="19.997543912888876"><ele>420.0</ele><time>2026-05-04T07:24:01.999Z</time></trkpt><trkpt lat="41.91792093002147" lon="19.997658043800143"><ele>423.0</ele><time>2026-05-04T07:24:02.999Z</time></trkpt><trkpt lat="41.91807703780746" lon="19.99770596065773"><ele>426.0</ele><time>2026-05-04T07:24:03.999Z</time></trkpt><trkpt lat="41.91822800970746" lon="19.99768389999095"><ele>426.0</ele><time>2026-05-04T07:24:04.999Z</time></trkpt><trkpt lat="41.918367627148314" lon="19.9975977810749"><ele>426.0</ele><time>2026-05-04T07:24:05.999Z</time></trkpt><trkpt lat="41.91848748626376" lon="19.997554519323785"><ele>426.0</ele><time>2026-05-04T07:24:06.999Z</time></trkpt><trkpt lat="41.91859039273005" lon="19.9975983527107"><ele>426.0</ele><time>2026-05-04T07:24:07.999Z</time></trkpt><trkpt lat="41.918705188095004" lon="19.997716186874428"><ele>417.33333333333337</ele><time>2026-05-04T07:24:08.999Z</time></trkpt><trkpt lat="41.91884047144444" lon="19.997878606156966"><ele>408.6666666666667</ele><time>2026-05-04T07:24:09.999Z</time></trkpt><trkpt lat="41.91899270018801" lon="19.998047114498743"><ele>400.0</ele><time>2026-05-04T07:24:10.999Z</time></trkpt><trkpt lat="41.919129951294536" lon="19.998220609127863"><ele>401.75</ele><time>2026-05-04T07:24:11.999Z</time></trkpt><trkpt lat="41.91921372024333" lon="19.998379847248707"><ele>403.5</ele><time>2026-05-04T07:24:12.999Z</time></trkpt><trkpt lat="41.919254127178206" lon="19.998523328799802"><ele>405.25</ele><time>2026-05-04T07:24:13.999Z</time></trkpt><trkpt lat="41.91924673378489" lon="19.99868303385216"><ele>407.0</ele><time>2026-05-04T07:24:14.999Z</time></trkpt><trkpt lat="41.91921956155821" lon="19.99888295444031"><ele>408.75</ele><time>2026-05-04T07:24:15.999Z</time></trkpt><trkpt lat="41.919227467550094" lon="19.999106033306216"><ele>410.5</ele><time>2026-05-04T07:24:16.999Z</time></trkpt><trkpt lat="41.919280806389814" lon="19.9993066703645"><ele>412.25</ele><time>2026-05-04T07:24:17.999Z</time></trkpt><trkpt lat="41.9193388588997" lon="19.99943708612887"><ele>414.0</ele><time>2026-05-04T07:24:18.999Z</time></trkpt><trkpt lat="41.919410169218686" lon="19.999477044754034"><ele>415.5</ele><time>2026-05-04T07:24:19.999Z</time></trkpt><trkpt lat="41.919492563397796" lon="19.999467834433485"><ele>417.0</ele><time>2026-05-04T07:24:20.999Z</time></trkpt><trkpt lat="41.919595242974935" lon="19.99939399484253"><ele>418.5</ele><time>2026-05-04T07:24:21.999Z</time></trkpt><trkpt lat="41.91969932264789" lon="19.99924746494908"><ele>420.0</ele><time>2026-05-04T07:24:22.999Z</time></trkpt><trkpt lat="41.91980084543979" lon="19.999070364745144"><ele>420.33333333333337</ele><time>2026-05-04T07:24:23.999Z</time></trkpt><trkpt lat="41.91990815644502" lon="19.99890069610164"><ele>420.6666666666667</ele><time>2026-05-04T07:24:24.999Z</time></trkpt><trkpt lat="41.92002315555724" lon="19.998728226336887"><ele>421.0</ele><time>2026-05-04T07:24:25.999Z</time></trkpt><trkpt lat="41.920140541134366" lon="19.998558221715466"><ele>421.0</ele><time>2026-05-04T07:24:26.999Z</time></trkpt><trkpt lat="41.92024050276942" lon="19.998446559163963"><ele>421.0</ele><time>2026-05-04T07:24:27.999Z</time></trkpt><trkpt lat="41.92034534335121" lon="19.998407121430013"><ele>421.0</ele><time>2026-05-04T07:24:28.999Z</time></trkpt><trkpt lat="41.92047122826276" lon="19.99843793336189"><ele>421.0</ele><time>2026-05-04T07:24:29.999Z</time></trkpt><trkpt lat="41.92061863172472" lon="19.998506972041863"><ele>421.0</ele><time>2026-05-04T07:24:31Z</time></trkpt><trkpt lat="41.92078273914576" lon="19.998561600919235"><ele>421.0</ele><time>2026-05-04T07:24:32Z</time></trkpt><trkpt lat="41.92095141671195" lon="19.998549419098033"><ele>421.0</ele><time>2026-05-04T07:24:33Z</time></trkpt><trkpt lat="41.92107365957589" lon="19.99850498677941"><ele>421.0</ele><time>2026-05-04T07:24:34Z</time></trkpt><trkpt lat="41.92113363409978" lon="19.99841418553283"><ele>421.0</ele><time>2026-05-04T07:24:35Z</time></trkpt><trkpt lat="41.921153021737695" lon="19.998302190072494"><ele>421.0</ele><time>2026-05-04T07:24:36Z</time></trkpt><trkpt lat="41.921125927186125" lon="19.998175395979413"><ele>421.0</ele><time>2026-05-04T07:24:37Z</time></trkpt><trkpt lat="41.92104755856981" lon="19.998046316047464"><ele>421.0</ele><time>2026-05-04T07:24:38Z</time></trkpt><trkpt lat="41.9209389314242" lon="19.997929444677727"><ele>416.0</ele><time>2026-05-04T07:24:39Z</time></trkpt><trkpt lat="41.92081497083557" lon="19.997813729997066"><ele>411.0</ele><time>2026-05-04T07:24:40Z</time></trkpt><trkpt lat="41.9206886050442" lon="19.997694159120325"><ele>406.0</ele><time>2026-05-04T07:24:41Z</time></trkpt><trkpt lat="41.9205818173053" lon="19.99755017832164"><ele>408.25</ele><time>2026-05-04T07:24:42Z</time></trkpt><trkpt lat="41.920517831355475" lon="19.997362671973985"><ele>410.5</ele><time>2026-05-04T07:24:43Z</time></trkpt><trkpt lat="41.92048971132995" lon="19.997185093560816"><ele>412.75</ele><time>2026-05-04T07:24:44Z</time></trkpt><trkpt lat="41.92045569597444" lon="19.99703931656442"><ele>415.0</ele><time>2026-05-04T07:24:45Z</time></trkpt><trkpt lat="41.92042134620552" lon="19.996909350115352"><ele>415.0</ele><time>2026-05-04T07:24:46Z</time></trkpt><trkpt lat="41.920390400824886" lon="19.9967866242613"><ele>415.0</ele><time>2026-05-04T07:24:47Z</time></trkpt><trkpt lat="41.92036126384683" lon="19.996658298470066"><ele>415.0</ele><time>2026-05-04T07:24:48Z</time></trkpt><trkpt lat="41.920335601480936" lon="19.996522698723687"><ele>415.0</ele><time>2026-05-04T07:24:49Z</time></trkpt><trkpt lat="41.920313107419986" lon="19.99638326106845"><ele>415.0</ele><time>2026-05-04T07:24:50Z</time></trkpt><trkpt lat="41.92027845772891" lon="19.996244315018107"><ele>418.75</ele><time>2026-05-04T07:24:51Z</time></trkpt><trkpt lat="41.92022262423734" lon="19.996107651729993"><ele>422.5</ele><time>2026-05-04T07:24:52Z</time></trkpt><trkpt lat="41.92016504146621" lon="19.99597410363881"><ele>426.25</ele><time>2026-05-04T07:24:53Z</time></trkpt><trkpt lat="41.920113977155346" lon="19.995836120089493"><ele>430.0</ele><time>2026-05-04T07:24:54Z</time></trkpt><trkpt lat="41.920072479038645" lon="19.995695610905937"><ele>424.75</ele><time>2026-05-04T07:24:55Z</time></trkpt><trkpt lat="41.92004797443069" lon="19.995546205333824"><ele>419.5</ele><time>2026-05-04T07:24:56Z</time></trkpt><trkpt lat="41.92003657608503" lon="19.995390408614185"><ele>414.25</ele><time>2026-05-04T07:24:57Z</time></trkpt><trkpt lat="41.920018799140465" lon="19.995236466458238"><ele>409.0</ele><time>2026-05-04T07:24:58Z</time></trkpt><trkpt lat="41.91998237015386" lon="19.995092759794332"><ele>412.6</ele><time>2026-05-04T07:24:59Z</time></trkpt><trkpt lat="41.919937916437306" lon="19.99495654982673"><ele>416.2</ele><time>2026-05-04T07:25:00Z</time></trkpt><trkpt lat="41.9198893184854" lon="19.994824448728803"><ele>419.80000000000007</ele><time>2026-05-04T07:25:01Z</time></trkpt><trkpt lat="41.919841489488654" lon="19.994699413994166"><ele>423.40000000000003</ele><time>2026-05-04T07:25:02Z</time></trkpt><trkpt lat="41.91978898217303" lon="19.994583299750133"><ele>427.0</ele><time>2026-05-04T07:25:03Z</time></trkpt><trkpt lat="41.91972497734861" lon="19.994470525855387"><ele>427.00000000000006</ele><time>2026-05-04T07:25:04Z</time></trkpt><trkpt lat="41.91964991783232" lon="19.994384441701783"><ele>427.0</ele><time>2026-05-04T07:25:05Z</time></trkpt><trkpt lat="41.919578337710135" lon="19.99430621255682"><ele>427.0</ele><time>2026-05-04T07:25:06Z</time></trkpt><trkpt lat="41.91951850199165" lon="19.994232658669617"><ele>427.0</ele><time>2026-05-04T07:25:07Z</time></trkpt><trkpt lat="41.91947311247604" lon="19.994146682934144"><ele>427.00000000000006</ele><time>2026-05-04T07:25:08Z</time></trkpt><trkpt lat="41.919491384233325" lon="19.99402328643125"><ele>427.0</ele><time>2026-05-04T07:25:10Z</time></trkpt><trkpt lat="41.91954401010899" lon="19.993947470796275"><ele>427.1666666666667</ele><time>2026-05-04T07:25:12Z</time></trkpt><trkpt lat="41.919609321979934" lon="19.993905713680796"><ele>427.33333333333337</ele><time>2026-05-04T07:25:14Z</time></trkpt><trkpt lat="41.91968855850021" lon="19.993882476930583"><ele>427.5</ele><time>2026-05-04T07:25:16Z</time></trkpt><trkpt lat="41.91978075095654" lon="19.99388852333438"><ele>427.66666666666663</ele><time>2026-05-04T07:25:18Z</time></trkpt><trkpt lat="41.919878094358324" lon="19.993891527503965"><ele>427.8333333333333</ele><time>2026-05-04T07:25:20Z</time></trkpt><trkpt lat="41.91997004012028" lon="19.99387472379204"><ele>428.0</ele><time>2026-05-04T07:25:22Z</time></trkpt><trkpt lat="41.92003353740143" lon="19.993847673207792"><ele>431.8333333333333</ele><time>2026-05-04T07:25:50Z</time></trkpt><trkpt lat="41.920134039862646" lon="19.99383606967253"><ele>435.66666666666663</ele><time>2026-05-04T07:25:52Z</time></trkpt><trkpt lat="41.92020765675402" lon="19.993818758184897"><ele>439.5</ele><time>2026-05-04T07:25:53Z</time></trkpt><trkpt lat="41.92029067161148" lon="19.99380903419531"><ele>443.33333333333337</ele><time>2026-05-04T07:25:54Z</time></trkpt><trkpt lat="41.92038024364208" lon="19.9938082122981"><ele>447.1666666666667</ele><time>2026-05-04T07:25:55Z</time></trkpt><trkpt lat="41.92047881034969" lon="19.993799729107142"><ele>451.0</ele><time>2026-05-04T07:25:56Z</time></trkpt><trkpt lat="41.920566682329735" lon="19.99378364870429"><ele>451.0</ele><time>2026-05-04T07:25:56.999Z</time></trkpt><trkpt lat="41.92065080597009" lon="19.99376649554651"><ele>451.0</ele><time>2026-05-04T07:25:57.999Z</time></trkpt><trkpt lat="41.92074720580406" lon="19.993727489545705"><ele>451.0</ele><time>2026-05-04T07:25:58.999Z</time></trkpt><trkpt lat="41.9208532737759" lon="19.993670957980623"><ele>451.0</ele><time>2026-05-04T07:25:59.999Z</time></trkpt><trkpt lat="41.92094717240007" lon="19.99362098291237"><ele>451.0</ele><time>2026-05-04T07:26:00.999Z</time></trkpt><trkpt lat="41.921038153073646" lon="19.993564696720355"><ele>449.4</ele><time>2026-05-04T07:26:01.999Z</time></trkpt><trkpt lat="41.92112632986246" lon="19.993504264019315"><ele>447.8</ele><time>2026-05-04T07:26:02.999Z</time></trkpt><trkpt lat="41.921213973094176" lon="19.993442198365795"><ele>446.19999999999993</ele><time>2026-05-04T07:26:03.999Z</time></trkpt><trkpt lat="41.92128001319463" lon="19.993461480154586"><ele>444.59999999999997</ele><time>2026-05-04T07:26:04.999Z</time></trkpt><trkpt lat="41.92135159665993" lon="19.99337676779863"><ele>443.0</ele><time>2026-05-04T07:26:05.999Z</time></trkpt><trkpt lat="41.92139101978169" lon="19.993245922597044"><ele>443.0</ele><time>2026-05-04T07:26:06.999Z</time></trkpt><trkpt lat="41.921394793768705" lon="19.993102913462494"><ele>442.99999999999994</ele><time>2026-05-04T07:26:07.999Z</time></trkpt><trkpt lat="41.921396625117275" lon="19.992974887623784"><ele>442.99999999999994</ele><time>2026-05-04T07:26:08.999Z</time></trkpt><trkpt lat="41.9214051616226" lon="19.99283781849364"><ele>443.0</ele><time>2026-05-04T07:26:09.999Z</time></trkpt><trkpt lat="41.92141551831021" lon="19.99269569999652"><ele>443.0</ele><time>2026-05-04T07:26:10.999Z</time></trkpt><trkpt lat="41.92141945309538" lon="19.99256910054808"><ele>440.59999999999997</ele><time>2026-05-04T07:26:11.999Z</time></trkpt><trkpt lat="41.92142027016928" lon="19.992446739256234"><ele>438.19999999999993</ele><time>2026-05-04T07:26:12.999Z</time></trkpt><trkpt lat="41.92142141482112" lon="19.992320132818932"><ele>435.8</ele><time>2026-05-04T07:26:13.999Z</time></trkpt><trkpt lat="41.92141350673098" lon="19.992173630474237"><ele>433.4</ele><time>2026-05-04T07:26:14.999Z</time></trkpt><trkpt lat="41.92140785082494" lon="19.99204105576483"><ele>431.0</ele><time>2026-05-04T07:26:15.999Z</time></trkpt><trkpt lat="41.921410042038985" lon="19.99191552602991"><ele>431.0</ele><time>2026-05-04T07:26:16.999Z</time></trkpt><trkpt lat="41.921429258982414" lon="19.99177960430453"><ele>431.0</ele><time>2026-05-04T07:26:17.999Z</time></trkpt><trkpt lat="41.9214769990455" lon="19.99162729319785"><ele>431.0</ele><time>2026-05-04T07:26:18.999Z</time></trkpt><trkpt lat="41.9215471101713" lon="19.99146009167672"><ele>431.0</ele><time>2026-05-04T07:26:19.999Z</time></trkpt><trkpt lat="41.921604102466844" lon="19.991284497977087"><ele>432.8</ele><time>2026-05-04T07:26:20.999Z</time></trkpt><trkpt lat="41.92163550053725" lon="19.991107138992575"><ele>434.6</ele><time>2026-05-04T07:26:21.999Z</time></trkpt><trkpt lat="41.921675165891216" lon="19.990965226974268"><ele>436.4</ele><time>2026-05-04T07:26:22.999Z</time></trkpt><trkpt lat="41.92174554886458" lon="19.99089149555262"><ele>438.2</ele><time>2026-05-04T07:26:23.999Z</time></trkpt><trkpt lat="41.92184609351056" lon="19.990864957612153"><ele>440.0</ele><time>2026-05-04T07:26:24.999Z</time></trkpt><trkpt lat="41.921992038487716" lon="19.990869932855205"><ele>440.0</ele><time>2026-05-04T07:26:25.999Z</time></trkpt><trkpt lat="41.92215407199932" lon="19.99088302141681"><ele>440.0</ele><time>2026-05-04T07:26:26.999Z</time></trkpt><trkpt lat="41.92231518318066" lon="19.990921140275475"><ele>440.0</ele><time>2026-05-04T07:26:27.999Z</time></trkpt><trkpt lat="41.922451101152525" lon="19.99100803294764"><ele>435.0</ele><time>2026-05-04T07:26:28.999Z</time></trkpt><trkpt lat="41.922565158582884" lon="19.991025080572214"><ele>430.0</ele><time>2026-05-04T07:26:29.999Z</time></trkpt><trkpt lat="41.922672819883964" lon="19.990954821426154"><ele>425.0</ele><time>2026-05-04T07:26:30.999Z</time></trkpt><trkpt lat="41.922795921898036" lon="19.990838755647687"><ele>420.0</ele><time>2026-05-04T07:26:31.999Z</time></trkpt><trkpt lat="41.922887145063214" lon="19.990693464799516"><ele>416.1666666666667</ele><time>2026-05-04T07:26:32.999Z</time></trkpt><trkpt lat="41.922943113536775" lon="19.990552711171112"><ele>412.33333333333337</ele><time>2026-05-04T07:26:33.999Z</time></trkpt><trkpt lat="41.92299641127972" lon="19.990462037637126"><ele>408.5</ele><time>2026-05-04T07:26:34.999Z</time></trkpt><trkpt lat="41.923038199861224" lon="19.990384999448644"><ele>404.6666666666667</ele><time>2026-05-04T07:26:35.999Z</time></trkpt><trkpt lat="41.92311112154865" lon="19.99030624270175"><ele>400.83333333333337</ele><time>2026-05-04T07:26:38Z</time></trkpt><trkpt lat="41.92317924455688" lon="19.990267227890264"><ele>397.0</ele><time>2026-05-04T07:27:00Z</time></trkpt><trkpt lat="41.92326602783136" lon="19.990246844759813"><ele>397.00000000000006</ele><time>2026-05-04T07:27:02Z</time></trkpt><trkpt lat="41.923328421107655" lon="19.990258720253138"><ele>397.0</ele><time>2026-05-04T07:27:03Z</time></trkpt><trkpt lat="41.92339973805578" lon="19.99029156939772"><ele>397.0</ele><time>2026-05-04T07:27:04Z</time></trkpt><trkpt lat="41.923457892736536" lon="19.990374336749113"><ele>397.0</ele><time>2026-05-04T07:27:05Z</time></trkpt><trkpt lat="41.923472385090015" lon="19.990496890653965"><ele>397.00000000000006</ele><time>2026-05-04T07:27:06Z</time></trkpt><trkpt lat="41.923448500067536" lon="19.99064445586227"><ele>397.0</ele><time>2026-05-04T07:27:07Z</time></trkpt><trkpt lat="41.92341393682306" lon="19.99079283383984"><ele>390.25</ele><time>2026-05-04T07:27:08Z</time></trkpt><trkpt lat="41.923401218324464" lon="19.990950294738873"><ele>383.5</ele><time>2026-05-04T07:27:09Z</time></trkpt><trkpt lat="41.92342580628644" lon="19.991116079425012"><ele>376.75</ele><time>2026-05-04T07:27:10Z</time></trkpt><trkpt lat="41.92347960183241" lon="19.991273719638425"><ele>370.0</ele><time>2026-05-04T07:27:11Z</time></trkpt><trkpt lat="41.92354628460498" lon="19.991436415693396"><ele>370.0</ele><time>2026-05-04T07:27:12Z</time></trkpt><trkpt lat="41.923618942892084" lon="19.99159105271575"><ele>370.0</ele><time>2026-05-04T07:27:13Z</time></trkpt><trkpt lat="41.92370276508247" lon="19.99170122745313"><ele>370.0</ele><time>2026-05-04T07:27:14Z</time></trkpt><trkpt lat="41.92380834639477" lon="19.991764660522538"><ele>370.0</ele><time>2026-05-04T07:27:15Z</time></trkpt><trkpt lat="41.92393041967261" lon="19.99179405099968"><ele>374.75</ele><time>2026-05-04T07:27:16Z</time></trkpt><trkpt lat="41.92402618906423" lon="19.991860965417043"><ele>379.5</ele><time>2026-05-04T07:27:17Z</time></trkpt><trkpt lat="41.92409748041778" lon="19.992002842702522"><ele>384.25</ele><time>2026-05-04T07:27:18Z</time></trkpt><trkpt lat="41.92414604568758" lon="19.992186777373213"><ele>389.0</ele><time>2026-05-04T07:27:19Z</time></trkpt><trkpt lat="41.92420129079759" lon="19.9923807057376"><ele>385.66666666666663</ele><time>2026-05-04T07:27:20Z</time></trkpt><trkpt lat="41.924271014569186" lon="19.99257979567589"><ele>382.3333333333333</ele><time>2026-05-04T07:27:21Z</time></trkpt><trkpt lat="41.9243415071645" lon="19.992784086255973"><ele>379.0</ele><time>2026-05-04T07:27:22Z</time></trkpt><trkpt lat="41.92439548123867" lon="19.99297570974971"><ele>379.0</ele><time>2026-05-04T07:27:23Z</time></trkpt><trkpt lat="41.92444543710474" lon="19.993130044838686"><ele>379.0</ele><time>2026-05-04T07:27:24Z</time></trkpt><trkpt lat="41.924517482951835" lon="19.993225513834975"><ele>379.0</ele><time>2026-05-04T07:27:25Z</time></trkpt><trkpt lat="41.92462309827048" lon="19.993271219977636"><ele>379.0</ele><time>2026-05-04T07:27:26Z</time></trkpt><trkpt lat="41.92476291099815" lon="19.99327867217477"><ele>379.0</ele><time>2026-05-04T07:27:27Z</time></trkpt><trkpt lat="41.924923556658214" lon="19.99328030904129"><ele>379.0</ele><time>2026-05-04T07:27:28Z</time></trkpt><trkpt lat="41.92509671410005" lon="19.993289032370814"><ele>379.0</ele><time>2026-05-04T07:27:29Z</time></trkpt><trkpt lat="41.92527210737709" lon="19.993288483858958"><ele>377.5</ele><time>2026-05-04T07:27:30Z</time></trkpt><trkpt lat="41.92543214183817" lon="19.993278763910215"><ele>376.0</ele><time>2026-05-04T07:27:31Z</time></trkpt><trkpt lat="41.925565826888686" lon="19.993310906769945"><ele>374.5</ele><time>2026-05-04T07:27:32Z</time></trkpt><trkpt lat="41.92569255695624" lon="19.99340394278348"><ele>373.0</ele><time>2026-05-04T07:27:33Z</time></trkpt><trkpt lat="41.92579432487579" lon="19.99353134329174"><ele>373.0</ele><time>2026-05-04T07:27:34Z</time></trkpt><trkpt lat="41.925846176025956" lon="19.993680574806042"><ele>373.0</ele><time>2026-05-04T07:27:35Z</time></trkpt><trkpt lat="41.92586516914359" lon="19.99386788154238"><ele>373.0</ele><time>2026-05-04T07:27:36Z</time></trkpt><trkpt lat="41.925872330407536" lon="19.994075437994173"><ele>373.0</ele><time>2026-05-04T07:27:37Z</time></trkpt><trkpt lat="41.925859059704955" lon="19.9942585757763"><ele>376.5</ele><time>2026-05-04T07:27:38Z</time></trkpt><trkpt lat="41.925806287322935" lon="19.994421159338536"><ele>380.0</ele><time>2026-05-04T07:27:39Z</time></trkpt><trkpt lat="41.92575789141695" lon="19.994582480849253"><ele>383.5</ele><time>2026-05-04T07:27:40Z</time></trkpt><trkpt lat="41.925762508353195" lon="19.99475068108577"><ele>387.0</ele><time>2026-05-04T07:27:41Z</time></trkpt><trkpt lat="41.9258164501876" lon="19.994912919521926"><ele>383.0</ele><time>2026-05-04T07:27:42Z</time></trkpt><trkpt lat="41.92590247726243" lon="19.995063823623767"><ele>379.0</ele><time>2026-05-04T07:27:43Z</time></trkpt><trkpt lat="41.92602027280869" lon="19.995192143774315"><ele>375.0</ele><time>2026-05-04T07:27:44Z</time></trkpt><trkpt lat="41.926169811050265" lon="19.99528576141561"><ele>375.0</ele><time>2026-05-04T07:27:45Z</time></trkpt><trkpt lat="41.9263349877566" lon="19.99537697568018"><ele>375.0</ele><time>2026-05-04T07:27:46Z</time></trkpt><trkpt lat="41.926495407443234" lon="19.995520016820834"><ele>375.0</ele><time>2026-05-04T07:27:47Z</time></trkpt><trkpt lat="41.92663987653411" lon="19.99569800783376"><ele>375.0</ele><time>2026-05-04T07:27:48Z</time></trkpt><trkpt lat="41.92677360072159" lon="19.995874304292975"><ele>375.0</ele><time>2026-05-04T07:27:49Z</time></trkpt><trkpt lat="41.926896198221925" lon="19.99601854537562"><ele>375.0</ele><time>2026-05-04T07:27:50Z</time></trkpt><trkpt lat="41.92701484321978" lon="19.99613868743682"><ele>375.0</ele><time>2026-05-04T07:27:51Z</time></trkpt><trkpt lat="41.92713523624746" lon="19.996239757015246"><ele>375.0</ele><time>2026-05-04T07:27:52Z</time></trkpt><trkpt lat="41.927285989945645" lon="19.996327736906057"><ele>375.0</ele><time>2026-05-04T07:27:53Z</time></trkpt><trkpt lat="41.9274542730717" lon="19.996401726741396"><ele>367.75</ele><time>2026-05-04T07:27:54Z</time></trkpt><trkpt lat="41.92761374320788" lon="19.996466921657316"><ele>360.5</ele><time>2026-05-04T07:27:55Z</time></trkpt><trkpt lat="41.92774548827972" lon="19.996526369307563"><ele>353.25</ele><time>2026-05-04T07:27:56Z</time></trkpt><trkpt lat="41.927853275069864" lon="19.996579376082373"><ele>346.0</ele><time>2026-05-04T07:27:57Z</time></trkpt><trkpt lat="41.92795099507328" lon="19.99662505799317"><ele>349.0</ele><time>2026-05-04T07:27:58Z</time></trkpt><trkpt lat="41.92804570028967" lon="19.996679511938638"><ele>352.0</ele><time>2026-05-04T07:27:59Z</time></trkpt><trkpt lat="41.92813192231945" lon="19.99675944289414"><ele>355.0</ele><time>2026-05-04T07:28:00Z</time></trkpt><trkpt lat="41.92824192965923" lon="19.99686222046039"><ele>358.0</ele><time>2026-05-04T07:28:01Z</time></trkpt><trkpt lat="41.92839328023675" lon="19.996984859517056"><ele>358.0</ele><time>2026-05-04T07:28:02Z</time></trkpt><trkpt lat="41.928557043114466" lon="19.997113326190895"><ele>358.0</ele><time>2026-05-04T07:28:03Z</time></trkpt><trkpt lat="41.9287324474188" lon="19.99721660195728"><ele>358.0</ele><time>2026-05-04T07:28:04Z</time></trkpt><trkpt lat="41.92892682509119" lon="19.99725912130536"><ele>358.0</ele><time>2026-05-04T07:28:05Z</time></trkpt><trkpt lat="41.929117899600506" lon="19.99725247156815"><ele>358.0</ele><time>2026-05-04T07:28:06Z</time></trkpt><trkpt lat="41.929268840890735" lon="19.997233858944888"><ele>358.0</ele><time>2026-05-04T07:28:07Z</time></trkpt><trkpt lat="41.92938986080649" lon="19.997255068234548"><ele>348.25</ele><time>2026-05-04T07:28:08Z</time></trkpt><trkpt lat="41.929485714265475" lon="19.997331497889217"><ele>338.5</ele><time>2026-05-04T07:28:09Z</time></trkpt><trkpt lat="41.929549021490985" lon="19.99745802937028"><ele>328.75</ele><time>2026-05-04T07:28:10Z</time></trkpt><trkpt lat="41.929579182525416" lon="19.99763818388401"><ele>319.0</ele><time>2026-05-04T07:28:11Z</time></trkpt><trkpt lat="41.929587942290446" lon="19.997867163204866"><ele>317.75</ele><time>2026-05-04T07:28:12Z</time></trkpt><trkpt lat="41.9295650656424" lon="19.998082166139874"><ele>316.5</ele><time>2026-05-04T07:28:13Z</time></trkpt><trkpt lat="41.92951625769546" lon="19.9982551268922"><ele>315.25</ele><time>2026-05-04T07:28:14Z</time></trkpt><trkpt lat="41.929464682730966" lon="19.998378089377834"><ele>314.0</ele><time>2026-05-04T07:28:15Z</time></trkpt><trkpt lat="41.929455553932215" lon="19.99846462226168"><ele>314.0</ele><time>2026-05-04T07:28:16Z</time></trkpt><trkpt lat="41.92949453989312" lon="19.99853434530793"><ele>314.0</ele><time>2026-05-04T07:28:17Z</time></trkpt><trkpt lat="41.92960583811871" lon="19.998492521545895"><ele>314.0</ele><time>2026-05-04T07:28:19Z</time></trkpt><trkpt lat="41.92964458270827" lon="19.99837760532479"><ele>314.0</ele><time>2026-05-04T07:28:20Z</time></trkpt><trkpt lat="41.92966884760344" lon="19.998204637869527"><ele>314.0</ele><time>2026-05-04T07:28:21Z</time></trkpt><trkpt lat="41.92969366523357" lon="19.997994769592545"><ele>314.0</ele><time>2026-05-04T07:28:22Z</time></trkpt><trkpt lat="41.92971753635901" lon="19.997762224793195"><ele>314.0</ele><time>2026-05-04T07:28:23Z</time></trkpt><trkpt lat="41.92974024336799" lon="19.99750619250856"><ele>314.0</ele><time>2026-05-04T07:28:24Z</time></trkpt><trkpt lat="41.92976082304592" lon="19.99728723304389"><ele>315.25</ele><time>2026-05-04T07:28:25Z</time></trkpt><trkpt lat="41.92976193070793" lon="19.997102425411967"><ele>316.5</ele><time>2026-05-04T07:28:26Z</time></trkpt><trkpt lat="41.929727201975815" lon="19.996955176315605"><ele>317.75</ele><time>2026-05-04T07:28:27Z</time></trkpt><trkpt lat="41.92965136008498" lon="19.996849643233794"><ele>319.0</ele><time>2026-05-04T07:28:28Z</time></trkpt><trkpt lat="41.929528738888706" lon="19.99679357251249"><ele>319.0</ele><time>2026-05-04T07:28:29Z</time></trkpt><trkpt lat="41.92936109625138" lon="19.996763019222975"><ele>319.0</ele><time>2026-05-04T07:28:30Z</time></trkpt><trkpt lat="41.92916327018638" lon="19.996722785478028"><ele>319.0</ele><time>2026-05-04T07:28:31Z</time></trkpt><trkpt lat="41.928948178472695" lon="19.99663489127936"><ele>321.3333333333333</ele><time>2026-05-04T07:28:32Z</time></trkpt><trkpt lat="41.92874794180764" lon="19.996499763688313"><ele>323.6666666666667</ele><time>2026-05-04T07:28:33Z</time></trkpt><trkpt lat="41.92859015822738" lon="19.996366733265937"><ele>326.0</ele><time>2026-05-04T07:28:34Z</time></trkpt><trkpt lat="41.92846092274455" lon="19.996258126103253"><ele>326.0</ele><time>2026-05-04T07:28:35Z</time></trkpt><trkpt lat="41.92837248875031" lon="19.996176780689044"><ele>326.0</ele><time>2026-05-04T07:28:36Z</time></trkpt><trkpt lat="41.92833003980544" lon="19.99610229609381"><ele>326.0</ele><time>2026-05-04T07:28:37Z</time></trkpt><trkpt lat="41.92838150430805" lon="19.995976109674196"><ele>326.0</ele><time>2026-05-04T07:28:38.999Z</time></trkpt><trkpt lat="41.92845715610688" lon="19.995962836129667"><ele>326.0</ele><time>2026-05-04T07:28:39.999Z</time></trkpt><trkpt lat="41.92854698159812" lon="19.9960104972055"><ele>326.0</ele><time>2026-05-04T07:28:40.999Z</time></trkpt><trkpt lat="41.92865466217017" lon="19.996116501162213"><ele>326.0</ele><time>2026-05-04T07:28:41.999Z</time></trkpt><trkpt lat="41.928783452055335" lon="19.99623514559484"><ele>326.0</ele><time>2026-05-04T07:28:43.001Z</time></trkpt><trkpt lat="41.92895400624245" lon="19.996320726928392"><ele>326.0</ele><time>2026-05-04T07:28:44.001Z</time></trkpt><trkpt lat="41.92914598286978" lon="19.996370747613014"><ele>326.0</ele><time>2026-05-04T07:28:45.001Z</time></trkpt><trkpt lat="41.92935839591988" lon="19.996388876513958"><ele>326.0</ele><time>2026-05-04T07:28:46.001Z</time></trkpt><trkpt lat="41.929585902451" lon="19.99637581722469"><ele>321.0</ele><time>2026-05-04T07:28:47.001Z</time></trkpt><trkpt lat="41.92981941509028" lon="19.99632970787494"><ele>316.0</ele><time>2026-05-04T07:28:48.001Z</time></trkpt><trkpt lat="41.93001067161924" lon="19.99628608071565"><ele>311.0</ele><time>2026-05-04T07:28:49.001Z</time></trkpt><trkpt lat="41.93015086200266" lon="19.99627408029856"><ele>306.0</ele><time>2026-05-04T07:28:50Z</time></trkpt><trkpt lat="41.93022837203887" lon="19.99629925919795"><ele>301.0</ele><time>2026-05-04T07:28:51Z</time></trkpt><trkpt lat="41.93028868754369" lon="19.996360462489204"><ele>296.0</ele><time>2026-05-04T07:28:52Z</time></trkpt><trkpt lat="41.93033252706967" lon="19.996465267167725"><ele>291.0</ele><time>2026-05-04T07:28:53Z</time></trkpt><trkpt lat="41.93034754052535" lon="19.99661195092876"><ele>286.0</ele><time>2026-05-04T07:28:54Z</time></trkpt><trkpt lat="41.93033230279801" lon="19.996807948546564"><ele>285.0</ele><time>2026-05-04T07:28:55Z</time></trkpt><trkpt lat="41.93030274389925" lon="19.99703417637654"><ele>284.0</ele><time>2026-05-04T07:28:56Z</time></trkpt><trkpt lat="41.93028018163018" lon="19.997291796280397"><ele>283.0</ele><time>2026-05-04T07:28:57Z</time></trkpt><trkpt lat="41.93027864153711" lon="19.997578242195452"><ele>281.0</ele><time>2026-05-04T07:28:58Z</time></trkpt><trkpt lat="41.93028818527223" lon="19.997859311500594"><ele>279.0</ele><time>2026-05-04T07:28:59Z</time></trkpt><trkpt lat="41.930298145475135" lon="19.998082880697932"><ele>277.0</ele><time>2026-05-04T07:29:00Z</time></trkpt><trkpt lat="41.93030553676485" lon="19.99827605484787"><ele>276.0</ele><time>2026-05-04T07:29:01Z</time></trkpt><trkpt lat="41.93032814983334" lon="19.99846999842823"><ele>275.0</ele><time>2026-05-04T07:29:02Z</time></trkpt><trkpt lat="41.93036827574076" lon="19.99865851971364"><ele>274.0</ele><time>2026-05-04T07:29:03Z</time></trkpt><trkpt lat="41.930380391464944" lon="19.998851735551632"><ele>273.0</ele><time>2026-05-04T07:29:04Z</time></trkpt><trkpt lat="41.93034674696434" lon="19.999057652878953"><ele>272.3333333333333</ele><time>2026-05-04T07:29:05Z</time></trkpt><trkpt lat="41.930272342731364" lon="19.999300829877892"><ele>271.66666666666663</ele><time>2026-05-04T07:29:05.999Z</time></trkpt><trkpt lat="41.93020179328972" lon="19.999592325815396"><ele>271.0</ele><time>2026-05-04T07:29:06.999Z</time></trkpt><trkpt lat="41.93014192594747" lon="19.99992518096818"><ele>271.0</ele><time>2026-05-04T07:29:07.999Z</time></trkpt><trkpt lat="41.93008227406294" lon="20.000281896210033"><ele>271.0</ele><time>2026-05-04T07:29:08.999Z</time></trkpt><trkpt lat="41.9300161614233" lon="20.000652536433982"><ele>278.5</ele><time>2026-05-04T07:29:09.999Z</time></trkpt><trkpt lat="41.92994663337682" lon="20.001026603815966"><ele>286.0</ele><time>2026-05-04T07:29:10.999Z</time></trkpt><trkpt lat="41.929885216579734" lon="20.001341538629745"><ele>286.0</ele><time>2026-05-04T07:29:11.999Z</time></trkpt><trkpt lat="41.92983083182342" lon="20.001611326349124"><ele>286.0</ele><time>2026-05-04T07:29:12.999Z</time></trkpt><trkpt lat="41.92978265932771" lon="20.0018376232456"><ele>286.0</ele><time>2026-05-04T07:29:13.999Z</time></trkpt><trkpt lat="41.92974320357071" lon="20.00204007179752"><ele>284.0</ele><time>2026-05-04T07:29:14.999Z</time></trkpt><trkpt lat="41.929730555686625" lon="20.0022040262146"><ele>282.0</ele><time>2026-05-04T07:29:15.999Z</time></trkpt><trkpt lat="41.92975472925791" lon="20.002355612604767"><ele>280.0</ele><time>2026-05-04T07:29:16.999Z</time></trkpt><trkpt lat="41.92981136150086" lon="20.002515466963636"><ele>278.0</ele><time>2026-05-04T07:29:17.999Z</time></trkpt><trkpt lat="41.92986724500566" lon="20.00269497110028"><ele>277.5</ele><time>2026-05-04T07:29:18.999Z</time></trkpt><trkpt lat="41.929924312776436" lon="20.002866421926093"><ele>277.0</ele><time>2026-05-04T07:29:19.999Z</time></trkpt><trkpt lat="41.929989540313635" lon="20.002988507346977"><ele>276.5</ele><time>2026-05-04T07:29:20.999Z</time></trkpt><trkpt lat="41.9300809773375" lon="20.00306655565893"><ele>276.0</ele><time>2026-05-04T07:29:21.999Z</time></trkpt><trkpt lat="41.930195973378574" lon="20.00312081905672"><ele>278.6666666666667</ele><time>2026-05-04T07:29:22.999Z</time></trkpt><trkpt lat="41.93033013512387" lon="20.00319225273382"><ele>281.33333333333337</ele><time>2026-05-04T07:29:23.999Z</time></trkpt><trkpt lat="41.930467362130734" lon="20.00329285754573"><ele>284.0</ele><time>2026-05-04T07:29:24.999Z</time></trkpt><trkpt lat="41.93059863821866" lon="20.00344335026869"><ele>284.33333333333337</ele><time>2026-05-04T07:29:25.999Z</time></trkpt><trkpt lat="41.930741280745366" lon="20.003622814333283"><ele>284.6666666666667</ele><time>2026-05-04T07:29:26.999Z</time></trkpt><trkpt lat="41.93091032469649" lon="20.003808018957677"><ele>285.0</ele><time>2026-05-04T07:29:27.999Z</time></trkpt><trkpt lat="41.93110776258534" lon="20.00394878531372"><ele>286.0</ele><time>2026-05-04T07:29:28.999Z</time></trkpt><trkpt lat="41.931332755105146" lon="20.00405714559033"><ele>287.0</ele><time>2026-05-04T07:29:29.999Z</time></trkpt><trkpt lat="41.931582184126974" lon="20.00413040613618"><ele>290.0</ele><time>2026-05-04T07:29:30.999Z</time></trkpt><trkpt lat="41.93184196882511" lon="20.00420237720348"><ele>293.0</ele><time>2026-05-04T07:29:31.999Z</time></trkpt><trkpt lat="41.932091255588674" lon="20.004280402315736"><ele>293.0</ele><time>2026-05-04T07:29:32.999Z</time></trkpt><trkpt lat="41.93231792309311" lon="20.00436531424164"><ele>293.0</ele><time>2026-05-04T07:29:33.999Z</time></trkpt><trkpt lat="41.93251237052314" lon="20.00444969848951"><ele>293.0</ele><time>2026-05-04T07:29:34.999Z</time></trkpt><trkpt lat="41.93266578643478" lon="20.004519933124733"><ele>293.0</ele><time>2026-05-04T07:29:35.999Z</time></trkpt><trkpt lat="41.932799251159544" lon="20.004552935210135"><ele>293.0</ele><time>2026-05-04T07:29:36.999Z</time></trkpt><trkpt lat="41.93290174922757" lon="20.004573513006484"><ele>293.0</ele><time>2026-05-04T07:29:37.999Z</time></trkpt><trkpt lat="41.93295140759515" lon="20.004705430441042"><ele>293.0</ele><time>2026-05-04T07:29:39.999Z</time></trkpt><trkpt lat="41.93289186393643" lon="20.00478089255028"><ele>293.0</ele><time>2026-05-04T07:29:40.999Z</time></trkpt><trkpt lat="41.93280584685762" lon="20.00481626204699"><ele>293.0</ele><time>2026-05-04T07:29:41.999Z</time></trkpt><trkpt lat="41.93265483733222" lon="20.004807178145853"><ele>293.0</ele><time>2026-05-04T07:29:42.999Z</time></trkpt><trkpt lat="41.93252097771052" lon="20.00482712916084"><ele>293.0</ele><time>2026-05-04T07:29:43.999Z</time></trkpt><trkpt lat="41.93236512176533" lon="20.004835861544862"><ele>293.0</ele><time>2026-05-04T07:29:44.999Z</time></trkpt><trkpt lat="41.932198515542275" lon="20.004829981868436"><ele>293.0</ele><time>2026-05-04T07:29:45.999Z</time></trkpt><trkpt lat="41.932044432035816" lon="20.004815271504437"><ele>293.0</ele><time>2026-05-04T07:29:46.999Z</time></trkpt><trkpt lat="41.931922172055984" lon="20.0048422749627"><ele>293.0</ele><time>2026-05-04T07:29:47.999Z</time></trkpt><trkpt lat="41.93182865085954" lon="20.004939648265356"><ele>293.0</ele><time>2026-05-04T07:29:48.999Z</time></trkpt><trkpt lat="41.93176738118448" lon="20.005076508172223"><ele>298.33333333333337</ele><time>2026-05-04T07:29:49.999Z</time></trkpt><trkpt lat="41.931745616986625" lon="20.0052604751555"><ele>303.6666666666667</ele><time>2026-05-04T07:29:50.999Z</time></trkpt><trkpt lat="41.93176757305812" lon="20.005509704430953"><ele>309.0</ele><time>2026-05-04T07:29:51.999Z</time></trkpt><trkpt lat="41.93177320107772" lon="20.005746149336655"><ele>312.3333333333333</ele><time>2026-05-04T07:29:52.999Z</time></trkpt><trkpt lat="41.9317811305158" lon="20.00599635607327"><ele>315.66666666666663</ele><time>2026-05-04T07:29:53.999Z</time></trkpt><trkpt lat="41.93179198271373" lon="20.00625035240674"><ele>319.0</ele><time>2026-05-04T07:29:54.999Z</time></trkpt><trkpt lat="41.93180580883044" lon="20.00650160590015"><ele>320.3333333333333</ele><time>2026-05-04T07:29:55.999Z</time></trkpt><trkpt lat="41.931835431258776" lon="20.00676813979458"><ele>321.6666666666667</ele><time>2026-05-04T07:29:56.999Z</time></trkpt><trkpt lat="41.931880528473215" lon="20.007050072025773"><ele>323.0</ele><time>2026-05-04T07:29:57.999Z</time></trkpt><trkpt lat="41.93193746639959" lon="20.007343668931917"><ele>323.5</ele><time>2026-05-04T07:29:58.999Z</time></trkpt><trkpt lat="41.93199986627192" lon="20.00765161056529"><ele>324.0</ele><time>2026-05-04T07:29:59.999Z</time></trkpt><trkpt lat="41.9320657082249" lon="20.007961969781732"><ele>324.0</ele><time>2026-05-04T07:30:00.999Z</time></trkpt><trkpt lat="41.93212644658848" lon="20.008275688059005"><ele>324.0</ele><time>2026-05-04T07:30:01.999Z</time></trkpt><trkpt lat="41.93217776173169" lon="20.00858692169406"><ele>326.0</ele><time>2026-05-04T07:30:02.999Z</time></trkpt><trkpt lat="41.93222556855208" lon="20.008893665016235"><ele>328.0</ele><time>2026-05-04T07:30:03.999Z</time></trkpt><trkpt lat="41.93227558492155" lon="20.009199045630417"><ele>329.0</ele><time>2026-05-04T07:30:04.999Z</time></trkpt><trkpt lat="41.93232561921205" lon="20.00947000119233"><ele>330.0</ele><time>2026-05-04T07:30:05.999Z</time></trkpt><trkpt lat="41.932384430044195" lon="20.00971522350656"><ele>331.0</ele><time>2026-05-04T07:30:06.999Z</time></trkpt><trkpt lat="41.93244554624209" lon="20.009905536077113"><ele>331.20000000000005</ele><time>2026-05-04T07:30:07.999Z</time></trkpt><trkpt lat="41.93250163643627" lon="20.010050008426735"><ele>331.40000000000003</ele><time>2026-05-04T07:30:08.999Z</time></trkpt><trkpt lat="41.932553249020614" lon="20.010166492236788"><ele>331.6</ele><time>2026-05-04T07:30:09.999Z</time></trkpt><trkpt lat="41.932595895371115" lon="20.01028383717352"><ele>331.8</ele><time>2026-05-04T07:30:10.999Z</time></trkpt><trkpt lat="41.93263151441797" lon="20.01039442512779"><ele>332.0</ele><time>2026-05-04T07:30:11.999Z</time></trkpt><trkpt lat="41.93266837327329" lon="20.01049217446824"><ele>332.5</ele><time>2026-05-04T07:30:12.999Z</time></trkpt><trkpt lat="41.93270577645798" lon="20.010577766420635"><ele>333.0</ele><time>2026-05-04T07:30:13.999Z</time></trkpt><trkpt lat="41.93273844382925" lon="20.01066208007874"><ele>333.5</ele><time>2026-05-04T07:30:14.999Z</time></trkpt><trkpt lat="41.9327698845156" lon="20.010747108173426"><ele>334.0</ele><time>2026-05-04T07:30:15.999Z</time></trkpt><trkpt lat="41.93281211943137" lon="20.010842324163626"><ele>334.5</ele><time>2026-05-04T07:30:16.999Z</time></trkpt><trkpt lat="41.932875454922055" lon="20.01092889287465"><ele>335.0</ele><time>2026-05-04T07:30:17.999Z</time></trkpt><trkpt lat="41.932952682238316" lon="20.010979748364083"><ele>335.0</ele><time>2026-05-04T07:30:18.999Z</time></trkpt><trkpt lat="41.933044851318506" lon="20.011005668244362"><ele>335.0</ele><time>2026-05-04T07:30:19.999Z</time></trkpt><trkpt lat="41.93314903196799" lon="20.0110069460256"><ele>335.0</ele><time>2026-05-04T07:30:20.999Z</time></trkpt><trkpt lat="41.93325686155418" lon="20.01100727654743"><ele>335.0</ele><time>2026-05-04T07:30:21.999Z</time></trkpt><trkpt lat="41.93338107064196" lon="20.011007769558915"><ele>335.0</ele><time>2026-05-04T07:30:22.999Z</time></trkpt><trkpt lat="41.93352316879927" lon="20.011019342080072"><ele>337.33333333333337</ele><time>2026-05-04T07:30:23.999Z</time></trkpt><trkpt lat="41.93366630873014" lon="20.011046153663433"><ele>339.6666666666667</ele><time>2026-05-04T07:30:24.999Z</time></trkpt><trkpt lat="41.93382306215021" lon="20.011084599177586"><ele>342.0</ele><time>2026-05-04T07:30:25.999Z</time></trkpt><trkpt lat="41.9339886463328" lon="20.01112994723833"><ele>342.0</ele><time>2026-05-04T07:30:26.999Z</time></trkpt><trkpt lat="41.93415435219447" lon="20.01117489326605"><ele>342.0</ele><time>2026-05-04T07:30:27.999Z</time></trkpt><trkpt lat="41.93432502485461" lon="20.01121834906734"><ele>342.0</ele><time>2026-05-04T07:30:28.999Z</time></trkpt><trkpt lat="41.93449875812617" lon="20.011269439101945"><ele>344.3333333333333</ele><time>2026-05-04T07:30:29.999Z</time></trkpt><trkpt lat="41.93467420914222" lon="20.011322072981155"><ele>346.66666666666663</ele><time>2026-05-04T07:30:30.999Z</time></trkpt><trkpt lat="41.93484994191268" lon="20.011384434492054"><ele>349.0</ele><time>2026-05-04T07:30:31.999Z</time></trkpt><trkpt lat="41.93502707049632" lon="20.011461380491635"><ele>349.0</ele><time>2026-05-04T07:30:32.999Z</time></trkpt><trkpt lat="41.935206156197964" lon="20.01154494531532"><ele>349.0</ele><time>2026-05-04T07:30:33.999Z</time></trkpt><trkpt lat="41.935391612940926" lon="20.011632575956384"><ele>349.0</ele><time>2026-05-04T07:30:34.999Z</time></trkpt><trkpt lat="41.935579853093145" lon="20.011722517179408"><ele>349.0</ele><time>2026-05-04T07:30:35.999Z</time></trkpt><trkpt lat="41.93576294675611" lon="20.011808487202302"><ele>349.0</ele><time>2026-05-04T07:30:36.999Z</time></trkpt><trkpt lat="41.93592284274688" lon="20.011890675842746"><ele>349.0</ele><time>2026-05-04T07:30:37.999Z</time></trkpt><trkpt lat="41.93606757273742" lon="20.01197194039699"><ele>351.3333333333333</ele><time>2026-05-04T07:30:38.999Z</time></trkpt><trkpt lat="41.93620341497324" lon="20.012067089764415"><ele>353.6666666666667</ele><time>2026-05-04T07:30:39.999Z</time></trkpt><trkpt lat="41.9363364890723" lon="20.012194901345662"><ele>356.0</ele><time>2026-05-04T07:30:40.999Z</time></trkpt><trkpt lat="41.936457729971515" lon="20.012352988250143"><ele>355.0</ele><time>2026-05-04T07:30:41.999Z</time></trkpt><trkpt lat="41.93658263833571" lon="20.012523243994217"><ele>354.0</ele><time>2026-05-04T07:30:42.999Z</time></trkpt><trkpt lat="41.9367133509587" lon="20.01269992538881"><ele>353.0</ele><time>2026-05-04T07:30:43.999Z</time></trkpt><trkpt lat="41.93684660370975" lon="20.01286763302815"><ele>353.33333333333337</ele><time>2026-05-04T07:30:44.999Z</time></trkpt><trkpt lat="41.93699035183661" lon="20.013035126913312"><ele>353.6666666666667</ele><time>2026-05-04T07:30:45.999Z</time></trkpt><trkpt lat="41.937141197464186" lon="20.013199538636734"><ele>354.0</ele><time>2026-05-04T07:30:46.999Z</time></trkpt><trkpt lat="41.93729531384292" lon="20.013365197689176"><ele>354.0</ele><time>2026-05-04T07:30:47.999Z</time></trkpt><trkpt lat="41.93745799085699" lon="20.013536203231016"><ele>354.0</ele><time>2026-05-04T07:30:49Z</time></trkpt><trkpt lat="41.937626568691144" lon="20.01371397400881"><ele>354.0</ele><time>2026-05-04T07:30:50Z</time></trkpt><trkpt lat="41.937799208741055" lon="20.013906993440663"><ele>352.3333333333333</ele><time>2026-05-04T07:30:51Z</time></trkpt><trkpt lat="41.93796616287091" lon="20.014098998732138"><ele>350.66666666666663</ele><time>2026-05-04T07:30:52Z</time></trkpt><trkpt lat="41.938139533486215" lon="20.014263035245733"><ele>349.0</ele><time>2026-05-04T07:30:53Z</time></trkpt><trkpt lat="41.938333831695374" lon="20.014402364069046"><ele>361.5</ele><time>2026-05-04T07:30:54Z</time></trkpt><trkpt lat="41.93854129047877" lon="20.014532759072118"><ele>374.0</ele><time>2026-05-04T07:30:55Z</time></trkpt><trkpt lat="41.93875374069709" lon="20.014674766638624"><ele>374.0</ele><time>2026-05-04T07:30:56Z</time></trkpt><trkpt lat="41.9389595938168" lon="20.01483410226178"><ele>374.0</ele><time>2026-05-04T07:30:57Z</time></trkpt><trkpt lat="41.93915154594553" lon="20.015012338302796"><ele>368.33333333333337</ele><time>2026-05-04T07:30:58Z</time></trkpt><trkpt lat="41.939315435272285" lon="20.015196316905552"><ele>362.6666666666667</ele><time>2026-05-04T07:30:59Z</time></trkpt><trkpt lat="41.9394494761535" lon="20.01538060237619"><ele>357.0</ele><time>2026-05-04T07:31:00Z</time></trkpt><trkpt lat="41.93957563843633" lon="20.015542650031914"><ele>357.0</ele><time>2026-05-04T07:31:01Z</time></trkpt><trkpt lat="41.93973503412675" lon="20.015642805340033"><ele>357.0</ele><time>2026-05-04T07:31:02Z</time></trkpt><trkpt lat="41.93992902587197" lon="20.015720830850878"><ele>357.0</ele><time>2026-05-04T07:31:03Z</time></trkpt><trkpt lat="41.940131153691624" lon="20.01582889315973"><ele>354.5</ele><time>2026-05-04T07:31:04Z</time></trkpt><trkpt lat="41.94032803017885" lon="20.015984229385648"><ele>352.0</ele><time>2026-05-04T07:31:05Z</time></trkpt><trkpt lat="41.94051592128759" lon="20.016176167529796"><ele>352.0</ele><time>2026-05-04T07:31:06Z</time></trkpt><trkpt lat="41.94068517930109" lon="20.01640571670445"><ele>352.0</ele><time>2026-05-04T07:31:07Z</time></trkpt><trkpt lat="41.94083778854075" lon="20.016635527106573"><ele>346.66666666666663</ele><time>2026-05-04T07:31:08Z</time></trkpt><trkpt lat="41.9409692361414" lon="20.016815819974994"><ele>341.3333333333333</ele><time>2026-05-04T07:31:09Z</time></trkpt><trkpt lat="41.94111109643525" lon="20.016954078392757"><ele>336.0</ele><time>2026-05-04T07:31:10Z</time></trkpt><trkpt lat="41.94124948635401" lon="20.01705232351774"><ele>336.0</ele><time>2026-05-04T07:31:11Z</time></trkpt><trkpt lat="41.9413892920164" lon="20.017097930972152"><ele>336.0</ele><time>2026-05-04T07:31:12Z</time></trkpt><trkpt lat="41.9415432312668" lon="20.017087299391644"><ele>336.0</ele><time>2026-05-04T07:31:13Z</time></trkpt><trkpt lat="41.941723266256155" lon="20.017042960333477"><ele>331.0</ele><time>2026-05-04T07:31:14Z</time></trkpt><trkpt lat="41.9419252493227" lon="20.016993151981474"><ele>326.0</ele><time>2026-05-04T07:31:15Z</time></trkpt><trkpt lat="41.942136887381935" lon="20.01695707573117"><ele>321.0</ele><time>2026-05-04T07:31:16Z</time></trkpt><trkpt lat="41.942354629495725" lon="20.016922912203796"><ele>314.5</ele><time>2026-05-04T07:31:17Z</time></trkpt><trkpt lat="41.94257289596283" lon="20.01685267493198"><ele>308.0</ele><time>2026-05-04T07:31:18Z</time></trkpt><trkpt lat="41.942781796872566" lon="20.01673838729191"><ele>311.33333333333337</ele><time>2026-05-04T07:31:19Z</time></trkpt><trkpt lat="41.94295930550418" lon="20.01660215487784"><ele>314.6666666666667</ele><time>2026-05-04T07:31:20Z</time></trkpt><trkpt lat="41.94310994072118" lon="20.016456679641447"><ele>318.0</ele><time>2026-05-04T07:31:21Z</time></trkpt><trkpt lat="41.943250766294774" lon="20.016280072429346"><ele>318.0</ele><time>2026-05-04T07:31:22Z</time></trkpt><trkpt lat="41.94337809021242" lon="20.016056061505374"><ele>318.0</ele><time>2026-05-04T07:31:23Z</time></trkpt><trkpt lat="41.94350535509404" lon="20.01578476609624"><ele>318.0</ele><time>2026-05-04T07:31:24Z</time></trkpt><trkpt lat="41.943640123308896" lon="20.015504160814537"><ele>313.5</ele><time>2026-05-04T07:31:25Z</time></trkpt><trkpt lat="41.94378679703645" lon="20.015214908172457"><ele>309.0</ele><time>2026-05-04T07:31:26Z</time></trkpt><trkpt lat="41.94394038092505" lon="20.014916996265264"><ele>309.0</ele><time>2026-05-04T07:31:27Z</time></trkpt><trkpt lat="41.944102690728435" lon="20.01461185953569"><ele>309.0</ele><time>2026-05-04T07:31:28Z</time></trkpt><trkpt lat="41.94426283352436" lon="20.01431547331597"><ele>308.0</ele><time>2026-05-04T07:31:29Z</time></trkpt><trkpt lat="41.94442612620511" lon="20.014014263547747"><ele>307.0</ele><time>2026-05-04T07:31:30Z</time></trkpt><trkpt lat="41.944582316663116" lon="20.013715666124067"><ele>307.0</ele><time>2026-05-04T07:31:31Z</time></trkpt><trkpt lat="41.944740093800604" lon="20.013418035379026"><ele>307.0</ele><time>2026-05-04T07:31:32Z</time></trkpt><trkpt lat="41.94489798081789" lon="20.01312628441491"><ele>304.0</ele><time>2026-05-04T07:31:33Z</time></trkpt><trkpt lat="41.94505707189051" lon="20.012833043002487"><ele>301.0</ele><time>2026-05-04T07:31:34Z</time></trkpt><trkpt lat="41.94521763261558" lon="20.012545643249126"><ele>303.0</ele><time>2026-05-04T07:31:35Z</time></trkpt><trkpt lat="41.94537704510331" lon="20.012253724768893"><ele>305.0</ele><time>2026-05-04T07:31:36Z</time></trkpt><trkpt lat="41.94553795974892" lon="20.011961292619116"><ele>305.0</ele><time>2026-05-04T07:31:37Z</time></trkpt><trkpt lat="41.9456993537861" lon="20.011670844049668"><ele>305.0</ele><time>2026-05-04T07:31:38Z</time></trkpt><trkpt lat="41.945856276364054" lon="20.011383143318383"><ele>307.0</ele><time>2026-05-04T07:31:39Z</time></trkpt><trkpt lat="41.94601168869018" lon="20.01109115055977"><ele>309.0</ele><time>2026-05-04T07:31:40Z</time></trkpt><trkpt lat="41.94615455121232" lon="20.010810167031263"><ele>309.0</ele><time>2026-05-04T07:31:41Z</time></trkpt><trkpt lat="41.94627948850277" lon="20.010552783110192"><ele>309.0</ele><time>2026-05-04T07:31:42Z</time></trkpt><trkpt lat="41.94639331536069" lon="20.01030201388959"><ele>309.0</ele><time>2026-05-04T07:31:43Z</time></trkpt><trkpt lat="41.946520927290415" lon="20.010066347511938"><ele>310.6666666666667</ele><time>2026-05-04T07:31:44Z</time></trkpt><trkpt lat="41.94665568175224" lon="20.009863563818392"><ele>312.33333333333337</ele><time>2026-05-04T07:31:45Z</time></trkpt><trkpt lat="41.94678811171886" lon="20.00969701911928"><ele>314.0</ele><time>2026-05-04T07:31:46Z</time></trkpt><trkpt lat="41.94693083264751" lon="20.009553585804948"><ele>314.0</ele><time>2026-05-04T07:31:47Z</time></trkpt><trkpt lat="41.94710245937968" lon="20.009444358667466"><ele>314.0</ele><time>2026-05-04T07:31:47.999Z</time></trkpt><trkpt lat="41.94729794998446" lon="20.009350068833136"><ele>314.0</ele><time>2026-05-04T07:31:48.999Z</time></trkpt><trkpt lat="41.947495774093646" lon="20.009261017847866"><ele>312.6666666666667</ele><time>2026-05-04T07:31:49.999Z</time></trkpt><trkpt lat="41.94769954066077" lon="20.009167358416427"><ele>311.3333333333333</ele><time>2026-05-04T07:31:50.999Z</time></trkpt><trkpt lat="41.947910278578135" lon="20.0090877733148"><ele>310.0</ele><time>2026-05-04T07:31:51.999Z</time></trkpt><trkpt lat="41.94812507864115" lon="20.00903470728788"><ele>315.3333333333333</ele><time>2026-05-04T07:31:52.999Z</time></trkpt><trkpt lat="41.948342913731224" lon="20.009027941469032"><ele>320.6666666666667</ele><time>2026-05-04T07:31:53.999Z</time></trkpt><trkpt lat="41.94855049665269" lon="20.009061558438944"><ele>326.0</ele><time>2026-05-04T07:31:54.999Z</time></trkpt><trkpt lat="41.94874173715711" lon="20.009140570194706"><ele>321.0</ele><time>2026-05-04T07:31:55.999Z</time></trkpt><trkpt lat="41.94890810565783" lon="20.009237579811025"><ele>316.0</ele><time>2026-05-04T07:31:56.999Z</time></trkpt><trkpt lat="41.9490657617693" lon="20.00930552025168"><ele>311.0</ele><time>2026-05-04T07:31:57.999Z</time></trkpt><trkpt lat="41.94924984991413" lon="20.009306282580095"><ele>311.0</ele><time>2026-05-04T07:31:58.999Z</time></trkpt><trkpt lat="41.94945915204831" lon="20.00927934805412"><ele>311.0</ele><time>2026-05-04T07:31:59.999Z</time></trkpt><trkpt lat="41.94968529203875" lon="20.009262473790155"><ele>311.0</ele><time>2026-05-04T07:32:00.999Z</time></trkpt><trkpt lat="41.94992124395755" lon="20.009250854104504"><ele>313.0</ele><time>2026-05-04T07:32:01.999Z</time></trkpt><trkpt lat="41.95016355265997" lon="20.009238794105787"><ele>315.0</ele><time>2026-05-04T07:32:02.999Z</time></trkpt><trkpt lat="41.95040421040279" lon="20.00923229681993"><ele>315.0</ele><time>2026-05-04T07:32:03.999Z</time></trkpt><trkpt lat="41.950642981114015" lon="20.00922749921344"><ele>315.0</ele><time>2026-05-04T07:32:04.999Z</time></trkpt><trkpt lat="41.95087029525396" lon="20.009233262336124"><ele>317.5</ele><time>2026-05-04T07:32:05.999Z</time></trkpt><trkpt lat="41.9510925132233" lon="20.009266462540705"><ele>320.0</ele><time>2026-05-04T07:32:06.999Z</time></trkpt><trkpt lat="41.951313220232436" lon="20.009338033772"><ele>320.0</ele><time>2026-05-04T07:32:07.999Z</time></trkpt><trkpt lat="41.95153571171521" lon="20.009423238621753"><ele>320.0</ele><time>2026-05-04T07:32:08.999Z</time></trkpt><trkpt lat="41.951762773470556" lon="20.0095080612035"><ele>321.0</ele><time>2026-05-04T07:32:09.999Z</time></trkpt><trkpt lat="41.95199125234757" lon="20.009593957703974"><ele>322.0</ele><time>2026-05-04T07:32:10.999Z</time></trkpt><trkpt lat="41.95222753650683" lon="20.009687378366205"><ele>322.0</ele><time>2026-05-04T07:32:11.999Z</time></trkpt><trkpt lat="41.95246734781183" lon="20.00978805802723"><ele>322.0</ele><time>2026-05-04T07:32:12.999Z</time></trkpt><trkpt lat="41.952710648760124" lon="20.009893747704208"><ele>320.0</ele><time>2026-05-04T07:32:13.999Z</time></trkpt><trkpt lat="41.95295118021436" lon="20.010000248680523"><ele>318.0</ele><time>2026-05-04T07:32:14.999Z</time></trkpt><trkpt lat="41.953194472842036" lon="20.010106501906982"><ele>319.5</ele><time>2026-05-04T07:32:15.999Z</time></trkpt><trkpt lat="41.95343795703854" lon="20.010207095976288"><ele>321.0</ele><time>2026-05-04T07:32:16.999Z</time></trkpt><trkpt lat="41.95368132115376" lon="20.01030283458195"><ele>321.0</ele><time>2026-05-04T07:32:17.999Z</time></trkpt><trkpt lat="41.95392605484322" lon="20.010404675638906"><ele>321.0</ele><time>2026-05-04T07:32:18.999Z</time></trkpt><trkpt lat="41.95415069516601" lon="20.01050513695278"><ele>320.3333333333333</ele><time>2026-05-04T07:32:19.999Z</time></trkpt><trkpt lat="41.9543590602438" lon="20.010595098737006"><ele>319.66666666666663</ele><time>2026-05-04T07:32:20.999Z</time></trkpt><trkpt lat="41.9545529382347" lon="20.010667932501814"><ele>319.0</ele><time>2026-05-04T07:32:21.999Z</time></trkpt><trkpt lat="41.954713883469246" lon="20.01068989463501"><ele>319.0</ele><time>2026-05-04T07:32:22.999Z</time></trkpt><trkpt lat="41.954878103641704" lon="20.010667145200905"><ele>319.0</ele><time>2026-05-04T07:32:23.999Z</time></trkpt><trkpt lat="41.9550362380765" lon="20.010595434841793"><ele>319.0</ele><time>2026-05-04T07:32:24.999Z</time></trkpt><trkpt lat="41.955198337130966" lon="20.010487590862375"><ele>317.66666666666663</ele><time>2026-05-04T07:32:25.999Z</time></trkpt><trkpt lat="41.95537850321739" lon="20.01038766659361"><ele>316.3333333333333</ele><time>2026-05-04T07:32:26.999Z</time></trkpt><trkpt lat="41.95557538897376" lon="20.010289939444835"><ele>315.0</ele><time>2026-05-04T07:32:27.999Z</time></trkpt><trkpt lat="41.95577648536289" lon="20.010189613336347"><ele>313.6666666666667</ele><time>2026-05-04T07:32:28.999Z</time></trkpt><trkpt lat="41.95598209611854" lon="20.010074983501255"><ele>312.33333333333337</ele><time>2026-05-04T07:32:29.999Z</time></trkpt><trkpt lat="41.956180238253516" lon="20.00993720321587"><ele>311.0</ele><time>2026-05-04T07:32:30.999Z</time></trkpt><trkpt lat="41.95636905105997" lon="20.009779191669775"><ele>314.33333333333337</ele><time>2026-05-04T07:32:31.999Z</time></trkpt><trkpt lat="41.95654743662997" lon="20.009630147577678"><ele>317.6666666666667</ele><time>2026-05-04T07:32:32.999Z</time></trkpt><trkpt lat="41.956720227561114" lon="20.009517003088593"><ele>321.0</ele><time>2026-05-04T07:32:33.999Z</time></trkpt><trkpt lat="41.956896400336376" lon="20.00944260551758"><ele>321.0</ele><time>2026-05-04T07:32:34.999Z</time></trkpt><trkpt lat="41.95708913268483" lon="20.009389478067355"><ele>321.0</ele><time>2026-05-04T07:32:35.999Z</time></trkpt><trkpt lat="41.95728685868343" lon="20.00934331784593"><ele>321.0</ele><time>2026-05-04T07:32:36.999Z</time></trkpt><trkpt lat="41.95749117410053" lon="20.009290128214392"><ele>321.0</ele><time>2026-05-04T07:32:37.999Z</time></trkpt><trkpt lat="41.95769529443473" lon="20.00924015372235"><ele>321.0</ele><time>2026-05-04T07:32:38.999Z</time></trkpt><trkpt lat="41.9578984633113" lon="20.009209117067808"><ele>321.0</ele><time>2026-05-04T07:32:39.999Z</time></trkpt><trkpt lat="41.958099152790616" lon="20.0092083932726"><ele>321.0</ele><time>2026-05-04T07:32:40.999Z</time></trkpt><trkpt lat="41.958303266562986" lon="20.009217093876924"><ele>321.0</ele><time>2026-05-04T07:32:41.999Z</time></trkpt><trkpt lat="41.95851623700905" lon="20.00922986640253"><ele>321.0</ele><time>2026-05-04T07:32:42.999Z</time></trkpt><trkpt lat="41.95873532625108" lon="20.009240547155397"><ele>322.0</ele><time>2026-05-04T07:32:43.999Z</time></trkpt><trkpt lat="41.95895539347634" lon="20.009247799794096"><ele>323.0</ele><time>2026-05-04T07:32:44.999Z</time></trkpt><trkpt lat="41.959181391159944" lon="20.00924956204104"><ele>324.0</ele><time>2026-05-04T07:32:45.999Z</time></trkpt><trkpt lat="41.95941217165589" lon="20.00925541466291"><ele>324.0</ele><time>2026-05-04T07:32:46.999Z</time></trkpt><trkpt lat="41.95963951461018" lon="20.009265395117648"><ele>324.0</ele><time>2026-05-04T07:32:47.999Z</time></trkpt><trkpt lat="41.95987221132165" lon="20.009280286429444"><ele>320.6666666666667</ele><time>2026-05-04T07:32:48.999Z</time></trkpt><trkpt lat="41.96010544057206" lon="20.009290895006046"><ele>317.33333333333337</ele><time>2026-05-04T07:32:49.999Z</time></trkpt><trkpt lat="41.96031570540579" lon="20.00929215892645"><ele>314.0</ele><time>2026-05-04T07:32:50.999Z</time></trkpt><trkpt lat="41.96049982380331" lon="20.00926691211781"><ele>314.0</ele><time>2026-05-04T07:32:51.999Z</time></trkpt><trkpt lat="41.96066887049138" lon="20.00920811474514"><ele>314.0</ele><time>2026-05-04T07:32:52.999Z</time></trkpt><trkpt lat="41.96081519937651" lon="20.00909463188895"><ele>314.0</ele><time>2026-05-04T07:32:53.999Z</time></trkpt><trkpt lat="41.960947672148606" lon="20.008923573399983"><ele>314.6666666666667</ele><time>2026-05-04T07:32:55Z</time></trkpt><trkpt lat="41.96107794818385" lon="20.008741603329035"><ele>315.3333333333333</ele><time>2026-05-04T07:32:56Z</time></trkpt><trkpt lat="41.96122029183536" lon="20.008575634849425"><ele>316.0</ele><time>2026-05-04T07:32:57Z</time></trkpt><trkpt lat="41.96137763286047" lon="20.008440402593294"><ele>316.0</ele><time>2026-05-04T07:32:58Z</time></trkpt><trkpt lat="41.96154827071422" lon="20.008348337905886"><ele>316.0</ele><time>2026-05-04T07:32:59Z</time></trkpt><trkpt lat="41.96173329027354" lon="20.008283005769652"><ele>316.0</ele><time>2026-05-04T07:33:00Z</time></trkpt><trkpt lat="41.96193320026454" lon="20.008253090125272"><ele>321.0</ele><time>2026-05-04T07:33:01Z</time></trkpt><trkpt lat="41.9621438035611" lon="20.008244254526605"><ele>326.0</ele><time>2026-05-04T07:33:02Z</time></trkpt><trkpt lat="41.96234985998525" lon="20.008237902147144"><ele>331.0</ele><time>2026-05-04T07:33:03Z</time></trkpt><trkpt lat="41.96256011909814" lon="20.008235747835734"><ele>332.0</ele><time>2026-05-04T07:33:04Z</time></trkpt><trkpt lat="41.96276374322597" lon="20.008256253089364"><ele>333.0</ele><time>2026-05-04T07:33:05Z</time></trkpt><trkpt lat="41.96294945899723" lon="20.008280073009473"><ele>334.0</ele><time>2026-05-04T07:33:06Z</time></trkpt><trkpt lat="41.96312141690955" lon="20.008276319004644"><ele>334.0</ele><time>2026-05-04T07:33:07Z</time></trkpt><trkpt lat="41.963268936430126" lon="20.008245089562198"><ele>334.0</ele><time>2026-05-04T07:33:08Z</time></trkpt><trkpt lat="41.963405834011816" lon="20.008170341517808"><ele>334.0</ele><time>2026-05-04T07:33:09Z</time></trkpt><trkpt lat="41.96351441684372" lon="20.0080373067391"><ele>334.0</ele><time>2026-05-04T07:33:10Z</time></trkpt><trkpt lat="41.96362226625126" lon="20.0078726864403"><ele>333.2</ele><time>2026-05-04T07:33:11Z</time></trkpt><trkpt lat="41.96371640561919" lon="20.00773861116697"><ele>332.4</ele><time>2026-05-04T07:33:12Z</time></trkpt><trkpt lat="41.963795835009314" lon="20.007634165417638"><ele>331.6</ele><time>2026-05-04T07:33:13Z</time></trkpt><trkpt lat="41.963866487257214" lon="20.00754962093251"><ele>330.8</ele><time>2026-05-04T07:33:14Z</time></trkpt><trkpt lat="41.963932500853026" lon="20.00745293084416"><ele>330.0</ele><time>2026-05-04T07:33:15Z</time></trkpt><trkpt lat="41.96400782021255" lon="20.007350898786704"><ele>330.5</ele><time>2026-05-04T07:33:16Z</time></trkpt><trkpt lat="41.964088552406" lon="20.007244886577755"><ele>331.0</ele><time>2026-05-04T07:33:17Z</time></trkpt><trkpt lat="41.96417286879899" lon="20.007142119643607"><ele>331.5</ele><time>2026-05-04T07:33:18Z</time></trkpt><trkpt lat="41.96425961150207" lon="20.00704219716934"><ele>332.0</ele><time>2026-05-04T07:33:19Z</time></trkpt><trkpt lat="41.96433523295655" lon="20.0069348335422"><ele>332.0</ele><time>2026-05-04T07:33:20Z</time></trkpt><trkpt lat="41.96443681845248" lon="20.006819100246886"><ele>332.0</ele><time>2026-05-04T07:33:21Z</time></trkpt><trkpt lat="41.96452318790915" lon="20.006711984402653"><ele>332.0</ele><time>2026-05-04T07:33:22Z</time></trkpt><trkpt lat="41.96462237464459" lon="20.0066239531677"><ele>332.0</ele><time>2026-05-04T07:33:23Z</time></trkpt><trkpt lat="41.96473430145582" lon="20.00656067661907"><ele>345.25</ele><time>2026-05-04T07:33:24Z</time></trkpt><trkpt lat="41.96485333130668" lon="20.006515556998956"><ele>358.5</ele><time>2026-05-04T07:33:25Z</time></trkpt><trkpt lat="41.96498157210353" lon="20.006491937575102"><ele>371.75</ele><time>2026-05-04T07:33:26Z</time></trkpt><trkpt lat="41.965115247721116" lon="20.006493734235814"><ele>385.0</ele><time>2026-05-04T07:33:27Z</time></trkpt><trkpt lat="41.965254312950336" lon="20.0065252146167"><ele>385.0</ele><time>2026-05-04T07:33:28Z</time></trkpt><trkpt lat="41.965390126285534" lon="20.00659079853247"><ele>385.0</ele><time>2026-05-04T07:33:29Z</time></trkpt><trkpt lat="41.965514394477935" lon="20.006697197103282"><ele>385.0</ele><time>2026-05-04T07:33:30Z</time></trkpt><trkpt lat="41.965627457102855" lon="20.006822923745876"><ele>385.0</ele><time>2026-05-04T07:33:31Z</time></trkpt><trkpt lat="41.9657428545048" lon="20.006934012315185"><ele>375.25</ele><time>2026-05-04T07:33:32Z</time></trkpt><trkpt lat="41.965870282340944" lon="20.007022775609457"><ele>365.5</ele><time>2026-05-04T07:33:33Z</time></trkpt><trkpt lat="41.96598984157894" lon="20.00710828224134"><ele>355.75</ele><time>2026-05-04T07:33:34Z</time></trkpt><trkpt lat="41.9661018295764" lon="20.007182158053453"><ele>346.0</ele><time>2026-05-04T07:33:35Z</time></trkpt><trkpt lat="41.9661797603061" lon="20.00723686584553"><ele>346.0</ele><time>2026-05-04T07:33:36Z</time></trkpt><trkpt lat="41.966244130533084" lon="20.00728064359443"><ele>346.0</ele><time>2026-05-04T07:33:37Z</time></trkpt><trkpt lat="41.96634920994567" lon="20.007358042021856"><ele>346.0</ele><time>2026-05-04T07:33:39Z</time></trkpt><trkpt lat="41.96644332281341" lon="20.007426902339446"><ele>346.0</ele><time>2026-05-04T07:33:41Z</time></trkpt><trkpt lat="41.96652281202916" lon="20.00750007760771"><ele>346.0</ele><time>2026-05-04T07:33:43Z</time></trkpt><trkpt lat="41.96659094879992" lon="20.007561590431152"><ele>344.4285714285714</ele><time>2026-05-04T07:33:45Z</time></trkpt><trkpt lat="41.96668187466436" lon="20.007635267961966"><ele>342.8571428571429</ele><time>2026-05-04T07:33:47Z</time></trkpt><trkpt lat="41.9667355374335" lon="20.00768138669112"><ele>341.2857142857143</ele><time>2026-05-04T07:33:48Z</time></trkpt><trkpt lat="41.966787628422225" lon="20.00773385425864"><ele>339.71428571428567</ele><time>2026-05-04T07:33:49Z</time></trkpt><trkpt lat="41.966840149178374" lon="20.00779224212764"><ele>338.1428571428571</ele><time>2026-05-04T07:33:50Z</time></trkpt><trkpt lat="41.96689803444491" lon="20.007848808961985"><ele>336.57142857142856</ele><time>2026-05-04T07:33:51Z</time></trkpt><trkpt lat="41.96695878469865" lon="20.007897918822025"><ele>335.0</ele><time>2026-05-04T07:33:52Z</time></trkpt><trkpt lat="41.96704810543526" lon="20.007989011958877"><ele>335.0</ele><time>2026-05-04T07:33:54Z</time></trkpt><trkpt lat="41.96714910505566" lon="20.008084067551536"><ele>335.0</ele><time>2026-05-04T07:34:16Z</time></trkpt><trkpt lat="41.96724545539326" lon="20.008173235963664"><ele>335.0</ele><time>2026-05-04T07:34:17Z</time></trkpt><trkpt lat="41.967367123675295" lon="20.008288016743197"><ele>335.0</ele><time>2026-05-04T07:34:18Z</time></trkpt><trkpt lat="41.967498720349525" lon="20.008416061906125"><ele>336.0</ele><time>2026-05-04T07:34:19Z</time></trkpt><trkpt lat="41.967626347309434" lon="20.008544828955834"><ele>337.0</ele><time>2026-05-04T07:34:20Z</time></trkpt><trkpt lat="41.967759410990624" lon="20.008678873470263"><ele>338.0</ele><time>2026-05-04T07:34:21Z</time></trkpt><trkpt lat="41.96790158139434" lon="20.008820346068546"><ele>338.0</ele><time>2026-05-04T07:34:22Z</time></trkpt><trkpt lat="41.96804254980128" lon="20.00895284491153"><ele>338.0</ele><time>2026-05-04T07:34:23Z</time></trkpt><trkpt lat="41.96817540444792" lon="20.009063618172625"><ele>338.0</ele><time>2026-05-04T07:34:24Z</time></trkpt><trkpt lat="41.96831524504923" lon="20.009149674869477"><ele>339.0</ele><time>2026-05-04T07:34:25Z</time></trkpt><trkpt lat="41.96846428550899" lon="20.009221051671474"><ele>340.0</ele><time>2026-05-04T07:34:25.999Z</time></trkpt><trkpt lat="41.96862500175978" lon="20.009299281784543"><ele>341.0</ele><time>2026-05-04T07:34:26.999Z</time></trkpt><trkpt lat="41.968798487049675" lon="20.00937119101964"><ele>341.0</ele><time>2026-05-04T07:34:27.999Z</time></trkpt><trkpt lat="41.96898069991468" lon="20.009442384575117"><ele>341.0</ele><time>2026-05-04T07:34:28.999Z</time></trkpt><trkpt lat="41.9691772537012" lon="20.009518073263298"><ele>341.0</ele><time>2026-05-04T07:34:29.999Z</time></trkpt><trkpt lat="41.96939795883609" lon="20.009605467855124"><ele>348.5</ele><time>2026-05-04T07:34:30.999Z</time></trkpt><trkpt lat="41.96962147554096" lon="20.009692807928356"><ele>356.0</ele><time>2026-05-04T07:34:31.999Z</time></trkpt><trkpt lat="41.9698372915522" lon="20.009788030952166"><ele>353.0</ele><time>2026-05-04T07:34:32.999Z</time></trkpt><trkpt lat="41.97003185220722" lon="20.009879787615947"><ele>350.0</ele><time>2026-05-04T07:34:33.999Z</time></trkpt><trkpt lat="41.97020763057237" lon="20.00996305651087"><ele>347.0</ele><time>2026-05-04T07:34:34.999Z</time></trkpt><trkpt lat="41.970387035017076" lon="20.01002209084174"><ele>347.0</ele><time>2026-05-04T07:34:35.999Z</time></trkpt><trkpt lat="41.97058005646926" lon="20.01004436342237"><ele>347.0</ele><time>2026-05-04T07:34:36.999Z</time></trkpt><trkpt lat="41.970783807624166" lon="20.010052672230984"><ele>347.0</ele><time>2026-05-04T07:34:37.999Z</time></trkpt><trkpt lat="41.97098836630673" lon="20.010085782675564"><ele>348.0</ele><time>2026-05-04T07:34:38.999Z</time></trkpt><trkpt lat="41.97118629036565" lon="20.010142512892067"><ele>349.0</ele><time>2026-05-04T07:34:39.999Z</time></trkpt><trkpt lat="41.971357125968765" lon="20.010198224563062"><ele>350.0</ele><time>2026-05-04T07:34:40.999Z</time></trkpt><trkpt lat="41.971506075658894" lon="20.010218178487595"><ele>350.0</ele><time>2026-05-04T07:34:41.999Z</time></trkpt><trkpt lat="41.97164955267273" lon="20.01018307034015"><ele>350.0</ele><time>2026-05-04T07:34:42.999Z</time></trkpt><trkpt lat="41.971798774561215" lon="20.01007590585"><ele>350.0</ele><time>2026-05-04T07:34:43.999Z</time></trkpt><trkpt lat="41.97194313882748" lon="20.009985331336622"><ele>351.0</ele><time>2026-05-04T07:34:44.999Z</time></trkpt><trkpt lat="41.97208643246689" lon="20.009968126236835"><ele>352.0</ele><time>2026-05-04T07:34:45.999Z</time></trkpt><trkpt lat="41.97225084159718" lon="20.00999423105642"><ele>353.0</ele><time>2026-05-04T07:34:46.999Z</time></trkpt><trkpt lat="41.97243514565235" lon="20.010042303815933"><ele>349.33333333333337</ele><time>2026-05-04T07:34:47.999Z</time></trkpt><trkpt lat="41.97263462374042" lon="20.010094252516158"><ele>345.6666666666667</ele><time>2026-05-04T07:34:48.999Z</time></trkpt><trkpt lat="41.97282440072792" lon="20.010123660505453"><ele>342.0</ele><time>2026-05-04T07:34:49.999Z</time></trkpt><trkpt lat="41.972976588801494" lon="20.010113014247224"><ele>342.0</ele><time>2026-05-04T07:34:50.999Z</time></trkpt><trkpt lat="41.97308802313159" lon="20.01005819747006"><ele>342.0</ele><time>2026-05-04T07:34:51.999Z</time></trkpt><trkpt lat="41.97320286869193" lon="20.009966361047027"><ele>342.0</ele><time>2026-05-04T07:34:52.999Z</time></trkpt><trkpt lat="41.973322621975605" lon="20.009818508612256"><ele>342.0</ele><time>2026-05-04T07:34:53.999Z</time></trkpt><trkpt lat="41.97344506976093" lon="20.009650351668924"><ele>339.3333333333333</ele><time>2026-05-04T07:34:54.999Z</time></trkpt><trkpt lat="41.97355914584031" lon="20.009450104710893"><ele>336.66666666666663</ele><time>2026-05-04T07:34:55.999Z</time></trkpt><trkpt lat="41.97367675313091" lon="20.009224119911497"><ele>334.0</ele><time>2026-05-04T07:34:56.999Z</time></trkpt><trkpt lat="41.97379775431001" lon="20.008999955585946"><ele>341.3333333333333</ele><time>2026-05-04T07:34:57.999Z</time></trkpt><trkpt lat="41.97392968362074" lon="20.008769481102384"><ele>348.6666666666667</ele><time>2026-05-04T07:34:58.999Z</time></trkpt><trkpt lat="41.97406449556235" lon="20.008532387831465"><ele>356.0</ele><time>2026-05-04T07:34:59.999Z</time></trkpt><trkpt lat="41.97420376326553" lon="20.008287268818492"><ele>356.0</ele><time>2026-05-04T07:35:01Z</time></trkpt><trkpt lat="41.9743396025512" lon="20.008054631691955"><ele>356.0</ele><time>2026-05-04T07:35:02Z</time></trkpt><trkpt lat="41.97446560775873" lon="20.00784786503706"><ele>356.0</ele><time>2026-05-04T07:35:03Z</time></trkpt><trkpt lat="41.97460516680826" lon="20.00766783641009"><ele>356.0</ele><time>2026-05-04T07:35:04Z</time></trkpt><trkpt lat="41.974769159796956" lon="20.007527975426612"><ele>356.0</ele><time>2026-05-04T07:35:05Z</time></trkpt><trkpt lat="41.97494910476208" lon="20.007410528683238"><ele>356.0</ele><time>2026-05-04T07:35:06Z</time></trkpt><trkpt lat="41.9751470224759" lon="20.007318865777684"><ele>356.0</ele><time>2026-05-04T07:35:07Z</time></trkpt><trkpt lat="41.975341520262496" lon="20.007221631558487"><ele>356.0</ele><time>2026-05-04T07:35:08Z</time></trkpt><trkpt lat="41.97551257980917" lon="20.007070290311606"><ele>356.0</ele><time>2026-05-04T07:35:09Z</time></trkpt><trkpt lat="41.975669300214534" lon="20.006871294917033"><ele>356.0</ele><time>2026-05-04T07:35:10Z</time></trkpt><trkpt lat="41.97583579006961" lon="20.00666641230925"><ele>356.0</ele><time>2026-05-04T07:35:11Z</time></trkpt><trkpt lat="41.976015136584635" lon="20.006461339065282"><ele>358.6666666666667</ele><time>2026-05-04T07:35:12Z</time></trkpt><trkpt lat="41.97619301656106" lon="20.006273131184237"><ele>361.3333333333333</ele><time>2026-05-04T07:35:13Z</time></trkpt><trkpt lat="41.976358035024454" lon="20.006112554611082"><ele>364.0</ele><time>2026-05-04T07:35:14Z</time></trkpt><trkpt lat="41.9765026374454" lon="20.005943018283016"><ele>366.66666666666663</ele><time>2026-05-04T07:35:15Z</time></trkpt><trkpt lat="41.97661783006765" lon="20.005749344138422"><ele>369.3333333333333</ele><time>2026-05-04T07:35:16Z</time></trkpt><trkpt lat="41.97668324585355" lon="20.005522891406617"><ele>372.0</ele><time>2026-05-04T07:35:17Z</time></trkpt><trkpt lat="41.97673059429248" lon="20.005327753365126"><ele>372.0</ele><time>2026-05-04T07:35:18Z</time></trkpt><trkpt lat="41.976789483384756" lon="20.005202557798235"><ele>372.0</ele><time>2026-05-04T07:35:19Z</time></trkpt><trkpt lat="41.97688020804816" lon="20.005154807125606"><ele>372.0</ele><time>2026-05-04T07:35:20Z</time></trkpt><trkpt lat="41.976993550339856" lon="20.005165772979048"><ele>372.0</ele><time>2026-05-04T07:35:21Z</time></trkpt><trkpt lat="41.977133144852885" lon="20.005201482055547"><ele>372.0</ele><time>2026-05-04T07:35:22Z</time></trkpt><trkpt lat="41.977303366641955" lon="20.005225612157513"><ele>372.0</ele><time>2026-05-04T07:35:23Z</time></trkpt><trkpt lat="41.97748501463767" lon="20.005215927553536"><ele>372.0</ele><time>2026-05-04T07:35:24Z</time></trkpt><trkpt lat="41.977677141213384" lon="20.005174358637824"><ele>375.0</ele><time>2026-05-04T07:35:25Z</time></trkpt><trkpt lat="41.977885698098056" lon="20.005126466233357"><ele>378.0</ele><time>2026-05-04T07:35:26Z</time></trkpt><trkpt lat="41.97809816783037" lon="20.0050804565049"><ele>381.0</ele><time>2026-05-04T07:35:27Z</time></trkpt><trkpt lat="41.978314136464945" lon="20.00504933317694"><ele>379.0</ele><time>2026-05-04T07:35:28Z</time></trkpt><trkpt lat="41.97852045163187" lon="20.005030252340607"><ele>377.0</ele><time>2026-05-04T07:35:29Z</time></trkpt><trkpt lat="41.97869869347293" lon="20.005019781854784"><ele>375.0</ele><time>2026-05-04T07:35:30Z</time></trkpt><trkpt lat="41.978840963780726" lon="20.00499508820544"><ele>375.0</ele><time>2026-05-04T07:35:31Z</time></trkpt><trkpt lat="41.97893827109607" lon="20.0049320883224"><ele>375.0</ele><time>2026-05-04T07:35:32Z</time></trkpt><trkpt lat="41.97898687372847" lon="20.00480934292704"><ele>375.0</ele><time>2026-05-04T07:35:33Z</time></trkpt><trkpt lat="41.979007692656204" lon="20.004650377137953"><ele>375.0</ele><time>2026-05-04T07:35:34Z</time></trkpt><trkpt lat="41.97899304195627" lon="20.0044414798216"><ele>375.0</ele><time>2026-05-04T07:35:35Z</time></trkpt><trkpt lat="41.97898819669417" lon="20.004218193830066"><ele>375.0</ele><time>2026-05-04T07:35:36Z</time></trkpt><trkpt lat="41.97900658139253" lon="20.00398902715686"><ele>375.0</ele><time>2026-05-04T07:35:37Z</time></trkpt><trkpt lat="41.979046435132425" lon="20.00374452610819"><ele>379.0</ele><time>2026-05-04T07:35:38Z</time></trkpt><trkpt lat="41.97908132616527" lon="20.00351993959895"><ele>383.0</ele><time>2026-05-04T07:35:39Z</time></trkpt><trkpt lat="41.9791117806978" lon="20.003354922514895"><ele>387.0</ele><time>2026-05-04T07:35:40Z</time></trkpt><trkpt lat="41.97916629445015" lon="20.00323104752452"><ele>391.0</ele><time>2026-05-04T07:35:41Z</time></trkpt><trkpt lat="41.979246794014244" lon="20.003172284770425"><ele>392.4</ele><time>2026-05-04T07:35:42Z</time></trkpt><trkpt lat="41.979320434302345" lon="20.00315607848937"><ele>393.8</ele><time>2026-05-04T07:35:43Z</time></trkpt><trkpt lat="41.97940599604612" lon="20.00313393559734"><ele>395.2</ele><time>2026-05-04T07:35:44Z</time></trkpt><trkpt lat="41.97950731871874" lon="20.00308676693938"><ele>396.59999999999997</ele><time>2026-05-04T07:35:45Z</time></trkpt><trkpt lat="41.97961085271779" lon="20.00300172489768"><ele>398.0</ele><time>2026-05-04T07:35:46Z</time></trkpt><trkpt lat="41.979710960359355" lon="20.002880382928517"><ele>398.0</ele><time>2026-05-04T07:35:47Z</time></trkpt><trkpt lat="41.97981462338761" lon="20.002726092485197"><ele>398.0</ele><time>2026-05-04T07:35:48Z</time></trkpt><trkpt lat="41.97992990496181" lon="20.002560007062016"><ele>398.0</ele><time>2026-05-04T07:35:49Z</time></trkpt><trkpt lat="41.98005587679158" lon="20.002386621765353"><ele>400.0</ele><time>2026-05-04T07:35:50Z</time></trkpt><trkpt lat="41.98019903460647" lon="20.002213579703678"><ele>402.0</ele><time>2026-05-04T07:35:51Z</time></trkpt><trkpt lat="41.980334161530145" lon="20.00203759815421"><ele>404.0</ele><time>2026-05-04T07:35:52Z</time></trkpt><trkpt lat="41.980475095779724" lon="20.001857767257192"><ele>404.0</ele><time>2026-05-04T07:35:53Z</time></trkpt><trkpt lat="41.980617297287864" lon="20.00167667714391"><ele>404.0</ele><time>2026-05-04T07:35:54Z</time></trkpt><trkpt lat="41.98076015526232" lon="20.001492149602193"><ele>404.0</ele><time>2026-05-04T07:35:55Z</time></trkpt><trkpt lat="41.98091139359935" lon="20.001322568910457"><ele>407.0</ele><time>2026-05-04T07:35:56Z</time></trkpt><trkpt lat="41.981078802138434" lon="20.00119072752558"><ele>410.0</ele><time>2026-05-04T07:35:57Z</time></trkpt><trkpt lat="41.98125791496435" lon="20.00108197110137"><ele>413.0</ele><time>2026-05-04T07:35:58Z</time></trkpt><trkpt lat="41.98143759441788" lon="20.000973562572735"><ele>413.0</ele><time>2026-05-04T07:35:59Z</time></trkpt><trkpt lat="41.9816190783717" lon="20.000859186972846"><ele>413.0</ele><time>2026-05-04T07:36:00Z</time></trkpt><trkpt lat="41.981803613501015" lon="20.00074253138258"><ele>413.0</ele><time>2026-05-04T07:36:01Z</time></trkpt><trkpt lat="41.98199273853621" lon="20.000619279163907"><ele>414.3333333333333</ele><time>2026-05-04T07:36:02Z</time></trkpt><trkpt lat="41.98217978872019" lon="20.00049339460167"><ele>415.66666666666663</ele><time>2026-05-04T07:36:03Z</time></trkpt><trkpt lat="41.98236617215921" lon="20.000372754798203"><ele>417.0</ele><time>2026-05-04T07:36:04Z</time></trkpt><trkpt lat="41.98255478526741" lon="20.000259771910024"><ele>417.0</ele><time>2026-05-04T07:36:05Z</time></trkpt><trkpt lat="41.982742277713754" lon="20.000149089828845"><ele>417.0</ele><time>2026-05-04T07:36:06Z</time></trkpt><trkpt lat="41.98291849562531" lon="20.000046305335154"><ele>417.0</ele><time>2026-05-04T07:36:07Z</time></trkpt><trkpt lat="41.98306811070399" lon="19.99995328495811"><ele>417.0</ele><time>2026-05-04T07:36:08Z</time></trkpt><trkpt lat="41.98320228269756" lon="19.999861478921865"><ele>417.0</ele><time>2026-05-04T07:36:09Z</time></trkpt><trkpt lat="41.98333555402439" lon="19.99975379975671"><ele>417.0</ele><time>2026-05-04T07:36:10Z</time></trkpt><trkpt lat="41.98346043270043" lon="19.999639704424183"><ele>413.75</ele><time>2026-05-04T07:36:11Z</time></trkpt><trkpt lat="41.98356192031375" lon="19.999512501545574"><ele>410.5</ele><time>2026-05-04T07:36:12Z</time></trkpt><trkpt lat="41.983653896008036" lon="19.99936145914369"><ele>407.25</ele><time>2026-05-04T07:36:13Z</time></trkpt><trkpt lat="41.98375102832185" lon="19.99919210895817"><ele>404.0</ele><time>2026-05-04T07:36:14Z</time></trkpt><trkpt lat="41.983841097528575" lon="19.999003145947366"><ele>404.0</ele><time>2026-05-04T07:36:15Z</time></trkpt><trkpt lat="41.98390814237965" lon="19.998783489984742"><ele>404.0</ele><time>2026-05-04T07:36:16Z</time></trkpt><trkpt lat="41.98395320759872" lon="19.99855231434527"><ele>404.0</ele><time>2026-05-04T07:36:17Z</time></trkpt><trkpt lat="41.98402130340031" lon="19.99832783501829"><ele>407.0</ele><time>2026-05-04T07:36:18Z</time></trkpt><trkpt lat="41.98413244964683" lon="19.998120716540253"><ele>410.0</ele><time>2026-05-04T07:36:19Z</time></trkpt><trkpt lat="41.98425984607363" lon="19.997926705804865"><ele>413.0</ele><time>2026-05-04T07:36:20Z</time></trkpt><trkpt lat="41.98440006961467" lon="19.997743204766284"><ele>411.3333333333333</ele><time>2026-05-04T07:36:21Z</time></trkpt><trkpt lat="41.98456180194765" lon="19.997581135986774"><ele>409.66666666666663</ele><time>2026-05-04T07:36:22Z</time></trkpt><trkpt lat="41.9847438882394" lon="19.997438521121754"><ele>408.0</ele><time>2026-05-04T07:36:23Z</time></trkpt><trkpt lat="41.98493189709273" lon="19.997309833625902"><ele>401.0</ele><time>2026-05-04T07:36:24Z</time></trkpt><trkpt lat="41.985107266754184" lon="19.997195847129653"><ele>394.0</ele><time>2026-05-04T07:36:25Z</time></trkpt><trkpt lat="41.98525630979581" lon="19.9970958675962"><ele>387.0</ele><time>2026-05-04T07:36:26Z</time></trkpt><trkpt lat="41.98537362505726" lon="19.996973272053335"><ele>387.0</ele><time>2026-05-04T07:36:27Z</time></trkpt><trkpt lat="41.98546474927039" lon="19.996792893887108"><ele>387.0</ele><time>2026-05-04T07:36:28Z</time></trkpt><trkpt lat="41.98555241884052" lon="19.99657532416288"><ele>387.0</ele><time>2026-05-04T07:36:29Z</time></trkpt><trkpt lat="41.98565500018206" lon="19.99635230452194"><ele>388.0</ele><time>2026-05-04T07:36:30Z</time></trkpt><trkpt lat="41.98577409349972" lon="19.99613400974874"><ele>389.0</ele><time>2026-05-04T07:36:31Z</time></trkpt><trkpt lat="41.985896594935014" lon="19.995921478604618"><ele>390.0</ele><time>2026-05-04T07:36:32Z</time></trkpt><trkpt lat="41.98599939286671" lon="19.9957238002715"><ele>390.0</ele><time>2026-05-04T07:36:33Z</time></trkpt><trkpt lat="41.98606549121408" lon="19.995531241968635"><ele>390.0</ele><time>2026-05-04T07:36:34Z</time></trkpt><trkpt lat="41.9861065588705" lon="19.995320649868848"><ele>390.0</ele><time>2026-05-04T07:36:35Z</time></trkpt><trkpt lat="41.98616574701761" lon="19.99512078694727"><ele>393.0</ele><time>2026-05-04T07:36:36Z</time></trkpt><trkpt lat="41.98627133485952" lon="19.99493918953839"><ele>396.0</ele><time>2026-05-04T07:36:37Z</time></trkpt><trkpt lat="41.986412759066575" lon="19.994763546528873"><ele>399.0</ele><time>2026-05-04T07:36:38Z</time></trkpt><trkpt lat="41.98655637704117" lon="19.994564301981846"><ele>400.25</ele><time>2026-05-04T07:36:39Z</time></trkpt><trkpt lat="41.9866832511854" lon="19.9943750165427"><ele>401.5</ele><time>2026-05-04T07:36:40Z</time></trkpt><trkpt lat="41.986777353045966" lon="19.99422990221996"><ele>402.75</ele><time>2026-05-04T07:36:41Z</time></trkpt><trkpt lat="41.98684777191659" lon="19.994111950928097"><ele>404.0</ele><time>2026-05-04T07:36:42Z</time></trkpt><trkpt lat="41.9869193157028" lon="19.993995919342492"><ele>404.0</ele><time>2026-05-04T07:36:43Z</time></trkpt><trkpt lat="41.98699243982368" lon="19.99389298111811"><ele>404.0</ele><time>2026-05-04T07:36:44Z</time></trkpt><trkpt lat="41.98706707015018" lon="19.99380392406261"><ele>404.0</ele><time>2026-05-04T07:36:44.999Z</time></trkpt><trkpt lat="41.98713843051974" lon="19.99373781924624"><ele>404.0</ele><time>2026-05-04T07:36:46.999Z</time></trkpt><trkpt lat="41.98720287350998" lon="19.993697225095477"><ele>404.0</ele><time>2026-05-04T07:36:49.999Z</time></trkpt><trkpt lat="41.9873101330823" lon="19.99372630386061"><ele>404.0</ele><time>2026-05-04T07:36:51.999Z</time></trkpt><trkpt lat="41.98736718541115" lon="19.993774913312272"><ele>404.0</ele><time>2026-05-04T07:36:52.999Z</time></trkpt><trkpt lat="41.9874484638107" lon="19.993874625946344"><ele>404.0</ele><time>2026-05-04T07:36:54.999Z</time></trkpt><trkpt lat="41.98753224880639" lon="19.99397297602328"><ele>404.0</ele><time>2026-05-04T07:36:56.999Z</time></trkpt><trkpt lat="41.987602772166255" lon="19.994079840287633"><ele>404.0</ele><time>2026-05-04T07:36:58.999Z</time></trkpt><trkpt lat="41.987646542958785" lon="19.994186253735617"><ele>399.66666666666663</ele><time>2026-05-04T07:37:00.998Z</time></trkpt><trkpt lat="41.987671763283124" lon="19.994275214690347"><ele>395.3333333333333</ele><time>2026-05-04T07:37:54.999Z</time></trkpt><trkpt lat="41.98772755979514" lon="19.99435606350787"><ele>391.0</ele><time>2026-05-04T07:37:57.999Z</time></trkpt><trkpt lat="41.98778227567712" lon="19.99449244243431"><ele>386.66666666666663</ele><time>2026-05-04T07:37:59.999Z</time></trkpt><trkpt lat="41.98784433749439" lon="19.994565653796652"><ele>382.3333333333333</ele><time>2026-05-04T07:38:00.999Z</time></trkpt><trkpt lat="41.987916335750356" lon="19.99464064604137"><ele>378.0</ele><time>2026-05-04T07:38:01.999Z</time></trkpt><trkpt lat="41.987994068223784" lon="19.994701788929543"><ele>378.0</ele><time>2026-05-04T07:38:02.999Z</time></trkpt><trkpt lat="41.98808616532145" lon="19.994733890747938"><ele>378.0</ele><time>2026-05-04T07:38:03.999Z</time></trkpt><trkpt lat="41.98818528441012" lon="19.99471909757515"><ele>378.0</ele><time>2026-05-04T07:38:04.999Z</time></trkpt><trkpt lat="41.98829713626763" lon="19.99466893302872"><ele>378.0</ele><time>2026-05-04T07:38:05.999Z</time></trkpt><trkpt lat="41.98841522196207" lon="19.994609520803973"><ele>378.0</ele><time>2026-05-04T07:38:06.999Z</time></trkpt><trkpt lat="41.988543907204004" lon="19.994555419684744"><ele>376.0</ele><time>2026-05-04T07:38:07.999Z</time></trkpt><trkpt lat="41.98867273233366" lon="19.99451141935566"><ele>374.0</ele><time>2026-05-04T07:38:08.999Z</time></trkpt><trkpt lat="41.9888052431811" lon="19.99447151958758"><ele>372.0</ele><time>2026-05-04T07:38:09.999Z</time></trkpt><trkpt lat="41.98894152919651" lon="19.994435678550822"><ele>370.0</ele><time>2026-05-04T07:38:10.999Z</time></trkpt><trkpt lat="41.989081828976204" lon="19.99441224669334"><ele>368.0</ele><time>2026-05-04T07:38:11.999Z</time></trkpt><trkpt lat="41.989216460180984" lon="19.994390837010247"><ele>366.0</ele><time>2026-05-04T07:38:12.999Z</time></trkpt><trkpt lat="41.9893362983147" lon="19.9943582557341"><ele>364.0</ele><time>2026-05-04T07:38:13.999Z</time></trkpt><trkpt lat="41.989441859119594" lon="19.994309283735895"><ele>362.0</ele><time>2026-05-04T07:38:14.999Z</time></trkpt><trkpt lat="41.9895354088629" lon="19.994252672188466"><ele>362.0</ele><time>2026-05-04T07:38:15.999Z</time></trkpt><trkpt lat="41.98962222629959" lon="19.994176284618607"><ele>362.0</ele><time>2026-05-04T07:38:16.999Z</time></trkpt><trkpt lat="41.98970545335542" lon="19.99408661900295"><ele>362.0</ele><time>2026-05-04T07:38:17.999Z</time></trkpt><trkpt lat="41.98979109244993" lon="19.993998871291414"><ele>362.0</ele><time>2026-05-04T07:38:18.999Z</time></trkpt><trkpt lat="41.989876790906" lon="19.993921287433206"><ele>362.0</ele><time>2026-05-04T07:38:19.999Z</time></trkpt><trkpt lat="41.98996454036616" lon="19.993841769478237"><ele>364.75</ele><time>2026-05-04T07:38:20.999Z</time></trkpt><trkpt lat="41.99006358172273" lon="19.993754793108465"><ele>367.5</ele><time>2026-05-04T07:38:21.999Z</time></trkpt><trkpt lat="41.99016110720576" lon="19.993669050471198"><ele>370.25</ele><time>2026-05-04T07:38:22.999Z</time></trkpt><trkpt lat="41.990263087337226" lon="19.993583460208587"><ele>373.0</ele><time>2026-05-04T07:38:23.999Z</time></trkpt><trkpt lat="41.99037121878654" lon="19.993509063054194"><ele>373.0</ele><time>2026-05-04T07:38:24.999Z</time></trkpt><trkpt lat="41.99048780150808" lon="19.99344971351802"><ele>373.0</ele><time>2026-05-04T07:38:25.999Z</time></trkpt><trkpt lat="41.9906032149592" lon="19.993392353849313"><ele>373.0</ele><time>2026-05-04T07:38:26.999Z</time></trkpt><trkpt lat="41.990722484375105" lon="19.993326209149693"><ele>373.0</ele><time>2026-05-04T07:38:27.999Z</time></trkpt><trkpt lat="41.99084415100201" lon="19.993259763818205"><ele>372.75</ele><time>2026-05-04T07:38:28.999Z</time></trkpt><trkpt lat="41.99096440108431" lon="19.99319967751271"><ele>372.5</ele><time>2026-05-04T07:38:29.999Z</time></trkpt><trkpt lat="41.991082060056556" lon="19.993140974750887"><ele>372.25</ele><time>2026-05-04T07:38:30.999Z</time></trkpt><trkpt lat="41.991187771964626" lon="19.993067298666332"><ele>372.0</ele><time>2026-05-04T07:38:31.999Z</time></trkpt><trkpt lat="41.99128054541158" lon="19.99297035310988"><ele>372.0</ele><time>2026-05-04T07:38:32.999Z</time></trkpt><trkpt lat="41.99136825891467" lon="19.992868919152066"><ele>372.0</ele><time>2026-05-04T07:38:33.999Z</time></trkpt><trkpt lat="41.9914549649644" lon="19.9927565380166"><ele>372.0</ele><time>2026-05-04T07:38:34.999Z</time></trkpt><trkpt lat="41.991530906150366" lon="19.99262413806328"><ele>372.0</ele><time>2026-05-04T07:38:35.999Z</time></trkpt><trkpt lat="41.991596778043544" lon="19.9924706985696"><ele>371.75</ele><time>2026-05-04T07:38:36.999Z</time></trkpt><trkpt lat="41.9916560563907" lon="19.992307872705776"><ele>371.5</ele><time>2026-05-04T07:38:37.999Z</time></trkpt><trkpt lat="41.991715426034126" lon="19.992127092657757"><ele>371.25</ele><time>2026-05-04T07:38:38.999Z</time></trkpt><trkpt lat="41.99178261914685" lon="19.99194160003894"><ele>371.0</ele><time>2026-05-04T07:38:39.999Z</time></trkpt><trkpt lat="41.991857414965104" lon="19.991756630299164"><ele>372.6666666666667</ele><time>2026-05-04T07:38:40.999Z</time></trkpt><trkpt lat="41.991937586657436" lon="19.991562092040823"><ele>374.3333333333333</ele><time>2026-05-04T07:38:41.999Z</time></trkpt><trkpt lat="41.99202845531069" lon="19.991375273922813"><ele>376.0</ele><time>2026-05-04T07:38:42.999Z</time></trkpt><trkpt lat="41.99215171307764" lon="19.99121322854677"><ele>376.0</ele><time>2026-05-04T07:38:43.999Z</time></trkpt><trkpt lat="41.99230540992792" lon="19.991084439644318"><ele>376.0</ele><time>2026-05-04T07:38:44.999Z</time></trkpt><trkpt lat="41.992483613726264" lon="19.990968717534418"><ele>376.0</ele><time>2026-05-04T07:38:45.999Z</time></trkpt><trkpt lat="41.99266326174818" lon="19.990857738241843"><ele>378.66666666666663</ele><time>2026-05-04T07:38:46.999Z</time></trkpt><trkpt lat="41.992839406620604" lon="19.990758817766615"><ele>381.3333333333333</ele><time>2026-05-04T07:38:47.999Z</time></trkpt><trkpt lat="41.99301810072833" lon="19.99067815691055"><ele>384.0</ele><time>2026-05-04T07:38:48.999Z</time></trkpt><trkpt lat="41.993203794946965" lon="19.99060962028383"><ele>388.66666666666663</ele><time>2026-05-04T07:38:49.999Z</time></trkpt><trkpt lat="41.99339167236275" lon="19.990548812001382"><ele>393.3333333333333</ele><time>2026-05-04T07:38:50.999Z</time></trkpt><trkpt lat="41.99359134294992" lon="19.990511638162197"><ele>398.0</ele><time>2026-05-04T07:38:51.999Z</time></trkpt><trkpt lat="41.993797481576905" lon="19.990507088573903"><ele>398.0</ele><time>2026-05-04T07:38:52.999Z</time></trkpt><trkpt lat="41.99400393705012" lon="19.990551484052173"><ele>398.0</ele><time>2026-05-04T07:38:53.999Z</time></trkpt><trkpt lat="41.994202273928074" lon="19.99064345048855"><ele>398.0</ele><time>2026-05-04T07:38:54.999Z</time></trkpt><trkpt lat="41.994373430371866" lon="19.990767941676364"><ele>402.66666666666663</ele><time>2026-05-04T07:38:55.999Z</time></trkpt><trkpt lat="41.9945315047809" lon="19.99088208309557"><ele>407.33333333333337</ele><time>2026-05-04T07:38:56.999Z</time></trkpt><trkpt lat="41.99466840371749" lon="19.99097552010169"><ele>412.0</ele><time>2026-05-04T07:38:57.999Z</time></trkpt><trkpt lat="41.99477488807194" lon="19.99107303392371"><ele>412.0</ele><time>2026-05-04T07:38:58.999Z</time></trkpt><trkpt lat="41.994849237923134" lon="19.991201884375254"><ele>412.0</ele><time>2026-05-04T07:38:59.999Z</time></trkpt><trkpt lat="41.99488163944553" lon="19.99135938463047"><ele>412.0</ele><time>2026-05-04T07:39:00.999Z</time></trkpt><trkpt lat="41.99488666673066" lon="19.991541028376396"><ele>412.0</ele><time>2026-05-04T07:39:01.999Z</time></trkpt><trkpt lat="41.99487911376544" lon="19.99174214246154"><ele>409.33333333333337</ele><time>2026-05-04T07:39:02.999Z</time></trkpt><trkpt lat="41.99487649809598" lon="19.991953247840684"><ele>406.66666666666663</ele><time>2026-05-04T07:39:03.999Z</time></trkpt><trkpt lat="41.99487808782154" lon="19.992177504522903"><ele>404.0</ele><time>2026-05-04T07:39:04.999Z</time></trkpt><trkpt lat="41.994876700746254" lon="19.99241402767018"><ele>403.66666666666663</ele><time>2026-05-04T07:39:05.999Z</time></trkpt><trkpt lat="41.99486632138101" lon="19.992659684869203"><ele>403.33333333333337</ele><time>2026-05-04T07:39:06.999Z</time></trkpt><trkpt lat="41.994841178402" lon="19.99290824267949"><ele>403.0</ele><time>2026-05-04T07:39:07.999Z</time></trkpt><trkpt lat="41.99480623986549" lon="19.993134475639724"><ele>403.0</ele><time>2026-05-04T07:39:08.999Z</time></trkpt><trkpt lat="41.99479111201557" lon="19.99333325862141"><ele>403.0</ele><time>2026-05-04T07:39:09.999Z</time></trkpt><trkpt lat="41.99481138698151" lon="19.99349475875961"><ele>403.0</ele><time>2026-05-04T07:39:10.999Z</time></trkpt><trkpt lat="41.994852717644775" lon="19.993640521757808"><ele>403.0</ele><time>2026-05-04T07:39:11.999Z</time></trkpt><trkpt lat="41.99492354037186" lon="19.993787617677167"><ele>403.0</ele><time>2026-05-04T07:39:13Z</time></trkpt><trkpt lat="41.9950122060852" lon="19.993941768192542"><ele>403.0</ele><time>2026-05-04T07:39:14Z</time></trkpt><trkpt lat="41.995104706554116" lon="19.994110701576812"><ele>403.0</ele><time>2026-05-04T07:39:15Z</time></trkpt><trkpt lat="41.995199259467775" lon="19.994289230001538"><ele>403.0</ele><time>2026-05-04T07:39:16Z</time></trkpt><trkpt lat="41.99530828171677" lon="19.9944601424671"><ele>403.0</ele><time>2026-05-04T07:39:17Z</time></trkpt><trkpt lat="41.995447457545666" lon="19.99460525512317"><ele>403.0</ele><time>2026-05-04T07:39:18Z</time></trkpt><trkpt lat="41.99560033564172" lon="19.994734679029914"><ele>403.0</ele><time>2026-05-04T07:39:19Z</time></trkpt><trkpt lat="41.995758258592744" lon="19.994842755467907"><ele>403.0</ele><time>2026-05-04T07:39:20Z</time></trkpt><trkpt lat="41.995928858864026" lon="19.994914971473122"><ele>403.0</ele><time>2026-05-04T07:39:21Z</time></trkpt><trkpt lat="41.996107005201694" lon="19.994952554023044"><ele>402.6666666666667</ele><time>2026-05-04T07:39:22Z</time></trkpt><trkpt lat="41.99628353404913" lon="19.994927732719407"><ele>402.33333333333337</ele><time>2026-05-04T07:39:23Z</time></trkpt><trkpt lat="41.996459267251424" lon="19.994883529549714"><ele>402.0</ele><time>2026-05-04T07:39:24Z</time></trkpt><trkpt lat="41.99663563066412" lon="19.994869462846655"><ele>402.5</ele><time>2026-05-04T07:39:25Z</time></trkpt><trkpt lat="41.99680446088004" lon="19.99487884410321"><ele>403.0</ele><time>2026-05-04T07:39:26Z</time></trkpt><trkpt lat="41.996951730386996" lon="19.994889488965843"><ele>403.5</ele><time>2026-05-04T07:39:27Z</time></trkpt><trkpt lat="41.99707453321215" lon="19.99492133680462"><ele>404.0</ele><time>2026-05-04T07:39:28Z</time></trkpt><trkpt lat="41.997174758357225" lon="19.99497066630756"><ele>404.6</ele><time>2026-05-04T07:39:29Z</time></trkpt><trkpt lat="41.99724725935228" lon="19.995043955690537"><ele>405.2</ele><time>2026-05-04T07:39:30Z</time></trkpt><trkpt lat="41.997289728564226" lon="19.995155675109615"><ele>405.8</ele><time>2026-05-04T07:39:31Z</time></trkpt><trkpt lat="41.99728809760893" lon="19.99527970861721"><ele>406.40000000000003</ele><time>2026-05-04T07:39:32Z</time></trkpt><trkpt lat="41.997270982800764" lon="19.995412537862766"><ele>407.0</ele><time>2026-05-04T07:39:33Z</time></trkpt><trkpt lat="41.99725239255896" lon="19.995561612300904"><ele>407.0</ele><time>2026-05-04T07:39:34Z</time></trkpt><trkpt lat="41.99723380810683" lon="19.995721074645754"><ele>407.0</ele><time>2026-05-04T07:39:35Z</time></trkpt><trkpt lat="41.99721406406708" lon="19.99589098283966"><ele>407.0</ele><time>2026-05-04T07:39:36Z</time></trkpt><trkpt lat="41.9972092928108" lon="19.996055587969654"><ele>407.0</ele><time>2026-05-04T07:39:37Z</time></trkpt><trkpt lat="41.99722490756268" lon="19.996219944818524"><ele>406.0</ele><time>2026-05-04T07:39:38Z</time></trkpt><trkpt lat="41.99727344924841" lon="19.99636912835794"><ele>405.0</ele><time>2026-05-04T07:39:39Z</time></trkpt><trkpt lat="41.997342973976515" lon="19.996511260247573"><ele>404.0</ele><time>2026-05-04T07:39:40Z</time></trkpt><trkpt lat="41.9974251561275" lon="19.99662848554548"><ele>403.0</ele><time>2026-05-04T07:39:41Z</time></trkpt><trkpt lat="41.997527722292865" lon="19.996686684691543"><ele>397.5</ele><time>2026-05-04T07:39:42Z</time></trkpt><trkpt lat="41.997650871995795" lon="19.996700062729374"><ele>392.0</ele><time>2026-05-04T07:39:43Z</time></trkpt><trkpt lat="41.997786618760856" lon="19.996694898083437"><ele>386.5</ele><time>2026-05-04T07:39:44Z</time></trkpt><trkpt lat="41.99793817174099" lon="19.996688234257313"><ele>381.0</ele><time>2026-05-04T07:39:45Z</time></trkpt><trkpt lat="41.99810848237475" lon="19.99668083134702"><ele>381.0</ele><time>2026-05-04T07:39:46Z</time></trkpt><trkpt lat="41.99829591127704" lon="19.99667120068358"><ele>381.0</ele><time>2026-05-04T07:39:47Z</time></trkpt><trkpt lat="41.998493234172834" lon="19.996669134687345"><ele>381.0</ele><time>2026-05-04T07:39:48Z</time></trkpt><trkpt lat="41.99869998681477" lon="19.996681006726767"><ele>382.33333333333337</ele><time>2026-05-04T07:39:49Z</time></trkpt><trkpt lat="41.998916469385456" lon="19.99669937561142"><ele>383.6666666666667</ele><time>2026-05-04T07:39:50Z</time></trkpt><trkpt lat="41.99913164439452" lon="19.99674640552631"><ele>385.0</ele><time>2026-05-04T07:39:51Z</time></trkpt><trkpt lat="41.9993250823275" lon="19.99684456221653"><ele>387.6666666666667</ele><time>2026-05-04T07:39:52Z</time></trkpt><trkpt lat="41.99948675904185" lon="19.996955324232076"><ele>390.33333333333337</ele><time>2026-05-04T07:39:53Z</time></trkpt><trkpt lat="41.99963051422759" lon="19.996992230417398"><ele>393.0</ele><time>2026-05-04T07:39:54Z</time></trkpt><trkpt lat="41.99978988217009" lon="19.996971196985655"><ele>393.0</ele><time>2026-05-04T07:39:55Z</time></trkpt><trkpt lat="41.999951175101856" lon="19.99688642666199"><ele>393.0</ele><time>2026-05-04T07:39:56Z</time></trkpt><trkpt lat="42.00010581985316" lon="19.99679356629604"><ele>393.0</ele><time>2026-05-04T07:39:57Z</time></trkpt><trkpt lat="42.000252217686345" lon="19.996743731994233"><ele>393.0</ele><time>2026-05-04T07:39:58Z</time></trkpt><trkpt lat="42.00039844814854" lon="19.99672461013073"><ele>393.0</ele><time>2026-05-04T07:39:59Z</time></trkpt><trkpt lat="42.00055789569109" lon="19.996720249649258"><ele>393.0</ele><time>2026-05-04T07:40:00Z</time></trkpt><trkpt lat="42.00072692595812" lon="19.996729946582228"><ele>391.66666666666663</ele><time>2026-05-04T07:40:01Z</time></trkpt><trkpt lat="42.000905707754114" lon="19.99674161406805"><ele>390.3333333333333</ele><time>2026-05-04T07:40:02Z</time></trkpt><trkpt lat="42.001089464417866" lon="19.996757278914483"><ele>389.0</ele><time>2026-05-04T07:40:03Z</time></trkpt><trkpt lat="42.00125236294433" lon="19.996768202072698"><ele>389.0</ele><time>2026-05-04T07:40:04Z</time></trkpt><trkpt lat="42.00139055144575" lon="19.99674886613679"><ele>389.0</ele><time>2026-05-04T07:40:05Z</time></trkpt><trkpt lat="42.00153112787489" lon="19.996680980773174"><ele>389.0</ele><time>2026-05-04T07:40:06Z</time></trkpt><trkpt lat="42.00167059722078" lon="19.99656164316083"><ele>392.66666666666663</ele><time>2026-05-04T07:40:07Z</time></trkpt><trkpt lat="42.00182368068231" lon="19.99643247800818"><ele>396.33333333333337</ele><time>2026-05-04T07:40:08Z</time></trkpt><trkpt lat="42.001997962898876" lon="19.99630330120085"><ele>400.0</ele><time>2026-05-04T07:40:09Z</time></trkpt><trkpt lat="42.00218370266295" lon="19.99617314774073"><ele>400.0</ele><time>2026-05-04T07:40:10Z</time></trkpt><trkpt lat="42.00237361983689" lon="19.99604691228863"><ele>400.0</ele><time>2026-05-04T07:40:10.999Z</time></trkpt><trkpt lat="42.002557084331784" lon="19.995928311384937"><ele>400.0</ele><time>2026-05-04T07:40:11.999Z</time></trkpt><trkpt lat="42.002735547532886" lon="19.995821146287017"><ele>401.33333333333337</ele><time>2026-05-04T07:40:12.999Z</time></trkpt><trkpt lat="42.002932403916" lon="19.995742013021808"><ele>402.66666666666663</ele><time>2026-05-04T07:40:13.999Z</time></trkpt><trkpt lat="42.003137831462666" lon="19.99566773499387"><ele>404.0</ele><time>2026-05-04T07:40:14.999Z</time></trkpt><trkpt lat="42.00334652139593" lon="19.995582793087976"><ele>404.0</ele><time>2026-05-04T07:40:15.999Z</time></trkpt><trkpt lat="42.003555307855926" lon="19.995494154969112"><ele>404.0</ele><time>2026-05-04T07:40:16.999Z</time></trkpt><trkpt lat="42.003765427683255" lon="19.995405578584275"><ele>404.0</ele><time>2026-05-04T07:40:17.999Z</time></trkpt><trkpt lat="42.003955367201506" lon="19.99532981268219"><ele>404.0</ele><time>2026-05-04T07:40:18.999Z</time></trkpt><trkpt lat="42.00411275494582" lon="19.995252814535554"><ele>404.0</ele><time>2026-05-04T07:40:19.999Z</time></trkpt><trkpt lat="42.004223424037036" lon="19.99516326974108"><ele>404.0</ele><time>2026-05-04T07:40:20.999Z</time></trkpt><trkpt lat="42.0042921183422" lon="19.995038075564075"><ele>404.0</ele><time>2026-05-04T07:40:21.999Z</time></trkpt><trkpt lat="42.00432276135733" lon="19.994869333605674"><ele>407.3333333333333</ele><time>2026-05-04T07:40:22.999Z</time></trkpt><trkpt lat="42.00434495283508" lon="19.994662497623732"><ele>410.66666666666663</ele><time>2026-05-04T07:40:23.999Z</time></trkpt><trkpt lat="42.00435950006572" lon="19.99443555875342"><ele>414.0</ele><time>2026-05-04T07:40:24.999Z</time></trkpt><trkpt lat="42.00434320371177" lon="19.99418805848249"><ele>418.0</ele><time>2026-05-04T07:40:25.999Z</time></trkpt><trkpt lat="42.004310756994826" lon="19.99392429578905"><ele>422.0</ele><time>2026-05-04T07:40:26.999Z</time></trkpt><trkpt lat="42.00428017831881" lon="19.993669910777875"><ele>426.0</ele><time>2026-05-04T07:40:27.999Z</time></trkpt><trkpt lat="42.004248737532954" lon="19.993491985940363"><ele>425.25</ele><time>2026-05-04T07:40:28.999Z</time></trkpt><trkpt lat="42.00418087495104" lon="19.993338521529637"><ele>424.5</ele><time>2026-05-04T07:40:29.999Z</time></trkpt><trkpt lat="42.00406061964489" lon="19.99320581378187"><ele>423.75</ele><time>2026-05-04T07:40:30.999Z</time></trkpt><trkpt lat="42.003948354061905" lon="19.993051165380383"><ele>423.0</ele><time>2026-05-04T07:40:31.999Z</time></trkpt><trkpt lat="42.00387214428661" lon="19.99284130851271"><ele>433.66666666666663</ele><time>2026-05-04T07:40:32.999Z</time></trkpt><trkpt lat="42.00382851413657" lon="19.99261899404743"><ele>444.3333333333333</ele><time>2026-05-04T07:40:33.999Z</time></trkpt><trkpt lat="42.00381529746933" lon="19.992393732509345"><ele>455.0</ele><time>2026-05-04T07:40:34.999Z</time></trkpt><trkpt lat="42.003824269759896" lon="19.992202149244527"><ele>455.0</ele><time>2026-05-04T07:40:35.999Z</time></trkpt><trkpt lat="42.00385515018021" lon="19.99208508920187"><ele>455.0</ele><time>2026-05-04T07:40:36.999Z</time></trkpt><trkpt lat="42.00391487479128" lon="19.99203801325427"><ele>455.0</ele><time>2026-05-04T07:40:37.999Z</time></trkpt><trkpt lat="42.00399394472725" lon="19.992025955167353"><ele>455.0</ele><time>2026-05-04T07:40:38.999Z</time></trkpt><trkpt lat="42.004095544891676" lon="19.99204437545142"><ele>455.0</ele><time>2026-05-04T07:40:39.999Z</time></trkpt><trkpt lat="42.00422278168102" lon="19.99212291951"><ele>443.3333333333333</ele><time>2026-05-04T07:40:40.999Z</time></trkpt><trkpt lat="42.0043530838181" lon="19.99224864428185"><ele>431.66666666666663</ele><time>2026-05-04T07:40:41.999Z</time></trkpt><trkpt lat="42.004489873606204" lon="19.99237242789421"><ele>420.0</ele><time>2026-05-04T07:40:42.999Z</time></trkpt><trkpt lat="42.00465023694809" lon="19.992499944116293"><ele>419.66666666666663</ele><time>2026-05-04T07:40:43.999Z</time></trkpt><trkpt lat="42.00481838445912" lon="19.99264972149631"><ele>419.3333333333333</ele><time>2026-05-04T07:40:44.999Z</time></trkpt><trkpt lat="42.00496637441544" lon="19.992822103318836"><ele>419.0</ele><time>2026-05-04T07:40:45.999Z</time></trkpt><trkpt lat="42.005084682482185" lon="19.992984135065026"><ele>419.0</ele><time>2026-05-04T07:40:46.999Z</time></trkpt><trkpt lat="42.00519207310138" lon="19.993096121391268"><ele>419.0</ele><time>2026-05-04T07:40:47.999Z</time></trkpt><trkpt lat="42.005298263622144" lon="19.993128753500475"><ele>419.0</ele><time>2026-05-04T07:40:48.999Z</time></trkpt><trkpt lat="42.005398110045164" lon="19.993073852597107"><ele>419.0</ele><time>2026-05-04T07:40:49.999Z</time></trkpt><trkpt lat="42.00548560889281" lon="19.99297192410054"><ele>419.0</ele><time>2026-05-04T07:40:50.999Z</time></trkpt><trkpt lat="42.00556459468475" lon="19.99281604649229"><ele>419.0</ele><time>2026-05-04T07:40:51.999Z</time></trkpt><trkpt lat="42.005650647944634" lon="19.99263244933541"><ele>419.0</ele><time>2026-05-04T07:40:52.999Z</time></trkpt><trkpt lat="42.0057525511346" lon="19.99243917736254"><ele>426.3333333333333</ele><time>2026-05-04T07:40:53.999Z</time></trkpt><trkpt lat="42.00588366595854" lon="19.992253612606465"><ele>433.66666666666663</ele><time>2026-05-04T07:40:54.999Z</time></trkpt><trkpt lat="42.00602718436877" lon="19.99211099169645"><ele>441.0</ele><time>2026-05-04T07:40:55.999Z</time></trkpt><trkpt lat="42.006134077740555" lon="19.991983786256103"><ele>441.0</ele><time>2026-05-04T07:40:56.999Z</time></trkpt><trkpt lat="42.006200807791146" lon="19.991842661080426"><ele>441.0</ele><time>2026-05-04T07:40:57.999Z</time></trkpt><trkpt lat="42.006229867778664" lon="19.9916670917503"><ele>441.0</ele><time>2026-05-04T07:40:58.999Z</time></trkpt><trkpt lat="42.00623007300729" lon="19.991468461395556"><ele>441.0</ele><time>2026-05-04T07:40:59.999Z</time></trkpt><trkpt lat="42.00627845263571" lon="19.991301949996945"><ele>448.0</ele><time>2026-05-04T07:41:00.999Z</time></trkpt><trkpt lat="42.006385394775165" lon="19.99117155374362"><ele>455.0</ele><time>2026-05-04T07:41:01.999Z</time></trkpt><trkpt lat="42.00649929673655" lon="19.991082253623556"><ele>462.0</ele><time>2026-05-04T07:41:02.999Z</time></trkpt><trkpt lat="42.00655813675238" lon="19.990974481949237"><ele>469.0</ele><time>2026-05-04T07:41:03.999Z</time></trkpt><trkpt lat="42.00656774718508" lon="19.990839065379586"><ele>475.5</ele><time>2026-05-04T07:41:04.999Z</time></trkpt><trkpt lat="42.00653585397523" lon="19.990690674617543"><ele>482.0</ele><time>2026-05-04T07:41:05.999Z</time></trkpt><trkpt lat="42.00646006280062" lon="19.99053947686367"><ele>488.5</ele><time>2026-05-04T07:41:06.999Z</time></trkpt><trkpt lat="42.00637756461885" lon="19.99037275704484"><ele>495.0</ele><time>2026-05-04T07:41:07.999Z</time></trkpt><trkpt lat="42.006332124207844" lon="19.990180631933907"><ele>499.0</ele><time>2026-05-04T07:41:08.999Z</time></trkpt><trkpt lat="42.0063262411945" lon="19.989979286146"><ele>503.0</ele><time>2026-05-04T07:41:09.999Z</time></trkpt><trkpt lat="42.00637114967213" lon="19.98979654704908"><ele>507.0</ele><time>2026-05-04T07:41:10.999Z</time></trkpt><trkpt lat="42.00646092599147" lon="19.989630919469295"><ele>511.0</ele><time>2026-05-04T07:41:11.999Z</time></trkpt><trkpt lat="42.00659007442773" lon="19.98949075065734"><ele>503.6666666666667</ele><time>2026-05-04T07:41:12.999Z</time></trkpt><trkpt lat="42.00675664211219" lon="19.989371481202898"><ele>496.33333333333337</ele><time>2026-05-04T07:41:13.999Z</time></trkpt><trkpt lat="42.00692568338327" lon="19.989278107423733"><ele>489.0</ele><time>2026-05-04T07:41:14.999Z</time></trkpt><trkpt lat="42.00708373543546" lon="19.98916194853577"><ele>489.0</ele><time>2026-05-04T07:41:15.999Z</time></trkpt><trkpt lat="42.00722158881855" lon="19.988991698596784"><ele>489.0</ele><time>2026-05-04T07:41:16.999Z</time></trkpt><trkpt lat="42.00734503985146" lon="19.988790884390742"><ele>489.0</ele><time>2026-05-04T07:41:17.999Z</time></trkpt><trkpt lat="42.00747795430843" lon="19.988575305688762"><ele>485.33333333333337</ele><time>2026-05-04T07:41:19Z</time></trkpt><trkpt lat="42.00761238603146" lon="19.98838778699323"><ele>481.6666666666667</ele><time>2026-05-04T07:41:20Z</time></trkpt><trkpt lat="42.0077484167686" lon="19.988267791553856"><ele>478.0</ele><time>2026-05-04T07:41:21Z</time></trkpt><trkpt lat="42.007892292034235" lon="19.988219477775324"><ele>478.0</ele><time>2026-05-04T07:41:22Z</time></trkpt><trkpt lat="42.00805172973365" lon="19.988233055370774"><ele>478.0</ele><time>2026-05-04T07:41:23Z</time></trkpt><trkpt lat="42.00821026164599" lon="19.98831383351133"><ele>478.0</ele><time>2026-05-04T07:41:24Z</time></trkpt><trkpt lat="42.00837935831878" lon="19.988386811991404"><ele>475.0</ele><time>2026-05-04T07:41:25Z</time></trkpt><trkpt lat="42.00854456627943" lon="19.98840062518381"><ele>472.0</ele><time>2026-05-04T07:41:26Z</time></trkpt><trkpt lat="42.00867426694617" lon="19.988346644640675"><ele>469.0</ele><time>2026-05-04T07:41:27Z</time></trkpt><trkpt lat="42.00879566974909" lon="19.988250195109263"><ele>466.0</ele><time>2026-05-04T07:41:28Z</time></trkpt><trkpt lat="42.00892257814423" lon="19.988207230702468"><ele>466.0</ele><time>2026-05-04T07:41:29Z</time></trkpt><trkpt lat="42.009053195076895" lon="19.988189694519118"><ele>466.0</ele><time>2026-05-04T07:41:30Z</time></trkpt><trkpt lat="42.00916781787611" lon="19.988281301464873"><ele>466.0</ele><time>2026-05-04T07:41:31Z</time></trkpt><trkpt lat="42.00925104622268" lon="19.988430700422537"><ele>466.0</ele><time>2026-05-04T07:41:32Z</time></trkpt><trkpt lat="42.00931925888808" lon="19.98861221444633"><ele>460.75</ele><time>2026-05-04T07:41:33Z</time></trkpt><trkpt lat="42.00941887366477" lon="19.988747618937058"><ele>455.5</ele><time>2026-05-04T07:41:34Z</time></trkpt><trkpt lat="42.00954266969505" lon="19.98879970365274"><ele>450.25</ele><time>2026-05-04T07:41:35Z</time></trkpt><trkpt lat="42.00969334943984" lon="19.988785393922853"><ele>445.0</ele><time>2026-05-04T07:41:36Z</time></trkpt><trkpt lat="42.009849468916485" lon="19.988797332557468"><ele>439.33333333333337</ele><time>2026-05-04T07:41:37Z</time></trkpt><trkpt lat="42.00999929358553" lon="19.98890927918681"><ele>433.66666666666663</ele><time>2026-05-04T07:41:38Z</time></trkpt><trkpt lat="42.01013174976411" lon="19.989088200678708"><ele>428.0</ele><time>2026-05-04T07:41:39Z</time></trkpt><trkpt lat="42.01023486192729" lon="19.98926412403898"><ele>428.0</ele><time>2026-05-04T07:41:40Z</time></trkpt><trkpt lat="42.01036330844287" lon="19.989389401077144"><ele>428.0</ele><time>2026-05-04T07:41:41Z</time></trkpt><trkpt lat="42.01053407204398" lon="19.989457838310322"><ele>428.0</ele><time>2026-05-04T07:41:42Z</time></trkpt><trkpt lat="42.01071152253759" lon="19.989542286663944"><ele>439.3333333333333</ele><time>2026-05-04T07:41:43Z</time></trkpt><trkpt lat="42.01087802794367" lon="19.989693767196833"><ele>450.66666666666663</ele><time>2026-05-04T07:41:44Z</time></trkpt><trkpt lat="42.01102903422589" lon="19.989869193766857"><ele>462.0</ele><time>2026-05-04T07:41:45Z</time></trkpt><trkpt lat="42.011166138742716" lon="19.99000661624491"><ele>462.0</ele><time>2026-05-04T07:41:46Z</time></trkpt><trkpt lat="42.01127241940022" lon="19.990100115599972"><ele>462.0</ele><time>2026-05-04T07:41:47Z</time></trkpt><trkpt lat="42.011375316201686" lon="19.990133406183464"><ele>462.0</ele><time>2026-05-04T07:41:48Z</time></trkpt><trkpt lat="42.01148905769087" lon="19.990098174377884"><ele>462.0</ele><time>2026-05-04T07:41:49Z</time></trkpt><trkpt lat="42.0116293748279" lon="19.9900017492583"><ele>463.66666666666663</ele><time>2026-05-04T07:41:50Z</time></trkpt><trkpt lat="42.011778693065615" lon="19.989870825184305"><ele>465.3333333333333</ele><time>2026-05-04T07:41:51Z</time></trkpt><trkpt lat="42.01194240287975" lon="19.9897246400025"><ele>467.0</ele><time>2026-05-04T07:41:52Z</time></trkpt><trkpt lat="42.012100855364814" lon="19.98955884544058"><ele>467.0</ele><time>2026-05-04T07:41:53Z</time></trkpt><trkpt lat="42.01226521488791" lon="19.989365945524195"><ele>467.0</ele><time>2026-05-04T07:41:54Z</time></trkpt><trkpt lat="42.01244795650636" lon="19.98916534100646"><ele>464.66666666666663</ele><time>2026-05-04T07:41:55Z</time></trkpt><trkpt lat="42.012622974161154" lon="19.988974222248515"><ele>462.33333333333337</ele><time>2026-05-04T07:41:56Z</time></trkpt><trkpt lat="42.01278578704468" lon="19.988828659650785"><ele>460.0</ele><time>2026-05-04T07:41:57Z</time></trkpt><trkpt lat="42.01294267217028" lon="19.98872446960586"><ele>460.0</ele><time>2026-05-04T07:41:58Z</time></trkpt><trkpt lat="42.013055821206976" lon="19.988664628221333"><ele>460.0</ele><time>2026-05-04T07:41:59Z</time></trkpt><trkpt lat="42.01317547210166" lon="19.98866042547271"><ele>460.0</ele><time>2026-05-04T07:42:00Z</time></trkpt><trkpt lat="42.01331426108768" lon="19.988720655608503"><ele>460.0</ele><time>2026-05-04T07:42:01Z</time></trkpt><trkpt lat="42.01344666380971" lon="19.98876168068458"><ele>459.5</ele><time>2026-05-04T07:42:02Z</time></trkpt><trkpt lat="42.0135566650061" lon="19.988728720350274"><ele>459.0</ele><time>2026-05-04T07:42:03Z</time></trkpt><trkpt lat="42.013637037008046" lon="19.98863547028055"><ele>458.5</ele><time>2026-05-04T07:42:04Z</time></trkpt><trkpt lat="42.013679005150465" lon="19.988491199845708"><ele>458.0</ele><time>2026-05-04T07:42:05Z</time></trkpt><trkpt lat="42.01367957593633" lon="19.988307734748773"><ele>458.0</ele><time>2026-05-04T07:42:06Z</time></trkpt><trkpt lat="42.01365561285287" lon="19.988102240381775"><ele>458.0</ele><time>2026-05-04T07:42:07Z</time></trkpt><trkpt lat="42.0136716574238" lon="19.98793150821671"><ele>458.0</ele><time>2026-05-04T07:42:08Z</time></trkpt><trkpt lat="42.01373352925497" lon="19.987812363511264"><ele>458.0</ele><time>2026-05-04T07:42:09Z</time></trkpt><trkpt lat="42.01382615558901" lon="19.98776954276527"><ele>458.0</ele><time>2026-05-04T07:42:10Z</time></trkpt><trkpt lat="42.013936376036504" lon="19.987787346907506"><ele>458.0</ele><time>2026-05-04T07:42:11Z</time></trkpt><trkpt lat="42.01407340975976" lon="19.987825055745123"><ele>458.0</ele><time>2026-05-04T07:42:12Z</time></trkpt><trkpt lat="42.014223230831135" lon="19.98785150156585"><ele>458.0</ele><time>2026-05-04T07:42:13Z</time></trkpt><trkpt lat="42.01436153616381" lon="19.987870425037222"><ele>453.79999999999995</ele><time>2026-05-04T07:42:14Z</time></trkpt><trkpt lat="42.014477594407396" lon="19.987883402998335"><ele>449.59999999999997</ele><time>2026-05-04T07:42:15Z</time></trkpt><trkpt lat="42.01458467490834" lon="19.98787651255122"><ele>445.40000000000003</ele><time>2026-05-04T07:42:16Z</time></trkpt><trkpt lat="42.01468555516557" lon="19.987841459373335"><ele>441.20000000000005</ele><time>2026-05-04T07:42:17Z</time></trkpt><trkpt lat="42.01477365297615" lon="19.987771893300064"><ele>437.0</ele><time>2026-05-04T07:42:18Z</time></trkpt><trkpt lat="42.01485095735568" lon="19.987671211394055"><ele>437.0</ele><time>2026-05-04T07:42:19Z</time></trkpt><trkpt lat="42.01492131153574" lon="19.987547566546223"><ele>437.0</ele><time>2026-05-04T07:42:20Z</time></trkpt><trkpt lat="42.01497938863449" lon="19.987407963148943"><ele>437.0</ele><time>2026-05-04T07:42:21Z</time></trkpt><trkpt lat="42.01502422117986" lon="19.98726666852921"><ele>437.0</ele><time>2026-05-04T07:42:22Z</time></trkpt><trkpt lat="42.01506618925567" lon="19.987139516083918"><ele>435.40000000000003</ele><time>2026-05-04T07:42:23Z</time></trkpt><trkpt lat="42.015118198308414" lon="19.987033683794415"><ele>433.80000000000007</ele><time>2026-05-04T07:42:24Z</time></trkpt><trkpt lat="42.01518840900831" lon="19.986952355820776"><ele>432.2</ele><time>2026-05-04T07:42:25Z</time></trkpt><trkpt lat="42.015277742661326" lon="19.986895997569867"><ele>430.6</ele><time>2026-05-04T07:42:26Z</time></trkpt><trkpt lat="42.01538188769877" lon="19.98686903034142"><ele>429.0</ele><time>2026-05-04T07:42:27Z</time></trkpt><trkpt lat="42.01550596397965" lon="19.986886691101045"><ele>429.0</ele><time>2026-05-04T07:42:28Z</time></trkpt><trkpt lat="42.015666793285874" lon="19.986942688345078"><ele>429.0</ele><time>2026-05-04T07:42:29Z</time></trkpt><trkpt lat="42.01585378661682" lon="19.987025574529476"><ele>429.0</ele><time>2026-05-04T07:42:30Z</time></trkpt><trkpt lat="42.01605354221377" lon="19.987117055338686"><ele>423.66666666666663</ele><time>2026-05-04T07:42:31Z</time></trkpt><trkpt lat="42.01625329644003" lon="19.987230252315623"><ele>418.3333333333333</ele><time>2026-05-04T07:42:32Z</time></trkpt><trkpt lat="42.01644504230303" lon="19.987383274627607"><ele>413.0</ele><time>2026-05-04T07:42:33Z</time></trkpt><trkpt lat="42.016618509504355" lon="19.98758926034825"><ele>414.0</ele><time>2026-05-04T07:42:34Z</time></trkpt><trkpt lat="42.016787101875245" lon="19.98782084803155"><ele>415.0</ele><time>2026-05-04T07:42:35Z</time></trkpt><trkpt lat="42.01695458858368" lon="19.988052167621813"><ele>415.0</ele><time>2026-05-04T07:42:36Z</time></trkpt><trkpt lat="42.017128001552855" lon="19.988280677613265"><ele>415.0</ele><time>2026-05-04T07:42:37Z</time></trkpt><trkpt lat="42.017298565749485" lon="19.98850432802807"><ele>414.0</ele><time>2026-05-04T07:42:38Z</time></trkpt><trkpt lat="42.01744166785756" lon="19.98869108800922"><ele>413.0</ele><time>2026-05-04T07:42:39Z</time></trkpt><trkpt lat="42.0175667383495" lon="19.988843804702285"><ele>412.0</ele><time>2026-05-04T07:42:40Z</time></trkpt><trkpt lat="42.01768777735122" lon="19.98894038157209"><ele>415.0</ele><time>2026-05-04T07:42:41Z</time></trkpt><trkpt lat="42.01782412571392" lon="19.988975385021593"><ele>418.0</ele><time>2026-05-04T07:42:42Z</time></trkpt><trkpt lat="42.01798524421743" lon="19.988944524455892"><ele>421.0</ele><time>2026-05-04T07:42:43Z</time></trkpt><trkpt lat="42.01815740936642" lon="19.98888749015329"><ele>421.0</ele><time>2026-05-04T07:42:44Z</time></trkpt><trkpt lat="42.01831696570107" lon="19.98884207124016"><ele>421.0</ele><time>2026-05-04T07:42:45Z</time></trkpt><trkpt lat="42.01843269034179" lon="19.988801964593602"><ele>421.0</ele><time>2026-05-04T07:42:46Z</time></trkpt><trkpt lat="42.01851376377577" lon="19.98873967620859"><ele>421.0</ele><time>2026-05-04T07:42:47Z</time></trkpt><trkpt lat="42.01857638045583" lon="19.988618437829793"><ele>424.6666666666667</ele><time>2026-05-04T07:42:48Z</time></trkpt><trkpt lat="42.01863731427166" lon="19.988442853120144"><ele>428.33333333333337</ele><time>2026-05-04T07:42:49Z</time></trkpt><trkpt lat="42.018731487967415" lon="19.988272706529152"><ele>432.0</ele><time>2026-05-04T07:42:49.999Z</time></trkpt><trkpt lat="42.01886365063572" lon="19.98811881621088"><ele>432.0</ele><time>2026-05-04T07:42:50.999Z</time></trkpt><trkpt lat="42.01902158061783" lon="19.987990906779594"><ele>432.0</ele><time>2026-05-04T07:42:51.999Z</time></trkpt><trkpt lat="42.01920687179227" lon="19.987897715343113"><ele>432.0</ele><time>2026-05-04T07:42:52.999Z</time></trkpt><trkpt lat="42.019426934938785" lon="19.987844109763127"><ele>432.0</ele><time>2026-05-04T07:42:53.999Z</time></trkpt><trkpt lat="42.01965415897558" lon="19.98779420517155"><ele>432.0</ele><time>2026-05-04T07:42:54.999Z</time></trkpt><trkpt lat="42.01988815808887" lon="19.987738530311756"><ele>428.0</ele><time>2026-05-04T07:42:55.999Z</time></trkpt><trkpt lat="42.02009845164057" lon="19.987690440886897"><ele>424.0</ele><time>2026-05-04T07:42:56.999Z</time></trkpt><trkpt lat="42.020270070710474" lon="19.987675303746517"><ele>420.0</ele><time>2026-05-04T07:42:57.999Z</time></trkpt><trkpt lat="42.02040784906053" lon="19.987708740001537"><ele>420.0</ele><time>2026-05-04T07:42:58.999Z</time></trkpt><trkpt lat="42.020522293217404" lon="19.98779880164727"><ele>420.0</ele><time>2026-05-04T07:42:59.999Z</time></trkpt><trkpt lat="42.02062451334274" lon="19.987948698882175"><ele>420.0</ele><time>2026-05-04T07:43:00.999Z</time></trkpt><trkpt lat="42.0207233401517" lon="19.988106622959307"><ele>420.0</ele><time>2026-05-04T07:43:01.999Z</time></trkpt><trkpt lat="42.02082364046404" lon="19.9882523154125"><ele>421.66666666666663</ele><time>2026-05-04T07:43:02.999Z</time></trkpt><trkpt lat="42.02092951497394" lon="19.98839319756287"><ele>423.3333333333333</ele><time>2026-05-04T07:43:03.999Z</time></trkpt><trkpt lat="42.02104128221741" lon="19.988563618580937"><ele>425.0</ele><time>2026-05-04T07:43:04.999Z</time></trkpt><trkpt lat="42.0211426365255" lon="19.988774515483634"><ele>425.0</ele><time>2026-05-04T07:43:05.999Z</time></trkpt><trkpt lat="42.021239919318134" lon="19.98901764163989"><ele>425.0</ele><time>2026-05-04T07:43:06.999Z</time></trkpt><trkpt lat="42.021344468590534" lon="19.989256688944437"><ele>425.0</ele><time>2026-05-04T07:43:07.999Z</time></trkpt><trkpt lat="42.02146040348365" lon="19.989499837616115"><ele>425.3333333333333</ele><time>2026-05-04T07:43:08.999Z</time></trkpt><trkpt lat="42.02159137803233" lon="19.98973895724696"><ele>425.66666666666663</ele><time>2026-05-04T07:43:09.999Z</time></trkpt><trkpt lat="42.021736078109974" lon="19.989966330083103"><ele>426.0</ele><time>2026-05-04T07:43:10.999Z</time></trkpt><trkpt lat="42.02188796971745" lon="19.990181418109046"><ele>426.33333333333337</ele><time>2026-05-04T07:43:11.999Z</time></trkpt><trkpt lat="42.022029084324515" lon="19.990408579492495"><ele>426.6666666666667</ele><time>2026-05-04T07:43:12.999Z</time></trkpt><trkpt lat="42.02213574168498" lon="19.990663942560936"><ele>427.0</ele><time>2026-05-04T07:43:13.999Z</time></trkpt><trkpt lat="42.022230274843885" lon="19.990930338055136"><ele>427.0</ele><time>2026-05-04T07:43:14.999Z</time></trkpt><trkpt lat="42.02231693877929" lon="19.99120692643674"><ele>427.0</ele><time>2026-05-04T07:43:15.999Z</time></trkpt><trkpt lat="42.02238093968797" lon="19.9914949482061"><ele>427.0</ele><time>2026-05-04T07:43:16.999Z</time></trkpt><trkpt lat="42.02241913589612" lon="19.99176460051904"><ele>427.0</ele><time>2026-05-04T07:43:17.999Z</time></trkpt><trkpt lat="42.02244489382051" lon="19.99200929436689"><ele>427.0</ele><time>2026-05-04T07:43:18.999Z</time></trkpt><trkpt lat="42.02247580754388" lon="19.992243665977462"><ele>427.0</ele><time>2026-05-04T07:43:19.999Z</time></trkpt><trkpt lat="42.02250520908838" lon="19.992468763929853"><ele>427.75</ele><time>2026-05-04T07:43:20.999Z</time></trkpt><trkpt lat="42.022524213585335" lon="19.992685185014547"><ele>428.5</ele><time>2026-05-04T07:43:21.999Z</time></trkpt><trkpt lat="42.022542089866896" lon="19.99287676551017"><ele>429.25</ele><time>2026-05-04T07:43:22.999Z</time></trkpt><trkpt lat="42.022592305999794" lon="19.993034133467805"><ele>430.0</ele><time>2026-05-04T07:43:23.999Z</time></trkpt><trkpt lat="42.02268071623661" lon="19.99317132461002"><ele>430.0</ele><time>2026-05-04T07:43:25Z</time></trkpt><trkpt lat="42.02280306943052" lon="19.993274321498177"><ele>430.0</ele><time>2026-05-04T07:43:26Z</time></trkpt><trkpt lat="42.02294986834609" lon="19.99333413611968"><ele>430.0</ele><time>2026-05-04T07:43:27Z</time></trkpt><trkpt lat="42.0231041160639" lon="19.99334312336978"><ele>429.5</ele><time>2026-05-04T07:43:28Z</time></trkpt><trkpt lat="42.02324674529897" lon="19.993353546546462"><ele>429.0</ele><time>2026-05-04T07:43:29Z</time></trkpt><trkpt lat="42.02335993252304" lon="19.993384963849817"><ele>428.5</ele><time>2026-05-04T07:43:30Z</time></trkpt><trkpt lat="42.02344666843894" lon="19.993445280793473"><ele>428.0</ele><time>2026-05-04T07:43:31Z</time></trkpt><trkpt lat="42.023519791382" lon="19.99354505800099"><ele>428.0</ele><time>2026-05-04T07:43:32Z</time></trkpt><trkpt lat="42.023583837351595" lon="19.993674808249843"><ele>428.0</ele><time>2026-05-04T07:43:33Z</time></trkpt><trkpt lat="42.0236502499018" lon="19.993808997588165"><ele>428.0</ele><time>2026-05-04T07:43:34Z</time></trkpt><trkpt lat="42.023717839919996" lon="19.993939775243742"><ele>428.0</ele><time>2026-05-04T07:43:35Z</time></trkpt><trkpt lat="42.02379225986468" lon="19.994065555148275"><ele>427.5</ele><time>2026-05-04T07:43:36Z</time></trkpt><trkpt lat="42.02386819782879" lon="19.99418921637285"><ele>427.0</ele><time>2026-05-04T07:43:37Z</time></trkpt><trkpt lat="42.023936903413635" lon="19.994318604031093"><ele>426.5</ele><time>2026-05-04T07:43:38Z</time></trkpt><trkpt lat="42.02399903984348" lon="19.994442486531522"><ele>426.0</ele><time>2026-05-04T07:43:39Z</time></trkpt><trkpt lat="42.024063217112584" lon="19.994560062626014"><ele>426.0</ele><time>2026-05-04T07:43:40Z</time></trkpt><trkpt lat="42.024135866987535" lon="19.99467551197294"><ele>426.0</ele><time>2026-05-04T07:43:41Z</time></trkpt><trkpt lat="42.02422384225953" lon="19.994788928557796"><ele>426.0</ele><time>2026-05-04T07:43:42Z</time></trkpt><trkpt lat="42.02432093991928" lon="19.99490949933793"><ele>426.0</ele><time>2026-05-04T07:43:43Z</time></trkpt><trkpt lat="42.02441756158376" lon="19.995038772220855"><ele>427.5</ele><time>2026-05-04T07:43:44Z</time></trkpt><trkpt lat="42.02451209582964" lon="19.995177208212333"><ele>429.0</ele><time>2026-05-04T07:43:45Z</time></trkpt><trkpt lat="42.02460236872881" lon="19.995320511386403"><ele>430.5</ele><time>2026-05-04T07:43:46Z</time></trkpt><trkpt lat="42.02468749138091" lon="19.99546865010266"><ele>432.0</ele><time>2026-05-04T07:43:47Z</time></trkpt><trkpt lat="42.02476263998515" lon="19.995621609329394"><ele>432.0</ele><time>2026-05-04T07:43:48Z</time></trkpt><trkpt lat="42.024827764496564" lon="19.995781737237646"><ele>432.0</ele><time>2026-05-04T07:43:49Z</time></trkpt><trkpt lat="42.02488839169643" lon="19.995935661406687"><ele>432.0</ele><time>2026-05-04T07:43:50Z</time></trkpt><trkpt lat="42.02495946257852" lon="19.996071019377293"><ele>432.0</ele><time>2026-05-04T07:43:51Z</time></trkpt><trkpt lat="42.0250507277847" lon="19.99617248830251"><ele>434.75</ele><time>2026-05-04T07:43:52Z</time></trkpt><trkpt lat="42.02516807164083" lon="19.996253620640665"><ele>437.5</ele><time>2026-05-04T07:43:53Z</time></trkpt><trkpt lat="42.02529524085609" lon="19.996320444591"><ele>440.25</ele><time>2026-05-04T07:43:54Z</time></trkpt><trkpt lat="42.02542500374428" lon="19.996384512805164"><ele>443.0</ele><time>2026-05-04T07:43:55Z</time></trkpt><trkpt lat="42.02556088229244" lon="19.99643800427011"><ele>443.0</ele><time>2026-05-04T07:43:56Z</time></trkpt><trkpt lat="42.02570356981636" lon="19.99647049827265"><ele>443.0</ele><time>2026-05-04T07:43:57Z</time></trkpt><trkpt lat="42.025844983614384" lon="19.99648174207448"><ele>443.0</ele><time>2026-05-04T07:43:58Z</time></trkpt><trkpt lat="42.025989721367715" lon="19.99647918335582"><ele>443.0</ele><time>2026-05-04T07:43:59Z</time></trkpt><trkpt lat="42.02613865834531" lon="19.996464803021578"><ele>446.3333333333333</ele><time>2026-05-04T07:44:00Z</time></trkpt><trkpt lat="42.02628960487751" lon="19.996445175800403"><ele>449.66666666666663</ele><time>2026-05-04T07:44:01Z</time></trkpt><trkpt lat="42.02644421744847" lon="19.99644590898136"><ele>453.0</ele><time>2026-05-04T07:44:02Z</time></trkpt><trkpt lat="42.02660912570165" lon="19.996509078137848"><ele>453.33333333333337</ele><time>2026-05-04T07:44:03Z</time></trkpt><trkpt lat="42.026778191327914" lon="19.996621303692258"><ele>453.6666666666667</ele><time>2026-05-04T07:44:04Z</time></trkpt><trkpt lat="42.026960163099396" lon="19.996742316465774"><ele>454.0</ele><time>2026-05-04T07:44:05Z</time></trkpt><trkpt lat="42.027143579852016" lon="19.996854830794774"><ele>452.0</ele><time>2026-05-04T07:44:06Z</time></trkpt><trkpt lat="42.02733657275238" lon="19.996975872096044"><ele>450.0</ele><time>2026-05-04T07:44:07Z</time></trkpt><trkpt lat="42.02752978140423" lon="19.997117404069137"><ele>448.0</ele><time>2026-05-04T07:44:08Z</time></trkpt><trkpt lat="42.02771754537643" lon="19.99727326704978"><ele>448.0</ele><time>2026-05-04T07:44:09Z</time></trkpt><trkpt lat="42.027877840226644" lon="19.997397053631406"><ele>448.0</ele><time>2026-05-04T07:44:10Z</time></trkpt><trkpt lat="42.02802366153812" lon="19.9975200558992"><ele>448.0</ele><time>2026-05-04T07:44:11Z</time></trkpt><trkpt lat="42.028135111506444" lon="19.997654103147415"><ele>447.75</ele><time>2026-05-04T07:44:12Z</time></trkpt><trkpt lat="42.02821289566134" lon="19.99780889879174"><ele>447.5</ele><time>2026-05-04T07:44:13Z</time></trkpt><trkpt lat="42.02825508983021" lon="19.99797590472017"><ele>447.25</ele><time>2026-05-04T07:44:14Z</time></trkpt><trkpt lat="42.028302275242865" lon="19.99809688260097"><ele>447.0</ele><time>2026-05-04T07:44:15Z</time></trkpt><trkpt lat="42.02839745580403" lon="19.99817084026643"><ele>447.0</ele><time>2026-05-04T07:44:16Z</time></trkpt><trkpt lat="42.0285429415133" lon="19.99820572099575"><ele>447.0</ele><time>2026-05-04T07:44:17Z</time></trkpt><trkpt lat="42.02871063239089" lon="19.998229624959308"><ele>447.0</ele><time>2026-05-04T07:44:18Z</time></trkpt><trkpt lat="42.02889208085644" lon="19.998295411706724"><ele>446.66666666666663</ele><time>2026-05-04T07:44:19Z</time></trkpt><trkpt lat="42.029069896667885" lon="19.99839307033061"><ele>446.3333333333333</ele><time>2026-05-04T07:44:20Z</time></trkpt><trkpt lat="42.02925240051595" lon="19.99850079533505"><ele>446.0</ele><time>2026-05-04T07:44:21Z</time></trkpt><trkpt lat="42.029430774216294" lon="19.99860488799063"><ele>446.0</ele><time>2026-05-04T07:44:22Z</time></trkpt><trkpt lat="42.0295914481067" lon="19.998698375998234"><ele>446.0</ele><time>2026-05-04T07:44:23Z</time></trkpt><trkpt lat="42.02973122807292" lon="19.998771742850543"><ele>446.0</ele><time>2026-05-04T07:44:24Z</time></trkpt><trkpt lat="42.02985308845023" lon="19.998824419305464"><ele>446.0</ele><time>2026-05-04T07:44:25Z</time></trkpt><trkpt lat="42.02996555428277" lon="19.99883162716681"><ele>446.0</ele><time>2026-05-04T07:44:26Z</time></trkpt><trkpt lat="42.03008739494585" lon="19.998769059087884"><ele>446.0</ele><time>2026-05-04T07:44:27Z</time></trkpt><trkpt lat="42.0302190029864" lon="19.9986416212276"><ele>446.0</ele><time>2026-05-04T07:44:28Z</time></trkpt><trkpt lat="42.03035859362785" lon="19.998474635557933"><ele>447.0</ele><time>2026-05-04T07:44:29Z</time></trkpt><trkpt lat="42.03049901518123" lon="19.9982949335601"><ele>448.0</ele><time>2026-05-04T07:44:30Z</time></trkpt><trkpt lat="42.03065139630676" lon="19.99810488419817"><ele>449.0</ele><time>2026-05-04T07:44:31Z</time></trkpt><trkpt lat="42.03081114213168" lon="19.997930308020596"><ele>449.0</ele><time>2026-05-04T07:44:32Z</time></trkpt><trkpt lat="42.03096035860874" lon="19.99780715856381"><ele>449.0</ele><time>2026-05-04T07:44:33Z</time></trkpt><trkpt lat="42.031109609672555" lon="19.9977213175434"><ele>449.0</ele><time>2026-05-04T07:44:34Z</time></trkpt><trkpt lat="42.03127370980805" lon="19.997651210471222"><ele>449.0</ele><time>2026-05-04T07:44:35Z</time></trkpt><trkpt lat="42.0314644918803" lon="19.99759782948275"><ele>449.0</ele><time>2026-05-04T07:44:36Z</time></trkpt><trkpt lat="42.03166902346957" lon="19.997586255626874"><ele>449.0</ele><time>2026-05-04T07:44:37Z</time></trkpt><trkpt lat="42.03187704200256" lon="19.99762269912563"><ele>451.66666666666663</ele><time>2026-05-04T07:44:38Z</time></trkpt><trkpt lat="42.03207370607972" lon="19.997702587299433"><ele>454.33333333333337</ele><time>2026-05-04T07:44:39Z</time></trkpt><trkpt lat="42.03224645199237" lon="19.997777902737763"><ele>457.0</ele><time>2026-05-04T07:44:40Z</time></trkpt><trkpt lat="42.03240102442893" lon="19.99781168162634"><ele>460.33333333333337</ele><time>2026-05-04T07:44:41Z</time></trkpt><trkpt lat="42.03254979485303" lon="19.997800164912423"><ele>463.66666666666663</ele><time>2026-05-04T07:44:42Z</time></trkpt><trkpt lat="42.032697864190055" lon="19.997750572745865"><ele>467.0</ele><time>2026-05-04T07:44:43Z</time></trkpt><trkpt lat="42.032859132861496" lon="19.99764467229004"><ele>467.0</ele><time>2026-05-04T07:44:44Z</time></trkpt><trkpt lat="42.03303237603765" lon="19.99750597311045"><ele>467.0</ele><time>2026-05-04T07:44:44.999Z</time></trkpt><trkpt lat="42.0332308877962" lon="19.997377942677286"><ele>467.0</ele><time>2026-05-04T07:44:45.999Z</time></trkpt><trkpt lat="42.03344968601688" lon="19.997267062284937"><ele>462.0</ele><time>2026-05-04T07:44:46.999Z</time></trkpt><trkpt lat="42.03364034821199" lon="19.9971941268867"><ele>457.0</ele><time>2026-05-04T07:44:47.999Z</time></trkpt><trkpt lat="42.03380299630281" lon="19.997153718985693"><ele>452.0</ele><time>2026-05-04T07:44:48.999Z</time></trkpt><trkpt lat="42.0339547908519" lon="19.99715103980957"><ele>452.0</ele><time>2026-05-04T07:44:49.999Z</time></trkpt><trkpt lat="42.03410711099674" lon="19.997195089494657"><ele>452.0</ele><time>2026-05-04T07:44:50.999Z</time></trkpt><trkpt lat="42.0342505515499" lon="19.997303255431994"><ele>452.0</ele><time>2026-05-04T07:44:51.999Z</time></trkpt><trkpt lat="42.034386869417105" lon="19.997472732136995"><ele>451.0</ele><time>2026-05-04T07:44:52.999Z</time></trkpt><trkpt lat="42.03452569279491" lon="19.99766958415971"><ele>450.0</ele><time>2026-05-04T07:44:53.999Z</time></trkpt><trkpt lat="42.03466727436632" lon="19.99787125307642"><ele>449.0</ele><time>2026-05-04T07:44:54.999Z</time></trkpt><trkpt lat="42.03480297598215" lon="19.998058006175405"><ele>449.0</ele><time>2026-05-04T07:44:55.999Z</time></trkpt><trkpt lat="42.03494396102291" lon="19.99818714807241"><ele>449.0</ele><time>2026-05-04T07:44:56.999Z</time></trkpt><trkpt lat="42.035110412659535" lon="19.998250873182307"><ele>449.0</ele><time>2026-05-04T07:44:57.999Z</time></trkpt><trkpt lat="42.03529291360538" lon="19.998282646027494"><ele>452.3333333333333</ele><time>2026-05-04T07:44:58.999Z</time></trkpt><trkpt lat="42.0354744661887" lon="19.99828156139471"><ele>455.66666666666663</ele><time>2026-05-04T07:44:59.999Z</time></trkpt><trkpt lat="42.03564161219893" lon="19.99821707122362"><ele>459.0</ele><time>2026-05-04T07:45:00.999Z</time></trkpt><trkpt lat="42.0357910422241" lon="19.9981903963125"><ele>459.33333333333337</ele><time>2026-05-04T07:45:01.999Z</time></trkpt><trkpt lat="42.03593763825747" lon="19.99825173722318"><ele>459.6666666666667</ele><time>2026-05-04T07:45:02.999Z</time></trkpt><trkpt lat="42.036068920817094" lon="19.99839185240794"><ele>460.0</ele><time>2026-05-04T07:45:03.999Z</time></trkpt><trkpt lat="42.036205104166875" lon="19.99852567801624"><ele>460.0</ele><time>2026-05-04T07:45:04.999Z</time></trkpt><trkpt lat="42.03635903813495" lon="19.998614027583645"><ele>460.0</ele><time>2026-05-04T07:45:05.999Z</time></trkpt><trkpt lat="42.0365270937994" lon="19.9986968781906"><ele>460.0</ele><time>2026-05-04T07:45:06.999Z</time></trkpt><trkpt lat="42.03668568378029" lon="19.998766789899456"><ele>460.75</ele><time>2026-05-04T07:45:07.999Z</time></trkpt><trkpt lat="42.03681374008551" lon="19.998783497249452"><ele>461.5</ele><time>2026-05-04T07:45:08.999Z</time></trkpt><trkpt lat="42.03693316880914" lon="19.998726294514462"><ele>462.25</ele><time>2026-05-04T07:45:09.999Z</time></trkpt><trkpt lat="42.03705263718866" lon="19.998603758456575"><ele>463.0</ele><time>2026-05-04T07:45:10.999Z</time></trkpt><trkpt lat="42.03718005544666" lon="19.998446466355972"><ele>465.33333333333337</ele><time>2026-05-04T07:45:11.999Z</time></trkpt><trkpt lat="42.0373468357715" lon="19.99832443755013"><ele>467.66666666666663</ele><time>2026-05-04T07:45:12.999Z</time></trkpt><trkpt lat="42.03754945770396" lon="19.998255923111905"><ele>470.0</ele><time>2026-05-04T07:45:13.999Z</time></trkpt><trkpt lat="42.037771360995315" lon="19.998234481432643"><ele>470.0</ele><time>2026-05-04T07:45:14.999Z</time></trkpt><trkpt lat="42.03796019351204" lon="19.99821145881995"><ele>470.0</ele><time>2026-05-04T07:45:15.999Z</time></trkpt><trkpt lat="42.03813434313382" lon="19.99811633567505"><ele>470.0</ele><time>2026-05-04T07:45:16.999Z</time></trkpt><trkpt lat="42.038295242522956" lon="19.99795929559658"><ele>473.0</ele><time>2026-05-04T07:45:17.999Z</time></trkpt><trkpt lat="42.03844460473259" lon="19.99776360073741"><ele>476.0</ele><time>2026-05-04T07:45:18.999Z</time></trkpt><trkpt lat="42.038577571464685" lon="19.997562551602847"><ele>479.0</ele><time>2026-05-04T07:45:19.999Z</time></trkpt><trkpt lat="42.03867647379416" lon="19.997352568930953"><ele>479.0</ele><time>2026-05-04T07:45:20.999Z</time></trkpt><trkpt lat="42.03874205015508" lon="19.997103518447673"><ele>479.0</ele><time>2026-05-04T07:45:21.999Z</time></trkpt><trkpt lat="42.03879800401027" lon="19.996838215133884"><ele>479.0</ele><time>2026-05-04T07:45:22.999Z</time></trkpt><trkpt lat="42.038876242767564" lon="19.99658810948531"><ele>473.66666666666663</ele><time>2026-05-04T07:45:23.999Z</time></trkpt><trkpt lat="42.038977834862365" lon="19.996375098316776"><ele>468.33333333333337</ele><time>2026-05-04T07:45:24.999Z</time></trkpt><trkpt lat="42.03911182041919" lon="19.99620798716232"><ele>463.0</ele><time>2026-05-04T07:45:25.999Z</time></trkpt><trkpt lat="42.03927726064082" lon="19.996081171012648"><ele>463.0</ele><time>2026-05-04T07:45:26.999Z</time></trkpt><trkpt lat="42.0394625484887" lon="19.99598258327036"><ele>463.0</ele><time>2026-05-04T07:45:27.999Z</time></trkpt><trkpt lat="42.03966671764769" lon="19.99591660304903"><ele>463.0</ele><time>2026-05-04T07:45:28.999Z</time></trkpt><trkpt lat="42.03987999129628" lon="19.995916146448966"><ele>463.33333333333337</ele><time>2026-05-04T07:45:29.999Z</time></trkpt><trkpt lat="42.04009641814452" lon="19.995954946965757"><ele>463.66666666666663</ele><time>2026-05-04T07:45:31Z</time></trkpt><trkpt lat="42.04030887420231" lon="19.996031765497253"><ele>464.0</ele><time>2026-05-04T07:45:32Z</time></trkpt><trkpt lat="42.040482167895874" lon="19.996121747289912"><ele>464.0</ele><time>2026-05-04T07:45:33Z</time></trkpt><trkpt lat="42.04062389747563" lon="19.996252665397034"><ele>464.0</ele><time>2026-05-04T07:45:34Z</time></trkpt><trkpt lat="42.04071822131612" lon="19.996392526068387"><ele>464.0</ele><time>2026-05-04T07:45:35Z</time></trkpt><trkpt lat="42.04084176694451" lon="19.996458676157413"><ele>464.0</ele><time>2026-05-04T07:45:36Z</time></trkpt><trkpt lat="42.041028257049256" lon="19.996438240726306"><ele>463.3333333333333</ele><time>2026-05-04T07:45:37Z</time></trkpt><trkpt lat="42.04124304399068" lon="19.996404107154643"><ele>462.66666666666663</ele><time>2026-05-04T07:45:38Z</time></trkpt><trkpt lat="42.041466997798835" lon="19.996393054013367"><ele>462.0</ele><time>2026-05-04T07:45:39Z</time></trkpt><trkpt lat="42.04168608031327" lon="19.99640042919262"><ele>465.5</ele><time>2026-05-04T07:45:40Z</time></trkpt><trkpt lat="42.04191069410753" lon="19.996437292993694"><ele>469.0</ele><time>2026-05-04T07:45:41Z</time></trkpt><trkpt lat="42.04215125107295" lon="19.996495179589058"><ele>469.0</ele><time>2026-05-04T07:45:42Z</time></trkpt><trkpt lat="42.0423967313839" lon="19.996536968477837"><ele>469.0</ele><time>2026-05-04T07:45:43Z</time></trkpt><trkpt lat="42.04264815235899" lon="19.99655312251772"><ele>473.0</ele><time>2026-05-04T07:45:44Z</time></trkpt><trkpt lat="42.04290025292279" lon="19.996544284167857"><ele>477.0</ele><time>2026-05-04T07:45:45Z</time></trkpt><trkpt lat="42.04314987323449" lon="19.996510653717145"><ele>479.33333333333337</ele><time>2026-05-04T07:45:46Z</time></trkpt><trkpt lat="42.04336593984456" lon="19.996478528284335"><ele>481.6666666666667</ele><time>2026-05-04T07:45:47Z</time></trkpt><trkpt lat="42.04356068917277" lon="19.9964945039219"><ele>484.0</ele><time>2026-05-04T07:45:48Z</time></trkpt><trkpt lat="42.043743662598885" lon="19.99655461973491"><ele>484.0</ele><time>2026-05-04T07:45:49Z</time></trkpt><trkpt lat="42.04391952473344" lon="19.996642365626418"><ele>484.0</ele><time>2026-05-04T07:45:50Z</time></trkpt><trkpt lat="42.04407187344575" lon="19.99674260429699"><ele>484.0</ele><time>2026-05-04T07:45:51Z</time></trkpt><trkpt lat="42.04420066974025" lon="19.996829588486428"><ele>480.33333333333337</ele><time>2026-05-04T07:45:52Z</time></trkpt><trkpt lat="42.04434029049543" lon="19.99687044723187"><ele>476.66666666666663</ele><time>2026-05-04T07:45:53Z</time></trkpt><trkpt lat="42.04448997776292" lon="19.996866685494304"><ele>473.0</ele><time>2026-05-04T07:45:54Z</time></trkpt><trkpt lat="42.04465036990497" lon="19.996795928626696"><ele>473.0</ele><time>2026-05-04T07:45:55Z</time></trkpt><trkpt lat="42.04482361427516" lon="19.99668238212901"><ele>473.0</ele><time>2026-05-04T07:45:56Z</time></trkpt><trkpt lat="42.045005597610746" lon="19.99657116797418"><ele>473.0</ele><time>2026-05-04T07:45:57Z</time></trkpt><trkpt lat="42.0451982423282" lon="19.996459984490063"><ele>475.3333333333333</ele><time>2026-05-04T07:45:58Z</time></trkpt><trkpt lat="42.0454051795902" lon="19.996399933016296"><ele>477.66666666666663</ele><time>2026-05-04T07:45:59Z</time></trkpt><trkpt lat="42.04562839829636" lon="19.996410354663592"><ele>480.0</ele><time>2026-05-04T07:46:00Z</time></trkpt><trkpt lat="42.04585501220903" lon="19.996464706870796"><ele>480.0</ele><time>2026-05-04T07:46:01Z</time></trkpt><trkpt lat="42.046074659732064" lon="19.9965274669759"><ele>480.0</ele><time>2026-05-04T07:46:02Z</time></trkpt><trkpt lat="42.04628932425576" lon="19.996592732720178"><ele>480.0</ele><time>2026-05-04T07:46:03Z</time></trkpt><trkpt lat="42.04649034899656" lon="19.996693006825964"><ele>483.0</ele><time>2026-05-04T07:46:04Z</time></trkpt><trkpt lat="42.04666061559316" lon="19.996793906179654"><ele>486.0</ele><time>2026-05-04T07:46:05Z</time></trkpt><trkpt lat="42.04683216504917" lon="19.996845934811187"><ele>489.0</ele><time>2026-05-04T07:46:06Z</time></trkpt><trkpt lat="42.04702537582098" lon="19.996838907608645"><ele>489.0</ele><time>2026-05-04T07:46:07Z</time></trkpt><trkpt lat="42.04723003103805" lon="19.996807497665547"><ele>489.0</ele><time>2026-05-04T07:46:08Z</time></trkpt><trkpt lat="42.047443154457056" lon="19.996754602126945"><ele>489.0</ele><time>2026-05-04T07:46:08.999Z</time></trkpt><trkpt lat="42.04766307607967" lon="19.996672569401426"><ele>489.0</ele><time>2026-05-04T07:46:09.999Z</time></trkpt><trkpt lat="42.0478826087409" lon="19.996588585868775"><ele>489.0</ele><time>2026-05-04T07:46:10.999Z</time></trkpt><trkpt lat="42.04809648007803" lon="19.996504049697972"><ele>489.0</ele><time>2026-05-04T07:46:11.999Z</time></trkpt><trkpt lat="42.04828499869439" lon="19.996411229507014"><ele>489.0</ele><time>2026-05-04T07:46:12.999Z</time></trkpt><trkpt lat="42.048447754733004" lon="19.99627920685547"><ele>489.0</ele><time>2026-05-04T07:46:13.999Z</time></trkpt><trkpt lat="42.04860700262764" lon="19.996138367742375"><ele>490.0</ele><time>2026-05-04T07:46:14.999Z</time></trkpt><trkpt lat="42.04877391956223" lon="19.996006533297468"><ele>491.0</ele><time>2026-05-04T07:46:15.999Z</time></trkpt><trkpt lat="42.04893531541438" lon="19.995873235875557"><ele>492.0</ele><time>2026-05-04T07:46:16.999Z</time></trkpt><trkpt lat="42.04908773935471" lon="19.995731628643767"><ele>496.0</ele><time>2026-05-04T07:46:17.999Z</time></trkpt><trkpt lat="42.04922889608764" lon="19.995582153713286"><ele>500.0</ele><time>2026-05-04T07:46:18.999Z</time></trkpt><trkpt lat="42.0493596663536" lon="19.995431802828225"><ele>504.0</ele><time>2026-05-04T07:46:19.999Z</time></trkpt><trkpt lat="42.04949685384571" lon="19.99529005949845"><ele>504.0</ele><time>2026-05-04T07:46:20.999Z</time></trkpt><trkpt lat="42.04965494739719" lon="19.995154748823385"><ele>504.0</ele><time>2026-05-04T07:46:21.999Z</time></trkpt><trkpt lat="42.049823116814416" lon="19.995015565351938"><ele>504.0</ele><time>2026-05-04T07:46:22.999Z</time></trkpt><trkpt lat="42.04998928978624" lon="19.994863282503307"><ele>504.66666666666663</ele><time>2026-05-04T07:46:23.999Z</time></trkpt><trkpt lat="42.05015605720063" lon="19.994697928186927"><ele>505.3333333333333</ele><time>2026-05-04T07:46:24.999Z</time></trkpt><trkpt lat="42.05033490471505" lon="19.994550931232844"><ele>506.0</ele><time>2026-05-04T07:46:25.999Z</time></trkpt><trkpt lat="42.05053300987714" lon="19.99444536210331"><ele>506.0</ele><time>2026-05-04T07:46:26.999Z</time></trkpt><trkpt lat="42.05072932215162" lon="19.994385989577427"><ele>506.0</ele><time>2026-05-04T07:46:27.999Z</time></trkpt><trkpt lat="42.050900417922314" lon="19.994344966647397"><ele>506.0</ele><time>2026-05-04T07:46:28.999Z</time></trkpt><trkpt lat="42.05105279698768" lon="19.994255523386272"><ele>510.66666666666663</ele><time>2026-05-04T07:46:29.999Z</time></trkpt><trkpt lat="42.0511831968138" lon="19.994096410799802"><ele>515.3333333333334</ele><time>2026-05-04T07:46:30.999Z</time></trkpt><trkpt lat="42.05130020116056" lon="19.99391593243684"><ele>520.0</ele><time>2026-05-04T07:46:31.999Z</time></trkpt><trkpt lat="42.051379714627636" lon="19.993748445828118"><ele>520.0</ele><time>2026-05-04T07:46:32.999Z</time></trkpt><trkpt lat="42.0514241205829" lon="19.993557684845168"><ele>520.0</ele><time>2026-05-04T07:46:33.999Z</time></trkpt><trkpt lat="42.05143272066132" lon="19.993336300004156"><ele>520.0</ele><time>2026-05-04T07:46:34.999Z</time></trkpt><trkpt lat="42.05141933664735" lon="19.993103782678403"><ele>526.6666666666667</ele><time>2026-05-04T07:46:35.999Z</time></trkpt><trkpt lat="42.0514115997588" lon="19.99286791924682"><ele>533.3333333333334</ele><time>2026-05-04T07:46:36.999Z</time></trkpt><trkpt lat="42.05143874389987" lon="19.992639274326077"><ele>540.0</ele><time>2026-05-04T07:46:37.999Z</time></trkpt><trkpt lat="42.05150538542973" lon="19.99241253193148"><ele>544.0</ele><time>2026-05-04T07:46:38.999Z</time></trkpt><trkpt lat="42.05160428028167" lon="19.992211765963628"><ele>548.0</ele><time>2026-05-04T07:46:39.999Z</time></trkpt><trkpt lat="42.05170978683389" lon="19.992042537389377"><ele>552.0</ele><time>2026-05-04T07:46:40.999Z</time></trkpt><trkpt lat="42.05180136233929" lon="19.99189702094089"><ele>550.6</ele><time>2026-05-04T07:46:41.999Z</time></trkpt><trkpt lat="42.05188154533662" lon="19.991765730804342"><ele>549.2</ele><time>2026-05-04T07:46:42.999Z</time></trkpt><trkpt lat="42.05194824076801" lon="19.991660652772378"><ele>547.8</ele><time>2026-05-04T07:46:43.999Z</time></trkpt><trkpt lat="42.05199978818152" lon="19.991597157689966"><ele>546.4</ele><time>2026-05-04T07:46:44.999Z</time></trkpt><trkpt lat="42.05210843565068" lon="19.991563777812953"><ele>545.0</ele><time>2026-05-04T07:46:46.999Z</time></trkpt><trkpt lat="42.052185898196186" lon="19.99158448533624"><ele>545.0</ele><time>2026-05-04T07:46:47.999Z</time></trkpt><trkpt lat="42.052276493243404" lon="19.991643316223183"><ele>545.0</ele><time>2026-05-04T07:46:48.999Z</time></trkpt><trkpt lat="42.0523710421133" lon="19.991751251902542"><ele>545.0</ele><time>2026-05-04T07:46:49.999Z</time></trkpt><trkpt lat="42.0524666216725" lon="19.99189534658767"><ele>545.0</ele><time>2026-05-04T07:46:50.999Z</time></trkpt><trkpt lat="42.05254298059783" lon="19.992055181277816"><ele>541.75</ele><time>2026-05-04T07:46:51.999Z</time></trkpt><trkpt lat="42.05257856030172" lon="19.9922065706339"><ele>538.5</ele><time>2026-05-04T07:46:52.999Z</time></trkpt><trkpt lat="42.05255812452025" lon="19.992341350903303"><ele>535.25</ele><time>2026-05-04T07:46:53.999Z</time></trkpt><trkpt lat="42.05249183548691" lon="19.992472991181053"><ele>532.0</ele><time>2026-05-04T07:46:54.999Z</time></trkpt><trkpt lat="42.05240752315934" lon="19.992620657368214"><ele>528.0</ele><time>2026-05-04T07:46:55.999Z</time></trkpt><trkpt lat="42.052321012243496" lon="19.992791829685125"><ele>524.0</ele><time>2026-05-04T07:46:56.999Z</time></trkpt><trkpt lat="42.05223588306674" lon="19.992988797740498"><ele>520.0</ele><time>2026-05-04T07:46:57.999Z</time></trkpt><trkpt lat="42.05216205523414" lon="19.99319802094374"><ele>519.6666666666667</ele><time>2026-05-04T07:46:58.999Z</time></trkpt><trkpt lat="42.052103815687985" lon="19.993412202550655"><ele>519.3333333333334</ele><time>2026-05-04T07:46:59.999Z</time></trkpt><trkpt lat="42.052074518933566" lon="19.993617357512797"><ele>519.0</ele><time>2026-05-04T07:47:00.999Z</time></trkpt><trkpt lat="42.052090011193926" lon="19.99382932917945"><ele>519.0</ele><time>2026-05-04T07:47:01.999Z</time></trkpt><trkpt lat="42.052143698505155" lon="19.99404364858663"><ele>519.0</ele><time>2026-05-04T07:47:02.999Z</time></trkpt><trkpt lat="42.05218248342588" lon="19.994266996250225"><ele>519.0</ele><time>2026-05-04T07:47:03.999Z</time></trkpt><trkpt lat="42.05216195584874" lon="19.994483022783164"><ele>522.0</ele><time>2026-05-04T07:47:04.999Z</time></trkpt><trkpt lat="42.05208984768077" lon="19.994678421278167"><ele>525.0</ele><time>2026-05-04T07:47:05.999Z</time></trkpt><trkpt lat="42.051976489890635" lon="19.99485668021966"><ele>528.0</ele><time>2026-05-04T07:47:06.999Z</time></trkpt><trkpt lat="42.0518459516194" lon="19.99503839050069"><ele>527.3333333333334</ele><time>2026-05-04T07:47:07.999Z</time></trkpt><trkpt lat="42.051716154163685" lon="19.995246727318506"><ele>526.6666666666667</ele><time>2026-05-04T07:47:08.999Z</time></trkpt><trkpt lat="42.05158052750772" lon="19.99546804722828"><ele>526.0</ele><time>2026-05-04T07:47:09.999Z</time></trkpt><trkpt lat="42.05143624045298" lon="19.995683215505665"><ele>534.0</ele><time>2026-05-04T07:47:10.999Z</time></trkpt><trkpt lat="42.0512648331634" lon="19.995871695503837"><ele>542.0</ele><time>2026-05-04T07:47:11.999Z</time></trkpt><trkpt lat="42.05108317649211" lon="19.99601908253776"><ele>550.0</ele><time>2026-05-04T07:47:12.999Z</time></trkpt><trkpt lat="42.050918358438864" lon="19.99620091658186"><ele>550.0</ele><time>2026-05-04T07:47:13.999Z</time></trkpt><trkpt lat="42.05080049824427" lon="19.996413634472365"><ele>550.0</ele><time>2026-05-04T07:47:14.999Z</time></trkpt><trkpt lat="42.0506851000691" lon="19.996581680171765"><ele>550.0</ele><time>2026-05-04T07:47:15.999Z</time></trkpt><trkpt lat="42.05054655464618" lon="19.996690933935533"><ele>549.75</ele><time>2026-05-04T07:47:16.999Z</time></trkpt><trkpt lat="42.05039073824557" lon="19.99674621051159"><ele>549.5</ele><time>2026-05-04T07:47:17.999Z</time></trkpt><trkpt lat="42.05025922106713" lon="19.99681489762726"><ele>549.25</ele><time>2026-05-04T07:47:18.999Z</time></trkpt><trkpt lat="42.05017705551585" lon="19.99694841154026"><ele>549.0</ele><time>2026-05-04T07:47:19.999Z</time></trkpt><trkpt lat="42.05012857676663" lon="19.99714282268636"><ele>549.0</ele><time>2026-05-04T07:47:20.999Z</time></trkpt><trkpt lat="42.05009431486053" lon="19.997361244526456"><ele>549.0</ele><time>2026-05-04T07:47:21.999Z</time></trkpt><trkpt lat="42.050037839996165" lon="19.997553309983644"><ele>549.0</ele><time>2026-05-04T07:47:22.999Z</time></trkpt><trkpt lat="42.04993995462176" lon="19.99767135909871"><ele>547.3333333333334</ele><time>2026-05-04T07:47:23.999Z</time></trkpt><trkpt lat="42.04980836222953" lon="19.99774199233052"><ele>545.6666666666667</ele><time>2026-05-04T07:47:24.999Z</time></trkpt><trkpt lat="42.04964339094812" lon="19.997791827790067"><ele>544.0</ele><time>2026-05-04T07:47:25.999Z</time></trkpt><trkpt lat="42.04947305608153" lon="19.99785119711356"><ele>544.0</ele><time>2026-05-04T07:47:26.999Z</time></trkpt><trkpt lat="42.04929867408953" lon="19.997936707389158"><ele>544.0</ele><time>2026-05-04T07:47:27.999Z</time></trkpt><trkpt lat="42.049137411937124" lon="19.99802381828513"><ele>544.0</ele><time>2026-05-04T07:47:28.999Z</time></trkpt><trkpt lat="42.048994427026564" lon="19.998081315272184"><ele>538.8</ele><time>2026-05-04T07:47:29.999Z</time></trkpt><trkpt lat="42.048877885095564" lon="19.99812764469858"><ele>533.5999999999999</ele><time>2026-05-04T07:47:30.999Z</time></trkpt><trkpt lat="42.048791595102394" lon="19.998204745682862"><ele>528.4</ele><time>2026-05-04T07:47:31.999Z</time></trkpt><trkpt lat="42.048747005843744" lon="19.998324274106107"><ele>523.1999999999999</ele><time>2026-05-04T07:47:32.999Z</time></trkpt><trkpt lat="42.048749719604714" lon="19.99846991645102"><ele>518.0</ele><time>2026-05-04T07:47:33.999Z</time></trkpt><trkpt lat="42.04880464187802" lon="19.99863243596124"><ele>513.3333333333333</ele><time>2026-05-04T07:47:34.999Z</time></trkpt><trkpt lat="42.04890122963518" lon="19.99879185682677"><ele>508.66666666666663</ele><time>2026-05-04T07:47:35.999Z</time></trkpt><trkpt lat="42.049007783014915" lon="19.99896728011947"><ele>504.0</ele><time>2026-05-04T07:47:37Z</time></trkpt><trkpt lat="42.049095239152784" lon="19.999193903298"><ele>508.0</ele><time>2026-05-04T07:47:38Z</time></trkpt><trkpt lat="42.04916437593254" lon="19.999435428058757"><ele>512.0</ele><time>2026-05-04T07:47:39Z</time></trkpt><trkpt lat="42.049219048159316" lon="19.99963323240949"><ele>516.0</ele><time>2026-05-04T07:47:40Z</time></trkpt><trkpt lat="42.04928186175483" lon="19.99976246534382"><ele>516.0</ele><time>2026-05-04T07:47:41Z</time></trkpt><trkpt lat="42.049364236948456" lon="19.999841432422453"><ele>516.0</ele><time>2026-05-04T07:47:42Z</time></trkpt><trkpt lat="42.04946690986438" lon="19.999866333296247"><ele>516.0</ele><time>2026-05-04T07:47:43Z</time></trkpt><trkpt lat="42.04957398040877" lon="19.999821876870385"><ele>516.0</ele><time>2026-05-04T07:47:44Z</time></trkpt><trkpt lat="42.04967902212426" lon="19.999710574271464"><ele>516.0</ele><time>2026-05-04T07:47:45Z</time></trkpt><trkpt lat="42.049781676100224" lon="19.999557043690558"><ele>516.0</ele><time>2026-05-04T07:47:46Z</time></trkpt><trkpt lat="42.04989794532965" lon="19.99939793271335"><ele>516.0</ele><time>2026-05-04T07:47:47Z</time></trkpt><trkpt lat="42.0500368962667" lon="19.99925648071398"><ele>523.0</ele><time>2026-05-04T07:47:48Z</time></trkpt><trkpt lat="42.050198443178296" lon="19.999133500552258"><ele>530.0</ele><time>2026-05-04T07:47:49Z</time></trkpt><trkpt lat="42.050382785513776" lon="19.999038709494442"><ele>537.0</ele><time>2026-05-04T07:47:50Z</time></trkpt><trkpt lat="42.05057832892967" lon="19.998955348927165"><ele>537.0</ele><time>2026-05-04T07:47:51Z</time></trkpt><trkpt lat="42.05077730543393" lon="19.99886275765838"><ele>537.0</ele><time>2026-05-04T07:47:52Z</time></trkpt><trkpt lat="42.050967599323606" lon="19.99876215921165"><ele>537.0</ele><time>2026-05-04T07:47:53Z</time></trkpt><trkpt lat="42.05115277715019" lon="19.998672067809643"><ele>525.3333333333334</ele><time>2026-05-04T07:47:54Z</time></trkpt><trkpt lat="42.051337192417726" lon="19.998608788339737"><ele>513.6666666666667</ele><time>2026-05-04T07:47:55Z</time></trkpt><trkpt lat="42.05152192616171" lon="19.99856697617351"><ele>502.0</ele><time>2026-05-04T07:47:56Z</time></trkpt><trkpt lat="42.05169245799209" lon="19.99854032509179"><ele>498.25</ele><time>2026-05-04T07:47:57Z</time></trkpt><trkpt lat="42.05184985947414" lon="19.998522728179655"><ele>494.5</ele><time>2026-05-04T07:47:58Z</time></trkpt><trkpt lat="42.05198106348875" lon="19.998484219436957"><ele>490.75</ele><time>2026-05-04T07:47:59Z</time></trkpt><trkpt lat="42.05209110580955" lon="19.998392093076042"><ele>487.0</ele><time>2026-05-04T07:48:00Z</time></trkpt><trkpt lat="42.05218552859459" lon="19.998244398419576"><ele>499.33333333333337</ele><time>2026-05-04T07:48:01Z</time></trkpt><trkpt lat="42.05227297228444" lon="19.998058297104475"><ele>511.66666666666663</ele><time>2026-05-04T07:48:02Z</time></trkpt><trkpt lat="42.052350862148664" lon="19.99787328698734"><ele>524.0</ele><time>2026-05-04T07:48:03Z</time></trkpt><trkpt lat="42.05244892553452" lon="19.997708256781234"><ele>516.0</ele><time>2026-05-04T07:48:04Z</time></trkpt><trkpt lat="42.05255897759868" lon="19.99759651091446"><ele>508.0</ele><time>2026-05-04T07:48:05Z</time></trkpt><trkpt lat="42.052683291016535" lon="19.997531074062124"><ele>500.0</ele><time>2026-05-04T07:48:06Z</time></trkpt><trkpt lat="42.05281611019545" lon="19.99751512838381"><ele>492.0</ele><time>2026-05-04T07:48:07Z</time></trkpt><trkpt lat="42.05295347805007" lon="19.997550364454824"><ele>492.0</ele><time>2026-05-04T07:48:08Z</time></trkpt><trkpt lat="42.05310366076647" lon="19.997623765379917"><ele>492.0</ele><time>2026-05-04T07:48:09Z</time></trkpt><trkpt lat="42.05325814489077" lon="19.99770139933642"><ele>492.0</ele><time>2026-05-04T07:48:10Z</time></trkpt><trkpt lat="42.05340460731937" lon="19.997776628013366"><ele>491.0</ele><time>2026-05-04T07:48:11Z</time></trkpt><trkpt lat="42.053527594093524" lon="19.997841400264132"><ele>490.0</ele><time>2026-05-04T07:48:12Z</time></trkpt><trkpt lat="42.05364064201514" lon="19.997895572754746"><ele>489.0</ele><time>2026-05-04T07:48:13Z</time></trkpt><trkpt lat="42.05375235654433" lon="19.99794301492714"><ele>488.0</ele><time>2026-05-04T07:48:14Z</time></trkpt><trkpt lat="42.053866125616445" lon="19.997991991692878"><ele>488.0</ele><time>2026-05-04T07:48:15Z</time></trkpt><trkpt lat="42.053977712275575" lon="19.998034788941524"><ele>487.99999999999994</ele><time>2026-05-04T07:48:16Z</time></trkpt><trkpt lat="42.05408389454508" lon="19.998058658515827"><ele>487.99999999999994</ele><time>2026-05-04T07:48:17Z</time></trkpt><trkpt lat="42.05418789746575" lon="19.998038257819307"><ele>488.0</ele><time>2026-05-04T07:48:18Z</time></trkpt><trkpt lat="42.054290848614905" lon="19.99798947601621"><ele>488.0</ele><time>2026-05-04T07:48:19Z</time></trkpt><trkpt lat="42.054390747427476" lon="19.997930508840682"><ele>489.2</ele><time>2026-05-04T07:48:20Z</time></trkpt><trkpt lat="42.054495489043816" lon="19.99789381231375"><ele>490.4</ele><time>2026-05-04T07:48:21Z</time></trkpt><trkpt lat="42.05460171803061" lon="19.997892441619086"><ele>491.59999999999997</ele><time>2026-05-04T07:48:22Z</time></trkpt><trkpt lat="42.05470074466578" lon="19.99794029786163"><ele>492.79999999999995</ele><time>2026-05-04T07:48:23Z</time></trkpt><trkpt lat="42.054792805153646" lon="19.998040266428823"><ele>494.0</ele><time>2026-05-04T07:48:24Z</time></trkpt><trkpt lat="42.05487703810601" lon="19.998160878694655"><ele>494.0</ele><time>2026-05-04T07:48:25Z</time></trkpt><trkpt lat="42.054946789955764" lon="19.998276689027815"><ele>494.0</ele><time>2026-05-04T07:48:26Z</time></trkpt><trkpt lat="42.054992639099254" lon="19.998372011352608"><ele>494.0</ele><time>2026-05-04T07:48:27Z</time></trkpt><trkpt lat="42.055008465202846" lon="19.99848253103771"><ele>494.0</ele><time>2026-05-04T07:48:28Z</time></trkpt><trkpt lat="42.05498455140789" lon="19.998615797410718"><ele>494.0</ele><time>2026-05-04T07:48:29Z</time></trkpt><trkpt lat="42.0549300214314" lon="19.998753801245254"><ele>493.75</ele><time>2026-05-04T07:48:30Z</time></trkpt><trkpt lat="42.05487470181351" lon="19.998893100183125"><ele>493.5</ele><time>2026-05-04T07:48:31Z</time></trkpt><trkpt lat="42.054847774289634" lon="19.999033819341577"><ele>493.25</ele><time>2026-05-04T07:48:32Z</time></trkpt><trkpt lat="42.05485275434724" lon="19.999184640512816"><ele>493.0</ele><time>2026-05-04T07:48:33Z</time></trkpt><trkpt lat="42.05488999441152" lon="19.99935239836197"><ele>493.0</ele><time>2026-05-04T07:48:34Z</time></trkpt><trkpt lat="42.05493927158382" lon="19.999511709035357"><ele>493.0</ele><time>2026-05-04T07:48:35Z</time></trkpt><trkpt lat="42.055010458733335" lon="19.999663789131542"><ele>493.0</ele><time>2026-05-04T07:48:36Z</time></trkpt><trkpt lat="42.055125208857724" lon="19.99983602430712"><ele>493.0</ele><time>2026-05-04T07:48:37Z</time></trkpt><trkpt lat="42.055257402798105" lon="20.00004312275555"><ele>490.5</ele><time>2026-05-04T07:48:37.999Z</time></trkpt><trkpt lat="42.055399324541604" lon="20.000290825420123"><ele>488.0</ele><time>2026-05-04T07:48:38.999Z</time></trkpt><trkpt lat="42.05555398857784" lon="20.000525951747242"><ele>488.0</ele><time>2026-05-04T07:48:39.999Z</time></trkpt><trkpt lat="42.05573130735464" lon="20.00074829771573"><ele>488.0</ele><time>2026-05-04T07:48:40.999Z</time></trkpt><trkpt lat="42.05593639731707" lon="20.00095732218132"><ele>493.5</ele><time>2026-05-04T07:48:41.999Z</time></trkpt><trkpt lat="42.05614389943966" lon="20.00116826824896"><ele>499.0</ele><time>2026-05-04T07:48:42.999Z</time></trkpt><trkpt lat="42.0563368322457" lon="20.001419078225148"><ele>495.5</ele><time>2026-05-04T07:48:43.999Z</time></trkpt><trkpt lat="42.05649887719107" lon="20.001678719590934"><ele>492.0</ele><time>2026-05-04T07:48:44.999Z</time></trkpt><trkpt lat="42.05662599959088" lon="20.001952523313992"><ele>496.0</ele><time>2026-05-04T07:48:45.999Z</time></trkpt><trkpt lat="42.05671607744664" lon="20.00226271969302"><ele>500.0</ele><time>2026-05-04T07:48:46.999Z</time></trkpt><trkpt lat="42.05679730949236" lon="20.00260668892869"><ele>500.0</ele><time>2026-05-04T07:48:47.999Z</time></trkpt><trkpt lat="42.0568731801546" lon="20.00295440253325"><ele>500.0</ele><time>2026-05-04T07:48:48.999Z</time></trkpt><trkpt lat="42.05694024943055" lon="20.00326834847381"><ele>497.3333333333333</ele><time>2026-05-04T07:48:49.999Z</time></trkpt><trkpt lat="42.05699092224329" lon="20.00356350294196"><ele>494.66666666666663</ele><time>2026-05-04T07:48:50.999Z</time></trkpt><trkpt lat="42.05702301702705" lon="20.003852681834317"><ele>492.0</ele><time>2026-05-04T07:48:51.999Z</time></trkpt><trkpt lat="42.05704876102912" lon="20.00412869458171"><ele>491.66666666666663</ele><time>2026-05-04T07:48:52.999Z</time></trkpt><trkpt lat="42.05707030193437" lon="20.004374594816777"><ele>491.3333333333333</ele><time>2026-05-04T07:48:53.999Z</time></trkpt><trkpt lat="42.05711283717083" lon="20.004584602184046"><ele>491.0</ele><time>2026-05-04T07:48:54.999Z</time></trkpt><trkpt lat="42.057196834892935" lon="20.00479333979695"><ele>490.66666666666663</ele><time>2026-05-04T07:48:55.999Z</time></trkpt><trkpt lat="42.05731520120719" lon="20.00502198207044"><ele>490.33333333333337</ele><time>2026-05-04T07:48:56.999Z</time></trkpt><trkpt lat="42.057427410628094" lon="20.005275133356925"><ele>490.0</ele><time>2026-05-04T07:48:57.999Z</time></trkpt><trkpt lat="42.057529921534694" lon="20.005551893837804"><ele>494.0</ele><time>2026-05-04T07:48:58.999Z</time></trkpt><trkpt lat="42.05763009183943" lon="20.005831063881345"><ele>498.0</ele><time>2026-05-04T07:48:59.999Z</time></trkpt><trkpt lat="42.057737128244774" lon="20.006101801593292"><ele>498.0</ele><time>2026-05-04T07:49:00.999Z</time></trkpt><trkpt lat="42.057846054177446" lon="20.006361274377426"><ele>498.0</ele><time>2026-05-04T07:49:01.999Z</time></trkpt><trkpt lat="42.05795253030938" lon="20.0066147549807"><ele>498.0</ele><time>2026-05-04T07:49:02.999Z</time></trkpt><trkpt lat="42.058054204255555" lon="20.006867472971287"><ele>497.33333333333337</ele><time>2026-05-04T07:49:03.999Z</time></trkpt><trkpt lat="42.05815526426624" lon="20.00710831337458"><ele>496.6666666666667</ele><time>2026-05-04T07:49:04.999Z</time></trkpt><trkpt lat="42.058260312688574" lon="20.00735803078298"><ele>496.0</ele><time>2026-05-04T07:49:05.999Z</time></trkpt><trkpt lat="42.05836019311434" lon="20.007604718556614"><ele>497.6666666666667</ele><time>2026-05-04T07:49:06.999Z</time></trkpt><trkpt lat="42.05845787333767" lon="20.007854475609168"><ele>499.33333333333337</ele><time>2026-05-04T07:49:07.999Z</time></trkpt><trkpt lat="42.058559797723554" lon="20.00810798067801"><ele>501.0</ele><time>2026-05-04T07:49:08.999Z</time></trkpt><trkpt lat="42.05866959062738" lon="20.00836613045644"><ele>501.0</ele><time>2026-05-04T07:49:09.999Z</time></trkpt><trkpt lat="42.058784216392134" lon="20.00862963358452"><ele>501.0</ele><time>2026-05-04T07:49:10.999Z</time></trkpt><trkpt lat="42.058897472660014" lon="20.008902727487015"><ele>497.5</ele><time>2026-05-04T07:49:11.999Z</time></trkpt><trkpt lat="42.059010665150716" lon="20.009184686924744"><ele>494.0</ele><time>2026-05-04T07:49:12.999Z</time></trkpt><trkpt lat="42.05912678479892" lon="20.009468138592805"><ele>502.5</ele><time>2026-05-04T07:49:13.999Z</time></trkpt><trkpt lat="42.05924293060417" lon="20.009746461675043"><ele>511.0</ele><time>2026-05-04T07:49:14.999Z</time></trkpt><trkpt lat="42.059364213180494" lon="20.010028021037122"><ele>511.0</ele><time>2026-05-04T07:49:15.999Z</time></trkpt><trkpt lat="42.05948174008201" lon="20.010308352176267"><ele>511.0</ele><time>2026-05-04T07:49:16.999Z</time></trkpt><trkpt lat="42.05958562203028" lon="20.01056519038662"><ele>511.0</ele><time>2026-05-04T07:49:17.999Z</time></trkpt><trkpt lat="42.05968265620558" lon="20.010801441321068"><ele>511.0</ele><time>2026-05-04T07:49:18.999Z</time></trkpt><trkpt lat="42.0597824199026" lon="20.011031403695892"><ele>511.0</ele><time>2026-05-04T07:49:19.999Z</time></trkpt><trkpt lat="42.05988881718828" lon="20.011238681772017"><ele>513.0</ele><time>2026-05-04T07:49:20.999Z</time></trkpt><trkpt lat="42.06000548162932" lon="20.011416695781065"><ele>515.0</ele><time>2026-05-04T07:49:21.999Z</time></trkpt><trkpt lat="42.060139395476455" lon="20.01156722790934"><ele>517.0</ele><time>2026-05-04T07:49:22.999Z</time></trkpt><trkpt lat="42.06028438659339" lon="20.01170314451083"><ele>517.0</ele><time>2026-05-04T07:49:23.999Z</time></trkpt><trkpt lat="42.0604279661478" lon="20.01184818514093"><ele>517.0</ele><time>2026-05-04T07:49:24.999Z</time></trkpt><trkpt lat="42.06057076107009" lon="20.011994133986274"><ele>517.0</ele><time>2026-05-04T07:49:25.999Z</time></trkpt><trkpt lat="42.060701065730825" lon="20.01213054492312"><ele>518.75</ele><time>2026-05-04T07:49:26.999Z</time></trkpt><trkpt lat="42.06079711195713" lon="20.01226549903306"><ele>520.5</ele><time>2026-05-04T07:49:27.999Z</time></trkpt><trkpt lat="42.06086108797293" lon="20.012414454144462"><ele>522.25</ele><time>2026-05-04T07:49:28.999Z</time></trkpt><trkpt lat="42.060906691148396" lon="20.012591067880702"><ele>524.0</ele><time>2026-05-04T07:49:29.999Z</time></trkpt><trkpt lat="42.06094615184306" lon="20.012780349038117"><ele>524.0</ele><time>2026-05-04T07:49:30.999Z</time></trkpt><trkpt lat="42.06099038504694" lon="20.012973024341733"><ele>524.0</ele><time>2026-05-04T07:49:31.999Z</time></trkpt><trkpt lat="42.06103147463663" lon="20.013168594108915"><ele>524.0</ele><time>2026-05-04T07:49:32.999Z</time></trkpt><trkpt lat="42.061076061373235" lon="20.01336443415246"><ele>523.0</ele><time>2026-05-04T07:49:33.999Z</time></trkpt><trkpt lat="42.06112850457074" lon="20.01355327575185"><ele>522.0</ele><time>2026-05-04T07:49:34.999Z</time></trkpt><trkpt lat="42.0611899318839" lon="20.013734942941642"><ele>521.0</ele><time>2026-05-04T07:49:35.999Z</time></trkpt><trkpt lat="42.061262090610555" lon="20.01391184278037"><ele>520.0</ele><time>2026-05-04T07:49:36.999Z</time></trkpt><trkpt lat="42.06133954970299" lon="20.01408941002824"><ele>519.0</ele><time>2026-05-04T07:49:37.999Z</time></trkpt><trkpt lat="42.06141088791866" lon="20.01426051224159"><ele>518.0</ele><time>2026-05-04T07:49:38.999Z</time></trkpt><trkpt lat="42.06148459590538" lon="20.014432928313934"><ele>517.0</ele><time>2026-05-04T07:49:39.999Z</time></trkpt><trkpt lat="42.06156821945067" lon="20.014614799970634"><ele>520.0</ele><time>2026-05-04T07:49:40.999Z</time></trkpt><trkpt lat="42.06164335190856" lon="20.014799758184637"><ele>523.0</ele><time>2026-05-04T07:49:41.999Z</time></trkpt><trkpt lat="42.06170844348807" lon="20.014996063992637"><ele>526.0</ele><time>2026-05-04T07:49:43Z</time></trkpt><trkpt lat="42.061759734759804" lon="20.015210513861597"><ele>526.0</ele><time>2026-05-04T07:49:44Z</time></trkpt><trkpt lat="42.06180067688716" lon="20.01543183952229"><ele>526.0</ele><time>2026-05-04T07:49:45Z</time></trkpt><trkpt lat="42.06183951063747" lon="20.015655808707134"><ele>526.0</ele><time>2026-05-04T07:49:46Z</time></trkpt><trkpt lat="42.06188193670537" lon="20.01589358021581"><ele>524.3333333333334</ele><time>2026-05-04T07:49:47Z</time></trkpt><trkpt lat="42.06192405526006" lon="20.016136069657943"><ele>522.6666666666666</ele><time>2026-05-04T07:49:48Z</time></trkpt><trkpt lat="42.061965650415914" lon="20.016385011205134"><ele>521.0</ele><time>2026-05-04T07:49:49Z</time></trkpt><trkpt lat="42.062002747240946" lon="20.016622283315876"><ele>520.0</ele><time>2026-05-04T07:49:50Z</time></trkpt><trkpt lat="42.06203811233944" lon="20.016836942524492"><ele>519.0</ele><time>2026-05-04T07:49:51Z</time></trkpt><trkpt lat="42.06209015086027" lon="20.017038355651525"><ele>518.0</ele><time>2026-05-04T07:49:52Z</time></trkpt><trkpt lat="42.06217805319733" lon="20.01723133929146"><ele>518.0</ele><time>2026-05-04T07:49:53Z</time></trkpt><trkpt lat="42.062284600314705" lon="20.01742630940029"><ele>518.0</ele><time>2026-05-04T07:49:54Z</time></trkpt><trkpt lat="42.062390122767184" lon="20.017617867961167"><ele>518.0</ele><time>2026-05-04T07:49:55Z</time></trkpt><trkpt lat="42.06249179684148" lon="20.017816575494578"><ele>517.0</ele><time>2026-05-04T07:49:56Z</time></trkpt><trkpt lat="42.062590865772876" lon="20.0180166465312"><ele>516.0</ele><time>2026-05-04T07:49:57Z</time></trkpt><trkpt lat="42.06268999870832" lon="20.01822090178428"><ele>515.0</ele><time>2026-05-04T07:49:58Z</time></trkpt><trkpt lat="42.062787822848904" lon="20.01842195723584"><ele>515.0</ele><time>2026-05-04T07:49:59Z</time></trkpt><trkpt lat="42.06288932026763" lon="20.018627718617918"><ele>515.0</ele><time>2026-05-04T07:50:00Z</time></trkpt><trkpt lat="42.06298508803941" lon="20.018840233748822"><ele>515.0</ele><time>2026-05-04T07:50:01Z</time></trkpt><trkpt lat="42.06308577001462" lon="20.019064726450313"><ele>513.3333333333333</ele><time>2026-05-04T07:50:02Z</time></trkpt><trkpt lat="42.06319075567036" lon="20.01928640581922"><ele>511.66666666666663</ele><time>2026-05-04T07:50:03Z</time></trkpt><trkpt lat="42.06329893739312" lon="20.019517837932472"><ele>510.0</ele><time>2026-05-04T07:50:04Z</time></trkpt><trkpt lat="42.063406379984215" lon="20.01974967625042"><ele>514.6666666666666</ele><time>2026-05-04T07:50:05Z</time></trkpt><trkpt lat="42.06351968478885" lon="20.01997643337348"><ele>519.3333333333333</ele><time>2026-05-04T07:50:06Z</time></trkpt><trkpt lat="42.06364134309875" lon="20.020196406915645"><ele>524.0</ele><time>2026-05-04T07:50:07Z</time></trkpt><trkpt lat="42.06378657368548" lon="20.02039843845678"><ele>524.0</ele><time>2026-05-04T07:50:08Z</time></trkpt><trkpt lat="42.06396046780786" lon="20.0206025625206"><ele>524.0</ele><time>2026-05-04T07:50:09Z</time></trkpt><trkpt lat="42.06414260905851" lon="20.02082103100279"><ele>528.0</ele><time>2026-05-04T07:50:10Z</time></trkpt><trkpt lat="42.06430490321294" lon="20.02103426050676"><ele>532.0</ele><time>2026-05-04T07:50:11Z</time></trkpt><trkpt lat="42.06443660886086" lon="20.02121095207721"><ele>536.0</ele><time>2026-05-04T07:50:12Z</time></trkpt><trkpt lat="42.06455019948414" lon="20.021366992429087"><ele>536.0</ele><time>2026-05-04T07:50:13Z</time></trkpt><trkpt lat="42.0646363650247" lon="20.021530393695542"><ele>536.0</ele><time>2026-05-04T07:50:14Z</time></trkpt><trkpt lat="42.06469575060263" lon="20.021740472279074"><ele>536.0</ele><time>2026-05-04T07:50:15Z</time></trkpt><trkpt lat="42.064725378801434" lon="20.02198807247575"><ele>534.6666666666666</ele><time>2026-05-04T07:50:16Z</time></trkpt><trkpt lat="42.06473788898218" lon="20.02225977020875"><ele>533.3333333333334</ele><time>2026-05-04T07:50:17Z</time></trkpt><trkpt lat="42.06475023384062" lon="20.022545000560623"><ele>532.0</ele><time>2026-05-04T07:50:18Z</time></trkpt><trkpt lat="42.06476638723089" lon="20.022837033755412"><ele>532.0</ele><time>2026-05-04T07:50:19Z</time></trkpt><trkpt lat="42.064782798899586" lon="20.023141474700402"><ele>532.0</ele><time>2026-05-04T07:50:20Z</time></trkpt><trkpt lat="42.06480471927133" lon="20.02343107827561"><ele>532.0</ele><time>2026-05-04T07:50:21Z</time></trkpt><trkpt lat="42.064831883619675" lon="20.02368828771021"><ele>531.6666666666667</ele><time>2026-05-04T07:50:22Z</time></trkpt><trkpt lat="42.0648664750695" lon="20.0239141792562"><ele>531.3333333333334</ele><time>2026-05-04T07:50:23Z</time></trkpt><trkpt lat="42.06491458188327" lon="20.024122856979236"><ele>531.0</ele><time>2026-05-04T07:50:24Z</time></trkpt><trkpt lat="42.0649885213518" lon="20.024320583982313"><ele>534.0</ele><time>2026-05-04T07:50:25Z</time></trkpt><trkpt lat="42.065077458037514" lon="20.02453223553433"><ele>537.0</ele><time>2026-05-04T07:50:26Z</time></trkpt><trkpt lat="42.06516864501166" lon="20.024763853068794"><ele>540.0</ele><time>2026-05-04T07:50:27Z</time></trkpt><trkpt lat="42.065264061708454" lon="20.025001429612544"><ele>540.0</ele><time>2026-05-04T07:50:28Z</time></trkpt><trkpt lat="42.06536640150488" lon="20.025230560122"><ele>540.0</ele><time>2026-05-04T07:50:29Z</time></trkpt><trkpt lat="42.06546780947611" lon="20.025455839254583"><ele>540.0</ele><time>2026-05-04T07:50:30Z</time></trkpt><trkpt lat="42.06555705157849" lon="20.025693858821878"><ele>538.3333333333334</ele><time>2026-05-04T07:50:31Z</time></trkpt><trkpt lat="42.06562999655733" lon="20.0259476536319"><ele>536.6666666666667</ele><time>2026-05-04T07:50:32Z</time></trkpt><trkpt lat="42.065695110890154" lon="20.026204768748126"><ele>535.0</ele><time>2026-05-04T07:50:33Z</time></trkpt><trkpt lat="42.065757943978035" lon="20.026461632321542"><ele>540.0</ele><time>2026-05-04T07:50:34Z</time></trkpt><trkpt lat="42.065824998165084" lon="20.026721387739624"><ele>545.0</ele><time>2026-05-04T07:50:35Z</time></trkpt><trkpt lat="42.06588059623808" lon="20.026953409353524"><ele>550.0</ele><time>2026-05-04T07:50:36Z</time></trkpt><trkpt lat="42.06593208622814" lon="20.027181026277436"><ele>550.0</ele><time>2026-05-04T07:50:37Z</time></trkpt><trkpt lat="42.06598462737866" lon="20.027394136009736"><ele>550.0</ele><time>2026-05-04T07:50:38Z</time></trkpt><trkpt lat="42.06603135795682" lon="20.027591060628186"><ele>550.0</ele><time>2026-05-04T07:50:39Z</time></trkpt><trkpt lat="42.06607400682499" lon="20.02777715418224"><ele>549.0</ele><time>2026-05-04T07:50:40Z</time></trkpt><trkpt lat="42.06611462001295" lon="20.027962866115217"><ele>548.0</ele><time>2026-05-04T07:50:41Z</time></trkpt><trkpt lat="42.06614878390646" lon="20.028150937625675"><ele>547.0</ele><time>2026-05-04T07:50:42Z</time></trkpt><trkpt lat="42.06617543148321" lon="20.028343169476145"><ele>546.0</ele><time>2026-05-04T07:50:43Z</time></trkpt><trkpt lat="42.06619970724276" lon="20.028528323206487"><ele>545.5</ele><time>2026-05-04T07:50:44Z</time></trkpt><trkpt lat="42.066228934644776" lon="20.02870678931068"><ele>545.0</ele><time>2026-05-04T07:50:45Z</time></trkpt><trkpt lat="42.066260150078584" lon="20.028877012619976"><ele>544.5</ele><time>2026-05-04T07:50:46Z</time></trkpt><trkpt lat="42.06629218552572" lon="20.02904424176261"><ele>544.0</ele><time>2026-05-04T07:50:47Z</time></trkpt><trkpt lat="42.066327854362264" lon="20.029212589296318"><ele>543.0</ele><time>2026-05-04T07:50:48Z</time></trkpt><trkpt lat="42.06636514696537" lon="20.02938590549447"><ele>542.0</ele><time>2026-05-04T07:50:49Z</time></trkpt><trkpt lat="42.06640405096776" lon="20.02955423485865"><ele>541.0</ele><time>2026-05-04T07:50:50Z</time></trkpt><trkpt lat="42.06645136547051" lon="20.029712004139117"><ele>540.0</ele><time>2026-05-04T07:50:51Z</time></trkpt><trkpt lat="42.06650804863888" lon="20.02986240058988"><ele>538.5</ele><time>2026-05-04T07:50:52Z</time></trkpt><trkpt lat="42.06656454763916" lon="20.030005444248413"><ele>537.0</ele><time>2026-05-04T07:50:53Z</time></trkpt><trkpt lat="42.066620311426114" lon="20.03014753277731"><ele>535.5</ele><time>2026-05-04T07:50:54Z</time></trkpt><trkpt lat="42.066678972124414" lon="20.030280762717442"><ele>534.0</ele><time>2026-05-04T07:50:55Z</time></trkpt><trkpt lat="42.06674502733496" lon="20.030404086033517"><ele>537.5</ele><time>2026-05-04T07:50:56Z</time></trkpt><trkpt lat="42.06682132136208" lon="20.030520072186132"><ele>541.0</ele><time>2026-05-04T07:50:57Z</time></trkpt><trkpt lat="42.06690378419164" lon="20.030628075907476"><ele>544.5</ele><time>2026-05-04T07:50:58Z</time></trkpt><trkpt lat="42.06699213978115" lon="20.030732750047285"><ele>548.0</ele><time>2026-05-04T07:50:59Z</time></trkpt><trkpt lat="42.067080886645265" lon="20.030835917307193"><ele>548.0</ele><time>2026-05-04T07:51:00Z</time></trkpt><trkpt lat="42.06716948300581" lon="20.0309399163196"><ele>548.0</ele><time>2026-05-04T07:51:01Z</time></trkpt><trkpt lat="42.06725424646489" lon="20.03104405599333"><ele>548.0</ele><time>2026-05-04T07:51:02Z</time></trkpt><trkpt lat="42.0673424759168" lon="20.031148039355823"><ele>548.0</ele><time>2026-05-04T07:51:03Z</time></trkpt><trkpt lat="42.06742934803411" lon="20.031252196842708"><ele>548.1999999999999</ele><time>2026-05-04T07:51:04Z</time></trkpt><trkpt lat="42.067514436441165" lon="20.03135803989437"><ele>548.4</ele><time>2026-05-04T07:51:05Z</time></trkpt><trkpt lat="42.067597074199234" lon="20.031461177669893"><ele>548.5999999999999</ele><time>2026-05-04T07:51:06Z</time></trkpt><trkpt lat="42.06767275422124" lon="20.031548723434465"><ele>548.8</ele><time>2026-05-04T07:51:07Z</time></trkpt><trkpt lat="42.0677321368628" lon="20.031618162832284"><ele>549.0</ele><time>2026-05-04T07:51:08Z</time></trkpt><trkpt lat="42.06778007122164" lon="20.031674245442595"><ele>549.0</ele><time>2026-05-04T07:51:09Z</time></trkpt><trkpt lat="42.0678168326913" lon="20.031747457390853"><ele>549.0</ele><time>2026-05-04T07:51:11Z</time></trkpt><trkpt lat="42.067824921416445" lon="20.03186659025159"><ele>549.0</ele><time>2026-05-04T07:51:14Z</time></trkpt><trkpt lat="42.0678622691888" lon="20.031935405068154"><ele>549.0</ele><time>2026-05-04T07:51:17Z</time></trkpt><trkpt lat="42.067797467049985" lon="20.03194212615571"><ele>549.0</ele><time>2026-05-04T07:52:40Z</time></trkpt><trkpt lat="42.06773551995605" lon="20.031983312705467"><ele>549.0</ele><time>2026-05-04T07:52:45Z</time></trkpt><trkpt lat="42.0676740983656" lon="20.031948097638644"><ele>549.0</ele><time>2026-05-04T07:52:48.999Z</time></trkpt><trkpt lat="42.067674056451104" lon="20.031841464207268"><ele>549.0</ele><time>2026-05-04T07:52:50.999Z</time></trkpt><trkpt lat="42.06793640204693" lon="20.03208704654032"><ele>549.0</ele><time>2026-05-04T07:53:03.042Z</time></trkpt><trkpt lat="42.06801647928046" lon="20.032146043503346"><ele>549.0</ele><time>2026-05-04T07:53:04.035Z</time></trkpt><trkpt lat="42.06796172287102" lon="20.032248304730558"><ele>549.0</ele><time>2026-05-04T07:53:16.034Z</time></trkpt><trkpt lat="42.06795529390469" lon="20.032023949998162"><ele>549.0</ele><time>2026-05-04T07:53:22.999Z</time></trkpt><trkpt lat="42.06792363649829" lon="20.032103366800055"><ele>549.0</ele><time>2026-05-04T07:53:25.999Z</time></trkpt><trkpt lat="42.06783577501246" lon="20.031991974828344"><ele>549.0</ele><time>2026-05-04T07:53:32.999Z</time></trkpt><trkpt lat="42.06767941107432" lon="20.031989477671704"><ele>549.0</ele><time>2026-05-04T07:53:33.999Z</time></trkpt><trkpt lat="42.06762141955488" lon="20.031939840541206"><ele>549.0</ele><time>2026-05-04T07:53:34.999Z</time></trkpt><trkpt lat="42.06757813703413" lon="20.03185768953785"><ele>549.0</ele><time>2026-05-04T07:53:36.999Z</time></trkpt><trkpt lat="42.067528271490275" lon="20.031999394147526"><ele>549.0</ele><time>2026-05-04T07:53:39.999Z</time></trkpt><trkpt lat="42.06746650894012" lon="20.0322090338304"><ele>549.0</ele><time>2026-05-04T07:53:44.064Z</time></trkpt><trkpt lat="42.06757295051318" lon="20.032084886979398"><ele>549.0</ele><time>2026-05-04T07:53:48.031Z</time></trkpt><trkpt lat="42.06771658766135" lon="20.032035115434873"><ele>549.0</ele><time>2026-05-04T07:54:02.033Z</time></trkpt><trkpt lat="42.06775179151705" lon="20.031919436371776"><ele>549.0</ele><time>2026-05-04T07:54:02.998Z</time></trkpt><trkpt lat="42.06780431387871" lon="20.03183684140438"><ele>549.0</ele><time>2026-05-04T07:54:04.998Z</time></trkpt><trkpt lat="42.067833154704275" lon="20.031749202174332"><ele>549.0</ele><time>2026-05-04T07:54:52.999Z</time></trkpt><trkpt lat="42.067857579593834" lon="20.031641479735704"><ele>549.0</ele><time>2026-05-04T07:54:59.999Z</time></trkpt><trkpt lat="42.067782806505235" lon="20.031522517802753"><ele>549.0</ele><time>2026-05-04T07:55:35.999Z</time></trkpt><trkpt lat="42.06779851400728" lon="20.03143268258386"><ele>549.0</ele><time>2026-05-04T07:55:56.999Z</time></trkpt><trkpt lat="42.067801456650315" lon="20.031518794289727"><ele>549.0</ele><time>2026-05-04T07:56:41.999Z</time></trkpt><trkpt lat="42.06783806089127" lon="20.031596243456637"><ele>549.0</ele><time>2026-05-04T07:56:49.999Z</time></trkpt><trkpt lat="42.06783665080926" lon="20.031704392527267"><ele>549.0</ele><time>2026-05-04T07:57:25.999Z</time></trkpt><trkpt lat="42.06781018278366" lon="20.03179014499334"><ele>549.0</ele><time>2026-05-04T07:57:42.999Z</time></trkpt><trkpt lat="42.06775804137704" lon="20.03184203655107"><ele>549.0</ele><time>2026-05-04T08:00:51.999Z</time></trkpt><trkpt lat="42.06770241230385" lon="20.03189141892927"><ele>549.0</ele><time>2026-05-04T08:01:04.999Z</time></trkpt><trkpt lat="42.067635659078974" lon="20.031880870611428"><ele>549.0</ele><time>2026-05-04T08:01:13.999Z</time></trkpt><trkpt lat="42.06772148056154" lon="20.03183625275771"><ele>549.0</ele><time>2026-05-04T08:06:24Z</time></trkpt><trkpt lat="42.067792788342985" lon="20.03186045640901"><ele>549.0</ele><time>2026-05-04T08:06:35Z</time></trkpt><trkpt lat="42.067724633736965" lon="20.031841772356636"><ele>549.0</ele><time>2026-05-04T08:08:04.001Z</time></trkpt><trkpt lat="42.06766041590371" lon="20.03187880044757"><ele>549.0</ele><time>2026-05-04T08:08:11.001Z</time></trkpt><trkpt lat="42.06759547864351" lon="20.031857259890554"><ele>549.0</ele><time>2026-05-04T08:08:23.001Z</time></trkpt><trkpt lat="42.06756830495492" lon="20.031970598584266"><ele>549.0</ele><time>2026-05-04T08:08:40.001Z</time></trkpt><trkpt lat="42.0675058976745" lon="20.031920097299064"><ele>549.0</ele><time>2026-05-04T08:09:01.001Z</time></trkpt><trkpt lat="42.0674384275016" lon="20.031958411532262"><ele>549.0</ele><time>2026-05-04T08:09:06.001Z</time></trkpt><trkpt lat="42.067274133035504" lon="20.032023170956634"><ele>549.0</ele><time>2026-05-04T08:09:11.001Z</time></trkpt><trkpt lat="42.067339746557735" lon="20.032002556608244"><ele>549.0</ele><time>2026-05-04T08:09:22.001Z</time></trkpt><trkpt lat="42.06755353050439" lon="20.0319381306108"><ele>549.0</ele><time>2026-05-04T08:09:34.001Z</time></trkpt><trkpt lat="42.06760231126296" lon="20.031824038696815"><ele>549.0</ele><time>2026-05-04T08:09:58.001Z</time></trkpt><trkpt lat="42.06750689953985" lon="20.031863215658433"><ele>549.0</ele><time>2026-05-04T08:11:28Z</time></trkpt><trkpt lat="42.06752104562818" lon="20.031771510986175"><ele>549.0</ele><time>2026-05-04T08:11:34Z</time></trkpt><trkpt lat="42.06751010068392" lon="20.03168365985883"><ele>549.0</ele><time>2026-05-04T08:11:38Z</time></trkpt><trkpt lat="42.067513795009646" lon="20.03153670089279"><ele>549.0</ele><time>2026-05-04T08:11:44Z</time></trkpt><trkpt lat="42.0673895728021" lon="20.031548153105973"><ele>549.0</ele><time>2026-05-04T08:12:40.03Z</time></trkpt><trkpt lat="42.067442005934616" lon="20.03166037851961"><ele>549.0</ele><time>2026-05-04T08:12:41.001Z</time></trkpt><trkpt lat="42.067469179806324" lon="20.03175140222201"><ele>549.0</ele><time>2026-05-04T08:12:43.001Z</time></trkpt><trkpt lat="42.06745277979787" lon="20.03184667352335"><ele>549.0</ele><time>2026-05-04T08:12:45.001Z</time></trkpt><trkpt lat="42.06747068041916" lon="20.03175295820964"><ele>549.0</ele><time>2026-05-04T08:12:50.001Z</time></trkpt><trkpt lat="42.067559614814705" lon="20.031734608034693"><ele>549.0</ele><time>2026-05-04T08:12:54.001Z</time></trkpt><trkpt lat="42.06757662371111" lon="20.031826534037155"><ele>549.0</ele><time>2026-05-04T08:13:01.001Z</time></trkpt><trkpt lat="42.06768846010371" lon="20.03186011002699"><ele>549.0</ele><time>2026-05-04T08:13:13.001Z</time></trkpt><trkpt lat="42.0677992839966" lon="20.03188280016254"><ele>549.0</ele><time>2026-05-04T08:13:22.001Z</time></trkpt><trkpt lat="42.06786344261674" lon="20.031927340921005"><ele>549.0</ele><time>2026-05-04T08:13:27.001Z</time></trkpt><trkpt lat="42.06780238873142" lon="20.031836565329495"><ele>549.0</ele><time>2026-05-04T08:15:51Z</time></trkpt><trkpt lat="42.06793622177333" lon="20.031847792116974"><ele>549.0</ele><time>2026-05-04T08:15:56Z</time></trkpt><trkpt lat="42.067984287995934" lon="20.03190642375085"><ele>549.0</ele><time>2026-05-04T08:15:57Z</time></trkpt><trkpt lat="42.068037677079445" lon="20.031968832511005"><ele>549.0</ele><time>2026-05-04T08:15:58Z</time></trkpt><trkpt lat="42.06810013311832" lon="20.03203682061263"><ele>549.0</ele><time>2026-05-04T08:15:59Z</time></trkpt><trkpt lat="42.068168209295514" lon="20.032116299590786"><ele>549.0</ele><time>2026-05-04T08:16:00Z</time></trkpt><trkpt lat="42.068239906232115" lon="20.032198043782543"><ele>549.0</ele><time>2026-05-04T08:16:01Z</time></trkpt><trkpt lat="42.068315006295364" lon="20.03228713898027"><ele>549.0</ele><time>2026-05-04T08:16:02Z</time></trkpt><trkpt lat="42.068386843391174" lon="20.032380390540588"><ele>549.8</ele><time>2026-05-04T08:16:03Z</time></trkpt><trkpt lat="42.06846196090804" lon="20.03247370490437"><ele>550.5999999999999</ele><time>2026-05-04T08:16:04Z</time></trkpt><trkpt lat="42.06853829284015" lon="20.032570138549545"><ele>551.4</ele><time>2026-05-04T08:16:05Z</time></trkpt><trkpt lat="42.06860661713777" lon="20.03265419982386"><ele>552.1999999999999</ele><time>2026-05-04T08:16:06Z</time></trkpt><trkpt lat="42.06866302704308" lon="20.03273366458319"><ele>553.0</ele><time>2026-05-04T08:16:07Z</time></trkpt><trkpt lat="42.06871142241452" lon="20.032806844854495"><ele>553.0</ele><time>2026-05-04T08:16:08Z</time></trkpt><trkpt lat="42.06875661471938" lon="20.032878596274006"><ele>553.0</ele><time>2026-05-04T08:16:09Z</time></trkpt><trkpt lat="42.06880538674715" lon="20.03294310060268"><ele>553.0</ele><time>2026-05-04T08:16:10Z</time></trkpt><trkpt lat="42.06885822606242" lon="20.0330060951989"><ele>553.0</ele><time>2026-05-04T08:16:11Z</time></trkpt><trkpt lat="42.06891015237366" lon="20.033070488368107"><ele>553.0</ele><time>2026-05-04T08:16:12Z</time></trkpt><trkpt lat="42.06895842852098" lon="20.033138099133996"><ele>553.0</ele><time>2026-05-04T08:16:13Z</time></trkpt><trkpt lat="42.06900868378038" lon="20.03321334058631"><ele>553.0</ele><time>2026-05-04T08:16:14Z</time></trkpt><trkpt lat="42.06906264658725" lon="20.03329261539664"><ele>553.1666666666667</ele><time>2026-05-04T08:16:15Z</time></trkpt><trkpt lat="42.069112754797004" lon="20.033376078316145"><ele>553.3333333333334</ele><time>2026-05-04T08:16:16Z</time></trkpt><trkpt lat="42.069156176120636" lon="20.03347168364972"><ele>553.5</ele><time>2026-05-04T08:16:17Z</time></trkpt><trkpt lat="42.06919586154246" lon="20.033565974496582"><ele>553.6666666666666</ele><time>2026-05-04T08:16:18Z</time></trkpt><trkpt lat="42.06922909771756" lon="20.033662418816416"><ele>553.8333333333333</ele><time>2026-05-04T08:16:19Z</time></trkpt><trkpt lat="42.069263285288706" lon="20.033758283800513"><ele>554.0</ele><time>2026-05-04T08:16:20Z</time></trkpt><trkpt lat="42.06930376358086" lon="20.03386243035368"><ele>554.0</ele><time>2026-05-04T08:16:21Z</time></trkpt><trkpt lat="42.06934888519494" lon="20.033967219568748"><ele>554.0</ele><time>2026-05-04T08:16:22Z</time></trkpt><trkpt lat="42.069399240503955" lon="20.034069529225476"><ele>554.0</ele><time>2026-05-04T08:16:23Z</time></trkpt><trkpt lat="42.0694525834049" lon="20.034170185251718"><ele>554.0</ele><time>2026-05-04T08:16:24Z</time></trkpt><trkpt lat="42.069502181613196" lon="20.03425377762111"><ele>554.0</ele><time>2026-05-04T08:16:25Z</time></trkpt><trkpt lat="42.06954797797496" lon="20.034332126459127"><ele>554.0</ele><time>2026-05-04T08:16:26Z</time></trkpt><trkpt lat="42.06959725983556" lon="20.034407226233483"><ele>554.0</ele><time>2026-05-04T08:16:27Z</time></trkpt><trkpt lat="42.069651103497215" lon="20.03447585443986"><ele>554.0</ele><time>2026-05-04T08:16:28Z</time></trkpt><trkpt lat="42.06971169788424" lon="20.034532485051997"><ele>554.0</ele><time>2026-05-04T08:16:29Z</time></trkpt><trkpt lat="42.06977982741738" lon="20.03457593557181"><ele>554.0</ele><time>2026-05-04T08:16:30Z</time></trkpt><trkpt lat="42.06985216619033" lon="20.03461511116245"><ele>554.0</ele><time>2026-05-04T08:16:31Z</time></trkpt><trkpt lat="42.06992697559682" lon="20.03464951261289"><ele>554.0</ele><time>2026-05-04T08:16:32Z</time></trkpt><trkpt lat="42.07000414255964" lon="20.03468674093839"><ele>554.0</ele><time>2026-05-04T08:16:33Z</time></trkpt><trkpt lat="42.07008054276121" lon="20.03472458064971"><ele>554.0</ele><time>2026-05-04T08:16:34Z</time></trkpt><trkpt lat="42.07015842399182" lon="20.0347590702217"><ele>554.0</ele><time>2026-05-04T08:16:35Z</time></trkpt><trkpt lat="42.0702372433353" lon="20.034787818130656"><ele>554.0</ele><time>2026-05-04T08:16:36Z</time></trkpt><trkpt lat="42.07031194799648" lon="20.03481074584187"><ele>554.0</ele><time>2026-05-04T08:16:37Z</time></trkpt><trkpt lat="42.07038250003944" lon="20.034831224362595"><ele>554.0</ele><time>2026-05-04T08:16:38Z</time></trkpt><trkpt lat="42.07044952702229" lon="20.034849450800223"><ele>554.0</ele><time>2026-05-04T08:16:39Z</time></trkpt><trkpt lat="42.07052251170782" lon="20.03486570754141"><ele>554.0</ele><time>2026-05-04T08:16:40Z</time></trkpt><trkpt lat="42.07059935754738" lon="20.034882862289948"><ele>554.0</ele><time>2026-05-04T08:16:41Z</time></trkpt><trkpt lat="42.07067716244555" lon="20.03490499176683"><ele>554.0</ele><time>2026-05-04T08:16:42Z</time></trkpt><trkpt lat="42.07075109229608" lon="20.034932464516867"><ele>554.0</ele><time>2026-05-04T08:16:43Z</time></trkpt><trkpt lat="42.070815640796056" lon="20.034964174696498"><ele>554.0</ele><time>2026-05-04T08:16:44Z</time></trkpt><trkpt lat="42.07087680108537" lon="20.034985576201137"><ele>554.0</ele><time>2026-05-04T08:16:46Z</time></trkpt><trkpt lat="42.07096039237111" lon="20.034999693528327"><ele>553.8333333333333</ele><time>2026-05-04T08:17:04.001Z</time></trkpt><trkpt lat="42.071040973268225" lon="20.035013438324746"><ele>553.6666666666666</ele><time>2026-05-04T08:17:06.001Z</time></trkpt><trkpt lat="42.07112441628011" lon="20.035032348538998"><ele>553.5</ele><time>2026-05-04T08:17:08.001Z</time></trkpt><trkpt lat="42.071213332470634" lon="20.035042040918047"><ele>553.3333333333334</ele><time>2026-05-04T08:17:10.001Z</time></trkpt><trkpt lat="42.07131019138535" lon="20.035040489561887"><ele>553.1666666666667</ele><time>2026-05-04T08:17:12.001Z</time></trkpt><trkpt lat="42.071403995784664" lon="20.0350064981023"><ele>553.0</ele><time>2026-05-04T08:17:14.001Z</time></trkpt><trkpt lat="42.07149456670501" lon="20.034940853423567"><ele>553.0</ele><time>2026-05-04T08:17:16.001Z</time></trkpt><trkpt lat="42.071601298898045" lon="20.034857291158787"><ele>553.0</ele><time>2026-05-04T08:17:18.001Z</time></trkpt><trkpt lat="42.07167174056148" lon="20.034818549541345"><ele>553.0</ele><time>2026-05-04T08:17:19.001Z</time></trkpt><trkpt lat="42.071748436206015" lon="20.034794599395156"><ele>553.0</ele><time>2026-05-04T08:17:20.001Z</time></trkpt><trkpt lat="42.07183255587135" lon="20.034766422079855"><ele>553.0</ele><time>2026-05-04T08:17:21.001Z</time></trkpt><trkpt lat="42.071923504113045" lon="20.034737410775197"><ele>552.1999999999999</ele><time>2026-05-04T08:17:22.001Z</time></trkpt><trkpt lat="42.0720170377584" lon="20.03471166305118"><ele>551.4</ele><time>2026-05-04T08:17:23.001Z</time></trkpt><trkpt lat="42.07211354438367" lon="20.034687139603747"><ele>550.5999999999999</ele><time>2026-05-04T08:17:24.001Z</time></trkpt><trkpt lat="42.07221027462809" lon="20.034658972093162"><ele>549.8</ele><time>2026-05-04T08:17:25.001Z</time></trkpt><trkpt lat="42.07231081872787" lon="20.03462830336151"><ele>549.0</ele><time>2026-05-04T08:17:26.001Z</time></trkpt><trkpt lat="42.07241636441069" lon="20.034593815619644"><ele>549.5</ele><time>2026-05-04T08:17:27.001Z</time></trkpt><trkpt lat="42.072531821170834" lon="20.034560691484646"><ele>550.0</ele><time>2026-05-04T08:17:28.001Z</time></trkpt><trkpt lat="42.0726496998355" lon="20.0345290661739"><ele>550.5</ele><time>2026-05-04T08:17:29.001Z</time></trkpt><trkpt lat="42.07276809916324" lon="20.034495390235126"><ele>551.0</ele><time>2026-05-04T08:17:30.001Z</time></trkpt><trkpt lat="42.07288824823585" lon="20.034457426429768"><ele>551.0</ele><time>2026-05-04T08:17:31.001Z</time></trkpt><trkpt lat="42.0730095409966" lon="20.03441157126613"><ele>551.0</ele><time>2026-05-04T08:17:32.001Z</time></trkpt><trkpt lat="42.07313216675189" lon="20.03434828909387"><ele>551.0</ele><time>2026-05-04T08:17:33.001Z</time></trkpt><trkpt lat="42.07324729826982" lon="20.03429021347024"><ele>551.0</ele><time>2026-05-04T08:17:34.001Z</time></trkpt><trkpt lat="42.07336447691372" lon="20.034260877967714"><ele>550.0</ele><time>2026-05-04T08:17:35.001Z</time></trkpt><trkpt lat="42.07347804811278" lon="20.03427202071663"><ele>549.0</ele><time>2026-05-04T08:17:36.001Z</time></trkpt><trkpt lat="42.073590803327" lon="20.034321724622973"><ele>548.0</ele><time>2026-05-04T08:17:37.001Z</time></trkpt><trkpt lat="42.073695938229434" lon="20.034403443136103"><ele>547.0</ele><time>2026-05-04T08:17:38.001Z</time></trkpt><trkpt lat="42.0737994385242" lon="20.03449264546271"><ele>547.0</ele><time>2026-05-04T08:17:39.001Z</time></trkpt><trkpt lat="42.07390142257783" lon="20.03458000915722"><ele>547.0</ele><time>2026-05-04T08:17:40.001Z</time></trkpt><trkpt lat="42.074008524515875" lon="20.03467913158006"><ele>547.0</ele><time>2026-05-04T08:17:41.001Z</time></trkpt><trkpt lat="42.07411331998509" lon="20.034785591115693"><ele>547.0</ele><time>2026-05-04T08:17:42.001Z</time></trkpt><trkpt lat="42.074220385947065" lon="20.03489882434164"><ele>547.5</ele><time>2026-05-04T08:17:43.001Z</time></trkpt><trkpt lat="42.07433220216865" lon="20.035013882140294"><ele>548.0</ele><time>2026-05-04T08:17:44.001Z</time></trkpt><trkpt lat="42.07445286378099" lon="20.035133928264543"><ele>548.5</ele><time>2026-05-04T08:17:45Z</time></trkpt><trkpt lat="42.0745732519493" lon="20.035260506339302"><ele>549.0</ele><time>2026-05-04T08:17:46Z</time></trkpt><trkpt lat="42.074694240069746" lon="20.03539185238276"><ele>549.0</ele><time>2026-05-04T08:17:47Z</time></trkpt><trkpt lat="42.074816382621165" lon="20.035532592019667"><ele>549.0</ele><time>2026-05-04T08:17:48Z</time></trkpt><trkpt lat="42.07493990973455" lon="20.03569384759689"><ele>549.0</ele><time>2026-05-04T08:17:49Z</time></trkpt><trkpt lat="42.07505740002222" lon="20.03586996895075"><ele>548.6666666666666</ele><time>2026-05-04T08:17:50Z</time></trkpt><trkpt lat="42.07518116659053" lon="20.036051506735504"><ele>548.3333333333333</ele><time>2026-05-04T08:17:51Z</time></trkpt><trkpt lat="42.075303986972564" lon="20.03622001088439"><ele>548.0</ele><time>2026-05-04T08:17:52Z</time></trkpt><trkpt lat="42.07542788880119" lon="20.03639572584"><ele>548.0</ele><time>2026-05-04T08:17:53Z</time></trkpt><trkpt lat="42.0755556015811" lon="20.036571491766235"><ele>548.0</ele><time>2026-05-04T08:17:54Z</time></trkpt><trkpt lat="42.075681626240666" lon="20.036747110792824"><ele>548.0</ele><time>2026-05-04T08:17:55.001Z</time></trkpt><trkpt lat="42.075801034122996" lon="20.036937523638326"><ele>547.6666666666666</ele><time>2026-05-04T08:17:56.001Z</time></trkpt><trkpt lat="42.0759141223152" lon="20.037131073484616"><ele>547.3333333333334</ele><time>2026-05-04T08:17:57.001Z</time></trkpt><trkpt lat="42.076018886509644" lon="20.03733048181973"><ele>547.0</ele><time>2026-05-04T08:17:58.001Z</time></trkpt><trkpt lat="42.076120726304566" lon="20.037530766038234"><ele>547.0</ele><time>2026-05-04T08:17:59.001Z</time></trkpt><trkpt lat="42.07621471067833" lon="20.03771978498361"><ele>547.0</ele><time>2026-05-04T08:18:00.001Z</time></trkpt><trkpt lat="42.076306444434515" lon="20.037895035676872"><ele>547.0</ele><time>2026-05-04T08:18:01.001Z</time></trkpt><trkpt lat="42.076386253316116" lon="20.03805449606886"><ele>547.0</ele><time>2026-05-04T08:18:02.001Z</time></trkpt><trkpt lat="42.07644799215276" lon="20.038213402655362"><ele>547.0</ele><time>2026-05-04T08:18:03.001Z</time></trkpt><trkpt lat="42.07649735464019" lon="20.03837262006503"><ele>547.0</ele><time>2026-05-04T08:18:04.001Z</time></trkpt><trkpt lat="42.076542202057006" lon="20.038528078731357"><ele>547.0</ele><time>2026-05-04T08:18:05.001Z</time></trkpt><trkpt lat="42.07657903146201" lon="20.03870114893059"><ele>550.0</ele><time>2026-05-04T08:18:06.001Z</time></trkpt><trkpt lat="42.076605189308125" lon="20.038876145884963"><ele>553.0</ele><time>2026-05-04T08:18:07.001Z</time></trkpt><trkpt lat="42.076621447869876" lon="20.03904475272326"><ele>556.0</ele><time>2026-05-04T08:18:08.001Z</time></trkpt><trkpt lat="42.07663963008303" lon="20.039205244482407"><ele>559.0</ele><time>2026-05-04T08:18:09.001Z</time></trkpt><trkpt lat="42.076650609611846" lon="20.039351259112735"><ele>559.0</ele><time>2026-05-04T08:18:10.001Z</time></trkpt><trkpt lat="42.07663930223274" lon="20.03949625616836"><ele>559.0</ele><time>2026-05-04T08:18:11.001Z</time></trkpt><trkpt lat="42.07661237237147" lon="20.039639796545107"><ele>559.0</ele><time>2026-05-04T08:18:12.001Z</time></trkpt><trkpt lat="42.07657069613793" lon="20.039788618567833"><ele>559.0</ele><time>2026-05-04T08:18:13.001Z</time></trkpt><trkpt lat="42.0765276285138" lon="20.039933415466262"><ele>556.5</ele><time>2026-05-04T08:18:14.001Z</time></trkpt><trkpt lat="42.07649692382063" lon="20.040086889609068"><ele>554.0</ele><time>2026-05-04T08:18:15.001Z</time></trkpt><trkpt lat="42.07649114002792" lon="20.0402432602777"><ele>551.5</ele><time>2026-05-04T08:18:16.001Z</time></trkpt><trkpt lat="42.07649901508761" lon="20.04040915655918"><ele>549.0</ele><time>2026-05-04T08:18:17.001Z</time></trkpt><trkpt lat="42.076514351126164" lon="20.040579379900574"><ele>549.0</ele><time>2026-05-04T08:18:18.001Z</time></trkpt><trkpt lat="42.07652368682779" lon="20.040758335745316"><ele>549.0</ele><time>2026-05-04T08:18:19.001Z</time></trkpt><trkpt lat="42.07653459169903" lon="20.04095078983435"><ele>549.0</ele><time>2026-05-04T08:18:20.001Z</time></trkpt><trkpt lat="42.07654711881926" lon="20.041152601387118"><ele>549.0</ele><time>2026-05-04T08:18:21.001Z</time></trkpt><trkpt lat="42.07655589237647" lon="20.041357185106705"><ele>549.25</ele><time>2026-05-04T08:18:22.001Z</time></trkpt><trkpt lat="42.076557584554216" lon="20.04155795511934"><ele>549.5</ele><time>2026-05-04T08:18:23.001Z</time></trkpt><trkpt lat="42.07655396508791" lon="20.041757937615287"><ele>549.75</ele><time>2026-05-04T08:18:24.001Z</time></trkpt><trkpt lat="42.076540117399084" lon="20.04195035365914"><ele>550.0</ele><time>2026-05-04T08:18:25.001Z</time></trkpt><trkpt lat="42.0765194074216" lon="20.042130374038294"><ele>550.0</ele><time>2026-05-04T08:18:26.001Z</time></trkpt><trkpt lat="42.076485497805876" lon="20.042301138745092"><ele>550.0</ele><time>2026-05-04T08:18:27.001Z</time></trkpt><trkpt lat="42.07644712342375" lon="20.042474235026404"><ele>550.0</ele><time>2026-05-04T08:18:28.001Z</time></trkpt><trkpt lat="42.0764077908673" lon="20.042644293865884"><ele>550.0</ele><time>2026-05-04T08:18:29.001Z</time></trkpt><trkpt lat="42.07637001178597" lon="20.042819090704686"><ele>550.5</ele><time>2026-05-04T08:18:30.001Z</time></trkpt><trkpt lat="42.076336849268586" lon="20.043001989200445"><ele>551.0</ele><time>2026-05-04T08:18:31.001Z</time></trkpt><trkpt lat="42.076309730332135" lon="20.043191528982206"><ele>551.5</ele><time>2026-05-04T08:18:32.001Z</time></trkpt><trkpt lat="42.07628608683221" lon="20.043385480675955"><ele>552.0</ele><time>2026-05-04T08:18:33.001Z</time></trkpt><trkpt lat="42.076265710422106" lon="20.04358959796517"><ele>552.6666666666666</ele><time>2026-05-04T08:18:34.001Z</time></trkpt><trkpt lat="42.07624606745752" lon="20.043794854829983"><ele>553.3333333333333</ele><time>2026-05-04T08:18:35.001Z</time></trkpt><trkpt lat="42.07623047169372" lon="20.044009830697007"><ele>554.0</ele><time>2026-05-04T08:18:36.001Z</time></trkpt><trkpt lat="42.07622204654346" lon="20.044226320505686"><ele>554.6666666666666</ele><time>2026-05-04T08:18:37.001Z</time></trkpt><trkpt lat="42.0762156114298" lon="20.04444079342749"><ele>555.3333333333334</ele><time>2026-05-04T08:18:38.001Z</time></trkpt><trkpt lat="42.07621186403237" lon="20.044655625250442"><ele>556.0</ele><time>2026-05-04T08:18:39.001Z</time></trkpt><trkpt lat="42.076203947224776" lon="20.044865406458126"><ele>556.75</ele><time>2026-05-04T08:18:40.001Z</time></trkpt><trkpt lat="42.07619600879557" lon="20.045072627779877"><ele>557.5</ele><time>2026-05-04T08:18:41.001Z</time></trkpt><trkpt lat="42.07618809197183" lon="20.045271150183524"><ele>558.25</ele><time>2026-05-04T08:18:42.001Z</time></trkpt><trkpt lat="42.076178729172355" lon="20.04544959396732"><ele>559.0</ele><time>2026-05-04T08:18:43.001Z</time></trkpt><trkpt lat="42.07616393497325" lon="20.045616207588925"><ele>559.0</ele><time>2026-05-04T08:18:44.001Z</time></trkpt><trkpt lat="42.07613149400342" lon="20.045789578168776"><ele>559.0</ele><time>2026-05-04T08:18:45.001Z</time></trkpt><trkpt lat="42.07607099283544" lon="20.04597443259852"><ele>559.0</ele><time>2026-05-04T08:18:46.001Z</time></trkpt><trkpt lat="42.075998313573464" lon="20.046177341555726"><ele>558.6666666666667</ele><time>2026-05-04T08:18:47.001Z</time></trkpt><trkpt lat="42.07591077620559" lon="20.04638294221461"><ele>558.3333333333334</ele><time>2026-05-04T08:18:48.001Z</time></trkpt><trkpt lat="42.0758254418608" lon="20.046597645123676"><ele>558.0</ele><time>2026-05-04T08:18:49.001Z</time></trkpt><trkpt lat="42.07572668433751" lon="20.04680588347685"><ele>558.0</ele><time>2026-05-04T08:18:50.001Z</time></trkpt><trkpt lat="42.075612607226745" lon="20.04699962113287"><ele>558.0</ele><time>2026-05-04T08:18:51.001Z</time></trkpt><trkpt lat="42.075496577535844" lon="20.047178054969685"><ele>558.0</ele><time>2026-05-04T08:18:52.001Z</time></trkpt><trkpt lat="42.07540156118796" lon="20.047331446668373"><ele>559.5</ele><time>2026-05-04T08:18:53.001Z</time></trkpt><trkpt lat="42.07533570279003" lon="20.04747812672298"><ele>561.0</ele><time>2026-05-04T08:18:54.001Z</time></trkpt><trkpt lat="42.07529317199144" lon="20.04765124766555"><ele>562.5</ele><time>2026-05-04T08:18:55.001Z</time></trkpt><trkpt lat="42.075281178972254" lon="20.047851299829347"><ele>564.0</ele><time>2026-05-04T08:18:56.001Z</time></trkpt><trkpt lat="42.07529314268528" lon="20.048074840614774"><ele>565.3333333333334</ele><time>2026-05-04T08:18:57.001Z</time></trkpt><trkpt lat="42.075305114530124" lon="20.04830758460365"><ele>566.6666666666667</ele><time>2026-05-04T08:18:58.001Z</time></trkpt><trkpt lat="42.07531059607704" lon="20.04856110377122"><ele>568.0</ele><time>2026-05-04T08:18:59.001Z</time></trkpt><trkpt lat="42.07530907466655" lon="20.048819663623124"><ele>568.0</ele><time>2026-05-04T08:19:00Z</time></trkpt><trkpt lat="42.07530513372214" lon="20.049081874877178"><ele>568.0</ele><time>2026-05-04T08:19:01Z</time></trkpt><trkpt lat="42.07530804638102" lon="20.049339531642815"><ele>568.0</ele><time>2026-05-04T08:19:02Z</time></trkpt><trkpt lat="42.07531501927489" lon="20.04958452502947"><ele>567.6666666666667</ele><time>2026-05-04T08:19:03Z</time></trkpt><trkpt lat="42.07533698445888" lon="20.049819858274734"><ele>567.3333333333334</ele><time>2026-05-04T08:19:04Z</time></trkpt><trkpt lat="42.07538253934237" lon="20.050049945197305"><ele>567.0</ele><time>2026-05-04T08:19:05Z</time></trkpt><trkpt lat="42.07544562983638" lon="20.0502697242055"><ele>567.0</ele><time>2026-05-04T08:19:06Z</time></trkpt><trkpt lat="42.07549264783464" lon="20.05048144577072"><ele>567.0</ele><time>2026-05-04T08:19:07Z</time></trkpt><trkpt lat="42.07551047159181" lon="20.050707534916086"><ele>567.0</ele><time>2026-05-04T08:19:08Z</time></trkpt><trkpt lat="42.07550875428058" lon="20.050943627256586"><ele>566.6666666666666</ele><time>2026-05-04T08:19:09Z</time></trkpt><trkpt lat="42.0755114406032" lon="20.051173784496964"><ele>566.3333333333333</ele><time>2026-05-04T08:19:10Z</time></trkpt><trkpt lat="42.0755281979515" lon="20.05140741250573"><ele>566.0</ele><time>2026-05-04T08:19:11Z</time></trkpt><trkpt lat="42.07555076604876" lon="20.05162173277458"><ele>566.4</ele><time>2026-05-04T08:19:12Z</time></trkpt><trkpt lat="42.07556885305551" lon="20.05180300613183"><ele>566.8</ele><time>2026-05-04T08:19:13Z</time></trkpt><trkpt lat="42.07559520398514" lon="20.051943002426754"><ele>567.1999999999999</ele><time>2026-05-04T08:19:14Z</time></trkpt><trkpt lat="42.07564500075066" lon="20.05205531079692"><ele>567.6</ele><time>2026-05-04T08:19:15Z</time></trkpt><trkpt lat="42.07572984519552" lon="20.052141063167362"><ele>568.0</ele><time>2026-05-04T08:19:16Z</time></trkpt><trkpt lat="42.075847898140026" lon="20.052175850207046"><ele>574.6666666666667</ele><time>2026-05-04T08:19:17Z</time></trkpt><trkpt lat="42.075987551530325" lon="20.052164388502963"><ele>581.3333333333334</ele><time>2026-05-04T08:19:18Z</time></trkpt><trkpt lat="42.07614751583729" lon="20.052137403989043"><ele>588.0</ele><time>2026-05-04T08:19:19Z</time></trkpt><trkpt lat="42.07631884131858" lon="20.05210989057121"><ele>588.0</ele><time>2026-05-04T08:19:20Z</time></trkpt><trkpt lat="42.07649684455523" lon="20.052079596261823"><ele>588.0</ele><time>2026-05-04T08:19:21Z</time></trkpt><trkpt lat="42.076688331019234" lon="20.052045623733132"><ele>588.0</ele><time>2026-05-04T08:19:22Z</time></trkpt><trkpt lat="42.0768870364172" lon="20.052012135342135"><ele>590.3333333333334</ele><time>2026-05-04T08:19:23Z</time></trkpt><trkpt lat="42.07709063871368" lon="20.051992230057113"><ele>592.6666666666667</ele><time>2026-05-04T08:19:24Z</time></trkpt><trkpt lat="42.07730145167245" lon="20.05198884276485"><ele>595.0</ele><time>2026-05-04T08:19:25Z</time></trkpt><trkpt lat="42.07748471925436" lon="20.0519995020373"><ele>596.25</ele><time>2026-05-04T08:19:26Z</time></trkpt><trkpt lat="42.077646093125374" lon="20.0520262232457"><ele>597.5</ele><time>2026-05-04T08:19:27Z</time></trkpt><trkpt lat="42.07777055415458" lon="20.05207375956845"><ele>598.75</ele><time>2026-05-04T08:19:28Z</time></trkpt><trkpt lat="42.077865870550404" lon="20.052149959991567"><ele>600.0</ele><time>2026-05-04T08:19:29Z</time></trkpt><trkpt lat="42.07794876761178" lon="20.052254546645"><ele>600.0</ele><time>2026-05-04T08:19:30Z</time></trkpt><trkpt lat="42.07801376701876" lon="20.05239598231927"><ele>600.0</ele><time>2026-05-04T08:19:31Z</time></trkpt><trkpt lat="42.0780560256822" lon="20.052571452079306"><ele>600.0</ele><time>2026-05-04T08:19:32Z</time></trkpt><trkpt lat="42.07808215822342" lon="20.052766910832847"><ele>600.0</ele><time>2026-05-04T08:19:33Z</time></trkpt><trkpt lat="42.07810876280722" lon="20.052960801783975"><ele>594.0</ele><time>2026-05-04T08:19:34Z</time></trkpt><trkpt lat="42.07814002108628" lon="20.053150187412992"><ele>588.0</ele><time>2026-05-04T08:19:35Z</time></trkpt><trkpt lat="42.078173643346055" lon="20.053329182848973"><ele>582.0</ele><time>2026-05-04T08:19:36Z</time></trkpt><trkpt lat="42.07819839684201" lon="20.053445835718218"><ele>576.0</ele><time>2026-05-04T08:19:37Z</time></trkpt><trkpt lat="42.07826552595435" lon="20.053507600521208"><ele>576.6666666666666</ele><time>2026-05-04T08:19:40Z</time></trkpt><trkpt lat="42.07833742075963" lon="20.05349582385641"><ele>577.3333333333334</ele><time>2026-05-04T08:19:42Z</time></trkpt><trkpt lat="42.07843766359459" lon="20.053451646056555"><ele>578.0</ele><time>2026-05-04T08:19:44Z</time></trkpt><trkpt lat="42.07851373802677" lon="20.053421811492598"><ele>578.6666666666667</ele><time>2026-05-04T08:19:45Z</time></trkpt><trkpt lat="42.07860059264768" lon="20.053402267103646"><ele>579.3333333333334</ele><time>2026-05-04T08:19:46Z</time></trkpt><trkpt lat="42.07870017474104" lon="20.053394845634358"><ele>580.0</ele><time>2026-05-04T08:19:47Z</time></trkpt><trkpt lat="42.078804213430146" lon="20.053401701527488"><ele>580.0</ele><time>2026-05-04T08:19:48Z</time></trkpt><trkpt lat="42.078921034449905" lon="20.053418824701254"><ele>580.0</ele><time>2026-05-04T08:19:49Z</time></trkpt><trkpt lat="42.079045045211515" lon="20.053443975521677"><ele>580.0</ele><time>2026-05-04T08:19:50Z</time></trkpt><trkpt lat="42.079175632503116" lon="20.053476112944864"><ele>580.0</ele><time>2026-05-04T08:19:51Z</time></trkpt><trkpt lat="42.0792995482027" lon="20.053496270472564"><ele>580.5</ele><time>2026-05-04T08:19:52Z</time></trkpt><trkpt lat="42.07941398550925" lon="20.05350455524824"><ele>581.0</ele><time>2026-05-04T08:19:53Z</time></trkpt><trkpt lat="42.07951816348157" lon="20.053490282890074"><ele>581.5</ele><time>2026-05-04T08:19:54Z</time></trkpt><trkpt lat="42.07961559686664" lon="20.053432205394646"><ele>582.0</ele><time>2026-05-04T08:19:55Z</time></trkpt><trkpt lat="42.079736917300174" lon="20.05335244065594"><ele>581.3333333333334</ele><time>2026-05-04T08:19:56Z</time></trkpt><trkpt lat="42.07987101256296" lon="20.05327448148807"><ele>580.6666666666667</ele><time>2026-05-04T08:19:57Z</time></trkpt><trkpt lat="42.08000572540666" lon="20.053197218453374"><ele>580.0</ele><time>2026-05-04T08:19:58Z</time></trkpt><trkpt lat="42.080147918908565" lon="20.053105880003073"><ele>580.0</ele><time>2026-05-04T08:19:59Z</time></trkpt><trkpt lat="42.080282975628535" lon="20.052981744063622"><ele>580.0</ele><time>2026-05-04T08:20:00Z</time></trkpt><trkpt lat="42.08041165142261" lon="20.05283494038783"><ele>580.0</ele><time>2026-05-04T08:20:01Z</time></trkpt><trkpt lat="42.08051724694964" lon="20.05271609939974"><ele>580.0</ele><time>2026-05-04T08:20:02Z</time></trkpt><trkpt lat="42.08061127884869" lon="20.052649736881914"><ele>580.0</ele><time>2026-05-04T08:20:03Z</time></trkpt><trkpt lat="42.08070803896312" lon="20.052630663630616"><ele>580.0</ele><time>2026-05-04T08:20:04Z</time></trkpt><trkpt lat="42.080804021953135" lon="20.052661245347263"><ele>580.0</ele><time>2026-05-04T08:20:05Z</time></trkpt><trkpt lat="42.08089636675823" lon="20.052728907297162"><ele>580.0</ele><time>2026-05-04T08:20:06Z</time></trkpt><trkpt lat="42.080997551454736" lon="20.05276349293348"><ele>580.75</ele><time>2026-05-04T08:20:07Z</time></trkpt><trkpt lat="42.08111248639809" lon="20.052738473672438"><ele>581.5</ele><time>2026-05-04T08:20:08Z</time></trkpt><trkpt lat="42.08122924663368" lon="20.052680520750897"><ele>582.25</ele><time>2026-05-04T08:20:09Z</time></trkpt><trkpt lat="42.081344755228045" lon="20.052603993604585"><ele>583.0</ele><time>2026-05-04T08:20:10Z</time></trkpt><trkpt lat="42.08144797531528" lon="20.052504493950135"><ele>582.5</ele><time>2026-05-04T08:20:11Z</time></trkpt><trkpt lat="42.08154788387386" lon="20.05239203352559"><ele>582.0</ele><time>2026-05-04T08:20:12Z</time></trkpt><trkpt lat="42.081652706077264" lon="20.05231017283266"><ele>581.5</ele><time>2026-05-04T08:20:13Z</time></trkpt><trkpt lat="42.0817679208383" lon="20.052265998361023"><ele>581.0</ele><time>2026-05-04T08:20:14Z</time></trkpt><trkpt lat="42.08189814567726" lon="20.052247833861614"><ele>581.0</ele><time>2026-05-04T08:20:15Z</time></trkpt><trkpt lat="42.08202643719449" lon="20.05227003859158"><ele>581.0</ele><time>2026-05-04T08:20:16Z</time></trkpt><trkpt lat="42.082150355449215" lon="20.05232395951312"><ele>581.0</ele><time>2026-05-04T08:20:17Z</time></trkpt><trkpt lat="42.08226918679357" lon="20.052400699879016"><ele>581.0</ele><time>2026-05-04T08:20:18Z</time></trkpt><trkpt lat="42.082386767244564" lon="20.052480293881104"><ele>583.25</ele><time>2026-05-04T08:20:19Z</time></trkpt><trkpt lat="42.08250623042581" lon="20.052558655077544"><ele>585.5</ele><time>2026-05-04T08:20:20Z</time></trkpt><trkpt lat="42.08263240232476" lon="20.052619656454617"><ele>587.75</ele><time>2026-05-04T08:20:21Z</time></trkpt><trkpt lat="42.08276620383235" lon="20.05265059891392"><ele>590.0</ele><time>2026-05-04T08:20:22Z</time></trkpt><trkpt lat="42.08290180801812" lon="20.052647217565085"><ele>590.0</ele><time>2026-05-04T08:20:23Z</time></trkpt><trkpt lat="42.08303426093171" lon="20.052631914502726"><ele>590.0</ele><time>2026-05-04T08:20:24Z</time></trkpt><trkpt lat="42.0831681967592" lon="20.05262733501693"><ele>590.0</ele><time>2026-05-04T08:20:25Z</time></trkpt><trkpt lat="42.0833057358797" lon="20.052637973382943"><ele>590.0</ele><time>2026-05-04T08:20:26Z</time></trkpt><trkpt lat="42.083432427536984" lon="20.052695581431163"><ele>590.4</ele><time>2026-05-04T08:20:27Z</time></trkpt><trkpt lat="42.08349510476451" lon="20.052703520691832"><ele>590.8</ele><time>2026-05-04T08:20:28Z</time></trkpt><trkpt lat="42.08358566265791" lon="20.05273365343464"><ele>591.2</ele><time>2026-05-04T08:20:29Z</time></trkpt><trkpt lat="42.08368586878809" lon="20.052736985656544"><ele>591.6</ele><time>2026-05-04T08:20:30Z</time></trkpt><trkpt lat="42.083801949280435" lon="20.05271272572606"><ele>592.0</ele><time>2026-05-04T08:20:31Z</time></trkpt><trkpt lat="42.08393102455025" lon="20.052650001439144"><ele>592.0</ele><time>2026-05-04T08:20:32Z</time></trkpt><trkpt lat="42.08405045623948" lon="20.052546412420547"><ele>592.0</ele><time>2026-05-04T08:20:33Z</time></trkpt><trkpt lat="42.08416076748109" lon="20.052404535957713"><ele>592.0</ele><time>2026-05-04T08:20:34Z</time></trkpt><trkpt lat="42.08427146748327" lon="20.052248469410785"><ele>591.5</ele><time>2026-05-04T08:20:35Z</time></trkpt><trkpt lat="42.08437005549859" lon="20.05209858931595"><ele>591.0</ele><time>2026-05-04T08:20:36Z</time></trkpt><trkpt lat="42.08446430260808" lon="20.05201681421576"><ele>590.5</ele><time>2026-05-04T08:20:37Z</time></trkpt><trkpt lat="42.084565136354385" lon="20.05201056037355"><ele>590.0</ele><time>2026-05-04T08:20:38Z</time></trkpt><trkpt lat="42.08468989232117" lon="20.052043074989452"><ele>590.0</ele><time>2026-05-04T08:20:39Z</time></trkpt><trkpt lat="42.08483389849326" lon="20.052080804132114"><ele>590.0</ele><time>2026-05-04T08:20:40Z</time></trkpt><trkpt lat="42.084993364291144" lon="20.052124797285963"><ele>590.0</ele><time>2026-05-04T08:20:41Z</time></trkpt><trkpt lat="42.085163117034945" lon="20.05215678316821"><ele>591.3333333333333</ele><time>2026-05-04T08:20:42Z</time></trkpt><trkpt lat="42.08534637820814" lon="20.052153361202798"><ele>592.6666666666666</ele><time>2026-05-04T08:20:43Z</time></trkpt><trkpt lat="42.08552964840646" lon="20.05213966368958"><ele>594.0</ele><time>2026-05-04T08:20:44Z</time></trkpt><trkpt lat="42.08573038431336" lon="20.052153474970194"><ele>594.6666666666666</ele><time>2026-05-04T08:20:45Z</time></trkpt><trkpt lat="42.0859334205055" lon="20.052196797738997"><ele>595.3333333333333</ele><time>2026-05-04T08:20:46Z</time></trkpt><trkpt lat="42.08613736675521" lon="20.052242686708762"><ele>596.0</ele><time>2026-05-04T08:20:47Z</time></trkpt><trkpt lat="42.08634829137483" lon="20.052258961609763"><ele>596.0</ele><time>2026-05-04T08:20:48Z</time></trkpt><trkpt lat="42.08655815824132" lon="20.052253182031325"><ele>596.0</ele><time>2026-05-04T08:20:49Z</time></trkpt><trkpt lat="42.08676877577635" lon="20.052225852499472"><ele>596.0</ele><time>2026-05-04T08:20:50Z</time></trkpt><trkpt lat="42.08696128526375" lon="20.052211589784136"><ele>596.0</ele><time>2026-05-04T08:20:51Z</time></trkpt><trkpt lat="42.087139051807085" lon="20.05220871898884"><ele>596.0</ele><time>2026-05-04T08:20:52Z</time></trkpt><trkpt lat="42.087307106240935" lon="20.05219450140022"><ele>596.0</ele><time>2026-05-04T08:20:53Z</time></trkpt><trkpt lat="42.08746380051762" lon="20.05214303940029"><ele>596.6666666666666</ele><time>2026-05-04T08:20:54Z</time></trkpt><trkpt lat="42.08760433829296" lon="20.052048439932793"><ele>597.3333333333334</ele><time>2026-05-04T08:20:55Z</time></trkpt><trkpt lat="42.087726140728954" lon="20.05192237000213"><ele>598.0</ele><time>2026-05-04T08:20:56Z</time></trkpt><trkpt lat="42.08782873438512" lon="20.051765304744883"><ele>603.0</ele><time>2026-05-04T08:20:57Z</time></trkpt><trkpt lat="42.08792818478104" lon="20.05159863595325"><ele>608.0</ele><time>2026-05-04T08:20:58Z</time></trkpt><trkpt lat="42.08805727884372" lon="20.051449701409922"><ele>613.0</ele><time>2026-05-04T08:20:59Z</time></trkpt><trkpt lat="42.0881982446024" lon="20.05131805822584"><ele>610.0</ele><time>2026-05-04T08:21:00Z</time></trkpt><trkpt lat="42.088351724215784" lon="20.051222736674973"><ele>607.0</ele><time>2026-05-04T08:21:01Z</time></trkpt><trkpt lat="42.08851035821249" lon="20.051192092862358"><ele>604.0</ele><time>2026-05-04T08:21:02Z</time></trkpt><trkpt lat="42.088669803249196" lon="20.051188548386563"><ele>604.0</ele><time>2026-05-04T08:21:03Z</time></trkpt><trkpt lat="42.08883651295004" lon="20.05120766437335"><ele>604.0</ele><time>2026-05-04T08:21:04Z</time></trkpt><trkpt lat="42.08897500622832" lon="20.051262713755765"><ele>604.0</ele><time>2026-05-04T08:21:05Z</time></trkpt><trkpt lat="42.08906277582457" lon="20.051355986605248"><ele>604.0</ele><time>2026-05-04T08:21:06Z</time></trkpt><trkpt lat="42.08914099828526" lon="20.05148028032368"><ele>604.0</ele><time>2026-05-04T08:21:07Z</time></trkpt><trkpt lat="42.089241280316884" lon="20.051600366582743"><ele>604.0</ele><time>2026-05-04T08:21:08Z</time></trkpt><trkpt lat="42.089345666714244" lon="20.051654951141206"><ele>604.0</ele><time>2026-05-04T08:21:09Z</time></trkpt><trkpt lat="42.08946864230579" lon="20.051655365213186"><ele>604.0</ele><time>2026-05-04T08:21:10Z</time></trkpt><trkpt lat="42.089597584833044" lon="20.051609631423148"><ele>603.6666666666667</ele><time>2026-05-04T08:21:11Z</time></trkpt><trkpt lat="42.089720707186295" lon="20.051509878495988"><ele>603.3333333333334</ele><time>2026-05-04T08:21:12Z</time></trkpt><trkpt lat="42.08984605654778" lon="20.051387293679984"><ele>603.0</ele><time>2026-05-04T08:21:13Z</time></trkpt><trkpt lat="42.089978277558544" lon="20.05126157220991"><ele>603.6666666666666</ele><time>2026-05-04T08:21:14Z</time></trkpt><trkpt lat="42.09012931385922" lon="20.051127659784886"><ele>604.3333333333333</ele><time>2026-05-04T08:21:15Z</time></trkpt><trkpt lat="42.09028669285645" lon="20.050995326614718"><ele>605.0</ele><time>2026-05-04T08:21:16Z</time></trkpt><trkpt lat="42.09044732548445" lon="20.05086588138425"><ele>608.3333333333333</ele><time>2026-05-04T08:21:17Z</time></trkpt><trkpt lat="42.09060506158972" lon="20.050737830437555"><ele>611.6666666666666</ele><time>2026-05-04T08:21:18Z</time></trkpt><trkpt lat="42.09074236041889" lon="20.050636492121235"><ele>615.0</ele><time>2026-05-04T08:21:19Z</time></trkpt><trkpt lat="42.09086866505406" lon="20.050582157987424"><ele>615.0</ele><time>2026-05-04T08:21:20Z</time></trkpt><trkpt lat="42.09101404932482" lon="20.050563697816013"><ele>615.0</ele><time>2026-05-04T08:21:21Z</time></trkpt><trkpt lat="42.091188774145174" lon="20.050552162997988"><ele>615.0</ele><time>2026-05-04T08:21:22Z</time></trkpt><trkpt lat="42.0913776236762" lon="20.05052542013048"><ele>615.0</ele><time>2026-05-04T08:21:23Z</time></trkpt><trkpt lat="42.091565920736244" lon="20.05049710221079"><ele>615.0</ele><time>2026-05-04T08:21:24.001Z</time></trkpt><trkpt lat="42.09172771381556" lon="20.050485206892823"><ele>615.0</ele><time>2026-05-04T08:21:25.001Z</time></trkpt><trkpt lat="42.09188024055101" lon="20.0505117029907"><ele>613.75</ele><time>2026-05-04T08:21:26.001Z</time></trkpt><trkpt lat="42.09201837008613" lon="20.050551266896107"><ele>612.5</ele><time>2026-05-04T08:21:27.001Z</time></trkpt><trkpt lat="42.09212740273779" lon="20.050533850590966"><ele>611.25</ele><time>2026-05-04T08:21:28.001Z</time></trkpt><trkpt lat="42.092227331582166" lon="20.050442657350267"><ele>610.0</ele><time>2026-05-04T08:21:29.001Z</time></trkpt><trkpt lat="42.092330141493" lon="20.050309054827217"><ele>610.0</ele><time>2026-05-04T08:21:30.001Z</time></trkpt><trkpt lat="42.09242304302772" lon="20.050146805724424"><ele>610.0</ele><time>2026-05-04T08:21:31.001Z</time></trkpt><trkpt lat="42.092506823862365" lon="20.049957465272584"><ele>610.0</ele><time>2026-05-04T08:21:32.001Z</time></trkpt><trkpt lat="42.092586186275085" lon="20.049781851526728"><ele>610.0</ele><time>2026-05-04T08:21:33.001Z</time></trkpt><trkpt lat="42.092679127031786" lon="20.04967285541011"><ele>610.0</ele><time>2026-05-04T08:21:34.001Z</time></trkpt><trkpt lat="42.09278663084151" lon="20.04963487732885"><ele>610.0</ele><time>2026-05-04T08:21:35.001Z</time></trkpt><trkpt lat="42.09289937391593" lon="20.04964945670451"><ele>610.0</ele><time>2026-05-04T08:21:36.001Z</time></trkpt><trkpt lat="42.09301689263222" lon="20.049715965278875"><ele>610.0</ele><time>2026-05-04T08:21:37.001Z</time></trkpt><trkpt lat="42.093133889936226" lon="20.049783384166254"><ele>610.0</ele><time>2026-05-04T08:21:38.001Z</time></trkpt><trkpt lat="42.093252621389574" lon="20.049857769253826"><ele>610.0</ele><time>2026-05-04T08:21:39.001Z</time></trkpt><trkpt lat="42.09338217371387" lon="20.049932584913087"><ele>610.0</ele><time>2026-05-04T08:21:40.001Z</time></trkpt><trkpt lat="42.09351948433571" lon="20.049983432746554"><ele>610.25</ele><time>2026-05-04T08:21:41.001Z</time></trkpt><trkpt lat="42.09363850313948" lon="20.049988045529073"><ele>610.5</ele><time>2026-05-04T08:21:42.001Z</time></trkpt><trkpt lat="42.09373575705953" lon="20.04993624608655"><ele>610.75</ele><time>2026-05-04T08:21:43.001Z</time></trkpt><trkpt lat="42.093822812994546" lon="20.049848055946157"><ele>611.0</ele><time>2026-05-04T08:21:44.001Z</time></trkpt><trkpt lat="42.09392005032487" lon="20.04973080278903"><ele>611.0</ele><time>2026-05-04T08:21:45.001Z</time></trkpt><trkpt lat="42.09404760636652" lon="20.049629991188308"><ele>611.0</ele><time>2026-05-04T08:21:46.001Z</time></trkpt><trkpt lat="42.094196724809294" lon="20.049534707889475"><ele>611.0</ele><time>2026-05-04T08:21:47.001Z</time></trkpt><trkpt lat="42.09434612093901" lon="20.04944559126043"><ele>612.0</ele><time>2026-05-04T08:21:48.001Z</time></trkpt><trkpt lat="42.094495513378384" lon="20.04935168478972"><ele>613.0</ele><time>2026-05-04T08:21:49.001Z</time></trkpt><trkpt lat="42.09465117488246" lon="20.049270067880457"><ele>614.0</ele><time>2026-05-04T08:21:50.001Z</time></trkpt><trkpt lat="42.094835375847005" lon="20.049219530010923"><ele>614.3333333333333</ele><time>2026-05-04T08:21:51.001Z</time></trkpt><trkpt lat="42.09503686177334" lon="20.04917676732189"><ele>614.6666666666666</ele><time>2026-05-04T08:21:52.001Z</time></trkpt><trkpt lat="42.09524381187173" lon="20.049130788431942"><ele>615.0</ele><time>2026-05-04T08:21:53.001Z</time></trkpt><trkpt lat="42.09543647015454" lon="20.049089736986854"><ele>615.0</ele><time>2026-05-04T08:21:54.001Z</time></trkpt><trkpt lat="42.09559823074415" lon="20.049077209586045"><ele>615.0</ele><time>2026-05-04T08:21:55.001Z</time></trkpt><trkpt lat="42.09572635743195" lon="20.049114680424577"><ele>615.0</ele><time>2026-05-04T08:21:56.001Z</time></trkpt><trkpt lat="42.095853463837216" lon="20.04920297851218"><ele>615.0</ele><time>2026-05-04T08:21:57.001Z</time></trkpt><trkpt lat="42.096004045393386" lon="20.04932325557381"><ele>617.0</ele><time>2026-05-04T08:21:58.001Z</time></trkpt><trkpt lat="42.0961779587615" lon="20.049428518586513"><ele>619.0</ele><time>2026-05-04T08:21:59.001Z</time></trkpt><trkpt lat="42.096357026959886" lon="20.04950292597988"><ele>621.0</ele><time>2026-05-04T08:22:00Z</time></trkpt><trkpt lat="42.09655262355018" lon="20.049535794915073"><ele>621.0</ele><time>2026-05-04T08:22:01Z</time></trkpt><trkpt lat="42.09677174753247" lon="20.049529222788887"><ele>621.0</ele><time>2026-05-04T08:22:02Z</time></trkpt><trkpt lat="42.097008235879954" lon="20.04952727264048"><ele>621.0</ele><time>2026-05-04T08:22:03Z</time></trkpt><trkpt lat="42.09725277893611" lon="20.04952023844978"><ele>621.0</ele><time>2026-05-04T08:22:04Z</time></trkpt><trkpt lat="42.09749995666113" lon="20.04950474364282"><ele>623.0</ele><time>2026-05-04T08:22:05Z</time></trkpt><trkpt lat="42.09774980920213" lon="20.049484275511205"><ele>625.0</ele><time>2026-05-04T08:22:06Z</time></trkpt><trkpt lat="42.09799754424467" lon="20.049462900053943"><ele>625.0</ele><time>2026-05-04T08:22:07Z</time></trkpt><trkpt lat="42.0982225419072" lon="20.049442010114195"><ele>625.0</ele><time>2026-05-04T08:22:08Z</time></trkpt><trkpt lat="42.098420305584085" lon="20.04941460420667"><ele>625.0</ele><time>2026-05-04T08:22:09Z</time></trkpt><trkpt lat="42.098599477109595" lon="20.049385481605327"><ele>627.0</ele><time>2026-05-04T08:22:10Z</time></trkpt><trkpt lat="42.09877139215604" lon="20.049368610899748"><ele>629.0</ele><time>2026-05-04T08:22:11Z</time></trkpt><trkpt lat="42.09894710664547" lon="20.049369440205293"><ele>631.0</ele><time>2026-05-04T08:22:12Z</time></trkpt><trkpt lat="42.09911850567044" lon="20.049379662960696"><ele>631.0</ele><time>2026-05-04T08:22:13Z</time></trkpt><trkpt lat="42.0992512995772" lon="20.049407291670892"><ele>631.0</ele><time>2026-05-04T08:22:14Z</time></trkpt><trkpt lat="42.099350832425266" lon="20.049476273981085"><ele>631.0</ele><time>2026-05-04T08:22:15Z</time></trkpt><trkpt lat="42.09943658221372" lon="20.04959536780093"><ele>631.0</ele><time>2026-05-04T08:22:16Z</time></trkpt><trkpt lat="42.09952395881362" lon="20.0497305400344"><ele>631.0</ele><time>2026-05-04T08:22:17Z</time></trkpt><trkpt lat="42.099626410933546" lon="20.049813998989244"><ele>631.0</ele><time>2026-05-04T08:22:18Z</time></trkpt><trkpt lat="42.099754443364546" lon="20.049841941369202"><ele>631.0</ele><time>2026-05-04T08:22:19Z</time></trkpt><trkpt lat="42.099895845059315" lon="20.04981916756442"><ele>631.0</ele><time>2026-05-04T08:22:20Z</time></trkpt><trkpt lat="42.100049838226994" lon="20.049767441718874"><ele>631.0</ele><time>2026-05-04T08:22:21Z</time></trkpt><trkpt lat="42.10020145645696" lon="20.049732717776305"><ele>631.0</ele><time>2026-05-04T08:22:22Z</time></trkpt><trkpt lat="42.10034964968117" lon="20.049755326488725"><ele>631.0</ele><time>2026-05-04T08:22:23Z</time></trkpt><trkpt lat="42.10049388367176" lon="20.0498236900676"><ele>631.0</ele><time>2026-05-04T08:22:24Z</time></trkpt><trkpt lat="42.10064207755329" lon="20.04989473523725"><ele>631.0</ele><time>2026-05-04T08:22:25Z</time></trkpt><trkpt lat="42.10078959467745" lon="20.04991926638891"><ele>631.0</ele><time>2026-05-04T08:22:26Z</time></trkpt><trkpt lat="42.10092694560844" lon="20.049883810445117"><ele>631.0</ele><time>2026-05-04T08:22:27Z</time></trkpt><trkpt lat="42.1010510759615" lon="20.04981191979493"><ele>631.5</ele><time>2026-05-04T08:22:28Z</time></trkpt><trkpt lat="42.10116462361158" lon="20.049750085587984"><ele>632.0</ele><time>2026-05-04T08:22:29Z</time></trkpt><trkpt lat="42.10127424688018" lon="20.04970925737968"><ele>632.5</ele><time>2026-05-04T08:22:30Z</time></trkpt><trkpt lat="42.101384038642365" lon="20.049683953570202"><ele>633.0</ele><time>2026-05-04T08:22:31Z</time></trkpt><trkpt lat="42.10149250071525" lon="20.049691852503162"><ele>634.25</ele><time>2026-05-04T08:22:32Z</time></trkpt><trkpt lat="42.10159146013615" lon="20.049730833069262"><ele>635.5</ele><time>2026-05-04T08:22:33Z</time></trkpt><trkpt lat="42.10168416635474" lon="20.04982549115494"><ele>636.75</ele><time>2026-05-04T08:22:34Z</time></trkpt><trkpt lat="42.10178582465469" lon="20.049926289523224"><ele>638.0</ele><time>2026-05-04T08:22:35Z</time></trkpt><trkpt lat="42.101892415553664" lon="20.050018912804305"><ele>639.2</ele><time>2026-05-04T08:22:36Z</time></trkpt><trkpt lat="42.10199256337192" lon="20.050103897157047"><ele>640.4</ele><time>2026-05-04T08:22:37Z</time></trkpt><trkpt lat="42.10207184765697" lon="20.050190012109876"><ele>641.6</ele><time>2026-05-04T08:22:38Z</time></trkpt><trkpt lat="42.10214762415735" lon="20.050253905311894"><ele>642.8000000000001</ele><time>2026-05-04T08:22:39Z</time></trkpt><trkpt lat="42.1022190958393" lon="20.050268695272777"><ele>644.0</ele><time>2026-05-04T08:22:40Z</time></trkpt><trkpt lat="42.10228480060636" lon="20.050242913361497"><ele>644.0</ele><time>2026-05-04T08:22:41Z</time></trkpt><trkpt lat="42.102389831497" lon="20.050145733453153"><ele>644.0</ele><time>2026-05-04T08:22:43Z</time></trkpt><trkpt lat="42.102451028346586" lon="20.05011706000642"><ele>644.0</ele><time>2026-05-04T08:22:44Z</time></trkpt><trkpt lat="42.1025184626141" lon="20.050114842710585"><ele>644.0</ele><time>2026-05-04T08:22:45Z</time></trkpt><trkpt lat="42.10260019508047" lon="20.05014014023978"><ele>644.0</ele><time>2026-05-04T08:22:46Z</time></trkpt><trkpt lat="42.102712706547244" lon="20.050204558209533"><ele>643.0</ele><time>2026-05-04T08:22:47Z</time></trkpt><trkpt lat="42.10284868682345" lon="20.05029128252011"><ele>642.0</ele><time>2026-05-04T08:22:48Z</time></trkpt><trkpt lat="42.10298831547001" lon="20.050417273066824"><ele>641.0</ele><time>2026-05-04T08:22:49Z</time></trkpt><trkpt lat="42.1031111496044" lon="20.050593443466763"><ele>641.3333333333333</ele><time>2026-05-04T08:22:50Z</time></trkpt><trkpt lat="42.10322618894937" lon="20.050819263117713"><ele>641.6666666666666</ele><time>2026-05-04T08:22:51Z</time></trkpt><trkpt lat="42.10336256654555" lon="20.05105609456943"><ele>642.0</ele><time>2026-05-04T08:22:52Z</time></trkpt><trkpt lat="42.10352761817583" lon="20.05126698900722"><ele>645.5</ele><time>2026-05-04T08:22:53Z</time></trkpt><trkpt lat="42.103707075487705" lon="20.051468278464718"><ele>649.0</ele><time>2026-05-04T08:22:54Z</time></trkpt><trkpt lat="42.10387412073899" lon="20.051663056886746"><ele>649.0</ele><time>2026-05-04T08:22:55Z</time></trkpt><trkpt lat="42.104011019330216" lon="20.051850659809777"><ele>649.0</ele><time>2026-05-04T08:22:56Z</time></trkpt><trkpt lat="42.104139798641846" lon="20.05205228568219"><ele>649.0</ele><time>2026-05-04T08:22:57Z</time></trkpt><trkpt lat="42.10427047400719" lon="20.052260727261046"><ele>651.0</ele><time>2026-05-04T08:22:58Z</time></trkpt><trkpt lat="42.10441458451282" lon="20.052461938476604"><ele>653.0</ele><time>2026-05-04T08:22:59Z</time></trkpt><trkpt lat="42.1045717045966" lon="20.05265770827462"><ele>655.0</ele><time>2026-05-04T08:23:00Z</time></trkpt><trkpt lat="42.10473314464634" lon="20.052840551290263"><ele>655.0</ele><time>2026-05-04T08:23:01Z</time></trkpt><trkpt lat="42.104859812424564" lon="20.05298453978093"><ele>655.0</ele><time>2026-05-04T08:23:02Z</time></trkpt><trkpt lat="42.10492948181725" lon="20.053067242608606"><ele>655.0</ele><time>2026-05-04T08:23:03Z</time></trkpt><trkpt lat="42.1049833548172" lon="20.05317403700497"><ele>655.0</ele><time>2026-05-04T08:23:05Z</time></trkpt><trkpt lat="42.1050475863024" lon="20.05333051348686"><ele>656.4</ele><time>2026-05-04T08:23:07Z</time></trkpt><trkpt lat="42.10508003964046" lon="20.053407537230225"><ele>657.8</ele><time>2026-05-04T08:23:08Z</time></trkpt><trkpt lat="42.105134058060536" lon="20.05348806996536"><ele>659.2</ele><time>2026-05-04T08:23:09Z</time></trkpt><trkpt lat="42.1052127607617" lon="20.053597203175467"><ele>660.6</ele><time>2026-05-04T08:23:10Z</time></trkpt><trkpt lat="42.10530802913985" lon="20.053738669082026"><ele>662.0</ele><time>2026-05-04T08:23:11Z</time></trkpt><trkpt lat="42.10540519692121" lon="20.053906778175122"><ele>662.0</ele><time>2026-05-04T08:23:12Z</time></trkpt><trkpt lat="42.10552066017087" lon="20.054072300207167"><ele>662.0</ele><time>2026-05-04T08:23:13Z</time></trkpt><trkpt lat="42.10564646325208" lon="20.05424569173777"><ele>662.0</ele><time>2026-05-04T08:23:14Z</time></trkpt><trkpt lat="42.1057914024417" lon="20.05442099105507"><ele>664.6666666666666</ele><time>2026-05-04T08:23:15Z</time></trkpt><trkpt lat="42.10595715753108" lon="20.054558213246604"><ele>667.3333333333334</ele><time>2026-05-04T08:23:16Z</time></trkpt><trkpt lat="42.106125149770605" lon="20.054693000894794"><ele>670.0</ele><time>2026-05-04T08:23:17Z</time></trkpt><trkpt lat="42.10626464962731" lon="20.054855905898577"><ele>667.3333333333334</ele><time>2026-05-04T08:23:18Z</time></trkpt><trkpt lat="42.106354956210595" lon="20.055031999020752"><ele>664.6666666666666</ele><time>2026-05-04T08:23:19Z</time></trkpt><trkpt lat="42.1064155135402" lon="20.05524031124013"><ele>662.0</ele><time>2026-05-04T08:23:20Z</time></trkpt><trkpt lat="42.106464121704974" lon="20.055447829168518"><ele>662.0</ele><time>2026-05-04T08:23:21Z</time></trkpt><trkpt lat="42.10650805719107" lon="20.055600674595393"><ele>662.0</ele><time>2026-05-04T08:23:22Z</time></trkpt><trkpt lat="42.10656213063979" lon="20.055658790625618"><ele>662.0</ele><time>2026-05-04T08:23:23Z</time></trkpt><trkpt lat="42.10663108050898" lon="20.05565726951202"><ele>662.0</ele><time>2026-05-04T08:23:24Z</time></trkpt><trkpt lat="42.10670241877443" lon="20.055607087484585"><ele>662.0</ele><time>2026-05-04T08:23:25Z</time></trkpt><trkpt lat="42.106749755650476" lon="20.055523425788994"><ele>662.0</ele><time>2026-05-04T08:23:26Z</time></trkpt><trkpt lat="42.10675881314294" lon="20.055414200084318"><ele>664.0</ele><time>2026-05-04T08:23:27Z</time></trkpt><trkpt lat="42.106727546210486" lon="20.05529254443526"><ele>666.0</ele><time>2026-05-04T08:23:28Z</time></trkpt><trkpt lat="42.10666728078933" lon="20.05515038904726"><ele>668.0</ele><time>2026-05-04T08:23:29Z</time></trkpt><trkpt lat="42.10659837511172" lon="20.05497965931581"><ele>670.0</ele><time>2026-05-04T08:23:30.001Z</time></trkpt><trkpt lat="42.10652340139779" lon="20.054773893977043"><ele>670.0</ele><time>2026-05-04T08:23:31.001Z</time></trkpt><trkpt lat="42.10644649751572" lon="20.05453917037632"><ele>670.0</ele><time>2026-05-04T08:23:32.001Z</time></trkpt><trkpt lat="42.10637457731963" lon="20.05428606099695"><ele>670.0</ele><time>2026-05-04T08:23:33.001Z</time></trkpt><trkpt lat="42.10632845893816" lon="20.05407127840615"><ele>672.6</ele><time>2026-05-04T08:23:34.001Z</time></trkpt><trkpt lat="42.10630800817827" lon="20.053887154944906"><ele>675.2</ele><time>2026-05-04T08:23:35.001Z</time></trkpt><trkpt lat="42.10632762855395" lon="20.053726340026728"><ele>677.8</ele><time>2026-05-04T08:23:36.001Z</time></trkpt><trkpt lat="42.106346775134604" lon="20.05359421479354"><ele>680.4</ele><time>2026-05-04T08:23:37.001Z</time></trkpt><trkpt lat="42.10631035867211" lon="20.053492444028258"><ele>683.0</ele><time>2026-05-04T08:23:38.001Z</time></trkpt><trkpt lat="42.106213187107244" lon="20.053412331994984"><ele>683.0</ele><time>2026-05-04T08:23:39.001Z</time></trkpt><trkpt lat="42.106091148565376" lon="20.053324325228086"><ele>683.0</ele><time>2026-05-04T08:23:40.001Z</time></trkpt><trkpt lat="42.10598913166598" lon="20.053144268814588"><ele>683.0</ele><time>2026-05-04T08:23:41.001Z</time></trkpt><trkpt lat="42.105901606253475" lon="20.052945140986687"><ele>683.3333333333333</ele><time>2026-05-04T08:23:42.001Z</time></trkpt><trkpt lat="42.10581434765396" lon="20.05272653709752"><ele>683.6666666666666</ele><time>2026-05-04T08:23:43.001Z</time></trkpt><trkpt lat="42.10572220043608" lon="20.05250071799334"><ele>684.0</ele><time>2026-05-04T08:23:44.001Z</time></trkpt><trkpt lat="42.105642779569585" lon="20.052313897126545"><ele>684.0</ele><time>2026-05-04T08:23:45.001Z</time></trkpt><trkpt lat="42.105583480706414" lon="20.052163706533303"><ele>684.0</ele><time>2026-05-04T08:23:46.001Z</time></trkpt><trkpt lat="42.10555392444122" lon="20.05203807889191"><ele>684.0</ele><time>2026-05-04T08:23:47.001Z</time></trkpt><trkpt lat="42.105575925569" lon="20.05195496370487"><ele>684.0</ele><time>2026-05-04T08:23:48.001Z</time></trkpt><trkpt lat="42.1056898681868" lon="20.051949693815153"><ele>684.0</ele><time>2026-05-04T08:23:50.001Z</time></trkpt><trkpt lat="42.10576437075672" lon="20.05203758266764"><ele>686.75</ele><time>2026-05-04T08:23:51.001Z</time></trkpt><trkpt lat="42.10584775031133" lon="20.052167790515117"><ele>689.5</ele><time>2026-05-04T08:23:52.001Z</time></trkpt><trkpt lat="42.10593428211517" lon="20.052289207715667"><ele>692.25</ele><time>2026-05-04T08:23:53.001Z</time></trkpt><trkpt lat="42.10602882078453" lon="20.052410677838726"><ele>695.0</ele><time>2026-05-04T08:23:54.001Z</time></trkpt><trkpt lat="42.106126059994516" lon="20.05252378107326"><ele>695.25</ele><time>2026-05-04T08:23:55.001Z</time></trkpt><trkpt lat="42.10623154179255" lon="20.052634164883518"><ele>695.5</ele><time>2026-05-04T08:23:56.001Z</time></trkpt><trkpt lat="42.10634301965434" lon="20.052727742635508"><ele>695.75</ele><time>2026-05-04T08:23:57.001Z</time></trkpt><trkpt lat="42.106448405568976" lon="20.0527628536002"><ele>696.0</ele><time>2026-05-04T08:23:58.001Z</time></trkpt><trkpt lat="42.10654370823918" lon="20.05272354782308"><ele>699.5999999999999</ele><time>2026-05-04T08:23:59.001Z</time></trkpt><trkpt lat="42.106627275534976" lon="20.05262128893634"><ele>703.2</ele><time>2026-05-04T08:24:00.001Z</time></trkpt><trkpt lat="42.10671473425949" lon="20.052514219213368"><ele>706.8</ele><time>2026-05-04T08:24:01.001Z</time></trkpt><trkpt lat="42.10680742171821" lon="20.052514249116115"><ele>710.4000000000001</ele><time>2026-05-04T08:24:02.001Z</time></trkpt><trkpt lat="42.10691717567576" lon="20.05255937370114"><ele>714.0</ele><time>2026-05-04T08:24:03.001Z</time></trkpt><trkpt lat="42.107030494655724" lon="20.05265426779187"><ele>714.0</ele><time>2026-05-04T08:24:04.001Z</time></trkpt><trkpt lat="42.10712835403242" lon="20.052785705922098"><ele>714.0</ele><time>2026-05-04T08:24:05.001Z</time></trkpt><trkpt lat="42.10719743920655" lon="20.052952630093568"><ele>714.0</ele><time>2026-05-04T08:24:06.001Z</time></trkpt><trkpt lat="42.10722045608786" lon="20.053154350394045"><ele>714.0</ele><time>2026-05-04T08:24:07.001Z</time></trkpt><trkpt lat="42.10722492088375" lon="20.053357306070883"><ele>711.5</ele><time>2026-05-04T08:24:08.001Z</time></trkpt><trkpt lat="42.1072244367339" lon="20.053540403890526"><ele>709.0</ele><time>2026-05-04T08:24:09.001Z</time></trkpt><trkpt lat="42.10721035209086" lon="20.053707482843077"><ele>706.5</ele><time>2026-05-04T08:24:10.001Z</time></trkpt><trkpt lat="42.107249874919034" lon="20.053873241319934"><ele>704.0</ele><time>2026-05-04T08:24:11.001Z</time></trkpt><trkpt lat="42.10732591981043" lon="20.054025573405163"><ele>709.6666666666666</ele><time>2026-05-04T08:24:12.001Z</time></trkpt><trkpt lat="42.10743820788231" lon="20.054135169496398"><ele>715.3333333333334</ele><time>2026-05-04T08:24:13.001Z</time></trkpt><trkpt lat="42.107587051961985" lon="20.054179785990947"><ele>721.0</ele><time>2026-05-04T08:24:14.001Z</time></trkpt><trkpt lat="42.107747299754934" lon="20.0542251317236"><ele>721.0</ele><time>2026-05-04T08:24:15.001Z</time></trkpt><trkpt lat="42.107889370421255" lon="20.054372324344286"><ele>721.0</ele><time>2026-05-04T08:24:16.001Z</time></trkpt><trkpt lat="42.10798498725305" lon="20.054582701789474"><ele>721.0</ele><time>2026-05-04T08:24:17.001Z</time></trkpt><trkpt lat="42.10811131283722" lon="20.054764953264755"><ele>725.3333333333334</ele><time>2026-05-04T08:24:18.001Z</time></trkpt><trkpt lat="42.108265406437816" lon="20.05488252607788"><ele>729.6666666666666</ele><time>2026-05-04T08:24:19.001Z</time></trkpt><trkpt lat="42.108446567070466" lon="20.05496287603544"><ele>734.0</ele><time>2026-05-04T08:24:20.001Z</time></trkpt><trkpt lat="42.10863843471385" lon="20.05504656227759"><ele>734.0</ele><time>2026-05-04T08:24:21.001Z</time></trkpt><trkpt lat="42.10879698085398" lon="20.055123099749828"><ele>734.0</ele><time>2026-05-04T08:24:22.001Z</time></trkpt><trkpt lat="42.108937167209184" lon="20.05520069153118"><ele>734.0</ele><time>2026-05-04T08:24:23.001Z</time></trkpt><trkpt lat="42.10905975044999" lon="20.055218192389766"><ele>734.0</ele><time>2026-05-04T08:24:24.001Z</time></trkpt><trkpt lat="42.10922313637104" lon="20.05519869742424"><ele>738.3333333333333</ele><time>2026-05-04T08:24:25.001Z</time></trkpt><trkpt lat="42.10941556222939" lon="20.055143542593793"><ele>742.6666666666666</ele><time>2026-05-04T08:24:26.001Z</time></trkpt><trkpt lat="42.10958758556847" lon="20.055088618623643"><ele>747.0</ele><time>2026-05-04T08:24:27.001Z</time></trkpt><trkpt lat="42.10976336483927" lon="20.055046094702647"><ele>747.0</ele><time>2026-05-04T08:24:28.001Z</time></trkpt><trkpt lat="42.1098905003122" lon="20.05503913731104"><ele>747.0</ele><time>2026-05-04T08:24:29.001Z</time></trkpt><trkpt lat="42.10988349627518" lon="20.05529672367877"><ele>747.0</ele><time>2026-05-04T08:24:31.001Z</time></trkpt><trkpt lat="42.10985884386215" lon="20.05547655669157"><ele>747.0</ele><time>2026-05-04T08:24:32.001Z</time></trkpt><trkpt lat="42.1098472971157" lon="20.055717440910847"><ele>747.0</ele><time>2026-05-04T08:24:33.001Z</time></trkpt><trkpt lat="42.109853590926335" lon="20.055928574313885"><ele>747.0</ele><time>2026-05-04T08:24:34.001Z</time></trkpt><trkpt lat="42.10993384913396" lon="20.05601966682893"><ele>747.0</ele><time>2026-05-04T08:24:35.001Z</time></trkpt><trkpt lat="42.11006122969977" lon="20.056089853370004"><ele>748.0</ele><time>2026-05-04T08:24:36.001Z</time></trkpt><trkpt lat="42.11019619792519" lon="20.056123007774133"><ele>749.0</ele><time>2026-05-04T08:24:37.001Z</time></trkpt><trkpt lat="42.11034993610278" lon="20.056111767203305"><ele>750.0</ele><time>2026-05-04T08:24:38.001Z</time></trkpt><trkpt lat="42.110490095403804" lon="20.056025491416232"><ele>751.0</ele><time>2026-05-04T08:24:39.001Z</time></trkpt><trkpt lat="42.110615803354555" lon="20.05591965614625"><ele>754.0</ele><time>2026-05-04T08:24:40.001Z</time></trkpt><trkpt lat="42.11072568833661" lon="20.05578128498811"><ele>757.0</ele><time>2026-05-04T08:24:41.001Z</time></trkpt><trkpt lat="42.11081159911035" lon="20.055598424222566"><ele>760.0</ele><time>2026-05-04T08:24:42.001Z</time></trkpt><trkpt lat="42.11088589006709" lon="20.055376685384665"><ele>763.0</ele><time>2026-05-04T08:24:43.001Z</time></trkpt><trkpt lat="42.110946104299266" lon="20.05518327446613"><ele>766.0</ele><time>2026-05-04T08:24:44.001Z</time></trkpt><trkpt lat="42.110989492401046" lon="20.055039944625328"><ele>769.0</ele><time>2026-05-04T08:24:45.001Z</time></trkpt><trkpt lat="42.111094704795676" lon="20.05496966878193"><ele>772.0</ele><time>2026-05-04T08:24:46.001Z</time></trkpt><trkpt lat="42.11112910319464" lon="20.05506766609033"><ele>772.0</ele><time>2026-05-04T08:24:47.001Z</time></trkpt><trkpt lat="42.11121282207154" lon="20.055168805896514"><ele>772.0</ele><time>2026-05-04T08:24:48.001Z</time></trkpt><trkpt lat="42.11130950802758" lon="20.055304827045322"><ele>772.0</ele><time>2026-05-04T08:24:49.001Z</time></trkpt><trkpt lat="42.11142716706255" lon="20.055393456536745"><ele>772.0</ele><time>2026-05-04T08:24:50.001Z</time></trkpt><trkpt lat="42.111573582779364" lon="20.055420164576446"><ele>770.5</ele><time>2026-05-04T08:24:51.001Z</time></trkpt><trkpt lat="42.11170851693022" lon="20.055463256099806"><ele>769.0</ele><time>2026-05-04T08:24:52.001Z</time></trkpt><trkpt lat="42.11181214000799" lon="20.05556985835968"><ele>767.5</ele><time>2026-05-04T08:24:53Z</time></trkpt><trkpt lat="42.11189275117068" lon="20.055737992002268"><ele>766.0</ele><time>2026-05-04T08:24:54Z</time></trkpt><trkpt lat="42.111954493756464" lon="20.05593540356487"><ele>766.0</ele><time>2026-05-04T08:24:55Z</time></trkpt><trkpt lat="42.11201657805219" lon="20.05610609642046"><ele>766.0</ele><time>2026-05-04T08:24:56Z</time></trkpt><trkpt lat="42.11209138218588" lon="20.05619893141333"><ele>766.0</ele><time>2026-05-04T08:24:57Z</time></trkpt><trkpt lat="42.112189763563926" lon="20.05621722362263"><ele>766.0</ele><time>2026-05-04T08:24:58Z</time></trkpt><trkpt lat="42.112271711857936" lon="20.056153104624794"><ele>766.0</ele><time>2026-05-04T08:24:59Z</time></trkpt><trkpt lat="42.11230147226188" lon="20.056047569027264"><ele>766.0</ele><time>2026-05-04T08:25:00Z</time></trkpt><trkpt lat="42.11227341955688" lon="20.0559424161031"><ele>766.0</ele><time>2026-05-04T08:25:01Z</time></trkpt><trkpt lat="42.112209918873745" lon="20.055849091398837"><ele>766.0</ele><time>2026-05-04T08:25:02Z</time></trkpt><trkpt lat="42.11212670313999" lon="20.055748188538555"><ele>766.0</ele><time>2026-05-04T08:25:03Z</time></trkpt><trkpt lat="42.11205971888055" lon="20.055608397839777"><ele>766.0</ele><time>2026-05-04T08:25:04Z</time></trkpt><trkpt lat="42.112027251889856" lon="20.05542964860278"><ele>770.6666666666667</ele><time>2026-05-04T08:25:05Z</time></trkpt><trkpt lat="42.11199186865476" lon="20.055214385213723"><ele>775.3333333333334</ele><time>2026-05-04T08:25:06Z</time></trkpt><trkpt lat="42.11195823544376" lon="20.054994858647337"><ele>780.0</ele><time>2026-05-04T08:25:07Z</time></trkpt><trkpt lat="42.11193357914999" lon="20.0547648826968"><ele>783.25</ele><time>2026-05-04T08:25:08Z</time></trkpt><trkpt lat="42.111908896397864" lon="20.054565890477097"><ele>786.5</ele><time>2026-05-04T08:25:09Z</time></trkpt><trkpt lat="42.11184687872894" lon="20.054430459698995"><ele>789.75</ele><time>2026-05-04T08:25:10Z</time></trkpt><trkpt lat="42.111746634650665" lon="20.054317781607658"><ele>793.0</ele><time>2026-05-04T08:25:11Z</time></trkpt><trkpt lat="42.11165000257538" lon="20.054178089880256"><ele>793.0</ele><time>2026-05-04T08:25:12Z</time></trkpt><trkpt lat="42.111583709902106" lon="20.05399862552545"><ele>793.0</ele><time>2026-05-04T08:25:13Z</time></trkpt><trkpt lat="42.11154077715555" lon="20.05379037234369"><ele>793.0</ele><time>2026-05-04T08:25:14Z</time></trkpt><trkpt lat="42.11149668228637" lon="20.05358301979605"><ele>793.0</ele><time>2026-05-04T08:25:15Z</time></trkpt><trkpt lat="42.1114207822928" lon="20.05340898678754"><ele>793.0</ele><time>2026-05-04T08:25:16Z</time></trkpt><trkpt lat="42.111306043394286" lon="20.053261356846093"><ele>793.0</ele><time>2026-05-04T08:25:17Z</time></trkpt><trkpt lat="42.11119456646918" lon="20.0531054520294"><ele>795.0</ele><time>2026-05-04T08:25:18Z</time></trkpt><trkpt lat="42.111116747330314" lon="20.05292175216772"><ele>797.0</ele><time>2026-05-04T08:25:19Z</time></trkpt><trkpt lat="42.11106871622242" lon="20.05271098132519"><ele>799.0</ele><time>2026-05-04T08:25:20Z</time></trkpt><trkpt lat="42.11103488872019" lon="20.05248500015813"><ele>799.3333333333333</ele><time>2026-05-04T08:25:21Z</time></trkpt><trkpt lat="42.111016643211364" lon="20.052256903269093"><ele>799.6666666666667</ele><time>2026-05-04T08:25:22Z</time></trkpt><trkpt lat="42.111020639168004" lon="20.052025517788525"><ele>800.0</ele><time>2026-05-04T08:25:23Z</time></trkpt><trkpt lat="42.11104148771247" lon="20.05182071772893"><ele>800.0</ele><time>2026-05-04T08:25:24Z</time></trkpt><trkpt lat="42.1110885588344" lon="20.05165926580925"><ele>800.0</ele><time>2026-05-04T08:25:25Z</time></trkpt><trkpt lat="42.11117994844823" lon="20.051534843914748"><ele>800.0</ele><time>2026-05-04T08:25:26Z</time></trkpt><trkpt lat="42.111296313774524" lon="20.051434898938883"><ele>800.0</ele><time>2026-05-04T08:25:27Z</time></trkpt><trkpt lat="42.111409704261554" lon="20.051399806683623"><ele>799.0</ele><time>2026-05-04T08:25:28Z</time></trkpt><trkpt lat="42.11153497620473" lon="20.051436733017304"><ele>798.0</ele><time>2026-05-04T08:25:29Z</time></trkpt><trkpt lat="42.11168288383056" lon="20.051495760535097"><ele>797.0</ele><time>2026-05-04T08:25:30Z</time></trkpt><trkpt lat="42.11185569926891" lon="20.051518912374927"><ele>797.0</ele><time>2026-05-04T08:25:31Z</time></trkpt><trkpt lat="42.11205220126686" lon="20.05149299161938"><ele>797.0</ele><time>2026-05-04T08:25:32Z</time></trkpt><trkpt lat="42.11224862233632" lon="20.051447883632548"><ele>797.0</ele><time>2026-05-04T08:25:33Z</time></trkpt><trkpt lat="42.11243828028139" lon="20.05139346789201"><ele>800.6666666666667</ele><time>2026-05-04T08:25:34Z</time></trkpt><trkpt lat="42.11261719180521" lon="20.05131537870421"><ele>804.3333333333333</ele><time>2026-05-04T08:25:35Z</time></trkpt><trkpt lat="42.11276514655234" lon="20.05123041544622"><ele>808.0</ele><time>2026-05-04T08:25:36.001Z</time></trkpt><trkpt lat="42.112884347695555" lon="20.051137562478846"><ele>808.0</ele><time>2026-05-04T08:25:37.001Z</time></trkpt><trkpt lat="42.112990571896525" lon="20.051042198874253"><ele>808.0</ele><time>2026-05-04T08:25:38.001Z</time></trkpt><trkpt lat="42.11309059326373" lon="20.050975035473552"><ele>808.0</ele><time>2026-05-04T08:25:39.001Z</time></trkpt><trkpt lat="42.11319018853379" lon="20.050959239968275"><ele>808.0</ele><time>2026-05-04T08:25:40.001Z</time></trkpt><trkpt lat="42.11329336047137" lon="20.050990121872704"><ele>808.0</ele><time>2026-05-04T08:25:41.001Z</time></trkpt><trkpt lat="42.113409168313275" lon="20.05107543584281"><ele>813.25</ele><time>2026-05-04T08:25:42.001Z</time></trkpt><trkpt lat="42.11353131322045" lon="20.05118444676748"><ele>818.5</ele><time>2026-05-04T08:25:43.001Z</time></trkpt><trkpt lat="42.113655971164306" lon="20.05128400086991"><ele>823.75</ele><time>2026-05-04T08:25:44.001Z</time></trkpt><trkpt lat="42.11377026327397" lon="20.051315314690175"><ele>829.0</ele><time>2026-05-04T08:25:45.001Z</time></trkpt><trkpt lat="42.11386978268099" lon="20.051280643669866"><ele>829.0</ele><time>2026-05-04T08:25:46.001Z</time></trkpt><trkpt lat="42.113952522690596" lon="20.05119973707229"><ele>829.0</ele><time>2026-05-04T08:25:47.001Z</time></trkpt><trkpt lat="42.11401258116781" lon="20.051078835241935"><ele>829.0</ele><time>2026-05-04T08:25:48.001Z</time></trkpt><trkpt lat="42.114014789978384" lon="20.050947137183"><ele>829.0</ele><time>2026-05-04T08:25:49.001Z</time></trkpt><trkpt lat="42.113971429390766" lon="20.050815155782082"><ele>829.0</ele><time>2026-05-04T08:25:50.001Z</time></trkpt><trkpt lat="42.113924248912575" lon="20.05068794133978"><ele>826.4999999999999</ele><time>2026-05-04T08:25:51.001Z</time></trkpt><trkpt lat="42.11394446569085" lon="20.05060121485856"><ele>824.0</ele><time>2026-05-04T08:25:52.001Z</time></trkpt><trkpt lat="42.11400616598578" lon="20.050578480150666"><ele>821.5</ele><time>2026-05-04T08:25:53.001Z</time></trkpt><trkpt lat="42.11407932962306" lon="20.050619048915813"><ele>819.0</ele><time>2026-05-04T08:25:54.001Z</time></trkpt><trkpt lat="42.114152770990536" lon="20.050713972827165"><ele>816.4999999999999</ele><time>2026-05-04T08:25:55.001Z</time></trkpt><trkpt lat="42.114231212632795" lon="20.050863977417976"><ele>814.0</ele><time>2026-05-04T08:25:56.001Z</time></trkpt><trkpt lat="42.11427890180151" lon="20.05103115082668"><ele>821.75</ele><time>2026-05-04T08:25:57.001Z</time></trkpt><trkpt lat="42.11427753801496" lon="20.051206550758433"><ele>829.5</ele><time>2026-05-04T08:25:58.001Z</time></trkpt><trkpt lat="42.114240389756255" lon="20.051371366361863"><ele>837.25</ele><time>2026-05-04T08:25:59.001Z</time></trkpt><trkpt lat="42.114166103274485" lon="20.051527280470225"><ele>845.0</ele><time>2026-05-04T08:26:00.001Z</time></trkpt><trkpt lat="42.1140753093571" lon="20.051662762968796"><ele>845.4</ele><time>2026-05-04T08:26:01.001Z</time></trkpt><trkpt lat="42.11401481659728" lon="20.051755940759026"><ele>845.8</ele><time>2026-05-04T08:26:02.001Z</time></trkpt><trkpt lat="42.11406603739139" lon="20.05189185392733"><ele>846.2</ele><time>2026-05-04T08:26:04.001Z</time></trkpt><trkpt lat="42.11414587611054" lon="20.051882283962527"><ele>846.6</ele><time>2026-05-04T08:26:05.001Z</time></trkpt><trkpt lat="42.11422746850556" lon="20.051809584974972"><ele>847.0</ele><time>2026-05-04T08:26:06.001Z</time></trkpt><trkpt lat="42.114314578907695" lon="20.05168002359654"><ele>846.3333333333333</ele><time>2026-05-04T08:26:07.001Z</time></trkpt><trkpt lat="42.11440035315847" lon="20.05152740969452"><ele>845.6666666666667</ele><time>2026-05-04T08:26:08.001Z</time></trkpt><trkpt lat="42.11449545831648" lon="20.051350273188213"><ele>845.0</ele><time>2026-05-04T08:26:09.001Z</time></trkpt><trkpt lat="42.11458149885288" lon="20.051149986347326"><ele>845.0</ele><time>2026-05-04T08:26:10.001Z</time></trkpt><trkpt lat="42.11464831212264" lon="20.05094732271283"><ele>845.0</ele><time>2026-05-04T08:26:11.001Z</time></trkpt><trkpt lat="42.114672056381586" lon="20.050753229856923"><ele>845.0</ele><time>2026-05-04T08:26:12.001Z</time></trkpt><trkpt lat="42.114653969282465" lon="20.050577538144278"><ele>845.0</ele><time>2026-05-04T08:26:13.001Z</time></trkpt><trkpt lat="42.11461449588915" lon="20.050406748675055"><ele>845.0</ele><time>2026-05-04T08:26:14.001Z</time></trkpt><trkpt lat="42.114553304147194" lon="20.05024506824043"><ele>845.0</ele><time>2026-05-04T08:26:15.001Z</time></trkpt><trkpt lat="42.11450419083773" lon="20.050073140506683"><ele>845.0</ele><time>2026-05-04T08:26:16.001Z</time></trkpt><trkpt lat="42.11450021484669" lon="20.04989036516152"><ele>845.0</ele><time>2026-05-04T08:26:17.001Z</time></trkpt><trkpt lat="42.11453415550947" lon="20.049692497013627"><ele>845.3333333333334</ele><time>2026-05-04T08:26:18.001Z</time></trkpt><trkpt lat="42.11457682990579" lon="20.049483033336916"><ele>845.6666666666667</ele><time>2026-05-04T08:26:19.001Z</time></trkpt><trkpt lat="42.11462345961571" lon="20.049262747347683"><ele>846.0</ele><time>2026-05-04T08:26:20.001Z</time></trkpt><trkpt lat="42.11468524747241" lon="20.049048874185313"><ele>845.3333333333333</ele><time>2026-05-04T08:26:21.001Z</time></trkpt><trkpt lat="42.11476680848499" lon="20.04885640527185"><ele>844.6666666666666</ele><time>2026-05-04T08:26:22.001Z</time></trkpt><trkpt lat="42.11486253109799" lon="20.04869966579976"><ele>844.0</ele><time>2026-05-04T08:26:23.001Z</time></trkpt><trkpt lat="42.11497064686514" lon="20.04858259752749"><ele>849.2</ele><time>2026-05-04T08:26:24.001Z</time></trkpt><trkpt lat="42.11508649064898" lon="20.048507848184627"><ele>854.4000000000001</ele><time>2026-05-04T08:26:25.001Z</time></trkpt><trkpt lat="42.115184040383" lon="20.048489663960293"><ele>859.6</ele><time>2026-05-04T08:26:26.001Z</time></trkpt><trkpt lat="42.115260025097875" lon="20.048528053410028"><ele>864.8</ele><time>2026-05-04T08:26:27.001Z</time></trkpt><trkpt lat="42.1153425147575" lon="20.04862488449278"><ele>870.0</ele><time>2026-05-04T08:26:28.001Z</time></trkpt><trkpt lat="42.115440422471686" lon="20.048749837452515"><ele>870.0</ele><time>2026-05-04T08:26:29.001Z</time></trkpt><trkpt lat="42.11555982801097" lon="20.04887544523989"><ele>870.0</ele><time>2026-05-04T08:26:30.001Z</time></trkpt><trkpt lat="42.115698166844176" lon="20.048971792430713"><ele>870.0</ele><time>2026-05-04T08:26:31.001Z</time></trkpt><trkpt lat="42.115846138836076" lon="20.04899990878935"><ele>872.3333333333333</ele><time>2026-05-04T08:26:32.001Z</time></trkpt><trkpt lat="42.11601297445245" lon="20.048979899750453"><ele>874.6666666666666</ele><time>2026-05-04T08:26:33.001Z</time></trkpt><trkpt lat="42.11618750095608" lon="20.0489625837442"><ele>877.0</ele><time>2026-05-04T08:26:34.001Z</time></trkpt><trkpt lat="42.11636257394707" lon="20.048956248751747"><ele>877.0</ele><time>2026-05-04T08:26:35.001Z</time></trkpt><trkpt lat="42.116516531416465" lon="20.04896216302753"><ele>877.0</ele><time>2026-05-04T08:26:36.001Z</time></trkpt><trkpt lat="42.116650185051036" lon="20.04900357655183"><ele>877.0</ele><time>2026-05-04T08:26:37.001Z</time></trkpt><trkpt lat="42.116759703691336" lon="20.04909212747938"><ele>877.0</ele><time>2026-05-04T08:26:38.001Z</time></trkpt><trkpt lat="42.11684504430231" lon="20.04922982121442"><ele>882.0</ele><time>2026-05-04T08:26:39.001Z</time></trkpt><trkpt lat="42.11690060149183" lon="20.04940162631431"><ele>887.0</ele><time>2026-05-04T08:26:40.001Z</time></trkpt><trkpt lat="42.116935178079075" lon="20.04959152303543"><ele>892.0</ele><time>2026-05-04T08:26:41.001Z</time></trkpt><trkpt lat="42.11696670776426" lon="20.04976481053746"><ele>897.0</ele><time>2026-05-04T08:26:42.001Z</time></trkpt><trkpt lat="42.1170267952369" lon="20.049903901621498"><ele>897.6666666666667</ele><time>2026-05-04T08:26:43.001Z</time></trkpt><trkpt lat="42.11713251810698" lon="20.050015629907108"><ele>898.3333333333334</ele><time>2026-05-04T08:26:44.001Z</time></trkpt><trkpt lat="42.11727108789179" lon="20.0500931273552"><ele>899.0</ele><time>2026-05-04T08:26:45.001Z</time></trkpt><trkpt lat="42.11744442515649" lon="20.050128754721417"><ele>899.0</ele><time>2026-05-04T08:26:46.001Z</time></trkpt><trkpt lat="42.117627711526396" lon="20.050149163375725"><ele>899.0</ele><time>2026-05-04T08:26:47.001Z</time></trkpt><trkpt lat="42.11779849015754" lon="20.050185221800813"><ele>899.0</ele><time>2026-05-04T08:26:48.001Z</time></trkpt><trkpt lat="42.11792870368112" lon="20.05027279001213"><ele>899.0</ele><time>2026-05-04T08:26:49.001Z</time></trkpt><trkpt lat="42.11802250320757" lon="20.050423867817777"><ele>899.0</ele><time>2026-05-04T08:26:50.001Z</time></trkpt><trkpt lat="42.11813072365797" lon="20.050606504123632"><ele>899.0</ele><time>2026-05-04T08:26:51.001Z</time></trkpt><trkpt lat="42.11828126433455" lon="20.05075574095467"><ele>902.6666666666667</ele><time>2026-05-04T08:26:52.001Z</time></trkpt><trkpt lat="42.11845087452501" lon="20.05088569754783"><ele>906.3333333333333</ele><time>2026-05-04T08:26:53.001Z</time></trkpt><trkpt lat="42.11857440279503" lon="20.05104321507071"><ele>910.0</ele><time>2026-05-04T08:26:54.001Z</time></trkpt><trkpt lat="42.118662270672594" lon="20.051259461970197"><ele>910.0</ele><time>2026-05-04T08:26:55.001Z</time></trkpt><trkpt lat="42.118755192767566" lon="20.051500957570585"><ele>910.0</ele><time>2026-05-04T08:26:56.001Z</time></trkpt><trkpt lat="42.11884003378312" lon="20.051751341457535"><ele>910.0</ele><time>2026-05-04T08:26:57.001Z</time></trkpt><trkpt lat="42.11891346687312" lon="20.05202512842981"><ele>909.0</ele><time>2026-05-04T08:26:58.001Z</time></trkpt><trkpt lat="42.11896083504774" lon="20.052293167082038"><ele>908.0</ele><time>2026-05-04T08:26:59Z</time></trkpt><trkpt lat="42.118993235466135" lon="20.05252150054259"><ele>907.0</ele><time>2026-05-04T08:27:00Z</time></trkpt><trkpt lat="42.11903049859143" lon="20.05271083675905"><ele>912.25</ele><time>2026-05-04T08:27:01Z</time></trkpt><trkpt lat="42.1190947905799" lon="20.052850733991797"><ele>917.5</ele><time>2026-05-04T08:27:02Z</time></trkpt><trkpt lat="42.11919124255929" lon="20.052952680461146"><ele>922.75</ele><time>2026-05-04T08:27:03Z</time></trkpt><trkpt lat="42.11932430413929" lon="20.05302387820484"><ele>928.0</ele><time>2026-05-04T08:27:04Z</time></trkpt><trkpt lat="42.11946357104597" lon="20.053106015317844"><ele>928.0</ele><time>2026-05-04T08:27:04.999Z</time></trkpt><trkpt lat="42.11958581532131" lon="20.053204372280423"><ele>928.0</ele><time>2026-05-04T08:27:05.999Z</time></trkpt><trkpt lat="42.11966359449023" lon="20.05337192542809"><ele>928.0</ele><time>2026-05-04T08:27:06.999Z</time></trkpt><trkpt lat="42.11971348026045" lon="20.053544714511794"><ele>928.0</ele><time>2026-05-04T08:27:07.999Z</time></trkpt><trkpt lat="42.11973803237079" lon="20.05375165665424"><ele>924.0</ele><time>2026-05-04T08:27:08.999Z</time></trkpt><trkpt lat="42.11974001277727" lon="20.05396225885795"><ele>920.0</ele><time>2026-05-04T08:27:09.999Z</time></trkpt><trkpt lat="42.1197139174677" lon="20.054182913438805"><ele>916.0</ele><time>2026-05-04T08:27:10.999Z</time></trkpt><trkpt lat="42.119643703941826" lon="20.054406563940375"><ele>916.0</ele><time>2026-05-04T08:27:11.999Z</time></trkpt><trkpt lat="42.11956777253148" lon="20.054599354489188"><ele>916.0</ele><time>2026-05-04T08:27:12.999Z</time></trkpt><trkpt lat="42.11953800585692" lon="20.054764025592025"><ele>916.0</ele><time>2026-05-04T08:27:13.999Z</time></trkpt><trkpt lat="42.11956488660359" lon="20.054941655638896"><ele>916.0</ele><time>2026-05-04T08:27:14.999Z</time></trkpt><trkpt lat="42.119607799054805" lon="20.0551383897118"><ele>916.0</ele><time>2026-05-04T08:27:15.999Z</time></trkpt><trkpt lat="42.11966663589871" lon="20.055327810355333"><ele>916.0</ele><time>2026-05-04T08:27:16.999Z</time></trkpt><trkpt lat="42.119750741467556" lon="20.055506904928155"><ele>916.0</ele><time>2026-05-04T08:27:17.999Z</time></trkpt><trkpt lat="42.119855603238854" lon="20.055679776089303"><ele>924.6666666666666</ele><time>2026-05-04T08:27:18.999Z</time></trkpt><trkpt lat="42.119976577657205" lon="20.055840953782674"><ele>933.3333333333333</ele><time>2026-05-04T08:27:19.999Z</time></trkpt><trkpt lat="42.12011089496187" lon="20.055977375140554"><ele>942.0</ele><time>2026-05-04T08:27:20.999Z</time></trkpt><trkpt lat="42.12026442862822" lon="20.056101836689944"><ele>942.0</ele><time>2026-05-04T08:27:21.999Z</time></trkpt><trkpt lat="42.120428828559575" lon="20.05621149233877"><ele>942.0</ele><time>2026-05-04T08:27:22.999Z</time></trkpt><trkpt lat="42.12058440309724" lon="20.056288288593915"><ele>942.0</ele><time>2026-05-04T08:27:23.999Z</time></trkpt><trkpt lat="42.12070128682981" lon="20.056309602895947"><ele>947.25</ele><time>2026-05-04T08:27:24.999Z</time></trkpt><trkpt lat="42.12079822991943" lon="20.056270470545556"><ele>952.5</ele><time>2026-05-04T08:27:25.999Z</time></trkpt><trkpt lat="42.120882682161366" lon="20.056153159677415"><ele>957.75</ele><time>2026-05-04T08:27:26.999Z</time></trkpt><trkpt lat="42.12095878273204" lon="20.05599338940876"><ele>963.0</ele><time>2026-05-04T08:27:27.999Z</time></trkpt><trkpt lat="42.121054574620636" lon="20.055828554409963"><ele>964.4</ele><time>2026-05-04T08:27:28.999Z</time></trkpt><trkpt lat="42.1211641794009" lon="20.055705274279788"><ele>965.8</ele><time>2026-05-04T08:27:29.999Z</time></trkpt><trkpt lat="42.12126216744161" lon="20.05565350450366"><ele>967.2</ele><time>2026-05-04T08:27:30.999Z</time></trkpt><trkpt lat="42.121358727896904" lon="20.055669575850054"><ele>968.6</ele><time>2026-05-04T08:27:31.999Z</time></trkpt><trkpt lat="42.12143593175338" lon="20.0556715515946"><ele>970.0</ele><time>2026-05-04T08:27:32.999Z</time></trkpt><trkpt lat="42.121425574712354" lon="20.055523244303817"><ele>970.0</ele><time>2026-05-04T08:27:34.999Z</time></trkpt><trkpt lat="42.12135424670801" lon="20.055459913493127"><ele>970.0</ele><time>2026-05-04T08:27:35.999Z</time></trkpt><trkpt lat="42.12125236008646" lon="20.055445673091988"><ele>970.0</ele><time>2026-05-04T08:27:36.999Z</time></trkpt><trkpt lat="42.12112009632161" lon="20.055469586581868"><ele>970.0</ele><time>2026-05-04T08:27:37.999Z</time></trkpt><trkpt lat="42.12100494230579" lon="20.055533996277582"><ele>970.0</ele><time>2026-05-04T08:27:38.999Z</time></trkpt><trkpt lat="42.12089348032016" lon="20.055567300869523"><ele>970.0</ele><time>2026-05-04T08:27:39.999Z</time></trkpt><trkpt lat="42.12078584335398" lon="20.055504548431838"><ele>970.0</ele><time>2026-05-04T08:27:40.999Z</time></trkpt><trkpt lat="42.12071939933813" lon="20.055387676949692"><ele>970.0</ele><time>2026-05-04T08:27:42Z</time></trkpt><trkpt lat="42.120683561164256" lon="20.055234704892655"><ele>970.0</ele><time>2026-05-04T08:27:43Z</time></trkpt><trkpt lat="42.12068127570995" lon="20.055040360074308"><ele>969.6666666666666</ele><time>2026-05-04T08:27:44Z</time></trkpt><trkpt lat="42.12071450432575" lon="20.054827390255628"><ele>969.3333333333333</ele><time>2026-05-04T08:27:45Z</time></trkpt><trkpt lat="42.120756088605035" lon="20.054621460308844"><ele>969.0</ele><time>2026-05-04T08:27:46Z</time></trkpt><trkpt lat="42.12082260311212" lon="20.054406118066886"><ele>969.0</ele><time>2026-05-04T08:27:47Z</time></trkpt><trkpt lat="42.120914103902166" lon="20.0542046439937"><ele>969.0</ele><time>2026-05-04T08:27:48Z</time></trkpt><trkpt lat="42.12101545399579" lon="20.054088054544714"><ele>969.0</ele><time>2026-05-04T08:27:49Z</time></trkpt><trkpt lat="42.121133946265594" lon="20.054021414536617"><ele>969.0</ele><time>2026-05-04T08:27:50Z</time></trkpt><trkpt lat="42.12128750369222" lon="20.05398010643587"><ele>969.6666666666667</ele><time>2026-05-04T08:27:51Z</time></trkpt><trkpt lat="42.12147691788731" lon="20.05395189074841"><ele>970.3333333333334</ele><time>2026-05-04T08:27:52Z</time></trkpt><trkpt lat="42.12168389105478" lon="20.053899419377007"><ele>971.0</ele><time>2026-05-04T08:27:53Z</time></trkpt><trkpt lat="42.12187952882321" lon="20.05379152805421"><ele>971.0</ele><time>2026-05-04T08:27:54Z</time></trkpt><trkpt lat="42.12207391133049" lon="20.053677166434284"><ele>971.0</ele><time>2026-05-04T08:27:55Z</time></trkpt><trkpt lat="42.12227632414653" lon="20.053583963117276"><ele>971.0</ele><time>2026-05-04T08:27:56Z</time></trkpt><trkpt lat="42.122477839298924" lon="20.053502033007323"><ele>974.0</ele><time>2026-05-04T08:27:57Z</time></trkpt><trkpt lat="42.1226875900781" lon="20.05346649263351"><ele>977.0</ele><time>2026-05-04T08:27:58Z</time></trkpt><trkpt lat="42.122884754293864" lon="20.053462519757637"><ele>980.0</ele><time>2026-05-04T08:27:59Z</time></trkpt><trkpt lat="42.12307688517645" lon="20.05341464825421"><ele>977.6666666666667</ele><time>2026-05-04T08:28:00Z</time></trkpt><trkpt lat="42.12325393049112" lon="20.053300450433696"><ele>975.3333333333333</ele><time>2026-05-04T08:28:01Z</time></trkpt><trkpt lat="42.12339900489613" lon="20.05318830992986"><ele>973.0</ele><time>2026-05-04T08:28:02Z</time></trkpt><trkpt lat="42.123541191410936" lon="20.053138919256522"><ele>973.0</ele><time>2026-05-04T08:28:03Z</time></trkpt><trkpt lat="42.1236722831673" lon="20.053154022458298"><ele>973.0</ele><time>2026-05-04T08:28:04Z</time></trkpt><trkpt lat="42.123782016194475" lon="20.053141731021736"><ele>973.0</ele><time>2026-05-04T08:28:05Z</time></trkpt><trkpt lat="42.12386476284589" lon="20.053052316747653"><ele>973.0</ele><time>2026-05-04T08:28:06Z</time></trkpt><trkpt lat="42.123947002614344" lon="20.052905911106432"><ele>973.0</ele><time>2026-05-04T08:28:07Z</time></trkpt><trkpt lat="42.12405680034654" lon="20.052747515901906"><ele>973.0</ele><time>2026-05-04T08:28:08Z</time></trkpt><trkpt lat="42.12418800956272" lon="20.05261136463039"><ele>973.0</ele><time>2026-05-04T08:28:09Z</time></trkpt><trkpt lat="42.12433866141462" lon="20.05248201857022"><ele>979.5</ele><time>2026-05-04T08:28:10Z</time></trkpt><trkpt lat="42.124475363918584" lon="20.052338876122356"><ele>986.0</ele><time>2026-05-04T08:28:11Z</time></trkpt><trkpt lat="42.1245591566249" lon="20.052217906979052"><ele>992.5</ele><time>2026-05-04T08:28:12Z</time></trkpt><trkpt lat="42.124591401032134" lon="20.052105960753874"><ele>999.0</ele><time>2026-05-04T08:28:13Z</time></trkpt><trkpt lat="42.12457750464676" lon="20.051969347172676"><ele>999.0</ele><time>2026-05-04T08:28:14Z</time></trkpt><trkpt lat="42.124514092612884" lon="20.05180614477299"><ele>999.0</ele><time>2026-05-04T08:28:15Z</time></trkpt><trkpt lat="42.12440916848495" lon="20.051628369909288"><ele>999.0</ele><time>2026-05-04T08:28:16Z</time></trkpt><trkpt lat="42.12428081082432" lon="20.051445986487085"><ele>993.6666666666667</ele><time>2026-05-04T08:28:17Z</time></trkpt><trkpt lat="42.1241750358692" lon="20.0512483174171"><ele>988.3333333333334</ele><time>2026-05-04T08:28:18Z</time></trkpt><trkpt lat="42.12407946133858" lon="20.051029519217423"><ele>983.0</ele><time>2026-05-04T08:28:19Z</time></trkpt><trkpt lat="42.123991891086504" lon="20.050804442747797"><ele>983.75</ele><time>2026-05-04T08:28:20Z</time></trkpt><trkpt lat="42.12394154016296" lon="20.050606971172613"><ele>984.5</ele><time>2026-05-04T08:28:21Z</time></trkpt><trkpt lat="42.12393177398368" lon="20.050436250737008"><ele>985.25</ele><time>2026-05-04T08:28:22Z</time></trkpt><trkpt lat="42.12396360770052" lon="20.050238882712897"><ele>986.0</ele><time>2026-05-04T08:28:23Z</time></trkpt><trkpt lat="42.12403795739375" lon="20.050037670076005"><ele>994.3333333333334</ele><time>2026-05-04T08:28:24Z</time></trkpt><trkpt lat="42.124136669354066" lon="20.049831322858477"><ele>1002.6666666666667</ele><time>2026-05-04T08:28:25Z</time></trkpt><trkpt lat="42.12424241919028" lon="20.049616759825863"><ele>1011.0</ele><time>2026-05-04T08:28:26Z</time></trkpt><trkpt lat="42.1243599131186" lon="20.049384770861483"><ele>1011.0</ele><time>2026-05-04T08:28:27Z</time></trkpt><trkpt lat="42.124500081197866" lon="20.049176551495766"><ele>1011.0</ele><time>2026-05-04T08:28:28Z</time></trkpt><trkpt lat="42.124635518694284" lon="20.048991761265537"><ele>1011.0</ele><time>2026-05-04T08:28:29Z</time></trkpt><trkpt lat="42.1247261830324" lon="20.048822101659812"><ele>1009.5999999999999</ele><time>2026-05-04T08:28:30Z</time></trkpt><trkpt lat="42.124786529539826" lon="20.048693502551167"><ele>1008.1999999999999</ele><time>2026-05-04T08:28:31Z</time></trkpt><trkpt lat="42.124847385601264" lon="20.048611694762187"><ele>1006.8000000000001</ele><time>2026-05-04T08:28:32Z</time></trkpt><trkpt lat="42.12491238791899" lon="20.04860303724016"><ele>1005.4000000000001</ele><time>2026-05-04T08:28:33Z</time></trkpt><trkpt lat="42.12500102380077" lon="20.04865448769106"><ele>1004.0</ele><time>2026-05-04T08:28:34Z</time></trkpt><trkpt lat="42.125122768827566" lon="20.04873421566742"><ele>1009.3333333333334</ele><time>2026-05-04T08:28:35Z</time></trkpt><trkpt lat="42.1252562954274" lon="20.04879617458804"><ele>1014.6666666666667</ele><time>2026-05-04T08:28:36Z</time></trkpt><trkpt lat="42.125406753735206" lon="20.048852443551397"><ele>1020.0</ele><time>2026-05-04T08:28:37Z</time></trkpt><trkpt lat="42.125555871935354" lon="20.048933597410915"><ele>1020.0</ele><time>2026-05-04T08:28:38Z</time></trkpt><trkpt lat="42.125675775390455" lon="20.04905853149665"><ele>1020.0</ele><time>2026-05-04T08:28:39Z</time></trkpt><trkpt lat="42.12579805506048" lon="20.049223478438492"><ele>1020.0</ele><time>2026-05-04T08:28:40Z</time></trkpt><trkpt lat="42.125944097651164" lon="20.049392553970094"><ele>1023.3333333333333</ele><time>2026-05-04T08:28:41Z</time></trkpt><trkpt lat="42.12610081522221" lon="20.049589665324877"><ele>1026.6666666666665</ele><time>2026-05-04T08:28:42Z</time></trkpt><trkpt lat="42.12624003111728" lon="20.049792278381112"><ele>1030.0</ele><time>2026-05-04T08:28:43Z</time></trkpt><trkpt lat="42.12634208116385" lon="20.04994187793573"><ele>1031.5</ele><time>2026-05-04T08:28:44Z</time></trkpt><trkpt lat="42.126431308763166" lon="20.050031529430676"><ele>1033.0</ele><time>2026-05-04T08:28:45Z</time></trkpt><trkpt lat="42.12652774259751" lon="20.05005527949108"><ele>1034.5</ele><time>2026-05-04T08:28:46Z</time></trkpt><trkpt lat="42.126649347236544" lon="20.05001928068977"><ele>1036.0</ele><time>2026-05-04T08:28:47Z</time></trkpt><trkpt lat="42.12677874384406" lon="20.04994798862738"><ele>1026.0</ele><time>2026-05-04T08:28:48Z</time></trkpt><trkpt lat="42.126919978547114" lon="20.04983843567295"><ele>1016.0</ele><time>2026-05-04T08:28:49Z</time></trkpt><trkpt lat="42.12705568357143" lon="20.049697629945307"><ele>1006.0</ele><time>2026-05-04T08:28:50Z</time></trkpt><trkpt lat="42.12719247108221" lon="20.04952248754752"><ele>1006.0</ele><time>2026-05-04T08:28:51Z</time></trkpt><trkpt lat="42.12732644911189" lon="20.049337789907533"><ele>1006.0</ele><time>2026-05-04T08:28:52Z</time></trkpt><trkpt lat="42.12747570623477" lon="20.049169217973308"><ele>1006.0</ele><time>2026-05-04T08:28:53Z</time></trkpt><trkpt lat="42.12763038316277" lon="20.049045780945878"><ele>1005.6666666666666</ele><time>2026-05-04T08:28:54Z</time></trkpt><trkpt lat="42.127784741125964" lon="20.048942792292713"><ele>1005.3333333333333</ele><time>2026-05-04T08:28:55Z</time></trkpt><trkpt lat="42.12793345402026" lon="20.048861889989574"><ele>1005.0</ele><time>2026-05-04T08:28:56Z</time></trkpt><trkpt lat="42.12808735127935" lon="20.048798764580198"><ele>1008.3333333333333</ele><time>2026-05-04T08:28:57Z</time></trkpt><trkpt lat="42.12824941312738" lon="20.048780884364216"><ele>1011.6666666666666</ele><time>2026-05-04T08:28:58Z</time></trkpt><trkpt lat="42.12841059906981" lon="20.048811482586167"><ele>1015.0</ele><time>2026-05-04T08:28:59Z</time></trkpt><trkpt lat="42.128545686106605" lon="20.048898712123496"><ele>1015.0</ele><time>2026-05-04T08:29:00Z</time></trkpt><trkpt lat="42.128676453059455" lon="20.049017511663834"><ele>1015.0</ele><time>2026-05-04T08:29:01Z</time></trkpt><trkpt lat="42.12879703150564" lon="20.04915663469982"><ele>1015.0</ele><time>2026-05-04T08:29:02Z</time></trkpt><trkpt lat="42.12890003335986" lon="20.049330079200416"><ele>1023.3333333333333</ele><time>2026-05-04T08:29:03Z</time></trkpt><trkpt lat="42.12895546412939" lon="20.049518320445348"><ele>1031.6666666666667</ele><time>2026-05-04T08:29:04Z</time></trkpt><trkpt lat="42.12898995991348" lon="20.049731014885538"><ele>1040.0</ele><time>2026-05-04T08:29:05Z</time></trkpt><trkpt lat="42.1290292422403" lon="20.049973227061674"><ele>1042.3333333333335</ele><time>2026-05-04T08:29:06Z</time></trkpt><trkpt lat="42.12910632031285" lon="20.050251378254455"><ele>1044.6666666666667</ele><time>2026-05-04T08:29:07Z</time></trkpt><trkpt lat="42.12919139135701" lon="20.05052565174357"><ele>1047.0</ele><time>2026-05-04T08:29:08Z</time></trkpt><trkpt lat="42.12928948551183" lon="20.050804410564538"><ele>1047.0</ele><time>2026-05-04T08:29:09Z</time></trkpt><trkpt lat="42.12937466379075" lon="20.05103850424887"><ele>1047.0</ele><time>2026-05-04T08:29:10Z</time></trkpt><trkpt lat="42.129468621621754" lon="20.05121351812158"><ele>1047.0</ele><time>2026-05-04T08:29:11Z</time></trkpt><trkpt lat="42.12960314860884" lon="20.05135151314731"><ele>1047.0</ele><time>2026-05-04T08:29:12Z</time></trkpt><trkpt lat="42.129773122809056" lon="20.05147406080511"><ele>1047.0</ele><time>2026-05-04T08:29:13Z</time></trkpt><trkpt lat="42.129944564142164" lon="20.05158524046121"><ele>1047.0</ele><time>2026-05-04T08:29:13.999Z</time></trkpt><trkpt lat="42.13007560525853" lon="20.05164223245811"><ele>1047.0</ele><time>2026-05-04T08:29:14.999Z</time></trkpt><trkpt lat="42.13017294794211" lon="20.051667140687684"><ele>1047.0</ele><time>2026-05-04T08:29:15.999Z</time></trkpt><trkpt lat="42.130255116251924" lon="20.051615779146353"><ele>1047.0</ele><time>2026-05-04T08:29:16.999Z</time></trkpt><trkpt lat="42.130339118825695" lon="20.051502760905247"><ele>1047.0</ele><time>2026-05-04T08:29:17.999Z</time></trkpt><trkpt lat="42.13043533532693" lon="20.05132931140543"><ele>1041.3333333333333</ele><time>2026-05-04T08:29:18.999Z</time></trkpt><trkpt lat="42.130536639443946" lon="20.05108327173817"><ele>1035.6666666666665</ele><time>2026-05-04T08:29:19.999Z</time></trkpt><trkpt lat="42.130664821876316" lon="20.050919394979672"><ele>1030.0</ele><time>2026-05-04T08:29:20.999Z</time></trkpt><trkpt lat="42.130776692459484" lon="20.050773958189335"><ele>1030.0</ele><time>2026-05-04T08:29:21.999Z</time></trkpt><trkpt lat="42.130847305908354" lon="20.05060760716127"><ele>1030.0</ele><time>2026-05-04T08:29:22.999Z</time></trkpt><trkpt lat="42.13088599131052" lon="20.050396460811264"><ele>1030.0</ele><time>2026-05-04T08:29:23.999Z</time></trkpt><trkpt lat="42.130933227422254" lon="20.05015957859928"><ele>1024.6666666666665</ele><time>2026-05-04T08:29:24.999Z</time></trkpt><trkpt lat="42.1310065683812" lon="20.049925090651907"><ele>1019.3333333333333</ele><time>2026-05-04T08:29:25.999Z</time></trkpt><trkpt lat="42.13109649579937" lon="20.04975001747306"><ele>1014.0</ele><time>2026-05-04T08:29:26.999Z</time></trkpt><trkpt lat="42.131193556348705" lon="20.04966651908602"><ele>1014.0</ele><time>2026-05-04T08:29:27.999Z</time></trkpt><trkpt lat="42.131321768830354" lon="20.049555783269593"><ele>1014.0</ele><time>2026-05-04T08:29:28.999Z</time></trkpt><trkpt lat="42.1314640263778" lon="20.049402329642703"><ele>1014.0</ele><time>2026-05-04T08:29:29.999Z</time></trkpt><trkpt lat="42.131614689751565" lon="20.04922025218888"><ele>1015.3333333333333</ele><time>2026-05-04T08:29:30.999Z</time></trkpt><trkpt lat="42.1317730653219" lon="20.049038445663328"><ele>1016.6666666666666</ele><time>2026-05-04T08:29:31.999Z</time></trkpt><trkpt lat="42.13194765970553" lon="20.048874140429582"><ele>1018.0</ele><time>2026-05-04T08:29:32.999Z</time></trkpt><trkpt lat="42.13210350604191" lon="20.048759534870456"><ele>1018.0</ele><time>2026-05-04T08:29:33.999Z</time></trkpt><trkpt lat="42.13223051743748" lon="20.048703358059594"><ele>1018.0</ele><time>2026-05-04T08:29:34.999Z</time></trkpt><trkpt lat="42.13232713854946" lon="20.048697934446274"><ele>1018.0</ele><time>2026-05-04T08:29:35.999Z</time></trkpt><trkpt lat="42.132408925994866" lon="20.04874089461073"><ele>1018.0</ele><time>2026-05-04T08:29:36.999Z</time></trkpt><trkpt lat="42.13247819178826" lon="20.048838844972348"><ele>1018.0</ele><time>2026-05-04T08:29:37.999Z</time></trkpt><trkpt lat="42.13255106389573" lon="20.04899576237308"><ele>1028.6666666666665</ele><time>2026-05-04T08:29:38.999Z</time></trkpt><trkpt lat="42.13265755041181" lon="20.049169006901245"><ele>1039.3333333333333</ele><time>2026-05-04T08:29:39.999Z</time></trkpt><trkpt lat="42.13279560074221" lon="20.04933732572172"><ele>1050.0</ele><time>2026-05-04T08:29:40.999Z</time></trkpt><trkpt lat="42.13294725607112" lon="20.04950826125164"><ele>1050.0</ele><time>2026-05-04T08:29:41.999Z</time></trkpt><trkpt lat="42.13308733895813" lon="20.04965413972383"><ele>1050.0</ele><time>2026-05-04T08:29:42.999Z</time></trkpt><trkpt lat="42.13319778901537" lon="20.049746764350633"><ele>1050.0</ele><time>2026-05-04T08:29:43.999Z</time></trkpt><trkpt lat="42.133283311922845" lon="20.049767221252466"><ele>1050.0</ele><time>2026-05-04T08:29:44.999Z</time></trkpt><trkpt lat="42.13340292543299" lon="20.049725219513736"><ele>1047.0</ele><time>2026-05-04T08:29:46.999Z</time></trkpt><trkpt lat="42.13350919824085" lon="20.049701239157336"><ele>1044.0</ele><time>2026-05-04T08:29:48Z</time></trkpt><trkpt lat="42.13364008257984" lon="20.049672732749247"><ele>1041.0</ele><time>2026-05-04T08:29:49Z</time></trkpt><trkpt lat="42.133794288630526" lon="20.049625266253134"><ele>1038.0</ele><time>2026-05-04T08:29:50Z</time></trkpt><trkpt lat="42.13393239744121" lon="20.049559367273957"><ele>1038.0</ele><time>2026-05-04T08:29:51Z</time></trkpt><trkpt lat="42.13400547796716" lon="20.049482015773503"><ele>1038.0</ele><time>2026-05-04T08:29:52Z</time></trkpt><trkpt lat="42.134042008012656" lon="20.0493645903686"><ele>1038.0</ele><time>2026-05-04T08:29:53Z</time></trkpt><trkpt lat="42.134053659246995" lon="20.04921017512383"><ele>1038.0</ele><time>2026-05-04T08:29:54Z</time></trkpt><trkpt lat="42.13406959419262" lon="20.049019440713966"><ele>1038.0</ele><time>2026-05-04T08:29:55Z</time></trkpt><trkpt lat="42.134125455201804" lon="20.048832449570334"><ele>1035.5</ele><time>2026-05-04T08:29:56Z</time></trkpt><trkpt lat="42.13421685879515" lon="20.048699570374804"><ele>1033.0</ele><time>2026-05-04T08:29:57Z</time></trkpt><trkpt lat="42.13433754515761" lon="20.048620303283037"><ele>1030.5</ele><time>2026-05-04T08:29:58Z</time></trkpt><trkpt lat="42.134485981338344" lon="20.048559554393226"><ele>1028.0</ele><time>2026-05-04T08:29:59Z</time></trkpt><trkpt lat="42.13466511076444" lon="20.048516228422393"><ele>1028.0</ele><time>2026-05-04T08:30:00Z</time></trkpt><trkpt lat="42.13487604675334" lon="20.048492495367327"><ele>1028.0</ele><time>2026-05-04T08:30:01Z</time></trkpt><trkpt lat="42.13508832034614" lon="20.048471785549765"><ele>1028.0</ele><time>2026-05-04T08:30:02Z</time></trkpt><trkpt lat="42.13525328520142" lon="20.048479859490357"><ele>1033.5</ele><time>2026-05-04T08:30:03Z</time></trkpt><trkpt lat="42.135373988784956" lon="20.048504505433574"><ele>1039.0</ele><time>2026-05-04T08:30:04Z</time></trkpt><trkpt lat="42.1354804178717" lon="20.048489022670733"><ele>1044.5</ele><time>2026-05-04T08:30:05Z</time></trkpt><trkpt lat="42.13559916623211" lon="20.048394361582723"><ele>1050.0</ele><time>2026-05-04T08:30:06Z</time></trkpt><trkpt lat="42.135744079668406" lon="20.048294193834504"><ele>1048.25</ele><time>2026-05-04T08:30:07Z</time></trkpt><trkpt lat="42.135903398458716" lon="20.048251837768188"><ele>1046.5</ele><time>2026-05-04T08:30:08Z</time></trkpt><trkpt lat="42.13604280477384" lon="20.048255682424045"><ele>1044.75</ele><time>2026-05-04T08:30:09Z</time></trkpt><trkpt lat="42.136162879895295" lon="20.04831329172904"><ele>1043.0</ele><time>2026-05-04T08:30:10Z</time></trkpt><trkpt lat="42.13625052408937" lon="20.048401265811997"><ele>1043.0</ele><time>2026-05-04T08:30:11Z</time></trkpt><trkpt lat="42.13636501028986" lon="20.048372056440623"><ele>1043.0</ele><time>2026-05-04T08:30:13Z</time></trkpt><trkpt lat="42.136398781384365" lon="20.048255593518792"><ele>1043.0</ele><time>2026-05-04T08:30:14Z</time></trkpt><trkpt lat="42.13639561109068" lon="20.04810166094861"><ele>1043.0</ele><time>2026-05-04T08:30:15Z</time></trkpt><trkpt lat="42.13636571476259" lon="20.047907775288625"><ele>1043.0</ele><time>2026-05-04T08:30:16Z</time></trkpt><trkpt lat="42.13634460127741" lon="20.04769920241182"><ele>1043.0</ele><time>2026-05-04T08:30:17Z</time></trkpt><trkpt lat="42.13633534795781" lon="20.047473808220353"><ele>1043.0</ele><time>2026-05-04T08:30:18Z</time></trkpt><trkpt lat="42.13632260567996" lon="20.047233069050275"><ele>1042.25</ele><time>2026-05-04T08:30:19Z</time></trkpt><trkpt lat="42.13632130211169" lon="20.047023908520522"><ele>1041.5</ele><time>2026-05-04T08:30:20Z</time></trkpt><trkpt lat="42.13634705848769" lon="20.04688320133248"><ele>1040.75</ele><time>2026-05-04T08:30:21Z</time></trkpt><trkpt lat="42.136397392297006" lon="20.04676418850896"><ele>1040.0</ele><time>2026-05-04T08:30:22Z</time></trkpt><trkpt lat="42.13646862183816" lon="20.04665066786682"><ele>1040.75</ele><time>2026-05-04T08:30:23Z</time></trkpt><trkpt lat="42.13657430056542" lon="20.046550326660807"><ele>1041.5</ele><time>2026-05-04T08:30:24Z</time></trkpt><trkpt lat="42.136711421818056" lon="20.046480131435366"><ele>1042.25</ele><time>2026-05-04T08:30:25Z</time></trkpt><trkpt lat="42.13686097363863" lon="20.046458926932903"><ele>1043.0</ele><time>2026-05-04T08:30:26Z</time></trkpt><trkpt lat="42.1370275310629" lon="20.04648900425829"><ele>1043.0</ele><time>2026-05-04T08:30:27Z</time></trkpt><trkpt lat="42.13720564046618" lon="20.04655858644109"><ele>1043.0</ele><time>2026-05-04T08:30:28Z</time></trkpt><trkpt lat="42.13738885516892" lon="20.04664362014077"><ele>1043.0</ele><time>2026-05-04T08:30:29Z</time></trkpt><trkpt lat="42.137572502800246" lon="20.046742638167657"><ele>1050.6666666666667</ele><time>2026-05-04T08:30:30Z</time></trkpt><trkpt lat="42.13775510458187" lon="20.046860779543255"><ele>1058.3333333333333</ele><time>2026-05-04T08:30:31Z</time></trkpt><trkpt lat="42.13794111146432" lon="20.046997303471258"><ele>1066.0</ele><time>2026-05-04T08:30:32Z</time></trkpt><trkpt lat="42.13812211215375" lon="20.047142377086633"><ele>1064.0</ele><time>2026-05-04T08:30:33Z</time></trkpt><trkpt lat="42.13830845383386" lon="20.04728799130368"><ele>1062.0</ele><time>2026-05-04T08:30:34Z</time></trkpt><trkpt lat="42.13849708788068" lon="20.047420451699647"><ele>1060.0</ele><time>2026-05-04T08:30:35Z</time></trkpt><trkpt lat="42.138695327653004" lon="20.047557221787237"><ele>1056.0</ele><time>2026-05-04T08:30:36Z</time></trkpt><trkpt lat="42.138883806486064" lon="20.047695751440564"><ele>1052.0</ele><time>2026-05-04T08:30:37Z</time></trkpt><trkpt lat="42.13901855694057" lon="20.04780823073194"><ele>1048.0</ele><time>2026-05-04T08:30:38Z</time></trkpt><trkpt lat="42.13911756746394" lon="20.04791586436064"><ele>1048.0</ele><time>2026-05-04T08:30:39Z</time></trkpt><trkpt lat="42.139210788752564" lon="20.04804602253802"><ele>1048.0</ele><time>2026-05-04T08:30:40Z</time></trkpt><trkpt lat="42.139285931476365" lon="20.048198702640942"><ele>1048.0</ele><time>2026-05-04T08:30:41Z</time></trkpt><trkpt lat="42.139343255923336" lon="20.048318975004097"><ele>1048.0</ele><time>2026-05-04T08:30:42Z</time></trkpt><trkpt lat="42.13940486459615" lon="20.04838230888886"><ele>1048.0</ele><time>2026-05-04T08:30:43Z</time></trkpt><trkpt lat="42.13947897016683" lon="20.048395512047488"><ele>1048.0</ele><time>2026-05-04T08:30:44Z</time></trkpt><trkpt lat="42.1395709228186" lon="20.04835627389589"><ele>1048.0</ele><time>2026-05-04T08:30:45Z</time></trkpt><trkpt lat="42.13969303067602" lon="20.04829550949985"><ele>1048.0</ele><time>2026-05-04T08:30:46Z</time></trkpt><trkpt lat="42.13984410119444" lon="20.04828475813257"><ele>1052.0</ele><time>2026-05-04T08:30:47Z</time></trkpt><trkpt lat="42.14001913863899" lon="20.04833034495327"><ele>1056.0</ele><time>2026-05-04T08:30:48Z</time></trkpt><trkpt lat="42.140203616775906" lon="20.048380470839245"><ele>1060.0</ele><time>2026-05-04T08:30:49Z</time></trkpt><trkpt lat="42.14039172695787" lon="20.04840118149215"><ele>1060.0</ele><time>2026-05-04T08:30:50Z</time></trkpt><trkpt lat="42.14058189427274" lon="20.048394385975698"><ele>1060.0</ele><time>2026-05-04T08:30:51Z</time></trkpt><trkpt lat="42.140766525257334" lon="20.048356334734706"><ele>1060.0</ele><time>2026-05-04T08:30:52Z</time></trkpt><trkpt lat="42.14093134354104" lon="20.048285618248258"><ele>1055.0</ele><time>2026-05-04T08:30:53Z</time></trkpt><trkpt lat="42.14106139969913" lon="20.048191715452845"><ele>1050.0</ele><time>2026-05-04T08:30:54Z</time></trkpt><trkpt lat="42.141175677734374" lon="20.04805263219497"><ele>1045.0</ele><time>2026-05-04T08:30:55Z</time></trkpt><trkpt lat="42.14127821930703" lon="20.047869416075937"><ele>1045.0</ele><time>2026-05-04T08:30:56Z</time></trkpt><trkpt lat="42.141375624048514" lon="20.047703398890516"><ele>1045.0</ele><time>2026-05-04T08:30:57Z</time></trkpt><trkpt lat="42.141460106744425" lon="20.047627623438192"><ele>1045.0</ele><time>2026-05-04T08:30:58Z</time></trkpt><trkpt lat="42.141556331382674" lon="20.047626249213568"><ele>1045.0</ele><time>2026-05-04T08:30:59Z</time></trkpt><trkpt lat="42.14168674172455" lon="20.047668446176704"><ele>1050.6666666666665</ele><time>2026-05-04T08:31:00Z</time></trkpt><trkpt lat="42.14184879004371" lon="20.04774968514872"><ele>1056.3333333333333</ele><time>2026-05-04T08:31:01Z</time></trkpt><trkpt lat="42.14202392726382" lon="20.047831214655876"><ele>1062.0</ele><time>2026-05-04T08:31:02Z</time></trkpt><trkpt lat="42.142228133721396" lon="20.047891898893788"><ele>1057.5</ele><time>2026-05-04T08:31:03Z</time></trkpt><trkpt lat="42.14244875347628" lon="20.047927391918158"><ele>1053.0</ele><time>2026-05-04T08:31:04Z</time></trkpt><trkpt lat="42.1426822610507" lon="20.047971020901244"><ele>1053.0</ele><time>2026-05-04T08:31:05Z</time></trkpt><trkpt lat="42.14292914492702" lon="20.048043955343946"><ele>1053.0</ele><time>2026-05-04T08:31:06Z</time></trkpt><trkpt lat="42.14314741656763" lon="20.048114990484653"><ele>1049.0</ele><time>2026-05-04T08:31:07Z</time></trkpt><trkpt lat="42.14331695315642" lon="20.048162119961393"><ele>1045.0</ele><time>2026-05-04T08:31:08Z</time></trkpt><trkpt lat="42.14346041584242" lon="20.04820313267305"><ele>1041.0</ele><time>2026-05-04T08:31:09Z</time></trkpt><trkpt lat="42.1435884020056" lon="20.048266915268407"><ele>1046.75</ele><time>2026-05-04T08:31:10Z</time></trkpt><trkpt lat="42.14370233642206" lon="20.048338448790798"><ele>1052.5</ele><time>2026-05-04T08:31:11Z</time></trkpt><trkpt lat="42.14379947546647" lon="20.0484377068175"><ele>1058.25</ele><time>2026-05-04T08:31:12Z</time></trkpt><trkpt lat="42.14387997893518" lon="20.04858304725709"><ele>1064.0</ele><time>2026-05-04T08:31:13Z</time></trkpt><trkpt lat="42.14394471481599" lon="20.0487611921937"><ele>1064.0</ele><time>2026-05-04T08:31:14Z</time></trkpt><trkpt lat="42.14399205417457" lon="20.0489682894407"><ele>1064.0</ele><time>2026-05-04T08:31:15Z</time></trkpt><trkpt lat="42.144023144679544" lon="20.049201757406124"><ele>1064.0</ele><time>2026-05-04T08:31:16Z</time></trkpt><trkpt lat="42.14406444305901" lon="20.049449176679452"><ele>1059.3333333333335</ele><time>2026-05-04T08:31:16.999Z</time></trkpt><trkpt lat="42.14410775790381" lon="20.049680930997727"><ele>1054.6666666666667</ele><time>2026-05-04T08:31:17.999Z</time></trkpt><trkpt lat="42.14413282196209" lon="20.049875856738524"><ele>1050.0</ele><time>2026-05-04T08:31:18.999Z</time></trkpt><trkpt lat="42.14413024403824" lon="20.050045330113544"><ele>1049.3333333333333</ele><time>2026-05-04T08:31:19.999Z</time></trkpt><trkpt lat="42.144085916118584" lon="20.050220261968157"><ele>1048.6666666666665</ele><time>2026-05-04T08:31:20.999Z</time></trkpt><trkpt lat="42.14399035653236" lon="20.050405438045804"><ele>1048.0</ele><time>2026-05-04T08:31:21.999Z</time></trkpt><trkpt lat="42.14386754149331" lon="20.050598216650645"><ele>1055.75</ele><time>2026-05-04T08:31:22.999Z</time></trkpt><trkpt lat="42.14378206499207" lon="20.05076354988422"><ele>1063.5</ele><time>2026-05-04T08:31:23.999Z</time></trkpt><trkpt lat="42.1437425211159" lon="20.05090207663874"><ele>1071.25</ele><time>2026-05-04T08:31:24.999Z</time></trkpt><trkpt lat="42.14373072032776" lon="20.051034342321014"><ele>1079.0</ele><time>2026-05-04T08:31:25.999Z</time></trkpt><trkpt lat="42.14375057201902" lon="20.051170482235726"><ele>1079.0</ele><time>2026-05-04T08:31:26.999Z</time></trkpt><trkpt lat="42.14379984180151" lon="20.051300950418437"><ele>1079.0</ele><time>2026-05-04T08:31:27.999Z</time></trkpt><trkpt lat="42.14386965270722" lon="20.05142983999527"><ele>1079.0</ele><time>2026-05-04T08:31:28.999Z</time></trkpt><trkpt lat="42.143955145628915" lon="20.051573068426997"><ele>1079.0</ele><time>2026-05-04T08:31:29.999Z</time></trkpt><trkpt lat="42.144034793622325" lon="20.051714594153644"><ele>1074.6666666666667</ele><time>2026-05-04T08:31:30.999Z</time></trkpt><trkpt lat="42.14409723496747" lon="20.0517857612378"><ele>1070.3333333333335</ele><time>2026-05-04T08:31:31.999Z</time></trkpt><trkpt lat="42.14416534201291" lon="20.051801759640767"><ele>1066.0</ele><time>2026-05-04T08:31:32.999Z</time></trkpt><trkpt lat="42.14423286830014" lon="20.051767362449585"><ele>1061.6666666666667</ele><time>2026-05-04T08:31:33.999Z</time></trkpt><trkpt lat="42.14429246347737" lon="20.051666398304494"><ele>1057.3333333333333</ele><time>2026-05-04T08:31:34.999Z</time></trkpt><trkpt lat="42.14437003408811" lon="20.051546400933915"><ele>1053.0</ele><time>2026-05-04T08:31:35.999Z</time></trkpt><trkpt lat="42.14447048279929" lon="20.051460219261024"><ele>1049.3333333333333</ele><time>2026-05-04T08:31:36.999Z</time></trkpt><trkpt lat="42.14461053200399" lon="20.05137999524128"><ele>1045.6666666666665</ele><time>2026-05-04T08:31:37.999Z</time></trkpt><trkpt lat="42.144765622117795" lon="20.051309718285072"><ele>1042.0</ele><time>2026-05-04T08:31:38.999Z</time></trkpt><trkpt lat="42.14493473731622" lon="20.051219837361725"><ele>1042.0</ele><time>2026-05-04T08:31:39.999Z</time></trkpt><trkpt lat="42.14509211589601" lon="20.05110904620562"><ele>1042.0</ele><time>2026-05-04T08:31:40.999Z</time></trkpt><trkpt lat="42.14520648828465" lon="20.050992873223784"><ele>1042.0</ele><time>2026-05-04T08:31:41.999Z</time></trkpt><trkpt lat="42.14529913431381" lon="20.050856773031388"><ele>1039.0</ele><time>2026-05-04T08:31:42.999Z</time></trkpt><trkpt lat="42.14536893815597" lon="20.0506863388778"><ele>1036.0</ele><time>2026-05-04T08:31:43.999Z</time></trkpt><trkpt lat="42.14542086798555" lon="20.05049272922625"><ele>1033.0</ele><time>2026-05-04T08:31:44.999Z</time></trkpt><trkpt lat="42.1454877193231" lon="20.050339345651057"><ele>1030.0</ele><time>2026-05-04T08:31:45.999Z</time></trkpt><trkpt lat="42.14556844710727" lon="20.050260182885193"><ele>1030.0</ele><time>2026-05-04T08:31:46.999Z</time></trkpt><trkpt lat="42.14566144978836" lon="20.050235238080468"><ele>1030.0</ele><time>2026-05-04T08:31:47.999Z</time></trkpt><trkpt lat="42.14577694733425" lon="20.0502560844432"><ele>1030.0</ele><time>2026-05-04T08:31:48.999Z</time></trkpt><trkpt lat="42.14591837514165" lon="20.050329581558255"><ele>1030.0</ele><time>2026-05-04T08:31:49.999Z</time></trkpt><trkpt lat="42.14607966175784" lon="20.05038310943824"><ele>1036.0</ele><time>2026-05-04T08:31:50.999Z</time></trkpt><trkpt lat="42.14626211120971" lon="20.050370807165365"><ele>1042.0</ele><time>2026-05-04T08:31:51.999Z</time></trkpt><trkpt lat="42.146454326799756" lon="20.050310550385273"><ele>1048.0</ele><time>2026-05-04T08:31:52.999Z</time></trkpt><trkpt lat="42.14664513625277" lon="20.050244764155735"><ele>1052.3333333333333</ele><time>2026-05-04T08:31:54Z</time></trkpt><trkpt lat="42.146847216428334" lon="20.050181864911327"><ele>1056.6666666666667</ele><time>2026-05-04T08:31:55Z</time></trkpt><trkpt lat="42.147063377585944" lon="20.05012857043667"><ele>1061.0</ele><time>2026-05-04T08:31:56Z</time></trkpt><trkpt lat="42.14729603997724" lon="20.050091298795984"><ele>1066.5</ele><time>2026-05-04T08:31:57Z</time></trkpt><trkpt lat="42.14753997742836" lon="20.05007370426739"><ele>1072.0</ele><time>2026-05-04T08:31:58Z</time></trkpt><trkpt lat="42.14778178549612" lon="20.05006563982548"><ele>1072.0</ele><time>2026-05-04T08:31:59Z</time></trkpt><trkpt lat="42.14799425498757" lon="20.050061226278135"><ele>1072.0</ele><time>2026-05-04T08:32:00Z</time></trkpt><trkpt lat="42.14818736365932" lon="20.050062711655055"><ele>1072.0</ele><time>2026-05-04T08:32:01Z</time></trkpt><trkpt lat="42.148355032227975" lon="20.050059296884235"><ele>1072.5</ele><time>2026-05-04T08:32:02Z</time></trkpt><trkpt lat="42.148498982078415" lon="20.0500334432709"><ele>1073.0</ele><time>2026-05-04T08:32:03Z</time></trkpt><trkpt lat="42.1486209328145" lon="20.049978164384854"><ele>1073.5</ele><time>2026-05-04T08:32:04Z</time></trkpt><trkpt lat="42.148719494068125" lon="20.049877909511164"><ele>1074.0</ele><time>2026-05-04T08:32:05Z</time></trkpt><trkpt lat="42.148818762022835" lon="20.049761488650226"><ele>1074.0</ele><time>2026-05-04T08:32:06Z</time></trkpt><trkpt lat="42.148922932309745" lon="20.049720783148178"><ele>1074.0</ele><time>2026-05-04T08:32:07Z</time></trkpt><trkpt lat="42.14902148015717" lon="20.049759357999584"><ele>1074.0</ele><time>2026-05-04T08:32:08Z</time></trkpt><trkpt lat="42.14912164533817" lon="20.049813567176173"><ele>1074.0</ele><time>2026-05-04T08:32:09Z</time></trkpt><trkpt lat="42.149213699817" lon="20.049799136562534"><ele>1074.0</ele><time>2026-05-04T08:32:10Z</time></trkpt><trkpt lat="42.14928971897829" lon="20.04972216146825"><ele>1074.0</ele><time>2026-05-04T08:32:11Z</time></trkpt><trkpt lat="42.14931740798777" lon="20.049627177071333"><ele>1074.0</ele><time>2026-05-04T08:32:12Z</time></trkpt><trkpt lat="42.14928987490377" lon="20.049519032440895"><ele>1074.0</ele><time>2026-05-04T08:32:13Z</time></trkpt><trkpt lat="42.149220402207334" lon="20.049394818498193"><ele>1074.0</ele><time>2026-05-04T08:32:14Z</time></trkpt><trkpt lat="42.149111594892" lon="20.049258682947215"><ele>1074.0</ele><time>2026-05-04T08:32:15Z</time></trkpt><trkpt lat="42.14897734674577" lon="20.049126152829306"><ele>1080.6666666666667</ele><time>2026-05-04T08:32:16Z</time></trkpt><trkpt lat="42.14883774767974" lon="20.048977221214006"><ele>1087.3333333333335</ele><time>2026-05-04T08:32:17Z</time></trkpt><trkpt lat="42.14868837676243" lon="20.048816522473906"><ele>1094.0</ele><time>2026-05-04T08:32:18Z</time></trkpt><trkpt lat="42.14852825594096" lon="20.048648155382203"><ele>1094.0</ele><time>2026-05-04T08:32:19Z</time></trkpt><trkpt lat="42.14836469995427" lon="20.048456444610185"><ele>1094.0</ele><time>2026-05-04T08:32:20Z</time></trkpt><trkpt lat="42.14822433768734" lon="20.048275616772962"><ele>1094.0</ele><time>2026-05-04T08:32:21Z</time></trkpt><trkpt lat="42.14810476540434" lon="20.048128511035355"><ele>1094.5</ele><time>2026-05-04T08:32:22Z</time></trkpt><trkpt lat="42.14800290169373" lon="20.048006697692625"><ele>1095.0</ele><time>2026-05-04T08:32:23Z</time></trkpt><trkpt lat="42.14791879209321" lon="20.04788016086826"><ele>1095.5</ele><time>2026-05-04T08:32:24Z</time></trkpt><trkpt lat="42.14783721539586" lon="20.047756538893907"><ele>1096.0</ele><time>2026-05-04T08:32:25Z</time></trkpt><trkpt lat="42.14776062888418" lon="20.04763156480788"><ele>1096.0</ele><time>2026-05-04T08:32:26Z</time></trkpt><trkpt lat="42.147688094885744" lon="20.04749924716091"><ele>1096.0</ele><time>2026-05-04T08:32:27Z</time></trkpt><trkpt lat="42.14762555536503" lon="20.047351891643746"><ele>1096.0</ele><time>2026-05-04T08:32:28Z</time></trkpt><trkpt lat="42.14756815560059" lon="20.047203970858714"><ele>1096.0</ele><time>2026-05-04T08:32:29Z</time></trkpt><trkpt lat="42.147518339508665" lon="20.047060945773747"><ele>1098.0</ele><time>2026-05-04T08:32:30Z</time></trkpt><trkpt lat="42.14747372193995" lon="20.04690011947652"><ele>1100.0</ele><time>2026-05-04T08:32:31Z</time></trkpt><trkpt lat="42.14745117284213" lon="20.04672159451705"><ele>1102.0</ele><time>2026-05-04T08:32:32Z</time></trkpt><trkpt lat="42.14744663152758" lon="20.04654772928686"><ele>1104.0</ele><time>2026-05-04T08:32:33Z</time></trkpt><trkpt lat="42.147487703006554" lon="20.04638140383094"><ele>1105.6666666666667</ele><time>2026-05-04T08:32:34Z</time></trkpt><trkpt lat="42.14757113028119" lon="20.046217993071625"><ele>1107.3333333333335</ele><time>2026-05-04T08:32:35Z</time></trkpt><trkpt lat="42.14769357012642" lon="20.046053330736424"><ele>1109.0</ele><time>2026-05-04T08:32:36Z</time></trkpt><trkpt lat="42.147820714906814" lon="20.0458977736637"><ele>1109.6666666666667</ele><time>2026-05-04T08:32:37Z</time></trkpt><trkpt lat="42.147935293378374" lon="20.045704937718764"><ele>1110.3333333333333</ele><time>2026-05-04T08:32:38Z</time></trkpt><trkpt lat="42.148012125790835" lon="20.04549199712343"><ele>1111.0</ele><time>2026-05-04T08:32:39Z</time></trkpt><trkpt lat="42.14804932364615" lon="20.045278360206524"><ele>1111.0</ele><time>2026-05-04T08:32:40Z</time></trkpt><trkpt lat="42.148076672448944" lon="20.045058572790822"><ele>1111.0</ele><time>2026-05-04T08:32:41Z</time></trkpt><trkpt lat="42.1480946555871" lon="20.044890559630623"><ele>1111.0</ele><time>2026-05-04T08:32:42Z</time></trkpt><trkpt lat="42.148080281797085" lon="20.04476805825644"><ele>1111.0</ele><time>2026-05-04T08:32:43Z</time></trkpt><trkpt lat="42.148023902462896" lon="20.044679657541266"><ele>1116.25</ele><time>2026-05-04T08:32:44Z</time></trkpt><trkpt lat="42.14792916833257" lon="20.04458658638897"><ele>1121.5</ele><time>2026-05-04T08:32:45Z</time></trkpt><trkpt lat="42.14782200573712" lon="20.044465982590918"><ele>1126.75</ele><time>2026-05-04T08:32:46Z</time></trkpt><trkpt lat="42.14771969220766" lon="20.04434240834407"><ele>1132.0</ele><time>2026-05-04T08:32:47Z</time></trkpt><trkpt lat="42.14762740952864" lon="20.044223930581538"><ele>1133.8</ele><time>2026-05-04T08:32:48Z</time></trkpt><trkpt lat="42.14755231379866" lon="20.0441212323745"><ele>1135.6</ele><time>2026-05-04T08:32:49Z</time></trkpt><trkpt lat="42.14749631823542" lon="20.044023539670224"><ele>1137.3999999999999</ele><time>2026-05-04T08:32:50Z</time></trkpt><trkpt lat="42.14746142938751" lon="20.043929929129018"><ele>1139.2</ele><time>2026-05-04T08:32:51Z</time></trkpt><trkpt lat="42.147437152227575" lon="20.043848011539048"><ele>1141.0</ele><time>2026-05-04T08:32:52Z</time></trkpt><trkpt lat="42.147414891779874" lon="20.043675312942646"><ele>1141.0</ele><time>2026-05-04T08:32:54Z</time></trkpt><trkpt lat="42.14742198725443" lon="20.043574637312222"><ele>1141.0</ele><time>2026-05-04T08:32:55Z</time></trkpt><trkpt lat="42.14742648184243" lon="20.04347641339337"><ele>1141.0</ele><time>2026-05-04T08:32:56Z</time></trkpt><trkpt lat="42.14744275659234" lon="20.04338643416476"><ele>1141.0</ele><time>2026-05-04T08:32:57Z</time></trkpt><trkpt lat="42.147469475781676" lon="20.043290035791706"><ele>1141.0</ele><time>2026-05-04T08:32:58Z</time></trkpt><trkpt lat="42.147495574101264" lon="20.04319049249068"><ele>1141.0</ele><time>2026-05-04T08:32:59Z</time></trkpt><trkpt lat="42.147523711918076" lon="20.04308910617336"><ele>1141.1666666666665</ele><time>2026-05-04T08:33:00Z</time></trkpt><trkpt lat="42.14755052271153" lon="20.042991838009172"><ele>1141.3333333333333</ele><time>2026-05-04T08:33:01Z</time></trkpt><trkpt lat="42.14757649041894" lon="20.042893255185202"><ele>1141.5</ele><time>2026-05-04T08:33:02Z</time></trkpt><trkpt lat="42.14760287193605" lon="20.0427937852254"><ele>1141.6666666666667</ele><time>2026-05-04T08:33:03Z</time></trkpt><trkpt lat="42.147622729136316" lon="20.042689606041176"><ele>1141.8333333333335</ele><time>2026-05-04T08:33:04Z</time></trkpt><trkpt lat="42.147634260422215" lon="20.042582740164566"><ele>1142.0</ele><time>2026-05-04T08:33:05Z</time></trkpt><trkpt lat="42.147641252349835" lon="20.042471047415855"><ele>1143.2</ele><time>2026-05-04T08:33:06Z</time></trkpt><trkpt lat="42.1476318193482" lon="20.04235398397666"><ele>1144.4</ele><time>2026-05-04T08:33:07Z</time></trkpt><trkpt lat="42.147622379682105" lon="20.04223782356173"><ele>1145.6</ele><time>2026-05-04T08:33:08Z</time></trkpt><trkpt lat="42.14760925197089" lon="20.042108497791876"><ele>1146.8</ele><time>2026-05-04T08:33:09Z</time></trkpt><trkpt lat="42.14760004354721" lon="20.041970390459095"><ele>1148.0</ele><time>2026-05-04T08:33:10Z</time></trkpt><trkpt lat="42.14759036288226" lon="20.041826904366815"><ele>1148.0</ele><time>2026-05-04T08:33:11Z</time></trkpt><trkpt lat="42.14757866723536" lon="20.041691574500188"><ele>1148.0</ele><time>2026-05-04T08:33:12Z</time></trkpt><trkpt lat="42.14756040775667" lon="20.041561055278965"><ele>1148.0</ele><time>2026-05-04T08:33:13Z</time></trkpt><trkpt lat="42.147539015569194" lon="20.041430032711798"><ele>1148.0</ele><time>2026-05-04T08:33:14Z</time></trkpt><trkpt lat="42.147528196591885" lon="20.041314545917995"><ele>1148.0</ele><time>2026-05-04T08:33:15Z</time></trkpt><trkpt lat="42.14750158399126" lon="20.041198761421292"><ele>1149.4</ele><time>2026-05-04T08:33:16Z</time></trkpt><trkpt lat="42.14747685515528" lon="20.041081183320216"><ele>1150.8</ele><time>2026-05-04T08:33:17Z</time></trkpt><trkpt lat="42.14745190462774" lon="20.040965812402664"><ele>1152.2</ele><time>2026-05-04T08:33:18Z</time></trkpt><trkpt lat="42.14742980832237" lon="20.040846390813698"><ele>1153.6</ele><time>2026-05-04T08:33:19Z</time></trkpt><trkpt lat="42.14740731193292" lon="20.040724597167486"><ele>1155.0</ele><time>2026-05-04T08:33:20Z</time></trkpt><trkpt lat="42.1473820392439" lon="20.040605872133813"><ele>1153.1666666666667</ele><time>2026-05-04T08:33:21Z</time></trkpt><trkpt lat="42.14735757544526" lon="20.04048818087056"><ele>1151.3333333333333</ele><time>2026-05-04T08:33:22Z</time></trkpt><trkpt lat="42.14734277684032" lon="20.040377281094976"><ele>1149.5</ele><time>2026-05-04T08:33:23Z</time></trkpt><trkpt lat="42.14732536397796" lon="20.040269496633677"><ele>1147.6666666666665</ele><time>2026-05-04T08:33:24Z</time></trkpt><trkpt lat="42.14730851754095" lon="20.04017213697931"><ele>1145.8333333333333</ele><time>2026-05-04T08:33:25Z</time></trkpt><trkpt lat="42.14730207788726" lon="20.040081537346683"><ele>1144.0</ele><time>2026-05-04T08:33:26Z</time></trkpt><trkpt lat="42.14729744435787" lon="20.039995106594272"><ele>1144.8333333333333</ele><time>2026-05-04T08:33:27Z</time></trkpt><trkpt lat="42.1472971830136" lon="20.039909263341578"><ele>1145.6666666666665</ele><time>2026-05-04T08:33:28Z</time></trkpt><trkpt lat="42.14731178493722" lon="20.039792931706987"><ele>1146.5</ele><time>2026-05-04T08:33:30Z</time></trkpt><trkpt lat="42.14736228056314" lon="20.03974018592046"><ele>1147.3333333333333</ele><time>2026-05-04T08:33:32Z</time></trkpt><trkpt lat="42.1474436132548" lon="20.039815445713934"><ele>1148.1666666666667</ele><time>2026-05-04T08:35:24.999Z</time></trkpt><trkpt lat="42.14750462425345" lon="20.039886044818395"><ele>1149.0</ele><time>2026-05-04T08:35:25.999Z</time></trkpt><trkpt lat="42.14759834604698" lon="20.039962340277555"><ele>1151.25</ele><time>2026-05-04T08:35:26.999Z</time></trkpt><trkpt lat="42.147692072164844" lon="20.040036670112805"><ele>1153.5</ele><time>2026-05-04T08:35:27.999Z</time></trkpt><trkpt lat="42.14781278526147" lon="20.040118629359892"><ele>1155.75</ele><time>2026-05-04T08:35:28.999Z</time></trkpt><trkpt lat="42.147942909514796" lon="20.040204249745535"><ele>1158.0</ele><time>2026-05-04T08:35:29.999Z</time></trkpt><trkpt lat="42.14808590159786" lon="20.040294275945893"><ele>1151.6666666666667</ele><time>2026-05-04T08:35:30.999Z</time></trkpt><trkpt lat="42.148241985122745" lon="20.04038406124168"><ele>1145.3333333333335</ele><time>2026-05-04T08:35:31.999Z</time></trkpt><trkpt lat="42.14840359571646" lon="20.040475213341423"><ele>1139.0</ele><time>2026-05-04T08:35:32.999Z</time></trkpt><trkpt lat="42.148572776266754" lon="20.040565636083524"><ele>1139.0</ele><time>2026-05-04T08:35:33.999Z</time></trkpt><trkpt lat="42.14874138079919" lon="20.04067020572085"><ele>1139.0</ele><time>2026-05-04T08:35:34.999Z</time></trkpt><trkpt lat="42.14889127584416" lon="20.040803594313786"><ele>1139.0</ele><time>2026-05-04T08:35:35.999Z</time></trkpt><trkpt lat="42.1490163592973" lon="20.04094282414315"><ele>1141.0</ele><time>2026-05-04T08:35:36.999Z</time></trkpt><trkpt lat="42.14913776093822" lon="20.04108573527914"><ele>1143.0</ele><time>2026-05-04T08:35:37.999Z</time></trkpt><trkpt lat="42.14925264864584" lon="20.04125549808341"><ele>1145.0</ele><time>2026-05-04T08:35:38.999Z</time></trkpt><trkpt lat="42.14935896438659" lon="20.04147371335804"><ele>1148.6666666666667</ele><time>2026-05-04T08:35:39.999Z</time></trkpt><trkpt lat="42.14945773710977" lon="20.041737913678272"><ele>1152.3333333333333</ele><time>2026-05-04T08:35:40.999Z</time></trkpt><trkpt lat="42.149563735751265" lon="20.04198811075568"><ele>1156.0</ele><time>2026-05-04T08:35:41.999Z</time></trkpt><trkpt lat="42.14967497376856" lon="20.042201457023605"><ele>1156.0</ele><time>2026-05-04T08:35:42.999Z</time></trkpt><trkpt lat="42.14980501466973" lon="20.04240938297775"><ele>1156.0</ele><time>2026-05-04T08:35:43.999Z</time></trkpt><trkpt lat="42.14994787732993" lon="20.042614535368408"><ele>1156.0</ele><time>2026-05-04T08:35:44.999Z</time></trkpt><trkpt lat="42.150101280967924" lon="20.042819223772238"><ele>1155.0</ele><time>2026-05-04T08:35:45.999Z</time></trkpt><trkpt lat="42.15025670813802" lon="20.04302150321796"><ele>1154.0</ele><time>2026-05-04T08:35:46.999Z</time></trkpt><trkpt lat="42.1504134483358" lon="20.043233989006776"><ele>1153.0</ele><time>2026-05-04T08:35:47.999Z</time></trkpt><trkpt lat="42.15056535009101" lon="20.04346274977724"><ele>1141.0</ele><time>2026-05-04T08:35:48.999Z</time></trkpt><trkpt lat="42.15071773976772" lon="20.043682587960436"><ele>1129.0</ele><time>2026-05-04T08:35:49.999Z</time></trkpt><trkpt lat="42.15088234515741" lon="20.043891397462467"><ele>1117.0</ele><time>2026-05-04T08:35:50.999Z</time></trkpt><trkpt lat="42.15104046875987" lon="20.044084896682158"><ele>1123.0</ele><time>2026-05-04T08:35:51.999Z</time></trkpt><trkpt lat="42.15117934295321" lon="20.044257201751094"><ele>1129.0</ele><time>2026-05-04T08:35:52.999Z</time></trkpt><trkpt lat="42.15130077410896" lon="20.044409570531034"><ele>1135.0</ele><time>2026-05-04T08:35:53.999Z</time></trkpt><trkpt lat="42.1514182878714" lon="20.044539510225952"><ele>1125.0</ele><time>2026-05-04T08:35:54.999Z</time></trkpt><trkpt lat="42.15154457038049" lon="20.044643076268088"><ele>1115.0</ele><time>2026-05-04T08:35:55.999Z</time></trkpt><trkpt lat="42.151697063666774" lon="20.044709412346368"><ele>1105.0</ele><time>2026-05-04T08:35:56.999Z</time></trkpt><trkpt lat="42.15187190986908" lon="20.04474267431684"><ele>1105.0</ele><time>2026-05-04T08:35:57.999Z</time></trkpt><trkpt lat="42.15204834942415" lon="20.044740821848475"><ele>1105.0</ele><time>2026-05-04T08:35:58.999Z</time></trkpt><trkpt lat="42.15219978696151" lon="20.04470251946043"><ele>1105.0</ele><time>2026-05-04T08:35:59.999Z</time></trkpt><trkpt lat="42.15232198838762" lon="20.0446268754527"><ele>1102.0</ele><time>2026-05-04T08:36:00.999Z</time></trkpt><trkpt lat="42.1524217366667" lon="20.044480327752577"><ele>1099.0</ele><time>2026-05-04T08:36:01.999Z</time></trkpt><trkpt lat="42.15255230726843" lon="20.04433115995205"><ele>1096.0</ele><time>2026-05-04T08:36:02.999Z</time></trkpt><trkpt lat="42.152719570166546" lon="20.044203921456"><ele>1090.3333333333333</ele><time>2026-05-04T08:36:03.999Z</time></trkpt><trkpt lat="42.152910816124205" lon="20.0440905618351"><ele>1084.6666666666667</ele><time>2026-05-04T08:36:04.999Z</time></trkpt><trkpt lat="42.15309924276447" lon="20.044005898800407"><ele>1079.0</ele><time>2026-05-04T08:36:06Z</time></trkpt><trkpt lat="42.15328617794154" lon="20.043957294091765"><ele>1079.0</ele><time>2026-05-04T08:36:07Z</time></trkpt><trkpt lat="42.15344722219729" lon="20.04393938127643"><ele>1079.0</ele><time>2026-05-04T08:36:08Z</time></trkpt><trkpt lat="42.15359354216532" lon="20.043939247916146"><ele>1079.0</ele><time>2026-05-04T08:36:09Z</time></trkpt><trkpt lat="42.15371815310918" lon="20.04397084144838"><ele>1079.0</ele><time>2026-05-04T08:36:10Z</time></trkpt><trkpt lat="42.153819553477874" lon="20.044043628369824"><ele>1084.0</ele><time>2026-05-04T08:36:11Z</time></trkpt><trkpt lat="42.15388918068008" lon="20.044150628209152"><ele>1089.0</ele><time>2026-05-04T08:36:12Z</time></trkpt><trkpt lat="42.15393407700072" lon="20.044297368718176"><ele>1094.0</ele><time>2026-05-04T08:36:13Z</time></trkpt><trkpt lat="42.1539522970397" lon="20.0444889113671"><ele>1099.0</ele><time>2026-05-04T08:36:14Z</time></trkpt><trkpt lat="42.153957464332244" lon="20.044703838460197"><ele>1099.0</ele><time>2026-05-04T08:36:15Z</time></trkpt><trkpt lat="42.15398742083398" lon="20.044883611281616"><ele>1099.0</ele><time>2026-05-04T08:36:16Z</time></trkpt><trkpt lat="42.154060400061574" lon="20.045048836743906"><ele>1099.0</ele><time>2026-05-04T08:36:17Z</time></trkpt><trkpt lat="42.1541721732286" lon="20.045232434033814"><ele>1100.6666666666665</ele><time>2026-05-04T08:36:18Z</time></trkpt><trkpt lat="42.15429310642325" lon="20.045437479226663"><ele>1102.3333333333333</ele><time>2026-05-04T08:36:19Z</time></trkpt><trkpt lat="42.15441647165245" lon="20.045653828115455"><ele>1104.0</ele><time>2026-05-04T08:36:20Z</time></trkpt><trkpt lat="42.154547551781675" lon="20.045876513982442"><ele>1104.0</ele><time>2026-05-04T08:36:21Z</time></trkpt><trkpt lat="42.15466863891271" lon="20.046087407821283"><ele>1104.0</ele><time>2026-05-04T08:36:22Z</time></trkpt><trkpt lat="42.15477116647515" lon="20.046278122861548"><ele>1104.0</ele><time>2026-05-04T08:36:23Z</time></trkpt><trkpt lat="42.154856110734656" lon="20.046453951874817"><ele>1098.5</ele><time>2026-05-04T08:36:24Z</time></trkpt><trkpt lat="42.15491711553314" lon="20.04660490655612"><ele>1093.0</ele><time>2026-05-04T08:36:25Z</time></trkpt><trkpt lat="42.154996639458176" lon="20.046718242109606"><ele>1087.5</ele><time>2026-05-04T08:36:26Z</time></trkpt><trkpt lat="42.15511452958002" lon="20.046791875163045"><ele>1082.0</ele><time>2026-05-04T08:36:27Z</time></trkpt><trkpt lat="42.15525704929379" lon="20.046823685918117"><ele>1082.0</ele><time>2026-05-04T08:36:28Z</time></trkpt><trkpt lat="42.1554196276203" lon="20.046843826786088"><ele>1082.0</ele><time>2026-05-04T08:36:29Z</time></trkpt><trkpt lat="42.1555892012514" lon="20.046855926046458"><ele>1082.0</ele><time>2026-05-04T08:36:30Z</time></trkpt><trkpt lat="42.15576371154692" lon="20.04684873971242"><ele>1076.0</ele><time>2026-05-04T08:36:31Z</time></trkpt><trkpt lat="42.15594517852262" lon="20.046796720156912"><ele>1070.0</ele><time>2026-05-04T08:36:32Z</time></trkpt><trkpt lat="42.156136049226184" lon="20.046719231621815"><ele>1064.0</ele><time>2026-05-04T08:36:33Z</time></trkpt><trkpt lat="42.15633282576508" lon="20.046637149979095"><ele>1056.6666666666667</ele><time>2026-05-04T08:36:34Z</time></trkpt><trkpt lat="42.156525950692846" lon="20.04653125047732"><ele>1049.3333333333333</ele><time>2026-05-04T08:36:35Z</time></trkpt><trkpt lat="42.15669875445369" lon="20.046418260846032"><ele>1042.0</ele><time>2026-05-04T08:36:36Z</time></trkpt><trkpt lat="42.15684693898798" lon="20.046317753904468"><ele>1042.0</ele><time>2026-05-04T08:36:37Z</time></trkpt><trkpt lat="42.156968215918084" lon="20.04624724522832"><ele>1042.0</ele><time>2026-05-04T08:36:38Z</time></trkpt><trkpt lat="42.15707345326389" lon="20.046199583076795"><ele>1042.0</ele><time>2026-05-04T08:36:39Z</time></trkpt><trkpt lat="42.15715342738333" lon="20.046152227123844"><ele>1042.0</ele><time>2026-05-04T08:36:40Z</time></trkpt><trkpt lat="42.157202426918055" lon="20.046083369981893"><ele>1042.0</ele><time>2026-05-04T08:36:41Z</time></trkpt><trkpt lat="42.15717889363056" lon="20.04595251772678"><ele>1042.0</ele><time>2026-05-04T08:36:43Z</time></trkpt><trkpt lat="42.157073088528946" lon="20.04591324347232"><ele>1042.0</ele><time>2026-05-04T08:36:45Z</time></trkpt><trkpt lat="42.156986621809374" lon="20.045997724010956"><ele>1042.0</ele><time>2026-05-04T08:36:45.999Z</time></trkpt><trkpt lat="42.15687715663754" lon="20.046107316234334"><ele>1042.0</ele><time>2026-05-04T08:36:46.999Z</time></trkpt><trkpt lat="42.15672792820514" lon="20.046202531945937"><ele>1042.0</ele><time>2026-05-04T08:36:47.999Z</time></trkpt><trkpt lat="42.15655754903282" lon="20.046269628181808"><ele>1042.0</ele><time>2026-05-04T08:36:48.999Z</time></trkpt><trkpt lat="42.15637335234197" lon="20.046324130287445"><ele>1042.0</ele><time>2026-05-04T08:36:49.999Z</time></trkpt><trkpt lat="42.15618381728362" lon="20.046352141132072"><ele>1040.0</ele><time>2026-05-04T08:36:50.999Z</time></trkpt><trkpt lat="42.15601715713437" lon="20.04633948136535"><ele>1038.0</ele><time>2026-05-04T08:36:51.999Z</time></trkpt><trkpt lat="42.15584052693018" lon="20.046278979056083"><ele>1036.0</ele><time>2026-05-04T08:36:52.999Z</time></trkpt><trkpt lat="42.15566173486862" lon="20.04622796099592"><ele>1041.3999999999999</ele><time>2026-05-04T08:36:53.999Z</time></trkpt><trkpt lat="42.155513833520644" lon="20.0462478684278"><ele>1046.8</ele><time>2026-05-04T08:36:54.999Z</time></trkpt><trkpt lat="42.155412417080356" lon="20.046278669730288"><ele>1052.1999999999998</ele><time>2026-05-04T08:36:55.999Z</time></trkpt><trkpt lat="42.155337787902035" lon="20.046255908315214"><ele>1057.6</ele><time>2026-05-04T08:36:56.999Z</time></trkpt><trkpt lat="42.15529376589034" lon="20.04617786551761"><ele>1063.0</ele><time>2026-05-04T08:36:57.999Z</time></trkpt><trkpt lat="42.15528071402259" lon="20.04603099621259"><ele>1063.0</ele><time>2026-05-04T08:36:58.999Z</time></trkpt><trkpt lat="42.15527404208467" lon="20.045833270004554"><ele>1063.0</ele><time>2026-05-04T08:36:59.999Z</time></trkpt><trkpt lat="42.15524200804529" lon="20.045621838043928"><ele>1063.0</ele><time>2026-05-04T08:37:00.999Z</time></trkpt><trkpt lat="42.15516750270713" lon="20.045395606006963"><ele>1058.0</ele><time>2026-05-04T08:37:01.999Z</time></trkpt><trkpt lat="42.15510569169563" lon="20.04517647282225"><ele>1053.0</ele><time>2026-05-04T08:37:02.999Z</time></trkpt><trkpt lat="42.155037129136886" lon="20.044924060759428"><ele>1048.0</ele><time>2026-05-04T08:37:03.999Z</time></trkpt><trkpt lat="42.15496182207975" lon="20.044661289441066"><ele>1043.3333333333333</ele><time>2026-05-04T08:37:04.999Z</time></trkpt><trkpt lat="42.154908148536464" lon="20.04444312069695"><ele>1038.6666666666667</ele><time>2026-05-04T08:37:05.999Z</time></trkpt><trkpt lat="42.154891331804905" lon="20.04424849131334"><ele>1034.0</ele><time>2026-05-04T08:37:06.999Z</time></trkpt><trkpt lat="42.15490719719492" lon="20.044028495360777"><ele>1033.0</ele><time>2026-05-04T08:37:07.999Z</time></trkpt><trkpt lat="42.154926178167514" lon="20.043770151340322"><ele>1032.0</ele><time>2026-05-04T08:37:08.999Z</time></trkpt><trkpt lat="42.154934976898744" lon="20.043490682254735"><ele>1031.0</ele><time>2026-05-04T08:37:09.999Z</time></trkpt><trkpt lat="42.15495882254138" lon="20.04319266033586"><ele>1031.0</ele><time>2026-05-04T08:37:10.999Z</time></trkpt><trkpt lat="42.15500991595711" lon="20.042887169666912"><ele>1031.0</ele><time>2026-05-04T08:37:11.999Z</time></trkpt><trkpt lat="42.15508327510931" lon="20.042594179161338"><ele>1027.0</ele><time>2026-05-04T08:37:12.999Z</time></trkpt><trkpt lat="42.15514190520043" lon="20.042376095408866"><ele>1023.0</ele><time>2026-05-04T08:37:13.999Z</time></trkpt><trkpt lat="42.15518587042346" lon="20.042192088596543"><ele>1019.0</ele><time>2026-05-04T08:37:14.999Z</time></trkpt><trkpt lat="42.15519987225128" lon="20.041991016134336"><ele>1019.0</ele><time>2026-05-04T08:37:15.999Z</time></trkpt><trkpt lat="42.155182913471215" lon="20.041797119813335"><ele>1019.0</ele><time>2026-05-04T08:37:16.999Z</time></trkpt><trkpt lat="42.155131958065766" lon="20.04161280319546"><ele>1019.0</ele><time>2026-05-04T08:37:17.999Z</time></trkpt><trkpt lat="42.15505082565738" lon="20.041458745335582"><ele>1019.0</ele><time>2026-05-04T08:37:18.999Z</time></trkpt><trkpt lat="42.15494741830849" lon="20.041360678683517"><ele>1014.25</ele><time>2026-05-04T08:37:19.999Z</time></trkpt><trkpt lat="42.15482131463107" lon="20.041327935465834"><ele>1009.5</ele><time>2026-05-04T08:37:20.999Z</time></trkpt><trkpt lat="42.15466986401715" lon="20.041320851062643"><ele>1004.75</ele><time>2026-05-04T08:37:21.999Z</time></trkpt><trkpt lat="42.15451013442565" lon="20.041287386047422"><ele>1000.0</ele><time>2026-05-04T08:37:22.999Z</time></trkpt><trkpt lat="42.15437960159405" lon="20.041203498607366"><ele>1000.0</ele><time>2026-05-04T08:37:23.999Z</time></trkpt><trkpt lat="42.154304718892654" lon="20.041102318526217"><ele>1000.0</ele><time>2026-05-04T08:37:24.999Z</time></trkpt><trkpt lat="42.15425665590444" lon="20.040993710283367"><ele>1000.0</ele><time>2026-05-04T08:37:25.999Z</time></trkpt><trkpt lat="42.154207304633985" lon="20.040862616583855"><ele>1000.0</ele><time>2026-05-04T08:37:26.999Z</time></trkpt><trkpt lat="42.15414163345504" lon="20.04072756834627"><ele>1000.0</ele><time>2026-05-04T08:37:27.999Z</time></trkpt><trkpt lat="42.154048685774384" lon="20.04065025886338"><ele>994.4</ele><time>2026-05-04T08:37:28.999Z</time></trkpt><trkpt lat="42.153960959947625" lon="20.040609916610464"><ele>988.8</ele><time>2026-05-04T08:37:29.999Z</time></trkpt><trkpt lat="42.153949171276125" lon="20.04047877742792"><ele>983.2</ele><time>2026-05-04T08:37:31.999Z</time></trkpt><trkpt lat="42.15400843203193" lon="20.040422827458958"><ele>977.6</ele><time>2026-05-04T08:37:32.999Z</time></trkpt><trkpt lat="42.15410260808019" lon="20.040428350927556"><ele>972.0</ele><time>2026-05-04T08:37:33.999Z</time></trkpt><trkpt lat="42.15418961930075" lon="20.040502286415535"><ele>972.0</ele><time>2026-05-04T08:37:34.999Z</time></trkpt><trkpt lat="42.154278651144104" lon="20.040626993343416"><ele>972.0</ele><time>2026-05-04T08:37:35.999Z</time></trkpt><trkpt lat="42.15436781319166" lon="20.04078179065755"><ele>972.0</ele><time>2026-05-04T08:37:36.999Z</time></trkpt><trkpt lat="42.154466954932424" lon="20.040924024634652"><ele>972.0</ele><time>2026-05-04T08:37:37.999Z</time></trkpt><trkpt lat="42.15457069648768" lon="20.04101506733125"><ele>974.5</ele><time>2026-05-04T08:37:38.999Z</time></trkpt><trkpt lat="42.15469966313996" lon="20.041046998097276"><ele>977.0</ele><time>2026-05-04T08:37:39.999Z</time></trkpt><trkpt lat="42.15483756891186" lon="20.041026068760768"><ele>979.5</ele><time>2026-05-04T08:37:40.999Z</time></trkpt><trkpt lat="42.15499366109348" lon="20.04098271681785"><ele>982.0</ele><time>2026-05-04T08:37:41.999Z</time></trkpt><trkpt lat="42.15516049724523" lon="20.040945801377188"><ele>982.0</ele><time>2026-05-04T08:37:42.999Z</time></trkpt><trkpt lat="42.15530594557699" lon="20.040933987099567"><ele>982.0</ele><time>2026-05-04T08:37:43.999Z</time></trkpt><trkpt lat="42.15542333000266" lon="20.04096947114466"><ele>982.0</ele><time>2026-05-04T08:37:44.999Z</time></trkpt><trkpt lat="42.15552670028925" lon="20.041063666066805"><ele>982.0</ele><time>2026-05-04T08:37:45.999Z</time></trkpt><trkpt lat="42.15563594989571" lon="20.041208089496294"><ele>982.3333333333333</ele><time>2026-05-04T08:37:46.999Z</time></trkpt><trkpt lat="42.155739941259554" lon="20.041407719311785"><ele>982.6666666666667</ele><time>2026-05-04T08:37:47.999Z</time></trkpt><trkpt lat="42.155834923679635" lon="20.041620452516018"><ele>983.0</ele><time>2026-05-04T08:37:48.999Z</time></trkpt><trkpt lat="42.15591078314274" lon="20.041827868595465"><ele>983.0</ele><time>2026-05-04T08:37:49.999Z</time></trkpt><trkpt lat="42.15597033927714" lon="20.042007646405526"><ele>983.0</ele><time>2026-05-04T08:37:50.999Z</time></trkpt><trkpt lat="42.156009500980346" lon="20.042179607573363"><ele>983.0</ele><time>2026-05-04T08:37:51.999Z</time></trkpt><trkpt lat="42.15602127297542" lon="20.042378139454176"><ele>983.0</ele><time>2026-05-04T08:37:52.999Z</time></trkpt><trkpt lat="42.156005685236096" lon="20.042600759766444"><ele>985.0</ele><time>2026-05-04T08:37:53.999Z</time></trkpt><trkpt lat="42.15601201837692" lon="20.0428427212268"><ele>987.0</ele><time>2026-05-04T08:37:54.999Z</time></trkpt><trkpt lat="42.15605356315944" lon="20.04310111962223"><ele>989.0</ele><time>2026-05-04T08:37:55.999Z</time></trkpt><trkpt lat="42.15609234107245" lon="20.0433615145056"><ele>989.0</ele><time>2026-05-04T08:37:56.999Z</time></trkpt><trkpt lat="42.156108429129304" lon="20.043586860742543"><ele>989.0</ele><time>2026-05-04T08:37:57.999Z</time></trkpt><trkpt lat="42.15611564288733" lon="20.043767449253597"><ele>989.0</ele><time>2026-05-04T08:37:58.999Z</time></trkpt><trkpt lat="42.156139460231756" lon="20.04389813380884"><ele>989.0</ele><time>2026-05-04T08:37:59.999Z</time></trkpt><trkpt lat="42.15618353637668" lon="20.043997130734663"><ele>989.0</ele><time>2026-05-04T08:38:00.999Z</time></trkpt><trkpt lat="42.15624732331531" lon="20.044051287806106"><ele>989.0000000000001</ele><time>2026-05-04T08:38:01.999Z</time></trkpt><trkpt lat="42.1563260952596" lon="20.044038963784303"><ele>989.0000000000001</ele><time>2026-05-04T08:38:02.999Z</time></trkpt><trkpt lat="42.15640754225038" lon="20.043983581241314"><ele>989.0</ele><time>2026-05-04T08:38:03.999Z</time></trkpt><trkpt lat="42.15652177339212" lon="20.04387489286234"><ele>989.0</ele><time>2026-05-04T08:38:04.999Z</time></trkpt><trkpt lat="42.1566644279306" lon="20.043770098635566"><ele>977.6666666666667</ele><time>2026-05-04T08:38:05.999Z</time></trkpt><trkpt lat="42.15683238868505" lon="20.043676648298636"><ele>966.3333333333333</ele><time>2026-05-04T08:38:06.999Z</time></trkpt><trkpt lat="42.1570138277436" lon="20.043590166214756"><ele>955.0</ele><time>2026-05-04T08:38:07.999Z</time></trkpt><trkpt lat="42.15720331890361" lon="20.043517823578338"><ele>956.3333333333333</ele><time>2026-05-04T08:38:08.999Z</time></trkpt><trkpt lat="42.15739630493265" lon="20.04343698788896"><ele>957.6666666666667</ele><time>2026-05-04T08:38:09.999Z</time></trkpt><trkpt lat="42.15756820481293" lon="20.04334541439702"><ele>959.0</ele><time>2026-05-04T08:38:10.999Z</time></trkpt><trkpt lat="42.1577037007346" lon="20.04325840449552"><ele>959.0</ele><time>2026-05-04T08:38:12Z</time></trkpt><trkpt lat="42.15780450609352" lon="20.043212787436516"><ele>959.0000000000001</ele><time>2026-05-04T08:38:13Z</time></trkpt><trkpt lat="42.15787941609535" lon="20.043215233660067"><ele>959.0000000000001</ele><time>2026-05-04T08:38:14Z</time></trkpt><trkpt lat="42.1579400602334" lon="20.04326781573219"><ele>959.0</ele><time>2026-05-04T08:38:15Z</time></trkpt><trkpt lat="42.15798611403647" lon="20.043380653359915"><ele>959.0</ele><time>2026-05-04T08:38:16Z</time></trkpt><trkpt lat="42.158023837237586" lon="20.0435553037475"><ele>959.0</ele><time>2026-05-04T08:38:17Z</time></trkpt><trkpt lat="42.158079960986825" lon="20.043752461210723"><ele>959.0</ele><time>2026-05-04T08:38:18Z</time></trkpt><trkpt lat="42.158156353987835" lon="20.043973291017583"><ele>959.0</ele><time>2026-05-04T08:38:19Z</time></trkpt><trkpt lat="42.15824547753832" lon="20.04420102893415"><ele>961.3333333333334</ele><time>2026-05-04T08:38:20Z</time></trkpt><trkpt lat="42.158345962865276" lon="20.044440409188503"><ele>963.6666666666667</ele><time>2026-05-04T08:38:21Z</time></trkpt><trkpt lat="42.15844662486068" lon="20.0446779822061"><ele>966.0</ele><time>2026-05-04T08:38:22Z</time></trkpt><trkpt lat="42.15853630400375" lon="20.044908634252632"><ele>971.0</ele><time>2026-05-04T08:38:23Z</time></trkpt><trkpt lat="42.15858887087496" lon="20.045116079344332"><ele>976.0</ele><time>2026-05-04T08:38:24Z</time></trkpt><trkpt lat="42.15862238877007" lon="20.04534242478169"><ele>981.0</ele><time>2026-05-04T08:38:25Z</time></trkpt><trkpt lat="42.15863839121206" lon="20.04559326684637"><ele>984.6666666666667</ele><time>2026-05-04T08:38:26Z</time></trkpt><trkpt lat="42.15865606348892" lon="20.045854381133225"><ele>988.3333333333334</ele><time>2026-05-04T08:38:27Z</time></trkpt><trkpt lat="42.15868138546891" lon="20.046113046361235"><ele>992.0</ele><time>2026-05-04T08:38:28Z</time></trkpt><trkpt lat="42.15871908436485" lon="20.046371184234488"><ele>992.0</ele><time>2026-05-04T08:38:29Z</time></trkpt><trkpt lat="42.15876066446792" lon="20.046610086190082"><ele>992.0</ele><time>2026-05-04T08:38:30Z</time></trkpt><trkpt lat="42.158782174067596" lon="20.04679430828915"><ele>992.0</ele><time>2026-05-04T08:38:31Z</time></trkpt><trkpt lat="42.158775696609716" lon="20.046944621591063"><ele>992.0</ele><time>2026-05-04T08:38:32Z</time></trkpt><trkpt lat="42.15872987021348" lon="20.04708814180774"><ele>992.0</ele><time>2026-05-04T08:38:33Z</time></trkpt><trkpt lat="42.158644364424994" lon="20.0472293627357"><ele>992.0</ele><time>2026-05-04T08:38:34Z</time></trkpt><trkpt lat="42.15855023069507" lon="20.047388351107255"><ele>992.0</ele><time>2026-05-04T08:38:35Z</time></trkpt><trkpt lat="42.15849783184545" lon="20.0475772784653"><ele>992.0</ele><time>2026-05-04T08:38:36Z</time></trkpt><trkpt lat="42.158445398016426" lon="20.047789438964607"><ele>992.0</ele><time>2026-05-04T08:38:37Z</time></trkpt><trkpt lat="42.15835082147706" lon="20.048015253415688"><ele>992.0</ele><time>2026-05-04T08:38:38Z</time></trkpt><trkpt lat="42.15823713636964" lon="20.048248885135962"><ele>992.0</ele><time>2026-05-04T08:38:39Z</time></trkpt><trkpt lat="42.158132825928426" lon="20.048409478274177"><ele>989.3333333333334</ele><time>2026-05-04T08:38:40Z</time></trkpt><trkpt lat="42.15805249156997" lon="20.048502561295134"><ele>986.6666666666667</ele><time>2026-05-04T08:38:41Z</time></trkpt><trkpt lat="42.15801127717504" lon="20.048586411844084"><ele>984.0</ele><time>2026-05-04T08:38:42Z</time></trkpt><trkpt lat="42.15801488610243" lon="20.04868118524327"><ele>981.3333333333333</ele><time>2026-05-04T08:38:43Z</time></trkpt><trkpt lat="42.15806254105009" lon="20.048756887800195"><ele>978.6666666666666</ele><time>2026-05-04T08:38:44Z</time></trkpt><trkpt lat="42.15814865380125" lon="20.04879680718899"><ele>976.0</ele><time>2026-05-04T08:38:45Z</time></trkpt><trkpt lat="42.158274350326735" lon="20.04883324960377"><ele>976.0</ele><time>2026-05-04T08:38:46Z</time></trkpt><trkpt lat="42.15841441714819" lon="20.04885529822904"><ele>976.0</ele><time>2026-05-04T08:38:47Z</time></trkpt><trkpt lat="42.15855830694442" lon="20.048829726580394"><ele>976.0</ele><time>2026-05-04T08:38:48Z</time></trkpt><trkpt lat="42.158712784587465" lon="20.04875764081113"><ele>976.0</ele><time>2026-05-04T08:38:49Z</time></trkpt><trkpt lat="42.15885020479964" lon="20.048722754559435"><ele>976.0</ele><time>2026-05-04T08:38:50Z</time></trkpt><trkpt lat="42.15897434684155" lon="20.04876334276242"><ele>976.0</ele><time>2026-05-04T08:38:51Z</time></trkpt><trkpt lat="42.15910152275995" lon="20.048843066638625"><ele>976.0</ele><time>2026-05-04T08:38:52Z</time></trkpt><trkpt lat="42.15921058990171" lon="20.048870145185198"><ele>970.0</ele><time>2026-05-04T08:38:53Z</time></trkpt><trkpt lat="42.15931550260472" lon="20.048808972729802"><ele>964.0</ele><time>2026-05-04T08:38:54Z</time></trkpt><trkpt lat="42.15945360459737" lon="20.04868955577682"><ele>958.0</ele><time>2026-05-04T08:38:55Z</time></trkpt><trkpt lat="42.159617984269836" lon="20.048582092097465"><ele>958.0</ele><time>2026-05-04T08:38:56Z</time></trkpt><trkpt lat="42.159807421644125" lon="20.048493377787505"><ele>958.0</ele><time>2026-05-04T08:38:57Z</time></trkpt><trkpt lat="42.16000563385485" lon="20.04842735331296"><ele>958.0</ele><time>2026-05-04T08:38:58Z</time></trkpt><trkpt lat="42.16017461359728" lon="20.04840175423506"><ele>958.5</ele><time>2026-05-04T08:38:59Z</time></trkpt><trkpt lat="42.16031482468796" lon="20.04842558794482"><ele>959.0</ele><time>2026-05-04T08:39:00Z</time></trkpt><trkpt lat="42.1604328668586" lon="20.04846939055781"><ele>959.5</ele><time>2026-05-04T08:39:01Z</time></trkpt><trkpt lat="42.1605354474131" lon="20.048454987643733"><ele>960.0</ele><time>2026-05-04T08:39:02Z</time></trkpt><trkpt lat="42.16064808944163" lon="20.048356574398287"><ele>955.6666666666667</ele><time>2026-05-04T08:39:03Z</time></trkpt><trkpt lat="42.1607823966682" lon="20.048220567407427"><ele>951.3333333333334</ele><time>2026-05-04T08:39:04Z</time></trkpt><trkpt lat="42.16092124582194" lon="20.048076566919164"><ele>947.0</ele><time>2026-05-04T08:39:05Z</time></trkpt><trkpt lat="42.16105832627263" lon="20.047943687467754"><ele>947.0</ele><time>2026-05-04T08:39:06Z</time></trkpt><trkpt lat="42.161172624842166" lon="20.04786950713756"><ele>947.0</ele><time>2026-05-04T08:39:07Z</time></trkpt><trkpt lat="42.16126015128559" lon="20.047854299594754"><ele>947.0</ele><time>2026-05-04T08:39:08Z</time></trkpt><trkpt lat="42.16132965609575" lon="20.04789632248939"><ele>947.0</ele><time>2026-05-04T08:39:09Z</time></trkpt><trkpt lat="42.161379959245174" lon="20.04799432118663"><ele>947.0</ele><time>2026-05-04T08:39:10Z</time></trkpt><trkpt lat="42.16141982142618" lon="20.048127854333618"><ele>947.0</ele><time>2026-05-04T08:39:11Z</time></trkpt><trkpt lat="42.16147574734499" lon="20.04829224223966"><ele>947.0</ele><time>2026-05-04T08:39:12Z</time></trkpt><trkpt lat="42.161548890016455" lon="20.048460257497386"><ele>947.0</ele><time>2026-05-04T08:39:13Z</time></trkpt><trkpt lat="42.161636216177996" lon="20.048610078532985"><ele>947.0</ele><time>2026-05-04T08:39:14Z</time></trkpt><trkpt lat="42.161728529452105" lon="20.048764476909856"><ele>952.6666666666667</ele><time>2026-05-04T08:39:15Z</time></trkpt><trkpt lat="42.16182015497712" lon="20.048937523924128"><ele>958.3333333333333</ele><time>2026-05-04T08:39:16Z</time></trkpt><trkpt lat="42.16190944145374" lon="20.04912110337073"><ele>964.0</ele><time>2026-05-04T08:39:17Z</time></trkpt><trkpt lat="42.16197758615195" lon="20.04930287942867"><ele>970.75</ele><time>2026-05-04T08:39:18Z</time></trkpt><trkpt lat="42.16201111074528" lon="20.049467069237537"><ele>977.5</ele><time>2026-05-04T08:39:19Z</time></trkpt><trkpt lat="42.16201993616625" lon="20.049650985294065"><ele>984.25</ele><time>2026-05-04T08:39:20Z</time></trkpt><trkpt lat="42.162029087047" lon="20.049857553900146"><ele>991.0</ele><time>2026-05-04T08:39:21Z</time></trkpt><trkpt lat="42.16205941906347" lon="20.050072951701186"><ele>991.0</ele><time>2026-05-04T08:39:22Z</time></trkpt><trkpt lat="42.16211819768836" lon="20.050252180028647"><ele>991.0</ele><time>2026-05-04T08:39:23Z</time></trkpt><trkpt lat="42.16219790055671" lon="20.050389146661633"><ele>991.0</ele><time>2026-05-04T08:39:23.999Z</time></trkpt><trkpt lat="42.162293907521395" lon="20.050490180995816"><ele>991.0</ele><time>2026-05-04T08:39:24.999Z</time></trkpt><trkpt lat="42.162408084481406" lon="20.050578700300406"><ele>991.0</ele><time>2026-05-04T08:39:25.999Z</time></trkpt><trkpt lat="42.162497877013294" lon="20.050696560940583"><ele>990.9999999999999</ele><time>2026-05-04T08:39:26.999Z</time></trkpt><trkpt lat="42.16258361714094" lon="20.050849594489883"><ele>990.9999999999999</ele><time>2026-05-04T08:39:27.999Z</time></trkpt><trkpt lat="42.16263393763603" lon="20.050914849921654"><ele>991.0</ele><time>2026-05-04T08:39:28.999Z</time></trkpt><trkpt lat="42.16269798627259" lon="20.050906234544556"><ele>991.0</ele><time>2026-05-04T08:39:29.999Z</time></trkpt><trkpt lat="42.162766701264616" lon="20.05082940918954"><ele>991.0</ele><time>2026-05-04T08:39:30.999Z</time></trkpt><trkpt lat="42.162808956436514" lon="20.050706493739536"><ele>991.0</ele><time>2026-05-04T08:39:31.999Z</time></trkpt><trkpt lat="42.16279777881571" lon="20.05055791007537"><ele>991.0</ele><time>2026-05-04T08:39:32.999Z</time></trkpt><trkpt lat="42.16273940425493" lon="20.05039557140421"><ele>991.0</ele><time>2026-05-04T08:39:33.999Z</time></trkpt><trkpt lat="42.16264660865337" lon="20.05024461928336"><ele>991.0</ele><time>2026-05-04T08:39:34.999Z</time></trkpt><trkpt lat="42.16256166137643" lon="20.050104579018434"><ele>991.0</ele><time>2026-05-04T08:39:35.999Z</time></trkpt><trkpt lat="42.16253302503" lon="20.049953560729666"><ele>991.0</ele><time>2026-05-04T08:39:36.999Z</time></trkpt><trkpt lat="42.16254877297629" lon="20.04978887276029"><ele>991.0</ele><time>2026-05-04T08:39:37.999Z</time></trkpt><trkpt lat="42.16259410070243" lon="20.049595912640285"><ele>989.0</ele><time>2026-05-04T08:39:38.999Z</time></trkpt><trkpt lat="42.1626409647799" lon="20.049371624925353"><ele>987.0</ele><time>2026-05-04T08:39:39.999Z</time></trkpt><trkpt lat="42.16265953586375" lon="20.04911533741151"><ele>985.0</ele><time>2026-05-04T08:39:40.999Z</time></trkpt><trkpt lat="42.16263443669759" lon="20.048845508550208"><ele>981.0</ele><time>2026-05-04T08:39:41.999Z</time></trkpt><trkpt lat="42.16259388457014" lon="20.04858085380724"><ele>977.0</ele><time>2026-05-04T08:39:42.999Z</time></trkpt><trkpt lat="42.16256281556476" lon="20.048376557081195"><ele>973.0</ele><time>2026-05-04T08:39:43.999Z</time></trkpt><trkpt lat="42.162578666062096" lon="20.048228175912023"><ele>970.0</ele><time>2026-05-04T08:39:44.999Z</time></trkpt><trkpt lat="42.162645035376926" lon="20.048101890869916"><ele>967.0</ele><time>2026-05-04T08:39:45.999Z</time></trkpt><trkpt lat="42.16275264444476" lon="20.047967784715453"><ele>964.0</ele><time>2026-05-04T08:39:46.999Z</time></trkpt><trkpt lat="42.16288561392271" lon="20.047820067531745"><ele>961.0</ele><time>2026-05-04T08:39:47.999Z</time></trkpt><trkpt lat="42.163000259101466" lon="20.047642848478226"><ele>959.6666666666666</ele><time>2026-05-04T08:39:48.999Z</time></trkpt><trkpt lat="42.163083252344954" lon="20.04739669334056"><ele>958.3333333333333</ele><time>2026-05-04T08:39:49.999Z</time></trkpt><trkpt lat="42.163161120623386" lon="20.047158550495126"><ele>957.0</ele><time>2026-05-04T08:39:50.999Z</time></trkpt><trkpt lat="42.1632226873942" lon="20.046903522502227"><ele>974.0</ele><time>2026-05-04T08:39:51.999Z</time></trkpt><trkpt lat="42.163249175259985" lon="20.046662399405392"><ele>991.0</ele><time>2026-05-04T08:39:52.999Z</time></trkpt><trkpt lat="42.163236456801236" lon="20.046419814507473"><ele>1008.0</ele><time>2026-05-04T08:39:53.999Z</time></trkpt><trkpt lat="42.16319756710257" lon="20.046153543567605"><ele>1003.3333333333333</ele><time>2026-05-04T08:39:54.999Z</time></trkpt><trkpt lat="42.1631533941894" lon="20.04589204769829"><ele>998.6666666666666</ele><time>2026-05-04T08:39:55.999Z</time></trkpt><trkpt lat="42.16308775518305" lon="20.045637894582917"><ele>994.0</ele><time>2026-05-04T08:39:56.999Z</time></trkpt><trkpt lat="42.16298804810448" lon="20.045408945312552"><ele>994.0</ele><time>2026-05-04T08:39:57.999Z</time></trkpt><trkpt lat="42.16286744227025" lon="20.045186469080754"><ele>994.0</ele><time>2026-05-04T08:39:58.999Z</time></trkpt><trkpt lat="42.16272954312607" lon="20.04497514588275"><ele>994.0</ele><time>2026-05-04T08:39:59.999Z</time></trkpt><trkpt lat="42.16256938306437" lon="20.044786538649067"><ele>997.75</ele><time>2026-05-04T08:40:00.999Z</time></trkpt><trkpt lat="42.16241803695928" lon="20.04462841354926"><ele>1001.5</ele><time>2026-05-04T08:40:01.999Z</time></trkpt><trkpt lat="42.16231009197591" lon="20.04450893876978"><ele>1005.25</ele><time>2026-05-04T08:40:02.999Z</time></trkpt><trkpt lat="42.16224329434386" lon="20.044389101836195"><ele>1009.0</ele><time>2026-05-04T08:40:03.999Z</time></trkpt><trkpt lat="42.16219681629444" lon="20.044250095271188"><ele>998.25</ele><time>2026-05-04T08:40:04.999Z</time></trkpt><trkpt lat="42.16217844285431" lon="20.044093491453435"><ele>987.5</ele><time>2026-05-04T08:40:05.999Z</time></trkpt><trkpt lat="42.162190413354196" lon="20.043932017195438"><ele>976.75</ele><time>2026-05-04T08:40:06.999Z</time></trkpt><trkpt lat="42.162230370338094" lon="20.043783915926348"><ele>966.0</ele><time>2026-05-04T08:40:07.999Z</time></trkpt><trkpt lat="42.16230716457995" lon="20.043668075506876"><ele>973.25</ele><time>2026-05-04T08:40:08.999Z</time></trkpt><trkpt lat="42.16241597784292" lon="20.04357147936434"><ele>980.5</ele><time>2026-05-04T08:40:09.999Z</time></trkpt><trkpt lat="42.16255443140861" lon="20.04349362758832"><ele>987.75</ele><time>2026-05-04T08:40:10.999Z</time></trkpt><trkpt lat="42.16270854226632" lon="20.04344530867374"><ele>995.0</ele><time>2026-05-04T08:40:11.999Z</time></trkpt><trkpt lat="42.16287739946729" lon="20.04343707925357"><ele>995.0</ele><time>2026-05-04T08:40:12.999Z</time></trkpt><trkpt lat="42.16303510009404" lon="20.04341916725804"><ele>995.0</ele><time>2026-05-04T08:40:13.999Z</time></trkpt><trkpt lat="42.16322924896881" lon="20.043473165619275"><ele>995.0</ele><time>2026-05-04T08:40:14.999Z</time></trkpt><trkpt lat="42.163429881900335" lon="20.043546446516117"><ele>992.5</ele><time>2026-05-04T08:40:15.999Z</time></trkpt><trkpt lat="42.16364868747193" lon="20.043627100035962"><ele>990.0</ele><time>2026-05-04T08:40:16.999Z</time></trkpt><trkpt lat="42.163874325150054" lon="20.04371973748173"><ele>981.0</ele><time>2026-05-04T08:40:18Z</time></trkpt><trkpt lat="42.16410434268998" lon="20.043813136359717"><ele>972.0</ele><time>2026-05-04T08:40:19Z</time></trkpt><trkpt lat="42.16431313719396" lon="20.043869069419593"><ele>972.0</ele><time>2026-05-04T08:40:20Z</time></trkpt><trkpt lat="42.164506253424875" lon="20.04387980624105"><ele>972.0</ele><time>2026-05-04T08:40:21Z</time></trkpt><trkpt lat="42.16469107442691" lon="20.0438452291118"><ele>972.0</ele><time>2026-05-04T08:40:22Z</time></trkpt><trkpt lat="42.16487711988982" lon="20.043794096777972"><ele>971.3333333333333</ele><time>2026-05-04T08:40:23Z</time></trkpt><trkpt lat="42.165079117995404" lon="20.04377473056329"><ele>970.6666666666666</ele><time>2026-05-04T08:40:24Z</time></trkpt><trkpt lat="42.1653017660998" lon="20.043765338449095"><ele>970.0</ele><time>2026-05-04T08:40:25Z</time></trkpt><trkpt lat="42.16553274718587" lon="20.043733753569377"><ele>969.0</ele><time>2026-05-04T08:40:26Z</time></trkpt><trkpt lat="42.165730691565656" lon="20.043702898706854"><ele>968.0</ele><time>2026-05-04T08:40:27Z</time></trkpt><trkpt lat="42.1658773980486" lon="20.043700874864705"><ele>967.0</ele><time>2026-05-04T08:40:28Z</time></trkpt><trkpt lat="42.16599732111364" lon="20.043728384863563"><ele>967.0</ele><time>2026-05-04T08:40:29Z</time></trkpt><trkpt lat="42.166111830542555" lon="20.04379828476429"><ele>967.0</ele><time>2026-05-04T08:40:30Z</time></trkpt><trkpt lat="42.166199137733194" lon="20.043894181550854"><ele>967.0</ele><time>2026-05-04T08:40:31Z</time></trkpt><trkpt lat="42.1662642126649" lon="20.04396554497741"><ele>967.0</ele><time>2026-05-04T08:40:32Z</time></trkpt><trkpt lat="42.166397883751976" lon="20.043887051114233"><ele>967.0</ele><time>2026-05-04T08:40:34Z</time></trkpt><trkpt lat="42.16649416155374" lon="20.043764261041446"><ele>967.0</ele><time>2026-05-04T08:40:35Z</time></trkpt><trkpt lat="42.16661282478276" lon="20.043629565935074"><ele>967.0</ele><time>2026-05-04T08:40:36Z</time></trkpt><trkpt lat="42.166746490459474" lon="20.043473921180087"><ele>972.6666666666666</ele><time>2026-05-04T08:40:37Z</time></trkpt><trkpt lat="42.166884532046495" lon="20.04329841514146"><ele>978.3333333333333</ele><time>2026-05-04T08:40:38Z</time></trkpt><trkpt lat="42.16703101118222" lon="20.04311866415417"><ele>984.0</ele><time>2026-05-04T08:40:39Z</time></trkpt><trkpt lat="42.16716825753656" lon="20.04296953361461"><ele>978.75</ele><time>2026-05-04T08:40:40Z</time></trkpt><trkpt lat="42.16727615812092" lon="20.04288714475098"><ele>973.5</ele><time>2026-05-04T08:40:41Z</time></trkpt><trkpt lat="42.167378999011994" lon="20.042842655589546"><ele>968.25</ele><time>2026-05-04T08:40:42Z</time></trkpt><trkpt lat="42.16752183508831" lon="20.042839864751294"><ele>963.0</ele><time>2026-05-04T08:40:43Z</time></trkpt><trkpt lat="42.16767029598431" lon="20.0428597598724"><ele>963.0</ele><time>2026-05-04T08:40:44Z</time></trkpt><trkpt lat="42.167752477756665" lon="20.042903425810508"><ele>963.0</ele><time>2026-05-04T08:40:45Z</time></trkpt><trkpt lat="42.16779234552097" lon="20.04297619104845"><ele>963.0</ele><time>2026-05-04T08:40:46Z</time></trkpt><trkpt lat="42.167819824611335" lon="20.043108548280596"><ele>963.0</ele><time>2026-05-04T08:40:47Z</time></trkpt><trkpt lat="42.16782410221312" lon="20.04328450031127"><ele>963.0</ele><time>2026-05-04T08:40:48Z</time></trkpt><trkpt lat="42.16782316281027" lon="20.043499656697996"><ele>971.0</ele><time>2026-05-04T08:40:49Z</time></trkpt><trkpt lat="42.16787636481892" lon="20.043713215887802"><ele>979.0</ele><time>2026-05-04T08:40:50Z</time></trkpt><trkpt lat="42.1679655973741" lon="20.043848497690544"><ele>987.0</ele><time>2026-05-04T08:40:51Z</time></trkpt><trkpt lat="42.16806663966765" lon="20.043919871227533"><ele>995.0</ele><time>2026-05-04T08:40:52Z</time></trkpt><trkpt lat="42.16815659153142" lon="20.043935604358925"><ele>992.2</ele><time>2026-05-04T08:40:53Z</time></trkpt><trkpt lat="42.168224490428635" lon="20.043886358500842"><ele>989.4</ele><time>2026-05-04T08:40:54Z</time></trkpt><trkpt lat="42.1682604629509" lon="20.043780821680567"><ele>986.5999999999999</ele><time>2026-05-04T08:40:55Z</time></trkpt><trkpt lat="42.16831126205033" lon="20.043633349810754"><ele>983.8</ele><time>2026-05-04T08:40:56Z</time></trkpt><trkpt lat="42.16838704176104" lon="20.043463452103392"><ele>981.0</ele><time>2026-05-04T08:40:57Z</time></trkpt><trkpt lat="42.16852465450316" lon="20.04338087913737"><ele>981.0</ele><time>2026-05-04T08:40:58Z</time></trkpt><trkpt lat="42.16870993046518" lon="20.043305138562843"><ele>981.0</ele><time>2026-05-04T08:40:59Z</time></trkpt><trkpt lat="42.1689029786434" lon="20.043207616619114"><ele>981.0</ele><time>2026-05-04T08:41:00Z</time></trkpt><trkpt lat="42.16910058983024" lon="20.04308785698516"><ele>973.0</ele><time>2026-05-04T08:41:01Z</time></trkpt><trkpt lat="42.169310449048275" lon="20.042978377725845"><ele>965.0</ele><time>2026-05-04T08:41:02Z</time></trkpt><trkpt lat="42.169535956267005" lon="20.0428960253402"><ele>965.0</ele><time>2026-05-04T08:41:03Z</time></trkpt><trkpt lat="42.16972501920862" lon="20.042852751809708"><ele>965.0</ele><time>2026-05-04T08:41:04Z</time></trkpt><trkpt lat="42.169876066211096" lon="20.042832912488105"><ele>965.0</ele><time>2026-05-04T08:41:05Z</time></trkpt><trkpt lat="42.16999576808049" lon="20.042797746951265"><ele>967.75</ele><time>2026-05-04T08:41:06Z</time></trkpt><trkpt lat="42.17009598994235" lon="20.042723214174504"><ele>970.5</ele><time>2026-05-04T08:41:07Z</time></trkpt><trkpt lat="42.1702024365804" lon="20.042605481816654"><ele>973.25</ele><time>2026-05-04T08:41:08Z</time></trkpt><trkpt lat="42.170345469694794" lon="20.042474050831984"><ele>976.0</ele><time>2026-05-04T08:41:09Z</time></trkpt><trkpt lat="42.17051911873859" lon="20.0423477131784"><ele>979.0</ele><time>2026-05-04T08:41:10Z</time></trkpt><trkpt lat="42.17069707931172" lon="20.042215416350214"><ele>982.0</ele><time>2026-05-04T08:41:11Z</time></trkpt><trkpt lat="42.1708428020518" lon="20.042050990470706"><ele>985.0</ele><time>2026-05-04T08:41:12Z</time></trkpt><trkpt lat="42.17094489948263" lon="20.041896196487503"><ele>985.0</ele><time>2026-05-04T08:41:13Z</time></trkpt><trkpt lat="42.171009509508686" lon="20.04173912899889"><ele>985.0</ele><time>2026-05-04T08:41:14Z</time></trkpt><trkpt lat="42.17105271206717" lon="20.041566819277886"><ele>985.0</ele><time>2026-05-04T08:41:15Z</time></trkpt><trkpt lat="42.171081056597956" lon="20.041418659682094"><ele>985.0</ele><time>2026-05-04T08:41:16Z</time></trkpt><trkpt lat="42.17108649123389" lon="20.04131225126787"><ele>988.8</ele><time>2026-05-04T08:41:17Z</time></trkpt><trkpt lat="42.17104847120039" lon="20.04123249761696"><ele>992.6</ele><time>2026-05-04T08:41:18Z</time></trkpt><trkpt lat="42.170975752437386" lon="20.041193559530207"><ele>996.4000000000001</ele><time>2026-05-04T08:41:19Z</time></trkpt><trkpt lat="42.17088194921332" lon="20.04121399143816"><ele>1000.2</ele><time>2026-05-04T08:41:20Z</time></trkpt><trkpt lat="42.170784750022875" lon="20.041296349625192"><ele>1004.0</ele><time>2026-05-04T08:41:21Z</time></trkpt><trkpt lat="42.17067761326047" lon="20.041431400912224"><ele>1004.0</ele><time>2026-05-04T08:41:22Z</time></trkpt><trkpt lat="42.170562531673944" lon="20.041556533385233"><ele>1004.0</ele><time>2026-05-04T08:41:23Z</time></trkpt><trkpt lat="42.17045630008027" lon="20.041622361468555"><ele>1004.0</ele><time>2026-05-04T08:41:24Z</time></trkpt><trkpt lat="42.170363414818056" lon="20.04161778155363"><ele>1004.0</ele><time>2026-05-04T08:41:25Z</time></trkpt><trkpt lat="42.17026291667159" lon="20.04157012671077"><ele>1004.0</ele><time>2026-05-04T08:41:26Z</time></trkpt><trkpt lat="42.1701535006444" lon="20.041490699875414"><ele>1004.0</ele><time>2026-05-04T08:41:27Z</time></trkpt><trkpt lat="42.17003957046763" lon="20.04139092268698"><ele>1004.0</ele><time>2026-05-04T08:41:28Z</time></trkpt><trkpt lat="42.16990328383973" lon="20.041279287770124"><ele>1004.0</ele><time>2026-05-04T08:41:29Z</time></trkpt><trkpt lat="42.169750582468616" lon="20.041155364220785"><ele>1004.6666666666667</ele><time>2026-05-04T08:41:30Z</time></trkpt><trkpt lat="42.1695929816766" lon="20.041017999232313"><ele>1005.3333333333333</ele><time>2026-05-04T08:41:31Z</time></trkpt><trkpt lat="42.169444899365104" lon="20.040861461667802"><ele>1006.0</ele><time>2026-05-04T08:41:32Z</time></trkpt><trkpt lat="42.169312682221964" lon="20.040681960604612"><ele>1006.0</ele><time>2026-05-04T08:41:33Z</time></trkpt><trkpt lat="42.16918661578806" lon="20.04046907741592"><ele>1006.0</ele><time>2026-05-04T08:41:34Z</time></trkpt><trkpt lat="42.16905296937008" lon="20.040238946304225"><ele>1006.0</ele><time>2026-05-04T08:41:35Z</time></trkpt><trkpt lat="42.16889463307771" lon="20.040002368597857"><ele>1006.5</ele><time>2026-05-04T08:41:36Z</time></trkpt><trkpt lat="42.16871173175781" lon="20.039767604587265"><ele>1007.0</ele><time>2026-05-04T08:41:37Z</time></trkpt><trkpt lat="42.168510808166324" lon="20.03954865510939"><ele>1007.0</ele><time>2026-05-04T08:41:38Z</time></trkpt><trkpt lat="42.1682916764614" lon="20.03935100128434"><ele>1007.0</ele><time>2026-05-04T08:41:39Z</time></trkpt><trkpt lat="42.16805603185448" lon="20.039165888842607"><ele>1011.0</ele><time>2026-05-04T08:41:40Z</time></trkpt><trkpt lat="42.16780474704677" lon="20.038985353797308"><ele>1015.0</ele><time>2026-05-04T08:41:41Z</time></trkpt><trkpt lat="42.16755944035226" lon="20.038836104306082"><ele>1006.3333333333333</ele><time>2026-05-04T08:41:42Z</time></trkpt><trkpt lat="42.16734604209686" lon="20.038735319016283"><ele>997.6666666666667</ele><time>2026-05-04T08:41:43Z</time></trkpt><trkpt lat="42.16718744924599" lon="20.038670636617994"><ele>989.0</ele><time>2026-05-04T08:41:44Z</time></trkpt><trkpt lat="42.16709913233984" lon="20.038619187252106"><ele>989.0</ele><time>2026-05-04T08:41:45Z</time></trkpt><trkpt lat="42.16703956581871" lon="20.038533508378297"><ele>989.0000000000001</ele><time>2026-05-04T08:41:46Z</time></trkpt><trkpt lat="42.16701622575408" lon="20.03841519412988"><ele>989.0000000000001</ele><time>2026-05-04T08:41:47Z</time></trkpt><trkpt lat="42.1670480007068" lon="20.03828024672816"><ele>989.0</ele><time>2026-05-04T08:41:48Z</time></trkpt><trkpt lat="42.16711089486043" lon="20.038101543597058"><ele>989.0</ele><time>2026-05-04T08:41:49Z</time></trkpt><trkpt lat="42.16719013988344" lon="20.0378998386667"><ele>988.3333333333334</ele><time>2026-05-04T08:41:50Z</time></trkpt><trkpt lat="42.16727913626452" lon="20.037689178019264"><ele>987.6666666666667</ele><time>2026-05-04T08:41:51Z</time></trkpt><trkpt lat="42.16735618124449" lon="20.0374759036128"><ele>987.0</ele><time>2026-05-04T08:41:52Z</time></trkpt><trkpt lat="42.16742484721941" lon="20.03729517202685"><ele>987.0</ele><time>2026-05-04T08:41:53Z</time></trkpt><trkpt lat="42.16751173575444" lon="20.03717483092351"><ele>987.0</ele><time>2026-05-04T08:41:54Z</time></trkpt><trkpt lat="42.16763977805285" lon="20.037082600124016"><ele>987.0</ele><time>2026-05-04T08:41:55Z</time></trkpt><trkpt lat="42.16780222476935" lon="20.036988273524855"><ele>987.0</ele><time>2026-05-04T08:41:56Z</time></trkpt><trkpt lat="42.16797213161295" lon="20.036864180521842"><ele>987.0</ele><time>2026-05-04T08:41:57Z</time></trkpt><trkpt lat="42.16813015669092" lon="20.036714389714472"><ele>987.0</ele><time>2026-05-04T08:41:58Z</time></trkpt><trkpt lat="42.16826189659593" lon="20.036593520808587"><ele>987.0</ele><time>2026-05-04T08:41:59Z</time></trkpt><trkpt lat="42.16838204404422" lon="20.036543065142773"><ele>982.3333333333333</ele><time>2026-05-04T08:42:00Z</time></trkpt><trkpt lat="42.16852025087433" lon="20.036543122125835"><ele>977.6666666666666</ele><time>2026-05-04T08:42:01Z</time></trkpt><trkpt lat="42.16868575155017" lon="20.036549403961313"><ele>973.0</ele><time>2026-05-04T08:42:02Z</time></trkpt><trkpt lat="42.16887217728493" lon="20.03650119337304"><ele>978.6666666666666</ele><time>2026-05-04T08:42:02.999Z</time></trkpt><trkpt lat="42.169076328746335" lon="20.03641192347801"><ele>984.3333333333333</ele><time>2026-05-04T08:42:03.999Z</time></trkpt><trkpt lat="42.16926224134056" lon="20.036314032515275"><ele>990.0</ele><time>2026-05-04T08:42:04.999Z</time></trkpt><trkpt lat="42.16939350407098" lon="20.036231629867718"><ele>990.0</ele><time>2026-05-04T08:42:05.999Z</time></trkpt><trkpt lat="42.16950564961709" lon="20.036133817006135"><ele>990.0</ele><time>2026-05-04T08:42:06.999Z</time></trkpt><trkpt lat="42.169613312673214" lon="20.035990199629346"><ele>990.0</ele><time>2026-05-04T08:42:07.999Z</time></trkpt><trkpt lat="42.16971301749691" lon="20.035801667710263"><ele>993.0</ele><time>2026-05-04T08:42:08.999Z</time></trkpt><trkpt lat="42.16983376067126" lon="20.035584941524046"><ele>996.0</ele><time>2026-05-04T08:42:09.999Z</time></trkpt><trkpt lat="42.16997744155638" lon="20.03535703123177"><ele>999.0</ele><time>2026-05-04T08:42:10.999Z</time></trkpt><trkpt lat="42.17009718486813" lon="20.03514217285714"><ele>999.0</ele><time>2026-05-04T08:42:11.999Z</time></trkpt><trkpt lat="42.17016487613128" lon="20.03497495985263"><ele>999.0</ele><time>2026-05-04T08:42:12.999Z</time></trkpt><trkpt lat="42.17021978268351" lon="20.03486115158866"><ele>999.0</ele><time>2026-05-04T08:42:13.999Z</time></trkpt><trkpt lat="42.17030917406857" lon="20.034789686879737"><ele>999.0</ele><time>2026-05-04T08:42:14.999Z</time></trkpt><trkpt lat="42.17044656614541" lon="20.034747514353352"><ele>1002.5</ele><time>2026-05-04T08:42:15.999Z</time></trkpt><trkpt lat="42.17058061375725" lon="20.03475827599257"><ele>1006.0</ele><time>2026-05-04T08:42:16.999Z</time></trkpt><trkpt lat="42.17068441739796" lon="20.03483377980422"><ele>1009.5</ele><time>2026-05-04T08:42:17.999Z</time></trkpt><trkpt lat="42.1707816251059" lon="20.03497610406186"><ele>1013.0</ele><time>2026-05-04T08:42:18.999Z</time></trkpt><trkpt lat="42.17088983233598" lon="20.03517015378939"><ele>1013.0</ele><time>2026-05-04T08:42:19.999Z</time></trkpt><trkpt lat="42.17102416357817" lon="20.035345584073752"><ele>1013.0</ele><time>2026-05-04T08:42:20.999Z</time></trkpt><trkpt lat="42.17119582625698" lon="20.035483330418685"><ele>1013.0</ele><time>2026-05-04T08:42:21.999Z</time></trkpt><trkpt lat="42.17139183868916" lon="20.03558544102403"><ele>1004.0</ele><time>2026-05-04T08:42:23Z</time></trkpt><trkpt lat="42.17161000492635" lon="20.035662305504015"><ele>995.0</ele><time>2026-05-04T08:42:24Z</time></trkpt><trkpt lat="42.17184408790055" lon="20.035727883138488"><ele>995.0</ele><time>2026-05-04T08:42:25Z</time></trkpt><trkpt lat="42.17207573556383" lon="20.035772695906655"><ele>995.0</ele><time>2026-05-04T08:42:26Z</time></trkpt><trkpt lat="42.17226143110502" lon="20.035798000768853"><ele>995.0</ele><time>2026-05-04T08:42:27Z</time></trkpt><trkpt lat="42.17241048292554" lon="20.035836392416215"><ele>1004.0</ele><time>2026-05-04T08:42:28Z</time></trkpt><trkpt lat="42.17253856756489" lon="20.03592653583242"><ele>1013.0</ele><time>2026-05-04T08:42:29Z</time></trkpt><trkpt lat="42.17265312686766" lon="20.036066405043076"><ele>1022.0</ele><time>2026-05-04T08:42:30Z</time></trkpt><trkpt lat="42.17275268778371" lon="20.03618526877746"><ele>1031.0</ele><time>2026-05-04T08:42:31Z</time></trkpt><trkpt lat="42.172838776810124" lon="20.036233113620295"><ele>1031.0</ele><time>2026-05-04T08:42:32Z</time></trkpt><trkpt lat="42.17293321524354" lon="20.036208503977818"><ele>1031.0</ele><time>2026-05-04T08:42:33Z</time></trkpt><trkpt lat="42.17305283734271" lon="20.03611864832665"><ele>1031.0</ele><time>2026-05-04T08:42:34Z</time></trkpt><trkpt lat="42.173197624909996" lon="20.036034186588964"><ele>1031.0</ele><time>2026-05-04T08:42:35Z</time></trkpt><trkpt lat="42.17337372444419" lon="20.035974187907545"><ele>1028.75</ele><time>2026-05-04T08:42:36Z</time></trkpt><trkpt lat="42.173515209975285" lon="20.035955905057726"><ele>1026.5</ele><time>2026-05-04T08:42:37Z</time></trkpt><trkpt lat="42.17362730671231" lon="20.035986546538485"><ele>1024.25</ele><time>2026-05-04T08:42:38Z</time></trkpt><trkpt lat="42.17373476007088" lon="20.036077456700593"><ele>1022.0</ele><time>2026-05-04T08:42:39Z</time></trkpt><trkpt lat="42.173847300045395" lon="20.036211980401312"><ele>1022.0</ele><time>2026-05-04T08:42:40Z</time></trkpt><trkpt lat="42.17398060650211" lon="20.036313820240487"><ele>1022.0</ele><time>2026-05-04T08:42:41Z</time></trkpt><trkpt lat="42.17411111939562" lon="20.036331179537942"><ele>1022.0</ele><time>2026-05-04T08:42:42Z</time></trkpt><trkpt lat="42.174268239748564" lon="20.036287524811325"><ele>1022.0</ele><time>2026-05-04T08:42:43Z</time></trkpt><trkpt lat="42.17444130504844" lon="20.036202650108038"><ele>1025.0</ele><time>2026-05-04T08:42:44Z</time></trkpt><trkpt lat="42.17461013704922" lon="20.03607729075846"><ele>1028.0</ele><time>2026-05-04T08:42:45Z</time></trkpt><trkpt lat="42.174779678757695" lon="20.03591471069022"><ele>1031.0</ele><time>2026-05-04T08:42:46Z</time></trkpt><trkpt lat="42.17492880912122" lon="20.035750887206426"><ele>1036.0</ele><time>2026-05-04T08:42:47Z</time></trkpt><trkpt lat="42.17505651740817" lon="20.035549323237525"><ele>1041.0</ele><time>2026-05-04T08:42:48Z</time></trkpt><trkpt lat="42.17516528932571" lon="20.035360408271043"><ele>1046.0</ele><time>2026-05-04T08:42:49Z</time></trkpt><trkpt lat="42.17525186403603" lon="20.03524274282947"><ele>1046.0</ele><time>2026-05-04T08:42:49.999Z</time></trkpt><trkpt lat="42.1753014247694" lon="20.035161564173983"><ele>1046.0</ele><time>2026-05-04T08:42:50.999Z</time></trkpt><trkpt lat="42.17529843010756" lon="20.03506469060973"><ele>1046.0</ele><time>2026-05-04T08:42:51.999Z</time></trkpt><trkpt lat="42.175248276965036" lon="20.034982657191687"><ele>1046.0</ele><time>2026-05-04T08:42:52.999Z</time></trkpt><trkpt lat="42.17516564042488" lon="20.034957237372055"><ele>1046.0</ele><time>2026-05-04T08:42:53.999Z</time></trkpt><trkpt lat="42.17507514893438" lon="20.035002219294668"><ele>1046.0</ele><time>2026-05-04T08:42:54.999Z</time></trkpt><trkpt lat="42.17496359087358" lon="20.03510595648476"><ele>1044.3333333333335</ele><time>2026-05-04T08:42:55.999Z</time></trkpt><trkpt lat="42.17483041499415" lon="20.035226674958693"><ele>1042.6666666666667</ele><time>2026-05-04T08:42:56.999Z</time></trkpt><trkpt lat="42.17467648141123" lon="20.035353202996184"><ele>1041.0</ele><time>2026-05-04T08:42:57.999Z</time></trkpt><trkpt lat="42.17452127244671" lon="20.035457431959387"><ele>1041.0</ele><time>2026-05-04T08:42:58.999Z</time></trkpt><trkpt lat="42.17440311722813" lon="20.035503925723898"><ele>1041.0</ele><time>2026-05-04T08:42:59.999Z</time></trkpt><trkpt lat="42.174318842146775" lon="20.035481672528128"><ele>1041.0</ele><time>2026-05-04T08:43:00.999Z</time></trkpt><trkpt lat="42.174255383569786" lon="20.035392225888625"><ele>1041.0</ele><time>2026-05-04T08:43:01.999Z</time></trkpt><trkpt lat="42.17419596788569" lon="20.035226149312404"><ele>1041.0</ele><time>2026-05-04T08:43:02.999Z</time></trkpt><trkpt lat="42.17411259283453" lon="20.035003637487275"><ele>1039.3333333333333</ele><time>2026-05-04T08:43:03.999Z</time></trkpt><trkpt lat="42.17398722028602" lon="20.03478614055621"><ele>1037.6666666666665</ele><time>2026-05-04T08:43:04.999Z</time></trkpt><trkpt lat="42.17381765303061" lon="20.034585746456944"><ele>1036.0</ele><time>2026-05-04T08:43:05.999Z</time></trkpt><trkpt lat="42.17361536861644" lon="20.034411775183184"><ele>1036.0</ele><time>2026-05-04T08:43:06.999Z</time></trkpt><trkpt lat="42.17339484552572" lon="20.03424442559731"><ele>1036.0</ele><time>2026-05-04T08:43:07.999Z</time></trkpt><trkpt lat="42.17320029228276" lon="20.034057442269905"><ele>1027.3333333333333</ele><time>2026-05-04T08:43:08.999Z</time></trkpt><trkpt lat="42.17304002231067" lon="20.03386094811483"><ele>1018.6666666666667</ele><time>2026-05-04T08:43:09.999Z</time></trkpt><trkpt lat="42.172927649873635" lon="20.03369969957011"><ele>1010.0</ele><time>2026-05-04T08:43:10.999Z</time></trkpt><trkpt lat="42.17285453630084" lon="20.033572973637906"><ele>1010.0</ele><time>2026-05-04T08:43:11.999Z</time></trkpt><trkpt lat="42.172828690028126" lon="20.033453753145"><ele>1010.0</ele><time>2026-05-04T08:43:12.999Z</time></trkpt><trkpt lat="42.17285755665215" lon="20.033344792115894"><ele>1010.0</ele><time>2026-05-04T08:43:13.999Z</time></trkpt><trkpt lat="42.17293642830157" lon="20.033244238467685"><ele>1010.0</ele><time>2026-05-04T08:43:14.999Z</time></trkpt><trkpt lat="42.173060058914515" lon="20.033137346224986"><ele>1010.0</ele><time>2026-05-04T08:43:15.999Z</time></trkpt><trkpt lat="42.173231219615374" lon="20.032991788764274"><ele>1012.0</ele><time>2026-05-04T08:43:16.999Z</time></trkpt><trkpt lat="42.17337823639181" lon="20.032809314086055"><ele>1014.0</ele><time>2026-05-04T08:43:17.999Z</time></trkpt><trkpt lat="42.17352322527446" lon="20.032591071285815"><ele>1016.0</ele><time>2026-05-04T08:43:18.999Z</time></trkpt><trkpt lat="42.17366333637799" lon="20.03233924115023"><ele>1016.0</ele><time>2026-05-04T08:43:19.999Z</time></trkpt><trkpt lat="42.173826341920076" lon="20.032086583848834"><ele>1016.0</ele><time>2026-05-04T08:43:20.999Z</time></trkpt><trkpt lat="42.173973579989514" lon="20.03187650912863"><ele>1026.0</ele><time>2026-05-04T08:43:21.999Z</time></trkpt><trkpt lat="42.17407592708406" lon="20.031673600058536"><ele>1036.0</ele><time>2026-05-04T08:43:22.999Z</time></trkpt><trkpt lat="42.17413792078722" lon="20.03141886313329"><ele>1046.0</ele><time>2026-05-04T08:43:23.999Z</time></trkpt><trkpt lat="42.17419355413006" lon="20.03112796678485"><ele>1046.0</ele><time>2026-05-04T08:43:24.999Z</time></trkpt><trkpt lat="42.17425237970583" lon="20.030835126611674"><ele>1046.0</ele><time>2026-05-04T08:43:25.999Z</time></trkpt><trkpt lat="42.17429939808665" lon="20.030571745467785"><ele>1046.0</ele><time>2026-05-04T08:43:26.999Z</time></trkpt><trkpt lat="42.17431866866337" lon="20.030372274462557"><ele>1046.25</ele><time>2026-05-04T08:43:27.999Z</time></trkpt><trkpt lat="42.17428709087307" lon="20.030204518241597"><ele>1046.5</ele><time>2026-05-04T08:43:28.999Z</time></trkpt><trkpt lat="42.174257258161234" lon="20.03001980352787"><ele>1046.75</ele><time>2026-05-04T08:43:29.999Z</time></trkpt><trkpt lat="42.17428867514134" lon="20.02981555128355"><ele>1047.0</ele><time>2026-05-04T08:43:30.999Z</time></trkpt><trkpt lat="42.17436480762968" lon="20.029580337429636"><ele>1048.3333333333333</ele><time>2026-05-04T08:43:31.999Z</time></trkpt><trkpt lat="42.17447094720554" lon="20.029333852269524"><ele>1049.6666666666665</ele><time>2026-05-04T08:43:32.999Z</time></trkpt><trkpt lat="42.17458790122283" lon="20.029097000516376"><ele>1051.0</ele><time>2026-05-04T08:43:33.999Z</time></trkpt><trkpt lat="42.17468141636976" lon="20.028957381698874"><ele>1053.25</ele><time>2026-05-04T08:43:34.999Z</time></trkpt><trkpt lat="42.174763144800984" lon="20.028905136057425"><ele>1055.5</ele><time>2026-05-04T08:43:35.999Z</time></trkpt><trkpt lat="42.174877076591905" lon="20.02890939446351"><ele>1057.75</ele><time>2026-05-04T08:43:36.999Z</time></trkpt><trkpt lat="42.175034093392426" lon="20.028923999564025"><ele>1060.0</ele><time>2026-05-04T08:43:37.999Z</time></trkpt><trkpt lat="42.1751720118091" lon="20.028910634645936"><ele>1060.0</ele><time>2026-05-04T08:43:38.999Z</time></trkpt><trkpt lat="42.17524920223452" lon="20.028846238044828"><ele>1060.0</ele><time>2026-05-04T08:43:39.999Z</time></trkpt><trkpt lat="42.17527766801477" lon="20.02874488080006"><ele>1060.0</ele><time>2026-05-04T08:43:40.999Z</time></trkpt><trkpt lat="42.17525758475154" lon="20.02863316871257"><ele>1060.0</ele><time>2026-05-04T08:43:41.999Z</time></trkpt><trkpt lat="42.17518629844976" lon="20.028514563669862"><ele>1060.0</ele><time>2026-05-04T08:43:42.999Z</time></trkpt><trkpt lat="42.175111179368066" lon="20.028346907864737"><ele>1061.3333333333333</ele><time>2026-05-04T08:43:43.999Z</time></trkpt><trkpt lat="42.17508799504305" lon="20.02814010298646"><ele>1062.6666666666667</ele><time>2026-05-04T08:43:44.999Z</time></trkpt><trkpt lat="42.17512331509545" lon="20.027896200930606"><ele>1064.0</ele><time>2026-05-04T08:43:45.999Z</time></trkpt><trkpt lat="42.175173786322546" lon="20.027631419902157"><ele>1067.0</ele><time>2026-05-04T08:43:46.999Z</time></trkpt><trkpt lat="42.17523156455555" lon="20.027335414658683"><ele>1070.0</ele><time>2026-05-04T08:43:47.999Z</time></trkpt><trkpt lat="42.17530620366236" lon="20.0270362192624"><ele>1070.0</ele><time>2026-05-04T08:43:48.999Z</time></trkpt><trkpt lat="42.17537962301162" lon="20.026781239807548"><ele>1070.0</ele><time>2026-05-04T08:43:49.999Z</time></trkpt><trkpt lat="42.175422358478635" lon="20.02658476510067"><ele>1070.0</ele><time>2026-05-04T08:43:50.999Z</time></trkpt><trkpt lat="42.17542022718492" lon="20.026398874951926"><ele>1074.0</ele><time>2026-05-04T08:43:51.999Z</time></trkpt><trkpt lat="42.17539964315329" lon="20.02623426469214"><ele>1078.0</ele><time>2026-05-04T08:43:52.999Z</time></trkpt><trkpt lat="42.175434155866625" lon="20.02609425602234"><ele>1082.0</ele><time>2026-05-04T08:43:53.999Z</time></trkpt><trkpt lat="42.17552462014843" lon="20.025998101411364"><ele>1086.0</ele><time>2026-05-04T08:43:54.999Z</time></trkpt><trkpt lat="42.17567106459537" lon="20.02593179401967"><ele>1084.0</ele><time>2026-05-04T08:43:55.999Z</time></trkpt><trkpt lat="42.175862653327755" lon="20.02586952542944"><ele>1082.0</ele><time>2026-05-04T08:43:56.999Z</time></trkpt><trkpt lat="42.176048770856035" lon="20.025768006727358"><ele>1080.0</ele><time>2026-05-04T08:43:57.999Z</time></trkpt><trkpt lat="42.176230583668925" lon="20.02559995432438"><ele>1084.0</ele><time>2026-05-04T08:43:58.999Z</time></trkpt><trkpt lat="42.176359601153564" lon="20.02539566362645"><ele>1088.0</ele><time>2026-05-04T08:43:59.999Z</time></trkpt><trkpt lat="42.176488347519474" lon="20.025164709575545"><ele>1092.0</ele><time>2026-05-04T08:44:00.999Z</time></trkpt><trkpt lat="42.17663637896523" lon="20.02495745194527"><ele>1092.0</ele><time>2026-05-04T08:44:01.999Z</time></trkpt><trkpt lat="42.17676350504617" lon="20.024760121472056"><ele>1092.0</ele><time>2026-05-04T08:44:02.999Z</time></trkpt><trkpt lat="42.17682352973081" lon="20.0245891233179"><ele>1092.0</ele><time>2026-05-04T08:44:03.999Z</time></trkpt><trkpt lat="42.17686080741145" lon="20.02444569813912"><ele>1092.0</ele><time>2026-05-04T08:44:04.999Z</time></trkpt><trkpt lat="42.176860641412375" lon="20.024348808088458"><ele>1092.0</ele><time>2026-05-04T08:44:05.999Z</time></trkpt><trkpt lat="42.17673942118428" lon="20.02428585590063"><ele>1092.0</ele><time>2026-05-04T08:44:07.999Z</time></trkpt><trkpt lat="42.17664270531277" lon="20.024326109540993"><ele>1092.0</ele><time>2026-05-04T08:44:08.999Z</time></trkpt><trkpt lat="42.176532218589614" lon="20.024428845215088"><ele>1092.0</ele><time>2026-05-04T08:44:09.999Z</time></trkpt><trkpt lat="42.17642269003975" lon="20.024584770290904"><ele>1097.6666666666667</ele><time>2026-05-04T08:44:10.999Z</time></trkpt><trkpt lat="42.176289374606476" lon="20.024741550540565"><ele>1103.3333333333335</ele><time>2026-05-04T08:44:11.999Z</time></trkpt><trkpt lat="42.176120318056824" lon="20.024856868572716"><ele>1109.0</ele><time>2026-05-04T08:44:12.999Z</time></trkpt><trkpt lat="42.17591848370184" lon="20.024958907024054"><ele>1110.3333333333335</ele><time>2026-05-04T08:44:13.999Z</time></trkpt><trkpt lat="42.175748559438546" lon="20.025090462613054"><ele>1111.6666666666667</ele><time>2026-05-04T08:44:14.999Z</time></trkpt><trkpt lat="42.175597692981" lon="20.02517014394224"><ele>1113.0</ele><time>2026-05-04T08:44:15.999Z</time></trkpt><trkpt lat="42.17540831993625" lon="20.025193345859318"><ele>1113.0</ele><time>2026-05-04T08:44:16.999Z</time></trkpt><trkpt lat="42.17519804089655" lon="20.02518848158666"><ele>1113.0</ele><time>2026-05-04T08:44:17.999Z</time></trkpt><trkpt lat="42.175009479257284" lon="20.025193729810166"><ele>1113.0</ele><time>2026-05-04T08:44:18.999Z</time></trkpt><trkpt lat="42.17487299310158" lon="20.025248788818836"><ele>1115.0</ele><time>2026-05-04T08:44:19.999Z</time></trkpt><trkpt lat="42.17476291786678" lon="20.02537140950487"><ele>1117.0</ele><time>2026-05-04T08:44:20.999Z</time></trkpt><trkpt lat="42.1746616054651" lon="20.02553926722183"><ele>1119.0</ele><time>2026-05-04T08:44:21.999Z</time></trkpt><trkpt lat="42.17453859595352" lon="20.025682725743888"><ele>1119.0</ele><time>2026-05-04T08:44:22.999Z</time></trkpt><trkpt lat="42.17441518022101" lon="20.025744221932996"><ele>1119.0</ele><time>2026-05-04T08:44:23.999Z</time></trkpt><trkpt lat="42.17425483683628" lon="20.025766550661942"><ele>1119.0</ele><time>2026-05-04T08:44:24.999Z</time></trkpt><trkpt lat="42.17406883928361" lon="20.025768047788684"><ele>1117.5</ele><time>2026-05-04T08:44:25.999Z</time></trkpt><trkpt lat="42.17384858766105" lon="20.02573065578173"><ele>1116.0</ele><time>2026-05-04T08:44:26.999Z</time></trkpt><trkpt lat="42.17361862554845" lon="20.025673746212725"><ele>1116.0</ele><time>2026-05-04T08:44:27.999Z</time></trkpt><trkpt lat="42.17345849088864" lon="20.025622157629645"><ele>1116.0</ele><time>2026-05-04T08:44:29Z</time></trkpt><trkpt lat="42.17335645738585" lon="20.025561550050487"><ele>1116.0</ele><time>2026-05-04T08:44:30Z</time></trkpt><trkpt lat="42.17328591818346" lon="20.025488924907954"><ele>1116.0</ele><time>2026-05-04T08:44:31Z</time></trkpt><trkpt lat="42.17324357046512" lon="20.025370034358676"><ele>1116.0</ele><time>2026-05-04T08:44:32Z</time></trkpt><trkpt lat="42.173230720460616" lon="20.02521173974596"><ele>1116.0</ele><time>2026-05-04T08:44:33Z</time></trkpt><trkpt lat="42.17321363590813" lon="20.025049731165982"><ele>1116.0</ele><time>2026-05-04T08:44:34Z</time></trkpt><trkpt lat="42.17315187268908" lon="20.024905548456566"><ele>1116.0</ele><time>2026-05-04T08:44:35Z</time></trkpt><trkpt lat="42.173028148024436" lon="20.024768278255845"><ele>1116.0</ele><time>2026-05-04T08:44:36Z</time></trkpt><trkpt lat="42.17285954742051" lon="20.024629425536062"><ele>1116.0</ele><time>2026-05-04T08:44:37Z</time></trkpt><trkpt lat="42.172690451738184" lon="20.02448252191496"><ele>1116.0</ele><time>2026-05-04T08:44:38Z</time></trkpt><trkpt lat="42.1725153543071" lon="20.024297761867015"><ele>1117.0</ele><time>2026-05-04T08:44:39Z</time></trkpt><trkpt lat="42.17236066049436" lon="20.024135769285"><ele>1118.0</ele><time>2026-05-04T08:44:40Z</time></trkpt><trkpt lat="42.17220085437699" lon="20.02401428938187"><ele>1119.0</ele><time>2026-05-04T08:44:41Z</time></trkpt><trkpt lat="42.17205309195791" lon="20.02391686724069"><ele>1119.0</ele><time>2026-05-04T08:44:42Z</time></trkpt><trkpt lat="42.17194235041642" lon="20.023782275467205"><ele>1119.0</ele><time>2026-05-04T08:44:43Z</time></trkpt><trkpt lat="42.171848712424925" lon="20.023576412402733"><ele>1119.0</ele><time>2026-05-04T08:44:44Z</time></trkpt><trkpt lat="42.171765067818896" lon="20.023323816427276"><ele>1113.0</ele><time>2026-05-04T08:44:45Z</time></trkpt><trkpt lat="42.1717023088708" lon="20.02303955893702"><ele>1107.0</ele><time>2026-05-04T08:44:46Z</time></trkpt><trkpt lat="42.17166638810602" lon="20.022720537608397"><ele>1102.0</ele><time>2026-05-04T08:44:47Z</time></trkpt><trkpt lat="42.17163164298416" lon="20.022376582868066"><ele>1097.0</ele><time>2026-05-04T08:44:48Z</time></trkpt><trkpt lat="42.17158090246321" lon="20.022049751194228"><ele>1099.3333333333335</ele><time>2026-05-04T08:44:49Z</time></trkpt><trkpt lat="42.17152345964868" lon="20.021768391273497"><ele>1101.6666666666667</ele><time>2026-05-04T08:44:50Z</time></trkpt><trkpt lat="42.17146597829181" lon="20.02154130696315"><ele>1104.0</ele><time>2026-05-04T08:44:51Z</time></trkpt><trkpt lat="42.171407055112745" lon="20.021352966896693"><ele>1104.0</ele><time>2026-05-04T08:44:52Z</time></trkpt><trkpt lat="42.17134790411385" lon="20.02120848681954"><ele>1104.0</ele><time>2026-05-04T08:44:53Z</time></trkpt><trkpt lat="42.171295367281814" lon="20.02111603691494"><ele>1104.0</ele><time>2026-05-04T08:44:54Z</time></trkpt><trkpt lat="42.17123960184347" lon="20.021022906261475"><ele>1104.0</ele><time>2026-05-04T08:44:56Z</time></trkpt><trkpt lat="42.17117578252738" lon="20.02092605886783"><ele>1104.0</ele><time>2026-05-04T08:45:38.999Z</time></trkpt><trkpt lat="42.1711273351497" lon="20.02084782848986"><ele>1101.4</ele><time>2026-05-04T08:45:39.999Z</time></trkpt><trkpt lat="42.17107149388744" lon="20.020755928536236"><ele>1098.8000000000002</ele><time>2026-05-04T08:45:40.999Z</time></trkpt><trkpt lat="42.17100462039726" lon="20.020645739608234"><ele>1096.1999999999998</ele><time>2026-05-04T08:45:41.999Z</time></trkpt><trkpt lat="42.17092192129148" lon="20.02053069528594"><ele>1093.6</ele><time>2026-05-04T08:45:42.999Z</time></trkpt><trkpt lat="42.17082298941499" lon="20.020418476604434"><ele>1091.0</ele><time>2026-05-04T08:45:43.999Z</time></trkpt><trkpt lat="42.17071154300249" lon="20.020321853050127"><ele>1092.2</ele><time>2026-05-04T08:45:44.999Z</time></trkpt><trkpt lat="42.1706320368522" lon="20.020227900281792"><ele>1093.3999999999999</ele><time>2026-05-04T08:45:45.999Z</time></trkpt><trkpt lat="42.170599212366945" lon="20.020116074459768"><ele>1094.6</ele><time>2026-05-04T08:45:46.999Z</time></trkpt><trkpt lat="42.170623740589726" lon="20.02000245401042"><ele>1095.8</ele><time>2026-05-04T08:45:47.999Z</time></trkpt><trkpt lat="42.17068919120269" lon="20.019878316272163"><ele>1097.0</ele><time>2026-05-04T08:45:48.999Z</time></trkpt><trkpt lat="42.170788619702044" lon="20.019741206383255"><ele>1097.0</ele><time>2026-05-04T08:45:49.999Z</time></trkpt><trkpt lat="42.1708939780466" lon="20.019588692310023"><ele>1097.0</ele><time>2026-05-04T08:45:50.999Z</time></trkpt><trkpt lat="42.1710001144496" lon="20.019431001474285"><ele>1097.0</ele><time>2026-05-04T08:45:51.999Z</time></trkpt><trkpt lat="42.171088586603254" lon="20.019295364040087"><ele>1097.0</ele><time>2026-05-04T08:45:52.999Z</time></trkpt><trkpt lat="42.1711420146524" lon="20.01915463891898"><ele>1097.0</ele><time>2026-05-04T08:45:53.999Z</time></trkpt><trkpt lat="42.171160207661934" lon="20.01896926526838"><ele>1097.0</ele><time>2026-05-04T08:45:54.999Z</time></trkpt><trkpt lat="42.17115717095463" lon="20.018753550088366"><ele>1097.0</ele><time>2026-05-04T08:45:55.999Z</time></trkpt><trkpt lat="42.17115027248334" lon="20.01851947779826"><ele>1094.3333333333335</ele><time>2026-05-04T08:45:56.999Z</time></trkpt><trkpt lat="42.1711517315122" lon="20.01827661734822"><ele>1091.6666666666667</ele><time>2026-05-04T08:45:57.999Z</time></trkpt><trkpt lat="42.17115754079189" lon="20.01801923963613"><ele>1089.0</ele><time>2026-05-04T08:45:58.999Z</time></trkpt><trkpt lat="42.171157524057605" lon="20.01776649786474"><ele>1089.0</ele><time>2026-05-04T08:45:59.999Z</time></trkpt><trkpt lat="42.171149375631856" lon="20.017514966921333"><ele>1089.0</ele><time>2026-05-04T08:46:00.999Z</time></trkpt><trkpt lat="42.17113273164108" lon="20.017261525689026"><ele>1089.0</ele><time>2026-05-04T08:46:01.999Z</time></trkpt><trkpt lat="42.171084821669005" lon="20.016985618386762"><ele>1084.0</ele><time>2026-05-04T08:46:02.999Z</time></trkpt><trkpt lat="42.17101322271952" lon="20.016690077400693"><ele>1079.0</ele><time>2026-05-04T08:46:03.999Z</time></trkpt><trkpt lat="42.17097337702417" lon="20.016364302431203"><ele>1076.5</ele><time>2026-05-04T08:46:04.999Z</time></trkpt><trkpt lat="42.17096910435982" lon="20.016014475072552"><ele>1074.0</ele><time>2026-05-04T08:46:05.999Z</time></trkpt><trkpt lat="42.17098982536172" lon="20.01563622781147"><ele>1073.0</ele><time>2026-05-04T08:46:06.999Z</time></trkpt><trkpt lat="42.17101655607604" lon="20.015274266730156"><ele>1072.0</ele><time>2026-05-04T08:46:07.999Z</time></trkpt><trkpt lat="42.171034974309634" lon="20.014964843601494"><ele>1070.3333333333333</ele><time>2026-05-04T08:46:08.999Z</time></trkpt><trkpt lat="42.17103870147713" lon="20.01468736466899"><ele>1068.6666666666667</ele><time>2026-05-04T08:46:09.999Z</time></trkpt><trkpt lat="42.17102094023634" lon="20.01441773099647"><ele>1067.0</ele><time>2026-05-04T08:46:10.999Z</time></trkpt><trkpt lat="42.17098621934159" lon="20.014123501139245"><ele>1063.6666666666667</ele><time>2026-05-04T08:46:11.999Z</time></trkpt><trkpt lat="42.17095628088201" lon="20.013818198573805"><ele>1060.3333333333333</ele><time>2026-05-04T08:46:12.999Z</time></trkpt><trkpt lat="42.170949618349205" lon="20.01352966661991"><ele>1057.0</ele><time>2026-05-04T08:46:13.999Z</time></trkpt><trkpt lat="42.17092391405361" lon="20.013243548364834"><ele>1049.0</ele><time>2026-05-04T08:46:14.999Z</time></trkpt><trkpt lat="42.17086271696803" lon="20.012951033966655"><ele>1041.0</ele><time>2026-05-04T08:46:15.999Z</time></trkpt><trkpt lat="42.170775065622486" lon="20.012663639533304"><ele>1047.3333333333333</ele><time>2026-05-04T08:46:16.999Z</time></trkpt><trkpt lat="42.17067535884727" lon="20.012388804100112"><ele>1053.6666666666665</ele><time>2026-05-04T08:46:17.999Z</time></trkpt><trkpt lat="42.17056205451166" lon="20.012131637188414"><ele>1060.0</ele><time>2026-05-04T08:46:18.999Z</time></trkpt><trkpt lat="42.17042934013319" lon="20.011899362832306"><ele>1060.0</ele><time>2026-05-04T08:46:19.999Z</time></trkpt><trkpt lat="42.17029481082637" lon="20.011659404613592"><ele>1060.0</ele><time>2026-05-04T08:46:20.999Z</time></trkpt><trkpt lat="42.17016640364923" lon="20.011405060392324"><ele>1047.0</ele><time>2026-05-04T08:46:21.999Z</time></trkpt><trkpt lat="42.17004159015016" lon="20.011131468475742"><ele>1034.0</ele><time>2026-05-04T08:46:22.999Z</time></trkpt><trkpt lat="42.16991931507803" lon="20.010840229463504"><ele>1043.5</ele><time>2026-05-04T08:46:23.999Z</time></trkpt><trkpt lat="42.16980459676621" lon="20.01052858773606"><ele>1053.0</ele><time>2026-05-04T08:46:24.999Z</time></trkpt><trkpt lat="42.16971844944631" lon="20.010212751191524"><ele>1052.0</ele><time>2026-05-04T08:46:25.999Z</time></trkpt><trkpt lat="42.16966436740513" lon="20.00992586384289"><ele>1051.0</ele><time>2026-05-04T08:46:26.999Z</time></trkpt><trkpt lat="42.16962839939046" lon="20.009690223305824"><ele>1050.0</ele><time>2026-05-04T08:46:27.999Z</time></trkpt><trkpt lat="42.16959920699014" lon="20.009507288201405"><ele>1050.0</ele><time>2026-05-04T08:46:28.999Z</time></trkpt><trkpt lat="42.169597830462806" lon="20.00937040094412"><ele>1050.0</ele><time>2026-05-04T08:46:29.999Z</time></trkpt><trkpt lat="42.16964605677798" lon="20.00925637550633"><ele>1050.0</ele><time>2026-05-04T08:46:30.999Z</time></trkpt><trkpt lat="42.1697315997061" lon="20.00913444408232"><ele>1050.0</ele><time>2026-05-04T08:46:31.999Z</time></trkpt><trkpt lat="42.16982419585542" lon="20.008961506963004"><ele>1044.3333333333333</ele><time>2026-05-04T08:46:32.999Z</time></trkpt><trkpt lat="42.16989775872258" lon="20.008743733136747"><ele>1038.6666666666665</ele><time>2026-05-04T08:46:33.999Z</time></trkpt><trkpt lat="42.16997021418494" lon="20.00850229300762"><ele>1033.0</ele><time>2026-05-04T08:46:35Z</time></trkpt><trkpt lat="42.17007017052188" lon="20.008258878725012"><ele>1033.0</ele><time>2026-05-04T08:46:36Z</time></trkpt><trkpt lat="42.170220333454495" lon="20.00803227816961"><ele>1033.0</ele><time>2026-05-04T08:46:37Z</time></trkpt><trkpt lat="42.17040983622943" lon="20.007837725745237"><ele>1033.0</ele><time>2026-05-04T08:46:38Z</time></trkpt><trkpt lat="42.17060415145694" lon="20.007664795744855"><ele>1033.0</ele><time>2026-05-04T08:46:39Z</time></trkpt><trkpt lat="42.17077506085874" lon="20.00753365756012"><ele>1033.0</ele><time>2026-05-04T08:46:40Z</time></trkpt><trkpt lat="42.1709274550001" lon="20.007439867851968"><ele>1030.0</ele><time>2026-05-04T08:46:41Z</time></trkpt><trkpt lat="42.171058950179315" lon="20.007351895160237"><ele>1027.0</ele><time>2026-05-04T08:46:42Z</time></trkpt><trkpt lat="42.1711644701589" lon="20.00721710835118"><ele>1024.0</ele><time>2026-05-04T08:46:43Z</time></trkpt><trkpt lat="42.17125904265935" lon="20.00701812442636"><ele>1024.0</ele><time>2026-05-04T08:46:44Z</time></trkpt><trkpt lat="42.17134372344416" lon="20.006785435240825"><ele>1024.0</ele><time>2026-05-04T08:46:45Z</time></trkpt><trkpt lat="42.17144166447953" lon="20.006548218766326"><ele>1024.0</ele><time>2026-05-04T08:46:46Z</time></trkpt><trkpt lat="42.1715790028779" lon="20.006332157177035"><ele>1015.5</ele><time>2026-05-04T08:46:47Z</time></trkpt><trkpt lat="42.17174661328383" lon="20.006131807237292"><ele>1007.0</ele><time>2026-05-04T08:46:48Z</time></trkpt><trkpt lat="42.171916141676874" lon="20.00591475460913"><ele>1004.5</ele><time>2026-05-04T08:46:49Z</time></trkpt><trkpt lat="42.17208276269691" lon="20.005686550526548"><ele>1002.0</ele><time>2026-05-04T08:46:50Z</time></trkpt><trkpt lat="42.17225694709589" lon="20.00545121272968"><ele>1000.3333333333333</ele><time>2026-05-04T08:46:51Z</time></trkpt><trkpt lat="42.17242812267486" lon="20.005236437040328"><ele>998.6666666666666</ele><time>2026-05-04T08:46:52Z</time></trkpt><trkpt lat="42.172571932071655" lon="20.00506545778142"><ele>997.0</ele><time>2026-05-04T08:46:53Z</time></trkpt><trkpt lat="42.17269221453812" lon="20.004910300381713"><ele>996.25</ele><time>2026-05-04T08:46:54Z</time></trkpt><trkpt lat="42.17278096226139" lon="20.00475616634039"><ele>995.5</ele><time>2026-05-04T08:46:55Z</time></trkpt><trkpt lat="42.172838052333645" lon="20.004581422780998"><ele>994.75</ele><time>2026-05-04T08:46:56Z</time></trkpt><trkpt lat="42.17286025447805" lon="20.004363984063392"><ele>994.0</ele><time>2026-05-04T08:46:57Z</time></trkpt><trkpt lat="42.17285554169345" lon="20.004130471774445"><ele>990.6666666666666</ele><time>2026-05-04T08:46:58Z</time></trkpt><trkpt lat="42.17282249314324" lon="20.003889542643567"><ele>987.3333333333333</ele><time>2026-05-04T08:46:59Z</time></trkpt><trkpt lat="42.172767235236215" lon="20.00364785201999"><ele>984.0</ele><time>2026-05-04T08:47:00Z</time></trkpt><trkpt lat="42.17268855537226" lon="20.00343355056476"><ele>979.75</ele><time>2026-05-04T08:47:01Z</time></trkpt><trkpt lat="42.172588222020444" lon="20.003244072462678"><ele>975.5</ele><time>2026-05-04T08:47:02Z</time></trkpt><trkpt lat="42.1724934661094" lon="20.003121463307757"><ele>971.25</ele><time>2026-05-04T08:47:03Z</time></trkpt><trkpt lat="42.17240505319673" lon="20.003073615331225"><ele>967.0</ele><time>2026-05-04T08:47:04Z</time></trkpt><trkpt lat="42.172320891534525" lon="20.003089943376747"><ele>968.25</ele><time>2026-05-04T08:47:05Z</time></trkpt><trkpt lat="42.1722298650944" lon="20.003165531465484"><ele>969.5</ele><time>2026-05-04T08:47:06Z</time></trkpt><trkpt lat="42.17212011956861" lon="20.003279380498185"><ele>970.75</ele><time>2026-05-04T08:47:07Z</time></trkpt><trkpt lat="42.17200188480526" lon="20.00339755752172"><ele>972.0</ele><time>2026-05-04T08:47:08Z</time></trkpt><trkpt lat="42.17186719887839" lon="20.0035124242238"><ele>972.0</ele><time>2026-05-04T08:47:09Z</time></trkpt><trkpt lat="42.171727308675614" lon="20.003629956931576"><ele>972.0</ele><time>2026-05-04T08:47:10Z</time></trkpt><trkpt lat="42.17157595192888" lon="20.00375043328711"><ele>972.0</ele><time>2026-05-04T08:47:11Z</time></trkpt><trkpt lat="42.17141484146704" lon="20.003861995092404"><ele>967.3333333333333</ele><time>2026-05-04T08:47:12Z</time></trkpt><trkpt lat="42.1712393751096" lon="20.003955458159915"><ele>962.6666666666666</ele><time>2026-05-04T08:47:13Z</time></trkpt><trkpt lat="42.171049286652625" lon="20.004020833156282"><ele>958.0</ele><time>2026-05-04T08:47:14Z</time></trkpt><trkpt lat="42.1708461273516" lon="20.004044526873017"><ele>955.3333333333333</ele><time>2026-05-04T08:47:15Z</time></trkpt><trkpt lat="42.17063869507998" lon="20.00402825368003"><ele>952.6666666666667</ele><time>2026-05-04T08:47:16Z</time></trkpt><trkpt lat="42.17043125384869" lon="20.003974466147515"><ele>950.0</ele><time>2026-05-04T08:47:17Z</time></trkpt><trkpt lat="42.17022481193908" lon="20.003879788143035"><ele>950.0</ele><time>2026-05-04T08:47:18Z</time></trkpt><trkpt lat="42.170024881199296" lon="20.00375839354746"><ele>950.0</ele><time>2026-05-04T08:47:19Z</time></trkpt><trkpt lat="42.1698224007203" lon="20.003642833494293"><ele>950.0</ele><time>2026-05-04T08:47:20Z</time></trkpt><trkpt lat="42.169614498534806" lon="20.003540467902425"><ele>952.0</ele><time>2026-05-04T08:47:21Z</time></trkpt><trkpt lat="42.16940687903855" lon="20.003438856129414"><ele>954.0</ele><time>2026-05-04T08:47:22Z</time></trkpt><trkpt lat="42.16920734654854" lon="20.003331544732358"><ele>956.0</ele><time>2026-05-04T08:47:23Z</time></trkpt><trkpt lat="42.16902923342261" lon="20.003230016234337"><ele>951.0</ele><time>2026-05-04T08:47:24Z</time></trkpt><trkpt lat="42.16886966393564" lon="20.00315216445245"><ele>946.0</ele><time>2026-05-04T08:47:25Z</time></trkpt><trkpt lat="42.16873017389616" lon="20.00311009091228"><ele>941.0</ele><time>2026-05-04T08:47:26Z</time></trkpt><trkpt lat="42.16863946216923" lon="20.00307792115321"><ele>936.0</ele><time>2026-05-04T08:47:27Z</time></trkpt><trkpt lat="42.168586899228416" lon="20.003022236258722"><ele>936.0</ele><time>2026-05-04T08:47:28Z</time></trkpt><trkpt lat="42.16860179123691" lon="20.002894333770453"><ele>935.9999999999999</ele><time>2026-05-04T08:47:30Z</time></trkpt><trkpt lat="42.168663051733894" lon="20.00286865657319"><ele>935.9999999999999</ele><time>2026-05-04T08:47:31Z</time></trkpt><trkpt lat="42.168773281428194" lon="20.00290088077878"><ele>936.0</ele><time>2026-05-04T08:47:32Z</time></trkpt><trkpt lat="42.16889097406359" lon="20.00294899694267"><ele>936.0</ele><time>2026-05-04T08:47:33Z</time></trkpt><trkpt lat="42.16901503842833" lon="20.002985302238432"><ele>935.25</ele><time>2026-05-04T08:47:34Z</time></trkpt><trkpt lat="42.16914375361686" lon="20.00301028025955"><ele>934.5</ele><time>2026-05-04T08:47:35Z</time></trkpt><trkpt lat="42.1692842868473" lon="20.003027647986222"><ele>933.75</ele><time>2026-05-04T08:47:36Z</time></trkpt><trkpt lat="42.169426811160044" lon="20.003047901164045"><ele>933.0</ele><time>2026-05-04T08:47:37Z</time></trkpt><trkpt lat="42.16956403740325" lon="20.003072677314634"><ele>933.0</ele><time>2026-05-04T08:47:38Z</time></trkpt><trkpt lat="42.16970335498983" lon="20.003088594933953"><ele>933.0</ele><time>2026-05-04T08:47:39Z</time></trkpt><trkpt lat="42.16984312484738" lon="20.003069215497852"><ele>933.0</ele><time>2026-05-04T08:47:40Z</time></trkpt><trkpt lat="42.16999179492508" lon="20.00302529738207"><ele>933.0</ele><time>2026-05-04T08:47:41Z</time></trkpt><trkpt lat="42.17014581400403" lon="20.002968825390546"><ele>931.6666666666667</ele><time>2026-05-04T08:47:42Z</time></trkpt><trkpt lat="42.17030173283036" lon="20.002891765887522"><ele>930.3333333333334</ele><time>2026-05-04T08:47:43Z</time></trkpt><trkpt lat="42.1704483475438" lon="20.002774851719682"><ele>929.0</ele><time>2026-05-04T08:47:44Z</time></trkpt><trkpt lat="42.1705870917085" lon="20.002625325315517"><ele>924.0</ele><time>2026-05-04T08:47:45Z</time></trkpt><trkpt lat="42.17072248421926" lon="20.00246702133946"><ele>919.0</ele><time>2026-05-04T08:47:46Z</time></trkpt><trkpt lat="42.170851741886196" lon="20.002295212573284"><ele>914.0</ele><time>2026-05-04T08:47:47Z</time></trkpt><trkpt lat="42.17097644869527" lon="20.00210522804566"><ele>914.0</ele><time>2026-05-04T08:47:48Z</time></trkpt><trkpt lat="42.17109684491356" lon="20.001904479052236"><ele>914.0</ele><time>2026-05-04T08:47:49Z</time></trkpt><trkpt lat="42.17120999711776" lon="20.00169235169071"><ele>914.0</ele><time>2026-05-04T08:47:50Z</time></trkpt><trkpt lat="42.171327939423044" lon="20.00148025617994"><ele>915.6666666666667</ele><time>2026-05-04T08:47:51Z</time></trkpt><trkpt lat="42.17146366769549" lon="20.001279031080948"><ele>917.3333333333333</ele><time>2026-05-04T08:47:52Z</time></trkpt><trkpt lat="42.171596763312614" lon="20.00111275117352"><ele>919.0</ele><time>2026-05-04T08:47:53Z</time></trkpt><trkpt lat="42.1717174970121" lon="20.000983658510837"><ele>919.0</ele><time>2026-05-04T08:47:54Z</time></trkpt><trkpt lat="42.171823839516364" lon="20.00087676130493"><ele>919.0</ele><time>2026-05-04T08:47:55Z</time></trkpt><trkpt lat="42.17192443201072" lon="20.000770504497805"><ele>919.0</ele><time>2026-05-04T08:47:56Z</time></trkpt><trkpt lat="42.1720364065603" lon="20.000672862755085"><ele>919.0</ele><time>2026-05-04T08:47:56.999Z</time></trkpt><trkpt lat="42.172174907459" lon="20.00060374622794"><ele>912.6666666666666</ele><time>2026-05-04T08:47:57.999Z</time></trkpt><trkpt lat="42.17233901730902" lon="20.00055535326938"><ele>906.3333333333333</ele><time>2026-05-04T08:47:58.999Z</time></trkpt><trkpt lat="42.172519026997655" lon="20.000515468837037"><ele>900.0</ele><time>2026-05-04T08:47:59.999Z</time></trkpt><trkpt lat="42.172711451979154" lon="20.000479191832948"><ele>900.0</ele><time>2026-05-04T08:48:00.999Z</time></trkpt><trkpt lat="42.172906252524406" lon="20.000436082178584"><ele>900.0</ele><time>2026-05-04T08:48:01.999Z</time></trkpt><trkpt lat="42.17308473489558" lon="20.000383967619406"><ele>900.0</ele><time>2026-05-04T08:48:02.999Z</time></trkpt><trkpt lat="42.173230180707094" lon="20.00031820657273"><ele>900.5</ele><time>2026-05-04T08:48:03.999Z</time></trkpt><trkpt lat="42.17333449830846" lon="20.000233697080272"><ele>901.0</ele><time>2026-05-04T08:48:04.999Z</time></trkpt><trkpt lat="42.173424441050535" lon="20.00012261046579"><ele>901.5</ele><time>2026-05-04T08:48:05.999Z</time></trkpt><trkpt lat="42.173501874950496" lon="19.999981232303313"><ele>902.0</ele><time>2026-05-04T08:48:06.999Z</time></trkpt><trkpt lat="42.17356622942495" lon="19.999792221695667"><ele>902.0</ele><time>2026-05-04T08:48:07.999Z</time></trkpt><trkpt lat="42.17361970383618" lon="19.99957743671914"><ele>902.0</ele><time>2026-05-04T08:48:08.999Z</time></trkpt><trkpt lat="42.17365229644456" lon="19.99935577002638"><ele>902.0</ele><time>2026-05-04T08:48:09.999Z</time></trkpt><trkpt lat="42.173651036545124" lon="19.999137924504822"><ele>899.3333333333334</ele><time>2026-05-04T08:48:10.999Z</time></trkpt><trkpt lat="42.173628336091504" lon="19.998930050111316"><ele>896.6666666666667</ele><time>2026-05-04T08:48:11.999Z</time></trkpt><trkpt lat="42.17360457387013" lon="19.998730089290667"><ele>894.0</ele><time>2026-05-04T08:48:12.999Z</time></trkpt><trkpt lat="42.173581042962134" lon="19.99853867791048"><ele>894.0</ele><time>2026-05-04T08:48:13.999Z</time></trkpt><trkpt lat="42.173558932687456" lon="19.99835132971354"><ele>894.0</ele><time>2026-05-04T08:48:14.999Z</time></trkpt><trkpt lat="42.17354059079091" lon="19.998164413308825"><ele>894.0</ele><time>2026-05-04T08:48:15.999Z</time></trkpt><trkpt lat="42.173523805640066" lon="19.99798352746083"><ele>894.0</ele><time>2026-05-04T08:48:16.999Z</time></trkpt><trkpt lat="42.17350891489646" lon="19.997806761392805"><ele>894.0</ele><time>2026-05-04T08:48:17.999Z</time></trkpt><trkpt lat="42.17349435794194" lon="19.997636958595074"><ele>894.0</ele><time>2026-05-04T08:48:18.999Z</time></trkpt><trkpt lat="42.17347893956037" lon="19.997471637229737"><ele>894.0</ele><time>2026-05-04T08:48:19.999Z</time></trkpt><trkpt lat="42.17346726507794" lon="19.997304662638495"><ele>894.0</ele><time>2026-05-04T08:48:20.999Z</time></trkpt><trkpt lat="42.17346351197807" lon="19.997144492350227"><ele>893.25</ele><time>2026-05-04T08:48:21.999Z</time></trkpt><trkpt lat="42.1734657385599" lon="19.996984099269223"><ele>892.5</ele><time>2026-05-04T08:48:22.999Z</time></trkpt><trkpt lat="42.17347907780618" lon="19.996823275004154"><ele>891.75</ele><time>2026-05-04T08:48:23.999Z</time></trkpt><trkpt lat="42.17349446721254" lon="19.99665891455733"><ele>891.0</ele><time>2026-05-04T08:48:24.999Z</time></trkpt><trkpt lat="42.17350582941707" lon="19.996486823632335"><ele>892.25</ele><time>2026-05-04T08:48:25.999Z</time></trkpt><trkpt lat="42.17351087824428" lon="19.996309152679448"><ele>893.5</ele><time>2026-05-04T08:48:26.999Z</time></trkpt><trkpt lat="42.173506728273544" lon="19.996124643093943"><ele>894.75</ele><time>2026-05-04T08:48:27.999Z</time></trkpt><trkpt lat="42.17349318879258" lon="19.995931114004232"><ele>896.0</ele><time>2026-05-04T08:48:28.999Z</time></trkpt><trkpt lat="42.17347508503658" lon="19.995726282687123"><ele>896.0</ele><time>2026-05-04T08:48:29.999Z</time></trkpt><trkpt lat="42.173457678343" lon="19.995517095886456"><ele>896.0</ele><time>2026-05-04T08:48:30.999Z</time></trkpt><trkpt lat="42.173428251974784" lon="19.9953180292208"><ele>896.0</ele><time>2026-05-04T08:48:31.999Z</time></trkpt><trkpt lat="42.17337234861051" lon="19.995126767160247"><ele>894.0</ele><time>2026-05-04T08:48:32.999Z</time></trkpt><trkpt lat="42.17329141278835" lon="19.994944060260515"><ele>892.0</ele><time>2026-05-04T08:48:33.999Z</time></trkpt><trkpt lat="42.173233260276824" lon="19.994738057765876"><ele>890.0</ele><time>2026-05-04T08:48:34.999Z</time></trkpt><trkpt lat="42.17320429201057" lon="19.99450199436465"><ele>893.3333333333334</ele><time>2026-05-04T08:48:35.999Z</time></trkpt><trkpt lat="42.17317783659251" lon="19.994250795255113"><ele>896.6666666666667</ele><time>2026-05-04T08:48:36.999Z</time></trkpt><trkpt lat="42.17313434480084" lon="19.993985738113764"><ele>900.0</ele><time>2026-05-04T08:48:37.999Z</time></trkpt><trkpt lat="42.17308087286551" lon="19.993708734384985"><ele>902.0</ele><time>2026-05-04T08:48:38.999Z</time></trkpt><trkpt lat="42.17302732079549" lon="19.993428243446502"><ele>904.0</ele><time>2026-05-04T08:48:39.999Z</time></trkpt><trkpt lat="42.17298070380224" lon="19.993176534614996"><ele>906.0</ele><time>2026-05-04T08:48:41Z</time></trkpt><trkpt lat="42.17294673723666" lon="19.99297273288397"><ele>906.1999999999999</ele><time>2026-05-04T08:48:42Z</time></trkpt><trkpt lat="42.172923849224276" lon="19.992818703429233"><ele>906.3999999999999</ele><time>2026-05-04T08:48:43Z</time></trkpt><trkpt lat="42.172918424675125" lon="19.992712635617554"><ele>906.6</ele><time>2026-05-04T08:48:44Z</time></trkpt><trkpt lat="42.1729915037536" lon="19.9926160993901"><ele>906.8</ele><time>2026-05-04T08:48:46Z</time></trkpt><trkpt lat="42.1730805772291" lon="19.992743975212242"><ele>907.0</ele><time>2026-05-04T08:48:48Z</time></trkpt><trkpt lat="42.173096603662636" lon="19.992912331873526"><ele>907.0</ele><time>2026-05-04T08:48:49Z</time></trkpt><trkpt lat="42.17311955919259" lon="19.993095377072642"><ele>907.0</ele><time>2026-05-04T08:48:50Z</time></trkpt><trkpt lat="42.173156307018" lon="19.99329560893841"><ele>907.0</ele><time>2026-05-04T08:48:51Z</time></trkpt><trkpt lat="42.173200625996685" lon="19.99351718115385"><ele>901.3333333333333</ele><time>2026-05-04T08:48:52Z</time></trkpt><trkpt lat="42.1732577341609" lon="19.993754702672557"><ele>895.6666666666667</ele><time>2026-05-04T08:48:53Z</time></trkpt><trkpt lat="42.17332986126997" lon="19.994003616031907"><ele>890.0</ele><time>2026-05-04T08:48:54Z</time></trkpt><trkpt lat="42.173413143934035" lon="19.994248239755866"><ele>890.0</ele><time>2026-05-04T08:48:55Z</time></trkpt><trkpt lat="42.173503713531105" lon="19.994486908019294"><ele>890.0</ele><time>2026-05-04T08:48:56Z</time></trkpt><trkpt lat="42.173608382299896" lon="19.994714132821922"><ele>890.0</ele><time>2026-05-04T08:48:57Z</time></trkpt><trkpt lat="42.17373310385627" lon="19.994933909729443"><ele>892.0</ele><time>2026-05-04T08:48:58Z</time></trkpt><trkpt lat="42.17385849997242" lon="19.99515295736834"><ele>894.0</ele><time>2026-05-04T08:48:59Z</time></trkpt><trkpt lat="42.173972937115565" lon="19.99538963726523"><ele>896.0</ele><time>2026-05-04T08:49:00Z</time></trkpt><trkpt lat="42.17407767492065" lon="19.995633154583892"><ele>887.3333333333334</ele><time>2026-05-04T08:49:01Z</time></trkpt><trkpt lat="42.17417918635558" lon="19.99587924481333"><ele>878.6666666666667</ele><time>2026-05-04T08:49:02Z</time></trkpt><trkpt lat="42.1742789286251" lon="19.99612733491109"><ele>870.0</ele><time>2026-05-04T08:49:03Z</time></trkpt><trkpt lat="42.174354664513864" lon="19.99634543470955"><ele>870.0</ele><time>2026-05-04T08:49:04Z</time></trkpt><trkpt lat="42.174402838498175" lon="19.996552085039124"><ele>870.0</ele><time>2026-05-04T08:49:05Z</time></trkpt><trkpt lat="42.17442074547212" lon="19.996791994321367"><ele>870.0</ele><time>2026-05-04T08:49:06Z</time></trkpt><trkpt lat="42.17443726896187" lon="19.997059259455703"><ele>870.0</ele><time>2026-05-04T08:49:07Z</time></trkpt><trkpt lat="42.1745031910484" lon="19.997329422569337"><ele>870.0</ele><time>2026-05-04T08:49:08Z</time></trkpt><trkpt lat="42.17459625404686" lon="19.997614695957573"><ele>870.0</ele><time>2026-05-04T08:49:09Z</time></trkpt><trkpt lat="42.174680362562015" lon="19.99791732276576"><ele>872.3333333333333</ele><time>2026-05-04T08:49:10Z</time></trkpt><trkpt lat="42.1747404076068" lon="19.998192822661284"><ele>874.6666666666666</ele><time>2026-05-04T08:49:11Z</time></trkpt><trkpt lat="42.17481471833933" lon="19.99842674105784"><ele>877.0</ele><time>2026-05-04T08:49:12Z</time></trkpt><trkpt lat="42.17493154285903" lon="19.998659661922712"><ele>870.5</ele><time>2026-05-04T08:49:13Z</time></trkpt><trkpt lat="42.17506238073727" lon="19.99892804445195"><ele>864.0</ele><time>2026-05-04T08:49:14Z</time></trkpt><trkpt lat="42.175188062128925" lon="19.99923123871849"><ele>864.0</ele><time>2026-05-04T08:49:15Z</time></trkpt><trkpt lat="42.17530968800969" lon="19.99954845417593"><ele>864.0</ele><time>2026-05-04T08:49:16Z</time></trkpt><trkpt lat="42.17544108791659" lon="19.99986529115728"><ele>864.0</ele><time>2026-05-04T08:49:17Z</time></trkpt><trkpt lat="42.175592753914955" lon="20.00017723678822"><ele>864.0</ele><time>2026-05-04T08:49:18Z</time></trkpt><trkpt lat="42.175758472918325" lon="20.00048716788114"><ele>852.5</ele><time>2026-05-04T08:49:19Z</time></trkpt><trkpt lat="42.17592604616338" lon="20.000800256815513"><ele>841.0</ele><time>2026-05-04T08:49:20Z</time></trkpt><trkpt lat="42.17607985444291" lon="20.00113292871462"><ele>841.0</ele><time>2026-05-04T08:49:21Z</time></trkpt><trkpt lat="42.17622839733405" lon="20.001495719596488"><ele>841.0</ele><time>2026-05-04T08:49:22Z</time></trkpt><trkpt lat="42.1763741627578" lon="20.001873533024394"><ele>843.0</ele><time>2026-05-04T08:49:23Z</time></trkpt><trkpt lat="42.176503563522104" lon="20.00221052172546"><ele>845.0</ele><time>2026-05-04T08:49:24Z</time></trkpt><trkpt lat="42.17661645680872" lon="20.002506775232"><ele>838.6666666666667</ele><time>2026-05-04T08:49:25Z</time></trkpt><trkpt lat="42.176718809230124" lon="20.00277696957805"><ele>832.3333333333333</ele><time>2026-05-04T08:49:26Z</time></trkpt><trkpt lat="42.17680337065987" lon="20.00304701751249"><ele>826.0</ele><time>2026-05-04T08:49:27Z</time></trkpt><trkpt lat="42.17686347233727" lon="20.003332012103797"><ele>826.0</ele><time>2026-05-04T08:49:28Z</time></trkpt><trkpt lat="42.176922433645494" lon="20.003603582168445"><ele>826.0</ele><time>2026-05-04T08:49:29Z</time></trkpt><trkpt lat="42.17699246895737" lon="20.00384480466304"><ele>826.0</ele><time>2026-05-04T08:49:30Z</time></trkpt><trkpt lat="42.177058161069446" lon="20.00405539936528"><ele>826.5</ele><time>2026-05-04T08:49:31Z</time></trkpt><trkpt lat="42.17709690677473" lon="20.0042314816573"><ele>827.0</ele><time>2026-05-04T08:49:32Z</time></trkpt><trkpt lat="42.17711292575116" lon="20.004364878344777"><ele>827.5</ele><time>2026-05-04T08:49:33Z</time></trkpt><trkpt lat="42.17717311347739" lon="20.00446667310231"><ele>828.0</ele><time>2026-05-04T08:49:35Z</time></trkpt><trkpt lat="42.177263623318446" lon="20.004333722614806"><ele>828.0</ele><time>2026-05-04T08:49:37Z</time></trkpt><trkpt lat="42.177281135330006" lon="20.004175940833612"><ele>828.0</ele><time>2026-05-04T08:49:38Z</time></trkpt><trkpt lat="42.17728614582942" lon="20.003954961676797"><ele>828.0</ele><time>2026-05-04T08:49:39Z</time></trkpt><trkpt lat="42.177307144263786" lon="20.003745778549547"><ele>828.0</ele><time>2026-05-04T08:49:40Z</time></trkpt><trkpt lat="42.17735568572328" lon="20.00351169101693"><ele>819.0</ele><time>2026-05-04T08:49:41Z</time></trkpt><trkpt lat="42.17742561069326" lon="20.003268494858244"><ele>810.0</ele><time>2026-05-04T08:49:42Z</time></trkpt><trkpt lat="42.17751068889427" lon="20.003057631254574"><ele>801.0</ele><time>2026-05-04T08:49:43Z</time></trkpt><trkpt lat="42.17762659837265" lon="20.002893654281277"><ele>801.0</ele><time>2026-05-04T08:49:44Z</time></trkpt><trkpt lat="42.177782758059045" lon="20.002737072429948"><ele>801.0</ele><time>2026-05-04T08:49:45Z</time></trkpt><trkpt lat="42.17794550504676" lon="20.00253691449247"><ele>801.0</ele><time>2026-05-04T08:49:46Z</time></trkpt><trkpt lat="42.178098308219944" lon="20.002296516702756"><ele>798.0</ele><time>2026-05-04T08:49:47Z</time></trkpt><trkpt lat="42.178218328482274" lon="20.002087024798886"><ele>795.0</ele><time>2026-05-04T08:49:48Z</time></trkpt><trkpt lat="42.17833011503535" lon="20.001934101903174"><ele>792.0</ele><time>2026-05-04T08:49:49Z</time></trkpt><trkpt lat="42.178473477762665" lon="20.00182772019159"><ele>792.0</ele><time>2026-05-04T08:49:50Z</time></trkpt><trkpt lat="42.17866452295044" lon="20.001756392518637"><ele>792.0</ele><time>2026-05-04T08:49:51Z</time></trkpt><trkpt lat="42.178884949074174" lon="20.0016837672346"><ele>792.0</ele><time>2026-05-04T08:49:52Z</time></trkpt><trkpt lat="42.17911600467941" lon="20.00157391271647"><ele>793.5</ele><time>2026-05-04T08:49:53Z</time></trkpt><trkpt lat="42.17934724579952" lon="20.001414694012208"><ele>795.0</ele><time>2026-05-04T08:49:54Z</time></trkpt><trkpt lat="42.1795719785173" lon="20.0012218006285"><ele>795.0</ele><time>2026-05-04T08:49:55Z</time></trkpt><trkpt lat="42.17980803846382" lon="20.0010300775636"><ele>795.0</ele><time>2026-05-04T08:49:56Z</time></trkpt><trkpt lat="42.1800364577133" lon="20.00089432717426"><ele>795.0</ele><time>2026-05-04T08:49:57Z</time></trkpt><trkpt lat="42.180248622472284" lon="20.000795640692466"><ele>795.0</ele><time>2026-05-04T08:49:58Z</time></trkpt><trkpt lat="42.180427626621125" lon="20.000690015232"><ele>795.0</ele><time>2026-05-04T08:49:59Z</time></trkpt><trkpt lat="42.1805871329747" lon="20.000544179093534"><ele>788.3333333333333</ele><time>2026-05-04T08:50:00Z</time></trkpt><trkpt lat="42.18074374329743" lon="20.00035221342139"><ele>781.6666666666666</ele><time>2026-05-04T08:50:01Z</time></trkpt><trkpt lat="42.18091635130793" lon="20.00015213204402"><ele>775.0</ele><time>2026-05-04T08:50:02Z</time></trkpt><trkpt lat="42.18110040823337" lon="19.999951491226472"><ele>775.0</ele><time>2026-05-04T08:50:03Z</time></trkpt><trkpt lat="42.18127970611008" lon="19.999736606675135"><ele>775.0</ele><time>2026-05-04T08:50:04Z</time></trkpt><trkpt lat="42.181438468086796" lon="19.9995017893416"><ele>766.5</ele><time>2026-05-04T08:50:05Z</time></trkpt><trkpt lat="42.18158328300266" lon="19.999232307458733"><ele>758.0</ele><time>2026-05-04T08:50:06Z</time></trkpt><trkpt lat="42.18171141494565" lon="19.998942451702614"><ele>758.0</ele><time>2026-05-04T08:50:07Z</time></trkpt><trkpt lat="42.18182525896076" lon="19.998630318722387"><ele>758.0</ele><time>2026-05-04T08:50:08Z</time></trkpt><trkpt lat="42.18193302912291" lon="19.998296412140363"><ele>759.5</ele><time>2026-05-04T08:50:09Z</time></trkpt><trkpt lat="42.18204979015314" lon="19.99796589568554"><ele>761.0</ele><time>2026-05-04T08:50:10Z</time></trkpt><trkpt lat="42.18216656329955" lon="19.997676607069476"><ele>762.0</ele><time>2026-05-04T08:50:11Z</time></trkpt><trkpt lat="42.18225511455836" lon="19.997438740581284"><ele>763.0</ele><time>2026-05-04T08:50:12Z</time></trkpt><trkpt lat="42.18230923213453" lon="19.997242357404005"><ele>764.0</ele><time>2026-05-04T08:50:13Z</time></trkpt><trkpt lat="42.182334995008596" lon="19.997031234133633"><ele>764.0</ele><time>2026-05-04T08:50:14Z</time></trkpt><trkpt lat="42.18233274442397" lon="19.996766742623183"><ele>764.0</ele><time>2026-05-04T08:50:15Z</time></trkpt><trkpt lat="42.182350373417904" lon="19.996459620716223"><ele>764.0</ele><time>2026-05-04T08:50:16Z</time></trkpt><trkpt lat="42.18241367301912" lon="19.996125799996246"><ele>753.5</ele><time>2026-05-04T08:50:17Z</time></trkpt><trkpt lat="42.18250392741485" lon="19.995791186423073"><ele>743.0</ele><time>2026-05-04T08:50:18Z</time></trkpt><trkpt lat="42.18261117039409" lon="19.99546688815265"><ele>743.0</ele><time>2026-05-04T08:50:19Z</time></trkpt><trkpt lat="42.182702605325886" lon="19.995163420206364"><ele>743.0</ele><time>2026-05-04T08:50:20Z</time></trkpt><trkpt lat="42.18276344203912" lon="19.994889742740373"><ele>743.0</ele><time>2026-05-04T08:50:21Z</time></trkpt><trkpt lat="42.18281810373495" lon="19.99462097239637"><ele>743.0</ele><time>2026-05-04T08:50:22Z</time></trkpt><trkpt lat="42.182865325172415" lon="19.994375017661522"><ele>743.0</ele><time>2026-05-04T08:50:23Z</time></trkpt><trkpt lat="42.182892964247024" lon="19.99416995242297"><ele>742.5</ele><time>2026-05-04T08:50:24Z</time></trkpt><trkpt lat="42.18292953726734" lon="19.99400938412963"><ele>742.0</ele><time>2026-05-04T08:50:25Z</time></trkpt><trkpt lat="42.18299522912853" lon="19.993893123932473"><ele>741.5</ele><time>2026-05-04T08:50:26Z</time></trkpt><trkpt lat="42.18310078327721" lon="19.993801687075557"><ele>741.0</ele><time>2026-05-04T08:50:27Z</time></trkpt><trkpt lat="42.18323453300641" lon="19.993728097191727"><ele>738.3333333333334</ele><time>2026-05-04T08:50:28Z</time></trkpt><trkpt lat="42.183385165182" lon="19.993683113679346"><ele>735.6666666666667</ele><time>2026-05-04T08:50:29Z</time></trkpt><trkpt lat="42.18354635454835" lon="19.99368291018931"><ele>733.0</ele><time>2026-05-04T08:50:30Z</time></trkpt><trkpt lat="42.18370702335765" lon="19.99374378975398"><ele>733.0</ele><time>2026-05-04T08:50:31Z</time></trkpt><trkpt lat="42.18387317609703" lon="19.993850262989564"><ele>733.0</ele><time>2026-05-04T08:50:32Z</time></trkpt><trkpt lat="42.18404700230068" lon="19.99395506224906"><ele>733.0</ele><time>2026-05-04T08:50:33Z</time></trkpt><trkpt lat="42.18421857391432" lon="19.994037835495636"><ele>732.3333333333334</ele><time>2026-05-04T08:50:34Z</time></trkpt><trkpt lat="42.18438208025652" lon="19.994109878676888"><ele>731.6666666666666</ele><time>2026-05-04T08:50:35Z</time></trkpt><trkpt lat="42.18453012388162" lon="19.994191881885328"><ele>731.0</ele><time>2026-05-04T08:50:36Z</time></trkpt><trkpt lat="42.18467333268499" lon="19.994270117114645"><ele>731.0</ele><time>2026-05-04T08:50:37Z</time></trkpt><trkpt lat="42.1848167181724" lon="19.99434943688092"><ele>731.0</ele><time>2026-05-04T08:50:38Z</time></trkpt><trkpt lat="42.184955719534706" lon="19.994431454885017"><ele>731.0</ele><time>2026-05-04T08:50:39Z</time></trkpt><trkpt lat="42.18509347482134" lon="19.994518077217165"><ele>730.6666666666666</ele><time>2026-05-04T08:50:39.999Z</time></trkpt><trkpt lat="42.18522670011741" lon="19.994614758780333"><ele>730.3333333333334</ele><time>2026-05-04T08:50:40.998Z</time></trkpt><trkpt lat="42.185351909762424" lon="19.994734941335942"><ele>730.0</ele><time>2026-05-04T08:50:41.998Z</time></trkpt><trkpt lat="42.185465572334415" lon="19.99488843347256"><ele>730.3333333333334</ele><time>2026-05-04T08:50:42.998Z</time></trkpt><trkpt lat="42.18557361954304" lon="19.995065455252433"><ele>730.6666666666666</ele><time>2026-05-04T08:50:43.998Z</time></trkpt><trkpt lat="42.18568266521918" lon="19.995247139096477"><ele>731.0</ele><time>2026-05-04T08:50:44.998Z</time></trkpt><trkpt lat="42.18579140368144" lon="19.995432543811557"><ele>731.3333333333333</ele><time>2026-05-04T08:50:45.998Z</time></trkpt><trkpt lat="42.18590513876817" lon="19.995623334154025"><ele>731.6666666666666</ele><time>2026-05-04T08:50:47Z</time></trkpt><trkpt lat="42.18601642380626" lon="19.995806077487792"><ele>732.0</ele><time>2026-05-04T08:50:48Z</time></trkpt><trkpt lat="42.18613847829052" lon="19.99597444797935"><ele>733.0</ele><time>2026-05-04T08:50:49Z</time></trkpt><trkpt lat="42.18626147347469" lon="19.99612015169952"><ele>734.0</ele><time>2026-05-04T08:50:50Z</time></trkpt><trkpt lat="42.186369291122105" lon="19.996235428189465"><ele>735.0</ele><time>2026-05-04T08:50:51Z</time></trkpt><trkpt lat="42.186450341536926" lon="19.99631653774271"><ele>736.0</ele><time>2026-05-04T08:50:52Z</time></trkpt><trkpt lat="42.18650395158772" lon="19.996364119102868"><ele>735.8333333333334</ele><time>2026-05-04T08:50:53Z</time></trkpt><trkpt lat="42.186586172478094" lon="19.99641533832296"><ele>735.6666666666667</ele><time>2026-05-04T08:50:55Z</time></trkpt><trkpt lat="42.186654241581124" lon="19.996436963414894"><ele>735.5</ele><time>2026-05-04T08:50:58Z</time></trkpt><trkpt lat="42.18670506782992" lon="19.996488903712326"><ele>735.3333333333334</ele><time>2026-05-04T08:51:30.999Z</time></trkpt><trkpt lat="42.186763929249985" lon="19.996561543457652"><ele>735.1666666666666</ele><time>2026-05-04T08:51:32.999Z</time></trkpt><trkpt lat="42.18687802414811" lon="19.99666830692965"><ele>735.0</ele><time>2026-05-04T08:51:34.999Z</time></trkpt><trkpt lat="42.1869425256714" lon="19.99676411896327"><ele>735.0</ele><time>2026-05-04T08:51:35.999Z</time></trkpt><trkpt lat="42.18701674847384" lon="19.99688062254941"><ele>735.0</ele><time>2026-05-04T08:51:36.999Z</time></trkpt><trkpt lat="42.18708876079622" lon="19.997018190439743"><ele>735.0</ele><time>2026-05-04T08:51:37.999Z</time></trkpt><trkpt lat="42.18715362225994" lon="19.997162441601414"><ele>735.0</ele><time>2026-05-04T08:51:38.999Z</time></trkpt><trkpt lat="42.18721808230587" lon="19.997274024485"><ele>735.0</ele><time>2026-05-04T08:51:39.999Z</time></trkpt><trkpt lat="42.18729748955736" lon="19.997329884251712"><ele>735.0</ele><time>2026-05-04T08:51:40.999Z</time></trkpt><trkpt lat="42.187394214290414" lon="19.997337815734806"><ele>735.0</ele><time>2026-05-04T08:51:41.999Z</time></trkpt><trkpt lat="42.18749702385468" lon="19.997335993951594"><ele>735.0</ele><time>2026-05-04T08:51:42.999Z</time></trkpt><trkpt lat="42.18760445171258" lon="19.9973367956178"><ele>735.0</ele><time>2026-05-04T08:51:43.999Z</time></trkpt><trkpt lat="42.187707625743165" lon="19.99733922503834"><ele>734.6</ele><time>2026-05-04T08:51:44.999Z</time></trkpt><trkpt lat="42.187814877763586" lon="19.997339639516703"><ele>734.2</ele><time>2026-05-04T08:51:45.999Z</time></trkpt><trkpt lat="42.1879204017677" lon="19.997335583633248"><ele>733.8</ele><time>2026-05-04T08:51:46.999Z</time></trkpt><trkpt lat="42.188024601806916" lon="19.997341977979307"><ele>733.4</ele><time>2026-05-04T08:51:47.999Z</time></trkpt><trkpt lat="42.1881259096034" lon="19.997356184731345"><ele>733.0</ele><time>2026-05-04T08:51:48.999Z</time></trkpt><trkpt lat="42.18822986098401" lon="19.997367078884924"><ele>732.4</ele><time>2026-05-04T08:51:49.999Z</time></trkpt><trkpt lat="42.1883366624907" lon="19.997379977519326"><ele>731.8</ele><time>2026-05-04T08:51:50.999Z</time></trkpt><trkpt lat="42.18844246872273" lon="19.99740250721003"><ele>731.2</ele><time>2026-05-04T08:51:51.999Z</time></trkpt><trkpt lat="42.18854581844909" lon="19.997429710439278"><ele>730.6</ele><time>2026-05-04T08:51:52.999Z</time></trkpt><trkpt lat="42.18865087937513" lon="19.997455914287766"><ele>730.0</ele><time>2026-05-04T08:51:53.999Z</time></trkpt><trkpt lat="42.18873842626685" lon="19.997484751426825"><ele>730.8333333333334</ele><time>2026-05-04T08:51:54.999Z</time></trkpt><trkpt lat="42.18881750130481" lon="19.99750567515752"><ele>731.6666666666667</ele><time>2026-05-04T08:51:55.999Z</time></trkpt><trkpt lat="42.188880640244484" lon="19.99751923601135"><ele>732.5</ele><time>2026-05-04T08:51:56.999Z</time></trkpt><trkpt lat="42.1889513832324" lon="19.99755259024697"><ele>733.3333333333334</ele><time>2026-05-04T08:51:59.999Z</time></trkpt><trkpt lat="42.189021755127555" lon="19.99758072985887"><ele>734.1666666666666</ele><time>2026-05-04T08:52:09.999Z</time></trkpt><trkpt lat="42.18913350862333" lon="19.9976619780963"><ele>735.0</ele><time>2026-05-04T08:52:11.999Z</time></trkpt><trkpt lat="42.18919951737372" lon="19.997715016717862"><ele>735.1666666666666</ele><time>2026-05-04T08:52:12.999Z</time></trkpt><trkpt lat="42.18926904915403" lon="19.99777233386717"><ele>735.3333333333334</ele><time>2026-05-04T08:52:13.999Z</time></trkpt><trkpt lat="42.18934005576977" lon="19.997821608132234"><ele>735.5</ele><time>2026-05-04T08:52:14.999Z</time></trkpt><trkpt lat="42.18941355696638" lon="19.997881758740984"><ele>735.6666666666667</ele><time>2026-05-04T08:52:15.999Z</time></trkpt><trkpt lat="42.18948515747254" lon="19.997951338709218"><ele>735.8333333333334</ele><time>2026-05-04T08:52:16.999Z</time></trkpt><trkpt lat="42.189557618994314" lon="19.99802170170952"><ele>736.0</ele><time>2026-05-04T08:52:17.999Z</time></trkpt><trkpt lat="42.1896212673813" lon="19.998067135140772"><ele>736.0</ele><time>2026-05-04T08:52:18.999Z</time></trkpt><trkpt lat="42.189694591752755" lon="19.99809086701856"><ele>736.0</ele><time>2026-05-04T08:52:19.999Z</time></trkpt><trkpt lat="42.18978373084305" lon="19.99810614074177"><ele>736.0</ele><time>2026-05-04T08:52:20.999Z</time></trkpt><trkpt lat="42.18987292036279" lon="19.998140392889916"><ele>736.0</ele><time>2026-05-04T08:52:21.999Z</time></trkpt><trkpt lat="42.18996098558565" lon="19.99819719597333"><ele>736.0</ele><time>2026-05-04T08:52:23.999Z</time></trkpt><trkpt lat="42.19001743995841" lon="19.99823644883036"><ele>736.0</ele><time>2026-05-04T08:52:24.999Z</time></trkpt><trkpt lat="42.19011646768124" lon="19.99833512857651"><ele>735.6666666666667</ele><time>2026-05-04T08:52:26.999Z</time></trkpt><trkpt lat="42.190179260338276" lon="19.99842122499654"><ele>735.3333333333334</ele><time>2026-05-04T08:52:27.999Z</time></trkpt><trkpt lat="42.19023779203533" lon="19.998494712683918"><ele>735.0</ele><time>2026-05-04T08:52:28.999Z</time></trkpt><trkpt lat="42.190299431206114" lon="19.998555295860953"><ele>734.6666666666666</ele><time>2026-05-04T08:52:29.999Z</time></trkpt><trkpt lat="42.19037105635899" lon="19.998606661148198"><ele>734.3333333333333</ele><time>2026-05-04T08:52:30.999Z</time></trkpt><trkpt lat="42.1904352604595" lon="19.998650938730236"><ele>734.0</ele><time>2026-05-04T08:52:31.999Z</time></trkpt><trkpt lat="42.19050329601359" lon="19.998728899157275"><ele>734.0</ele><time>2026-05-04T08:52:32.999Z</time></trkpt><trkpt lat="42.19055058491337" lon="19.998800690041072"><ele>734.0</ele><time>2026-05-04T08:52:33.999Z</time></trkpt><trkpt lat="42.19061631996949" lon="19.9988490395895"><ele>734.0</ele><time>2026-05-04T08:52:34.999Z</time></trkpt><trkpt lat="42.19070728372531" lon="19.99887198161638"><ele>734.0</ele><time>2026-05-04T08:52:35.999Z</time></trkpt><trkpt lat="42.190790416915455" lon="19.998916765821743"><ele>734.0</ele><time>2026-05-04T08:52:36.999Z</time></trkpt><trkpt lat="42.19085926799286" lon="19.998990679246358"><ele>734.0</ele><time>2026-05-04T08:52:37.999Z</time></trkpt><trkpt lat="42.19092150847587" lon="19.999052818972316"><ele>733.6666666666666</ele><time>2026-05-04T08:52:38.999Z</time></trkpt><trkpt lat="42.19098694667167" lon="19.9990780876369"><ele>733.3333333333333</ele><time>2026-05-04T08:52:39.999Z</time></trkpt><trkpt lat="42.19106529322432" lon="19.999101341921698"><ele>733.0</ele><time>2026-05-04T08:52:40.999Z</time></trkpt><trkpt lat="42.19114437532702" lon="19.99912300213943"><ele>732.6666666666666</ele><time>2026-05-04T08:52:41.999Z</time></trkpt><trkpt lat="42.19119878081994" lon="19.999178925620157"><ele>732.3333333333334</ele><time>2026-05-04T08:52:42.999Z</time></trkpt><trkpt lat="42.19126555917761" lon="19.999296367617507"><ele>732.0</ele><time>2026-05-04T08:52:44.999Z</time></trkpt><trkpt lat="42.19129474499159" lon="19.999407303571555"><ele>732.0</ele><time>2026-05-04T08:52:46.999Z</time></trkpt><trkpt lat="42.19139120809999" lon="19.999407337515304"><ele>732.0</ele><time>2026-05-04T08:53:34Z</time></trkpt><trkpt lat="42.19143622521745" lon="19.999347528677358"><ele>732.0</ele><time>2026-05-04T08:53:35Z</time></trkpt><trkpt lat="42.19146025746722" lon="19.999268437766943"><ele>732.0</ele><time>2026-05-04T08:53:36Z</time></trkpt><trkpt lat="42.19147412146822" lon="19.999174505857205"><ele>732.0</ele><time>2026-05-04T08:53:37Z</time></trkpt><trkpt lat="42.19147353639365" lon="19.9990687136114"><ele>732.0</ele><time>2026-05-04T08:53:38Z</time></trkpt><trkpt lat="42.19144537081932" lon="19.998968841981085"><ele>732.0</ele><time>2026-05-04T08:53:39Z</time></trkpt><trkpt lat="42.191397199611544" lon="19.998892995696686"><ele>732.0</ele><time>2026-05-04T08:53:40Z</time></trkpt><trkpt lat="42.191347139269574" lon="19.998824463156225"><ele>732.0</ele><time>2026-05-04T08:53:41Z</time></trkpt><trkpt lat="42.191286653328675" lon="19.998768571590638"><ele>732.0</ele><time>2026-05-04T08:53:42Z</time></trkpt><trkpt lat="42.19122361769068" lon="19.998704887962127"><ele>732.0</ele><time>2026-05-04T08:53:43Z</time></trkpt><trkpt lat="42.191181936599484" lon="19.998592375977893"><ele>732.0</ele><time>2026-05-04T08:53:45Z</time></trkpt><trkpt lat="42.1912058772815" lon="19.99848264088531"><ele>732.0</ele><time>2026-05-04T08:53:47Z</time></trkpt><trkpt lat="42.19127938584732" lon="19.998455868981633"><ele>732.0</ele><time>2026-05-04T08:53:49Z</time></trkpt><trkpt lat="42.19134906562358" lon="19.998462494225596"><ele>732.0</ele><time>2026-05-04T08:53:50Z</time></trkpt><trkpt lat="42.1914108536351" lon="19.998524977653965"><ele>732.0</ele><time>2026-05-04T08:53:51Z</time></trkpt><trkpt lat="42.19147199577377" lon="19.998599046924202"><ele>732.0</ele><time>2026-05-04T08:53:52Z</time></trkpt><trkpt lat="42.19153455208232" lon="19.99865134086559"><ele>732.0</ele><time>2026-05-04T08:53:52.999Z</time></trkpt><trkpt lat="42.19160798310079" lon="19.998698906818646"><ele>733.4000000000001</ele><time>2026-05-04T08:53:53.999Z</time></trkpt><trkpt lat="42.191678364847746" lon="19.998724242511873"><ele>734.8000000000001</ele><time>2026-05-04T08:53:54.999Z</time></trkpt><trkpt lat="42.19175806461" lon="19.99875226921071"><ele>736.2</ele><time>2026-05-04T08:53:56.999Z</time></trkpt><trkpt lat="42.191872232716065" lon="19.998783446330144"><ele>737.6</ele><time>2026-05-04T08:53:58.999Z</time></trkpt><trkpt lat="42.19196540155472" lon="19.998716966260744"><ele>739.0</ele><time>2026-05-04T08:54:00.999Z</time></trkpt><trkpt lat="42.192019757007635" lon="19.99862230015841"><ele>739.0</ele><time>2026-05-04T08:54:02.999Z</time></trkpt><trkpt lat="42.19208820787947" lon="19.998533698725932"><ele>739.0</ele><time>2026-05-04T08:54:04.999Z</time></trkpt><trkpt lat="42.19213271601206" lon="19.998468762403267"><ele>739.0</ele><time>2026-05-04T08:54:05.999Z</time></trkpt><trkpt lat="42.192180998824945" lon="19.998403683259454"><ele>739.0</ele><time>2026-05-04T08:54:06.999Z</time></trkpt><trkpt lat="42.19224008835956" lon="19.998335307978977"><ele>739.0</ele><time>2026-05-04T08:54:07.999Z</time></trkpt><trkpt lat="42.19231018420267" lon="19.998254769651496"><ele>739.0</ele><time>2026-05-04T08:54:08.999Z</time></trkpt><trkpt lat="42.19237024571954" lon="19.99818819236206"><ele>743.0</ele><time>2026-05-04T08:54:09.999Z</time></trkpt><trkpt lat="42.19242462643106" lon="19.99814120021024"><ele>747.0</ele><time>2026-05-04T08:54:10.999Z</time></trkpt><trkpt lat="42.19254923445996" lon="19.998109414734245"><ele>751.0</ele><time>2026-05-04T08:54:12.999Z</time></trkpt><trkpt lat="42.19262910787295" lon="19.998106842824644"><ele>755.0</ele><time>2026-05-04T08:54:13.999Z</time></trkpt><trkpt lat="42.192725734092654" lon="19.998094574875218"><ele>759.0</ele><time>2026-05-04T08:54:14.999Z</time></trkpt><trkpt lat="42.19281463747466" lon="19.998065569481035"><ele>759.0</ele><time>2026-05-04T08:54:15.999Z</time></trkpt><trkpt lat="42.19290254707901" lon="19.998038077721745"><ele>759.0</ele><time>2026-05-04T08:54:16.999Z</time></trkpt><trkpt lat="42.19296665064273" lon="19.998008699989445"><ele>759.0</ele><time>2026-05-04T08:54:17.999Z</time></trkpt><trkpt lat="42.1930413511424" lon="19.997978584693353"><ele>759.0</ele><time>2026-05-04T08:54:18.999Z</time></trkpt><trkpt lat="42.19316122240475" lon="19.997970592435582"><ele>759.0</ele><time>2026-05-04T08:54:20.999Z</time></trkpt><trkpt lat="42.193236787803755" lon="19.99797827996055"><ele>759.0</ele><time>2026-05-04T08:54:21.999Z</time></trkpt><trkpt lat="42.19331241870614" lon="19.99801906620492"><ele>760.1666666666666</ele><time>2026-05-04T08:54:22.999Z</time></trkpt><trkpt lat="42.19338613716592" lon="19.998068390470234"><ele>761.3333333333334</ele><time>2026-05-04T08:54:23.999Z</time></trkpt><trkpt lat="42.19345007606936" lon="19.998106512626695"><ele>762.5</ele><time>2026-05-04T08:54:24.999Z</time></trkpt><trkpt lat="42.19353684876636" lon="19.998134263819694"><ele>763.6666666666667</ele><time>2026-05-04T08:54:25.999Z</time></trkpt><trkpt lat="42.19362511855201" lon="19.998157198478726"><ele>764.8333333333334</ele><time>2026-05-04T08:54:26.999Z</time></trkpt><trkpt lat="42.19369337751529" lon="19.998177824131076"><ele>766.0</ele><time>2026-05-04T08:54:27.999Z</time></trkpt><trkpt lat="42.193788223318506" lon="19.99821280765777"><ele>766.0</ele><time>2026-05-04T08:54:28.999Z</time></trkpt><trkpt lat="42.19386624572074" lon="19.998229067408616"><ele>766.0</ele><time>2026-05-04T08:54:29.999Z</time></trkpt><trkpt lat="42.19395884745598" lon="19.998245869521423"><ele>766.0</ele><time>2026-05-04T08:54:30.999Z</time></trkpt><trkpt lat="42.19404957524194" lon="19.998243576832046"><ele>766.0</ele><time>2026-05-04T08:54:31.999Z</time></trkpt><trkpt lat="42.19413268218725" lon="19.9982450906353"><ele>766.0</ele><time>2026-05-04T08:54:33.999Z</time></trkpt><trkpt lat="42.194229318157674" lon="19.998283864793564"><ele>766.0</ele><time>2026-05-04T08:54:36.999Z</time></trkpt><trkpt lat="42.194334419369085" lon="19.99834120366718"><ele>766.0</ele><time>2026-05-04T08:54:38.999Z</time></trkpt><trkpt lat="42.194459430583564" lon="19.99834153393794"><ele>766.0</ele><time>2026-05-04T08:54:40.999Z</time></trkpt><trkpt lat="42.19452558221203" lon="19.998341316288666"><ele>766.0</ele><time>2026-05-04T08:54:41.999Z</time></trkpt><trkpt lat="42.19464038770931" lon="19.998376566510156"><ele>766.0</ele><time>2026-05-04T08:54:43.999Z</time></trkpt><trkpt lat="42.194707296818386" lon="19.99842163155026"><ele>766.0</ele><time>2026-05-04T08:54:44.999Z</time></trkpt><trkpt lat="42.194785847568824" lon="19.998446090063027"><ele>768.0</ele><time>2026-05-04T08:54:45.999Z</time></trkpt><trkpt lat="42.194887613531414" lon="19.998470893925287"><ele>770.0</ele><time>2026-05-04T08:54:46.999Z</time></trkpt><trkpt lat="42.19497017026115" lon="19.99852862765824"><ele>772.0</ele><time>2026-05-04T08:54:47.999Z</time></trkpt><trkpt lat="42.195057257752765" lon="19.998613755583612"><ele>774.0</ele><time>2026-05-04T08:54:48.999Z</time></trkpt><trkpt lat="42.1951467575986" lon="19.998733526949458"><ele>776.0</ele><time>2026-05-04T08:54:49.999Z</time></trkpt><trkpt lat="42.19524812682174" lon="19.9988358410062"><ele>776.0</ele><time>2026-05-04T08:54:50.999Z</time></trkpt><trkpt lat="42.19536531344228" lon="19.998921494759625"><ele>776.0</ele><time>2026-05-04T08:54:51.999Z</time></trkpt><trkpt lat="42.19547646112758" lon="19.99901552679405"><ele>776.0</ele><time>2026-05-04T08:54:52.999Z</time></trkpt><trkpt lat="42.19558589002391" lon="19.99911023285933"><ele>776.0</ele><time>2026-05-04T08:54:53.999Z</time></trkpt><trkpt lat="42.1957006915176" lon="19.999203112305253"><ele>776.75</ele><time>2026-05-04T08:54:54.999Z</time></trkpt><trkpt lat="42.19582054604407" lon="19.999287288630516"><ele>777.5</ele><time>2026-05-04T08:54:55.999Z</time></trkpt><trkpt lat="42.19591961861841" lon="19.999365654635426"><ele>778.25</ele><time>2026-05-04T08:54:56.999Z</time></trkpt><trkpt lat="42.196023785621755" lon="19.999433072452792"><ele>779.0</ele><time>2026-05-04T08:54:57.999Z</time></trkpt><trkpt lat="42.19613677333763" lon="19.999490491301152"><ele>779.0</ele><time>2026-05-04T08:54:59Z</time></trkpt><trkpt lat="42.19624557579873" lon="19.9995565916888"><ele>779.0</ele><time>2026-05-04T08:55:00Z</time></trkpt><trkpt lat="42.19635522512568" lon="19.999630185360747"><ele>779.0</ele><time>2026-05-04T08:55:01Z</time></trkpt><trkpt lat="42.196458334489314" lon="19.999695587665634"><ele>779.0</ele><time>2026-05-04T08:55:02Z</time></trkpt><trkpt lat="42.19657018823801" lon="19.99976931284815"><ele>782.0</ele><time>2026-05-04T08:55:03Z</time></trkpt><trkpt lat="42.19667052695245" lon="19.999834510888746"><ele>785.0</ele><time>2026-05-04T08:55:04Z</time></trkpt><trkpt lat="42.19676140253515" lon="19.99988152244248"><ele>788.0</ele><time>2026-05-04T08:55:05Z</time></trkpt><trkpt lat="42.196854735115394" lon="19.999918742647957"><ele>791.0</ele><time>2026-05-04T08:55:06Z</time></trkpt><trkpt lat="42.196942194633266" lon="19.999970043753375"><ele>794.0</ele><time>2026-05-04T08:55:07Z</time></trkpt><trkpt lat="42.19702334362519" lon="20.000023649680518"><ele>794.0000000000001</ele><time>2026-05-04T08:55:08Z</time></trkpt><trkpt lat="42.19711107984608" lon="20.000046233925875"><ele>794.0</ele><time>2026-05-04T08:55:09Z</time></trkpt><trkpt lat="42.19720705858742" lon="20.000036270822374"><ele>794.0</ele><time>2026-05-04T08:55:10Z</time></trkpt><trkpt lat="42.19729762230524" lon="20.000021448302927"><ele>794.0</ele><time>2026-05-04T08:55:11Z</time></trkpt><trkpt lat="42.19738133097633" lon="20.000034648721016"><ele>794.0000000000001</ele><time>2026-05-04T08:55:12Z</time></trkpt><trkpt lat="42.19744943415594" lon="20.000057514234033"><ele>794.0</ele><time>2026-05-04T08:55:13Z</time></trkpt><trkpt lat="42.19753593896847" lon="20.00006870212083"><ele>795.8000000000001</ele><time>2026-05-04T08:55:14Z</time></trkpt><trkpt lat="42.197634168884505" lon="20.000066038813102"><ele>797.6</ele><time>2026-05-04T08:55:15Z</time></trkpt><trkpt lat="42.19775026976546" lon="20.000053208990977"><ele>799.4</ele><time>2026-05-04T08:55:16Z</time></trkpt><trkpt lat="42.19785126219926" lon="20.000018654511944"><ele>801.2</ele><time>2026-05-04T08:55:17Z</time></trkpt><trkpt lat="42.19796302663818" lon="19.9999728392543"><ele>803.0</ele><time>2026-05-04T08:55:18Z</time></trkpt><trkpt lat="42.198062991693966" lon="19.999909255295606"><ele>803.0</ele><time>2026-05-04T08:55:19Z</time></trkpt><trkpt lat="42.19816694187893" lon="19.999823778823806"><ele>803.0</ele><time>2026-05-04T08:55:20Z</time></trkpt><trkpt lat="42.1982662365238" lon="19.999732659916827"><ele>803.0</ele><time>2026-05-04T08:55:21Z</time></trkpt><trkpt lat="42.198362565763176" lon="19.99963926814252"><ele>803.0</ele><time>2026-05-04T08:55:22Z</time></trkpt><trkpt lat="42.19845450777893" lon="19.999548914168304"><ele>803.8</ele><time>2026-05-04T08:55:23Z</time></trkpt><trkpt lat="42.19852664903089" lon="19.9994523861231"><ele>804.5999999999999</ele><time>2026-05-04T08:55:24Z</time></trkpt><trkpt lat="42.19859370755608" lon="19.999338942977698"><ele>805.4000000000001</ele><time>2026-05-04T08:55:25Z</time></trkpt><trkpt lat="42.198652620295896" lon="19.999198568366783"><ele>806.2</ele><time>2026-05-04T08:55:26Z</time></trkpt><trkpt lat="42.19869471982672" lon="19.99904638483909"><ele>807.0</ele><time>2026-05-04T08:55:27Z</time></trkpt><trkpt lat="42.19874862036851" lon="19.998903332281582"><ele>809.8</ele><time>2026-05-04T08:55:28Z</time></trkpt><trkpt lat="42.198792106624325" lon="19.99878119242594"><ele>812.6</ele><time>2026-05-04T08:55:29Z</time></trkpt><trkpt lat="42.19883154804626" lon="19.9986787378476"><ele>815.4</ele><time>2026-05-04T08:55:30Z</time></trkpt><trkpt lat="42.19887932973372" lon="19.998590590928547"><ele>818.1999999999999</ele><time>2026-05-04T08:55:31Z</time></trkpt><trkpt lat="42.19894452259338" lon="19.998467278945636"><ele>821.0</ele><time>2026-05-04T08:55:32Z</time></trkpt><trkpt lat="42.19900988866153" lon="19.998329368280267"><ele>821.1999999999999</ele><time>2026-05-04T08:55:33Z</time></trkpt><trkpt lat="42.19907120564066" lon="19.998196562828905"><ele>821.4</ele><time>2026-05-04T08:55:34Z</time></trkpt><trkpt lat="42.199115127394066" lon="19.998054979728416"><ele>821.6</ele><time>2026-05-04T08:55:35Z</time></trkpt><trkpt lat="42.199160720694344" lon="19.99792287270821"><ele>821.8</ele><time>2026-05-04T08:55:36Z</time></trkpt><trkpt lat="42.199198677766184" lon="19.997823348430394"><ele>822.0</ele><time>2026-05-04T08:55:37Z</time></trkpt><trkpt lat="42.19927941682089" lon="19.997742881197702"><ele>822.0</ele><time>2026-05-04T08:55:39Z</time></trkpt><trkpt lat="42.199378804904164" lon="19.997803168409224"><ele>822.0</ele><time>2026-05-04T08:55:41Z</time></trkpt><trkpt lat="42.19945531091159" lon="19.99785981210209"><ele>822.0</ele><time>2026-05-04T08:55:42Z</time></trkpt><trkpt lat="42.19954982536916" lon="19.99793946208042"><ele>822.0</ele><time>2026-05-04T08:55:43Z</time></trkpt><trkpt lat="42.19960704333625" lon="19.99802160610591"><ele>822.0</ele><time>2026-05-04T08:55:44Z</time></trkpt><trkpt lat="42.19967529788276" lon="19.998137884917337"><ele>822.0</ele><time>2026-05-04T08:55:45Z</time></trkpt><trkpt lat="42.19974276518786" lon="19.998265749030573"><ele>822.0</ele><time>2026-05-04T08:55:46Z</time></trkpt><trkpt lat="42.19979793348662" lon="19.99839910799296"><ele>822.0</ele><time>2026-05-04T08:55:47Z</time></trkpt><trkpt lat="42.199830945654554" lon="19.99851318264062"><ele>822.0</ele><time>2026-05-04T08:55:48Z</time></trkpt><trkpt lat="42.1998318707117" lon="19.998620896800496"><ele>822.0</ele><time>2026-05-04T08:55:49Z</time></trkpt><trkpt lat="42.19984589552517" lon="19.99871941274852"><ele>824.4000000000001</ele><time>2026-05-04T08:55:51Z</time></trkpt><trkpt lat="42.199927228284935" lon="19.998677934975845"><ele>826.8000000000001</ele><time>2026-05-04T08:55:53Z</time></trkpt><trkpt lat="42.19998226464583" lon="19.998600068808944"><ele>829.2</ele><time>2026-05-04T08:55:54Z</time></trkpt><trkpt lat="42.20004436484457" lon="19.998513544517017"><ele>831.6</ele><time>2026-05-04T08:55:55Z</time></trkpt><trkpt lat="42.20009980956342" lon="19.998398442755004"><ele>834.0</ele><time>2026-05-04T08:55:56Z</time></trkpt><trkpt lat="42.200141991011385" lon="19.99826141937423"><ele>834.0</ele><time>2026-05-04T08:55:57Z</time></trkpt><trkpt lat="42.20016470146989" lon="19.99815561875613"><ele>834.0</ele><time>2026-05-04T08:55:58Z</time></trkpt><trkpt lat="42.200134853260984" lon="19.998022015940258"><ele>834.0</ele><time>2026-05-04T08:56:00Z</time></trkpt><trkpt lat="42.20007881523201" lon="19.99795045615864"><ele>834.0</ele><time>2026-05-04T08:56:01Z</time></trkpt><trkpt lat="42.200047409243936" lon="19.997856671543033"><ele>834.0</ele><time>2026-05-04T08:56:02Z</time></trkpt><trkpt lat="42.20003201485289" lon="19.997726824796192"><ele>834.0</ele><time>2026-05-04T08:56:03Z</time></trkpt><trkpt lat="42.20003719000297" lon="19.997582237539362"><ele>835.0</ele><time>2026-05-04T08:56:04Z</time></trkpt><trkpt lat="42.200053196191796" lon="19.997442749418827"><ele>836.0</ele><time>2026-05-04T08:56:05Z</time></trkpt><trkpt lat="42.20007364795223" lon="19.997303519231753"><ele>837.0</ele><time>2026-05-04T08:56:06Z</time></trkpt><trkpt lat="42.20008072249638" lon="19.997140237830347"><ele>838.0</ele><time>2026-05-04T08:56:07Z</time></trkpt><trkpt lat="42.20007901753201" lon="19.996969014111492"><ele>838.0</ele><time>2026-05-04T08:56:08Z</time></trkpt><trkpt lat="42.20006906350888" lon="19.99679377904569"><ele>838.0</ele><time>2026-05-04T08:56:09Z</time></trkpt><trkpt lat="42.200076507422864" lon="19.996628239042213"><ele>838.0</ele><time>2026-05-04T08:56:10Z</time></trkpt><trkpt lat="42.20008937426391" lon="19.99649184197499"><ele>838.0</ele><time>2026-05-04T08:56:11Z</time></trkpt><trkpt lat="42.20010337130139" lon="19.99640761510994"><ele>838.0</ele><time>2026-05-04T08:56:12Z</time></trkpt><trkpt lat="42.20021313481178" lon="19.996362578293997"><ele>838.5999999999999</ele><time>2026-05-04T08:56:14Z</time></trkpt><trkpt lat="42.20030163352644" lon="19.996348437527264"><ele>839.1999999999999</ele><time>2026-05-04T08:56:15Z</time></trkpt><trkpt lat="42.200390422291186" lon="19.996337611797035"><ele>839.8</ele><time>2026-05-04T08:56:16Z</time></trkpt><trkpt lat="42.20048106687837" lon="19.996280716790764"><ele>840.4</ele><time>2026-05-04T08:56:17Z</time></trkpt><trkpt lat="42.20057201848182" lon="19.996208906838024"><ele>841.0</ele><time>2026-05-04T08:56:18Z</time></trkpt><trkpt lat="42.20065034563974" lon="19.996106231924447"><ele>844.25</ele><time>2026-05-04T08:56:19Z</time></trkpt><trkpt lat="42.20071937702884" lon="19.995984778231012"><ele>847.5</ele><time>2026-05-04T08:56:20Z</time></trkpt><trkpt lat="42.200781185248246" lon="19.995851125852912"><ele>850.75</ele><time>2026-05-04T08:56:21Z</time></trkpt><trkpt lat="42.2008428454432" lon="19.995709948971683"><ele>854.0</ele><time>2026-05-04T08:56:22Z</time></trkpt><trkpt lat="42.20091931581299" lon="19.99560372831634"><ele>854.2</ele><time>2026-05-04T08:56:23Z</time></trkpt><trkpt lat="42.20100006975753" lon="19.995554276799243"><ele>854.4000000000001</ele><time>2026-05-04T08:56:24Z</time></trkpt><trkpt lat="42.201102550476755" lon="19.995551024152626"><ele>854.6</ele><time>2026-05-04T08:56:26Z</time></trkpt><trkpt lat="42.201194029796696" lon="19.995561334986817"><ele>854.8</ele><time>2026-05-04T08:56:27Z</time></trkpt><trkpt lat="42.20128861555365" lon="19.99558919783155"><ele>855.0</ele><time>2026-05-04T08:56:28Z</time></trkpt><trkpt lat="42.20137900908188" lon="19.995617587282588"><ele>855.0</ele><time>2026-05-04T08:56:29Z</time></trkpt><trkpt lat="42.20147221351939" lon="19.99563821493179"><ele>855.0</ele><time>2026-05-04T08:56:30Z</time></trkpt><trkpt lat="42.20156850956305" lon="19.995649899285983"><ele>855.0</ele><time>2026-05-04T08:56:31Z</time></trkpt><trkpt lat="42.201660103973566" lon="19.995639125090626"><ele>855.0</ele><time>2026-05-04T08:56:31.999Z</time></trkpt><trkpt lat="42.20174678892924" lon="19.995609034434356"><ele>855.0</ele><time>2026-05-04T08:56:32.999Z</time></trkpt><trkpt lat="42.20183526892296" lon="19.995591994847384"><ele>856.8</ele><time>2026-05-04T08:56:33.999Z</time></trkpt><trkpt lat="42.20193434520988" lon="19.99560980367345"><ele>858.6</ele><time>2026-05-04T08:56:34.999Z</time></trkpt><trkpt lat="42.20203681353342" lon="19.995614995866923"><ele>860.4000000000001</ele><time>2026-05-04T08:56:35.999Z</time></trkpt><trkpt lat="42.202130474381576" lon="19.995574362122788"><ele>862.2</ele><time>2026-05-04T08:56:36.999Z</time></trkpt><trkpt lat="42.202219759019556" lon="19.995535457854096"><ele>864.0</ele><time>2026-05-04T08:56:37.999Z</time></trkpt><trkpt lat="42.20231706504763" lon="19.99550748120781"><ele>865.6666666666666</ele><time>2026-05-04T08:56:38.999Z</time></trkpt><trkpt lat="42.202414302964804" lon="19.99547233597219"><ele>867.3333333333333</ele><time>2026-05-04T08:56:39.999Z</time></trkpt><trkpt lat="42.20250060353124" lon="19.995418129823985"><ele>869.0</ele><time>2026-05-04T08:56:40.999Z</time></trkpt><trkpt lat="42.20256350276325" lon="19.995339354717224"><ele>870.6666666666666</ele><time>2026-05-04T08:56:41.999Z</time></trkpt><trkpt lat="42.202596413621414" lon="19.9952303845668"><ele>872.3333333333333</ele><time>2026-05-04T08:56:42.999Z</time></trkpt><trkpt lat="42.202585692454235" lon="19.995143393225337"><ele>874.0</ele><time>2026-05-04T08:56:43.999Z</time></trkpt><trkpt lat="42.20254467315369" lon="19.995070317192507"><ele>874.0</ele><time>2026-05-04T08:56:44.999Z</time></trkpt><trkpt lat="42.20250140460619" lon="19.99497856830333"><ele>874.0000000000001</ele><time>2026-05-04T08:56:45.999Z</time></trkpt><trkpt lat="42.20247042154524" lon="19.994899525445962"><ele>874.0000000000001</ele><time>2026-05-04T08:56:46.999Z</time></trkpt><trkpt lat="42.20251269624266" lon="19.99481028288064"><ele>874.0</ele><time>2026-05-04T08:56:48.999Z</time></trkpt><trkpt lat="42.20264466917255" lon="19.99475233055293"><ele>874.0</ele><time>2026-05-04T08:56:50.999Z</time></trkpt><trkpt lat="42.2027392839608" lon="19.994715420622292"><ele>873.9999999999999</ele><time>2026-05-04T08:56:51.999Z</time></trkpt><trkpt lat="42.20281315988662" lon="19.9946608629384"><ele>874.0</ele><time>2026-05-04T08:56:52.999Z</time></trkpt><trkpt lat="42.20285898011999" lon="19.99457090213014"><ele>874.0</ele><time>2026-05-04T08:56:54.999Z</time></trkpt><trkpt lat="42.20282342232863" lon="19.99464817872887"><ele>874.0</ele><time>2026-05-04T08:58:08Z</time></trkpt><trkpt lat="42.2028669317034" lon="19.994564591157975"><ele>873.9999999999999</ele><time>2026-05-04T08:58:46.999Z</time></trkpt><trkpt lat="42.202925995842556" lon="19.994442237341715"><ele>874.0</ele><time>2026-05-04T08:58:49.999Z</time></trkpt><trkpt lat="42.20297213668888" lon="19.99434714370726"><ele>873.9999999999999</ele><time>2026-05-04T08:58:50.999Z</time></trkpt><trkpt lat="42.203015078740926" lon="19.99426289525908"><ele>874.0</ele><time>2026-05-04T08:58:51.999Z</time></trkpt><trkpt lat="42.203069390202636" lon="19.99421245439731"><ele>874.0</ele><time>2026-05-04T08:58:52.999Z</time></trkpt><trkpt lat="42.20314091857586" lon="19.994209927642967"><ele>874.0</ele><time>2026-05-04T08:58:53.999Z</time></trkpt><trkpt lat="42.20323107139553" lon="19.994245970035067"><ele>873.9999999999999</ele><time>2026-05-04T08:58:54.999Z</time></trkpt><trkpt lat="42.20330619897621" lon="19.994294031642617"><ele>874.0</ele><time>2026-05-04T08:58:55.999Z</time></trkpt><trkpt lat="42.203378806329546" lon="19.99431044366936"><ele>876.4000000000001</ele><time>2026-05-04T08:58:56.999Z</time></trkpt><trkpt lat="42.20344697842007" lon="19.994244313318195"><ele>878.8000000000001</ele><time>2026-05-04T08:58:57.999Z</time></trkpt><trkpt lat="42.203517080094116" lon="19.994166963411065"><ele>881.1999999999999</ele><time>2026-05-04T08:58:58.999Z</time></trkpt><trkpt lat="42.20359176157502" lon="19.99405995762152"><ele>883.5999999999999</ele><time>2026-05-04T08:58:59.999Z</time></trkpt><trkpt lat="42.20366138657063" lon="19.993908723177316"><ele>886.0</ele><time>2026-05-04T08:59:00.999Z</time></trkpt><trkpt lat="42.203728275250874" lon="19.993741635254793"><ele>886.25</ele><time>2026-05-04T08:59:01.999Z</time></trkpt><trkpt lat="42.203807656830065" lon="19.993612218952283"><ele>886.5</ele><time>2026-05-04T08:59:02.999Z</time></trkpt><trkpt lat="42.203909382649634" lon="19.99348393870412"><ele>886.75</ele><time>2026-05-04T08:59:03.999Z</time></trkpt><trkpt lat="42.204027911446204" lon="19.993365570684233"><ele>887.0</ele><time>2026-05-04T08:59:04.999Z</time></trkpt><trkpt lat="42.20416087633488" lon="19.993246119386875"><ele>885.8</ele><time>2026-05-04T08:59:05.999Z</time></trkpt><trkpt lat="42.20427762945107" lon="19.993137827867585"><ele>884.6</ele><time>2026-05-04T08:59:06.999Z</time></trkpt><trkpt lat="42.20435422954229" lon="19.99305701774801"><ele>883.3999999999999</ele><time>2026-05-04T08:59:07.999Z</time></trkpt><trkpt lat="42.20443483122494" lon="19.993027569489097"><ele>882.1999999999999</ele><time>2026-05-04T08:59:08.999Z</time></trkpt><trkpt lat="42.20454798689609" lon="19.992981221580308"><ele>881.0</ele><time>2026-05-04T08:59:09.999Z</time></trkpt><trkpt lat="42.204639695288876" lon="19.992901613589122"><ele>881.0</ele><time>2026-05-04T08:59:10.999Z</time></trkpt><trkpt lat="42.20465660854518" lon="19.992806945518765"><ele>880.9999999999999</ele><time>2026-05-04T08:59:11.999Z</time></trkpt><trkpt lat="42.20469008567092" lon="19.99268737850603"><ele>880.9999999999999</ele><time>2026-05-04T08:59:12.999Z</time></trkpt><trkpt lat="42.20471327526075" lon="19.99255983125728"><ele>881.0</ele><time>2026-05-04T08:59:13.999Z</time></trkpt><trkpt lat="42.20472702358024" lon="19.992407244256402"><ele>881.0</ele><time>2026-05-04T08:59:14.999Z</time></trkpt><trkpt lat="42.2047527449166" lon="19.992236046004468"><ele>881.0000000000001</ele><time>2026-05-04T08:59:15.999Z</time></trkpt><trkpt lat="42.2048275543984" lon="19.992134041997247"><ele>881.0</ele><time>2026-05-04T08:59:16.999Z</time></trkpt><trkpt lat="42.204896418249945" lon="19.99208669468732"><ele>881.0</ele><time>2026-05-04T08:59:17.999Z</time></trkpt><trkpt lat="42.20495293748676" lon="19.992026319054307"><ele>881.0</ele><time>2026-05-04T08:59:18.999Z</time></trkpt><trkpt lat="42.20498702882659" lon="19.99192088657105"><ele>881.0000000000001</ele><time>2026-05-04T08:59:19.999Z</time></trkpt><trkpt lat="42.20502136716636" lon="19.991784283908792"><ele>881.0</ele><time>2026-05-04T08:59:20.999Z</time></trkpt><trkpt lat="42.205082846620414" lon="19.991665371223412"><ele>881.5</ele><time>2026-05-04T08:59:21.999Z</time></trkpt><trkpt lat="42.205158819121415" lon="19.991585706522457"><ele>882.0</ele><time>2026-05-04T08:59:22.999Z</time></trkpt><trkpt lat="42.20525802334829" lon="19.991527394799117"><ele>882.5</ele><time>2026-05-04T08:59:23.999Z</time></trkpt><trkpt lat="42.20539208043387" lon="19.991473420348935"><ele>883.0</ele><time>2026-05-04T08:59:24.999Z</time></trkpt><trkpt lat="42.20553294130099" lon="19.991406004712537"><ele>883.0</ele><time>2026-05-04T08:59:25.999Z</time></trkpt><trkpt lat="42.20561541488507" lon="19.99136246472703"><ele>883.0</ele><time>2026-05-04T08:59:26.999Z</time></trkpt><trkpt lat="42.20566545391564" lon="19.991309475191315"><ele>883.0</ele><time>2026-05-04T08:59:27.999Z</time></trkpt><trkpt lat="42.20569802954827" lon="19.991219896388127"><ele>883.0</ele><time>2026-05-04T08:59:28.999Z</time></trkpt><trkpt lat="42.20575403257466" lon="19.991101021312446"><ele>883.0</ele><time>2026-05-04T08:59:29.999Z</time></trkpt><trkpt lat="42.20584872360085" lon="19.99099155319604"><ele>882.75</ele><time>2026-05-04T08:59:31.999Z</time></trkpt><trkpt lat="42.20593870828269" lon="19.990955710357444"><ele>882.5</ele><time>2026-05-04T08:59:32.999Z</time></trkpt><trkpt lat="42.2060615736584" lon="19.990971743350514"><ele>882.25</ele><time>2026-05-04T08:59:33.999Z</time></trkpt><trkpt lat="42.20619435982828" lon="19.9910229683901"><ele>882.0</ele><time>2026-05-04T08:59:34.999Z</time></trkpt><trkpt lat="42.206317704541725" lon="19.991073455457453"><ele>882.0</ele><time>2026-05-04T08:59:35.999Z</time></trkpt><trkpt lat="42.20642290486161" lon="19.99110353325504"><ele>882.0</ele><time>2026-05-04T08:59:36.999Z</time></trkpt><trkpt lat="42.20652415353928" lon="19.991104600766825"><ele>882.0</ele><time>2026-05-04T08:59:37.999Z</time></trkpt><trkpt lat="42.20664734430988" lon="19.991111674177567"><ele>882.0</ele><time>2026-05-04T08:59:38.999Z</time></trkpt><trkpt lat="42.206750388977255" lon="19.991166399687977"><ele>882.0</ele><time>2026-05-04T08:59:39.999Z</time></trkpt><trkpt lat="42.20684751640974" lon="19.99118601807611"><ele>882.8</ele><time>2026-05-04T08:59:40.999Z</time></trkpt><trkpt lat="42.20693297005036" lon="19.99115394142394"><ele>883.6</ele><time>2026-05-04T08:59:41.999Z</time></trkpt><trkpt lat="42.207014150289915" lon="19.991077750772387"><ele>884.3999999999999</ele><time>2026-05-04T08:59:42.999Z</time></trkpt><trkpt lat="42.207089009547275" lon="19.990980985187928"><ele>885.1999999999999</ele><time>2026-05-04T08:59:43.999Z</time></trkpt><trkpt lat="42.20716122858303" lon="19.990878477399914"><ele>886.0</ele><time>2026-05-04T08:59:44.999Z</time></trkpt><trkpt lat="42.20723281745171" lon="19.990796156462775"><ele>886.4</ele><time>2026-05-04T08:59:45.999Z</time></trkpt><trkpt lat="42.20730676585535" lon="19.99072297166277"><ele>886.8</ele><time>2026-05-04T08:59:46.999Z</time></trkpt><trkpt lat="42.207387462805784" lon="19.990642761788013"><ele>887.1999999999999</ele><time>2026-05-04T08:59:47.999Z</time></trkpt><trkpt lat="42.20746287555802" lon="19.9905573523059"><ele>887.5999999999999</ele><time>2026-05-04T08:59:48.999Z</time></trkpt><trkpt lat="42.20752970990885" lon="19.990480823271085"><ele>888.0</ele><time>2026-05-04T08:59:49.999Z</time></trkpt><trkpt lat="42.20758876780618" lon="19.990423811690572"><ele>890.8</ele><time>2026-05-04T08:59:50.999Z</time></trkpt><trkpt lat="42.207721514732555" lon="19.990430649953623"><ele>893.5999999999999</ele><time>2026-05-04T08:59:52.999Z</time></trkpt><trkpt lat="42.20780161363974" lon="19.990468796074158"><ele>896.4000000000001</ele><time>2026-05-04T08:59:53.999Z</time></trkpt><trkpt lat="42.2078985694578" lon="19.990485020190533"><ele>899.2</ele><time>2026-05-04T08:59:54.999Z</time></trkpt><trkpt lat="42.208002322954" lon="19.990450470233373"><ele>902.0</ele><time>2026-05-04T08:59:55.999Z</time></trkpt><trkpt lat="42.20811371937917" lon="19.990424777530027"><ele>904.0</ele><time>2026-05-04T08:59:56.999Z</time></trkpt><trkpt lat="42.20820065508089" lon="19.990428589469264"><ele>906.0</ele><time>2026-05-04T08:59:57.999Z</time></trkpt><trkpt lat="42.20828666600502" lon="19.99044455045014"><ele>908.0</ele><time>2026-05-04T08:59:58.999Z</time></trkpt><trkpt lat="42.20836551529404" lon="19.990461851609055"><ele>910.0</ele><time>2026-05-04T08:59:59.999Z</time></trkpt><trkpt lat="42.20845395984199" lon="19.990432274156767"><ele>912.0</ele><time>2026-05-04T09:00:00.999Z</time></trkpt><trkpt lat="42.208559944320434" lon="19.990403188346086"><ele>912.0</ele><time>2026-05-04T09:00:01.999Z</time></trkpt><trkpt lat="42.208668539767" lon="19.99038754355731"><ele>912.0</ele><time>2026-05-04T09:00:02.999Z</time></trkpt><trkpt lat="42.20874897878148" lon="19.990402640808938"><ele>912.0</ele><time>2026-05-04T09:00:03.999Z</time></trkpt><trkpt lat="42.208870788572376" lon="19.99034477820318"><ele>912.0</ele><time>2026-05-04T09:00:05.999Z</time></trkpt><trkpt lat="42.20893717034861" lon="19.990280919875"><ele>912.0</ele><time>2026-05-04T09:00:06.999Z</time></trkpt><trkpt lat="42.209020365291344" lon="19.990241673151264"><ele>913.1666666666666</ele><time>2026-05-04T09:00:07.999Z</time></trkpt><trkpt lat="42.20910769756749" lon="19.990226146631095"><ele>914.3333333333333</ele><time>2026-05-04T09:00:08.999Z</time></trkpt><trkpt lat="42.20919493142027" lon="19.99030057237434"><ele>915.5</ele><time>2026-05-04T09:00:10.999Z</time></trkpt><trkpt lat="42.20925208327995" lon="19.990388022715855"><ele>916.6666666666666</ele><time>2026-05-04T09:00:11.999Z</time></trkpt><trkpt lat="42.20930089527961" lon="19.990458687641585"><ele>917.8333333333333</ele><time>2026-05-04T09:00:12.999Z</time></trkpt><trkpt lat="42.20937666367196" lon="19.990513472582222"><ele>919.0</ele><time>2026-05-04T09:00:13.999Z</time></trkpt><trkpt lat="42.20946267536879" lon="19.990542302888578"><ele>918.9999999999999</ele><time>2026-05-04T09:00:14.999Z</time></trkpt><trkpt lat="42.209537922776384" lon="19.99053642187464"><ele>919.0</ele><time>2026-05-04T09:00:15.999Z</time></trkpt><trkpt lat="42.209619623413424" lon="19.990452194106627"><ele>919.0</ele><time>2026-05-04T09:00:17.999Z</time></trkpt><trkpt lat="42.209727125983704" lon="19.990377772058512"><ele>919.0</ele><time>2026-05-04T09:00:19.999Z</time></trkpt><trkpt lat="42.20980413955555" lon="19.990383963821486"><ele>918.9999999999999</ele><time>2026-05-04T09:00:20.999Z</time></trkpt><trkpt lat="42.20987198840812" lon="19.990372814589808"><ele>919.0</ele><time>2026-05-04T09:00:21.999Z</time></trkpt><trkpt lat="42.20992967556492" lon="19.990337746259694"><ele>919.6666666666666</ele><time>2026-05-04T09:00:22.999Z</time></trkpt><trkpt lat="42.20999838636074" lon="19.990283090137055"><ele>920.3333333333333</ele><time>2026-05-04T09:00:23.999Z</time></trkpt><trkpt lat="42.210083529489324" lon="19.99020613585055"><ele>921.0</ele><time>2026-05-04T09:00:24.999Z</time></trkpt><trkpt lat="42.210151407739524" lon="19.99014154838713"><ele>921.6666666666667</ele><time>2026-05-04T09:00:25.999Z</time></trkpt><trkpt lat="42.21024355709493" lon="19.99006225771875"><ele>922.3333333333334</ele><time>2026-05-04T09:00:27.999Z</time></trkpt><trkpt lat="42.210301649573125" lon="19.99001887747758"><ele>923.0</ele><time>2026-05-04T09:00:28.999Z</time></trkpt><trkpt lat="42.210369866953826" lon="19.989967511456914"><ele>923.0000000000001</ele><time>2026-05-04T09:00:29.999Z</time></trkpt><trkpt lat="42.210438466063586" lon="19.98992287870196"><ele>923.0</ele><time>2026-05-04T09:00:30.999Z</time></trkpt><trkpt lat="42.210508810339206" lon="19.989892161088644"><ele>923.0</ele><time>2026-05-04T09:00:31.999Z</time></trkpt><trkpt lat="42.210585100386055" lon="19.98983657026398"><ele>923.0</ele><time>2026-05-04T09:00:32.999Z</time></trkpt><trkpt lat="42.21065293869024" lon="19.989789689920954"><ele>923.0000000000001</ele><time>2026-05-04T09:00:33.999Z</time></trkpt><trkpt lat="42.210717647423145" lon="19.989748184521922"><ele>923.0</ele><time>2026-05-04T09:00:34.999Z</time></trkpt><trkpt lat="42.21078082268105" lon="19.989712199656022"><ele>924.6666666666667</ele><time>2026-05-04T09:00:35.999Z</time></trkpt><trkpt lat="42.21087728766507" lon="19.989641301465696"><ele>926.3333333333334</ele><time>2026-05-04T09:00:37.999Z</time></trkpt><trkpt lat="42.21093590985755" lon="19.98958253674765"><ele>928.0</ele><time>2026-05-04T09:00:38.999Z</time></trkpt><trkpt lat="42.21098842488583" lon="19.989504955319784"><ele>929.6666666666667</ele><time>2026-05-04T09:00:39.999Z</time></trkpt><trkpt lat="42.21102714523882" lon="19.98942769926091"><ele>931.3333333333334</ele><time>2026-05-04T09:00:40.999Z</time></trkpt><trkpt lat="42.2110724878634" lon="19.98932595095094"><ele>933.0</ele><time>2026-05-04T09:00:41.999Z</time></trkpt><trkpt lat="42.21111761276664" lon="19.989258085928242"><ele>933.0</ele><time>2026-05-04T09:00:42.999Z</time></trkpt><trkpt lat="42.21116736577433" lon="19.989196426800074"><ele>933.0</ele><time>2026-05-04T09:00:43.999Z</time></trkpt><trkpt lat="42.21125509963185" lon="19.98910918056511"><ele>933.0</ele><time>2026-05-04T09:00:45.999Z</time></trkpt><trkpt lat="42.211185084766996" lon="19.989187987856106"><ele>933.0</ele><time>2026-05-04T09:01:12.999Z</time></trkpt><trkpt lat="42.21112255997864" lon="19.98928533345091"><ele>933.0</ele><time>2026-05-04T09:01:13.999Z</time></trkpt><trkpt lat="42.2110434336317" lon="19.98942428402194"><ele>933.0</ele><time>2026-05-04T09:01:14.999Z</time></trkpt><trkpt lat="42.210991696778095" lon="19.989524870621732"><ele>933.0</ele><time>2026-05-04T09:01:16Z</time></trkpt><trkpt lat="42.21095158417711" lon="19.989624124739006"><ele>933.0</ele><time>2026-05-04T09:01:17Z</time></trkpt><trkpt lat="42.21089871727833" lon="19.989747540542876"><ele>933.0</ele><time>2026-05-04T09:01:18Z</time></trkpt><trkpt lat="42.21083529670668" lon="19.989845965553496"><ele>933.0</ele><time>2026-05-04T09:01:19Z</time></trkpt><trkpt lat="42.210751829734335" lon="19.989910749241638"><ele>933.0</ele><time>2026-05-04T09:01:20Z</time></trkpt><trkpt lat="42.21067021774404" lon="19.98997504812771"><ele>933.0</ele><time>2026-05-04T09:01:21Z</time></trkpt><trkpt lat="42.21061212386227" lon="19.990062368763372"><ele>933.0</ele><time>2026-05-04T09:01:22Z</time></trkpt><trkpt lat="42.21055676054907" lon="19.990175404733588"><ele>933.0</ele><time>2026-05-04T09:01:23Z</time></trkpt><trkpt lat="42.2105178382088" lon="19.990271806298374"><ele>933.0</ele><time>2026-05-04T09:01:24Z</time></trkpt><trkpt lat="42.21047602886389" lon="19.99036832243318"><ele>933.0</ele><time>2026-05-04T09:01:25Z</time></trkpt><trkpt lat="42.21043722770532" lon="19.990477073122328"><ele>932.8</ele><time>2026-05-04T09:01:26Z</time></trkpt><trkpt lat="42.210410705567874" lon="19.990578385890757"><ele>932.5999999999999</ele><time>2026-05-04T09:01:27Z</time></trkpt><trkpt lat="42.21041832450955" lon="19.990743660903735"><ele>932.4000000000001</ele><time>2026-05-04T09:01:29Z</time></trkpt><trkpt lat="42.210446701973446" lon="19.990858373700053"><ele>932.2</ele><time>2026-05-04T09:01:30Z</time></trkpt><trkpt lat="42.21047666776376" lon="19.990990917687068"><ele>932.0</ele><time>2026-05-04T09:01:31Z</time></trkpt><trkpt lat="42.21047679298543" lon="19.99112023638303"><ele>932.0</ele><time>2026-05-04T09:01:32Z</time></trkpt><trkpt lat="42.21042999381874" lon="19.991218295162124"><ele>932.0</ele><time>2026-05-04T09:01:33Z</time></trkpt><trkpt lat="42.210407244721914" lon="19.991329890985472"><ele>932.0</ele><time>2026-05-04T09:01:34Z</time></trkpt><trkpt lat="42.21040856903685" lon="19.99148940201579"><ele>932.0</ele><time>2026-05-04T09:01:35Z</time></trkpt><trkpt lat="42.21043856202528" lon="19.991625043529332"><ele>932.0</ele><time>2026-05-04T09:01:36Z</time></trkpt><trkpt lat="42.2104419817935" lon="19.991779985852155"><ele>933.2</ele><time>2026-05-04T09:01:37Z</time></trkpt><trkpt lat="42.21042653583423" lon="19.991928776789063"><ele>934.4000000000001</ele><time>2026-05-04T09:01:38Z</time></trkpt><trkpt lat="42.21041037787018" lon="19.992068331447978"><ele>935.5999999999999</ele><time>2026-05-04T09:01:39Z</time></trkpt><trkpt lat="42.21040591672506" lon="19.99217678065729"><ele>936.8</ele><time>2026-05-04T09:01:40Z</time></trkpt><trkpt lat="42.21039600580376" lon="19.992286622588146"><ele>938.0</ele><time>2026-05-04T09:01:41Z</time></trkpt><trkpt lat="42.210415855663584" lon="19.992407448097904"><ele>938.2</ele><time>2026-05-04T09:01:42Z</time></trkpt><trkpt lat="42.21044953329856" lon="19.99253054234529"><ele>938.4</ele><time>2026-05-04T09:01:43Z</time></trkpt><trkpt lat="42.21050418193024" lon="19.99267120851599"><ele>938.6000000000001</ele><time>2026-05-04T09:01:44Z</time></trkpt><trkpt lat="42.21055304777915" lon="19.99280376189522"><ele>938.8000000000001</ele><time>2026-05-04T09:01:45Z</time></trkpt><trkpt lat="42.210609322752006" lon="19.992902438180746"><ele>939.0</ele><time>2026-05-04T09:01:46Z</time></trkpt><trkpt lat="42.21070198255333" lon="19.993029410640627"><ele>938.4000000000001</ele><time>2026-05-04T09:01:47Z</time></trkpt><trkpt lat="42.210789973117336" lon="19.99316259866385"><ele>937.8000000000001</ele><time>2026-05-04T09:01:48Z</time></trkpt><trkpt lat="42.21087905226616" lon="19.9932904292586"><ele>937.1999999999999</ele><time>2026-05-04T09:01:49Z</time></trkpt><trkpt lat="42.21095610495202" lon="19.993399949654993"><ele>936.5999999999999</ele><time>2026-05-04T09:01:50Z</time></trkpt><trkpt lat="42.21102387166335" lon="19.993441124462123"><ele>936.0</ele><time>2026-05-04T09:01:51Z</time></trkpt><trkpt lat="42.211110790978196" lon="19.993463091287264"><ele>934.3333333333334</ele><time>2026-05-04T09:01:52Z</time></trkpt><trkpt lat="42.21120136671519" lon="19.99347170543798"><ele>932.6666666666667</ele><time>2026-05-04T09:01:53Z</time></trkpt><trkpt lat="42.211289529279654" lon="19.99345773011386"><ele>931.0</ele><time>2026-05-04T09:01:54Z</time></trkpt><trkpt lat="42.211379341237134" lon="19.99348580200765"><ele>929.3333333333334</ele><time>2026-05-04T09:01:56Z</time></trkpt><trkpt lat="42.211437698436555" lon="19.993520916484457"><ele>927.6666666666667</ele><time>2026-05-04T09:01:58Z</time></trkpt><trkpt lat="42.211536721929484" lon="19.993546851105055"><ele>926.0</ele><time>2026-05-04T09:02:00Z</time></trkpt><trkpt lat="42.21160015392678" lon="19.993564823130583"><ele>926.0000000000001</ele><time>2026-05-04T09:02:01Z</time></trkpt><trkpt lat="42.21166280205463" lon="19.993547387576285"><ele>926.0</ele><time>2026-05-04T09:02:02Z</time></trkpt><trkpt lat="42.21173068089644" lon="19.993500782070374"><ele>926.0</ele><time>2026-05-04T09:02:03Z</time></trkpt><trkpt lat="42.21179502286819" lon="19.9934342515607"><ele>926.0</ele><time>2026-05-04T09:02:04Z</time></trkpt><trkpt lat="42.21186380753489" lon="19.993409957174944"><ele>926.0000000000001</ele><time>2026-05-04T09:02:05Z</time></trkpt><trkpt lat="42.21194464467121" lon="19.99346035106147"><ele>926.0</ele><time>2026-05-04T09:02:06Z</time></trkpt><trkpt lat="42.21201639251768" lon="19.99354284565527"><ele>926.0</ele><time>2026-05-04T09:02:07Z</time></trkpt><trkpt lat="42.21208498703561" lon="19.993646234504663"><ele>925.9999999999999</ele><time>2026-05-04T09:02:08Z</time></trkpt><trkpt lat="42.21216658262937" lon="19.99374130499008"><ele>925.9999999999999</ele><time>2026-05-04T09:02:08.999Z</time></trkpt><trkpt lat="42.21223858216426" lon="19.993826853811587"><ele>926.0</ele><time>2026-05-04T09:02:09.999Z</time></trkpt><trkpt lat="42.2123084693094" lon="19.993925172033645"><ele>926.0</ele><time>2026-05-04T09:02:10.999Z</time></trkpt><trkpt lat="42.2123903349551" lon="19.994050196317115"><ele>924.6666666666667</ele><time>2026-05-04T09:02:11.999Z</time></trkpt><trkpt lat="42.212469392282436" lon="19.994188906880716"><ele>923.3333333333334</ele><time>2026-05-04T09:02:12.999Z</time></trkpt><trkpt lat="42.21251625294997" lon="19.99426450738627"><ele>922.0</ele><time>2026-05-04T09:02:13.999Z</time></trkpt><trkpt lat="42.212575779670985" lon="19.994303521667064"><ele>920.6666666666667</ele><time>2026-05-04T09:02:14.999Z</time></trkpt><trkpt lat="42.21265554524022" lon="19.994328320807274"><ele>919.3333333333334</ele><time>2026-05-04T09:02:15.999Z</time></trkpt><trkpt lat="42.21274987136272" lon="19.994347600623374"><ele>918.0</ele><time>2026-05-04T09:02:16.999Z</time></trkpt><trkpt lat="42.212845818678176" lon="19.994361674932755"><ele>918.0</ele><time>2026-05-04T09:02:17.999Z</time></trkpt><trkpt lat="42.21295811972999" lon="19.994330936750707"><ele>918.0</ele><time>2026-05-04T09:02:18.999Z</time></trkpt><trkpt lat="42.213034601069126" lon="19.9942751545429"><ele>918.0</ele><time>2026-05-04T09:02:19.999Z</time></trkpt><trkpt lat="42.21308541815673" lon="19.994222807217543"><ele>918.0</ele><time>2026-05-04T09:02:20.999Z</time></trkpt><trkpt lat="42.21313806976676" lon="19.994170478286453"><ele>918.0</ele><time>2026-05-04T09:02:21.999Z</time></trkpt><trkpt lat="42.21321397205555" lon="19.99411090256832"><ele>918.0</ele><time>2026-05-04T09:02:23.999Z</time></trkpt><trkpt lat="42.213272210529404" lon="19.993965420268392"><ele>919.4</ele><time>2026-05-04T09:02:25.999Z</time></trkpt><trkpt lat="42.21330436095409" lon="19.993806484216456"><ele>920.8</ele><time>2026-05-04T09:02:27.999Z</time></trkpt><trkpt lat="42.21334860354287" lon="19.993733084420757"><ele>922.2</ele><time>2026-05-04T09:02:28.999Z</time></trkpt><trkpt lat="42.213400010026" lon="19.99367499615427"><ele>923.6</ele><time>2026-05-04T09:02:29.999Z</time></trkpt><trkpt lat="42.21350926676935" lon="19.993633511810383"><ele>925.0</ele><time>2026-05-04T09:02:31.999Z</time></trkpt><trkpt lat="42.213584994177985" lon="19.993654735313207"><ele>924.9999999999999</ele><time>2026-05-04T09:02:32.999Z</time></trkpt><trkpt lat="42.21364912576507" lon="19.993687382097132"><ele>925.0</ele><time>2026-05-04T09:02:33.999Z</time></trkpt><trkpt lat="42.213728937142136" lon="19.99369904620223"><ele>925.0</ele><time>2026-05-04T09:02:35.999Z</time></trkpt><trkpt lat="42.213797749418255" lon="19.993654039295645"><ele>925.0</ele><time>2026-05-04T09:02:38.999Z</time></trkpt><trkpt lat="42.21383856735592" lon="19.993572485932606"><ele>924.9999999999999</ele><time>2026-05-04T09:02:46.999Z</time></trkpt><trkpt lat="42.21389401387871" lon="19.99340924483248"><ele>925.0</ele><time>2026-05-04T09:02:48.999Z</time></trkpt><trkpt lat="42.213862938272094" lon="19.993258141249502"><ele>925.2</ele><time>2026-05-04T09:02:50.999Z</time></trkpt><trkpt lat="42.21382263575843" lon="19.993160126851528"><ele>925.4</ele><time>2026-05-04T09:02:51.999Z</time></trkpt><trkpt lat="42.213863296371834" lon="19.992980017137327"><ele>925.5999999999999</ele><time>2026-05-04T09:02:53.999Z</time></trkpt><trkpt lat="42.213929744737406" lon="19.992876785636227"><ele>925.8</ele><time>2026-05-04T09:02:54.999Z</time></trkpt><trkpt lat="42.214004321961276" lon="19.992807288819307"><ele>926.0</ele><time>2026-05-04T09:02:55.999Z</time></trkpt><trkpt lat="42.21409555957233" lon="19.99273947569754"><ele>926.0</ele><time>2026-05-04T09:02:56.999Z</time></trkpt><trkpt lat="42.21417345359397" lon="19.99265376768561"><ele>925.9999999999999</ele><time>2026-05-04T09:02:57.999Z</time></trkpt><trkpt lat="42.21421672913528" lon="19.992465212416057"><ele>925.9999999999999</ele><time>2026-05-04T09:02:59.999Z</time></trkpt><trkpt lat="42.21426261365755" lon="19.992359593603414"><ele>926.0</ele><time>2026-05-04T09:03:00.999Z</time></trkpt><trkpt lat="42.214316761365836" lon="19.992282933438307"><ele>926.0</ele><time>2026-05-04T09:03:01.999Z</time></trkpt><trkpt lat="42.21438015011732" lon="19.992255034741422"><ele>926.0000000000001</ele><time>2026-05-04T09:03:02.999Z</time></trkpt><trkpt lat="42.214444131351456" lon="19.992277914976686"><ele>926.0</ele><time>2026-05-04T09:03:03.999Z</time></trkpt><trkpt lat="42.21451519411636" lon="19.992337854817105"><ele>926.0</ele><time>2026-05-04T09:03:04.999Z</time></trkpt><trkpt lat="42.2145825904318" lon="19.992402745781824"><ele>926.0</ele><time>2026-05-04T09:03:05.999Z</time></trkpt><trkpt lat="42.21463768339744" lon="19.992501861359678"><ele>926.0000000000001</ele><time>2026-05-04T09:03:06.999Z</time></trkpt><trkpt lat="42.214687698303464" lon="19.992616247863683"><ele>926.0</ele><time>2026-05-04T09:03:07.999Z</time></trkpt><trkpt lat="42.21472438532124" lon="19.992731231152298"><ele>926.0</ele><time>2026-05-04T09:03:08.999Z</time></trkpt><trkpt lat="42.214769029203175" lon="19.99286975440717"><ele>925.9999999999999</ele><time>2026-05-04T09:03:09.999Z</time></trkpt><trkpt lat="42.21481950158432" lon="19.99299641471888"><ele>925.9999999999999</ele><time>2026-05-04T09:03:10.999Z</time></trkpt><trkpt lat="42.214886653854556" lon="19.99307618327091"><ele>926.0</ele><time>2026-05-04T09:03:12.999Z</time></trkpt><trkpt lat="42.21497533735307" lon="19.9930577790971"><ele>926.0</ele><time>2026-05-04T09:03:14.999Z</time></trkpt><trkpt lat="42.2150597437135" lon="19.993029454330564"><ele>927.1999999999999</ele><time>2026-05-04T09:03:15.999Z</time></trkpt><trkpt lat="42.21515075879319" lon="19.992976488159094"><ele>928.3999999999999</ele><time>2026-05-04T09:03:16.999Z</time></trkpt><trkpt lat="42.21524054518899" lon="19.992939133021626"><ele>929.6</ele><time>2026-05-04T09:03:17.999Z</time></trkpt><trkpt lat="42.21532981430766" lon="19.99289810440962"><ele>930.8</ele><time>2026-05-04T09:03:18.999Z</time></trkpt><trkpt lat="42.215409282008075" lon="19.99285490223843"><ele>932.0</ele><time>2026-05-04T09:03:19.999Z</time></trkpt><trkpt lat="42.215499447734224" lon="19.992802001856695"><ele>932.0</ele><time>2026-05-04T09:03:20.999Z</time></trkpt><trkpt lat="42.21558270725108" lon="19.992743452354276"><ele>932.0</ele><time>2026-05-04T09:03:22Z</time></trkpt><trkpt lat="42.21566678444721" lon="19.992648040413822"><ele>932.0</ele><time>2026-05-04T09:03:23Z</time></trkpt><trkpt lat="42.21574265829311" lon="19.99256643640229"><ele>932.0</ele><time>2026-05-04T09:03:24Z</time></trkpt><trkpt lat="42.21580527992466" lon="19.992490948534254"><ele>932.0</ele><time>2026-05-04T09:03:25Z</time></trkpt><trkpt lat="42.21585859068683" lon="19.992438474767685"><ele>936.5000000000001</ele><time>2026-05-04T09:03:26Z</time></trkpt><trkpt lat="42.215922923683706" lon="19.992380802668446"><ele>941.0</ele><time>2026-05-04T09:03:27Z</time></trkpt><trkpt lat="42.21598543483159" lon="19.992306599781177"><ele>945.5</ele><time>2026-05-04T09:03:28Z</time></trkpt><trkpt lat="42.21607912230498" lon="19.992234473846484"><ele>950.0</ele><time>2026-05-04T09:03:29Z</time></trkpt><trkpt lat="42.21616367426495" lon="19.992187343875816"><ele>954.5000000000001</ele><time>2026-05-04T09:03:30Z</time></trkpt><trkpt lat="42.21623546538463" lon="19.992159846519193"><ele>959.0</ele><time>2026-05-04T09:03:31Z</time></trkpt><trkpt lat="42.216360275074756" lon="19.992212533521162"><ele>959.0000000000001</ele><time>2026-05-04T09:03:33Z</time></trkpt><trkpt lat="42.21638145480362" lon="19.992318820047043"><ele>959.0</ele><time>2026-05-04T09:03:35Z</time></trkpt><trkpt lat="42.21628995913913" lon="19.99245074194171"><ele>959.0</ele><time>2026-05-04T09:03:37Z</time></trkpt><trkpt lat="42.216240334293346" lon="19.992521658839188"><ele>959.0</ele><time>2026-05-04T09:03:38Z</time></trkpt><trkpt lat="42.21620886641398" lon="19.992601526530585"><ele>959.0000000000001</ele><time>2026-05-04T09:03:39Z</time></trkpt><trkpt lat="42.21620524312192" lon="19.992700282307155"><ele>959.0</ele><time>2026-05-04T09:03:40Z</time></trkpt><trkpt lat="42.21621048868603" lon="19.992822628844767"><ele>956.6</ele><time>2026-05-04T09:03:41Z</time></trkpt><trkpt lat="42.21622109675869" lon="19.992944730218856"><ele>954.2</ele><time>2026-05-04T09:03:42Z</time></trkpt><trkpt lat="42.2162393330113" lon="19.99305654065143"><ele>951.8000000000001</ele><time>2026-05-04T09:03:43Z</time></trkpt><trkpt lat="42.21634037240047" lon="19.993190065287116"><ele>949.4000000000001</ele><time>2026-05-04T09:03:45Z</time></trkpt><trkpt lat="42.21640933780961" lon="19.9932843205475"><ele>947.0</ele><time>2026-05-04T09:03:46Z</time></trkpt><trkpt lat="42.21646093589483" lon="19.993403049925018"><ele>950.8</ele><time>2026-05-04T09:03:47Z</time></trkpt><trkpt lat="42.216493520210435" lon="19.99351020489168"><ele>954.6</ele><time>2026-05-04T09:03:48Z</time></trkpt><trkpt lat="42.216541844115234" lon="19.993619479200774"><ele>958.3999999999999</ele><time>2026-05-04T09:03:49Z</time></trkpt><trkpt lat="42.216624590604795" lon="19.993694231306616"><ele>962.1999999999999</ele><time>2026-05-04T09:03:50Z</time></trkpt><trkpt lat="42.21671919839884" lon="19.99373604339475"><ele>966.0</ele><time>2026-05-04T09:03:51Z</time></trkpt><trkpt lat="42.21681442404758" lon="19.993728518251828"><ele>966.0</ele><time>2026-05-04T09:03:52Z</time></trkpt><trkpt lat="42.21690154805962" lon="19.993690002156026"><ele>965.9999999999999</ele><time>2026-05-04T09:03:53Z</time></trkpt><trkpt lat="42.21698283705805" lon="19.993660010006177"><ele>965.9999999999999</ele><time>2026-05-04T09:03:54Z</time></trkpt><trkpt lat="42.217045108733906" lon="19.99370768831018"><ele>966.0</ele><time>2026-05-04T09:03:55Z</time></trkpt><trkpt lat="42.21711601700799" lon="19.993809946621948"><ele>966.0</ele><time>2026-05-04T09:03:56Z</time></trkpt><trkpt lat="42.21719169028763" lon="19.993944057841993"><ele>966.0</ele><time>2026-05-04T09:03:57Z</time></trkpt><trkpt lat="42.21721616831059" lon="19.99405501988519"><ele>965.9999999999999</ele><time>2026-05-04T09:03:58Z</time></trkpt><trkpt lat="42.2171667733025" lon="19.994136713742158"><ele>965.9999999999999</ele><time>2026-05-04T09:03:59Z</time></trkpt><trkpt lat="42.217109645525376" lon="19.994214503033223"><ele>966.0</ele><time>2026-05-04T09:04:00Z</time></trkpt><trkpt lat="42.21702947439205" lon="19.99429609095319"><ele>966.0</ele><time>2026-05-04T09:04:01Z</time></trkpt><trkpt lat="42.216959153611334" lon="19.994418050883443"><ele>967.0</ele><time>2026-05-04T09:04:02Z</time></trkpt><trkpt lat="42.21690540949814" lon="19.994554390347094"><ele>967.9999999999999</ele><time>2026-05-04T09:04:03Z</time></trkpt><trkpt lat="42.21688669852846" lon="19.99468830437579"><ele>968.9999999999999</ele><time>2026-05-04T09:04:04Z</time></trkpt><trkpt lat="42.21687718808426" lon="19.99484852051471"><ele>970.0</ele><time>2026-05-04T09:04:05Z</time></trkpt><trkpt lat="42.216864329610466" lon="19.994993491407882"><ele>971.0</ele><time>2026-05-04T09:04:06Z</time></trkpt><trkpt lat="42.21685941145317" lon="19.99510621307773"><ele>973.1999999999999</ele><time>2026-05-04T09:04:07Z</time></trkpt><trkpt lat="42.21688201660298" lon="19.995201629064937"><ele>975.3999999999999</ele><time>2026-05-04T09:04:08Z</time></trkpt><trkpt lat="42.217018696365315" lon="19.995291277404622"><ele>977.6</ele><time>2026-05-04T09:04:10Z</time></trkpt><trkpt lat="42.21711476785643" lon="19.99538345566655"><ele>979.8</ele><time>2026-05-04T09:04:11Z</time></trkpt><trkpt lat="42.21718659955242" lon="19.995466868368887"><ele>982.0</ele><time>2026-05-04T09:04:12Z</time></trkpt><trkpt lat="42.217252636961454" lon="19.995524973308843"><ele>982.8</ele><time>2026-05-04T09:04:13Z</time></trkpt><trkpt lat="42.21735294059126" lon="19.99556581280126"><ele>983.6</ele><time>2026-05-04T09:04:14Z</time></trkpt><trkpt lat="42.21743542465224" lon="19.99559019529141"><ele>984.3999999999999</ele><time>2026-05-04T09:04:15Z</time></trkpt><trkpt lat="42.21752535226061" lon="19.99560597514426"><ele>985.1999999999999</ele><time>2026-05-04T09:04:16Z</time></trkpt><trkpt lat="42.217616064562165" lon="19.995649287449286"><ele>986.0</ele><time>2026-05-04T09:04:17Z</time></trkpt><trkpt lat="42.217677488303835" lon="19.995710221824204"><ele>986.0000000000001</ele><time>2026-05-04T09:04:18Z</time></trkpt><trkpt lat="42.217735115455454" lon="19.995780720841957"><ele>986.0</ele><time>2026-05-04T09:04:19Z</time></trkpt><trkpt lat="42.21779546355342" lon="19.995862883481927"><ele>986.0</ele><time>2026-05-04T09:04:20Z</time></trkpt><trkpt lat="42.21783182094546" lon="19.995947041733096"><ele>986.0</ele><time>2026-05-04T09:04:21Z</time></trkpt><trkpt lat="42.21783590980156" lon="19.99603647224704"><ele>986.0000000000001</ele><time>2026-05-04T09:04:22Z</time></trkpt><trkpt lat="42.21780397919009" lon="19.99612335893007"><ele>986.0</ele><time>2026-05-04T09:04:23Z</time></trkpt><trkpt lat="42.21776367982226" lon="19.996212598974573"><ele>985.6666666666667</ele><time>2026-05-04T09:04:24Z</time></trkpt><trkpt lat="42.21774728360204" lon="19.996310603375484"><ele>985.3333333333334</ele><time>2026-05-04T09:04:25Z</time></trkpt><trkpt lat="42.217756294219086" lon="19.99642767868395"><ele>985.0</ele><time>2026-05-04T09:04:26Z</time></trkpt><trkpt lat="42.217772834921504" lon="19.996540833710732"><ele>984.6666666666667</ele><time>2026-05-04T09:04:27Z</time></trkpt><trkpt lat="42.217782666045956" lon="19.99668528693873"><ele>984.3333333333334</ele><time>2026-05-04T09:04:28Z</time></trkpt><trkpt lat="42.21776888156649" lon="19.996793543481246"><ele>984.0</ele><time>2026-05-04T09:04:29Z</time></trkpt><trkpt lat="42.21773658306393" lon="19.996904202767897"><ele>984.0</ele><time>2026-05-04T09:04:30Z</time></trkpt><trkpt lat="42.21769410643253" lon="19.996989099758387"><ele>984.0</ele><time>2026-05-04T09:04:31Z</time></trkpt><trkpt lat="42.217635926996735" lon="19.997094749836197"><ele>984.0</ele><time>2026-05-04T09:04:32Z</time></trkpt><trkpt lat="42.21758472485148" lon="19.997180100384977"><ele>984.0</ele><time>2026-05-04T09:04:33Z</time></trkpt><trkpt lat="42.21752750332043" lon="19.997264278970157"><ele>984.0</ele><time>2026-05-04T09:04:34Z</time></trkpt><trkpt lat="42.2174924310363" lon="19.997359389318458"><ele>984.0</ele><time>2026-05-04T09:04:35Z</time></trkpt><trkpt lat="42.21748873283653" lon="19.9974565509806"><ele>981.0</ele><time>2026-05-04T09:04:36Z</time></trkpt><trkpt lat="42.21750922130939" lon="19.997566230200817"><ele>978.0</ele><time>2026-05-04T09:04:37Z</time></trkpt><trkpt lat="42.21753684976619" lon="19.997670847256604"><ele>975.0</ele><time>2026-05-04T09:04:38Z</time></trkpt><trkpt lat="42.217549163723405" lon="19.99777457816304"><ele>972.0</ele><time>2026-05-04T09:04:39Z</time></trkpt><trkpt lat="42.217542648521196" lon="19.99788468806043"><ele>969.0</ele><time>2026-05-04T09:04:40Z</time></trkpt><trkpt lat="42.217516701883746" lon="19.997977017065978"><ele>966.0</ele><time>2026-05-04T09:04:41Z</time></trkpt><trkpt lat="42.21741999510669" lon="19.998068996963113"><ele>968.4</ele><time>2026-05-04T09:04:43Z</time></trkpt><trkpt lat="42.217301815935016" lon="19.99808672828224"><ele>970.8</ele><time>2026-05-04T09:04:45Z</time></trkpt><trkpt lat="42.21721661072615" lon="19.9981066951489"><ele>973.1999999999999</ele><time>2026-05-04T09:04:46Z</time></trkpt><trkpt lat="42.21711405055061" lon="19.99815512067437"><ele>975.5999999999999</ele><time>2026-05-04T09:04:47Z</time></trkpt><trkpt lat="42.217019727252556" lon="19.998220301143494"><ele>978.0</ele><time>2026-05-04T09:04:48Z</time></trkpt><trkpt lat="42.21692008040515" lon="19.99831095468423"><ele>977.1666666666666</ele><time>2026-05-04T09:04:49Z</time></trkpt><trkpt lat="42.216822008040324" lon="19.998391871166863"><ele>976.3333333333333</ele><time>2026-05-04T09:04:50Z</time></trkpt><trkpt lat="42.216750155133944" lon="19.998462814796163"><ele>975.5</ele><time>2026-05-04T09:04:51Z</time></trkpt><trkpt lat="42.2167095804225" lon="19.998537064000516"><ele>974.6666666666666</ele><time>2026-05-04T09:04:52Z</time></trkpt><trkpt lat="42.21666378400221" lon="19.998605060456523"><ele>973.8333333333333</ele><time>2026-05-04T09:04:53Z</time></trkpt><trkpt lat="42.21658333313135" lon="19.998674941102884"><ele>973.0</ele><time>2026-05-04T09:04:54Z</time></trkpt><trkpt lat="42.216499605041" lon="19.998746992579825"><ele>971.8333333333333</ele><time>2026-05-04T09:04:55Z</time></trkpt><trkpt lat="42.216440383715735" lon="19.998820951522003"><ele>970.6666666666666</ele><time>2026-05-04T09:04:56Z</time></trkpt><trkpt lat="42.21640310200645" lon="19.99891088059533"><ele>969.5</ele><time>2026-05-04T09:04:57Z</time></trkpt><trkpt lat="42.21637932780322" lon="19.998999385139356"><ele>968.3333333333333</ele><time>2026-05-04T09:04:58Z</time></trkpt><trkpt lat="42.21635667178516" lon="19.999097603193515"><ele>967.1666666666666</ele><time>2026-05-04T09:04:59Z</time></trkpt><trkpt lat="42.21634886663865" lon="19.999199776869638"><ele>966.0</ele><time>2026-05-04T09:05:00Z</time></trkpt><trkpt lat="42.216341424321456" lon="19.99937984014942"><ele>966.0</ele><time>2026-05-04T09:05:01Z</time></trkpt><trkpt lat="42.216323433634905" lon="19.999524216336237"><ele>965.9999999999999</ele><time>2026-05-04T09:05:02Z</time></trkpt><trkpt lat="42.216310213655134" lon="19.99963197664691"><ele>965.9999999999999</ele><time>2026-05-04T09:05:03Z</time></trkpt><trkpt lat="42.216292289136845" lon="19.999739452416566"><ele>966.0</ele><time>2026-05-04T09:05:04Z</time></trkpt><trkpt lat="42.216255196150264" lon="19.999848868571895"><ele>966.0</ele><time>2026-05-04T09:05:05Z</time></trkpt><trkpt lat="42.216195432008455" lon="19.999951121694235"><ele>966.0</ele><time>2026-05-04T09:05:06Z</time></trkpt><trkpt lat="42.21614449126241" lon="20.000075587269627"><ele>965.9999999999999</ele><time>2026-05-04T09:05:07Z</time></trkpt><trkpt lat="42.216099567210534" lon="20.000185093672297"><ele>965.9999999999999</ele><time>2026-05-04T09:05:07.999Z</time></trkpt><trkpt lat="42.216039767705176" lon="20.000282380751987"><ele>966.0</ele><time>2026-05-04T09:05:08.999Z</time></trkpt><trkpt lat="42.215969746308815" lon="20.00037019625528"><ele>966.0</ele><time>2026-05-04T09:05:09.999Z</time></trkpt><trkpt lat="42.21589685933486" lon="20.000426927019088"><ele>966.0</ele><time>2026-05-04T09:05:10.999Z</time></trkpt><trkpt lat="42.21582078755504" lon="20.00047314947495"><ele>966.0</ele><time>2026-05-04T09:05:11.999Z</time></trkpt><trkpt lat="42.215759071392256" lon="20.00053833963266"><ele>966.0</ele><time>2026-05-04T09:05:12.999Z</time></trkpt><trkpt lat="42.215710809555155" lon="20.000626874847494"><ele>966.0</ele><time>2026-05-04T09:05:13.999Z</time></trkpt><trkpt lat="42.21568092335502" lon="20.00072009361672"><ele>966.0</ele><time>2026-05-04T09:05:14.999Z</time></trkpt><trkpt lat="42.215641149385156" lon="20.000831584216378"><ele>966.0</ele><time>2026-05-04T09:05:15.999Z</time></trkpt><trkpt lat="42.215584432280615" lon="20.000974470722422"><ele>963.6666666666666</ele><time>2026-05-04T09:05:16.999Z</time></trkpt><trkpt lat="42.21552267881759" lon="20.001061099938507"><ele>961.3333333333333</ele><time>2026-05-04T09:05:17.999Z</time></trkpt><trkpt lat="42.2154851124591" lon="20.001137300041165"><ele>959.0</ele><time>2026-05-04T09:05:20.999Z</time></trkpt><trkpt lat="42.21544211978113" lon="20.0012208004791"><ele>956.6666666666666</ele><time>2026-05-04T09:05:23.999Z</time></trkpt><trkpt lat="42.21540085947074" lon="20.001307316724194"><ele>954.3333333333333</ele><time>2026-05-04T09:05:25.999Z</time></trkpt><trkpt lat="42.21538503419536" lon="20.001405394894466"><ele>952.0</ele><time>2026-05-04T09:06:17Z</time></trkpt><trkpt lat="42.21536479265591" lon="20.001494050745052"><ele>951.9999999999999</ele><time>2026-05-04T09:06:18Z</time></trkpt><trkpt lat="42.215331140264574" lon="20.001608386595432"><ele>952.0</ele><time>2026-05-04T09:06:19Z</time></trkpt><trkpt lat="42.21529174988706" lon="20.001722902797365"><ele>952.0</ele><time>2026-05-04T09:06:20Z</time></trkpt><trkpt lat="42.215254446081815" lon="20.001794374169016"><ele>952.0</ele><time>2026-05-04T09:06:22Z</time></trkpt><trkpt lat="42.21521196696397" lon="20.001874712203648"><ele>951.9999999999999</ele><time>2026-05-04T09:06:24Z</time></trkpt><trkpt lat="42.21510170972569" lon="20.001936683542798"><ele>952.0</ele><time>2026-05-04T09:06:26Z</time></trkpt><trkpt lat="42.21502795471601" lon="20.001965524414892"><ele>953.6</ele><time>2026-05-04T09:06:27Z</time></trkpt><trkpt lat="42.21494518014988" lon="20.001998488499353"><ele>955.2</ele><time>2026-05-04T09:06:28Z</time></trkpt><trkpt lat="42.2148437646451" lon="20.00204165190952"><ele>956.8</ele><time>2026-05-04T09:06:29Z</time></trkpt><trkpt lat="42.21475443859743" lon="20.002089699761157"><ele>958.4</ele><time>2026-05-04T09:06:30Z</time></trkpt><trkpt lat="42.214666388782916" lon="20.00213467807946"><ele>960.0</ele><time>2026-05-04T09:06:31Z</time></trkpt><trkpt lat="42.21459735780668" lon="20.002143776013305"><ele>961.2</ele><time>2026-05-04T09:06:32Z</time></trkpt><trkpt lat="42.21453081769449" lon="20.002117223677846"><ele>962.4</ele><time>2026-05-04T09:06:33Z</time></trkpt><trkpt lat="42.214471461575805" lon="20.002043944614385"><ele>963.5999999999999</ele><time>2026-05-04T09:06:34Z</time></trkpt><trkpt lat="42.21439522929115" lon="20.001938111992857"><ele>964.8</ele><time>2026-05-04T09:06:35Z</time></trkpt><trkpt lat="42.214294992702754" lon="20.001857310797487"><ele>966.0</ele><time>2026-05-04T09:06:36Z</time></trkpt><trkpt lat="42.214191179401894" lon="20.001831785512355"><ele>966.0</ele><time>2026-05-04T09:06:37Z</time></trkpt><trkpt lat="42.21409200930111" lon="20.00184071757732"><ele>965.9999999999999</ele><time>2026-05-04T09:06:38Z</time></trkpt><trkpt lat="42.21403580667523" lon="20.002009721736382"><ele>965.9999999999999</ele><time>2026-05-04T09:06:40Z</time></trkpt><trkpt lat="42.2140477107694" lon="20.002117049976984"><ele>966.0</ele><time>2026-05-04T09:06:41Z</time></trkpt><trkpt lat="42.21409978130364" lon="20.002246227774588"><ele>966.0</ele><time>2026-05-04T09:06:42Z</time></trkpt><trkpt lat="42.21414246637186" lon="20.002381660998324"><ele>968.5</ele><time>2026-05-04T09:06:43Z</time></trkpt><trkpt lat="42.21413752589685" lon="20.00250057701624"><ele>971.0</ele><time>2026-05-04T09:06:44Z</time></trkpt><trkpt lat="42.21408712101336" lon="20.00264863766006"><ele>973.5</ele><time>2026-05-04T09:06:45Z</time></trkpt><trkpt lat="42.21403873937493" lon="20.002835790020416"><ele>976.0</ele><time>2026-05-04T09:06:46Z</time></trkpt><trkpt lat="42.21404659623289" lon="20.003017240226583"><ele>976.0</ele><time>2026-05-04T09:06:46.999Z</time></trkpt><trkpt lat="42.21407895544664" lon="20.003176487646975"><ele>976.0</ele><time>2026-05-04T09:06:47.999Z</time></trkpt><trkpt lat="42.214101217891525" lon="20.003320025732833"><ele>976.0</ele><time>2026-05-04T09:06:48.999Z</time></trkpt><trkpt lat="42.21410422115548" lon="20.00346916837154"><ele>976.0</ele><time>2026-05-04T09:06:49.999Z</time></trkpt><trkpt lat="42.2141918103545" lon="20.003625549711362"><ele>976.25</ele><time>2026-05-04T09:06:51.999Z</time></trkpt><trkpt lat="42.21428427778309" lon="20.00374473552056"><ele>976.5</ele><time>2026-05-04T09:06:52.999Z</time></trkpt><trkpt lat="42.214375205909754" lon="20.0038854992824"><ele>976.75</ele><time>2026-05-04T09:06:53.999Z</time></trkpt><trkpt lat="42.21445848472772" lon="20.00401172301872"><ele>977.0</ele><time>2026-05-04T09:06:54.999Z</time></trkpt><trkpt lat="42.21454572731294" lon="20.00410304962272"><ele>976.5</ele><time>2026-05-04T09:06:55.999Z</time></trkpt><trkpt lat="42.21464607798669" lon="20.004184893668608"><ele>976.0</ele><time>2026-05-04T09:06:56.999Z</time></trkpt><trkpt lat="42.21474172207317" lon="20.004248559782603"><ele>975.5</ele><time>2026-05-04T09:06:57.999Z</time></trkpt><trkpt lat="42.2148247402492" lon="20.004349846261068"><ele>975.0</ele><time>2026-05-04T09:06:58.999Z</time></trkpt><trkpt lat="42.214892063971305" lon="20.004509687454654"><ele>975.8</ele><time>2026-05-04T09:06:59.999Z</time></trkpt><trkpt lat="42.2149329119232" lon="20.004656041830987"><ele>976.6</ele><time>2026-05-04T09:07:00.999Z</time></trkpt><trkpt lat="42.214915660685215" lon="20.004784762041407"><ele>977.4000000000001</ele><time>2026-05-04T09:07:01.999Z</time></trkpt><trkpt lat="42.21491372448861" lon="20.00489466149298"><ele>978.2</ele><time>2026-05-04T09:07:02.999Z</time></trkpt><trkpt lat="42.214959960229756" lon="20.004999953101645"><ele>979.0</ele><time>2026-05-04T09:07:03.999Z</time></trkpt><trkpt lat="42.21503249504402" lon="20.005138547837124"><ele>980.5</ele><time>2026-05-04T09:07:04.999Z</time></trkpt><trkpt lat="42.21508762920945" lon="20.005286971834185"><ele>982.0</ele><time>2026-05-04T09:07:05.999Z</time></trkpt><trkpt lat="42.21510839245048" lon="20.005473258018736"><ele>983.5</ele><time>2026-05-04T09:07:06.999Z</time></trkpt><trkpt lat="42.215081624630415" lon="20.005673243069573"><ele>985.0</ele><time>2026-05-04T09:07:07.999Z</time></trkpt><trkpt lat="42.21503401969129" lon="20.005866536707263"><ele>985.2</ele><time>2026-05-04T09:07:08.999Z</time></trkpt><trkpt lat="42.2149780394236" lon="20.00600634784932"><ele>985.4</ele><time>2026-05-04T09:07:09.999Z</time></trkpt><trkpt lat="42.214971792243574" lon="20.006096046870766"><ele>985.5999999999999</ele><time>2026-05-04T09:07:10.999Z</time></trkpt><trkpt lat="42.21499895482028" lon="20.006220398524576"><ele>985.8</ele><time>2026-05-04T09:07:11.999Z</time></trkpt><trkpt lat="42.21503267455998" lon="20.0063286071724"><ele>986.0</ele><time>2026-05-04T09:07:12.999Z</time></trkpt><trkpt lat="42.2150641057588" lon="20.00649452728385"><ele>986.25</ele><time>2026-05-04T09:07:13.999Z</time></trkpt><trkpt lat="42.21511612409368" lon="20.006701617459452"><ele>986.5</ele><time>2026-05-04T09:07:14.999Z</time></trkpt><trkpt lat="42.2151540306298" lon="20.006877588212348"><ele>986.75</ele><time>2026-05-04T09:07:15.999Z</time></trkpt><trkpt lat="42.21515553926258" lon="20.00703289304171"><ele>987.0</ele><time>2026-05-04T09:07:16.999Z</time></trkpt><trkpt lat="42.21512855136499" lon="20.00717687918316"><ele>987.0</ele><time>2026-05-04T09:07:17.999Z</time></trkpt><trkpt lat="42.215115748366465" lon="20.00729255485371"><ele>987.0</ele><time>2026-05-04T09:07:18.999Z</time></trkpt><trkpt lat="42.21514734744439" lon="20.007381816517686"><ele>987.0</ele><time>2026-05-04T09:07:19.999Z</time></trkpt><trkpt lat="42.21520579187608" lon="20.007511465232575"><ele>987.0</ele><time>2026-05-04T09:07:20.999Z</time></trkpt><trkpt lat="42.21530332975504" lon="20.007622410496236"><ele>987.0</ele><time>2026-05-04T09:07:21.999Z</time></trkpt><trkpt lat="42.21539501000981" lon="20.007762792094276"><ele>986.0</ele><time>2026-05-04T09:07:22.999Z</time></trkpt><trkpt lat="42.215434808861914" lon="20.007905341887746"><ele>985.0</ele><time>2026-05-04T09:07:23.999Z</time></trkpt><trkpt lat="42.215449346835214" lon="20.008088866342675"><ele>984.0</ele><time>2026-05-04T09:07:24.999Z</time></trkpt><trkpt lat="42.21548458454734" lon="20.0083003350752"><ele>983.0</ele><time>2026-05-04T09:07:25.999Z</time></trkpt><trkpt lat="42.215543027346186" lon="20.008488221416545"><ele>982.75</ele><time>2026-05-04T09:07:26.999Z</time></trkpt><trkpt lat="42.21560441779532" lon="20.008658127012996"><ele>982.5</ele><time>2026-05-04T09:07:27.999Z</time></trkpt><trkpt lat="42.21564385828671" lon="20.00880181745376"><ele>982.25</ele><time>2026-05-04T09:07:28.999Z</time></trkpt><trkpt lat="42.21568426711776" lon="20.008931887820445"><ele>982.0</ele><time>2026-05-04T09:07:29.999Z</time></trkpt><trkpt lat="42.21576180240005" lon="20.00906403912971"><ele>982.8</ele><time>2026-05-04T09:07:30.999Z</time></trkpt><trkpt lat="42.21587156829582" lon="20.009211970376914"><ele>983.6</ele><time>2026-05-04T09:07:31.999Z</time></trkpt><trkpt lat="42.21594863652356" lon="20.009330700167407"><ele>984.3999999999999</ele><time>2026-05-04T09:07:32.999Z</time></trkpt><trkpt lat="42.216013471737575" lon="20.009407166758173"><ele>985.1999999999999</ele><time>2026-05-04T09:07:34Z</time></trkpt><trkpt lat="42.21608313735194" lon="20.009473104208563"><ele>986.0</ele><time>2026-05-04T09:07:36Z</time></trkpt><trkpt lat="42.216195849470886" lon="20.009655838116394"><ele>986.0</ele><time>2026-05-04T09:08:53.999Z</time></trkpt><trkpt lat="42.21620717116228" lon="20.009740129695142"><ele>986.0</ele><time>2026-05-04T09:08:54.999Z</time></trkpt><trkpt lat="42.2162059679193" lon="20.009848515109557"><ele>986.0</ele><time>2026-05-04T09:08:55.999Z</time></trkpt><trkpt lat="42.216214092247185" lon="20.009953178471818"><ele>986.0</ele><time>2026-05-04T09:08:56.999Z</time></trkpt><trkpt lat="42.21623137473665" lon="20.010050955285067"><ele>986.0</ele><time>2026-05-04T09:08:57.999Z</time></trkpt><trkpt lat="42.21625554054558" lon="20.010143902862282"><ele>986.0</ele><time>2026-05-04T09:08:58.999Z</time></trkpt><trkpt lat="42.21628520111952" lon="20.010239635730763"><ele>986.0</ele><time>2026-05-04T09:08:59.999Z</time></trkpt><trkpt lat="42.21633045768536" lon="20.010339853266938"><ele>984.6666666666667</ele><time>2026-05-04T09:09:00.999Z</time></trkpt><trkpt lat="42.216395539578095" lon="20.01044021633308"><ele>983.3333333333334</ele><time>2026-05-04T09:09:01.999Z</time></trkpt><trkpt lat="42.21646516814529" lon="20.010525185323182"><ele>982.0</ele><time>2026-05-04T09:09:02.999Z</time></trkpt><trkpt lat="42.21653094671071" lon="20.010591495060655"><ele>980.6666666666667</ele><time>2026-05-04T09:09:03.999Z</time></trkpt><trkpt lat="42.21659472214659" lon="20.01066385059567"><ele>979.3333333333334</ele><time>2026-05-04T09:09:04.999Z</time></trkpt><trkpt lat="42.2166651539483" lon="20.01073721492073"><ele>978.0</ele><time>2026-05-04T09:09:05.999Z</time></trkpt><trkpt lat="42.2167015192898" lon="20.010832416514777"><ele>978.0</ele><time>2026-05-04T09:09:07.999Z</time></trkpt><trkpt lat="42.216650751668546" lon="20.011008454247605"><ele>978.0</ele><time>2026-05-04T09:09:09.999Z</time></trkpt><trkpt lat="42.21664414719453" lon="20.011132367927736"><ele>978.0</ele><time>2026-05-04T09:09:10.999Z</time></trkpt><trkpt lat="42.216647370507154" lon="20.011279413114195"><ele>978.0</ele><time>2026-05-04T09:09:11.999Z</time></trkpt><trkpt lat="42.21664201290173" lon="20.011406752731112"><ele>978.0</ele><time>2026-05-04T09:09:12.999Z</time></trkpt><trkpt lat="42.21661589804036" lon="20.011548443400166"><ele>978.6666666666666</ele><time>2026-05-04T09:09:14.999Z</time></trkpt><trkpt lat="42.21660813531274" lon="20.011657028942256"><ele>979.3333333333333</ele><time>2026-05-04T09:09:15.999Z</time></trkpt><trkpt lat="42.21660778950067" lon="20.011768638110016"><ele>980.0</ele><time>2026-05-04T09:09:16.999Z</time></trkpt><trkpt lat="42.21664480703937" lon="20.011868292133286"><ele>980.6666666666666</ele><time>2026-05-04T09:09:18.999Z</time></trkpt><trkpt lat="42.21673359145014" lon="20.011900042376258"><ele>981.3333333333333</ele><time>2026-05-04T09:09:20.999Z</time></trkpt><trkpt lat="42.21681707267429" lon="20.01192041615224"><ele>982.0</ele><time>2026-05-04T09:09:21.999Z</time></trkpt><trkpt lat="42.216895830497066" lon="20.01193638123435"><ele>981.9999999999999</ele><time>2026-05-04T09:09:22.999Z</time></trkpt><trkpt lat="42.21696985966897" lon="20.01196766127475"><ele>982.0</ele><time>2026-05-04T09:09:23.999Z</time></trkpt><trkpt lat="42.21703362679309" lon="20.012008088430328"><ele>982.0</ele><time>2026-05-04T09:09:24.999Z</time></trkpt><trkpt lat="42.217113305798556" lon="20.012051952973103"><ele>982.0</ele><time>2026-05-04T09:09:25.999Z</time></trkpt><trkpt lat="42.217200261568046" lon="20.012113355219686"><ele>981.9999999999999</ele><time>2026-05-04T09:09:26.999Z</time></trkpt><trkpt lat="42.21728977306706" lon="20.012193338015184"><ele>982.0</ele><time>2026-05-04T09:09:27.999Z</time></trkpt><trkpt lat="42.2173786377703" lon="20.012268869010086"><ele>980.8333333333333</ele><time>2026-05-04T09:09:28.999Z</time></trkpt><trkpt lat="42.21744474324902" lon="20.01233269471269"><ele>979.6666666666666</ele><time>2026-05-04T09:09:29.999Z</time></trkpt><trkpt lat="42.21749061782582" lon="20.012412288161265"><ele>978.5</ele><time>2026-05-04T09:09:30.999Z</time></trkpt><trkpt lat="42.21751282245888" lon="20.012507259973006"><ele>977.3333333333333</ele><time>2026-05-04T09:09:31.999Z</time></trkpt><trkpt lat="42.21753206907877" lon="20.012637830323627"><ele>976.1666666666666</ele><time>2026-05-04T09:09:33.999Z</time></trkpt><trkpt lat="42.217490750652715" lon="20.012759898459855"><ele>975.0</ele><time>2026-05-04T09:09:35.999Z</time></trkpt><trkpt lat="42.21748642582069" lon="20.012882599631876"><ele>975.0</ele><time>2026-05-04T09:09:37.999Z</time></trkpt><trkpt lat="42.21745904525061" lon="20.01300037884465"><ele>975.0</ele><time>2026-05-04T09:09:40Z</time></trkpt><trkpt lat="42.21745640107987" lon="20.01309543148131"><ele>975.0</ele><time>2026-05-04T09:09:41Z</time></trkpt><trkpt lat="42.2174567880254" lon="20.013210279371243"><ele>975.0</ele><time>2026-05-04T09:09:42Z</time></trkpt><trkpt lat="42.21745881576336" lon="20.013346222348478"><ele>975.0</ele><time>2026-05-04T09:09:43Z</time></trkpt><trkpt lat="42.21743368238491" lon="20.013478444568765"><ele>975.0</ele><time>2026-05-04T09:09:44Z</time></trkpt><trkpt lat="42.21739367508986" lon="20.013601216832054"><ele>975.8</ele><time>2026-05-04T09:09:45Z</time></trkpt><trkpt lat="42.21735158239616" lon="20.013715100103397"><ele>976.6</ele><time>2026-05-04T09:09:46Z</time></trkpt><trkpt lat="42.21733234804686" lon="20.013830876320316"><ele>977.4000000000001</ele><time>2026-05-04T09:09:47Z</time></trkpt><trkpt lat="42.21732894356702" lon="20.01395860863451"><ele>978.2</ele><time>2026-05-04T09:09:48Z</time></trkpt><trkpt lat="42.21732303135494" lon="20.01409864423784"><ele>979.0</ele><time>2026-05-04T09:09:49Z</time></trkpt><trkpt lat="42.21732335128076" lon="20.01423923724026"><ele>979.3333333333333</ele><time>2026-05-04T09:09:50Z</time></trkpt><trkpt lat="42.21733666346786" lon="20.014341391152218"><ele>979.6666666666666</ele><time>2026-05-04T09:09:51Z</time></trkpt><trkpt lat="42.217367331883786" lon="20.014445633526613"><ele>980.0</ele><time>2026-05-04T09:09:52Z</time></trkpt><trkpt lat="42.21740517780982" lon="20.014548873774668"><ele>980.3333333333333</ele><time>2026-05-04T09:09:53Z</time></trkpt><trkpt lat="42.21745601335145" lon="20.014630905204374"><ele>980.6666666666666</ele><time>2026-05-04T09:09:54Z</time></trkpt><trkpt lat="42.21753129924907" lon="20.014664249050682"><ele>981.0</ele><time>2026-05-04T09:09:55Z</time></trkpt><trkpt lat="42.21761816809797" lon="20.01467498857288"><ele>981.0</ele><time>2026-05-04T09:09:56Z</time></trkpt><trkpt lat="42.21770758967119" lon="20.01469915152739"><ele>981.0</ele><time>2026-05-04T09:09:57Z</time></trkpt><trkpt lat="42.217777545738144" lon="20.014733403112512"><ele>981.0</ele><time>2026-05-04T09:09:58Z</time></trkpt><trkpt lat="42.21784747284432" lon="20.014785313447096"><ele>981.0</ele><time>2026-05-04T09:09:59Z</time></trkpt><trkpt lat="42.21791698172617" lon="20.014828130186363"><ele>981.0</ele><time>2026-05-04T09:10:00Z</time></trkpt><trkpt lat="42.21798229138759" lon="20.014844773801915"><ele>981.0</ele><time>2026-05-04T09:10:01Z</time></trkpt><trkpt lat="42.21805586707384" lon="20.014783983905488"><ele>981.0</ele><time>2026-05-04T09:10:03Z</time></trkpt><trkpt lat="42.218121385736524" lon="20.01472957451265"><ele>981.0</ele><time>2026-05-04T09:10:05Z</time></trkpt><trkpt lat="42.21821495216193" lon="20.014670325066984"><ele>981.0</ele><time>2026-05-04T09:10:07Z</time></trkpt><trkpt lat="42.218288411959506" lon="20.014650707343275"><ele>981.0</ele><time>2026-05-04T09:10:08Z</time></trkpt><trkpt lat="42.218371094751085" lon="20.01465099843549"><ele>981.0</ele><time>2026-05-04T09:10:09Z</time></trkpt><trkpt lat="42.218456387933614" lon="20.014663295615218"><ele>981.0</ele><time>2026-05-04T09:10:10Z</time></trkpt><trkpt lat="42.21852527564609" lon="20.014661204914624"><ele>973.8</ele><time>2026-05-04T09:10:11Z</time></trkpt><trkpt lat="42.21861622108484" lon="20.014651545395665"><ele>966.5999999999999</ele><time>2026-05-04T09:10:14Z</time></trkpt><trkpt lat="42.21874087769158" lon="20.014653803713124"><ele>959.4</ele><time>2026-05-04T09:10:16Z</time></trkpt><trkpt lat="42.218803525104825" lon="20.014671187005337"><ele>952.2</ele><time>2026-05-04T09:10:17Z</time></trkpt><trkpt lat="42.218887975700675" lon="20.014831269493666"><ele>945.0</ele><time>2026-05-04T09:10:19Z</time></trkpt><trkpt lat="42.21892725259228" lon="20.014949086052436"><ele>949.4</ele><time>2026-05-04T09:10:20Z</time></trkpt><trkpt lat="42.218959613224165" lon="20.015046564992133"><ele>953.8</ele><time>2026-05-04T09:10:21Z</time></trkpt><trkpt lat="42.219060176601005" lon="20.015156981022837"><ele>958.2</ele><time>2026-05-04T09:10:23Z</time></trkpt><trkpt lat="42.21914631837695" lon="20.015184459642068"><ele>962.6</ele><time>2026-05-04T09:10:24Z</time></trkpt><trkpt lat="42.219240831295174" lon="20.015199694559836"><ele>967.0</ele><time>2026-05-04T09:10:25Z</time></trkpt><trkpt lat="42.21935385073036" lon="20.01521256278863"><ele>967.0</ele><time>2026-05-04T09:10:26Z</time></trkpt><trkpt lat="42.21947009683172" lon="20.015204166719702"><ele>967.0</ele><time>2026-05-04T09:10:27Z</time></trkpt><trkpt lat="42.21958300895491" lon="20.015206906795235"><ele>967.0</ele><time>2026-05-04T09:10:28Z</time></trkpt><trkpt lat="42.21969376018961" lon="20.01521575130278"><ele>967.0</ele><time>2026-05-04T09:10:29Z</time></trkpt><trkpt lat="42.21978214287475" lon="20.015195430056824"><ele>967.0</ele><time>2026-05-04T09:10:30Z</time></trkpt><trkpt lat="42.2198611636465" lon="20.015160267338747"><ele>965.4999999999999</ele><time>2026-05-04T09:10:31Z</time></trkpt><trkpt lat="42.219940055116375" lon="20.01512076637675"><ele>964.0</ele><time>2026-05-04T09:10:32Z</time></trkpt><trkpt lat="42.22002433048105" lon="20.015088924934442"><ele>962.5</ele><time>2026-05-04T09:10:33Z</time></trkpt><trkpt lat="42.22011161280687" lon="20.015062815650857"><ele>961.0</ele><time>2026-05-04T09:10:34Z</time></trkpt><trkpt lat="42.220197492320466" lon="20.01504636582353"><ele>959.4999999999999</ele><time>2026-05-04T09:10:35Z</time></trkpt><trkpt lat="42.220280655172296" lon="20.01500892811508"><ele>958.0</ele><time>2026-05-04T09:10:36Z</time></trkpt><trkpt lat="42.2203787663239" lon="20.015027402703357"><ele>958.0</ele><time>2026-05-04T09:10:38Z</time></trkpt><trkpt lat="42.22039284112774" lon="20.01516557080205"><ele>958.0</ele><time>2026-05-04T09:10:40Z</time></trkpt><trkpt lat="42.220342774654384" lon="20.01523196434765"><ele>958.0</ele><time>2026-05-04T09:10:41Z</time></trkpt><trkpt lat="42.22026059789442" lon="20.015295354984847"><ele>958.0</ele><time>2026-05-04T09:10:42Z</time></trkpt><trkpt lat="42.2201754771985" lon="20.015366709987834"><ele>958.0</ele><time>2026-05-04T09:10:43Z</time></trkpt><trkpt lat="42.22011707392026" lon="20.015453752035636"><ele>958.0</ele><time>2026-05-04T09:10:44Z</time></trkpt><trkpt lat="42.22008807835032" lon="20.015533833065984"><ele>958.0</ele><time>2026-05-04T09:10:45Z</time></trkpt><trkpt lat="42.22006251476431" lon="20.015631425560155"><ele>958.0</ele><time>2026-05-04T09:10:46Z</time></trkpt><trkpt lat="42.22003838184692" lon="20.015743769304155"><ele>958.0</ele><time>2026-05-04T09:10:47Z</time></trkpt><trkpt lat="42.220084027514986" lon="20.015834907763942"><ele>958.0</ele><time>2026-05-04T09:10:49Z</time></trkpt><trkpt lat="42.22022328084469" lon="20.01583068060641"><ele>958.0</ele><time>2026-05-04T09:10:51Z</time></trkpt><trkpt lat="42.220312499679004" lon="20.015846457815595"><ele>958.0</ele><time>2026-05-04T09:10:52Z</time></trkpt><trkpt lat="42.220405279681025" lon="20.015880447398228"><ele>958.0</ele><time>2026-05-04T09:10:53Z</time></trkpt><trkpt lat="42.220497619733116" lon="20.01591585969465"><ele>958.0</ele><time>2026-05-04T09:10:54Z</time></trkpt><trkpt lat="42.220610032993875" lon="20.015931207653058"><ele>958.0</ele><time>2026-05-04T09:10:54.999Z</time></trkpt><trkpt lat="42.22071593879594" lon="20.015949191687056"><ele>958.0</ele><time>2026-05-04T09:10:55.999Z</time></trkpt><trkpt lat="42.22080168207738" lon="20.015957825933665"><ele>958.0</ele><time>2026-05-04T09:10:56.999Z</time></trkpt><trkpt lat="42.22087524983093" lon="20.016014461930514"><ele>958.0</ele><time>2026-05-04T09:10:57.999Z</time></trkpt><trkpt lat="42.220957102265444" lon="20.016119286409737"><ele>958.0</ele><time>2026-05-04T09:10:58.999Z</time></trkpt><trkpt lat="42.22104454312697" lon="20.016215504418742"><ele>958.0</ele><time>2026-05-04T09:10:59.999Z</time></trkpt><trkpt lat="42.22112477056203" lon="20.01627494494234"><ele>957.9999999999999</ele><time>2026-05-04T09:11:00.999Z</time></trkpt><trkpt lat="42.2211932934676" lon="20.016324468313023"><ele>958.0</ele><time>2026-05-04T09:11:01.999Z</time></trkpt><trkpt lat="42.22130551858236" lon="20.01641883680027"><ele>958.0</ele><time>2026-05-04T09:11:03.999Z</time></trkpt><trkpt lat="42.221347184778146" lon="20.01649100320195"><ele>958.0</ele><time>2026-05-04T09:11:04.999Z</time></trkpt><trkpt lat="42.22135187947087" lon="20.01658050119544"><ele>957.9999999999999</ele><time>2026-05-04T09:11:05.999Z</time></trkpt><trkpt lat="42.22133602279483" lon="20.016675472727155"><ele>958.0</ele><time>2026-05-04T09:11:06.999Z</time></trkpt><trkpt lat="42.22131826737625" lon="20.016784908772788"><ele>954.4999999999999</ele><time>2026-05-04T09:11:07.999Z</time></trkpt><trkpt lat="42.221321088171784" lon="20.016873476404612"><ele>951.0</ele><time>2026-05-04T09:11:08.999Z</time></trkpt><trkpt lat="42.221399564621066" lon="20.017001555341142"><ele>947.5</ele><time>2026-05-04T09:11:10.999Z</time></trkpt><trkpt lat="42.221461592734265" lon="20.017062578036853"><ele>944.0</ele><time>2026-05-04T09:11:11.999Z</time></trkpt><trkpt lat="42.221505581074304" lon="20.01712677065304"><ele>940.4999999999999</ele><time>2026-05-04T09:11:12.999Z</time></trkpt><trkpt lat="42.22154904417391" lon="20.01722788418544"><ele>937.0</ele><time>2026-05-04T09:11:13.999Z</time></trkpt><trkpt lat="42.22155749482805" lon="20.0173359854387"><ele>937.0</ele><time>2026-05-04T09:11:14.999Z</time></trkpt><trkpt lat="42.22154292580884" lon="20.017454946059644"><ele>937.0</ele><time>2026-05-04T09:11:15.999Z</time></trkpt><trkpt lat="42.22153255618042" lon="20.01753917232056"><ele>937.0</ele><time>2026-05-04T09:11:16.999Z</time></trkpt><trkpt lat="42.22156267157096" lon="20.017650169639964"><ele>937.0</ele><time>2026-05-04T09:11:18.999Z</time></trkpt><trkpt lat="42.2216619856806" lon="20.017691878126072"><ele>937.0</ele><time>2026-05-04T09:11:20.999Z</time></trkpt><trkpt lat="42.22179883085563" lon="20.017617464776507"><ele>941.6666666666666</ele><time>2026-05-04T09:11:22.999Z</time></trkpt><trkpt lat="42.221860793396935" lon="20.01756515546518"><ele>946.3333333333333</ele><time>2026-05-04T09:11:23.999Z</time></trkpt><trkpt lat="42.22191653599868" lon="20.01750680587937"><ele>951.0</ele><time>2026-05-04T09:11:24.999Z</time></trkpt><trkpt lat="42.222020268641074" lon="20.01751649334272"><ele>955.6666666666667</ele><time>2026-05-04T09:11:26.999Z</time></trkpt><trkpt lat="42.22209362738505" lon="20.017589767692794"><ele>960.3333333333334</ele><time>2026-05-04T09:11:27.999Z</time></trkpt><trkpt lat="42.22217009273286" lon="20.017683860217726"><ele>965.0</ele><time>2026-05-04T09:11:28.999Z</time></trkpt><trkpt lat="42.22225933006407" lon="20.017773189698577"><ele>960.0</ele><time>2026-05-04T09:11:29.999Z</time></trkpt><trkpt lat="42.22236868858713" lon="20.017845450740992"><ele>955.0</ele><time>2026-05-04T09:11:30.999Z</time></trkpt><trkpt lat="42.2224696437212" lon="20.017899722984637"><ele>950.0</ele><time>2026-05-04T09:11:31.999Z</time></trkpt><trkpt lat="42.2225738520656" lon="20.017959461953485"><ele>945.0</ele><time>2026-05-04T09:11:32.999Z</time></trkpt><trkpt lat="42.222652197481075" lon="20.018028020458743"><ele>940.0</ele><time>2026-05-04T09:11:33.999Z</time></trkpt><trkpt lat="42.222738648000515" lon="20.01811193749173"><ele>940.0</ele><time>2026-05-04T09:11:34.999Z</time></trkpt><trkpt lat="42.222821799315795" lon="20.018180327451446"><ele>940.0</ele><time>2026-05-04T09:11:35.999Z</time></trkpt><trkpt lat="42.22292334046009" lon="20.018212341757827"><ele>940.0</ele><time>2026-05-04T09:11:36.999Z</time></trkpt><trkpt lat="42.223029351443664" lon="20.01823869787171"><ele>940.0</ele><time>2026-05-04T09:11:37.999Z</time></trkpt><trkpt lat="42.22313787637447" lon="20.018308524493136"><ele>940.0</ele><time>2026-05-04T09:11:38.999Z</time></trkpt><trkpt lat="42.223223300490616" lon="20.018382511052394"><ele>940.8333333333333</ele><time>2026-05-04T09:11:39.999Z</time></trkpt><trkpt lat="42.22329055452542" lon="20.018455866967674"><ele>941.6666666666666</ele><time>2026-05-04T09:11:40.999Z</time></trkpt><trkpt lat="42.22335093615739" lon="20.01853982357015"><ele>942.5</ele><time>2026-05-04T09:11:41.999Z</time></trkpt><trkpt lat="42.22341202265914" lon="20.018605552916007"><ele>943.3333333333333</ele><time>2026-05-04T09:11:42.999Z</time></trkpt><trkpt lat="42.223490660916305" lon="20.018629629025195"><ele>944.1666666666666</ele><time>2026-05-04T09:11:43.999Z</time></trkpt><trkpt lat="42.22359002052776" lon="20.018632078158603"><ele>945.0</ele><time>2026-05-04T09:11:44.999Z</time></trkpt><trkpt lat="42.22370222828197" lon="20.01863879484543"><ele>945.0</ele><time>2026-05-04T09:11:46Z</time></trkpt><trkpt lat="42.22381846137961" lon="20.01866824574282"><ele>945.0</ele><time>2026-05-04T09:11:47Z</time></trkpt><trkpt lat="42.22392848467117" lon="20.01873179476301"><ele>945.0</ele><time>2026-05-04T09:11:48Z</time></trkpt><trkpt lat="42.2240214106438" lon="20.018824994724444"><ele>945.0</ele><time>2026-05-04T09:11:49Z</time></trkpt><trkpt lat="42.224111985403994" lon="20.018927058391213"><ele>949.0</ele><time>2026-05-04T09:11:50Z</time></trkpt><trkpt lat="42.22419598075049" lon="20.019016722375603"><ele>953.0</ele><time>2026-05-04T09:11:51Z</time></trkpt><trkpt lat="42.224248719015286" lon="20.019069096974558"><ele>957.0</ele><time>2026-05-04T09:11:52Z</time></trkpt><trkpt lat="42.224358146519194" lon="20.019167703393578"><ele>961.0</ele><time>2026-05-04T09:11:54Z</time></trkpt><trkpt lat="42.22440878648961" lon="20.019251074955804"><ele>965.0</ele><time>2026-05-04T09:11:55Z</time></trkpt><trkpt lat="42.22444090009701" lon="20.01934012361435"><ele>965.0</ele><time>2026-05-04T09:11:56Z</time></trkpt><trkpt lat="42.224484275022135" lon="20.019420845436922"><ele>965.0</ele><time>2026-05-04T09:11:57Z</time></trkpt><trkpt lat="42.224539795870676" lon="20.019518720429836"><ele>965.0</ele><time>2026-05-04T09:11:59Z</time></trkpt><trkpt lat="42.22461523091019" lon="20.01966346217663"><ele>965.0</ele><time>2026-05-04T09:12:01Z</time></trkpt><trkpt lat="42.224642579490414" lon="20.01976966967281"><ele>965.0</ele><time>2026-05-04T09:12:02Z</time></trkpt><trkpt lat="42.22466840019733" lon="20.019903014831606"><ele>968.6666666666667</ele><time>2026-05-04T09:12:03Z</time></trkpt><trkpt lat="42.224691770686064" lon="20.020011031743202"><ele>972.3333333333334</ele><time>2026-05-04T09:12:04Z</time></trkpt><trkpt lat="42.224735495104625" lon="20.020098197737354"><ele>976.0</ele><time>2026-05-04T09:12:05Z</time></trkpt><trkpt lat="42.22485056694051" lon="20.020139003301285"><ele>979.6666666666667</ele><time>2026-05-04T09:12:07Z</time></trkpt><trkpt lat="42.224919566004516" lon="20.020109316778996"><ele>983.3333333333334</ele><time>2026-05-04T09:12:08Z</time></trkpt><trkpt lat="42.2249924237289" lon="20.02005747519334"><ele>987.0</ele><time>2026-05-04T09:12:09Z</time></trkpt><trkpt lat="42.22508864401113" lon="20.01999892127902"><ele>974.4000000000001</ele><time>2026-05-04T09:12:10Z</time></trkpt><trkpt lat="42.22518751159814" lon="20.019939948579008"><ele>961.8000000000001</ele><time>2026-05-04T09:12:11Z</time></trkpt><trkpt lat="42.22527746253376" lon="20.01990773556986"><ele>949.2</ele><time>2026-05-04T09:12:12Z</time></trkpt><trkpt lat="42.225367533166576" lon="20.019903609176627"><ele>936.6</ele><time>2026-05-04T09:12:13Z</time></trkpt><trkpt lat="42.22545003435728" lon="20.019906187952635"><ele>924.0</ele><time>2026-05-04T09:12:14Z</time></trkpt><trkpt lat="42.22552515719322" lon="20.01995140985321"><ele>924.0</ele><time>2026-05-04T09:12:15Z</time></trkpt><trkpt lat="42.22558433998252" lon="20.02002729832402"><ele>924.0</ele><time>2026-05-04T09:12:16Z</time></trkpt><trkpt lat="42.225661146209255" lon="20.01997007098993"><ele>924.0</ele><time>2026-05-04T09:12:19Z</time></trkpt><trkpt lat="42.225697390729316" lon="20.01985212013196"><ele>924.0</ele><time>2026-05-04T09:12:21Z</time></trkpt><trkpt lat="42.22572933140169" lon="20.01977284423754"><ele>924.0</ele><time>2026-05-04T09:12:22Z</time></trkpt><trkpt lat="42.22575606588039" lon="20.019665344118742"><ele>924.0</ele><time>2026-05-04T09:12:23Z</time></trkpt><trkpt lat="42.22576535010427" lon="20.019542446919917"><ele>924.0</ele><time>2026-05-04T09:12:24Z</time></trkpt><trkpt lat="42.22574212063079" lon="20.01940838493995"><ele>924.0000000000001</ele><time>2026-05-04T09:12:25Z</time></trkpt><trkpt lat="42.22572273604619" lon="20.01926872146823"><ele>924.0000000000001</ele><time>2026-05-04T09:12:26Z</time></trkpt><trkpt lat="42.225739895747324" lon="20.019124539230518"><ele>924.0</ele><time>2026-05-04T09:12:27Z</time></trkpt><trkpt lat="42.22576924030821" lon="20.01901934436389"><ele>924.0</ele><time>2026-05-04T09:12:28Z</time></trkpt><trkpt lat="42.22581115084873" lon="20.018940396004517"><ele>919.8333333333334</ele><time>2026-05-04T09:12:29Z</time></trkpt><trkpt lat="42.22587812240178" lon="20.018892815659314"><ele>915.6666666666667</ele><time>2026-05-04T09:12:30Z</time></trkpt><trkpt lat="42.22596421611646" lon="20.018880568312863"><ele>911.5</ele><time>2026-05-04T09:12:31Z</time></trkpt><trkpt lat="42.22605810826254" lon="20.018867523442967"><ele>907.3333333333334</ele><time>2026-05-04T09:12:32Z</time></trkpt><trkpt lat="42.22613986243371" lon="20.018831719880797"><ele>903.1666666666667</ele><time>2026-05-04T09:12:33Z</time></trkpt><trkpt lat="42.226229392933966" lon="20.018769263745106"><ele>899.0</ele><time>2026-05-04T09:12:35Z</time></trkpt><trkpt lat="42.22630800077429" lon="20.01871623477632"><ele>899.0</ele><time>2026-05-04T09:12:36Z</time></trkpt><trkpt lat="42.22640155139683" lon="20.018663747779932"><ele>899.0000000000001</ele><time>2026-05-04T09:12:37Z</time></trkpt><trkpt lat="42.226477608281165" lon="20.01863060879616"><ele>899.0000000000001</ele><time>2026-05-04T09:12:38Z</time></trkpt><trkpt lat="42.226513084832355" lon="20.01849855411742"><ele>899.0</ele><time>2026-05-04T09:12:40Z</time></trkpt><trkpt lat="42.226473236777785" lon="20.018347933630555"><ele>899.0</ele><time>2026-05-04T09:12:42Z</time></trkpt><trkpt lat="42.22645969465121" lon="20.01824565070415"><ele>895.2</ele><time>2026-05-04T09:12:43Z</time></trkpt><trkpt lat="42.226455712067086" lon="20.01811720051118"><ele>891.4000000000001</ele><time>2026-05-04T09:12:44Z</time></trkpt><trkpt lat="42.226446476722764" lon="20.017981129892306"><ele>887.6</ele><time>2026-05-04T09:12:45Z</time></trkpt><trkpt lat="42.22642223082771" lon="20.017841572668956"><ele>883.8</ele><time>2026-05-04T09:12:46Z</time></trkpt><trkpt lat="42.22641327112415" lon="20.01770881248567"><ele>880.0</ele><time>2026-05-04T09:12:47Z</time></trkpt><trkpt lat="42.22643342220083" lon="20.017590639804624"><ele>885.3333333333333</ele><time>2026-05-04T09:12:48Z</time></trkpt><trkpt lat="42.22648129576901" lon="20.01749672562631"><ele>890.6666666666666</ele><time>2026-05-04T09:12:49Z</time></trkpt><trkpt lat="42.226552165910626" lon="20.0174138155112"><ele>896.0</ele><time>2026-05-04T09:12:50Z</time></trkpt><trkpt lat="42.226606825927455" lon="20.017332162004355"><ele>901.3333333333333</ele><time>2026-05-04T09:12:51Z</time></trkpt><trkpt lat="42.226631154447" lon="20.01724153395535"><ele>906.6666666666666</ele><time>2026-05-04T09:12:52Z</time></trkpt><trkpt lat="42.22662048383216" lon="20.017138581886844"><ele>912.0</ele><time>2026-05-04T09:12:53Z</time></trkpt><trkpt lat="42.22661553358858" lon="20.017028428500545"><ele>912.0</ele><time>2026-05-04T09:12:54Z</time></trkpt><trkpt lat="42.226623925548374" lon="20.016871751225796"><ele>912.0</ele><time>2026-05-04T09:12:56Z</time></trkpt><trkpt lat="42.22664964720418" lon="20.016772072563352"><ele>912.0</ele><time>2026-05-04T09:12:57Z</time></trkpt><trkpt lat="42.22669047382967" lon="20.01669910605395"><ele>912.0</ele><time>2026-05-04T09:12:58Z</time></trkpt><trkpt lat="42.226738479390974" lon="20.01660175675137"><ele>912.0</ele><time>2026-05-04T09:12:59Z</time></trkpt><trkpt lat="42.22676889197126" lon="20.01651321449255"><ele>912.0</ele><time>2026-05-04T09:13:00Z</time></trkpt><trkpt lat="42.226794956912514" lon="20.01643284793159"><ele>908.0</ele><time>2026-05-04T09:13:01Z</time></trkpt><trkpt lat="42.22682268961455" lon="20.01634318451029"><ele>904.0</ele><time>2026-05-04T09:13:02Z</time></trkpt><trkpt lat="42.22683880546419" lon="20.01623565861189"><ele>900.0</ele><time>2026-05-04T09:13:03Z</time></trkpt><trkpt lat="42.226846220185" lon="20.016131134090884"><ele>896.0</ele><time>2026-05-04T09:13:04Z</time></trkpt><trkpt lat="42.2268725595793" lon="20.016023452647143"><ele>892.0</ele><time>2026-05-04T09:13:05Z</time></trkpt><trkpt lat="42.22691834300627" lon="20.015913679842303"><ele>888.0</ele><time>2026-05-04T09:13:06Z</time></trkpt><trkpt lat="42.226979232090194" lon="20.01581621590483"><ele>889.2</ele><time>2026-05-04T09:13:07Z</time></trkpt><trkpt lat="42.227047620858514" lon="20.01573980959847"><ele>890.4</ele><time>2026-05-04T09:13:08Z</time></trkpt><trkpt lat="42.22712058300886" lon="20.015655381411076"><ele>891.6000000000001</ele><time>2026-05-04T09:13:09Z</time></trkpt><trkpt lat="42.22719329829862" lon="20.015587238234797"><ele>892.8000000000001</ele><time>2026-05-04T09:13:10Z</time></trkpt><trkpt lat="42.227277501486455" lon="20.015510162920577"><ele>894.0</ele><time>2026-05-04T09:13:11Z</time></trkpt><trkpt lat="42.227370509911744" lon="20.015444854023656"><ele>894.0</ele><time>2026-05-04T09:13:12Z</time></trkpt><trkpt lat="42.22746301248886" lon="20.015404509345096"><ele>894.0</ele><time>2026-05-04T09:13:13Z</time></trkpt><trkpt lat="42.2275383748565" lon="20.015357828054896"><ele>894.0</ele><time>2026-05-04T09:13:14Z</time></trkpt><trkpt lat="42.227591676030656" lon="20.015293876103865"><ele>894.0</ele><time>2026-05-04T09:13:15Z</time></trkpt><trkpt lat="42.227617044908364" lon="20.01520407087807"><ele>894.0</ele><time>2026-05-04T09:13:16Z</time></trkpt><trkpt lat="42.227636746549955" lon="20.015099356132648"><ele>894.0</ele><time>2026-05-04T09:13:17Z</time></trkpt><trkpt lat="42.22768246571022" lon="20.01498451945445"><ele>890.5</ele><time>2026-05-04T09:13:18Z</time></trkpt><trkpt lat="42.22773723048469" lon="20.01487202296654"><ele>887.0</ele><time>2026-05-04T09:13:19Z</time></trkpt><trkpt lat="42.22779542783142" lon="20.014789183971036"><ele>883.5</ele><time>2026-05-04T09:13:20Z</time></trkpt><trkpt lat="42.22785363912063" lon="20.014697726765544"><ele>880.0</ele><time>2026-05-04T09:13:21Z</time></trkpt><trkpt lat="42.227920666278166" lon="20.01463885509842"><ele>876.5</ele><time>2026-05-04T09:13:22Z</time></trkpt><trkpt lat="42.22800816595241" lon="20.014596060034094"><ele>873.0</ele><time>2026-05-04T09:13:23Z</time></trkpt><trkpt lat="42.228087766639746" lon="20.01458938412469"><ele>874.1666666666666</ele><time>2026-05-04T09:13:24Z</time></trkpt><trkpt lat="42.228156893634306" lon="20.01461636021184"><ele>875.3333333333333</ele><time>2026-05-04T09:13:25Z</time></trkpt><trkpt lat="42.228217941984724" lon="20.014681998162832"><ele>876.5</ele><time>2026-05-04T09:13:26Z</time></trkpt><trkpt lat="42.22827638931838" lon="20.01477829138435"><ele>877.6666666666666</ele><time>2026-05-04T09:13:27Z</time></trkpt><trkpt lat="42.22833440376404" lon="20.01487003301951"><ele>878.8333333333333</ele><time>2026-05-04T09:13:28Z</time></trkpt><trkpt lat="42.2284018540393" lon="20.014948956905098"><ele>880.0</ele><time>2026-05-04T09:13:29Z</time></trkpt><trkpt lat="42.22849909165941" lon="20.015009513745486"><ele>883.3333333333333</ele><time>2026-05-04T09:13:30Z</time></trkpt><trkpt lat="42.22857916328803" lon="20.01507403593344"><ele>886.6666666666666</ele><time>2026-05-04T09:13:31Z</time></trkpt><trkpt lat="42.228618883846565" lon="20.01516441749001"><ele>890.0</ele><time>2026-05-04T09:13:32Z</time></trkpt><trkpt lat="42.22864429929156" lon="20.015266139820536"><ele>893.3333333333333</ele><time>2026-05-04T09:13:33Z</time></trkpt><trkpt lat="42.22865401741759" lon="20.01535721407501"><ele>896.6666666666666</ele><time>2026-05-04T09:13:34Z</time></trkpt><trkpt lat="42.22866862599835" lon="20.015481471543964"><ele>900.0</ele><time>2026-05-04T09:13:35Z</time></trkpt><trkpt lat="42.228681116205514" lon="20.015578008445598"><ele>900.0</ele><time>2026-05-04T09:13:35.999Z</time></trkpt><trkpt lat="42.22870454750456" lon="20.01567740647578"><ele>900.0</ele><time>2026-05-04T09:13:36.999Z</time></trkpt><trkpt lat="42.228731516990074" lon="20.01578332789086"><ele>900.0</ele><time>2026-05-04T09:13:37.999Z</time></trkpt><trkpt lat="42.22877074453699" lon="20.01586996101925"><ele>900.0</ele><time>2026-05-04T09:13:38.999Z</time></trkpt><trkpt lat="42.22882170840525" lon="20.015943283499183"><ele>900.0</ele><time>2026-05-04T09:13:39.999Z</time></trkpt><trkpt lat="42.22887188886831" lon="20.016041810976994"><ele>900.0</ele><time>2026-05-04T09:13:40.999Z</time></trkpt><trkpt lat="42.22894387319452" lon="20.01610892042633"><ele>900.0</ele><time>2026-05-04T09:13:42.999Z</time></trkpt><trkpt lat="42.2290142303155" lon="20.016000347313703"><ele>900.0</ele><time>2026-05-04T09:13:44.999Z</time></trkpt><trkpt lat="42.229066653662784" lon="20.01590105392457"><ele>900.0</ele><time>2026-05-04T09:13:45.999Z</time></trkpt><trkpt lat="42.22911589429577" lon="20.01582264694742"><ele>900.0</ele><time>2026-05-04T09:13:46.999Z</time></trkpt><trkpt lat="42.22916316350825" lon="20.015747654888933"><ele>900.0</ele><time>2026-05-04T09:13:47.999Z</time></trkpt><trkpt lat="42.229216617380665" lon="20.015688981728843"><ele>900.0</ele><time>2026-05-04T09:13:48.999Z</time></trkpt><trkpt lat="42.229277942232834" lon="20.01564101788932"><ele>895.3333333333334</ele><time>2026-05-04T09:13:49.999Z</time></trkpt><trkpt lat="42.22933433049451" lon="20.01559209570983"><ele>890.6666666666667</ele><time>2026-05-04T09:13:50.999Z</time></trkpt><trkpt lat="42.22943912339756" lon="20.015498928947203"><ele>886.0</ele><time>2026-05-04T09:13:53Z</time></trkpt><trkpt lat="42.22949508908481" lon="20.01544627888602"><ele>881.3333333333334</ele><time>2026-05-04T09:13:54Z</time></trkpt><trkpt lat="42.22956122979665" lon="20.015404941930203"><ele>876.6666666666667</ele><time>2026-05-04T09:13:55Z</time></trkpt><trkpt lat="42.229645662503785" lon="20.015352287418857"><ele>872.0</ele><time>2026-05-04T09:13:56Z</time></trkpt><trkpt lat="42.22972898057293" lon="20.01526882727094"><ele>872.0000000000001</ele><time>2026-05-04T09:13:57Z</time></trkpt><trkpt lat="42.229803071418075" lon="20.015172677819525"><ele>872.0</ele><time>2026-05-04T09:13:58Z</time></trkpt><trkpt lat="42.229856549136194" lon="20.01510137240618"><ele>872.0</ele><time>2026-05-04T09:13:59Z</time></trkpt><trkpt lat="42.22995367643453" lon="20.01510961125831"><ele>872.0</ele><time>2026-05-04T09:14:01Z</time></trkpt><trkpt lat="42.230020791094816" lon="20.015139690760353"><ele>872.0000000000001</ele><time>2026-05-04T09:14:02Z</time></trkpt><trkpt lat="42.23008931814125" lon="20.01516938758728"><ele>872.0</ele><time>2026-05-04T09:14:03Z</time></trkpt><trkpt lat="42.23016225461244" lon="20.01522206040909"><ele>872.3333333333334</ele><time>2026-05-04T09:14:04Z</time></trkpt><trkpt lat="42.230241738086136" lon="20.015248997825875"><ele>872.6666666666667</ele><time>2026-05-04T09:14:05Z</time></trkpt><trkpt lat="42.230324452909166" lon="20.015251803050848"><ele>873.0</ele><time>2026-05-04T09:14:06Z</time></trkpt><trkpt lat="42.230398538303184" lon="20.01525088234813"><ele>873.3333333333333</ele><time>2026-05-04T09:14:07Z</time></trkpt><trkpt lat="42.230468081707365" lon="20.015244078898174"><ele>873.6666666666666</ele><time>2026-05-04T09:14:08Z</time></trkpt><trkpt lat="42.23055136019625" lon="20.015253546041713"><ele>874.0</ele><time>2026-05-04T09:14:09Z</time></trkpt><trkpt lat="42.230629892234255" lon="20.015308584924757"><ele>877.4000000000001</ele><time>2026-05-04T09:14:11Z</time></trkpt><trkpt lat="42.230757173076015" lon="20.015328269145527"><ele>880.8000000000001</ele><time>2026-05-04T09:14:13Z</time></trkpt><trkpt lat="42.230841787701486" lon="20.015366184204918"><ele>884.1999999999999</ele><time>2026-05-04T09:14:14Z</time></trkpt><trkpt lat="42.23090245702926" lon="20.015406352791082"><ele>887.5999999999999</ele><time>2026-05-04T09:14:15Z</time></trkpt><trkpt lat="42.23099945085033" lon="20.015431163041647"><ele>891.0</ele><time>2026-05-04T09:14:17Z</time></trkpt><trkpt lat="42.231047794532614" lon="20.015308203233918"><ele>891.0</ele><time>2026-05-04T09:14:19Z</time></trkpt><trkpt lat="42.23105888445991" lon="20.01521256425476"><ele>891.0</ele><time>2026-05-04T09:14:20Z</time></trkpt><trkpt lat="42.23105490067059" lon="20.015106907704766"><ele>891.0</ele><time>2026-05-04T09:14:21Z</time></trkpt><trkpt lat="42.231038472496174" lon="20.014995546068143"><ele>891.0</ele><time>2026-05-04T09:14:22Z</time></trkpt><trkpt lat="42.231029429036056" lon="20.014898234354963"><ele>891.0</ele><time>2026-05-04T09:14:23Z</time></trkpt><trkpt lat="42.231027184660626" lon="20.01479216927183"><ele>891.0</ele><time>2026-05-04T09:14:24Z</time></trkpt><trkpt lat="42.23103291937865" lon="20.014687872517836"><ele>886.6666666666666</ele><time>2026-05-04T09:14:25Z</time></trkpt><trkpt lat="42.231037447226335" lon="20.014580550097406"><ele>882.3333333333333</ele><time>2026-05-04T09:14:26Z</time></trkpt><trkpt lat="42.23104699348966" lon="20.01447149036645"><ele>878.0</ele><time>2026-05-04T09:14:27Z</time></trkpt><trkpt lat="42.23106837725467" lon="20.01436031763442"><ele>873.6666666666666</ele><time>2026-05-04T09:14:28Z</time></trkpt><trkpt lat="42.23109464960689" lon="20.014251812994527"><ele>869.3333333333333</ele><time>2026-05-04T09:14:29Z</time></trkpt><trkpt lat="42.23113463477015" lon="20.014154310178654"><ele>865.0</ele><time>2026-05-04T09:14:30Z</time></trkpt><trkpt lat="42.23118119240911" lon="20.014073284969683"><ele>864.7142857142858</ele><time>2026-05-04T09:14:31Z</time></trkpt><trkpt lat="42.231236518679275" lon="20.014011793243192"><ele>864.4285714285714</ele><time>2026-05-04T09:14:32Z</time></trkpt><trkpt lat="42.231289201561026" lon="20.013952398310522"><ele>864.1428571428571</ele><time>2026-05-04T09:14:33Z</time></trkpt><trkpt lat="42.23135056200998" lon="20.013914842605814"><ele>863.8571428571429</ele><time>2026-05-04T09:14:34Z</time></trkpt><trkpt lat="42.231429953986265" lon="20.013911846069377"><ele>863.5714285714286</ele><time>2026-05-04T09:14:35Z</time></trkpt><trkpt lat="42.23150289144775" lon="20.013907109552566"><ele>863.2857142857143</ele><time>2026-05-04T09:14:36Z</time></trkpt><trkpt lat="42.2315822143549" lon="20.013868903168117"><ele>863.0</ele><time>2026-05-04T09:14:37Z</time></trkpt><trkpt lat="42.23164979925633" lon="20.013780860553076"><ele>869.8</ele><time>2026-05-04T09:14:38Z</time></trkpt><trkpt lat="42.231702604859265" lon="20.01369573174911"><ele>876.5999999999999</ele><time>2026-05-04T09:14:39Z</time></trkpt><trkpt lat="42.2317736993954" lon="20.013594405272567"><ele>883.4000000000001</ele><time>2026-05-04T09:14:40Z</time></trkpt><trkpt lat="42.23185795418842" lon="20.013485511237352"><ele>890.2</ele><time>2026-05-04T09:14:41Z</time></trkpt><trkpt lat="42.23192824642633" lon="20.01336684864862"><ele>897.0</ele><time>2026-05-04T09:14:42Z</time></trkpt><trkpt lat="42.23192969991195" lon="20.013277529341234"><ele>899.6</ele><time>2026-05-04T09:14:43Z</time></trkpt><trkpt lat="42.23184162508319" lon="20.013157055194593"><ele>902.2</ele><time>2026-05-04T09:14:45Z</time></trkpt><trkpt lat="42.23174712098916" lon="20.013123074164206"><ele>904.8</ele><time>2026-05-04T09:14:46Z</time></trkpt><trkpt lat="42.23163301684714" lon="20.013115503183453"><ele>907.4</ele><time>2026-05-04T09:14:46.999Z</time></trkpt><trkpt lat="42.23153612551173" lon="20.013067221524103"><ele>910.0</ele><time>2026-05-04T09:14:47.999Z</time></trkpt><trkpt lat="42.231439094665426" lon="20.01297993447663"><ele>902.0</ele><time>2026-05-04T09:14:48.999Z</time></trkpt><trkpt lat="42.23136088424533" lon="20.01289754989793"><ele>894.0</ele><time>2026-05-04T09:14:49.999Z</time></trkpt><trkpt lat="42.23130307379118" lon="20.01282510480545"><ele>886.0</ele><time>2026-05-04T09:14:50.999Z</time></trkpt><trkpt lat="42.23125548000188" lon="20.01265517598442"><ele>878.0</ele><time>2026-05-04T09:14:52.999Z</time></trkpt><trkpt lat="42.23124495884717" lon="20.012542250733514"><ele>870.0</ele><time>2026-05-04T09:14:53.999Z</time></trkpt><trkpt lat="42.23123929289046" lon="20.012433655669167"><ele>868.8333333333334</ele><time>2026-05-04T09:14:54.999Z</time></trkpt><trkpt lat="42.23124417952406" lon="20.012319965115392"><ele>867.6666666666667</ele><time>2026-05-04T09:14:55.999Z</time></trkpt><trkpt lat="42.23125626804772" lon="20.012208230496437"><ele>866.5</ele><time>2026-05-04T09:14:56.999Z</time></trkpt><trkpt lat="42.231291031757245" lon="20.012133526032276"><ele>865.3333333333334</ele><time>2026-05-04T09:14:57.999Z</time></trkpt><trkpt lat="42.231361361556" lon="20.012071553941034"><ele>864.1666666666667</ele><time>2026-05-04T09:14:58.999Z</time></trkpt><trkpt lat="42.231458386225675" lon="20.012015480383017"><ele>863.0</ele><time>2026-05-04T09:14:59.999Z</time></trkpt><trkpt lat="42.23153006107815" lon="20.01194585853344"><ele>868.0000000000001</ele><time>2026-05-04T09:15:00.999Z</time></trkpt><trkpt lat="42.23155885718576" lon="20.01186455469372"><ele>873.0</ele><time>2026-05-04T09:15:01.999Z</time></trkpt><trkpt lat="42.23155257175322" lon="20.011759583099607"><ele>878.0</ele><time>2026-05-04T09:15:02.999Z</time></trkpt><trkpt lat="42.23152288017305" lon="20.011650609772747"><ele>883.0</ele><time>2026-05-04T09:15:03.999Z</time></trkpt><trkpt lat="42.23149729884775" lon="20.01153885259916"><ele>888.0000000000001</ele><time>2026-05-04T09:15:04.999Z</time></trkpt><trkpt lat="42.23148692815351" lon="20.01142081904779"><ele>893.0</ele><time>2026-05-04T09:15:05.999Z</time></trkpt><trkpt lat="42.231478483090186" lon="20.011298241997938"><ele>893.0</ele><time>2026-05-04T09:15:06.999Z</time></trkpt><trkpt lat="42.231456518386885" lon="20.011188763975934"><ele>893.0</ele><time>2026-05-04T09:15:07.999Z</time></trkpt><trkpt lat="42.231425372437805" lon="20.011080128652036"><ele>893.0</ele><time>2026-05-04T09:15:08.999Z</time></trkpt><trkpt lat="42.23143391986149" lon="20.010941290815992"><ele>893.0</ele><time>2026-05-04T09:15:10.999Z</time></trkpt><trkpt lat="42.23156103885808" lon="20.010848347996728"><ele>893.0</ele><time>2026-05-04T09:15:12.999Z</time></trkpt><trkpt lat="42.23165298409345" lon="20.010788671230802"><ele>888.4</ele><time>2026-05-04T09:15:13.999Z</time></trkpt><trkpt lat="42.2317335827596" lon="20.010715535471707"><ele>883.8</ele><time>2026-05-04T09:15:14.999Z</time></trkpt><trkpt lat="42.231794063193085" lon="20.01064265932045"><ele>879.2</ele><time>2026-05-04T09:15:15.999Z</time></trkpt><trkpt lat="42.231840117943385" lon="20.01055633826973"><ele>874.6</ele><time>2026-05-04T09:15:16.999Z</time></trkpt><trkpt lat="42.23191939679743" lon="20.01041500332489"><ele>870.0</ele><time>2026-05-04T09:15:18.999Z</time></trkpt><trkpt lat="42.23197101354567" lon="20.010357560626552"><ele>870.0</ele><time>2026-05-04T09:15:19.999Z</time></trkpt><trkpt lat="42.23203263036363" lon="20.010332200129863"><ele>870.0</ele><time>2026-05-04T09:15:20.999Z</time></trkpt><trkpt lat="42.23209962933262" lon="20.010332252385965"><ele>870.0</ele><time>2026-05-04T09:15:21.999Z</time></trkpt><trkpt lat="42.23219737250335" lon="20.01023886957676"><ele>870.0</ele><time>2026-05-04T09:15:23.999Z</time></trkpt><trkpt lat="42.23222185686641" lon="20.010142940844265"><ele>870.0</ele><time>2026-05-04T09:15:24.999Z</time></trkpt><trkpt lat="42.232236013877134" lon="20.01002172690517"><ele>870.0</ele><time>2026-05-04T09:15:25.999Z</time></trkpt><trkpt lat="42.23224327850657" lon="20.00988509940726"><ele>872.5</ele><time>2026-05-04T09:15:26.999Z</time></trkpt><trkpt lat="42.23225761371422" lon="20.009755520608103"><ele>875.0</ele><time>2026-05-04T09:15:27.999Z</time></trkpt><trkpt lat="42.232269298090884" lon="20.009635228815895"><ele>877.5</ele><time>2026-05-04T09:15:28.999Z</time></trkpt><trkpt lat="42.232290517675835" lon="20.009540705782488"><ele>880.0</ele><time>2026-05-04T09:15:29.999Z</time></trkpt><trkpt lat="42.23231837391532" lon="20.00944039860511"><ele>882.5</ele><time>2026-05-04T09:15:30.999Z</time></trkpt><trkpt lat="42.23234045076961" lon="20.00933055161604"><ele>885.0</ele><time>2026-05-04T09:15:31.999Z</time></trkpt><trkpt lat="42.23233987100785" lon="20.009199385195217"><ele>882.0</ele><time>2026-05-04T09:15:32.999Z</time></trkpt><trkpt lat="42.23233118285947" lon="20.009072652545555"><ele>879.0</ele><time>2026-05-04T09:15:33.999Z</time></trkpt><trkpt lat="42.2323297041474" lon="20.008935916626417"><ele>876.0</ele><time>2026-05-04T09:15:34.999Z</time></trkpt><trkpt lat="42.23235340009273" lon="20.00880785599813"><ele>873.0</ele><time>2026-05-04T09:15:35.999Z</time></trkpt><trkpt lat="42.23239577390638" lon="20.008684879808634"><ele>870.0</ele><time>2026-05-04T09:15:36.999Z</time></trkpt><trkpt lat="42.23243467363237" lon="20.008581835540156"><ele>870.0</ele><time>2026-05-04T09:15:37.999Z</time></trkpt><trkpt lat="42.232497072890965" lon="20.00847212114505"><ele>870.0</ele><time>2026-05-04T09:15:39.999Z</time></trkpt><trkpt lat="42.23255161700639" lon="20.00840086259698"><ele>870.0</ele><time>2026-05-04T09:15:41.999Z</time></trkpt><trkpt lat="42.23262416255734" lon="20.008326515156522"><ele>870.0</ele><time>2026-05-04T09:15:43.999Z</time></trkpt><trkpt lat="42.23272661723792" lon="20.008303911446752"><ele>870.0</ele><time>2026-05-04T09:15:45.999Z</time></trkpt><trkpt lat="42.232807773303904" lon="20.008321357962846"><ele>870.0</ele><time>2026-05-04T09:15:46.999Z</time></trkpt><trkpt lat="42.23288724026124" lon="20.008321728212604"><ele>870.0</ele><time>2026-05-04T09:15:47.999Z</time></trkpt><trkpt lat="42.232976778199124" lon="20.008312462838113"><ele>870.0</ele><time>2026-05-04T09:15:48.999Z</time></trkpt><trkpt lat="42.23304666656439" lon="20.008338301347795"><ele>870.0</ele><time>2026-05-04T09:15:49.999Z</time></trkpt><trkpt lat="42.23311514791068" lon="20.008394876965493"><ele>870.0</ele><time>2026-05-04T09:15:50.999Z</time></trkpt><trkpt lat="42.23318860190858" lon="20.008446987155462"><ele>870.0</ele><time>2026-05-04T09:15:51.999Z</time></trkpt><trkpt lat="42.23327103743682" lon="20.008457692930943"><ele>868.6</ele><time>2026-05-04T09:15:52.999Z</time></trkpt><trkpt lat="42.23337280986656" lon="20.00843360923619"><ele>867.2</ele><time>2026-05-04T09:15:53.999Z</time></trkpt><trkpt lat="42.23347174422667" lon="20.008403987188036"><ele>865.8</ele><time>2026-05-04T09:15:54.999Z</time></trkpt><trkpt lat="42.23353796393391" lon="20.008386565096213"><ele>864.4</ele><time>2026-05-04T09:15:55.999Z</time></trkpt><trkpt lat="42.23364961796172" lon="20.008360153046844"><ele>863.0</ele><time>2026-05-04T09:15:58Z</time></trkpt><trkpt lat="42.23372591382107" lon="20.008452907909625"><ele>863.0000000000001</ele><time>2026-05-04T09:16:00Z</time></trkpt><trkpt lat="42.23376253441348" lon="20.00852803271454"><ele>863.0</ele><time>2026-05-04T09:16:01Z</time></trkpt><trkpt lat="42.23381813785851" lon="20.008588441282235"><ele>863.0</ele><time>2026-05-04T09:16:02Z</time></trkpt><trkpt lat="42.23389754144957" lon="20.008661366909916"><ele>863.0</ele><time>2026-05-04T09:16:03Z</time></trkpt><trkpt lat="42.23397923667108" lon="20.00869377873093"><ele>863.0000000000001</ele><time>2026-05-04T09:16:04Z</time></trkpt><trkpt lat="42.234049345745106" lon="20.008667009486345"><ele>863.0</ele><time>2026-05-04T09:16:05Z</time></trkpt><trkpt lat="42.234129295552144" lon="20.00860670975846"><ele>861.6666666666667</ele><time>2026-05-04T09:16:06Z</time></trkpt><trkpt lat="42.234215034972024" lon="20.008553506071618"><ele>860.3333333333334</ele><time>2026-05-04T09:16:07Z</time></trkpt><trkpt lat="42.23429452903205" lon="20.008537994483138"><ele>859.0</ele><time>2026-05-04T09:16:08Z</time></trkpt><trkpt lat="42.23437061242176" lon="20.00852196404865"><ele>857.6666666666667</ele><time>2026-05-04T09:16:09Z</time></trkpt><trkpt lat="42.23444005249433" lon="20.00850114998207"><ele>856.3333333333334</ele><time>2026-05-04T09:16:10Z</time></trkpt><trkpt lat="42.23451290750013" lon="20.008516846351128"><ele>855.0</ele><time>2026-05-04T09:16:11Z</time></trkpt><trkpt lat="42.234591831373976" lon="20.008556545337136"><ele>855.0</ele><time>2026-05-04T09:16:12Z</time></trkpt><trkpt lat="42.23469108196652" lon="20.008588986593626"><ele>855.0</ele><time>2026-05-04T09:16:13Z</time></trkpt><trkpt lat="42.234777143576146" lon="20.008603066590826"><ele>855.0</ele><time>2026-05-04T09:16:14Z</time></trkpt><trkpt lat="42.2348560321413" lon="20.008657054741494"><ele>855.0</ele><time>2026-05-04T09:16:15Z</time></trkpt><trkpt lat="42.234923588445014" lon="20.008742084964666"><ele>855.0</ele><time>2026-05-04T09:16:16Z</time></trkpt><trkpt lat="42.234978382238076" lon="20.00884032730521"><ele>853.0</ele><time>2026-05-04T09:16:17Z</time></trkpt><trkpt lat="42.23502358909964" lon="20.008951947646636"><ele>851.0</ele><time>2026-05-04T09:16:18Z</time></trkpt><trkpt lat="42.235031038752844" lon="20.00905511596661"><ele>849.0</ele><time>2026-05-04T09:16:19Z</time></trkpt><trkpt lat="42.2350336617175" lon="20.00914424390592"><ele>847.0</ele><time>2026-05-04T09:16:20Z</time></trkpt><trkpt lat="42.235149663885004" lon="20.00920994828269"><ele>845.0</ele><time>2026-05-04T09:16:22Z</time></trkpt><trkpt lat="42.23522106065004" lon="20.009189199268153"><ele>843.0</ele><time>2026-05-04T09:16:23Z</time></trkpt><trkpt lat="42.2352936764468" lon="20.009161173937223"><ele>843.0</ele><time>2026-05-04T09:16:24Z</time></trkpt><trkpt lat="42.23535488157019" lon="20.00913381186139"><ele>843.0</ele><time>2026-05-04T09:16:25Z</time></trkpt><trkpt lat="42.23547023773382" lon="20.00908722042256"><ele>843.0</ele><time>2026-05-04T09:16:27Z</time></trkpt><trkpt lat="42.23554656842998" lon="20.00905341339595"><ele>843.0</ele><time>2026-05-04T09:16:28Z</time></trkpt><trkpt lat="42.23560028181143" lon="20.00898788885225"><ele>843.0</ele><time>2026-05-04T09:16:29Z</time></trkpt><trkpt lat="42.23565063854366" lon="20.008902833320185"><ele>843.0</ele><time>2026-05-04T09:16:30Z</time></trkpt><trkpt lat="42.23571971638506" lon="20.008795122194385"><ele>843.4</ele><time>2026-05-04T09:16:31Z</time></trkpt><trkpt lat="42.23578355488405" lon="20.00867130524465"><ele>843.8</ele><time>2026-05-04T09:16:32Z</time></trkpt><trkpt lat="42.23583113951694" lon="20.00852489088673"><ele>844.2</ele><time>2026-05-04T09:16:33Z</time></trkpt><trkpt lat="42.235881603955484" lon="20.00843614025874"><ele>844.6</ele><time>2026-05-04T09:16:34Z</time></trkpt><trkpt lat="42.23594585549227" lon="20.008391232650997"><ele>845.0</ele><time>2026-05-04T09:16:35Z</time></trkpt><trkpt lat="42.23602674627182" lon="20.008359943355458"><ele>845.0</ele><time>2026-05-04T09:16:36Z</time></trkpt><trkpt lat="42.23610875630951" lon="20.008351995997348"><ele>845.0</ele><time>2026-05-04T09:16:37Z</time></trkpt><trkpt lat="42.23618963756658" lon="20.008354646683255"><ele>845.0</ele><time>2026-05-04T09:16:37.999Z</time></trkpt><trkpt lat="42.236261126748424" lon="20.00828581090852"><ele>845.0</ele><time>2026-05-04T09:16:38.999Z</time></trkpt><trkpt lat="42.236322171570436" lon="20.008166010014925"><ele>845.0</ele><time>2026-05-04T09:16:39.999Z</time></trkpt><trkpt lat="42.236399563108506" lon="20.008089284013856"><ele>844.6666666666667</ele><time>2026-05-04T09:16:40.999Z</time></trkpt><trkpt lat="42.236483481147076" lon="20.008009295808996"><ele>844.3333333333334</ele><time>2026-05-04T09:16:41.999Z</time></trkpt><trkpt lat="42.236559158257585" lon="20.007938898009296"><ele>844.0</ele><time>2026-05-04T09:16:42.999Z</time></trkpt><trkpt lat="42.23662155190225" lon="20.007876349242974"><ele>843.6666666666667</ele><time>2026-05-04T09:16:43.999Z</time></trkpt><trkpt lat="42.236657214080175" lon="20.007798633975277"><ele>843.3333333333334</ele><time>2026-05-04T09:16:44.999Z</time></trkpt><trkpt lat="42.23668151507694" lon="20.007719177629586"><ele>843.0</ele><time>2026-05-04T09:16:45.999Z</time></trkpt><trkpt lat="42.23674391688611" lon="20.007677073060357"><ele>843.0</ele><time>2026-05-04T09:16:47.999Z</time></trkpt><trkpt lat="42.23682950839222" lon="20.00777995338164"><ele>843.0</ele><time>2026-05-04T09:16:49.999Z</time></trkpt><trkpt lat="42.236885833182704" lon="20.007883799236918"><ele>843.0</ele><time>2026-05-04T09:16:50.999Z</time></trkpt><trkpt lat="42.236940164417824" lon="20.007992479697382"><ele>843.0</ele><time>2026-05-04T09:16:51.999Z</time></trkpt><trkpt lat="42.23700011292888" lon="20.00810972229242"><ele>843.0</ele><time>2026-05-04T09:16:52.999Z</time></trkpt><trkpt lat="42.237030613674825" lon="20.008219331355804"><ele>843.0</ele><time>2026-05-04T09:16:53.999Z</time></trkpt><trkpt lat="42.23705034856633" lon="20.0083257150584"><ele>843.0</ele><time>2026-05-04T09:16:54.999Z</time></trkpt><trkpt lat="42.23708855951359" lon="20.008418076763643"><ele>843.0</ele><time>2026-05-04T09:16:55.999Z</time></trkpt><trkpt lat="42.237123869691814" lon="20.0085191180972"><ele>843.0</ele><time>2026-05-04T09:16:56.999Z</time></trkpt><trkpt lat="42.23715235431755" lon="20.00862833232779"><ele>843.0</ele><time>2026-05-04T09:16:57.999Z</time></trkpt><trkpt lat="42.23717970424416" lon="20.008749181707238"><ele>843.0</ele><time>2026-05-04T09:16:58.999Z</time></trkpt><trkpt lat="42.23720046931207" lon="20.00887725019463"><ele>845.4</ele><time>2026-05-04T09:16:59.999Z</time></trkpt><trkpt lat="42.23722199507347" lon="20.009016642823912"><ele>847.8</ele><time>2026-05-04T09:17:00.999Z</time></trkpt><trkpt lat="42.23724390800038" lon="20.00913528956567"><ele>850.2</ele><time>2026-05-04T09:17:01.999Z</time></trkpt><trkpt lat="42.23724966326637" lon="20.009260901746664"><ele>852.6</ele><time>2026-05-04T09:17:02.999Z</time></trkpt><trkpt lat="42.23724074976783" lon="20.009395140510165"><ele>855.0</ele><time>2026-05-04T09:17:03.999Z</time></trkpt><trkpt lat="42.23722749362911" lon="20.00953514465192"><ele>856.6666666666666</ele><time>2026-05-04T09:17:04.999Z</time></trkpt><trkpt lat="42.23722933624602" lon="20.009633743535094"><ele>858.3333333333333</ele><time>2026-05-04T09:17:05.999Z</time></trkpt><trkpt lat="42.23730444344068" lon="20.009714211989593"><ele>860.0</ele><time>2026-05-04T09:17:07.999Z</time></trkpt><trkpt lat="42.23736852414162" lon="20.00969610106085"><ele>861.6666666666666</ele><time>2026-05-04T09:17:08.999Z</time></trkpt><trkpt lat="42.23745910931474" lon="20.00966995172835"><ele>863.3333333333333</ele><time>2026-05-04T09:17:09.999Z</time></trkpt><trkpt lat="42.2375564226545" lon="20.009648564148595"><ele>865.0</ele><time>2026-05-04T09:17:10.999Z</time></trkpt><trkpt lat="42.2376583605438" lon="20.00964003220426"><ele>857.8</ele><time>2026-05-04T09:17:11.999Z</time></trkpt><trkpt lat="42.237760052281246" lon="20.00959363504493"><ele>850.6</ele><time>2026-05-04T09:17:12.999Z</time></trkpt><trkpt lat="42.2378635781655" lon="20.009543444297144"><ele>843.4000000000001</ele><time>2026-05-04T09:17:13.999Z</time></trkpt><trkpt lat="42.23794437424305" lon="20.00952681835223"><ele>836.2</ele><time>2026-05-04T09:17:14.999Z</time></trkpt><trkpt lat="42.23801305231133" lon="20.009549100536855"><ele>829.0</ele><time>2026-05-04T09:17:15.999Z</time></trkpt><trkpt lat="42.23809408560787" lon="20.009588737365437"><ele>824.6</ele><time>2026-05-04T09:17:16.999Z</time></trkpt><trkpt lat="42.23818512286636" lon="20.009638477321626"><ele>820.2</ele><time>2026-05-04T09:17:17.999Z</time></trkpt><trkpt lat="42.23827957890167" lon="20.00969298521719"><ele>815.8000000000001</ele><time>2026-05-04T09:17:18.999Z</time></trkpt><trkpt lat="42.23838190911671" lon="20.009763264716327"><ele>811.4000000000001</ele><time>2026-05-04T09:17:19.999Z</time></trkpt><trkpt lat="42.23847696820821" lon="20.00982707740356"><ele>807.0</ele><time>2026-05-04T09:17:20.999Z</time></trkpt><trkpt lat="42.23854720447225" lon="20.0098869981006"><ele>807.0</ele><time>2026-05-04T09:17:21.999Z</time></trkpt><trkpt lat="42.23859950492964" lon="20.00996875676914"><ele>807.0</ele><time>2026-05-04T09:17:22.999Z</time></trkpt><trkpt lat="42.23864548448689" lon="20.010079477181158"><ele>807.0</ele><time>2026-05-04T09:17:23.999Z</time></trkpt><trkpt lat="42.23868187308959" lon="20.01018772840982"><ele>807.0</ele><time>2026-05-04T09:17:24.999Z</time></trkpt><trkpt lat="42.2387053961747" lon="20.010281375114307"><ele>807.0</ele><time>2026-05-04T09:17:25.999Z</time></trkpt><trkpt lat="42.23872767733634" lon="20.010369848793676"><ele>807.0</ele><time>2026-05-04T09:17:26.999Z</time></trkpt><trkpt lat="42.23875114250833" lon="20.01047409162369"><ele>811.6</ele><time>2026-05-04T09:17:27.999Z</time></trkpt><trkpt lat="42.238764625028615" lon="20.010594081464653"><ele>816.2</ele><time>2026-05-04T09:17:28.999Z</time></trkpt><trkpt lat="42.238773793700155" lon="20.010752096040576"><ele>820.8</ele><time>2026-05-04T09:17:29.999Z</time></trkpt><trkpt lat="42.23877764168546" lon="20.010875551503347"><ele>825.4</ele><time>2026-05-04T09:17:30.999Z</time></trkpt><trkpt lat="42.23877870014616" lon="20.010977986289756"><ele>830.0</ele><time>2026-05-04T09:17:31.999Z</time></trkpt><trkpt lat="42.238806999831084" lon="20.011074371360166"><ele>829.6666666666667</ele><time>2026-05-04T09:17:32.999Z</time></trkpt><trkpt lat="42.23885580115578" lon="20.011156738415618"><ele>829.3333333333334</ele><time>2026-05-04T09:17:33.999Z</time></trkpt><trkpt lat="42.23888983346089" lon="20.011239580461396"><ele>829.0</ele><time>2026-05-04T09:17:34.999Z</time></trkpt><trkpt lat="42.23891312640319" lon="20.01132862063313"><ele>828.6666666666667</ele><time>2026-05-04T09:17:35.999Z</time></trkpt><trkpt lat="42.23892510289999" lon="20.01142484078011"><ele>828.3333333333334</ele><time>2026-05-04T09:17:36.999Z</time></trkpt><trkpt lat="42.23893408061267" lon="20.01157088739448"><ele>828.0</ele><time>2026-05-04T09:17:38.999Z</time></trkpt><trkpt lat="42.238904703916674" lon="20.011700621648718"><ele>828.0</ele><time>2026-05-04T09:17:40.999Z</time></trkpt><trkpt lat="42.23887071007749" lon="20.011814955744526"><ele>828.0</ele><time>2026-05-04T09:17:42.999Z</time></trkpt><trkpt lat="42.23893118628183" lon="20.011885538207203"><ele>828.0</ele><time>2026-05-04T09:17:44.999Z</time></trkpt><trkpt lat="42.2389956724567" lon="20.011890665717768"><ele>828.0</ele><time>2026-05-04T09:17:45.999Z</time></trkpt><trkpt lat="42.23905691682605" lon="20.01186553460599"><ele>828.0</ele><time>2026-05-04T09:17:46.999Z</time></trkpt><trkpt lat="42.23917086129419" lon="20.011798902609005"><ele>828.0</ele><time>2026-05-04T09:17:48.999Z</time></trkpt><trkpt lat="42.23924756933641" lon="20.011749954009403"><ele>824.8333333333334</ele><time>2026-05-04T09:17:49.999Z</time></trkpt><trkpt lat="42.23931122914684" lon="20.011705389220577"><ele>821.6666666666667</ele><time>2026-05-04T09:17:50.999Z</time></trkpt><trkpt lat="42.239365951255024" lon="20.011636891260302"><ele>818.5</ele><time>2026-05-04T09:17:51.999Z</time></trkpt><trkpt lat="42.23943165120168" lon="20.01154679258635"><ele>815.3333333333334</ele><time>2026-05-04T09:17:52.999Z</time></trkpt><trkpt lat="42.239504932279125" lon="20.01148055721171"><ele>812.1666666666667</ele><time>2026-05-04T09:17:53.999Z</time></trkpt><trkpt lat="42.23959826730251" lon="20.01140754880295"><ele>809.0</ele><time>2026-05-04T09:17:54.999Z</time></trkpt><trkpt lat="42.23967135131709" lon="20.01133666574478"><ele>806.8333333333334</ele><time>2026-05-04T09:17:55.999Z</time></trkpt><trkpt lat="42.23973305862511" lon="20.01125963896659"><ele>804.6666666666667</ele><time>2026-05-04T09:17:56.999Z</time></trkpt><trkpt lat="42.23978693532524" lon="20.011189797012655"><ele>802.5</ele><time>2026-05-04T09:17:57.999Z</time></trkpt><trkpt lat="42.23984686317803" lon="20.01112554967787"><ele>800.3333333333333</ele><time>2026-05-04T09:17:58.999Z</time></trkpt><trkpt lat="42.2399154265021" lon="20.011062772759157"><ele>798.1666666666666</ele><time>2026-05-04T09:17:59.999Z</time></trkpt><trkpt lat="42.239970728803435" lon="20.011008731655963"><ele>796.0</ele><time>2026-05-04T09:18:00.999Z</time></trkpt><trkpt lat="42.24003311912639" lon="20.010963638185014"><ele>795.9999999999999</ele><time>2026-05-04T09:18:01.999Z</time></trkpt><trkpt lat="42.24010567337464" lon="20.010903367509904"><ele>796.0</ele><time>2026-05-04T09:18:02.999Z</time></trkpt><trkpt lat="42.24016437560483" lon="20.010830569010373"><ele>796.0</ele><time>2026-05-04T09:18:04Z</time></trkpt><trkpt lat="42.24022968204371" lon="20.010747213572248"><ele>796.0</ele><time>2026-05-04T09:18:05Z</time></trkpt><trkpt lat="42.2402800598152" lon="20.01066060639205"><ele>795.9999999999999</ele><time>2026-05-04T09:18:06Z</time></trkpt><trkpt lat="42.240332159657406" lon="20.010574384798698"><ele>796.0</ele><time>2026-05-04T09:18:07Z</time></trkpt><trkpt lat="42.24038014870628" lon="20.010483544865828"><ele>793.4999999999999</ele><time>2026-05-04T09:18:08Z</time></trkpt><trkpt lat="42.24042460557817" lon="20.010393039224176"><ele>791.0</ele><time>2026-05-04T09:18:09Z</time></trkpt><trkpt lat="42.24046869854679" lon="20.01029702118102"><ele>788.5</ele><time>2026-05-04T09:18:10Z</time></trkpt><trkpt lat="42.240511181962376" lon="20.0101869170866"><ele>786.0</ele><time>2026-05-04T09:18:11Z</time></trkpt><trkpt lat="42.24055677375647" lon="20.01008737530391"><ele>783.4999999999999</ele><time>2026-05-04T09:18:12Z</time></trkpt><trkpt lat="42.24060944266287" lon="20.010017454057227"><ele>781.0</ele><time>2026-05-04T09:18:13Z</time></trkpt><trkpt lat="42.24067160557322" lon="20.0099415480966"><ele>780.9999999999999</ele><time>2026-05-04T09:18:14Z</time></trkpt><trkpt lat="42.240732782996766" lon="20.009859393233214"><ele>781.0</ele><time>2026-05-04T09:18:15Z</time></trkpt><trkpt lat="42.24080086551445" lon="20.009780500659687"><ele>781.0</ele><time>2026-05-04T09:18:16Z</time></trkpt><trkpt lat="42.24087544070112" lon="20.009709541186186"><ele>781.0</ele><time>2026-05-04T09:18:17Z</time></trkpt><trkpt lat="42.24094434346035" lon="20.00964962651134"><ele>780.9999999999999</ele><time>2026-05-04T09:18:18Z</time></trkpt><trkpt lat="42.24099272558732" lon="20.00958084179404"><ele>781.0</ele><time>2026-05-04T09:18:19Z</time></trkpt><trkpt lat="42.241017565703196" lon="20.009490800721583"><ele>780.9999999999999</ele><time>2026-05-04T09:18:20Z</time></trkpt><trkpt lat="42.241043002637475" lon="20.009371944090407"><ele>781.0</ele><time>2026-05-04T09:18:21Z</time></trkpt><trkpt lat="42.24107142054234" lon="20.009286586269003"><ele>781.0</ele><time>2026-05-04T09:18:22Z</time></trkpt><trkpt lat="42.241119821194616" lon="20.009227902280855"><ele>781.0</ele><time>2026-05-04T09:18:23Z</time></trkpt><trkpt lat="42.24118443195726" lon="20.00918313059258"><ele>780.9999999999999</ele><time>2026-05-04T09:18:24Z</time></trkpt><trkpt lat="42.241248439040014" lon="20.009134165895397"><ele>781.0</ele><time>2026-05-04T09:18:25Z</time></trkpt><trkpt lat="42.24131975833402" lon="20.008979960974507"><ele>780.25</ele><time>2026-05-04T09:18:27Z</time></trkpt><trkpt lat="42.24144961211097" lon="20.008923525554533"><ele>779.5</ele><time>2026-05-04T09:18:29Z</time></trkpt><trkpt lat="42.24154855549561" lon="20.0089201325323"><ele>778.75</ele><time>2026-05-04T09:18:30Z</time></trkpt><trkpt lat="42.24166302308828" lon="20.00889799398626"><ele>778.0</ele><time>2026-05-04T09:18:31Z</time></trkpt><trkpt lat="42.24176036075736" lon="20.00883894711376"><ele>777.9999999999999</ele><time>2026-05-04T09:18:32Z</time></trkpt><trkpt lat="42.24183481664835" lon="20.00876202586613"><ele>778.0</ele><time>2026-05-04T09:18:33Z</time></trkpt><trkpt lat="42.241896083729074" lon="20.008647365848255"><ele>778.0</ele><time>2026-05-04T09:18:34Z</time></trkpt><trkpt lat="42.24193862037998" lon="20.00852825164254"><ele>778.0</ele><time>2026-05-04T09:18:35Z</time></trkpt><trkpt lat="42.2419834047652" lon="20.008448986647068"><ele>777.9999999999999</ele><time>2026-05-04T09:18:36Z</time></trkpt><trkpt lat="42.242038765417554" lon="20.008392286084536"><ele>778.0</ele><time>2026-05-04T09:18:37Z</time></trkpt><trkpt lat="42.242110583026765" lon="20.008354376614193"><ele>778.0</ele><time>2026-05-04T09:18:38Z</time></trkpt><trkpt lat="42.242203490662675" lon="20.008344886950116"><ele>778.0</ele><time>2026-05-04T09:18:39Z</time></trkpt><trkpt lat="42.24229120029831" lon="20.00835400164905"><ele>778.0</ele><time>2026-05-04T09:18:40Z</time></trkpt><trkpt lat="42.242377916178576" lon="20.008381984634777"><ele>778.0</ele><time>2026-05-04T09:18:41Z</time></trkpt><trkpt lat="42.24246524213302" lon="20.00842901384355"><ele>778.0</ele><time>2026-05-04T09:18:42Z</time></trkpt><trkpt lat="42.24255262640963" lon="20.008495150628633"><ele>778.3333333333333</ele><time>2026-05-04T09:18:43Z</time></trkpt><trkpt lat="42.2426300448633" lon="20.00855452048594"><ele>778.6666666666666</ele><time>2026-05-04T09:18:44Z</time></trkpt><trkpt lat="42.2427141137755" lon="20.008623073186552"><ele>779.0</ele><time>2026-05-04T09:18:45Z</time></trkpt><trkpt lat="42.2427970312048" lon="20.0086789642382"><ele>779.3333333333333</ele><time>2026-05-04T09:18:46Z</time></trkpt><trkpt lat="42.24287505531037" lon="20.00873703608582"><ele>779.6666666666666</ele><time>2026-05-04T09:18:47Z</time></trkpt><trkpt lat="42.24294396434178" lon="20.008787881022126"><ele>780.0</ele><time>2026-05-04T09:18:48Z</time></trkpt><trkpt lat="42.24300705257636" lon="20.008844853707377"><ele>780.0</ele><time>2026-05-04T09:18:49Z</time></trkpt><trkpt lat="42.24308692123239" lon="20.00889638476541"><ele>780.0</ele><time>2026-05-04T09:18:50Z</time></trkpt><trkpt lat="42.24316733932251" lon="20.00895470160185"><ele>780.0</ele><time>2026-05-04T09:18:51Z</time></trkpt><trkpt lat="42.24323118331336" lon="20.009022518088848"><ele>780.0</ele><time>2026-05-04T09:18:52Z</time></trkpt><trkpt lat="42.24326081001158" lon="20.009097926574334"><ele>780.0</ele><time>2026-05-04T09:18:53Z</time></trkpt><trkpt lat="42.2432520518621" lon="20.009193566941708"><ele>780.0</ele><time>2026-05-04T09:18:54Z</time></trkpt><trkpt lat="42.24322483145291" lon="20.009285396629693"><ele>778.3333333333334</ele><time>2026-05-04T09:18:55Z</time></trkpt><trkpt lat="42.24318296074774" lon="20.00939026905901"><ele>776.6666666666667</ele><time>2026-05-04T09:18:56Z</time></trkpt><trkpt lat="42.243149922078885" lon="20.009464695534543"><ele>775.0</ele><time>2026-05-04T09:18:57Z</time></trkpt><trkpt lat="42.24315042248652" lon="20.009644372425154"><ele>773.3333333333334</ele><time>2026-05-04T09:18:59Z</time></trkpt><trkpt lat="42.24319786013279" lon="20.009707332449373"><ele>771.6666666666667</ele><time>2026-05-04T09:19:00Z</time></trkpt><trkpt lat="42.24327476812358" lon="20.009756055063324"><ele>770.0</ele><time>2026-05-04T09:19:01Z</time></trkpt><trkpt lat="42.24335907316663" lon="20.009784174416147"><ele>770.0000000000001</ele><time>2026-05-04T09:19:02Z</time></trkpt><trkpt lat="42.243446071025396" lon="20.009811607316358"><ele>770.0</ele><time>2026-05-04T09:19:03Z</time></trkpt><trkpt lat="42.24354331968744" lon="20.009817617294775"><ele>770.0</ele><time>2026-05-04T09:19:04Z</time></trkpt><trkpt lat="42.24361308116794" lon="20.009801399093014"><ele>770.0</ele><time>2026-05-04T09:19:05Z</time></trkpt><trkpt lat="42.24368573800532" lon="20.009774175750007"><ele>770.0000000000001</ele><time>2026-05-04T09:19:06Z</time></trkpt><trkpt lat="42.24376431568499" lon="20.009734586930612"><ele>770.0</ele><time>2026-05-04T09:19:07Z</time></trkpt><trkpt lat="42.243837749140496" lon="20.009704776877165"><ele>770.0000000000001</ele><time>2026-05-04T09:19:08Z</time></trkpt><trkpt lat="42.243910228227925" lon="20.009670604580773"><ele>770.0</ele><time>2026-05-04T09:19:09Z</time></trkpt><trkpt lat="42.24397602586669" lon="20.009616610008788"><ele>770.0</ele><time>2026-05-04T09:19:10Z</time></trkpt><trkpt lat="42.244039375670965" lon="20.009552222576684"><ele>770.0</ele><time>2026-05-04T09:19:11Z</time></trkpt><trkpt lat="42.24410806095405" lon="20.009479420893804"><ele>770.0000000000001</ele><time>2026-05-04T09:19:12Z</time></trkpt><trkpt lat="42.244182388115235" lon="20.009406579869086"><ele>770.0</ele><time>2026-05-04T09:19:13Z</time></trkpt><trkpt lat="42.24423655453704" lon="20.00931948201183"><ele>767.8333333333334</ele><time>2026-05-04T09:19:14Z</time></trkpt><trkpt lat="42.24426460523341" lon="20.009215502333145"><ele>765.6666666666667</ele><time>2026-05-04T09:19:15Z</time></trkpt><trkpt lat="42.24426905848343" lon="20.009102867775198"><ele>763.5</ele><time>2026-05-04T09:19:16Z</time></trkpt><trkpt lat="42.24425135083009" lon="20.008995385067934"><ele>761.3333333333334</ele><time>2026-05-04T09:19:17Z</time></trkpt><trkpt lat="42.24423957461478" lon="20.00889637855754"><ele>759.1666666666667</ele><time>2026-05-04T09:19:18Z</time></trkpt><trkpt lat="42.244248630211025" lon="20.008796265499704"><ele>757.0</ele><time>2026-05-04T09:19:19Z</time></trkpt><trkpt lat="42.244263291053926" lon="20.008700694708065"><ele>755.4285714285714</ele><time>2026-05-04T09:19:19.999Z</time></trkpt><trkpt lat="42.244291023252416" lon="20.00862346832152"><ele>753.8571428571428</ele><time>2026-05-04T09:19:20.999Z</time></trkpt><trkpt lat="42.24437119957097" lon="20.00858040215566"><ele>752.2857142857142</ele><time>2026-05-04T09:19:22.999Z</time></trkpt><trkpt lat="42.244436680764366" lon="20.008598342438006"><ele>750.7142857142858</ele><time>2026-05-04T09:19:23.999Z</time></trkpt><trkpt lat="42.24451102549064" lon="20.008638950042943"><ele>749.1428571428571</ele><time>2026-05-04T09:19:24.999Z</time></trkpt><trkpt lat="42.24458096094192" lon="20.00868324946552"><ele>747.5714285714286</ele><time>2026-05-04T09:19:25.999Z</time></trkpt><trkpt lat="42.244638060081364" lon="20.008722415044254"><ele>746.0</ele><time>2026-05-04T09:19:26.999Z</time></trkpt><trkpt lat="42.244711199647156" lon="20.00881685459313"><ele>746.0</ele><time>2026-05-04T09:19:28.999Z</time></trkpt><trkpt lat="42.24475111979289" lon="20.008948385850896"><ele>746.0</ele><time>2026-05-04T09:19:30.999Z</time></trkpt><trkpt lat="42.2447669117346" lon="20.00903658892793"><ele>746.0</ele><time>2026-05-04T09:19:31.999Z</time></trkpt><trkpt lat="42.244791614463225" lon="20.009126673918338"><ele>746.0</ele><time>2026-05-04T09:19:32.999Z</time></trkpt><trkpt lat="42.24483220470831" lon="20.009210362093413"><ele>746.0</ele><time>2026-05-04T09:19:33.999Z</time></trkpt><trkpt lat="42.244873760859875" lon="20.009289692661973"><ele>746.0</ele><time>2026-05-04T09:19:34.999Z</time></trkpt><trkpt lat="42.2449509594834" lon="20.009423636331814"><ele>745.0</ele><time>2026-05-04T09:19:36.999Z</time></trkpt><trkpt lat="42.24503756520615" lon="20.009530593353134"><ele>744.0</ele><time>2026-05-04T09:19:38.999Z</time></trkpt><trkpt lat="42.24510324807278" lon="20.009595985886538"><ele>743.0</ele><time>2026-05-04T09:19:39.999Z</time></trkpt><trkpt lat="42.2451702399813" lon="20.009656173310848"><ele>742.0</ele><time>2026-05-04T09:19:40.999Z</time></trkpt><trkpt lat="42.2452346654272" lon="20.009744060388307"><ele>741.0</ele><time>2026-05-04T09:19:41.999Z</time></trkpt><trkpt lat="42.24526134759388" lon="20.009836847392325"><ele>740.0</ele><time>2026-05-04T09:19:42.999Z</time></trkpt><trkpt lat="42.24526842995307" lon="20.009944051023975"><ele>741.3333333333333</ele><time>2026-05-04T09:19:43.999Z</time></trkpt><trkpt lat="42.24527138521746" lon="20.01005236412765"><ele>742.6666666666666</ele><time>2026-05-04T09:19:44.999Z</time></trkpt><trkpt lat="42.24529576087429" lon="20.010148860270842"><ele>744.0</ele><time>2026-05-04T09:19:45.999Z</time></trkpt><trkpt lat="42.245342956318154" lon="20.010240515228954"><ele>745.3333333333334</ele><time>2026-05-04T09:19:46.999Z</time></trkpt><trkpt lat="42.24540185616547" lon="20.010303364642755"><ele>746.6666666666667</ele><time>2026-05-04T09:19:47.999Z</time></trkpt><trkpt lat="42.24549488541591" lon="20.010360705187946"><ele>748.0</ele><time>2026-05-04T09:19:48.999Z</time></trkpt><trkpt lat="42.24558055898548" lon="20.010422623711015"><ele>742.2</ele><time>2026-05-04T09:19:49.999Z</time></trkpt><trkpt lat="42.24565387853033" lon="20.01047905970997"><ele>736.4</ele><time>2026-05-04T09:19:50.999Z</time></trkpt><trkpt lat="42.24574859681393" lon="20.01053825586085"><ele>730.6</ele><time>2026-05-04T09:19:51.999Z</time></trkpt><trkpt lat="42.24583598279443" lon="20.010579016837248"><ele>724.8000000000001</ele><time>2026-05-04T09:19:52.999Z</time></trkpt><trkpt lat="42.24592257101302" lon="20.010629465469254"><ele>719.0</ele><time>2026-05-04T09:19:53.999Z</time></trkpt><trkpt lat="42.246010978785336" lon="20.01067616429328"><ele>719.0</ele><time>2026-05-04T09:19:54.999Z</time></trkpt><trkpt lat="42.24609874497669" lon="20.010696371023162"><ele>719.0</ele><time>2026-05-04T09:19:55.999Z</time></trkpt><trkpt lat="42.24618837493267" lon="20.010738393064873"><ele>719.0</ele><time>2026-05-04T09:19:56.999Z</time></trkpt><trkpt lat="42.246262861841245" lon="20.010768300937567"><ele>719.0</ele><time>2026-05-04T09:19:57.999Z</time></trkpt><trkpt lat="42.246342732641835" lon="20.010819822488042"><ele>719.0</ele><time>2026-05-04T09:19:58.999Z</time></trkpt><trkpt lat="42.2464300108961" lon="20.010905885167343"><ele>717.2</ele><time>2026-05-04T09:19:59.999Z</time></trkpt><trkpt lat="42.24652027989025" lon="20.010977230914925"><ele>715.4000000000001</ele><time>2026-05-04T09:20:00.999Z</time></trkpt><trkpt lat="42.24659554883538" lon="20.011053491684876"><ele>713.6</ele><time>2026-05-04T09:20:01.999Z</time></trkpt><trkpt lat="42.2466436765341" lon="20.01114129365668"><ele>711.8</ele><time>2026-05-04T09:20:02.999Z</time></trkpt><trkpt lat="42.24667037488036" lon="20.01126165474828"><ele>710.0</ele><time>2026-05-04T09:20:03.999Z</time></trkpt><trkpt lat="42.24669319296976" lon="20.011377962896756"><ele>710.0</ele><time>2026-05-04T09:20:04.999Z</time></trkpt><trkpt lat="42.24668861211434" lon="20.011551116363233"><ele>710.0</ele><time>2026-05-04T09:20:06.999Z</time></trkpt><trkpt lat="42.2466682095266" lon="20.011643571863758"><ele>710.0</ele><time>2026-05-04T09:20:07.999Z</time></trkpt><trkpt lat="42.24673105170691" lon="20.011778552456846"><ele>710.0</ele><time>2026-05-04T09:20:10Z</time></trkpt><trkpt lat="42.24678346678967" lon="20.011874023080754"><ele>710.0</ele><time>2026-05-04T09:20:11Z</time></trkpt><trkpt lat="42.246807510338314" lon="20.011971453673553"><ele>710.1666666666666</ele><time>2026-05-04T09:20:12Z</time></trkpt><trkpt lat="42.24680304999229" lon="20.012076218780464"><ele>710.3333333333333</ele><time>2026-05-04T09:20:13Z</time></trkpt><trkpt lat="42.246779697255704" lon="20.01217603140112"><ele>710.5</ele><time>2026-05-04T09:20:14Z</time></trkpt><trkpt lat="42.24674850022973" lon="20.012266113595746"><ele>710.6666666666666</ele><time>2026-05-04T09:20:15Z</time></trkpt><trkpt lat="42.246800351331096" lon="20.012369146248904"><ele>710.8333333333334</ele><time>2026-05-04T09:20:17Z</time></trkpt><trkpt lat="42.24692555539405" lon="20.012350000803465"><ele>711.0</ele><time>2026-05-04T09:20:19Z</time></trkpt><trkpt lat="42.24698216583787" lon="20.01230429830183"><ele>711.0</ele><time>2026-05-04T09:20:20Z</time></trkpt><trkpt lat="42.247047223441385" lon="20.012249917926262"><ele>711.0</ele><time>2026-05-04T09:20:21Z</time></trkpt><trkpt lat="42.24712501337206" lon="20.012207909733355"><ele>711.0</ele><time>2026-05-04T09:20:22Z</time></trkpt><trkpt lat="42.247241149856265" lon="20.01214022300425"><ele>711.0</ele><time>2026-05-04T09:20:24Z</time></trkpt><trkpt lat="42.24727330084727" lon="20.012060884245177"><ele>711.0</ele><time>2026-05-04T09:20:25Z</time></trkpt><trkpt lat="42.24727859455341" lon="20.011964121443608"><ele>711.0</ele><time>2026-05-04T09:20:26Z</time></trkpt><trkpt lat="42.2472812833866" lon="20.01185908133001"><ele>707.6666666666666</ele><time>2026-05-04T09:20:27Z</time></trkpt><trkpt lat="42.24729905472399" lon="20.011751245955704"><ele>704.3333333333334</ele><time>2026-05-04T09:20:28Z</time></trkpt><trkpt lat="42.247343335494215" lon="20.01166576156446"><ele>701.0</ele><time>2026-05-04T09:20:29Z</time></trkpt><trkpt lat="42.24741948357606" lon="20.011619545703926"><ele>697.6666666666667</ele><time>2026-05-04T09:20:30Z</time></trkpt><trkpt lat="42.24750880105762" lon="20.011565137494554"><ele>694.3333333333334</ele><time>2026-05-04T09:20:31Z</time></trkpt><trkpt lat="42.24757992195874" lon="20.011530281227998"><ele>691.0</ele><time>2026-05-04T09:20:32Z</time></trkpt><trkpt lat="42.24764396357461" lon="20.01142430580578"><ele>691.0</ele><time>2026-05-04T09:20:34Z</time></trkpt><trkpt lat="42.24773046130899" lon="20.01136159468704"><ele>691.0</ele><time>2026-05-04T09:20:37Z</time></trkpt><trkpt lat="42.24779964708982" lon="20.011351398643587"><ele>691.0</ele><time>2026-05-04T09:20:38Z</time></trkpt><trkpt lat="42.247901331600424" lon="20.011305952294038"><ele>691.0</ele><time>2026-05-04T09:20:40Z</time></trkpt><trkpt lat="42.24791333429454" lon="20.011125748696838"><ele>691.0</ele><time>2026-05-04T09:20:42Z</time></trkpt><trkpt lat="42.24790545846023" lon="20.0110353057652"><ele>690.9999999999999</ele><time>2026-05-04T09:20:43Z</time></trkpt><trkpt lat="42.247891303580474" lon="20.01095031749251"><ele>691.0</ele><time>2026-05-04T09:20:44Z</time></trkpt><trkpt lat="42.247881305836124" lon="20.010864633816148"><ele>691.0</ele><time>2026-05-04T09:20:45Z</time></trkpt><trkpt lat="42.247898215955395" lon="20.010775142480288"><ele>691.0</ele><time>2026-05-04T09:20:46Z</time></trkpt><trkpt lat="42.24794079961672" lon="20.010706337813865"><ele>691.0</ele><time>2026-05-04T09:20:47Z</time></trkpt><trkpt lat="42.24798961881508" lon="20.010631690068728"><ele>690.9999999999999</ele><time>2026-05-04T09:20:48Z</time></trkpt><trkpt lat="42.24802529918613" lon="20.010559429822198"><ele>691.0</ele><time>2026-05-04T09:20:49Z</time></trkpt><trkpt lat="42.24805373976666" lon="20.01039353099651"><ele>688.5999999999999</ele><time>2026-05-04T09:20:51Z</time></trkpt><trkpt lat="42.24806118321384" lon="20.01026084192396"><ele>686.2</ele><time>2026-05-04T09:20:52Z</time></trkpt><trkpt lat="42.24807757140352" lon="20.010129803518797"><ele>683.8</ele><time>2026-05-04T09:20:53Z</time></trkpt><trkpt lat="42.24809458616717" lon="20.01000492625776"><ele>681.4000000000001</ele><time>2026-05-04T09:20:54Z</time></trkpt><trkpt lat="42.24811899263601" lon="20.009891330819748"><ele>679.0</ele><time>2026-05-04T09:20:55Z</time></trkpt><trkpt lat="42.24809475526868" lon="20.00975609283033"><ele>676.8333333333334</ele><time>2026-05-04T09:20:57Z</time></trkpt><trkpt lat="42.24798899860637" lon="20.009677207136498"><ele>674.6666666666667</ele><time>2026-05-04T09:20:59Z</time></trkpt><trkpt lat="42.247923726787576" lon="20.009662467755547"><ele>672.5</ele><time>2026-05-04T09:21:00Z</time></trkpt><trkpt lat="42.247846740490125" lon="20.009662377901325"><ele>670.3333333333334</ele><time>2026-05-04T09:21:01Z</time></trkpt><trkpt lat="42.24775722510405" lon="20.009645494758953"><ele>668.1666666666666</ele><time>2026-05-04T09:21:02Z</time></trkpt><trkpt lat="42.247668556066394" lon="20.009606850490513"><ele>666.0</ele><time>2026-05-04T09:21:03Z</time></trkpt><trkpt lat="42.247610139754464" lon="20.0095340678663"><ele>666.0</ele><time>2026-05-04T09:21:04Z</time></trkpt><trkpt lat="42.24760424642513" lon="20.009447554124144"><ele>666.0</ele><time>2026-05-04T09:21:05Z</time></trkpt><trkpt lat="42.247647258280416" lon="20.009376442857583"><ele>666.0</ele><time>2026-05-04T09:21:06Z</time></trkpt><trkpt lat="42.2477022514859" lon="20.0093079395016"><ele>666.0</ele><time>2026-05-04T09:21:07Z</time></trkpt><trkpt lat="42.247750434663565" lon="20.009231371275888"><ele>666.0</ele><time>2026-05-04T09:21:08Z</time></trkpt><trkpt lat="42.2477947085276" lon="20.009136982360065"><ele>666.0</ele><time>2026-05-04T09:21:09Z</time></trkpt><trkpt lat="42.24784829988175" lon="20.00904965906858"><ele>666.0</ele><time>2026-05-04T09:21:10Z</time></trkpt><trkpt lat="42.24787938329878" lon="20.00895017609189"><ele>664.4</ele><time>2026-05-04T09:21:11Z</time></trkpt><trkpt lat="42.247873885616855" lon="20.008859611462096"><ele>662.8</ele><time>2026-05-04T09:21:12Z</time></trkpt><trkpt lat="42.247783410856854" lon="20.00879601881756"><ele>661.1999999999999</ele><time>2026-05-04T09:21:14Z</time></trkpt><trkpt lat="42.24771532813442" lon="20.00877524187716"><ele>659.5999999999999</ele><time>2026-05-04T09:21:15Z</time></trkpt><trkpt lat="42.24766016852904" lon="20.00867311597041"><ele>658.0</ele><time>2026-05-04T09:21:17Z</time></trkpt><trkpt lat="42.247716740105545" lon="20.00852679845768"><ele>658.0</ele><time>2026-05-04T09:21:19Z</time></trkpt><trkpt lat="42.24773274530523" lon="20.008411965003873"><ele>658.0</ele><time>2026-05-04T09:21:20Z</time></trkpt><trkpt lat="42.247750278131896" lon="20.008305945890633"><ele>658.0</ele><time>2026-05-04T09:21:21Z</time></trkpt><trkpt lat="42.247776455108024" lon="20.00821859502094"><ele>658.0</ele><time>2026-05-04T09:21:22Z</time></trkpt><trkpt lat="42.247816196038556" lon="20.008135357516217"><ele>658.0</ele><time>2026-05-04T09:21:23Z</time></trkpt><trkpt lat="42.247830612499314" lon="20.008046772976293"><ele>658.0</ele><time>2026-05-04T09:21:24Z</time></trkpt><trkpt lat="42.2478127431829" lon="20.007940383589805"><ele>657.8333333333334</ele><time>2026-05-04T09:21:25Z</time></trkpt><trkpt lat="42.24776407522168" lon="20.00785100314466"><ele>657.6666666666667</ele><time>2026-05-04T09:21:26Z</time></trkpt><trkpt lat="42.24769904042174" lon="20.00778254504902"><ele>657.5</ele><time>2026-05-04T09:21:27Z</time></trkpt><trkpt lat="42.247672698171684" lon="20.007685388041004"><ele>657.3333333333334</ele><time>2026-05-04T09:21:29Z</time></trkpt><trkpt lat="42.247747633333084" lon="20.00758558817438"><ele>657.1666666666666</ele><time>2026-05-04T09:21:31Z</time></trkpt><trkpt lat="42.24781785456521" lon="20.007522502022013"><ele>657.0</ele><time>2026-05-04T09:21:33Z</time></trkpt><trkpt lat="42.24788960431822" lon="20.00740646679495"><ele>657.8</ele><time>2026-05-04T09:21:35Z</time></trkpt><trkpt lat="42.24798546436121" lon="20.007298282490748"><ele>658.6</ele><time>2026-05-04T09:21:37Z</time></trkpt><trkpt lat="42.24806873624636" lon="20.007267435080134"><ele>659.4</ele><time>2026-05-04T09:21:38Z</time></trkpt><trkpt lat="42.24818739529175" lon="20.007206945108056"><ele>660.1999999999999</ele><time>2026-05-04T09:21:40Z</time></trkpt><trkpt lat="42.24825029713236" lon="20.007156519320002"><ele>661.0</ele><time>2026-05-04T09:21:41Z</time></trkpt><trkpt lat="42.248323886090006" lon="20.007083399501244"><ele>656.8333333333334</ele><time>2026-05-04T09:21:42Z</time></trkpt><trkpt lat="42.24837617797595" lon="20.007012614672906"><ele>652.6666666666667</ele><time>2026-05-04T09:21:43Z</time></trkpt><trkpt lat="42.24840643838636" lon="20.00692708583665"><ele>648.5</ele><time>2026-05-04T09:21:44Z</time></trkpt><trkpt lat="42.248428811871854" lon="20.00681649785747"><ele>644.3333333333334</ele><time>2026-05-04T09:21:45Z</time></trkpt><trkpt lat="42.24845737997631" lon="20.006715254548034"><ele>640.1666666666666</ele><time>2026-05-04T09:21:46Z</time></trkpt><trkpt lat="42.24848892057231" lon="20.006621290078655"><ele>636.0</ele><time>2026-05-04T09:21:47Z</time></trkpt><trkpt lat="42.248529794816896" lon="20.00651599182797"><ele>636.0</ele><time>2026-05-04T09:21:48Z</time></trkpt><trkpt lat="42.2485599792537" lon="20.00641221807691"><ele>636.0</ele><time>2026-05-04T09:21:49Z</time></trkpt><trkpt lat="42.24858204429404" lon="20.0063299343911"><ele>636.0</ele><time>2026-05-04T09:21:50Z</time></trkpt><trkpt lat="42.24868827566397" lon="20.006280669673686"><ele>636.0</ele><time>2026-05-04T09:21:52Z</time></trkpt><trkpt lat="42.24878136297288" lon="20.006235698811654"><ele>636.0</ele><time>2026-05-04T09:21:54Z</time></trkpt><trkpt lat="42.24885195897319" lon="20.00609246561362"><ele>636.0</ele><time>2026-05-04T09:21:56Z</time></trkpt><trkpt lat="42.24886106836206" lon="20.00598942721535"><ele>636.0</ele><time>2026-05-04T09:21:57Z</time></trkpt><trkpt lat="42.24883747247795" lon="20.005907618509166"><ele>636.0</ele><time>2026-05-04T09:21:58Z</time></trkpt><trkpt lat="42.24877911092652" lon="20.005753588715596"><ele>636.0</ele><time>2026-05-04T09:22:00Z</time></trkpt><trkpt lat="42.24877401458718" lon="20.005644500723974"><ele>636.0</ele><time>2026-05-04T09:22:01Z</time></trkpt><trkpt lat="42.248764978635876" lon="20.00552164405518"><ele>636.0</ele><time>2026-05-04T09:22:02Z</time></trkpt><trkpt lat="42.248757392268" lon="20.005384405528176"><ele>635.1666666666666</ele><time>2026-05-04T09:22:03Z</time></trkpt><trkpt lat="42.24874536355365" lon="20.005271225672473"><ele>634.3333333333334</ele><time>2026-05-04T09:22:03.999Z</time></trkpt><trkpt lat="42.24872342021032" lon="20.005177961079912"><ele>633.5</ele><time>2026-05-04T09:22:04.999Z</time></trkpt><trkpt lat="42.24865932818119" lon="20.005055127849193"><ele>632.6666666666667</ele><time>2026-05-04T09:22:06.999Z</time></trkpt><trkpt lat="42.248624716952804" lon="20.004976114172237"><ele>631.8333333333334</ele><time>2026-05-04T09:22:07.999Z</time></trkpt><trkpt lat="42.248652967336746" lon="20.004868469542572"><ele>631.0</ele><time>2026-05-04T09:22:10.999Z</time></trkpt><trkpt lat="42.248752444567245" lon="20.004839865535384"><ele>630.6666666666667</ele><time>2026-05-04T09:22:12.999Z</time></trkpt><trkpt lat="42.24883604696878" lon="20.004846386451575"><ele>630.3333333333334</ele><time>2026-05-04T09:22:13.999Z</time></trkpt><trkpt lat="42.24891758409293" lon="20.004858796449003"><ele>630.0</ele><time>2026-05-04T09:22:15Z</time></trkpt><trkpt lat="42.24900040566821" lon="20.004887853671022"><ele>629.6666666666666</ele><time>2026-05-04T09:22:16Z</time></trkpt><trkpt lat="42.249078681764416" lon="20.00491806194354"><ele>629.3333333333333</ele><time>2026-05-04T09:22:17Z</time></trkpt><trkpt lat="42.24914049957926" lon="20.004939740595614"><ele>629.0</ele><time>2026-05-04T09:22:18Z</time></trkpt><trkpt lat="42.249205579657314" lon="20.00495447693066"><ele>626.2</ele><time>2026-05-04T09:22:19.001Z</time></trkpt><trkpt lat="42.249314034173246" lon="20.004973477279233"><ele>623.4</ele><time>2026-05-04T09:22:21.001Z</time></trkpt><trkpt lat="42.24941728381439" lon="20.00494179302511"><ele>620.6</ele><time>2026-05-04T09:22:23.001Z</time></trkpt><trkpt lat="42.24953191683793" lon="20.004867101955067"><ele>617.8</ele><time>2026-05-04T09:22:25.001Z</time></trkpt><trkpt lat="42.24960542276692" lon="20.004817435761108"><ele>615.0</ele><time>2026-05-04T09:22:26.001Z</time></trkpt><trkpt lat="42.24966785888973" lon="20.00477129868624"><ele>615.0</ele><time>2026-05-04T09:22:27.001Z</time></trkpt><trkpt lat="42.249722539499736" lon="20.0047078701952"><ele>615.0</ele><time>2026-05-04T09:22:28.001Z</time></trkpt><trkpt lat="42.249775404952366" lon="20.004619216329463"><ele>615.0</ele><time>2026-05-04T09:22:29.001Z</time></trkpt><trkpt lat="42.249824439308966" lon="20.0045155335599"><ele>615.0</ele><time>2026-05-04T09:22:30.001Z</time></trkpt><trkpt lat="42.24988330933148" lon="20.00440858416096"><ele>615.0</ele><time>2026-05-04T09:22:31.001Z</time></trkpt><trkpt lat="42.24995039249603" lon="20.00432849341561"><ele>615.0</ele><time>2026-05-04T09:22:32Z</time></trkpt><trkpt lat="42.25002678971187" lon="20.004243277772513"><ele>612.0</ele><time>2026-05-04T09:22:33Z</time></trkpt><trkpt lat="42.250100607002395" lon="20.004181300828197"><ele>609.0</ele><time>2026-05-04T09:22:34Z</time></trkpt><trkpt lat="42.250156833480546" lon="20.004108377895232"><ele>606.0</ele><time>2026-05-04T09:22:35Z</time></trkpt><trkpt lat="42.25019756061594" lon="20.004022568552628"><ele>603.0</ele><time>2026-05-04T09:22:36Z</time></trkpt><trkpt lat="42.25022884252539" lon="20.00393195505634"><ele>600.0</ele><time>2026-05-04T09:22:37Z</time></trkpt><trkpt lat="42.250266212952745" lon="20.003841921618537"><ele>597.0</ele><time>2026-05-04T09:22:38Z</time></trkpt><trkpt lat="42.25030138526683" lon="20.003767404555088"><ele>597.0</ele><time>2026-05-04T09:22:38.999Z</time></trkpt><trkpt lat="42.25033022718274" lon="20.003674765393285"><ele>597.0</ele><time>2026-05-04T09:22:39.999Z</time></trkpt><trkpt lat="42.25033284367427" lon="20.003576914390127"><ele>597.0</ele><time>2026-05-04T09:22:40.999Z</time></trkpt><trkpt lat="42.25033243819751" lon="20.003486633966407"><ele>597.0</ele><time>2026-05-04T09:22:41.999Z</time></trkpt><trkpt lat="42.2503372343795" lon="20.003377228980288"><ele>597.0</ele><time>2026-05-04T09:22:42.999Z</time></trkpt><trkpt lat="42.25035041046626" lon="20.003277927882053"><ele>597.0</ele><time>2026-05-04T09:22:43.999Z</time></trkpt><trkpt lat="42.25037502690236" lon="20.003159927625035"><ele>594.6666666666666</ele><time>2026-05-04T09:22:44.999Z</time></trkpt><trkpt lat="42.25040482961872" lon="20.003050779012145"><ele>592.3333333333334</ele><time>2026-05-04T09:22:45.999Z</time></trkpt><trkpt lat="42.250421357656585" lon="20.002952306123863"><ele>590.0</ele><time>2026-05-04T09:22:46.999Z</time></trkpt><trkpt lat="42.250419724381906" lon="20.002854429790673"><ele>587.6666666666667</ele><time>2026-05-04T09:22:47.999Z</time></trkpt><trkpt lat="42.250412732015874" lon="20.002761208356503"><ele>585.3333333333334</ele><time>2026-05-04T09:22:48.999Z</time></trkpt><trkpt lat="42.25041781897918" lon="20.002656549178234"><ele>583.0</ele><time>2026-05-04T09:22:49.999Z</time></trkpt><trkpt lat="42.25044385177252" lon="20.002523302861437"><ele>578.4</ele><time>2026-05-04T09:22:50.999Z</time></trkpt><trkpt lat="42.250474775063395" lon="20.002381882383354"><ele>573.8</ele><time>2026-05-04T09:22:51.999Z</time></trkpt><trkpt lat="42.25049420517265" lon="20.002259833917694"><ele>569.2</ele><time>2026-05-04T09:22:52.999Z</time></trkpt><trkpt lat="42.25051135934649" lon="20.002134385056777"><ele>564.6</ele><time>2026-05-04T09:22:53.999Z</time></trkpt><trkpt lat="42.25052703366943" lon="20.00202688145205"><ele>560.0</ele><time>2026-05-04T09:22:54.999Z</time></trkpt><trkpt lat="42.25055386535393" lon="20.001924978342185"><ele>560.0</ele><time>2026-05-04T09:22:55.999Z</time></trkpt><trkpt lat="42.25058980639489" lon="20.001811114969495"><ele>560.0</ele><time>2026-05-04T09:22:56.999Z</time></trkpt><trkpt lat="42.25063384133067" lon="20.001697702697143"><ele>560.0</ele><time>2026-05-04T09:22:57.999Z</time></trkpt><trkpt lat="42.25067352105923" lon="20.00160091296449"><ele>560.0</ele><time>2026-05-04T09:22:58.999Z</time></trkpt><trkpt lat="42.25072354727499" lon="20.00150997985015"><ele>560.0</ele><time>2026-05-04T09:22:59.999Z</time></trkpt><trkpt lat="42.2507873184546" lon="20.001413906822513"><ele>560.0</ele><time>2026-05-04T09:23:00.999Z</time></trkpt><trkpt lat="42.25084446230151" lon="20.00134361295994"><ele>559.0</ele><time>2026-05-04T09:23:01.999Z</time></trkpt><trkpt lat="42.250894687157434" lon="20.001273367106002"><ele>558.0</ele><time>2026-05-04T09:23:02.999Z</time></trkpt><trkpt lat="42.2509504713939" lon="20.001181685062697"><ele>557.0</ele><time>2026-05-04T09:23:03.999Z</time></trkpt><trkpt lat="42.25101035778819" lon="20.001086109640024"><ele>556.0</ele><time>2026-05-04T09:23:04.999Z</time></trkpt><trkpt lat="42.25105552496353" lon="20.000996891602707"><ele>555.0</ele><time>2026-05-04T09:23:05.999Z</time></trkpt><trkpt lat="42.25109282416883" lon="20.000887240255366"><ele>554.0</ele><time>2026-05-04T09:23:06.999Z</time></trkpt><trkpt lat="42.251107545962874" lon="20.000789673984105"><ele>552.3333333333333</ele><time>2026-05-04T09:23:07.999Z</time></trkpt><trkpt lat="42.25111813164648" lon="20.000695260817643"><ele>550.6666666666666</ele><time>2026-05-04T09:23:08.999Z</time></trkpt><trkpt lat="42.25111690941337" lon="20.00059843068094"><ele>549.0</ele><time>2026-05-04T09:23:09.999Z</time></trkpt><trkpt lat="42.25111944080233" lon="20.00051239767696"><ele>547.3333333333334</ele><time>2026-05-04T09:23:10.999Z</time></trkpt><trkpt lat="42.25111198587974" lon="20.000422673256317"><ele>545.6666666666667</ele><time>2026-05-04T09:23:11.999Z</time></trkpt><trkpt lat="42.25110422289835" lon="20.000294163380413"><ele>544.0</ele><time>2026-05-04T09:23:12.999Z</time></trkpt><trkpt lat="42.251123314516164" lon="20.00017997202524"><ele>544.0</ele><time>2026-05-04T09:23:13.999Z</time></trkpt><trkpt lat="42.251133002689386" lon="20.000047524665042"><ele>544.0</ele><time>2026-05-04T09:23:14.999Z</time></trkpt><trkpt lat="42.251126497176216" lon="19.999918083326722"><ele>544.0</ele><time>2026-05-04T09:23:15.999Z</time></trkpt><trkpt lat="42.25111953473735" lon="19.999820299295134"><ele>544.0</ele><time>2026-05-04T09:23:16.999Z</time></trkpt><trkpt lat="42.251141436926055" lon="19.999706257439115"><ele>544.0</ele><time>2026-05-04T09:23:17.999Z</time></trkpt><trkpt lat="42.25116727024234" lon="19.999580458468117"><ele>543.9999999999999</ele><time>2026-05-04T09:23:18.999Z</time></trkpt><trkpt lat="42.25118848146199" lon="19.99949970639692"><ele>544.0</ele><time>2026-05-04T09:23:21.999Z</time></trkpt><trkpt lat="42.25116624171113" lon="19.99940534805573"><ele>544.0</ele><time>2026-05-04T09:23:26.999Z</time></trkpt><trkpt lat="42.25110855362673" lon="19.99945127773857"><ele>544.0</ele><time>2026-05-04T09:23:29.999Z</time></trkpt><trkpt lat="42.25107003792477" lon="19.99953368310162"><ele>544.0</ele><time>2026-05-04T09:23:30.999Z</time></trkpt><trkpt lat="42.251041986512966" lon="19.999636963724424"><ele>543.9999999999999</ele><time>2026-05-04T09:23:31.999Z</time></trkpt><trkpt lat="42.25100029856095" lon="19.99972529778474"><ele>544.0</ele><time>2026-05-04T09:23:32.999Z</time></trkpt><trkpt lat="42.2509599636524" lon="19.999828452117907"><ele>544.0</ele><time>2026-05-04T09:23:33.999Z</time></trkpt><trkpt lat="42.2509222614654" lon="19.99994112092208"><ele>544.0</ele><time>2026-05-04T09:23:34.999Z</time></trkpt><trkpt lat="42.25087975097582" lon="20.000029167042108"><ele>544.0</ele><time>2026-05-04T09:23:35.999Z</time></trkpt><trkpt lat="42.25081773548252" lon="20.0000999274307"><ele>544.0</ele><time>2026-05-04T09:23:36.999Z</time></trkpt><trkpt lat="42.25071383090469" lon="20.000165294473447"><ele>544.0</ele><time>2026-05-04T09:23:37.999Z</time></trkpt><trkpt lat="42.25060679122539" lon="20.000260005145854"><ele>546.8</ele><time>2026-05-04T09:23:38.999Z</time></trkpt><trkpt lat="42.25052034653635" lon="20.000348187626347"><ele>549.5999999999999</ele><time>2026-05-04T09:23:39.999Z</time></trkpt><trkpt lat="42.2504531559866" lon="20.000406106927677"><ele>552.4</ele><time>2026-05-04T09:23:40.999Z</time></trkpt><trkpt lat="42.250376192181484" lon="20.000516621263593"><ele>555.1999999999999</ele><time>2026-05-04T09:23:42.999Z</time></trkpt><trkpt lat="42.25029331505613" lon="20.00049046719764"><ele>558.0</ele><time>2026-05-04T09:23:46.999Z</time></trkpt><trkpt lat="42.25030011335476" lon="20.000374484857026"><ele>558.0</ele><time>2026-05-04T09:23:48.999Z</time></trkpt><trkpt lat="42.25031613917941" lon="20.000265093322362"><ele>558.0</ele><time>2026-05-04T09:23:49.999Z</time></trkpt><trkpt lat="42.25032230351393" lon="20.000152442964403"><ele>558.0</ele><time>2026-05-04T09:23:50.999Z</time></trkpt><trkpt lat="42.2503195337556" lon="20.000048828737775"><ele>558.0</ele><time>2026-05-04T09:23:51.999Z</time></trkpt><trkpt lat="42.25032425810241" lon="19.99995032958114"><ele>558.0</ele><time>2026-05-04T09:23:52.999Z</time></trkpt><trkpt lat="42.250337399957765" lon="19.99986222060014"><ele>558.0</ele><time>2026-05-04T09:23:53.999Z</time></trkpt><trkpt lat="42.25028662983416" lon="19.99979851048672"><ele>558.0</ele><time>2026-05-04T09:23:57.999Z</time></trkpt><trkpt lat="42.25032026167494" lon="19.99987143941661"><ele>558.0</ele><time>2026-05-04T09:24:26Z</time></trkpt><trkpt lat="42.25033653616203" lon="19.999990415674066"><ele>558.0</ele><time>2026-05-04T09:24:28Z</time></trkpt><trkpt lat="42.2503327018563" lon="20.000096383752744"><ele>558.0</ele><time>2026-05-04T09:24:29Z</time></trkpt><trkpt lat="42.25033622141233" lon="20.000212133676243"><ele>558.0</ele><time>2026-05-04T09:24:30Z</time></trkpt><trkpt lat="42.25033221182904" lon="20.00034689469815"><ele>558.0</ele><time>2026-05-04T09:24:31Z</time></trkpt><trkpt lat="42.2503188740625" lon="20.000446179743154"><ele>558.0</ele><time>2026-05-04T09:24:32Z</time></trkpt><trkpt lat="42.25037017841241" lon="20.00051663184177"><ele>558.0</ele><time>2026-05-04T09:24:35Z</time></trkpt><trkpt lat="42.25044280964762" lon="20.000499037651547"><ele>558.0</ele><time>2026-05-04T09:24:37Z</time></trkpt><trkpt lat="42.25051874752166" lon="20.00037325719003"><ele>558.0</ele><time>2026-05-04T09:24:39Z</time></trkpt><trkpt lat="42.25058293826993" lon="20.000305294594376"><ele>558.0</ele><time>2026-05-04T09:24:40Z</time></trkpt><trkpt lat="42.25066173661162" lon="20.000230641832097"><ele>558.0</ele><time>2026-05-04T09:24:41Z</time></trkpt><trkpt lat="42.250759909616974" lon="20.000137114401642"><ele>555.1999999999999</ele><time>2026-05-04T09:24:42Z</time></trkpt><trkpt lat="42.25086835939799" lon="20.000048133268244"><ele>552.4</ele><time>2026-05-04T09:24:43Z</time></trkpt><trkpt lat="42.2509531644577" lon="19.99994989593959"><ele>549.5999999999999</ele><time>2026-05-04T09:24:44Z</time></trkpt><trkpt lat="42.25097995449245" lon="19.999871845463538"><ele>546.8</ele><time>2026-05-04T09:24:45Z</time></trkpt><trkpt lat="42.250990241894755" lon="19.99976851925439"><ele>544.0</ele><time>2026-05-04T09:24:46Z</time></trkpt><trkpt lat="42.25101997579419" lon="19.999663303485185"><ele>544.0</ele><time>2026-05-04T09:24:47Z</time></trkpt><trkpt lat="42.2510662187813" lon="19.999574084420104"><ele>544.0</ele><time>2026-05-04T09:24:48Z</time></trkpt><trkpt lat="42.25111991164425" lon="19.999497099790112"><ele>544.0</ele><time>2026-05-04T09:24:49Z</time></trkpt><trkpt lat="42.251163070164694" lon="19.99943351820182"><ele>544.0</ele><time>2026-05-04T09:24:50Z</time></trkpt><trkpt lat="42.2512174330106" lon="19.999377268457394"><ele>544.0</ele><time>2026-05-04T09:24:52Z</time></trkpt><trkpt lat="42.25122134666936" lon="19.99924008662795"><ele>544.0</ele><time>2026-05-04T09:24:58Z</time></trkpt><trkpt lat="42.251300452104466" lon="19.999146979648305"><ele>541.5</ele><time>2026-05-04T09:25:00Z</time></trkpt><trkpt lat="42.2514138412273" lon="19.999102808244114"><ele>539.0</ele><time>2026-05-04T09:25:02Z</time></trkpt><trkpt lat="42.251513090227064" lon="19.99913857267195"><ele>536.5</ele><time>2026-05-04T09:25:04Z</time></trkpt><trkpt lat="42.25160668447951" lon="19.999245789753004"><ele>534.0</ele><time>2026-05-04T09:25:06Z</time></trkpt><trkpt lat="42.25164433501468" lon="19.999408201273653"><ele>533.6</ele><time>2026-05-04T09:25:08Z</time></trkpt><trkpt lat="42.25164820813863" lon="19.999526586624896"><ele>533.2</ele><time>2026-05-04T09:25:09Z</time></trkpt><trkpt lat="42.25166283301087" lon="19.999665906603326"><ele>532.8000000000001</ele><time>2026-05-04T09:25:12.999Z</time></trkpt><trkpt lat="42.25168235567493" lon="19.999775222210378"><ele>532.4</ele><time>2026-05-04T09:25:13.999Z</time></trkpt><trkpt lat="42.25170076781065" lon="19.999908593077013"><ele>532.0</ele><time>2026-05-04T09:25:14.999Z</time></trkpt><trkpt lat="42.251731488709176" lon="20.000052350788412"><ele>532.0</ele><time>2026-05-04T09:25:15.999Z</time></trkpt><trkpt lat="42.25177864156803" lon="20.000191922518535"><ele>532.0</ele><time>2026-05-04T09:25:16.999Z</time></trkpt><trkpt lat="42.2518330801258" lon="20.000304518428266"><ele>532.0</ele><time>2026-05-04T09:25:17.999Z</time></trkpt><trkpt lat="42.25187882059128" lon="20.000401732295302"><ele>532.0</ele><time>2026-05-04T09:25:18.999Z</time></trkpt><trkpt lat="42.251913361357836" lon="20.000500102136584"><ele>532.0</ele><time>2026-05-04T09:25:19.999Z</time></trkpt><trkpt lat="42.25193444911624" lon="20.00059258066178"><ele>532.0</ele><time>2026-05-04T09:25:20.999Z</time></trkpt><trkpt lat="42.25195698634933" lon="20.000731360496943"><ele>532.0</ele><time>2026-05-04T09:25:21.999Z</time></trkpt><trkpt lat="42.251957092545005" lon="20.00087644126115"><ele>532.0</ele><time>2026-05-04T09:25:22.999Z</time></trkpt><trkpt lat="42.251926154946474" lon="20.00099487946817"><ele>532.0</ele><time>2026-05-04T09:25:23.999Z</time></trkpt><trkpt lat="42.2518719261675" lon="20.00108245863137"><ele>532.0</ele><time>2026-05-04T09:25:24.999Z</time></trkpt><trkpt lat="42.25183988224894" lon="20.00117869057456"><ele>532.6666666666667</ele><time>2026-05-04T09:25:25.999Z</time></trkpt><trkpt lat="42.25185991900973" lon="20.0012843822967"><ele>533.3333333333334</ele><time>2026-05-04T09:25:26.999Z</time></trkpt><trkpt lat="42.251904884749116" lon="20.001399924855267"><ele>534.0</ele><time>2026-05-04T09:25:27.999Z</time></trkpt><trkpt lat="42.25194100021706" lon="20.00150499061285"><ele>534.6666666666666</ele><time>2026-05-04T09:25:28.999Z</time></trkpt><trkpt lat="42.25194997376141" lon="20.00161818559406"><ele>535.3333333333333</ele><time>2026-05-04T09:25:29.999Z</time></trkpt><trkpt lat="42.25193124144184" lon="20.001718099282744"><ele>536.0</ele><time>2026-05-04T09:25:30.999Z</time></trkpt><trkpt lat="42.25188874767335" lon="20.00179733000043"><ele>536.3333333333333</ele><time>2026-05-04T09:25:31.999Z</time></trkpt><trkpt lat="42.25185025679478" lon="20.001882559886283"><ele>536.6666666666666</ele><time>2026-05-04T09:25:32.999Z</time></trkpt><trkpt lat="42.25185286485241" lon="20.00200736753371"><ele>537.0</ele><time>2026-05-04T09:25:34.999Z</time></trkpt><trkpt lat="42.25189126107798" lon="20.002086019275133"><ele>537.3333333333334</ele><time>2026-05-04T09:25:35.999Z</time></trkpt><trkpt lat="42.25194855229553" lon="20.00218546033831"><ele>537.6666666666667</ele><time>2026-05-04T09:25:36.999Z</time></trkpt><trkpt lat="42.25199161242788" lon="20.002290409281525"><ele>538.0</ele><time>2026-05-04T09:25:37.999Z</time></trkpt><trkpt lat="42.25201561957539" lon="20.00241923171961"><ele>539.0</ele><time>2026-05-04T09:25:38.999Z</time></trkpt><trkpt lat="42.252013050421645" lon="20.00255070230041"><ele>540.0</ele><time>2026-05-04T09:25:39.999Z</time></trkpt><trkpt lat="42.251997292666886" lon="20.002686040587356"><ele>541.0</ele><time>2026-05-04T09:25:40.999Z</time></trkpt><trkpt lat="42.25196402388747" lon="20.00283436671046"><ele>542.0</ele><time>2026-05-04T09:25:41.999Z</time></trkpt><trkpt lat="42.251932570509965" lon="20.00298501416086"><ele>543.0</ele><time>2026-05-04T09:25:42.999Z</time></trkpt><trkpt lat="42.25189027167356" lon="20.003161214778817"><ele>543.0</ele><time>2026-05-04T09:25:43.999Z</time></trkpt><trkpt lat="42.25182704433482" lon="20.003295292018823"><ele>543.0</ele><time>2026-05-04T09:25:44.999Z</time></trkpt><trkpt lat="42.25176972552376" lon="20.00340119058005"><ele>543.0</ele><time>2026-05-04T09:25:45.999Z</time></trkpt><trkpt lat="42.2517435085657" lon="20.003497091421632"><ele>543.0</ele><time>2026-05-04T09:25:46.999Z</time></trkpt><trkpt lat="42.25174411129456" lon="20.003592775652002"><ele>543.0</ele><time>2026-05-04T09:25:47.999Z</time></trkpt><trkpt lat="42.251766239079586" lon="20.003699283037776"><ele>543.0</ele><time>2026-05-04T09:25:48.999Z</time></trkpt><trkpt lat="42.251809906004" lon="20.00382646035346"><ele>542.8</ele><time>2026-05-04T09:25:49.999Z</time></trkpt><trkpt lat="42.25188259981638" lon="20.00396907676033"><ele>542.5999999999999</ele><time>2026-05-04T09:25:50.999Z</time></trkpt><trkpt lat="42.25192401618231" lon="20.004132222609456"><ele>542.4000000000001</ele><time>2026-05-04T09:25:51.999Z</time></trkpt><trkpt lat="42.25194770590434" lon="20.00426516679752"><ele>542.2</ele><time>2026-05-04T09:25:52.999Z</time></trkpt><trkpt lat="42.25194376092916" lon="20.00437577091653"><ele>542.0</ele><time>2026-05-04T09:25:53.999Z</time></trkpt><trkpt lat="42.251936331444675" lon="20.00446783563726"><ele>542.0</ele><time>2026-05-04T09:25:54.999Z</time></trkpt><trkpt lat="42.251943704931" lon="20.004561094345487"><ele>542.0</ele><time>2026-05-04T09:25:55.999Z</time></trkpt><trkpt lat="42.25195713703172" lon="20.00468454383292"><ele>542.0</ele><time>2026-05-04T09:25:57.999Z</time></trkpt><trkpt lat="42.25195153064562" lon="20.004795663884856"><ele>542.0</ele><time>2026-05-04T09:25:59.999Z</time></trkpt><trkpt lat="42.25193623854977" lon="20.004968274089837"><ele>542.0</ele><time>2026-05-04T09:26:01.999Z</time></trkpt><trkpt lat="42.25190875821323" lon="20.00508217950502"><ele>542.0</ele><time>2026-05-04T09:26:02.999Z</time></trkpt><trkpt lat="42.25186675760202" lon="20.00521335154083"><ele>542.0</ele><time>2026-05-04T09:26:03.999Z</time></trkpt><trkpt lat="42.25183044740784" lon="20.005306783106846"><ele>542.0</ele><time>2026-05-04T09:26:04.999Z</time></trkpt><trkpt lat="42.251819216568116" lon="20.005407487245545"><ele>542.0</ele><time>2026-05-04T09:26:05.999Z</time></trkpt><trkpt lat="42.25189608929937" lon="20.005549955756905"><ele>542.0</ele><time>2026-05-04T09:26:07.999Z</time></trkpt><trkpt lat="42.251946801233736" lon="20.005620862713094"><ele>542.0</ele><time>2026-05-04T09:26:08.999Z</time></trkpt><trkpt lat="42.25197967040467" lon="20.005751601253"><ele>542.0</ele><time>2026-05-04T09:26:09.999Z</time></trkpt><trkpt lat="42.25198717945197" lon="20.005881124615986"><ele>542.0</ele><time>2026-05-04T09:26:10.999Z</time></trkpt><trkpt lat="42.25198161455702" lon="20.00598808201941"><ele>542.0</ele><time>2026-05-04T09:26:11.999Z</time></trkpt><trkpt lat="42.25196832600203" lon="20.00610518512428"><ele>542.0</ele><time>2026-05-04T09:26:12.999Z</time></trkpt><trkpt lat="42.251957212625136" lon="20.00621954805449"><ele>542.0</ele><time>2026-05-04T09:26:13.999Z</time></trkpt><trkpt lat="42.25194616766295" lon="20.00634047154208"><ele>542.0</ele><time>2026-05-04T09:26:14.999Z</time></trkpt><trkpt lat="42.25195074378382" lon="20.00647848726314"><ele>542.0</ele><time>2026-05-04T09:26:15.999Z</time></trkpt><trkpt lat="42.25198714159363" lon="20.00659879878941"><ele>542.0</ele><time>2026-05-04T09:26:16.999Z</time></trkpt><trkpt lat="42.252040823696326" lon="20.00671318996546"><ele>542.0</ele><time>2026-05-04T09:26:17.999Z</time></trkpt><trkpt lat="42.252085194496885" lon="20.006848747419145"><ele>540.6666666666666</ele><time>2026-05-04T09:26:18.999Z</time></trkpt><trkpt lat="42.25211194505944" lon="20.006993624329255"><ele>539.3333333333333</ele><time>2026-05-04T09:26:19.999Z</time></trkpt><trkpt lat="42.252121469339244" lon="20.00709870351816"><ele>538.0</ele><time>2026-05-04T09:26:20.999Z</time></trkpt><trkpt lat="42.252109479185336" lon="20.00719022655324"><ele>536.6666666666666</ele><time>2026-05-04T09:26:21.999Z</time></trkpt><trkpt lat="42.25206629739687" lon="20.007270647103347"><ele>535.3333333333334</ele><time>2026-05-04T09:26:22.999Z</time></trkpt><trkpt lat="42.2519998197319" lon="20.00733628462486"><ele>534.0</ele><time>2026-05-04T09:26:23.999Z</time></trkpt><trkpt lat="42.25191630718735" lon="20.00736545337121"><ele>534.0</ele><time>2026-05-04T09:26:24.999Z</time></trkpt><trkpt lat="42.25183038697707" lon="20.007389189842293"><ele>534.0</ele><time>2026-05-04T09:26:25.999Z</time></trkpt><trkpt lat="42.251753901764424" lon="20.007408009156123"><ele>534.0</ele><time>2026-05-04T09:26:27Z</time></trkpt><trkpt lat="42.25174704372872" lon="20.007521884925108"><ele>534.0</ele><time>2026-05-04T09:26:30Z</time></trkpt><trkpt lat="42.25182431615266" lon="20.007616300114552"><ele>534.0</ele><time>2026-05-04T09:26:32Z</time></trkpt><trkpt lat="42.25189641750114" lon="20.007780894826528"><ele>533.0</ele><time>2026-05-04T09:26:34Z</time></trkpt><trkpt lat="42.25192882591861" lon="20.007898693548427"><ele>532.0</ele><time>2026-05-04T09:26:35Z</time></trkpt><trkpt lat="42.251985279075406" lon="20.00799256465409"><ele>531.0</ele><time>2026-05-04T09:26:36Z</time></trkpt><trkpt lat="42.25204688855812" lon="20.008063206231895"><ele>530.0</ele><time>2026-05-04T09:26:37Z</time></trkpt><trkpt lat="42.25210066763688" lon="20.008160255320316"><ele>529.0</ele><time>2026-05-04T09:26:38Z</time></trkpt><trkpt lat="42.25216751865027" lon="20.00819211774303"><ele>528.0</ele><time>2026-05-04T09:26:40Z</time></trkpt><trkpt lat="42.252234153898065" lon="20.008068464863808"><ele>528.0</ele><time>2026-05-04T09:26:42Z</time></trkpt><trkpt lat="42.25227671070947" lon="20.00796538508957"><ele>528.0</ele><time>2026-05-04T09:26:43Z</time></trkpt><trkpt lat="42.25232953570377" lon="20.007891201127208"><ele>528.0</ele><time>2026-05-04T09:26:44Z</time></trkpt><trkpt lat="42.25239859770197" lon="20.007849959004165"><ele>528.0</ele><time>2026-05-04T09:26:45Z</time></trkpt><trkpt lat="42.25247303282855" lon="20.00785115502871"><ele>528.0</ele><time>2026-05-04T09:26:46Z</time></trkpt><trkpt lat="42.2525397307796" lon="20.00788907796522"><ele>528.0</ele><time>2026-05-04T09:26:47Z</time></trkpt><trkpt lat="42.2526097780953" lon="20.007943646627666"><ele>525.1666666666666</ele><time>2026-05-04T09:26:48Z</time></trkpt><trkpt lat="42.252697288244356" lon="20.00798073341643"><ele>522.3333333333334</ele><time>2026-05-04T09:26:49Z</time></trkpt><trkpt lat="42.25277166971778" lon="20.007989470252205"><ele>519.5</ele><time>2026-05-04T09:26:50Z</time></trkpt><trkpt lat="42.25284109785951" lon="20.00799133072395"><ele>516.6666666666667</ele><time>2026-05-04T09:26:51Z</time></trkpt><trkpt lat="42.25290994496197" lon="20.0080006321656"><ele>513.8333333333334</ele><time>2026-05-04T09:26:52Z</time></trkpt><trkpt lat="42.25297878402419" lon="20.00801781472454"><ele>511.0</ele><time>2026-05-04T09:26:53Z</time></trkpt><trkpt lat="42.25306913935125" lon="20.008051577567993"><ele>508.8</ele><time>2026-05-04T09:26:54Z</time></trkpt><trkpt lat="42.25316027961896" lon="20.00809869152611"><ele>506.6</ele><time>2026-05-04T09:26:55Z</time></trkpt><trkpt lat="42.25325290728572" lon="20.008168061156418"><ele>504.4</ele><time>2026-05-04T09:26:56Z</time></trkpt><trkpt lat="42.25334082829519" lon="20.008243374066772"><ele>502.2</ele><time>2026-05-04T09:26:57Z</time></trkpt><trkpt lat="42.25342184294923" lon="20.008315041282263"><ele>500.0</ele><time>2026-05-04T09:26:58Z</time></trkpt><trkpt lat="42.25350001961702" lon="20.00836320675312"><ele>504.16666666666663</ele><time>2026-05-04T09:26:59Z</time></trkpt><trkpt lat="42.25357427229479" lon="20.008396739300913"><ele>508.3333333333333</ele><time>2026-05-04T09:27:00Z</time></trkpt><trkpt lat="42.25363490913527" lon="20.008447419886522"><ele>512.5</ele><time>2026-05-04T09:27:01Z</time></trkpt><trkpt lat="42.253680487258826" lon="20.008518097106244"><ele>516.6666666666666</ele><time>2026-05-04T09:27:02Z</time></trkpt><trkpt lat="42.253714695763094" lon="20.008627695680868"><ele>520.8333333333334</ele><time>2026-05-04T09:27:03Z</time></trkpt><trkpt lat="42.25373277872206" lon="20.008752209680118"><ele>525.0</ele><time>2026-05-04T09:27:04Z</time></trkpt><trkpt lat="42.25376664772382" lon="20.008879267787197"><ele>525.0</ele><time>2026-05-04T09:27:05Z</time></trkpt><trkpt lat="42.2538275865671" lon="20.00898772598807"><ele>525.0</ele><time>2026-05-04T09:27:06Z</time></trkpt><trkpt lat="42.253911077710534" lon="20.0091043030923"><ele>525.0</ele><time>2026-05-04T09:27:07Z</time></trkpt><trkpt lat="42.253975066067504" lon="20.009191025450207"><ele>525.0</ele><time>2026-05-04T09:27:08Z</time></trkpt><trkpt lat="42.25401521120831" lon="20.009292683440652"><ele>525.0</ele><time>2026-05-04T09:27:09Z</time></trkpt><trkpt lat="42.25403458333706" lon="20.009386771199157"><ele>521.0</ele><time>2026-05-04T09:27:10Z</time></trkpt><trkpt lat="42.25412676872662" lon="20.009445189694983"><ele>517.0</ele><time>2026-05-04T09:27:12Z</time></trkpt><trkpt lat="42.25420407698687" lon="20.009497469857134"><ele>513.0</ele><time>2026-05-04T09:27:13Z</time></trkpt><trkpt lat="42.25426725652187" lon="20.009562606672326"><ele>509.0</ele><time>2026-05-04T09:27:14Z</time></trkpt><trkpt lat="42.254392794981484" lon="20.00975522990779"><ele>509.0</ele><time>2026-05-04T09:27:15Z</time></trkpt><trkpt lat="42.254468574575704" lon="20.00987454329633"><ele>509.0</ele><time>2026-05-04T09:27:16Z</time></trkpt><trkpt lat="42.25453073080552" lon="20.009985673520642"><ele>509.0</ele><time>2026-05-04T09:27:17Z</time></trkpt><trkpt lat="42.254571105322334" lon="20.01010793181032"><ele>509.0</ele><time>2026-05-04T09:27:18Z</time></trkpt><trkpt lat="42.25457724644997" lon="20.010234478868693"><ele>509.0</ele><time>2026-05-04T09:27:19Z</time></trkpt><trkpt lat="42.254589897144925" lon="20.010364506961572"><ele>509.4</ele><time>2026-05-04T09:27:20Z</time></trkpt><trkpt lat="42.25463180008839" lon="20.01047356460671"><ele>509.79999999999995</ele><time>2026-05-04T09:27:21Z</time></trkpt><trkpt lat="42.25463911136208" lon="20.010565088758156"><ele>510.20000000000005</ele><time>2026-05-04T09:27:22Z</time></trkpt><trkpt lat="42.25460732293657" lon="20.010666790722162"><ele>510.6</ele><time>2026-05-04T09:27:23Z</time></trkpt><trkpt lat="42.25463842606407" lon="20.010829336466646"><ele>511.0</ele><time>2026-05-04T09:27:25Z</time></trkpt><trkpt lat="42.254702613448714" lon="20.010928864664827"><ele>511.0</ele><time>2026-05-04T09:27:26Z</time></trkpt><trkpt lat="42.25474550703772" lon="20.011002632412126"><ele>511.0</ele><time>2026-05-04T09:27:27Z</time></trkpt><trkpt lat="42.25480068019624" lon="20.01112575892152"><ele>511.0</ele><time>2026-05-04T09:27:29Z</time></trkpt><trkpt lat="42.25476507714049" lon="20.01131804652167"><ele>511.0</ele><time>2026-05-04T09:27:31Z</time></trkpt><trkpt lat="42.254722177513464" lon="20.011428834415142"><ele>511.0</ele><time>2026-05-04T09:27:32Z</time></trkpt><trkpt lat="42.25470742819845" lon="20.011513161391417"><ele>511.00000000000006</ele><time>2026-05-04T09:27:33Z</time></trkpt><trkpt lat="42.25478253313745" lon="20.01162295438763"><ele>511.0</ele><time>2026-05-04T09:27:35Z</time></trkpt><trkpt lat="42.25482991466546" lon="20.01173839418114"><ele>511.0</ele><time>2026-05-04T09:27:37Z</time></trkpt><trkpt lat="42.2548760497427" lon="20.01179881793082"><ele>511.0</ele><time>2026-05-04T09:27:38Z</time></trkpt><trkpt lat="42.25490657768211" lon="20.01188476081456"><ele>511.00000000000006</ele><time>2026-05-04T09:27:39Z</time></trkpt><trkpt lat="42.254917337610046" lon="20.01198018247553"><ele>511.0</ele><time>2026-05-04T09:27:40Z</time></trkpt><trkpt lat="42.25491106761737" lon="20.012077374164402"><ele>512.6</ele><time>2026-05-04T09:27:41Z</time></trkpt><trkpt lat="42.254892839427086" lon="20.012185191405017"><ele>514.2</ele><time>2026-05-04T09:27:42Z</time></trkpt><trkpt lat="42.25485426202749" lon="20.012305543676735"><ele>515.8</ele><time>2026-05-04T09:27:43Z</time></trkpt><trkpt lat="42.254784715863416" lon="20.012421377539624"><ele>517.4</ele><time>2026-05-04T09:27:44Z</time></trkpt><trkpt lat="42.254731834950015" lon="20.012538000051915"><ele>519.0</ele><time>2026-05-04T09:27:45Z</time></trkpt><trkpt lat="42.25468335686963" lon="20.012640210408193"><ele>519.8</ele><time>2026-05-04T09:27:46Z</time></trkpt><trkpt lat="42.254676064925384" lon="20.01277920779632"><ele>520.5999999999999</ele><time>2026-05-04T09:27:48Z</time></trkpt><trkpt lat="42.25475358260071" lon="20.012821303750364"><ele>521.4</ele><time>2026-05-04T09:27:50Z</time></trkpt><trkpt lat="42.254833478028154" lon="20.012835507922567"><ele>522.1999999999999</ele><time>2026-05-04T09:27:51Z</time></trkpt><trkpt lat="42.25492948132108" lon="20.012874334110585"><ele>523.0</ele><time>2026-05-04T09:27:52Z</time></trkpt><trkpt lat="42.254998172747925" lon="20.012951123347648"><ele>516.5</ele><time>2026-05-04T09:27:53Z</time></trkpt><trkpt lat="42.255043192456114" lon="20.01305090437738"><ele>510.0</ele><time>2026-05-04T09:27:53.999Z</time></trkpt><trkpt lat="42.255053623822235" lon="20.013158603529263"><ele>503.5</ele><time>2026-05-04T09:27:54.999Z</time></trkpt><trkpt lat="42.25503988595549" lon="20.013278694013476"><ele>497.0</ele><time>2026-05-04T09:27:55.999Z</time></trkpt><trkpt lat="42.25500311147521" lon="20.01338704604803"><ele>490.50000000000006</ele><time>2026-05-04T09:27:56.999Z</time></trkpt><trkpt lat="42.25494486067634" lon="20.01348401099568"><ele>484.0</ele><time>2026-05-04T09:27:57.999Z</time></trkpt><trkpt lat="42.25487227086074" lon="20.013586340276632"><ele>484.0</ele><time>2026-05-04T09:27:58.999Z</time></trkpt><trkpt lat="42.25480722652547" lon="20.013696168883392"><ele>484.0</ele><time>2026-05-04T09:27:59.999Z</time></trkpt><trkpt lat="42.254753486939066" lon="20.013832638431825"><ele>484.0</ele><time>2026-05-04T09:28:00.999Z</time></trkpt><trkpt lat="42.2546984099599" lon="20.013959972693154"><ele>484.0</ele><time>2026-05-04T09:28:01.999Z</time></trkpt><trkpt lat="42.254624041487446" lon="20.01404465800757"><ele>484.0</ele><time>2026-05-04T09:28:02.999Z</time></trkpt><trkpt lat="42.25452922461918" lon="20.014113762966378"><ele>489.6</ele><time>2026-05-04T09:28:03.999Z</time></trkpt><trkpt lat="42.25445195061401" lon="20.01420219921468"><ele>495.2</ele><time>2026-05-04T09:28:04.999Z</time></trkpt><trkpt lat="42.254395259274915" lon="20.014310034118036"><ele>500.80000000000007</ele><time>2026-05-04T09:28:05.999Z</time></trkpt><trkpt lat="42.25437124372039" lon="20.014448679162946"><ele>506.40000000000003</ele><time>2026-05-04T09:28:06.999Z</time></trkpt><trkpt lat="42.25436981715495" lon="20.014585774189193"><ele>512.0</ele><time>2026-05-04T09:28:07.999Z</time></trkpt><trkpt lat="42.25428691756221" lon="20.014726228577477"><ele>512.0</ele><time>2026-05-04T09:28:09.999Z</time></trkpt><trkpt lat="42.254196698231794" lon="20.014815338637924"><ele>512.0</ele><time>2026-05-04T09:28:10.999Z</time></trkpt><trkpt lat="42.254105916680864" lon="20.014911611147184"><ele>512.0</ele><time>2026-05-04T09:28:11.999Z</time></trkpt><trkpt lat="42.254054110584484" lon="20.01502582045263"><ele>512.0</ele><time>2026-05-04T09:28:12.999Z</time></trkpt><trkpt lat="42.25402813091976" lon="20.015123531260063"><ele>512.0</ele><time>2026-05-04T09:28:13.999Z</time></trkpt><trkpt lat="42.25398155375289" lon="20.01522775244834"><ele>516.8000000000001</ele><time>2026-05-04T09:28:14.999Z</time></trkpt><trkpt lat="42.25393174347676" lon="20.015337354041254"><ele>521.6</ele><time>2026-05-04T09:28:15.999Z</time></trkpt><trkpt lat="42.25387748257054" lon="20.015480364781293"><ele>526.4000000000001</ele><time>2026-05-04T09:28:16.999Z</time></trkpt><trkpt lat="42.25385417988556" lon="20.015605277361523"><ele>531.2</ele><time>2026-05-04T09:28:17.999Z</time></trkpt><trkpt lat="42.25386111446544" lon="20.015708857296364"><ele>536.0</ele><time>2026-05-04T09:28:18.999Z</time></trkpt><trkpt lat="42.253896347168045" lon="20.0157868687451"><ele>534.2857142857143</ele><time>2026-05-04T09:28:19.999Z</time></trkpt><trkpt lat="42.25393589187223" lon="20.015865512238566"><ele>532.5714285714286</ele><time>2026-05-04T09:28:20.999Z</time></trkpt><trkpt lat="42.25395194533815" lon="20.015965137541315"><ele>530.8571428571429</ele><time>2026-05-04T09:28:21.999Z</time></trkpt><trkpt lat="42.25393287069359" lon="20.016072336884633"><ele>529.1428571428571</ele><time>2026-05-04T09:28:23.999Z</time></trkpt><trkpt lat="42.25393544661345" lon="20.016175664758435"><ele>527.4285714285714</ele><time>2026-05-04T09:28:25.999Z</time></trkpt><trkpt lat="42.25396530382099" lon="20.01625381066609"><ele>525.7142857142858</ele><time>2026-05-04T09:28:26.999Z</time></trkpt><trkpt lat="42.25398331440086" lon="20.0163446948981"><ele>524.0</ele><time>2026-05-04T09:28:27.999Z</time></trkpt><trkpt lat="42.25396491615908" lon="20.01643289734985"><ele>524.0</ele><time>2026-05-04T09:28:28.999Z</time></trkpt><trkpt lat="42.25392306804142" lon="20.016510691560796"><ele>524.0</ele><time>2026-05-04T09:28:29.999Z</time></trkpt><trkpt lat="42.25387156554038" lon="20.01661888818195"><ele>524.0</ele><time>2026-05-04T09:28:31.999Z</time></trkpt><trkpt lat="42.25392354279743" lon="20.01671769357236"><ele>524.0</ele><time>2026-05-04T09:28:35Z</time></trkpt><trkpt lat="42.253983810234104" lon="20.016868801402346"><ele>524.0</ele><time>2026-05-04T09:28:37Z</time></trkpt><trkpt lat="42.25408443774865" lon="20.016958917263132"><ele>516.6</ele><time>2026-05-04T09:28:39Z</time></trkpt><trkpt lat="42.25418916169068" lon="20.017019938537963"><ele>509.2</ele><time>2026-05-04T09:28:41Z</time></trkpt><trkpt lat="42.2542486218637" lon="20.017068779347827"><ele>501.80000000000007</ele><time>2026-05-04T09:28:42Z</time></trkpt><trkpt lat="42.25437091660824" lon="20.017041480347423"><ele>494.40000000000003</ele><time>2026-05-04T09:28:44Z</time></trkpt><trkpt lat="42.25441313963556" lon="20.016950842522675"><ele>487.0</ele><time>2026-05-04T09:28:45Z</time></trkpt><trkpt lat="42.254432336105566" lon="20.016829970299355"><ele>487.00000000000006</ele><time>2026-05-04T09:28:46Z</time></trkpt><trkpt lat="42.25443034884938" lon="20.01671745917008"><ele>487.0</ele><time>2026-05-04T09:28:47Z</time></trkpt><trkpt lat="42.25443163365681" lon="20.016616318657945"><ele>487.0</ele><time>2026-05-04T09:28:48Z</time></trkpt><trkpt lat="42.254458355712224" lon="20.016485441085322"><ele>487.0</ele><time>2026-05-04T09:28:49Z</time></trkpt><trkpt lat="42.25449000330503" lon="20.016357309930086"><ele>487.00000000000006</ele><time>2026-05-04T09:28:50Z</time></trkpt><trkpt lat="42.25452216778662" lon="20.016266669957165"><ele>487.0</ele><time>2026-05-04T09:28:51Z</time></trkpt><trkpt lat="42.25458369877488" lon="20.016178057771413"><ele>488.0</ele><time>2026-05-04T09:28:52Z</time></trkpt><trkpt lat="42.254663579389394" lon="20.016110423331455"><ele>489.00000000000006</ele><time>2026-05-04T09:28:53Z</time></trkpt><trkpt lat="42.25475844116394" lon="20.016046425534853"><ele>490.00000000000006</ele><time>2026-05-04T09:28:54Z</time></trkpt><trkpt lat="42.254841125041914" lon="20.01596406950033"><ele>491.0</ele><time>2026-05-04T09:28:55Z</time></trkpt><trkpt lat="42.25489889461847" lon="20.015879346415716"><ele>492.0</ele><time>2026-05-04T09:28:56Z</time></trkpt><trkpt lat="42.254930314566316" lon="20.015786942614195"><ele>488.0</ele><time>2026-05-04T09:28:58Z</time></trkpt><trkpt lat="42.254975780959455" lon="20.015675914266936"><ele>484.00000000000006</ele><time>2026-05-04T09:29:37Z</time></trkpt><trkpt lat="42.25504047789363" lon="20.015515866065254"><ele>480.00000000000006</ele><time>2026-05-04T09:29:39Z</time></trkpt><trkpt lat="42.2550966757246" lon="20.01543004380748"><ele>476.0</ele><time>2026-05-04T09:29:40Z</time></trkpt><trkpt lat="42.255159129277615" lon="20.015365810647754"><ele>472.0</ele><time>2026-05-04T09:29:41Z</time></trkpt><trkpt lat="42.25525614229347" lon="20.015349100996627"><ele>472.00000000000006</ele><time>2026-05-04T09:29:43Z</time></trkpt><trkpt lat="42.255284175318685" lon="20.01543514898384"><ele>472.0</ele><time>2026-05-04T09:29:45Z</time></trkpt><trkpt lat="42.255255630478686" lon="20.01551481505801"><ele>472.0</ele><time>2026-05-04T09:29:46Z</time></trkpt><trkpt lat="42.25520848837105" lon="20.015621066347133"><ele>472.0</ele><time>2026-05-04T09:29:47Z</time></trkpt><trkpt lat="42.255170054581455" lon="20.015724109707588"><ele>472.00000000000006</ele><time>2026-05-04T09:29:48Z</time></trkpt><trkpt lat="42.25512873217279" lon="20.015861917042173"><ele>472.0</ele><time>2026-05-04T09:29:49Z</time></trkpt><trkpt lat="42.25512454872103" lon="20.0159617243862"><ele>470.83333333333337</ele><time>2026-05-04T09:29:50Z</time></trkpt><trkpt lat="42.255137876054064" lon="20.01607085123233"><ele>469.6666666666667</ele><time>2026-05-04T09:29:51Z</time></trkpt><trkpt lat="42.255163324394495" lon="20.016177387528177"><ele>468.5</ele><time>2026-05-04T09:29:52Z</time></trkpt><trkpt lat="42.255200779069334" lon="20.016285209400216"><ele>467.33333333333337</ele><time>2026-05-04T09:29:53Z</time></trkpt><trkpt lat="42.2552464461034" lon="20.016378161395263"><ele>466.1666666666667</ele><time>2026-05-04T09:29:54Z</time></trkpt><trkpt lat="42.25529938748558" lon="20.01645907084427"><ele>465.0</ele><time>2026-05-04T09:29:55Z</time></trkpt><trkpt lat="42.25536697737693" lon="20.016529452511683"><ele>465.0</ele><time>2026-05-04T09:30:00Z</time></trkpt><trkpt lat="42.25542349058676" lon="20.016567408556174"><ele>465.0</ele><time>2026-05-04T09:30:05Z</time></trkpt><trkpt lat="42.25551608518337" lon="20.01657291366386"><ele>465.0</ele><time>2026-05-04T09:30:07Z</time></trkpt><trkpt lat="42.25555063494274" lon="20.016479022703408"><ele>465.0</ele><time>2026-05-04T09:30:09Z</time></trkpt><trkpt lat="42.255529614799144" lon="20.016384123347414"><ele>465.0</ele><time>2026-05-04T09:30:12Z</time></trkpt><trkpt lat="42.25560512005804" lon="20.016403551420566"><ele>465.0</ele><time>2026-05-04T09:30:16Z</time></trkpt><trkpt lat="42.25554033979758" lon="20.016536315089304"><ele>465.0</ele><time>2026-05-04T09:30:19Z</time></trkpt><trkpt lat="42.255436697286974" lon="20.01659639010055"><ele>465.0</ele><time>2026-05-04T09:30:21Z</time></trkpt><trkpt lat="42.25536115245849" lon="20.01654091494379"><ele>465.0</ele><time>2026-05-04T09:30:23Z</time></trkpt><trkpt lat="42.255295708355206" lon="20.016494455162093"><ele>465.0</ele><time>2026-05-04T09:30:25Z</time></trkpt><trkpt lat="42.2552411868956" lon="20.016345876250202"><ele>465.0</ele><time>2026-05-04T09:30:28Z</time></trkpt><trkpt lat="42.25517400172517" lon="20.01618371953598"><ele>465.0</ele><time>2026-05-04T09:30:30Z</time></trkpt><trkpt lat="42.255148029360576" lon="20.016102280949486"><ele>465.0</ele><time>2026-05-04T09:30:32Z</time></trkpt><trkpt lat="42.25514226055883" lon="20.015982637335416"><ele>465.0</ele><time>2026-05-04T09:30:39Z</time></trkpt><trkpt lat="42.255138464490145" lon="20.015868152795857"><ele>465.0</ele><time>2026-05-04T09:30:40Z</time></trkpt><trkpt lat="42.25514389975251" lon="20.01575874961175"><ele>465.0</ele><time>2026-05-04T09:30:41Z</time></trkpt><trkpt lat="42.25518869134172" lon="20.0156415411963"><ele>465.0</ele><time>2026-05-04T09:30:42Z</time></trkpt><trkpt lat="42.25523621726142" lon="20.01551513157746"><ele>466.4</ele><time>2026-05-04T09:30:43Z</time></trkpt><trkpt lat="42.255277030622835" lon="20.015399223327936"><ele>467.8</ele><time>2026-05-04T09:30:45Z</time></trkpt><trkpt lat="42.25518064066283" lon="20.01536806543491"><ele>469.20000000000005</ele><time>2026-05-04T09:30:47Z</time></trkpt><trkpt lat="42.2551138955436" lon="20.01542604527509"><ele>470.6</ele><time>2026-05-04T09:30:48Z</time></trkpt><trkpt lat="42.25504084243733" lon="20.015519024378985"><ele>472.0</ele><time>2026-05-04T09:30:49Z</time></trkpt><trkpt lat="42.25497267949265" lon="20.015625868580084"><ele>472.0</ele><time>2026-05-04T09:30:50Z</time></trkpt><trkpt lat="42.25492009761376" lon="20.015755889115262"><ele>472.0</ele><time>2026-05-04T09:30:51Z</time></trkpt><trkpt lat="42.25485218444775" lon="20.01591545002234"><ele>472.0</ele><time>2026-05-04T09:30:52Z</time></trkpt><trkpt lat="42.2547767539582" lon="20.016032704931835"><ele>472.0</ele><time>2026-05-04T09:30:53Z</time></trkpt><trkpt lat="42.254686610011525" lon="20.01612257522337"><ele>475.0</ele><time>2026-05-04T09:30:54Z</time></trkpt><trkpt lat="42.2545732819199" lon="20.01620192043607"><ele>478.00000000000006</ele><time>2026-05-04T09:30:55Z</time></trkpt><trkpt lat="42.25448815074936" lon="20.016292924913675"><ele>481.00000000000006</ele><time>2026-05-04T09:30:56Z</time></trkpt><trkpt lat="42.25443842000762" lon="20.016410352738927"><ele>484.0</ele><time>2026-05-04T09:30:57Z</time></trkpt><trkpt lat="42.254427507257034" lon="20.016538076674347"><ele>487.0</ele><time>2026-05-04T09:30:57.999Z</time></trkpt><trkpt lat="42.2544238918889" lon="20.016680577414387"><ele>487.0</ele><time>2026-05-04T09:30:58.999Z</time></trkpt><trkpt lat="42.254405013925684" lon="20.01683525824441"><ele>487.00000000000006</ele><time>2026-05-04T09:30:59.999Z</time></trkpt><trkpt lat="42.25438874042484" lon="20.01696897259152"><ele>487.00000000000006</ele><time>2026-05-04T09:31:00.999Z</time></trkpt><trkpt lat="42.25430544584658" lon="20.0170674447965"><ele>487.0</ele><time>2026-05-04T09:31:02.999Z</time></trkpt><trkpt lat="42.25419773870608" lon="20.0170544458234"><ele>487.0</ele><time>2026-05-04T09:31:04.999Z</time></trkpt><trkpt lat="42.25413510424498" lon="20.016981901477482"><ele>487.0</ele><time>2026-05-04T09:31:05.999Z</time></trkpt><trkpt lat="42.25406082631686" lon="20.01689274538576"><ele>487.00000000000006</ele><time>2026-05-04T09:31:06.999Z</time></trkpt><trkpt lat="42.253972116001016" lon="20.016804916190186"><ele>487.00000000000006</ele><time>2026-05-04T09:31:07.999Z</time></trkpt><trkpt lat="42.25388220514585" lon="20.016717295987675"><ele>487.0</ele><time>2026-05-04T09:31:08.999Z</time></trkpt><trkpt lat="42.25386639493699" lon="20.016591664050814"><ele>487.0</ele><time>2026-05-04T09:31:10.999Z</time></trkpt><trkpt lat="42.2538013889631" lon="20.016606491311936"><ele>493.6</ele><time>2026-05-04T09:31:12.999Z</time></trkpt><trkpt lat="42.253785722173895" lon="20.016727246320805"><ele>500.20000000000005</ele><time>2026-05-04T09:31:25.999Z</time></trkpt><trkpt lat="42.2538027075257" lon="20.016861052260168"><ele>506.8</ele><time>2026-05-04T09:31:27.999Z</time></trkpt><trkpt lat="42.25384030420646" lon="20.01705417715675"><ele>513.4</ele><time>2026-05-04T09:31:29.999Z</time></trkpt><trkpt lat="42.2538763930395" lon="20.01718426795071"><ele>520.0</ele><time>2026-05-04T09:31:30.999Z</time></trkpt><trkpt lat="42.253898129641875" lon="20.01731209853754"><ele>520.0</ele><time>2026-05-04T09:31:31.999Z</time></trkpt><trkpt lat="42.25389355167105" lon="20.017418204697865"><ele>520.0</ele><time>2026-05-04T09:31:32.999Z</time></trkpt><trkpt lat="42.25393848325398" lon="20.01754906765782"><ele>520.0</ele><time>2026-05-04T09:31:33.999Z</time></trkpt><trkpt lat="42.2539814283339" lon="20.017690349093577"><ele>520.0</ele><time>2026-05-04T09:31:34.999Z</time></trkpt><trkpt lat="42.254025906824225" lon="20.017830145630885"><ele>520.0</ele><time>2026-05-04T09:31:35.999Z</time></trkpt><trkpt lat="42.25407252794189" lon="20.01797390458914"><ele>511.4</ele><time>2026-05-04T09:31:36.999Z</time></trkpt><trkpt lat="42.25410479767902" lon="20.01811380040485"><ele>502.8</ele><time>2026-05-04T09:31:37.999Z</time></trkpt><trkpt lat="42.254126783538595" lon="20.01821093081532"><ele>494.20000000000005</ele><time>2026-05-04T09:31:38.999Z</time></trkpt><trkpt lat="42.2541212548775" lon="20.01830674575808"><ele>485.6</ele><time>2026-05-04T09:31:39.999Z</time></trkpt><trkpt lat="42.25407245847828" lon="20.018421171038334"><ele>477.0</ele><time>2026-05-04T09:31:40.999Z</time></trkpt><trkpt lat="42.25400895975888" lon="20.01854568599738"><ele>476.5</ele><time>2026-05-04T09:31:41.999Z</time></trkpt><trkpt lat="42.254002771389004" lon="20.01864474982764"><ele>476.0</ele><time>2026-05-04T09:31:42.999Z</time></trkpt><trkpt lat="42.25403071313604" lon="20.018771368499237"><ele>475.5</ele><time>2026-05-04T09:31:43.999Z</time></trkpt><trkpt lat="42.25404567478499" lon="20.018874191277273"><ele>475.0</ele><time>2026-05-04T09:31:44.999Z</time></trkpt><trkpt lat="42.25404445865142" lon="20.018976903881892"><ele>474.5</ele><time>2026-05-04T09:31:45.999Z</time></trkpt><trkpt lat="42.25407598703977" lon="20.019103153785117"><ele>474.0</ele><time>2026-05-04T09:31:46.999Z</time></trkpt><trkpt lat="42.25409913405177" lon="20.019245087400122"><ele>473.5</ele><time>2026-05-04T09:31:47.999Z</time></trkpt><trkpt lat="42.254123587802624" lon="20.019373963430624"><ele>473.0</ele><time>2026-05-04T09:31:48.999Z</time></trkpt><trkpt lat="42.25411992720814" lon="20.01952375085692"><ele>472.5</ele><time>2026-05-04T09:31:49.999Z</time></trkpt><trkpt lat="42.25411258928125" lon="20.01969503465131"><ele>472.0</ele><time>2026-05-04T09:31:50.999Z</time></trkpt><trkpt lat="42.25410185723911" lon="20.01985055029846"><ele>472.00000000000006</ele><time>2026-05-04T09:31:51.999Z</time></trkpt><trkpt lat="42.25409737496762" lon="20.01995450557813"><ele>472.0</ele><time>2026-05-04T09:31:52.999Z</time></trkpt><trkpt lat="42.254037876118325" lon="20.020087172359933"><ele>472.0</ele><time>2026-05-04T09:31:54.999Z</time></trkpt><trkpt lat="42.25395409713514" lon="20.020139140811736"><ele>472.0</ele><time>2026-05-04T09:31:55.999Z</time></trkpt><trkpt lat="42.2538802344049" lon="20.02014058006444"><ele>472.00000000000006</ele><time>2026-05-04T09:31:56.999Z</time></trkpt><trkpt lat="42.25381283953763" lon="20.020118065452532"><ele>472.0</ele><time>2026-05-04T09:31:57.999Z</time></trkpt><trkpt lat="42.253718935183045" lon="20.020014643234948"><ele>474.40000000000003</ele><time>2026-05-04T09:31:59.999Z</time></trkpt><trkpt lat="42.25363504102983" lon="20.019905368454488"><ele>476.80000000000007</ele><time>2026-05-04T09:32:01.999Z</time></trkpt><trkpt lat="42.253552008388134" lon="20.01981115759529"><ele>479.2</ele><time>2026-05-04T09:32:03.999Z</time></trkpt><trkpt lat="42.253485060901795" lon="20.019784017960482"><ele>481.6</ele><time>2026-05-04T09:32:05.999Z</time></trkpt><trkpt lat="42.25342038419651" lon="20.019918726745953"><ele>484.0</ele><time>2026-05-04T09:32:08.999Z</time></trkpt><trkpt lat="42.253418528326094" lon="20.020046129955148"><ele>484.0</ele><time>2026-05-04T09:32:09.999Z</time></trkpt><trkpt lat="42.25342085657897" lon="20.02017711255"><ele>484.0</ele><time>2026-05-04T09:32:10.999Z</time></trkpt><trkpt lat="42.25334419372481" lon="20.02029047043149"><ele>484.0</ele><time>2026-05-04T09:32:12.999Z</time></trkpt><trkpt lat="42.25331175681116" lon="20.020398063886535"><ele>484.0</ele><time>2026-05-04T09:32:14.999Z</time></trkpt><trkpt lat="42.25335501344638" lon="20.020470979682052"><ele>484.0</ele><time>2026-05-04T09:32:15.999Z</time></trkpt><trkpt lat="42.2534201429608" lon="20.020574292308687"><ele>484.0</ele><time>2026-05-04T09:32:16.999Z</time></trkpt><trkpt lat="42.25348043759404" lon="20.020683589624863"><ele>484.0</ele><time>2026-05-04T09:32:17.999Z</time></trkpt><trkpt lat="42.253549722533215" lon="20.020815751162225"><ele>484.0</ele><time>2026-05-04T09:32:18.999Z</time></trkpt><trkpt lat="42.25363699848657" lon="20.020934693838832"><ele>484.0</ele><time>2026-05-04T09:32:19.999Z</time></trkpt><trkpt lat="42.25371801455961" lon="20.021019834800935"><ele>484.0</ele><time>2026-05-04T09:32:20.999Z</time></trkpt><trkpt lat="42.25379942507066" lon="20.021048777787158"><ele>483.0</ele><time>2026-05-04T09:32:21.999Z</time></trkpt><trkpt lat="42.25387629163838" lon="20.021093107694526"><ele>482.0</ele><time>2026-05-04T09:32:22.999Z</time></trkpt><trkpt lat="42.253925357167596" lon="20.02115082688101"><ele>481.0</ele><time>2026-05-04T09:32:23.999Z</time></trkpt><trkpt lat="42.25396608636475" lon="20.021255630803754"><ele>480.0</ele><time>2026-05-04T09:32:24.999Z</time></trkpt><trkpt lat="42.25404033790573" lon="20.021398085213068"><ele>479.0</ele><time>2026-05-04T09:32:25.999Z</time></trkpt><trkpt lat="42.25411292852811" lon="20.021505236711107"><ele>472.0</ele><time>2026-05-04T09:32:26.999Z</time></trkpt><trkpt lat="42.25416753703464" lon="20.021617482903025"><ele>465.0</ele><time>2026-05-04T09:32:27.999Z</time></trkpt><trkpt lat="42.254222386239405" lon="20.021777271110256"><ele>458.0</ele><time>2026-05-04T09:32:28.999Z</time></trkpt><trkpt lat="42.254278611964175" lon="20.02194962240162"><ele>451.0</ele><time>2026-05-04T09:32:29.999Z</time></trkpt><trkpt lat="42.254348384489184" lon="20.022099133403113"><ele>451.0</ele><time>2026-05-04T09:32:30.999Z</time></trkpt><trkpt lat="42.254444146065566" lon="20.022176648745184"><ele>451.0</ele><time>2026-05-04T09:32:31.999Z</time></trkpt><trkpt lat="42.254548994832724" lon="20.022252479261493"><ele>451.0</ele><time>2026-05-04T09:32:32.999Z</time></trkpt><trkpt lat="42.25464011754607" lon="20.02237143239837"><ele>451.0</ele><time>2026-05-04T09:32:33.999Z</time></trkpt><trkpt lat="42.25474302492648" lon="20.022504474769217"><ele>448.4</ele><time>2026-05-04T09:32:34.999Z</time></trkpt><trkpt lat="42.25485806316938" lon="20.022606403171395"><ele>445.8</ele><time>2026-05-04T09:32:35.999Z</time></trkpt><trkpt lat="42.254952440316046" lon="20.022662276503386"><ele>443.19999999999993</ele><time>2026-05-04T09:32:36.999Z</time></trkpt><trkpt lat="42.25503683134149" lon="20.022728717274617"><ele>440.59999999999997</ele><time>2026-05-04T09:32:37.999Z</time></trkpt><trkpt lat="42.2551081431235" lon="20.02282231552305"><ele>438.0</ele><time>2026-05-04T09:32:38.999Z</time></trkpt><trkpt lat="42.25516042691663" lon="20.02294169324789"><ele>438.0</ele><time>2026-05-04T09:32:39.999Z</time></trkpt><trkpt lat="42.25519096118221" lon="20.02306331622646"><ele>438.0</ele><time>2026-05-04T09:32:40.999Z</time></trkpt><trkpt lat="42.25519356762714" lon="20.023175815094277"><ele>438.0</ele><time>2026-05-04T09:32:41.999Z</time></trkpt><trkpt lat="42.25517218578032" lon="20.023273125010032"><ele>438.0</ele><time>2026-05-04T09:32:42.999Z</time></trkpt><trkpt lat="42.255149119806354" lon="20.023352831257554"><ele>438.0</ele><time>2026-05-04T09:32:43.999Z</time></trkpt><trkpt lat="42.25512172735374" lon="20.02350941581175"><ele>438.0</ele><time>2026-05-04T09:32:46Z</time></trkpt><trkpt lat="42.255092183449115" lon="20.023670014705004"><ele>438.1666666666667</ele><time>2026-05-04T09:32:48Z</time></trkpt><trkpt lat="42.255044146114706" lon="20.02377308285435"><ele>438.33333333333337</ele><time>2026-05-04T09:32:50Z</time></trkpt><trkpt lat="42.25498550944115" lon="20.023818253437053"><ele>438.5</ele><time>2026-05-04T09:32:53Z</time></trkpt><trkpt lat="42.2549132378408" lon="20.023854091559492"><ele>438.6666666666667</ele><time>2026-05-04T09:32:56Z</time></trkpt><trkpt lat="42.254836431924446" lon="20.023863791840583"><ele>438.83333333333337</ele><time>2026-05-04T09:32:58Z</time></trkpt><trkpt lat="42.254754348199214" lon="20.023880903711376"><ele>439.0</ele><time>2026-05-04T09:33:00Z</time></trkpt><trkpt lat="42.254669717936586" lon="20.023900444615055"><ele>438.00000000000006</ele><time>2026-05-04T09:33:01Z</time></trkpt><trkpt lat="42.25456031053842" lon="20.02391047357341"><ele>437.0</ele><time>2026-05-04T09:33:02Z</time></trkpt><trkpt lat="42.25448156851314" lon="20.023919434628286"><ele>436.0</ele><time>2026-05-04T09:33:03Z</time></trkpt><trkpt lat="42.25443311664471" lon="20.024016482177718"><ele>435.0</ele><time>2026-05-04T09:33:05Z</time></trkpt><trkpt lat="42.25445344311727" lon="20.024104665006288"><ele>434.00000000000006</ele><time>2026-05-04T09:33:06Z</time></trkpt><trkpt lat="42.254499602348425" lon="20.024225243457536"><ele>433.0</ele><time>2026-05-04T09:33:07Z</time></trkpt><trkpt lat="42.254514071760944" lon="20.024335083592494"><ele>433.00000000000006</ele><time>2026-05-04T09:33:08Z</time></trkpt><trkpt lat="42.254484131101556" lon="20.024418446348264"><ele>433.0</ele><time>2026-05-04T09:33:09Z</time></trkpt><trkpt lat="42.254429236239325" lon="20.024468475530615"><ele>433.0</ele><time>2026-05-04T09:33:10Z</time></trkpt><trkpt lat="42.25434451803709" lon="20.02449485754634"><ele>433.0</ele><time>2026-05-04T09:33:11Z</time></trkpt><trkpt lat="42.25425323442752" lon="20.02448975857221"><ele>433.00000000000006</ele><time>2026-05-04T09:33:12Z</time></trkpt><trkpt lat="42.25416890320416" lon="20.024554827973656"><ele>433.0</ele><time>2026-05-04T09:33:14Z</time></trkpt><trkpt lat="42.25423324111515" lon="20.02467360148071"><ele>433.00000000000006</ele><time>2026-05-04T09:33:16Z</time></trkpt><trkpt lat="42.254308766144746" lon="20.02469026809308"><ele>433.0</ele><time>2026-05-04T09:33:17Z</time></trkpt><trkpt lat="42.25440348761081" lon="20.024710304637047"><ele>433.0</ele><time>2026-05-04T09:33:18Z</time></trkpt><trkpt lat="42.254492265322476" lon="20.024738702430678"><ele>433.0</ele><time>2026-05-04T09:33:19Z</time></trkpt><trkpt lat="42.25457239653378" lon="20.02473311257531"><ele>433.00000000000006</ele><time>2026-05-04T09:33:20Z</time></trkpt><trkpt lat="42.25464855757735" lon="20.02466823819824"><ele>433.0</ele><time>2026-05-04T09:33:21Z</time></trkpt><trkpt lat="42.25473767310512" lon="20.024575796819718"><ele>432.00000000000006</ele><time>2026-05-04T09:33:22Z</time></trkpt><trkpt lat="42.254825748400854" lon="20.024515966569023"><ele>431.0</ele><time>2026-05-04T09:33:23Z</time></trkpt><trkpt lat="42.254913923160736" lon="20.024494895860848"><ele>430.0</ele><time>2026-05-04T09:33:24Z</time></trkpt><trkpt lat="42.254988773339896" lon="20.024508713375326"><ele>429.0</ele><time>2026-05-04T09:33:25Z</time></trkpt><trkpt lat="42.25505790461881" lon="20.024554821874535"><ele>428.00000000000006</ele><time>2026-05-04T09:33:26Z</time></trkpt><trkpt lat="42.25507371505172" lon="20.024653922871902"><ele>427.0</ele><time>2026-05-04T09:33:28Z</time></trkpt><trkpt lat="42.25499142182886" lon="20.02478231708582"><ele>427.0</ele><time>2026-05-04T09:33:30Z</time></trkpt><trkpt lat="42.254895756404814" lon="20.02485547300573"><ele>427.0</ele><time>2026-05-04T09:33:31Z</time></trkpt><trkpt lat="42.25478116287158" lon="20.0249443502954"><ele>427.0</ele><time>2026-05-04T09:33:32Z</time></trkpt><trkpt lat="42.25466044840544" lon="20.025057917415527"><ele>427.0</ele><time>2026-05-04T09:33:33Z</time></trkpt><trkpt lat="42.25456292778098" lon="20.02514638684085"><ele>424.8</ele><time>2026-05-04T09:33:34Z</time></trkpt><trkpt lat="42.25448058002681" lon="20.025247928902463"><ele>422.6</ele><time>2026-05-04T09:33:35Z</time></trkpt><trkpt lat="42.254443759968346" lon="20.025378668351706"><ele>420.40000000000003</ele><time>2026-05-04T09:33:37Z</time></trkpt><trkpt lat="42.25452875735516" lon="20.025447882642982"><ele>418.20000000000005</ele><time>2026-05-04T09:33:38.999Z</time></trkpt><trkpt lat="42.2545880348706" lon="20.02541087951023"><ele>416.0</ele><time>2026-05-04T09:33:39.999Z</time></trkpt><trkpt lat="42.25467562458213" lon="20.025338730157376"><ele>416.0</ele><time>2026-05-04T09:33:40.999Z</time></trkpt><trkpt lat="42.25472905756725" lon="20.025275916303723"><ele>416.0</ele><time>2026-05-04T09:33:41.999Z</time></trkpt><trkpt lat="42.25479863456232" lon="20.025189974679815"><ele>416.0</ele><time>2026-05-04T09:33:42.999Z</time></trkpt><trkpt lat="42.254910502545236" lon="20.025134504408886"><ele>416.0</ele><time>2026-05-04T09:33:44.999Z</time></trkpt><trkpt lat="42.255008209397474" lon="20.025168701051275"><ele>416.0</ele><time>2026-05-04T09:33:45.999Z</time></trkpt><trkpt lat="42.2551200804447" lon="20.02519624936503"><ele>414.5</ele><time>2026-05-04T09:33:46.999Z</time></trkpt><trkpt lat="42.25525544772936" lon="20.025189587816197"><ele>413.0</ele><time>2026-05-04T09:33:47.999Z</time></trkpt><trkpt lat="42.25538591161895" lon="20.02522563620852"><ele>411.5</ele><time>2026-05-04T09:33:48.999Z</time></trkpt><trkpt lat="42.255501680964706" lon="20.025254298017874"><ele>410.0</ele><time>2026-05-04T09:33:49.999Z</time></trkpt><trkpt lat="42.2556311113435" lon="20.025248926173504"><ele>407.0</ele><time>2026-05-04T09:33:50.999Z</time></trkpt><trkpt lat="42.25575052913358" lon="20.025201298745884"><ele>404.0</ele><time>2026-05-04T09:33:51.999Z</time></trkpt><trkpt lat="42.25585584558045" lon="20.025138888180187"><ele>401.0</ele><time>2026-05-04T09:33:52.999Z</time></trkpt><trkpt lat="42.255942055240354" lon="20.025090734144555"><ele>398.0</ele><time>2026-05-04T09:33:53.999Z</time></trkpt><trkpt lat="42.25602724261607" lon="20.025044136285814"><ele>395.0</ele><time>2026-05-04T09:33:55.999Z</time></trkpt><trkpt lat="42.25607217352502" lon="20.025111369980554"><ele>395.0</ele><time>2026-05-04T09:33:57.999Z</time></trkpt><trkpt lat="42.25606109563417" lon="20.025217191455756"><ele>395.0</ele><time>2026-05-04T09:33:59.999Z</time></trkpt><trkpt lat="42.25593090293318" lon="20.025305885535854"><ele>395.0</ele><time>2026-05-04T09:34:01.999Z</time></trkpt><trkpt lat="42.25583443445443" lon="20.025355564032072"><ele>395.0</ele><time>2026-05-04T09:34:02.999Z</time></trkpt><trkpt lat="42.25574409814355" lon="20.02542721659417"><ele>395.0</ele><time>2026-05-04T09:34:03.999Z</time></trkpt><trkpt lat="42.25564139429529" lon="20.025523305144517"><ele>393.2</ele><time>2026-05-04T09:34:04.999Z</time></trkpt><trkpt lat="42.255542973536734" lon="20.025631661409534"><ele>391.4</ele><time>2026-05-04T09:34:05.999Z</time></trkpt><trkpt lat="42.25549015176208" lon="20.02571992666009"><ele>389.6</ele><time>2026-05-04T09:34:06.999Z</time></trkpt><trkpt lat="42.255463871846594" lon="20.025799612746507"><ele>387.8</ele><time>2026-05-04T09:34:07.999Z</time></trkpt><trkpt lat="42.25552654203741" lon="20.025918350386355"><ele>386.0</ele><time>2026-05-04T09:34:09.999Z</time></trkpt><trkpt lat="42.25566681879415" lon="20.025857716966595"><ele>388.25</ele><time>2026-05-04T09:34:11.999Z</time></trkpt><trkpt lat="42.255771358924555" lon="20.025753071819107"><ele>390.5</ele><time>2026-05-04T09:34:12.999Z</time></trkpt><trkpt lat="42.25590311177981" lon="20.025666007951344"><ele>392.75</ele><time>2026-05-04T09:34:13.999Z</time></trkpt><trkpt lat="42.25603086482016" lon="20.0256187494046"><ele>395.0</ele><time>2026-05-04T09:34:14.999Z</time></trkpt><trkpt lat="42.256139444685296" lon="20.025608338628146"><ele>395.0</ele><time>2026-05-04T09:34:15.999Z</time></trkpt><trkpt lat="42.256244960428354" lon="20.025579335645855"><ele>395.0</ele><time>2026-05-04T09:34:16.999Z</time></trkpt><trkpt lat="42.25633646816352" lon="20.02550680756379"><ele>395.0</ele><time>2026-05-04T09:34:17.999Z</time></trkpt><trkpt lat="42.25644784996265" lon="20.02540620547449"><ele>395.0</ele><time>2026-05-04T09:34:18.999Z</time></trkpt><trkpt lat="42.25654042436782" lon="20.025333174704777"><ele>390.6</ele><time>2026-05-04T09:34:19.999Z</time></trkpt><trkpt lat="42.256621549112495" lon="20.025289232265578"><ele>386.2</ele><time>2026-05-04T09:34:20.999Z</time></trkpt><trkpt lat="42.256705689251106" lon="20.025288469954617"><ele>381.79999999999995</ele><time>2026-05-04T09:34:21.999Z</time></trkpt><trkpt lat="42.25680870457518" lon="20.025319055538326"><ele>377.4</ele><time>2026-05-04T09:34:22.999Z</time></trkpt><trkpt lat="42.256920197703636" lon="20.025361049582493"><ele>373.0</ele><time>2026-05-04T09:34:23.999Z</time></trkpt><trkpt lat="42.25702780790382" lon="20.02539867098925"><ele>373.0</ele><time>2026-05-04T09:34:24.999Z</time></trkpt><trkpt lat="42.257100313688625" lon="20.025442251520257"><ele>373.0</ele><time>2026-05-04T09:34:25.999Z</time></trkpt><trkpt lat="42.25719485218369" lon="20.0254857245882"><ele>373.0</ele><time>2026-05-04T09:34:26.999Z</time></trkpt><trkpt lat="42.25729745566476" lon="20.025502878672235"><ele>373.0</ele><time>2026-05-04T09:34:27.999Z</time></trkpt><trkpt lat="42.25739667008307" lon="20.025456896592072"><ele>373.0</ele><time>2026-05-04T09:34:28.999Z</time></trkpt><trkpt lat="42.257510941038824" lon="20.025376322795182"><ele>369.79999999999995</ele><time>2026-05-04T09:34:29.999Z</time></trkpt><trkpt lat="42.25762972167117" lon="20.02530893035438"><ele>366.6</ele><time>2026-05-04T09:34:30.999Z</time></trkpt><trkpt lat="42.25771207154803" lon="20.02527019777351"><ele>363.4</ele><time>2026-05-04T09:34:31.999Z</time></trkpt><trkpt lat="42.25778272624837" lon="20.02522618780189"><ele>360.20000000000005</ele><time>2026-05-04T09:34:32.999Z</time></trkpt><trkpt lat="42.25785144701716" lon="20.025142181850693"><ele>357.0</ele><time>2026-05-04T09:34:33.999Z</time></trkpt><trkpt lat="42.25791225008987" lon="20.02506414577181"><ele>357.0</ele><time>2026-05-04T09:34:34.999Z</time></trkpt><trkpt lat="42.25800048758752" lon="20.025000205176756"><ele>357.0</ele><time>2026-05-04T09:34:35.999Z</time></trkpt><trkpt lat="42.25806925226509" lon="20.024973901927133"><ele>357.0</ele><time>2026-05-04T09:34:36.999Z</time></trkpt><trkpt lat="42.25813252373841" lon="20.024957373811887"><ele>357.0</ele><time>2026-05-04T09:34:37.999Z</time></trkpt><trkpt lat="42.258199154353655" lon="20.025021774192055"><ele>357.0</ele><time>2026-05-04T09:34:39.999Z</time></trkpt><trkpt lat="42.25821109449968" lon="20.025149783828844"><ele>357.0</ele><time>2026-05-04T09:35:05Z</time></trkpt><trkpt lat="42.258121442364015" lon="20.025257249626577"><ele>357.0</ele><time>2026-05-04T09:35:07Z</time></trkpt><trkpt lat="42.258029223616404" lon="20.02532701033872"><ele>357.0</ele><time>2026-05-04T09:35:09Z</time></trkpt><trkpt lat="42.25798768663969" lon="20.025422614545594"><ele>357.0</ele><time>2026-05-04T09:35:10Z</time></trkpt><trkpt lat="42.257971139495616" lon="20.025541873639103"><ele>357.0</ele><time>2026-05-04T09:35:11Z</time></trkpt><trkpt lat="42.257963947753105" lon="20.025652848120995"><ele>357.0</ele><time>2026-05-04T09:35:12Z</time></trkpt><trkpt lat="42.25794710677198" lon="20.025780983427452"><ele>353.8333333333333</ele><time>2026-05-04T09:35:13Z</time></trkpt><trkpt lat="42.25792280970815" lon="20.0258893566321"><ele>350.6666666666667</ele><time>2026-05-04T09:35:14Z</time></trkpt><trkpt lat="42.2578779683578" lon="20.025972228971355"><ele>347.5</ele><time>2026-05-04T09:35:15Z</time></trkpt><trkpt lat="42.25782044802451" lon="20.026044987441036"><ele>344.33333333333337</ele><time>2026-05-04T09:35:16Z</time></trkpt><trkpt lat="42.25774237162419" lon="20.02607532063512"><ele>341.1666666666667</ele><time>2026-05-04T09:35:17Z</time></trkpt><trkpt lat="42.257675462748836" lon="20.026080451360002"><ele>338.0</ele><time>2026-05-04T09:35:18Z</time></trkpt><trkpt lat="42.257642653949056" lon="20.026195023355513"><ele>338.0</ele><time>2026-05-04T09:35:20Z</time></trkpt><trkpt lat="42.25770247101197" lon="20.026229848337902"><ele>338.0</ele><time>2026-05-04T09:35:22Z</time></trkpt><trkpt lat="42.257864391294454" lon="20.0262328737723"><ele>338.0</ele><time>2026-05-04T09:35:24Z</time></trkpt><trkpt lat="42.257937652920354" lon="20.026210710544593"><ele>338.0</ele><time>2026-05-04T09:35:25Z</time></trkpt><trkpt lat="42.258009195058875" lon="20.026164863685377"><ele>338.0</ele><time>2026-05-04T09:35:26Z</time></trkpt><trkpt lat="42.25809301044598" lon="20.026077549451514"><ele>335.2</ele><time>2026-05-04T09:35:27Z</time></trkpt><trkpt lat="42.25815833484225" lon="20.02596719502408"><ele>332.4</ele><time>2026-05-04T09:35:28Z</time></trkpt><trkpt lat="42.258174913133516" lon="20.025869609466103"><ele>329.59999999999997</ele><time>2026-05-04T09:35:29Z</time></trkpt><trkpt lat="42.25815798868868" lon="20.02570757747203"><ele>326.79999999999995</ele><time>2026-05-04T09:35:31Z</time></trkpt><trkpt lat="42.258207223089975" lon="20.025643343341756"><ele>324.0</ele><time>2026-05-04T09:35:33Z</time></trkpt><trkpt lat="42.25833810562601" lon="20.025591215760002"><ele>324.0</ele><time>2026-05-04T09:35:35Z</time></trkpt><trkpt lat="42.25842084292585" lon="20.025492432447166"><ele>324.0</ele><time>2026-05-04T09:35:36Z</time></trkpt><trkpt lat="42.25848453317735" lon="20.025353008587974"><ele>324.0</ele><time>2026-05-04T09:35:37Z</time></trkpt><trkpt lat="42.258520967439615" lon="20.025202497290763"><ele>324.0</ele><time>2026-05-04T09:35:38Z</time></trkpt><trkpt lat="42.25854872793152" lon="20.025049598927247"><ele>322.59999999999997</ele><time>2026-05-04T09:35:39Z</time></trkpt><trkpt lat="42.25856353775166" lon="20.02490019201081"><ele>321.2</ele><time>2026-05-04T09:35:40Z</time></trkpt><trkpt lat="42.25856885126288" lon="20.024780089422904"><ele>319.79999999999995</ele><time>2026-05-04T09:35:41Z</time></trkpt><trkpt lat="42.2585742405213" lon="20.024665065466433"><ele>318.4</ele><time>2026-05-04T09:35:42Z</time></trkpt><trkpt lat="42.25856470809325" lon="20.02454405657012"><ele>317.0</ele><time>2026-05-04T09:35:43Z</time></trkpt><trkpt lat="42.258549124957106" lon="20.024426129866917"><ele>317.0</ele><time>2026-05-04T09:35:44Z</time></trkpt><trkpt lat="42.25859711354932" lon="20.02431190207418"><ele>317.0</ele><time>2026-05-04T09:35:46Z</time></trkpt><trkpt lat="42.258672045006385" lon="20.02437201523507"><ele>317.0</ele><time>2026-05-04T09:35:48Z</time></trkpt><trkpt lat="42.25869263522306" lon="20.024457927794636"><ele>317.0</ele><time>2026-05-04T09:35:49Z</time></trkpt><trkpt lat="42.25868671799283" lon="20.024544119713912"><ele>317.0</ele><time>2026-05-04T09:35:50Z</time></trkpt><trkpt lat="42.25868312554001" lon="20.024671295024515"><ele>317.0</ele><time>2026-05-04T09:35:51Z</time></trkpt><trkpt lat="42.25869720264153" lon="20.024855131155384"><ele>318.75</ele><time>2026-05-04T09:35:52Z</time></trkpt><trkpt lat="42.25872068453706" lon="20.025045523474052"><ele>320.5</ele><time>2026-05-04T09:35:53Z</time></trkpt><trkpt lat="42.25873182391901" lon="20.025189549425725"><ele>322.25</ele><time>2026-05-04T09:35:54Z</time></trkpt><trkpt lat="42.25871776947397" lon="20.025318316374708"><ele>324.0</ele><time>2026-05-04T09:35:55Z</time></trkpt><trkpt lat="42.2586723122357" lon="20.02546108049739"><ele>324.0</ele><time>2026-05-04T09:35:56Z</time></trkpt><trkpt lat="42.258609249487094" lon="20.025590872309966"><ele>324.0</ele><time>2026-05-04T09:35:57Z</time></trkpt><trkpt lat="42.25852607077262" lon="20.02570703737582"><ele>324.0</ele><time>2026-05-04T09:35:58Z</time></trkpt><trkpt lat="42.25845827246902" lon="20.02579264367866"><ele>324.0</ele><time>2026-05-04T09:35:59Z</time></trkpt><trkpt lat="42.25841571747274" lon="20.025893108161718"><ele>324.0</ele><time>2026-05-04T09:36:00Z</time></trkpt><trkpt lat="42.25843823946395" lon="20.026071448113903"><ele>320.8</ele><time>2026-05-04T09:36:02Z</time></trkpt><trkpt lat="42.2584696498081" lon="20.026196851774426"><ele>317.59999999999997</ele><time>2026-05-04T09:36:03Z</time></trkpt><trkpt lat="42.25845775866432" lon="20.026325283499432"><ele>314.4</ele><time>2026-05-04T09:36:04Z</time></trkpt><trkpt lat="42.25840022566349" lon="20.026452118200503"><ele>311.2</ele><time>2026-05-04T09:36:05Z</time></trkpt><trkpt lat="42.258330610368716" lon="20.026594257054867"><ele>308.0</ele><time>2026-05-04T09:36:06Z</time></trkpt><trkpt lat="42.25826568414044" lon="20.026702519786397"><ele>309.1666666666667</ele><time>2026-05-04T09:36:07Z</time></trkpt><trkpt lat="42.258199264302334" lon="20.026788887688298"><ele>310.33333333333337</ele><time>2026-05-04T09:36:08Z</time></trkpt><trkpt lat="42.258135638965555" lon="20.02688462463187"><ele>311.5</ele><time>2026-05-04T09:36:09Z</time></trkpt><trkpt lat="42.25808475332859" lon="20.026981403148593"><ele>312.6666666666667</ele><time>2026-05-04T09:36:10Z</time></trkpt><trkpt lat="42.25806659155676" lon="20.027077082959654"><ele>313.8333333333333</ele><time>2026-05-04T09:36:11Z</time></trkpt><trkpt lat="42.258076403622276" lon="20.02720228908436"><ele>315.0</ele><time>2026-05-04T09:36:12Z</time></trkpt><trkpt lat="42.2580691649775" lon="20.02731672144821"><ele>315.0</ele><time>2026-05-04T09:36:13Z</time></trkpt><trkpt lat="42.25803204993884" lon="20.027458292344082"><ele>315.0</ele><time>2026-05-04T09:36:14Z</time></trkpt><trkpt lat="42.25797071760387" lon="20.027570938790927"><ele>315.0</ele><time>2026-05-04T09:36:14.999Z</time></trkpt><trkpt lat="42.257901987492424" lon="20.02771407062251"><ele>315.0</ele><time>2026-05-04T09:36:15.999Z</time></trkpt><trkpt lat="42.257836445504985" lon="20.027850817184884"><ele>310.4</ele><time>2026-05-04T09:36:16.999Z</time></trkpt><trkpt lat="42.25779249839681" lon="20.027974930374697"><ele>305.8</ele><time>2026-05-04T09:36:17.999Z</time></trkpt><trkpt lat="42.25776820502651" lon="20.02807210513936"><ele>301.2</ele><time>2026-05-04T09:36:18.999Z</time></trkpt><trkpt lat="42.25773659147205" lon="20.028165672552554"><ele>296.6</ele><time>2026-05-04T09:36:19.999Z</time></trkpt><trkpt lat="42.257731483439926" lon="20.028313374227768"><ele>292.0</ele><time>2026-05-04T09:36:21.999Z</time></trkpt><trkpt lat="42.25782200589362" lon="20.028370913171017"><ele>288.2</ele><time>2026-05-04T09:36:23.999Z</time></trkpt><trkpt lat="42.25793859367782" lon="20.028444546213915"><ele>284.4</ele><time>2026-05-04T09:36:25.999Z</time></trkpt><trkpt lat="42.25791758559147" lon="20.028601914199776"><ele>280.6</ele><time>2026-05-04T09:36:27.999Z</time></trkpt><trkpt lat="42.25786085010365" lon="20.028689900669317"><ele>276.8</ele><time>2026-05-04T09:36:28.999Z</time></trkpt><trkpt lat="42.25778790139109" lon="20.028758545073703"><ele>273.0</ele><time>2026-05-04T09:36:29.999Z</time></trkpt><trkpt lat="42.25770875838734" lon="20.02881024603446"><ele>273.0</ele><time>2026-05-04T09:36:30.999Z</time></trkpt><trkpt lat="42.25761726832603" lon="20.028865762500864"><ele>273.0</ele><time>2026-05-04T09:36:31.999Z</time></trkpt><trkpt lat="42.25752719212499" lon="20.028929389994875"><ele>273.0</ele><time>2026-05-04T09:36:32.999Z</time></trkpt><trkpt lat="42.25744066832246" lon="20.028993260011607"><ele>273.0</ele><time>2026-05-04T09:36:33.999Z</time></trkpt><trkpt lat="42.25736833550584" lon="20.029029803305477"><ele>273.0</ele><time>2026-05-04T09:36:34.999Z</time></trkpt><trkpt lat="42.25730560761163" lon="20.029109599344746"><ele>268.6</ele><time>2026-05-04T09:36:36.999Z</time></trkpt><trkpt lat="42.257351630335826" lon="20.029193083461127"><ele>264.20000000000005</ele><time>2026-05-04T09:36:38.999Z</time></trkpt><trkpt lat="42.257509902716556" lon="20.029199021787115"><ele>259.8</ele><time>2026-05-04T09:36:40.999Z</time></trkpt><trkpt lat="42.2576233017374" lon="20.029192949643416"><ele>255.4</ele><time>2026-05-04T09:36:41.999Z</time></trkpt><trkpt lat="42.257721052153805" lon="20.029200779064052"><ele>251.0</ele><time>2026-05-04T09:36:42.999Z</time></trkpt><trkpt lat="42.25780591161283" lon="20.029284973104794"><ele>251.0</ele><time>2026-05-04T09:36:44.999Z</time></trkpt><trkpt lat="42.25776447561688" lon="20.02939407676425"><ele>251.00000000000003</ele><time>2026-05-04T09:36:46.999Z</time></trkpt><trkpt lat="42.257692271025945" lon="20.02942963791591"><ele>251.00000000000003</ele><time>2026-05-04T09:36:47.999Z</time></trkpt><trkpt lat="42.25759187663901" lon="20.02943777055608"><ele>251.0</ele><time>2026-05-04T09:36:48.999Z</time></trkpt><trkpt lat="42.25747907165467" lon="20.029431035458604"><ele>251.0</ele><time>2026-05-04T09:36:49.999Z</time></trkpt><trkpt lat="42.25738439750014" lon="20.029427637131224"><ele>251.0</ele><time>2026-05-04T09:36:50.999Z</time></trkpt><trkpt lat="42.25729072506239" lon="20.02945631715194"><ele>251.00000000000003</ele><time>2026-05-04T09:36:51.999Z</time></trkpt><trkpt lat="42.25720054225494" lon="20.02952687067342"><ele>251.00000000000003</ele><time>2026-05-04T09:36:52.999Z</time></trkpt><trkpt lat="42.2571198691691" lon="20.029607241010147"><ele>251.0</ele><time>2026-05-04T09:36:53.999Z</time></trkpt><trkpt lat="42.25706038485025" lon="20.02968342207518"><ele>251.0</ele><time>2026-05-04T09:36:54.999Z</time></trkpt><trkpt lat="42.25700015057975" lon="20.029793624655735"><ele>251.00000000000003</ele><time>2026-05-04T09:36:57Z</time></trkpt><trkpt lat="42.2570748519157" lon="20.029877963309012"><ele>251.0</ele><time>2026-05-04T09:36:59Z</time></trkpt><trkpt lat="42.25714574291784" lon="20.029855861562528"><ele>251.0</ele><time>2026-05-04T09:37:00Z</time></trkpt><trkpt lat="42.25720616816559" lon="20.02978986696415"><ele>251.0</ele><time>2026-05-04T09:37:01Z</time></trkpt><trkpt lat="42.25725945224415" lon="20.029742785623398"><ele>251.00000000000003</ele><time>2026-05-04T09:37:02Z</time></trkpt><trkpt lat="42.25731399911079" lon="20.02981631544949"><ele>251.0</ele><time>2026-05-04T09:37:04Z</time></trkpt><trkpt lat="42.25725933886623" lon="20.029913232071976"><ele>248.75</ele><time>2026-05-04T09:37:06Z</time></trkpt><trkpt lat="42.25717034500062" lon="20.029973531096168"><ele>246.5</ele><time>2026-05-04T09:37:07Z</time></trkpt><trkpt lat="42.25706229240661" lon="20.030067669655775"><ele>244.25</ele><time>2026-05-04T09:37:08Z</time></trkpt><trkpt lat="42.256963854663496" lon="20.03019929195648"><ele>242.0</ele><time>2026-05-04T09:37:09Z</time></trkpt><trkpt lat="42.25685955245396" lon="20.030370485820484"><ele>242.0</ele><time>2026-05-04T09:37:10Z</time></trkpt><trkpt lat="42.256778520569085" lon="20.030497572623396"><ele>242.0</ele><time>2026-05-04T09:37:11Z</time></trkpt><trkpt lat="42.25669814508939" lon="20.03060859583713"><ele>242.0</ele><time>2026-05-04T09:37:12Z</time></trkpt><trkpt lat="42.256622104284304" lon="20.03068283936086"><ele>242.0</ele><time>2026-05-04T09:37:13Z</time></trkpt><trkpt lat="42.25652163374892" lon="20.03075165588004"><ele>242.0</ele><time>2026-05-04T09:37:14Z</time></trkpt><trkpt lat="42.25641801030783" lon="20.030805018956947"><ele>243.39999999999998</ele><time>2026-05-04T09:37:15Z</time></trkpt><trkpt lat="42.25631376346892" lon="20.030842112212916"><ele>244.79999999999998</ele><time>2026-05-04T09:37:16Z</time></trkpt><trkpt lat="42.25621761182768" lon="20.03085976318814"><ele>246.2</ele><time>2026-05-04T09:37:17Z</time></trkpt><trkpt lat="42.25612734794969" lon="20.030845112613722"><ele>247.6</ele><time>2026-05-04T09:37:18Z</time></trkpt><trkpt lat="42.256012393169165" lon="20.03079206188618"><ele>249.0</ele><time>2026-05-04T09:37:19Z</time></trkpt><trkpt lat="42.255893120761144" lon="20.030736538382214"><ele>249.0</ele><time>2026-05-04T09:37:20Z</time></trkpt><trkpt lat="42.25579054297584" lon="20.03069282730445"><ele>248.99999999999997</ele><time>2026-05-04T09:37:21Z</time></trkpt><trkpt lat="42.255692995875094" lon="20.030664180389348"><ele>248.99999999999997</ele><time>2026-05-04T09:37:22Z</time></trkpt><trkpt lat="42.25559386026572" lon="20.030637365139444"><ele>249.0</ele><time>2026-05-04T09:37:23Z</time></trkpt><trkpt lat="42.25550463776298" lon="20.030607749813232"><ele>249.0</ele><time>2026-05-04T09:37:24Z</time></trkpt><trkpt lat="42.25542872578048" lon="20.03056815446344"><ele>247.2</ele><time>2026-05-04T09:37:25Z</time></trkpt><trkpt lat="42.25536293691261" lon="20.030552027873842"><ele>245.39999999999998</ele><time>2026-05-04T09:37:26Z</time></trkpt><trkpt lat="42.25530484774826" lon="20.03064234851034"><ele>243.6</ele><time>2026-05-04T09:37:28Z</time></trkpt><trkpt lat="42.2553681899579" lon="20.03075070412965"><ele>241.8</ele><time>2026-05-04T09:37:30Z</time></trkpt><trkpt lat="42.255443983323026" lon="20.030795441828847"><ele>240.0</ele><time>2026-05-04T09:37:31Z</time></trkpt><trkpt lat="42.25555724764338" lon="20.030817519701557"><ele>233.25</ele><time>2026-05-04T09:37:32Z</time></trkpt><trkpt lat="42.255682919981304" lon="20.030855537010467"><ele>226.5</ele><time>2026-05-04T09:37:33Z</time></trkpt><trkpt lat="42.25581923522439" lon="20.030930403618814"><ele>219.75</ele><time>2026-05-04T09:37:34Z</time></trkpt><trkpt lat="42.25595997733826" lon="20.03102689701144"><ele>213.0</ele><time>2026-05-04T09:37:35Z</time></trkpt><trkpt lat="42.25611318179621" lon="20.031135364999432"><ele>213.0</ele><time>2026-05-04T09:37:36Z</time></trkpt><trkpt lat="42.25623368818358" lon="20.03119442630033"><ele>213.0</ele><time>2026-05-04T09:37:37Z</time></trkpt><trkpt lat="42.25634824354195" lon="20.031265244693245"><ele>213.0</ele><time>2026-05-04T09:37:38Z</time></trkpt><trkpt lat="42.256447186254775" lon="20.031370216901372"><ele>213.0</ele><time>2026-05-04T09:37:39Z</time></trkpt><trkpt lat="42.256545102315464" lon="20.031444349228725"><ele>213.0</ele><time>2026-05-04T09:37:40Z</time></trkpt><trkpt lat="42.256645679743905" lon="20.031487880571902"><ele>213.0</ele><time>2026-05-04T09:37:41Z</time></trkpt><trkpt lat="42.2567477292045" lon="20.03149954463791"><ele>213.0</ele><time>2026-05-04T09:37:42Z</time></trkpt><trkpt lat="42.2568516418617" lon="20.03148148224767"><ele>213.0</ele><time>2026-05-04T09:37:43Z</time></trkpt><trkpt lat="42.25695267838409" lon="20.031429734572818"><ele>213.0</ele><time>2026-05-04T09:37:44Z</time></trkpt><trkpt lat="42.25705006911741" lon="20.03136536042243"><ele>213.0</ele><time>2026-05-04T09:37:45Z</time></trkpt><trkpt lat="42.25712051985406" lon="20.031274171775575"><ele>213.0</ele><time>2026-05-04T09:37:46Z</time></trkpt><trkpt lat="42.25716521433424" lon="20.031167283722453"><ele>213.0</ele><time>2026-05-04T09:37:47Z</time></trkpt><trkpt lat="42.25720424766493" lon="20.031081377882135"><ele>213.0</ele><time>2026-05-04T09:37:48Z</time></trkpt><trkpt lat="42.25729369047967" lon="20.031030317901784"><ele>213.0</ele><time>2026-05-04T09:37:50Z</time></trkpt><trkpt lat="42.257340186985665" lon="20.031146474432607"><ele>213.0</ele><time>2026-05-04T09:37:53Z</time></trkpt><trkpt lat="42.25728263885682" lon="20.03126206272469"><ele>213.0</ele><time>2026-05-04T09:37:55Z</time></trkpt><trkpt lat="42.25721329072552" lon="20.031338257824487"><ele>213.0</ele><time>2026-05-04T09:37:56Z</time></trkpt><trkpt lat="42.25713296974657" lon="20.031430339024286"><ele>213.0</ele><time>2026-05-04T09:37:57Z</time></trkpt><trkpt lat="42.25706525539413" lon="20.031518129501645"><ele>213.0</ele><time>2026-05-04T09:37:58Z</time></trkpt><trkpt lat="42.25699326613818" lon="20.031629123352133"><ele>207.0</ele><time>2026-05-04T09:37:59Z</time></trkpt><trkpt lat="42.256909827524" lon="20.03173585125948"><ele>201.0</ele><time>2026-05-04T09:38:00Z</time></trkpt><trkpt lat="42.25682123482029" lon="20.03183572008957"><ele>195.0</ele><time>2026-05-04T09:38:01Z</time></trkpt><trkpt lat="42.25674162183654" lon="20.031943075735672"><ele>189.0</ele><time>2026-05-04T09:38:02Z</time></trkpt><trkpt lat="42.256664691341065" lon="20.0320568149934"><ele>189.0</ele><time>2026-05-04T09:38:03Z</time></trkpt><trkpt lat="42.25660546933945" lon="20.032176225687095"><ele>189.0</ele><time>2026-05-04T09:38:04Z</time></trkpt><trkpt lat="42.25654928187925" lon="20.03230667134533"><ele>189.0</ele><time>2026-05-04T09:38:05Z</time></trkpt><trkpt lat="42.256482302975314" lon="20.03243652502109"><ele>189.0</ele><time>2026-05-04T09:38:06Z</time></trkpt><trkpt lat="42.25640116526344" lon="20.03255032835371"><ele>187.79999999999998</ele><time>2026-05-04T09:38:07Z</time></trkpt><trkpt lat="42.25630829094682" lon="20.03266326007153"><ele>186.6</ele><time>2026-05-04T09:38:08Z</time></trkpt><trkpt lat="42.25622430856038" lon="20.032768342763536"><ele>185.4</ele><time>2026-05-04T09:38:09Z</time></trkpt><trkpt lat="42.25616303822316" lon="20.032844910915056"><ele>184.2</ele><time>2026-05-04T09:38:10Z</time></trkpt><trkpt lat="42.25611130218239" lon="20.032925083888966"><ele>183.0</ele><time>2026-05-04T09:38:12Z</time></trkpt><trkpt lat="42.25611696969249" lon="20.033048873874787"><ele>183.0</ele><time>2026-05-04T09:38:40Z</time></trkpt><trkpt lat="42.2561604131989" lon="20.033153700342233"><ele>183.0</ele><time>2026-05-04T09:38:42Z</time></trkpt><trkpt lat="42.256222617615215" lon="20.033240569839744"><ele>183.0</ele><time>2026-05-04T09:38:43.999Z</time></trkpt><trkpt lat="42.25629775691589" lon="20.033328719503004"><ele>183.0</ele><time>2026-05-04T09:38:45.999Z</time></trkpt><trkpt lat="42.256387446300586" lon="20.03344184303204"><ele>183.0</ele><time>2026-05-04T09:38:47.999Z</time></trkpt><trkpt lat="42.25643573047259" lon="20.033500289257244"><ele>180.0</ele><time>2026-05-04T09:38:48.999Z</time></trkpt><trkpt lat="42.256483120333584" lon="20.033559530481558"><ele>177.0</ele><time>2026-05-04T09:38:49.999Z</time></trkpt><trkpt lat="42.256539759660804" lon="20.033662847582868"><ele>174.0</ele><time>2026-05-04T09:38:51.999Z</time></trkpt><trkpt lat="42.256619083067996" lon="20.03372398088973"><ele>171.0</ele><time>2026-05-04T09:38:53.999Z</time></trkpt><trkpt lat="42.256712029236425" lon="20.033796962303214"><ele>168.0</ele><time>2026-05-04T09:38:55.999Z</time></trkpt><trkpt lat="42.25678655859501" lon="20.033880426490963"><ele>168.0</ele><time>2026-05-04T09:38:57.998Z</time></trkpt><trkpt lat="42.2568445232321" lon="20.033959221768537"><ele>168.0</ele><time>2026-05-04T09:38:59.998Z</time></trkpt><trkpt lat="42.25691481047768" lon="20.03402449072773"><ele>168.0</ele><time>2026-05-04T09:39:03Z</time></trkpt><trkpt lat="42.25698750201734" lon="20.034083246869322"><ele>168.0</ele><time>2026-05-04T09:39:06Z</time></trkpt><trkpt lat="42.25703171586216" lon="20.034194936091218"><ele>168.0</ele><time>2026-05-04T09:39:08Z</time></trkpt><trkpt lat="42.25709970742341" lon="20.034303290915698"><ele>168.4</ele><time>2026-05-04T09:39:10Z</time></trkpt><trkpt lat="42.257200437859865" lon="20.03437543777321"><ele>168.8</ele><time>2026-05-04T09:39:12Z</time></trkpt><trkpt lat="42.257307538858335" lon="20.034369224002297"><ele>169.2</ele><time>2026-05-04T09:39:14Z</time></trkpt><trkpt lat="42.25739281910112" lon="20.034282896904923"><ele>169.6</ele><time>2026-05-04T09:39:16Z</time></trkpt><trkpt lat="42.25744142075617" lon="20.034220614547163"><ele>170.0</ele><time>2026-05-04T09:39:17Z</time></trkpt><trkpt lat="42.257495494590906" lon="20.03414177447885"><ele>171.0</ele><time>2026-05-04T09:39:18Z</time></trkpt><trkpt lat="42.2575549195726" lon="20.034049452263684"><ele>172.0</ele><time>2026-05-04T09:39:19Z</time></trkpt><trkpt lat="42.25762016733289" lon="20.033948635301968"><ele>173.0</ele><time>2026-05-04T09:39:20Z</time></trkpt><trkpt lat="42.25769502521666" lon="20.033841442162718"><ele>174.0</ele><time>2026-05-04T09:39:21Z</time></trkpt><trkpt lat="42.257775720102345" lon="20.03372695592767"><ele>175.0</ele><time>2026-05-04T09:39:22Z</time></trkpt><trkpt lat="42.25786148599911" lon="20.03360739292908"><ele>175.0</ele><time>2026-05-04T09:39:23Z</time></trkpt><trkpt lat="42.2579462441584" lon="20.033476959795607"><ele>175.0</ele><time>2026-05-04T09:39:24Z</time></trkpt><trkpt lat="42.25802411812316" lon="20.033331446300238"><ele>175.0</ele><time>2026-05-04T09:39:25Z</time></trkpt><trkpt lat="42.25809633001013" lon="20.033172868924144"><ele>175.0</ele><time>2026-05-04T09:39:26Z</time></trkpt><trkpt lat="42.25817017120682" lon="20.033010338267495"><ele>175.25</ele><time>2026-05-04T09:39:26.999Z</time></trkpt><trkpt lat="42.25824550570677" lon="20.032848753199318"><ele>175.5</ele><time>2026-05-04T09:39:27.999Z</time></trkpt><trkpt lat="42.25832770991716" lon="20.03268635377228"><ele>175.75</ele><time>2026-05-04T09:39:28.999Z</time></trkpt><trkpt lat="42.25841815411246" lon="20.03252903509573"><ele>176.0</ele><time>2026-05-04T09:39:29.999Z</time></trkpt><trkpt lat="42.25852139538239" lon="20.0323784003195"><ele>176.0</ele><time>2026-05-04T09:39:30.999Z</time></trkpt><trkpt lat="42.25863341191372" lon="20.032247619560227"><ele>176.0</ele><time>2026-05-04T09:39:31.999Z</time></trkpt><trkpt lat="42.25876142729262" lon="20.032158723222324"><ele>176.0</ele><time>2026-05-04T09:39:32.999Z</time></trkpt><trkpt lat="42.25890250655475" lon="20.032107392560548"><ele>176.0</ele><time>2026-05-04T09:39:33.999Z</time></trkpt><trkpt lat="42.259050925745704" lon="20.032066724307608"><ele>181.33333333333331</ele><time>2026-05-04T09:39:34.999Z</time></trkpt><trkpt lat="42.25920387110254" lon="20.03202729210602"><ele>186.66666666666666</ele><time>2026-05-04T09:39:35.999Z</time></trkpt><trkpt lat="42.25935967408321" lon="20.03198771698668"><ele>192.0</ele><time>2026-05-04T09:39:36.999Z</time></trkpt><trkpt lat="42.25951607648033" lon="20.031940196907442"><ele>192.0</ele><time>2026-05-04T09:39:37.999Z</time></trkpt><trkpt lat="42.25966393702504" lon="20.03185980552173"><ele>192.0</ele><time>2026-05-04T09:39:38.999Z</time></trkpt><trkpt lat="42.25980513761907" lon="20.031753293552068"><ele>192.0</ele><time>2026-05-04T09:39:39.999Z</time></trkpt><trkpt lat="42.25994433844069" lon="20.031632284951396"><ele>193.0</ele><time>2026-05-04T09:39:40.999Z</time></trkpt><trkpt lat="42.26008473549298" lon="20.031500043626597"><ele>194.0</ele><time>2026-05-04T09:39:41.999Z</time></trkpt><trkpt lat="42.260227714247" lon="20.031365239842952"><ele>195.0</ele><time>2026-05-04T09:39:42.999Z</time></trkpt><trkpt lat="42.26037281067368" lon="20.031222699090712"><ele>195.0</ele><time>2026-05-04T09:39:43.999Z</time></trkpt><trkpt lat="42.260520330797945" lon="20.031077275283774"><ele>195.0</ele><time>2026-05-04T09:39:44.999Z</time></trkpt><trkpt lat="42.260667798649386" lon="20.0309301540119"><ele>195.0</ele><time>2026-05-04T09:39:45.999Z</time></trkpt><trkpt lat="42.26081388084476" lon="20.030781891466347"><ele>194.66666666666669</ele><time>2026-05-04T09:39:46.999Z</time></trkpt><trkpt lat="42.26094980037373" lon="20.030634116048052"><ele>194.33333333333334</ele><time>2026-05-04T09:39:47.999Z</time></trkpt><trkpt lat="42.26107288668355" lon="20.030480206771244"><ele>194.0</ele><time>2026-05-04T09:39:48.999Z</time></trkpt><trkpt lat="42.26118690865216" lon="20.030321578726788"><ele>194.0</ele><time>2026-05-04T09:39:49.999Z</time></trkpt><trkpt lat="42.26128626023246" lon="20.03015843445756"><ele>194.0</ele><time>2026-05-04T09:39:50.999Z</time></trkpt><trkpt lat="42.26137748421211" lon="20.029992329621948"><ele>194.0</ele><time>2026-05-04T09:39:51.999Z</time></trkpt><trkpt lat="42.26147706670623" lon="20.02983443748021"><ele>195.0</ele><time>2026-05-04T09:39:52.999Z</time></trkpt><trkpt lat="42.26159762960547" lon="20.029705371985226"><ele>196.0</ele><time>2026-05-04T09:39:53.999Z</time></trkpt><trkpt lat="42.261738217424885" lon="20.02960043131656"><ele>197.0</ele><time>2026-05-04T09:39:54.999Z</time></trkpt><trkpt lat="42.26188789893108" lon="20.029503472511305"><ele>197.0</ele><time>2026-05-04T09:39:55.999Z</time></trkpt><trkpt lat="42.262035416284185" lon="20.029396076565046"><ele>197.0</ele><time>2026-05-04T09:39:56.999Z</time></trkpt><trkpt lat="42.262172820883634" lon="20.02926582805778"><ele>197.0</ele><time>2026-05-04T09:39:57.999Z</time></trkpt><trkpt lat="42.262285694179745" lon="20.029111591133987"><ele>203.66666666666669</ele><time>2026-05-04T09:39:58.999Z</time></trkpt><trkpt lat="42.262381382640626" lon="20.02893328237801"><ele>210.33333333333331</ele><time>2026-05-04T09:39:59.999Z</time></trkpt><trkpt lat="42.262443569710975" lon="20.028741735711932"><ele>217.0</ele><time>2026-05-04T09:40:00.999Z</time></trkpt><trkpt lat="42.26247627395485" lon="20.02853769417019"><ele>217.0</ele><time>2026-05-04T09:40:01.999Z</time></trkpt><trkpt lat="42.26248656470683" lon="20.028323169031125"><ele>217.0</ele><time>2026-05-04T09:40:02.999Z</time></trkpt><trkpt lat="42.26250211873158" lon="20.028110405334125"><ele>217.0</ele><time>2026-05-04T09:40:03.999Z</time></trkpt><trkpt lat="42.262542087044416" lon="20.027913965520426"><ele>212.75</ele><time>2026-05-04T09:40:04.999Z</time></trkpt><trkpt lat="42.262612644064504" lon="20.027768147521765"><ele>208.5</ele><time>2026-05-04T09:40:05.999Z</time></trkpt><trkpt lat="42.262709508126946" lon="20.027672961085234"><ele>204.25</ele><time>2026-05-04T09:40:06.999Z</time></trkpt><trkpt lat="42.26283824638393" lon="20.02760290561323"><ele>200.0</ele><time>2026-05-04T09:40:07.999Z</time></trkpt><trkpt lat="42.26298197889223" lon="20.027548141316004"><ele>201.5</ele><time>2026-05-04T09:40:08.999Z</time></trkpt><trkpt lat="42.26312286624143" lon="20.027480734811487"><ele>203.0</ele><time>2026-05-04T09:40:09.999Z</time></trkpt><trkpt lat="42.263256867912176" lon="20.02738341046294"><ele>204.5</ele><time>2026-05-04T09:40:10.999Z</time></trkpt><trkpt lat="42.26338110811159" lon="20.027288191421786"><ele>206.0</ele><time>2026-05-04T09:40:11.999Z</time></trkpt><trkpt lat="42.26350315426303" lon="20.027202401457455"><ele>206.0</ele><time>2026-05-04T09:40:12.999Z</time></trkpt><trkpt lat="42.26362394216514" lon="20.027125424427613"><ele>206.0</ele><time>2026-05-04T09:40:13.999Z</time></trkpt><trkpt lat="42.26374637690488" lon="20.02705442560383"><ele>206.0</ele><time>2026-05-04T09:40:14.999Z</time></trkpt><trkpt lat="42.26388201819231" lon="20.027006186724876"><ele>206.0</ele><time>2026-05-04T09:40:15.999Z</time></trkpt><trkpt lat="42.264034899407264" lon="20.02699763556041"><ele>209.66666666666669</ele><time>2026-05-04T09:40:16.999Z</time></trkpt><trkpt lat="42.26419779760221" lon="20.02700459578137"><ele>213.33333333333331</ele><time>2026-05-04T09:40:17.999Z</time></trkpt><trkpt lat="42.26435514018592" lon="20.027012944570032"><ele>217.0</ele><time>2026-05-04T09:40:18.999Z</time></trkpt><trkpt lat="42.26449580412465" lon="20.027020078046792"><ele>217.0</ele><time>2026-05-04T09:40:19.999Z</time></trkpt><trkpt lat="42.26461259966535" lon="20.027017467707186"><ele>217.0</ele><time>2026-05-04T09:40:20.999Z</time></trkpt><trkpt lat="42.264707579577475" lon="20.027020876864047"><ele>217.0</ele><time>2026-05-04T09:40:21.999Z</time></trkpt><trkpt lat="42.2647969480795" lon="20.0270270742017"><ele>217.0</ele><time>2026-05-04T09:40:22.999Z</time></trkpt><trkpt lat="42.26488737023006" lon="20.02702200016149"><ele>217.0</ele><time>2026-05-04T09:40:23.999Z</time></trkpt><trkpt lat="42.26498270202346" lon="20.02700136560223"><ele>218.2</ele><time>2026-05-04T09:40:24.999Z</time></trkpt><trkpt lat="42.26508018540253" lon="20.02697002682244"><ele>219.39999999999998</ele><time>2026-05-04T09:40:25.999Z</time></trkpt><trkpt lat="42.265172928241135" lon="20.026912563707317"><ele>220.60000000000002</ele><time>2026-05-04T09:40:26.999Z</time></trkpt><trkpt lat="42.265271033605586" lon="20.02684577406113"><ele>221.8</ele><time>2026-05-04T09:40:27.999Z</time></trkpt><trkpt lat="42.26536571029356" lon="20.02677840709376"><ele>223.0</ele><time>2026-05-04T09:40:28.999Z</time></trkpt><trkpt lat="42.265463740170254" lon="20.026704566576274"><ele>215.0</ele><time>2026-05-04T09:40:29.999Z</time></trkpt><trkpt lat="42.26556518943531" lon="20.026629929468083"><ele>207.0</ele><time>2026-05-04T09:40:30.999Z</time></trkpt><trkpt lat="42.26567554433542" lon="20.02655789484834"><ele>199.0</ele><time>2026-05-04T09:40:31.999Z</time></trkpt><trkpt lat="42.26578761189446" lon="20.02650422237256"><ele>191.0</ele><time>2026-05-04T09:40:32.999Z</time></trkpt><trkpt lat="42.26590441313149" lon="20.026474531027485"><ele>190.5</ele><time>2026-05-04T09:40:33.999Z</time></trkpt><trkpt lat="42.26603622585114" lon="20.026491317489107"><ele>190.0</ele><time>2026-05-04T09:40:34.999Z</time></trkpt><trkpt lat="42.26617777327597" lon="20.02653006881761"><ele>189.5</ele><time>2026-05-04T09:40:35.999Z</time></trkpt><trkpt lat="42.266328271137084" lon="20.026560759764376"><ele>189.0</ele><time>2026-05-04T09:40:36.999Z</time></trkpt><trkpt lat="42.266489076555786" lon="20.026568308697136"><ele>189.0</ele><time>2026-05-04T09:40:37.999Z</time></trkpt><trkpt lat="42.26664924196919" lon="20.02654576804655"><ele>189.0</ele><time>2026-05-04T09:40:38.999Z</time></trkpt><trkpt lat="42.26680478008754" lon="20.026508670840148"><ele>189.0</ele><time>2026-05-04T09:40:39.999Z</time></trkpt><trkpt lat="42.266972210327694" lon="20.026490090625778"><ele>189.0</ele><time>2026-05-04T09:40:40.999Z</time></trkpt><trkpt lat="42.26715100122499" lon="20.026520746335713"><ele>189.0</ele><time>2026-05-04T09:40:41.999Z</time></trkpt><trkpt lat="42.267321273598384" lon="20.0265690552107"><ele>189.0</ele><time>2026-05-04T09:40:42.999Z</time></trkpt><trkpt lat="42.267487010314234" lon="20.026590962755147"><ele>191.66666666666669</ele><time>2026-05-04T09:40:43.999Z</time></trkpt><trkpt lat="42.26764669845715" lon="20.02656247137247"><ele>194.33333333333334</ele><time>2026-05-04T09:40:44.999Z</time></trkpt><trkpt lat="42.26779858085366" lon="20.026488670916184"><ele>197.0</ele><time>2026-05-04T09:40:45.999Z</time></trkpt><trkpt lat="42.26793938679543" lon="20.02637220680498"><ele>197.0</ele><time>2026-05-04T09:40:46.999Z</time></trkpt><trkpt lat="42.26808107106695" lon="20.02625067334534"><ele>197.0</ele><time>2026-05-04T09:40:47.999Z</time></trkpt><trkpt lat="42.26824257809229" lon="20.026175928510018"><ele>197.0</ele><time>2026-05-04T09:40:48.999Z</time></trkpt><trkpt lat="42.26842976293795" lon="20.026141195919916"><ele>198.33333333333334</ele><time>2026-05-04T09:40:49.999Z</time></trkpt><trkpt lat="42.26862826202067" lon="20.026133103231732"><ele>199.66666666666669</ele><time>2026-05-04T09:40:50.999Z</time></trkpt><trkpt lat="42.268828565636774" lon="20.02610286446672"><ele>201.0</ele><time>2026-05-04T09:40:51.999Z</time></trkpt><trkpt lat="42.26902480186456" lon="20.026025633256705"><ele>202.33333333333331</ele><time>2026-05-04T09:40:52.999Z</time></trkpt><trkpt lat="42.269215877424024" lon="20.02590998759133"><ele>203.66666666666666</ele><time>2026-05-04T09:40:53.999Z</time></trkpt><trkpt lat="42.269403919318165" lon="20.025759518153485"><ele>205.0</ele><time>2026-05-04T09:40:54.999Z</time></trkpt><trkpt lat="42.26958167619338" lon="20.02559292401814"><ele>203.0</ele><time>2026-05-04T09:40:55.999Z</time></trkpt><trkpt lat="42.26975516266865" lon="20.02542225649541"><ele>201.0</ele><time>2026-05-04T09:40:56.999Z</time></trkpt><trkpt lat="42.26993229832812" lon="20.025247318990022"><ele>199.0</ele><time>2026-05-04T09:40:57.999Z</time></trkpt><trkpt lat="42.27011699717807" lon="20.025076273184318"><ele>188.0</ele><time>2026-05-04T09:40:58.999Z</time></trkpt><trkpt lat="42.27031002048485" lon="20.024904105212862"><ele>177.0</ele><time>2026-05-04T09:40:59.999Z</time></trkpt><trkpt lat="42.270504565256424" lon="20.02473151210647"><ele>185.0</ele><time>2026-05-04T09:41:00.999Z</time></trkpt><trkpt lat="42.270697977605174" lon="20.024557238113655"><ele>193.0</ele><time>2026-05-04T09:41:01.999Z</time></trkpt><trkpt lat="42.27089070895978" lon="20.02437947500768"><ele>193.0</ele><time>2026-05-04T09:41:02.999Z</time></trkpt><trkpt lat="42.271077967368555" lon="20.024201369545448"><ele>193.0</ele><time>2026-05-04T09:41:03.999Z</time></trkpt><trkpt lat="42.271261891768816" lon="20.024014371686853"><ele>191.5</ele><time>2026-05-04T09:41:04.999Z</time></trkpt><trkpt lat="42.2714383242666" lon="20.023814985448475"><ele>190.0</ele><time>2026-05-04T09:41:05.999Z</time></trkpt><trkpt lat="42.27160213567379" lon="20.02360512580101"><ele>190.0</ele><time>2026-05-04T09:41:06.999Z</time></trkpt><trkpt lat="42.27175716255546" lon="20.023383563506528"><ele>190.0</ele><time>2026-05-04T09:41:08Z</time></trkpt><trkpt lat="42.271903866985916" lon="20.02316535822803"><ele>190.0</ele><time>2026-05-04T09:41:09Z</time></trkpt><trkpt lat="42.27204646670391" lon="20.022968581602875"><ele>192.66666666666669</ele><time>2026-05-04T09:41:10Z</time></trkpt><trkpt lat="42.27218571464438" lon="20.0228014003347"><ele>195.33333333333334</ele><time>2026-05-04T09:41:11Z</time></trkpt><trkpt lat="42.27232106414664" lon="20.022661264684135"><ele>198.0</ele><time>2026-05-04T09:41:12Z</time></trkpt><trkpt lat="42.272457179452566" lon="20.0225619889043"><ele>198.0</ele><time>2026-05-04T09:41:13Z</time></trkpt><trkpt lat="42.272593038088154" lon="20.022509655652094"><ele>198.0</ele><time>2026-05-04T09:41:14Z</time></trkpt><trkpt lat="42.27272541783349" lon="20.02251129927677"><ele>198.0</ele><time>2026-05-04T09:41:15Z</time></trkpt><trkpt lat="42.27285406085653" lon="20.02257165879921"><ele>198.0</ele><time>2026-05-04T09:41:16Z</time></trkpt><trkpt lat="42.2729810981869" lon="20.022684396171655"><ele>193.66666666666666</ele><time>2026-05-04T09:41:17Z</time></trkpt><trkpt lat="42.27310969081476" lon="20.022828454470936"><ele>189.33333333333331</ele><time>2026-05-04T09:41:18Z</time></trkpt><trkpt lat="42.27324041482315" lon="20.02298303092956"><ele>185.0</ele><time>2026-05-04T09:41:19Z</time></trkpt><trkpt lat="42.27338844357876" lon="20.023138448928083"><ele>185.0</ele><time>2026-05-04T09:41:20Z</time></trkpt><trkpt lat="42.27354567143689" lon="20.02328948025944"><ele>185.0</ele><time>2026-05-04T09:41:21Z</time></trkpt><trkpt lat="42.27370923480554" lon="20.023432421152084"><ele>185.0</ele><time>2026-05-04T09:41:22Z</time></trkpt><trkpt lat="42.27387440146464" lon="20.023570566778513"><ele>182.33333333333331</ele><time>2026-05-04T09:41:23Z</time></trkpt><trkpt lat="42.27402581638094" lon="20.023709771329685"><ele>179.66666666666666</ele><time>2026-05-04T09:41:24Z</time></trkpt><trkpt lat="42.27415270451483" lon="20.023862019049645"><ele>177.0</ele><time>2026-05-04T09:41:25Z</time></trkpt><trkpt lat="42.274260726877266" lon="20.02404589186135"><ele>182.66666666666669</ele><time>2026-05-04T09:41:26Z</time></trkpt><trkpt lat="42.27436061770543" lon="20.02425015064464"><ele>188.33333333333334</ele><time>2026-05-04T09:41:27Z</time></trkpt><trkpt lat="42.27446174628484" lon="20.02445629708196"><ele>194.0</ele><time>2026-05-04T09:41:28Z</time></trkpt><trkpt lat="42.27459124908374" lon="20.024634924654045"><ele>194.0</ele><time>2026-05-04T09:41:29Z</time></trkpt><trkpt lat="42.27474585533617" lon="20.024782101395363"><ele>194.0</ele><time>2026-05-04T09:41:30Z</time></trkpt><trkpt lat="42.274899350114815" lon="20.02491801854951"><ele>194.0</ele><time>2026-05-04T09:41:31Z</time></trkpt><trkpt lat="42.275043527135196" lon="20.02508423105134"><ele>189.66666666666669</ele><time>2026-05-04T09:41:32Z</time></trkpt><trkpt lat="42.275168541389604" lon="20.025285262757404"><ele>185.33333333333334</ele><time>2026-05-04T09:41:33Z</time></trkpt><trkpt lat="42.275282923884475" lon="20.025507038782315"><ele>181.0</ele><time>2026-05-04T09:41:34Z</time></trkpt><trkpt lat="42.27539740079427" lon="20.025737857294082"><ele>180.66666666666669</ele><time>2026-05-04T09:41:35Z</time></trkpt><trkpt lat="42.2755209650867" lon="20.0259747075772"><ele>180.33333333333334</ele><time>2026-05-04T09:41:36Z</time></trkpt><trkpt lat="42.27564479163381" lon="20.026206516400638"><ele>180.0</ele><time>2026-05-04T09:41:37Z</time></trkpt><trkpt lat="42.27577272681172" lon="20.02644650258597"><ele>185.0</ele><time>2026-05-04T09:41:38Z</time></trkpt><trkpt lat="42.27589297720209" lon="20.026678616182796"><ele>190.0</ele><time>2026-05-04T09:41:39Z</time></trkpt><trkpt lat="42.27601090343061" lon="20.026894771928504"><ele>195.0</ele><time>2026-05-04T09:41:40Z</time></trkpt><trkpt lat="42.276131199803025" lon="20.027088078580014"><ele>195.0</ele><time>2026-05-04T09:41:41Z</time></trkpt><trkpt lat="42.27625395722651" lon="20.027267288430323"><ele>195.0</ele><time>2026-05-04T09:41:42Z</time></trkpt><trkpt lat="42.27637198767082" lon="20.027435463259245"><ele>195.0</ele><time>2026-05-04T09:41:43Z</time></trkpt><trkpt lat="42.27649753132649" lon="20.027602086584096"><ele>190.33333333333334</ele><time>2026-05-04T09:41:44Z</time></trkpt><trkpt lat="42.27663377062825" lon="20.027754111662066"><ele>185.66666666666669</ele><time>2026-05-04T09:41:45Z</time></trkpt><trkpt lat="42.276793255426284" lon="20.02788181300288"><ele>181.0</ele><time>2026-05-04T09:41:46Z</time></trkpt><trkpt lat="42.276973248464515" lon="20.027988590719886"><ele>181.0</ele><time>2026-05-04T09:41:47Z</time></trkpt><trkpt lat="42.2771650489784" lon="20.028076379526844"><ele>181.0</ele><time>2026-05-04T09:41:48Z</time></trkpt><trkpt lat="42.277363112731834" lon="20.02815418478403"><ele>181.0</ele><time>2026-05-04T09:41:49Z</time></trkpt><trkpt lat="42.27755857449782" lon="20.028229192071887"><ele>180.0</ele><time>2026-05-04T09:41:50Z</time></trkpt><trkpt lat="42.27774984189502" lon="20.02830691138049"><ele>179.0</ele><time>2026-05-04T09:41:51Z</time></trkpt><trkpt lat="42.277940329802355" lon="20.028388487376827"><ele>178.0</ele><time>2026-05-04T09:41:52Z</time></trkpt><trkpt lat="42.2781354686979" lon="20.028481071207143"><ele>178.0</ele><time>2026-05-04T09:41:53Z</time></trkpt><trkpt lat="42.27832145973158" lon="20.028582659538074"><ele>178.0</ele><time>2026-05-04T09:41:54Z</time></trkpt><trkpt lat="42.27850851490456" lon="20.028684484821852"><ele>178.0</ele><time>2026-05-04T09:41:55Z</time></trkpt><trkpt lat="42.27869643782027" lon="20.028778615255767"><ele>178.0</ele><time>2026-05-04T09:41:56Z</time></trkpt><trkpt lat="42.27888250355759" lon="20.028863414297977"><ele>178.0</ele><time>2026-05-04T09:41:57Z</time></trkpt><trkpt lat="42.27905930063817" lon="20.02893890301156"><ele>178.0</ele><time>2026-05-04T09:41:58Z</time></trkpt><trkpt lat="42.27922850763566" lon="20.029000571401973"><ele>176.5</ele><time>2026-05-04T09:41:59Z</time></trkpt><trkpt lat="42.279384670576086" lon="20.029026658237385"><ele>175.0</ele><time>2026-05-04T09:42:00Z</time></trkpt><trkpt lat="42.27951120512706" lon="20.029005589943505"><ele>173.5</ele><time>2026-05-04T09:42:01Z</time></trkpt><trkpt lat="42.27962184113153" lon="20.028947150791375"><ele>172.0</ele><time>2026-05-04T09:42:02Z</time></trkpt><trkpt lat="42.27972700643212" lon="20.028864950799527"><ele>172.0</ele><time>2026-05-04T09:42:03Z</time></trkpt><trkpt lat="42.279821375862944" lon="20.028758677327936"><ele>172.0</ele><time>2026-05-04T09:42:04Z</time></trkpt><trkpt lat="42.279899136547826" lon="20.028617100306484"><ele>172.0</ele><time>2026-05-04T09:42:05Z</time></trkpt><trkpt lat="42.27995705074176" lon="20.028436395447013"><ele>172.0</ele><time>2026-05-04T09:42:06Z</time></trkpt><trkpt lat="42.27999278765343" lon="20.028217704246998"><ele>172.0</ele><time>2026-05-04T09:42:07Z</time></trkpt><trkpt lat="42.2800236435988" lon="20.028025173962156"><ele>172.0</ele><time>2026-05-04T09:42:08Z</time></trkpt><trkpt lat="42.28003658245035" lon="20.02782970531917"><ele>172.0</ele><time>2026-05-04T09:42:08.999Z</time></trkpt><trkpt lat="42.28004466985922" lon="20.027653496300278"><ele>172.0</ele><time>2026-05-04T09:42:09.999Z</time></trkpt><trkpt lat="42.280049543307264" lon="20.027528117248934"><ele>172.2857142857143</ele><time>2026-05-04T09:42:10.999Z</time></trkpt><trkpt lat="42.28005904717665" lon="20.027419628556565"><ele>172.57142857142858</ele><time>2026-05-04T09:42:11.999Z</time></trkpt><trkpt lat="42.28006695420437" lon="20.027313967493416"><ele>172.85714285714286</ele><time>2026-05-04T09:42:12.999Z</time></trkpt><trkpt lat="42.280074738913775" lon="20.027214357906843"><ele>173.14285714285717</ele><time>2026-05-04T09:42:13.999Z</time></trkpt><trkpt lat="42.2800833061017" lon="20.02712407638195"><ele>173.42857142857144</ele><time>2026-05-04T09:42:14.999Z</time></trkpt><trkpt lat="42.280090153305295" lon="20.02703512408916"><ele>173.71428571428572</ele><time>2026-05-04T09:42:15.999Z</time></trkpt><trkpt lat="42.2800923007712" lon="20.026948090121895"><ele>174.0</ele><time>2026-05-04T09:42:16.999Z</time></trkpt><trkpt lat="42.28009761237543" lon="20.026825713980244"><ele>174.0</ele><time>2026-05-04T09:42:18.999Z</time></trkpt><trkpt lat="42.28013377916378" lon="20.0267493247342"><ele>174.0</ele><time>2026-05-04T09:42:21.999Z</time></trkpt><trkpt lat="42.280201016663774" lon="20.026664808845506"><ele>174.0</ele><time>2026-05-04T09:42:41.999Z</time></trkpt><trkpt lat="42.28025338350101" lon="20.026602342921723"><ele>174.0</ele><time>2026-05-04T09:42:44.999Z</time></trkpt><trkpt lat="42.280300210765844" lon="20.026458104853493"><ele>174.0</ele><time>2026-05-04T09:46:21Z</time></trkpt><trkpt lat="42.280332959064815" lon="20.02630051106392"><ele>174.5</ele><time>2026-05-04T09:46:23Z</time></trkpt><trkpt lat="42.28035217208227" lon="20.026213953108385"><ele>175.0</ele><time>2026-05-04T09:46:25Z</time></trkpt><trkpt lat="42.28035275981726" lon="20.02612730301766"><ele>175.5</ele><time>2026-05-04T09:46:28Z</time></trkpt><trkpt lat="42.2803371776811" lon="20.02602179949283"><ele>176.0</ele><time>2026-05-04T09:46:30Z</time></trkpt><trkpt lat="42.28025541627098" lon="20.02597902284216"><ele>176.5</ele><time>2026-05-04T09:46:33Z</time></trkpt><trkpt lat="42.28017696641891" lon="20.025910275493917"><ele>177.0</ele><time>2026-05-04T09:46:35Z</time></trkpt><trkpt lat="42.28011503320858" lon="20.02585665414174"><ele>178.39999999999998</ele><time>2026-05-04T09:46:36Z</time></trkpt><trkpt lat="42.28005122855673" lon="20.02578992374471"><ele>179.79999999999998</ele><time>2026-05-04T09:46:37Z</time></trkpt><trkpt lat="42.27997616320117" lon="20.02571523196864"><ele>181.2</ele><time>2026-05-04T09:46:38Z</time></trkpt><trkpt lat="42.2798901520416" lon="20.02564793569544"><ele>182.6</ele><time>2026-05-04T09:46:39Z</time></trkpt><trkpt lat="42.2797925266166" lon="20.025592094389363"><ele>184.0</ele><time>2026-05-04T09:46:40Z</time></trkpt><trkpt lat="42.27970063717688" lon="20.025557929677603"><ele>184.0</ele><time>2026-05-04T09:46:41Z</time></trkpt><trkpt lat="42.279597053188326" lon="20.02553389141182"><ele>184.0</ele><time>2026-05-04T09:46:42Z</time></trkpt><trkpt lat="42.27949036669965" lon="20.025506713589795"><ele>184.0</ele><time>2026-05-04T09:46:43Z</time></trkpt><trkpt lat="42.279381905090766" lon="20.025479607555706"><ele>184.0</ele><time>2026-05-04T09:46:44Z</time></trkpt><trkpt lat="42.279273515550315" lon="20.025452379626216"><ele>184.0</ele><time>2026-05-04T09:46:45Z</time></trkpt><trkpt lat="42.27916277045646" lon="20.025421427212994"><ele>184.0</ele><time>2026-05-04T09:46:46Z</time></trkpt><trkpt lat="42.27904685644028" lon="20.025389218086897"><ele>184.0</ele><time>2026-05-04T09:46:47Z</time></trkpt><trkpt lat="42.27893204621458" lon="20.025354876858902"><ele>184.0</ele><time>2026-05-04T09:46:48Z</time></trkpt><trkpt lat="42.2788168518887" lon="20.025322727643708"><ele>184.0</ele><time>2026-05-04T09:46:49Z</time></trkpt><trkpt lat="42.278708150721386" lon="20.025292221329977"><ele>183.5</ele><time>2026-05-04T09:46:50Z</time></trkpt><trkpt lat="42.27859628804851" lon="20.025260388743174"><ele>183.0</ele><time>2026-05-04T09:46:51Z</time></trkpt><trkpt lat="42.27847925862916" lon="20.025223134072316"><ele>182.5</ele><time>2026-05-04T09:46:52Z</time></trkpt><trkpt lat="42.27835811938627" lon="20.02517666606047"><ele>182.0</ele><time>2026-05-04T09:46:53Z</time></trkpt><trkpt lat="42.27823540268457" lon="20.02512406458953"><ele>182.0</ele><time>2026-05-04T09:46:53.999Z</time></trkpt><trkpt lat="42.27810907947323" lon="20.025071080436426"><ele>182.0</ele><time>2026-05-04T09:46:54.999Z</time></trkpt><trkpt lat="42.277982412476426" lon="20.025015421243204"><ele>182.0</ele><time>2026-05-04T09:46:55.999Z</time></trkpt><trkpt lat="42.27785529960959" lon="20.024954027771958"><ele>182.0</ele><time>2026-05-04T09:46:56.999Z</time></trkpt><trkpt lat="42.27773652137837" lon="20.024890096152156"><ele>181.75</ele><time>2026-05-04T09:46:57.999Z</time></trkpt><trkpt lat="42.277613348051176" lon="20.02483476198642"><ele>181.5</ele><time>2026-05-04T09:46:58.999Z</time></trkpt><trkpt lat="42.27748757283005" lon="20.02478547386461"><ele>181.25</ele><time>2026-05-04T09:46:59.999Z</time></trkpt><trkpt lat="42.27736714108122" lon="20.024733318824122"><ele>181.0</ele><time>2026-05-04T09:47:00.999Z</time></trkpt><trkpt lat="42.27725197791168" lon="20.024669057497086"><ele>181.0</ele><time>2026-05-04T09:47:01.999Z</time></trkpt><trkpt lat="42.277143288715216" lon="20.024587887816143"><ele>181.0</ele><time>2026-05-04T09:47:02.999Z</time></trkpt><trkpt lat="42.27704091866696" lon="20.02448500590589"><ele>181.0</ele><time>2026-05-04T09:47:03.999Z</time></trkpt><trkpt lat="42.276940537741936" lon="20.024362154650714"><ele>181.0</ele><time>2026-05-04T09:47:04.999Z</time></trkpt><trkpt lat="42.27683187983525" lon="20.024230830050517"><ele>186.0</ele><time>2026-05-04T09:47:05.999Z</time></trkpt><trkpt lat="42.276722432430546" lon="20.02409684906938"><ele>191.0</ele><time>2026-05-04T09:47:06.999Z</time></trkpt><trkpt lat="42.2766156755268" lon="20.023954712009942"><ele>196.0</ele><time>2026-05-04T09:47:07.999Z</time></trkpt><trkpt lat="42.27650348513884" lon="20.023808737950063"><ele>192.33333333333331</ele><time>2026-05-04T09:47:08.999Z</time></trkpt><trkpt lat="42.27638719663616" lon="20.02366093545937"><ele>188.66666666666666</ele><time>2026-05-04T09:47:09.999Z</time></trkpt><trkpt lat="42.27626860317134" lon="20.0235078574694"><ele>185.0</ele><time>2026-05-04T09:47:10.999Z</time></trkpt><trkpt lat="42.27614542224565" lon="20.023361865014067"><ele>185.5</ele><time>2026-05-04T09:47:11.999Z</time></trkpt><trkpt lat="42.276019317259404" lon="20.02323567914364"><ele>186.0</ele><time>2026-05-04T09:47:12.999Z</time></trkpt><trkpt lat="42.27588686255143" lon="20.02314951333416"><ele>186.5</ele><time>2026-05-04T09:47:13.999Z</time></trkpt><trkpt lat="42.27574603223637" lon="20.023118805526494"><ele>187.0</ele><time>2026-05-04T09:47:14.999Z</time></trkpt><trkpt lat="42.27559958643527" lon="20.02313672152021"><ele>187.0</ele><time>2026-05-04T09:47:15.999Z</time></trkpt><trkpt lat="42.275454515722885" lon="20.023161496038057"><ele>187.0</ele><time>2026-05-04T09:47:16.999Z</time></trkpt><trkpt lat="42.275315869291205" lon="20.023161759106152"><ele>187.0</ele><time>2026-05-04T09:47:17.999Z</time></trkpt><trkpt lat="42.275202945434565" lon="20.023113696051134"><ele>187.0</ele><time>2026-05-04T09:47:18.999Z</time></trkpt><trkpt lat="42.275102107934046" lon="20.023015648363724"><ele>187.0</ele><time>2026-05-04T09:47:19.999Z</time></trkpt><trkpt lat="42.27499675301324" lon="20.022890035431036"><ele>187.0</ele><time>2026-05-04T09:47:20.999Z</time></trkpt><trkpt lat="42.27489597203322" lon="20.02274651460081"><ele>187.0</ele><time>2026-05-04T09:47:21.999Z</time></trkpt><trkpt lat="42.274778776488155" lon="20.022616299197452"><ele>187.0</ele><time>2026-05-04T09:47:22.999Z</time></trkpt><trkpt lat="42.27464226158361" lon="20.02250880425217"><ele>190.0</ele><time>2026-05-04T09:47:23.999Z</time></trkpt><trkpt lat="42.27449122551046" lon="20.022397978170506"><ele>193.0</ele><time>2026-05-04T09:47:24.999Z</time></trkpt><trkpt lat="42.274338216297345" lon="20.022250944131684"><ele>196.0</ele><time>2026-05-04T09:47:26Z</time></trkpt><trkpt lat="42.2741873575905" lon="20.022076613322945"><ele>196.0</ele><time>2026-05-04T09:47:27Z</time></trkpt><trkpt lat="42.274034425693316" lon="20.02189063717561"><ele>196.0</ele><time>2026-05-04T09:47:28Z</time></trkpt><trkpt lat="42.27386914663339" lon="20.02171564754703"><ele>196.0</ele><time>2026-05-04T09:47:29Z</time></trkpt><trkpt lat="42.27368750423613" lon="20.021563061292728"><ele>198.66666666666666</ele><time>2026-05-04T09:47:30Z</time></trkpt><trkpt lat="42.27349492233627" lon="20.021421233788153"><ele>201.33333333333331</ele><time>2026-05-04T09:47:31Z</time></trkpt><trkpt lat="42.273317072506146" lon="20.021281354611936"><ele>204.0</ele><time>2026-05-04T09:47:32Z</time></trkpt><trkpt lat="42.273169296688025" lon="20.021133706655768"><ele>205.66666666666669</ele><time>2026-05-04T09:47:33Z</time></trkpt><trkpt lat="42.27304466056655" lon="20.020971948904844"><ele>207.33333333333334</ele><time>2026-05-04T09:47:34Z</time></trkpt><trkpt lat="42.27292945942764" lon="20.02082524198789"><ele>209.0</ele><time>2026-05-04T09:47:35Z</time></trkpt><trkpt lat="42.272781886986586" lon="20.020724577949863"><ele>209.0</ele><time>2026-05-04T09:47:36Z</time></trkpt><trkpt lat="42.27260505880554" lon="20.020646568672618"><ele>209.0</ele><time>2026-05-04T09:47:37Z</time></trkpt><trkpt lat="42.27242035046102" lon="20.020583415214556"><ele>209.0</ele><time>2026-05-04T09:47:38Z</time></trkpt><trkpt lat="42.27222771787006" lon="20.020529406852198"><ele>207.0</ele><time>2026-05-04T09:47:39Z</time></trkpt><trkpt lat="42.27203163981548" lon="20.020491853896264"><ele>205.0</ele><time>2026-05-04T09:47:40Z</time></trkpt><trkpt lat="42.27182559207514" lon="20.02045264474944"><ele>203.0</ele><time>2026-05-04T09:47:41Z</time></trkpt><trkpt lat="42.27162540982161" lon="20.0204086025177"><ele>203.0</ele><time>2026-05-04T09:47:42Z</time></trkpt><trkpt lat="42.27144288653892" lon="20.020366383292824"><ele>203.0</ele><time>2026-05-04T09:47:43Z</time></trkpt><trkpt lat="42.27127375170462" lon="20.020343679906098"><ele>203.0</ele><time>2026-05-04T09:47:44Z</time></trkpt><trkpt lat="42.271129423973925" lon="20.02037014673696"><ele>203.66666666666669</ele><time>2026-05-04T09:47:45Z</time></trkpt><trkpt lat="42.2709882770552" lon="20.0204574244817"><ele>204.33333333333331</ele><time>2026-05-04T09:47:46Z</time></trkpt><trkpt lat="42.27083835297842" lon="20.020582372634227"><ele>205.0</ele><time>2026-05-04T09:47:46.999Z</time></trkpt><trkpt lat="42.27069468739249" lon="20.020748441862814"><ele>211.0</ele><time>2026-05-04T09:47:47.999Z</time></trkpt><trkpt lat="42.270572444575734" lon="20.020944650458752"><ele>217.0</ele><time>2026-05-04T09:47:48.999Z</time></trkpt><trkpt lat="42.27046663431893" lon="20.02116411133107"><ele>223.0</ele><time>2026-05-04T09:47:49.999Z</time></trkpt><trkpt lat="42.27036087421122" lon="20.021397581223482"><ele>223.0</ele><time>2026-05-04T09:47:50.999Z</time></trkpt><trkpt lat="42.270233075805756" lon="20.021608797193153"><ele>223.0</ele><time>2026-05-04T09:47:51.999Z</time></trkpt><trkpt lat="42.27008666707831" lon="20.021797516660495"><ele>223.0</ele><time>2026-05-04T09:47:52.999Z</time></trkpt><trkpt lat="42.26993206332343" lon="20.021963797084034"><ele>219.33333333333331</ele><time>2026-05-04T09:47:53.999Z</time></trkpt><trkpt lat="42.26977357639482" lon="20.022130232658682"><ele>215.66666666666669</ele><time>2026-05-04T09:47:54.999Z</time></trkpt><trkpt lat="42.26962213795178" lon="20.022284257784584"><ele>212.0</ele><time>2026-05-04T09:47:55.999Z</time></trkpt><trkpt lat="42.26947595276792" lon="20.02241239554621"><ele>203.33333333333334</ele><time>2026-05-04T09:47:56.999Z</time></trkpt><trkpt lat="42.26932179632587" lon="20.022497911662963"><ele>194.66666666666669</ele><time>2026-05-04T09:47:57.999Z</time></trkpt><trkpt lat="42.26916023242892" lon="20.022528039752142"><ele>186.0</ele><time>2026-05-04T09:47:58.999Z</time></trkpt><trkpt lat="42.26898924419776" lon="20.022513287663983"><ele>193.66666666666669</ele><time>2026-05-04T09:47:59.999Z</time></trkpt><trkpt lat="42.26881340259501" lon="20.02245693052557"><ele>201.33333333333334</ele><time>2026-05-04T09:48:00.999Z</time></trkpt><trkpt lat="42.26863570711504" lon="20.022380103217564"><ele>209.0</ele><time>2026-05-04T09:48:01.999Z</time></trkpt><trkpt lat="42.26845284178061" lon="20.022299189190722"><ele>209.0</ele><time>2026-05-04T09:48:02.999Z</time></trkpt><trkpt lat="42.2682706035672" lon="20.02222091248196"><ele>209.0</ele><time>2026-05-04T09:48:03.999Z</time></trkpt><trkpt lat="42.26808653446359" lon="20.022141185879693"><ele>209.0</ele><time>2026-05-04T09:48:04.999Z</time></trkpt><trkpt lat="42.26791197470899" lon="20.02206608359032"><ele>204.0</ele><time>2026-05-04T09:48:05.999Z</time></trkpt><trkpt lat="42.26775579002157" lon="20.021971173328563"><ele>199.0</ele><time>2026-05-04T09:48:06.999Z</time></trkpt><trkpt lat="42.26762106243697" lon="20.021822342356902"><ele>194.0</ele><time>2026-05-04T09:48:07.999Z</time></trkpt><trkpt lat="42.267515875984984" lon="20.02166195888126"><ele>192.33333333333334</ele><time>2026-05-04T09:48:08.999Z</time></trkpt><trkpt lat="42.26741710763742" lon="20.021534132697646"><ele>190.66666666666669</ele><time>2026-05-04T09:48:09.999Z</time></trkpt><trkpt lat="42.267275454311545" lon="20.02145006369304"><ele>189.0</ele><time>2026-05-04T09:48:10.999Z</time></trkpt><trkpt lat="42.26711680974289" lon="20.021395698095546"><ele>189.0</ele><time>2026-05-04T09:48:11.999Z</time></trkpt><trkpt lat="42.26698725566193" lon="20.021308073450697"><ele>189.0</ele><time>2026-05-04T09:48:12.999Z</time></trkpt><trkpt lat="42.26690097595282" lon="20.021180177194612"><ele>189.0</ele><time>2026-05-04T09:48:13.999Z</time></trkpt><trkpt lat="42.266830212360816" lon="20.02100161886136"><ele>189.0</ele><time>2026-05-04T09:48:14.999Z</time></trkpt><trkpt lat="42.266769317972894" lon="20.020796967027895"><ele>190.66666666666669</ele><time>2026-05-04T09:48:15.999Z</time></trkpt><trkpt lat="42.266720453316395" lon="20.020578501896715"><ele>192.33333333333334</ele><time>2026-05-04T09:48:16.999Z</time></trkpt><trkpt lat="42.26670387946093" lon="20.020348451362914"><ele>194.0</ele><time>2026-05-04T09:48:17.999Z</time></trkpt><trkpt lat="42.26672813029936" lon="20.02011315361806"><ele>193.33333333333334</ele><time>2026-05-04T09:48:18.999Z</time></trkpt><trkpt lat="42.26677864431551" lon="20.01988713710821"><ele>192.66666666666669</ele><time>2026-05-04T09:48:19.999Z</time></trkpt><trkpt lat="42.26681251430971" lon="20.019658298893702"><ele>192.0</ele><time>2026-05-04T09:48:20.999Z</time></trkpt><trkpt lat="42.26680564664484" lon="20.019422709905978"><ele>192.0</ele><time>2026-05-04T09:48:21.999Z</time></trkpt><trkpt lat="42.266795353973485" lon="20.019171106060814"><ele>192.0</ele><time>2026-05-04T09:48:22.999Z</time></trkpt><trkpt lat="42.26678605810206" lon="20.018928067388813"><ele>192.0</ele><time>2026-05-04T09:48:23.999Z</time></trkpt><trkpt lat="42.26677715443617" lon="20.018684926985937"><ele>190.33333333333334</ele><time>2026-05-04T09:48:24.999Z</time></trkpt><trkpt lat="42.26676051290026" lon="20.01844432671407"><ele>188.66666666666669</ele><time>2026-05-04T09:48:25.999Z</time></trkpt><trkpt lat="42.266731943207844" lon="20.018206752467645"><ele>187.0</ele><time>2026-05-04T09:48:26.999Z</time></trkpt><trkpt lat="42.26669153744138" lon="20.01797373955147"><ele>190.33333333333334</ele><time>2026-05-04T09:48:27.999Z</time></trkpt><trkpt lat="42.26664440637706" lon="20.01774279802813"><ele>193.66666666666669</ele><time>2026-05-04T09:48:28.999Z</time></trkpt><trkpt lat="42.26659370396913" lon="20.017509896620158"><ele>197.0</ele><time>2026-05-04T09:48:29.999Z</time></trkpt><trkpt lat="42.266542454115964" lon="20.017272975743147"><ele>197.33333333333334</ele><time>2026-05-04T09:48:30.999Z</time></trkpt><trkpt lat="42.2664922068004" lon="20.01703049671788"><ele>197.66666666666669</ele><time>2026-05-04T09:48:31.999Z</time></trkpt><trkpt lat="42.26644319346929" lon="20.016780751549824"><ele>198.0</ele><time>2026-05-04T09:48:32.999Z</time></trkpt><trkpt lat="42.26640634309184" lon="20.016529088954055"><ele>191.66666666666666</ele><time>2026-05-04T09:48:33.999Z</time></trkpt><trkpt lat="42.26636665969212" lon="20.01630830158073"><ele>185.33333333333331</ele><time>2026-05-04T09:48:34.999Z</time></trkpt><trkpt lat="42.266305531132026" lon="20.016116923569058"><ele>179.0</ele><time>2026-05-04T09:48:35.999Z</time></trkpt><trkpt lat="42.26622838648326" lon="20.015942919080377"><ele>178.0</ele><time>2026-05-04T09:48:36.999Z</time></trkpt><trkpt lat="42.26617015584333" lon="20.015754815909386"><ele>177.0</ele><time>2026-05-04T09:48:37.999Z</time></trkpt><trkpt lat="42.266145125241685" lon="20.015543022223746"><ele>176.0</ele><time>2026-05-04T09:48:38.999Z</time></trkpt><trkpt lat="42.26614485937268" lon="20.015320530434753"><ele>176.0</ele><time>2026-05-04T09:48:39.999Z</time></trkpt><trkpt lat="42.26614528292794" lon="20.01509224518166"><ele>176.0</ele><time>2026-05-04T09:48:40.999Z</time></trkpt><trkpt lat="42.266142753588184" lon="20.014856972564623"><ele>176.0</ele><time>2026-05-04T09:48:41.999Z</time></trkpt><trkpt lat="42.26614465436582" lon="20.014610940243617"><ele>177.33333333333331</ele><time>2026-05-04T09:48:42.999Z</time></trkpt><trkpt lat="42.26615288316362" lon="20.014352454012954"><ele>178.66666666666666</ele><time>2026-05-04T09:48:43.999Z</time></trkpt><trkpt lat="42.26616599979722" lon="20.014087841099048"><ele>180.0</ele><time>2026-05-04T09:48:44.999Z</time></trkpt><trkpt lat="42.26618031869524" lon="20.01382943290881"><ele>180.33333333333334</ele><time>2026-05-04T09:48:45.999Z</time></trkpt><trkpt lat="42.26619678404467" lon="20.013594255095914"><ele>180.66666666666669</ele><time>2026-05-04T09:48:46.999Z</time></trkpt><trkpt lat="42.26620089265662" lon="20.01337622010007"><ele>181.0</ele><time>2026-05-04T09:48:47.999Z</time></trkpt><trkpt lat="42.266177261978086" lon="20.01317156774508"><ele>185.0</ele><time>2026-05-04T09:48:48.999Z</time></trkpt><trkpt lat="42.26612271650681" lon="20.01298765724683"><ele>189.0</ele><time>2026-05-04T09:48:49.999Z</time></trkpt><trkpt lat="42.2660339953181" lon="20.012811710830864"><ele>193.0</ele><time>2026-05-04T09:48:50.999Z</time></trkpt><trkpt lat="42.265931106205976" lon="20.012637922567432"><ele>198.33333333333331</ele><time>2026-05-04T09:48:51.999Z</time></trkpt><trkpt lat="42.26583228913164" lon="20.01246274782668"><ele>203.66666666666669</ele><time>2026-05-04T09:48:52.999Z</time></trkpt><trkpt lat="42.26573899582683" lon="20.01228962590739"><ele>209.0</ele><time>2026-05-04T09:48:53.999Z</time></trkpt><trkpt lat="42.26564906750893" lon="20.012133209152008"><ele>204.6</ele><time>2026-05-04T09:48:54.999Z</time></trkpt><trkpt lat="42.26557160804888" lon="20.01199997345741"><ele>200.2</ele><time>2026-05-04T09:48:55.999Z</time></trkpt><trkpt lat="42.26551988072097" lon="20.01190744888362"><ele>195.79999999999998</ele><time>2026-05-04T09:48:56.999Z</time></trkpt><trkpt lat="42.26544367986572" lon="20.011803494721228"><ele>191.39999999999998</ele><time>2026-05-04T09:48:58.999Z</time></trkpt><trkpt lat="42.26535368096713" lon="20.011705836577224"><ele>187.0</ele><time>2026-05-04T09:49:00.999Z</time></trkpt><trkpt lat="42.26526142099546" lon="20.01157358710947"><ele>187.0</ele><time>2026-05-04T09:49:02.999Z</time></trkpt><trkpt lat="42.26521492477424" lon="20.01148540513547"><ele>187.0</ele><time>2026-05-04T09:49:03.999Z</time></trkpt><trkpt lat="42.2651608710854" lon="20.01137609781847"><ele>187.0</ele><time>2026-05-04T09:49:04.999Z</time></trkpt><trkpt lat="42.26510747978042" lon="20.011251917806263"><ele>187.0</ele><time>2026-05-04T09:49:05.999Z</time></trkpt><trkpt lat="42.26506134692133" lon="20.01112520374415"><ele>187.0</ele><time>2026-05-04T09:49:06.999Z</time></trkpt><trkpt lat="42.2650175230594" lon="20.010982969091305"><ele>188.0</ele><time>2026-05-04T09:49:07.999Z</time></trkpt><trkpt lat="42.264972203720504" lon="20.01082214445722"><ele>189.0</ele><time>2026-05-04T09:49:08.999Z</time></trkpt><trkpt lat="42.26492529320356" lon="20.010647001587774"><ele>190.0</ele><time>2026-05-04T09:49:09.999Z</time></trkpt><trkpt lat="42.26487573491387" lon="20.010464176819575"><ele>191.0</ele><time>2026-05-04T09:49:10.999Z</time></trkpt><trkpt lat="42.264829006304154" lon="20.010276978135913"><ele>191.0</ele><time>2026-05-04T09:49:11.999Z</time></trkpt><trkpt lat="42.26479025830739" lon="20.010104303877984"><ele>191.0</ele><time>2026-05-04T09:49:12.999Z</time></trkpt><trkpt lat="42.264746617862976" lon="20.00997370792578"><ele>191.0</ele><time>2026-05-04T09:49:13.999Z</time></trkpt><trkpt lat="42.264654670537645" lon="20.00988774805867"><ele>191.0</ele><time>2026-05-04T09:49:15.999Z</time></trkpt><trkpt lat="42.26458123937259" lon="20.009869525407073"><ele>191.0</ele><time>2026-05-04T09:49:17.999Z</time></trkpt><trkpt lat="42.26451424394673" lon="20.009862900184597"><ele>189.14285714285714</ele><time>2026-05-04T09:49:20.999Z</time></trkpt><trkpt lat="42.26444555025525" lon="20.009837267747674"><ele>187.28571428571428</ele><time>2026-05-04T09:49:23.999Z</time></trkpt><trkpt lat="42.26437244787101" lon="20.009816143744327"><ele>185.42857142857142</ele><time>2026-05-04T09:49:27.999Z</time></trkpt><trkpt lat="42.26430744340535" lon="20.00980269589041"><ele>183.57142857142856</ele><time>2026-05-04T09:49:54Z</time></trkpt><trkpt lat="42.26423265756304" lon="20.009763330959775"><ele>181.71428571428572</ele><time>2026-05-04T09:49:58Z</time></trkpt><trkpt lat="42.26415818046389" lon="20.009770979053755"><ele>179.85714285714283</ele><time>2026-05-04T09:56:20.999Z</time></trkpt><trkpt lat="42.26408265584831" lon="20.009783878728385"><ele>178.0</ele><time>2026-05-04T09:56:23.999Z</time></trkpt><trkpt lat="42.2640147899474" lon="20.009790189160917"><ele>178.0</ele><time>2026-05-04T09:56:30.999Z</time></trkpt><trkpt lat="42.263959185937615" lon="20.009833226454024"><ele>178.0</ele><time>2026-05-04T09:58:11Z</time></trkpt><trkpt lat="42.26390942840541" lon="20.00977553805756"><ele>178.0</ele><time>2026-05-04T10:00:09Z</time></trkpt><trkpt lat="42.26400653879333" lon="20.00975328282984"><ele>178.0</ele><time>2026-05-04T10:01:23Z</time></trkpt><trkpt lat="42.264115029288384" lon="20.009757225135555"><ele>178.0</ele><time>2026-05-04T10:01:36Z</time></trkpt><trkpt lat="42.26417861221261" lon="20.00977733780698"><ele>178.0</ele><time>2026-05-04T10:01:47Z</time></trkpt><trkpt lat="42.26423914398556" lon="20.009809589153537"><ele>177.99999999999997</ele><time>2026-05-04T10:01:56.999Z</time></trkpt><trkpt lat="42.264303688881924" lon="20.009845255499314"><ele>178.0</ele><time>2026-05-04T10:02:02.999Z</time></trkpt><trkpt lat="42.26437166212335" lon="20.00985212613009"><ele>178.0</ele><time>2026-05-04T10:02:10Z</time></trkpt><trkpt lat="42.2644237768108" lon="20.00990539108012"><ele>178.0</ele><time>2026-05-04T10:02:16Z</time></trkpt><trkpt lat="42.26446851361407" lon="20.009973501643636"><ele>178.0</ele><time>2026-05-04T10:02:23Z</time></trkpt><trkpt lat="42.26448879371464" lon="20.009876816586264"><ele>177.99999999999997</ele><time>2026-05-04T10:03:02.071Z</time></trkpt><trkpt lat="42.2644976464985" lon="20.009776765448077"><ele>178.0</ele><time>2026-05-04T10:03:04Z</time></trkpt><trkpt lat="42.264504362297835" lon="20.009882416835563"><ele>178.0</ele><time>2026-05-04T10:03:05Z</time></trkpt><trkpt lat="42.264473822223444" lon="20.009970133470073"><ele>178.0</ele><time>2026-05-04T10:11:16Z</time></trkpt><trkpt lat="42.26458590243913" lon="20.01001008676737"><ele>178.0</ele><time>2026-05-04T10:11:19Z</time></trkpt><trkpt lat="42.26470246380025" lon="20.01007533803147"><ele>178.0</ele><time>2026-05-04T10:11:21Z</time></trkpt><trkpt lat="42.26466525004811" lon="20.01000266734947"><ele>178.0</ele><time>2026-05-04T10:11:35Z</time></trkpt><trkpt lat="42.26457824679765" lon="20.01002185594306"><ele>178.0</ele><time>2026-05-04T10:11:37Z</time></trkpt><trkpt lat="42.26441132329685" lon="20.010037188707475"><ele>178.0</ele><time>2026-05-04T10:11:45Z</time></trkpt><trkpt lat="42.264357409244234" lon="20.00998531842148"><ele>178.0</ele><time>2026-05-04T10:11:48Z</time></trkpt><trkpt lat="42.26429234611709" lon="20.00996584121909"><ele>178.0</ele><time>2026-05-04T10:11:54Z</time></trkpt><trkpt lat="42.26421041017246" lon="20.009973950984623"><ele>178.0</ele><time>2026-05-04T10:12:02Z</time></trkpt><trkpt lat="42.26427814588131" lon="20.009994304281047"><ele>178.0</ele><time>2026-05-04T10:12:51.999Z</time></trkpt><trkpt lat="42.26443423899636" lon="20.00998517842574"><ele>178.0</ele><time>2026-05-04T10:13:48.999Z</time></trkpt><trkpt lat="42.26449938533948" lon="20.009995718023717"><ele>178.0</ele><time>2026-05-04T10:14:08.999Z</time></trkpt><trkpt lat="42.2645943866097" lon="20.009996550783974"><ele>178.0</ele><time>2026-05-04T10:14:21.999Z</time></trkpt><trkpt lat="42.26466558253593" lon="20.010000659105934"><ele>178.0</ele><time>2026-05-04T10:14:23.999Z</time></trkpt><trkpt lat="42.26460070475637" lon="20.009999805262414"><ele>176.5</ele><time>2026-05-04T10:14:27.999Z</time></trkpt><trkpt lat="42.264530172296304" lon="20.010001749021978"><ele>175.0</ele><time>2026-05-04T10:14:31.999Z</time></trkpt><trkpt lat="42.26446708696928" lon="20.010001442977792"><ele>173.5</ele><time>2026-05-04T10:14:36.999Z</time></trkpt><trkpt lat="42.26439035889444" lon="20.0100061915201"><ele>172.0</ele><time>2026-05-04T10:14:44Z</time></trkpt><trkpt lat="42.26431463188117" lon="20.010007722691864"><ele>170.5</ele><time>2026-05-04T10:14:49Z</time></trkpt><trkpt lat="42.26443009355978" lon="20.010006679904446"><ele>169.0</ele><time>2026-05-04T10:15:03Z</time></trkpt><trkpt lat="42.26435321488522" lon="20.009998381880404"><ele>169.0</ele><time>2026-05-04T10:16:54Z</time></trkpt><trkpt lat="42.26440460919245" lon="20.01005319597286"><ele>169.0</ele><time>2026-05-04T10:17:40Z</time></trkpt><trkpt lat="42.264385733925096" lon="20.010139934904995"><ele>169.0</ele><time>2026-05-04T10:17:52Z</time></trkpt><trkpt lat="42.26442704941774" lon="20.010063396867825"><ele>169.0</ele><time>2026-05-04T10:18:28Z</time></trkpt><trkpt lat="42.26453577834054" lon="20.010070397480856"><ele>169.0</ele><time>2026-05-04T10:29:29Z</time></trkpt><trkpt lat="42.26459442067266" lon="20.010174756713795"><ele>169.0</ele><time>2026-05-04T10:29:32Z</time></trkpt><trkpt lat="42.26464977936531" lon="20.01021814772735"><ele>169.0</ele><time>2026-05-04T10:29:34Z</time></trkpt><trkpt lat="42.264601707436235" lon="20.010160980244976"><ele>169.0</ele><time>2026-05-04T10:29:44Z</time></trkpt><trkpt lat="42.26446187749834" lon="20.009944162752245"><ele>169.0</ele><time>2026-05-04T10:29:46Z</time></trkpt><trkpt lat="42.2643979797952" lon="20.009824787792585"><ele>169.0</ele><time>2026-05-04T10:29:49Z</time></trkpt><trkpt lat="42.26448500098848" lon="20.010006098703617"><ele>169.0</ele><time>2026-05-04T10:31:26.999Z</time></trkpt><trkpt lat="42.26454832043368" lon="20.00997952874224"><ele>169.0</ele><time>2026-05-04T10:42:12Z</time></trkpt><trkpt lat="42.264469913481804" lon="20.009947497231874"><ele>169.0</ele><time>2026-05-04T10:42:35Z</time></trkpt><trkpt lat="42.26441291150857" lon="20.009874942552617"><ele>169.0</ele><time>2026-05-04T10:42:41Z</time></trkpt><trkpt lat="42.264437964753014" lon="20.009999132085245"><ele>169.0</ele><time>2026-05-04T10:42:48Z</time></trkpt><trkpt lat="42.264430359170206" lon="20.010095808410405"><ele>169.0</ele><time>2026-05-04T10:42:55Z</time></trkpt><trkpt lat="42.26447576068056" lon="20.010164902050043"><ele>169.0</ele><time>2026-05-04T10:43:00Z</time></trkpt><trkpt lat="42.26445888248627" lon="20.010082570039895"><ele>169.0</ele><time>2026-05-04T10:44:15Z</time></trkpt><trkpt lat="42.264475598109414" lon="20.00999548613296"><ele>169.0</ele><time>2026-05-04T10:44:24Z</time></trkpt><trkpt lat="42.264431460982735" lon="20.009920177996833"><ele>169.0</ele><time>2026-05-04T10:44:44Z</time></trkpt><trkpt lat="42.2644910706501" lon="20.00987173610813"><ele>169.0</ele><time>2026-05-04T10:44:47Z</time></trkpt><trkpt lat="42.26456402427281" lon="20.00988192025292"><ele>169.0</ele><time>2026-05-04T10:44:53Z</time></trkpt><trkpt lat="42.264549660046626" lon="20.00996973658104"><ele>169.0</ele><time>2026-05-04T10:44:58Z</time></trkpt><trkpt lat="42.264506301231314" lon="20.01005727928471"><ele>169.0</ele><time>2026-05-04T10:45:11Z</time></trkpt><trkpt lat="42.264423893363144" lon="20.009960768220687"><ele>169.0</ele><time>2026-05-04T10:45:16Z</time></trkpt><trkpt lat="42.2642866299266" lon="20.01003534973916"><ele>169.0</ele><time>2026-05-04T10:46:01.999Z</time></trkpt><trkpt lat="42.2641932976941" lon="20.010034872952918"><ele>169.0</ele><time>2026-05-04T10:46:04.999Z</time></trkpt><trkpt lat="42.26412678795361" lon="20.010005881023304"><ele>169.0</ele><time>2026-05-04T10:46:07.999Z</time></trkpt><trkpt lat="42.26404153915043" lon="20.009930838569172"><ele>169.0</ele><time>2026-05-04T10:46:10.999Z</time></trkpt><trkpt lat="42.26397752936448" lon="20.009876918777813"><ele>169.0</ele><time>2026-05-04T10:46:12.999Z</time></trkpt><trkpt lat="42.2639092106564" lon="20.009818056094772"><ele>169.0</ele><time>2026-05-04T10:46:14.999Z</time></trkpt><trkpt lat="42.26399192041102" lon="20.009822508253837"><ele>169.0</ele><time>2026-05-04T10:46:15.999Z</time></trkpt><trkpt lat="42.2646519939708" lon="20.010192645850665"><ele>169.0</ele><time>2026-05-04T10:46:17.999Z</time></trkpt><trkpt lat="42.26441438266861" lon="20.010031819862427"><ele>169.0</ele><time>2026-05-04T10:46:18.999Z</time></trkpt><trkpt lat="42.264361456203794" lon="20.009908023937065"><ele>169.0</ele><time>2026-05-04T10:47:26.999Z</time></trkpt><trkpt lat="42.26430160221877" lon="20.009861788056266"><ele>169.0</ele><time>2026-05-04T10:47:49.999Z</time></trkpt><trkpt lat="42.264241396718454" lon="20.00981188675696"><ele>169.71428571428572</ele><time>2026-05-04T10:47:59.999Z</time></trkpt><trkpt lat="42.264175188370146" lon="20.00979798418446"><ele>170.42857142857142</ele><time>2026-05-04T10:48:19Z</time></trkpt><trkpt lat="42.264111858512365" lon="20.00978574371636"><ele>171.14285714285714</ele><time>2026-05-04T10:48:28Z</time></trkpt><trkpt lat="42.264035711727104" lon="20.009792465513605"><ele>171.85714285714286</ele><time>2026-05-04T10:48:37Z</time></trkpt><trkpt lat="42.263968294644634" lon="20.009800207018333"><ele>172.57142857142858</ele><time>2026-05-04T10:48:46Z</time></trkpt><trkpt lat="42.26389560422085" lon="20.009831894249082"><ele>173.28571428571428</ele><time>2026-05-04T10:49:41.999Z</time></trkpt><trkpt lat="42.26387679851389" lon="20.00974740799451"><ele>174.0</ele><time>2026-05-04T10:55:36.999Z</time></trkpt><trkpt lat="42.26380907561762" lon="20.009721382555647"><ele>174.0</ele><time>2026-05-04T10:55:44.999Z</time></trkpt><trkpt lat="42.26373926902716" lon="20.009696222425134"><ele>174.0</ele><time>2026-05-04T10:55:50.999Z</time></trkpt><trkpt lat="42.26366964366624" lon="20.009679858691236"><ele>174.0</ele><time>2026-05-04T10:55:55.999Z</time></trkpt><trkpt lat="42.26359723714282" lon="20.009666225007965"><ele>174.0</ele><time>2026-05-04T10:56:00.999Z</time></trkpt><trkpt lat="42.26352818195177" lon="20.0096608470667"><ele>174.0</ele><time>2026-05-04T10:56:05.999Z</time></trkpt><trkpt lat="42.26346059535236" lon="20.00965474948968"><ele>174.0</ele><time>2026-05-04T10:56:12.999Z</time></trkpt><trkpt lat="42.263473646392065" lon="20.00956889592277"><ele>174.0</ele><time>2026-05-04T10:56:29.999Z</time></trkpt><trkpt lat="42.26348575274428" lon="20.009453494863813"><ele>174.0</ele><time>2026-05-04T10:56:34.999Z</time></trkpt><trkpt lat="42.26349476182308" lon="20.009342071405204"><ele>174.0</ele><time>2026-05-04T10:56:38.999Z</time></trkpt><trkpt lat="42.263495531088594" lon="20.009247048026257"><ele>174.0</ele><time>2026-05-04T10:56:41.998Z</time></trkpt><trkpt lat="42.26349969710144" lon="20.009139350439952"><ele>174.0</ele><time>2026-05-04T10:56:44.998Z</time></trkpt><trkpt lat="42.26350315833169" lon="20.00902537874758"><ele>174.0</ele><time>2026-05-04T10:56:47.998Z</time></trkpt><trkpt lat="42.26350285761638" lon="20.008908502723113"><ele>174.0</ele><time>2026-05-04T10:56:50.998Z</time></trkpt><trkpt lat="42.2635023871238" lon="20.00878874722499"><ele>175.42857142857142</ele><time>2026-05-04T10:56:53.998Z</time></trkpt><trkpt lat="42.26350266958778" lon="20.00869252206868"><ele>176.85714285714286</ele><time>2026-05-04T10:56:55.998Z</time></trkpt><trkpt lat="42.26350114913808" lon="20.008581372075806"><ele>178.28571428571428</ele><time>2026-05-04T10:56:58.998Z</time></trkpt><trkpt lat="42.26349995086572" lon="20.00849552467466"><ele>179.71428571428572</ele><time>2026-05-04T10:57:00.998Z</time></trkpt><trkpt lat="42.26349506239442" lon="20.008367454346473"><ele>181.14285714285714</ele><time>2026-05-04T10:57:03.998Z</time></trkpt><trkpt lat="42.26349429674573" lon="20.00827849520071"><ele>182.57142857142858</ele><time>2026-05-04T10:57:05.998Z</time></trkpt><trkpt lat="42.263493542960305" lon="20.008188516045063"><ele>184.0</ele><time>2026-05-04T10:57:07.999Z</time></trkpt><trkpt lat="42.2634905022537" lon="20.0080963639887"><ele>184.0</ele><time>2026-05-04T10:57:09.999Z</time></trkpt><trkpt lat="42.263484429250305" lon="20.007999692148687"><ele>184.0</ele><time>2026-05-04T10:57:11.999Z</time></trkpt><trkpt lat="42.26348240397806" lon="20.00791001341251"><ele>184.0</ele><time>2026-05-04T10:57:13.999Z</time></trkpt><trkpt lat="42.26347819977861" lon="20.007815931633967"><ele>184.0</ele><time>2026-05-04T10:57:15.999Z</time></trkpt><trkpt lat="42.26347732611943" lon="20.007721750564286"><ele>184.0</ele><time>2026-05-04T10:57:17.999Z</time></trkpt><trkpt lat="42.263479048115144" lon="20.00762287461395"><ele>184.0</ele><time>2026-05-04T10:57:19.999Z</time></trkpt><trkpt lat="42.26347599294115" lon="20.00753119429951"><ele>184.0</ele><time>2026-05-04T10:57:21.999Z</time></trkpt><trkpt lat="42.26346959585682" lon="20.00743249430018"><ele>182.85714285714286</ele><time>2026-05-04T10:57:23.999Z</time></trkpt><trkpt lat="42.26346496730981" lon="20.007337745343392"><ele>181.7142857142857</ele><time>2026-05-04T10:57:25.999Z</time></trkpt><trkpt lat="42.26345944880438" lon="20.00724085118697"><ele>180.57142857142856</ele><time>2026-05-04T10:57:27.999Z</time></trkpt><trkpt lat="42.263453371280036" lon="20.007139706136453"><ele>179.42857142857144</ele><time>2026-05-04T10:57:29.999Z</time></trkpt><trkpt lat="42.263447209850774" lon="20.007048089903478"><ele>178.28571428571428</ele><time>2026-05-04T10:57:31.999Z</time></trkpt><trkpt lat="42.26344566868635" lon="20.00695670620482"><ele>177.14285714285714</ele><time>2026-05-04T10:57:33.999Z</time></trkpt><trkpt lat="42.263443185473356" lon="20.006860238184824"><ele>176.0</ele><time>2026-05-04T10:57:35.999Z</time></trkpt><trkpt lat="42.26343923274097" lon="20.00676062254438"><ele>176.0</ele><time>2026-05-04T10:57:37.999Z</time></trkpt><trkpt lat="42.26343423246564" lon="20.00666223982933"><ele>176.0</ele><time>2026-05-04T10:57:39.999Z</time></trkpt><trkpt lat="42.26342797212774" lon="20.0065656099242"><ele>176.0</ele><time>2026-05-04T10:57:41.999Z</time></trkpt><trkpt lat="42.26341831764093" lon="20.006469012930047"><ele>176.0</ele><time>2026-05-04T10:57:43.999Z</time></trkpt><trkpt lat="42.263410203596145" lon="20.006373104625087"><ele>176.0</ele><time>2026-05-04T10:57:45.999Z</time></trkpt><trkpt lat="42.26340313678097" lon="20.006276431981572"><ele>176.0</ele><time>2026-05-04T10:57:47.999Z</time></trkpt><trkpt lat="42.2633966859832" lon="20.006180142554204"><ele>176.0</ele><time>2026-05-04T10:57:49.999Z</time></trkpt><trkpt lat="42.263390474876786" lon="20.00608276506924"><ele>176.14285714285714</ele><time>2026-05-04T10:57:51.999Z</time></trkpt><trkpt lat="42.263383981365635" lon="20.005985608917133"><ele>176.28571428571428</ele><time>2026-05-04T10:57:53.999Z</time></trkpt><trkpt lat="42.263376888525094" lon="20.005887974003564"><ele>176.42857142857144</ele><time>2026-05-04T10:57:55.999Z</time></trkpt><trkpt lat="42.26337462953038" lon="20.005787428303453"><ele>176.57142857142856</ele><time>2026-05-04T10:57:57.999Z</time></trkpt><trkpt lat="42.26336736717796" lon="20.005693485125942"><ele>176.7142857142857</ele><time>2026-05-04T10:57:59.999Z</time></trkpt><trkpt lat="42.26336433852624" lon="20.005596943387328"><ele>176.85714285714286</ele><time>2026-05-04T10:58:01.999Z</time></trkpt><trkpt lat="42.2633591377185" lon="20.005499908805064"><ele>177.0</ele><time>2026-05-04T10:58:03.999Z</time></trkpt><trkpt lat="42.26335578341533" lon="20.005402257755858"><ele>177.14285714285714</ele><time>2026-05-04T10:58:05.999Z</time></trkpt><trkpt lat="42.2633526000764" lon="20.00530557848831"><ele>177.28571428571428</ele><time>2026-05-04T10:58:07.999Z</time></trkpt><trkpt lat="42.26334832218519" lon="20.00520847853752"><ele>177.42857142857142</ele><time>2026-05-04T10:58:09.999Z</time></trkpt><trkpt lat="42.26334459083847" lon="20.00511229977853"><ele>177.57142857142856</ele><time>2026-05-04T10:58:11.999Z</time></trkpt><trkpt lat="42.26334012426757" lon="20.00501620304772"><ele>177.71428571428572</ele><time>2026-05-04T10:58:13.999Z</time></trkpt><trkpt lat="42.26333515304687" lon="20.00492117874094"><ele>177.85714285714283</ele><time>2026-05-04T10:58:15.999Z</time></trkpt><trkpt lat="42.263330279041284" lon="20.004826195994134"><ele>178.0</ele><time>2026-05-04T10:58:17.999Z</time></trkpt><trkpt lat="42.263324885014825" lon="20.004731068089672"><ele>177.99999999999997</ele><time>2026-05-04T10:58:19.999Z</time></trkpt><trkpt lat="42.26331862061708" lon="20.004635948841887"><ele>178.0</ele><time>2026-05-04T10:58:21.999Z</time></trkpt><trkpt lat="42.263311353175865" lon="20.00454072794671"><ele>178.0</ele><time>2026-05-04T10:58:23.999Z</time></trkpt><trkpt lat="42.263302478092015" lon="20.00444448804076"><ele>178.0</ele><time>2026-05-04T10:58:25.999Z</time></trkpt><trkpt lat="42.26329384934768" lon="20.004349095242947"><ele>178.0</ele><time>2026-05-04T10:58:27.999Z</time></trkpt><trkpt lat="42.26328313279461" lon="20.004253768150736"><ele>177.99999999999997</ele><time>2026-05-04T10:58:29.999Z</time></trkpt><trkpt lat="42.26327199371863" lon="20.00415834980726"><ele>178.0</ele><time>2026-05-04T10:58:31.999Z</time></trkpt><trkpt lat="42.26325986190588" lon="20.004064178873147"><ele>177.28571428571428</ele><time>2026-05-04T10:58:33.999Z</time></trkpt><trkpt lat="42.263247215204586" lon="20.003969810744554"><ele>176.57142857142856</ele><time>2026-05-04T10:58:35.999Z</time></trkpt><trkpt lat="42.26323372954344" lon="20.00387456022741"><ele>175.85714285714283</ele><time>2026-05-04T10:58:37.999Z</time></trkpt><trkpt lat="42.26321990471323" lon="20.003779116000196"><ele>175.14285714285714</ele><time>2026-05-04T10:58:39.999Z</time></trkpt><trkpt lat="42.2632047119514" lon="20.00368536183199"><ele>174.42857142857144</ele><time>2026-05-04T10:58:41.999Z</time></trkpt><trkpt lat="42.263188488570215" lon="20.00359237400491"><ele>173.7142857142857</ele><time>2026-05-04T10:58:43.999Z</time></trkpt><trkpt lat="42.263171653666205" lon="20.003499225861606"><ele>173.0</ele><time>2026-05-04T10:58:45.999Z</time></trkpt><trkpt lat="42.26315395210651" lon="20.003407755481714"><ele>171.7142857142857</ele><time>2026-05-04T10:58:47.997Z</time></trkpt><trkpt lat="42.263135060471775" lon="20.0033138333399"><ele>170.42857142857144</ele><time>2026-05-04T10:58:49.997Z</time></trkpt><trkpt lat="42.26311621117283" lon="20.003220298201644"><ele>169.14285714285714</ele><time>2026-05-04T10:58:51.997Z</time></trkpt><trkpt lat="42.26309594928285" lon="20.00312656033698"><ele>167.85714285714283</ele><time>2026-05-04T10:58:53.997Z</time></trkpt><trkpt lat="42.26307596124669" lon="20.00303287453367"><ele>166.57142857142856</ele><time>2026-05-04T10:58:55.997Z</time></trkpt><trkpt lat="42.263054290521694" lon="20.002940537021107"><ele>165.28571428571428</ele><time>2026-05-04T10:58:57.997Z</time></trkpt><trkpt lat="42.263033295463615" lon="20.002848091286232"><ele>164.0</ele><time>2026-05-04T10:58:59.998Z</time></trkpt><trkpt lat="42.2630122766255" lon="20.002755228955298"><ele>166.57142857142856</ele><time>2026-05-04T10:59:01.998Z</time></trkpt><trkpt lat="42.262990800724474" lon="20.002662295294254"><ele>169.14285714285714</ele><time>2026-05-04T10:59:03.998Z</time></trkpt><trkpt lat="42.26296896440296" lon="20.00256945797362"><ele>171.71428571428572</ele><time>2026-05-04T10:59:05.998Z</time></trkpt><trkpt lat="42.26294731630247" lon="20.002476864586733"><ele>174.28571428571428</ele><time>2026-05-04T10:59:07.998Z</time></trkpt><trkpt lat="42.26292495197309" lon="20.002384760762883"><ele>176.85714285714286</ele><time>2026-05-04T10:59:09.998Z</time></trkpt><trkpt lat="42.26290226718899" lon="20.002293727841597"><ele>179.42857142857142</ele><time>2026-05-04T10:59:11.998Z</time></trkpt><trkpt lat="42.2628797167113" lon="20.002201308569564"><ele>182.0</ele><time>2026-05-04T10:59:13.998Z</time></trkpt><trkpt lat="42.26285636282293" lon="20.002111018956743"><ele>182.0</ele><time>2026-05-04T10:59:15.998Z</time></trkpt><trkpt lat="42.26283046940814" lon="20.002021488763887"><ele>182.0</ele><time>2026-05-04T10:59:17.998Z</time></trkpt><trkpt lat="42.26280737157825" lon="20.00193173168054"><ele>182.0</ele><time>2026-05-04T10:59:19.998Z</time></trkpt><trkpt lat="42.2627835903439" lon="20.001841723511067"><ele>182.0</ele><time>2026-05-04T10:59:21.999Z</time></trkpt><trkpt lat="42.26275819180572" lon="20.001751398042135"><ele>182.0</ele><time>2026-05-04T10:59:23.999Z</time></trkpt><trkpt lat="42.26273305780548" lon="20.001661648260153"><ele>182.0</ele><time>2026-05-04T10:59:25.999Z</time></trkpt><trkpt lat="42.262707288419776" lon="20.001571304802457"><ele>182.0</ele><time>2026-05-04T10:59:27.999Z</time></trkpt><trkpt lat="42.26268257811044" lon="20.001481103881364"><ele>182.0</ele><time>2026-05-04T10:59:29.999Z</time></trkpt><trkpt lat="42.26265837505432" lon="20.001390745764475"><ele>182.0</ele><time>2026-05-04T10:59:31.999Z</time></trkpt><trkpt lat="42.262632978599726" lon="20.001299861155694"><ele>182.0</ele><time>2026-05-04T10:59:33.999Z</time></trkpt><trkpt lat="42.26260795677089" lon="20.001209795789343"><ele>182.0</ele><time>2026-05-04T10:59:35.999Z</time></trkpt><trkpt lat="42.262584452296736" lon="20.001119119775613"><ele>182.0</ele><time>2026-05-04T10:59:37.999Z</time></trkpt><trkpt lat="42.262561541810705" lon="20.00102965678425"><ele>182.0</ele><time>2026-05-04T10:59:39.999Z</time></trkpt><trkpt lat="42.26253651430225" lon="20.000938637107733"><ele>182.0</ele><time>2026-05-04T10:59:41.999Z</time></trkpt><trkpt lat="42.262512376400814" lon="20.00084805013758"><ele>181.14285714285714</ele><time>2026-05-04T10:59:43.999Z</time></trkpt><trkpt lat="42.262487380343316" lon="20.000757154975958"><ele>180.28571428571428</ele><time>2026-05-04T10:59:45.999Z</time></trkpt><trkpt lat="42.262462560605634" lon="20.000664178231915"><ele>179.42857142857144</ele><time>2026-05-04T10:59:47.999Z</time></trkpt><trkpt lat="42.2624373485486" lon="20.00057174819723"><ele>178.57142857142856</ele><time>2026-05-04T10:59:49.999Z</time></trkpt><trkpt lat="42.26241265436539" lon="20.000479797769742"><ele>177.71428571428572</ele><time>2026-05-04T10:59:51.999Z</time></trkpt><trkpt lat="42.262388830096896" lon="20.000387319691242"><ele>176.85714285714286</ele><time>2026-05-04T10:59:53.999Z</time></trkpt><trkpt lat="42.26236517496896" lon="20.000294810438426"><ele>176.0</ele><time>2026-05-04T10:59:55.999Z</time></trkpt><trkpt lat="42.262342707928624" lon="20.000202139195864"><ele>176.0</ele><time>2026-05-04T10:59:57.999Z</time></trkpt><trkpt lat="42.262320911751935" lon="20.000108197203083"><ele>176.0</ele><time>2026-05-04T10:59:59.999Z</time></trkpt><trkpt lat="42.26230052262602" lon="20.000013962008385"><ele>176.0</ele><time>2026-05-04T11:00:01.999Z</time></trkpt><trkpt lat="42.26228107978965" lon="19.999918706117338"><ele>176.0</ele><time>2026-05-04T11:00:03.999Z</time></trkpt><trkpt lat="42.26226241974878" lon="19.999823224925755"><ele>176.0</ele><time>2026-05-04T11:00:05.999Z</time></trkpt><trkpt lat="42.26224419933434" lon="19.999727373191366"><ele>176.0</ele><time>2026-05-04T11:00:07.999Z</time></trkpt><trkpt lat="42.262227988782826" lon="19.999631414596482"><ele>176.0</ele><time>2026-05-04T11:00:09.999Z</time></trkpt><trkpt lat="42.26221301643465" lon="19.999535808031123"><ele>175.42857142857144</ele><time>2026-05-04T11:00:11.999Z</time></trkpt><trkpt lat="42.26219979424853" lon="19.999438237062805"><ele>174.85714285714286</ele><time>2026-05-04T11:00:13.999Z</time></trkpt><trkpt lat="42.2621882157539" lon="19.999341176940554"><ele>174.28571428571428</ele><time>2026-05-04T11:00:15.999Z</time></trkpt><trkpt lat="42.262177746265046" lon="19.999243706436825"><ele>173.71428571428572</ele><time>2026-05-04T11:00:17.999Z</time></trkpt><trkpt lat="42.262167428441415" lon="19.9991459763971"><ele>173.14285714285714</ele><time>2026-05-04T11:00:19.999Z</time></trkpt><trkpt lat="42.26215711324755" lon="19.99904808271542"><ele>172.57142857142858</ele><time>2026-05-04T11:00:21.999Z</time></trkpt><trkpt lat="42.26214987137928" lon="19.99894894850629"><ele>172.0</ele><time>2026-05-04T11:00:23.999Z</time></trkpt><trkpt lat="42.26214097053498" lon="19.99885133017838"><ele>172.00000000000003</ele><time>2026-05-04T11:00:25.999Z</time></trkpt><trkpt lat="42.2621339535443" lon="19.99875316306512"><ele>172.0</ele><time>2026-05-04T11:00:27.999Z</time></trkpt><trkpt lat="42.26212636785" lon="19.998654066332765"><ele>172.0</ele><time>2026-05-04T11:00:29.999Z</time></trkpt><trkpt lat="42.26211930216614" lon="19.99855581957989"><ele>172.0</ele><time>2026-05-04T11:00:31.999Z</time></trkpt><trkpt lat="42.26211197563091" lon="19.998457125579748"><ele>172.0</ele><time>2026-05-04T11:00:33.999Z</time></trkpt><trkpt lat="42.262106037902036" lon="19.998358859220016"><ele>172.00000000000003</ele><time>2026-05-04T11:00:35.999Z</time></trkpt><trkpt lat="42.26210058233258" lon="19.998262471975124"><ele>172.0</ele><time>2026-05-04T11:00:37.999Z</time></trkpt><trkpt lat="42.26209701107071" lon="19.998165048827907"><ele>171.85714285714286</ele><time>2026-05-04T11:00:39.999Z</time></trkpt><trkpt lat="42.26209265818264" lon="19.99806833083781"><ele>171.71428571428572</ele><time>2026-05-04T11:00:41.999Z</time></trkpt><trkpt lat="42.26208814315696" lon="19.997970607309423"><ele>171.57142857142856</ele><time>2026-05-04T11:00:43.999Z</time></trkpt><trkpt lat="42.262085434873114" lon="19.99787443709868"><ele>171.42857142857144</ele><time>2026-05-04T11:00:45.999Z</time></trkpt><trkpt lat="42.26208243318543" lon="19.997777556008465"><ele>171.28571428571428</ele><time>2026-05-04T11:00:47.999Z</time></trkpt><trkpt lat="42.26207905983186" lon="19.997678979467427"><ele>171.14285714285714</ele><time>2026-05-04T11:00:49.999Z</time></trkpt><trkpt lat="42.262076702554815" lon="19.997581447109667"><ele>171.0</ele><time>2026-05-04T11:00:51.999Z</time></trkpt><trkpt lat="42.2620738589941" lon="19.997483313237932"><ele>170.99999999999997</ele><time>2026-05-04T11:00:53.999Z</time></trkpt><trkpt lat="42.262072112670104" lon="19.99738607813071"><ele>171.0</ele><time>2026-05-04T11:00:55.999Z</time></trkpt><trkpt lat="42.26206988460579" lon="19.997287932851098"><ele>171.0</ele><time>2026-05-04T11:00:57.999Z</time></trkpt><trkpt lat="42.26206966234548" lon="19.99719151644358"><ele>171.0</ele><time>2026-05-04T11:00:59.999Z</time></trkpt><trkpt lat="42.26206993537623" lon="19.997094079065114"><ele>171.0</ele><time>2026-05-04T11:01:01.999Z</time></trkpt><trkpt lat="42.26206981207416" lon="19.99699687552201"><ele>170.99999999999997</ele><time>2026-05-04T11:01:03.999Z</time></trkpt><trkpt lat="42.26207143307277" lon="19.996900642641023"><ele>171.0</ele><time>2026-05-04T11:01:05.999Z</time></trkpt><trkpt lat="42.26207265543771" lon="19.996803013193418"><ele>170.99999999999997</ele><time>2026-05-04T11:01:07.999Z</time></trkpt><trkpt lat="42.26207430409114" lon="19.99670527439704"><ele>171.0</ele><time>2026-05-04T11:01:09.999Z</time></trkpt><trkpt lat="42.26207708048696" lon="19.99660730805794"><ele>171.0</ele><time>2026-05-04T11:01:11.999Z</time></trkpt><trkpt lat="42.262080647117195" lon="19.996509028555387"><ele>171.0</ele><time>2026-05-04T11:01:13.999Z</time></trkpt><trkpt lat="42.262085127360365" lon="19.996411047506815"><ele>171.0</ele><time>2026-05-04T11:01:15.999Z</time></trkpt><trkpt lat="42.262090129183804" lon="19.996312629160116"><ele>170.99999999999997</ele><time>2026-05-04T11:01:18Z</time></trkpt><trkpt lat="42.262095857238805" lon="19.99621397159282"><ele>171.0</ele><time>2026-05-04T11:01:20Z</time></trkpt><trkpt lat="42.262101268397224" lon="19.99611492183886"><ele>170.85714285714283</ele><time>2026-05-04T11:01:22Z</time></trkpt><trkpt lat="42.26210670076311" lon="19.99601717088271"><ele>170.71428571428572</ele><time>2026-05-04T11:01:24Z</time></trkpt><trkpt lat="42.26211189705066" lon="19.99591998574544"><ele>170.57142857142856</ele><time>2026-05-04T11:01:26Z</time></trkpt><trkpt lat="42.26211615771108" lon="19.995822424417153"><ele>170.42857142857142</ele><time>2026-05-04T11:01:28Z</time></trkpt><trkpt lat="42.26212032055546" lon="19.99572435603549"><ele>170.28571428571428</ele><time>2026-05-04T11:01:30Z</time></trkpt><trkpt lat="42.26212507439112" lon="19.995627672082453"><ele>170.14285714285714</ele><time>2026-05-04T11:01:32Z</time></trkpt><trkpt lat="42.262130068655416" lon="19.995530358621785"><ele>170.0</ele><time>2026-05-04T11:01:34Z</time></trkpt><trkpt lat="42.262133824984595" lon="19.99543312893755"><ele>170.0</ele><time>2026-05-04T11:01:36Z</time></trkpt><trkpt lat="42.2621367638163" lon="19.995335330477275"><ele>170.0</ele><time>2026-05-04T11:01:38Z</time></trkpt><trkpt lat="42.2621402401565" lon="19.99523778743697"><ele>170.0</ele><time>2026-05-04T11:01:40Z</time></trkpt><trkpt lat="42.26214364796223" lon="19.99514031110604"><ele>170.0</ele><time>2026-05-04T11:01:42Z</time></trkpt><trkpt lat="42.262146047939886" lon="19.995042825923388"><ele>170.0</ele><time>2026-05-04T11:01:44Z</time></trkpt><trkpt lat="42.26214878888568" lon="19.99494563367234"><ele>170.0</ele><time>2026-05-04T11:01:46Z</time></trkpt><trkpt lat="42.26215483040089" lon="19.99470129518967"><ele>169.71428571428572</ele><time>2026-05-04T11:01:51Z</time></trkpt><trkpt lat="42.26215756598444" lon="19.994603057904804"><ele>169.42857142857142</ele><time>2026-05-04T11:01:53Z</time></trkpt><trkpt lat="42.26215930375556" lon="19.994505271152736"><ele>169.14285714285714</ele><time>2026-05-04T11:01:55Z</time></trkpt><trkpt lat="42.2621615424866" lon="19.994407882525827"><ele>168.85714285714286</ele><time>2026-05-04T11:01:57Z</time></trkpt><trkpt lat="42.26216280902902" lon="19.994310478009936"><ele>168.57142857142856</ele><time>2026-05-04T11:01:59Z</time></trkpt><trkpt lat="42.26216289993327" lon="19.994213355896722"><ele>168.28571428571428</ele><time>2026-05-04T11:02:01Z</time></trkpt><trkpt lat="42.262161934862874" lon="19.99411673357101"><ele>168.0</ele><time>2026-05-04T11:02:03Z</time></trkpt><trkpt lat="42.26215988827584" lon="19.994020132493045"><ele>168.71428571428572</ele><time>2026-05-04T11:02:05Z</time></trkpt><trkpt lat="42.2621561815061" lon="19.993923601763196"><ele>169.42857142857144</ele><time>2026-05-04T11:02:07Z</time></trkpt><trkpt lat="42.262151582086844" lon="19.993826984676446"><ele>170.14285714285714</ele><time>2026-05-04T11:02:09Z</time></trkpt><trkpt lat="42.262145514666614" lon="19.99373041881727"><ele>170.85714285714286</ele><time>2026-05-04T11:02:11Z</time></trkpt><trkpt lat="42.26213888302891" lon="19.993633790983864"><ele>171.57142857142858</ele><time>2026-05-04T11:02:13Z</time></trkpt><trkpt lat="42.26213080445662" lon="19.993537497589774"><ele>172.28571428571428</ele><time>2026-05-04T11:02:15Z</time></trkpt><trkpt lat="42.262121927382054" lon="19.99344092934546"><ele>173.0</ele><time>2026-05-04T11:02:17Z</time></trkpt><trkpt lat="42.26211304173363" lon="19.993343834107144"><ele>175.28571428571428</ele><time>2026-05-04T11:02:19Z</time></trkpt><trkpt lat="42.262103648218634" lon="19.993246714998218"><ele>177.57142857142858</ele><time>2026-05-04T11:02:21Z</time></trkpt><trkpt lat="42.26209408040687" lon="19.993149715372383"><ele>179.85714285714286</ele><time>2026-05-04T11:02:23Z</time></trkpt><trkpt lat="42.262084316066336" lon="19.993053253651375"><ele>182.14285714285714</ele><time>2026-05-04T11:02:25Z</time></trkpt><trkpt lat="42.2620733760308" lon="19.992955935648038"><ele>184.42857142857144</ele><time>2026-05-04T11:02:27Z</time></trkpt><trkpt lat="42.26206443549998" lon="19.992858990590967"><ele>186.71428571428572</ele><time>2026-05-04T11:02:29Z</time></trkpt><trkpt lat="42.26205761598716" lon="19.992762329685643"><ele>189.0</ele><time>2026-05-04T11:02:31Z</time></trkpt><trkpt lat="42.26204988872234" lon="19.99266502461704"><ele>189.0</ele><time>2026-05-04T11:02:33Z</time></trkpt><trkpt lat="42.26204180237644" lon="19.992566666906846"><ele>189.0</ele><time>2026-05-04T11:02:35Z</time></trkpt><trkpt lat="42.26203423244115" lon="19.992468873699565"><ele>189.0</ele><time>2026-05-04T11:02:37Z</time></trkpt><trkpt lat="42.26202780260956" lon="19.992371623684097"><ele>189.0</ele><time>2026-05-04T11:02:39Z</time></trkpt><trkpt lat="42.26202228142059" lon="19.99227377935027"><ele>189.0</ele><time>2026-05-04T11:02:41Z</time></trkpt><trkpt lat="42.26201808957567" lon="19.992174812536554"><ele>189.0</ele><time>2026-05-04T11:02:43Z</time></trkpt><trkpt lat="42.262014131651284" lon="19.99207658603157"><ele>189.0</ele><time>2026-05-04T11:02:45Z</time></trkpt><trkpt lat="42.26201071611159" lon="19.991978043141003"><ele>190.85714285714286</ele><time>2026-05-04T11:02:47Z</time></trkpt><trkpt lat="42.262007910565664" lon="19.99188015175765"><ele>192.71428571428572</ele><time>2026-05-04T11:02:49Z</time></trkpt><trkpt lat="42.26200492482585" lon="19.991781744119173"><ele>194.57142857142856</ele><time>2026-05-04T11:02:51Z</time></trkpt><trkpt lat="42.2620039149371" lon="19.991683152762466"><ele>196.42857142857144</ele><time>2026-05-04T11:02:53Z</time></trkpt><trkpt lat="42.26200389937523" lon="19.991583716423"><ele>198.28571428571428</ele><time>2026-05-04T11:02:55Z</time></trkpt><trkpt lat="42.26200498851453" lon="19.99148452229899"><ele>200.14285714285714</ele><time>2026-05-04T11:02:57Z</time></trkpt><trkpt lat="42.26200531817125" lon="19.99138581701769"><ele>202.0</ele><time>2026-05-04T11:02:59Z</time></trkpt><trkpt lat="42.26200576975062" lon="19.991285490816885"><ele>202.71428571428572</ele><time>2026-05-04T11:03:01Z</time></trkpt><trkpt lat="42.26200611225093" lon="19.99118600822362"><ele>203.42857142857142</ele><time>2026-05-04T11:03:03Z</time></trkpt><trkpt lat="42.26200750285634" lon="19.991086061390344"><ele>204.14285714285717</ele><time>2026-05-04T11:03:05Z</time></trkpt><trkpt lat="42.26200986925666" lon="19.99098606897123"><ele>204.85714285714286</ele><time>2026-05-04T11:03:07Z</time></trkpt><trkpt lat="42.26201239109804" lon="19.990887098703652"><ele>205.57142857142858</ele><time>2026-05-04T11:03:09Z</time></trkpt><trkpt lat="42.262015850267005" lon="19.990788600798062"><ele>206.2857142857143</ele><time>2026-05-04T11:03:11Z</time></trkpt><trkpt lat="42.262020451544345" lon="19.990690578743106"><ele>207.0</ele><time>2026-05-04T11:03:13Z</time></trkpt><trkpt lat="42.26202616527023" lon="19.990593319788704"><ele>204.85714285714286</ele><time>2026-05-04T11:03:15Z</time></trkpt><trkpt lat="42.26203257645451" lon="19.990495436250875"><ele>202.71428571428572</ele><time>2026-05-04T11:03:17Z</time></trkpt><trkpt lat="42.2620401699561" lon="19.99039688688157"><ele>200.57142857142856</ele><time>2026-05-04T11:03:19Z</time></trkpt><trkpt lat="42.26204849708904" lon="19.99029973731144"><ele>198.42857142857144</ele><time>2026-05-04T11:03:21Z</time></trkpt><trkpt lat="42.26205866533891" lon="19.9902016661095"><ele>196.28571428571428</ele><time>2026-05-04T11:03:23Z</time></trkpt><trkpt lat="42.26206829490752" lon="19.9901032221764"><ele>194.14285714285714</ele><time>2026-05-04T11:03:25.001Z</time></trkpt><trkpt lat="42.262078623532325" lon="19.990006634827452"><ele>192.0</ele><time>2026-05-04T11:03:27.001Z</time></trkpt><trkpt lat="42.262093296047425" lon="19.989916236246717"><ele>190.99999999999997</ele><time>2026-05-04T11:03:29Z</time></trkpt><trkpt lat="42.26210665617394" lon="19.989815041729475"><ele>190.0</ele><time>2026-05-04T11:03:31Z</time></trkpt><trkpt lat="42.26212043212684" lon="19.989721461055822"><ele>189.0</ele><time>2026-05-04T11:03:33Z</time></trkpt><trkpt lat="42.262134215354656" lon="19.989626368247293"><ele>188.0</ele><time>2026-05-04T11:03:35Z</time></trkpt><trkpt lat="42.26214646848974" lon="19.98953048117017"><ele>187.0</ele><time>2026-05-04T11:03:37Z</time></trkpt><trkpt lat="42.26216079951115" lon="19.98943557583004"><ele>185.99999999999997</ele><time>2026-05-04T11:03:39Z</time></trkpt><trkpt lat="42.262176642154294" lon="19.989340695553"><ele>185.0</ele><time>2026-05-04T11:03:41Z</time></trkpt><trkpt lat="42.2621927832422" lon="19.989245926532647"><ele>185.42857142857142</ele><time>2026-05-04T11:03:43Z</time></trkpt><trkpt lat="42.26220979977278" lon="19.989150089638137"><ele>185.85714285714286</ele><time>2026-05-04T11:03:45Z</time></trkpt><trkpt lat="42.26222649615501" lon="19.989054974730166"><ele>186.28571428571428</ele><time>2026-05-04T11:03:47Z</time></trkpt><trkpt lat="42.26224423840294" lon="19.98895911635289"><ele>186.71428571428572</ele><time>2026-05-04T11:03:49Z</time></trkpt><trkpt lat="42.26226177001828" lon="19.98886412439552"><ele>187.14285714285714</ele><time>2026-05-04T11:03:51Z</time></trkpt><trkpt lat="42.26227950291323" lon="19.98876810330436"><ele>187.57142857142856</ele><time>2026-05-04T11:03:53Z</time></trkpt><trkpt lat="42.26229898709518" lon="19.988672275537777"><ele>188.0</ele><time>2026-05-04T11:03:55Z</time></trkpt><trkpt lat="42.26231933654655" lon="19.98857643917865"><ele>186.14285714285714</ele><time>2026-05-04T11:03:57Z</time></trkpt><trkpt lat="42.262340240770214" lon="19.988480159726652"><ele>184.28571428571428</ele><time>2026-05-04T11:03:59Z</time></trkpt><trkpt lat="42.262360745379084" lon="19.98838442069126"><ele>182.42857142857144</ele><time>2026-05-04T11:04:01Z</time></trkpt><trkpt lat="42.26238230506535" lon="19.9882892674372"><ele>180.57142857142856</ele><time>2026-05-04T11:04:03Z</time></trkpt><trkpt lat="42.262403963615036" lon="19.98820088569598"><ele>178.71428571428572</ele><time>2026-05-04T11:04:05Z</time></trkpt><trkpt lat="42.26242692237452" lon="19.98810698633754"><ele>176.85714285714286</ele><time>2026-05-04T11:04:07Z</time></trkpt><trkpt lat="42.26245202482651" lon="19.98800291493207"><ele>175.0</ele><time>2026-05-04T11:04:10Z</time></trkpt><trkpt lat="42.26248422949226" lon="19.987872647151082"><ele>175.0</ele><time>2026-05-04T11:04:12Z</time></trkpt><trkpt lat="42.26251219407137" lon="19.987764658220648"><ele>175.0</ele><time>2026-05-04T11:04:14Z</time></trkpt><trkpt lat="42.26253622165411" lon="19.98767237010079"><ele>175.0</ele><time>2026-05-04T11:04:16Z</time></trkpt><trkpt lat="42.262561524744285" lon="19.9875784514717"><ele>175.0</ele><time>2026-05-04T11:04:18Z</time></trkpt><trkpt lat="42.26258697838566" lon="19.98748471533098"><ele>175.0</ele><time>2026-05-04T11:04:20Z</time></trkpt><trkpt lat="42.26261233932208" lon="19.98739098183398"><ele>175.0</ele><time>2026-05-04T11:04:22Z</time></trkpt><trkpt lat="42.26263837845866" lon="19.987297631341498"><ele>176.14285714285714</ele><time>2026-05-04T11:04:24Z</time></trkpt><trkpt lat="42.26266440900785" lon="19.98720415689048"><ele>177.28571428571428</ele><time>2026-05-04T11:04:26Z</time></trkpt><trkpt lat="42.26269189105573" lon="19.987112025300455"><ele>178.42857142857144</ele><time>2026-05-04T11:04:28Z</time></trkpt><trkpt lat="42.26271908562074" lon="19.98701939523388"><ele>179.57142857142856</ele><time>2026-05-04T11:04:30Z</time></trkpt><trkpt lat="42.26274725842087" lon="19.986927341158612"><ele>180.71428571428572</ele><time>2026-05-04T11:04:32Z</time></trkpt><trkpt lat="42.26277552860249" lon="19.986835270161535"><ele>181.85714285714286</ele><time>2026-05-04T11:04:34Z</time></trkpt><trkpt lat="42.26280307753707" lon="19.986742417835753"><ele>183.0</ele><time>2026-05-04T11:04:36Z</time></trkpt><trkpt lat="42.26283101223666" lon="19.986649878037934"><ele>183.57142857142858</ele><time>2026-05-04T11:04:38Z</time></trkpt><trkpt lat="42.26285792882118" lon="19.986557310641718"><ele>184.14285714285717</ele><time>2026-05-04T11:04:40Z</time></trkpt><trkpt lat="42.26288438987907" lon="19.986465129877775"><ele>184.71428571428572</ele><time>2026-05-04T11:04:42Z</time></trkpt><trkpt lat="42.26290953952249" lon="19.986372781675858"><ele>185.28571428571428</ele><time>2026-05-04T11:04:44Z</time></trkpt><trkpt lat="42.262933859671854" lon="19.986279258899046"><ele>185.85714285714286</ele><time>2026-05-04T11:04:46Z</time></trkpt><trkpt lat="42.26295789002034" lon="19.986185991878326"><ele>186.42857142857142</ele><time>2026-05-04T11:04:48Z</time></trkpt><trkpt lat="42.26298118288632" lon="19.986093230177822"><ele>187.0</ele><time>2026-05-04T11:04:50Z</time></trkpt><trkpt lat="42.26300435092493" lon="19.985999760055087"><ele>187.0</ele><time>2026-05-04T11:04:52Z</time></trkpt><trkpt lat="42.263026755114296" lon="19.985906055523543"><ele>187.0</ele><time>2026-05-04T11:04:54Z</time></trkpt><trkpt lat="42.263048024583256" lon="19.985812275717976"><ele>187.0</ele><time>2026-05-04T11:04:56Z</time></trkpt><trkpt lat="42.26306849139127" lon="19.985717938210325"><ele>187.0</ele><time>2026-05-04T11:04:58Z</time></trkpt><trkpt lat="42.263088447230885" lon="19.985623724315623"><ele>187.0</ele><time>2026-05-04T11:05:00Z</time></trkpt><trkpt lat="42.26310753729291" lon="19.985528991085065"><ele>187.0</ele><time>2026-05-04T11:05:02Z</time></trkpt><trkpt lat="42.26312585923111" lon="19.985434421521244"><ele>187.0</ele><time>2026-05-04T11:05:04Z</time></trkpt><trkpt lat="42.26314488966102" lon="19.98534040675698"><ele>187.0</ele><time>2026-05-04T11:05:06Z</time></trkpt><trkpt lat="42.26316350595942" lon="19.985245708354835"><ele>187.0</ele><time>2026-05-04T11:05:08Z</time></trkpt><trkpt lat="42.263180107878114" lon="19.98515010694337"><ele>187.0</ele><time>2026-05-04T11:05:10Z</time></trkpt><trkpt lat="42.26319523235978" lon="19.985055246755994"><ele>187.0</ele><time>2026-05-04T11:05:12Z</time></trkpt><trkpt lat="42.2632088674364" lon="19.98495941238149"><ele>187.0</ele><time>2026-05-04T11:05:14Z</time></trkpt><trkpt lat="42.263223128256406" lon="19.98486460236862"><ele>187.0</ele><time>2026-05-04T11:05:16Z</time></trkpt><trkpt lat="42.26323677137797" lon="19.984768552304146"><ele>187.0</ele><time>2026-05-04T11:05:18Z</time></trkpt><trkpt lat="42.26324941893643" lon="19.98467202740221"><ele>187.0</ele><time>2026-05-04T11:05:20Z</time></trkpt><trkpt lat="42.26326051662066" lon="19.984575726161044"><ele>187.0</ele><time>2026-05-04T11:05:22Z</time></trkpt><trkpt lat="42.263271251847925" lon="19.98447906637957"><ele>187.0</ele><time>2026-05-04T11:05:24Z</time></trkpt><trkpt lat="42.26328068183767" lon="19.98438224293599"><ele>187.0</ele><time>2026-05-04T11:05:26Z</time></trkpt><trkpt lat="42.26328978422218" lon="19.98428550185184"><ele>187.0</ele><time>2026-05-04T11:05:28Z</time></trkpt><trkpt lat="42.263298063516395" lon="19.984189272059194"><ele>187.0</ele><time>2026-05-04T11:05:30Z</time></trkpt><trkpt lat="42.26330316892472" lon="19.98409258262819"><ele>187.0</ele><time>2026-05-04T11:05:32Z</time></trkpt><trkpt lat="42.2633071867042" lon="19.98399695677755"><ele>185.28571428571428</ele><time>2026-05-04T11:05:34Z</time></trkpt><trkpt lat="42.26331069220934" lon="19.983901041935127"><ele>183.57142857142858</ele><time>2026-05-04T11:05:36Z</time></trkpt><trkpt lat="42.26331518579067" lon="19.983804052588493"><ele>181.85714285714286</ele><time>2026-05-04T11:05:38Z</time></trkpt><trkpt lat="42.2633185667111" lon="19.98370775635002"><ele>180.14285714285714</ele><time>2026-05-04T11:05:40Z</time></trkpt><trkpt lat="42.26332018550933" lon="19.983611739006374"><ele>178.42857142857144</ele><time>2026-05-04T11:05:42Z</time></trkpt><trkpt lat="42.26332116298842" lon="19.983516473295087"><ele>176.71428571428572</ele><time>2026-05-04T11:05:44Z</time></trkpt><trkpt lat="42.26332079343085" lon="19.983419889001585"><ele>175.0</ele><time>2026-05-04T11:05:46Z</time></trkpt><trkpt lat="42.26332014751687" lon="19.98332352799751"><ele>175.0</ele><time>2026-05-04T11:05:48Z</time></trkpt><trkpt lat="42.263319281132695" lon="19.983226764145456"><ele>175.0</ele><time>2026-05-04T11:05:50Z</time></trkpt><trkpt lat="42.26331776406812" lon="19.983130788384695"><ele>175.0</ele><time>2026-05-04T11:05:52Z</time></trkpt><trkpt lat="42.26331530672561" lon="19.983033480898715"><ele>175.0</ele><time>2026-05-04T11:05:54Z</time></trkpt><trkpt lat="42.26331291250743" lon="19.982936015048143"><ele>175.0</ele><time>2026-05-04T11:05:56Z</time></trkpt><trkpt lat="42.26330900917679" lon="19.982838753630393"><ele>175.0</ele><time>2026-05-04T11:05:58Z</time></trkpt><trkpt lat="42.263303790599" lon="19.982740342461213"><ele>175.0</ele><time>2026-05-04T11:06:00Z</time></trkpt><trkpt lat="42.263286091283604" lon="19.98264360911213"><ele>175.0</ele><time>2026-05-04T11:06:02Z</time></trkpt><trkpt lat="42.2632786073085" lon="19.982547038282142"><ele>175.0</ele><time>2026-05-04T11:06:04Z</time></trkpt><trkpt lat="42.26327304611584" lon="19.98244973156259"><ele>175.0</ele><time>2026-05-04T11:06:06Z</time></trkpt><trkpt lat="42.263267112080314" lon="19.98235254019968"><ele>175.0</ele><time>2026-05-04T11:06:08Z</time></trkpt><trkpt lat="42.26325885416617" lon="19.98225504747618"><ele>175.0</ele><time>2026-05-04T11:06:10Z</time></trkpt><trkpt lat="42.26324993407386" lon="19.982157608416102"><ele>175.0</ele><time>2026-05-04T11:06:12Z</time></trkpt><trkpt lat="42.263241556119276" lon="19.982060486928177"><ele>175.0</ele><time>2026-05-04T11:06:14Z</time></trkpt><trkpt lat="42.26323331003565" lon="19.98196368944688"><ele>176.0</ele><time>2026-05-04T11:06:16Z</time></trkpt><trkpt lat="42.26322435533763" lon="19.981866184296425"><ele>177.0</ele><time>2026-05-04T11:06:18Z</time></trkpt><trkpt lat="42.26321459590988" lon="19.981769110012436"><ele>178.0</ele><time>2026-05-04T11:06:20Z</time></trkpt><trkpt lat="42.26320568663877" lon="19.98167173780988"><ele>179.0</ele><time>2026-05-04T11:06:22Z</time></trkpt><trkpt lat="42.263196708314034" lon="19.9815737420243"><ele>180.0</ele><time>2026-05-04T11:06:24Z</time></trkpt><trkpt lat="42.263187297596005" lon="19.98147615747904"><ele>181.0</ele><time>2026-05-04T11:06:26Z</time></trkpt><trkpt lat="42.2631772605682" lon="19.981377560272126"><ele>182.0</ele><time>2026-05-04T11:06:28Z</time></trkpt><trkpt lat="42.26316834417866" lon="19.981280078645028"><ele>182.0</ele><time>2026-05-04T11:06:30Z</time></trkpt><trkpt lat="42.263158851579966" lon="19.981182358416195"><ele>182.0</ele><time>2026-05-04T11:06:32.001Z</time></trkpt><trkpt lat="42.26314963990193" lon="19.981084095741398"><ele>182.0</ele><time>2026-05-04T11:06:34.001Z</time></trkpt><trkpt lat="42.26314051350599" lon="19.98098604945881"><ele>182.0</ele><time>2026-05-04T11:06:36.001Z</time></trkpt><trkpt lat="42.26313231658926" lon="19.98088841750468"><ele>182.0</ele><time>2026-05-04T11:06:38.001Z</time></trkpt><trkpt lat="42.26312363327358" lon="19.98078991402822"><ele>182.0</ele><time>2026-05-04T11:06:40.001Z</time></trkpt><trkpt lat="42.26311590810938" lon="19.98069128347283"><ele>182.0</ele><time>2026-05-04T11:06:42.001Z</time></trkpt><trkpt lat="42.26310783330737" lon="19.980592015450576"><ele>180.57142857142858</ele><time>2026-05-04T11:06:44.001Z</time></trkpt><trkpt lat="42.263099309620074" lon="19.980493357739977"><ele>179.14285714285714</ele><time>2026-05-04T11:06:46.001Z</time></trkpt><trkpt lat="42.263091664358726" lon="19.980394477869705"><ele>177.71428571428572</ele><time>2026-05-04T11:06:48.001Z</time></trkpt><trkpt lat="42.26308367965764" lon="19.980295841696787"><ele>176.28571428571428</ele><time>2026-05-04T11:06:50.001Z</time></trkpt><trkpt lat="42.26307531581806" lon="19.980197015046432"><ele>174.85714285714286</ele><time>2026-05-04T11:06:52.001Z</time></trkpt><trkpt lat="42.263067178309036" lon="19.98009829862432"><ele>173.42857142857144</ele><time>2026-05-04T11:06:54.001Z</time></trkpt><trkpt lat="42.26305938626546" lon="19.979999325062437"><ele>172.0</ele><time>2026-05-04T11:06:56.001Z</time></trkpt><trkpt lat="42.26305195775873" lon="19.97990033025529"><ele>172.00000000000003</ele><time>2026-05-04T11:06:58.001Z</time></trkpt><trkpt lat="42.263044934518994" lon="19.97980102339833"><ele>172.0</ele><time>2026-05-04T11:07:00.001Z</time></trkpt><trkpt lat="42.26303792682182" lon="19.97970188422749"><ele>172.0</ele><time>2026-05-04T11:07:02.001Z</time></trkpt><trkpt lat="42.26303036615234" lon="19.97960286423799"><ele>172.0</ele><time>2026-05-04T11:07:04.001Z</time></trkpt><trkpt lat="42.26302347313992" lon="19.97950310694378"><ele>172.0</ele><time>2026-05-04T11:07:06.001Z</time></trkpt><trkpt lat="42.26301622584662" lon="19.979403658088437"><ele>172.00000000000003</ele><time>2026-05-04T11:07:08.001Z</time></trkpt><trkpt lat="42.263009636465725" lon="19.979303955297784"><ele>172.0</ele><time>2026-05-04T11:07:10.001Z</time></trkpt><trkpt lat="42.26300406674089" lon="19.979203123974433"><ele>173.14285714285717</ele><time>2026-05-04T11:07:12.001Z</time></trkpt><trkpt lat="42.262999170782145" lon="19.979103050900264"><ele>174.28571428571428</ele><time>2026-05-04T11:07:14.001Z</time></trkpt><trkpt lat="42.26299519398257" lon="19.979003197453093"><ele>175.42857142857144</ele><time>2026-05-04T11:07:16.001Z</time></trkpt><trkpt lat="42.26298878758181" lon="19.978912294856418"><ele>176.57142857142858</ele><time>2026-05-04T11:07:18.001Z</time></trkpt><trkpt lat="42.26298033909263" lon="19.978802942547805"><ele>177.71428571428572</ele><time>2026-05-04T11:07:20.001Z</time></trkpt><trkpt lat="42.26297578804133" lon="19.978698976071033"><ele>178.85714285714286</ele><time>2026-05-04T11:07:22.001Z</time></trkpt><trkpt lat="42.26297219776162" lon="19.978603041218914"><ele>180.0</ele><time>2026-05-04T11:07:24.001Z</time></trkpt><trkpt lat="42.26296636272372" lon="19.978502961845116"><ele>180.0</ele><time>2026-05-04T11:07:26.001Z</time></trkpt><trkpt lat="42.26296327273695" lon="19.978402979658465"><ele>180.0</ele><time>2026-05-04T11:07:28.001Z</time></trkpt><trkpt lat="42.26295760715876" lon="19.978303883721672"><ele>180.0</ele><time>2026-05-04T11:07:30.001Z</time></trkpt><trkpt lat="42.2629522295055" lon="19.97820384034377"><ele>180.0</ele><time>2026-05-04T11:07:32.001Z</time></trkpt><trkpt lat="42.2629446804215" lon="19.97810160792728"><ele>180.0</ele><time>2026-05-04T11:07:34.001Z</time></trkpt><trkpt lat="42.26294250710384" lon="19.978001586540984"><ele>180.0</ele><time>2026-05-04T11:07:36.001Z</time></trkpt><trkpt lat="42.26293524752899" lon="19.977902180192448"><ele>180.0</ele><time>2026-05-04T11:07:38.001Z</time></trkpt><trkpt lat="42.26292817997856" lon="19.977801893411264"><ele>180.57142857142856</ele><time>2026-05-04T11:07:40.001Z</time></trkpt><trkpt lat="42.26292061878692" lon="19.977701729331194"><ele>181.14285714285717</ele><time>2026-05-04T11:07:42.001Z</time></trkpt><trkpt lat="42.26291213214548" lon="19.977601193013953"><ele>181.71428571428572</ele><time>2026-05-04T11:07:44.001Z</time></trkpt><trkpt lat="42.262905270523795" lon="19.977500465233568"><ele>182.28571428571428</ele><time>2026-05-04T11:07:46.001Z</time></trkpt><trkpt lat="42.26289793943797" lon="19.977399930897146"><ele>182.85714285714283</ele><time>2026-05-04T11:07:48.001Z</time></trkpt><trkpt lat="42.262890124317785" lon="19.97729880177795"><ele>183.42857142857144</ele><time>2026-05-04T11:07:50.001Z</time></trkpt><trkpt lat="42.262882030890715" lon="19.977198422272934"><ele>184.0</ele><time>2026-05-04T11:07:52.001Z</time></trkpt><trkpt lat="42.26287426170278" lon="19.977097499407655"><ele>184.0</ele><time>2026-05-04T11:07:54.001Z</time></trkpt><trkpt lat="42.26286496327517" lon="19.97699640386484"><ele>184.0</ele><time>2026-05-04T11:07:56.001Z</time></trkpt><trkpt lat="42.26285607981949" lon="19.97689525744181"><ele>184.0</ele><time>2026-05-04T11:07:58.001Z</time></trkpt><trkpt lat="42.262847742539186" lon="19.976793833968987"><ele>184.0</ele><time>2026-05-04T11:08:00.001Z</time></trkpt><trkpt lat="42.26283835397" lon="19.976693101970117"><ele>184.0</ele><time>2026-05-04T11:08:02.001Z</time></trkpt><trkpt lat="42.26282790850303" lon="19.97659315991491"><ele>184.0</ele><time>2026-05-04T11:08:04.001Z</time></trkpt><trkpt lat="42.2628168303654" lon="19.976494369010794"><ele>183.85714285714286</ele><time>2026-05-04T11:08:06.001Z</time></trkpt><trkpt lat="42.262804391785885" lon="19.976397187709548"><ele>183.7142857142857</ele><time>2026-05-04T11:08:08.001Z</time></trkpt><trkpt lat="42.262791624003526" lon="19.976301186511588"><ele>183.57142857142856</ele><time>2026-05-04T11:08:10.001Z</time></trkpt><trkpt lat="42.26277894317802" lon="19.976203983756946"><ele>183.42857142857144</ele><time>2026-05-04T11:08:12.001Z</time></trkpt><trkpt lat="42.26276412140622" lon="19.976106577495845"><ele>183.28571428571428</ele><time>2026-05-04T11:08:14.001Z</time></trkpt><trkpt lat="42.26274946784699" lon="19.976010076897083"><ele>183.14285714285714</ele><time>2026-05-04T11:08:16.001Z</time></trkpt><trkpt lat="42.26273399350842" lon="19.975913475434485"><ele>183.0</ele><time>2026-05-04T11:08:18.001Z</time></trkpt><trkpt lat="42.26271816679562" lon="19.975816010430545"><ele>183.0</ele><time>2026-05-04T11:08:20.001Z</time></trkpt><trkpt lat="42.26270247864544" lon="19.975719491057372"><ele>183.0</ele><time>2026-05-04T11:08:22.001Z</time></trkpt><trkpt lat="42.26268647310973" lon="19.97562400831492"><ele>183.0</ele><time>2026-05-04T11:08:24.001Z</time></trkpt><trkpt lat="42.262671050909944" lon="19.97552781847399"><ele>183.0</ele><time>2026-05-04T11:08:26.001Z</time></trkpt><trkpt lat="42.2626538905473" lon="19.975431400027187"><ele>183.0</ele><time>2026-05-04T11:08:28.001Z</time></trkpt><trkpt lat="42.26263668333917" lon="19.975334827610077"><ele>183.0</ele><time>2026-05-04T11:08:30.001Z</time></trkpt><trkpt lat="42.262619578550726" lon="19.975236922867253"><ele>183.0</ele><time>2026-05-04T11:08:32.001Z</time></trkpt><trkpt lat="42.26260483440159" lon="19.975139398333656"><ele>183.0</ele><time>2026-05-04T11:08:34.001Z</time></trkpt><trkpt lat="42.26258844330761" lon="19.975041050311212"><ele>183.0</ele><time>2026-05-04T11:08:36.001Z</time></trkpt><trkpt lat="42.262572297731545" lon="19.974943477693774"><ele>183.0</ele><time>2026-05-04T11:08:38.001Z</time></trkpt><trkpt lat="42.26255440850378" lon="19.974843549745955"><ele>183.0</ele><time>2026-05-04T11:08:40.001Z</time></trkpt><trkpt lat="42.26253786189264" lon="19.9747438488037"><ele>183.0</ele><time>2026-05-04T11:08:42.001Z</time></trkpt><trkpt lat="42.26252024096079" lon="19.974645281445472"><ele>183.0</ele><time>2026-05-04T11:08:44.001Z</time></trkpt><trkpt lat="42.2625040305559" lon="19.974545931327793"><ele>182.42857142857144</ele><time>2026-05-04T11:08:46.001Z</time></trkpt><trkpt lat="42.26248695193112" lon="19.974447683689185"><ele>181.85714285714286</ele><time>2026-05-04T11:08:48.001Z</time></trkpt><trkpt lat="42.262469940122806" lon="19.974348633226533"><ele>181.28571428571428</ele><time>2026-05-04T11:08:50.001Z</time></trkpt><trkpt lat="42.262453313622544" lon="19.97425010959958"><ele>180.71428571428572</ele><time>2026-05-04T11:08:52.001Z</time></trkpt><trkpt lat="42.26243770056838" lon="19.97415166298087"><ele>180.14285714285714</ele><time>2026-05-04T11:08:54.001Z</time></trkpt><trkpt lat="42.26242154495994" lon="19.974053039589347"><ele>179.57142857142858</ele><time>2026-05-04T11:08:56.001Z</time></trkpt><trkpt lat="42.26240538995128" lon="19.973955574342313"><ele>179.0</ele><time>2026-05-04T11:08:58.001Z</time></trkpt><trkpt lat="42.26238818409604" lon="19.97385768590529"><ele>178.42857142857144</ele><time>2026-05-04T11:09:00.001Z</time></trkpt><trkpt lat="42.262371136720915" lon="19.97375908783931"><ele>177.85714285714286</ele><time>2026-05-04T11:09:02.001Z</time></trkpt><trkpt lat="42.262354625424045" lon="19.97366091780104"><ele>177.28571428571428</ele><time>2026-05-04T11:09:04.001Z</time></trkpt><trkpt lat="42.26233770446741" lon="19.973562732090066"><ele>176.71428571428572</ele><time>2026-05-04T11:09:06.001Z</time></trkpt><trkpt lat="42.26232131504734" lon="19.973463855056853"><ele>176.14285714285714</ele><time>2026-05-04T11:09:08.001Z</time></trkpt><trkpt lat="42.262304251829796" lon="19.97336547586528"><ele>175.57142857142858</ele><time>2026-05-04T11:09:10.001Z</time></trkpt><trkpt lat="42.26228842661871" lon="19.97326644540146"><ele>175.0</ele><time>2026-05-04T11:09:12.001Z</time></trkpt><trkpt lat="42.26227097265865" lon="19.973168339621946"><ele>175.71428571428572</ele><time>2026-05-04T11:09:14.001Z</time></trkpt><trkpt lat="42.262255101545705" lon="19.973070602748958"><ele>176.42857142857144</ele><time>2026-05-04T11:09:16Z</time></trkpt><trkpt lat="42.262238597366576" lon="19.9729738160978"><ele>177.14285714285714</ele><time>2026-05-04T11:09:18Z</time></trkpt><trkpt lat="42.26222046122654" lon="19.97287614416253"><ele>177.85714285714286</ele><time>2026-05-04T11:09:20Z</time></trkpt><trkpt lat="42.26220359522193" lon="19.9727823673068"><ele>178.57142857142858</ele><time>2026-05-04T11:09:22Z</time></trkpt><trkpt lat="42.26218671967802" lon="19.972685502184692"><ele>179.28571428571428</ele><time>2026-05-04T11:09:24Z</time></trkpt><trkpt lat="42.26216865339561" lon="19.97258857319473"><ele>180.0</ele><time>2026-05-04T11:09:26Z</time></trkpt><trkpt lat="42.26215203167921" lon="19.97249308342368"><ele>180.0</ele><time>2026-05-04T11:09:28Z</time></trkpt><trkpt lat="42.262135270707965" lon="19.972396516923382"><ele>180.0</ele><time>2026-05-04T11:09:30Z</time></trkpt><trkpt lat="42.262119030803504" lon="19.972300300526392"><ele>180.0</ele><time>2026-05-04T11:09:32Z</time></trkpt><trkpt lat="42.26210273459335" lon="19.972203390241607"><ele>180.0</ele><time>2026-05-04T11:09:34Z</time></trkpt><trkpt lat="42.262086495083196" lon="19.97210789961811"><ele>180.0</ele><time>2026-05-04T11:09:36Z</time></trkpt><trkpt lat="42.26207041777142" lon="19.972011708559336"><ele>180.0</ele><time>2026-05-04T11:09:38Z</time></trkpt><trkpt lat="42.26205506315093" lon="19.9719154603841"><ele>180.0</ele><time>2026-05-04T11:09:40Z</time></trkpt><trkpt lat="42.262039739559214" lon="19.971818348614413"><ele>180.0</ele><time>2026-05-04T11:09:42Z</time></trkpt><trkpt lat="42.262024750463496" lon="19.971719569311006"><ele>180.0</ele><time>2026-05-04T11:09:44Z</time></trkpt><trkpt lat="42.262009802694394" lon="19.971620998098093"><ele>180.0</ele><time>2026-05-04T11:09:46Z</time></trkpt><trkpt lat="42.26199490196877" lon="19.971524136654995"><ele>180.0</ele><time>2026-05-04T11:09:48Z</time></trkpt><trkpt lat="42.26197994626645" lon="19.97142803216753"><ele>180.0</ele><time>2026-05-04T11:09:50Z</time></trkpt><trkpt lat="42.26196548423879" lon="19.971330900918538"><ele>180.0</ele><time>2026-05-04T11:09:52Z</time></trkpt><trkpt lat="42.26195138277642" lon="19.971233477776966"><ele>180.0</ele><time>2026-05-04T11:09:54Z</time></trkpt><trkpt lat="42.26193804926704" lon="19.971134175860236"><ele>179.57142857142856</ele><time>2026-05-04T11:09:56Z</time></trkpt><trkpt lat="42.26192493964068" lon="19.971034992469765"><ele>179.14285714285717</ele><time>2026-05-04T11:09:58Z</time></trkpt><trkpt lat="42.26191176459146" lon="19.97093536834778"><ele>178.71428571428572</ele><time>2026-05-04T11:10:00Z</time></trkpt><trkpt lat="42.26189895332575" lon="19.970834456551593"><ele>178.28571428571428</ele><time>2026-05-04T11:10:02Z</time></trkpt><trkpt lat="42.26188606971944" lon="19.970735987543335"><ele>177.85714285714283</ele><time>2026-05-04T11:10:04Z</time></trkpt><trkpt lat="42.26187521159226" lon="19.970635732314186"><ele>177.42857142857144</ele><time>2026-05-04T11:10:06Z</time></trkpt><trkpt lat="42.26186340631447" lon="19.97053701791403"><ele>177.0</ele><time>2026-05-04T11:10:08Z</time></trkpt><trkpt lat="42.261853024178784" lon="19.97043758994843"><ele>177.0</ele><time>2026-05-04T11:10:10Z</time></trkpt><trkpt lat="42.261842398510474" lon="19.970338368806168"><ele>177.0</ele><time>2026-05-04T11:10:12Z</time></trkpt><trkpt lat="42.2618319285556" lon="19.970238281767603"><ele>177.0</ele><time>2026-05-04T11:10:14Z</time></trkpt><trkpt lat="42.261822964509065" lon="19.970139102546643"><ele>177.0</ele><time>2026-05-04T11:10:16Z</time></trkpt><trkpt lat="42.26181428319303" lon="19.97004049824367"><ele>177.0</ele><time>2026-05-04T11:10:18Z</time></trkpt><trkpt lat="42.26180569862745" lon="19.969941689951387"><ele>177.0</ele><time>2026-05-04T11:10:20Z</time></trkpt><trkpt lat="42.261796356782746" lon="19.96984199146946"><ele>177.0</ele><time>2026-05-04T11:10:22Z</time></trkpt><trkpt lat="42.26178785308083" lon="19.96974275931093"><ele>176.71428571428572</ele><time>2026-05-04T11:10:24Z</time></trkpt><trkpt lat="42.261778080144424" lon="19.9696425827898"><ele>176.42857142857142</ele><time>2026-05-04T11:10:26Z</time></trkpt><trkpt lat="42.261769036598125" lon="19.96954313091471"><ele>176.14285714285714</ele><time>2026-05-04T11:10:28.001Z</time></trkpt><trkpt lat="42.261759656346555" lon="19.96944460293559"><ele>175.85714285714286</ele><time>2026-05-04T11:10:30.001Z</time></trkpt><trkpt lat="42.261750290915145" lon="19.969345739067705"><ele>175.57142857142856</ele><time>2026-05-04T11:10:32.001Z</time></trkpt><trkpt lat="42.26174025260002" lon="19.969246417913432"><ele>175.28571428571428</ele><time>2026-05-04T11:10:34.001Z</time></trkpt><trkpt lat="42.26173012071382" lon="19.96914833178308"><ele>175.0</ele><time>2026-05-04T11:10:36.001Z</time></trkpt><trkpt lat="42.261720499832336" lon="19.96905047277257"><ele>174.42857142857142</ele><time>2026-05-04T11:10:38.001Z</time></trkpt><trkpt lat="42.261710568264334" lon="19.9689528289835"><ele>173.85714285714286</ele><time>2026-05-04T11:10:40.001Z</time></trkpt><trkpt lat="42.26169951798682" lon="19.968853709415324"><ele>173.28571428571428</ele><time>2026-05-04T11:10:42.001Z</time></trkpt><trkpt lat="42.261688459371456" lon="19.96875408524969"><ele>172.71428571428572</ele><time>2026-05-04T11:10:44.001Z</time></trkpt><trkpt lat="42.26168781179238" lon="19.968659037134675"><ele>172.14285714285714</ele><time>2026-05-04T11:10:46.001Z</time></trkpt><trkpt lat="42.261670531264485" lon="19.96855926699771"><ele>171.57142857142856</ele><time>2026-05-04T11:10:48.001Z</time></trkpt><trkpt lat="42.261659464456756" lon="19.968466187160935"><ele>171.0</ele><time>2026-05-04T11:10:50.001Z</time></trkpt><trkpt lat="42.26164637330252" lon="19.96836772722774"><ele>171.28571428571428</ele><time>2026-05-04T11:10:52.001Z</time></trkpt><trkpt lat="42.26163442523506" lon="19.968268984394115"><ele>171.57142857142856</ele><time>2026-05-04T11:10:54.001Z</time></trkpt><trkpt lat="42.26161677688038" lon="19.968172739627697"><ele>171.85714285714283</ele><time>2026-05-04T11:10:56.001Z</time></trkpt><trkpt lat="42.26160388292243" lon="19.96807687162199"><ele>172.14285714285714</ele><time>2026-05-04T11:10:58.001Z</time></trkpt><trkpt lat="42.26158809985617" lon="19.967982285280204"><ele>172.42857142857144</ele><time>2026-05-04T11:11:00.001Z</time></trkpt><trkpt lat="42.261572116510244" lon="19.967886739837468"><ele>172.7142857142857</ele><time>2026-05-04T11:11:02.001Z</time></trkpt><trkpt lat="42.261553535020944" lon="19.967791644494888"><ele>173.0</ele><time>2026-05-04T11:11:04.001Z</time></trkpt><trkpt lat="42.261536870285894" lon="19.967697036387342"><ele>173.0</ele><time>2026-05-04T11:11:06.001Z</time></trkpt><trkpt lat="42.261518747061274" lon="19.967601884854773"><ele>173.0</ele><time>2026-05-04T11:11:08.001Z</time></trkpt><trkpt lat="42.26149932506916" lon="19.96750560328706"><ele>173.0</ele><time>2026-05-04T11:11:10.001Z</time></trkpt><trkpt lat="42.26147883120962" lon="19.967410097584324"><ele>173.0</ele><time>2026-05-04T11:11:12.001Z</time></trkpt><trkpt lat="42.26146002199009" lon="19.96731683501672"><ele>173.0</ele><time>2026-05-04T11:11:14.001Z</time></trkpt><trkpt lat="42.26144041892607" lon="19.967221351708506"><ele>173.0</ele><time>2026-05-04T11:11:16.001Z</time></trkpt><trkpt lat="42.26141865469409" lon="19.967127600248592"><ele>173.0</ele><time>2026-05-04T11:11:18.001Z</time></trkpt><trkpt lat="42.261396183572515" lon="19.967033755549675"><ele>177.0</ele><time>2026-05-04T11:11:20.001Z</time></trkpt><trkpt lat="42.2613749803535" lon="19.96693950238364"><ele>181.0</ele><time>2026-05-04T11:11:22Z</time></trkpt><trkpt lat="42.2613532829221" lon="19.966846455289637"><ele>185.0</ele><time>2026-05-04T11:11:24Z</time></trkpt><trkpt lat="42.26133035060712" lon="19.966753469620773"><ele>189.0</ele><time>2026-05-04T11:11:26Z</time></trkpt><trkpt lat="42.26130797736668" lon="19.966659920735683"><ele>193.0</ele><time>2026-05-04T11:11:28Z</time></trkpt><trkpt lat="42.26128248134702" lon="19.966565989859692"><ele>197.0</ele><time>2026-05-04T11:11:30Z</time></trkpt><trkpt lat="42.2612596777089" lon="19.966472261753523"><ele>201.0</ele><time>2026-05-04T11:11:32Z</time></trkpt><trkpt lat="42.26123641309599" lon="19.966378764201696"><ele>201.0</ele><time>2026-05-04T11:11:34Z</time></trkpt><trkpt lat="42.26121318975789" lon="19.966285276913275"><ele>201.0</ele><time>2026-05-04T11:11:36Z</time></trkpt><trkpt lat="42.26118901352027" lon="19.96619122129747"><ele>201.0</ele><time>2026-05-04T11:11:38Z</time></trkpt><trkpt lat="42.26116355318142" lon="19.96609808364498"><ele>201.0</ele><time>2026-05-04T11:11:40Z</time></trkpt><trkpt lat="42.261137331822916" lon="19.966003894391136"><ele>201.0</ele><time>2026-05-04T11:11:42Z</time></trkpt><trkpt lat="42.26111165292122" lon="19.96591073892007"><ele>201.0</ele><time>2026-05-04T11:11:44Z</time></trkpt><trkpt lat="42.26108572998845" lon="19.96581808647282"><ele>201.0</ele><time>2026-05-04T11:11:46Z</time></trkpt><trkpt lat="42.261058720377264" lon="19.965726378930093"><ele>199.42857142857142</ele><time>2026-05-04T11:11:48Z</time></trkpt><trkpt lat="42.26103248518699" lon="19.96563454227551"><ele>197.85714285714286</ele><time>2026-05-04T11:11:50Z</time></trkpt><trkpt lat="42.26100468624009" lon="19.965543826891665"><ele>196.28571428571428</ele><time>2026-05-04T11:11:52Z</time></trkpt><trkpt lat="42.26097565460183" lon="19.965450701987695"><ele>194.71428571428572</ele><time>2026-05-04T11:11:54Z</time></trkpt><trkpt lat="42.26094622247825" lon="19.965358434511106"><ele>193.14285714285717</ele><time>2026-05-04T11:11:56Z</time></trkpt><trkpt lat="42.26091631339544" lon="19.965267150191472"><ele>191.57142857142858</ele><time>2026-05-04T11:11:58Z</time></trkpt><trkpt lat="42.26088666142567" lon="19.96517666046628"><ele>190.0</ele><time>2026-05-04T11:12:00Z</time></trkpt><trkpt lat="42.26085837398891" lon="19.96508745176036"><ele>188.71428571428572</ele><time>2026-05-04T11:12:02Z</time></trkpt><trkpt lat="42.26082883168699" lon="19.964997738819275"><ele>187.42857142857144</ele><time>2026-05-04T11:12:04Z</time></trkpt><trkpt lat="42.260799149613284" lon="19.96490925977149"><ele>186.14285714285714</ele><time>2026-05-04T11:12:06Z</time></trkpt><trkpt lat="42.260768000729236" lon="19.964818728293146"><ele>184.85714285714286</ele><time>2026-05-04T11:12:08Z</time></trkpt><trkpt lat="42.26073813373295" lon="19.964727563948312"><ele>183.57142857142856</ele><time>2026-05-04T11:12:10Z</time></trkpt><trkpt lat="42.260706728197384" lon="19.96463667107251"><ele>182.28571428571428</ele><time>2026-05-04T11:12:12Z</time></trkpt><trkpt lat="42.26067553462233" lon="19.96454806041293"><ele>181.0</ele><time>2026-05-04T11:12:14Z</time></trkpt><trkpt lat="42.260644265797154" lon="19.964457317299036"><ele>180.42857142857142</ele><time>2026-05-04T11:12:16Z</time></trkpt><trkpt lat="42.26061305707419" lon="19.964366441976985"><ele>179.85714285714283</ele><time>2026-05-04T11:12:18Z</time></trkpt><trkpt lat="42.26058134197508" lon="19.964275863608503"><ele>179.28571428571428</ele><time>2026-05-04T11:12:20Z</time></trkpt><trkpt lat="42.26054958203835" lon="19.964186086166183"><ele>178.71428571428572</ele><time>2026-05-04T11:12:22Z</time></trkpt><trkpt lat="42.26051716337407" lon="19.964095696771732"><ele>178.14285714285714</ele><time>2026-05-04T11:12:23.999Z</time></trkpt><trkpt lat="42.26048546372405" lon="19.9640051408423"><ele>177.57142857142858</ele><time>2026-05-04T11:12:25.999Z</time></trkpt><trkpt lat="42.26045449868157" lon="19.963914807959192"><ele>177.0</ele><time>2026-05-04T11:12:27.999Z</time></trkpt><trkpt lat="42.26042493726134" lon="19.963825372596002"><ele>177.0</ele><time>2026-05-04T11:12:29.999Z</time></trkpt><trkpt lat="42.26039491852573" lon="19.963735790111947"><ele>177.0</ele><time>2026-05-04T11:12:31.999Z</time></trkpt><trkpt lat="42.260365240338174" lon="19.963643473738166"><ele>177.0</ele><time>2026-05-04T11:12:33.999Z</time></trkpt><trkpt lat="42.26033608516646" lon="19.963553570478727"><ele>177.0</ele><time>2026-05-04T11:12:35.999Z</time></trkpt><trkpt lat="42.260307731393866" lon="19.963462433689273"><ele>177.0</ele><time>2026-05-04T11:12:37.999Z</time></trkpt><trkpt lat="42.260279228219204" lon="19.963370555621545"><ele>177.0</ele><time>2026-05-04T11:12:39.999Z</time></trkpt><trkpt lat="42.26025083901036" lon="19.963277272251005"><ele>177.0</ele><time>2026-05-04T11:12:41.999Z</time></trkpt><trkpt lat="42.260224284351985" lon="19.963182275294468"><ele>176.57142857142858</ele><time>2026-05-04T11:12:43.999Z</time></trkpt><trkpt lat="42.26019783766673" lon="19.96308692301201"><ele>176.14285714285714</ele><time>2026-05-04T11:12:45.999Z</time></trkpt><trkpt lat="42.260173539837275" lon="19.962991967241766"><ele>175.71428571428572</ele><time>2026-05-04T11:12:47.999Z</time></trkpt><trkpt lat="42.26015162839252" lon="19.96289761218944"><ele>175.28571428571428</ele><time>2026-05-04T11:12:49.999Z</time></trkpt><trkpt lat="42.260128229670016" lon="19.962799546883133"><ele>174.85714285714286</ele><time>2026-05-04T11:12:51.999Z</time></trkpt><trkpt lat="42.260108104524804" lon="19.962704384971754"><ele>174.42857142857142</ele><time>2026-05-04T11:12:53.999Z</time></trkpt><trkpt lat="42.26008722737359" lon="19.96260761048222"><ele>174.0</ele><time>2026-05-04T11:12:55.999Z</time></trkpt><trkpt lat="42.260067587869436" lon="19.962511757731296"><ele>173.28571428571428</ele><time>2026-05-04T11:12:57.999Z</time></trkpt><trkpt lat="42.260047845908616" lon="19.962417295712534"><ele>172.57142857142858</ele><time>2026-05-04T11:13:00Z</time></trkpt><trkpt lat="42.260028597457655" lon="19.962320852118115"><ele>171.85714285714286</ele><time>2026-05-04T11:13:02Z</time></trkpt><trkpt lat="42.260009733443994" lon="19.962223400042042"><ele>171.14285714285714</ele><time>2026-05-04T11:13:04Z</time></trkpt><trkpt lat="42.259991139747825" lon="19.96212517850263"><ele>170.42857142857142</ele><time>2026-05-04T11:13:06Z</time></trkpt><trkpt lat="42.25997240079797" lon="19.96202725565892"><ele>169.71428571428572</ele><time>2026-05-04T11:13:08Z</time></trkpt><trkpt lat="42.259953333384026" lon="19.96192729445165"><ele>169.0</ele><time>2026-05-04T11:13:10Z</time></trkpt><trkpt lat="42.259937038873844" lon="19.961827973269163"><ele>169.0</ele><time>2026-05-04T11:13:12Z</time></trkpt><trkpt lat="42.259919611771444" lon="19.961731175827993"><ele>169.0</ele><time>2026-05-04T11:13:14Z</time></trkpt><trkpt lat="42.259904184051486" lon="19.961632136007886"><ele>169.0</ele><time>2026-05-04T11:13:16Z</time></trkpt><trkpt lat="42.25988784638694" lon="19.961534046371668"><ele>169.0</ele><time>2026-05-04T11:13:18Z</time></trkpt><trkpt lat="42.25987335388094" lon="19.961435502441145"><ele>169.0</ele><time>2026-05-04T11:13:20Z</time></trkpt><trkpt lat="42.259857593193736" lon="19.9613372582567"><ele>169.0</ele><time>2026-05-04T11:13:22Z</time></trkpt><trkpt lat="42.259843368097016" lon="19.96123823201318"><ele>169.0</ele><time>2026-05-04T11:13:24Z</time></trkpt><trkpt lat="42.259828957824354" lon="19.961139848034403"><ele>169.14285714285714</ele><time>2026-05-04T11:13:26Z</time></trkpt><trkpt lat="42.259817820453996" lon="19.96104341766809"><ele>169.28571428571428</ele><time>2026-05-04T11:13:27.999Z</time></trkpt><trkpt lat="42.25980510096955" lon="19.96094510847702"><ele>169.42857142857144</ele><time>2026-05-04T11:13:29.999Z</time></trkpt><trkpt lat="42.25979339925309" lon="19.96084533169826"><ele>169.57142857142856</ele><time>2026-05-04T11:13:31.999Z</time></trkpt><trkpt lat="42.25978141999442" lon="19.960744657620303"><ele>169.7142857142857</ele><time>2026-05-04T11:13:33.999Z</time></trkpt><trkpt lat="42.25977415818662" lon="19.960647130008457"><ele>169.85714285714286</ele><time>2026-05-04T11:13:35.999Z</time></trkpt><trkpt lat="42.25976613875796" lon="19.960548486597688"><ele>170.0</ele><time>2026-05-04T11:13:37.999Z</time></trkpt><trkpt lat="42.25975873589209" lon="19.960450009435245"><ele>170.57142857142858</ele><time>2026-05-04T11:13:39.999Z</time></trkpt><trkpt lat="42.25975112175517" lon="19.96035081304357"><ele>171.14285714285714</ele><time>2026-05-04T11:13:41.999Z</time></trkpt><trkpt lat="42.25974460897404" lon="19.960252307336102"><ele>171.71428571428572</ele><time>2026-05-04T11:13:43.999Z</time></trkpt><trkpt lat="42.259737425167096" lon="19.96015386140342"><ele>172.28571428571428</ele><time>2026-05-04T11:13:45.999Z</time></trkpt><trkpt lat="42.25973059960549" lon="19.96005444268526"><ele>172.85714285714286</ele><time>2026-05-04T11:13:47.999Z</time></trkpt><trkpt lat="42.25972454433586" lon="19.959955864401465"><ele>173.42857142857142</ele><time>2026-05-04T11:13:49.999Z</time></trkpt><trkpt lat="42.25972148600217" lon="19.95985650372593"><ele>174.0</ele><time>2026-05-04T11:13:51.999Z</time></trkpt><trkpt lat="42.25971746595585" lon="19.959756046895087"><ele>174.0</ele><time>2026-05-04T11:13:53.999Z</time></trkpt><trkpt lat="42.25971352330942" lon="19.9596554330339"><ele>174.0</ele><time>2026-05-04T11:13:55.999Z</time></trkpt><trkpt lat="42.25971053789949" lon="19.959554470380535"><ele>174.0</ele><time>2026-05-04T11:13:57.999Z</time></trkpt><trkpt lat="42.259706951048535" lon="19.959453895877502"><ele>174.0</ele><time>2026-05-04T11:13:59.999Z</time></trkpt><trkpt lat="42.25970390287441" lon="19.959354296230565"><ele>174.0</ele><time>2026-05-04T11:14:01.999Z</time></trkpt><trkpt lat="42.259700821437136" lon="19.959253917983755"><ele>174.0</ele><time>2026-05-04T11:14:03.999Z</time></trkpt><trkpt lat="42.25969790393718" lon="19.959153335989548"><ele>174.0</ele><time>2026-05-04T11:14:05.999Z</time></trkpt><trkpt lat="42.25969698764223" lon="19.95905232152567"><ele>174.14285714285714</ele><time>2026-05-04T11:14:07.999Z</time></trkpt><trkpt lat="42.25969486541796" lon="19.958952362235376"><ele>174.28571428571428</ele><time>2026-05-04T11:14:09.999Z</time></trkpt><trkpt lat="42.25969299775921" lon="19.95885363658422"><ele>174.42857142857144</ele><time>2026-05-04T11:14:11.999Z</time></trkpt><trkpt lat="42.25969233257135" lon="19.958753344704864"><ele>174.57142857142856</ele><time>2026-05-04T11:14:13.999Z</time></trkpt><trkpt lat="42.25969433724598" lon="19.95865205439112"><ele>174.71428571428572</ele><time>2026-05-04T11:14:15.999Z</time></trkpt><trkpt lat="42.25969683532883" lon="19.958551558005972"><ele>174.85714285714286</ele><time>2026-05-04T11:14:18Z</time></trkpt><trkpt lat="42.259701261597854" lon="19.95845080830131"><ele>175.0</ele><time>2026-05-04T11:14:20Z</time></trkpt><trkpt lat="42.259704317369355" lon="19.958350159155728"><ele>175.14285714285714</ele><time>2026-05-04T11:14:22Z</time></trkpt><trkpt lat="42.25970763866448" lon="19.958251312571086"><ele>175.28571428571428</ele><time>2026-05-04T11:14:24Z</time></trkpt><trkpt lat="42.25971226509943" lon="19.958151554030497"><ele>175.42857142857144</ele><time>2026-05-04T11:14:26Z</time></trkpt><trkpt lat="42.25971908553006" lon="19.958052421645164"><ele>175.57142857142856</ele><time>2026-05-04T11:14:28Z</time></trkpt><trkpt lat="42.25972915530912" lon="19.957952334908782"><ele>175.71428571428572</ele><time>2026-05-04T11:14:30Z</time></trkpt><trkpt lat="42.259740353267034" lon="19.957853337255024"><ele>175.85714285714286</ele><time>2026-05-04T11:14:32Z</time></trkpt><trkpt lat="42.2597521842756" lon="19.957754815370212"><ele>176.0</ele><time>2026-05-04T11:14:34Z</time></trkpt><trkpt lat="42.259762920121624" lon="19.957656415546065"><ele>176.0</ele><time>2026-05-04T11:14:36Z</time></trkpt><trkpt lat="42.25977519368796" lon="19.957558662364896"><ele>176.0</ele><time>2026-05-04T11:14:38Z</time></trkpt><trkpt lat="42.25978831405989" lon="19.957459475312334"><ele>176.0</ele><time>2026-05-04T11:14:40Z</time></trkpt><trkpt lat="42.25980133513498" lon="19.957360766790618"><ele>176.0</ele><time>2026-05-04T11:14:42Z</time></trkpt><trkpt lat="42.25981447211444" lon="19.95726234146964"><ele>176.0</ele><time>2026-05-04T11:14:44Z</time></trkpt><trkpt lat="42.25982801044762" lon="19.957163427226835"><ele>176.0</ele><time>2026-05-04T11:14:46Z</time></trkpt><trkpt lat="42.25984131573461" lon="19.957064667740177"><ele>176.0</ele><time>2026-05-04T11:14:48Z</time></trkpt><trkpt lat="42.259856084351625" lon="19.956965819656244"><ele>177.0</ele><time>2026-05-04T11:14:50Z</time></trkpt><trkpt lat="42.25987100618583" lon="19.956867673987045"><ele>178.0</ele><time>2026-05-04T11:14:52Z</time></trkpt><trkpt lat="42.25988557091324" lon="19.9567696888601"><ele>179.0</ele><time>2026-05-04T11:14:54Z</time></trkpt><trkpt lat="42.259900946942665" lon="19.956671245317835"><ele>180.0</ele><time>2026-05-04T11:14:56Z</time></trkpt><trkpt lat="42.25991750249843" lon="19.956573759223954"><ele>181.0</ele><time>2026-05-04T11:14:58Z</time></trkpt><trkpt lat="42.25993546267436" lon="19.956476308238916"><ele>182.0</ele><time>2026-05-04T11:15:00Z</time></trkpt><trkpt lat="42.2599522218093" lon="19.956378584256637"><ele>183.0</ele><time>2026-05-04T11:15:02Z</time></trkpt><trkpt lat="42.259970304593594" lon="19.95628178635628"><ele>183.0</ele><time>2026-05-04T11:15:04Z</time></trkpt><trkpt lat="42.25998744809963" lon="19.95618613684705"><ele>183.0</ele><time>2026-05-04T11:15:06Z</time></trkpt><trkpt lat="42.26000899655458" lon="19.95608987662978"><ele>183.0</ele><time>2026-05-04T11:15:08Z</time></trkpt><trkpt lat="42.26003168339978" lon="19.955994028999136"><ele>183.0</ele><time>2026-05-04T11:15:10Z</time></trkpt><trkpt lat="42.26005347590869" lon="19.9558988462773"><ele>183.0</ele><time>2026-05-04T11:15:12Z</time></trkpt><trkpt lat="42.26007649282123" lon="19.9558036283519"><ele>183.0</ele><time>2026-05-04T11:15:14Z</time></trkpt><trkpt lat="42.26010000070364" lon="19.955708617611123"><ele>183.0</ele><time>2026-05-04T11:15:16Z</time></trkpt><trkpt lat="42.26012285996634" lon="19.955613235166656"><ele>182.42857142857144</ele><time>2026-05-04T11:15:18Z</time></trkpt><trkpt lat="42.26014696867128" lon="19.955518877640625"><ele>181.85714285714286</ele><time>2026-05-04T11:15:20Z</time></trkpt><trkpt lat="42.260170171990175" lon="19.955425427269937"><ele>181.28571428571428</ele><time>2026-05-04T11:15:22Z</time></trkpt><trkpt lat="42.26019563942125" lon="19.955332113915336"><ele>180.71428571428572</ele><time>2026-05-04T11:15:24Z</time></trkpt><trkpt lat="42.26022280012434" lon="19.955238774536518"><ele>180.14285714285714</ele><time>2026-05-04T11:15:26Z</time></trkpt><trkpt lat="42.26024939364286" lon="19.95514619773862"><ele>179.57142857142858</ele><time>2026-05-04T11:15:28Z</time></trkpt><trkpt lat="42.26027680064807" lon="19.955053268366473"><ele>179.0</ele><time>2026-05-04T11:15:30Z</time></trkpt><trkpt lat="42.260306160234194" lon="19.95496004736058"><ele>178.00000000000003</ele><time>2026-05-04T11:15:32Z</time></trkpt><trkpt lat="42.26033517261304" lon="19.95486746524235"><ele>177.0</ele><time>2026-05-04T11:15:33.999Z</time></trkpt><trkpt lat="42.26036398978767" lon="19.954775557213612"><ele>176.0</ele><time>2026-05-04T11:15:35.999Z</time></trkpt><trkpt lat="42.26039369983147" lon="19.954683735688818"><ele>175.0</ele><time>2026-05-04T11:15:37.999Z</time></trkpt><trkpt lat="42.26042469433957" lon="19.954590801319206"><ele>174.0</ele><time>2026-05-04T11:15:39.999Z</time></trkpt><trkpt lat="42.26045697403991" lon="19.954499598961718"><ele>173.00000000000003</ele><time>2026-05-04T11:15:41.999Z</time></trkpt><trkpt lat="42.26048920727549" lon="19.954408005591542"><ele>172.0</ele><time>2026-05-04T11:15:43.999Z</time></trkpt><trkpt lat="42.2605207468456" lon="19.954319155951517"><ele>172.0</ele><time>2026-05-04T11:15:45.999Z</time></trkpt><trkpt lat="42.2605540277831" lon="19.954229251645053"><ele>172.0</ele><time>2026-05-04T11:15:47.999Z</time></trkpt><trkpt lat="42.26058886336714" lon="19.954139780766223"><ele>172.0</ele><time>2026-05-04T11:15:49.999Z</time></trkpt><trkpt lat="42.26062565486614" lon="19.9540511769796"><ele>172.0</ele><time>2026-05-04T11:15:51.999Z</time></trkpt><trkpt lat="42.260663393597156" lon="19.953962941743498"><ele>172.0</ele><time>2026-05-04T11:15:53.999Z</time></trkpt><trkpt lat="42.26069998070465" lon="19.95387987988527"><ele>172.0</ele><time>2026-05-04T11:15:55.999Z</time></trkpt><trkpt lat="42.26074114880122" lon="19.9537882109691"><ele>171.16666666666669</ele><time>2026-05-04T11:15:57.999Z</time></trkpt><trkpt lat="42.260780634875346" lon="19.95370287329793"><ele>170.33333333333334</ele><time>2026-05-04T11:16:00Z</time></trkpt><trkpt lat="42.26082075251127" lon="19.95361701714455"><ele>169.5</ele><time>2026-05-04T11:16:02Z</time></trkpt><trkpt lat="42.26086196986441" lon="19.953531944314673"><ele>168.66666666666666</ele><time>2026-05-04T11:16:04Z</time></trkpt><trkpt lat="42.26090353873911" lon="19.95344737065173"><ele>167.83333333333331</ele><time>2026-05-04T11:16:06Z</time></trkpt><trkpt lat="42.260945389964576" lon="19.95336358500855"><ele>167.0</ele><time>2026-05-04T11:16:08Z</time></trkpt><trkpt lat="42.2609867455907" lon="19.95327940698301"><ele>167.0</ele><time>2026-05-04T11:16:10Z</time></trkpt><trkpt lat="42.261028442940415" lon="19.953195863066163"><ele>167.0</ele><time>2026-05-04T11:16:12Z</time></trkpt><trkpt lat="42.261070350030806" lon="19.953111474802178"><ele>167.0</ele><time>2026-05-04T11:16:14Z</time></trkpt><trkpt lat="42.26111182888384" lon="19.953027889988647"><ele>167.0</ele><time>2026-05-04T11:16:16Z</time></trkpt><trkpt lat="42.261152982978906" lon="19.952943457500062"><ele>167.0</ele><time>2026-05-04T11:16:18Z</time></trkpt><trkpt lat="42.261193809500966" lon="19.95286006119085"><ele>167.0</ele><time>2026-05-04T11:16:20Z</time></trkpt><trkpt lat="42.26123413134443" lon="19.952776733111083"><ele>167.0</ele><time>2026-05-04T11:16:22Z</time></trkpt><trkpt lat="42.26127479469642" lon="19.95269252085062"><ele>167.0</ele><time>2026-05-04T11:16:24Z</time></trkpt><trkpt lat="42.2613147660721" lon="19.952608343992747"><ele>167.0</ele><time>2026-05-04T11:16:26Z</time></trkpt><trkpt lat="42.261353652666784" lon="19.952524249792855"><ele>167.0</ele><time>2026-05-04T11:16:28Z</time></trkpt><trkpt lat="42.261393299771974" lon="19.95243926247026"><ele>167.0</ele><time>2026-05-04T11:16:30Z</time></trkpt><trkpt lat="42.26143108296769" lon="19.95235461683812"><ele>167.0</ele><time>2026-05-04T11:16:32Z</time></trkpt><trkpt lat="42.26146993880227" lon="19.952269319417912"><ele>167.0</ele><time>2026-05-04T11:16:34Z</time></trkpt><trkpt lat="42.26150787712458" lon="19.952183695300867"><ele>167.0</ele><time>2026-05-04T11:16:36Z</time></trkpt><trkpt lat="42.261546566316675" lon="19.95209857206223"><ele>166.71428571428572</ele><time>2026-05-04T11:16:38Z</time></trkpt><trkpt lat="42.26158466913634" lon="19.95201355828874"><ele>166.42857142857144</ele><time>2026-05-04T11:16:40Z</time></trkpt><trkpt lat="42.26162464556545" lon="19.95192842098109"><ele>166.14285714285717</ele><time>2026-05-04T11:16:42Z</time></trkpt><trkpt lat="42.261664022080055" lon="19.951843327743518"><ele>165.85714285714286</ele><time>2026-05-04T11:16:44Z</time></trkpt><trkpt lat="42.261704459489366" lon="19.95175858666465"><ele>165.57142857142858</ele><time>2026-05-04T11:16:46Z</time></trkpt><trkpt lat="42.26174476698005" lon="19.951673683723346"><ele>165.2857142857143</ele><time>2026-05-04T11:16:48Z</time></trkpt><trkpt lat="42.261783954862075" lon="19.951589791269296"><ele>165.0</ele><time>2026-05-04T11:16:50Z</time></trkpt><trkpt lat="42.26182439757564" lon="19.9515042060411"><ele>165.00000000000003</ele><time>2026-05-04T11:16:52Z</time></trkpt><trkpt lat="42.26186345338675" lon="19.951419220635234"><ele>165.0</ele><time>2026-05-04T11:16:54Z</time></trkpt><trkpt lat="42.261902911754675" lon="19.951334211656537"><ele>165.0</ele><time>2026-05-04T11:16:56Z</time></trkpt><trkpt lat="42.26194260155988" lon="19.95124981398083"><ele>165.0</ele><time>2026-05-04T11:16:58Z</time></trkpt><trkpt lat="42.26198262087289" lon="19.951165278210063"><ele>165.0</ele><time>2026-05-04T11:17:00Z</time></trkpt><trkpt lat="42.26202289641042" lon="19.95108095947151"><ele>165.00000000000003</ele><time>2026-05-04T11:17:02Z</time></trkpt><trkpt lat="42.262063014443136" lon="19.9509962882335"><ele>165.0</ele><time>2026-05-04T11:17:04Z</time></trkpt><trkpt lat="42.262102898962894" lon="19.95091184911047"><ele>165.00000000000003</ele><time>2026-05-04T11:17:06Z</time></trkpt><trkpt lat="42.262143088781166" lon="19.950826886618998"><ele>165.0</ele><time>2026-05-04T11:17:08Z</time></trkpt><trkpt lat="42.26218350356697" lon="19.950742960845524"><ele>165.0</ele><time>2026-05-04T11:17:10Z</time></trkpt><trkpt lat="42.262224187583705" lon="19.95065874080381"><ele>165.0</ele><time>2026-05-04T11:17:12Z</time></trkpt><trkpt lat="42.26226562794056" lon="19.950575262583897"><ele>165.0</ele><time>2026-05-04T11:17:14Z</time></trkpt><trkpt lat="42.26230665081467" lon="19.950491557196216"><ele>165.00000000000003</ele><time>2026-05-04T11:17:16Z</time></trkpt><trkpt lat="42.262347424152885" lon="19.950407263602234"><ele>165.0</ele><time>2026-05-04T11:17:18Z</time></trkpt><trkpt lat="42.26238852451317" lon="19.95032332913514"><ele>165.00000000000003</ele><time>2026-05-04T11:17:20Z</time></trkpt><trkpt lat="42.26242968701489" lon="19.950239255517616"><ele>165.0</ele><time>2026-05-04T11:17:22Z</time></trkpt><trkpt lat="42.26247096278744" lon="19.950155912163773"><ele>165.0</ele><time>2026-05-04T11:17:24Z</time></trkpt><trkpt lat="42.26251246519119" lon="19.95007250497582"><ele>165.0</ele><time>2026-05-04T11:17:26Z</time></trkpt><trkpt lat="42.26255396846314" lon="19.94998917221632"><ele>165.0</ele><time>2026-05-04T11:17:28Z</time></trkpt><trkpt lat="42.26259544281357" lon="19.949904900083432"><ele>165.00000000000003</ele><time>2026-05-04T11:17:30Z</time></trkpt><trkpt lat="42.26263636769696" lon="19.949820577741157"><ele>165.0</ele><time>2026-05-04T11:17:32Z</time></trkpt><trkpt lat="42.26267666464095" lon="19.94973580697644"><ele>165.00000000000003</ele><time>2026-05-04T11:17:34Z</time></trkpt><trkpt lat="42.26271711702982" lon="19.949651206902455"><ele>165.0</ele><time>2026-05-04T11:17:36Z</time></trkpt><trkpt lat="42.262757690024486" lon="19.949567368493398"><ele>165.0</ele><time>2026-05-04T11:17:38Z</time></trkpt><trkpt lat="42.262798013261126" lon="19.94948327848114"><ele>165.0</ele><time>2026-05-04T11:17:40Z</time></trkpt><trkpt lat="42.26283960074468" lon="19.949398872473434"><ele>165.0</ele><time>2026-05-04T11:17:42Z</time></trkpt><trkpt lat="42.262879921307906" lon="19.949314383758182"><ele>165.00000000000003</ele><time>2026-05-04T11:17:44Z</time></trkpt><trkpt lat="42.26292014872006" lon="19.949229748368158"><ele>165.0</ele><time>2026-05-04T11:17:46Z</time></trkpt><trkpt lat="42.262960617345435" lon="19.94914495053223"><ele>164.85714285714286</ele><time>2026-05-04T11:17:48Z</time></trkpt><trkpt lat="42.26299991281431" lon="19.949060480262705"><ele>164.71428571428572</ele><time>2026-05-04T11:17:50Z</time></trkpt><trkpt lat="42.263038924376964" lon="19.94897576798472"><ele>164.57142857142856</ele><time>2026-05-04T11:17:52Z</time></trkpt><trkpt lat="42.26307766983122" lon="19.9488899947058"><ele>164.42857142857144</ele><time>2026-05-04T11:17:54Z</time></trkpt><trkpt lat="42.26311790612511" lon="19.948806348903634"><ele>164.28571428571428</ele><time>2026-05-04T11:17:56Z</time></trkpt><trkpt lat="42.263158232269554" lon="19.948722127173518"><ele>164.14285714285714</ele><time>2026-05-04T11:17:58Z</time></trkpt><trkpt lat="42.26319753634665" lon="19.94863903632084"><ele>164.0</ele><time>2026-05-04T11:18:00Z</time></trkpt><trkpt lat="42.263237402578156" lon="19.94855507013758"><ele>163.7142857142857</ele><time>2026-05-04T11:18:02Z</time></trkpt><trkpt lat="42.263277853313355" lon="19.94847138125996"><ele>163.42857142857142</ele><time>2026-05-04T11:18:04Z</time></trkpt><trkpt lat="42.263318062589526" lon="19.948387215606328"><ele>163.14285714285714</ele><time>2026-05-04T11:18:06Z</time></trkpt><trkpt lat="42.26335766822315" lon="19.94830299752978"><ele>162.85714285714283</ele><time>2026-05-04T11:18:08Z</time></trkpt><trkpt lat="42.26339741628253" lon="19.948218994496195"><ele>162.57142857142856</ele><time>2026-05-04T11:18:10Z</time></trkpt><trkpt lat="42.26343738961425" lon="19.948135190883807"><ele>162.28571428571428</ele><time>2026-05-04T11:18:12Z</time></trkpt><trkpt lat="42.26347671251737" lon="19.94805068001706"><ele>162.0</ele><time>2026-05-04T11:18:14Z</time></trkpt><trkpt lat="42.26351613570352" lon="19.94796590507408"><ele>162.0</ele><time>2026-05-04T11:18:16Z</time></trkpt><trkpt lat="42.26355600052951" lon="19.947881427970326"><ele>162.0</ele><time>2026-05-04T11:18:18Z</time></trkpt><trkpt lat="42.263595263512904" lon="19.947796967895766"><ele>162.0</ele><time>2026-05-04T11:18:20Z</time></trkpt><trkpt lat="42.26363504470587" lon="19.947712828296858"><ele>162.0</ele><time>2026-05-04T11:18:22Z</time></trkpt><trkpt lat="42.26367413131429" lon="19.947629509725832"><ele>162.0</ele><time>2026-05-04T11:18:24Z</time></trkpt><trkpt lat="42.2637137888207" lon="19.947545640118907"><ele>162.0</ele><time>2026-05-04T11:18:26Z</time></trkpt><trkpt lat="42.26375324721798" lon="19.94746197024929"><ele>162.0</ele><time>2026-05-04T11:18:28Z</time></trkpt><trkpt lat="42.263792518705145" lon="19.947378284067867"><ele>162.28571428571428</ele><time>2026-05-04T11:18:30Z</time></trkpt><trkpt lat="42.26383168208118" lon="19.947294150385034"><ele>162.57142857142856</ele><time>2026-05-04T11:18:32Z</time></trkpt><trkpt lat="42.26387120076411" lon="19.94721033679812"><ele>162.85714285714283</ele><time>2026-05-04T11:18:34.001Z</time></trkpt><trkpt lat="42.26391111686596" lon="19.947126655304867"><ele>163.14285714285714</ele><time>2026-05-04T11:18:36.001Z</time></trkpt><trkpt lat="42.26395213977858" lon="19.947043285136687"><ele>163.42857142857142</ele><time>2026-05-04T11:18:38.001Z</time></trkpt><trkpt lat="42.26399260851179" lon="19.946960090052915"><ele>163.7142857142857</ele><time>2026-05-04T11:18:40.001Z</time></trkpt><trkpt lat="42.26403365551066" lon="19.94687778876336"><ele>164.0</ele><time>2026-05-04T11:18:42.001Z</time></trkpt><trkpt lat="42.26407472854847" lon="19.946794414726885"><ele>164.7142857142857</ele><time>2026-05-04T11:18:44.001Z</time></trkpt><trkpt lat="42.26411577910591" lon="19.94671205501806"><ele>165.42857142857142</ele><time>2026-05-04T11:18:46.001Z</time></trkpt><trkpt lat="42.264156497893055" lon="19.946629802304898"><ele>166.14285714285714</ele><time>2026-05-04T11:18:48.001Z</time></trkpt><trkpt lat="42.26419849880736" lon="19.946547565806064"><ele>166.85714285714283</ele><time>2026-05-04T11:18:50.001Z</time></trkpt><trkpt lat="42.26424036348034" lon="19.946465591115864"><ele>167.57142857142856</ele><time>2026-05-04T11:18:52.001Z</time></trkpt><trkpt lat="42.264282870310915" lon="19.946383981549737"><ele>168.28571428571428</ele><time>2026-05-04T11:18:54.001Z</time></trkpt><trkpt lat="42.264325313051245" lon="19.9463025494056"><ele>169.0</ele><time>2026-05-04T11:18:56.001Z</time></trkpt><trkpt lat="42.26436793821214" lon="19.946221094526823"><ele>169.0</ele><time>2026-05-04T11:18:58.001Z</time></trkpt><trkpt lat="42.264410772232694" lon="19.946139961426873"><ele>169.0</ele><time>2026-05-04T11:19:00.001Z</time></trkpt><trkpt lat="42.26445409012369" lon="19.946059705728153"><ele>169.0</ele><time>2026-05-04T11:19:02.001Z</time></trkpt><trkpt lat="42.26449756527304" lon="19.945978719813816"><ele>169.0</ele><time>2026-05-04T11:19:04.001Z</time></trkpt><trkpt lat="42.26454063022809" lon="19.94589760004987"><ele>169.0</ele><time>2026-05-04T11:19:06.001Z</time></trkpt><trkpt lat="42.26458354120875" lon="19.945816286405435"><ele>169.0</ele><time>2026-05-04T11:19:08.001Z</time></trkpt><trkpt lat="42.2646262033179" lon="19.945734054372608"><ele>169.0</ele><time>2026-05-04T11:19:10.001Z</time></trkpt><trkpt lat="42.26466842565767" lon="19.945651965686313"><ele>169.28571428571428</ele><time>2026-05-04T11:19:12.001Z</time></trkpt><trkpt lat="42.26471117550686" lon="19.945570746944757"><ele>169.57142857142856</ele><time>2026-05-04T11:19:14.001Z</time></trkpt><trkpt lat="42.26475378256513" lon="19.945488817515933"><ele>169.85714285714283</ele><time>2026-05-04T11:19:16.001Z</time></trkpt><trkpt lat="42.26479606440985" lon="19.945407708095047"><ele>170.14285714285714</ele><time>2026-05-04T11:19:18.001Z</time></trkpt><trkpt lat="42.264837771875655" lon="19.945324058922083"><ele>170.42857142857142</ele><time>2026-05-04T11:19:20.001Z</time></trkpt><trkpt lat="42.26487857749377" lon="19.945241935472506"><ele>170.7142857142857</ele><time>2026-05-04T11:19:22.001Z</time></trkpt><trkpt lat="42.264919654589754" lon="19.945159637017117"><ele>171.0</ele><time>2026-05-04T11:19:24.001Z</time></trkpt><trkpt lat="42.264960232221284" lon="19.94507657823859"><ele>170.57142857142856</ele><time>2026-05-04T11:19:26.001Z</time></trkpt><trkpt lat="42.26500109488244" lon="19.94499369823763"><ele>170.14285714285714</ele><time>2026-05-04T11:19:28.001Z</time></trkpt><trkpt lat="42.26504174782222" lon="19.94491126468705"><ele>169.71428571428572</ele><time>2026-05-04T11:19:30.001Z</time></trkpt><trkpt lat="42.26508268712297" lon="19.944827693734933"><ele>169.28571428571428</ele><time>2026-05-04T11:19:32.001Z</time></trkpt><trkpt lat="42.26512317811132" lon="19.944744099393983"><ele>168.85714285714286</ele><time>2026-05-04T11:19:34.001Z</time></trkpt><trkpt lat="42.26516303598534" lon="19.94466012895594"><ele>168.42857142857142</ele><time>2026-05-04T11:19:36.001Z</time></trkpt><trkpt lat="42.26520223054799" lon="19.944577220690007"><ele>168.0</ele><time>2026-05-04T11:19:38.001Z</time></trkpt><trkpt lat="42.26524263047499" lon="19.944494394149476"><ele>168.0</ele><time>2026-05-04T11:19:40.001Z</time></trkpt><trkpt lat="42.2652826394689" lon="19.944411259480002"><ele>168.0</ele><time>2026-05-04T11:19:42.001Z</time></trkpt><trkpt lat="42.265323001445836" lon="19.944328072386"><ele>168.0</ele><time>2026-05-04T11:19:44.001Z</time></trkpt><trkpt lat="42.265363614080265" lon="19.944245202133867"><ele>168.0</ele><time>2026-05-04T11:19:46.001Z</time></trkpt><trkpt lat="42.26540428142018" lon="19.94416233254261"><ele>168.0</ele><time>2026-05-04T11:19:48.001Z</time></trkpt><trkpt lat="42.265444815884" lon="19.944079158899175"><ele>168.0</ele><time>2026-05-04T11:19:50.001Z</time></trkpt><trkpt lat="42.26548560418029" lon="19.943995828538693"><ele>168.0</ele><time>2026-05-04T11:19:52.001Z</time></trkpt><trkpt lat="42.26552562412486" lon="19.94391232103703"><ele>167.85714285714286</ele><time>2026-05-04T11:19:54.001Z</time></trkpt><trkpt lat="42.26556556964989" lon="19.943828798448774"><ele>167.71428571428572</ele><time>2026-05-04T11:19:56.001Z</time></trkpt><trkpt lat="42.26560455434928" lon="19.943745554382396"><ele>167.57142857142856</ele><time>2026-05-04T11:19:58.001Z</time></trkpt><trkpt lat="42.26564367226296" lon="19.943661625144355"><ele>167.42857142857144</ele><time>2026-05-04T11:20:00.001Z</time></trkpt><trkpt lat="42.26568263083422" lon="19.943576994084275"><ele>167.28571428571428</ele><time>2026-05-04T11:20:02.001Z</time></trkpt><trkpt lat="42.26572216226154" lon="19.943492660564207"><ele>167.14285714285714</ele><time>2026-05-04T11:20:04.001Z</time></trkpt><trkpt lat="42.265761139856586" lon="19.943408733058387"><ele>167.0</ele><time>2026-05-04T11:20:06.001Z</time></trkpt><trkpt lat="42.265799580910425" lon="19.943324879484464"><ele>167.0</ele><time>2026-05-04T11:20:08.001Z</time></trkpt><trkpt lat="42.26583839450692" lon="19.943241393107353"><ele>167.0</ele><time>2026-05-04T11:20:10.001Z</time></trkpt><trkpt lat="42.26587814324565" lon="19.943156237430983"><ele>167.0</ele><time>2026-05-04T11:20:12.001Z</time></trkpt><trkpt lat="42.26591760785923" lon="19.94307235416543"><ele>167.0</ele><time>2026-05-04T11:20:14.001Z</time></trkpt><trkpt lat="42.26595709445084" lon="19.9429876479678"><ele>167.0</ele><time>2026-05-04T11:20:16.001Z</time></trkpt><trkpt lat="42.26599686570912" lon="19.942903557674057"><ele>167.0</ele><time>2026-05-04T11:20:18.001Z</time></trkpt><trkpt lat="42.26603607217809" lon="19.942819289797452"><ele>167.0</ele><time>2026-05-04T11:20:20.001Z</time></trkpt><trkpt lat="42.266075274660224" lon="19.94273514091938"><ele>167.0</ele><time>2026-05-04T11:20:22.001Z</time></trkpt><trkpt lat="42.26611414457522" lon="19.942651561271283"><ele>167.0</ele><time>2026-05-04T11:20:24.001Z</time></trkpt><trkpt lat="42.26615298350363" lon="19.942567256593836"><ele>167.0</ele><time>2026-05-04T11:20:26.001Z</time></trkpt><trkpt lat="42.266191449079706" lon="19.94248293065245"><ele>167.0</ele><time>2026-05-04T11:20:28.001Z</time></trkpt><trkpt lat="42.26622906774255" lon="19.942398266944434"><ele>167.0</ele><time>2026-05-04T11:20:30.001Z</time></trkpt><trkpt lat="42.266266153692285" lon="19.942312772142095"><ele>167.0</ele><time>2026-05-04T11:20:32.001Z</time></trkpt><trkpt lat="42.26630335064568" lon="19.942227898605303"><ele>167.0</ele><time>2026-05-04T11:20:34.001Z</time></trkpt><trkpt lat="42.26634022124545" lon="19.94214265488763"><ele>167.0</ele><time>2026-05-04T11:20:36.001Z</time></trkpt><trkpt lat="42.2663763305308" lon="19.942056847669456"><ele>167.0</ele><time>2026-05-04T11:20:38.001Z</time></trkpt><trkpt lat="42.26641124340647" lon="19.94197034128483"><ele>167.0</ele><time>2026-05-04T11:20:40.001Z</time></trkpt><trkpt lat="42.26644529412327" lon="19.941883374263416"><ele>167.0</ele><time>2026-05-04T11:20:42.001Z</time></trkpt><trkpt lat="42.266478951360995" lon="19.94179668255536"><ele>167.0</ele><time>2026-05-04T11:20:44.001Z</time></trkpt><trkpt lat="42.266512642052824" lon="19.941709145457057"><ele>167.0</ele><time>2026-05-04T11:20:46.001Z</time></trkpt><trkpt lat="42.26654621163747" lon="19.941621085562236"><ele>167.0</ele><time>2026-05-04T11:20:48.001Z</time></trkpt><trkpt lat="42.266578879147545" lon="19.941533356275364"><ele>167.0</ele><time>2026-05-04T11:20:50.001Z</time></trkpt><trkpt lat="42.26661097298364" lon="19.941444634095898"><ele>167.0</ele><time>2026-05-04T11:20:52.001Z</time></trkpt><trkpt lat="42.26664319137491" lon="19.94135571461645"><ele>167.0</ele><time>2026-05-04T11:20:54.001Z</time></trkpt><trkpt lat="42.266675264475516" lon="19.94126688866271"><ele>167.0</ele><time>2026-05-04T11:20:56.001Z</time></trkpt><trkpt lat="42.266707156337034" lon="19.941177428517154"><ele>167.0</ele><time>2026-05-04T11:20:58.001Z</time></trkpt><trkpt lat="42.26673900390847" lon="19.94108794538187"><ele>167.0</ele><time>2026-05-04T11:21:00.001Z</time></trkpt><trkpt lat="42.266770819737715" lon="19.940998920594524"><ele>167.0</ele><time>2026-05-04T11:21:02.001Z</time></trkpt><trkpt lat="42.26680220020845" lon="19.940909323606547"><ele>167.0</ele><time>2026-05-04T11:21:04.001Z</time></trkpt><trkpt lat="42.266833364230465" lon="19.940820066031268"><ele>167.0</ele><time>2026-05-04T11:21:06.001Z</time></trkpt><trkpt lat="42.26686309966173" lon="19.94072965078251"><ele>167.0</ele><time>2026-05-04T11:21:08.001Z</time></trkpt><trkpt lat="42.266892613836134" lon="19.940639336369852"><ele>167.0</ele><time>2026-05-04T11:21:10.001Z</time></trkpt><trkpt lat="42.26692111661769" lon="19.94054887434405"><ele>167.0</ele><time>2026-05-04T11:21:12.001Z</time></trkpt><trkpt lat="42.266949402096806" lon="19.940458368823144"><ele>167.0</ele><time>2026-05-04T11:21:14.001Z</time></trkpt><trkpt lat="42.26697692824674" lon="19.940368393579988"><ele>167.0</ele><time>2026-05-04T11:21:16.001Z</time></trkpt><trkpt lat="42.26700427858607" lon="19.94027830931054"><ele>167.0</ele><time>2026-05-04T11:21:18.001Z</time></trkpt><trkpt lat="42.26703193719473" lon="19.94018740896341"><ele>167.0</ele><time>2026-05-04T11:21:20Z</time></trkpt><trkpt lat="42.26705876438258" lon="19.94009662103944"><ele>167.0</ele><time>2026-05-04T11:21:22Z</time></trkpt><trkpt lat="42.267084893478795" lon="19.940005759811463"><ele>167.0</ele><time>2026-05-04T11:21:24Z</time></trkpt><trkpt lat="42.267111108323725" lon="19.939915009939725"><ele>167.0</ele><time>2026-05-04T11:21:26Z</time></trkpt><trkpt lat="42.26713479246636" lon="19.939822804445768"><ele>167.0</ele><time>2026-05-04T11:21:28Z</time></trkpt><trkpt lat="42.26715440254725" lon="19.939729247700168"><ele>167.0</ele><time>2026-05-04T11:21:30Z</time></trkpt><trkpt lat="42.26717502759638" lon="19.939635620025452"><ele>166.71428571428572</ele><time>2026-05-04T11:21:32Z</time></trkpt><trkpt lat="42.26719497869325" lon="19.939542243517057"><ele>166.42857142857144</ele><time>2026-05-04T11:21:34Z</time></trkpt><trkpt lat="42.26721433278968" lon="19.939448880969607"><ele>166.14285714285717</ele><time>2026-05-04T11:21:36Z</time></trkpt><trkpt lat="42.267234372895025" lon="19.93935536806049"><ele>165.85714285714286</ele><time>2026-05-04T11:21:38Z</time></trkpt><trkpt lat="42.26725336424036" lon="19.939261301703002"><ele>165.57142857142858</ele><time>2026-05-04T11:21:40Z</time></trkpt><trkpt lat="42.26727232623365" lon="19.9391668998417"><ele>165.2857142857143</ele><time>2026-05-04T11:21:42.001Z</time></trkpt><trkpt lat="42.267290120903596" lon="19.939072589155835"><ele>165.0</ele><time>2026-05-04T11:21:44.001Z</time></trkpt><trkpt lat="42.267306865257666" lon="19.93897868890274"><ele>165.00000000000003</ele><time>2026-05-04T11:21:46.001Z</time></trkpt><trkpt lat="42.26732290421232" lon="19.938884063398586"><ele>165.0</ele><time>2026-05-04T11:21:48.001Z</time></trkpt><trkpt lat="42.26733840564644" lon="19.93878953432391"><ele>165.0</ele><time>2026-05-04T11:21:50Z</time></trkpt><trkpt lat="42.267353209540175" lon="19.93869424650454"><ele>165.0</ele><time>2026-05-04T11:21:52Z</time></trkpt><trkpt lat="42.2673670778267" lon="19.938598663493043"><ele>165.0</ele><time>2026-05-04T11:21:54Z</time></trkpt><trkpt lat="42.267380450186955" lon="19.938503109159896"><ele>165.00000000000003</ele><time>2026-05-04T11:21:56Z</time></trkpt><trkpt lat="42.26739308441623" lon="19.938407140221894"><ele>165.0</ele><time>2026-05-04T11:21:58Z</time></trkpt><trkpt lat="42.267406041267286" lon="19.938310380514153"><ele>164.85714285714286</ele><time>2026-05-04T11:22:00Z</time></trkpt><trkpt lat="42.267419127948756" lon="19.938213695217286"><ele>164.71428571428572</ele><time>2026-05-04T11:22:02Z</time></trkpt><trkpt lat="42.267430943223374" lon="19.938117318211926"><ele>164.57142857142856</ele><time>2026-05-04T11:22:04Z</time></trkpt><trkpt lat="42.26744241712693" lon="19.938020805648183"><ele>164.42857142857144</ele><time>2026-05-04T11:22:06Z</time></trkpt><trkpt lat="42.26745298100507" lon="19.937923950474513"><ele>164.28571428571428</ele><time>2026-05-04T11:22:08Z</time></trkpt><trkpt lat="42.26746292635393" lon="19.93782658421275"><ele>164.14285714285714</ele><time>2026-05-04T11:22:10Z</time></trkpt><trkpt lat="42.267473081888134" lon="19.93772928937176"><ele>164.0</ele><time>2026-05-04T11:22:12Z</time></trkpt><trkpt lat="42.267483509802304" lon="19.937631968962155"><ele>164.57142857142856</ele><time>2026-05-04T11:22:14Z</time></trkpt><trkpt lat="42.26749318365061" lon="19.937535098933456"><ele>165.14285714285714</ele><time>2026-05-04T11:22:16Z</time></trkpt><trkpt lat="42.26750282694261" lon="19.93743774378094"><ele>165.71428571428572</ele><time>2026-05-04T11:22:18Z</time></trkpt><trkpt lat="42.26751192217416" lon="19.93734009980368"><ele>166.28571428571428</ele><time>2026-05-04T11:22:20Z</time></trkpt><trkpt lat="42.26752076742365" lon="19.93724263560776"><ele>166.85714285714286</ele><time>2026-05-04T11:22:22Z</time></trkpt><trkpt lat="42.267528674250244" lon="19.93714499738903"><ele>167.42857142857142</ele><time>2026-05-04T11:22:24Z</time></trkpt><trkpt lat="42.26753477378566" lon="19.93704772502416"><ele>168.0</ele><time>2026-05-04T11:22:26Z</time></trkpt><trkpt lat="42.267540669272854" lon="19.936951057132536"><ele>168.0</ele><time>2026-05-04T11:22:28Z</time></trkpt><trkpt lat="42.267545251691246" lon="19.9368534175799"><ele>168.0</ele><time>2026-05-04T11:22:30Z</time></trkpt><trkpt lat="42.2675495922835" lon="19.93675526162681"><ele>168.0</ele><time>2026-05-04T11:22:32Z</time></trkpt><trkpt lat="42.26755236040925" lon="19.936657778293778"><ele>168.0</ele><time>2026-05-04T11:22:34Z</time></trkpt><trkpt lat="42.267554896998654" lon="19.936560493800293"><ele>168.0</ele><time>2026-05-04T11:22:36Z</time></trkpt><trkpt lat="42.267557112415396" lon="19.936462594649242"><ele>168.0</ele><time>2026-05-04T11:22:38Z</time></trkpt><trkpt lat="42.267558927509555" lon="19.936364682577253"><ele>168.0</ele><time>2026-05-04T11:22:40Z</time></trkpt><trkpt lat="42.267560002207574" lon="19.936267442092852"><ele>168.0</ele><time>2026-05-04T11:22:42Z</time></trkpt><trkpt lat="42.2675605721457" lon="19.936169754649647"><ele>168.0</ele><time>2026-05-04T11:22:44Z</time></trkpt><trkpt lat="42.26756061133794" lon="19.93607279307508"><ele>168.0</ele><time>2026-05-04T11:22:46Z</time></trkpt><trkpt lat="42.2675607868167" lon="19.935975226872124"><ele>168.0</ele><time>2026-05-04T11:22:48Z</time></trkpt><trkpt lat="42.267559977178195" lon="19.93587820679425"><ele>168.0</ele><time>2026-05-04T11:22:50Z</time></trkpt><trkpt lat="42.2675582072597" lon="19.935780692664665"><ele>168.0</ele><time>2026-05-04T11:22:52Z</time></trkpt><trkpt lat="42.2675566219936" lon="19.93568376259793"><ele>168.0</ele><time>2026-05-04T11:22:54Z</time></trkpt><trkpt lat="42.26755383004776" lon="19.935586299189943"><ele>168.0</ele><time>2026-05-04T11:22:56Z</time></trkpt><trkpt lat="42.267551422633396" lon="19.935489086333785"><ele>168.0</ele><time>2026-05-04T11:22:58Z</time></trkpt><trkpt lat="42.26754812082361" lon="19.935391943476635"><ele>168.0</ele><time>2026-05-04T11:23:00Z</time></trkpt><trkpt lat="42.26754581194108" lon="19.93529502179115"><ele>168.0</ele><time>2026-05-04T11:23:02Z</time></trkpt><trkpt lat="42.2675422567472" lon="19.935197895579513"><ele>168.0</ele><time>2026-05-04T11:23:04Z</time></trkpt><trkpt lat="42.26753802214334" lon="19.935100339153536"><ele>168.0</ele><time>2026-05-04T11:23:06.001Z</time></trkpt><trkpt lat="42.26753358566677" lon="19.93500264840415"><ele>168.0</ele><time>2026-05-04T11:23:08.001Z</time></trkpt><trkpt lat="42.267529227225964" lon="19.93490455422441"><ele>167.42857142857142</ele><time>2026-05-04T11:23:10.001Z</time></trkpt><trkpt lat="42.26752535356517" lon="19.934806991208983"><ele>166.85714285714286</ele><time>2026-05-04T11:23:12.001Z</time></trkpt><trkpt lat="42.26751934793873" lon="19.934709530729762"><ele>166.28571428571428</ele><time>2026-05-04T11:23:14.001Z</time></trkpt><trkpt lat="42.26750502247231" lon="19.934611803417408"><ele>165.71428571428572</ele><time>2026-05-04T11:23:16.001Z</time></trkpt><trkpt lat="42.26750003576698" lon="19.934514321779925"><ele>165.14285714285714</ele><time>2026-05-04T11:23:18.001Z</time></trkpt><trkpt lat="42.26749819863919" lon="19.93441566107528"><ele>164.57142857142856</ele><time>2026-05-04T11:23:20.001Z</time></trkpt><trkpt lat="42.26749574184538" lon="19.934316984403374"><ele>164.0</ele><time>2026-05-04T11:23:22.001Z</time></trkpt><trkpt lat="42.267492654643476" lon="19.93421769766764"><ele>165.42857142857142</ele><time>2026-05-04T11:23:24.001Z</time></trkpt><trkpt lat="42.26748879122933" lon="19.934119098627598"><ele>166.85714285714286</ele><time>2026-05-04T11:23:26.001Z</time></trkpt><trkpt lat="42.26748483624392" lon="19.934019720071753"><ele>168.28571428571428</ele><time>2026-05-04T11:23:28.001Z</time></trkpt><trkpt lat="42.26748103628761" lon="19.933920995192526"><ele>169.71428571428572</ele><time>2026-05-04T11:23:30.001Z</time></trkpt><trkpt lat="42.26747584862189" lon="19.93382242544776"><ele>171.14285714285714</ele><time>2026-05-04T11:23:32.001Z</time></trkpt><trkpt lat="42.267471407079846" lon="19.933725129662953"><ele>172.57142857142856</ele><time>2026-05-04T11:23:34.001Z</time></trkpt><trkpt lat="42.26746488561022" lon="19.933626409705845"><ele>174.0</ele><time>2026-05-04T11:23:36.001Z</time></trkpt><trkpt lat="42.26745729251215" lon="19.933527379023623"><ele>174.0</ele><time>2026-05-04T11:23:38.001Z</time></trkpt><trkpt lat="42.26744950541155" lon="19.93342950466613"><ele>174.0</ele><time>2026-05-04T11:23:40.001Z</time></trkpt><trkpt lat="42.26744144649144" lon="19.933331810658142"><ele>174.0</ele><time>2026-05-04T11:23:42.001Z</time></trkpt><trkpt lat="42.26743485974444" lon="19.9332332173415"><ele>174.0</ele><time>2026-05-04T11:23:44.001Z</time></trkpt><trkpt lat="42.267428087219365" lon="19.933134119658558"><ele>174.0</ele><time>2026-05-04T11:23:46.001Z</time></trkpt><trkpt lat="42.26742153617815" lon="19.93303583608839"><ele>174.0</ele><time>2026-05-04T11:23:48.001Z</time></trkpt><trkpt lat="42.267413847756565" lon="19.932936559512182"><ele>174.0</ele><time>2026-05-04T11:23:50.001Z</time></trkpt><trkpt lat="42.26740743133863" lon="19.93283815188815"><ele>174.57142857142856</ele><time>2026-05-04T11:23:52.001Z</time></trkpt><trkpt lat="42.26740048236238" lon="19.932739049376515"><ele>175.14285714285714</ele><time>2026-05-04T11:23:54.001Z</time></trkpt><trkpt lat="42.2673926551485" lon="19.93264023300286"><ele>175.71428571428572</ele><time>2026-05-04T11:23:56.001Z</time></trkpt><trkpt lat="42.267385518786995" lon="19.932540063142017"><ele>176.28571428571428</ele><time>2026-05-04T11:23:58.001Z</time></trkpt><trkpt lat="42.26737902497595" lon="19.93244091594814"><ele>176.85714285714286</ele><time>2026-05-04T11:24:00.001Z</time></trkpt><trkpt lat="42.26737138333282" lon="19.932340439833332"><ele>177.42857142857142</ele><time>2026-05-04T11:24:02.001Z</time></trkpt><trkpt lat="42.26736495062307" lon="19.932240921837547"><ele>178.0</ele><time>2026-05-04T11:24:04.001Z</time></trkpt><trkpt lat="42.26735788480536" lon="19.932142642201406"><ele>178.7142857142857</ele><time>2026-05-04T11:24:06.001Z</time></trkpt><trkpt lat="42.267351633935505" lon="19.932042328968365"><ele>179.42857142857142</ele><time>2026-05-04T11:24:08.001Z</time></trkpt><trkpt lat="42.267345080173385" lon="19.931942858206167"><ele>180.14285714285714</ele><time>2026-05-04T11:24:10Z</time></trkpt><trkpt lat="42.26733833956223" lon="19.931844060054907"><ele>180.85714285714283</ele><time>2026-05-04T11:24:12Z</time></trkpt><trkpt lat="42.26733167949924" lon="19.931745323263026"><ele>181.57142857142858</ele><time>2026-05-04T11:24:14Z</time></trkpt><trkpt lat="42.267325680172455" lon="19.931645947007468"><ele>182.28571428571428</ele><time>2026-05-04T11:24:16Z</time></trkpt><trkpt lat="42.26731947889132" lon="19.9315465237411"><ele>183.0</ele><time>2026-05-04T11:24:18Z</time></trkpt><trkpt lat="42.267311823057554" lon="19.931447404423295"><ele>183.14285714285714</ele><time>2026-05-04T11:24:20Z</time></trkpt><trkpt lat="42.26730451532365" lon="19.931348467396838"><ele>183.28571428571428</ele><time>2026-05-04T11:24:22Z</time></trkpt><trkpt lat="42.2672977498098" lon="19.931248931565225"><ele>183.42857142857144</ele><time>2026-05-04T11:24:24Z</time></trkpt><trkpt lat="42.26729191375323" lon="19.931149485548534"><ele>183.57142857142856</ele><time>2026-05-04T11:24:26Z</time></trkpt><trkpt lat="42.26728649883118" lon="19.931050431878546"><ele>183.7142857142857</ele><time>2026-05-04T11:24:28Z</time></trkpt><trkpt lat="42.267281583184904" lon="19.930951238001324"><ele>183.85714285714286</ele><time>2026-05-04T11:24:30Z</time></trkpt><trkpt lat="42.26727618580135" lon="19.930852113882143"><ele>184.0</ele><time>2026-05-04T11:24:32Z</time></trkpt><trkpt lat="42.26727035663678" lon="19.930752651056867"><ele>183.71428571428572</ele><time>2026-05-04T11:24:34Z</time></trkpt><trkpt lat="42.267262847972276" lon="19.93065362265575"><ele>183.42857142857142</ele><time>2026-05-04T11:24:36Z</time></trkpt><trkpt lat="42.26725505827626" lon="19.93055374647681"><ele>183.14285714285714</ele><time>2026-05-04T11:24:38Z</time></trkpt><trkpt lat="42.26724717701444" lon="19.9304548572204"><ele>182.85714285714286</ele><time>2026-05-04T11:24:40Z</time></trkpt><trkpt lat="42.26724086954988" lon="19.930355553774746"><ele>182.57142857142856</ele><time>2026-05-04T11:24:42Z</time></trkpt><trkpt lat="42.26723272625331" lon="19.93025654916487"><ele>182.28571428571428</ele><time>2026-05-04T11:24:44Z</time></trkpt><trkpt lat="42.267225242092785" lon="19.93015692633306"><ele>182.0</ele><time>2026-05-04T11:24:46Z</time></trkpt><trkpt lat="42.26721835728959" lon="19.930057818584768"><ele>182.0</ele><time>2026-05-04T11:24:48Z</time></trkpt><trkpt lat="42.26721098122713" lon="19.929958364947414"><ele>182.0</ele><time>2026-05-04T11:24:50.001Z</time></trkpt><trkpt lat="42.267204689552" lon="19.929859516562995"><ele>182.0</ele><time>2026-05-04T11:24:52.001Z</time></trkpt><trkpt lat="42.26719738887358" lon="19.92976006226148"><ele>182.0</ele><time>2026-05-04T11:24:54.001Z</time></trkpt><trkpt lat="42.26719073973343" lon="19.92966147397454"><ele>182.0</ele><time>2026-05-04T11:24:56.001Z</time></trkpt><trkpt lat="42.26718400653002" lon="19.929562229648052"><ele>182.0</ele><time>2026-05-04T11:24:58.001Z</time></trkpt><trkpt lat="42.26717552196288" lon="19.929460693376118"><ele>182.0</ele><time>2026-05-04T11:25:00.001Z</time></trkpt><trkpt lat="42.26716860370777" lon="19.92936265301536"><ele>182.0</ele><time>2026-05-04T11:25:02.001Z</time></trkpt><trkpt lat="42.2671617633871" lon="19.92926379701835"><ele>182.0</ele><time>2026-05-04T11:25:04.001Z</time></trkpt><trkpt lat="42.26715380569703" lon="19.929164302154593"><ele>182.0</ele><time>2026-05-04T11:25:06.001Z</time></trkpt><trkpt lat="42.26714686606923" lon="19.92906403832801"><ele>182.0</ele><time>2026-05-04T11:25:08.001Z</time></trkpt><trkpt lat="42.26713948447965" lon="19.928964975436575"><ele>182.0</ele><time>2026-05-04T11:25:10.001Z</time></trkpt><trkpt lat="42.267133429371114" lon="19.928864374953903"><ele>182.0</ele><time>2026-05-04T11:25:12.001Z</time></trkpt><trkpt lat="42.26712774340125" lon="19.92876439627936"><ele>182.0</ele><time>2026-05-04T11:25:14.001Z</time></trkpt><trkpt lat="42.26712201685347" lon="19.92866438263356"><ele>181.14285714285714</ele><time>2026-05-04T11:25:16.001Z</time></trkpt><trkpt lat="42.26711553244129" lon="19.92856463789268"><ele>180.28571428571428</ele><time>2026-05-04T11:25:18.001Z</time></trkpt><trkpt lat="42.26710923773633" lon="19.92846511280428"><ele>179.42857142857144</ele><time>2026-05-04T11:25:20.001Z</time></trkpt><trkpt lat="42.267103308571826" lon="19.928365222755605"><ele>178.57142857142856</ele><time>2026-05-04T11:25:22.001Z</time></trkpt><trkpt lat="42.26709749408316" lon="19.928266984514558"><ele>177.71428571428572</ele><time>2026-05-04T11:25:24.001Z</time></trkpt><trkpt lat="42.26709038328424" lon="19.928168260730818"><ele>176.85714285714286</ele><time>2026-05-04T11:25:26.001Z</time></trkpt><trkpt lat="42.26708272563486" lon="19.92806896280744"><ele>176.0</ele><time>2026-05-04T11:25:28.001Z</time></trkpt><trkpt lat="42.26707526140515" lon="19.927970097715967"><ele>176.0</ele><time>2026-05-04T11:25:30.001Z</time></trkpt><trkpt lat="42.26706903423872" lon="19.927870697591683"><ele>176.0</ele><time>2026-05-04T11:25:32.001Z</time></trkpt><trkpt lat="42.26706266012988" lon="19.92777167549315"><ele>176.0</ele><time>2026-05-04T11:25:34.001Z</time></trkpt><trkpt lat="42.26705584456226" lon="19.927672993892305"><ele>176.0</ele><time>2026-05-04T11:25:36.001Z</time></trkpt><trkpt lat="42.26705006506297" lon="19.927573807061957"><ele>176.0</ele><time>2026-05-04T11:25:38.001Z</time></trkpt><trkpt lat="42.267044414600996" lon="19.927473396219483"><ele>176.0</ele><time>2026-05-04T11:25:40.001Z</time></trkpt><trkpt lat="42.26703720323184" lon="19.927374356980895"><ele>176.0</ele><time>2026-05-04T11:25:42.001Z</time></trkpt><trkpt lat="42.26703232414205" lon="19.92727446996194"><ele>176.28571428571428</ele><time>2026-05-04T11:25:44.001Z</time></trkpt><trkpt lat="42.267027271528065" lon="19.927174762683485"><ele>176.57142857142856</ele><time>2026-05-04T11:25:46.001Z</time></trkpt><trkpt lat="42.267022204329265" lon="19.9270747528319"><ele>176.85714285714283</ele><time>2026-05-04T11:25:48.001Z</time></trkpt><trkpt lat="42.26701653341875" lon="19.92697657436931"><ele>177.14285714285714</ele><time>2026-05-04T11:25:50.001Z</time></trkpt><trkpt lat="42.26701101894216" lon="19.926876389180357"><ele>177.42857142857142</ele><time>2026-05-04T11:25:52.001Z</time></trkpt><trkpt lat="42.26700574422029" lon="19.926777250295082"><ele>177.7142857142857</ele><time>2026-05-04T11:25:54.001Z</time></trkpt><trkpt lat="42.266998041408236" lon="19.926678336350154"><ele>178.0</ele><time>2026-05-04T11:25:56.001Z</time></trkpt><trkpt lat="42.266990192227915" lon="19.926580895136595"><ele>177.99999999999997</ele><time>2026-05-04T11:25:58.001Z</time></trkpt><trkpt lat="42.26698081647445" lon="19.92648168162345"><ele>178.0</ele><time>2026-05-04T11:26:00.001Z</time></trkpt><trkpt lat="42.26697123483308" lon="19.926383743381074"><ele>178.0</ele><time>2026-05-04T11:26:02.001Z</time></trkpt><trkpt lat="42.266961821255215" lon="19.926285544247868"><ele>178.0</ele><time>2026-05-04T11:26:04.001Z</time></trkpt><trkpt lat="42.26695257357835" lon="19.926187338792356"><ele>178.0</ele><time>2026-05-04T11:26:06.001Z</time></trkpt><trkpt lat="42.26694116230221" lon="19.926090499228742"><ele>177.99999999999997</ele><time>2026-05-04T11:26:08.001Z</time></trkpt><trkpt lat="42.26693042928072" lon="19.925993535082398"><ele>178.0</ele><time>2026-05-04T11:26:10.001Z</time></trkpt><trkpt lat="42.26691958778713" lon="19.925896593734855"><ele>178.85714285714283</ele><time>2026-05-04T11:26:12.001Z</time></trkpt><trkpt lat="42.2669072531842" lon="19.92580021310283"><ele>179.71428571428572</ele><time>2026-05-04T11:26:14.001Z</time></trkpt><trkpt lat="42.26689365124605" lon="19.92570412257026"><ele>180.57142857142856</ele><time>2026-05-04T11:26:16.001Z</time></trkpt><trkpt lat="42.26687992537345" lon="19.925606613800174"><ele>181.42857142857142</ele><time>2026-05-04T11:26:18.001Z</time></trkpt><trkpt lat="42.26686909711089" lon="19.9255111647704"><ele>182.28571428571428</ele><time>2026-05-04T11:26:20Z</time></trkpt><trkpt lat="42.26685746481246" lon="19.925414973971723"><ele>183.14285714285714</ele><time>2026-05-04T11:26:22Z</time></trkpt><trkpt lat="42.266844900462175" lon="19.925318984104667"><ele>184.0</ele><time>2026-05-04T11:26:24Z</time></trkpt><trkpt lat="42.26683312572181" lon="19.9252243725864"><ele>184.0</ele><time>2026-05-04T11:26:26Z</time></trkpt><trkpt lat="42.266821004826475" lon="19.925126880086022"><ele>184.0</ele><time>2026-05-04T11:26:28Z</time></trkpt><trkpt lat="42.26680763921145" lon="19.925031448317203"><ele>184.0</ele><time>2026-05-04T11:26:30Z</time></trkpt><trkpt lat="42.26679270558891" lon="19.924934279855307"><ele>184.0</ele><time>2026-05-04T11:26:32Z</time></trkpt><trkpt lat="42.26677624563657" lon="19.9248395050536"><ele>184.0</ele><time>2026-05-04T11:26:34Z</time></trkpt><trkpt lat="42.266758798492056" lon="19.924744130687873"><ele>184.0</ele><time>2026-05-04T11:26:36Z</time></trkpt><trkpt lat="42.266739506168996" lon="19.92464928812248"><ele>184.0</ele><time>2026-05-04T11:26:38Z</time></trkpt><trkpt lat="42.26672039761808" lon="19.92455407132422"><ele>184.0</ele><time>2026-05-04T11:26:40Z</time></trkpt><trkpt lat="42.26670085731007" lon="19.924458970458208"><ele>184.0</ele><time>2026-05-04T11:26:42Z</time></trkpt><trkpt lat="42.266680623747156" lon="19.924363525088705"><ele>184.0</ele><time>2026-05-04T11:26:44Z</time></trkpt><trkpt lat="42.266661311428706" lon="19.924267258324004"><ele>184.0</ele><time>2026-05-04T11:26:46Z</time></trkpt><trkpt lat="42.26664140168241" lon="19.924172279278018"><ele>184.0</ele><time>2026-05-04T11:26:48Z</time></trkpt><trkpt lat="42.266619835967035" lon="19.92407691211083"><ele>184.0</ele><time>2026-05-04T11:26:50Z</time></trkpt><trkpt lat="42.266599175733575" lon="19.923981380856606"><ele>184.0</ele><time>2026-05-04T11:26:52Z</time></trkpt><trkpt lat="42.26657861942405" lon="19.923885839365273"><ele>186.57142857142858</ele><time>2026-05-04T11:26:54Z</time></trkpt><trkpt lat="42.26655732318858" lon="19.923791118295124"><ele>189.14285714285714</ele><time>2026-05-04T11:26:56Z</time></trkpt><trkpt lat="42.26653532257887" lon="19.92369602991494"><ele>191.71428571428572</ele><time>2026-05-04T11:26:58Z</time></trkpt><trkpt lat="42.26651391075418" lon="19.923600793902626"><ele>194.28571428571428</ele><time>2026-05-04T11:27:00Z</time></trkpt><trkpt lat="42.26649328049486" lon="19.923505644040524"><ele>196.85714285714283</ele><time>2026-05-04T11:27:02.001Z</time></trkpt><trkpt lat="42.2664722890241" lon="19.92340938911903"><ele>199.42857142857142</ele><time>2026-05-04T11:27:04.001Z</time></trkpt><trkpt lat="42.266452389394935" lon="19.923312046058886"><ele>202.0</ele><time>2026-05-04T11:27:06.001Z</time></trkpt><trkpt lat="42.26643223606567" lon="19.923213938968075"><ele>202.0</ele><time>2026-05-04T11:27:08.001Z</time></trkpt><trkpt lat="42.266413109715536" lon="19.92311617570381"><ele>202.0</ele><time>2026-05-04T11:27:10.001Z</time></trkpt><trkpt lat="42.266392655175984" lon="19.923019250131155"><ele>202.0</ele><time>2026-05-04T11:27:12.001Z</time></trkpt><trkpt lat="42.26637330818778" lon="19.922922069126177"><ele>202.0</ele><time>2026-05-04T11:27:14.001Z</time></trkpt><trkpt lat="42.26635410760956" lon="19.922825367870107"><ele>202.0</ele><time>2026-05-04T11:27:16.001Z</time></trkpt><trkpt lat="42.26633523224466" lon="19.922730080838498"><ele>202.0</ele><time>2026-05-04T11:27:18.001Z</time></trkpt><trkpt lat="42.266314695445864" lon="19.922634913150624"><ele>202.0</ele><time>2026-05-04T11:27:20.001Z</time></trkpt><trkpt lat="42.26629318833154" lon="19.922539588180967"><ele>201.28571428571428</ele><time>2026-05-04T11:27:22.001Z</time></trkpt><trkpt lat="42.26627183046029" lon="19.92244408377601"><ele>200.57142857142856</ele><time>2026-05-04T11:27:24.001Z</time></trkpt><trkpt lat="42.26624881142899" lon="19.922349384939256"><ele>199.85714285714286</ele><time>2026-05-04T11:27:26.001Z</time></trkpt><trkpt lat="42.26622502703118" lon="19.92225431279288"><ele>199.14285714285714</ele><time>2026-05-04T11:27:28.001Z</time></trkpt><trkpt lat="42.26620163150604" lon="19.922160035462195"><ele>198.42857142857144</ele><time>2026-05-04T11:27:30.001Z</time></trkpt><trkpt lat="42.26617655672163" lon="19.922066000403166"><ele>197.71428571428572</ele><time>2026-05-04T11:27:32.001Z</time></trkpt><trkpt lat="42.26615012076348" lon="19.921972916234107"><ele>197.0</ele><time>2026-05-04T11:27:34.001Z</time></trkpt><trkpt lat="42.266123576278744" lon="19.92187997859266"><ele>197.0</ele><time>2026-05-04T11:27:36.001Z</time></trkpt><trkpt lat="42.26609614279266" lon="19.92178755113037"><ele>197.0</ele><time>2026-05-04T11:27:38.001Z</time></trkpt><trkpt lat="42.26606877998305" lon="19.921696152817518"><ele>197.0</ele><time>2026-05-04T11:27:40.001Z</time></trkpt><trkpt lat="42.266039376919736" lon="19.921605262275637"><ele>197.0</ele><time>2026-05-04T11:27:42.001Z</time></trkpt><trkpt lat="42.266011023492354" lon="19.921514504613015"><ele>197.0</ele><time>2026-05-04T11:27:44.001Z</time></trkpt><trkpt lat="42.265981453137876" lon="19.921424518192826"><ele>197.0</ele><time>2026-05-04T11:27:46.001Z</time></trkpt><trkpt lat="42.26594990520082" lon="19.921336075530398"><ele>197.0</ele><time>2026-05-04T11:27:48.001Z</time></trkpt><trkpt lat="42.265915166421344" lon="19.921248957924252"><ele>197.0</ele><time>2026-05-04T11:27:50.001Z</time></trkpt><trkpt lat="42.265879580596525" lon="19.921162144649774"><ele>197.0</ele><time>2026-05-04T11:27:52.001Z</time></trkpt><trkpt lat="42.26584291114355" lon="19.921076536639667"><ele>197.0</ele><time>2026-05-04T11:27:54.001Z</time></trkpt><trkpt lat="42.26580718869508" lon="19.920991030903025"><ele>197.0</ele><time>2026-05-04T11:27:56.001Z</time></trkpt><trkpt lat="42.26576994169442" lon="19.920906046953938"><ele>197.0</ele><time>2026-05-04T11:27:58.001Z</time></trkpt><trkpt lat="42.2657351922149" lon="19.920825963880038"><ele>197.0</ele><time>2026-05-04T11:28:00.001Z</time></trkpt><trkpt lat="42.26569869068769" lon="19.92073851512269"><ele>197.0</ele><time>2026-05-04T11:28:02.001Z</time></trkpt><trkpt lat="42.26565919042704" lon="19.920657101394177"><ele>202.28571428571428</ele><time>2026-05-04T11:28:04.001Z</time></trkpt><trkpt lat="42.26561939257375" lon="19.920574325873115"><ele>207.57142857142858</ele><time>2026-05-04T11:28:06.001Z</time></trkpt><trkpt lat="42.265579459723114" lon="19.920491860040265"><ele>212.85714285714286</ele><time>2026-05-04T11:28:08.001Z</time></trkpt><trkpt lat="42.265539044564484" lon="19.920408438029032"><ele>218.14285714285717</ele><time>2026-05-04T11:28:10.001Z</time></trkpt><trkpt lat="42.26549806467268" lon="19.920325772501013"><ele>223.42857142857144</ele><time>2026-05-04T11:28:12.001Z</time></trkpt><trkpt lat="42.26545702294319" lon="19.920243351521965"><ele>228.71428571428572</ele><time>2026-05-04T11:28:14.001Z</time></trkpt><trkpt lat="42.26541719918122" lon="19.920160949329816"><ele>234.0</ele><time>2026-05-04T11:28:16.001Z</time></trkpt><trkpt lat="42.265377770834924" lon="19.920077969405607"><ele>231.0</ele><time>2026-05-04T11:28:18.001Z</time></trkpt><trkpt lat="42.2653371486883" lon="19.919994138902254"><ele>228.00000000000003</ele><time>2026-05-04T11:28:20.001Z</time></trkpt><trkpt lat="42.26529600200129" lon="19.919912080447826"><ele>225.0</ele><time>2026-05-04T11:28:22.001Z</time></trkpt><trkpt lat="42.26525331517727" lon="19.919829335466105"><ele>222.0</ele><time>2026-05-04T11:28:24.001Z</time></trkpt><trkpt lat="42.26521290118321" lon="19.91974558895403"><ele>219.0</ele><time>2026-05-04T11:28:26.001Z</time></trkpt><trkpt lat="42.26517117518988" lon="19.919661962078045"><ele>216.0</ele><time>2026-05-04T11:28:28.001Z</time></trkpt><trkpt lat="42.265129088655705" lon="19.91957983235646"><ele>213.0</ele><time>2026-05-04T11:28:30.001Z</time></trkpt><trkpt lat="42.26508622012365" lon="19.919497473137064"><ele>212.99999999999997</ele><time>2026-05-04T11:28:32.001Z</time></trkpt><trkpt lat="42.2650429818122" lon="19.919414883936724"><ele>213.0</ele><time>2026-05-04T11:28:34.001Z</time></trkpt><trkpt lat="42.26499970920267" lon="19.9193328945524"><ele>213.0</ele><time>2026-05-04T11:28:36.001Z</time></trkpt><trkpt lat="42.264955474411096" lon="19.91925092693628"><ele>213.0</ele><time>2026-05-04T11:28:38.001Z</time></trkpt><trkpt lat="42.2649120182861" lon="19.91916965026519"><ele>213.0</ele><time>2026-05-04T11:28:40.001Z</time></trkpt><trkpt lat="42.26486745671543" lon="19.919087207740823"><ele>212.99999999999997</ele><time>2026-05-04T11:28:42.001Z</time></trkpt><trkpt lat="42.26482195047889" lon="19.919007128230305"><ele>213.0</ele><time>2026-05-04T11:28:44.001Z</time></trkpt><trkpt lat="42.26477651113764" lon="19.9189266391211"><ele>212.99999999999997</ele><time>2026-05-04T11:28:46.001Z</time></trkpt><trkpt lat="42.26473233514619" lon="19.918845615728657"><ele>213.0</ele><time>2026-05-04T11:28:48.001Z</time></trkpt><trkpt lat="42.26468790387936" lon="19.918763564091687"><ele>213.0</ele><time>2026-05-04T11:28:50.001Z</time></trkpt><trkpt lat="42.264643132637495" lon="19.9186832219715"><ele>213.0</ele><time>2026-05-04T11:28:52.001Z</time></trkpt><trkpt lat="42.26459755730613" lon="19.91860405064313"><ele>213.0</ele><time>2026-05-04T11:28:54.001Z</time></trkpt><trkpt lat="42.26455277785074" lon="19.918523090400576"><ele>212.99999999999997</ele><time>2026-05-04T11:28:56.001Z</time></trkpt><trkpt lat="42.2645067507535" lon="19.91844280504753"><ele>213.0</ele><time>2026-05-04T11:28:58.001Z</time></trkpt><trkpt lat="42.26446039531089" lon="19.91836298772239"><ele>213.0</ele><time>2026-05-04T11:29:00.001Z</time></trkpt><trkpt lat="42.26441495394037" lon="19.918282928362835"><ele>213.0</ele><time>2026-05-04T11:29:02.001Z</time></trkpt><trkpt lat="42.264369251347084" lon="19.918201956220486"><ele>213.0</ele><time>2026-05-04T11:29:04.001Z</time></trkpt><trkpt lat="42.2643239170954" lon="19.9181211681132"><ele>213.0</ele><time>2026-05-04T11:29:06.001Z</time></trkpt><trkpt lat="42.264277870109474" lon="19.918041333003625"><ele>213.0</ele><time>2026-05-04T11:29:08.001Z</time></trkpt><trkpt lat="42.26423177079961" lon="19.9179612491799"><ele>213.0</ele><time>2026-05-04T11:29:10.001Z</time></trkpt><trkpt lat="42.26418544213566" lon="19.917881809679827"><ele>212.99999999999997</ele><time>2026-05-04T11:29:12.001Z</time></trkpt><trkpt lat="42.26413920720222" lon="19.917800722111004"><ele>213.0</ele><time>2026-05-04T11:29:14.001Z</time></trkpt><trkpt lat="42.26409446771893" lon="19.917720656154504"><ele>213.0</ele><time>2026-05-04T11:29:16.001Z</time></trkpt><trkpt lat="42.26404885042423" lon="19.917641814129762"><ele>213.0</ele><time>2026-05-04T11:29:18.001Z</time></trkpt><trkpt lat="42.26400253382404" lon="19.917561844496575"><ele>213.0</ele><time>2026-05-04T11:29:20.001Z</time></trkpt><trkpt lat="42.26395574228729" lon="19.91748329394876"><ele>212.99999999999997</ele><time>2026-05-04T11:29:22.001Z</time></trkpt><trkpt lat="42.26390819598492" lon="19.917404450047968"><ele>213.0</ele><time>2026-05-04T11:29:24.001Z</time></trkpt><trkpt lat="42.263860601029506" lon="19.91732606420561"><ele>213.0</ele><time>2026-05-04T11:29:26.001Z</time></trkpt><trkpt lat="42.2638133068524" lon="19.91724863073476"><ele>213.0</ele><time>2026-05-04T11:29:28.001Z</time></trkpt><trkpt lat="42.263764782111664" lon="19.917170241214112"><ele>213.0</ele><time>2026-05-04T11:29:30.001Z</time></trkpt><trkpt lat="42.26371635328978" lon="19.9170915859746"><ele>213.0</ele><time>2026-05-04T11:29:32.001Z</time></trkpt><trkpt lat="42.2636672384818" lon="19.917014438968703"><ele>213.0</ele><time>2026-05-04T11:29:34.001Z</time></trkpt><trkpt lat="42.26361858757322" lon="19.91693586130898"><ele>213.0</ele><time>2026-05-04T11:29:36.001Z</time></trkpt><trkpt lat="42.263570522590136" lon="19.91685835374506"><ele>212.99999999999997</ele><time>2026-05-04T11:29:38.001Z</time></trkpt><trkpt lat="42.26352235901583" lon="19.916781191477124"><ele>213.0</ele><time>2026-05-04T11:29:40.001Z</time></trkpt><trkpt lat="42.263473882045545" lon="19.916703701908197"><ele>213.0</ele><time>2026-05-04T11:29:42.001Z</time></trkpt><trkpt lat="42.263426461183734" lon="19.91662539009491"><ele>213.0</ele><time>2026-05-04T11:29:44.001Z</time></trkpt><trkpt lat="42.26337879049247" lon="19.916547391375342"><ele>213.0</ele><time>2026-05-04T11:29:46.001Z</time></trkpt><trkpt lat="42.26333143644602" lon="19.916468734055158"><ele>212.99999999999997</ele><time>2026-05-04T11:29:48.001Z</time></trkpt><trkpt lat="42.26328463725941" lon="19.91639151664717"><ele>213.0</ele><time>2026-05-04T11:29:50.001Z</time></trkpt><trkpt lat="42.26323526955346" lon="19.91631513310995"><ele>212.99999999999997</ele><time>2026-05-04T11:29:52.001Z</time></trkpt><trkpt lat="42.2631889273093" lon="19.916238313441024"><ele>213.0</ele><time>2026-05-04T11:29:54.001Z</time></trkpt><trkpt lat="42.26314054630477" lon="19.916162728485013"><ele>213.0</ele><time>2026-05-04T11:29:56.001Z</time></trkpt><trkpt lat="42.263092609919525" lon="19.91608483393898"><ele>213.0</ele><time>2026-05-04T11:29:58.001Z</time></trkpt><trkpt lat="42.263043832502724" lon="19.91600734349557"><ele>213.0</ele><time>2026-05-04T11:30:00.001Z</time></trkpt><trkpt lat="42.2629947013965" lon="19.915930030390637"><ele>212.99999999999997</ele><time>2026-05-04T11:30:02.001Z</time></trkpt><trkpt lat="42.2629460842474" lon="19.915853262406387"><ele>213.0</ele><time>2026-05-04T11:30:04.001Z</time></trkpt><trkpt lat="42.262894980927484" lon="19.915775255283968"><ele>212.99999999999997</ele><time>2026-05-04T11:30:06.001Z</time></trkpt><trkpt lat="42.26284206752895" lon="19.91570025065059"><ele>213.0</ele><time>2026-05-04T11:30:08.001Z</time></trkpt><trkpt lat="42.262794021825876" lon="19.91562666531667"><ele>213.0</ele><time>2026-05-04T11:30:10.001Z</time></trkpt><trkpt lat="42.26275572710829" lon="19.915552440702154"><ele>213.0</ele><time>2026-05-04T11:30:12.001Z</time></trkpt><trkpt lat="42.26270096124274" lon="19.915473241031894"><ele>213.0</ele><time>2026-05-04T11:30:14Z</time></trkpt><trkpt lat="42.262651722446286" lon="19.91539999587085"><ele>212.99999999999997</ele><time>2026-05-04T11:30:16Z</time></trkpt><trkpt lat="42.26259798351152" lon="19.915327019134843"><ele>213.0</ele><time>2026-05-04T11:30:18Z</time></trkpt><trkpt lat="42.262551991562" lon="19.915249323265574"><ele>212.99999999999997</ele><time>2026-05-04T11:30:20Z</time></trkpt><trkpt lat="42.262496210118535" lon="19.915180623757763"><ele>213.0</ele><time>2026-05-04T11:30:22Z</time></trkpt><trkpt lat="42.262445882682" lon="19.91510747756446"><ele>213.0</ele><time>2026-05-04T11:30:24Z</time></trkpt><trkpt lat="42.26238975934152" lon="19.91503799423894"><ele>213.0</ele><time>2026-05-04T11:30:26Z</time></trkpt><trkpt lat="42.26233717387176" lon="19.914968951081296"><ele>213.0</ele><time>2026-05-04T11:30:28Z</time></trkpt><trkpt lat="42.26227893186353" lon="19.91490018066017"><ele>212.99999999999997</ele><time>2026-05-04T11:30:30Z</time></trkpt><trkpt lat="42.26222514234272" lon="19.914839041070245"><ele>213.0</ele><time>2026-05-04T11:30:32Z</time></trkpt><trkpt lat="42.26216974308269" lon="19.91475429008723"><ele>212.99999999999997</ele><time>2026-05-04T11:30:35Z</time></trkpt><trkpt lat="42.262123066366904" lon="19.914689841087235"><ele>213.0</ele><time>2026-05-04T11:30:37Z</time></trkpt><trkpt lat="42.26205203500195" lon="19.914620072516787"><ele>213.0</ele><time>2026-05-04T11:30:39Z</time></trkpt><trkpt lat="42.26200680878122" lon="19.91455785225359"><ele>213.0</ele><time>2026-05-04T11:30:41Z</time></trkpt><trkpt lat="42.26194899789089" lon="19.914504189618135"><ele>213.0</ele><time>2026-05-04T11:30:43Z</time></trkpt><trkpt lat="42.261891890257154" lon="19.914438446026722"><ele>212.99999999999997</ele><time>2026-05-04T11:30:45Z</time></trkpt><trkpt lat="42.26183420733272" lon="19.91437455508903"><ele>213.0</ele><time>2026-05-04T11:30:47Z</time></trkpt><trkpt lat="42.261773694828754" lon="19.91430875770061"><ele>213.0</ele><time>2026-05-04T11:30:49Z</time></trkpt><trkpt lat="42.261727058148246" lon="19.914228752219202"><ele>213.0</ele><time>2026-05-04T11:30:51Z</time></trkpt><trkpt lat="42.26165425990267" lon="19.914156448563936"><ele>213.0</ele><time>2026-05-04T11:30:53Z</time></trkpt><trkpt lat="42.261591808821024" lon="19.9140791672308"><ele>213.0</ele><time>2026-05-04T11:30:55Z</time></trkpt><trkpt lat="42.26153598028542" lon="19.914000517253204"><ele>213.0</ele><time>2026-05-04T11:30:57Z</time></trkpt><trkpt lat="42.26147742530135" lon="19.913919772349185"><ele>213.0</ele><time>2026-05-04T11:30:59Z</time></trkpt><trkpt lat="42.26141028029758" lon="19.91385052625937"><ele>213.0</ele><time>2026-05-04T11:31:01Z</time></trkpt><trkpt lat="42.26134162689643" lon="19.913789058411737"><ele>213.0</ele><time>2026-05-04T11:31:03Z</time></trkpt><trkpt lat="42.26127240948725" lon="19.9137313843179"><ele>213.0</ele><time>2026-05-04T11:31:05Z</time></trkpt><trkpt lat="42.2611963625185" lon="19.9136600900441"><ele>213.0</ele><time>2026-05-04T11:31:07Z</time></trkpt><trkpt lat="42.2611225540244" lon="19.913571167741985"><ele>213.0</ele><time>2026-05-04T11:31:09Z</time></trkpt><trkpt lat="42.26104272944184" lon="19.913504293497216"><ele>213.0</ele><time>2026-05-04T11:31:11Z</time></trkpt><trkpt lat="42.260952682382175" lon="19.913419836421486"><ele>213.0</ele><time>2026-05-04T11:31:13Z</time></trkpt><trkpt lat="42.260894267817115" lon="19.913334233077123"><ele>213.0</ele><time>2026-05-04T11:31:15Z</time></trkpt><trkpt lat="42.26081417063397" lon="19.913253022923584"><ele>213.0</ele><time>2026-05-04T11:31:17Z</time></trkpt><trkpt lat="42.26075005577684" lon="19.913170866885963"><ele>213.0</ele><time>2026-05-04T11:31:19Z</time></trkpt><trkpt lat="42.260682527533525" lon="19.91309823344957"><ele>213.0</ele><time>2026-05-04T11:31:21Z</time></trkpt><trkpt lat="42.26062014714406" lon="19.9130266215919"><ele>213.0</ele><time>2026-05-04T11:31:23Z</time></trkpt><trkpt lat="42.26056001650577" lon="19.912955886013776"><ele>213.0</ele><time>2026-05-04T11:31:25Z</time></trkpt><trkpt lat="42.26049866093767" lon="19.91289093720944"><ele>213.0</ele><time>2026-05-04T11:31:27Z</time></trkpt><trkpt lat="42.26043619927672" lon="19.912829386542143"><ele>213.0</ele><time>2026-05-04T11:31:29Z</time></trkpt><trkpt lat="42.26037371778535" lon="19.91276731407228"><ele>213.0</ele><time>2026-05-04T11:31:31Z</time></trkpt><trkpt lat="42.26031296688522" lon="19.912705084187426"><ele>213.0</ele><time>2026-05-04T11:31:33Z</time></trkpt><trkpt lat="42.260251346464464" lon="19.91264322301083"><ele>213.0</ele><time>2026-05-04T11:31:35Z</time></trkpt><trkpt lat="42.26018927439784" lon="19.912581087847077"><ele>213.0</ele><time>2026-05-04T11:31:37Z</time></trkpt><trkpt lat="42.26012631335841" lon="19.9125221987135"><ele>213.0</ele><time>2026-05-04T11:31:39Z</time></trkpt><trkpt lat="42.2600634365623" lon="19.912466466989347"><ele>213.0</ele><time>2026-05-04T11:31:41Z</time></trkpt><trkpt lat="42.26000036050412" lon="19.91241113515819"><ele>213.0</ele><time>2026-05-04T11:31:43Z</time></trkpt><trkpt lat="42.25993737809745" lon="19.91235624998016"><ele>213.0</ele><time>2026-05-04T11:31:45Z</time></trkpt><trkpt lat="42.25987259221672" lon="19.912302553188123"><ele>213.0</ele><time>2026-05-04T11:31:47Z</time></trkpt><trkpt lat="42.25980892664803" lon="19.912255448942272"><ele>213.0</ele><time>2026-05-04T11:31:49Z</time></trkpt><trkpt lat="42.25974718584483" lon="19.91220324284724"><ele>213.0</ele><time>2026-05-04T11:31:51Z</time></trkpt><trkpt lat="42.25967011736365" lon="19.912141944166784"><ele>213.0</ele><time>2026-05-04T11:31:54Z</time></trkpt><trkpt lat="42.25959380985193" lon="19.912063612175544"><ele>213.0</ele><time>2026-05-04T11:31:57Z</time></trkpt><trkpt lat="42.2595237672839" lon="19.912029598260002"><ele>213.0</ele><time>2026-05-04T11:31:59Z</time></trkpt><trkpt lat="42.25944990216131" lon="19.911973304794966"><ele>213.0</ele><time>2026-05-04T11:32:01Z</time></trkpt><trkpt lat="42.25938036121862" lon="19.911929675373592"><ele>213.0</ele><time>2026-05-04T11:32:03Z</time></trkpt><trkpt lat="42.259307571435066" lon="19.911900907911253"><ele>213.0</ele><time>2026-05-04T11:32:05Z</time></trkpt><trkpt lat="42.259227701577935" lon="19.91186447599029"><ele>213.0</ele><time>2026-05-04T11:32:07Z</time></trkpt><trkpt lat="42.2591604326618" lon="19.911823894528393"><ele>213.0</ele><time>2026-05-04T11:32:09Z</time></trkpt><trkpt lat="42.25908644945057" lon="19.91179424483952"><ele>213.0</ele><time>2026-05-04T11:32:11Z</time></trkpt><trkpt lat="42.25901403783479" lon="19.911766736135803"><ele>213.0</ele><time>2026-05-04T11:32:13Z</time></trkpt><trkpt lat="42.25893969647304" lon="19.91173887863458"><ele>213.0</ele><time>2026-05-04T11:32:15Z</time></trkpt><trkpt lat="42.258864508654106" lon="19.9117145021256"><ele>213.0</ele><time>2026-05-04T11:32:17Z</time></trkpt><trkpt lat="42.25879042388812" lon="19.91168870562964"><ele>213.0</ele><time>2026-05-04T11:32:19Z</time></trkpt><trkpt lat="42.25871576882368" lon="19.911665341728625"><ele>213.0</ele><time>2026-05-04T11:32:21Z</time></trkpt><trkpt lat="42.25864244493794" lon="19.911641279623613"><ele>213.0</ele><time>2026-05-04T11:32:23Z</time></trkpt><trkpt lat="42.25856959321783" lon="19.911618276000425"><ele>213.0</ele><time>2026-05-04T11:32:25Z</time></trkpt><trkpt lat="42.25849717210739" lon="19.911598333010726"><ele>212.99999999999997</ele><time>2026-05-04T11:32:27Z</time></trkpt><trkpt lat="42.25842491658435" lon="19.911577404002973"><ele>213.0</ele><time>2026-05-04T11:32:29Z</time></trkpt><trkpt lat="42.258353151022746" lon="19.911558430752482"><ele>213.0</ele><time>2026-05-04T11:32:31Z</time></trkpt><trkpt lat="42.25828152956458" lon="19.911539650772482"><ele>213.0</ele><time>2026-05-04T11:32:33Z</time></trkpt><trkpt lat="42.258209764603855" lon="19.91152055436724"><ele>213.0</ele><time>2026-05-04T11:32:35Z</time></trkpt><trkpt lat="42.25813617842975" lon="19.911501405150865"><ele>212.99999999999997</ele><time>2026-05-04T11:32:37Z</time></trkpt><trkpt lat="42.2580638052179" lon="19.911482449613207"><ele>213.0</ele><time>2026-05-04T11:32:39Z</time></trkpt><trkpt lat="42.257992269703365" lon="19.91145822415031"><ele>212.99999999999997</ele><time>2026-05-04T11:32:41Z</time></trkpt><trkpt lat="42.25791232361192" lon="19.911429091147358"><ele>213.0</ele><time>2026-05-04T11:32:44Z</time></trkpt><trkpt lat="42.2578324987003" lon="19.911401030048122"><ele>213.0</ele><time>2026-05-04T11:32:47Z</time></trkpt><trkpt lat="42.257765143443685" lon="19.911387066716333"><ele>213.0</ele><time>2026-05-04T11:32:49Z</time></trkpt><trkpt lat="42.25769920736596" lon="19.911372612208467"><ele>213.0</ele><time>2026-05-04T11:32:51Z</time></trkpt><trkpt lat="42.257627542734646" lon="19.911355590728142"><ele>212.99999999999997</ele><time>2026-05-04T11:32:53Z</time></trkpt><trkpt lat="42.25755411321479" lon="19.911332288216816"><ele>213.0</ele><time>2026-05-04T11:32:56Z</time></trkpt><trkpt lat="42.25746488803632" lon="19.911309754794118"><ele>213.0</ele><time>2026-05-04T11:32:59Z</time></trkpt><trkpt lat="42.25737756900739" lon="19.911300498193143"><ele>213.0</ele><time>2026-05-04T11:33:02Z</time></trkpt><trkpt lat="42.25728941908539" lon="19.91127371372594"><ele>213.0</ele><time>2026-05-04T11:33:05Z</time></trkpt><trkpt lat="42.25718873221254" lon="19.911248308857363"><ele>213.0</ele><time>2026-05-04T11:33:08Z</time></trkpt><trkpt lat="42.25710868096333" lon="19.911222496808907"><ele>213.0</ele><time>2026-05-04T11:33:10Z</time></trkpt><trkpt lat="42.257022441478874" lon="19.911192598742865"><ele>213.0</ele><time>2026-05-04T11:33:12Z</time></trkpt><trkpt lat="42.256948359393654" lon="19.911169339931224"><ele>213.0</ele><time>2026-05-04T11:33:14Z</time></trkpt><trkpt lat="42.25685140808421" lon="19.91113555212352"><ele>213.0</ele><time>2026-05-04T11:33:16Z</time></trkpt><trkpt lat="42.256773587372145" lon="19.911117395968734"><ele>213.0</ele><time>2026-05-04T11:33:18Z</time></trkpt><trkpt lat="42.256698766030354" lon="19.911094541999145"><ele>213.0</ele><time>2026-05-04T11:33:20Z</time></trkpt><trkpt lat="42.256624155652176" lon="19.91107441904098"><ele>213.0</ele><time>2026-05-04T11:33:22Z</time></trkpt><trkpt lat="42.25655048131292" lon="19.911048764212456"><ele>206.33333333333334</ele><time>2026-05-04T11:33:24Z</time></trkpt><trkpt lat="42.25648525572755" lon="19.91102557307417"><ele>199.66666666666666</ele><time>2026-05-04T11:33:26Z</time></trkpt><trkpt lat="42.2564125003828" lon="19.9110016227489"><ele>193.0</ele><time>2026-05-04T11:33:28Z</time></trkpt><trkpt lat="42.256336622296736" lon="19.910957258946265"><ele>186.33333333333331</ele><time>2026-05-04T11:33:30Z</time></trkpt><trkpt lat="42.256260822730226" lon="19.9109221899249"><ele>179.66666666666666</ele><time>2026-05-04T11:33:32Z</time></trkpt><trkpt lat="42.25619225611056" lon="19.910884298550133"><ele>173.0</ele><time>2026-05-04T11:33:34Z</time></trkpt><trkpt lat="42.25612071128905" lon="19.91085375032517"><ele>173.0</ele><time>2026-05-04T11:33:36Z</time></trkpt><trkpt lat="42.25605343923692" lon="19.910822573436"><ele>173.0</ele><time>2026-05-04T11:33:38Z</time></trkpt><trkpt lat="42.25598456364285" lon="19.9107897961448"><ele>173.0</ele><time>2026-05-04T11:33:40Z</time></trkpt><trkpt lat="42.255912856136405" lon="19.910750803212025"><ele>173.0</ele><time>2026-05-04T11:33:42Z</time></trkpt><trkpt lat="42.255841253763734" lon="19.910710774648596"><ele>173.0</ele><time>2026-05-04T11:33:44Z</time></trkpt><trkpt lat="42.255769456988396" lon="19.910669802781868"><ele>173.0</ele><time>2026-05-04T11:33:46Z</time></trkpt><trkpt lat="42.25569806345626" lon="19.910630253781363"><ele>173.0</ele><time>2026-05-04T11:33:48Z</time></trkpt><trkpt lat="42.255627961829134" lon="19.910591983831562"><ele>173.0</ele><time>2026-05-04T11:33:50Z</time></trkpt><trkpt lat="42.25555831878197" lon="19.910552582561657"><ele>173.0</ele><time>2026-05-04T11:33:52Z</time></trkpt><trkpt lat="42.2554899229841" lon="19.910517713030824"><ele>173.0</ele><time>2026-05-04T11:33:54Z</time></trkpt><trkpt lat="42.25542099984861" lon="19.910487834104188"><ele>173.0</ele><time>2026-05-04T11:33:56Z</time></trkpt><trkpt lat="42.25535662638501" lon="19.910451668198544"><ele>173.0</ele><time>2026-05-04T11:33:58Z</time></trkpt><trkpt lat="42.255297616356486" lon="19.910402198163332"><ele>173.0</ele><time>2026-05-04T11:34:00Z</time></trkpt><trkpt lat="42.255220211960804" lon="19.910363216299693"><ele>173.0</ele><time>2026-05-04T11:34:02Z</time></trkpt><trkpt lat="42.25515174365417" lon="19.91031996017687"><ele>173.0</ele><time>2026-05-04T11:34:04Z</time></trkpt><trkpt lat="42.255081298049035" lon="19.91027745209362"><ele>173.0</ele><time>2026-05-04T11:34:06Z</time></trkpt><trkpt lat="42.25500984532997" lon="19.910233935032313"><ele>173.0</ele><time>2026-05-04T11:34:08Z</time></trkpt><trkpt lat="42.25493775452555" lon="19.910191258134994"><ele>173.0</ele><time>2026-05-04T11:34:10Z</time></trkpt><trkpt lat="42.254867840425085" lon="19.910148048063093"><ele>173.0</ele><time>2026-05-04T11:34:12Z</time></trkpt><trkpt lat="42.25479958044098" lon="19.910095893166474"><ele>173.0</ele><time>2026-05-04T11:34:14Z</time></trkpt><trkpt lat="42.25473517867666" lon="19.91005225042953"><ele>173.0</ele><time>2026-05-04T11:34:16Z</time></trkpt><trkpt lat="42.25466721228762" lon="19.910006596785845"><ele>173.0</ele><time>2026-05-04T11:34:18Z</time></trkpt><trkpt lat="42.25459990312107" lon="19.909963880849308"><ele>173.0</ele><time>2026-05-04T11:34:20Z</time></trkpt><trkpt lat="42.2545341982236" lon="19.909923771409648"><ele>173.0</ele><time>2026-05-04T11:34:22Z</time></trkpt><trkpt lat="42.25446605630118" lon="19.909882177293465"><ele>173.0</ele><time>2026-05-04T11:34:24Z</time></trkpt><trkpt lat="42.25439901235582" lon="19.90983906365255"><ele>173.0</ele><time>2026-05-04T11:34:26.001Z</time></trkpt><trkpt lat="42.25432813567421" lon="19.909789164914503"><ele>173.0</ele><time>2026-05-04T11:34:28.001Z</time></trkpt><trkpt lat="42.25425979347323" lon="19.90974414883373"><ele>173.0</ele><time>2026-05-04T11:34:30.001Z</time></trkpt><trkpt lat="42.25419273820846" lon="19.909696502190993"><ele>173.0</ele><time>2026-05-04T11:34:32.001Z</time></trkpt><trkpt lat="42.25413578366988" lon="19.909655329128164"><ele>173.0</ele><time>2026-05-04T11:34:34.001Z</time></trkpt><trkpt lat="42.25406023974806" lon="19.909607700102192"><ele>173.0</ele><time>2026-05-04T11:34:36.001Z</time></trkpt><trkpt lat="42.25399720800563" lon="19.90956739796849"><ele>173.0</ele><time>2026-05-04T11:34:38.001Z</time></trkpt><trkpt lat="42.253932808949386" lon="19.909520020048088"><ele>173.0</ele><time>2026-05-04T11:34:40.001Z</time></trkpt><trkpt lat="42.25386577735878" lon="19.909477233635826"><ele>173.0</ele><time>2026-05-04T11:34:42.001Z</time></trkpt><trkpt lat="42.2538032044893" lon="19.90943450794339"><ele>173.0</ele><time>2026-05-04T11:34:44.001Z</time></trkpt><trkpt lat="42.253738486784655" lon="19.909392458455773"><ele>173.0</ele><time>2026-05-04T11:34:46.001Z</time></trkpt><trkpt lat="42.25367359461801" lon="19.909348422193816"><ele>173.0</ele><time>2026-05-04T11:34:48Z</time></trkpt><trkpt lat="42.25360682835293" lon="19.909304293379012"><ele>173.0</ele><time>2026-05-04T11:34:50Z</time></trkpt><trkpt lat="42.25354063116709" lon="19.909257384810164"><ele>173.0</ele><time>2026-05-04T11:34:52Z</time></trkpt><trkpt lat="42.253475911304086" lon="19.909212540660928"><ele>173.0</ele><time>2026-05-04T11:34:54Z</time></trkpt><trkpt lat="42.253410207341574" lon="19.909166575083702"><ele>173.0</ele><time>2026-05-04T11:34:56Z</time></trkpt><trkpt lat="42.25334380464155" lon="19.90912247455267"><ele>173.0</ele><time>2026-05-04T11:34:58Z</time></trkpt><trkpt lat="42.25327922533452" lon="19.90907894680107"><ele>173.0</ele><time>2026-05-04T11:35:00Z</time></trkpt><trkpt lat="42.2532159257887" lon="19.909029814104237"><ele>173.0</ele><time>2026-05-04T11:35:02Z</time></trkpt><trkpt lat="42.2531484747449" lon="19.908982159689725"><ele>173.0</ele><time>2026-05-04T11:35:04Z</time></trkpt><trkpt lat="42.253081755616414" lon="19.90893385098923"><ele>173.0</ele><time>2026-05-04T11:35:06Z</time></trkpt><trkpt lat="42.253012955418136" lon="19.908886248380032"><ele>173.0</ele><time>2026-05-04T11:35:08Z</time></trkpt><trkpt lat="42.25295273508673" lon="19.908846359093918"><ele>173.0</ele><time>2026-05-04T11:35:10Z</time></trkpt><trkpt lat="42.252878950925265" lon="19.908803212803"><ele>173.0</ele><time>2026-05-04T11:35:12Z</time></trkpt><trkpt lat="42.25279669069252" lon="19.908755338546065"><ele>173.0</ele><time>2026-05-04T11:35:14Z</time></trkpt><trkpt lat="42.25272098336559" lon="19.90870502840084"><ele>173.0</ele><time>2026-05-04T11:35:16Z</time></trkpt><trkpt lat="42.25265084144259" lon="19.90864513504064"><ele>173.0</ele><time>2026-05-04T11:35:18Z</time></trkpt><trkpt lat="42.252584622824905" lon="19.908588792603414"><ele>173.0</ele><time>2026-05-04T11:35:20Z</time></trkpt><trkpt lat="42.25250934974543" lon="19.908532304841398"><ele>173.0</ele><time>2026-05-04T11:35:22Z</time></trkpt><trkpt lat="42.2524416485584" lon="19.908478068620518"><ele>173.0</ele><time>2026-05-04T11:35:24Z</time></trkpt><trkpt lat="42.252373061097146" lon="19.908423987239917"><ele>173.0</ele><time>2026-05-04T11:35:26Z</time></trkpt><trkpt lat="42.25231873258963" lon="19.908357169745557"><ele>173.0</ele><time>2026-05-04T11:35:28.001Z</time></trkpt><trkpt lat="42.2522636085998" lon="19.90830835119562"><ele>173.0</ele><time>2026-05-04T11:35:30.001Z</time></trkpt><trkpt lat="42.252197038165136" lon="19.908256479555714"><ele>173.0</ele><time>2026-05-04T11:35:32.001Z</time></trkpt><trkpt lat="42.25212664841879" lon="19.908185306035406"><ele>173.0</ele><time>2026-05-04T11:35:34.001Z</time></trkpt><trkpt lat="42.25206487440491" lon="19.90812662805026"><ele>173.0</ele><time>2026-05-04T11:35:36.001Z</time></trkpt><trkpt lat="42.25200497592597" lon="19.908074685213915"><ele>173.0</ele><time>2026-05-04T11:35:38.001Z</time></trkpt><trkpt lat="42.251943121287916" lon="19.90801360465742"><ele>173.0</ele><time>2026-05-04T11:35:40.001Z</time></trkpt><trkpt lat="42.251891356634786" lon="19.90796199327309"><ele>173.0</ele><time>2026-05-04T11:35:43.001Z</time></trkpt><trkpt lat="42.251833257668565" lon="19.907909158141937"><ele>173.0</ele><time>2026-05-04T11:35:44.001Z</time></trkpt><trkpt lat="42.2517680997464" lon="19.907846867059792"><ele>173.0</ele><time>2026-05-04T11:35:46.001Z</time></trkpt><trkpt lat="42.251713671254564" lon="19.90779019841118"><ele>173.0</ele><time>2026-05-04T11:35:48.001Z</time></trkpt><trkpt lat="42.25164974648666" lon="19.907730308137513"><ele>173.0</ele><time>2026-05-04T11:35:50.001Z</time></trkpt><trkpt lat="42.251592669289195" lon="19.90767486051258"><ele>173.0</ele><time>2026-05-04T11:35:52.001Z</time></trkpt><trkpt lat="42.25152958625887" lon="19.907625338853403"><ele>173.0</ele><time>2026-05-04T11:35:54.001Z</time></trkpt><trkpt lat="42.25146541641525" lon="19.907574169060865"><ele>173.0</ele><time>2026-05-04T11:35:56.001Z</time></trkpt><trkpt lat="42.25139979979448" lon="19.907513842810715"><ele>173.0</ele><time>2026-05-04T11:35:58.001Z</time></trkpt><trkpt lat="42.25134599542989" lon="19.907465154690836"><ele>173.0</ele><time>2026-05-04T11:36:00.001Z</time></trkpt><trkpt lat="42.2512871842091" lon="19.90740806506593"><ele>173.0</ele><time>2026-05-04T11:36:02.001Z</time></trkpt><trkpt lat="42.25122575383089" lon="19.907344732018952"><ele>173.0</ele><time>2026-05-04T11:36:04.001Z</time></trkpt><trkpt lat="42.25117547965238" lon="19.907288035394714"><ele>173.0</ele><time>2026-05-04T11:36:06.001Z</time></trkpt><trkpt lat="42.25110414114079" lon="19.907219380031123"><ele>173.0</ele><time>2026-05-04T11:36:08.001Z</time></trkpt><trkpt lat="42.2510425942516" lon="19.90714732183337"><ele>173.0</ele><time>2026-05-04T11:36:10.001Z</time></trkpt><trkpt lat="42.25097448890258" lon="19.907086846238297"><ele>173.0</ele><time>2026-05-04T11:36:12.001Z</time></trkpt><trkpt lat="42.25091192580895" lon="19.907013160806844"><ele>173.5</ele><time>2026-05-04T11:36:14.001Z</time></trkpt><trkpt lat="42.25084968332976" lon="19.906942578751366"><ele>174.0</ele><time>2026-05-04T11:36:16.001Z</time></trkpt><trkpt lat="42.2507919999731" lon="19.90687289022847"><ele>174.5</ele><time>2026-05-04T11:36:18.001Z</time></trkpt><trkpt lat="42.25073313735733" lon="19.906805343744335"><ele>175.0</ele><time>2026-05-04T11:36:20.001Z</time></trkpt><trkpt lat="42.25066136883943" lon="19.90673620299673"><ele>175.5</ele><time>2026-05-04T11:36:22.001Z</time></trkpt><trkpt lat="42.25060028358669" lon="19.90667699529428"><ele>176.0</ele><time>2026-05-04T11:36:24.001Z</time></trkpt><trkpt lat="42.25053669095741" lon="19.906611110114728"><ele>174.66666666666666</ele><time>2026-05-04T11:36:26.001Z</time></trkpt><trkpt lat="42.25047627257823" lon="19.90654777564035"><ele>173.33333333333331</ele><time>2026-05-04T11:36:28.001Z</time></trkpt><trkpt lat="42.250416563727136" lon="19.906482631602596"><ele>172.0</ele><time>2026-05-04T11:36:30.001Z</time></trkpt><trkpt lat="42.25035925453375" lon="19.906420162088427"><ele>170.66666666666666</ele><time>2026-05-04T11:36:32.001Z</time></trkpt><trkpt lat="42.25029948017321" lon="19.90635241895136"><ele>169.33333333333334</ele><time>2026-05-04T11:36:34.001Z</time></trkpt><trkpt lat="42.250228606474145" lon="19.906275955521114"><ele>168.0</ele><time>2026-05-04T11:36:36.001Z</time></trkpt><trkpt lat="42.250164858191944" lon="19.906201399161287"><ele>168.0</ele><time>2026-05-04T11:36:38.001Z</time></trkpt><trkpt lat="42.25010058874308" lon="19.906132888947294"><ele>168.0</ele><time>2026-05-04T11:36:40.001Z</time></trkpt><trkpt lat="42.2500415351974" lon="19.906068833744026"><ele>168.0</ele><time>2026-05-04T11:36:42.001Z</time></trkpt><trkpt lat="42.24996824599141" lon="19.905980688129546"><ele>168.0</ele><time>2026-05-04T11:36:44.001Z</time></trkpt><trkpt lat="42.24991094204904" lon="19.905902812454862"><ele>168.0</ele><time>2026-05-04T11:36:46.001Z</time></trkpt><trkpt lat="42.249848377038695" lon="19.905823160661665"><ele>168.0</ele><time>2026-05-04T11:36:48.001Z</time></trkpt><trkpt lat="42.24979158335854" lon="19.90575168391748"><ele>168.5</ele><time>2026-05-04T11:36:50.001Z</time></trkpt><trkpt lat="42.24973199172643" lon="19.9056799830206"><ele>169.0</ele><time>2026-05-04T11:36:52.001Z</time></trkpt><trkpt lat="42.24967127399307" lon="19.905616640455207"><ele>169.5</ele><time>2026-05-04T11:36:54.001Z</time></trkpt><trkpt lat="42.24961434070401" lon="19.90555151491663"><ele>170.0</ele><time>2026-05-04T11:36:56.001Z</time></trkpt><trkpt lat="42.2495566854541" lon="19.90547856109922"><ele>170.5</ele><time>2026-05-04T11:36:58.001Z</time></trkpt><trkpt lat="42.24949924673605" lon="19.90540863210523"><ele>171.0</ele><time>2026-05-04T11:37:00.001Z</time></trkpt><trkpt lat="42.24944376982427" lon="19.90533520773846"><ele>171.0</ele><time>2026-05-04T11:37:02.001Z</time></trkpt><trkpt lat="42.24938878345264" lon="19.905260368115986"><ele>171.0</ele><time>2026-05-04T11:37:04.001Z</time></trkpt><trkpt lat="42.249329556870876" lon="19.90519267170247"><ele>171.0</ele><time>2026-05-04T11:37:06.001Z</time></trkpt><trkpt lat="42.24928002855638" lon="19.905128965905796"><ele>171.0</ele><time>2026-05-04T11:37:08.001Z</time></trkpt><trkpt lat="42.24922208227499" lon="19.9050560314635"><ele>171.0</ele><time>2026-05-04T11:37:10.001Z</time></trkpt><trkpt lat="42.24916678586683" lon="19.904987673324808"><ele>171.0</ele><time>2026-05-04T11:37:12.001Z</time></trkpt><trkpt lat="42.24910886579855" lon="19.904914979201966"><ele>171.42857142857142</ele><time>2026-05-04T11:37:14.001Z</time></trkpt><trkpt lat="42.249055378088286" lon="19.904845772432324"><ele>171.85714285714286</ele><time>2026-05-04T11:37:16.001Z</time></trkpt><trkpt lat="42.2489994725934" lon="19.90477719046163"><ele>172.28571428571428</ele><time>2026-05-04T11:37:18.001Z</time></trkpt><trkpt lat="42.2489468075044" lon="19.904707486278525"><ele>172.71428571428572</ele><time>2026-05-04T11:37:20.001Z</time></trkpt><trkpt lat="42.24889332006362" lon="19.904638566381248"><ele>173.14285714285714</ele><time>2026-05-04T11:37:22.001Z</time></trkpt><trkpt lat="42.24884010602875" lon="19.904570195610958"><ele>173.57142857142856</ele><time>2026-05-04T11:37:24.001Z</time></trkpt><trkpt lat="42.24878539370779" lon="19.90449931013666"><ele>174.0</ele><time>2026-05-04T11:37:26.001Z</time></trkpt><trkpt lat="42.24873096373231" lon="19.904428872410758"><ele>174.0</ele><time>2026-05-04T11:37:28.001Z</time></trkpt><trkpt lat="42.248676581921856" lon="19.90435852250278"><ele>174.0</ele><time>2026-05-04T11:37:30.001Z</time></trkpt><trkpt lat="42.24862235957371" lon="19.904288117107033"><ele>174.0</ele><time>2026-05-04T11:37:32.001Z</time></trkpt><trkpt lat="42.24856777060803" lon="19.90421821980264"><ele>174.0</ele><time>2026-05-04T11:37:34.001Z</time></trkpt><trkpt lat="42.248513522950276" lon="19.904147947452735"><ele>174.0</ele><time>2026-05-04T11:37:36.001Z</time></trkpt><trkpt lat="42.24846080173702" lon="19.904079410817324"><ele>174.0</ele><time>2026-05-04T11:37:38.001Z</time></trkpt><trkpt lat="42.24840460683511" lon="19.904001725150817"><ele>175.33333333333334</ele><time>2026-05-04T11:37:40.001Z</time></trkpt><trkpt lat="42.24834562966514" lon="19.9039263624604"><ele>176.66666666666666</ele><time>2026-05-04T11:37:42.001Z</time></trkpt><trkpt lat="42.248294819365114" lon="19.903853169355322"><ele>178.0</ele><time>2026-05-04T11:37:44.001Z</time></trkpt><trkpt lat="42.248240643237175" lon="19.903782842137183"><ele>179.33333333333331</ele><time>2026-05-04T11:37:46.001Z</time></trkpt><trkpt lat="42.24818899683064" lon="19.903711797424243"><ele>180.66666666666666</ele><time>2026-05-04T11:37:48.001Z</time></trkpt><trkpt lat="42.2481381834362" lon="19.903638442784423"><ele>182.0</ele><time>2026-05-04T11:37:50.001Z</time></trkpt><trkpt lat="42.24808792340003" lon="19.903564868029736"><ele>182.0</ele><time>2026-05-04T11:37:52.001Z</time></trkpt><trkpt lat="42.24803904273384" lon="19.903488617541875"><ele>182.0</ele><time>2026-05-04T11:37:54.001Z</time></trkpt><trkpt lat="42.24799243596589" lon="19.903413245887133"><ele>182.0</ele><time>2026-05-04T11:37:56.001Z</time></trkpt><trkpt lat="42.24794765478983" lon="19.90333543025275"><ele>182.0</ele><time>2026-05-04T11:37:58.001Z</time></trkpt><trkpt lat="42.247904696696715" lon="19.903262547464283"><ele>182.0</ele><time>2026-05-04T11:38:00.001Z</time></trkpt><trkpt lat="42.247860640254004" lon="19.903181687362284"><ele>182.0</ele><time>2026-05-04T11:38:02.001Z</time></trkpt><trkpt lat="42.24781770807949" lon="19.903097214034805"><ele>182.0</ele><time>2026-05-04T11:38:04.001Z</time></trkpt><trkpt lat="42.247777278262944" lon="19.903013032003074"><ele>182.0</ele><time>2026-05-04T11:38:06.001Z</time></trkpt><trkpt lat="42.247738346754666" lon="19.902929705550516"><ele>182.0</ele><time>2026-05-04T11:38:08.001Z</time></trkpt><trkpt lat="42.24770093574137" lon="19.902856455779297"><ele>182.0</ele><time>2026-05-04T11:38:10.001Z</time></trkpt><trkpt lat="42.24766380639886" lon="19.902763268121262"><ele>182.0</ele><time>2026-05-04T11:38:12.001Z</time></trkpt><trkpt lat="42.247629202253535" lon="19.90267763283032"><ele>182.0</ele><time>2026-05-04T11:38:14.001Z</time></trkpt><trkpt lat="42.24759583507398" lon="19.902584551302198"><ele>182.0</ele><time>2026-05-04T11:38:16.001Z</time></trkpt><trkpt lat="42.24756382326013" lon="19.902496026177374"><ele>182.0</ele><time>2026-05-04T11:38:18.001Z</time></trkpt><trkpt lat="42.24752638070883" lon="19.90241110771403"><ele>182.0</ele><time>2026-05-04T11:38:20.001Z</time></trkpt><trkpt lat="42.247498346839286" lon="19.902312533384386"><ele>182.0</ele><time>2026-05-04T11:38:22.001Z</time></trkpt><trkpt lat="42.24747161944709" lon="19.9022252975537"><ele>182.0</ele><time>2026-05-04T11:38:24.001Z</time></trkpt><trkpt lat="42.24744406772087" lon="19.902124239804586"><ele>182.0</ele><time>2026-05-04T11:38:26.001Z</time></trkpt><trkpt lat="42.2474135860408" lon="19.902034770680782"><ele>182.0</ele><time>2026-05-04T11:38:28.001Z</time></trkpt><trkpt lat="42.247385084021616" lon="19.901943210298512"><ele>182.0</ele><time>2026-05-04T11:38:30.001Z</time></trkpt><trkpt lat="42.24735587766205" lon="19.90184997556155"><ele>182.0</ele><time>2026-05-04T11:38:32.001Z</time></trkpt><trkpt lat="42.247329691291554" lon="19.90175881057373"><ele>182.0</ele><time>2026-05-04T11:38:34.001Z</time></trkpt><trkpt lat="42.24730097658166" lon="19.901663302475043"><ele>182.0</ele><time>2026-05-04T11:38:36.001Z</time></trkpt><trkpt lat="42.24727483653435" lon="19.90157258352511"><ele>182.0</ele><time>2026-05-04T11:38:38.001Z</time></trkpt><trkpt lat="42.24724639032275" lon="19.901483481252022"><ele>182.0</ele><time>2026-05-04T11:38:40.001Z</time></trkpt><trkpt lat="42.247218377196745" lon="19.901391461761914"><ele>182.0</ele><time>2026-05-04T11:38:42.001Z</time></trkpt><trkpt lat="42.24719288810958" lon="19.901297484164658"><ele>182.0</ele><time>2026-05-04T11:38:44.001Z</time></trkpt><trkpt lat="42.24716335885225" lon="19.901206080933832"><ele>182.0</ele><time>2026-05-04T11:38:46.001Z</time></trkpt><trkpt lat="42.24713549729055" lon="19.901114249610664"><ele>182.0</ele><time>2026-05-04T11:38:48.001Z</time></trkpt><trkpt lat="42.24710665667632" lon="19.901024644137568"><ele>182.0</ele><time>2026-05-04T11:38:50.001Z</time></trkpt><trkpt lat="42.24707799566374" lon="19.90093423618824"><ele>182.0</ele><time>2026-05-04T11:38:52.001Z</time></trkpt><trkpt lat="42.24704789612596" lon="19.900843329825282"><ele>182.0</ele><time>2026-05-04T11:38:54.001Z</time></trkpt><trkpt lat="42.247020170783586" lon="19.900752063281537"><ele>182.0</ele><time>2026-05-04T11:38:56.001Z</time></trkpt><trkpt lat="42.24699595285669" lon="19.900667342356975"><ele>182.0</ele><time>2026-05-04T11:38:58.001Z</time></trkpt><trkpt lat="42.246968905868854" lon="19.90057728034054"><ele>182.0</ele><time>2026-05-04T11:39:00Z</time></trkpt><trkpt lat="42.246938282336465" lon="19.900478773341955"><ele>182.0</ele><time>2026-05-04T11:39:02Z</time></trkpt><trkpt lat="42.24690445890214" lon="19.900392261637403"><ele>182.0</ele><time>2026-05-04T11:39:04Z</time></trkpt><trkpt lat="42.24687757975742" lon="19.90029618124028"><ele>182.0</ele><time>2026-05-04T11:39:06Z</time></trkpt><trkpt lat="42.246846142384804" lon="19.90020741709947"><ele>182.0</ele><time>2026-05-04T11:39:08Z</time></trkpt><trkpt lat="42.24681415183137" lon="19.900117314898285"><ele>182.0</ele><time>2026-05-04T11:39:10Z</time></trkpt><trkpt lat="42.24678766441591" lon="19.90002377595024"><ele>182.0</ele><time>2026-05-04T11:39:12Z</time></trkpt><trkpt lat="42.246760446716685" lon="19.899939108962055"><ele>182.0</ele><time>2026-05-04T11:39:14Z</time></trkpt><trkpt lat="42.246732055170746" lon="19.899842749677497"><ele>182.0</ele><time>2026-05-04T11:39:16Z</time></trkpt><trkpt lat="42.24670360621343" lon="19.899750073092832"><ele>182.0</ele><time>2026-05-04T11:39:18Z</time></trkpt><trkpt lat="42.2466735577288" lon="19.899657058021763"><ele>182.0</ele><time>2026-05-04T11:39:20Z</time></trkpt><trkpt lat="42.246650829126835" lon="19.899564895684616"><ele>182.0</ele><time>2026-05-04T11:39:22Z</time></trkpt><trkpt lat="42.246625751686544" lon="19.8994739853497"><ele>182.0</ele><time>2026-05-04T11:39:24Z</time></trkpt><trkpt lat="42.24660129158271" lon="19.899380330800067"><ele>182.0</ele><time>2026-05-04T11:39:26Z</time></trkpt><trkpt lat="42.246577162028444" lon="19.899284706131333"><ele>182.0</ele><time>2026-05-04T11:39:28Z</time></trkpt><trkpt lat="42.246554000555655" lon="19.89919079861117"><ele>182.0</ele><time>2026-05-04T11:39:30Z</time></trkpt><trkpt lat="42.24653254943258" lon="19.899095495965614"><ele>182.0</ele><time>2026-05-04T11:39:32Z</time></trkpt><trkpt lat="42.24651030573805" lon="19.899001781807065"><ele>182.0</ele><time>2026-05-04T11:39:34Z</time></trkpt><trkpt lat="42.24648946983191" lon="19.898907243777323"><ele>182.0</ele><time>2026-05-04T11:39:36Z</time></trkpt><trkpt lat="42.246467178345625" lon="19.898814134607818"><ele>182.0</ele><time>2026-05-04T11:39:38Z</time></trkpt><trkpt lat="42.246443649531685" lon="19.898721373683756"><ele>182.0</ele><time>2026-05-04T11:39:40Z</time></trkpt><trkpt lat="42.246420557920736" lon="19.89862826834478"><ele>182.0</ele><time>2026-05-04T11:39:42Z</time></trkpt><trkpt lat="42.24639757880189" lon="19.89853308971948"><ele>182.0</ele><time>2026-05-04T11:39:44Z</time></trkpt><trkpt lat="42.24637520327518" lon="19.89843755879697"><ele>182.0</ele><time>2026-05-04T11:39:46Z</time></trkpt><trkpt lat="42.24635343252872" lon="19.898343266433507"><ele>182.0</ele><time>2026-05-04T11:39:48Z</time></trkpt><trkpt lat="42.24633179754272" lon="19.898247302818163"><ele>182.0</ele><time>2026-05-04T11:39:50Z</time></trkpt><trkpt lat="42.24631030923141" lon="19.898152410313457"><ele>182.0</ele><time>2026-05-04T11:39:52Z</time></trkpt><trkpt lat="42.24628741235528" lon="19.898059335244767"><ele>182.0</ele><time>2026-05-04T11:39:54Z</time></trkpt><trkpt lat="42.24626746826418" lon="19.897972982630304"><ele>182.0</ele><time>2026-05-04T11:39:56Z</time></trkpt><trkpt lat="42.24624381210178" lon="19.897873841891535"><ele>182.0</ele><time>2026-05-04T11:39:58Z</time></trkpt><trkpt lat="42.24622450424306" lon="19.897779542128237"><ele>182.0</ele><time>2026-05-04T11:40:00Z</time></trkpt><trkpt lat="42.24620386104639" lon="19.897688075677237"><ele>182.0</ele><time>2026-05-04T11:40:02Z</time></trkpt><trkpt lat="42.24618464491595" lon="19.897594240537018"><ele>182.0</ele><time>2026-05-04T11:40:04Z</time></trkpt><trkpt lat="42.246160141695036" lon="19.89750311885281"><ele>182.0</ele><time>2026-05-04T11:40:06Z</time></trkpt><trkpt lat="42.246143550238635" lon="19.897405258389455"><ele>182.0</ele><time>2026-05-04T11:40:08Z</time></trkpt><trkpt lat="42.24612223134412" lon="19.897308284148675"><ele>182.0</ele><time>2026-05-04T11:40:10Z</time></trkpt><trkpt lat="42.246101812535535" lon="19.897208577084754"><ele>182.0</ele><time>2026-05-04T11:40:12Z</time></trkpt><trkpt lat="42.24608264396094" lon="19.897110146847073"><ele>182.0</ele><time>2026-05-04T11:40:14Z</time></trkpt><trkpt lat="42.24606322135848" lon="19.897014159360683"><ele>182.0</ele><time>2026-05-04T11:40:16Z</time></trkpt><trkpt lat="42.2460450571235" lon="19.89691884795553"><ele>182.0</ele><time>2026-05-04T11:40:18Z</time></trkpt><trkpt lat="42.24602640311843" lon="19.896820856172745"><ele>182.0</ele><time>2026-05-04T11:40:20Z</time></trkpt><trkpt lat="42.24600836635729" lon="19.896725100566073"><ele>182.0</ele><time>2026-05-04T11:40:22Z</time></trkpt><trkpt lat="42.245990846142" lon="19.896630379213676"><ele>182.0</ele><time>2026-05-04T11:40:24Z</time></trkpt><trkpt lat="42.245972745169" lon="19.896533566470755"><ele>182.0</ele><time>2026-05-04T11:40:26Z</time></trkpt><trkpt lat="42.24595488137372" lon="19.896439107185305"><ele>182.0</ele><time>2026-05-04T11:40:28Z</time></trkpt><trkpt lat="42.245937015973986" lon="19.896344454614752"><ele>182.0</ele><time>2026-05-04T11:40:30Z</time></trkpt><trkpt lat="42.245919470448015" lon="19.896249931112283"><ele>182.0</ele><time>2026-05-04T11:40:32Z</time></trkpt><trkpt lat="42.24590166764595" lon="19.896153676962108"><ele>182.0</ele><time>2026-05-04T11:40:34Z</time></trkpt><trkpt lat="42.24588110719406" lon="19.89605599738134"><ele>182.0</ele><time>2026-05-04T11:40:36Z</time></trkpt><trkpt lat="42.24586172004521" lon="19.895959839259053"><ele>182.0</ele><time>2026-05-04T11:40:38Z</time></trkpt><trkpt lat="42.245842974157775" lon="19.895860452568172"><ele>182.0</ele><time>2026-05-04T11:40:40Z</time></trkpt><trkpt lat="42.24582122599327" lon="19.895763921573995"><ele>182.0</ele><time>2026-05-04T11:40:42Z</time></trkpt><trkpt lat="42.24579554666523" lon="19.8956664663223"><ele>182.0</ele><time>2026-05-04T11:40:44Z</time></trkpt><trkpt lat="42.245779496079024" lon="19.89556205699611"><ele>182.0</ele><time>2026-05-04T11:40:46Z</time></trkpt><trkpt lat="42.245764157394184" lon="19.895461832930877"><ele>182.0</ele><time>2026-05-04T11:40:48Z</time></trkpt><trkpt lat="42.24575003140752" lon="19.895346157467255"><ele>182.0</ele><time>2026-05-04T11:40:50Z</time></trkpt><trkpt lat="42.245729662507166" lon="19.895248853696543"><ele>182.33333333333331</ele><time>2026-05-04T11:40:52Z</time></trkpt><trkpt lat="42.245712508153204" lon="19.895145244127814"><ele>182.66666666666666</ele><time>2026-05-04T11:40:54Z</time></trkpt><trkpt lat="42.245692923161016" lon="19.895045401303882"><ele>183.0</ele><time>2026-05-04T11:40:56Z</time></trkpt><trkpt lat="42.24567355215662" lon="19.8949464085212"><ele>183.33333333333334</ele><time>2026-05-04T11:40:58Z</time></trkpt><trkpt lat="42.24565528116434" lon="19.89484829789715"><ele>183.66666666666669</ele><time>2026-05-04T11:41:00Z</time></trkpt><trkpt lat="42.245636725969256" lon="19.894750628587815"><ele>184.0</ele><time>2026-05-04T11:41:02Z</time></trkpt><trkpt lat="42.24561861058649" lon="19.89465410140803"><ele>184.0</ele><time>2026-05-04T11:41:04Z</time></trkpt><trkpt lat="42.24560139286501" lon="19.894556050604432"><ele>184.0</ele><time>2026-05-04T11:41:06Z</time></trkpt><trkpt lat="42.245585403557115" lon="19.89445815094577"><ele>184.0</ele><time>2026-05-04T11:41:08Z</time></trkpt><trkpt lat="42.24556699407619" lon="19.894361342857973"><ele>184.0</ele><time>2026-05-04T11:41:10Z</time></trkpt><trkpt lat="42.24554893900805" lon="19.89426300606056"><ele>184.0</ele><time>2026-05-04T11:41:12Z</time></trkpt><trkpt lat="42.24553021009033" lon="19.894169402529897"><ele>184.0</ele><time>2026-05-04T11:41:14Z</time></trkpt><trkpt lat="42.24551163305716" lon="19.894073274628127"><ele>184.0</ele><time>2026-05-04T11:41:16Z</time></trkpt><trkpt lat="42.24549251020337" lon="19.893983545005756"><ele>183.33333333333334</ele><time>2026-05-04T11:41:18Z</time></trkpt><trkpt lat="42.24547131790874" lon="19.89386312867059"><ele>182.66666666666669</ele><time>2026-05-04T11:41:21Z</time></trkpt><trkpt lat="42.245447313807524" lon="19.89377521752867"><ele>182.0</ele><time>2026-05-04T11:41:23Z</time></trkpt><trkpt lat="42.24542641532249" lon="19.893675627588717"><ele>181.33333333333334</ele><time>2026-05-04T11:41:25Z</time></trkpt><trkpt lat="42.24540791524262" lon="19.893579490034156"><ele>180.66666666666666</ele><time>2026-05-04T11:41:27Z</time></trkpt><trkpt lat="42.24538627287981" lon="19.893483272817758"><ele>180.0</ele><time>2026-05-04T11:41:29Z</time></trkpt><trkpt lat="42.24536724518015" lon="19.89339096368638"><ele>179.83333333333334</ele><time>2026-05-04T11:41:31Z</time></trkpt><trkpt lat="42.245344515689936" lon="19.893308761878284"><ele>179.66666666666666</ele><time>2026-05-04T11:41:33Z</time></trkpt><trkpt lat="42.24532603003949" lon="19.89320167557432"><ele>179.5</ele><time>2026-05-04T11:41:35Z</time></trkpt><trkpt lat="42.245307595986354" lon="19.893101892078864"><ele>179.33333333333331</ele><time>2026-05-04T11:41:37Z</time></trkpt><trkpt lat="42.245282497470896" lon="19.89301259300307"><ele>179.16666666666666</ele><time>2026-05-04T11:41:39Z</time></trkpt><trkpt lat="42.245258584814664" lon="19.892906498776075"><ele>179.0</ele><time>2026-05-04T11:41:41Z</time></trkpt><trkpt lat="42.245242752653226" lon="19.892802467430254"><ele>179.00000000000003</ele><time>2026-05-04T11:41:43Z</time></trkpt><trkpt lat="42.24522175165789" lon="19.8926997553917"><ele>179.0</ele><time>2026-05-04T11:41:45Z</time></trkpt><trkpt lat="42.245207025567844" lon="19.892602669192705"><ele>179.0</ele><time>2026-05-04T11:41:47Z</time></trkpt><trkpt lat="42.2451859278312" lon="19.892506785937698"><ele>179.0</ele><time>2026-05-04T11:41:49Z</time></trkpt><trkpt lat="42.24516536356529" lon="19.892411681200027"><ele>179.0</ele><time>2026-05-04T11:41:51Z</time></trkpt><trkpt lat="42.245147443981416" lon="19.892316788329712"><ele>179.00000000000003</ele><time>2026-05-04T11:41:53Z</time></trkpt><trkpt lat="42.24512896070038" lon="19.892222409321867"><ele>179.0</ele><time>2026-05-04T11:41:55Z</time></trkpt><trkpt lat="42.24511226216945" lon="19.89212765570813"><ele>180.00000000000003</ele><time>2026-05-04T11:41:57Z</time></trkpt><trkpt lat="42.245095773853926" lon="19.892032418768434"><ele>181.0</ele><time>2026-05-04T11:41:59Z</time></trkpt><trkpt lat="42.24508084041718" lon="19.89193703871962"><ele>182.0</ele><time>2026-05-04T11:42:01Z</time></trkpt><trkpt lat="42.24506491678019" lon="19.891839245257923"><ele>183.0</ele><time>2026-05-04T11:42:03Z</time></trkpt><trkpt lat="42.245049648175694" lon="19.89174093210552"><ele>184.0</ele><time>2026-05-04T11:42:05Z</time></trkpt><trkpt lat="42.24503414270524" lon="19.89164295704202"><ele>185.00000000000003</ele><time>2026-05-04T11:42:07Z</time></trkpt><trkpt lat="42.24501911416515" lon="19.891542766176215"><ele>186.0</ele><time>2026-05-04T11:42:09Z</time></trkpt><trkpt lat="42.245004733786736" lon="19.89144160348886"><ele>186.00000000000003</ele><time>2026-05-04T11:42:11Z</time></trkpt><trkpt lat="42.24499156422493" lon="19.891343065170908"><ele>186.0</ele><time>2026-05-04T11:42:13Z</time></trkpt><trkpt lat="42.24497940267034" lon="19.89124589814117"><ele>186.0</ele><time>2026-05-04T11:42:15Z</time></trkpt><trkpt lat="42.24496789273489" lon="19.891148209835496"><ele>186.0</ele><time>2026-05-04T11:42:17Z</time></trkpt><trkpt lat="42.244955344544174" lon="19.89104996470196"><ele>186.0</ele><time>2026-05-04T11:42:19Z</time></trkpt><trkpt lat="42.24494408948673" lon="19.890950709420608"><ele>186.00000000000003</ele><time>2026-05-04T11:42:21Z</time></trkpt><trkpt lat="42.24493246191319" lon="19.89085148821069"><ele>186.0</ele><time>2026-05-04T11:42:23Z</time></trkpt><trkpt lat="42.24492195711236" lon="19.890753536124762"><ele>186.00000000000003</ele><time>2026-05-04T11:42:25Z</time></trkpt><trkpt lat="42.24491103568161" lon="19.890655367395542"><ele>186.0</ele><time>2026-05-04T11:42:27Z</time></trkpt><trkpt lat="42.244899741957326" lon="19.89055635458841"><ele>186.0</ele><time>2026-05-04T11:42:29Z</time></trkpt><trkpt lat="42.244889817282676" lon="19.8904567946828"><ele>186.0</ele><time>2026-05-04T11:42:31Z</time></trkpt><trkpt lat="42.2448829720836" lon="19.890356914897595"><ele>186.0</ele><time>2026-05-04T11:42:33Z</time></trkpt><trkpt lat="42.24487282406691" lon="19.89025684705087"><ele>186.00000000000003</ele><time>2026-05-04T11:42:35Z</time></trkpt><trkpt lat="42.24486387606245" lon="19.890156435046833"><ele>186.0</ele><time>2026-05-04T11:42:37Z</time></trkpt><trkpt lat="42.2448569166922" lon="19.89005569144721"><ele>186.00000000000003</ele><time>2026-05-04T11:42:39Z</time></trkpt><trkpt lat="42.24485033847566" lon="19.889955053920822"><ele>186.0</ele><time>2026-05-04T11:42:41Z</time></trkpt><trkpt lat="42.2448423672129" lon="19.88985512511302"><ele>186.0</ele><time>2026-05-04T11:42:43Z</time></trkpt><trkpt lat="42.2448352722397" lon="19.88975571312597"><ele>186.0</ele><time>2026-05-04T11:42:45Z</time></trkpt><trkpt lat="42.24482930591583" lon="19.889655279397235"><ele>186.0</ele><time>2026-05-04T11:42:47Z</time></trkpt><trkpt lat="42.24482768864273" lon="19.889554338808132"><ele>186.00000000000003</ele><time>2026-05-04T11:42:49Z</time></trkpt><trkpt lat="42.24482538987617" lon="19.889453994167486"><ele>186.0</ele><time>2026-05-04T11:42:51Z</time></trkpt><trkpt lat="42.24482283634504" lon="19.889353864521745"><ele>186.00000000000003</ele><time>2026-05-04T11:42:53Z</time></trkpt><trkpt lat="42.244819676945944" lon="19.889253552873633"><ele>186.0</ele><time>2026-05-04T11:42:55Z</time></trkpt><trkpt lat="42.24481821366295" lon="19.889153701878133"><ele>186.0</ele><time>2026-05-04T11:42:57Z</time></trkpt><trkpt lat="42.244817524654806" lon="19.88905456309863"><ele>186.0</ele><time>2026-05-04T11:42:59Z</time></trkpt><trkpt lat="42.24481541733445" lon="19.888955443828852"><ele>186.0</ele><time>2026-05-04T11:43:01Z</time></trkpt><trkpt lat="42.2448143155448" lon="19.888855659399873"><ele>186.00000000000003</ele><time>2026-05-04T11:43:03Z</time></trkpt><trkpt lat="42.24481473579957" lon="19.888756347353798"><ele>186.0</ele><time>2026-05-04T11:43:05Z</time></trkpt><trkpt lat="42.24481660172935" lon="19.888655238373577"><ele>186.00000000000003</ele><time>2026-05-04T11:43:07Z</time></trkpt><trkpt lat="42.244818198242115" lon="19.888555023208482"><ele>186.0</ele><time>2026-05-04T11:43:09Z</time></trkpt><trkpt lat="42.24481839186228" lon="19.88845496527486"><ele>186.0</ele><time>2026-05-04T11:43:11Z</time></trkpt><trkpt lat="42.24482090716241" lon="19.88835587135315"><ele>186.0</ele><time>2026-05-04T11:43:13Z</time></trkpt><trkpt lat="42.244823658358044" lon="19.888255146667994"><ele>186.0</ele><time>2026-05-04T11:43:15Z</time></trkpt><trkpt lat="42.24482603513734" lon="19.888155206296602"><ele>186.00000000000003</ele><time>2026-05-04T11:43:17Z</time></trkpt><trkpt lat="42.244828221673906" lon="19.888055391803267"><ele>186.0</ele><time>2026-05-04T11:43:19Z</time></trkpt><trkpt lat="42.24482969263769" lon="19.88795598162355"><ele>186.00000000000003</ele><time>2026-05-04T11:43:21Z</time></trkpt><trkpt lat="42.24483049338597" lon="19.88785683439054"><ele>186.0</ele><time>2026-05-04T11:43:23Z</time></trkpt><trkpt lat="42.24483108950199" lon="19.88775765174049"><ele>186.0</ele><time>2026-05-04T11:43:25Z</time></trkpt><trkpt lat="42.244829403743736" lon="19.887659692518717"><ele>186.0</ele><time>2026-05-04T11:43:27Z</time></trkpt><trkpt lat="42.244827751841854" lon="19.887561605855517"><ele>186.0</ele><time>2026-05-04T11:43:29Z</time></trkpt><trkpt lat="42.244824530421305" lon="19.887462977901002"><ele>186.00000000000003</ele><time>2026-05-04T11:43:31Z</time></trkpt><trkpt lat="42.244822643471295" lon="19.887373449444368"><ele>186.0</ele><time>2026-05-04T11:43:33Z</time></trkpt><trkpt lat="42.24482212902007" lon="19.887273527198577"><ele>190.33333333333334</ele><time>2026-05-04T11:43:35Z</time></trkpt><trkpt lat="42.24481930093353" lon="19.887177583071338"><ele>194.66666666666669</ele><time>2026-05-04T11:43:37Z</time></trkpt><trkpt lat="42.244814138138146" lon="19.887023142119475"><ele>199.0</ele><time>2026-05-04T11:43:40Z</time></trkpt><trkpt lat="42.24481084443988" lon="19.88692447688569"><ele>203.33333333333334</ele><time>2026-05-04T11:43:42Z</time></trkpt><trkpt lat="42.24480675561036" lon="19.886827012162765"><ele>207.66666666666669</ele><time>2026-05-04T11:43:44Z</time></trkpt><trkpt lat="42.24480036301683" lon="19.886730227393027"><ele>212.0</ele><time>2026-05-04T11:43:46Z</time></trkpt><trkpt lat="42.244791690240746" lon="19.88663402066011"><ele>212.0</ele><time>2026-05-04T11:43:48Z</time></trkpt><trkpt lat="42.24478114212132" lon="19.88653690239624"><ele>212.0</ele><time>2026-05-04T11:43:50Z</time></trkpt><trkpt lat="42.244772333414346" lon="19.88644028320381"><ele>212.0</ele><time>2026-05-04T11:43:52Z</time></trkpt><trkpt lat="42.24476109959142" lon="19.88634362794407"><ele>212.0</ele><time>2026-05-04T11:43:54Z</time></trkpt><trkpt lat="42.24475236400373" lon="19.886248553919295"><ele>212.0</ele><time>2026-05-04T11:43:56Z</time></trkpt><trkpt lat="42.2447425051239" lon="19.886153702142696"><ele>212.0</ele><time>2026-05-04T11:43:58Z</time></trkpt><trkpt lat="42.244732523560906" lon="19.886059521881304"><ele>212.0</ele><time>2026-05-04T11:44:00Z</time></trkpt><trkpt lat="42.24472127363429" lon="19.885963986958625"><ele>214.71428571428572</ele><time>2026-05-04T11:44:02Z</time></trkpt><trkpt lat="42.244709796102974" lon="19.88586753929535"><ele>217.42857142857142</ele><time>2026-05-04T11:44:04Z</time></trkpt><trkpt lat="42.24469507307395" lon="19.885771627123958"><ele>220.14285714285714</ele><time>2026-05-04T11:44:06Z</time></trkpt><trkpt lat="42.244682126294" lon="19.88567566353377"><ele>222.85714285714286</ele><time>2026-05-04T11:44:08Z</time></trkpt><trkpt lat="42.24466694425012" lon="19.885580140767896"><ele>225.57142857142856</ele><time>2026-05-04T11:44:10Z</time></trkpt><trkpt lat="42.24465588870137" lon="19.88548160258088"><ele>228.28571428571428</ele><time>2026-05-04T11:44:12Z</time></trkpt><trkpt lat="42.24463831719285" lon="19.885383833431337"><ele>231.0</ele><time>2026-05-04T11:44:14Z</time></trkpt><trkpt lat="42.24462102796866" lon="19.885287606411236"><ele>231.0</ele><time>2026-05-04T11:44:16Z</time></trkpt><trkpt lat="42.24460519494377" lon="19.88518968561487"><ele>231.0</ele><time>2026-05-04T11:44:18Z</time></trkpt><trkpt lat="42.24458708284437" lon="19.885094016983988"><ele>231.0</ele><time>2026-05-04T11:44:20Z</time></trkpt><trkpt lat="42.24456916771805" lon="19.884998521840608"><ele>231.0</ele><time>2026-05-04T11:44:22Z</time></trkpt><trkpt lat="42.24455090348544" lon="19.88490442569038"><ele>231.0</ele><time>2026-05-04T11:44:24Z</time></trkpt><trkpt lat="42.24453032620827" lon="19.884810105507597"><ele>231.0</ele><time>2026-05-04T11:44:26Z</time></trkpt><trkpt lat="42.24450414958376" lon="19.884716448005936"><ele>231.0</ele><time>2026-05-04T11:44:28Z</time></trkpt><trkpt lat="42.24447780245171" lon="19.884624562672855"><ele>233.14285714285714</ele><time>2026-05-04T11:44:30Z</time></trkpt><trkpt lat="42.24445149373623" lon="19.884531736611017"><ele>235.28571428571428</ele><time>2026-05-04T11:44:32Z</time></trkpt><trkpt lat="42.24442243332619" lon="19.884441041230506"><ele>237.42857142857144</ele><time>2026-05-04T11:44:34Z</time></trkpt><trkpt lat="42.24439156875104" lon="19.884350946474083"><ele>239.57142857142858</ele><time>2026-05-04T11:44:36Z</time></trkpt><trkpt lat="42.24436381191308" lon="19.884260703364966"><ele>241.71428571428572</ele><time>2026-05-04T11:44:38Z</time></trkpt><trkpt lat="42.24433294922749" lon="19.884172692115673"><ele>243.8571428571429</ele><time>2026-05-04T11:44:40Z</time></trkpt><trkpt lat="42.24429781174824" lon="19.884084919695546"><ele>246.00000000000003</ele><time>2026-05-04T11:44:42Z</time></trkpt><trkpt lat="42.244264751499315" lon="19.884000303018933"><ele>246.00000000000003</ele><time>2026-05-04T11:44:44Z</time></trkpt><trkpt lat="42.244228692185466" lon="19.88391739808876"><ele>246.0</ele><time>2026-05-04T11:44:46Z</time></trkpt><trkpt lat="42.244192455620976" lon="19.88383537824509"><ele>246.00000000000003</ele><time>2026-05-04T11:44:48Z</time></trkpt><trkpt lat="42.244153918271714" lon="19.883752681922182"><ele>246.00000000000003</ele><time>2026-05-04T11:44:50Z</time></trkpt><trkpt lat="42.24411392939726" lon="19.883670385185994"><ele>246.0</ele><time>2026-05-04T11:44:52Z</time></trkpt><trkpt lat="42.24407452618478" lon="19.88358680447757"><ele>246.00000000000003</ele><time>2026-05-04T11:44:54Z</time></trkpt><trkpt lat="42.244033742871444" lon="19.8835037842138"><ele>246.00000000000003</ele><time>2026-05-04T11:44:56Z</time></trkpt><trkpt lat="42.243996634887324" lon="19.88341948621496"><ele>253.28571428571433</ele><time>2026-05-04T11:44:58Z</time></trkpt><trkpt lat="42.243958078427795" lon="19.883335640802485"><ele>260.57142857142856</ele><time>2026-05-04T11:45:00Z</time></trkpt><trkpt lat="42.243919415093735" lon="19.883247517379182"><ele>267.8571428571429</ele><time>2026-05-04T11:45:02Z</time></trkpt><trkpt lat="42.2438810912673" lon="19.88316139547989"><ele>275.14285714285717</ele><time>2026-05-04T11:45:04Z</time></trkpt><trkpt lat="42.24384157720467" lon="19.8830754810685"><ele>282.42857142857144</ele><time>2026-05-04T11:45:06Z</time></trkpt><trkpt lat="42.24380114261445" lon="19.88298779220348"><ele>289.7142857142857</ele><time>2026-05-04T11:45:08Z</time></trkpt><trkpt lat="42.24376231219329" lon="19.88290209096532"><ele>297.0</ele><time>2026-05-04T11:45:10Z</time></trkpt><trkpt lat="42.243722234650676" lon="19.882816589957383"><ele>297.0</ele><time>2026-05-04T11:45:12Z</time></trkpt><trkpt lat="42.24368187143957" lon="19.882731370269152"><ele>297.0</ele><time>2026-05-04T11:45:14Z</time></trkpt><trkpt lat="42.243642115367564" lon="19.88264524587974"><ele>297.0</ele><time>2026-05-04T11:45:16Z</time></trkpt><trkpt lat="42.24360772833489" lon="19.882556572664363"><ele>297.0</ele><time>2026-05-04T11:45:18Z</time></trkpt><trkpt lat="42.24356984554071" lon="19.882467575798167"><ele>297.0</ele><time>2026-05-04T11:45:20Z</time></trkpt><trkpt lat="42.243534964514055" lon="19.882379204901397"><ele>297.0</ele><time>2026-05-04T11:45:22Z</time></trkpt><trkpt lat="42.2435016119513" lon="19.882292928785432"><ele>297.0</ele><time>2026-05-04T11:45:24Z</time></trkpt><trkpt lat="42.24347051128491" lon="19.882202456061567"><ele>297.0</ele><time>2026-05-04T11:45:26Z</time></trkpt><trkpt lat="42.24343456164257" lon="19.882115419687437"><ele>297.0</ele><time>2026-05-04T11:45:28Z</time></trkpt><trkpt lat="42.24340048350193" lon="19.88202549287251"><ele>297.0</ele><time>2026-05-04T11:45:30Z</time></trkpt><trkpt lat="42.243364611561034" lon="19.881937617672126"><ele>297.0</ele><time>2026-05-04T11:45:32Z</time></trkpt><trkpt lat="42.2433321212887" lon="19.881847689350995"><ele>297.0</ele><time>2026-05-04T11:45:34Z</time></trkpt><trkpt lat="42.24329697267099" lon="19.881759575148873"><ele>297.0</ele><time>2026-05-04T11:45:36Z</time></trkpt><trkpt lat="42.24325612100683" lon="19.88167472161282"><ele>297.0</ele><time>2026-05-04T11:45:38Z</time></trkpt><trkpt lat="42.24322315978973" lon="19.88158337035634"><ele>297.0</ele><time>2026-05-04T11:45:40Z</time></trkpt><trkpt lat="42.24319132357956" lon="19.88150369620731"><ele>297.0</ele><time>2026-05-04T11:45:42Z</time></trkpt><trkpt lat="42.243156363013924" lon="19.8814198561476"><ele>297.0</ele><time>2026-05-04T11:45:45Z</time></trkpt><trkpt lat="42.24310748892294" lon="19.881317324004755"><ele>297.0</ele><time>2026-05-04T11:45:47Z</time></trkpt><trkpt lat="42.24307032237484" lon="19.88123318433015"><ele>297.0</ele><time>2026-05-04T11:45:49Z</time></trkpt><trkpt lat="42.24299445355641" lon="19.88107342723436"><ele>297.0</ele><time>2026-05-04T11:45:52Z</time></trkpt><trkpt lat="42.24296113640919" lon="19.88098813959718"><ele>297.0</ele><time>2026-05-04T11:45:54Z</time></trkpt><trkpt lat="42.24292348667798" lon="19.880902047317154"><ele>297.0</ele><time>2026-05-04T11:45:56Z</time></trkpt><trkpt lat="42.24286124964094" lon="19.8807649053955"><ele>297.0</ele><time>2026-05-04T11:45:59Z</time></trkpt><trkpt lat="42.242826457674205" lon="19.880679248772303"><ele>297.0</ele><time>2026-05-04T11:46:01Z</time></trkpt><trkpt lat="42.24278559185791" lon="19.880593155303615"><ele>297.0</ele><time>2026-05-04T11:46:03Z</time></trkpt><trkpt lat="42.242746541113426" lon="19.88050694244484"><ele>297.0</ele><time>2026-05-04T11:46:05Z</time></trkpt><trkpt lat="42.242707343664435" lon="19.880422983835736"><ele>297.0</ele><time>2026-05-04T11:46:07Z</time></trkpt><trkpt lat="42.24267352986355" lon="19.880336433168853"><ele>297.0</ele><time>2026-05-04T11:46:09Z</time></trkpt><trkpt lat="42.24263529190809" lon="19.880254582873118"><ele>297.0</ele><time>2026-05-04T11:46:11Z</time></trkpt><trkpt lat="42.2425981537157" lon="19.880168258628018"><ele>297.0</ele><time>2026-05-04T11:46:13Z</time></trkpt><trkpt lat="42.242558048998106" lon="19.880086355877282"><ele>297.0</ele><time>2026-05-04T11:46:15Z</time></trkpt><trkpt lat="42.24252013359831" lon="19.880004123274876"><ele>297.0</ele><time>2026-05-04T11:46:17Z</time></trkpt><trkpt lat="42.242485241846" lon="19.879920914308638"><ele>297.0</ele><time>2026-05-04T11:46:19Z</time></trkpt><trkpt lat="42.24244982138301" lon="19.87983621401767"><ele>297.0</ele><time>2026-05-04T11:46:21Z</time></trkpt><trkpt lat="42.24241373466448" lon="19.879750137032083"><ele>297.0</ele><time>2026-05-04T11:46:23Z</time></trkpt><trkpt lat="42.24237689098433" lon="19.879666583653268"><ele>297.0</ele><time>2026-05-04T11:46:25Z</time></trkpt><trkpt lat="42.24233955620018" lon="19.87958306443746"><ele>297.0</ele><time>2026-05-04T11:46:27Z</time></trkpt><trkpt lat="42.242300312563756" lon="19.879501328639588"><ele>297.0</ele><time>2026-05-04T11:46:29Z</time></trkpt><trkpt lat="42.242262419671576" lon="19.87941630130746"><ele>297.0</ele><time>2026-05-04T11:46:31Z</time></trkpt><trkpt lat="42.24221045836028" lon="19.879333663088175"><ele>297.0</ele><time>2026-05-04T11:46:33Z</time></trkpt><trkpt lat="42.24217524575854" lon="19.87924979501416"><ele>297.0</ele><time>2026-05-04T11:46:35Z</time></trkpt><trkpt lat="42.242141114029344" lon="19.879163749813607"><ele>297.0</ele><time>2026-05-04T11:46:37Z</time></trkpt><trkpt lat="42.242101351167335" lon="19.87907819661012"><ele>297.0</ele><time>2026-05-04T11:46:39Z</time></trkpt><trkpt lat="42.242064216534125" lon="19.878996333588024"><ele>297.0</ele><time>2026-05-04T11:46:41Z</time></trkpt><trkpt lat="42.24202512499491" lon="19.878914925283706"><ele>297.0</ele><time>2026-05-04T11:46:43Z</time></trkpt><trkpt lat="42.241985645826986" lon="19.8788317790808"><ele>297.0</ele><time>2026-05-04T11:46:45Z</time></trkpt><trkpt lat="42.24194766252696" lon="19.87874964938107"><ele>297.0</ele><time>2026-05-04T11:46:47Z</time></trkpt><trkpt lat="42.24190756987463" lon="19.878668779386867"><ele>297.0</ele><time>2026-05-04T11:46:49Z</time></trkpt><trkpt lat="42.24186862207819" lon="19.878586978332525"><ele>297.0</ele><time>2026-05-04T11:46:51Z</time></trkpt><trkpt lat="42.241828225524266" lon="19.878504812139877"><ele>297.0</ele><time>2026-05-04T11:46:53Z</time></trkpt><trkpt lat="42.24178616563013" lon="19.878424197087888"><ele>297.0</ele><time>2026-05-04T11:46:55Z</time></trkpt><trkpt lat="42.24174929371056" lon="19.878341702943583"><ele>297.0</ele><time>2026-05-04T11:46:57Z</time></trkpt><trkpt lat="42.241706512805095" lon="19.878260020522823"><ele>297.0</ele><time>2026-05-04T11:46:59Z</time></trkpt><trkpt lat="42.241663630236644" lon="19.878180389513417"><ele>297.0</ele><time>2026-05-04T11:47:01.001Z</time></trkpt><trkpt lat="42.24162040699761" lon="19.878101289728612"><ele>297.0</ele><time>2026-05-04T11:47:03.001Z</time></trkpt><trkpt lat="42.241575429563625" lon="19.87802217898304"><ele>297.0</ele><time>2026-05-04T11:47:05.001Z</time></trkpt><trkpt lat="42.24153044170718" lon="19.877944442131792"><ele>297.0</ele><time>2026-05-04T11:47:07.001Z</time></trkpt><trkpt lat="42.241483732444486" lon="19.87786987703417"><ele>297.0</ele><time>2026-05-04T11:47:09.001Z</time></trkpt><trkpt lat="42.241438683121565" lon="19.877791153835762"><ele>297.0</ele><time>2026-05-04T11:47:11.001Z</time></trkpt><trkpt lat="42.24139315339557" lon="19.87771476317738"><ele>297.0</ele><time>2026-05-04T11:47:13.001Z</time></trkpt><trkpt lat="42.24134654249192" lon="19.8776395615652"><ele>297.0</ele><time>2026-05-04T11:47:15.001Z</time></trkpt><trkpt lat="42.24130051904302" lon="19.877563358403858"><ele>297.0</ele><time>2026-05-04T11:47:17.001Z</time></trkpt><trkpt lat="42.24125634987711" lon="19.87748623760169"><ele>297.0</ele><time>2026-05-04T11:47:19.001Z</time></trkpt><trkpt lat="42.241210352551114" lon="19.877411365201457"><ele>297.0</ele><time>2026-05-04T11:47:21.001Z</time></trkpt><trkpt lat="42.24116215855321" lon="19.877337807209464"><ele>297.0</ele><time>2026-05-04T11:47:23.001Z</time></trkpt><trkpt lat="42.24111472193762" lon="19.877265096053694"><ele>297.0</ele><time>2026-05-04T11:47:25.001Z</time></trkpt><trkpt lat="42.24106531420308" lon="19.877193592911567"><ele>297.0</ele><time>2026-05-04T11:47:27.001Z</time></trkpt><trkpt lat="42.2410148892201" lon="19.877122271861165"><ele>297.0</ele><time>2026-05-04T11:47:29.001Z</time></trkpt><trkpt lat="42.24096278289268" lon="19.877049344361794"><ele>297.0</ele><time>2026-05-04T11:47:31.001Z</time></trkpt><trkpt lat="42.240914762643996" lon="19.8769741380304"><ele>297.0</ele><time>2026-05-04T11:47:33.001Z</time></trkpt><trkpt lat="42.24086831958683" lon="19.876899647062984"><ele>297.0</ele><time>2026-05-04T11:47:35.001Z</time></trkpt><trkpt lat="42.24081938207883" lon="19.87682877010843"><ele>297.0</ele><time>2026-05-04T11:47:37.001Z</time></trkpt><trkpt lat="42.24077366002627" lon="19.876760114459625"><ele>297.0</ele><time>2026-05-04T11:47:39.001Z</time></trkpt><trkpt lat="42.24072267338408" lon="19.876685132101187"><ele>297.0</ele><time>2026-05-04T11:47:41Z</time></trkpt><trkpt lat="42.240670885345665" lon="19.87661502996663"><ele>297.0</ele><time>2026-05-04T11:47:43Z</time></trkpt><trkpt lat="42.24061984499049" lon="19.876547559721594"><ele>297.0</ele><time>2026-05-04T11:47:45Z</time></trkpt><trkpt lat="42.24056518015053" lon="19.876480138450425"><ele>297.0</ele><time>2026-05-04T11:47:47Z</time></trkpt><trkpt lat="42.24051223252334" lon="19.8764140375522"><ele>297.0</ele><time>2026-05-04T11:47:49Z</time></trkpt><trkpt lat="42.24045713934092" lon="19.876348105818078"><ele>297.0</ele><time>2026-05-04T11:47:51Z</time></trkpt><trkpt lat="42.24040458661658" lon="19.87628431537998"><ele>297.0</ele><time>2026-05-04T11:47:53Z</time></trkpt><trkpt lat="42.24034945301725" lon="19.876224536276673"><ele>297.0</ele><time>2026-05-04T11:47:55Z</time></trkpt><trkpt lat="42.24029848438027" lon="19.876158685469818"><ele>297.0</ele><time>2026-05-04T11:47:56.999Z</time></trkpt><trkpt lat="42.24024238380076" lon="19.876098276793527"><ele>297.0</ele><time>2026-05-04T11:47:58.999Z</time></trkpt><trkpt lat="42.24018674165908" lon="19.876038549104113"><ele>297.0</ele><time>2026-05-04T11:48:00.999Z</time></trkpt><trkpt lat="42.24012874953015" lon="19.875982292431274"><ele>297.0</ele><time>2026-05-04T11:48:02.999Z</time></trkpt><trkpt lat="42.24007262114292" lon="19.875925142065896"><ele>297.0</ele><time>2026-05-04T11:48:04.999Z</time></trkpt><trkpt lat="42.24001484122342" lon="19.87586979823297"><ele>297.0</ele><time>2026-05-04T11:48:06.999Z</time></trkpt><trkpt lat="42.23995633011374" lon="19.87581507534716"><ele>297.0</ele><time>2026-05-04T11:48:08.999Z</time></trkpt><trkpt lat="42.2398997495169" lon="19.875761806587374"><ele>297.0</ele><time>2026-05-04T11:48:10.999Z</time></trkpt><trkpt lat="42.23983791503934" lon="19.875711337705877"><ele>297.0</ele><time>2026-05-04T11:48:12.999Z</time></trkpt><trkpt lat="42.23977911155506" lon="19.875664022880958"><ele>297.0</ele><time>2026-05-04T11:48:14.999Z</time></trkpt><trkpt lat="42.23971461688398" lon="19.87560638625791"><ele>297.0</ele><time>2026-05-04T11:48:16.999Z</time></trkpt><trkpt lat="42.23965423797039" lon="19.875555841406797"><ele>297.0</ele><time>2026-05-04T11:48:18.999Z</time></trkpt><trkpt lat="42.23959340083875" lon="19.875506800293195"><ele>297.0</ele><time>2026-05-04T11:48:20.999Z</time></trkpt><trkpt lat="42.23952445507115" lon="19.875451089561594"><ele>297.0</ele><time>2026-05-04T11:48:22.999Z</time></trkpt><trkpt lat="42.2394681135301" lon="19.875401244186982"><ele>297.0</ele><time>2026-05-04T11:48:24.999Z</time></trkpt><trkpt lat="42.239404708190925" lon="19.875353904041386"><ele>297.0</ele><time>2026-05-04T11:48:26.999Z</time></trkpt><trkpt lat="42.23934125604707" lon="19.87531780513585"><ele>297.0</ele><time>2026-05-04T11:48:28.999Z</time></trkpt><trkpt lat="42.239276134949414" lon="19.875280067535783"><ele>297.0</ele><time>2026-05-04T11:48:30.999Z</time></trkpt><trkpt lat="42.23922124250733" lon="19.875233322414566"><ele>297.0</ele><time>2026-05-04T11:48:32.999Z</time></trkpt><trkpt lat="42.23915852779907" lon="19.875200701706355"><ele>297.0</ele><time>2026-05-04T11:48:34.999Z</time></trkpt><trkpt lat="42.23909388051575" lon="19.875177092229666"><ele>297.0</ele><time>2026-05-04T11:48:36.999Z</time></trkpt><trkpt lat="42.23903219856991" lon="19.875126235625217"><ele>297.0</ele><time>2026-05-04T11:48:38.999Z</time></trkpt><trkpt lat="42.23897013049851" lon="19.875089760097683"><ele>297.0</ele><time>2026-05-04T11:48:40.999Z</time></trkpt><trkpt lat="42.23890871258851" lon="19.87504657793315"><ele>297.0</ele><time>2026-05-04T11:48:42.999Z</time></trkpt><trkpt lat="42.23884487475434" lon="19.875013349356653"><ele>297.0</ele><time>2026-05-04T11:48:44.999Z</time></trkpt><trkpt lat="42.23877609726037" lon="19.87498195812479"><ele>297.0</ele><time>2026-05-04T11:48:46.999Z</time></trkpt><trkpt lat="42.23871578241579" lon="19.87494163459378"><ele>297.0</ele><time>2026-05-04T11:48:48.999Z</time></trkpt><trkpt lat="42.238644347536976" lon="19.87490655254556"><ele>297.0</ele><time>2026-05-04T11:48:50.999Z</time></trkpt><trkpt lat="42.23857910880098" lon="19.874872747020163"><ele>297.0</ele><time>2026-05-04T11:48:52.999Z</time></trkpt><trkpt lat="42.23851345046246" lon="19.874841955871084"><ele>297.0</ele><time>2026-05-04T11:48:54.999Z</time></trkpt><trkpt lat="42.238445903460736" lon="19.874813982979305"><ele>297.0</ele><time>2026-05-04T11:48:56.999Z</time></trkpt><trkpt lat="42.23837726788138" lon="19.874785768534554"><ele>297.0</ele><time>2026-05-04T11:48:58.999Z</time></trkpt><trkpt lat="42.23830711714047" lon="19.874765133018123"><ele>297.0</ele><time>2026-05-04T11:49:00.999Z</time></trkpt><trkpt lat="42.23823303365437" lon="19.874741102004684"><ele>297.0</ele><time>2026-05-04T11:49:02.999Z</time></trkpt><trkpt lat="42.23816086707195" lon="19.874724106471703"><ele>297.0</ele><time>2026-05-04T11:49:04.999Z</time></trkpt><trkpt lat="42.238092118523284" lon="19.874707025912464"><ele>297.0</ele><time>2026-05-04T11:49:07Z</time></trkpt><trkpt lat="42.23802296618141" lon="19.874688637193476"><ele>297.0</ele><time>2026-05-04T11:49:09Z</time></trkpt><trkpt lat="42.23795425660245" lon="19.874672101128"><ele>297.0</ele><time>2026-05-04T11:49:11Z</time></trkpt><trkpt lat="42.23788589052772" lon="19.87466272430475"><ele>297.0</ele><time>2026-05-04T11:49:13Z</time></trkpt><trkpt lat="42.23781920940824" lon="19.874650801194118"><ele>297.0</ele><time>2026-05-04T11:49:15Z</time></trkpt><trkpt lat="42.23774988770757" lon="19.874639255046226"><ele>297.0</ele><time>2026-05-04T11:49:17Z</time></trkpt><trkpt lat="42.23767905147368" lon="19.874628823914296"><ele>297.0</ele><time>2026-05-04T11:49:19Z</time></trkpt><trkpt lat="42.23760809446575" lon="19.87461630501344"><ele>297.0</ele><time>2026-05-04T11:49:21Z</time></trkpt><trkpt lat="42.2375359128523" lon="19.874608403249056"><ele>297.0</ele><time>2026-05-04T11:49:23Z</time></trkpt><trkpt lat="42.2374671140037" lon="19.874603337801627"><ele>297.0</ele><time>2026-05-04T11:49:25Z</time></trkpt><trkpt lat="42.23739481892808" lon="19.874598961129468"><ele>297.0</ele><time>2026-05-04T11:49:27Z</time></trkpt><trkpt lat="42.23732283401934" lon="19.874595956435936"><ele>297.0</ele><time>2026-05-04T11:49:29Z</time></trkpt><trkpt lat="42.23724954537094" lon="19.87459164260656"><ele>297.0</ele><time>2026-05-04T11:49:31Z</time></trkpt><trkpt lat="42.23718447128045" lon="19.87459179918312"><ele>297.0</ele><time>2026-05-04T11:49:33Z</time></trkpt><trkpt lat="42.23711225396781" lon="19.87459227929954"><ele>297.0</ele><time>2026-05-04T11:49:35Z</time></trkpt><trkpt lat="42.23704061923856" lon="19.874597967590635"><ele>297.0</ele><time>2026-05-04T11:49:37Z</time></trkpt><trkpt lat="42.236972113655916" lon="19.874605342543592"><ele>297.0</ele><time>2026-05-04T11:49:39Z</time></trkpt><trkpt lat="42.236902330284984" lon="19.8746188130525"><ele>297.0</ele><time>2026-05-04T11:49:41Z</time></trkpt><trkpt lat="42.2368313868487" lon="19.874633063085135"><ele>297.0</ele><time>2026-05-04T11:49:43Z</time></trkpt><trkpt lat="42.23675973393181" lon="19.874643781836372"><ele>297.0</ele><time>2026-05-04T11:49:45Z</time></trkpt><trkpt lat="42.2366890154997" lon="19.87465395243685"><ele>297.0</ele><time>2026-05-04T11:49:47Z</time></trkpt><trkpt lat="42.236590300638554" lon="19.87467466318662"><ele>297.0</ele><time>2026-05-04T11:49:50Z</time></trkpt><trkpt lat="42.236523865483456" lon="19.874696365613204"><ele>297.0</ele><time>2026-05-04T11:49:52Z</time></trkpt><trkpt lat="42.23645380815001" lon="19.87471759739771"><ele>297.0</ele><time>2026-05-04T11:49:54Z</time></trkpt><trkpt lat="42.236383815912326" lon="19.874734702157294"><ele>297.0</ele><time>2026-05-04T11:49:56Z</time></trkpt><trkpt lat="42.236314236496554" lon="19.874752815670707"><ele>297.0</ele><time>2026-05-04T11:49:58Z</time></trkpt><trkpt lat="42.236247662342215" lon="19.87477879529814"><ele>297.0</ele><time>2026-05-04T11:50:00Z</time></trkpt><trkpt lat="42.236181355625746" lon="19.874806677076098"><ele>297.0</ele><time>2026-05-04T11:50:02Z</time></trkpt><trkpt lat="42.236113687807865" lon="19.874835516550213"><ele>297.0</ele><time>2026-05-04T11:50:04Z</time></trkpt><trkpt lat="42.23605171467567" lon="19.8748673123534"><ele>297.0</ele><time>2026-05-04T11:50:06Z</time></trkpt><trkpt lat="42.235985150330684" lon="19.874902195544713"><ele>297.0</ele><time>2026-05-04T11:50:08Z</time></trkpt><trkpt lat="42.23591415726821" lon="19.87493977581102"><ele>297.0</ele><time>2026-05-04T11:50:10Z</time></trkpt><trkpt lat="42.235849575280625" lon="19.874981082110704"><ele>297.0</ele><time>2026-05-04T11:50:12Z</time></trkpt><trkpt lat="42.2357874672225" lon="19.875023861574082"><ele>297.0</ele><time>2026-05-04T11:50:14Z</time></trkpt><trkpt lat="42.23572754485281" lon="19.875069500270595"><ele>297.0</ele><time>2026-05-04T11:50:16Z</time></trkpt><trkpt lat="42.235667022318154" lon="19.875113027300124"><ele>297.0</ele><time>2026-05-04T11:50:18Z</time></trkpt><trkpt lat="42.23560495474856" lon="19.875164479272083"><ele>297.0</ele><time>2026-05-04T11:50:20Z</time></trkpt><trkpt lat="42.23554626170762" lon="19.875214945155665"><ele>297.0</ele><time>2026-05-04T11:50:22Z</time></trkpt><trkpt lat="42.23548885578771" lon="19.875264581147796"><ele>297.0</ele><time>2026-05-04T11:50:24Z</time></trkpt><trkpt lat="42.23542953413044" lon="19.875314931814643"><ele>297.0</ele><time>2026-05-04T11:50:26Z</time></trkpt><trkpt lat="42.235374346995435" lon="19.87536847003936"><ele>297.0</ele><time>2026-05-04T11:50:28Z</time></trkpt><trkpt lat="42.23531791054267" lon="19.87542603235391"><ele>297.0</ele><time>2026-05-04T11:50:30Z</time></trkpt><trkpt lat="42.235263066311084" lon="19.875483947459244"><ele>297.0</ele><time>2026-05-04T11:50:32Z</time></trkpt><trkpt lat="42.23520805666706" lon="19.875545601789817"><ele>297.0</ele><time>2026-05-04T11:50:34Z</time></trkpt><trkpt lat="42.235153520385666" lon="19.875609197969194"><ele>297.0</ele><time>2026-05-04T11:50:36Z</time></trkpt><trkpt lat="42.235099884204914" lon="19.875674864645337"><ele>297.0</ele><time>2026-05-04T11:50:38Z</time></trkpt><trkpt lat="42.23504564466362" lon="19.875742807235742"><ele>297.0</ele><time>2026-05-04T11:50:40Z</time></trkpt><trkpt lat="42.23499337398843" lon="19.875811276301334"><ele>297.0</ele><time>2026-05-04T11:50:42Z</time></trkpt><trkpt lat="42.2349428000742" lon="19.875881463965595"><ele>297.0</ele><time>2026-05-04T11:50:44Z</time></trkpt><trkpt lat="42.23489628655453" lon="19.875951722074944"><ele>297.0</ele><time>2026-05-04T11:50:46Z</time></trkpt><trkpt lat="42.23484152648479" lon="19.87602666619544"><ele>297.0</ele><time>2026-05-04T11:50:48Z</time></trkpt><trkpt lat="42.234792530696865" lon="19.876098759810542"><ele>297.0</ele><time>2026-05-04T11:50:50Z</time></trkpt><trkpt lat="42.234746854992885" lon="19.87617524232631"><ele>297.0</ele><time>2026-05-04T11:50:52Z</time></trkpt><trkpt lat="42.234686816596444" lon="19.87628147054217"><ele>297.0</ele><time>2026-05-04T11:50:55Z</time></trkpt><trkpt lat="42.23464873125928" lon="19.87636173954019"><ele>297.0</ele><time>2026-05-04T11:50:57Z</time></trkpt><trkpt lat="42.23461062327923" lon="19.876437949838678"><ele>297.0</ele><time>2026-05-04T11:50:59Z</time></trkpt><trkpt lat="42.2345731898709" lon="19.876519363193022"><ele>297.0</ele><time>2026-05-04T11:51:01Z</time></trkpt><trkpt lat="42.23453433143986" lon="19.87660260337479"><ele>297.0</ele><time>2026-05-04T11:51:03Z</time></trkpt><trkpt lat="42.234498243166954" lon="19.876683577992765"><ele>297.0</ele><time>2026-05-04T11:51:05Z</time></trkpt><trkpt lat="42.234460554132305" lon="19.87676837565673"><ele>297.0</ele><time>2026-05-04T11:51:07Z</time></trkpt><trkpt lat="42.23442220025529" lon="19.876848738597115"><ele>297.0</ele><time>2026-05-04T11:51:09Z</time></trkpt><trkpt lat="42.23438250777447" lon="19.876932626096895"><ele>297.0</ele><time>2026-05-04T11:51:11Z</time></trkpt><trkpt lat="42.234342249288325" lon="19.87701491700188"><ele>297.0</ele><time>2026-05-04T11:51:13Z</time></trkpt><trkpt lat="42.234304230327545" lon="19.877097436186723"><ele>297.0</ele><time>2026-05-04T11:51:15Z</time></trkpt><trkpt lat="42.23427318262027" lon="19.877183080532287"><ele>297.0</ele><time>2026-05-04T11:51:17Z</time></trkpt><trkpt lat="42.234233372389085" lon="19.877263987983692"><ele>297.0</ele><time>2026-05-04T11:51:19Z</time></trkpt><trkpt lat="42.23420008533176" lon="19.87735122065851"><ele>297.0</ele><time>2026-05-04T11:51:21Z</time></trkpt><trkpt lat="42.23415735910637" lon="19.87742848637784"><ele>297.0</ele><time>2026-05-04T11:51:23Z</time></trkpt><trkpt lat="42.23412681392015" lon="19.87751239106727"><ele>297.0</ele><time>2026-05-04T11:51:25Z</time></trkpt><trkpt lat="42.23409733488892" lon="19.877597192021412"><ele>297.0</ele><time>2026-05-04T11:51:27Z</time></trkpt><trkpt lat="42.23406219999646" lon="19.877680825841377"><ele>297.0</ele><time>2026-05-04T11:51:29Z</time></trkpt><trkpt lat="42.234029689284206" lon="19.877768966795053"><ele>297.0</ele><time>2026-05-04T11:51:31Z</time></trkpt><trkpt lat="42.23399923118458" lon="19.877869613478577"><ele>297.0</ele><time>2026-05-04T11:51:33Z</time></trkpt><trkpt lat="42.23395128212888" lon="19.877948162764906"><ele>297.0</ele><time>2026-05-04T11:51:35Z</time></trkpt><trkpt lat="42.23391156217517" lon="19.878038082143036"><ele>297.0</ele><time>2026-05-04T11:51:37Z</time></trkpt><trkpt lat="42.2338786649801" lon="19.878127909125187"><ele>297.0</ele><time>2026-05-04T11:51:39Z</time></trkpt><trkpt lat="42.233841083708164" lon="19.87821924020668"><ele>297.0</ele><time>2026-05-04T11:51:41Z</time></trkpt><trkpt lat="42.23380181429355" lon="19.878306177283328"><ele>297.0</ele><time>2026-05-04T11:51:43Z</time></trkpt><trkpt lat="42.23376551537028" lon="19.8783956833071"><ele>297.0</ele><time>2026-05-04T11:51:45Z</time></trkpt><trkpt lat="42.23372479450061" lon="19.87848048715332"><ele>297.0</ele><time>2026-05-04T11:51:47Z</time></trkpt><trkpt lat="42.23368610788482" lon="19.87856655900821"><ele>297.0</ele><time>2026-05-04T11:51:49Z</time></trkpt><trkpt lat="42.23364810643093" lon="19.878654596538393"><ele>297.0</ele><time>2026-05-04T11:51:51Z</time></trkpt><trkpt lat="42.23361454505599" lon="19.878742112501723"><ele>297.0</ele><time>2026-05-04T11:51:53Z</time></trkpt><trkpt lat="42.2335748230071" lon="19.878827619440933"><ele>297.0</ele><time>2026-05-04T11:51:55Z</time></trkpt><trkpt lat="42.233537557096774" lon="19.87891345337028"><ele>297.0</ele><time>2026-05-04T11:51:57Z</time></trkpt><trkpt lat="42.23350171281477" lon="19.879000291426543"><ele>297.0</ele><time>2026-05-04T11:51:59Z</time></trkpt><trkpt lat="42.2334660198829" lon="19.879086070049098"><ele>297.0</ele><time>2026-05-04T11:52:01Z</time></trkpt><trkpt lat="42.23343251016279" lon="19.87917486296539"><ele>297.0</ele><time>2026-05-04T11:52:03Z</time></trkpt><trkpt lat="42.23339641749464" lon="19.879258817762548"><ele>297.0</ele><time>2026-05-04T11:52:05Z</time></trkpt><trkpt lat="42.23336521171273" lon="19.87935008926248"><ele>297.0</ele><time>2026-05-04T11:52:07Z</time></trkpt><trkpt lat="42.233329572187905" lon="19.87943623111417"><ele>297.0</ele><time>2026-05-04T11:52:09Z</time></trkpt><trkpt lat="42.23329456297951" lon="19.87952385325407"><ele>297.0</ele><time>2026-05-04T11:52:11Z</time></trkpt><trkpt lat="42.233262270466184" lon="19.879613061128808"><ele>297.0</ele><time>2026-05-04T11:52:13Z</time></trkpt><trkpt lat="42.23322511871667" lon="19.879695644292088"><ele>297.0</ele><time>2026-05-04T11:52:15Z</time></trkpt><trkpt lat="42.23319587900106" lon="19.879787484367046"><ele>297.0</ele><time>2026-05-04T11:52:17Z</time></trkpt><trkpt lat="42.23316905395202" lon="19.87987046771456"><ele>297.0</ele><time>2026-05-04T11:52:19Z</time></trkpt><trkpt lat="42.23313325951414" lon="19.879949075479143"><ele>297.0</ele><time>2026-05-04T11:52:21Z</time></trkpt><trkpt lat="42.23308657784422" lon="19.8800677731028"><ele>297.0</ele><time>2026-05-04T11:52:24Z</time></trkpt><trkpt lat="42.23306066739198" lon="19.88016302782351"><ele>297.0</ele><time>2026-05-04T11:52:26Z</time></trkpt><trkpt lat="42.23303017518597" lon="19.880240797334235"><ele>297.0</ele><time>2026-05-04T11:52:28Z</time></trkpt><trkpt lat="42.23300366699118" lon="19.8803294786134"><ele>297.0</ele><time>2026-05-04T11:52:30Z</time></trkpt><trkpt lat="42.23297362263529" lon="19.880415245738796"><ele>297.0</ele><time>2026-05-04T11:52:32Z</time></trkpt><trkpt lat="42.23294657997708" lon="19.880504064765972"><ele>297.0</ele><time>2026-05-04T11:52:34Z</time></trkpt><trkpt lat="42.23291786320859" lon="19.880591393421682"><ele>297.0</ele><time>2026-05-04T11:52:36Z</time></trkpt><trkpt lat="42.232888638556766" lon="19.88067925663513"><ele>297.0</ele><time>2026-05-04T11:52:38Z</time></trkpt><trkpt lat="42.232859497801265" lon="19.880766299327163"><ele>297.0</ele><time>2026-05-04T11:52:40Z</time></trkpt><trkpt lat="42.232823873970084" lon="19.880847518992372"><ele>297.0</ele><time>2026-05-04T11:52:42Z</time></trkpt><trkpt lat="42.232789899434884" lon="19.88093427907876"><ele>297.0</ele><time>2026-05-04T11:52:44Z</time></trkpt><trkpt lat="42.23275289205898" lon="19.881020764406955"><ele>297.0</ele><time>2026-05-04T11:52:46Z</time></trkpt><trkpt lat="42.23272073367442" lon="19.881109423729875"><ele>297.0</ele><time>2026-05-04T11:52:48Z</time></trkpt><trkpt lat="42.23268738359658" lon="19.881198278132004"><ele>297.0</ele><time>2026-05-04T11:52:50Z</time></trkpt><trkpt lat="42.23265531226298" lon="19.88128766996359"><ele>297.0</ele><time>2026-05-04T11:52:52Z</time></trkpt><trkpt lat="42.23262418567589" lon="19.88137794973583"><ele>297.0</ele><time>2026-05-04T11:52:54Z</time></trkpt><trkpt lat="42.232588330528785" lon="19.881468580961975"><ele>297.0</ele><time>2026-05-04T11:52:56Z</time></trkpt><trkpt lat="42.232554559413934" lon="19.8815572360362"><ele>297.0</ele><time>2026-05-04T11:52:58Z</time></trkpt><trkpt lat="42.23252032159146" lon="19.881645692898015"><ele>297.0</ele><time>2026-05-04T11:53:00Z</time></trkpt><trkpt lat="42.23248727931622" lon="19.88173437722852"><ele>289.8571428571429</ele><time>2026-05-04T11:53:02Z</time></trkpt><trkpt lat="42.23245655647513" lon="19.88182393227436"><ele>282.7142857142857</ele><time>2026-05-04T11:53:04Z</time></trkpt><trkpt lat="42.23242268171031" lon="19.88191310446734"><ele>275.57142857142856</ele><time>2026-05-04T11:53:06Z</time></trkpt><trkpt lat="42.23239182312601" lon="19.88200316120975"><ele>268.42857142857144</ele><time>2026-05-04T11:53:08Z</time></trkpt><trkpt lat="42.23235745734397" lon="19.882091740205617"><ele>261.2857142857143</ele><time>2026-05-04T11:53:10Z</time></trkpt><trkpt lat="42.23232442016484" lon="19.882180380114967"><ele>254.14285714285717</ele><time>2026-05-04T11:53:12Z</time></trkpt><trkpt lat="42.232290496746145" lon="19.882268437423207"><ele>247.0</ele><time>2026-05-04T11:53:14Z</time></trkpt><trkpt lat="42.23225508894191" lon="19.88235677694462"><ele>247.0</ele><time>2026-05-04T11:53:16Z</time></trkpt><trkpt lat="42.232225315295594" lon="19.882445122661355"><ele>247.0</ele><time>2026-05-04T11:53:18Z</time></trkpt><trkpt lat="42.23219303208259" lon="19.882532267253005"><ele>247.0</ele><time>2026-05-04T11:53:20Z</time></trkpt><trkpt lat="42.232160285124344" lon="19.88262040430936"><ele>247.0</ele><time>2026-05-04T11:53:22Z</time></trkpt><trkpt lat="42.23212729428417" lon="19.882707433250985"><ele>247.0</ele><time>2026-05-04T11:53:24Z</time></trkpt><trkpt lat="42.232092974941054" lon="19.882792695687844"><ele>247.0</ele><time>2026-05-04T11:53:26Z</time></trkpt><trkpt lat="42.23205783714003" lon="19.882879458114314"><ele>247.0</ele><time>2026-05-04T11:53:28Z</time></trkpt><trkpt lat="42.232024073800176" lon="19.882966529873475"><ele>245.42857142857144</ele><time>2026-05-04T11:53:30Z</time></trkpt><trkpt lat="42.23198939033937" lon="19.88305381361942"><ele>243.85714285714283</ele><time>2026-05-04T11:53:32Z</time></trkpt><trkpt lat="42.23195346020617" lon="19.88314099233598"><ele>242.28571428571428</ele><time>2026-05-04T11:53:34Z</time></trkpt><trkpt lat="42.23191750547839" lon="19.883225599423813"><ele>240.71428571428572</ele><time>2026-05-04T11:53:36Z</time></trkpt><trkpt lat="42.2318823381622" lon="19.883312344779295"><ele>239.14285714285717</ele><time>2026-05-04T11:53:38Z</time></trkpt><trkpt lat="42.231844930697605" lon="19.883397358963727"><ele>237.57142857142856</ele><time>2026-05-04T11:53:40Z</time></trkpt><trkpt lat="42.231806415637166" lon="19.883485311315173"><ele>236.0</ele><time>2026-05-04T11:53:42Z</time></trkpt><trkpt lat="42.231765507457986" lon="19.88357019302349"><ele>236.0</ele><time>2026-05-04T11:53:44Z</time></trkpt><trkpt lat="42.231723208455875" lon="19.88365676752304"><ele>236.0</ele><time>2026-05-04T11:53:46Z</time></trkpt><trkpt lat="42.23168544426501" lon="19.883743710591272"><ele>236.0</ele><time>2026-05-04T11:53:48Z</time></trkpt><trkpt lat="42.23164597107773" lon="19.883830582033408"><ele>236.0</ele><time>2026-05-04T11:53:50Z</time></trkpt><trkpt lat="42.23161041658558" lon="19.883915977889746"><ele>236.0</ele><time>2026-05-04T11:53:52Z</time></trkpt><trkpt lat="42.23156463522719" lon="19.883996327051694"><ele>236.0</ele><time>2026-05-04T11:53:54Z</time></trkpt><trkpt lat="42.23153040275184" lon="19.884078035458327"><ele>236.0</ele><time>2026-05-04T11:53:56Z</time></trkpt><trkpt lat="42.23149231062524" lon="19.88416694191122"><ele>235.28571428571428</ele><time>2026-05-04T11:53:58Z</time></trkpt><trkpt lat="42.23145371206765" lon="19.88425320986719"><ele>234.57142857142858</ele><time>2026-05-04T11:54:00Z</time></trkpt><trkpt lat="42.23141583224268" lon="19.884339958489797"><ele>233.85714285714286</ele><time>2026-05-04T11:54:02Z</time></trkpt><trkpt lat="42.231378643801705" lon="19.884425370104335"><ele>233.14285714285714</ele><time>2026-05-04T11:54:04Z</time></trkpt><trkpt lat="42.23134040826027" lon="19.884511441507733"><ele>232.42857142857144</ele><time>2026-05-04T11:54:06Z</time></trkpt><trkpt lat="42.2313021692252" lon="19.884597722324465"><ele>231.71428571428572</ele><time>2026-05-04T11:54:08Z</time></trkpt><trkpt lat="42.23126455900253" lon="19.884685336296364"><ele>231.0</ele><time>2026-05-04T11:54:10Z</time></trkpt><trkpt lat="42.23122708053505" lon="19.884772023798956"><ele>231.0</ele><time>2026-05-04T11:54:12Z</time></trkpt><trkpt lat="42.23119313656397" lon="19.88486309604954"><ele>231.0</ele><time>2026-05-04T11:54:14Z</time></trkpt><trkpt lat="42.23115471248806" lon="19.884947486702536"><ele>231.0</ele><time>2026-05-04T11:54:16Z</time></trkpt><trkpt lat="42.23111779535151" lon="19.88503271590081"><ele>231.0</ele><time>2026-05-04T11:54:18Z</time></trkpt><trkpt lat="42.2310804766008" lon="19.885118513431735"><ele>231.0</ele><time>2026-05-04T11:54:20Z</time></trkpt><trkpt lat="42.23104174138697" lon="19.885205320131135"><ele>231.0</ele><time>2026-05-04T11:54:22Z</time></trkpt><trkpt lat="42.231006007116385" lon="19.88529365002237"><ele>231.0</ele><time>2026-05-04T11:54:24Z</time></trkpt><trkpt lat="42.23097066177108" lon="19.885380465175146"><ele>231.0</ele><time>2026-05-04T11:54:26Z</time></trkpt><trkpt lat="42.23093513464343" lon="19.885468359367465"><ele>231.0</ele><time>2026-05-04T11:54:28Z</time></trkpt><trkpt lat="42.23089841940259" lon="19.885553234387995"><ele>231.0</ele><time>2026-05-04T11:54:30Z</time></trkpt><trkpt lat="42.230861758637616" lon="19.885637956700474"><ele>231.0</ele><time>2026-05-04T11:54:32Z</time></trkpt><trkpt lat="42.230829869676455" lon="19.885722823899314"><ele>231.0</ele><time>2026-05-04T11:54:34Z</time></trkpt><trkpt lat="42.23079443578901" lon="19.885809744415372"><ele>231.0</ele><time>2026-05-04T11:54:36Z</time></trkpt><trkpt lat="42.23075925993423" lon="19.885896444627736"><ele>231.0</ele><time>2026-05-04T11:54:38Z</time></trkpt><trkpt lat="42.23072473304515" lon="19.88598329263614"><ele>231.0</ele><time>2026-05-04T11:54:40Z</time></trkpt><trkpt lat="42.23069147603435" lon="19.886070092667936"><ele>231.0</ele><time>2026-05-04T11:54:42Z</time></trkpt><trkpt lat="42.23065683713583" lon="19.886157208842974"><ele>231.0</ele><time>2026-05-04T11:54:44Z</time></trkpt><trkpt lat="42.230622704668804" lon="19.88624429048854"><ele>231.0</ele><time>2026-05-04T11:54:46Z</time></trkpt><trkpt lat="42.23058971953357" lon="19.886332633757043"><ele>231.0</ele><time>2026-05-04T11:54:48Z</time></trkpt><trkpt lat="42.230556403537896" lon="19.88642082720737"><ele>231.0</ele><time>2026-05-04T11:54:50Z</time></trkpt><trkpt lat="42.23052274463437" lon="19.886508113407196"><ele>231.0</ele><time>2026-05-04T11:54:52Z</time></trkpt><trkpt lat="42.23049585212492" lon="19.8865927839296"><ele>223.42857142857142</ele><time>2026-05-04T11:54:54Z</time></trkpt><trkpt lat="42.2304556387749" lon="19.8866695269742"><ele>215.85714285714286</ele><time>2026-05-04T11:54:56Z</time></trkpt><trkpt lat="42.23042710874397" lon="19.8867583358582"><ele>208.28571428571428</ele><time>2026-05-04T11:54:58Z</time></trkpt><trkpt lat="42.23039621137103" lon="19.886841813412182"><ele>200.71428571428572</ele><time>2026-05-04T11:55:00Z</time></trkpt><trkpt lat="42.23036559280867" lon="19.88692220682515"><ele>193.14285714285714</ele><time>2026-05-04T11:55:02Z</time></trkpt><trkpt lat="42.23033853767263" lon="19.887006788578454"><ele>185.57142857142856</ele><time>2026-05-04T11:55:04Z</time></trkpt><trkpt lat="42.230309527168885" lon="19.887092653263043"><ele>178.0</ele><time>2026-05-04T11:55:06Z</time></trkpt><trkpt lat="42.23027954599933" lon="19.88717829451508"><ele>177.99999999999997</ele><time>2026-05-04T11:55:08Z</time></trkpt><trkpt lat="42.23024927186045" lon="19.88726614401975"><ele>178.0</ele><time>2026-05-04T11:55:10Z</time></trkpt><trkpt lat="42.23023126854123" lon="19.887357353292856"><ele>178.0</ele><time>2026-05-04T11:55:12Z</time></trkpt><trkpt lat="42.23019111898675" lon="19.88743963413389"><ele>178.0</ele><time>2026-05-04T11:55:14Z</time></trkpt><trkpt lat="42.230164022463924" lon="19.88753002815446"><ele>178.0</ele><time>2026-05-04T11:55:16Z</time></trkpt><trkpt lat="42.23013709104508" lon="19.887621628824537"><ele>177.99999999999997</ele><time>2026-05-04T11:55:18Z</time></trkpt><trkpt lat="42.230104399491395" lon="19.887710286219882"><ele>178.0</ele><time>2026-05-04T11:55:20Z</time></trkpt><trkpt lat="42.23007800581678" lon="19.88780196104592"><ele>178.42857142857142</ele><time>2026-05-04T11:55:22Z</time></trkpt><trkpt lat="42.23004940790894" lon="19.88789500958727"><ele>178.85714285714286</ele><time>2026-05-04T11:55:24Z</time></trkpt><trkpt lat="42.23002479848979" lon="19.88798739044144"><ele>179.28571428571428</ele><time>2026-05-04T11:55:26Z</time></trkpt><trkpt lat="42.22999769888554" lon="19.88807204807945"><ele>179.71428571428572</ele><time>2026-05-04T11:55:28Z</time></trkpt><trkpt lat="42.22997317815068" lon="19.888166162490087"><ele>180.14285714285714</ele><time>2026-05-04T11:55:30Z</time></trkpt><trkpt lat="42.22994555451919" lon="19.888256675692563"><ele>180.57142857142856</ele><time>2026-05-04T11:55:32Z</time></trkpt><trkpt lat="42.22991995349674" lon="19.888345516615903"><ele>181.0</ele><time>2026-05-04T11:55:34Z</time></trkpt><trkpt lat="42.229892965237575" lon="19.88843634586597"><ele>181.0</ele><time>2026-05-04T11:55:36.001Z</time></trkpt><trkpt lat="42.22986839694908" lon="19.88853058191109"><ele>181.0</ele><time>2026-05-04T11:55:38.001Z</time></trkpt><trkpt lat="42.2298452339735" lon="19.88862363996902"><ele>181.0</ele><time>2026-05-04T11:55:40.001Z</time></trkpt><trkpt lat="42.2298190784465" lon="19.888718102513103"><ele>181.0</ele><time>2026-05-04T11:55:42.001Z</time></trkpt><trkpt lat="42.22978454211278" lon="19.888813182119602"><ele>181.0</ele><time>2026-05-04T11:55:44Z</time></trkpt><trkpt lat="42.22976811868158" lon="19.88891067358038"><ele>181.0</ele><time>2026-05-04T11:55:46Z</time></trkpt><trkpt lat="42.229741392605746" lon="19.889000700369124"><ele>181.0</ele><time>2026-05-04T11:55:48Z</time></trkpt><trkpt lat="42.22971365741782" lon="19.88908918484279"><ele>181.85714285714286</ele><time>2026-05-04T11:55:50Z</time></trkpt><trkpt lat="42.229692849991274" lon="19.889183892449495"><ele>182.71428571428572</ele><time>2026-05-04T11:55:52Z</time></trkpt><trkpt lat="42.22967026163862" lon="19.88927874947124"><ele>183.57142857142856</ele><time>2026-05-04T11:55:54Z</time></trkpt><trkpt lat="42.22964838335412" lon="19.88937350528428"><ele>184.42857142857144</ele><time>2026-05-04T11:55:56Z</time></trkpt><trkpt lat="42.22962719012387" lon="19.889467288353213"><ele>185.2857142857143</ele><time>2026-05-04T11:55:58Z</time></trkpt><trkpt lat="42.22960282866633" lon="19.889558226891406"><ele>186.14285714285714</ele><time>2026-05-04T11:56:00Z</time></trkpt><trkpt lat="42.22958353127077" lon="19.889653180621895"><ele>187.0</ele><time>2026-05-04T11:56:02Z</time></trkpt><trkpt lat="42.229565001925714" lon="19.889749686816465"><ele>185.0</ele><time>2026-05-04T11:56:04Z</time></trkpt><trkpt lat="42.229545317200014" lon="19.88984523476554"><ele>183.0</ele><time>2026-05-04T11:56:06Z</time></trkpt><trkpt lat="42.22952350363304" lon="19.889940926409963"><ele>181.0</ele><time>2026-05-04T11:56:08Z</time></trkpt><trkpt lat="42.22950547254933" lon="19.890035871563118"><ele>179.0</ele><time>2026-05-04T11:56:10Z</time></trkpt><trkpt lat="42.229487224029896" lon="19.89013133847504"><ele>177.0</ele><time>2026-05-04T11:56:12Z</time></trkpt><trkpt lat="42.22946833795503" lon="19.890227233171437"><ele>175.0</ele><time>2026-05-04T11:56:14Z</time></trkpt><trkpt lat="42.22944898225846" lon="19.89032315287381"><ele>173.0</ele><time>2026-05-04T11:56:16Z</time></trkpt><trkpt lat="42.229431321574395" lon="19.89041863616732"><ele>172.85714285714286</ele><time>2026-05-04T11:56:18Z</time></trkpt><trkpt lat="42.229408697470234" lon="19.89051897269746"><ele>172.71428571428572</ele><time>2026-05-04T11:56:20Z</time></trkpt><trkpt lat="42.22938668493609" lon="19.89061294096153"><ele>172.57142857142858</ele><time>2026-05-04T11:56:21.999Z</time></trkpt><trkpt lat="42.22936666456909" lon="19.890707597456494"><ele>172.42857142857144</ele><time>2026-05-04T11:56:23.999Z</time></trkpt><trkpt lat="42.22934479828203" lon="19.8908013596349"><ele>172.28571428571428</ele><time>2026-05-04T11:56:25.999Z</time></trkpt><trkpt lat="42.229322547170476" lon="19.89089670282461"><ele>172.14285714285717</ele><time>2026-05-04T11:56:27.999Z</time></trkpt><trkpt lat="42.22929829497893" lon="19.890990847094567"><ele>172.0</ele><time>2026-05-04T11:56:29.999Z</time></trkpt><trkpt lat="42.229273338348364" lon="19.8910841574001"><ele>173.85714285714286</ele><time>2026-05-04T11:56:31.999Z</time></trkpt><trkpt lat="42.229247740675326" lon="19.891176296026988"><ele>175.71428571428572</ele><time>2026-05-04T11:56:33.999Z</time></trkpt><trkpt lat="42.22922080298115" lon="19.89127004376642"><ele>177.57142857142856</ele><time>2026-05-04T11:56:35.999Z</time></trkpt><trkpt lat="42.229194263242945" lon="19.891362870764464"><ele>179.42857142857144</ele><time>2026-05-04T11:56:37.999Z</time></trkpt><trkpt lat="42.22916615657574" lon="19.89145530287699"><ele>181.28571428571428</ele><time>2026-05-04T11:56:39.999Z</time></trkpt><trkpt lat="42.22913777510604" lon="19.891545726867385"><ele>183.14285714285714</ele><time>2026-05-04T11:56:41.999Z</time></trkpt><trkpt lat="42.229106226210746" lon="19.891637843101616"><ele>185.0</ele><time>2026-05-04T11:56:43.999Z</time></trkpt><trkpt lat="42.229074597491184" lon="19.891730762236833"><ele>185.16666666666666</ele><time>2026-05-04T11:56:45.999Z</time></trkpt><trkpt lat="42.22903942029883" lon="19.89182149745746"><ele>185.33333333333331</ele><time>2026-05-04T11:56:47.999Z</time></trkpt><trkpt lat="42.22900479693198" lon="19.89191291163128"><ele>185.5</ele><time>2026-05-04T11:56:49.999Z</time></trkpt><trkpt lat="42.228967790808596" lon="19.892001214231485"><ele>185.66666666666666</ele><time>2026-05-04T11:56:51.999Z</time></trkpt><trkpt lat="42.22893017581485" lon="19.892088198444814"><ele>185.83333333333334</ele><time>2026-05-04T11:56:53.999Z</time></trkpt><trkpt lat="42.22888942197505" lon="19.89217417776212"><ele>186.0</ele><time>2026-05-04T11:56:55.999Z</time></trkpt><trkpt lat="42.2288477585637" lon="19.892258036850553"><ele>186.42857142857144</ele><time>2026-05-04T11:56:57.999Z</time></trkpt><trkpt lat="42.22880357629866" lon="19.892340818257953"><ele>186.85714285714286</ele><time>2026-05-04T11:56:59.999Z</time></trkpt><trkpt lat="42.22875747240407" lon="19.892420933128857"><ele>187.28571428571428</ele><time>2026-05-04T11:57:01.999Z</time></trkpt><trkpt lat="42.22871366860507" lon="19.892500833235935"><ele>187.71428571428572</ele><time>2026-05-04T11:57:03.999Z</time></trkpt><trkpt lat="42.2286659206886" lon="19.892579123274817"><ele>188.14285714285714</ele><time>2026-05-04T11:57:05.999Z</time></trkpt><trkpt lat="42.228616344081544" lon="19.892655093390427"><ele>188.57142857142858</ele><time>2026-05-04T11:57:07.999Z</time></trkpt><trkpt lat="42.22856792047838" lon="19.892729535967934"><ele>189.0</ele><time>2026-05-04T11:57:09.999Z</time></trkpt><trkpt lat="42.228516121113806" lon="19.892802323325096"><ele>187.0</ele><time>2026-05-04T11:57:11.999Z</time></trkpt><trkpt lat="42.228462071656374" lon="19.892873334212904"><ele>185.0</ele><time>2026-05-04T11:57:13.999Z</time></trkpt><trkpt lat="42.22840610067251" lon="19.892942938286634"><ele>183.0</ele><time>2026-05-04T11:57:15.999Z</time></trkpt><trkpt lat="42.228354042373894" lon="19.89301228881817"><ele>181.0</ele><time>2026-05-04T11:57:17.999Z</time></trkpt><trkpt lat="42.228297194750006" lon="19.893072342057366"><ele>179.0</ele><time>2026-05-04T11:57:19.999Z</time></trkpt><trkpt lat="42.22824253313901" lon="19.893138499093563"><ele>177.0</ele><time>2026-05-04T11:57:21.999Z</time></trkpt><trkpt lat="42.2281919490359" lon="19.89319948567655"><ele>175.0</ele><time>2026-05-04T11:57:23.999Z</time></trkpt><trkpt lat="42.22813713740338" lon="19.89326046973084"><ele>175.0</ele><time>2026-05-04T11:57:25.999Z</time></trkpt><trkpt lat="42.22808165896556" lon="19.893317348873815"><ele>175.0</ele><time>2026-05-04T11:57:27.999Z</time></trkpt><trkpt lat="42.228019882043114" lon="19.893378050683037"><ele>175.0</ele><time>2026-05-04T11:57:29.999Z</time></trkpt><trkpt lat="42.227961744600144" lon="19.89343505931537"><ele>175.0</ele><time>2026-05-04T11:57:32Z</time></trkpt><trkpt lat="42.227903786358084" lon="19.893491439363586"><ele>175.0</ele><time>2026-05-04T11:57:34Z</time></trkpt><trkpt lat="42.2278449239629" lon="19.89354719348223"><ele>175.0</ele><time>2026-05-04T11:57:36Z</time></trkpt><trkpt lat="42.22778861537871" lon="19.893600732230915"><ele>175.0</ele><time>2026-05-04T11:57:38Z</time></trkpt><trkpt lat="42.22772496607009" lon="19.89365231436053"><ele>175.0</ele><time>2026-05-04T11:57:40Z</time></trkpt><trkpt lat="42.22766159497563" lon="19.893702835873192"><ele>175.0</ele><time>2026-05-04T11:57:42Z</time></trkpt><trkpt lat="42.22759937476624" lon="19.893752459538327"><ele>175.0</ele><time>2026-05-04T11:57:44Z</time></trkpt><trkpt lat="42.227533705935414" lon="19.893798024978903"><ele>175.0</ele><time>2026-05-04T11:57:46Z</time></trkpt><trkpt lat="42.227467724343" lon="19.893846016576006"><ele>175.0</ele><time>2026-05-04T11:57:48Z</time></trkpt><trkpt lat="42.22740016321891" lon="19.89389196341034"><ele>175.0</ele><time>2026-05-04T11:57:50Z</time></trkpt><trkpt lat="42.227333465234395" lon="19.893935067823392"><ele>175.0</ele><time>2026-05-04T11:57:52Z</time></trkpt><trkpt lat="42.227264343138216" lon="19.893978304222713"><ele>175.0</ele><time>2026-05-04T11:57:54Z</time></trkpt><trkpt lat="42.22719763853999" lon="19.89402125459802"><ele>175.0</ele><time>2026-05-04T11:57:56Z</time></trkpt><trkpt lat="42.227130543473244" lon="19.894063919900567"><ele>175.0</ele><time>2026-05-04T11:57:58Z</time></trkpt><trkpt lat="42.227060977016826" lon="19.894105770566057"><ele>175.0</ele><time>2026-05-04T11:58:00Z</time></trkpt><trkpt lat="42.226990834205495" lon="19.894144749168863"><ele>175.0</ele><time>2026-05-04T11:58:02Z</time></trkpt><trkpt lat="42.22692513545911" lon="19.894185205507675"><ele>175.0</ele><time>2026-05-04T11:58:04Z</time></trkpt><trkpt lat="42.22685780623995" lon="19.894223806945572"><ele>175.0</ele><time>2026-05-04T11:58:06Z</time></trkpt><trkpt lat="42.226791243798274" lon="19.89426429744992"><ele>175.0</ele><time>2026-05-04T11:58:08Z</time></trkpt><trkpt lat="42.22671862749833" lon="19.894301290739644"><ele>175.0</ele><time>2026-05-04T11:58:10Z</time></trkpt><trkpt lat="42.22665470517693" lon="19.894342398021422"><ele>175.0</ele><time>2026-05-04T11:58:12Z</time></trkpt><trkpt lat="42.226585996999795" lon="19.894381449515706"><ele>175.0</ele><time>2026-05-04T11:58:14Z</time></trkpt><trkpt lat="42.22652003861134" lon="19.894422737157328"><ele>175.0</ele><time>2026-05-04T11:58:16Z</time></trkpt><trkpt lat="42.22646063536234" lon="19.894463904697158"><ele>175.0</ele><time>2026-05-04T11:58:18Z</time></trkpt><trkpt lat="42.22639369838674" lon="19.8945043070203"><ele>175.0</ele><time>2026-05-04T11:58:20Z</time></trkpt><trkpt lat="42.2263281606155" lon="19.894541088215217"><ele>175.0</ele><time>2026-05-04T11:58:22Z</time></trkpt><trkpt lat="42.2262641418243" lon="19.89457860832953"><ele>175.0</ele><time>2026-05-04T11:58:24Z</time></trkpt><trkpt lat="42.22619773686452" lon="19.89461565612899"><ele>175.0</ele><time>2026-05-04T11:58:26Z</time></trkpt><trkpt lat="42.22613229968632" lon="19.894653126793557"><ele>175.0</ele><time>2026-05-04T11:58:28Z</time></trkpt><trkpt lat="42.226068329505445" lon="19.894691620871512"><ele>175.0</ele><time>2026-05-04T11:58:30Z</time></trkpt><trkpt lat="42.2260022784481" lon="19.894725470397614"><ele>175.0</ele><time>2026-05-04T11:58:32Z</time></trkpt><trkpt lat="42.22593718429712" lon="19.894762327616508"><ele>175.0</ele><time>2026-05-04T11:58:34Z</time></trkpt><trkpt lat="42.22587549936931" lon="19.894799950749597"><ele>175.0</ele><time>2026-05-04T11:58:36Z</time></trkpt><trkpt lat="42.22581351731218" lon="19.894837305369645"><ele>175.0</ele><time>2026-05-04T11:58:38Z</time></trkpt><trkpt lat="42.22574898866303" lon="19.894874709600195"><ele>175.0</ele><time>2026-05-04T11:58:40Z</time></trkpt><trkpt lat="42.22568683933906" lon="19.894912560180966"><ele>175.0</ele><time>2026-05-04T11:58:42Z</time></trkpt><trkpt lat="42.225621280624644" lon="19.8949516071769"><ele>175.0</ele><time>2026-05-04T11:58:44Z</time></trkpt><trkpt lat="42.225552609382355" lon="19.894989763628693"><ele>175.0</ele><time>2026-05-04T11:58:46Z</time></trkpt><trkpt lat="42.22548576086855" lon="19.895030115473027"><ele>175.0</ele><time>2026-05-04T11:58:48Z</time></trkpt><trkpt lat="42.22542467450659" lon="19.895067846180552"><ele>175.0</ele><time>2026-05-04T11:58:50Z</time></trkpt><trkpt lat="42.225356879886554" lon="19.895104546756126"><ele>175.0</ele><time>2026-05-04T11:58:52Z</time></trkpt><trkpt lat="42.22529094142329" lon="19.895142117808533"><ele>175.0</ele><time>2026-05-04T11:58:54Z</time></trkpt><trkpt lat="42.225223647601375" lon="19.895180829984245"><ele>175.0</ele><time>2026-05-04T11:58:56Z</time></trkpt><trkpt lat="42.22515501225695" lon="19.895219500629945"><ele>175.0</ele><time>2026-05-04T11:58:58Z</time></trkpt><trkpt lat="42.22508692526406" lon="19.895255956227107"><ele>175.0</ele><time>2026-05-04T11:59:00Z</time></trkpt><trkpt lat="42.225019823421285" lon="19.895291842960052"><ele>175.0</ele><time>2026-05-04T11:59:02Z</time></trkpt><trkpt lat="42.22495826387781" lon="19.89532915125278"><ele>175.0</ele><time>2026-05-04T11:59:04Z</time></trkpt><trkpt lat="42.22488649067802" lon="19.895368376675425"><ele>175.0</ele><time>2026-05-04T11:59:06Z</time></trkpt><trkpt lat="42.22481540180478" lon="19.895408359750387"><ele>175.0</ele><time>2026-05-04T11:59:08Z</time></trkpt><trkpt lat="42.22474216858707" lon="19.895447062138548"><ele>175.0</ele><time>2026-05-04T11:59:10Z</time></trkpt><trkpt lat="42.22466603765167" lon="19.895487622032253"><ele>175.0</ele><time>2026-05-04T11:59:12Z</time></trkpt><trkpt lat="42.22459653774462" lon="19.895528748349527"><ele>175.0</ele><time>2026-05-04T11:59:14Z</time></trkpt><trkpt lat="42.2245257902353" lon="19.895568617139332"><ele>175.0</ele><time>2026-05-04T11:59:16Z</time></trkpt><trkpt lat="42.224456067952474" lon="19.89560955683412"><ele>175.0</ele><time>2026-05-04T11:59:18Z</time></trkpt><trkpt lat="42.22438429309061" lon="19.895649821469018"><ele>175.0</ele><time>2026-05-04T11:59:20Z</time></trkpt><trkpt lat="42.224315398562915" lon="19.8956891335349"><ele>175.0</ele><time>2026-05-04T11:59:22Z</time></trkpt><trkpt lat="42.22424594581624" lon="19.895728011380736"><ele>175.0</ele><time>2026-05-04T11:59:24Z</time></trkpt><trkpt lat="42.22417584460248" lon="19.895766863953938"><ele>175.0</ele><time>2026-05-04T11:59:26Z</time></trkpt><trkpt lat="42.22410566452572" lon="19.895809285572774"><ele>175.0</ele><time>2026-05-04T11:59:28Z</time></trkpt><trkpt lat="42.22403693687944" lon="19.89584480605099"><ele>175.0</ele><time>2026-05-04T11:59:30Z</time></trkpt><trkpt lat="42.2239665806291" lon="19.895883530903493"><ele>175.0</ele><time>2026-05-04T11:59:32Z</time></trkpt><trkpt lat="42.223897970006966" lon="19.895920457639285"><ele>175.0</ele><time>2026-05-04T11:59:34Z</time></trkpt><trkpt lat="42.22382806151661" lon="19.895957395729614"><ele>175.0</ele><time>2026-05-04T11:59:36Z</time></trkpt><trkpt lat="42.2237598386072" lon="19.895995001581614"><ele>175.0</ele><time>2026-05-04T11:59:38Z</time></trkpt><trkpt lat="42.223691369097736" lon="19.89603470256386"><ele>175.0</ele><time>2026-05-04T11:59:40Z</time></trkpt><trkpt lat="42.2236236133459" lon="19.89607420873139"><ele>175.0</ele><time>2026-05-04T11:59:42Z</time></trkpt><trkpt lat="42.22355519866472" lon="19.89611377201894"><ele>175.0</ele><time>2026-05-04T11:59:44Z</time></trkpt><trkpt lat="42.22348667305955" lon="19.896153845055675"><ele>175.0</ele><time>2026-05-04T11:59:46Z</time></trkpt><trkpt lat="42.223418131861" lon="19.896194716782002"><ele>175.0</ele><time>2026-05-04T11:59:48Z</time></trkpt><trkpt lat="42.223350263870486" lon="19.896235567669027"><ele>175.0</ele><time>2026-05-04T11:59:50Z</time></trkpt><trkpt lat="42.22328265053239" lon="19.89627643754316"><ele>175.0</ele><time>2026-05-04T11:59:52Z</time></trkpt><trkpt lat="42.22321424702084" lon="19.89631788990171"><ele>175.0</ele><time>2026-05-04T11:59:54Z</time></trkpt><trkpt lat="42.22314658910967" lon="19.896359970417542"><ele>175.0</ele><time>2026-05-04T11:59:56Z</time></trkpt><trkpt lat="42.223077154758144" lon="19.89640265451662"><ele>175.0</ele><time>2026-05-04T11:59:58Z</time></trkpt><trkpt lat="42.22300897352729" lon="19.896445463866733"><ele>175.0</ele><time>2026-05-04T12:00:00Z</time></trkpt><trkpt lat="42.222941807359796" lon="19.896488131666015"><ele>175.0</ele><time>2026-05-04T12:00:02Z</time></trkpt><trkpt lat="42.2228752727855" lon="19.896529679418006"><ele>175.0</ele><time>2026-05-04T12:00:04Z</time></trkpt><trkpt lat="42.22280763254438" lon="19.89657118319275"><ele>175.0</ele><time>2026-05-04T12:00:06Z</time></trkpt><trkpt lat="42.22274083553087" lon="19.89661317185696"><ele>175.0</ele><time>2026-05-04T12:00:08Z</time></trkpt><trkpt lat="42.22267082852675" lon="19.89665416505099"><ele>175.0</ele><time>2026-05-04T12:00:10Z</time></trkpt><trkpt lat="42.22260242647995" lon="19.896692978305943"><ele>175.0</ele><time>2026-05-04T12:00:12Z</time></trkpt><trkpt lat="42.222533989531044" lon="19.896730849201564"><ele>175.0</ele><time>2026-05-04T12:00:14Z</time></trkpt><trkpt lat="42.222465900482234" lon="19.896768802411653"><ele>175.0</ele><time>2026-05-04T12:00:16Z</time></trkpt><trkpt lat="42.22239985974729" lon="19.896805137991493"><ele>175.0</ele><time>2026-05-04T12:00:18Z</time></trkpt><trkpt lat="42.22232865003779" lon="19.89684043966217"><ele>175.0</ele><time>2026-05-04T12:00:20Z</time></trkpt><trkpt lat="42.222261450825116" lon="19.896874417152357"><ele>175.0</ele><time>2026-05-04T12:00:22Z</time></trkpt><trkpt lat="42.22219249815889" lon="19.896905837374046"><ele>175.0</ele><time>2026-05-04T12:00:24Z</time></trkpt><trkpt lat="42.22212226590867" lon="19.896935956293003"><ele>175.0</ele><time>2026-05-04T12:00:26Z</time></trkpt><trkpt lat="42.222052108445375" lon="19.896968114313903"><ele>175.0</ele><time>2026-05-04T12:00:28Z</time></trkpt><trkpt lat="42.221982784798676" lon="19.89699845491915"><ele>175.0</ele><time>2026-05-04T12:00:30Z</time></trkpt><trkpt lat="42.22191281105206" lon="19.897026542448366"><ele>175.0</ele><time>2026-05-04T12:00:32Z</time></trkpt><trkpt lat="42.22184451931407" lon="19.897056170820175"><ele>175.0</ele><time>2026-05-04T12:00:34Z</time></trkpt><trkpt lat="42.2217770247727" lon="19.897083932491853"><ele>175.0</ele><time>2026-05-04T12:00:36Z</time></trkpt><trkpt lat="42.22170833017993" lon="19.897111822847773"><ele>175.0</ele><time>2026-05-04T12:00:38Z</time></trkpt><trkpt lat="42.22163941352055" lon="19.897137996490542"><ele>175.0</ele><time>2026-05-04T12:00:40Z</time></trkpt><trkpt lat="42.22156957953573" lon="19.897164597965457"><ele>175.0</ele><time>2026-05-04T12:00:42Z</time></trkpt><trkpt lat="42.22149930351654" lon="19.89719072984823"><ele>175.0</ele><time>2026-05-04T12:00:44Z</time></trkpt><trkpt lat="42.22142952417734" lon="19.8972158710284"><ele>175.0</ele><time>2026-05-04T12:00:46Z</time></trkpt><trkpt lat="42.221359504061404" lon="19.89724143621476"><ele>175.0</ele><time>2026-05-04T12:00:48Z</time></trkpt><trkpt lat="42.22128756363526" lon="19.897266676161973"><ele>175.0</ele><time>2026-05-04T12:00:50Z</time></trkpt><trkpt lat="42.22121480527121" lon="19.897292749735353"><ele>175.0</ele><time>2026-05-04T12:00:52Z</time></trkpt><trkpt lat="42.22113905570193" lon="19.89733396729141"><ele>175.0</ele><time>2026-05-04T12:00:54Z</time></trkpt><trkpt lat="42.22107115590097" lon="19.897350237514917"><ele>175.0</ele><time>2026-05-04T12:00:56Z</time></trkpt><trkpt lat="42.22099241968206" lon="19.897382767963563"><ele>175.0</ele><time>2026-05-04T12:00:58Z</time></trkpt><trkpt lat="42.220916707828714" lon="19.897404676574173"><ele>175.0</ele><time>2026-05-04T12:01:00Z</time></trkpt><trkpt lat="42.220841607004516" lon="19.89742814178384"><ele>175.0</ele><time>2026-05-04T12:01:02Z</time></trkpt><trkpt lat="42.220766069581465" lon="19.897448707985234"><ele>175.0</ele><time>2026-05-04T12:01:04Z</time></trkpt><trkpt lat="42.220693236903415" lon="19.897468894990705"><ele>175.0</ele><time>2026-05-04T12:01:06Z</time></trkpt><trkpt lat="42.22062005261755" lon="19.897486461722114"><ele>175.0</ele><time>2026-05-04T12:01:08Z</time></trkpt><trkpt lat="42.22054491503882" lon="19.89750610271317"><ele>175.0</ele><time>2026-05-04T12:01:10Z</time></trkpt><trkpt lat="42.22047017368251" lon="19.897526256515935"><ele>175.0</ele><time>2026-05-04T12:01:12Z</time></trkpt><trkpt lat="42.22039470182722" lon="19.897546276140453"><ele>175.0</ele><time>2026-05-04T12:01:14Z</time></trkpt><trkpt lat="42.22032061378536" lon="19.897567637473145"><ele>175.0</ele><time>2026-05-04T12:01:16Z</time></trkpt><trkpt lat="42.2202466156526" lon="19.89758959244327"><ele>175.0</ele><time>2026-05-04T12:01:18Z</time></trkpt><trkpt lat="42.22017441289637" lon="19.897610460360625"><ele>175.0</ele><time>2026-05-04T12:01:20Z</time></trkpt><trkpt lat="42.220103845485085" lon="19.897630442938116"><ele>175.0</ele><time>2026-05-04T12:01:22Z</time></trkpt><trkpt lat="42.22003081275297" lon="19.897651423305444"><ele>175.0</ele><time>2026-05-04T12:01:24Z</time></trkpt><trkpt lat="42.21995974489061" lon="19.897671752225946"><ele>175.0</ele><time>2026-05-04T12:01:26Z</time></trkpt><trkpt lat="42.21988624969321" lon="19.897693250204643"><ele>175.0</ele><time>2026-05-04T12:01:28Z</time></trkpt><trkpt lat="42.219814132105306" lon="19.897713728135763"><ele>175.0</ele><time>2026-05-04T12:01:30Z</time></trkpt><trkpt lat="42.21974161880938" lon="19.897733853186335"><ele>175.0</ele><time>2026-05-04T12:01:32Z</time></trkpt><trkpt lat="42.219669169859664" lon="19.897753178887484"><ele>175.0</ele><time>2026-05-04T12:01:34Z</time></trkpt><trkpt lat="42.21959491120074" lon="19.897773176141886"><ele>175.0</ele><time>2026-05-04T12:01:36Z</time></trkpt><trkpt lat="42.21952243473579" lon="19.897790393871162"><ele>175.0</ele><time>2026-05-04T12:01:38Z</time></trkpt><trkpt lat="42.21944815798175" lon="19.89780638469773"><ele>175.0</ele><time>2026-05-04T12:01:40Z</time></trkpt><trkpt lat="42.219371963910895" lon="19.897818464141032"><ele>175.0</ele><time>2026-05-04T12:01:42Z</time></trkpt><trkpt lat="42.21930070407203" lon="19.897838536406816"><ele>175.0</ele><time>2026-05-04T12:01:44Z</time></trkpt><trkpt lat="42.21922642916247" lon="19.897857041341933"><ele>175.0</ele><time>2026-05-04T12:01:46Z</time></trkpt><trkpt lat="42.21915079641027" lon="19.89786649735944"><ele>175.0</ele><time>2026-05-04T12:01:48Z</time></trkpt><trkpt lat="42.21907749309102" lon="19.897879430113235"><ele>175.0</ele><time>2026-05-04T12:01:50Z</time></trkpt><trkpt lat="42.21900303378769" lon="19.897889264623608"><ele>175.0</ele><time>2026-05-04T12:01:52Z</time></trkpt><trkpt lat="42.218932908723254" lon="19.897902557991838"><ele>175.0</ele><time>2026-05-04T12:01:54Z</time></trkpt><trkpt lat="42.21885832596079" lon="19.897908833678056"><ele>175.0</ele><time>2026-05-04T12:01:56Z</time></trkpt><trkpt lat="42.218786512441916" lon="19.89791331526936"><ele>175.0</ele><time>2026-05-04T12:01:58Z</time></trkpt><trkpt lat="42.218712684577476" lon="19.89791551814317"><ele>175.0</ele><time>2026-05-04T12:02:00Z</time></trkpt><trkpt lat="42.21863772819182" lon="19.897916691626055"><ele>175.0</ele><time>2026-05-04T12:02:02Z</time></trkpt><trkpt lat="42.2185631413027" lon="19.897915395539453"><ele>175.0</ele><time>2026-05-04T12:02:04Z</time></trkpt><trkpt lat="42.218486248831056" lon="19.89791283996635"><ele>175.0</ele><time>2026-05-04T12:02:06Z</time></trkpt><trkpt lat="42.218410517658114" lon="19.89791114163727"><ele>175.0</ele><time>2026-05-04T12:02:08Z</time></trkpt><trkpt lat="42.21833370668528" lon="19.89791146191497"><ele>175.0</ele><time>2026-05-04T12:02:10Z</time></trkpt><trkpt lat="42.21825665417293" lon="19.89790803711807"><ele>175.0</ele><time>2026-05-04T12:02:12Z</time></trkpt><trkpt lat="42.21817899820456" lon="19.897902078789834"><ele>175.0</ele><time>2026-05-04T12:02:14Z</time></trkpt><trkpt lat="42.218103400965724" lon="19.897894493285104"><ele>175.0</ele><time>2026-05-04T12:02:16Z</time></trkpt><trkpt lat="42.21802945817669" lon="19.897884264720837"><ele>175.0</ele><time>2026-05-04T12:02:18Z</time></trkpt><trkpt lat="42.21795534352371" lon="19.89787240071923"><ele>175.0</ele><time>2026-05-04T12:02:20Z</time></trkpt><trkpt lat="42.21788026924856" lon="19.89786376268687"><ele>175.0</ele><time>2026-05-04T12:02:22Z</time></trkpt><trkpt lat="42.217804985027335" lon="19.897853289426614"><ele>175.0</ele><time>2026-05-04T12:02:24Z</time></trkpt><trkpt lat="42.21773022492949" lon="19.897842755974047"><ele>175.0</ele><time>2026-05-04T12:02:26Z</time></trkpt><trkpt lat="42.21765582307652" lon="19.897829173847494"><ele>175.0</ele><time>2026-05-04T12:02:28Z</time></trkpt><trkpt lat="42.21758310228348" lon="19.89781630418769"><ele>175.0</ele><time>2026-05-04T12:02:30Z</time></trkpt><trkpt lat="42.2175097898162" lon="19.89780039361382"><ele>175.0</ele><time>2026-05-04T12:02:32Z</time></trkpt><trkpt lat="42.217435707532076" lon="19.897785480971145"><ele>175.0</ele><time>2026-05-04T12:02:34Z</time></trkpt><trkpt lat="42.217361856765464" lon="19.897770108016918"><ele>175.0</ele><time>2026-05-04T12:02:36Z</time></trkpt><trkpt lat="42.21728911883269" lon="19.89775580158685"><ele>175.0</ele><time>2026-05-04T12:02:38Z</time></trkpt><trkpt lat="42.21721698281967" lon="19.89774361683362"><ele>175.0</ele><time>2026-05-04T12:02:40Z</time></trkpt><trkpt lat="42.217144124988216" lon="19.897731492180814"><ele>175.0</ele><time>2026-05-04T12:02:42Z</time></trkpt><trkpt lat="42.217070981731155" lon="19.897718488645367"><ele>175.0</ele><time>2026-05-04T12:02:44Z</time></trkpt><trkpt lat="42.21699893029599" lon="19.89770533139708"><ele>175.0</ele><time>2026-05-04T12:02:46Z</time></trkpt><trkpt lat="42.21692627620068" lon="19.897695006216132"><ele>175.0</ele><time>2026-05-04T12:02:48Z</time></trkpt><trkpt lat="42.216852310552454" lon="19.897682582015552"><ele>175.0</ele><time>2026-05-04T12:02:50Z</time></trkpt><trkpt lat="42.21677946105037" lon="19.897672004062237"><ele>175.0</ele><time>2026-05-04T12:02:52Z</time></trkpt><trkpt lat="42.216706564676024" lon="19.897658364703982"><ele>175.0</ele><time>2026-05-04T12:02:54Z</time></trkpt><trkpt lat="42.216633691774504" lon="19.89764655742833"><ele>175.0</ele><time>2026-05-04T12:02:56Z</time></trkpt><trkpt lat="42.216561354540644" lon="19.897632118962946"><ele>175.0</ele><time>2026-05-04T12:02:58Z</time></trkpt><trkpt lat="42.21648791712246" lon="19.897617173762217"><ele>175.0</ele><time>2026-05-04T12:03:00Z</time></trkpt><trkpt lat="42.216414998873454" lon="19.897601314244454"><ele>175.0</ele><time>2026-05-04T12:03:02Z</time></trkpt><trkpt lat="42.216342029942034" lon="19.89758845461348"><ele>175.0</ele><time>2026-05-04T12:03:04Z</time></trkpt><trkpt lat="42.21626792121411" lon="19.89757415728066"><ele>175.0</ele><time>2026-05-04T12:03:06Z</time></trkpt><trkpt lat="42.21619321740397" lon="19.897558215743455"><ele>175.0</ele><time>2026-05-04T12:03:08Z</time></trkpt><trkpt lat="42.216121334838675" lon="19.897542212772105"><ele>175.0</ele><time>2026-05-04T12:03:10Z</time></trkpt><trkpt lat="42.21604993536391" lon="19.897522804720488"><ele>175.0</ele><time>2026-05-04T12:03:12Z</time></trkpt><trkpt lat="42.21597690862196" lon="19.89750758068816"><ele>175.0</ele><time>2026-05-04T12:03:14Z</time></trkpt><trkpt lat="42.215904868863745" lon="19.897489103631777"><ele>175.0</ele><time>2026-05-04T12:03:16Z</time></trkpt><trkpt lat="42.21583105846766" lon="19.89747994854778"><ele>175.0</ele><time>2026-05-04T12:03:18Z</time></trkpt><trkpt lat="42.21576267876743" lon="19.89746335220553"><ele>175.0</ele><time>2026-05-04T12:03:20Z</time></trkpt><trkpt lat="42.21569068251761" lon="19.89744658451934"><ele>175.0</ele><time>2026-05-04T12:03:22Z</time></trkpt><trkpt lat="42.21562070479043" lon="19.89743020386665"><ele>175.0</ele><time>2026-05-04T12:03:24Z</time></trkpt><trkpt lat="42.215549906312994" lon="19.897411604938565"><ele>175.0</ele><time>2026-05-04T12:03:26Z</time></trkpt><trkpt lat="42.21547998055473" lon="19.89739584620116"><ele>175.0</ele><time>2026-05-04T12:03:28Z</time></trkpt><trkpt lat="42.21541113689138" lon="19.897378758793653"><ele>175.0</ele><time>2026-05-04T12:03:30Z</time></trkpt><trkpt lat="42.2153413073659" lon="19.897361547520706"><ele>175.0</ele><time>2026-05-04T12:03:32Z</time></trkpt><trkpt lat="42.21527127172616" lon="19.89734097273735"><ele>175.0</ele><time>2026-05-04T12:03:34Z</time></trkpt><trkpt lat="42.21519993775057" lon="19.89731975132423"><ele>175.0</ele><time>2026-05-04T12:03:36Z</time></trkpt><trkpt lat="42.215128717782186" lon="19.897300662005218"><ele>175.0</ele><time>2026-05-04T12:03:38Z</time></trkpt><trkpt lat="42.215059309228906" lon="19.897281957953364"><ele>175.0</ele><time>2026-05-04T12:03:40Z</time></trkpt><trkpt lat="42.21498999168853" lon="19.897260508900864"><ele>175.0</ele><time>2026-05-04T12:03:42Z</time></trkpt><trkpt lat="42.21492182983712" lon="19.897238387077905"><ele>175.0</ele><time>2026-05-04T12:03:44Z</time></trkpt><trkpt lat="42.214848481745165" lon="19.897210397015375"><ele>175.0</ele><time>2026-05-04T12:03:46Z</time></trkpt><trkpt lat="42.214778158978845" lon="19.89719208325631"><ele>175.0</ele><time>2026-05-04T12:03:48Z</time></trkpt><trkpt lat="42.21470564318844" lon="19.897173596283807"><ele>175.0</ele><time>2026-05-04T12:03:50Z</time></trkpt><trkpt lat="42.21463443121709" lon="19.89715053803955"><ele>175.0</ele><time>2026-05-04T12:03:52Z</time></trkpt><trkpt lat="42.214564612621125" lon="19.89712855742952"><ele>175.0</ele><time>2026-05-04T12:03:54Z</time></trkpt><trkpt lat="42.214494835856655" lon="19.897110875463795"><ele>175.0</ele><time>2026-05-04T12:03:56Z</time></trkpt><trkpt lat="42.21442257703065" lon="19.897087286295257"><ele>175.0</ele><time>2026-05-04T12:03:58Z</time></trkpt><trkpt lat="42.214352177967356" lon="19.897065786843104"><ele>175.0</ele><time>2026-05-04T12:04:00Z</time></trkpt><trkpt lat="42.2142779880051" lon="19.89704169818272"><ele>175.0</ele><time>2026-05-04T12:04:02Z</time></trkpt><trkpt lat="42.214208386945" lon="19.897021024648712"><ele>175.0</ele><time>2026-05-04T12:04:04Z</time></trkpt><trkpt lat="42.214137317402425" lon="19.896999309283213"><ele>175.0</ele><time>2026-05-04T12:04:06Z</time></trkpt><trkpt lat="42.21406495656015" lon="19.896978087318157"><ele>175.0</ele><time>2026-05-04T12:04:08Z</time></trkpt><trkpt lat="42.213992849505324" lon="19.896955734184086"><ele>175.0</ele><time>2026-05-04T12:04:10Z</time></trkpt><trkpt lat="42.21391951620464" lon="19.89693365252313"><ele>175.0</ele><time>2026-05-04T12:04:12Z</time></trkpt><trkpt lat="42.21384817078809" lon="19.896912227701595"><ele>175.0</ele><time>2026-05-04T12:04:14Z</time></trkpt><trkpt lat="42.213775121940316" lon="19.896893833366324"><ele>175.0</ele><time>2026-05-04T12:04:16Z</time></trkpt><trkpt lat="42.21370631520594" lon="19.89687019592311"><ele>175.0</ele><time>2026-05-04T12:04:18Z</time></trkpt><trkpt lat="42.213635054354285" lon="19.89684843333041"><ele>175.0</ele><time>2026-05-04T12:04:20Z</time></trkpt><trkpt lat="42.21356380541327" lon="19.896829103327647"><ele>175.0</ele><time>2026-05-04T12:04:22Z</time></trkpt><trkpt lat="42.21349258284635" lon="19.89680896847132"><ele>175.0</ele><time>2026-05-04T12:04:24Z</time></trkpt><trkpt lat="42.21342043510625" lon="19.896787472963798"><ele>175.0</ele><time>2026-05-04T12:04:26Z</time></trkpt><trkpt lat="42.213348676418654" lon="19.896765863278837"><ele>175.0</ele><time>2026-05-04T12:04:28Z</time></trkpt><trkpt lat="42.21327738663968" lon="19.89674473302844"><ele>175.0</ele><time>2026-05-04T12:04:30Z</time></trkpt><trkpt lat="42.21320574983903" lon="19.896722135402577"><ele>175.0</ele><time>2026-05-04T12:04:32Z</time></trkpt><trkpt lat="42.21313232941777" lon="19.896701754746818"><ele>175.0</ele><time>2026-05-04T12:04:34Z</time></trkpt><trkpt lat="42.21305945369881" lon="19.896679015998345"><ele>175.0</ele><time>2026-05-04T12:04:36Z</time></trkpt><trkpt lat="42.212987247293746" lon="19.896658121966322"><ele>175.0</ele><time>2026-05-04T12:04:38Z</time></trkpt><trkpt lat="42.212914430931754" lon="19.896634581860837"><ele>175.0</ele><time>2026-05-04T12:04:40Z</time></trkpt><trkpt lat="42.21284523010629" lon="19.896610610799527"><ele>175.0</ele><time>2026-05-04T12:04:42Z</time></trkpt><trkpt lat="42.21277446548423" lon="19.896585549031002"><ele>175.0</ele><time>2026-05-04T12:04:44Z</time></trkpt><trkpt lat="42.21270389989679" lon="19.89655866070785"><ele>175.0</ele><time>2026-05-04T12:04:46Z</time></trkpt><trkpt lat="42.21263548548748" lon="19.896530525236102"><ele>175.0</ele><time>2026-05-04T12:04:48Z</time></trkpt><trkpt lat="42.21256565929037" lon="19.8964989344007"><ele>175.0</ele><time>2026-05-04T12:04:50Z</time></trkpt><trkpt lat="42.212496768935935" lon="19.89646853769503"><ele>175.0</ele><time>2026-05-04T12:04:52Z</time></trkpt><trkpt lat="42.212427723046794" lon="19.896439590082068"><ele>175.0</ele><time>2026-05-04T12:04:54Z</time></trkpt><trkpt lat="42.21235820326845" lon="19.89640858085787"><ele>175.0</ele><time>2026-05-04T12:04:56Z</time></trkpt><trkpt lat="42.21228827159242" lon="19.89637679828333"><ele>175.0</ele><time>2026-05-04T12:04:58Z</time></trkpt><trkpt lat="42.212218584461574" lon="19.896342035809504"><ele>175.0</ele><time>2026-05-04T12:04:59.999Z</time></trkpt><trkpt lat="42.21215462678432" lon="19.896309235585708"><ele>175.0</ele><time>2026-05-04T12:05:01.999Z</time></trkpt><trkpt lat="42.212087580024956" lon="19.89628058134573"><ele>175.0</ele><time>2026-05-04T12:05:03.999Z</time></trkpt><trkpt lat="42.21201857289862" lon="19.896245885932355"><ele>175.0</ele><time>2026-05-04T12:05:05.999Z</time></trkpt><trkpt lat="42.21194434478665" lon="19.896213442655906"><ele>175.0</ele><time>2026-05-04T12:05:07.999Z</time></trkpt><trkpt lat="42.211874311113355" lon="19.89617840979499"><ele>175.0</ele><time>2026-05-04T12:05:09.999Z</time></trkpt><trkpt lat="42.21180607114311" lon="19.89614932511331"><ele>175.0</ele><time>2026-05-04T12:05:11.999Z</time></trkpt><trkpt lat="42.21173602102404" lon="19.896121931965432"><ele>175.0</ele><time>2026-05-04T12:05:13.999Z</time></trkpt><trkpt lat="42.2116669986125" lon="19.896090395360034"><ele>175.0</ele><time>2026-05-04T12:05:15.999Z</time></trkpt><trkpt lat="42.21159748180461" lon="19.896059574734892"><ele>175.0</ele><time>2026-05-04T12:05:17.999Z</time></trkpt><trkpt lat="42.21152903472611" lon="19.89602802583893"><ele>175.0</ele><time>2026-05-04T12:05:19.999Z</time></trkpt><trkpt lat="42.21146093310333" lon="19.89599826480311"><ele>175.0</ele><time>2026-05-04T12:05:21.999Z</time></trkpt><trkpt lat="42.211393877728355" lon="19.89597166924653"><ele>175.0</ele><time>2026-05-04T12:05:23.999Z</time></trkpt><trkpt lat="42.21132433294847" lon="19.89593723912651"><ele>175.0</ele><time>2026-05-04T12:05:25.999Z</time></trkpt><trkpt lat="42.21125438267863" lon="19.895906538592378"><ele>175.0</ele><time>2026-05-04T12:05:27.999Z</time></trkpt><trkpt lat="42.211185932874876" lon="19.895872941774435"><ele>175.0</ele><time>2026-05-04T12:05:29.999Z</time></trkpt><trkpt lat="42.21111718901547" lon="19.895837974221127"><ele>175.0</ele><time>2026-05-04T12:05:31.999Z</time></trkpt><trkpt lat="42.21104871414004" lon="19.89580546520113"><ele>175.0</ele><time>2026-05-04T12:05:33.999Z</time></trkpt><trkpt lat="42.21098012693525" lon="19.89577407075647"><ele>175.0</ele><time>2026-05-04T12:05:35.999Z</time></trkpt><trkpt lat="42.2109099364825" lon="19.895742140352063"><ele>175.0</ele><time>2026-05-04T12:05:37.999Z</time></trkpt><trkpt lat="42.21084087623363" lon="19.895710174710764"><ele>175.0</ele><time>2026-05-04T12:05:39.999Z</time></trkpt><trkpt lat="42.21077308147909" lon="19.8956771977473"><ele>175.0</ele><time>2026-05-04T12:05:41.999Z</time></trkpt><trkpt lat="42.21070632904571" lon="19.895644829203686"><ele>175.0</ele><time>2026-05-04T12:05:43.999Z</time></trkpt><trkpt lat="42.21063881160042" lon="19.89561139528728"><ele>175.0</ele><time>2026-05-04T12:05:45.999Z</time></trkpt><trkpt lat="42.21056910723421" lon="19.89558017312882"><ele>175.0</ele><time>2026-05-04T12:05:47.999Z</time></trkpt><trkpt lat="42.210499586538624" lon="19.895545077208805"><ele>175.0</ele><time>2026-05-04T12:05:49.999Z</time></trkpt><trkpt lat="42.210429884395595" lon="19.89551195079157"><ele>175.0</ele><time>2026-05-04T12:05:51.999Z</time></trkpt><trkpt lat="42.210363508661516" lon="19.89547654912917"><ele>175.0</ele><time>2026-05-04T12:05:53.999Z</time></trkpt><trkpt lat="42.210295570490025" lon="19.895442011459316"><ele>175.0</ele><time>2026-05-04T12:05:56Z</time></trkpt><trkpt lat="42.21022788997698" lon="19.895406477740476"><ele>175.0</ele><time>2026-05-04T12:05:58Z</time></trkpt><trkpt lat="42.21015931041542" lon="19.89536850924058"><ele>175.0</ele><time>2026-05-04T12:06:00Z</time></trkpt><trkpt lat="42.210091222406355" lon="19.89533243744356"><ele>175.0</ele><time>2026-05-04T12:06:02Z</time></trkpt><trkpt lat="42.21002411532036" lon="19.895294545813606"><ele>175.0</ele><time>2026-05-04T12:06:04Z</time></trkpt><trkpt lat="42.20995732632405" lon="19.895258340176554"><ele>175.0</ele><time>2026-05-04T12:06:06Z</time></trkpt><trkpt lat="42.20989318476788" lon="19.89522241742227"><ele>175.0</ele><time>2026-05-04T12:06:08Z</time></trkpt><trkpt lat="42.20982318649206" lon="19.895176945372267"><ele>175.0</ele><time>2026-05-04T12:06:10Z</time></trkpt><trkpt lat="42.209757865592884" lon="19.895129876460757"><ele>175.0</ele><time>2026-05-04T12:06:12Z</time></trkpt><trkpt lat="42.209691949183856" lon="19.895088309816387"><ele>175.0</ele><time>2026-05-04T12:06:14Z</time></trkpt><trkpt lat="42.20962599602126" lon="19.89504843717374"><ele>175.0</ele><time>2026-05-04T12:06:16Z</time></trkpt><trkpt lat="42.209558882574726" lon="19.89500829048718"><ele>175.0</ele><time>2026-05-04T12:06:18Z</time></trkpt><trkpt lat="42.20949103857419" lon="19.89496799055587"><ele>175.0</ele><time>2026-05-04T12:06:20Z</time></trkpt><trkpt lat="42.209423544300044" lon="19.89492962274842"><ele>175.0</ele><time>2026-05-04T12:06:22Z</time></trkpt><trkpt lat="42.20935694917779" lon="19.89489168859495"><ele>175.0</ele><time>2026-05-04T12:06:24Z</time></trkpt><trkpt lat="42.20928957973427" lon="19.894854679566688"><ele>175.0</ele><time>2026-05-04T12:06:26Z</time></trkpt><trkpt lat="42.20922238578218" lon="19.894816082918783"><ele>175.0</ele><time>2026-05-04T12:06:28Z</time></trkpt><trkpt lat="42.20915598121735" lon="19.894778439961634"><ele>175.0</ele><time>2026-05-04T12:06:30Z</time></trkpt><trkpt lat="42.20908864839325" lon="19.89474085803058"><ele>175.0</ele><time>2026-05-04T12:06:32Z</time></trkpt><trkpt lat="42.20901971969383" lon="19.894703082238518"><ele>175.0</ele><time>2026-05-04T12:06:34Z</time></trkpt><trkpt lat="42.208951952648825" lon="19.894666345793716"><ele>175.0</ele><time>2026-05-04T12:06:36Z</time></trkpt><trkpt lat="42.208883593097404" lon="19.89462951770682"><ele>175.0</ele><time>2026-05-04T12:06:38Z</time></trkpt><trkpt lat="42.20881607140732" lon="19.894591597623364"><ele>175.0</ele><time>2026-05-04T12:06:40Z</time></trkpt><trkpt lat="42.208747304574324" lon="19.89455463735932"><ele>175.0</ele><time>2026-05-04T12:06:42Z</time></trkpt><trkpt lat="42.20868039010312" lon="19.894516584912093"><ele>175.0</ele><time>2026-05-04T12:06:44Z</time></trkpt><trkpt lat="42.20861322124511" lon="19.894479762355132"><ele>175.0</ele><time>2026-05-04T12:06:46Z</time></trkpt><trkpt lat="42.20854517506992" lon="19.894443680490674"><ele>175.0</ele><time>2026-05-04T12:06:48Z</time></trkpt><trkpt lat="42.20847790469558" lon="19.894406280968276"><ele>175.0</ele><time>2026-05-04T12:06:50Z</time></trkpt><trkpt lat="42.2084117002663" lon="19.894370003792538"><ele>175.0</ele><time>2026-05-04T12:06:52Z</time></trkpt><trkpt lat="42.20834391929677" lon="19.8943336614701"><ele>175.0</ele><time>2026-05-04T12:06:54Z</time></trkpt><trkpt lat="42.20827625408458" lon="19.89429703780846"><ele>175.0</ele><time>2026-05-04T12:06:56Z</time></trkpt><trkpt lat="42.20820909160003" lon="19.89426025489104"><ele>175.0</ele><time>2026-05-04T12:06:58Z</time></trkpt><trkpt lat="42.2081400815091" lon="19.894224940019573"><ele>175.0</ele><time>2026-05-04T12:07:00Z</time></trkpt><trkpt lat="42.20807149831664" lon="19.894187569344176"><ele>175.0</ele><time>2026-05-04T12:07:02Z</time></trkpt><trkpt lat="42.20800293614457" lon="19.89415142556245"><ele>175.0</ele><time>2026-05-04T12:07:04Z</time></trkpt><trkpt lat="42.20793500757809" lon="19.89411499906145"><ele>175.0</ele><time>2026-05-04T12:07:06Z</time></trkpt><trkpt lat="42.20786696859712" lon="19.894078761088753"><ele>175.0</ele><time>2026-05-04T12:07:08Z</time></trkpt><trkpt lat="42.20779898966778" lon="19.894042644808835"><ele>175.0</ele><time>2026-05-04T12:07:10Z</time></trkpt><trkpt lat="42.207731634697346" lon="19.89400464468092"><ele>175.0</ele><time>2026-05-04T12:07:12Z</time></trkpt><trkpt lat="42.20766329368183" lon="19.89396815211009"><ele>175.0</ele><time>2026-05-04T12:07:14Z</time></trkpt><trkpt lat="42.207595604692564" lon="19.893931665074984"><ele>175.0</ele><time>2026-05-04T12:07:16Z</time></trkpt><trkpt lat="42.207528404640705" lon="19.893893691597928"><ele>175.0</ele><time>2026-05-04T12:07:18Z</time></trkpt><trkpt lat="42.207460004913166" lon="19.89385634296977"><ele>175.0</ele><time>2026-05-04T12:07:20Z</time></trkpt><trkpt lat="42.20739179074075" lon="19.893820899253075"><ele>175.0</ele><time>2026-05-04T12:07:22Z</time></trkpt><trkpt lat="42.20732342436817" lon="19.89378540096305"><ele>175.0</ele><time>2026-05-04T12:07:24Z</time></trkpt><trkpt lat="42.207254559238784" lon="19.8937488163246"><ele>175.0</ele><time>2026-05-04T12:07:25.999Z</time></trkpt><trkpt lat="42.20718555645316" lon="19.89371370498559"><ele>175.0</ele><time>2026-05-04T12:07:27.999Z</time></trkpt><trkpt lat="42.20711698917869" lon="19.89367610549749"><ele>175.0</ele><time>2026-05-04T12:07:29.999Z</time></trkpt><trkpt lat="42.20704960064758" lon="19.893637365252662"><ele>175.0</ele><time>2026-05-04T12:07:31.999Z</time></trkpt><trkpt lat="42.206981433377884" lon="19.89360166945277"><ele>175.0</ele><time>2026-05-04T12:07:33.999Z</time></trkpt><trkpt lat="42.206912739606764" lon="19.893564480761135"><ele>175.0</ele><time>2026-05-04T12:07:35.999Z</time></trkpt><trkpt lat="42.2068439018139" lon="19.893526939042992"><ele>175.0</ele><time>2026-05-04T12:07:37.999Z</time></trkpt><trkpt lat="42.20677688715196" lon="19.893489257879267"><ele>175.0</ele><time>2026-05-04T12:07:39.999Z</time></trkpt><trkpt lat="42.20670993519149" lon="19.893452579791283"><ele>175.0</ele><time>2026-05-04T12:07:41.999Z</time></trkpt><trkpt lat="42.206642061361116" lon="19.89341556325686"><ele>175.0</ele><time>2026-05-04T12:07:43.999Z</time></trkpt><trkpt lat="42.20657550788718" lon="19.893376140074235"><ele>175.0</ele><time>2026-05-04T12:07:45.999Z</time></trkpt><trkpt lat="42.20650905990442" lon="19.89333668082193"><ele>175.0</ele><time>2026-05-04T12:07:47.999Z</time></trkpt><trkpt lat="42.20644259475748" lon="19.89329566566265"><ele>175.0</ele><time>2026-05-04T12:07:49.999Z</time></trkpt><trkpt lat="42.20637680460743" lon="19.89325657824023"><ele>175.0</ele><time>2026-05-04T12:07:51.999Z</time></trkpt><trkpt lat="42.206310337834694" lon="19.89321632937726"><ele>175.0</ele><time>2026-05-04T12:07:53.999Z</time></trkpt><trkpt lat="42.20624554558325" lon="19.893176847974114"><ele>175.0</ele><time>2026-05-04T12:07:55.999Z</time></trkpt><trkpt lat="42.206179204290024" lon="19.89313647137141"><ele>175.0</ele><time>2026-05-04T12:07:57.999Z</time></trkpt><trkpt lat="42.20611312628255" lon="19.893095742547345"><ele>175.0</ele><time>2026-05-04T12:07:59.999Z</time></trkpt><trkpt lat="42.206046366522926" lon="19.893054764530326"><ele>175.0</ele><time>2026-05-04T12:08:02Z</time></trkpt><trkpt lat="42.20598039545003" lon="19.89301372128367"><ele>175.0</ele><time>2026-05-04T12:08:04Z</time></trkpt><trkpt lat="42.20591343355752" lon="19.89297268469756"><ele>175.0</ele><time>2026-05-04T12:08:06Z</time></trkpt><trkpt lat="42.20584838756746" lon="19.892931861044833"><ele>175.0</ele><time>2026-05-04T12:08:08Z</time></trkpt><trkpt lat="42.20578258314789" lon="19.892891022910163"><ele>175.0</ele><time>2026-05-04T12:08:10Z</time></trkpt><trkpt lat="42.205715444175226" lon="19.892850650506524"><ele>175.0</ele><time>2026-05-04T12:08:12Z</time></trkpt><trkpt lat="42.20564927016603" lon="19.892810123885734"><ele>175.0</ele><time>2026-05-04T12:08:14Z</time></trkpt><trkpt lat="42.20558313333982" lon="19.89276947403306"><ele>175.0</ele><time>2026-05-04T12:08:16Z</time></trkpt><trkpt lat="42.205517752247566" lon="19.892730324477412"><ele>175.0</ele><time>2026-05-04T12:08:18Z</time></trkpt><trkpt lat="42.20545108220007" lon="19.89268980656245"><ele>175.0</ele><time>2026-05-04T12:08:20Z</time></trkpt><trkpt lat="42.20538516073093" lon="19.892649544751084"><ele>175.0</ele><time>2026-05-04T12:08:22Z</time></trkpt><trkpt lat="42.205319723547326" lon="19.89261085302791"><ele>175.0</ele><time>2026-05-04T12:08:24Z</time></trkpt><trkpt lat="42.2052540434975" lon="19.89257177194028"><ele>175.0</ele><time>2026-05-04T12:08:26Z</time></trkpt><trkpt lat="42.20518795903588" lon="19.892532802068686"><ele>175.0</ele><time>2026-05-04T12:08:28Z</time></trkpt><trkpt lat="42.20512067966429" lon="19.892494479265842"><ele>175.0</ele><time>2026-05-04T12:08:30Z</time></trkpt><trkpt lat="42.2050544124113" lon="19.89245429480891"><ele>175.0</ele><time>2026-05-04T12:08:32Z</time></trkpt><trkpt lat="42.20498975385704" lon="19.89241246070974"><ele>175.0</ele><time>2026-05-04T12:08:34Z</time></trkpt><trkpt lat="42.204923162776026" lon="19.8923729424936"><ele>175.0</ele><time>2026-05-04T12:08:36Z</time></trkpt><trkpt lat="42.20485715329657" lon="19.892331561962962"><ele>175.0</ele><time>2026-05-04T12:08:38Z</time></trkpt><trkpt lat="42.204791812354316" lon="19.892294166706346"><ele>175.0</ele><time>2026-05-04T12:08:40Z</time></trkpt><trkpt lat="42.20472621001857" lon="19.892255076657758"><ele>175.0</ele><time>2026-05-04T12:08:42Z</time></trkpt><trkpt lat="42.204660454030126" lon="19.892214615486203"><ele>175.0</ele><time>2026-05-04T12:08:44Z</time></trkpt><trkpt lat="42.20459489892345" lon="19.892175980540014"><ele>175.0</ele><time>2026-05-04T12:08:46Z</time></trkpt><trkpt lat="42.204528824672465" lon="19.8921374935127"><ele>175.0</ele><time>2026-05-04T12:08:48Z</time></trkpt><trkpt lat="42.20446222744989" lon="19.892096294137573"><ele>175.0</ele><time>2026-05-04T12:08:50Z</time></trkpt><trkpt lat="42.204397250824144" lon="19.89205449102819"><ele>175.0</ele><time>2026-05-04T12:08:52Z</time></trkpt><trkpt lat="42.20433237841485" lon="19.89201238594995"><ele>175.0</ele><time>2026-05-04T12:08:54Z</time></trkpt><trkpt lat="42.20426952490318" lon="19.891967864537676"><ele>175.0</ele><time>2026-05-04T12:08:56Z</time></trkpt><trkpt lat="42.204203603138644" lon="19.891923266640138"><ele>175.0</ele><time>2026-05-04T12:08:58Z</time></trkpt><trkpt lat="42.204139706932914" lon="19.891878570978644"><ele>175.0</ele><time>2026-05-04T12:09:00Z</time></trkpt><trkpt lat="42.20407763102433" lon="19.891832822916246"><ele>175.0</ele><time>2026-05-04T12:09:02Z</time></trkpt><trkpt lat="42.20401369227469" lon="19.891787458175557"><ele>175.0</ele><time>2026-05-04T12:09:04Z</time></trkpt><trkpt lat="42.20395038055422" lon="19.891742600953155"><ele>175.0</ele><time>2026-05-04T12:09:06Z</time></trkpt><trkpt lat="42.20388692778815" lon="19.891697878095776"><ele>175.0</ele><time>2026-05-04T12:09:08Z</time></trkpt><trkpt lat="42.203817837579585" lon="19.891649025176473"><ele>175.0</ele><time>2026-05-04T12:09:11Z</time></trkpt><trkpt lat="42.20374768751639" lon="19.891600538505593"><ele>175.0</ele><time>2026-05-04T12:09:13Z</time></trkpt><trkpt lat="42.2036665416181" lon="19.891547555107557"><ele>175.0</ele><time>2026-05-04T12:09:15Z</time></trkpt><trkpt lat="42.203600713587896" lon="19.891505361120686"><ele>175.0</ele><time>2026-05-04T12:09:17Z</time></trkpt><trkpt lat="42.2035297031121" lon="19.891460789593218"><ele>175.0</ele><time>2026-05-04T12:09:19Z</time></trkpt><trkpt lat="42.20346338078153" lon="19.89141972534654"><ele>175.0</ele><time>2026-05-04T12:09:21Z</time></trkpt><trkpt lat="42.20339506015293" lon="19.891378869998768"><ele>175.0</ele><time>2026-05-04T12:09:23Z</time></trkpt><trkpt lat="42.20332833671165" lon="19.891336745912557"><ele>175.0</ele><time>2026-05-04T12:09:25Z</time></trkpt><trkpt lat="42.20326183397383" lon="19.891296952579903"><ele>175.0</ele><time>2026-05-04T12:09:27Z</time></trkpt><trkpt lat="42.203195568386015" lon="19.89125768712265"><ele>175.0</ele><time>2026-05-04T12:09:29Z</time></trkpt><trkpt lat="42.20312881185898" lon="19.8912190383346"><ele>175.0</ele><time>2026-05-04T12:09:31Z</time></trkpt><trkpt lat="42.203062139578115" lon="19.89117917951647"><ele>175.0</ele><time>2026-05-04T12:09:33Z</time></trkpt><trkpt lat="42.20299335166467" lon="19.89114165526007"><ele>175.0</ele><time>2026-05-04T12:09:35Z</time></trkpt><trkpt lat="42.20292647534786" lon="19.89110165546407"><ele>175.0</ele><time>2026-05-04T12:09:37Z</time></trkpt><trkpt lat="42.20286020809561" lon="19.89106214582752"><ele>175.0</ele><time>2026-05-04T12:09:39Z</time></trkpt><trkpt lat="42.20279226904942" lon="19.891023775008385"><ele>175.0</ele><time>2026-05-04T12:09:41Z</time></trkpt><trkpt lat="42.20272522481893" lon="19.890985308324876"><ele>175.0</ele><time>2026-05-04T12:09:43Z</time></trkpt><trkpt lat="42.20265823235585" lon="19.890946569713392"><ele>175.0</ele><time>2026-05-04T12:09:45Z</time></trkpt><trkpt lat="42.202591839880334" lon="19.890909863978216"><ele>175.0</ele><time>2026-05-04T12:09:47Z</time></trkpt><trkpt lat="42.202524485223954" lon="19.890872387548427"><ele>175.0</ele><time>2026-05-04T12:09:49Z</time></trkpt><trkpt lat="42.20245575620309" lon="19.890835776573716"><ele>175.0</ele><time>2026-05-04T12:09:51Z</time></trkpt><trkpt lat="42.20238824463534" lon="19.890799594302134"><ele>175.0</ele><time>2026-05-04T12:09:53Z</time></trkpt><trkpt lat="42.202320437824206" lon="19.890763659960918"><ele>175.0</ele><time>2026-05-04T12:09:55Z</time></trkpt><trkpt lat="42.20225324804442" lon="19.8907273249793"><ele>175.0</ele><time>2026-05-04T12:09:57Z</time></trkpt><trkpt lat="42.20218707591526" lon="19.89069076627625"><ele>175.0</ele><time>2026-05-04T12:09:59Z</time></trkpt><trkpt lat="42.20211950251548" lon="19.89065367499954"><ele>175.0</ele><time>2026-05-04T12:10:01Z</time></trkpt><trkpt lat="42.202050018572244" lon="19.8906183808689"><ele>175.0</ele><time>2026-05-04T12:10:03Z</time></trkpt><trkpt lat="42.201980368675514" lon="19.890584943919976"><ele>175.0</ele><time>2026-05-04T12:10:05Z</time></trkpt><trkpt lat="42.20191284003045" lon="19.890548906464197"><ele>175.0</ele><time>2026-05-04T12:10:07Z</time></trkpt><trkpt lat="42.20184484434919" lon="19.890513041876194"><ele>175.0</ele><time>2026-05-04T12:10:09Z</time></trkpt><trkpt lat="42.201776164329615" lon="19.89047911270767"><ele>175.0</ele><time>2026-05-04T12:10:11Z</time></trkpt><trkpt lat="42.20170965098824" lon="19.89044478775751"><ele>175.0</ele><time>2026-05-04T12:10:13Z</time></trkpt><trkpt lat="42.20164111622458" lon="19.890411168490427"><ele>175.0</ele><time>2026-05-04T12:10:15Z</time></trkpt><trkpt lat="42.201574464347814" lon="19.890378486120238"><ele>175.0</ele><time>2026-05-04T12:10:17Z</time></trkpt><trkpt lat="42.201506056935706" lon="19.89034591454525"><ele>175.0</ele><time>2026-05-04T12:10:19Z</time></trkpt><trkpt lat="42.20143824496423" lon="19.89031382386445"><ele>175.0</ele><time>2026-05-04T12:10:21Z</time></trkpt><trkpt lat="42.20137050177482" lon="19.890279622228366"><ele>175.0</ele><time>2026-05-04T12:10:23Z</time></trkpt><trkpt lat="42.20130246389047" lon="19.890245191822167"><ele>175.0</ele><time>2026-05-04T12:10:25Z</time></trkpt><trkpt lat="42.20123666470702" lon="19.890211219975022"><ele>175.0</ele><time>2026-05-04T12:10:27Z</time></trkpt><trkpt lat="42.201167466398914" lon="19.890179916974223"><ele>175.0</ele><time>2026-05-04T12:10:29Z</time></trkpt><trkpt lat="42.201098401935965" lon="19.8901476134132"><ele>175.0</ele><time>2026-05-04T12:10:31Z</time></trkpt><trkpt lat="42.201026437992034" lon="19.890116561013908"><ele>175.0</ele><time>2026-05-04T12:10:33Z</time></trkpt><trkpt lat="42.20095491947559" lon="19.890086774090882"><ele>175.0</ele><time>2026-05-04T12:10:35Z</time></trkpt><trkpt lat="42.200884241013654" lon="19.89005608685807"><ele>175.0</ele><time>2026-05-04T12:10:37Z</time></trkpt><trkpt lat="42.20081330382771" lon="19.890025700080784"><ele>175.0</ele><time>2026-05-04T12:10:39Z</time></trkpt><trkpt lat="42.20074302379552" lon="19.889995023299793"><ele>175.0</ele><time>2026-05-04T12:10:41Z</time></trkpt><trkpt lat="42.20067327838844" lon="19.88996660609764"><ele>175.0</ele><time>2026-05-04T12:10:43Z</time></trkpt><trkpt lat="42.20060374326695" lon="19.889939139025053"><ele>175.0</ele><time>2026-05-04T12:10:45Z</time></trkpt><trkpt lat="42.20053433945248" lon="19.889912488548276"><ele>175.0</ele><time>2026-05-04T12:10:47Z</time></trkpt><trkpt lat="42.20046462259194" lon="19.889885080348517"><ele>175.0</ele><time>2026-05-04T12:10:49Z</time></trkpt><trkpt lat="42.20039418547336" lon="19.889857138321005"><ele>175.0</ele><time>2026-05-04T12:10:51Z</time></trkpt><trkpt lat="42.200324403664936" lon="19.889829671843234"><ele>175.0</ele><time>2026-05-04T12:10:53Z</time></trkpt><trkpt lat="42.20025534915544" lon="19.889801209017417"><ele>175.0</ele><time>2026-05-04T12:10:55Z</time></trkpt><trkpt lat="42.20018603036354" lon="19.889774000290938"><ele>175.0</ele><time>2026-05-04T12:10:57Z</time></trkpt><trkpt lat="42.20011538059725" lon="19.88974692550596"><ele>175.0</ele><time>2026-05-04T12:10:59Z</time></trkpt><trkpt lat="42.20004544643214" lon="19.889720706198826"><ele>175.0</ele><time>2026-05-04T12:11:01Z</time></trkpt><trkpt lat="42.19997625963601" lon="19.88969309575846"><ele>175.0</ele><time>2026-05-04T12:11:03Z</time></trkpt><trkpt lat="42.199906140333596" lon="19.889667630538742"><ele>175.0</ele><time>2026-05-04T12:11:05Z</time></trkpt><trkpt lat="42.19983599905123" lon="19.889641715948773"><ele>175.0</ele><time>2026-05-04T12:11:07Z</time></trkpt><trkpt lat="42.19976516706698" lon="19.889616320009956"><ele>175.0</ele><time>2026-05-04T12:11:09Z</time></trkpt><trkpt lat="42.19969499699109" lon="19.88959024112612"><ele>175.0</ele><time>2026-05-04T12:11:11Z</time></trkpt><trkpt lat="42.19962641017851" lon="19.889566311848395"><ele>175.0</ele><time>2026-05-04T12:11:13Z</time></trkpt><trkpt lat="42.19955240881051" lon="19.889541153170633"><ele>175.0</ele><time>2026-05-04T12:11:15Z</time></trkpt><trkpt lat="42.199482086389324" lon="19.889516884242017"><ele>175.0</ele><time>2026-05-04T12:11:17Z</time></trkpt><trkpt lat="42.19940874378433" lon="19.889491645572487"><ele>175.0</ele><time>2026-05-04T12:11:19Z</time></trkpt><trkpt lat="42.19933907937216" lon="19.889467913245092"><ele>175.0</ele><time>2026-05-04T12:11:21Z</time></trkpt><trkpt lat="42.19926737337397" lon="19.889441909160954"><ele>175.0</ele><time>2026-05-04T12:11:23Z</time></trkpt><trkpt lat="42.1991964241355" lon="19.889415924821396"><ele>175.0</ele><time>2026-05-04T12:11:25Z</time></trkpt><trkpt lat="42.19912303707437" lon="19.889390198443007"><ele>175.0</ele><time>2026-05-04T12:11:27Z</time></trkpt><trkpt lat="42.19905188354638" lon="19.88936320096594"><ele>175.0</ele><time>2026-05-04T12:11:29Z</time></trkpt><trkpt lat="42.198979484926504" lon="19.889336235902284"><ele>175.0</ele><time>2026-05-04T12:11:31Z</time></trkpt><trkpt lat="42.198908229976546" lon="19.889309656445825"><ele>175.0</ele><time>2026-05-04T12:11:33Z</time></trkpt><trkpt lat="42.198836024344516" lon="19.88928339039074"><ele>175.0</ele><time>2026-05-04T12:11:35Z</time></trkpt><trkpt lat="42.19876390387497" lon="19.889257540182484"><ele>175.0</ele><time>2026-05-04T12:11:37Z</time></trkpt><trkpt lat="42.19869258481293" lon="19.8892305409505"><ele>175.0</ele><time>2026-05-04T12:11:39Z</time></trkpt><trkpt lat="42.1986190396712" lon="19.889203476481054"><ele>175.0</ele><time>2026-05-04T12:11:41Z</time></trkpt><trkpt lat="42.19854499743936" lon="19.889175357646483"><ele>175.0</ele><time>2026-05-04T12:11:43Z</time></trkpt><trkpt lat="42.19847164890682" lon="19.88914659708305"><ele>175.0</ele><time>2026-05-04T12:11:45Z</time></trkpt><trkpt lat="42.19839921494368" lon="19.88911830643741"><ele>175.0</ele><time>2026-05-04T12:11:47Z</time></trkpt><trkpt lat="42.19832709419218" lon="19.88908951054562"><ele>175.0</ele><time>2026-05-04T12:11:49Z</time></trkpt><trkpt lat="42.1982543951229" lon="19.889060862780134"><ele>175.0</ele><time>2026-05-04T12:11:51Z</time></trkpt><trkpt lat="42.19818353680682" lon="19.88903164103535"><ele>175.0</ele><time>2026-05-04T12:11:53Z</time></trkpt><trkpt lat="42.1981118879708" lon="19.889003214126355"><ele>175.0</ele><time>2026-05-04T12:11:55Z</time></trkpt><trkpt lat="42.19804032998632" lon="19.888975459897168"><ele>175.0</ele><time>2026-05-04T12:11:57Z</time></trkpt><trkpt lat="42.19797032497355" lon="19.88894637230454"><ele>175.0</ele><time>2026-05-04T12:11:59Z</time></trkpt><trkpt lat="42.19790048442149" lon="19.888918302201283"><ele>175.0</ele><time>2026-05-04T12:12:01Z</time></trkpt><trkpt lat="42.19783049530442" lon="19.88889101521506"><ele>175.0</ele><time>2026-05-04T12:12:03Z</time></trkpt><trkpt lat="42.19776035190791" lon="19.88886317670186"><ele>175.0</ele><time>2026-05-04T12:12:05Z</time></trkpt><trkpt lat="42.197689681866784" lon="19.888836608352996"><ele>175.0</ele><time>2026-05-04T12:12:07Z</time></trkpt><trkpt lat="42.197619303775234" lon="19.88880963580543"><ele>175.0</ele><time>2026-05-04T12:12:09Z</time></trkpt><trkpt lat="42.197546889316556" lon="19.88878331722838"><ele>175.0</ele><time>2026-05-04T12:12:11Z</time></trkpt><trkpt lat="42.197474111556716" lon="19.88875813238306"><ele>175.0</ele><time>2026-05-04T12:12:13Z</time></trkpt><trkpt lat="42.19740421828355" lon="19.888734641040084"><ele>175.0</ele><time>2026-05-04T12:12:15Z</time></trkpt><trkpt lat="42.197330765972545" lon="19.888710517121318"><ele>175.0</ele><time>2026-05-04T12:12:17Z</time></trkpt><trkpt lat="42.1972595939962" lon="19.888685244827094"><ele>175.0</ele><time>2026-05-04T12:12:19Z</time></trkpt><trkpt lat="42.19718776795553" lon="19.888660897476264"><ele>175.0</ele><time>2026-05-04T12:12:21Z</time></trkpt><trkpt lat="42.197113679344426" lon="19.88863544249868"><ele>175.0</ele><time>2026-05-04T12:12:23Z</time></trkpt><trkpt lat="42.19704066083246" lon="19.88861109183083"><ele>175.0</ele><time>2026-05-04T12:12:25Z</time></trkpt><trkpt lat="42.19696783469967" lon="19.88858581506136"><ele>175.0</ele><time>2026-05-04T12:12:27Z</time></trkpt><trkpt lat="42.196894728938275" lon="19.88856232323851"><ele>175.0</ele><time>2026-05-04T12:12:29Z</time></trkpt><trkpt lat="42.1968224352966" lon="19.888538534337226"><ele>175.0</ele><time>2026-05-04T12:12:31Z</time></trkpt><trkpt lat="42.19674877078111" lon="19.888514806189395"><ele>175.0</ele><time>2026-05-04T12:12:33Z</time></trkpt><trkpt lat="42.19667576204561" lon="19.888492429013578"><ele>175.0</ele><time>2026-05-04T12:12:35Z</time></trkpt><trkpt lat="42.19660204050215" lon="19.888469918980036"><ele>175.0</ele><time>2026-05-04T12:12:37Z</time></trkpt><trkpt lat="42.196529447208555" lon="19.888448289612896"><ele>175.0</ele><time>2026-05-04T12:12:39Z</time></trkpt><trkpt lat="42.19645926823923" lon="19.88842632155351"><ele>175.0</ele><time>2026-05-04T12:12:41Z</time></trkpt><trkpt lat="42.19638624028245" lon="19.888409905868325"><ele>175.0</ele><time>2026-05-04T12:12:43Z</time></trkpt><trkpt lat="42.19631142434855" lon="19.888390297228902"><ele>175.0</ele><time>2026-05-04T12:12:45Z</time></trkpt><trkpt lat="42.19623593323298" lon="19.888370953075064"><ele>175.0</ele><time>2026-05-04T12:12:47Z</time></trkpt><trkpt lat="42.19616108692525" lon="19.88835165855157"><ele>175.0</ele><time>2026-05-04T12:12:49Z</time></trkpt><trkpt lat="42.19608564104894" lon="19.88833175283613"><ele>175.0</ele><time>2026-05-04T12:12:51Z</time></trkpt><trkpt lat="42.19601223702164" lon="19.888311919752617"><ele>175.0</ele><time>2026-05-04T12:12:53Z</time></trkpt><trkpt lat="42.19594079014723" lon="19.88828993557253"><ele>175.0</ele><time>2026-05-04T12:12:55Z</time></trkpt><trkpt lat="42.19586735750699" lon="19.888263419842033"><ele>175.0</ele><time>2026-05-04T12:12:57Z</time></trkpt><trkpt lat="42.195796131209214" lon="19.888244048087305"><ele>175.0</ele><time>2026-05-04T12:12:59Z</time></trkpt><trkpt lat="42.195724930590636" lon="19.888223596724256"><ele>175.0</ele><time>2026-05-04T12:13:01Z</time></trkpt><trkpt lat="42.1956524152332" lon="19.888201324222116"><ele>175.0</ele><time>2026-05-04T12:13:03Z</time></trkpt><trkpt lat="42.19558062961727" lon="19.88817865084966"><ele>175.0</ele><time>2026-05-04T12:13:05Z</time></trkpt><trkpt lat="42.19550815045851" lon="19.88815608588513"><ele>175.0</ele><time>2026-05-04T12:13:07Z</time></trkpt><trkpt lat="42.19543753171352" lon="19.888133095518295"><ele>175.0</ele><time>2026-05-04T12:13:09Z</time></trkpt><trkpt lat="42.19536575640772" lon="19.88811005846868"><ele>175.0</ele><time>2026-05-04T12:13:11Z</time></trkpt><trkpt lat="42.195293893619855" lon="19.88808628138541"><ele>175.0</ele><time>2026-05-04T12:13:13Z</time></trkpt><trkpt lat="42.195222655270314" lon="19.88806208755222"><ele>175.0</ele><time>2026-05-04T12:13:15Z</time></trkpt><trkpt lat="42.195151347524906" lon="19.888038051273693"><ele>175.0</ele><time>2026-05-04T12:13:17Z</time></trkpt><trkpt lat="42.195080103183805" lon="19.888014464023914"><ele>175.0</ele><time>2026-05-04T12:13:19Z</time></trkpt><trkpt lat="42.1950092930708" lon="19.887991336734117"><ele>175.0</ele><time>2026-05-04T12:13:21Z</time></trkpt><trkpt lat="42.1949380427443" lon="19.887968581496228"><ele>175.0</ele><time>2026-05-04T12:13:23Z</time></trkpt><trkpt lat="42.19486570030037" lon="19.88794616793229"><ele>175.0</ele><time>2026-05-04T12:13:25Z</time></trkpt><trkpt lat="42.19479470377154" lon="19.88792379171628"><ele>175.0</ele><time>2026-05-04T12:13:27Z</time></trkpt><trkpt lat="42.19472283136259" lon="19.88790197536895"><ele>175.0</ele><time>2026-05-04T12:13:29Z</time></trkpt><trkpt lat="42.19465120649235" lon="19.88788123822612"><ele>175.0</ele><time>2026-05-04T12:13:31Z</time></trkpt><trkpt lat="42.1945813181997" lon="19.88786293374092"><ele>175.0</ele><time>2026-05-04T12:13:33Z</time></trkpt><trkpt lat="42.19450973834377" lon="19.88784147033883"><ele>175.0</ele><time>2026-05-04T12:13:35Z</time></trkpt><trkpt lat="42.194438009033185" lon="19.88782104266946"><ele>175.0</ele><time>2026-05-04T12:13:37Z</time></trkpt><trkpt lat="42.19436641938318" lon="19.887800529785224"><ele>175.0</ele><time>2026-05-04T12:13:39Z</time></trkpt><trkpt lat="42.19429501760622" lon="19.88777950178125"><ele>175.0</ele><time>2026-05-04T12:13:40.999Z</time></trkpt><trkpt lat="42.19422440310957" lon="19.887758024020062"><ele>175.0</ele><time>2026-05-04T12:13:42.999Z</time></trkpt><trkpt lat="42.19415244766893" lon="19.887736150162056"><ele>175.0</ele><time>2026-05-04T12:13:44.999Z</time></trkpt><trkpt lat="42.194079951474706" lon="19.88771342959077"><ele>175.0</ele><time>2026-05-04T12:13:46.999Z</time></trkpt><trkpt lat="42.194008725544165" lon="19.887690163169143"><ele>175.0</ele><time>2026-05-04T12:13:48.999Z</time></trkpt><trkpt lat="42.1939379151374" lon="19.887666065206247"><ele>175.0</ele><time>2026-05-04T12:13:50.999Z</time></trkpt><trkpt lat="42.19386696179032" lon="19.88764098486647"><ele>175.0</ele><time>2026-05-04T12:13:52.999Z</time></trkpt><trkpt lat="42.193795810898294" lon="19.88761591852345"><ele>175.0</ele><time>2026-05-04T12:13:54.999Z</time></trkpt><trkpt lat="42.193724563830315" lon="19.887588979041414"><ele>175.0</ele><time>2026-05-04T12:13:56.999Z</time></trkpt><trkpt lat="42.19365395887994" lon="19.887561914095873"><ele>175.0</ele><time>2026-05-04T12:13:58.999Z</time></trkpt><trkpt lat="42.19358326199117" lon="19.88753397695015"><ele>175.0</ele><time>2026-05-04T12:14:00.999Z</time></trkpt><trkpt lat="42.193513743531454" lon="19.887505182593056"><ele>175.0</ele><time>2026-05-04T12:14:02.999Z</time></trkpt><trkpt lat="42.1934438534131" lon="19.8874772267298"><ele>175.0</ele><time>2026-05-04T12:14:04.999Z</time></trkpt><trkpt lat="42.19337398594335" lon="19.887448197310423"><ele>175.0</ele><time>2026-05-04T12:14:06.999Z</time></trkpt><trkpt lat="42.19330370613548" lon="19.88741944002592"><ele>175.0</ele><time>2026-05-04T12:14:08.999Z</time></trkpt><trkpt lat="42.193233013525266" lon="19.887389700696573"><ele>175.0</ele><time>2026-05-04T12:14:10.999Z</time></trkpt><trkpt lat="42.19316222882925" lon="19.88735995066107"><ele>175.0</ele><time>2026-05-04T12:14:12.999Z</time></trkpt><trkpt lat="42.19309223335814" lon="19.88732968772868"><ele>175.0</ele><time>2026-05-04T12:14:14.999Z</time></trkpt><trkpt lat="42.19302114520378" lon="19.88729866401475"><ele>175.0</ele><time>2026-05-04T12:14:16.999Z</time></trkpt><trkpt lat="42.19295083291179" lon="19.887266400234964"><ele>175.0</ele><time>2026-05-04T12:14:19Z</time></trkpt><trkpt lat="42.1928814405256" lon="19.887234866644288"><ele>175.0</ele><time>2026-05-04T12:14:21Z</time></trkpt><trkpt lat="42.19281221933948" lon="19.887202884751325"><ele>175.0</ele><time>2026-05-04T12:14:23Z</time></trkpt><trkpt lat="42.19274224319616" lon="19.887169853486725"><ele>175.0</ele><time>2026-05-04T12:14:25Z</time></trkpt><trkpt lat="42.19267238292932" lon="19.887137427979823"><ele>175.0</ele><time>2026-05-04T12:14:27Z</time></trkpt><trkpt lat="42.19260233948916" lon="19.887104839729783"><ele>175.0</ele><time>2026-05-04T12:14:29Z</time></trkpt><trkpt lat="42.19253340580109" lon="19.88707097842393"><ele>175.0</ele><time>2026-05-04T12:14:31Z</time></trkpt><trkpt lat="42.19246353082486" lon="19.887037590360382"><ele>175.0</ele><time>2026-05-04T12:14:33Z</time></trkpt><trkpt lat="42.19239518498722" lon="19.887004152592876"><ele>175.0</ele><time>2026-05-04T12:14:35Z</time></trkpt><trkpt lat="42.1923253538577" lon="19.886971286116907"><ele>175.0</ele><time>2026-05-04T12:14:37Z</time></trkpt><trkpt lat="42.19225565945401" lon="19.886938206331074"><ele>175.0</ele><time>2026-05-04T12:14:39Z</time></trkpt><trkpt lat="42.192184739154875" lon="19.886905563432624"><ele>175.0</ele><time>2026-05-04T12:14:41Z</time></trkpt><trkpt lat="42.19211522182826" lon="19.88687324291096"><ele>175.0</ele><time>2026-05-04T12:14:43Z</time></trkpt><trkpt lat="42.192044631837724" lon="19.886841475161322"><ele>175.0</ele><time>2026-05-04T12:14:45Z</time></trkpt><trkpt lat="42.191975467090145" lon="19.886810994188963"><ele>175.0</ele><time>2026-05-04T12:14:47Z</time></trkpt><trkpt lat="42.191906101825005" lon="19.886781924160655"><ele>175.0</ele><time>2026-05-04T12:14:49Z</time></trkpt><trkpt lat="42.191836763077575" lon="19.886753753996437"><ele>175.0</ele><time>2026-05-04T12:14:51Z</time></trkpt><trkpt lat="42.19176698856972" lon="19.886725856544086"><ele>175.0</ele><time>2026-05-04T12:14:53Z</time></trkpt><trkpt lat="42.19169676126295" lon="19.88669861472748"><ele>175.0</ele><time>2026-05-04T12:14:55Z</time></trkpt><trkpt lat="42.19162603285079" lon="19.886672403274336"><ele>175.0</ele><time>2026-05-04T12:14:57Z</time></trkpt><trkpt lat="42.19155127941172" lon="19.886644923187983"><ele>175.0</ele><time>2026-05-04T12:14:59Z</time></trkpt><trkpt lat="42.191481295471114" lon="19.886617361119363"><ele>175.0</ele><time>2026-05-04T12:15:01Z</time></trkpt><trkpt lat="42.19141005887708" lon="19.886589012358748"><ele>175.0</ele><time>2026-05-04T12:15:03Z</time></trkpt><trkpt lat="42.191341396188896" lon="19.886559979215694"><ele>175.0</ele><time>2026-05-04T12:15:05Z</time></trkpt><trkpt lat="42.19127045177645" lon="19.88653039458562"><ele>175.0</ele><time>2026-05-04T12:15:07Z</time></trkpt><trkpt lat="42.19120146974093" lon="19.886498655998544"><ele>175.0</ele><time>2026-05-04T12:15:09Z</time></trkpt><trkpt lat="42.19113231576699" lon="19.88646623251101"><ele>175.0</ele><time>2026-05-04T12:15:11Z</time></trkpt><trkpt lat="42.191063096418155" lon="19.886432407780706"><ele>175.0</ele><time>2026-05-04T12:15:13Z</time></trkpt><trkpt lat="42.19099354513302" lon="19.886397147676178"><ele>175.0</ele><time>2026-05-04T12:15:15Z</time></trkpt><trkpt lat="42.1909234588861" lon="19.886360408769324"><ele>175.0</ele><time>2026-05-04T12:15:17Z</time></trkpt><trkpt lat="42.19085580981881" lon="19.886321001418878"><ele>175.0</ele><time>2026-05-04T12:15:19Z</time></trkpt><trkpt lat="42.19078618571817" lon="19.886277844869948"><ele>175.0</ele><time>2026-05-04T12:15:21Z</time></trkpt><trkpt lat="42.19071838490354" lon="19.88623457828375"><ele>175.0</ele><time>2026-05-04T12:15:23Z</time></trkpt><trkpt lat="42.19065170682375" lon="19.886187627464817"><ele>175.0</ele><time>2026-05-04T12:15:25Z</time></trkpt><trkpt lat="42.190586099269254" lon="19.886140349438907"><ele>175.0</ele><time>2026-05-04T12:15:27Z</time></trkpt><trkpt lat="42.190522618206096" lon="19.886090693150447"><ele>175.0</ele><time>2026-05-04T12:15:29Z</time></trkpt><trkpt lat="42.19046188826723" lon="19.886039224496464"><ele>175.0</ele><time>2026-05-04T12:15:31Z</time></trkpt><trkpt lat="42.19040079840908" lon="19.88598499409616"><ele>175.0</ele><time>2026-05-04T12:15:33Z</time></trkpt><trkpt lat="42.190339908162024" lon="19.885928737700528"><ele>175.0</ele><time>2026-05-04T12:15:35Z</time></trkpt><trkpt lat="42.190280300317916" lon="19.885870779787183"><ele>175.0</ele><time>2026-05-04T12:15:37Z</time></trkpt><trkpt lat="42.19022220459289" lon="19.885812108316426"><ele>175.0</ele><time>2026-05-04T12:15:39Z</time></trkpt><trkpt lat="42.19016587746496" lon="19.885750416076093"><ele>175.0</ele><time>2026-05-04T12:15:41Z</time></trkpt><trkpt lat="42.19010985755193" lon="19.885687170716984"><ele>175.0</ele><time>2026-05-04T12:15:43Z</time></trkpt><trkpt lat="42.19005401131257" lon="19.885622414339984"><ele>175.0</ele><time>2026-05-04T12:15:44.999Z</time></trkpt><trkpt lat="42.19000028364971" lon="19.885555622959146"><ele>175.0</ele><time>2026-05-04T12:15:46.999Z</time></trkpt><trkpt lat="42.18994717097561" lon="19.885488886909354"><ele>175.0</ele><time>2026-05-04T12:15:48.999Z</time></trkpt><trkpt lat="42.18989562756847" lon="19.885419543164367"><ele>175.0</ele><time>2026-05-04T12:15:50.999Z</time></trkpt><trkpt lat="42.189843900922156" lon="19.8853487072586"><ele>175.0</ele><time>2026-05-04T12:15:52.999Z</time></trkpt><trkpt lat="42.18979323679828" lon="19.885276810058357"><ele>175.0</ele><time>2026-05-04T12:15:54.999Z</time></trkpt><trkpt lat="42.18974395789337" lon="19.88520197677959"><ele>175.0</ele><time>2026-05-04T12:15:56.999Z</time></trkpt><trkpt lat="42.189694102150185" lon="19.88512856477081"><ele>175.0</ele><time>2026-05-04T12:15:58.999Z</time></trkpt><trkpt lat="42.189646090789196" lon="19.885054062466136"><ele>175.0</ele><time>2026-05-04T12:16:00.999Z</time></trkpt><trkpt lat="42.18959941958711" lon="19.884977600603428"><ele>175.0</ele><time>2026-05-04T12:16:02.999Z</time></trkpt><trkpt lat="42.18955372603795" lon="19.88489693647142"><ele>175.0</ele><time>2026-05-04T12:16:04.999Z</time></trkpt><trkpt lat="42.18951105646061" lon="19.884817908236123"><ele>175.0</ele><time>2026-05-04T12:16:06.999Z</time></trkpt><trkpt lat="42.18946974918751" lon="19.884737045074605"><ele>175.0</ele><time>2026-05-04T12:16:08.999Z</time></trkpt><trkpt lat="42.18942842961557" lon="19.88465462414888"><ele>175.0</ele><time>2026-05-04T12:16:10.999Z</time></trkpt><trkpt lat="42.18938945368765" lon="19.884571617946712"><ele>175.0</ele><time>2026-05-04T12:16:12.999Z</time></trkpt><trkpt lat="42.189350452647105" lon="19.88448751128788"><ele>175.0</ele><time>2026-05-04T12:16:14.999Z</time></trkpt><trkpt lat="42.189313581935764" lon="19.884402378153716"><ele>175.0</ele><time>2026-05-04T12:16:16.999Z</time></trkpt><trkpt lat="42.18927790839071" lon="19.884315725017768"><ele>175.0</ele><time>2026-05-04T12:16:18.999Z</time></trkpt><trkpt lat="42.189244750032024" lon="19.88422834623829"><ele>175.0</ele><time>2026-05-04T12:16:20.999Z</time></trkpt><trkpt lat="42.18921281803487" lon="19.884139359707444"><ele>175.0</ele><time>2026-05-04T12:16:22.999Z</time></trkpt><trkpt lat="42.18918173742561" lon="19.88404935671339"><ele>175.0</ele><time>2026-05-04T12:16:25Z</time></trkpt><trkpt lat="42.18915167048693" lon="19.88395908317786"><ele>175.0</ele><time>2026-05-04T12:16:27Z</time></trkpt><trkpt lat="42.18912383241958" lon="19.883868077097706"><ele>175.0</ele><time>2026-05-04T12:16:29Z</time></trkpt><trkpt lat="42.18909818683104" lon="19.883776169451078"><ele>175.0</ele><time>2026-05-04T12:16:31Z</time></trkpt><trkpt lat="42.18907333623542" lon="19.88368323289786"><ele>175.0</ele><time>2026-05-04T12:16:33Z</time></trkpt><trkpt lat="42.18904932089398" lon="19.883589639909328"><ele>175.0</ele><time>2026-05-04T12:16:35Z</time></trkpt><trkpt lat="42.18902842823435" lon="19.88349651133668"><ele>175.0</ele><time>2026-05-04T12:16:37Z</time></trkpt><trkpt lat="42.18900800246632" lon="19.883402814366693"><ele>175.0</ele><time>2026-05-04T12:16:39Z</time></trkpt><trkpt lat="42.18898821582398" lon="19.883308103470014"><ele>175.0</ele><time>2026-05-04T12:16:41Z</time></trkpt><trkpt lat="42.18896993341027" lon="19.883213686164762"><ele>175.0</ele><time>2026-05-04T12:16:43Z</time></trkpt><trkpt lat="42.188950976959966" lon="19.883118670239995"><ele>175.0</ele><time>2026-05-04T12:16:45Z</time></trkpt><trkpt lat="42.18893336003456" lon="19.88302458741141"><ele>175.0</ele><time>2026-05-04T12:16:47Z</time></trkpt><trkpt lat="42.18891720573827" lon="19.882931215269178"><ele>175.0</ele><time>2026-05-04T12:16:49Z</time></trkpt><trkpt lat="42.18889889377136" lon="19.882836496142467"><ele>175.0</ele><time>2026-05-04T12:16:51Z</time></trkpt><trkpt lat="42.18888255847486" lon="19.88274333281889"><ele>175.0</ele><time>2026-05-04T12:16:53Z</time></trkpt><trkpt lat="42.1888670932226" lon="19.882650337333214"><ele>175.0</ele><time>2026-05-04T12:16:55Z</time></trkpt><trkpt lat="42.1888512730983" lon="19.8825584197116"><ele>175.0</ele><time>2026-05-04T12:16:57Z</time></trkpt><trkpt lat="42.1888335885086" lon="19.882465982506833"><ele>175.0</ele><time>2026-05-04T12:16:59Z</time></trkpt><trkpt lat="42.18881646574053" lon="19.882373863488223"><ele>175.0</ele><time>2026-05-04T12:17:01Z</time></trkpt><trkpt lat="42.18880002445377" lon="19.88228144441953"><ele>175.0</ele><time>2026-05-04T12:17:03Z</time></trkpt><trkpt lat="42.18878359978474" lon="19.882189758272077"><ele>175.0</ele><time>2026-05-04T12:17:05Z</time></trkpt><trkpt lat="42.18876876030522" lon="19.882096370886753"><ele>175.0</ele><time>2026-05-04T12:17:07Z</time></trkpt><trkpt lat="42.18875241112047" lon="19.882002419141372"><ele>175.0</ele><time>2026-05-04T12:17:09Z</time></trkpt><trkpt lat="42.188737430865544" lon="19.881907917968007"><ele>175.0</ele><time>2026-05-04T12:17:11Z</time></trkpt><trkpt lat="42.18872266327639" lon="19.881813783377527"><ele>175.0</ele><time>2026-05-04T12:17:13Z</time></trkpt><trkpt lat="42.1887075202943" lon="19.8817193054957"><ele>175.0</ele><time>2026-05-04T12:17:15Z</time></trkpt><trkpt lat="42.18869097520297" lon="19.881625590726024"><ele>175.0</ele><time>2026-05-04T12:17:17Z</time></trkpt><trkpt lat="42.18867609224294" lon="19.881532588241488"><ele>175.0</ele><time>2026-05-04T12:17:19Z</time></trkpt><trkpt lat="42.18866235583776" lon="19.881438942099127"><ele>175.0</ele><time>2026-05-04T12:17:21Z</time></trkpt><trkpt lat="42.188646931222955" lon="19.881345777821004"><ele>175.0</ele><time>2026-05-04T12:17:23Z</time></trkpt><trkpt lat="42.18863381348912" lon="19.88125322934382"><ele>175.0</ele><time>2026-05-04T12:17:25Z</time></trkpt><trkpt lat="42.188620708044205" lon="19.881160197807166"><ele>175.0</ele><time>2026-05-04T12:17:27Z</time></trkpt><trkpt lat="42.18860633082112" lon="19.881065321517152"><ele>175.0</ele><time>2026-05-04T12:17:29Z</time></trkpt><trkpt lat="42.1885933626108" lon="19.880972766608213"><ele>175.0</ele><time>2026-05-04T12:17:31Z</time></trkpt><trkpt lat="42.18857797521445" lon="19.88088063834185"><ele>175.0</ele><time>2026-05-04T12:17:33Z</time></trkpt><trkpt lat="42.188561975813705" lon="19.88078769585663"><ele>175.0</ele><time>2026-05-04T12:17:35Z</time></trkpt><trkpt lat="42.18854731568519" lon="19.880694544201877"><ele>175.0</ele><time>2026-05-04T12:17:37Z</time></trkpt><trkpt lat="42.188533570861516" lon="19.880600477879458"><ele>175.0</ele><time>2026-05-04T12:17:39Z</time></trkpt><trkpt lat="42.18852067189003" lon="19.8805070063886"><ele>175.0</ele><time>2026-05-04T12:17:41Z</time></trkpt><trkpt lat="42.18850830803187" lon="19.880414681200783"><ele>175.0</ele><time>2026-05-04T12:17:43Z</time></trkpt><trkpt lat="42.188496184586924" lon="19.880321907424776"><ele>175.0</ele><time>2026-05-04T12:17:45Z</time></trkpt><trkpt lat="42.1884837808842" lon="19.880229099157454"><ele>175.0</ele><time>2026-05-04T12:17:47Z</time></trkpt><trkpt lat="42.188464484062784" lon="19.880090156723874"><ele>175.0</ele><time>2026-05-04T12:17:50Z</time></trkpt><trkpt lat="42.18845186780782" lon="19.88000039883363"><ele>175.0</ele><time>2026-05-04T12:17:52Z</time></trkpt><trkpt lat="42.188439748558054" lon="19.879908148058902"><ele>175.0</ele><time>2026-05-04T12:17:54Z</time></trkpt><trkpt lat="42.18842558914925" lon="19.879814160882916"><ele>175.0</ele><time>2026-05-04T12:17:56Z</time></trkpt><trkpt lat="42.188413102489775" lon="19.879721639975863"><ele>175.0</ele><time>2026-05-04T12:17:58Z</time></trkpt><trkpt lat="42.18840132093551" lon="19.87962817003888"><ele>175.0</ele><time>2026-05-04T12:18:00Z</time></trkpt><trkpt lat="42.18838362836871" lon="19.879539306029525"><ele>175.0</ele><time>2026-05-04T12:18:02Z</time></trkpt><trkpt lat="42.18837067097634" lon="19.87944836241299"><ele>175.0</ele><time>2026-05-04T12:18:04Z</time></trkpt><trkpt lat="42.18835584182766" lon="19.879349167770545"><ele>175.0</ele><time>2026-05-04T12:18:06Z</time></trkpt><trkpt lat="42.18834306980642" lon="19.879251640972555"><ele>175.0</ele><time>2026-05-04T12:18:08Z</time></trkpt><trkpt lat="42.188329690841975" lon="19.879156460274082"><ele>175.0</ele><time>2026-05-04T12:18:10Z</time></trkpt><trkpt lat="42.188316232175296" lon="19.879060631892994"><ele>175.0</ele><time>2026-05-04T12:18:12Z</time></trkpt><trkpt lat="42.188302300928115" lon="19.878966519419226"><ele>175.0</ele><time>2026-05-04T12:18:14Z</time></trkpt><trkpt lat="42.18828773923202" lon="19.878869825665348"><ele>175.0</ele><time>2026-05-04T12:18:16Z</time></trkpt><trkpt lat="42.18827432362056" lon="19.878775121982006"><ele>175.0</ele><time>2026-05-04T12:18:18Z</time></trkpt><trkpt lat="42.18825812449642" lon="19.87868113905979"><ele>175.0</ele><time>2026-05-04T12:18:20Z</time></trkpt><trkpt lat="42.18824504497954" lon="19.878588224816404"><ele>175.0</ele><time>2026-05-04T12:18:22Z</time></trkpt><trkpt lat="42.18823167452535" lon="19.878493543399166"><ele>175.0</ele><time>2026-05-04T12:18:24Z</time></trkpt><trkpt lat="42.18821752917195" lon="19.87839889952953"><ele>175.0</ele><time>2026-05-04T12:18:26Z</time></trkpt><trkpt lat="42.18820343990881" lon="19.87830499024746"><ele>175.0</ele><time>2026-05-04T12:18:28Z</time></trkpt><trkpt lat="42.18818962705256" lon="19.87821233680547"><ele>175.0</ele><time>2026-05-04T12:18:30Z</time></trkpt><trkpt lat="42.188176365365386" lon="19.878118867720566"><ele>175.0</ele><time>2026-05-04T12:18:32Z</time></trkpt><trkpt lat="42.188162663423235" lon="19.878025201115182"><ele>175.0</ele><time>2026-05-04T12:18:34Z</time></trkpt><trkpt lat="42.18814720010822" lon="19.877932494429352"><ele>175.0</ele><time>2026-05-04T12:18:36Z</time></trkpt><trkpt lat="42.18813333592784" lon="19.877837851612934"><ele>175.0</ele><time>2026-05-04T12:18:38Z</time></trkpt><trkpt lat="42.18812014333994" lon="19.877742685393603"><ele>175.0</ele><time>2026-05-04T12:18:40Z</time></trkpt><trkpt lat="42.18810668564229" lon="19.8776466541425"><ele>175.0</ele><time>2026-05-04T12:18:42Z</time></trkpt><trkpt lat="42.18807102962725" lon="19.87741409716605"><ele>175.0</ele><time>2026-05-04T12:18:47Z</time></trkpt><trkpt lat="42.18805411080487" lon="19.877314196229175"><ele>175.0</ele><time>2026-05-04T12:18:49Z</time></trkpt><trkpt lat="42.18803819218898" lon="19.8772214536314"><ele>175.0</ele><time>2026-05-04T12:18:51Z</time></trkpt><trkpt lat="42.1880317769871" lon="19.877105094423566"><ele>175.0</ele><time>2026-05-04T12:18:53Z</time></trkpt><trkpt lat="42.188013642252194" lon="19.87700524537551"><ele>175.0</ele><time>2026-05-04T12:18:55Z</time></trkpt><trkpt lat="42.18800800139646" lon="19.876910240861534"><ele>175.0</ele><time>2026-05-04T12:18:57Z</time></trkpt><trkpt lat="42.18799236192642" lon="19.876805077850126"><ele>175.0</ele><time>2026-05-04T12:18:59Z</time></trkpt><trkpt lat="42.18797962073132" lon="19.876702329110685"><ele>175.0</ele><time>2026-05-04T12:19:01Z</time></trkpt><trkpt lat="42.18795208071495" lon="19.87658950813394"><ele>175.0</ele><time>2026-05-04T12:19:03Z</time></trkpt><trkpt lat="42.18794412493113" lon="19.87649852098484"><ele>175.0</ele><time>2026-05-04T12:19:05Z</time></trkpt><trkpt lat="42.1879305048922" lon="19.876399323332457"><ele>175.0</ele><time>2026-05-04T12:19:07Z</time></trkpt><trkpt lat="42.18791668878379" lon="19.876301333487422"><ele>175.0</ele><time>2026-05-04T12:19:09Z</time></trkpt><trkpt lat="42.18790260592853" lon="19.876202993437285"><ele>175.0</ele><time>2026-05-04T12:19:11Z</time></trkpt><trkpt lat="42.187891365557206" lon="19.876105529260823"><ele>175.0</ele><time>2026-05-04T12:19:13Z</time></trkpt><trkpt lat="42.187878737752094" lon="19.87600823262512"><ele>175.0</ele><time>2026-05-04T12:19:15Z</time></trkpt><trkpt lat="42.18786611553874" lon="19.875911998279673"><ele>175.0</ele><time>2026-05-04T12:19:17Z</time></trkpt><trkpt lat="42.18785299801557" lon="19.875815495221996"><ele>175.0</ele><time>2026-05-04T12:19:19Z</time></trkpt><trkpt lat="42.18784014764464" lon="19.875718412068334"><ele>175.0</ele><time>2026-05-04T12:19:21Z</time></trkpt><trkpt lat="42.18782624119403" lon="19.875620892889327"><ele>175.0</ele><time>2026-05-04T12:19:23Z</time></trkpt><trkpt lat="42.187813413627886" lon="19.87552378783815"><ele>175.0</ele><time>2026-05-04T12:19:25Z</time></trkpt><trkpt lat="42.18779966904385" lon="19.875425587565235"><ele>175.0</ele><time>2026-05-04T12:19:27Z</time></trkpt><trkpt lat="42.187785316008615" lon="19.875328312233503"><ele>175.0</ele><time>2026-05-04T12:19:29Z</time></trkpt><trkpt lat="42.187770852177216" lon="19.875231660815082"><ele>175.0</ele><time>2026-05-04T12:19:31Z</time></trkpt><trkpt lat="42.18775641479461" lon="19.87513502013905"><ele>175.0</ele><time>2026-05-04T12:19:33Z</time></trkpt><trkpt lat="42.18774170048755" lon="19.87503886280038"><ele>175.0</ele><time>2026-05-04T12:19:35Z</time></trkpt><trkpt lat="42.187727567985604" lon="19.874941696996164"><ele>175.0</ele><time>2026-05-04T12:19:37Z</time></trkpt><trkpt lat="42.18771296833498" lon="19.874846752124522"><ele>175.0</ele><time>2026-05-04T12:19:39Z</time></trkpt><trkpt lat="42.187698208538706" lon="19.87475097430256"><ele>175.0</ele><time>2026-05-04T12:19:41Z</time></trkpt><trkpt lat="42.18768442971534" lon="19.87465548265994"><ele>175.0</ele><time>2026-05-04T12:19:43Z</time></trkpt><trkpt lat="42.1876699659785" lon="19.87455886313067"><ele>175.0</ele><time>2026-05-04T12:19:45Z</time></trkpt><trkpt lat="42.18765574822972" lon="19.874462622810952"><ele>175.0</ele><time>2026-05-04T12:19:47Z</time></trkpt><trkpt lat="42.18764097239548" lon="19.87436533192802"><ele>175.0</ele><time>2026-05-04T12:19:49Z</time></trkpt><trkpt lat="42.18762543915734" lon="19.874269627848022"><ele>175.0</ele><time>2026-05-04T12:19:51Z</time></trkpt><trkpt lat="42.18761013951209" lon="19.874172804073797"><ele>175.0</ele><time>2026-05-04T12:19:53Z</time></trkpt><trkpt lat="42.18759626220757" lon="19.874077776881983"><ele>175.0</ele><time>2026-05-04T12:19:55Z</time></trkpt><trkpt lat="42.187580999764876" lon="19.873981999053935"><ele>175.0</ele><time>2026-05-04T12:19:57Z</time></trkpt><trkpt lat="42.187566068319455" lon="19.873886070469318"><ele>175.0</ele><time>2026-05-04T12:19:59Z</time></trkpt><trkpt lat="42.18754973331287" lon="19.873789276527145"><ele>175.0</ele><time>2026-05-04T12:20:01Z</time></trkpt><trkpt lat="42.187532620338125" lon="19.8736921969027"><ele>175.0</ele><time>2026-05-04T12:20:03Z</time></trkpt><trkpt lat="42.18751832248641" lon="19.87359700534355"><ele>175.0</ele><time>2026-05-04T12:20:05Z</time></trkpt><trkpt lat="42.18750639210292" lon="19.873505522275313"><ele>175.0</ele><time>2026-05-04T12:20:07Z</time></trkpt><trkpt lat="42.18749019934097" lon="19.873408625278774"><ele>175.0</ele><time>2026-05-04T12:20:09Z</time></trkpt><trkpt lat="42.187470328561204" lon="19.87331092270949"><ele>175.0</ele><time>2026-05-04T12:20:11Z</time></trkpt><trkpt lat="42.18745456665855" lon="19.873212051345824"><ele>175.0</ele><time>2026-05-04T12:20:13Z</time></trkpt><trkpt lat="42.18743738575524" lon="19.873111852221022"><ele>175.0</ele><time>2026-05-04T12:20:15Z</time></trkpt><trkpt lat="42.1874189072044" lon="19.873011572230087"><ele>175.0</ele><time>2026-05-04T12:20:17Z</time></trkpt><trkpt lat="42.187400315295605" lon="19.87291390324623"><ele>175.0</ele><time>2026-05-04T12:20:19Z</time></trkpt><trkpt lat="42.18737767468663" lon="19.872817554092208"><ele>175.0</ele><time>2026-05-04T12:20:21Z</time></trkpt><trkpt lat="42.187354990799385" lon="19.872723974140147"><ele>175.0</ele><time>2026-05-04T12:20:23Z</time></trkpt><trkpt lat="42.18733288216601" lon="19.872629590131048"><ele>175.0</ele><time>2026-05-04T12:20:25Z</time></trkpt><trkpt lat="42.18730944634861" lon="19.87253486997832"><ele>175.0</ele><time>2026-05-04T12:20:27Z</time></trkpt><trkpt lat="42.187285300432706" lon="19.872442092694964"><ele>175.0</ele><time>2026-05-04T12:20:29Z</time></trkpt><trkpt lat="42.187260827095045" lon="19.87234928307151"><ele>175.0</ele><time>2026-05-04T12:20:31Z</time></trkpt><trkpt lat="42.18723427746527" lon="19.87225612378544"><ele>175.0</ele><time>2026-05-04T12:20:33Z</time></trkpt><trkpt lat="42.18720918010025" lon="19.872170580718407"><ele>175.0</ele><time>2026-05-04T12:20:35Z</time></trkpt><trkpt lat="42.18717840415022" lon="19.87208301096756"><ele>175.0</ele><time>2026-05-04T12:20:37Z</time></trkpt><trkpt lat="42.18714621262918" lon="19.87199660795847"><ele>175.0</ele><time>2026-05-04T12:20:39Z</time></trkpt><trkpt lat="42.187112281332446" lon="19.871911120607404"><ele>175.0</ele><time>2026-05-04T12:20:41Z</time></trkpt><trkpt lat="42.18707829270292" lon="19.87182574851438"><ele>175.0</ele><time>2026-05-04T12:20:43.001Z</time></trkpt><trkpt lat="42.18704209751623" lon="19.871742805937036"><ele>175.0</ele><time>2026-05-04T12:20:45.001Z</time></trkpt><trkpt lat="42.187003506880586" lon="19.871661143543328"><ele>175.0</ele><time>2026-05-04T12:20:47.001Z</time></trkpt><trkpt lat="42.18696722959256" lon="19.871579685937572"><ele>175.0</ele><time>2026-05-04T12:20:49.001Z</time></trkpt><trkpt lat="42.1869236540514" lon="19.871498511215854"><ele>175.0</ele><time>2026-05-04T12:20:51.001Z</time></trkpt><trkpt lat="42.1868809282758" lon="19.87141917551904"><ele>175.0</ele><time>2026-05-04T12:20:53.001Z</time></trkpt><trkpt lat="42.18683716642749" lon="19.87134081889929"><ele>175.0</ele><time>2026-05-04T12:20:55Z</time></trkpt><trkpt lat="42.186793610548705" lon="19.871264836230907"><ele>175.0</ele><time>2026-05-04T12:20:57Z</time></trkpt><trkpt lat="42.186750185834406" lon="19.87118951517461"><ele>175.0</ele><time>2026-05-04T12:20:59Z</time></trkpt><trkpt lat="42.186705056876555" lon="19.871115607857362"><ele>175.0</ele><time>2026-05-04T12:21:01Z</time></trkpt><trkpt lat="42.18665623273964" lon="19.871043500348623"><ele>175.0</ele><time>2026-05-04T12:21:03Z</time></trkpt><trkpt lat="42.18660621514721" lon="19.870974503035978"><ele>175.0</ele><time>2026-05-04T12:21:05Z</time></trkpt><trkpt lat="42.18655802615246" lon="19.870903710475595"><ele>175.0</ele><time>2026-05-04T12:21:07Z</time></trkpt><trkpt lat="42.186510521172465" lon="19.870847830382598"><ele>175.0</ele><time>2026-05-04T12:21:09Z</time></trkpt><trkpt lat="42.18646226198129" lon="19.87078321424914"><ele>175.0</ele><time>2026-05-04T12:21:11Z</time></trkpt><trkpt lat="42.186410829070866" lon="19.870718135790593"><ele>175.0</ele><time>2026-05-04T12:21:13Z</time></trkpt><trkpt lat="42.186364368920856" lon="19.87064957261202"><ele>175.0</ele><time>2026-05-04T12:21:15Z</time></trkpt><trkpt lat="42.186310755677525" lon="19.870587059763558"><ele>175.0</ele><time>2026-05-04T12:21:17Z</time></trkpt><trkpt lat="42.186250714007535" lon="19.870498360934295"><ele>175.0</ele><time>2026-05-04T12:21:20Z</time></trkpt><trkpt lat="42.18618560186104" lon="19.87042931163016"><ele>175.0</ele><time>2026-05-04T12:21:22Z</time></trkpt><trkpt lat="42.18613023556877" lon="19.87035795212569"><ele>175.0</ele><time>2026-05-04T12:21:24Z</time></trkpt><trkpt lat="42.18606624387503" lon="19.870299870424752"><ele>175.0</ele><time>2026-05-04T12:21:26Z</time></trkpt><trkpt lat="42.18600548428933" lon="19.870237232647582"><ele>175.0</ele><time>2026-05-04T12:21:28Z</time></trkpt><trkpt lat="42.185946735888564" lon="19.87017942325083"><ele>175.0</ele><time>2026-05-04T12:21:30Z</time></trkpt><trkpt lat="42.185886291080266" lon="19.87012159198521"><ele>175.0</ele><time>2026-05-04T12:21:32Z</time></trkpt><trkpt lat="42.18582806036032" lon="19.870063213820767"><ele>175.0</ele><time>2026-05-04T12:21:34Z</time></trkpt><trkpt lat="42.18577005228522" lon="19.870006356618717"><ele>175.0</ele><time>2026-05-04T12:21:36Z</time></trkpt><trkpt lat="42.185712804848954" lon="19.869948297254194"><ele>175.0</ele><time>2026-05-04T12:21:38Z</time></trkpt><trkpt lat="42.18565273668838" lon="19.8698940777403"><ele>175.0</ele><time>2026-05-04T12:21:40Z</time></trkpt><trkpt lat="42.18559546931366" lon="19.869836494823847"><ele>175.0</ele><time>2026-05-04T12:21:42Z</time></trkpt><trkpt lat="42.185537708764464" lon="19.869779330047944"><ele>175.0</ele><time>2026-05-04T12:21:44Z</time></trkpt><trkpt lat="42.185478144773015" lon="19.869724073132176"><ele>175.0</ele><time>2026-05-04T12:21:46Z</time></trkpt><trkpt lat="42.18541910949692" lon="19.869669831870286"><ele>175.0</ele><time>2026-05-04T12:21:48Z</time></trkpt><trkpt lat="42.18536004554212" lon="19.869616939338417"><ele>175.0</ele><time>2026-05-04T12:21:50Z</time></trkpt><trkpt lat="42.18530224813239" lon="19.86956246283582"><ele>175.0</ele><time>2026-05-04T12:21:52Z</time></trkpt><trkpt lat="42.18523964297976" lon="19.869511609539344"><ele>175.0</ele><time>2026-05-04T12:21:54Z</time></trkpt><trkpt lat="42.185178746137844" lon="19.869459695224215"><ele>175.0</ele><time>2026-05-04T12:21:56Z</time></trkpt><trkpt lat="42.18511729057406" lon="19.869407929142078"><ele>175.0</ele><time>2026-05-04T12:21:58Z</time></trkpt><trkpt lat="42.185058398187756" lon="19.86935681366641"><ele>175.0</ele><time>2026-05-04T12:22:00Z</time></trkpt><trkpt lat="42.184999024319374" lon="19.869308148641764"><ele>175.0</ele><time>2026-05-04T12:22:02Z</time></trkpt><trkpt lat="42.18493618453954" lon="19.869260085050268"><ele>175.0</ele><time>2026-05-04T12:22:04Z</time></trkpt><trkpt lat="42.18487355699716" lon="19.869211770451905"><ele>175.0</ele><time>2026-05-04T12:22:06Z</time></trkpt><trkpt lat="42.18481106826801" lon="19.869164019775145"><ele>175.0</ele><time>2026-05-04T12:22:08Z</time></trkpt><trkpt lat="42.184748415615424" lon="19.869116787419838"><ele>175.0</ele><time>2026-05-04T12:22:10Z</time></trkpt><trkpt lat="42.18467948056269" lon="19.869073632809886"><ele>175.0</ele><time>2026-05-04T12:22:12Z</time></trkpt><trkpt lat="42.184615670750496" lon="19.869031329265862"><ele>175.0</ele><time>2026-05-04T12:22:14Z</time></trkpt><trkpt lat="42.18455669235885" lon="19.86897753480339"><ele>175.0</ele><time>2026-05-04T12:22:16Z</time></trkpt><trkpt lat="42.18449379626948" lon="19.868931883079185"><ele>175.0</ele><time>2026-05-04T12:22:17.999Z</time></trkpt><trkpt lat="42.184434066548526" lon="19.868902738586264"><ele>175.0</ele><time>2026-05-04T12:22:19.999Z</time></trkpt><trkpt lat="42.18437741502664" lon="19.868864190009266"><ele>175.0</ele><time>2026-05-04T12:22:21.999Z</time></trkpt><trkpt lat="42.18431782942935" lon="19.868825887679932"><ele>175.0</ele><time>2026-05-04T12:22:23.999Z</time></trkpt><trkpt lat="42.18426001231803" lon="19.868783231816543"><ele>175.0</ele><time>2026-05-04T12:22:25.999Z</time></trkpt><trkpt lat="42.18419091458134" lon="19.868743062095458"><ele>175.0</ele><time>2026-05-04T12:22:28.999Z</time></trkpt><trkpt lat="42.184132586659864" lon="19.868702626996633"><ele>175.0</ele><time>2026-05-04T12:22:30.999Z</time></trkpt><trkpt lat="42.184061142383285" lon="19.868648830871436"><ele>175.0</ele><time>2026-05-04T12:22:34.999Z</time></trkpt><trkpt lat="42.18398361010674" lon="19.868587821581723"><ele>175.0</ele><time>2026-05-04T12:22:38.999Z</time></trkpt><trkpt lat="42.18391630427544" lon="19.86853896465881"><ele>175.0</ele><time>2026-05-04T12:22:41.999Z</time></trkpt><trkpt lat="42.1838545108328" lon="19.868503558198434"><ele>175.0</ele><time>2026-05-04T12:22:45Z</time></trkpt><trkpt lat="42.18378613117542" lon="19.86845398032068"><ele>175.0</ele><time>2026-05-04T12:22:48Z</time></trkpt><trkpt lat="42.183711793515556" lon="19.868410827047725"><ele>175.0</ele><time>2026-05-04T12:22:51Z</time></trkpt><trkpt lat="42.183625696093955" lon="19.86837521832666"><ele>175.0</ele><time>2026-05-04T12:22:54Z</time></trkpt><trkpt lat="42.183547223583" lon="19.868363381971786"><ele>175.0</ele><time>2026-05-04T12:22:56Z</time></trkpt><trkpt lat="42.183465237709505" lon="19.86833987478528"><ele>175.0</ele><time>2026-05-04T12:22:57Z</time></trkpt><trkpt lat="42.183371311387106" lon="19.868291533791727"><ele>175.0</ele><time>2026-05-04T12:22:59Z</time></trkpt><trkpt lat="42.18328444490779" lon="19.86824923237466"><ele>175.0</ele><time>2026-05-04T12:23:01Z</time></trkpt><trkpt lat="42.18321550251868" lon="19.86824155791906"><ele>175.0</ele><time>2026-05-04T12:23:02Z</time></trkpt><trkpt lat="42.183139305474796" lon="19.86824342855215"><ele>175.0</ele><time>2026-05-04T12:23:05Z</time></trkpt><trkpt lat="42.18291455797204" lon="19.868252392820942"><ele>175.0</ele><time>2026-05-04T12:23:08Z</time></trkpt><trkpt lat="42.182846133003856" lon="19.86823794345495"><ele>175.0</ele><time>2026-05-04T12:23:10Z</time></trkpt><trkpt lat="42.18275357910904" lon="19.868205937976516"><ele>175.0</ele><time>2026-05-04T12:23:13Z</time></trkpt><trkpt lat="42.18269154407454" lon="19.868186770457076"><ele>175.0</ele><time>2026-05-04T12:23:15Z</time></trkpt><trkpt lat="42.182625366392436" lon="19.868163912620073"><ele>175.0</ele><time>2026-05-04T12:23:17Z</time></trkpt><trkpt lat="42.1825538736149" lon="19.868136435198537"><ele>175.0</ele><time>2026-05-04T12:23:19Z</time></trkpt><trkpt lat="42.182472049318406" lon="19.86809986282359"><ele>175.0</ele><time>2026-05-04T12:23:22Z</time></trkpt><trkpt lat="42.18238119387107" lon="19.868078857795282"><ele>175.0</ele><time>2026-05-04T12:23:24.999Z</time></trkpt><trkpt lat="42.182295610019054" lon="19.868070346206135"><ele>175.0</ele><time>2026-05-04T12:23:27.999Z</time></trkpt><trkpt lat="42.18222245753741" lon="19.868057822555684"><ele>175.0</ele><time>2026-05-04T12:23:29.999Z</time></trkpt><trkpt lat="42.18214750067544" lon="19.868051326774875"><ele>175.0</ele><time>2026-05-04T12:23:31.999Z</time></trkpt><trkpt lat="42.182074817123066" lon="19.86804272609425"><ele>175.0</ele><time>2026-05-04T12:23:33.999Z</time></trkpt><trkpt lat="42.18201202423092" lon="19.8680361204045"><ele>175.0</ele><time>2026-05-04T12:23:35.999Z</time></trkpt><trkpt lat="42.181931244774816" lon="19.86802799404495"><ele>175.0</ele><time>2026-05-04T12:23:37.999Z</time></trkpt><trkpt lat="42.1818608285583" lon="19.868030161529852"><ele>175.0</ele><time>2026-05-04T12:23:39.999Z</time></trkpt><trkpt lat="42.1817897390196" lon="19.868024841532062"><ele>175.0</ele><time>2026-05-04T12:23:41.999Z</time></trkpt><trkpt lat="42.18170719174795" lon="19.868025028523856"><ele>175.0</ele><time>2026-05-04T12:23:43.999Z</time></trkpt><trkpt lat="42.181637580439734" lon="19.868020573400685"><ele>175.0</ele><time>2026-05-04T12:23:45.999Z</time></trkpt><trkpt lat="42.181564325000515" lon="19.868018817537404"><ele>175.0</ele><time>2026-05-04T12:23:47.999Z</time></trkpt><trkpt lat="42.18149207945848" lon="19.868047588073473"><ele>175.0</ele><time>2026-05-04T12:23:49.999Z</time></trkpt><trkpt lat="42.181414960273436" lon="19.868029763250597"><ele>175.0</ele><time>2026-05-04T12:23:51.999Z</time></trkpt><trkpt lat="42.18133831957673" lon="19.86804364980719"><ele>175.0</ele><time>2026-05-04T12:23:53.999Z</time></trkpt><trkpt lat="42.18126642860376" lon="19.868031985170887"><ele>175.0</ele><time>2026-05-04T12:23:55.999Z</time></trkpt><trkpt lat="42.18118521105698" lon="19.86803259112786"><ele>175.0</ele><time>2026-05-04T12:23:57.999Z</time></trkpt><trkpt lat="42.18111114997383" lon="19.868015669398716"><ele>175.0</ele><time>2026-05-04T12:23:59.999Z</time></trkpt><trkpt lat="42.18102721154298" lon="19.868010117306618"><ele>175.0</ele><time>2026-05-04T12:24:01.999Z</time></trkpt><trkpt lat="42.18092908466468" lon="19.868025928445487"><ele>175.0</ele><time>2026-05-04T12:24:03.999Z</time></trkpt><trkpt lat="42.18083384029857" lon="19.868023701804102"><ele>175.0</ele><time>2026-05-04T12:24:05.999Z</time></trkpt><trkpt lat="42.18074294507348" lon="19.868014733179532"><ele>175.0</ele><time>2026-05-04T12:24:07.999Z</time></trkpt><trkpt lat="42.18067013488548" lon="19.868019781877784"><ele>175.0</ele><time>2026-05-04T12:24:09.999Z</time></trkpt><trkpt lat="42.180597230920554" lon="19.868048026564693"><ele>175.0</ele><time>2026-05-04T12:24:11.999Z</time></trkpt><trkpt lat="42.18049746533495" lon="19.868046920954814"><ele>175.0</ele><time>2026-05-04T12:24:13.999Z</time></trkpt><trkpt lat="42.18040899752941" lon="19.868047977979984"><ele>175.0</ele><time>2026-05-04T12:24:15.999Z</time></trkpt><trkpt lat="42.180306693830424" lon="19.868051603142916"><ele>175.0</ele><time>2026-05-04T12:24:17.999Z</time></trkpt><trkpt lat="42.18020591630985" lon="19.868072510949776"><ele>175.0</ele><time>2026-05-04T12:24:19.999Z</time></trkpt><trkpt lat="42.180136565809995" lon="19.868088805751587"><ele>175.0</ele><time>2026-05-04T12:24:21.999Z</time></trkpt><trkpt lat="42.18004528153138" lon="19.86809745930352"><ele>175.0</ele><time>2026-05-04T12:24:23.999Z</time></trkpt><trkpt lat="42.179968976839724" lon="19.868118387371645"><ele>175.0</ele><time>2026-05-04T12:24:26.999Z</time></trkpt><trkpt lat="42.1799018070576" lon="19.86813325754406"><ele>175.0</ele><time>2026-05-04T12:24:27.999Z</time></trkpt><trkpt lat="42.17983216040005" lon="19.86814872425016"><ele>175.0</ele><time>2026-05-04T12:24:29.999Z</time></trkpt><trkpt lat="42.1797276862722" lon="19.86816519071937"><ele>175.0</ele><time>2026-05-04T12:24:31.999Z</time></trkpt><trkpt lat="42.179652865426256" lon="19.868186856398665"><ele>175.0</ele><time>2026-05-04T12:24:33.999Z</time></trkpt><trkpt lat="42.17957863037253" lon="19.868209206184122"><ele>175.0</ele><time>2026-05-04T12:24:35.999Z</time></trkpt><trkpt lat="42.179512848254085" lon="19.86823567755412"><ele>175.0</ele><time>2026-05-04T12:24:37.999Z</time></trkpt><trkpt lat="42.17944723126815" lon="19.868253653846175"><ele>175.0</ele><time>2026-05-04T12:24:39.999Z</time></trkpt><trkpt lat="42.179376938614325" lon="19.868275665699212"><ele>175.0</ele><time>2026-05-04T12:24:41.999Z</time></trkpt><trkpt lat="42.17930359038546" lon="19.868305755043945"><ele>175.0</ele><time>2026-05-04T12:24:43.999Z</time></trkpt><trkpt lat="42.179230472537775" lon="19.868321599676158"><ele>175.0</ele><time>2026-05-04T12:24:45.999Z</time></trkpt><trkpt lat="42.179158071414946" lon="19.868348098691808"><ele>175.0</ele><time>2026-05-04T12:24:47.999Z</time></trkpt><trkpt lat="42.179088167172566" lon="19.868377315022915"><ele>175.0</ele><time>2026-05-04T12:24:49.999Z</time></trkpt><trkpt lat="42.17901886313011" lon="19.86840767997322"><ele>175.0</ele><time>2026-05-04T12:24:51.999Z</time></trkpt><trkpt lat="42.178950851513044" lon="19.86843736747405"><ele>175.0</ele><time>2026-05-04T12:24:53.999Z</time></trkpt><trkpt lat="42.17888328409152" lon="19.86846912038041"><ele>175.0</ele><time>2026-05-04T12:24:56Z</time></trkpt><trkpt lat="42.178816018561676" lon="19.868503065646745"><ele>175.0</ele><time>2026-05-04T12:24:58Z</time></trkpt><trkpt lat="42.17874604684111" lon="19.868534325078123"><ele>175.0</ele><time>2026-05-04T12:25:00Z</time></trkpt><trkpt lat="42.17867915462462" lon="19.868567425417506"><ele>175.0</ele><time>2026-05-04T12:25:02Z</time></trkpt><trkpt lat="42.17861012417939" lon="19.86860119155261"><ele>175.0</ele><time>2026-05-04T12:25:04Z</time></trkpt><trkpt lat="42.17854156433522" lon="19.868635800085933"><ele>175.0</ele><time>2026-05-04T12:25:06Z</time></trkpt><trkpt lat="42.17847330593916" lon="19.86867106513428"><ele>175.0</ele><time>2026-05-04T12:25:08Z</time></trkpt><trkpt lat="42.17840624950722" lon="19.868707775250442"><ele>175.0</ele><time>2026-05-04T12:25:10Z</time></trkpt><trkpt lat="42.178337997560675" lon="19.868743870770423"><ele>175.0</ele><time>2026-05-04T12:25:12Z</time></trkpt><trkpt lat="42.17827165358389" lon="19.868780674624283"><ele>175.0</ele><time>2026-05-04T12:25:14Z</time></trkpt><trkpt lat="42.17820425750761" lon="19.868817846363854"><ele>175.0</ele><time>2026-05-04T12:25:16Z</time></trkpt><trkpt lat="42.17813553678449" lon="19.868853273336043"><ele>175.0</ele><time>2026-05-04T12:25:18Z</time></trkpt><trkpt lat="42.17803527077729" lon="19.868910210332746"><ele>175.0</ele><time>2026-05-04T12:25:21Z</time></trkpt><trkpt lat="42.177968857362636" lon="19.868946588572072"><ele>175.0</ele><time>2026-05-04T12:25:23Z</time></trkpt><trkpt lat="42.177901283471236" lon="19.86898410655142"><ele>175.0</ele><time>2026-05-04T12:25:25Z</time></trkpt><trkpt lat="42.17783344772386" lon="19.86902241456331"><ele>175.0</ele><time>2026-05-04T12:25:27Z</time></trkpt><trkpt lat="42.177765072381554" lon="19.869060375035264"><ele>175.0</ele><time>2026-05-04T12:25:29Z</time></trkpt><trkpt lat="42.177686309526386" lon="19.869096431578527"><ele>175.0</ele><time>2026-05-04T12:25:31Z</time></trkpt><trkpt lat="42.17762251506338" lon="19.869136491312045"><ele>175.0</ele><time>2026-05-04T12:25:33Z</time></trkpt><trkpt lat="42.17755507102143" lon="19.869176742994274"><ele>175.0</ele><time>2026-05-04T12:25:35Z</time></trkpt><trkpt lat="42.177488769444395" lon="19.869217404147573"><ele>175.0</ele><time>2026-05-04T12:25:37Z</time></trkpt><trkpt lat="42.17742266134929" lon="19.869258448891586"><ele>175.0</ele><time>2026-05-04T12:25:39Z</time></trkpt><trkpt lat="42.17735622087478" lon="19.869298847269732"><ele>175.0</ele><time>2026-05-04T12:25:41Z</time></trkpt><trkpt lat="42.17728990111305" lon="19.869339966135982"><ele>175.0</ele><time>2026-05-04T12:25:43Z</time></trkpt><trkpt lat="42.17722301191491" lon="19.869382057625394"><ele>175.0</ele><time>2026-05-04T12:25:45Z</time></trkpt><trkpt lat="42.17715650903641" lon="19.86942464943432"><ele>175.0</ele><time>2026-05-04T12:25:47Z</time></trkpt><trkpt lat="42.17709037515107" lon="19.869467333278205"><ele>175.0</ele><time>2026-05-04T12:25:49Z</time></trkpt><trkpt lat="42.177024415217225" lon="19.869511269425395"><ele>175.0</ele><time>2026-05-04T12:25:51Z</time></trkpt><trkpt lat="42.17695896028112" lon="19.869555101128217"><ele>175.0</ele><time>2026-05-04T12:25:53Z</time></trkpt><trkpt lat="42.17689427612188" lon="19.86959703084924"><ele>175.0</ele><time>2026-05-04T12:25:55Z</time></trkpt><trkpt lat="42.176829435458835" lon="19.869639910231452"><ele>175.0</ele><time>2026-05-04T12:25:57Z</time></trkpt><trkpt lat="42.17676441597702" lon="19.869682630852548"><ele>175.0</ele><time>2026-05-04T12:25:59Z</time></trkpt><trkpt lat="42.176699207385006" lon="19.869725788823757"><ele>175.0</ele><time>2026-05-04T12:26:01Z</time></trkpt><trkpt lat="42.176634855769564" lon="19.869767322289302"><ele>175.0</ele><time>2026-05-04T12:26:03Z</time></trkpt><trkpt lat="42.176569954988224" lon="19.86981035848825"><ele>175.0</ele><time>2026-05-04T12:26:05Z</time></trkpt><trkpt lat="42.17650552766622" lon="19.869854183422543"><ele>175.0</ele><time>2026-05-04T12:26:07Z</time></trkpt><trkpt lat="42.17644016895232" lon="19.86989738787453"><ele>175.0</ele><time>2026-05-04T12:26:09Z</time></trkpt><trkpt lat="42.17637406163609" lon="19.869940950017646"><ele>175.0</ele><time>2026-05-04T12:26:11Z</time></trkpt><trkpt lat="42.176309078622545" lon="19.869983340102007"><ele>175.0</ele><time>2026-05-04T12:26:13Z</time></trkpt><trkpt lat="42.17624465850228" lon="19.870027365905905"><ele>175.0</ele><time>2026-05-04T12:26:15Z</time></trkpt><trkpt lat="42.176178659755685" lon="19.87007097392142"><ele>175.0</ele><time>2026-05-04T12:26:17Z</time></trkpt><trkpt lat="42.17611291946942" lon="19.87011517603859"><ele>175.0</ele><time>2026-05-04T12:26:19Z</time></trkpt><trkpt lat="42.17604746991429" lon="19.870158614043817"><ele>175.0</ele><time>2026-05-04T12:26:21Z</time></trkpt><trkpt lat="42.17598196245021" lon="19.870202119745972"><ele>175.0</ele><time>2026-05-04T12:26:23Z</time></trkpt><trkpt lat="42.17591616822434" lon="19.87024634963048"><ele>175.0</ele><time>2026-05-04T12:26:25Z</time></trkpt><trkpt lat="42.17585064487812" lon="19.870289164679768"><ele>175.0</ele><time>2026-05-04T12:26:27Z</time></trkpt><trkpt lat="42.17578558273222" lon="19.870333670305396"><ele>175.0</ele><time>2026-05-04T12:26:29Z</time></trkpt><trkpt lat="42.17571975045075" lon="19.870377300639433"><ele>175.0</ele><time>2026-05-04T12:26:31Z</time></trkpt><trkpt lat="42.17565740826029" lon="19.870422452616094"><ele>175.0</ele><time>2026-05-04T12:26:33Z</time></trkpt><trkpt lat="42.17559547980755" lon="19.870466301158384"><ele>175.0</ele><time>2026-05-04T12:26:35Z</time></trkpt><trkpt lat="42.17552868704586" lon="19.870511928783802"><ele>175.0</ele><time>2026-05-04T12:26:37Z</time></trkpt><trkpt lat="42.1754656920041" lon="19.87055343597953"><ele>175.0</ele><time>2026-05-04T12:26:39Z</time></trkpt><trkpt lat="42.175400804870115" lon="19.870601440483707"><ele>175.0</ele><time>2026-05-04T12:26:41Z</time></trkpt><trkpt lat="42.17533571549202" lon="19.87064602192784"><ele>175.0</ele><time>2026-05-04T12:26:43Z</time></trkpt><trkpt lat="42.175271095980506" lon="19.87069226975228"><ele>175.0</ele><time>2026-05-04T12:26:45Z</time></trkpt><trkpt lat="42.175206119128255" lon="19.87073708425453"><ele>175.0</ele><time>2026-05-04T12:26:47Z</time></trkpt><trkpt lat="42.17514138788576" lon="19.870780953243116"><ele>175.0</ele><time>2026-05-04T12:26:49Z</time></trkpt><trkpt lat="42.17507764581102" lon="19.870827375557077"><ele>175.0</ele><time>2026-05-04T12:26:51Z</time></trkpt><trkpt lat="42.175014118701114" lon="19.87087172262011"><ele>175.0</ele><time>2026-05-04T12:26:53Z</time></trkpt><trkpt lat="42.17495031305705" lon="19.87091602768945"><ele>175.0</ele><time>2026-05-04T12:26:54.999Z</time></trkpt><trkpt lat="42.17488495401003" lon="19.870959906237747"><ele>175.0</ele><time>2026-05-04T12:26:56.999Z</time></trkpt><trkpt lat="42.174817950613765" lon="19.87100454519863"><ele>175.0</ele><time>2026-05-04T12:26:58.999Z</time></trkpt><trkpt lat="42.1747538801144" lon="19.87105415531489"><ele>175.0</ele><time>2026-05-04T12:27:00.999Z</time></trkpt><trkpt lat="42.174689483388434" lon="19.871101225971017"><ele>175.0</ele><time>2026-05-04T12:27:02.999Z</time></trkpt><trkpt lat="42.17462646606966" lon="19.871149119707262"><ele>175.0</ele><time>2026-05-04T12:27:04.999Z</time></trkpt><trkpt lat="42.17456295661912" lon="19.87119745030196"><ele>175.0</ele><time>2026-05-04T12:27:06.999Z</time></trkpt><trkpt lat="42.174499508654726" lon="19.87124937511404"><ele>175.0</ele><time>2026-05-04T12:27:08.999Z</time></trkpt><trkpt lat="42.17443637414558" lon="19.871296953252667"><ele>175.0</ele><time>2026-05-04T12:27:10.999Z</time></trkpt><trkpt lat="42.17437362940652" lon="19.87134742436613"><ele>175.0</ele><time>2026-05-04T12:27:12.999Z</time></trkpt><trkpt lat="42.17431136470757" lon="19.871397930543573"><ele>175.0</ele><time>2026-05-04T12:27:14.999Z</time></trkpt><trkpt lat="42.17424775963809" lon="19.871447751762066"><ele>175.0</ele><time>2026-05-04T12:27:16.999Z</time></trkpt><trkpt lat="42.17418878111714" lon="19.871499171185377"><ele>175.0</ele><time>2026-05-04T12:27:18.999Z</time></trkpt><trkpt lat="42.17412593002953" lon="19.871549282665164"><ele>175.0</ele><time>2026-05-04T12:27:20.999Z</time></trkpt><trkpt lat="42.17406168120634" lon="19.871598725532632"><ele>175.0</ele><time>2026-05-04T12:27:22.999Z</time></trkpt><trkpt lat="42.173997809005726" lon="19.87164985340099"><ele>175.0</ele><time>2026-05-04T12:27:24.999Z</time></trkpt><trkpt lat="42.173933554785094" lon="19.871700960609818"><ele>175.0</ele><time>2026-05-04T12:27:26.999Z</time></trkpt><trkpt lat="42.17386991169017" lon="19.87175244898982"><ele>175.0</ele><time>2026-05-04T12:27:28.999Z</time></trkpt><trkpt lat="42.17380603097622" lon="19.87180330037334"><ele>175.0</ele><time>2026-05-04T12:27:30.999Z</time></trkpt><trkpt lat="42.17374314508461" lon="19.871854985651346"><ele>175.0</ele><time>2026-05-04T12:27:32.999Z</time></trkpt><trkpt lat="42.17368017193072" lon="19.87190737712978"><ele>175.0</ele><time>2026-05-04T12:27:34.999Z</time></trkpt><trkpt lat="42.173616443192444" lon="19.87195738830353"><ele>175.0</ele><time>2026-05-04T12:27:36.999Z</time></trkpt><trkpt lat="42.1735538829292" lon="19.872008276140132"><ele>175.0</ele><time>2026-05-04T12:27:38.999Z</time></trkpt><trkpt lat="42.17349033331824" lon="19.872059219952476"><ele>175.0</ele><time>2026-05-04T12:27:40.999Z</time></trkpt><trkpt lat="42.17341988045985" lon="19.87211070999465"><ele>175.0</ele><time>2026-05-04T12:27:42.999Z</time></trkpt><trkpt lat="42.173357203087114" lon="19.87216008939664"><ele>175.0</ele><time>2026-05-04T12:27:44.999Z</time></trkpt><trkpt lat="42.17329551025463" lon="19.87221331345417"><ele>175.0</ele><time>2026-05-04T12:27:46.999Z</time></trkpt><trkpt lat="42.173232961995026" lon="19.872265137888366"><ele>175.0</ele><time>2026-05-04T12:27:48.999Z</time></trkpt><trkpt lat="42.1731709909689" lon="19.87231794992191"><ele>175.0</ele><time>2026-05-04T12:27:50.999Z</time></trkpt><trkpt lat="42.17311361594647" lon="19.872368950719014"><ele>175.0</ele><time>2026-05-04T12:27:52.999Z</time></trkpt><trkpt lat="42.17303934977215" lon="19.872421411923735"><ele>175.0</ele><time>2026-05-04T12:27:54.999Z</time></trkpt><trkpt lat="42.17298182477401" lon="19.872471747358627"><ele>175.0</ele><time>2026-05-04T12:27:56.999Z</time></trkpt><trkpt lat="42.172922576998715" lon="19.87252609394479"><ele>175.0</ele><time>2026-05-04T12:27:58.999Z</time></trkpt><trkpt lat="42.17286118476492" lon="19.872580041407016"><ele>175.0</ele><time>2026-05-04T12:28:00.999Z</time></trkpt><trkpt lat="42.17280011770941" lon="19.872635413197347"><ele>175.0</ele><time>2026-05-04T12:28:02.999Z</time></trkpt><trkpt lat="42.17274123169369" lon="19.872692749364894"><ele>175.0</ele><time>2026-05-04T12:28:04.999Z</time></trkpt><trkpt lat="42.17268095585246" lon="19.87274885311108"><ele>175.0</ele><time>2026-05-04T12:28:06.999Z</time></trkpt><trkpt lat="42.17261982932037" lon="19.87280191965415"><ele>175.0</ele><time>2026-05-04T12:28:08.999Z</time></trkpt><trkpt lat="42.17256157501701" lon="19.87285462127622"><ele>175.0</ele><time>2026-05-04T12:28:10.999Z</time></trkpt><trkpt lat="42.17250170196115" lon="19.87291058426465"><ele>175.0</ele><time>2026-05-04T12:28:12.999Z</time></trkpt><trkpt lat="42.17244407352755" lon="19.872966853746746"><ele>175.0</ele><time>2026-05-04T12:28:14.999Z</time></trkpt><trkpt lat="42.17238543831991" lon="19.873023924638456"><ele>175.0</ele><time>2026-05-04T12:28:16.999Z</time></trkpt><trkpt lat="42.17232751556432" lon="19.873082426981988"><ele>175.0</ele><time>2026-05-04T12:28:18.999Z</time></trkpt><trkpt lat="42.17226828241596" lon="19.873138288377945"><ele>175.0</ele><time>2026-05-04T12:28:20.999Z</time></trkpt><trkpt lat="42.17221038698082" lon="19.873196776182795"><ele>175.0</ele><time>2026-05-04T12:28:22.999Z</time></trkpt><trkpt lat="42.17214866747529" lon="19.87325476467292"><ele>175.0</ele><time>2026-05-04T12:28:24.999Z</time></trkpt><trkpt lat="42.172089788594235" lon="19.873314385871268"><ele>175.0</ele><time>2026-05-04T12:28:26.999Z</time></trkpt><trkpt lat="42.172031413468595" lon="19.87337305344278"><ele>175.0</ele><time>2026-05-04T12:28:28.999Z</time></trkpt><trkpt lat="42.17197306914691" lon="19.873432132887565"><ele>175.0</ele><time>2026-05-04T12:28:30.999Z</time></trkpt><trkpt lat="42.1719152876895" lon="19.8734919478289"><ele>175.14285714285714</ele><time>2026-05-04T12:28:32.999Z</time></trkpt><trkpt lat="42.17185788503372" lon="19.873554683981112"><ele>175.28571428571428</ele><time>2026-05-04T12:28:34.999Z</time></trkpt><trkpt lat="42.17180296633218" lon="19.87361533697106"><ele>175.42857142857144</ele><time>2026-05-04T12:28:36.999Z</time></trkpt><trkpt lat="42.17175005660005" lon="19.873675009764245"><ele>175.57142857142856</ele><time>2026-05-04T12:28:38.999Z</time></trkpt><trkpt lat="42.171700312631955" lon="19.873734506092674"><ele>175.71428571428572</ele><time>2026-05-04T12:28:40.999Z</time></trkpt><trkpt lat="42.171653121179745" lon="19.873794976337525"><ele>175.85714285714286</ele><time>2026-05-04T12:28:42.999Z</time></trkpt><trkpt lat="42.17158694717021" lon="19.87388403401147"><ele>176.0</ele><time>2026-05-04T12:28:45.999Z</time></trkpt><trkpt lat="42.17152580728742" lon="19.87396682026977"><ele>176.0</ele><time>2026-05-04T12:28:48.999Z</time></trkpt><trkpt lat="42.17147359147958" lon="19.87404901230092"><ele>176.0</ele><time>2026-05-04T12:28:51.999Z</time></trkpt><trkpt lat="42.171424621424755" lon="19.874130503885112"><ele>176.0</ele><time>2026-05-04T12:28:54.999Z</time></trkpt><trkpt lat="42.17138057103141" lon="19.874209396900202"><ele>176.0</ele><time>2026-05-04T12:28:57.999Z</time></trkpt><trkpt lat="42.17134118657713" lon="19.87428663261939"><ele>176.0</ele><time>2026-05-04T12:29:00.999Z</time></trkpt><trkpt lat="42.17130526432625" lon="19.874357898442323"><ele>176.0</ele><time>2026-05-04T12:29:03.999Z</time></trkpt><trkpt lat="42.171264197514155" lon="19.87445065186047"><ele>176.0</ele><time>2026-05-04T12:29:07.999Z</time></trkpt><trkpt lat="42.17123043731951" lon="19.874539339874193"><ele>176.0</ele><time>2026-05-04T12:29:11.999Z</time></trkpt><trkpt lat="42.17119950603132" lon="19.874621680777416"><ele>176.0</ele><time>2026-05-04T12:29:15.999Z</time></trkpt><trkpt lat="42.17115687192077" lon="19.874767768832406"><ele>176.0</ele><time>2026-05-04T12:29:24Z</time></trkpt><trkpt lat="42.171072604103486" lon="19.87491114325874"><ele>176.0</ele><time>2026-05-04T12:31:00Z</time></trkpt><trkpt lat="42.17101389120978" lon="19.874860950778665"><ele>176.0</ele><time>2026-05-04T12:31:06.999Z</time></trkpt><trkpt lat="42.17096802913908" lon="19.874792930831738"><ele>176.0</ele><time>2026-05-04T12:31:13.999Z</time></trkpt><trkpt lat="42.170926361199605" lon="19.874727588022296"><ele>176.0</ele><time>2026-05-04T12:31:18.999Z</time></trkpt><trkpt lat="42.17088093608945" lon="19.874631922530885"><ele>176.0</ele><time>2026-05-04T12:31:25Z</time></trkpt><trkpt lat="42.170838260315364" lon="19.87456530855046"><ele>176.0</ele><time>2026-05-04T12:31:32Z</time></trkpt><trkpt lat="42.170751997077495" lon="19.87461353378348"><ele>176.0</ele><time>2026-05-04T12:31:42Z</time></trkpt><trkpt lat="42.170666497871" lon="19.874669145090074"><ele>176.0</ele><time>2026-05-04T12:31:49Z</time></trkpt><trkpt lat="42.17057631109144" lon="19.874712279337135"><ele>175.83333333333331</ele><time>2026-05-04T12:31:55Z</time></trkpt><trkpt lat="42.17050030297165" lon="19.87473138601524"><ele>175.66666666666666</ele><time>2026-05-04T12:31:59Z</time></trkpt><trkpt lat="42.17041648363687" lon="19.87474883580689"><ele>175.5</ele><time>2026-05-04T12:32:03Z</time></trkpt><trkpt lat="42.170344120963165" lon="19.87476707551556"><ele>175.33333333333334</ele><time>2026-05-04T12:32:06Z</time></trkpt><trkpt lat="42.17026635595724" lon="19.87477790893771"><ele>175.16666666666669</ele><time>2026-05-04T12:32:09Z</time></trkpt><trkpt lat="42.170185602872444" lon="19.874785470265167"><ele>175.0</ele><time>2026-05-04T12:32:12Z</time></trkpt><trkpt lat="42.170100915681175" lon="19.87479236683856"><ele>175.0</ele><time>2026-05-04T12:32:15Z</time></trkpt><trkpt lat="42.17001362219454" lon="19.87479488039755"><ele>175.0</ele><time>2026-05-04T12:32:18Z</time></trkpt><trkpt lat="42.16992312923939" lon="19.87479639898697"><ele>175.0</ele><time>2026-05-04T12:32:21Z</time></trkpt><trkpt lat="42.1698301368657" lon="19.87479936816394"><ele>175.0</ele><time>2026-05-04T12:32:24Z</time></trkpt><trkpt lat="42.169766824503796" lon="19.874804605193525"><ele>175.0</ele><time>2026-05-04T12:32:26Z</time></trkpt><trkpt lat="42.169702614460114" lon="19.874813559255028"><ele>175.0</ele><time>2026-05-04T12:32:28Z</time></trkpt><trkpt lat="42.1696392004979" lon="19.87482538561512"><ele>175.0</ele><time>2026-05-04T12:32:30Z</time></trkpt><trkpt lat="42.16957454609304" lon="19.874839431448372"><ele>175.0</ele><time>2026-05-04T12:32:32Z</time></trkpt><trkpt lat="42.16951076822426" lon="19.87485770777469"><ele>175.0</ele><time>2026-05-04T12:32:34Z</time></trkpt><trkpt lat="42.16944596466147" lon="19.874877667712784"><ele>175.0</ele><time>2026-05-04T12:32:36Z</time></trkpt><trkpt lat="42.16938131695562" lon="19.87489970358401"><ele>175.0</ele><time>2026-05-04T12:32:38Z</time></trkpt><trkpt lat="42.16931630694696" lon="19.87492427264669"><ele>175.0</ele><time>2026-05-04T12:32:40Z</time></trkpt><trkpt lat="42.16924935193129" lon="19.874953514905123"><ele>175.0</ele><time>2026-05-04T12:32:42Z</time></trkpt><trkpt lat="42.169184654548786" lon="19.87498770787803"><ele>175.0</ele><time>2026-05-04T12:32:44Z</time></trkpt><trkpt lat="42.16912379206043" lon="19.875023549355962"><ele>175.0</ele><time>2026-05-04T12:32:46Z</time></trkpt><trkpt lat="42.169064255216654" lon="19.875063264269823"><ele>175.0</ele><time>2026-05-04T12:32:48Z</time></trkpt><trkpt lat="42.16900664098158" lon="19.875107615447835"><ele>175.0</ele><time>2026-05-04T12:32:50Z</time></trkpt><trkpt lat="42.168948936371834" lon="19.875154652090448"><ele>175.0</ele><time>2026-05-04T12:32:52Z</time></trkpt><trkpt lat="42.168890242676355" lon="19.87520346216917"><ele>175.0</ele><time>2026-05-04T12:32:54Z</time></trkpt><trkpt lat="42.1688313549226" lon="19.875257353892874"><ele>175.0</ele><time>2026-05-04T12:32:56Z</time></trkpt><trkpt lat="42.16877768643627" lon="19.875312745414973"><ele>175.0</ele><time>2026-05-04T12:32:58Z</time></trkpt><trkpt lat="42.16872410552354" lon="19.875369463844393"><ele>175.0</ele><time>2026-05-04T12:33:00Z</time></trkpt><trkpt lat="42.16866917899" lon="19.87542798637696"><ele>175.0</ele><time>2026-05-04T12:33:02Z</time></trkpt><trkpt lat="42.16861507055038" lon="19.875487528990277"><ele>175.0</ele><time>2026-05-04T12:33:04Z</time></trkpt><trkpt lat="42.168560887294284" lon="19.875548462263556"><ele>175.0</ele><time>2026-05-04T12:33:06Z</time></trkpt><trkpt lat="42.16850789774172" lon="19.8756130080986"><ele>175.0</ele><time>2026-05-04T12:33:08Z</time></trkpt><trkpt lat="42.16845656052651" lon="19.875677205849495"><ele>175.0</ele><time>2026-05-04T12:33:10Z</time></trkpt><trkpt lat="42.168404879512664" lon="19.87574463682343"><ele>175.0</ele><time>2026-05-04T12:33:12Z</time></trkpt><trkpt lat="42.168355388681505" lon="19.875812851717"><ele>175.0</ele><time>2026-05-04T12:33:14Z</time></trkpt><trkpt lat="42.16830595350834" lon="19.875882806188326"><ele>175.0</ele><time>2026-05-04T12:33:16Z</time></trkpt><trkpt lat="42.168256408389915" lon="19.875952985248713"><ele>175.0</ele><time>2026-05-04T12:33:18Z</time></trkpt><trkpt lat="42.16820907693436" lon="19.876024649304856"><ele>175.0</ele><time>2026-05-04T12:33:20Z</time></trkpt><trkpt lat="42.168161787374004" lon="19.87609725020315"><ele>175.0</ele><time>2026-05-04T12:33:22Z</time></trkpt><trkpt lat="42.16811386706731" lon="19.876171405805806"><ele>175.0</ele><time>2026-05-04T12:33:24Z</time></trkpt><trkpt lat="42.16806875005918" lon="19.87624698265445"><ele>175.0</ele><time>2026-05-04T12:33:26Z</time></trkpt><trkpt lat="42.168024265986816" lon="19.876322483525485"><ele>175.0</ele><time>2026-05-04T12:33:28Z</time></trkpt><trkpt lat="42.16798123568682" lon="19.876399419774607"><ele>175.0</ele><time>2026-05-04T12:33:30Z</time></trkpt><trkpt lat="42.167939403461965" lon="19.876477951149432"><ele>175.0</ele><time>2026-05-04T12:33:32Z</time></trkpt><trkpt lat="42.16789676823119" lon="19.87655628158002"><ele>175.0</ele><time>2026-05-04T12:33:34Z</time></trkpt><trkpt lat="42.1678541717998" lon="19.87663665927932"><ele>175.0</ele><time>2026-05-04T12:33:36Z</time></trkpt><trkpt lat="42.167810880772564" lon="19.876717419783184"><ele>175.0</ele><time>2026-05-04T12:33:38Z</time></trkpt><trkpt lat="42.16775188617656" lon="19.876832474707992"><ele>175.0</ele><time>2026-05-04T12:33:42Z</time></trkpt><trkpt lat="42.16770786799691" lon="19.876918800993142"><ele>175.0</ele><time>2026-05-04T12:33:43Z</time></trkpt><trkpt lat="42.16766694087664" lon="19.876997934146374"><ele>175.0</ele><time>2026-05-04T12:33:45Z</time></trkpt><trkpt lat="42.167625828635394" lon="19.877077613075745"><ele>175.0</ele><time>2026-05-04T12:33:47Z</time></trkpt><trkpt lat="42.16758552953942" lon="19.8771569002616"><ele>175.0</ele><time>2026-05-04T12:33:49Z</time></trkpt><trkpt lat="42.16754566245667" lon="19.877235623986508"><ele>175.0</ele><time>2026-05-04T12:33:51Z</time></trkpt><trkpt lat="42.167505796631126" lon="19.877314571260406"><ele>175.0</ele><time>2026-05-04T12:33:53Z</time></trkpt><trkpt lat="42.1674664795803" lon="19.877394239964904"><ele>175.0</ele><time>2026-05-04T12:33:55Z</time></trkpt><trkpt lat="42.16742710259359" lon="19.877474243281625"><ele>175.0</ele><time>2026-05-04T12:33:57Z</time></trkpt><trkpt lat="42.167387881572324" lon="19.877553173381212"><ele>175.0</ele><time>2026-05-04T12:33:59Z</time></trkpt><trkpt lat="42.1673492321981" lon="19.877632708125297"><ele>175.0</ele><time>2026-05-04T12:34:01Z</time></trkpt><trkpt lat="42.16731061233708" lon="19.877712931015612"><ele>175.0</ele><time>2026-05-04T12:34:03Z</time></trkpt><trkpt lat="42.16727267317737" lon="19.877794251676505"><ele>175.0</ele><time>2026-05-04T12:34:05Z</time></trkpt><trkpt lat="42.16723400737692" lon="19.877876001567728"><ele>175.0</ele><time>2026-05-04T12:34:07Z</time></trkpt><trkpt lat="42.16719627719389" lon="19.877957257186548"><ele>175.0</ele><time>2026-05-04T12:34:09Z</time></trkpt><trkpt lat="42.167158884439665" lon="19.878038688416588"><ele>175.0</ele><time>2026-05-04T12:34:11Z</time></trkpt><trkpt lat="42.167121340460675" lon="19.878119691225614"><ele>175.0</ele><time>2026-05-04T12:34:13Z</time></trkpt><trkpt lat="42.167083343005984" lon="19.87820173494544"><ele>175.0</ele><time>2026-05-04T12:34:15Z</time></trkpt><trkpt lat="42.16704642459531" lon="19.87828500309469"><ele>175.0</ele><time>2026-05-04T12:34:17Z</time></trkpt><trkpt lat="42.167009257896204" lon="19.878369746370332"><ele>175.0</ele><time>2026-05-04T12:34:19Z</time></trkpt><trkpt lat="42.16697311423907" lon="19.878453292927464"><ele>175.0</ele><time>2026-05-04T12:34:21Z</time></trkpt><trkpt lat="42.16693589844131" lon="19.878537591947904"><ele>175.0</ele><time>2026-05-04T12:34:23Z</time></trkpt><trkpt lat="42.16689984743096" lon="19.87862095887337"><ele>175.0</ele><time>2026-05-04T12:34:25Z</time></trkpt><trkpt lat="42.16686410550176" lon="19.87870372532482"><ele>175.0</ele><time>2026-05-04T12:34:27Z</time></trkpt><trkpt lat="42.16682736646073" lon="19.8787883550284"><ele>175.0</ele><time>2026-05-04T12:34:29Z</time></trkpt><trkpt lat="42.16678498387703" lon="19.87887212894435"><ele>175.0</ele><time>2026-05-04T12:34:31Z</time></trkpt><trkpt lat="42.16675208707218" lon="19.87895952492002"><ele>175.0</ele><time>2026-05-04T12:34:33Z</time></trkpt><trkpt lat="42.166717027962925" lon="19.87904113697053"><ele>175.0</ele><time>2026-05-04T12:34:35Z</time></trkpt><trkpt lat="42.16668093509139" lon="19.879123405975726"><ele>175.0</ele><time>2026-05-04T12:34:37Z</time></trkpt><trkpt lat="42.1666442668168" lon="19.879204757238785"><ele>175.0</ele><time>2026-05-04T12:34:39Z</time></trkpt><trkpt lat="42.16660580824719" lon="19.8792855550358"><ele>175.0</ele><time>2026-05-04T12:34:41Z</time></trkpt><trkpt lat="42.16656673755467" lon="19.879368388613102"><ele>175.0</ele><time>2026-05-04T12:34:43Z</time></trkpt><trkpt lat="42.16652708120544" lon="19.87944897905413"><ele>175.0</ele><time>2026-05-04T12:34:45Z</time></trkpt><trkpt lat="42.16648616921222" lon="19.879529585087585"><ele>175.0</ele><time>2026-05-04T12:34:47Z</time></trkpt><trkpt lat="42.16644470215164" lon="19.87960998072777"><ele>175.0</ele><time>2026-05-04T12:34:49Z</time></trkpt><trkpt lat="42.1664013279657" lon="19.879690125479407"><ele>175.0</ele><time>2026-05-04T12:34:51Z</time></trkpt><trkpt lat="42.16635759704752" lon="19.879770308570595"><ele>175.0</ele><time>2026-05-04T12:34:53Z</time></trkpt><trkpt lat="42.166313066008556" lon="19.879849624672094"><ele>175.0</ele><time>2026-05-04T12:34:55Z</time></trkpt><trkpt lat="42.1662686799925" lon="19.879927526306695"><ele>175.0</ele><time>2026-05-04T12:34:57Z</time></trkpt><trkpt lat="42.16622433349487" lon="19.880004117997455"><ele>175.0</ele><time>2026-05-04T12:34:59Z</time></trkpt><trkpt lat="42.16617897829861" lon="19.880081478425915"><ele>175.0</ele><time>2026-05-04T12:35:01Z</time></trkpt><trkpt lat="42.16613250473703" lon="19.88015853314711"><ele>175.0</ele><time>2026-05-04T12:35:03Z</time></trkpt><trkpt lat="42.16608580560018" lon="19.88023358527978"><ele>175.0</ele><time>2026-05-04T12:35:05Z</time></trkpt><trkpt lat="42.16603958902853" lon="19.880308540011665"><ele>175.0</ele><time>2026-05-04T12:35:07Z</time></trkpt><trkpt lat="42.16599048615715" lon="19.8803839527387"><ele>175.0</ele><time>2026-05-04T12:35:09Z</time></trkpt><trkpt lat="42.16594076278056" lon="19.880457720552965"><ele>175.0</ele><time>2026-05-04T12:35:11Z</time></trkpt><trkpt lat="42.16589048683922" lon="19.880530121381206"><ele>175.0</ele><time>2026-05-04T12:35:13Z</time></trkpt><trkpt lat="42.165840176974534" lon="19.880600968929443"><ele>175.0</ele><time>2026-05-04T12:35:15Z</time></trkpt><trkpt lat="42.16578904564903" lon="19.880670620743366"><ele>175.0</ele><time>2026-05-04T12:35:17Z</time></trkpt><trkpt lat="42.16573600618096" lon="19.880739173426782"><ele>175.0</ele><time>2026-05-04T12:35:19.001Z</time></trkpt><trkpt lat="42.16568274087759" lon="19.880806339701472"><ele>175.0</ele><time>2026-05-04T12:35:21.001Z</time></trkpt><trkpt lat="42.16562871724301" lon="19.880871244876165"><ele>175.0</ele><time>2026-05-04T12:35:23.001Z</time></trkpt><trkpt lat="42.16557366646232" lon="19.88093653070181"><ele>175.0</ele><time>2026-05-04T12:35:25.001Z</time></trkpt><trkpt lat="42.16551757784198" lon="19.881000600176588"><ele>175.0</ele><time>2026-05-04T12:35:27.001Z</time></trkpt><trkpt lat="42.16546157774741" lon="19.881062908400143"><ele>175.0</ele><time>2026-05-04T12:35:29.001Z</time></trkpt><trkpt lat="42.16540473471572" lon="19.881123536021427"><ele>175.0</ele><time>2026-05-04T12:35:31.001Z</time></trkpt><trkpt lat="42.16534698340432" lon="19.88118407480685"><ele>175.0</ele><time>2026-05-04T12:35:33.001Z</time></trkpt><trkpt lat="42.16528626228266" lon="19.88124261218304"><ele>175.0</ele><time>2026-05-04T12:35:35.001Z</time></trkpt><trkpt lat="42.16522688430619" lon="19.881301320409598"><ele>175.0</ele><time>2026-05-04T12:35:37.001Z</time></trkpt><trkpt lat="42.16516706996981" lon="19.881358805107503"><ele>175.0</ele><time>2026-05-04T12:35:39Z</time></trkpt><trkpt lat="42.165107278380205" lon="19.881414705453157"><ele>175.0</ele><time>2026-05-04T12:35:41Z</time></trkpt><trkpt lat="42.16504699087068" lon="19.881470239319082"><ele>175.0</ele><time>2026-05-04T12:35:43Z</time></trkpt><trkpt lat="42.164986528866336" lon="19.881523467154917"><ele>175.0</ele><time>2026-05-04T12:35:45Z</time></trkpt><trkpt lat="42.16492639483488" lon="19.88157663220051"><ele>175.0</ele><time>2026-05-04T12:35:47Z</time></trkpt><trkpt lat="42.16486557532559" lon="19.881630244106024"><ele>175.0</ele><time>2026-05-04T12:35:49Z</time></trkpt><trkpt lat="42.164804019561174" lon="19.881683220744005"><ele>175.0</ele><time>2026-05-04T12:35:51Z</time></trkpt><trkpt lat="42.16474271746101" lon="19.881735543321486"><ele>175.0</ele><time>2026-05-04T12:35:53Z</time></trkpt><trkpt lat="42.16467974886144" lon="19.88178660066583"><ele>175.0</ele><time>2026-05-04T12:35:55Z</time></trkpt><trkpt lat="42.16461714190771" lon="19.881837935522977"><ele>175.0</ele><time>2026-05-04T12:35:57Z</time></trkpt><trkpt lat="42.164554777751825" lon="19.881888680259678"><ele>175.0</ele><time>2026-05-04T12:35:59Z</time></trkpt><trkpt lat="42.16449165984571" lon="19.88193878295894"><ele>175.0</ele><time>2026-05-04T12:36:01Z</time></trkpt><trkpt lat="42.16442887657446" lon="19.881988654180077"><ele>175.0</ele><time>2026-05-04T12:36:03Z</time></trkpt><trkpt lat="42.16436669382239" lon="19.882038075796665"><ele>175.0</ele><time>2026-05-04T12:36:05Z</time></trkpt><trkpt lat="42.16430395926866" lon="19.88208695754574"><ele>175.0</ele><time>2026-05-04T12:36:07Z</time></trkpt><trkpt lat="42.16424186607725" lon="19.882135979080598"><ele>175.0</ele><time>2026-05-04T12:36:09Z</time></trkpt><trkpt lat="42.16417886066732" lon="19.882183374045507"><ele>175.0</ele><time>2026-05-04T12:36:11Z</time></trkpt><trkpt lat="42.16411453007206" lon="19.882230635203854"><ele>175.0</ele><time>2026-05-04T12:36:13Z</time></trkpt><trkpt lat="42.164050466736676" lon="19.882276788818196"><ele>175.0</ele><time>2026-05-04T12:36:15Z</time></trkpt><trkpt lat="42.16398637560526" lon="19.882328369311548"><ele>175.0</ele><time>2026-05-04T12:36:17Z</time></trkpt><trkpt lat="42.16392279615384" lon="19.882370563847026"><ele>175.0</ele><time>2026-05-04T12:36:19Z</time></trkpt><trkpt lat="42.16385988095557" lon="19.882413200480524"><ele>175.0</ele><time>2026-05-04T12:36:21Z</time></trkpt><trkpt lat="42.16379756179574" lon="19.882457619753563"><ele>175.0</ele><time>2026-05-04T12:36:23Z</time></trkpt><trkpt lat="42.163731758168275" lon="19.88249989897703"><ele>175.0</ele><time>2026-05-04T12:36:25Z</time></trkpt><trkpt lat="42.16366780203432" lon="19.88254334048476"><ele>175.0</ele><time>2026-05-04T12:36:27Z</time></trkpt><trkpt lat="42.16360320181556" lon="19.882584998830627"><ele>175.0</ele><time>2026-05-04T12:36:29Z</time></trkpt><trkpt lat="42.16353809190271" lon="19.88262691929533"><ele>175.0</ele><time>2026-05-04T12:36:31Z</time></trkpt><trkpt lat="42.16347309977897" lon="19.88266783881493"><ele>175.0</ele><time>2026-05-04T12:36:33Z</time></trkpt><trkpt lat="42.16340820713555" lon="19.88270924951058"><ele>175.0</ele><time>2026-05-04T12:36:35Z</time></trkpt><trkpt lat="42.16334084284332" lon="19.882750655388964"><ele>175.0</ele><time>2026-05-04T12:36:37Z</time></trkpt><trkpt lat="42.16327522044717" lon="19.882789141703302"><ele>175.0</ele><time>2026-05-04T12:36:39Z</time></trkpt><trkpt lat="42.16320886412699" lon="19.8828270069069"><ele>175.0</ele><time>2026-05-04T12:36:41Z</time></trkpt><trkpt lat="42.16314171961104" lon="19.88286483272246"><ele>175.0</ele><time>2026-05-04T12:36:43Z</time></trkpt><trkpt lat="42.1630734773325" lon="19.882901305430924"><ele>175.0</ele><time>2026-05-04T12:36:45Z</time></trkpt><trkpt lat="42.1630051574318" lon="19.882934978969306"><ele>175.0</ele><time>2026-05-04T12:36:47Z</time></trkpt><trkpt lat="42.162936798970385" lon="19.882967411187963"><ele>175.0</ele><time>2026-05-04T12:36:49Z</time></trkpt><trkpt lat="42.16286748025011" lon="19.882998060867667"><ele>175.0</ele><time>2026-05-04T12:36:51Z</time></trkpt><trkpt lat="42.162799158462356" lon="19.883029873763217"><ele>175.0</ele><time>2026-05-04T12:36:53Z</time></trkpt><trkpt lat="42.16272889471162" lon="19.883059141617576"><ele>175.0</ele><time>2026-05-04T12:36:55Z</time></trkpt><trkpt lat="42.162660574556874" lon="19.883088281406078"><ele>175.0</ele><time>2026-05-04T12:36:57Z</time></trkpt><trkpt lat="42.1625913246093" lon="19.883115560812975"><ele>175.0</ele><time>2026-05-04T12:36:59Z</time></trkpt><trkpt lat="42.16252280440257" lon="19.88314195628851"><ele>175.0</ele><time>2026-05-04T12:37:01Z</time></trkpt><trkpt lat="42.162453771719186" lon="19.88316973784348"><ele>175.0</ele><time>2026-05-04T12:37:03Z</time></trkpt><trkpt lat="42.16238339586951" lon="19.88319235895441"><ele>175.0</ele><time>2026-05-04T12:37:05Z</time></trkpt><trkpt lat="42.16231255512777" lon="19.88321478526352"><ele>175.0</ele><time>2026-05-04T12:37:07Z</time></trkpt><trkpt lat="42.16224196233191" lon="19.88323610572119"><ele>175.0</ele><time>2026-05-04T12:37:09Z</time></trkpt><trkpt lat="42.16217166552913" lon="19.883255869100612"><ele>175.0</ele><time>2026-05-04T12:37:11Z</time></trkpt><trkpt lat="42.162100482444366" lon="19.88327338467166"><ele>175.0</ele><time>2026-05-04T12:37:13Z</time></trkpt><trkpt lat="42.162027383196694" lon="19.883291809021355"><ele>175.0</ele><time>2026-05-04T12:37:15Z</time></trkpt><trkpt lat="42.16195518753829" lon="19.883304743345846"><ele>175.0</ele><time>2026-05-04T12:37:17Z</time></trkpt><trkpt lat="42.16188276742839" lon="19.88331910430246"><ele>175.0</ele><time>2026-05-04T12:37:19Z</time></trkpt><trkpt lat="42.16181080764562" lon="19.883332245816433"><ele>175.0</ele><time>2026-05-04T12:37:21Z</time></trkpt><trkpt lat="42.16173808942207" lon="19.88334307123182"><ele>175.0</ele><time>2026-05-04T12:37:23Z</time></trkpt><trkpt lat="42.16166591743499" lon="19.883353829249838"><ele>175.0</ele><time>2026-05-04T12:37:25.001Z</time></trkpt><trkpt lat="42.16159346141895" lon="19.883363286355937"><ele>175.0</ele><time>2026-05-04T12:37:27.001Z</time></trkpt><trkpt lat="42.16152137524655" lon="19.883373364113993"><ele>175.0</ele><time>2026-05-04T12:37:29.001Z</time></trkpt><trkpt lat="42.16144768361289" lon="19.883376081006634"><ele>175.0</ele><time>2026-05-04T12:37:31.001Z</time></trkpt><trkpt lat="42.161376302271144" lon="19.883385354845846"><ele>175.0</ele><time>2026-05-04T12:37:33.001Z</time></trkpt><trkpt lat="42.16130293805132" lon="19.88339092230443"><ele>175.0</ele><time>2026-05-04T12:37:35.001Z</time></trkpt><trkpt lat="42.161230830030675" lon="19.883395052507534"><ele>175.0</ele><time>2026-05-04T12:37:37.001Z</time></trkpt><trkpt lat="42.161157096557616" lon="19.883397412977533"><ele>175.0</ele><time>2026-05-04T12:37:39.001Z</time></trkpt><trkpt lat="42.161085290280425" lon="19.883399292202668"><ele>175.0</ele><time>2026-05-04T12:37:41.001Z</time></trkpt><trkpt lat="42.16101264939382" lon="19.88339915453255"><ele>175.0</ele><time>2026-05-04T12:37:43.001Z</time></trkpt><trkpt lat="42.16093904900861" lon="19.883398115746804"><ele>175.0</ele><time>2026-05-04T12:37:45.001Z</time></trkpt><trkpt lat="42.160866881937146" lon="19.88339622523846"><ele>175.0</ele><time>2026-05-04T12:37:47.001Z</time></trkpt><trkpt lat="42.160794502670605" lon="19.883390266125605"><ele>175.0</ele><time>2026-05-04T12:37:49.001Z</time></trkpt><trkpt lat="42.16072220659117" lon="19.883389126108693"><ele>175.0</ele><time>2026-05-04T12:37:51.001Z</time></trkpt><trkpt lat="42.16065072509491" lon="19.88338603079107"><ele>175.0</ele><time>2026-05-04T12:37:53.001Z</time></trkpt><trkpt lat="42.160577626345784" lon="19.883379639106906"><ele>175.0</ele><time>2026-05-04T12:37:55.001Z</time></trkpt><trkpt lat="42.160507351149356" lon="19.883375666100708"><ele>175.0</ele><time>2026-05-04T12:37:57.001Z</time></trkpt><trkpt lat="42.16043564467377" lon="19.883373137133777"><ele>175.0</ele><time>2026-05-04T12:37:59.001Z</time></trkpt><trkpt lat="42.16036412728663" lon="19.883370998502798"><ele>175.0</ele><time>2026-05-04T12:38:01.001Z</time></trkpt><trkpt lat="42.16029183310675" lon="19.883367736534577"><ele>175.0</ele><time>2026-05-04T12:38:03.001Z</time></trkpt><trkpt lat="42.16021867166642" lon="19.88336638170068"><ele>175.0</ele><time>2026-05-04T12:38:05.001Z</time></trkpt><trkpt lat="42.16015050827719" lon="19.88336408754452"><ele>175.0</ele><time>2026-05-04T12:38:07Z</time></trkpt><trkpt lat="42.160081125922" lon="19.883359954793214"><ele>175.0</ele><time>2026-05-04T12:38:09Z</time></trkpt><trkpt lat="42.160009166119636" lon="19.883359831111267"><ele>175.0</ele><time>2026-05-04T12:38:11Z</time></trkpt><trkpt lat="42.15993910272612" lon="19.88335777437948"><ele>175.0</ele><time>2026-05-04T12:38:13Z</time></trkpt><trkpt lat="42.15986839723342" lon="19.8833502858738"><ele>175.0</ele><time>2026-05-04T12:38:15Z</time></trkpt><trkpt lat="42.159797274384275" lon="19.883347825246155"><ele>175.0</ele><time>2026-05-04T12:38:17Z</time></trkpt><trkpt lat="42.159726632364595" lon="19.883342184648527"><ele>175.0</ele><time>2026-05-04T12:38:19Z</time></trkpt><trkpt lat="42.1596535561254" lon="19.883338773064004"><ele>175.0</ele><time>2026-05-04T12:38:21Z</time></trkpt><trkpt lat="42.15958313389795" lon="19.883332536880562"><ele>175.0</ele><time>2026-05-04T12:38:23Z</time></trkpt><trkpt lat="42.15951256522341" lon="19.883329579480385"><ele>175.0</ele><time>2026-05-04T12:38:25Z</time></trkpt><trkpt lat="42.1594444529837" lon="19.88332328050961"><ele>175.0</ele><time>2026-05-04T12:38:27Z</time></trkpt><trkpt lat="42.159372509438526" lon="19.883317326271438"><ele>175.0</ele><time>2026-05-04T12:38:29Z</time></trkpt><trkpt lat="42.15929717140868" lon="19.883310482558535"><ele>175.0</ele><time>2026-05-04T12:38:31Z</time></trkpt><trkpt lat="42.15922737090512" lon="19.883304433706268"><ele>175.0</ele><time>2026-05-04T12:38:33Z</time></trkpt><trkpt lat="42.15915579863506" lon="19.88329756378514"><ele>175.0</ele><time>2026-05-04T12:38:35Z</time></trkpt><trkpt lat="42.15908547955513" lon="19.88329087924874"><ele>175.0</ele><time>2026-05-04T12:38:37Z</time></trkpt><trkpt lat="42.15901520515822" lon="19.883283339992282"><ele>175.0</ele><time>2026-05-04T12:38:39Z</time></trkpt><trkpt lat="42.15894338083399" lon="19.883276416461534"><ele>175.0</ele><time>2026-05-04T12:38:41Z</time></trkpt><trkpt lat="42.158872358668084" lon="19.883269532489727"><ele>175.0</ele><time>2026-05-04T12:38:43Z</time></trkpt><trkpt lat="42.15879909418778" lon="19.883261847062247"><ele>175.0</ele><time>2026-05-04T12:38:45Z</time></trkpt><trkpt lat="42.15872947400197" lon="19.88325396083824"><ele>175.0</ele><time>2026-05-04T12:38:47Z</time></trkpt><trkpt lat="42.15865666272388" lon="19.883243899040163"><ele>175.0</ele><time>2026-05-04T12:38:49Z</time></trkpt><trkpt lat="42.158587192808056" lon="19.883237028468994"><ele>175.0</ele><time>2026-05-04T12:38:51Z</time></trkpt><trkpt lat="42.158516262815674" lon="19.883228686679836"><ele>175.0</ele><time>2026-05-04T12:38:53Z</time></trkpt><trkpt lat="42.15844538719654" lon="19.883220164536226"><ele>175.0</ele><time>2026-05-04T12:38:55Z</time></trkpt><trkpt lat="42.15837393213284" lon="19.883213225310403"><ele>175.0</ele><time>2026-05-04T12:38:57Z</time></trkpt><trkpt lat="42.15830242868552" lon="19.883205810213536"><ele>175.0</ele><time>2026-05-04T12:38:59Z</time></trkpt><trkpt lat="42.15823056004641" lon="19.88320186449457"><ele>175.0</ele><time>2026-05-04T12:39:01Z</time></trkpt><trkpt lat="42.15816075714243" lon="19.88319170093979"><ele>175.0</ele><time>2026-05-04T12:39:03Z</time></trkpt><trkpt lat="42.15808765256306" lon="19.883183373842133"><ele>175.0</ele><time>2026-05-04T12:39:05Z</time></trkpt><trkpt lat="42.15801763570877" lon="19.8831751581695"><ele>175.0</ele><time>2026-05-04T12:39:07Z</time></trkpt><trkpt lat="42.157948738636414" lon="19.883168146969357"><ele>175.0</ele><time>2026-05-04T12:39:09Z</time></trkpt><trkpt lat="42.15787470337902" lon="19.88316110563339"><ele>175.0</ele><time>2026-05-04T12:39:11Z</time></trkpt><trkpt lat="42.15780149301895" lon="19.883151074239986"><ele>175.0</ele><time>2026-05-04T12:39:13Z</time></trkpt><trkpt lat="42.15772872414178" lon="19.88314275553277"><ele>175.0</ele><time>2026-05-04T12:39:15Z</time></trkpt><trkpt lat="42.15765493523357" lon="19.883136358223272"><ele>175.0</ele><time>2026-05-04T12:39:17Z</time></trkpt><trkpt lat="42.15758245956148" lon="19.883128396223103"><ele>175.0</ele><time>2026-05-04T12:39:19Z</time></trkpt><trkpt lat="42.15750939955722" lon="19.883120904630054"><ele>175.0</ele><time>2026-05-04T12:39:21Z</time></trkpt><trkpt lat="42.15743679061365" lon="19.88311402661317"><ele>175.0</ele><time>2026-05-04T12:39:23Z</time></trkpt><trkpt lat="42.15736434813079" lon="19.8831085519674"><ele>175.0</ele><time>2026-05-04T12:39:25Z</time></trkpt><trkpt lat="42.15729225990974" lon="19.883102717201837"><ele>175.0</ele><time>2026-05-04T12:39:27Z</time></trkpt><trkpt lat="42.15721961346846" lon="19.88309759277432"><ele>175.0</ele><time>2026-05-04T12:39:29Z</time></trkpt><trkpt lat="42.15714572172386" lon="19.883092698975663"><ele>175.0</ele><time>2026-05-04T12:39:31Z</time></trkpt><trkpt lat="42.157071462047966" lon="19.883088508432476"><ele>175.0</ele><time>2026-05-04T12:39:33Z</time></trkpt><trkpt lat="42.15699796926844" lon="19.883084063481068"><ele>175.0</ele><time>2026-05-04T12:39:35Z</time></trkpt><trkpt lat="42.156924517772374" lon="19.883079373201237"><ele>175.0</ele><time>2026-05-04T12:39:37Z</time></trkpt><trkpt lat="42.156851230398836" lon="19.88307575006934"><ele>175.0</ele><time>2026-05-04T12:39:39Z</time></trkpt><trkpt lat="42.15677800444365" lon="19.88307150604693"><ele>175.0</ele><time>2026-05-04T12:39:41Z</time></trkpt><trkpt lat="42.15670580279649" lon="19.88306749402762"><ele>175.0</ele><time>2026-05-04T12:39:43Z</time></trkpt><trkpt lat="42.15663395182594" lon="19.88306364114955"><ele>175.0</ele><time>2026-05-04T12:39:45Z</time></trkpt><trkpt lat="42.156560807547685" lon="19.88305967788021"><ele>175.0</ele><time>2026-05-04T12:39:47Z</time></trkpt><trkpt lat="42.15648785386509" lon="19.883055595027635"><ele>175.0</ele><time>2026-05-04T12:39:49Z</time></trkpt><trkpt lat="42.15641519493876" lon="19.883050551804285"><ele>175.0</ele><time>2026-05-04T12:39:50.999Z</time></trkpt><trkpt lat="42.15634255046282" lon="19.883045746928094"><ele>175.0</ele><time>2026-05-04T12:39:52.999Z</time></trkpt><trkpt lat="42.156269838923166" lon="19.883040944140713"><ele>175.0</ele><time>2026-05-04T12:39:54.999Z</time></trkpt><trkpt lat="42.15619799963325" lon="19.883036092045675"><ele>175.0</ele><time>2026-05-04T12:39:56.999Z</time></trkpt><trkpt lat="42.156125575044946" lon="19.883030366180943"><ele>175.0</ele><time>2026-05-04T12:39:58.999Z</time></trkpt><trkpt lat="42.15605285369704" lon="19.883023386006183"><ele>175.0</ele><time>2026-05-04T12:40:00.999Z</time></trkpt><trkpt lat="42.15597974172881" lon="19.88301603117548"><ele>175.0</ele><time>2026-05-04T12:40:02.999Z</time></trkpt><trkpt lat="42.155906563752964" lon="19.88300806332187"><ele>175.0</ele><time>2026-05-04T12:40:04.999Z</time></trkpt><trkpt lat="42.155832424813994" lon="19.882999139892775"><ele>175.0</ele><time>2026-05-04T12:40:06.999Z</time></trkpt><trkpt lat="42.15575946292947" lon="19.882992098030858"><ele>175.0</ele><time>2026-05-04T12:40:08.999Z</time></trkpt><trkpt lat="42.155686051021846" lon="19.88298371081353"><ele>175.0</ele><time>2026-05-04T12:40:10.999Z</time></trkpt><trkpt lat="42.15561239314502" lon="19.882974874127918"><ele>175.0</ele><time>2026-05-04T12:40:12.999Z</time></trkpt><trkpt lat="42.155538173443034" lon="19.882963730265654"><ele>175.0</ele><time>2026-05-04T12:40:14.999Z</time></trkpt><trkpt lat="42.15546582667306" lon="19.88295382109471"><ele>175.0</ele><time>2026-05-04T12:40:16.999Z</time></trkpt><trkpt lat="42.15539240679381" lon="19.882943761341544"><ele>175.0</ele><time>2026-05-04T12:40:18.999Z</time></trkpt><trkpt lat="42.155320254811514" lon="19.882931320804122"><ele>175.0</ele><time>2026-05-04T12:40:20.999Z</time></trkpt><trkpt lat="42.15524841994226" lon="19.88291862989706"><ele>175.0</ele><time>2026-05-04T12:40:22.999Z</time></trkpt><trkpt lat="42.155175214556266" lon="19.882907163129154"><ele>175.0</ele><time>2026-05-04T12:40:24.999Z</time></trkpt><trkpt lat="42.15510274492082" lon="19.882896011933216"><ele>175.0</ele><time>2026-05-04T12:40:26.999Z</time></trkpt><trkpt lat="42.15502985900453" lon="19.882885296435642"><ele>175.0</ele><time>2026-05-04T12:40:28.999Z</time></trkpt><trkpt lat="42.154957000332345" lon="19.882872996334452"><ele>175.0</ele><time>2026-05-04T12:40:30.999Z</time></trkpt><trkpt lat="42.15488429509788" lon="19.882862668004886"><ele>175.0</ele><time>2026-05-04T12:40:32.999Z</time></trkpt><trkpt lat="42.15481136464267" lon="19.882853622545348"><ele>175.0</ele><time>2026-05-04T12:40:34.999Z</time></trkpt><trkpt lat="42.15473783193077" lon="19.882843215475454"><ele>175.0</ele><time>2026-05-04T12:40:36.999Z</time></trkpt><trkpt lat="42.15466476137892" lon="19.882833511086755"><ele>175.0</ele><time>2026-05-04T12:40:38.999Z</time></trkpt><trkpt lat="42.15459158538896" lon="19.882823181911814"><ele>175.0</ele><time>2026-05-04T12:40:40.999Z</time></trkpt><trkpt lat="42.154517606562784" lon="19.88281640347384"><ele>175.0</ele><time>2026-05-04T12:40:42.999Z</time></trkpt><trkpt lat="42.15444385660979" lon="19.882807728005332"><ele>175.0</ele><time>2026-05-04T12:40:44.999Z</time></trkpt><trkpt lat="42.154369719671834" lon="19.882802086058824"><ele>175.0</ele><time>2026-05-04T12:40:46.999Z</time></trkpt><trkpt lat="42.154295914719036" lon="19.882796501313134"><ele>175.0</ele><time>2026-05-04T12:40:48.999Z</time></trkpt><trkpt lat="42.154222450969016" lon="19.88279032558315"><ele>175.0</ele><time>2026-05-04T12:40:50.999Z</time></trkpt><trkpt lat="42.15415021627421" lon="19.88278429662628"><ele>175.0</ele><time>2026-05-04T12:40:52.999Z</time></trkpt><trkpt lat="42.15407728905925" lon="19.88277764442481"><ele>175.0</ele><time>2026-05-04T12:40:54.999Z</time></trkpt><trkpt lat="42.15400410072385" lon="19.882774443250913"><ele>175.0</ele><time>2026-05-04T12:40:56.999Z</time></trkpt><trkpt lat="42.153931681563954" lon="19.882769499220156"><ele>175.0</ele><time>2026-05-04T12:40:58.999Z</time></trkpt><trkpt lat="42.15385761733661" lon="19.882767170767618"><ele>175.0</ele><time>2026-05-04T12:41:00.999Z</time></trkpt><trkpt lat="42.153783596767646" lon="19.882762010822198"><ele>175.0</ele><time>2026-05-04T12:41:02.999Z</time></trkpt><trkpt lat="42.153711324137745" lon="19.882757052051176"><ele>175.0</ele><time>2026-05-04T12:41:04.999Z</time></trkpt><trkpt lat="42.153638963581265" lon="19.882754753428856"><ele>175.0</ele><time>2026-05-04T12:41:06.999Z</time></trkpt><trkpt lat="42.15356641700165" lon="19.882751452243397"><ele>175.0</ele><time>2026-05-04T12:41:08.999Z</time></trkpt><trkpt lat="42.15349432804033" lon="19.882747207828803"><ele>175.0</ele><time>2026-05-04T12:41:10.999Z</time></trkpt><trkpt lat="42.153422239857186" lon="19.882743881392805"><ele>175.0</ele><time>2026-05-04T12:41:12.999Z</time></trkpt><trkpt lat="42.15334999837786" lon="19.882740245712032"><ele>175.0</ele><time>2026-05-04T12:41:14.999Z</time></trkpt><trkpt lat="42.15327738617459" lon="19.8827355619843"><ele>175.0</ele><time>2026-05-04T12:41:16.999Z</time></trkpt><trkpt lat="42.153205404985556" lon="19.882731229516462"><ele>175.0</ele><time>2026-05-04T12:41:18.999Z</time></trkpt><trkpt lat="42.153133485057786" lon="19.88273024131211"><ele>175.0</ele><time>2026-05-04T12:41:20.999Z</time></trkpt><trkpt lat="42.15306086500579" lon="19.882728222392764"><ele>175.0</ele><time>2026-05-04T12:41:22.999Z</time></trkpt><trkpt lat="42.152987765829515" lon="19.88272626312207"><ele>175.0</ele><time>2026-05-04T12:41:24.999Z</time></trkpt><trkpt lat="42.15291447181653" lon="19.88272437257606"><ele>175.0</ele><time>2026-05-04T12:41:26.999Z</time></trkpt><trkpt lat="42.152840338939995" lon="19.882723169855915"><ele>175.0</ele><time>2026-05-04T12:41:28.999Z</time></trkpt><trkpt lat="42.15276671550183" lon="19.88272164918799"><ele>175.0</ele><time>2026-05-04T12:41:30.999Z</time></trkpt><trkpt lat="42.15269318045483" lon="19.88272045460045"><ele>175.0</ele><time>2026-05-04T12:41:32.999Z</time></trkpt><trkpt lat="42.15261976361387" lon="19.882717425978"><ele>175.0</ele><time>2026-05-04T12:41:34.999Z</time></trkpt><trkpt lat="42.15254563738374" lon="19.882712833773457"><ele>175.0</ele><time>2026-05-04T12:41:36.999Z</time></trkpt><trkpt lat="42.15247173151976" lon="19.882709817954385"><ele>175.0</ele><time>2026-05-04T12:41:38.999Z</time></trkpt><trkpt lat="42.15239792092701" lon="19.882708027433566"><ele>175.0</ele><time>2026-05-04T12:41:41Z</time></trkpt><trkpt lat="42.152324285725726" lon="19.88270311710989"><ele>175.0</ele><time>2026-05-04T12:41:43Z</time></trkpt><trkpt lat="42.15225155407193" lon="19.88269989092764"><ele>175.0</ele><time>2026-05-04T12:41:45Z</time></trkpt><trkpt lat="42.15217613467252" lon="19.88269440692855"><ele>175.0</ele><time>2026-05-04T12:41:47Z</time></trkpt><trkpt lat="42.152101838198945" lon="19.88268421296372"><ele>175.0</ele><time>2026-05-04T12:41:49Z</time></trkpt><trkpt lat="42.152027108387905" lon="19.882677046528542"><ele>175.0</ele><time>2026-05-04T12:41:51Z</time></trkpt><trkpt lat="42.151952117830284" lon="19.882668158791443"><ele>175.0</ele><time>2026-05-04T12:41:53Z</time></trkpt><trkpt lat="42.15187834320443" lon="19.88265973055187"><ele>175.0</ele><time>2026-05-04T12:41:55Z</time></trkpt><trkpt lat="42.15180430120589" lon="19.882650429909415"><ele>175.0</ele><time>2026-05-04T12:41:57Z</time></trkpt><trkpt lat="42.151729561153964" lon="19.88264004363503"><ele>175.0</ele><time>2026-05-04T12:41:59Z</time></trkpt><trkpt lat="42.15165532845791" lon="19.882629898339594"><ele>175.0</ele><time>2026-05-04T12:42:01Z</time></trkpt><trkpt lat="42.15158094044051" lon="19.88261775201155"><ele>175.0</ele><time>2026-05-04T12:42:03Z</time></trkpt><trkpt lat="42.151506224855495" lon="19.882604302762413"><ele>175.0</ele><time>2026-05-04T12:42:05Z</time></trkpt><trkpt lat="42.15143399896274" lon="19.882590384438323"><ele>175.0</ele><time>2026-05-04T12:42:07Z</time></trkpt><trkpt lat="42.151361172729764" lon="19.882577249248033"><ele>175.0</ele><time>2026-05-04T12:42:09Z</time></trkpt><trkpt lat="42.15128992456674" lon="19.88256302277623"><ele>175.0</ele><time>2026-05-04T12:42:11Z</time></trkpt><trkpt lat="42.151218290645495" lon="19.88254857594095"><ele>175.0</ele><time>2026-05-04T12:42:13Z</time></trkpt><trkpt lat="42.15114440723911" lon="19.88253145430215"><ele>175.0</ele><time>2026-05-04T12:42:15Z</time></trkpt><trkpt lat="42.15107133125411" lon="19.882517744078587"><ele>175.0</ele><time>2026-05-04T12:42:17Z</time></trkpt><trkpt lat="42.150998716075684" lon="19.882502838883877"><ele>175.0</ele><time>2026-05-04T12:42:19Z</time></trkpt><trkpt lat="42.1509278884414" lon="19.882490287046434"><ele>175.0</ele><time>2026-05-04T12:42:21Z</time></trkpt><trkpt lat="42.15085403774997" lon="19.882475198384377"><ele>175.0</ele><time>2026-05-04T12:42:23Z</time></trkpt><trkpt lat="42.15078270194448" lon="19.88246137763038"><ele>175.0</ele><time>2026-05-04T12:42:25Z</time></trkpt><trkpt lat="42.150710789614216" lon="19.882447411585666"><ele>175.0</ele><time>2026-05-04T12:42:27Z</time></trkpt><trkpt lat="42.150638091967856" lon="19.882432952919046"><ele>175.0</ele><time>2026-05-04T12:42:29Z</time></trkpt><trkpt lat="42.15056541872784" lon="19.882419184597673"><ele>175.0</ele><time>2026-05-04T12:42:31Z</time></trkpt><trkpt lat="42.15049363062504" lon="19.88240726002822"><ele>175.0</ele><time>2026-05-04T12:42:33Z</time></trkpt><trkpt lat="42.15042148429265" lon="19.882397356505358"><ele>175.0</ele><time>2026-05-04T12:42:35Z</time></trkpt><trkpt lat="42.15034880362683" lon="19.8823861026203"><ele>175.0</ele><time>2026-05-04T12:42:37Z</time></trkpt><trkpt lat="42.15027483422059" lon="19.88237448393082"><ele>175.0</ele><time>2026-05-04T12:42:39Z</time></trkpt><trkpt lat="42.150202177401034" lon="19.882364814810494"><ele>175.0</ele><time>2026-05-04T12:42:41Z</time></trkpt><trkpt lat="42.15013039955839" lon="19.88235641155012"><ele>175.0</ele><time>2026-05-04T12:42:43Z</time></trkpt><trkpt lat="42.15006029228367" lon="19.882350048009375"><ele>175.0</ele><time>2026-05-04T12:42:45Z</time></trkpt><trkpt lat="42.149987585205515" lon="19.88234106244788"><ele>175.0</ele><time>2026-05-04T12:42:47Z</time></trkpt><trkpt lat="42.14991503535879" lon="19.882333779626304"><ele>175.0</ele><time>2026-05-04T12:42:49Z</time></trkpt><trkpt lat="42.149840680563855" lon="19.882326933322144"><ele>175.0</ele><time>2026-05-04T12:42:51Z</time></trkpt><trkpt lat="42.149766781460436" lon="19.882319175085826"><ele>175.0</ele><time>2026-05-04T12:42:53Z</time></trkpt><trkpt lat="42.14969275858868" lon="19.882314284302787"><ele>175.0</ele><time>2026-05-04T12:42:55Z</time></trkpt><trkpt lat="42.14962000267683" lon="19.882309460282443"><ele>175.0</ele><time>2026-05-04T12:42:57Z</time></trkpt><trkpt lat="42.1495480546254" lon="19.882305731645708"><ele>175.0</ele><time>2026-05-04T12:42:59Z</time></trkpt><trkpt lat="42.149475944885204" lon="19.882303043017544"><ele>175.0</ele><time>2026-05-04T12:43:01Z</time></trkpt><trkpt lat="42.14940283201576" lon="19.88230180507497"><ele>175.0</ele><time>2026-05-04T12:43:03Z</time></trkpt><trkpt lat="42.14932878699182" lon="19.88230193062307"><ele>175.0</ele><time>2026-05-04T12:43:05Z</time></trkpt><trkpt lat="42.14925551470701" lon="19.882301945674993"><ele>175.0</ele><time>2026-05-04T12:43:07Z</time></trkpt><trkpt lat="42.149182868480594" lon="19.88229988290833"><ele>175.0</ele><time>2026-05-04T12:43:09Z</time></trkpt><trkpt lat="42.14910990994172" lon="19.88230047701828"><ele>175.0</ele><time>2026-05-04T12:43:11Z</time></trkpt><trkpt lat="42.149036146605894" lon="19.882300843864417"><ele>175.0</ele><time>2026-05-04T12:43:13Z</time></trkpt><trkpt lat="42.14896377126522" lon="19.88230273146144"><ele>175.0</ele><time>2026-05-04T12:43:15Z</time></trkpt><trkpt lat="42.148890864626175" lon="19.882303750577424"><ele>175.0</ele><time>2026-05-04T12:43:17Z</time></trkpt><trkpt lat="42.14881872542424" lon="19.882304975797087"><ele>175.0</ele><time>2026-05-04T12:43:19Z</time></trkpt><trkpt lat="42.14871198199761" lon="19.88230775545517"><ele>175.0</ele><time>2026-05-04T12:43:22Z</time></trkpt><trkpt lat="42.14864103105322" lon="19.88230943120143"><ele>175.0</ele><time>2026-05-04T12:43:24Z</time></trkpt><trkpt lat="42.148562669177835" lon="19.882312727173357"><ele>175.0</ele><time>2026-05-04T12:43:26Z</time></trkpt><trkpt lat="42.14849066306312" lon="19.88231537462235"><ele>175.0</ele><time>2026-05-04T12:43:28Z</time></trkpt><trkpt lat="42.14841835065742" lon="19.882317818931693"><ele>175.0</ele><time>2026-05-04T12:43:30Z</time></trkpt><trkpt lat="42.14834515609439" lon="19.882321391428174"><ele>175.0</ele><time>2026-05-04T12:43:32Z</time></trkpt><trkpt lat="42.148270999805284" lon="19.88232541945504"><ele>175.0</ele><time>2026-05-04T12:43:34Z</time></trkpt><trkpt lat="42.148198292079954" lon="19.88233058261655"><ele>175.0</ele><time>2026-05-04T12:43:36Z</time></trkpt><trkpt lat="42.1481248419624" lon="19.88233516454643"><ele>175.0</ele><time>2026-05-04T12:43:38Z</time></trkpt><trkpt lat="42.148052280980636" lon="19.88234059794019"><ele>175.0</ele><time>2026-05-04T12:43:40Z</time></trkpt><trkpt lat="42.14797934683924" lon="19.882345352612393"><ele>175.0</ele><time>2026-05-04T12:43:42Z</time></trkpt><trkpt lat="42.14790676897999" lon="19.882351943529194"><ele>175.0</ele><time>2026-05-04T12:43:44Z</time></trkpt><trkpt lat="42.14783402540645" lon="19.882358179322665"><ele>175.0</ele><time>2026-05-04T12:43:46Z</time></trkpt><trkpt lat="42.14776123362446" lon="19.882363399802987"><ele>175.0</ele><time>2026-05-04T12:43:48Z</time></trkpt><trkpt lat="42.14768837481928" lon="19.882369744549997"><ele>175.0</ele><time>2026-05-04T12:43:50Z</time></trkpt><trkpt lat="42.147615031554835" lon="19.88237610341446"><ele>175.0</ele><time>2026-05-04T12:43:52Z</time></trkpt><trkpt lat="42.147534882456064" lon="19.8823833720785"><ele>175.0</ele><time>2026-05-04T12:43:54Z</time></trkpt><trkpt lat="42.14745878698903" lon="19.882387983613633"><ele>175.0</ele><time>2026-05-04T12:43:56Z</time></trkpt><trkpt lat="42.147388003665675" lon="19.882395807451616"><ele>175.0</ele><time>2026-05-04T12:43:58Z</time></trkpt><trkpt lat="42.147314945782426" lon="19.882401266365758"><ele>175.0</ele><time>2026-05-04T12:44:00Z</time></trkpt><trkpt lat="42.14723723559276" lon="19.88240430076343"><ele>175.0</ele><time>2026-05-04T12:44:02Z</time></trkpt><trkpt lat="42.147162996423866" lon="19.88241381976905"><ele>175.0</ele><time>2026-05-04T12:44:04Z</time></trkpt><trkpt lat="42.14709026983503" lon="19.882423776179564"><ele>175.0</ele><time>2026-05-04T12:44:06Z</time></trkpt><trkpt lat="42.14701667912413" lon="19.88243058205683"><ele>175.0</ele><time>2026-05-04T12:44:08Z</time></trkpt><trkpt lat="42.146943534794005" lon="19.882437575410364"><ele>175.0</ele><time>2026-05-04T12:44:10Z</time></trkpt><trkpt lat="42.14687042691512" lon="19.882445153262612"><ele>175.0</ele><time>2026-05-04T12:44:12Z</time></trkpt><trkpt lat="42.146797729512954" lon="19.882452367113228"><ele>175.0</ele><time>2026-05-04T12:44:14Z</time></trkpt><trkpt lat="42.146724811281" lon="19.882458537786576"><ele>175.0</ele><time>2026-05-04T12:44:16Z</time></trkpt><trkpt lat="42.146652604560664" lon="19.8824649193144"><ele>175.0</ele><time>2026-05-04T12:44:18Z</time></trkpt><trkpt lat="42.14657831864506" lon="19.882470903970148"><ele>175.0</ele><time>2026-05-04T12:44:20Z</time></trkpt><trkpt lat="42.146505132043025" lon="19.88247770565715"><ele>175.0</ele><time>2026-05-04T12:44:22Z</time></trkpt><trkpt lat="42.146432564094326" lon="19.88248452849337"><ele>175.0</ele><time>2026-05-04T12:44:24Z</time></trkpt><trkpt lat="42.14635920279942" lon="19.882490777531956"><ele>175.0</ele><time>2026-05-04T12:44:26Z</time></trkpt><trkpt lat="42.14628577797283" lon="19.88249756693947"><ele>175.0</ele><time>2026-05-04T12:44:28Z</time></trkpt><trkpt lat="42.14621285535671" lon="19.88250453104326"><ele>175.0</ele><time>2026-05-04T12:44:30Z</time></trkpt><trkpt lat="42.146138726218425" lon="19.882511388571405"><ele>175.0</ele><time>2026-05-04T12:44:32Z</time></trkpt><trkpt lat="42.14606662368055" lon="19.8825177390212"><ele>175.0</ele><time>2026-05-04T12:44:34Z</time></trkpt><trkpt lat="42.14599386608656" lon="19.88252275222089"><ele>175.0</ele><time>2026-05-04T12:44:36Z</time></trkpt><trkpt lat="42.14592094300097" lon="19.8825286927013"><ele>175.0</ele><time>2026-05-04T12:44:38Z</time></trkpt><trkpt lat="42.14584960929022" lon="19.88253392859745"><ele>175.0</ele><time>2026-05-04T12:44:40Z</time></trkpt><trkpt lat="42.14577807619686" lon="19.882544574234863"><ele>175.0</ele><time>2026-05-04T12:44:42Z</time></trkpt><trkpt lat="42.14570541481881" lon="19.882551910928182"><ele>175.0</ele><time>2026-05-04T12:44:44Z</time></trkpt><trkpt lat="42.14563280722461" lon="19.882559288844362"><ele>175.0</ele><time>2026-05-04T12:44:46Z</time></trkpt><trkpt lat="42.14556099967978" lon="19.882566937229527"><ele>175.0</ele><time>2026-05-04T12:44:48Z</time></trkpt><trkpt lat="42.145490142276465" lon="19.88257418851225"><ele>175.0</ele><time>2026-05-04T12:44:50Z</time></trkpt><trkpt lat="42.14541719822073" lon="19.882583467486135"><ele>175.0</ele><time>2026-05-04T12:44:52Z</time></trkpt><trkpt lat="42.145346099093295" lon="19.882593537260217"><ele>175.0</ele><time>2026-05-04T12:44:54Z</time></trkpt><trkpt lat="42.145273327068765" lon="19.8826016027622"><ele>175.0</ele><time>2026-05-04T12:44:56Z</time></trkpt><trkpt lat="42.14520168615499" lon="19.882611893223178"><ele>175.0</ele><time>2026-05-04T12:44:58Z</time></trkpt><trkpt lat="42.14512872689746" lon="19.882620569356565"><ele>175.0</ele><time>2026-05-04T12:45:00Z</time></trkpt><trkpt lat="42.145056033801204" lon="19.882630314539348"><ele>175.0</ele><time>2026-05-04T12:45:02Z</time></trkpt><trkpt lat="42.144983519631765" lon="19.882638917349773"><ele>175.0</ele><time>2026-05-04T12:45:04Z</time></trkpt><trkpt lat="42.144911203214015" lon="19.882649327689332"><ele>175.0</ele><time>2026-05-04T12:45:06Z</time></trkpt><trkpt lat="42.14483754425518" lon="19.88265654974342"><ele>175.0</ele><time>2026-05-04T12:45:08Z</time></trkpt><trkpt lat="42.1447624800903" lon="19.882661394164415"><ele>175.0</ele><time>2026-05-04T12:45:10Z</time></trkpt><trkpt lat="42.144688138126256" lon="19.882666537333137"><ele>175.0</ele><time>2026-05-04T12:45:12Z</time></trkpt><trkpt lat="42.14461319807382" lon="19.882668200013466"><ele>175.0</ele><time>2026-05-04T12:45:14Z</time></trkpt><trkpt lat="42.14454011360735" lon="19.882672556905845"><ele>175.0</ele><time>2026-05-04T12:45:16Z</time></trkpt><trkpt lat="42.144466271123804" lon="19.882674670099725"><ele>175.0</ele><time>2026-05-04T12:45:18Z</time></trkpt><trkpt lat="42.14439154312652" lon="19.88267602472522"><ele>175.0</ele><time>2026-05-04T12:45:20Z</time></trkpt><trkpt lat="42.14431778282069" lon="19.88267795076864"><ele>175.0</ele><time>2026-05-04T12:45:22Z</time></trkpt><trkpt lat="42.1442430737965" lon="19.8826767955347"><ele>175.0</ele><time>2026-05-04T12:45:24Z</time></trkpt><trkpt lat="42.14417014502386" lon="19.88267689374471"><ele>175.0</ele><time>2026-05-04T12:45:26Z</time></trkpt><trkpt lat="42.14409743482007" lon="19.882682608288775"><ele>175.0</ele><time>2026-05-04T12:45:28Z</time></trkpt><trkpt lat="42.14402431820164" lon="19.8826781951099"><ele>175.0</ele><time>2026-05-04T12:45:30Z</time></trkpt><trkpt lat="42.14395185758684" lon="19.882674013769382"><ele>175.0</ele><time>2026-05-04T12:45:32Z</time></trkpt><trkpt lat="42.14387813902195" lon="19.88266796315957"><ele>175.0</ele><time>2026-05-04T12:45:34Z</time></trkpt><trkpt lat="42.14380485009728" lon="19.882662594938655"><ele>175.0</ele><time>2026-05-04T12:45:36Z</time></trkpt><trkpt lat="42.143731165516165" lon="19.882656868907016"><ele>175.0</ele><time>2026-05-04T12:45:38Z</time></trkpt><trkpt lat="42.14365921437358" lon="19.88265114067338"><ele>175.0</ele><time>2026-05-04T12:45:40Z</time></trkpt><trkpt lat="42.14358762651587" lon="19.882643433802045"><ele>175.0</ele><time>2026-05-04T12:45:42Z</time></trkpt><trkpt lat="42.14351544115167" lon="19.88263179133484"><ele>175.0</ele><time>2026-05-04T12:45:44Z</time></trkpt><trkpt lat="42.143442298132655" lon="19.882617616736756"><ele>175.0</ele><time>2026-05-04T12:45:46Z</time></trkpt><trkpt lat="42.14336879123315" lon="19.882602312831857"><ele>175.0</ele><time>2026-05-04T12:45:48Z</time></trkpt><trkpt lat="42.14329567467787" lon="19.882585242577335"><ele>175.0</ele><time>2026-05-04T12:45:50Z</time></trkpt><trkpt lat="42.1432234432884" lon="19.882564799195684"><ele>175.0</ele><time>2026-05-04T12:45:52Z</time></trkpt><trkpt lat="42.143151257668194" lon="19.882544186575497"><ele>175.0</ele><time>2026-05-04T12:45:54Z</time></trkpt><trkpt lat="42.14308025515085" lon="19.88252086118457"><ele>175.0</ele><time>2026-05-04T12:45:56Z</time></trkpt><trkpt lat="42.14300751387698" lon="19.882498291782667"><ele>175.0</ele><time>2026-05-04T12:45:58Z</time></trkpt><trkpt lat="42.142934661248105" lon="19.882473502858247"><ele>175.0</ele><time>2026-05-04T12:46:00Z</time></trkpt><trkpt lat="42.14286373370855" lon="19.882448204038624"><ele>175.0</ele><time>2026-05-04T12:46:02Z</time></trkpt><trkpt lat="42.14279254602936" lon="19.88242207420814"><ele>175.0</ele><time>2026-05-04T12:46:04Z</time></trkpt><trkpt lat="42.142721140771556" lon="19.882395413544415"><ele>175.0</ele><time>2026-05-04T12:46:06Z</time></trkpt><trkpt lat="42.14265017549297" lon="19.882367343161995"><ele>175.0</ele><time>2026-05-04T12:46:08Z</time></trkpt><trkpt lat="42.142579521032495" lon="19.882339525309323"><ele>175.0</ele><time>2026-05-04T12:46:10Z</time></trkpt><trkpt lat="42.14250823398416" lon="19.882311789040475"><ele>175.0</ele><time>2026-05-04T12:46:12Z</time></trkpt><trkpt lat="42.142437236532885" lon="19.882283648813356"><ele>175.0</ele><time>2026-05-04T12:46:14Z</time></trkpt><trkpt lat="42.14236765815595" lon="19.882254145694844"><ele>175.0</ele><time>2026-05-04T12:46:16Z</time></trkpt><trkpt lat="42.14229698381679" lon="19.882225810554303"><ele>175.0</ele><time>2026-05-04T12:46:18Z</time></trkpt><trkpt lat="42.142229251941316" lon="19.882196655858674"><ele>175.0</ele><time>2026-05-04T12:46:20Z</time></trkpt><trkpt lat="42.14216214918533" lon="19.882166268865607"><ele>175.0</ele><time>2026-05-04T12:46:22Z</time></trkpt><trkpt lat="42.14209369322383" lon="19.882135396792354"><ele>175.0</ele><time>2026-05-04T12:46:24Z</time></trkpt><trkpt lat="42.14202596458964" lon="19.88210428249873"><ele>175.0</ele><time>2026-05-04T12:46:26Z</time></trkpt><trkpt lat="42.14195810938688" lon="19.882074760073902"><ele>175.0</ele><time>2026-05-04T12:46:28Z</time></trkpt><trkpt lat="42.141890351916196" lon="19.882041665539653"><ele>175.0</ele><time>2026-05-04T12:46:30Z</time></trkpt><trkpt lat="42.141821698903584" lon="19.882010712486384"><ele>175.0</ele><time>2026-05-04T12:46:32Z</time></trkpt><trkpt lat="42.14175398313804" lon="19.881976904695065"><ele>175.0</ele><time>2026-05-04T12:46:34Z</time></trkpt><trkpt lat="42.141688049483605" lon="19.881941576330174"><ele>175.0</ele><time>2026-05-04T12:46:36Z</time></trkpt><trkpt lat="42.141620657009604" lon="19.881906073666844"><ele>175.0</ele><time>2026-05-04T12:46:38Z</time></trkpt><trkpt lat="42.141553274138474" lon="19.881873990346133"><ele>175.0</ele><time>2026-05-04T12:46:40Z</time></trkpt><trkpt lat="42.141485753153525" lon="19.881840012783528"><ele>175.0</ele><time>2026-05-04T12:46:42Z</time></trkpt><trkpt lat="42.1414192749967" lon="19.881803416691188"><ele>175.0</ele><time>2026-05-04T12:46:44Z</time></trkpt><trkpt lat="42.14135312504634" lon="19.881767896780655"><ele>175.0</ele><time>2026-05-04T12:46:46Z</time></trkpt><trkpt lat="42.14128666245552" lon="19.88173581948921"><ele>175.0</ele><time>2026-05-04T12:46:48Z</time></trkpt><trkpt lat="42.14122000520284" lon="19.881701534809373"><ele>175.0</ele><time>2026-05-04T12:46:50Z</time></trkpt><trkpt lat="42.14115326188442" lon="19.881667941087862"><ele>175.0</ele><time>2026-05-04T12:46:52Z</time></trkpt><trkpt lat="42.14108637846756" lon="19.881632921603007"><ele>175.0</ele><time>2026-05-04T12:46:54Z</time></trkpt><trkpt lat="42.141020942775505" lon="19.881597686705394"><ele>175.0</ele><time>2026-05-04T12:46:56Z</time></trkpt><trkpt lat="42.14095174849272" lon="19.881564226105294"><ele>175.0</ele><time>2026-05-04T12:46:58Z</time></trkpt><trkpt lat="42.140887068061126" lon="19.881528740053938"><ele>175.0</ele><time>2026-05-04T12:47:00Z</time></trkpt><trkpt lat="42.14082031992559" lon="19.88149353305101"><ele>175.0</ele><time>2026-05-04T12:47:02Z</time></trkpt><trkpt lat="42.140753581758766" lon="19.881455981657304"><ele>175.0</ele><time>2026-05-04T12:47:04Z</time></trkpt><trkpt lat="42.14068748089368" lon="19.88142033763045"><ele>175.0</ele><time>2026-05-04T12:47:06Z</time></trkpt><trkpt lat="42.14062134863521" lon="19.881384778095644"><ele>175.0</ele><time>2026-05-04T12:47:08Z</time></trkpt><trkpt lat="42.14055693263972" lon="19.88134826188624"><ele>175.0</ele><time>2026-05-04T12:47:10Z</time></trkpt><trkpt lat="42.14049106061402" lon="19.881312221231425"><ele>175.0</ele><time>2026-05-04T12:47:12Z</time></trkpt><trkpt lat="42.14042633921072" lon="19.88127616924558"><ele>175.0</ele><time>2026-05-04T12:47:14Z</time></trkpt><trkpt lat="42.14036115973863" lon="19.881241239115838"><ele>175.0</ele><time>2026-05-04T12:47:16Z</time></trkpt><trkpt lat="42.14029538930664" lon="19.881206357555783"><ele>175.0</ele><time>2026-05-04T12:47:18Z</time></trkpt><trkpt lat="42.140230068241166" lon="19.881169142635184"><ele>175.0</ele><time>2026-05-04T12:47:20Z</time></trkpt><trkpt lat="42.14016258138367" lon="19.881136133521117"><ele>175.0</ele><time>2026-05-04T12:47:22Z</time></trkpt><trkpt lat="42.1400951076397" lon="19.88109979343066"><ele>175.0</ele><time>2026-05-04T12:47:24Z</time></trkpt><trkpt lat="42.14003065846491" lon="19.88106240679516"><ele>175.0</ele><time>2026-05-04T12:47:26Z</time></trkpt><trkpt lat="42.13996450040241" lon="19.88102707541156"><ele>175.0</ele><time>2026-05-04T12:47:28Z</time></trkpt><trkpt lat="42.139897929034206" lon="19.880993317329818"><ele>175.0</ele><time>2026-05-04T12:47:30Z</time></trkpt><trkpt lat="42.13983183416246" lon="19.880956412206437"><ele>175.0</ele><time>2026-05-04T12:47:32Z</time></trkpt><trkpt lat="42.139765321230776" lon="19.880920222645788"><ele>175.0</ele><time>2026-05-04T12:47:34Z</time></trkpt><trkpt lat="42.13970120439757" lon="19.880882730955083"><ele>175.0</ele><time>2026-05-04T12:47:36Z</time></trkpt><trkpt lat="42.139635042120624" lon="19.880846280041073"><ele>175.0</ele><time>2026-05-04T12:47:38Z</time></trkpt><trkpt lat="42.139567156253165" lon="19.880809371679888"><ele>175.0</ele><time>2026-05-04T12:47:40Z</time></trkpt><trkpt lat="42.13950076233336" lon="19.880774768876584"><ele>175.0</ele><time>2026-05-04T12:47:42Z</time></trkpt><trkpt lat="42.13943511294005" lon="19.880735447219845"><ele>175.0</ele><time>2026-05-04T12:47:44Z</time></trkpt><trkpt lat="42.13936775583657" lon="19.88069737526335"><ele>175.0</ele><time>2026-05-04T12:47:46Z</time></trkpt><trkpt lat="42.139302826617495" lon="19.880661180489632"><ele>175.0</ele><time>2026-05-04T12:47:48Z</time></trkpt><trkpt lat="42.13923814816014" lon="19.880624133387062"><ele>175.0</ele><time>2026-05-04T12:47:50Z</time></trkpt><trkpt lat="42.139173474301685" lon="19.880585514656644"><ele>175.0</ele><time>2026-05-04T12:47:52Z</time></trkpt><trkpt lat="42.13910703365138" lon="19.880545934619985"><ele>175.0</ele><time>2026-05-04T12:47:54.001Z</time></trkpt><trkpt lat="42.139042138649216" lon="19.880507646173445"><ele>175.0</ele><time>2026-05-04T12:47:56.001Z</time></trkpt><trkpt lat="42.138976487483866" lon="19.880469618834468"><ele>175.0</ele><time>2026-05-04T12:47:58.001Z</time></trkpt><trkpt lat="42.13891237252704" lon="19.880430806350503"><ele>175.0</ele><time>2026-05-04T12:48:00.001Z</time></trkpt><trkpt lat="42.13884756034168" lon="19.880390557274126"><ele>175.0</ele><time>2026-05-04T12:48:02.001Z</time></trkpt><trkpt lat="42.138781795130285" lon="19.880351696997334"><ele>175.0</ele><time>2026-05-04T12:48:04.001Z</time></trkpt><trkpt lat="42.13871716964873" lon="19.880310832107536"><ele>175.0</ele><time>2026-05-04T12:48:06.001Z</time></trkpt><trkpt lat="42.138652584973485" lon="19.880269969923432"><ele>175.0</ele><time>2026-05-04T12:48:08.001Z</time></trkpt><trkpt lat="42.13858800215184" lon="19.88022851266309"><ele>175.0</ele><time>2026-05-04T12:48:10.001Z</time></trkpt><trkpt lat="42.13852351071338" lon="19.880186302249463"><ele>175.0</ele><time>2026-05-04T12:48:12.001Z</time></trkpt><trkpt lat="42.138459301713674" lon="19.880143579121935"><ele>175.0</ele><time>2026-05-04T12:48:14.001Z</time></trkpt><trkpt lat="42.13839573593004" lon="19.88010051421746"><ele>175.0</ele><time>2026-05-04T12:48:16.001Z</time></trkpt><trkpt lat="42.13833232373003" lon="19.880059195085185"><ele>175.0</ele><time>2026-05-04T12:48:18.001Z</time></trkpt><trkpt lat="42.138268463856605" lon="19.880016609559547"><ele>175.0</ele><time>2026-05-04T12:48:20.001Z</time></trkpt><trkpt lat="42.13820464852132" lon="19.879973250814814"><ele>175.0</ele><time>2026-05-04T12:48:22.001Z</time></trkpt><trkpt lat="42.1381407996792" lon="19.879930903943208"><ele>175.0</ele><time>2026-05-04T12:48:24.001Z</time></trkpt><trkpt lat="42.138077013907306" lon="19.87988763774819"><ele>175.0</ele><time>2026-05-04T12:48:26.001Z</time></trkpt><trkpt lat="42.13801406657133" lon="19.879847143445474"><ele>175.0</ele><time>2026-05-04T12:48:28.001Z</time></trkpt><trkpt lat="42.13794403843897" lon="19.879805129299765"><ele>175.0</ele><time>2026-05-04T12:48:30.001Z</time></trkpt><trkpt lat="42.13788196366523" lon="19.87976543178639"><ele>175.0</ele><time>2026-05-04T12:48:32.001Z</time></trkpt><trkpt lat="42.13781617890709" lon="19.87972338618956"><ele>175.0</ele><time>2026-05-04T12:48:34Z</time></trkpt><trkpt lat="42.13775108018768" lon="19.879680812134556"><ele>175.0</ele><time>2026-05-04T12:48:36Z</time></trkpt><trkpt lat="42.13768577819798" lon="19.87963829899941"><ele>175.0</ele><time>2026-05-04T12:48:38Z</time></trkpt><trkpt lat="42.137620417919834" lon="19.87959530074467"><ele>175.0</ele><time>2026-05-04T12:48:40Z</time></trkpt><trkpt lat="42.13755316132432" lon="19.879551427089627"><ele>175.0</ele><time>2026-05-04T12:48:43Z</time></trkpt><trkpt lat="42.13745866089302" lon="19.879488223512258"><ele>175.0</ele><time>2026-05-04T12:48:45Z</time></trkpt><trkpt lat="42.13739366798043" lon="19.879444200297602"><ele>175.0</ele><time>2026-05-04T12:48:47Z</time></trkpt><trkpt lat="42.13732918854381" lon="19.879400667068015"><ele>175.0</ele><time>2026-05-04T12:48:49Z</time></trkpt><trkpt lat="42.13726390311556" lon="19.879357064838818"><ele>175.0</ele><time>2026-05-04T12:48:51Z</time></trkpt><trkpt lat="42.13719907474861" lon="19.87931388242435"><ele>175.0</ele><time>2026-05-04T12:48:53Z</time></trkpt><trkpt lat="42.13713513653468" lon="19.87927006079804"><ele>175.0</ele><time>2026-05-04T12:48:55Z</time></trkpt><trkpt lat="42.13707037034231" lon="19.879226043040497"><ele>175.0</ele><time>2026-05-04T12:48:57Z</time></trkpt><trkpt lat="42.13700564919241" lon="19.879181834398707"><ele>175.0</ele><time>2026-05-04T12:48:59Z</time></trkpt><trkpt lat="42.136941302238974" lon="19.879137578437977"><ele>175.0</ele><time>2026-05-04T12:49:01Z</time></trkpt><trkpt lat="42.136876930380474" lon="19.879093074662688"><ele>175.0</ele><time>2026-05-04T12:49:03Z</time></trkpt><trkpt lat="42.13681197858413" lon="19.879049396633256"><ele>175.0</ele><time>2026-05-04T12:49:05Z</time></trkpt><trkpt lat="42.13674835969392" lon="19.879005464787845"><ele>175.0</ele><time>2026-05-04T12:49:07Z</time></trkpt><trkpt lat="42.13668444555661" lon="19.878961366988495"><ele>175.0</ele><time>2026-05-04T12:49:09Z</time></trkpt><trkpt lat="42.13661937788711" lon="19.878916624932646"><ele>175.0</ele><time>2026-05-04T12:49:11Z</time></trkpt><trkpt lat="42.136555225057954" lon="19.87887156710607"><ele>175.0</ele><time>2026-05-04T12:49:13Z</time></trkpt><trkpt lat="42.13649066694431" lon="19.87882724295915"><ele>175.0</ele><time>2026-05-04T12:49:15Z</time></trkpt><trkpt lat="42.136424964828045" lon="19.87878430305128"><ele>175.0</ele><time>2026-05-04T12:49:17Z</time></trkpt><trkpt lat="42.1363597433894" lon="19.87874161551764"><ele>175.0</ele><time>2026-05-04T12:49:19Z</time></trkpt><trkpt lat="42.136294608142784" lon="19.878699487518507"><ele>175.0</ele><time>2026-05-04T12:49:21Z</time></trkpt><trkpt lat="42.13622987908933" lon="19.87865727184859"><ele>175.0</ele><time>2026-05-04T12:49:23Z</time></trkpt><trkpt lat="42.13616468486997" lon="19.878614601470836"><ele>175.0</ele><time>2026-05-04T12:49:25Z</time></trkpt><trkpt lat="42.13610002022546" lon="19.87857184528022"><ele>175.0</ele><time>2026-05-04T12:49:27Z</time></trkpt><trkpt lat="42.13603507818666" lon="19.878528439381796"><ele>175.0</ele><time>2026-05-04T12:49:29Z</time></trkpt><trkpt lat="42.13597076714848" lon="19.87848601134067"><ele>175.0</ele><time>2026-05-04T12:49:31Z</time></trkpt><trkpt lat="42.13590638231377" lon="19.87844245914323"><ele>175.0</ele><time>2026-05-04T12:49:33Z</time></trkpt><trkpt lat="42.13584172028114" lon="19.878398523606965"><ele>175.0</ele><time>2026-05-04T12:49:35Z</time></trkpt><trkpt lat="42.135776925055225" lon="19.878353878408284"><ele>175.0</ele><time>2026-05-04T12:49:37Z</time></trkpt><trkpt lat="42.13571362751369" lon="19.878309722508654"><ele>175.0</ele><time>2026-05-04T12:49:39Z</time></trkpt><trkpt lat="42.1356486050925" lon="19.878263802517722"><ele>175.0</ele><time>2026-05-04T12:49:41Z</time></trkpt><trkpt lat="42.13558499615548" lon="19.878217846650184"><ele>175.0</ele><time>2026-05-04T12:49:43Z</time></trkpt><trkpt lat="42.13552169953462" lon="19.878171987613275"><ele>175.0</ele><time>2026-05-04T12:49:45Z</time></trkpt><trkpt lat="42.13546192194433" lon="19.878128183649007"><ele>175.0</ele><time>2026-05-04T12:49:47Z</time></trkpt><trkpt lat="42.13536841044951" lon="19.878059304052513"><ele>175.0</ele><time>2026-05-04T12:49:50Z</time></trkpt><trkpt lat="42.13529836904531" lon="19.878007524929515"><ele>175.0</ele><time>2026-05-04T12:49:52Z</time></trkpt><trkpt lat="42.13523569297091" lon="19.877959508186734"><ele>175.0</ele><time>2026-05-04T12:49:54Z</time></trkpt><trkpt lat="42.13517265372468" lon="19.87791080159546"><ele>175.0</ele><time>2026-05-04T12:49:56Z</time></trkpt><trkpt lat="42.13510986948946" lon="19.877862685776996"><ele>175.0</ele><time>2026-05-04T12:49:58Z</time></trkpt><trkpt lat="42.135047118926714" lon="19.877813853518298"><ele>175.0</ele><time>2026-05-04T12:50:00Z</time></trkpt><trkpt lat="42.134986122117525" lon="19.87776543168784"><ele>175.0</ele><time>2026-05-04T12:50:02Z</time></trkpt><trkpt lat="42.13492388846077" lon="19.877716758252124"><ele>175.0</ele><time>2026-05-04T12:50:04Z</time></trkpt><trkpt lat="42.13486179508697" lon="19.877668137414357"><ele>175.0</ele><time>2026-05-04T12:50:06Z</time></trkpt><trkpt lat="42.13479915535586" lon="19.877618532642277"><ele>175.0</ele><time>2026-05-04T12:50:08Z</time></trkpt><trkpt lat="42.13473759641407" lon="19.87756883655305"><ele>175.0</ele><time>2026-05-04T12:50:10Z</time></trkpt><trkpt lat="42.134675392447065" lon="19.8775200189019"><ele>175.0</ele><time>2026-05-04T12:50:12Z</time></trkpt><trkpt lat="42.13461219669165" lon="19.877470792868404"><ele>175.0</ele><time>2026-05-04T12:50:14Z</time></trkpt><trkpt lat="42.134548965617206" lon="19.87742138376603"><ele>175.0</ele><time>2026-05-04T12:50:16Z</time></trkpt><trkpt lat="42.1344863106647" lon="19.877372761053035"><ele>175.0</ele><time>2026-05-04T12:50:18Z</time></trkpt><trkpt lat="42.13442285217895" lon="19.87732181109517"><ele>175.0</ele><time>2026-05-04T12:50:20Z</time></trkpt><trkpt lat="42.13436076181361" lon="19.877272431408652"><ele>175.0</ele><time>2026-05-04T12:50:22Z</time></trkpt><trkpt lat="42.134298332247994" lon="19.877221993269462"><ele>175.0</ele><time>2026-05-04T12:50:24Z</time></trkpt><trkpt lat="42.13423610682888" lon="19.877171783371047"><ele>175.0</ele><time>2026-05-04T12:50:26Z</time></trkpt><trkpt lat="42.134172930511454" lon="19.877122210250654"><ele>175.0</ele><time>2026-05-04T12:50:28Z</time></trkpt><trkpt lat="42.134110324859996" lon="19.87707124091863"><ele>175.0</ele><time>2026-05-04T12:50:30Z</time></trkpt><trkpt lat="42.134048192810624" lon="19.877020763612407"><ele>175.0</ele><time>2026-05-04T12:50:32Z</time></trkpt><trkpt lat="42.13398560695749" lon="19.876970836083945"><ele>175.0</ele><time>2026-05-04T12:50:34Z</time></trkpt><trkpt lat="42.133923869312234" lon="19.87692160791868"><ele>175.0</ele><time>2026-05-04T12:50:36Z</time></trkpt><trkpt lat="42.13386218272981" lon="19.876871101290163"><ele>175.0</ele><time>2026-05-04T12:50:38Z</time></trkpt><trkpt lat="42.13380043402052" lon="19.876820130880883"><ele>175.0</ele><time>2026-05-04T12:50:40Z</time></trkpt><trkpt lat="42.13373787259737" lon="19.876769735965052"><ele>175.0</ele><time>2026-05-04T12:50:42Z</time></trkpt><trkpt lat="42.13367596070921" lon="19.87671853467023"><ele>175.0</ele><time>2026-05-04T12:50:44Z</time></trkpt><trkpt lat="42.1335842202072" lon="19.876644385886582"><ele>175.0</ele><time>2026-05-04T12:50:47Z</time></trkpt><trkpt lat="42.133519977385504" lon="19.87659291795723"><ele>175.0</ele><time>2026-05-04T12:50:49Z</time></trkpt><trkpt lat="42.13345505177846" lon="19.87654003772693"><ele>175.0</ele><time>2026-05-04T12:50:51Z</time></trkpt><trkpt lat="42.13339364347058" lon="19.87648942694814"><ele>175.0</ele><time>2026-05-04T12:50:53Z</time></trkpt><trkpt lat="42.133331420284065" lon="19.876437929621137"><ele>175.0</ele><time>2026-05-04T12:50:55Z</time></trkpt><trkpt lat="42.13327074284145" lon="19.876385596446706"><ele>175.0</ele><time>2026-05-04T12:50:57Z</time></trkpt><trkpt lat="42.13320938086296" lon="19.876332564530195"><ele>175.0</ele><time>2026-05-04T12:50:59Z</time></trkpt><trkpt lat="42.13314869827114" lon="19.87627796898674"><ele>175.0</ele><time>2026-05-04T12:51:01Z</time></trkpt><trkpt lat="42.13308760338453" lon="19.876224558532282"><ele>175.0</ele><time>2026-05-04T12:51:03Z</time></trkpt><trkpt lat="42.13302724607744" lon="19.876170157384756"><ele>175.0</ele><time>2026-05-04T12:51:05Z</time></trkpt><trkpt lat="42.13296707779808" lon="19.876115231534673"><ele>175.0</ele><time>2026-05-04T12:51:07Z</time></trkpt><trkpt lat="42.13290683689637" lon="19.876060525547892"><ele>175.0</ele><time>2026-05-04T12:51:09Z</time></trkpt><trkpt lat="42.13284659926538" lon="19.876004469053502"><ele>175.0</ele><time>2026-05-04T12:51:11Z</time></trkpt><trkpt lat="42.13278675629945" lon="19.87594866492542"><ele>175.0</ele><time>2026-05-04T12:51:13Z</time></trkpt><trkpt lat="42.132726524651176" lon="19.875893355274044"><ele>175.0</ele><time>2026-05-04T12:51:15Z</time></trkpt><trkpt lat="42.132665740909715" lon="19.87583847788371"><ele>175.0</ele><time>2026-05-04T12:51:17Z</time></trkpt><trkpt lat="42.132606382585465" lon="19.875783387039633"><ele>175.0</ele><time>2026-05-04T12:51:19Z</time></trkpt><trkpt lat="42.13254558817565" lon="19.875729103396992"><ele>175.0</ele><time>2026-05-04T12:51:21Z</time></trkpt><trkpt lat="42.132484841301014" lon="19.87567487624037"><ele>175.0</ele><time>2026-05-04T12:51:23Z</time></trkpt><trkpt lat="42.13242406937016" lon="19.875620530770956"><ele>175.0</ele><time>2026-05-04T12:51:25Z</time></trkpt><trkpt lat="42.132362054997834" lon="19.875567459816256"><ele>175.0</ele><time>2026-05-04T12:51:27Z</time></trkpt><trkpt lat="42.13230041130535" lon="19.875514575458546"><ele>175.0</ele><time>2026-05-04T12:51:29Z</time></trkpt><trkpt lat="42.132239530133134" lon="19.875461925353207"><ele>175.0</ele><time>2026-05-04T12:51:31Z</time></trkpt><trkpt lat="42.13217819378713" lon="19.875409041433045"><ele>175.0</ele><time>2026-05-04T12:51:33Z</time></trkpt><trkpt lat="42.13211743184839" lon="19.875356401136393"><ele>175.0</ele><time>2026-05-04T12:51:35Z</time></trkpt><trkpt lat="42.13205515693719" lon="19.875302574410163"><ele>175.0</ele><time>2026-05-04T12:51:37Z</time></trkpt><trkpt lat="42.13199394576288" lon="19.875248745540883"><ele>175.0</ele><time>2026-05-04T12:51:39Z</time></trkpt><trkpt lat="42.13193276883781" lon="19.87519445613636"><ele>175.0</ele><time>2026-05-04T12:51:41Z</time></trkpt><trkpt lat="42.131871841721264" lon="19.87513927722695"><ele>175.0</ele><time>2026-05-04T12:51:43Z</time></trkpt><trkpt lat="42.13181148093856" lon="19.875084060229025"><ele>175.0</ele><time>2026-05-04T12:51:45Z</time></trkpt><trkpt lat="42.13175111230542" lon="19.875027837668583"><ele>175.0</ele><time>2026-05-04T12:51:47Z</time></trkpt><trkpt lat="42.13169199677937" lon="19.87497349989836"><ele>175.0</ele><time>2026-05-04T12:51:49Z</time></trkpt><trkpt lat="42.13163148800196" lon="19.87491813749037"><ele>175.0</ele><time>2026-05-04T12:51:51Z</time></trkpt><trkpt lat="42.1315728268012" lon="19.874859324138107"><ele>175.0</ele><time>2026-05-04T12:51:53Z</time></trkpt><trkpt lat="42.1315149441498" lon="19.87479989383301"><ele>175.0</ele><time>2026-05-04T12:51:55Z</time></trkpt><trkpt lat="42.13145759818274" lon="19.874739234456435"><ele>175.0</ele><time>2026-05-04T12:51:57Z</time></trkpt><trkpt lat="42.131400171327066" lon="19.874679030881236"><ele>175.0</ele><time>2026-05-04T12:51:59Z</time></trkpt><trkpt lat="42.13134372681233" lon="19.874613279376497"><ele>175.0</ele><time>2026-05-04T12:52:01Z</time></trkpt><trkpt lat="42.13128823545288" lon="19.874552482350392"><ele>175.0</ele><time>2026-05-04T12:52:03Z</time></trkpt><trkpt lat="42.13123314800693" lon="19.874489226561842"><ele>175.0</ele><time>2026-05-04T12:52:05Z</time></trkpt><trkpt lat="42.131178764947414" lon="19.874425141140865"><ele>175.0</ele><time>2026-05-04T12:52:07Z</time></trkpt><trkpt lat="42.131125801679076" lon="19.874356686156965"><ele>175.0</ele><time>2026-05-04T12:52:09Z</time></trkpt><trkpt lat="42.131073038547505" lon="19.87428718716813"><ele>175.0</ele><time>2026-05-04T12:52:11Z</time></trkpt><trkpt lat="42.131020700729835" lon="19.87421885037046"><ele>175.0</ele><time>2026-05-04T12:52:13Z</time></trkpt><trkpt lat="42.13096948380908" lon="19.874147807663004"><ele>175.0</ele><time>2026-05-04T12:52:15Z</time></trkpt><trkpt lat="42.13091970113044" lon="19.874075081663904"><ele>175.0</ele><time>2026-05-04T12:52:17Z</time></trkpt><trkpt lat="42.13086987796199" lon="19.874002176313436"><ele>175.0</ele><time>2026-05-04T12:52:19Z</time></trkpt><trkpt lat="42.13082087361456" lon="19.873927955483403"><ele>175.0</ele><time>2026-05-04T12:52:21Z</time></trkpt><trkpt lat="42.13077285148197" lon="19.873851295351013"><ele>175.0</ele><time>2026-05-04T12:52:23Z</time></trkpt><trkpt lat="42.130725513278804" lon="19.87377256897865"><ele>175.0</ele><time>2026-05-04T12:52:25Z</time></trkpt><trkpt lat="42.13068051977308" lon="19.87369384205198"><ele>175.0</ele><time>2026-05-04T12:52:27Z</time></trkpt><trkpt lat="42.13063622196986" lon="19.87361424261804"><ele>175.0</ele><time>2026-05-04T12:52:29Z</time></trkpt><trkpt lat="42.13059302607289" lon="19.873532551796522"><ele>175.0</ele><time>2026-05-04T12:52:31Z</time></trkpt><trkpt lat="42.13055064578597" lon="19.873450270867995"><ele>175.0</ele><time>2026-05-04T12:52:33Z</time></trkpt><trkpt lat="42.13050837453315" lon="19.873364778323978"><ele>175.0</ele><time>2026-05-04T12:52:35Z</time></trkpt><trkpt lat="42.130469438502494" lon="19.873281498628376"><ele>175.0</ele><time>2026-05-04T12:52:37Z</time></trkpt><trkpt lat="42.130429653138" lon="19.873196262377146"><ele>175.0</ele><time>2026-05-04T12:52:39Z</time></trkpt><trkpt lat="42.13039300273872" lon="19.873109776613827"><ele>175.0</ele><time>2026-05-04T12:52:41Z</time></trkpt><trkpt lat="42.130356725916705" lon="19.87302343637281"><ele>175.0</ele><time>2026-05-04T12:52:43Z</time></trkpt><trkpt lat="42.130322557725364" lon="19.872936245195547"><ele>175.0</ele><time>2026-05-04T12:52:45Z</time></trkpt><trkpt lat="42.13028823247937" lon="19.872848917268858"><ele>175.0</ele><time>2026-05-04T12:52:47Z</time></trkpt><trkpt lat="42.130254194380754" lon="19.87276143315657"><ele>175.0</ele><time>2026-05-04T12:52:49Z</time></trkpt><trkpt lat="42.13022048512166" lon="19.872673389283435"><ele>175.0</ele><time>2026-05-04T12:52:51Z</time></trkpt><trkpt lat="42.1301873533833" lon="19.872585277506598"><ele>175.0</ele><time>2026-05-04T12:52:53Z</time></trkpt><trkpt lat="42.13015419309428" lon="19.87249517965167"><ele>175.0</ele><time>2026-05-04T12:52:55Z</time></trkpt><trkpt lat="42.13012150599968" lon="19.872405633309405"><ele>175.0</ele><time>2026-05-04T12:52:57Z</time></trkpt><trkpt lat="42.130090299478894" lon="19.872316122636157"><ele>175.0</ele><time>2026-05-04T12:52:59Z</time></trkpt><trkpt lat="42.13005989414647" lon="19.87222793835291"><ele>175.0</ele><time>2026-05-04T12:53:01Z</time></trkpt><trkpt lat="42.13002777233733" lon="19.872137792971774"><ele>175.0</ele><time>2026-05-04T12:53:03Z</time></trkpt><trkpt lat="42.12999715885953" lon="19.872046964800724"><ele>175.0</ele><time>2026-05-04T12:53:05Z</time></trkpt><trkpt lat="42.12996653409788" lon="19.87195550055062"><ele>175.0</ele><time>2026-05-04T12:53:07Z</time></trkpt><trkpt lat="42.12993546514811" lon="19.871864796042647"><ele>175.0</ele><time>2026-05-04T12:53:09Z</time></trkpt><trkpt lat="42.12990494322747" lon="19.871774255315007"><ele>175.0</ele><time>2026-05-04T12:53:11Z</time></trkpt><trkpt lat="42.12987407046487" lon="19.87168419527132"><ele>175.0</ele><time>2026-05-04T12:53:13Z</time></trkpt><trkpt lat="42.129844238695576" lon="19.871592877461225"><ele>175.0</ele><time>2026-05-04T12:53:15Z</time></trkpt><trkpt lat="42.129814845975766" lon="19.871501136202877"><ele>175.0</ele><time>2026-05-04T12:53:17Z</time></trkpt><trkpt lat="42.12978526790388" lon="19.871409292662992"><ele>175.0</ele><time>2026-05-04T12:53:19Z</time></trkpt><trkpt lat="42.12975616790094" lon="19.871316592200017"><ele>175.0</ele><time>2026-05-04T12:53:21Z</time></trkpt><trkpt lat="42.12972703636422" lon="19.871225226662165"><ele>175.0</ele><time>2026-05-04T12:53:23Z</time></trkpt><trkpt lat="42.129697714094306" lon="19.871133030833402"><ele>175.0</ele><time>2026-05-04T12:53:25Z</time></trkpt><trkpt lat="42.12966861751806" lon="19.871041915611254"><ele>175.0</ele><time>2026-05-04T12:53:27Z</time></trkpt><trkpt lat="42.129639586905355" lon="19.870950708250817"><ele>175.0</ele><time>2026-05-04T12:53:29Z</time></trkpt><trkpt lat="42.1296101573484" lon="19.87085923817138"><ele>175.0</ele><time>2026-05-04T12:53:31Z</time></trkpt><trkpt lat="42.12958106261615" lon="19.870767997988683"><ele>175.0</ele><time>2026-05-04T12:53:33Z</time></trkpt><trkpt lat="42.12955173664263" lon="19.870676844276986"><ele>175.0</ele><time>2026-05-04T12:53:35Z</time></trkpt><trkpt lat="42.12952194325097" lon="19.87058577455602"><ele>175.0</ele><time>2026-05-04T12:53:37Z</time></trkpt><trkpt lat="42.12949311422128" lon="19.870494210761425"><ele>175.0</ele><time>2026-05-04T12:53:39Z</time></trkpt><trkpt lat="42.12946349368495" lon="19.87040373815129"><ele>175.0</ele><time>2026-05-04T12:53:41Z</time></trkpt><trkpt lat="42.129434325024114" lon="19.87031315828925"><ele>175.0</ele><time>2026-05-04T12:53:43Z</time></trkpt><trkpt lat="42.12940442029004" lon="19.87022330513974"><ele>175.0</ele><time>2026-05-04T12:53:45Z</time></trkpt><trkpt lat="42.129374713691135" lon="19.87013392626933"><ele>175.0</ele><time>2026-05-04T12:53:47Z</time></trkpt><trkpt lat="42.129344277563284" lon="19.87004632456464"><ele>175.0</ele><time>2026-05-04T12:53:49Z</time></trkpt><trkpt lat="42.12931355361117" lon="19.86995726279279"><ele>175.0</ele><time>2026-05-04T12:53:51Z</time></trkpt><trkpt lat="42.12928299562693" lon="19.869867903667192"><ele>175.0</ele><time>2026-05-04T12:53:53Z</time></trkpt><trkpt lat="42.12925281311475" lon="19.86977836691643"><ele>175.0</ele><time>2026-05-04T12:53:55Z</time></trkpt><trkpt lat="42.12922223257291" lon="19.869689014031927"><ele>175.0</ele><time>2026-05-04T12:53:57Z</time></trkpt><trkpt lat="42.129191954224304" lon="19.869600197533668"><ele>175.0</ele><time>2026-05-04T12:53:59Z</time></trkpt><trkpt lat="42.12916161940899" lon="19.869510548977132"><ele>175.0</ele><time>2026-05-04T12:54:01Z</time></trkpt><trkpt lat="42.129131232575006" lon="19.869421288291935"><ele>175.0</ele><time>2026-05-04T12:54:03Z</time></trkpt><trkpt lat="42.1290996646255" lon="19.869332923141307"><ele>175.0</ele><time>2026-05-04T12:54:05Z</time></trkpt><trkpt lat="42.12906816658348" lon="19.869244005459578"><ele>175.0</ele><time>2026-05-04T12:54:07Z</time></trkpt><trkpt lat="42.12903654809278" lon="19.869155828851888"><ele>175.0</ele><time>2026-05-04T12:54:09Z</time></trkpt><trkpt lat="42.12900600813074" lon="19.86906619916483"><ele>175.0</ele><time>2026-05-04T12:54:11Z</time></trkpt><trkpt lat="42.12897401984791" lon="19.868978294840247"><ele>175.0</ele><time>2026-05-04T12:54:13Z</time></trkpt><trkpt lat="42.128942917868955" lon="19.868889263894637"><ele>175.0</ele><time>2026-05-04T12:54:15Z</time></trkpt><trkpt lat="42.128912662369096" lon="19.86880065854423"><ele>175.0</ele><time>2026-05-04T12:54:17Z</time></trkpt><trkpt lat="42.128882008490166" lon="19.868711810222308"><ele>175.0</ele><time>2026-05-04T12:54:19Z</time></trkpt><trkpt lat="42.128851208676615" lon="19.86862313968428"><ele>175.0</ele><time>2026-05-04T12:54:21Z</time></trkpt><trkpt lat="42.128820717885375" lon="19.868534562769074"><ele>175.0</ele><time>2026-05-04T12:54:23Z</time></trkpt><trkpt lat="42.12879124637001" lon="19.868445545079922"><ele>175.0</ele><time>2026-05-04T12:54:25Z</time></trkpt><trkpt lat="42.12876027468711" lon="19.86835727918824"><ele>175.0</ele><time>2026-05-04T12:54:27Z</time></trkpt><trkpt lat="42.12872934194599" lon="19.868268667968508"><ele>175.0</ele><time>2026-05-04T12:54:29Z</time></trkpt><trkpt lat="42.12869903048057" lon="19.8681800906812"><ele>175.0</ele><time>2026-05-04T12:54:31Z</time></trkpt><trkpt lat="42.128668013357604" lon="19.868091072496608"><ele>175.0</ele><time>2026-05-04T12:54:33Z</time></trkpt><trkpt lat="42.128637086826956" lon="19.868002902893952"><ele>175.0</ele><time>2026-05-04T12:54:35Z</time></trkpt><trkpt lat="42.12860738548905" lon="19.86791705376812"><ele>175.0</ele><time>2026-05-04T12:54:37Z</time></trkpt><trkpt lat="42.128582818605025" lon="19.867830023352926"><ele>175.0</ele><time>2026-05-04T12:54:39Z</time></trkpt><trkpt lat="42.12854873862875" lon="19.867731770534014"><ele>175.0</ele><time>2026-05-04T12:54:41Z</time></trkpt><trkpt lat="42.128515911888535" lon="19.867641505048525"><ele>175.0</ele><time>2026-05-04T12:54:43Z</time></trkpt><trkpt lat="42.1284914810633" lon="19.86755027127798"><ele>175.0</ele><time>2026-05-04T12:54:45Z</time></trkpt><trkpt lat="42.12846380332167" lon="19.867459400621893"><ele>175.0</ele><time>2026-05-04T12:54:47Z</time></trkpt><trkpt lat="42.12843842045059" lon="19.86736593554565"><ele>175.0</ele><time>2026-05-04T12:54:49Z</time></trkpt><trkpt lat="42.12840905973756" lon="19.867277617373546"><ele>175.0</ele><time>2026-05-04T12:54:51Z</time></trkpt><trkpt lat="42.12838127059972" lon="19.867190511044033"><ele>175.0</ele><time>2026-05-04T12:54:53Z</time></trkpt><trkpt lat="42.128352749248755" lon="19.86710406344041"><ele>175.0</ele><time>2026-05-04T12:54:55Z</time></trkpt><trkpt lat="42.12832338030185" lon="19.86701635998859"><ele>175.0</ele><time>2026-05-04T12:54:57Z</time></trkpt><trkpt lat="42.12829659597821" lon="19.866931064541212"><ele>175.0</ele><time>2026-05-04T12:54:59Z</time></trkpt><trkpt lat="42.12826711646666" lon="19.866842579678288"><ele>175.0</ele><time>2026-05-04T12:55:01Z</time></trkpt><trkpt lat="42.12823796299184" lon="19.866753818378022"><ele>175.0</ele><time>2026-05-04T12:55:03Z</time></trkpt><trkpt lat="42.12820823541953" lon="19.866663448729607"><ele>175.0</ele><time>2026-05-04T12:55:05Z</time></trkpt><trkpt lat="42.12817794082194" lon="19.866575171166843"><ele>175.0</ele><time>2026-05-04T12:55:07Z</time></trkpt><trkpt lat="42.128145498450586" lon="19.866485149564035"><ele>175.0</ele><time>2026-05-04T12:55:09Z</time></trkpt><trkpt lat="42.12811553505791" lon="19.86639569562245"><ele>175.0</ele><time>2026-05-04T12:55:11Z</time></trkpt><trkpt lat="42.1280889663659" lon="19.866307847196243"><ele>175.0</ele><time>2026-05-04T12:55:13Z</time></trkpt><trkpt lat="42.12805862832606" lon="19.866218134595016"><ele>175.0</ele><time>2026-05-04T12:55:15Z</time></trkpt><trkpt lat="42.12802918768813" lon="19.866127750328342"><ele>175.0</ele><time>2026-05-04T12:55:17Z</time></trkpt><trkpt lat="42.12800014020804" lon="19.866040674647913"><ele>175.0</ele><time>2026-05-04T12:55:19Z</time></trkpt><trkpt lat="42.12797235161515" lon="19.865950900463048"><ele>175.0</ele><time>2026-05-04T12:55:21Z</time></trkpt><trkpt lat="42.127945650943076" lon="19.865862389138215"><ele>175.0</ele><time>2026-05-04T12:55:23Z</time></trkpt><trkpt lat="42.1279175340584" lon="19.865771980638176"><ele>175.0</ele><time>2026-05-04T12:55:25Z</time></trkpt><trkpt lat="42.12788806445083" lon="19.86568385377696"><ele>175.0</ele><time>2026-05-04T12:55:27Z</time></trkpt><trkpt lat="42.12785890195411" lon="19.86559466614613"><ele>175.0</ele><time>2026-05-04T12:55:29Z</time></trkpt><trkpt lat="42.12782934164013" lon="19.865505407681507"><ele>175.0</ele><time>2026-05-04T12:55:31Z</time></trkpt><trkpt lat="42.127800581541976" lon="19.865416385918614"><ele>175.0</ele><time>2026-05-04T12:55:33Z</time></trkpt><trkpt lat="42.127771439621995" lon="19.865325808820813"><ele>175.0</ele><time>2026-05-04T12:55:35Z</time></trkpt><trkpt lat="42.12774265183737" lon="19.865236732087798"><ele>175.0</ele><time>2026-05-04T12:55:37Z</time></trkpt><trkpt lat="42.12771375364569" lon="19.86514450569432"><ele>175.0</ele><time>2026-05-04T12:55:39Z</time></trkpt><trkpt lat="42.12768331930488" lon="19.865053329853147"><ele>175.0</ele><time>2026-05-04T12:55:41Z</time></trkpt><trkpt lat="42.12765112273455" lon="19.864965212830562"><ele>175.0</ele><time>2026-05-04T12:55:43Z</time></trkpt><trkpt lat="42.12762291304157" lon="19.86487270291168"><ele>175.0</ele><time>2026-05-04T12:55:45Z</time></trkpt><trkpt lat="42.12759371693022" lon="19.864780903919897"><ele>175.0</ele><time>2026-05-04T12:55:47Z</time></trkpt><trkpt lat="42.127565092533544" lon="19.864689901893524"><ele>175.0</ele><time>2026-05-04T12:55:49Z</time></trkpt><trkpt lat="42.1275369201863" lon="19.864598397953156"><ele>175.0</ele><time>2026-05-04T12:55:51Z</time></trkpt><trkpt lat="42.12750821695502" lon="19.864507634182758"><ele>175.0</ele><time>2026-05-04T12:55:53Z</time></trkpt><trkpt lat="42.12747844384554" lon="19.8644165235423"><ele>175.0</ele><time>2026-05-04T12:55:55Z</time></trkpt><trkpt lat="42.127449180548474" lon="19.86432448794528"><ele>175.0</ele><time>2026-05-04T12:55:57Z</time></trkpt><trkpt lat="42.127420177145204" lon="19.864233557779393"><ele>175.0</ele><time>2026-05-04T12:55:59Z</time></trkpt><trkpt lat="42.12739156643917" lon="19.864144041668283"><ele>175.0</ele><time>2026-05-04T12:56:01Z</time></trkpt><trkpt lat="42.12736222598866" lon="19.86405435682118"><ele>175.0</ele><time>2026-05-04T12:56:03Z</time></trkpt><trkpt lat="42.12733288165022" lon="19.863964497345414"><ele>175.0</ele><time>2026-05-04T12:56:05Z</time></trkpt><trkpt lat="42.12730237755852" lon="19.86387475524029"><ele>175.0</ele><time>2026-05-04T12:56:07Z</time></trkpt><trkpt lat="42.12727127548672" lon="19.863785906701406"><ele>175.0</ele><time>2026-05-04T12:56:09Z</time></trkpt><trkpt lat="42.12724062673275" lon="19.863696584766657"><ele>175.0</ele><time>2026-05-04T12:56:11Z</time></trkpt><trkpt lat="42.127209574136565" lon="19.863608534298617"><ele>175.0</ele><time>2026-05-04T12:56:13Z</time></trkpt><trkpt lat="42.12717633708548" lon="19.863519563583157"><ele>175.0</ele><time>2026-05-04T12:56:15Z</time></trkpt><trkpt lat="42.12714478807598" lon="19.863431631748025"><ele>175.0</ele><time>2026-05-04T12:56:17Z</time></trkpt><trkpt lat="42.12711435803138" lon="19.863343038014264"><ele>175.0</ele><time>2026-05-04T12:56:19Z</time></trkpt><trkpt lat="42.127083115332255" lon="19.863254184833316"><ele>175.0</ele><time>2026-05-04T12:56:21Z</time></trkpt><trkpt lat="42.12705207094547" lon="19.863165664968488"><ele>175.0</ele><time>2026-05-04T12:56:23Z</time></trkpt><trkpt lat="42.12702103011666" lon="19.86307718871066"><ele>175.0</ele><time>2026-05-04T12:56:25Z</time></trkpt><trkpt lat="42.126988688049046" lon="19.86298902679977"><ele>175.0</ele><time>2026-05-04T12:56:27Z</time></trkpt><trkpt lat="42.12695595135071" lon="19.86290083732914"><ele>175.0</ele><time>2026-05-04T12:56:29Z</time></trkpt><trkpt lat="42.126925027861546" lon="19.86281298324079"><ele>175.0</ele><time>2026-05-04T12:56:31Z</time></trkpt><trkpt lat="42.12689342959099" lon="19.862724342212804"><ele>175.0</ele><time>2026-05-04T12:56:33Z</time></trkpt><trkpt lat="42.126862195770805" lon="19.862635755326867"><ele>175.0</ele><time>2026-05-04T12:56:35Z</time></trkpt><trkpt lat="42.12683096054711" lon="19.862547322815796"><ele>175.0</ele><time>2026-05-04T12:56:37Z</time></trkpt><trkpt lat="42.12679894160241" lon="19.86245850384618"><ele>175.0</ele><time>2026-05-04T12:56:39Z</time></trkpt><trkpt lat="42.126766456447584" lon="19.862369019707184"><ele>175.0</ele><time>2026-05-04T12:56:41Z</time></trkpt><trkpt lat="42.12673523017753" lon="19.86227856335132"><ele>175.0</ele><time>2026-05-04T12:56:43Z</time></trkpt><trkpt lat="42.126703594239274" lon="19.862189397598794"><ele>175.0</ele><time>2026-05-04T12:56:45Z</time></trkpt><trkpt lat="42.126671778072506" lon="19.86210025884952"><ele>175.0</ele><time>2026-05-04T12:56:47Z</time></trkpt><trkpt lat="42.1266400081616" lon="19.862010684706693"><ele>175.0</ele><time>2026-05-04T12:56:49Z</time></trkpt><trkpt lat="42.126608715519176" lon="19.861920201537377"><ele>175.0</ele><time>2026-05-04T12:56:51Z</time></trkpt><trkpt lat="42.12657797576527" lon="19.861829880760656"><ele>175.0</ele><time>2026-05-04T12:56:53Z</time></trkpt><trkpt lat="42.126547691139876" lon="19.86173973881299"><ele>175.0</ele><time>2026-05-04T12:56:55Z</time></trkpt><trkpt lat="42.12651823655553" lon="19.86164938178515"><ele>175.0</ele><time>2026-05-04T12:56:57Z</time></trkpt><trkpt lat="42.12648813482665" lon="19.861558154227623"><ele>175.0</ele><time>2026-05-04T12:56:59Z</time></trkpt><trkpt lat="42.126460783566486" lon="19.861468613613745"><ele>175.0</ele><time>2026-05-04T12:57:01Z</time></trkpt><trkpt lat="42.126432778863666" lon="19.861380103776774"><ele>175.0</ele><time>2026-05-04T12:57:03Z</time></trkpt><trkpt lat="42.126404325867234" lon="19.86129001948277"><ele>175.0</ele><time>2026-05-04T12:57:05Z</time></trkpt><trkpt lat="42.12637710699293" lon="19.86120056089374"><ele>175.0</ele><time>2026-05-04T12:57:07Z</time></trkpt><trkpt lat="42.12634703743679" lon="19.861114063484223"><ele>175.0</ele><time>2026-05-04T12:57:09Z</time></trkpt><trkpt lat="42.126319489051966" lon="19.8610271353843"><ele>175.0</ele><time>2026-05-04T12:57:11Z</time></trkpt><trkpt lat="42.12629096205717" lon="19.860939759939107"><ele>175.0</ele><time>2026-05-04T12:57:13Z</time></trkpt><trkpt lat="42.126261008308624" lon="19.860851629207296"><ele>175.0</ele><time>2026-05-04T12:57:15Z</time></trkpt><trkpt lat="42.12623163248769" lon="19.860763598580647"><ele>175.0</ele><time>2026-05-04T12:57:17Z</time></trkpt><trkpt lat="42.12619925252" lon="19.860679550437574"><ele>175.0</ele><time>2026-05-04T12:57:19Z</time></trkpt><trkpt lat="42.126166850212144" lon="19.860595306029907"><ele>175.0</ele><time>2026-05-04T12:57:20.999Z</time></trkpt><trkpt lat="42.12613385133233" lon="19.860510636965508"><ele>175.0</ele><time>2026-05-04T12:57:22.999Z</time></trkpt><trkpt lat="42.12610034005716" lon="19.86042512038988"><ele>175.0</ele><time>2026-05-04T12:57:24.999Z</time></trkpt><trkpt lat="42.12606761960501" lon="19.86034149561494"><ele>175.0</ele><time>2026-05-04T12:57:26.999Z</time></trkpt><trkpt lat="42.12603230334471" lon="19.86025659620606"><ele>175.0</ele><time>2026-05-04T12:57:28.999Z</time></trkpt><trkpt lat="42.1260017385143" lon="19.860177309204833"><ele>175.0</ele><time>2026-05-04T12:57:30.999Z</time></trkpt><trkpt lat="42.12596302433031" lon="19.860090570233126"><ele>175.0</ele><time>2026-05-04T12:57:32.999Z</time></trkpt><trkpt lat="42.12592752176363" lon="19.86000766422357"><ele>175.0</ele><time>2026-05-04T12:57:34.999Z</time></trkpt><trkpt lat="42.12589114106954" lon="19.859924014715023"><ele>175.0</ele><time>2026-05-04T12:57:36.999Z</time></trkpt><trkpt lat="42.12585400845085" lon="19.85984135285793"><ele>175.0</ele><time>2026-05-04T12:57:38.999Z</time></trkpt><trkpt lat="42.12581681614728" lon="19.859761729958684"><ele>175.0</ele><time>2026-05-04T12:57:40.999Z</time></trkpt><trkpt lat="42.12577857233561" lon="19.859680994955383"><ele>175.0</ele><time>2026-05-04T12:57:42.999Z</time></trkpt><trkpt lat="42.125740659991116" lon="19.859598874201147"><ele>175.0</ele><time>2026-05-04T12:57:44.999Z</time></trkpt><trkpt lat="42.12570208359488" lon="19.859518992098327"><ele>175.0</ele><time>2026-05-04T12:57:46.999Z</time></trkpt><trkpt lat="42.125662933036594" lon="19.859437089360707"><ele>175.0</ele><time>2026-05-04T12:57:48.999Z</time></trkpt><trkpt lat="42.125624143354024" lon="19.859354462987863"><ele>175.0</ele><time>2026-05-04T12:57:50.999Z</time></trkpt><trkpt lat="42.12558460076398" lon="19.859272741252344"><ele>175.0</ele><time>2026-05-04T12:57:52.999Z</time></trkpt><trkpt lat="42.125545453545065" lon="19.859191451249064"><ele>175.0</ele><time>2026-05-04T12:57:54.999Z</time></trkpt><trkpt lat="42.125506555595656" lon="19.859109544529765"><ele>175.0</ele><time>2026-05-04T12:57:56.999Z</time></trkpt><trkpt lat="42.125465379931725" lon="19.859027898803504"><ele>175.0</ele><time>2026-05-04T12:57:58.999Z</time></trkpt><trkpt lat="42.12542448686444" lon="19.85894708849791"><ele>175.0</ele><time>2026-05-04T12:58:00.999Z</time></trkpt><trkpt lat="42.12538360256122" lon="19.858866589283693"><ele>175.0</ele><time>2026-05-04T12:58:02.999Z</time></trkpt><trkpt lat="42.12534179132967" lon="19.858786961326913"><ele>175.0</ele><time>2026-05-04T12:58:04.999Z</time></trkpt><trkpt lat="42.12529909696932" lon="19.858707345356155"><ele>175.0</ele><time>2026-05-04T12:58:06.999Z</time></trkpt><trkpt lat="42.125255136514184" lon="19.85862880883024"><ele>175.0</ele><time>2026-05-04T12:58:08.999Z</time></trkpt><trkpt lat="42.125209752242114" lon="19.85855228515811"><ele>175.0</ele><time>2026-05-04T12:58:10.999Z</time></trkpt><trkpt lat="42.125165626162385" lon="19.858475216562795"><ele>175.0</ele><time>2026-05-04T12:58:12.999Z</time></trkpt><trkpt lat="42.12512070930839" lon="19.85839892595087"><ele>175.0</ele><time>2026-05-04T12:58:14.999Z</time></trkpt><trkpt lat="42.125075339719324" lon="19.858322349105443"><ele>175.0</ele><time>2026-05-04T12:58:16.999Z</time></trkpt><trkpt lat="42.12502880731609" lon="19.858247179599097"><ele>175.0</ele><time>2026-05-04T12:58:18.999Z</time></trkpt><trkpt lat="42.124984763054414" lon="19.858170656659702"><ele>175.0</ele><time>2026-05-04T12:58:20.999Z</time></trkpt><trkpt lat="42.12493992997044" lon="19.85809282848043"><ele>175.0</ele><time>2026-05-04T12:58:22.999Z</time></trkpt><trkpt lat="42.12489383380582" lon="19.85801414364375"><ele>175.0</ele><time>2026-05-04T12:58:24.999Z</time></trkpt><trkpt lat="42.124848234950164" lon="19.857937002128953"><ele>175.0</ele><time>2026-05-04T12:58:26.999Z</time></trkpt><trkpt lat="42.12480226567557" lon="19.857859973549676"><ele>175.0</ele><time>2026-05-04T12:58:28.999Z</time></trkpt><trkpt lat="42.12475507195434" lon="19.857785913177036"><ele>175.0</ele><time>2026-05-04T12:58:30.999Z</time></trkpt><trkpt lat="42.12470672481741" lon="19.857711234812452"><ele>175.0</ele><time>2026-05-04T12:58:32.999Z</time></trkpt><trkpt lat="42.124659871178196" lon="19.857636694217966"><ele>175.0</ele><time>2026-05-04T12:58:34.999Z</time></trkpt><trkpt lat="42.124613235791486" lon="19.857561080722704"><ele>175.0</ele><time>2026-05-04T12:58:36.999Z</time></trkpt><trkpt lat="42.12456452706775" lon="19.85748865135251"><ele>175.0</ele><time>2026-05-04T12:58:38.999Z</time></trkpt><trkpt lat="42.12451723468459" lon="19.857415205471323"><ele>175.0</ele><time>2026-05-04T12:58:40.999Z</time></trkpt><trkpt lat="42.124469312002695" lon="19.85733948510364"><ele>175.0</ele><time>2026-05-04T12:58:42.999Z</time></trkpt><trkpt lat="42.124422327035646" lon="19.857263565984304"><ele>175.0</ele><time>2026-05-04T12:58:44.999Z</time></trkpt><trkpt lat="42.12437509734848" lon="19.857189056885122"><ele>175.0</ele><time>2026-05-04T12:58:46.999Z</time></trkpt><trkpt lat="42.12432787497215" lon="19.857114948296697"><ele>175.0</ele><time>2026-05-04T12:58:48.999Z</time></trkpt><trkpt lat="42.1242795761167" lon="19.85704040034233"><ele>175.0</ele><time>2026-05-04T12:58:50.999Z</time></trkpt><trkpt lat="42.12423199068502" lon="19.856965608252384"><ele>175.0</ele><time>2026-05-04T12:58:52.999Z</time></trkpt><trkpt lat="42.12418435549487" lon="19.856889101292623"><ele>175.0</ele><time>2026-05-04T12:58:54.999Z</time></trkpt><trkpt lat="42.12413717018696" lon="19.85681425102409"><ele>175.0</ele><time>2026-05-04T12:58:56.999Z</time></trkpt><trkpt lat="42.12408957084262" lon="19.856741296303703"><ele>175.0</ele><time>2026-05-04T12:58:58.999Z</time></trkpt><trkpt lat="42.12404222411812" lon="19.85666579453658"><ele>175.0</ele><time>2026-05-04T12:59:00.999Z</time></trkpt><trkpt lat="42.12399528236604" lon="19.85659209051949"><ele>175.0</ele><time>2026-05-04T12:59:02.999Z</time></trkpt><trkpt lat="42.12394688370095" lon="19.856516249387568"><ele>175.0</ele><time>2026-05-04T12:59:04.999Z</time></trkpt><trkpt lat="42.12389989896056" lon="19.856440686122667"><ele>175.0</ele><time>2026-05-04T12:59:06.999Z</time></trkpt><trkpt lat="42.123853594080735" lon="19.856365843939773"><ele>175.0</ele><time>2026-05-04T12:59:08.999Z</time></trkpt><trkpt lat="42.12380655850107" lon="19.856288526984677"><ele>175.0</ele><time>2026-05-04T12:59:10.999Z</time></trkpt><trkpt lat="42.12375944696123" lon="19.856213292613248"><ele>175.0</ele><time>2026-05-04T12:59:12.999Z</time></trkpt><trkpt lat="42.123713364033485" lon="19.856137314293"><ele>175.0</ele><time>2026-05-04T12:59:14.999Z</time></trkpt><trkpt lat="42.123667298298315" lon="19.856063573418055"><ele>175.0</ele><time>2026-05-04T12:59:16.999Z</time></trkpt><trkpt lat="42.12362110198499" lon="19.855986672937686"><ele>175.0</ele><time>2026-05-04T12:59:18.999Z</time></trkpt><trkpt lat="42.12357467433154" lon="19.855910724345758"><ele>175.0</ele><time>2026-05-04T12:59:20.999Z</time></trkpt><trkpt lat="42.12352732792098" lon="19.855835877750742"><ele>175.0</ele><time>2026-05-04T12:59:22.999Z</time></trkpt><trkpt lat="42.12348132230146" lon="19.85576239103769"><ele>175.0</ele><time>2026-05-04T12:59:25Z</time></trkpt><trkpt lat="42.123435467891795" lon="19.855688153855716"><ele>175.0</ele><time>2026-05-04T12:59:27Z</time></trkpt><trkpt lat="42.12338956211616" lon="19.855612440639845"><ele>175.0</ele><time>2026-05-04T12:59:29Z</time></trkpt><trkpt lat="42.12334354133326" lon="19.855536812414712"><ele>175.0</ele><time>2026-05-04T12:59:31Z</time></trkpt><trkpt lat="42.12329722373138" lon="19.85546041521609"><ele>175.0</ele><time>2026-05-04T12:59:33Z</time></trkpt><trkpt lat="42.1232513181147" lon="19.855383733825327"><ele>175.0</ele><time>2026-05-04T12:59:35Z</time></trkpt><trkpt lat="42.12320537902979" lon="19.85530650309365"><ele>175.0</ele><time>2026-05-04T12:59:37Z</time></trkpt><trkpt lat="42.12315983572192" lon="19.855229018190254"><ele>175.0</ele><time>2026-05-04T12:59:39Z</time></trkpt><trkpt lat="42.123114042137765" lon="19.855152614360453"><ele>175.0</ele><time>2026-05-04T12:59:41Z</time></trkpt><trkpt lat="42.12306826007217" lon="19.855074970249838"><ele>175.0</ele><time>2026-05-04T12:59:43Z</time></trkpt><trkpt lat="42.12302295969168" lon="19.854996811229228"><ele>175.0</ele><time>2026-05-04T12:59:45Z</time></trkpt><trkpt lat="42.12297800872574" lon="19.854919193046467"><ele>175.0</ele><time>2026-05-04T12:59:47Z</time></trkpt><trkpt lat="42.12293310318951" lon="19.854841229460824"><ele>175.0</ele><time>2026-05-04T12:59:49Z</time></trkpt><trkpt lat="42.122888712522986" lon="19.85476335772166"><ele>175.0</ele><time>2026-05-04T12:59:51Z</time></trkpt><trkpt lat="42.122844449014565" lon="19.8546855569347"><ele>175.0</ele><time>2026-05-04T12:59:53Z</time></trkpt><trkpt lat="42.122800314640706" lon="19.854607149966288"><ele>175.0</ele><time>2026-05-04T12:59:55Z</time></trkpt><trkpt lat="42.122756181281616" lon="19.854528972940813"><ele>175.0</ele><time>2026-05-04T12:59:57Z</time></trkpt><trkpt lat="42.12271184450463" lon="19.85445024950012"><ele>175.0</ele><time>2026-05-04T12:59:59Z</time></trkpt><trkpt lat="42.122668113281904" lon="19.854372228073196"><ele>175.0</ele><time>2026-05-04T13:00:01Z</time></trkpt><trkpt lat="42.12262371629845" lon="19.854293531487226"><ele>175.0</ele><time>2026-05-04T13:00:03Z</time></trkpt><trkpt lat="42.12257894027528" lon="19.854215596429533"><ele>175.0</ele><time>2026-05-04T13:00:05Z</time></trkpt><trkpt lat="42.1225339380913" lon="19.854138270825878"><ele>175.0</ele><time>2026-05-04T13:00:07Z</time></trkpt><trkpt lat="42.122489066479886" lon="19.854059363456567"><ele>175.0</ele><time>2026-05-04T13:00:09Z</time></trkpt><trkpt lat="42.122443820403255" lon="19.853981834203708"><ele>175.0</ele><time>2026-05-04T13:00:11Z</time></trkpt><trkpt lat="42.122397484508625" lon="19.853905790825344"><ele>175.0</ele><time>2026-05-04T13:00:13Z</time></trkpt><trkpt lat="42.12235188279992" lon="19.853828454562848"><ele>175.0</ele><time>2026-05-04T13:00:15Z</time></trkpt><trkpt lat="42.12230658391658" lon="19.8537514021126"><ele>175.0</ele><time>2026-05-04T13:00:17Z</time></trkpt><trkpt lat="42.122260749713625" lon="19.85367444733549"><ele>175.0</ele><time>2026-05-04T13:00:19Z</time></trkpt><trkpt lat="42.122214678364564" lon="19.85359764054303"><ele>175.0</ele><time>2026-05-04T13:00:21Z</time></trkpt><trkpt lat="42.12216874663611" lon="19.85352057784173"><ele>175.0</ele><time>2026-05-04T13:00:23Z</time></trkpt><trkpt lat="42.122122590783476" lon="19.853443051418452"><ele>175.0</ele><time>2026-05-04T13:00:25Z</time></trkpt><trkpt lat="42.122076728924874" lon="19.853365617899772"><ele>175.0</ele><time>2026-05-04T13:00:27Z</time></trkpt><trkpt lat="42.12203097524605" lon="19.85328937788586"><ele>175.0</ele><time>2026-05-04T13:00:29Z</time></trkpt><trkpt lat="42.121985583007586" lon="19.853212677987404"><ele>175.0</ele><time>2026-05-04T13:00:31Z</time></trkpt><trkpt lat="42.12193886002341" lon="19.853136472085225"><ele>175.0</ele><time>2026-05-04T13:00:33Z</time></trkpt><trkpt lat="42.12189168074349" lon="19.85305918525395"><ele>175.0</ele><time>2026-05-04T13:00:35Z</time></trkpt><trkpt lat="42.12184445598695" lon="19.85298244570623"><ele>175.0</ele><time>2026-05-04T13:00:37Z</time></trkpt><trkpt lat="42.12179809370101" lon="19.852906123447294"><ele>175.0</ele><time>2026-05-04T13:00:39Z</time></trkpt><trkpt lat="42.12175101290949" lon="19.852830279192993"><ele>175.0</ele><time>2026-05-04T13:00:41Z</time></trkpt><trkpt lat="42.12170337021532" lon="19.852754259996058"><ele>175.0</ele><time>2026-05-04T13:00:43Z</time></trkpt><trkpt lat="42.12165617071427" lon="19.85267907695366"><ele>175.0</ele><time>2026-05-04T13:00:45Z</time></trkpt><trkpt lat="42.121608860263606" lon="19.852604773880437"><ele>175.0</ele><time>2026-05-04T13:00:47Z</time></trkpt><trkpt lat="42.12156106266811" lon="19.852529592831104"><ele>175.0</ele><time>2026-05-04T13:00:49Z</time></trkpt><trkpt lat="42.12151349004564" lon="19.85245403095172"><ele>175.0</ele><time>2026-05-04T13:00:51Z</time></trkpt><trkpt lat="42.12146624049506" lon="19.852378710927265"><ele>175.0</ele><time>2026-05-04T13:00:53Z</time></trkpt><trkpt lat="42.12141847910479" lon="19.852303066157603"><ele>175.0</ele><time>2026-05-04T13:00:55Z</time></trkpt><trkpt lat="42.121371153312786" lon="19.852226634322257"><ele>175.0</ele><time>2026-05-04T13:00:57Z</time></trkpt><trkpt lat="42.12132506235128" lon="19.852150560638346"><ele>175.0</ele><time>2026-05-04T13:00:59Z</time></trkpt><trkpt lat="42.12127786159342" lon="19.85207403055528"><ele>175.0</ele><time>2026-05-04T13:01:01Z</time></trkpt><trkpt lat="42.12123074683159" lon="19.851997560440598"><ele>175.0</ele><time>2026-05-04T13:01:03Z</time></trkpt><trkpt lat="42.121183326764644" lon="19.851921943977782"><ele>175.0</ele><time>2026-05-04T13:01:05Z</time></trkpt><trkpt lat="42.12113612426265" lon="19.85184592939694"><ele>175.0</ele><time>2026-05-04T13:01:07Z</time></trkpt><trkpt lat="42.12108915417219" lon="19.851769457477626"><ele>175.0</ele><time>2026-05-04T13:01:09Z</time></trkpt><trkpt lat="42.121042317660695" lon="19.851692626978558"><ele>175.0</ele><time>2026-05-04T13:01:11Z</time></trkpt><trkpt lat="42.12099549828462" lon="19.851615619482367"><ele>175.0</ele><time>2026-05-04T13:01:13Z</time></trkpt><trkpt lat="42.120945350879026" lon="19.851539065682104"><ele>175.0</ele><time>2026-05-04T13:01:15Z</time></trkpt><trkpt lat="42.12090106215148" lon="19.85146250873957"><ele>175.0</ele><time>2026-05-04T13:01:17Z</time></trkpt><trkpt lat="42.12085290594871" lon="19.851383678357248"><ele>175.0</ele><time>2026-05-04T13:01:19Z</time></trkpt><trkpt lat="42.120807204577815" lon="19.851305283058256"><ele>175.0</ele><time>2026-05-04T13:01:21Z</time></trkpt><trkpt lat="42.12076039438767" lon="19.85122620417909"><ele>175.0</ele><time>2026-05-04T13:01:23Z</time></trkpt><trkpt lat="42.1207126521214" lon="19.851150545723875"><ele>175.0</ele><time>2026-05-04T13:01:25Z</time></trkpt><trkpt lat="42.120667364039484" lon="19.85107454768139"><ele>175.0</ele><time>2026-05-04T13:01:27Z</time></trkpt><trkpt lat="42.120622181892244" lon="19.850998422587377"><ele>175.0</ele><time>2026-05-04T13:01:29Z</time></trkpt><trkpt lat="42.12057669148051" lon="19.850920509196538"><ele>175.0</ele><time>2026-05-04T13:01:31Z</time></trkpt><trkpt lat="42.12053294225405" lon="19.85084286429101"><ele>175.0</ele><time>2026-05-04T13:01:33Z</time></trkpt><trkpt lat="42.12049022234189" lon="19.850764078281593"><ele>175.0</ele><time>2026-05-04T13:01:35Z</time></trkpt><trkpt lat="42.12044447318002" lon="19.850688679528698"><ele>175.0</ele><time>2026-05-04T13:01:37Z</time></trkpt><trkpt lat="42.120402486041044" lon="19.850609592508967"><ele>175.0</ele><time>2026-05-04T13:01:39Z</time></trkpt><trkpt lat="42.12035993760996" lon="19.85053315775904"><ele>175.0</ele><time>2026-05-04T13:01:41Z</time></trkpt><trkpt lat="42.120317843309294" lon="19.850455529957756"><ele>175.0</ele><time>2026-05-04T13:01:43Z</time></trkpt><trkpt lat="42.12027583989177" lon="19.85037826227494"><ele>175.0</ele><time>2026-05-04T13:01:45Z</time></trkpt><trkpt lat="42.12023408159054" lon="19.850300091869265"><ele>175.0</ele><time>2026-05-04T13:01:47Z</time></trkpt><trkpt lat="42.12019221691822" lon="19.850221758625082"><ele>175.0</ele><time>2026-05-04T13:01:49Z</time></trkpt><trkpt lat="42.12014880869734" lon="19.850145259464462"><ele>175.0</ele><time>2026-05-04T13:01:51Z</time></trkpt><trkpt lat="42.12010911799637" lon="19.85006298463995"><ele>175.0</ele><time>2026-05-04T13:01:53Z</time></trkpt><trkpt lat="42.12006856534684" lon="19.849981758020846"><ele>175.0</ele><time>2026-05-04T13:01:55Z</time></trkpt><trkpt lat="42.120027967803054" lon="19.84989837950645"><ele>175.0</ele><time>2026-05-04T13:01:57Z</time></trkpt><trkpt lat="42.119988327778685" lon="19.84981431063555"><ele>175.0</ele><time>2026-05-04T13:01:59Z</time></trkpt><trkpt lat="42.119949055364195" lon="19.849729142656283"><ele>175.0</ele><time>2026-05-04T13:02:01Z</time></trkpt><trkpt lat="42.11990993379445" lon="19.849642306616957"><ele>175.0</ele><time>2026-05-04T13:02:03Z</time></trkpt><trkpt lat="42.1198721652779" lon="19.849556908384965"><ele>175.0</ele><time>2026-05-04T13:02:05Z</time></trkpt><trkpt lat="42.11983499408826" lon="19.84947057680996"><ele>175.0</ele><time>2026-05-04T13:02:07Z</time></trkpt><trkpt lat="42.119798313432355" lon="19.849383081166952"><ele>175.0</ele><time>2026-05-04T13:02:09Z</time></trkpt><trkpt lat="42.11976215480881" lon="19.849297121146694"><ele>175.0</ele><time>2026-05-04T13:02:11Z</time></trkpt><trkpt lat="42.11972689135236" lon="19.849209235205148"><ele>175.0</ele><time>2026-05-04T13:02:13Z</time></trkpt><trkpt lat="42.11969211932063" lon="19.849122795664055"><ele>175.0</ele><time>2026-05-04T13:02:15Z</time></trkpt><trkpt lat="42.119656975838616" lon="19.84903469876423"><ele>175.0</ele><time>2026-05-04T13:02:17Z</time></trkpt><trkpt lat="42.11962243591985" lon="19.848947327327608"><ele>175.0</ele><time>2026-05-04T13:02:19Z</time></trkpt><trkpt lat="42.119587962222504" lon="19.84885858402311"><ele>175.0</ele><time>2026-05-04T13:02:21Z</time></trkpt><trkpt lat="42.1195531655581" lon="19.848769370984062"><ele>175.0</ele><time>2026-05-04T13:02:23Z</time></trkpt><trkpt lat="42.119519389635045" lon="19.848683422373234"><ele>175.0</ele><time>2026-05-04T13:02:25Z</time></trkpt><trkpt lat="42.119485984716405" lon="19.848596735705822"><ele>175.0</ele><time>2026-05-04T13:02:27Z</time></trkpt><trkpt lat="42.119453668938306" lon="19.848505958347946"><ele>175.0</ele><time>2026-05-04T13:02:29Z</time></trkpt><trkpt lat="42.119420425708874" lon="19.848416256519286"><ele>175.0</ele><time>2026-05-04T13:02:31Z</time></trkpt><trkpt lat="42.11938596108551" lon="19.848325578042918"><ele>175.0</ele><time>2026-05-04T13:02:33Z</time></trkpt><trkpt lat="42.119352983590026" lon="19.848237250826692"><ele>175.0</ele><time>2026-05-04T13:02:35Z</time></trkpt><trkpt lat="42.11932056719379" lon="19.848147332967624"><ele>175.0</ele><time>2026-05-04T13:02:37Z</time></trkpt><trkpt lat="42.119288091439664" lon="19.848056098377885"><ele>175.0</ele><time>2026-05-04T13:02:39Z</time></trkpt><trkpt lat="42.11925650359034" lon="19.847966390747818"><ele>175.0</ele><time>2026-05-04T13:02:41Z</time></trkpt><trkpt lat="42.11922549673246" lon="19.84787519297858"><ele>175.0</ele><time>2026-05-04T13:02:43Z</time></trkpt><trkpt lat="42.11919470747459" lon="19.847784035113236"><ele>175.0</ele><time>2026-05-04T13:02:45Z</time></trkpt><trkpt lat="42.11916469342765" lon="19.847692796914057"><ele>175.0</ele><time>2026-05-04T13:02:47Z</time></trkpt><trkpt lat="42.11913569499841" lon="19.847600459845005"><ele>175.0</ele><time>2026-05-04T13:02:49Z</time></trkpt><trkpt lat="42.11910776895137" lon="19.84750725669188"><ele>175.0</ele><time>2026-05-04T13:02:51Z</time></trkpt><trkpt lat="42.11908103601245" lon="19.847414790029966"><ele>175.0</ele><time>2026-05-04T13:02:53Z</time></trkpt><trkpt lat="42.11905400467942" lon="19.847321877227486"><ele>175.0</ele><time>2026-05-04T13:02:55Z</time></trkpt><trkpt lat="42.11902848575343" lon="19.84722700078667"><ele>175.0</ele><time>2026-05-04T13:02:57Z</time></trkpt><trkpt lat="42.1190045710883" lon="19.84713111529464"><ele>175.0</ele><time>2026-05-04T13:02:59Z</time></trkpt><trkpt lat="42.11898107193078" lon="19.847035435655233"><ele>175.0</ele><time>2026-05-04T13:03:01Z</time></trkpt><trkpt lat="42.11895847020945" lon="19.84693927209715"><ele>175.0</ele><time>2026-05-04T13:03:03Z</time></trkpt><trkpt lat="42.11893625493131" lon="19.846844065603882"><ele>175.0</ele><time>2026-05-04T13:03:05Z</time></trkpt><trkpt lat="42.1189148734389" lon="19.84674901437296"><ele>175.0</ele><time>2026-05-04T13:03:07Z</time></trkpt><trkpt lat="42.118894187373506" lon="19.846656341535653"><ele>175.0</ele><time>2026-05-04T13:03:09Z</time></trkpt><trkpt lat="42.118873881119576" lon="19.846561883200966"><ele>175.0</ele><time>2026-05-04T13:03:11Z</time></trkpt><trkpt lat="42.11885428381309" lon="19.846463626295098"><ele>175.0</ele><time>2026-05-04T13:03:13Z</time></trkpt><trkpt lat="42.1188355190699" lon="19.846368310418114"><ele>175.0</ele><time>2026-05-04T13:03:15Z</time></trkpt><trkpt lat="42.11881798036578" lon="19.846271814841174"><ele>175.0</ele><time>2026-05-04T13:03:17Z</time></trkpt><trkpt lat="42.11880276143595" lon="19.846176904691013"><ele>175.0</ele><time>2026-05-04T13:03:19Z</time></trkpt><trkpt lat="42.11878381060393" lon="19.846080118641368"><ele>175.0</ele><time>2026-05-04T13:03:21Z</time></trkpt><trkpt lat="42.118767333435144" lon="19.845985106527337"><ele>175.0</ele><time>2026-05-04T13:03:23Z</time></trkpt><trkpt lat="42.11875085596309" lon="19.845887838136736"><ele>175.0</ele><time>2026-05-04T13:03:25Z</time></trkpt><trkpt lat="42.11873529307538" lon="19.845791731684603"><ele>175.0</ele><time>2026-05-04T13:03:27Z</time></trkpt><trkpt lat="42.1187199109798" lon="19.84569591820552"><ele>175.0</ele><time>2026-05-04T13:03:29Z</time></trkpt><trkpt lat="42.11870457180274" lon="19.84560068391505"><ele>175.0</ele><time>2026-05-04T13:03:31Z</time></trkpt><trkpt lat="42.118689750182575" lon="19.84550317727087"><ele>175.0</ele><time>2026-05-04T13:03:33Z</time></trkpt><trkpt lat="42.118675727807634" lon="19.845406254428184"><ele>175.0</ele><time>2026-05-04T13:03:35Z</time></trkpt><trkpt lat="42.11866263304784" lon="19.84530734516931"><ele>175.0</ele><time>2026-05-04T13:03:37Z</time></trkpt><trkpt lat="42.11864713271902" lon="19.845212193366745"><ele>175.0</ele><time>2026-05-04T13:03:39Z</time></trkpt><trkpt lat="42.11863375641955" lon="19.84511751783992"><ele>175.0</ele><time>2026-05-04T13:03:41Z</time></trkpt><trkpt lat="42.11862030515773" lon="19.845024628802296"><ele>175.0</ele><time>2026-05-04T13:03:43Z</time></trkpt><trkpt lat="42.11860789578727" lon="19.84493200587118"><ele>175.0</ele><time>2026-05-04T13:03:45Z</time></trkpt><trkpt lat="42.11859554540811" lon="19.844838186274977"><ele>175.0</ele><time>2026-05-04T13:03:47Z</time></trkpt><trkpt lat="42.11858347746491" lon="19.844741637641157"><ele>175.0</ele><time>2026-05-04T13:03:49Z</time></trkpt><trkpt lat="42.118571566336364" lon="19.844644107550327"><ele>175.0</ele><time>2026-05-04T13:03:51Z</time></trkpt><trkpt lat="42.1185596009361" lon="19.8445455854113"><ele>175.0</ele><time>2026-05-04T13:03:53Z</time></trkpt><trkpt lat="42.11854701187064" lon="19.844448146298706"><ele>175.0</ele><time>2026-05-04T13:03:55Z</time></trkpt><trkpt lat="42.11853524955775" lon="19.84435055105714"><ele>175.0</ele><time>2026-05-04T13:03:57Z</time></trkpt><trkpt lat="42.118523612636004" lon="19.84425183292276"><ele>175.0</ele><time>2026-05-04T13:03:59Z</time></trkpt><trkpt lat="42.11851336934217" lon="19.844153179336054"><ele>175.0</ele><time>2026-05-04T13:04:01Z</time></trkpt><trkpt lat="42.118504342778046" lon="19.84405538547917"><ele>175.0</ele><time>2026-05-04T13:04:03Z</time></trkpt><trkpt lat="42.11849540813999" lon="19.843957257536147"><ele>175.0</ele><time>2026-05-04T13:04:05Z</time></trkpt><trkpt lat="42.118485934405214" lon="19.843860886312598"><ele>175.0</ele><time>2026-05-04T13:04:07Z</time></trkpt><trkpt lat="42.11847773695702" lon="19.843762597931672"><ele>175.0</ele><time>2026-05-04T13:04:09Z</time></trkpt><trkpt lat="42.11846966725261" lon="19.84366559433737"><ele>175.0</ele><time>2026-05-04T13:04:11Z</time></trkpt><trkpt lat="42.11846102299258" lon="19.84356878837262"><ele>175.0</ele><time>2026-05-04T13:04:13Z</time></trkpt><trkpt lat="42.11845214995437" lon="19.843469900927747"><ele>175.0</ele><time>2026-05-04T13:04:15Z</time></trkpt><trkpt lat="42.1184442084055" lon="19.843372102064723"><ele>175.0</ele><time>2026-05-04T13:04:17Z</time></trkpt><trkpt lat="42.11843582711276" lon="19.84327516371237"><ele>175.0</ele><time>2026-05-04T13:04:19Z</time></trkpt><trkpt lat="42.11842845137041" lon="19.843174970937937"><ele>175.0</ele><time>2026-05-04T13:04:21Z</time></trkpt><trkpt lat="42.118420303095604" lon="19.843078512192186"><ele>175.0</ele><time>2026-05-04T13:04:23Z</time></trkpt><trkpt lat="42.11841150392603" lon="19.842980297910252"><ele>175.0</ele><time>2026-05-04T13:04:25Z</time></trkpt><trkpt lat="42.118403305062294" lon="19.842883590961936"><ele>175.0</ele><time>2026-05-04T13:04:27Z</time></trkpt><trkpt lat="42.11839611985225" lon="19.84278475174383"><ele>175.0</ele><time>2026-05-04T13:04:29Z</time></trkpt><trkpt lat="42.118389246540715" lon="19.842689646531838"><ele>175.0</ele><time>2026-05-04T13:04:31Z</time></trkpt><trkpt lat="42.118384436248725" lon="19.842591068184444"><ele>175.0</ele><time>2026-05-04T13:04:33Z</time></trkpt><trkpt lat="42.118378507606245" lon="19.84249307357216"><ele>175.0</ele><time>2026-05-04T13:04:35Z</time></trkpt><trkpt lat="42.11837083450991" lon="19.84239410692037"><ele>175.0</ele><time>2026-05-04T13:04:37Z</time></trkpt><trkpt lat="42.118362492127844" lon="19.842293030145676"><ele>175.0</ele><time>2026-05-04T13:04:39Z</time></trkpt><trkpt lat="42.11835620994294" lon="19.842191723366522"><ele>175.0</ele><time>2026-05-04T13:04:41Z</time></trkpt><trkpt lat="42.11834929753826" lon="19.842090440718753"><ele>175.0</ele><time>2026-05-04T13:04:43Z</time></trkpt><trkpt lat="42.118342914345654" lon="19.84199118816782"><ele>175.0</ele><time>2026-05-04T13:04:45Z</time></trkpt><trkpt lat="42.118336231633215" lon="19.841893315017934"><ele>175.0</ele><time>2026-05-04T13:04:47Z</time></trkpt><trkpt lat="42.11832982073766" lon="19.841794968975393"><ele>175.0</ele><time>2026-05-04T13:04:49Z</time></trkpt><trkpt lat="42.11832490148877" lon="19.841693712890102"><ele>175.0</ele><time>2026-05-04T13:04:51Z</time></trkpt><trkpt lat="42.11831953557205" lon="19.84159569744793"><ele>175.0</ele><time>2026-05-04T13:04:53Z</time></trkpt><trkpt lat="42.118314420311336" lon="19.84149780750654"><ele>175.0</ele><time>2026-05-04T13:04:55Z</time></trkpt><trkpt lat="42.118310311482986" lon="19.84139887761901"><ele>175.0</ele><time>2026-05-04T13:04:57Z</time></trkpt><trkpt lat="42.11830701464151" lon="19.841301592382433"><ele>175.0</ele><time>2026-05-04T13:04:59Z</time></trkpt><trkpt lat="42.118303847291706" lon="19.841204430462984"><ele>175.0</ele><time>2026-05-04T13:05:01Z</time></trkpt><trkpt lat="42.1183016329149" lon="19.841106390343164"><ele>175.0</ele><time>2026-05-04T13:05:03Z</time></trkpt><trkpt lat="42.11829879279935" lon="19.84100896705953"><ele>175.0</ele><time>2026-05-04T13:05:05Z</time></trkpt><trkpt lat="42.118295827122886" lon="19.840911318489617"><ele>175.0</ele><time>2026-05-04T13:05:07Z</time></trkpt><trkpt lat="42.11829302784677" lon="19.84081436242537"><ele>175.0</ele><time>2026-05-04T13:05:09Z</time></trkpt><trkpt lat="42.11829026529409" lon="19.84071870360775"><ele>175.0</ele><time>2026-05-04T13:05:11Z</time></trkpt><trkpt lat="42.118287197916274" lon="19.840623932939263"><ele>175.0</ele><time>2026-05-04T13:05:13Z</time></trkpt><trkpt lat="42.11828552400043" lon="19.84052674215676"><ele>175.0</ele><time>2026-05-04T13:05:15Z</time></trkpt><trkpt lat="42.11828472962718" lon="19.84042939998573"><ele>175.0</ele><time>2026-05-04T13:05:17Z</time></trkpt><trkpt lat="42.11828354404019" lon="19.840332463617152"><ele>175.0</ele><time>2026-05-04T13:05:19Z</time></trkpt><trkpt lat="42.118281389145665" lon="19.840234869372765"><ele>175.0</ele><time>2026-05-04T13:05:21Z</time></trkpt><trkpt lat="42.11827958391363" lon="19.840136377204605"><ele>175.0</ele><time>2026-05-04T13:05:23Z</time></trkpt><trkpt lat="42.11827708181168" lon="19.840037300328063"><ele>175.0</ele><time>2026-05-04T13:05:25Z</time></trkpt><trkpt lat="42.118275188016014" lon="19.839938525361717"><ele>175.0</ele><time>2026-05-04T13:05:27Z</time></trkpt><trkpt lat="42.118272245099995" lon="19.839838483737555"><ele>175.0</ele><time>2026-05-04T13:05:29Z</time></trkpt><trkpt lat="42.118268030249325" lon="19.83974035255426"><ele>175.0</ele><time>2026-05-04T13:05:31Z</time></trkpt><trkpt lat="42.11826537002297" lon="19.83964238435702"><ele>175.0</ele><time>2026-05-04T13:05:33Z</time></trkpt><trkpt lat="42.118263220836475" lon="19.839544056981865"><ele>175.0</ele><time>2026-05-04T13:05:35Z</time></trkpt><trkpt lat="42.11826028360517" lon="19.839445469811785"><ele>175.0</ele><time>2026-05-04T13:05:37Z</time></trkpt><trkpt lat="42.1182561883998" lon="19.839344169427164"><ele>175.0</ele><time>2026-05-04T13:05:39Z</time></trkpt><trkpt lat="42.11825191639045" lon="19.839204033723767"><ele>175.0</ele><time>2026-05-04T13:05:42Z</time></trkpt><trkpt lat="42.11824708775321" lon="19.839006394747752"><ele>175.0</ele><time>2026-05-04T13:05:46Z</time></trkpt><trkpt lat="42.1182424660983" lon="19.83890115273098"><ele>175.0</ele><time>2026-05-04T13:05:49.001Z</time></trkpt><trkpt lat="42.118239559590684" lon="19.83879156859595"><ele>175.0</ele><time>2026-05-04T13:05:51.001Z</time></trkpt><trkpt lat="42.118236168276404" lon="19.838689160636598"><ele>175.0</ele><time>2026-05-04T13:05:53.001Z</time></trkpt><trkpt lat="42.118234696107415" lon="19.838593050120735"><ele>175.0</ele><time>2026-05-04T13:05:55.001Z</time></trkpt><trkpt lat="42.11823254762475" lon="19.8384652653037"><ele>175.0</ele><time>2026-05-04T13:05:57.001Z</time></trkpt><trkpt lat="42.11823146216081" lon="19.838366905574496"><ele>175.0</ele><time>2026-05-04T13:05:59.001Z</time></trkpt><trkpt lat="42.11823052860348" lon="19.838271644275718"><ele>175.0</ele><time>2026-05-04T13:06:01.001Z</time></trkpt><trkpt lat="42.11823017148437" lon="19.838178953537636"><ele>175.0</ele><time>2026-05-04T13:06:03.001Z</time></trkpt><trkpt lat="42.1182286139438" lon="19.838079755677803"><ele>175.0</ele><time>2026-05-04T13:06:05.001Z</time></trkpt><trkpt lat="42.118226730328225" lon="19.837974254292355"><ele>175.0</ele><time>2026-05-04T13:06:08.001Z</time></trkpt><trkpt lat="42.118222503551245" lon="19.837827281879317"><ele>175.0</ele><time>2026-05-04T13:06:10.001Z</time></trkpt><trkpt lat="42.11821949152243" lon="19.83773064276168"><ele>175.0</ele><time>2026-05-04T13:06:12Z</time></trkpt><trkpt lat="42.118215153560804" lon="19.83763313369841"><ele>175.0</ele><time>2026-05-04T13:06:14Z</time></trkpt><trkpt lat="42.11821221010697" lon="19.837534492953793"><ele>175.0</ele><time>2026-05-04T13:06:16Z</time></trkpt><trkpt lat="42.11821000162685" lon="19.83743317223309"><ele>175.0</ele><time>2026-05-04T13:06:18Z</time></trkpt><trkpt lat="42.11820730782571" lon="19.837331443208825"><ele>175.0</ele><time>2026-05-04T13:06:20Z</time></trkpt><trkpt lat="42.11820317826762" lon="19.837231578866398"><ele>175.0</ele><time>2026-05-04T13:06:22Z</time></trkpt><trkpt lat="42.118200169203874" lon="19.837132352727533"><ele>175.0</ele><time>2026-05-04T13:06:24Z</time></trkpt><trkpt lat="42.11819644123959" lon="19.83703232822885"><ele>175.0</ele><time>2026-05-04T13:06:26Z</time></trkpt><trkpt lat="42.118192447149134" lon="19.836932755259912"><ele>175.0</ele><time>2026-05-04T13:06:28Z</time></trkpt><trkpt lat="42.11818789319711" lon="19.836831060307187"><ele>175.0</ele><time>2026-05-04T13:06:30Z</time></trkpt><trkpt lat="42.11818274656447" lon="19.836730248135524"><ele>175.0</ele><time>2026-05-04T13:06:32Z</time></trkpt><trkpt lat="42.118177704179026" lon="19.836629824683563"><ele>175.0</ele><time>2026-05-04T13:06:34Z</time></trkpt><trkpt lat="42.1181730109326" lon="19.83653047084842"><ele>175.0</ele><time>2026-05-04T13:06:36Z</time></trkpt><trkpt lat="42.11816747214034" lon="19.83643051706025"><ele>175.0</ele><time>2026-05-04T13:06:38Z</time></trkpt><trkpt lat="42.118162055817514" lon="19.836330730752213"><ele>175.0</ele><time>2026-05-04T13:06:40Z</time></trkpt><trkpt lat="42.11815702169651" lon="19.8362331889559"><ele>175.0</ele><time>2026-05-04T13:06:42Z</time></trkpt><trkpt lat="42.11815227888865" lon="19.836135344706975"><ele>175.0</ele><time>2026-05-04T13:06:44Z</time></trkpt><trkpt lat="42.118147911118534" lon="19.83604450496534"><ele>175.0</ele><time>2026-05-04T13:06:47Z</time></trkpt><trkpt lat="42.11814274985749" lon="19.835939182851103"><ele>175.0</ele><time>2026-05-04T13:06:49Z</time></trkpt><trkpt lat="42.1181377668465" lon="19.835851443597825"><ele>175.0</ele><time>2026-05-04T13:06:51Z</time></trkpt><trkpt lat="42.118128557595234" lon="19.835704282150996"><ele>175.0</ele><time>2026-05-04T13:06:53Z</time></trkpt><trkpt lat="42.118121995551306" lon="19.835610150979367"><ele>175.0</ele><time>2026-05-04T13:06:55Z</time></trkpt><trkpt lat="42.11811635883257" lon="19.835513785307043"><ele>175.0</ele><time>2026-05-04T13:06:57Z</time></trkpt><trkpt lat="42.118110985647206" lon="19.83541538860498"><ele>175.0</ele><time>2026-05-04T13:06:59Z</time></trkpt><trkpt lat="42.11810587621123" lon="19.8353172461867"><ele>175.0</ele><time>2026-05-04T13:07:01Z</time></trkpt><trkpt lat="42.11809992425711" lon="19.835218389095843"><ele>175.0</ele><time>2026-05-04T13:07:03Z</time></trkpt><trkpt lat="42.11809316633351" lon="19.83512488804702"><ele>175.0</ele><time>2026-05-04T13:07:05Z</time></trkpt><trkpt lat="42.11808615038538" lon="19.83502927062535"><ele>175.0</ele><time>2026-05-04T13:07:07Z</time></trkpt><trkpt lat="42.11807884550932" lon="19.834933323887864"><ele>175.0</ele><time>2026-05-04T13:07:09Z</time></trkpt><trkpt lat="42.11807155059338" lon="19.83483573003332"><ele>175.0</ele><time>2026-05-04T13:07:11Z</time></trkpt><trkpt lat="42.118064071222946" lon="19.834740216962846"><ele>175.0</ele><time>2026-05-04T13:07:13Z</time></trkpt><trkpt lat="42.11805626010549" lon="19.834644362805488"><ele>175.0</ele><time>2026-05-04T13:07:15Z</time></trkpt><trkpt lat="42.11804599961176" lon="19.834551814238647"><ele>175.0</ele><time>2026-05-04T13:07:17Z</time></trkpt><trkpt lat="42.118032714685995" lon="19.834463211494487"><ele>175.0</ele><time>2026-05-04T13:07:19Z</time></trkpt><trkpt lat="42.11802481590373" lon="19.834365856511806"><ele>175.0</ele><time>2026-05-04T13:07:21Z</time></trkpt><trkpt lat="42.11801434891893" lon="19.834269002062676"><ele>175.0</ele><time>2026-05-04T13:07:23Z</time></trkpt><trkpt lat="42.11800311793296" lon="19.83417016160286"><ele>175.0</ele><time>2026-05-04T13:07:25Z</time></trkpt><trkpt lat="42.117990277932655" lon="19.834071347405395"><ele>175.0</ele><time>2026-05-04T13:07:27Z</time></trkpt><trkpt lat="42.11797616723213" lon="19.833974498756987"><ele>175.0</ele><time>2026-05-04T13:07:29Z</time></trkpt><trkpt lat="42.117961753541" lon="19.833878040912808"><ele>175.0</ele><time>2026-05-04T13:07:31Z</time></trkpt><trkpt lat="42.117946191757994" lon="19.833781559303233"><ele>175.0</ele><time>2026-05-04T13:07:33Z</time></trkpt><trkpt lat="42.117930061734356" lon="19.833687222995792"><ele>175.0</ele><time>2026-05-04T13:07:35Z</time></trkpt><trkpt lat="42.11791215096266" lon="19.833593022972938"><ele>175.0</ele><time>2026-05-04T13:07:37Z</time></trkpt><trkpt lat="42.117892876437054" lon="19.833500187752676"><ele>175.0</ele><time>2026-05-04T13:07:39Z</time></trkpt><trkpt lat="42.11787130856251" lon="19.833407826067443"><ele>175.0</ele><time>2026-05-04T13:07:41Z</time></trkpt><trkpt lat="42.11784872042823" lon="19.833317444025585"><ele>175.0</ele><time>2026-05-04T13:07:43Z</time></trkpt><trkpt lat="42.117824516338835" lon="19.83322803956931"><ele>175.0</ele><time>2026-05-04T13:07:45Z</time></trkpt><trkpt lat="42.117798818370574" lon="19.83313899100402"><ele>175.0</ele><time>2026-05-04T13:07:47Z</time></trkpt><trkpt lat="42.117726002697516" lon="19.832920130545897"><ele>175.0</ele><time>2026-05-04T13:07:52Z</time></trkpt><trkpt lat="42.117695755402636" lon="19.832837401376043"><ele>175.0</ele><time>2026-05-04T13:07:54Z</time></trkpt><trkpt lat="42.117662097690165" lon="19.832756536716342"><ele>175.0</ele><time>2026-05-04T13:07:56Z</time></trkpt><trkpt lat="42.117625997280584" lon="19.832676414123114"><ele>175.0</ele><time>2026-05-04T13:07:58Z</time></trkpt><trkpt lat="42.11758809732005" lon="19.832599049844195"><ele>175.0</ele><time>2026-05-04T13:08:00Z</time></trkpt><trkpt lat="42.117549333276266" lon="19.832523286452133"><ele>175.0</ele><time>2026-05-04T13:08:02Z</time></trkpt><trkpt lat="42.11750822239622" lon="19.83245039566847"><ele>175.0</ele><time>2026-05-04T13:08:04Z</time></trkpt><trkpt lat="42.11746618528628" lon="19.83237737144598"><ele>175.0</ele><time>2026-05-04T13:08:06Z</time></trkpt><trkpt lat="42.11742198220056" lon="19.832307188041096"><ele>175.0</ele><time>2026-05-04T13:08:08Z</time></trkpt><trkpt lat="42.11737610465944" lon="19.83223731426745"><ele>175.0</ele><time>2026-05-04T13:08:10Z</time></trkpt><trkpt lat="42.117330355819" lon="19.83216855542306"><ele>175.0</ele><time>2026-05-04T13:08:12Z</time></trkpt><trkpt lat="42.11728297039967" lon="19.832102186891806"><ele>175.0</ele><time>2026-05-04T13:08:14Z</time></trkpt><trkpt lat="42.1172347877706" lon="19.83203673435864"><ele>175.0</ele><time>2026-05-04T13:08:16Z</time></trkpt><trkpt lat="42.11718544826298" lon="19.831973077923852"><ele>175.0</ele><time>2026-05-04T13:08:18Z</time></trkpt><trkpt lat="42.11713478323779" lon="19.831912249778217"><ele>175.0</ele><time>2026-05-04T13:08:20Z</time></trkpt><trkpt lat="42.11708320369964" lon="19.83185199250939"><ele>175.0</ele><time>2026-05-04T13:08:22Z</time></trkpt><trkpt lat="42.11703058186035" lon="19.831792913919067"><ele>175.0</ele><time>2026-05-04T13:08:24Z</time></trkpt><trkpt lat="42.11697679252086" lon="19.831735397416367"><ele>175.0</ele><time>2026-05-04T13:08:26Z</time></trkpt><trkpt lat="42.11692221596142" lon="19.831678992541196"><ele>175.0</ele><time>2026-05-04T13:08:28Z</time></trkpt><trkpt lat="42.11686576517733" lon="19.831623126563855"><ele>175.0</ele><time>2026-05-04T13:08:30Z</time></trkpt><trkpt lat="42.11680828107537" lon="19.83157051370988"><ele>175.0</ele><time>2026-05-04T13:08:32Z</time></trkpt><trkpt lat="42.11675221934905" lon="19.831517209619925"><ele>175.0</ele><time>2026-05-04T13:08:34Z</time></trkpt><trkpt lat="42.116696061560965" lon="19.831464708749976"><ele>175.0</ele><time>2026-05-04T13:08:36Z</time></trkpt><trkpt lat="42.116638282967344" lon="19.83141330058794"><ele>175.0</ele><time>2026-05-04T13:08:38Z</time></trkpt><trkpt lat="42.116580357355026" lon="19.83136378190269"><ele>175.0</ele><time>2026-05-04T13:08:40Z</time></trkpt><trkpt lat="42.11652186328075" lon="19.831313968846942"><ele>175.0</ele><time>2026-05-04T13:08:42Z</time></trkpt><trkpt lat="42.11646290419649" lon="19.83126513877999"><ele>175.0</ele><time>2026-05-04T13:08:44Z</time></trkpt><trkpt lat="42.11640362542549" lon="19.831215911082186"><ele>175.0</ele><time>2026-05-04T13:08:46Z</time></trkpt><trkpt lat="42.1163435108149" lon="19.83116672999121"><ele>175.0</ele><time>2026-05-04T13:08:48Z</time></trkpt><trkpt lat="42.116282464121134" lon="19.831120605208678"><ele>175.0</ele><time>2026-05-04T13:08:50Z</time></trkpt><trkpt lat="42.11622213459361" lon="19.831072766907276"><ele>175.0</ele><time>2026-05-04T13:08:52Z</time></trkpt><trkpt lat="42.116161152935554" lon="19.8310270508016"><ele>175.0</ele><time>2026-05-04T13:08:54Z</time></trkpt><trkpt lat="42.11610420641668" lon="19.83098689241972"><ele>175.0</ele><time>2026-05-04T13:08:56Z</time></trkpt><trkpt lat="42.116050215681994" lon="19.83093139199452"><ele>175.0</ele><time>2026-05-04T13:08:58Z</time></trkpt><trkpt lat="42.11599466699542" lon="19.830878020276266"><ele>175.0</ele><time>2026-05-04T13:09:00Z</time></trkpt><trkpt lat="42.1159277151871" lon="19.83083127586629"><ele>175.0</ele><time>2026-05-04T13:09:02Z</time></trkpt><trkpt lat="42.11586554138749" lon="19.830784870409694"><ele>175.0</ele><time>2026-05-04T13:09:04Z</time></trkpt><trkpt lat="42.115799243794385" lon="19.830737773383245"><ele>175.0</ele><time>2026-05-04T13:09:06Z</time></trkpt><trkpt lat="42.115738954026725" lon="19.8306918914635"><ele>175.0</ele><time>2026-05-04T13:09:08Z</time></trkpt><trkpt lat="42.11567573306721" lon="19.83064751696073"><ele>175.0</ele><time>2026-05-04T13:09:10Z</time></trkpt><trkpt lat="42.1156142380211" lon="19.830603685505693"><ele>175.0</ele><time>2026-05-04T13:09:12Z</time></trkpt><trkpt lat="42.115550670758246" lon="19.83055575036656"><ele>175.0</ele><time>2026-05-04T13:09:14Z</time></trkpt><trkpt lat="42.1154856619106" lon="19.830511555268124"><ele>175.0</ele><time>2026-05-04T13:09:16Z</time></trkpt><trkpt lat="42.11542179335545" lon="19.83046935219327"><ele>175.0</ele><time>2026-05-04T13:09:18Z</time></trkpt><trkpt lat="42.115358736665726" lon="19.830423764402493"><ele>175.0</ele><time>2026-05-04T13:09:20Z</time></trkpt><trkpt lat="42.11529336005793" lon="19.830387445329208"><ele>175.0</ele><time>2026-05-04T13:09:22Z</time></trkpt><trkpt lat="42.11522992543695" lon="19.830345925661774"><ele>175.0</ele><time>2026-05-04T13:09:24Z</time></trkpt><trkpt lat="42.11516690360613" lon="19.830302327052557"><ele>175.0</ele><time>2026-05-04T13:09:26Z</time></trkpt><trkpt lat="42.11510210189074" lon="19.830262357481615"><ele>175.0</ele><time>2026-05-04T13:09:28Z</time></trkpt><trkpt lat="42.11503714090381" lon="19.830223429068372"><ele>175.0</ele><time>2026-05-04T13:09:30Z</time></trkpt><trkpt lat="42.11497169410185" lon="19.83018414382892"><ele>175.0</ele><time>2026-05-04T13:09:32Z</time></trkpt><trkpt lat="42.1149061874662" lon="19.830145174501776"><ele>175.0</ele><time>2026-05-04T13:09:34Z</time></trkpt><trkpt lat="42.11483945154089" lon="19.830106038930754"><ele>175.0</ele><time>2026-05-04T13:09:36Z</time></trkpt><trkpt lat="42.11477354807655" lon="19.830069470960183"><ele>175.0</ele><time>2026-05-04T13:09:38Z</time></trkpt><trkpt lat="42.114708763003186" lon="19.830028720239643"><ele>175.0</ele><time>2026-05-04T13:09:40Z</time></trkpt><trkpt lat="42.11463535967594" lon="19.829993027445543"><ele>175.0</ele><time>2026-05-04T13:09:42Z</time></trkpt><trkpt lat="42.114571545771675" lon="19.829954060362365"><ele>175.0</ele><time>2026-05-04T13:09:44Z</time></trkpt><trkpt lat="42.11450840997616" lon="19.829917703304986"><ele>175.0</ele><time>2026-05-04T13:09:46Z</time></trkpt><trkpt lat="42.11444508066744" lon="19.82988082834936"><ele>175.0</ele><time>2026-05-04T13:09:48Z</time></trkpt><trkpt lat="42.114370483686294" lon="19.829840095060042"><ele>175.0</ele><time>2026-05-04T13:09:50Z</time></trkpt><trkpt lat="42.11430820201227" lon="19.829803132450923"><ele>175.0</ele><time>2026-05-04T13:09:52Z</time></trkpt><trkpt lat="42.11424285868979" lon="19.82976456817135"><ele>175.0</ele><time>2026-05-04T13:09:54Z</time></trkpt><trkpt lat="42.11417981214068" lon="19.829734095016374"><ele>175.0</ele><time>2026-05-04T13:09:56Z</time></trkpt><trkpt lat="42.11410904419321" lon="19.829695717990667"><ele>175.14285714285714</ele><time>2026-05-04T13:09:58Z</time></trkpt><trkpt lat="42.11404255281873" lon="19.829661499672778"><ele>175.28571428571428</ele><time>2026-05-04T13:10:00Z</time></trkpt><trkpt lat="42.113973283917176" lon="19.8296249688876"><ele>175.42857142857144</ele><time>2026-05-04T13:10:02Z</time></trkpt><trkpt lat="42.113904762764506" lon="19.829591045054553"><ele>175.57142857142856</ele><time>2026-05-04T13:10:04Z</time></trkpt><trkpt lat="42.113838277211926" lon="19.829557499352724"><ele>175.71428571428572</ele><time>2026-05-04T13:10:06Z</time></trkpt><trkpt lat="42.113770763463464" lon="19.829524329571157"><ele>175.85714285714286</ele><time>2026-05-04T13:10:08Z</time></trkpt><trkpt lat="42.113701957633275" lon="19.829490758007122"><ele>176.0</ele><time>2026-05-04T13:10:10Z</time></trkpt><trkpt lat="42.11363405940164" lon="19.829457684903964"><ele>176.0</ele><time>2026-05-04T13:10:12Z</time></trkpt><trkpt lat="42.11356509218905" lon="19.8294240721108"><ele>176.0</ele><time>2026-05-04T13:10:14Z</time></trkpt><trkpt lat="42.11349667786455" lon="19.829392380556268"><ele>176.0</ele><time>2026-05-04T13:10:16Z</time></trkpt><trkpt lat="42.11342814855185" lon="19.82936031414642"><ele>176.0</ele><time>2026-05-04T13:10:18Z</time></trkpt><trkpt lat="42.11335889947397" lon="19.82932797239028"><ele>176.0</ele><time>2026-05-04T13:10:20Z</time></trkpt><trkpt lat="42.11328994993564" lon="19.829296537445604"><ele>176.0</ele><time>2026-05-04T13:10:22Z</time></trkpt><trkpt lat="42.113221986649165" lon="19.82926207979897"><ele>176.0</ele><time>2026-05-04T13:10:24Z</time></trkpt><trkpt lat="42.11315373688459" lon="19.829228851602192"><ele>175.85714285714286</ele><time>2026-05-04T13:10:26Z</time></trkpt><trkpt lat="42.113085161880804" lon="19.82919468294557"><ele>175.71428571428572</ele><time>2026-05-04T13:10:28Z</time></trkpt><trkpt lat="42.1130162938623" lon="19.829162823800953"><ele>175.57142857142856</ele><time>2026-05-04T13:10:30Z</time></trkpt><trkpt lat="42.112948488074196" lon="19.829129367168292"><ele>175.42857142857144</ele><time>2026-05-04T13:10:32Z</time></trkpt><trkpt lat="42.11287967039606" lon="19.829094844776574"><ele>175.28571428571428</ele><time>2026-05-04T13:10:34Z</time></trkpt><trkpt lat="42.11281132507643" lon="19.8290606896432"><ele>175.14285714285714</ele><time>2026-05-04T13:10:36Z</time></trkpt><trkpt lat="42.11274143707792" lon="19.82902723271821"><ele>175.0</ele><time>2026-05-04T13:10:38Z</time></trkpt><trkpt lat="42.11267186456641" lon="19.82899327187603"><ele>175.0</ele><time>2026-05-04T13:10:40Z</time></trkpt><trkpt lat="42.11260270425597" lon="19.828958519088278"><ele>175.0</ele><time>2026-05-04T13:10:42Z</time></trkpt><trkpt lat="42.11253425098545" lon="19.82892356282968"><ele>175.0</ele><time>2026-05-04T13:10:44Z</time></trkpt><trkpt lat="42.112465342827996" lon="19.828888429872332"><ele>175.0</ele><time>2026-05-04T13:10:46Z</time></trkpt><trkpt lat="42.11239697725294" lon="19.828856133585127"><ele>175.0</ele><time>2026-05-04T13:10:48Z</time></trkpt><trkpt lat="42.112327345751545" lon="19.82882417854316"><ele>175.0</ele><time>2026-05-04T13:10:50Z</time></trkpt><trkpt lat="42.11225659764442" lon="19.828792246521502"><ele>175.0</ele><time>2026-05-04T13:10:52Z</time></trkpt><trkpt lat="42.11218798324528" lon="19.82875969897767"><ele>175.0</ele><time>2026-05-04T13:10:54Z</time></trkpt><trkpt lat="42.11211872247523" lon="19.82872718676529"><ele>175.0</ele><time>2026-05-04T13:10:56Z</time></trkpt><trkpt lat="42.11205138679737" lon="19.828694645733645"><ele>175.0</ele><time>2026-05-04T13:10:58Z</time></trkpt><trkpt lat="42.11198272025675" lon="19.828661874045153"><ele>175.0</ele><time>2026-05-04T13:11:00Z</time></trkpt><trkpt lat="42.11191612802687" lon="19.828625214720283"><ele>175.0</ele><time>2026-05-04T13:11:02Z</time></trkpt><trkpt lat="42.111847365187536" lon="19.82859259137512"><ele>175.0</ele><time>2026-05-04T13:11:04Z</time></trkpt><trkpt lat="42.11177953584841" lon="19.828559277713296"><ele>175.0</ele><time>2026-05-04T13:11:06Z</time></trkpt><trkpt lat="42.11171069786467" lon="19.8285270651622"><ele>175.0</ele><time>2026-05-04T13:11:08Z</time></trkpt><trkpt lat="42.11164539889043" lon="19.828493914081502"><ele>175.0</ele><time>2026-05-04T13:11:10Z</time></trkpt><trkpt lat="42.111578213904984" lon="19.828457048152604"><ele>175.0</ele><time>2026-05-04T13:11:12Z</time></trkpt><trkpt lat="42.111513053801964" lon="19.828424549632924"><ele>175.0</ele><time>2026-05-04T13:11:14Z</time></trkpt><trkpt lat="42.111448433005066" lon="19.82838840344622"><ele>175.0</ele><time>2026-05-04T13:11:16Z</time></trkpt><trkpt lat="42.111386033691204" lon="19.828354761747995"><ele>175.0</ele><time>2026-05-04T13:11:18Z</time></trkpt><trkpt lat="42.11132486630142" lon="19.828319294246604"><ele>175.0</ele><time>2026-05-04T13:11:20Z</time></trkpt><trkpt lat="42.11126435179611" lon="19.828284040469494"><ele>175.0</ele><time>2026-05-04T13:11:22Z</time></trkpt><trkpt lat="42.111203170224094" lon="19.828250425121347"><ele>175.0</ele><time>2026-05-04T13:11:24Z</time></trkpt><trkpt lat="42.111145110331115" lon="19.82821271359952"><ele>175.0</ele><time>2026-05-04T13:11:26Z</time></trkpt><trkpt lat="42.111059525216746" lon="19.828162693394884"><ele>175.0</ele><time>2026-05-04T13:11:29Z</time></trkpt><trkpt lat="42.11097596855869" lon="19.828112231718688"><ele>175.0</ele><time>2026-05-04T13:11:32Z</time></trkpt><trkpt lat="42.11089334409934" lon="19.828064037984547"><ele>175.0</ele><time>2026-05-04T13:11:35Z</time></trkpt><trkpt lat="42.1108111034019" lon="19.828016309197327"><ele>175.0</ele><time>2026-05-04T13:11:38Z</time></trkpt><trkpt lat="42.11073037677379" lon="19.827967094260575"><ele>175.0</ele><time>2026-05-04T13:11:41Z</time></trkpt><trkpt lat="42.11064870445964" lon="19.827918038790155"><ele>175.0</ele><time>2026-05-04T13:11:44Z</time></trkpt><trkpt lat="42.1105673507177" lon="19.827868961973206"><ele>175.0</ele><time>2026-05-04T13:11:47Z</time></trkpt><trkpt lat="42.110485935098126" lon="19.827818703831674"><ele>175.0</ele><time>2026-05-04T13:11:50Z</time></trkpt><trkpt lat="42.11040251813756" lon="19.82777074876117"><ele>175.0</ele><time>2026-05-04T13:11:53Z</time></trkpt><trkpt lat="42.110319822860745" lon="19.82771670538102"><ele>175.0</ele><time>2026-05-04T13:11:56Z</time></trkpt><trkpt lat="42.11023614693739" lon="19.827661475364728"><ele>175.0</ele><time>2026-05-04T13:11:59Z</time></trkpt><trkpt lat="42.11015153843342" lon="19.827604529302587"><ele>175.0</ele><time>2026-05-04T13:12:02Z</time></trkpt><trkpt lat="42.11009545177338" lon="19.82756480994564"><ele>175.0</ele><time>2026-05-04T13:12:04Z</time></trkpt><trkpt lat="42.11003859814452" lon="19.82752423622144"><ele>175.0</ele><time>2026-05-04T13:12:06Z</time></trkpt><trkpt lat="42.109959155331204" lon="19.82746575457328"><ele>175.0</ele><time>2026-05-04T13:12:09Z</time></trkpt><trkpt lat="42.10988331026599" lon="19.827411702767964"><ele>175.0</ele><time>2026-05-04T13:12:12Z</time></trkpt><trkpt lat="42.10981440880655" lon="19.827358323702676"><ele>175.0</ele><time>2026-05-04T13:12:15Z</time></trkpt><trkpt lat="42.10975029559768" lon="19.827304718957546"><ele>175.0</ele><time>2026-05-04T13:12:18Z</time></trkpt><trkpt lat="42.10969074156828" lon="19.827253740925627"><ele>175.0</ele><time>2026-05-04T13:12:21Z</time></trkpt><trkpt lat="42.10963340013734" lon="19.827204985968837"><ele>175.0</ele><time>2026-05-04T13:12:24Z</time></trkpt><trkpt lat="42.10957946213298" lon="19.827157375688344"><ele>175.0</ele><time>2026-05-04T13:12:27Z</time></trkpt><trkpt lat="42.10906838883047" lon="19.826626812472828"><ele>175.16666666666669</ele><time>2026-05-04T13:13:08.001Z</time></trkpt><trkpt lat="42.109021588853274" lon="19.826565701480373"><ele>175.33333333333334</ele><time>2026-05-04T13:13:17.001Z</time></trkpt><trkpt lat="42.10893211832334" lon="19.826474761731532"><ele>175.5</ele><time>2026-05-04T13:14:24.001Z</time></trkpt><trkpt lat="42.10889412656751" lon="19.826397566713986"><ele>175.66666666666666</ele><time>2026-05-04T13:14:26.001Z</time></trkpt><trkpt lat="42.108846309508614" lon="19.82631656951849"><ele>175.83333333333331</ele><time>2026-05-04T13:14:28.001Z</time></trkpt><trkpt lat="42.108792546686786" lon="19.826255756304235"><ele>176.0</ele><time>2026-05-04T13:14:30.001Z</time></trkpt><trkpt lat="42.10873353159811" lon="19.82620477287704"><ele>176.0</ele><time>2026-05-04T13:14:32.001Z</time></trkpt><trkpt lat="42.108713583387726" lon="19.826122095568728"><ele>176.0</ele><time>2026-05-04T13:14:34.001Z</time></trkpt><trkpt lat="42.108685299785776" lon="19.825976345723163"><ele>176.0</ele><time>2026-05-04T13:14:38.001Z</time></trkpt><trkpt lat="42.108659059776244" lon="19.825879497646447"><ele>176.0</ele><time>2026-05-04T13:14:40.001Z</time></trkpt><trkpt lat="42.108629834131094" lon="19.825779356246564"><ele>176.0</ele><time>2026-05-04T13:14:42.001Z</time></trkpt><trkpt lat="42.10858301451665" lon="19.825720877468694"><ele>176.0</ele><time>2026-05-04T13:14:46.052Z</time></trkpt><trkpt lat="42.10549091557438" lon="19.825915285416794"><ele>169.0</ele><time>2026-05-04T13:15:23.001Z</time></trkpt><trkpt lat="42.1053848392023" lon="19.825957163750626"><ele>162.0</ele><time>2026-05-04T13:15:24Z</time></trkpt><trkpt lat="42.10531584652052" lon="19.825980972017973"><ele>155.0</ele><time>2026-05-04T13:15:25Z</time></trkpt><trkpt lat="42.105247485364075" lon="19.826033304617212"><ele>148.0</ele><time>2026-05-04T13:15:26Z</time></trkpt><trkpt lat="42.10517663350863" lon="19.826046903782448"><ele>141.0</ele><time>2026-05-04T13:15:27Z</time></trkpt><trkpt lat="42.1050561600065" lon="19.825992775064538"><ele>133.6</ele><time>2026-05-04T13:15:29Z</time></trkpt><trkpt lat="42.10499908539717" lon="19.82590930462306"><ele>126.19999999999999</ele><time>2026-05-04T13:15:30Z</time></trkpt><trkpt lat="42.10493851501391" lon="19.825810804292146"><ele>118.80000000000001</ele><time>2026-05-04T13:15:31Z</time></trkpt><trkpt lat="42.10488082647458" lon="19.825699515420396"><ele>111.4</ele><time>2026-05-04T13:15:32Z</time></trkpt><trkpt lat="42.104821335712415" lon="19.825585998589894"><ele>104.0</ele><time>2026-05-04T13:15:33Z</time></trkpt><trkpt lat="42.10476036362636" lon="19.825471402815904"><ele>104.0</ele><time>2026-05-04T13:15:34Z</time></trkpt><trkpt lat="42.10469846295953" lon="19.82535691016129"><ele>104.0</ele><time>2026-05-04T13:15:35Z</time></trkpt><trkpt lat="42.104639786050505" lon="19.825243594379838"><ele>104.0</ele><time>2026-05-04T13:15:36Z</time></trkpt><trkpt lat="42.10459363889058" lon="19.82512748412255"><ele>104.0</ele><time>2026-05-04T13:15:37Z</time></trkpt><trkpt lat="42.104556000162994" lon="19.825001504821607"><ele>104.0</ele><time>2026-05-04T13:15:38Z</time></trkpt><trkpt lat="42.10452420039411" lon="19.82486484746696"><ele>104.0</ele><time>2026-05-04T13:15:39Z</time></trkpt><trkpt lat="42.10449601985669" lon="19.824719522844116"><ele>104.0</ele><time>2026-05-04T13:15:40Z</time></trkpt><trkpt lat="42.10446793887771" lon="19.824564687971606"><ele>104.0</ele><time>2026-05-04T13:15:41Z</time></trkpt><trkpt lat="42.10443902295617" lon="19.824395616902624"><ele>104.0</ele><time>2026-05-04T13:15:42Z</time></trkpt><trkpt lat="42.10441066687195" lon="19.824219987808686"><ele>105.5</ele><time>2026-05-04T13:15:43Z</time></trkpt><trkpt lat="42.10438064196954" lon="19.824037175606318"><ele>107.0</ele><time>2026-05-04T13:15:44Z</time></trkpt><trkpt lat="42.10435564798429" lon="19.82384578645089"><ele>108.5</ele><time>2026-05-04T13:15:45Z</time></trkpt><trkpt lat="42.10433914578904" lon="19.82365740426024"><ele>110.0</ele><time>2026-05-04T13:15:46Z</time></trkpt><trkpt lat="42.104333369126174" lon="19.823465254899823"><ele>114.0</ele><time>2026-05-04T13:15:47Z</time></trkpt><trkpt lat="42.10433996383148" lon="19.82326754379541"><ele>118.0</ele><time>2026-05-04T13:15:48Z</time></trkpt><trkpt lat="42.10434869598117" lon="19.823064983134646"><ele>122.0</ele><time>2026-05-04T13:15:49Z</time></trkpt><trkpt lat="42.10437461577692" lon="19.82285880933416"><ele>119.66666666666666</ele><time>2026-05-04T13:15:50Z</time></trkpt><trkpt lat="42.10435646179397" lon="19.822640414453154"><ele>117.33333333333334</ele><time>2026-05-04T13:15:51Z</time></trkpt><trkpt lat="42.10435681381" lon="19.82242870574743"><ele>115.0</ele><time>2026-05-04T13:15:52Z</time></trkpt><trkpt lat="42.10435648018241" lon="19.82221106441885"><ele>115.0</ele><time>2026-05-04T13:15:53Z</time></trkpt><trkpt lat="42.10438289017321" lon="19.821986161582352"><ele>115.0</ele><time>2026-05-04T13:15:54Z</time></trkpt><trkpt lat="42.1043903012416" lon="19.821752954079773"><ele>115.0</ele><time>2026-05-04T13:15:55Z</time></trkpt><trkpt lat="42.10433105673247" lon="19.821527016908025"><ele>115.33333333333334</ele><time>2026-05-04T13:15:56Z</time></trkpt><trkpt lat="42.10429842753571" lon="19.82129778570722"><ele>115.66666666666666</ele><time>2026-05-04T13:15:57Z</time></trkpt><trkpt lat="42.10426899746875" lon="19.821069355173403"><ele>116.0</ele><time>2026-05-04T13:15:58Z</time></trkpt><trkpt lat="42.10424791048656" lon="19.82084899979392"><ele>110.0</ele><time>2026-05-04T13:15:59Z</time></trkpt><trkpt lat="42.10422212621312" lon="19.82065337372543"><ele>104.0</ele><time>2026-05-04T13:16:00Z</time></trkpt><trkpt lat="42.10418484516811" lon="19.820474088256482"><ele>98.0</ele><time>2026-05-04T13:16:01Z</time></trkpt><trkpt lat="42.10412335672479" lon="19.820316279142542"><ele>92.0</ele><time>2026-05-04T13:16:02Z</time></trkpt><trkpt lat="42.104028210822484" lon="19.820180025991704"><ele>95.25</ele><time>2026-05-04T13:16:03Z</time></trkpt><trkpt lat="42.10392406165826" lon="19.8200415713678"><ele>98.5</ele><time>2026-05-04T13:16:04Z</time></trkpt><trkpt lat="42.103827146156824" lon="19.8198899848062"><ele>101.75</ele><time>2026-05-04T13:16:05Z</time></trkpt><trkpt lat="42.103749177417924" lon="19.819730052247134"><ele>105.0</ele><time>2026-05-04T13:16:06Z</time></trkpt><trkpt lat="42.10368992990658" lon="19.81957447975033"><ele>105.0</ele><time>2026-05-04T13:16:07Z</time></trkpt><trkpt lat="42.10365100628144" lon="19.819449268599666"><ele>105.0</ele><time>2026-05-04T13:16:08Z</time></trkpt><trkpt lat="42.103639416006324" lon="19.81935466055079"><ele>105.0</ele><time>2026-05-04T13:16:09Z</time></trkpt><trkpt lat="42.10365211515406" lon="19.819258038326804"><ele>105.0</ele><time>2026-05-04T13:16:10Z</time></trkpt><trkpt lat="42.10375604249637" lon="19.81906960259699"><ele>105.0</ele><time>2026-05-04T13:16:12Z</time></trkpt><trkpt lat="42.10379055766808" lon="19.818951493979288"><ele>107.8</ele><time>2026-05-04T13:16:13Z</time></trkpt><trkpt lat="42.103796449325145" lon="19.81881440913062"><ele>110.6</ele><time>2026-05-04T13:16:14Z</time></trkpt><trkpt lat="42.10377246515265" lon="19.818674921752756"><ele>113.4</ele><time>2026-05-04T13:16:15Z</time></trkpt><trkpt lat="42.10372077018333" lon="19.81854059477168"><ele>116.2</ele><time>2026-05-04T13:16:16Z</time></trkpt><trkpt lat="42.1036429796828" lon="19.818418567989777"><ele>119.0</ele><time>2026-05-04T13:16:17Z</time></trkpt><trkpt lat="42.10354573003092" lon="19.818310533505645"><ele>121.25</ele><time>2026-05-04T13:16:18Z</time></trkpt><trkpt lat="42.10343744781182" lon="19.818209592812078"><ele>123.5</ele><time>2026-05-04T13:16:19Z</time></trkpt><trkpt lat="42.10331751161501" lon="19.81810987820423"><ele>125.75</ele><time>2026-05-04T13:16:20Z</time></trkpt><trkpt lat="42.10318736448194" lon="19.818030133082896"><ele>128.0</ele><time>2026-05-04T13:16:21Z</time></trkpt><trkpt lat="42.10304457994117" lon="19.817982229837625"><ele>121.75</ele><time>2026-05-04T13:16:22Z</time></trkpt><trkpt lat="42.10289452217839" lon="19.817956633823158"><ele>115.5</ele><time>2026-05-04T13:16:23Z</time></trkpt><trkpt lat="42.10274675403357" lon="19.81793906552653"><ele>109.25</ele><time>2026-05-04T13:16:24Z</time></trkpt><trkpt lat="42.10261852156464" lon="19.817912469700815"><ele>103.0</ele><time>2026-05-04T13:16:25Z</time></trkpt><trkpt lat="42.10251312761463" lon="19.817867869301615"><ele>103.0</ele><time>2026-05-04T13:16:26Z</time></trkpt><trkpt lat="42.1024255536326" lon="19.81779663271381"><ele>103.0</ele><time>2026-05-04T13:16:27Z</time></trkpt><trkpt lat="42.10235336813146" lon="19.817698922083416"><ele>103.0</ele><time>2026-05-04T13:16:28Z</time></trkpt><trkpt lat="42.10229970254178" lon="19.81757740756211"><ele>103.0</ele><time>2026-05-04T13:16:29Z</time></trkpt><trkpt lat="42.102260403788755" lon="19.817433816839518"><ele>103.0</ele><time>2026-05-04T13:16:30Z</time></trkpt><trkpt lat="42.10224138998614" lon="19.81728059986548"><ele>105.0</ele><time>2026-05-04T13:16:31Z</time></trkpt><trkpt lat="42.10225096724951" lon="19.817140311466567"><ele>107.0</ele><time>2026-05-04T13:16:32Z</time></trkpt><trkpt lat="42.102300607614005" lon="19.817016938641327"><ele>109.00000000000001</ele><time>2026-05-04T13:16:33Z</time></trkpt><trkpt lat="42.10237863508282" lon="19.81690441182139"><ele>111.0</ele><time>2026-05-04T13:16:34Z</time></trkpt><trkpt lat="42.10245630931059" lon="19.816781704381746"><ele>113.0</ele><time>2026-05-04T13:16:35Z</time></trkpt><trkpt lat="42.10251226401636" lon="19.81665699461181"><ele>113.0</ele><time>2026-05-04T13:16:36Z</time></trkpt><trkpt lat="42.10253536556589" lon="19.81652761685288"><ele>113.00000000000001</ele><time>2026-05-04T13:16:37Z</time></trkpt><trkpt lat="42.102519226128784" lon="19.81639395275182"><ele>113.00000000000001</ele><time>2026-05-04T13:16:38Z</time></trkpt><trkpt lat="42.102474497223504" lon="19.81626820737379"><ele>113.0</ele><time>2026-05-04T13:16:39Z</time></trkpt><trkpt lat="42.10240239597546" lon="19.81616150869714"><ele>113.0</ele><time>2026-05-04T13:16:40Z</time></trkpt><trkpt lat="42.102308449217354" lon="19.8160809091562"><ele>109.0</ele><time>2026-05-04T13:16:41Z</time></trkpt><trkpt lat="42.10218242408456" lon="19.816034547964236"><ele>105.0</ele><time>2026-05-04T13:16:42Z</time></trkpt><trkpt lat="42.10204812642244" lon="19.81602817174509"><ele>101.0</ele><time>2026-05-04T13:16:43Z</time></trkpt><trkpt lat="42.10191061255269" lon="19.81604453303074"><ele>97.0</ele><time>2026-05-04T13:16:44Z</time></trkpt><trkpt lat="42.1017759645964" lon="19.816050683348685"><ele>97.0</ele><time>2026-05-04T13:16:45Z</time></trkpt><trkpt lat="42.10164126915381" lon="19.816038655305444"><ele>97.0</ele><time>2026-05-04T13:16:46Z</time></trkpt><trkpt lat="42.10151296828834" lon="19.81599668082218"><ele>97.0</ele><time>2026-05-04T13:16:47Z</time></trkpt><trkpt lat="42.10139795814232" lon="19.815916834684835"><ele>97.0</ele><time>2026-05-04T13:16:48Z</time></trkpt><trkpt lat="42.10130212125346" lon="19.81580236508769"><ele>95.25</ele><time>2026-05-04T13:16:49Z</time></trkpt><trkpt lat="42.10123209774391" lon="19.815650174630996"><ele>93.5</ele><time>2026-05-04T13:16:50Z</time></trkpt><trkpt lat="42.10117978054398" lon="19.815474952887822"><ele>91.75</ele><time>2026-05-04T13:16:51Z</time></trkpt><trkpt lat="42.10114125402949" lon="19.815282832741687"><ele>90.0</ele><time>2026-05-04T13:16:52Z</time></trkpt><trkpt lat="42.101105511373916" lon="19.815084652832713"><ele>90.0</ele><time>2026-05-04T13:16:53Z</time></trkpt><trkpt lat="42.10108142150923" lon="19.814908997489205"><ele>90.0</ele><time>2026-05-04T13:16:54Z</time></trkpt><trkpt lat="42.10105968761174" lon="19.814778264807636"><ele>90.0</ele><time>2026-05-04T13:16:55Z</time></trkpt><trkpt lat="42.10101312476513" lon="19.814684383797022"><ele>90.0</ele><time>2026-05-04T13:16:56Z</time></trkpt><trkpt lat="42.10093242027262" lon="19.81462614028828"><ele>90.0</ele><time>2026-05-04T13:16:57Z</time></trkpt><trkpt lat="42.10083161474057" lon="19.814573627129306"><ele>87.75</ele><time>2026-05-04T13:16:58Z</time></trkpt><trkpt lat="42.10071988711467" lon="19.814521637013076"><ele>85.5</ele><time>2026-05-04T13:16:59Z</time></trkpt><trkpt lat="42.10060217153377" lon="19.814478062355363"><ele>83.25</ele><time>2026-05-04T13:17:00Z</time></trkpt><trkpt lat="42.10049419575441" lon="19.814457495029703"><ele>81.0</ele><time>2026-05-04T13:17:01Z</time></trkpt><trkpt lat="42.10038203873914" lon="19.814471862558165"><ele>81.0</ele><time>2026-05-04T13:17:02Z</time></trkpt><trkpt lat="42.10025946186054" lon="19.814521917946593"><ele>81.0</ele><time>2026-05-04T13:17:03Z</time></trkpt><trkpt lat="42.100129518012515" lon="19.81460597705674"><ele>81.0</ele><time>2026-05-04T13:17:04Z</time></trkpt><trkpt lat="42.09999932790187" lon="19.81471087688467"><ele>81.0</ele><time>2026-05-04T13:17:05Z</time></trkpt><trkpt lat="42.099876646419794" lon="19.814839879772638"><ele>80.33333333333333</ele><time>2026-05-04T13:17:06Z</time></trkpt><trkpt lat="42.09975372744838" lon="19.814987330462326"><ele>79.66666666666666</ele><time>2026-05-04T13:17:07Z</time></trkpt><trkpt lat="42.099640673061764" lon="19.815152544306315"><ele>79.0</ele><time>2026-05-04T13:17:08Z</time></trkpt><trkpt lat="42.099543195624946" lon="19.81533355203518"><ele>79.0</ele><time>2026-05-04T13:17:09Z</time></trkpt><trkpt lat="42.09946960170884" lon="19.815525361235068"><ele>79.0</ele><time>2026-05-04T13:17:10Z</time></trkpt><trkpt lat="42.09942158640084" lon="19.81571414224153"><ele>79.0</ele><time>2026-05-04T13:17:11Z</time></trkpt><trkpt lat="42.09940589145091" lon="19.81590252753765"><ele>79.0</ele><time>2026-05-04T13:17:12Z</time></trkpt><trkpt lat="42.0994148273091" lon="19.81608501824639"><ele>78.4</ele><time>2026-05-04T13:17:13Z</time></trkpt><trkpt lat="42.09944091509121" lon="19.8162697635348"><ele>77.80000000000001</ele><time>2026-05-04T13:17:14Z</time></trkpt><trkpt lat="42.09946117948697" lon="19.81643218922195"><ele>77.19999999999999</ele><time>2026-05-04T13:17:15Z</time></trkpt><trkpt lat="42.0994715686112" lon="19.816560040935432"><ele>76.6</ele><time>2026-05-04T13:17:16Z</time></trkpt><trkpt lat="42.09945911555427" lon="19.816655285849276"><ele>76.0</ele><time>2026-05-04T13:17:17Z</time></trkpt><trkpt lat="42.09943490795103" lon="19.816775503024957"><ele>76.5</ele><time>2026-05-04T13:17:19Z</time></trkpt><trkpt lat="42.099351764613395" lon="19.816829852332464"><ele>77.0</ele><time>2026-05-04T13:17:22Z</time></trkpt><trkpt lat="42.099260026968594" lon="19.816828833595537"><ele>77.5</ele><time>2026-05-04T13:17:24Z</time></trkpt><trkpt lat="42.09914894418125" lon="19.816839697288394"><ele>78.0</ele><time>2026-05-04T13:17:26Z</time></trkpt><trkpt lat="42.09907571479425" lon="19.816805455523554"><ele>78.5</ele><time>2026-05-04T13:17:28Z</time></trkpt><trkpt lat="42.099013401539544" lon="19.816789233036545"><ele>79.0</ele><time>2026-05-04T13:17:31Z</time></trkpt><trkpt lat="42.0989459553582" lon="19.816843090254352"><ele>77.2</ele><time>2026-05-04T13:22:55Z</time></trkpt><trkpt lat="42.09887869308068" lon="19.81685478981439"><ele>75.4</ele><time>2026-05-04T13:22:56Z</time></trkpt><trkpt lat="42.09879268365179" lon="19.81684709321252"><ele>73.6</ele><time>2026-05-04T13:22:57Z</time></trkpt><trkpt lat="42.098698013284" lon="19.81684089179406"><ele>71.8</ele><time>2026-05-04T13:22:58Z</time></trkpt><trkpt lat="42.09860089878272" lon="19.81684095254121"><ele>70.0</ele><time>2026-05-04T13:22:59Z</time></trkpt><trkpt lat="42.098487743127066" lon="19.816835466883024"><ele>70.0</ele><time>2026-05-04T13:23:00Z</time></trkpt><trkpt lat="42.0983758997231" lon="19.81683384653598"><ele>70.0</ele><time>2026-05-04T13:23:01Z</time></trkpt><trkpt lat="42.098250922233355" lon="19.816833697097543"><ele>70.0</ele><time>2026-05-04T13:23:02Z</time></trkpt><trkpt lat="42.09813694525597" lon="19.81683011046877"><ele>70.0</ele><time>2026-05-04T13:23:03Z</time></trkpt><trkpt lat="42.09802275717949" lon="19.816828909381318"><ele>72.4</ele><time>2026-05-04T13:23:04Z</time></trkpt><trkpt lat="42.09791092396824" lon="19.816828862849253"><ele>74.8</ele><time>2026-05-04T13:23:05Z</time></trkpt><trkpt lat="42.09779965310157" lon="19.816829476778437"><ele>77.19999999999999</ele><time>2026-05-04T13:23:06Z</time></trkpt><trkpt lat="42.09769866536731" lon="19.816830153606467"><ele>79.6</ele><time>2026-05-04T13:23:07Z</time></trkpt><trkpt lat="42.09760120694763" lon="19.816833453268625"><ele>82.0</ele><time>2026-05-04T13:23:08Z</time></trkpt><trkpt lat="42.09752623000231" lon="19.816826357131024"><ele>81.6</ele><time>2026-05-04T13:23:09Z</time></trkpt><trkpt lat="42.097459148807" lon="19.81681132975565"><ele>81.19999999999999</ele><time>2026-05-04T13:23:10Z</time></trkpt><trkpt lat="42.097379009895654" lon="19.81674676438867"><ele>80.8</ele><time>2026-05-04T13:23:12Z</time></trkpt><trkpt lat="42.09730354736211" lon="19.816598401367845"><ele>80.4</ele><time>2026-05-04T13:23:14Z</time></trkpt><trkpt lat="42.097244593409066" lon="19.81651481575266"><ele>80.0</ele><time>2026-05-04T13:23:15Z</time></trkpt><trkpt lat="42.09716771420122" lon="19.816422959992533"><ele>82.6</ele><time>2026-05-04T13:23:16Z</time></trkpt><trkpt lat="42.09709010740381" lon="19.81634011070141"><ele>85.2</ele><time>2026-05-04T13:23:17Z</time></trkpt><trkpt lat="42.09700896913696" lon="19.816253092888505"><ele>87.80000000000001</ele><time>2026-05-04T13:23:18Z</time></trkpt><trkpt lat="42.096922355421626" lon="19.81616335143651"><ele>90.4</ele><time>2026-05-04T13:23:19Z</time></trkpt><trkpt lat="42.09683535599816" lon="19.816065054226247"><ele>93.0</ele><time>2026-05-04T13:23:20Z</time></trkpt><trkpt lat="42.09673779105811" lon="19.815952277333903"><ele>93.0</ele><time>2026-05-04T13:23:21Z</time></trkpt><trkpt lat="42.096632242208145" lon="19.815827560913878"><ele>93.0</ele><time>2026-05-04T13:23:21.999Z</time></trkpt><trkpt lat="42.096520590731004" lon="19.815685688280507"><ele>93.0</ele><time>2026-05-04T13:23:22.999Z</time></trkpt><trkpt lat="42.0964069654572" lon="19.81553857080194"><ele>94.0</ele><time>2026-05-04T13:23:23.999Z</time></trkpt><trkpt lat="42.09629004647412" lon="19.815381602709717"><ele>95.0</ele><time>2026-05-04T13:23:24.999Z</time></trkpt><trkpt lat="42.096177169444466" lon="19.81522997838564"><ele>96.0</ele><time>2026-05-04T13:23:25.999Z</time></trkpt><trkpt lat="42.09605284558067" lon="19.81508826967898"><ele>96.0</ele><time>2026-05-04T13:23:26.999Z</time></trkpt><trkpt lat="42.095923786720086" lon="19.814979650253537"><ele>96.0</ele><time>2026-05-04T13:23:27.999Z</time></trkpt><trkpt lat="42.09578672519241" lon="19.814902450364464"><ele>96.0</ele><time>2026-05-04T13:23:28.999Z</time></trkpt><trkpt lat="42.09565552470988" lon="19.81486901791744"><ele>96.0</ele><time>2026-05-04T13:23:29.999Z</time></trkpt><trkpt lat="42.09553186902974" lon="19.814880536709865"><ele>95.75</ele><time>2026-05-04T13:23:30.999Z</time></trkpt><trkpt lat="42.09541353646008" lon="19.814919152949923"><ele>95.5</ele><time>2026-05-04T13:23:31.999Z</time></trkpt><trkpt lat="42.09529062173912" lon="19.81497154629002"><ele>95.25</ele><time>2026-05-04T13:23:32.999Z</time></trkpt><trkpt lat="42.0951677481264" lon="19.815028193386855"><ele>95.0</ele><time>2026-05-04T13:23:33.999Z</time></trkpt><trkpt lat="42.09504654920574" lon="19.815085607359595"><ele>95.0</ele><time>2026-05-04T13:23:34.999Z</time></trkpt><trkpt lat="42.094931696182265" lon="19.81513439897792"><ele>95.0</ele><time>2026-05-04T13:23:35.999Z</time></trkpt><trkpt lat="42.094821895969176" lon="19.815176111675385"><ele>95.0</ele><time>2026-05-04T13:23:36.999Z</time></trkpt><trkpt lat="42.0947158278764" lon="19.815212349994408"><ele>95.0</ele><time>2026-05-04T13:23:37.999Z</time></trkpt><trkpt lat="42.094613800479394" lon="19.81526729788149"><ele>96.0</ele><time>2026-05-04T13:23:38.999Z</time></trkpt><trkpt lat="42.094522010625596" lon="19.815336275136573"><ele>97.0</ele><time>2026-05-04T13:23:39.999Z</time></trkpt><trkpt lat="42.09443923636031" lon="19.81542307612999"><ele>98.0</ele><time>2026-05-04T13:23:40.999Z</time></trkpt><trkpt lat="42.094376713908076" lon="19.815503727938516"><ele>99.0</ele><time>2026-05-04T13:23:41.999Z</time></trkpt><trkpt lat="42.09431697118563" lon="19.815587294028326"><ele>100.0</ele><time>2026-05-04T13:23:43.999Z</time></trkpt><trkpt lat="42.0942559460743" lon="19.815692319191875"><ele>100.0</ele><time>2026-05-04T13:25:05Z</time></trkpt><trkpt lat="42.09418903933375" lon="19.815774371361947"><ele>100.0</ele><time>2026-05-04T13:25:06Z</time></trkpt><trkpt lat="42.094104229758564" lon="19.81587087478674"><ele>100.0</ele><time>2026-05-04T13:25:07Z</time></trkpt><trkpt lat="42.094003716295376" lon="19.815978989051732"><ele>100.0</ele><time>2026-05-04T13:25:08Z</time></trkpt><trkpt lat="42.09389370369686" lon="19.816090778467462"><ele>102.2</ele><time>2026-05-04T13:25:09Z</time></trkpt><trkpt lat="42.09377935376653" lon="19.81619638957358"><ele>104.4</ele><time>2026-05-04T13:25:10Z</time></trkpt><trkpt lat="42.093678841183795" lon="19.81627618719286"><ele>106.6</ele><time>2026-05-04T13:25:11Z</time></trkpt><trkpt lat="42.09358423445311" lon="19.816329120810394"><ele>108.8</ele><time>2026-05-04T13:25:12Z</time></trkpt><trkpt lat="42.093513725184906" lon="19.8163074192926"><ele>111.0</ele><time>2026-05-04T13:25:13Z</time></trkpt><trkpt lat="42.09343338678602" lon="19.816238873337408"><ele>111.0</ele><time>2026-05-04T13:25:14Z</time></trkpt><trkpt lat="42.093356372881885" lon="19.81611356581183"><ele>111.0</ele><time>2026-05-04T13:25:15Z</time></trkpt><trkpt lat="42.09328206129397" lon="19.815938981652106"><ele>111.0</ele><time>2026-05-04T13:25:16Z</time></trkpt><trkpt lat="42.0931990477776" lon="19.815757112325212"><ele>111.0</ele><time>2026-05-04T13:25:17Z</time></trkpt><trkpt lat="42.09310463457918" lon="19.81556720188522"><ele>110.0</ele><time>2026-05-04T13:25:18Z</time></trkpt><trkpt lat="42.093000018500305" lon="19.81537995722217"><ele>109.0</ele><time>2026-05-04T13:25:19Z</time></trkpt><trkpt lat="42.092882599150656" lon="19.815203207918188"><ele>108.0</ele><time>2026-05-04T13:25:20Z</time></trkpt><trkpt lat="42.09276122949004" lon="19.815052493672"><ele>108.0</ele><time>2026-05-04T13:25:20.999Z</time></trkpt><trkpt lat="42.09263449151493" lon="19.81495385389045"><ele>108.0</ele><time>2026-05-04T13:25:21.999Z</time></trkpt><trkpt lat="42.092499781708305" lon="19.814899851006977"><ele>108.0</ele><time>2026-05-04T13:25:22.999Z</time></trkpt><trkpt lat="42.09234428486332" lon="19.81490645438511"><ele>108.0</ele><time>2026-05-04T13:25:23.999Z</time></trkpt><trkpt lat="42.09218397786429" lon="19.814926622818167"><ele>114.66666666666666</ele><time>2026-05-04T13:25:24.999Z</time></trkpt><trkpt lat="42.092012233874904" lon="19.8149350081101"><ele>121.33333333333333</ele><time>2026-05-04T13:25:25.999Z</time></trkpt><trkpt lat="42.091842373619535" lon="19.81489950478911"><ele>128.0</ele><time>2026-05-04T13:25:26.999Z</time></trkpt><trkpt lat="42.09168346312773" lon="19.814822683825145"><ele>132.66666666666666</ele><time>2026-05-04T13:25:27.999Z</time></trkpt><trkpt lat="42.09153083292138" lon="19.81477266175771"><ele>137.33333333333334</ele><time>2026-05-04T13:25:28.999Z</time></trkpt><trkpt lat="42.091372724559186" lon="19.814771407543898"><ele>142.0</ele><time>2026-05-04T13:25:29.999Z</time></trkpt><trkpt lat="42.09121292313238" lon="19.814771500980502"><ele>142.0</ele><time>2026-05-04T13:25:30.999Z</time></trkpt><trkpt lat="42.09108453220625" lon="19.81472391797349"><ele>142.0</ele><time>2026-05-04T13:25:31.999Z</time></trkpt><trkpt lat="42.0909674407793" lon="19.814637796306357"><ele>142.0</ele><time>2026-05-04T13:25:32.999Z</time></trkpt><trkpt lat="42.09087243508911" lon="19.814510625098652"><ele>142.0</ele><time>2026-05-04T13:25:33.999Z</time></trkpt><trkpt lat="42.090804250439206" lon="19.81436457967932"><ele>142.75</ele><time>2026-05-04T13:25:34.999Z</time></trkpt><trkpt lat="42.09077244579203" lon="19.814192251734706"><ele>143.5</ele><time>2026-05-04T13:25:35.999Z</time></trkpt><trkpt lat="42.09074709181823" lon="19.814014684421046"><ele>144.25</ele><time>2026-05-04T13:25:36.999Z</time></trkpt><trkpt lat="42.090729759804915" lon="19.813842954831994"><ele>145.0</ele><time>2026-05-04T13:25:37.999Z</time></trkpt><trkpt lat="42.09069802741627" lon="19.813685137948838"><ele>145.0</ele><time>2026-05-04T13:25:38.999Z</time></trkpt><trkpt lat="42.090638139799424" lon="19.81353636692175"><ele>145.0</ele><time>2026-05-04T13:25:39.999Z</time></trkpt><trkpt lat="42.09054504701047" lon="19.81339146339781"><ele>145.0</ele><time>2026-05-04T13:25:40.999Z</time></trkpt><trkpt lat="42.090428040788765" lon="19.813250942872273"><ele>145.0</ele><time>2026-05-04T13:25:41.999Z</time></trkpt><trkpt lat="42.09028904300689" lon="19.813119443068636"><ele>142.33333333333334</ele><time>2026-05-04T13:25:42.999Z</time></trkpt><trkpt lat="42.090134467567445" lon="19.813006988694315"><ele>139.66666666666666</ele><time>2026-05-04T13:25:43.999Z</time></trkpt><trkpt lat="42.08996147062664" lon="19.812898613896134"><ele>137.0</ele><time>2026-05-04T13:25:44.999Z</time></trkpt><trkpt lat="42.089776672422545" lon="19.812787009147318"><ele>137.0</ele><time>2026-05-04T13:25:45.999Z</time></trkpt><trkpt lat="42.08957125609375" lon="19.81267304592346"><ele>137.0</ele><time>2026-05-04T13:25:46.999Z</time></trkpt><trkpt lat="42.08935533385477" lon="19.81255854842894"><ele>130.0</ele><time>2026-05-04T13:25:47.999Z</time></trkpt><trkpt lat="42.08912599882743" lon="19.812441802171616"><ele>123.0</ele><time>2026-05-04T13:25:48.999Z</time></trkpt><trkpt lat="42.08891726827267" lon="19.812336212202148"><ele>122.25</ele><time>2026-05-04T13:25:49.999Z</time></trkpt><trkpt lat="42.08874069251761" lon="19.81225713309128"><ele>121.5</ele><time>2026-05-04T13:25:50.999Z</time></trkpt><trkpt lat="42.08859467062059" lon="19.81220101424138"><ele>120.75</ele><time>2026-05-04T13:25:51.999Z</time></trkpt><trkpt lat="42.08848844275773" lon="19.81218310538416"><ele>120.0</ele><time>2026-05-04T13:25:52.999Z</time></trkpt><trkpt lat="42.08840522279098" lon="19.8122209961468"><ele>120.0</ele><time>2026-05-04T13:25:53.999Z</time></trkpt><trkpt lat="42.088329418582475" lon="19.812310978561616"><ele>120.0</ele><time>2026-05-04T13:25:54.999Z</time></trkpt><trkpt lat="42.08826348995225" lon="19.812454520998543"><ele>120.0</ele><time>2026-05-04T13:25:56Z</time></trkpt><trkpt lat="42.08819557455647" lon="19.812646241420634"><ele>120.0</ele><time>2026-05-04T13:25:57Z</time></trkpt><trkpt lat="42.08811322458845" lon="19.81285556501427"><ele>119.66666666666666</ele><time>2026-05-04T13:25:58Z</time></trkpt><trkpt lat="42.088000801028464" lon="19.813060790580217"><ele>119.33333333333333</ele><time>2026-05-04T13:25:59Z</time></trkpt><trkpt lat="42.08787191280819" lon="19.81322750294097"><ele>119.0</ele><time>2026-05-04T13:26:00Z</time></trkpt><trkpt lat="42.08774708315074" lon="19.81333982568569"><ele>119.0</ele><time>2026-05-04T13:26:01Z</time></trkpt><trkpt lat="42.08762828153544" lon="19.813398347035196"><ele>119.0</ele><time>2026-05-04T13:26:02Z</time></trkpt><trkpt lat="42.08751727220297" lon="19.81338818266883"><ele>119.0</ele><time>2026-05-04T13:26:03Z</time></trkpt><trkpt lat="42.08738102510996" lon="19.81333733528157"><ele>119.0</ele><time>2026-05-04T13:26:04Z</time></trkpt><trkpt lat="42.087212836235125" lon="19.813266282465502"><ele>123.0</ele><time>2026-05-04T13:26:05Z</time></trkpt><trkpt lat="42.08702315615351" lon="19.81321079167982"><ele>127.0</ele><time>2026-05-04T13:26:06Z</time></trkpt><trkpt lat="42.08682904719375" lon="19.81312383734832"><ele>131.0</ele><time>2026-05-04T13:26:07Z</time></trkpt><trkpt lat="42.0866403607663" lon="19.81297928381041"><ele>125.0</ele><time>2026-05-04T13:26:08Z</time></trkpt><trkpt lat="42.08645421682018" lon="19.81280750543991"><ele>119.0</ele><time>2026-05-04T13:26:09Z</time></trkpt><trkpt lat="42.08627421155995" lon="19.812617349568093"><ele>119.0</ele><time>2026-05-04T13:26:10Z</time></trkpt><trkpt lat="42.0861011344785" lon="19.812412651712084"><ele>119.0</ele><time>2026-05-04T13:26:11Z</time></trkpt><trkpt lat="42.085933546899206" lon="19.812200565696376"><ele>119.0</ele><time>2026-05-04T13:26:12Z</time></trkpt><trkpt lat="42.085791182261346" lon="19.811981040262886"><ele>119.0</ele><time>2026-05-04T13:26:13Z</time></trkpt><trkpt lat="42.085675779612885" lon="19.811751537587067"><ele>119.0</ele><time>2026-05-04T13:26:14Z</time></trkpt><trkpt lat="42.08556460883748" lon="19.811530751520237"><ele>115.33333333333333</ele><time>2026-05-04T13:26:15Z</time></trkpt><trkpt lat="42.08543251167722" lon="19.811341554179098"><ele>111.66666666666666</ele><time>2026-05-04T13:26:16Z</time></trkpt><trkpt lat="42.085293030501674" lon="19.811181042249306"><ele>108.0</ele><time>2026-05-04T13:26:17Z</time></trkpt><trkpt lat="42.08517161225174" lon="19.81106012846311"><ele>107.25</ele><time>2026-05-04T13:26:18Z</time></trkpt><trkpt lat="42.085082071222224" lon="19.810943745635626"><ele>106.5</ele><time>2026-05-04T13:26:19Z</time></trkpt><trkpt lat="42.08502472122466" lon="19.81080696926972"><ele>105.75</ele><time>2026-05-04T13:26:20Z</time></trkpt><trkpt lat="42.085000289168974" lon="19.810644186737402"><ele>105.0</ele><time>2026-05-04T13:26:21Z</time></trkpt><trkpt lat="42.08500425525457" lon="19.810445976632444"><ele>105.0</ele><time>2026-05-04T13:26:22Z</time></trkpt><trkpt lat="42.085040494165156" lon="19.81020788788705"><ele>105.0</ele><time>2026-05-04T13:26:23Z</time></trkpt><trkpt lat="42.08506927039208" lon="19.809967811463256"><ele>105.0</ele><time>2026-05-04T13:26:24Z</time></trkpt><trkpt lat="42.0850586185814" lon="19.809719945445035"><ele>102.66666666666666</ele><time>2026-05-04T13:26:25Z</time></trkpt><trkpt lat="42.08503048230095" lon="19.809457602373154"><ele>100.33333333333333</ele><time>2026-05-04T13:26:26Z</time></trkpt><trkpt lat="42.084982693612375" lon="19.809228772660052"><ele>98.0</ele><time>2026-05-04T13:26:27Z</time></trkpt><trkpt lat="42.08491472910258" lon="19.809032105414794"><ele>96.0</ele><time>2026-05-04T13:26:28Z</time></trkpt><trkpt lat="42.0848062764106" lon="19.808865409780392"><ele>94.0</ele><time>2026-05-04T13:26:29Z</time></trkpt><trkpt lat="42.08467657072437" lon="19.808717316604884"><ele>92.0</ele><time>2026-05-04T13:26:30Z</time></trkpt><trkpt lat="42.084548286441866" lon="19.808594036646703"><ele>89.5</ele><time>2026-05-04T13:26:31Z</time></trkpt><trkpt lat="42.084456365457896" lon="19.808449894158578"><ele>87.0</ele><time>2026-05-04T13:26:32Z</time></trkpt><trkpt lat="42.08440050683466" lon="19.80828354840001"><ele>84.5</ele><time>2026-05-04T13:26:33Z</time></trkpt><trkpt lat="42.08438775087405" lon="19.808108406381496"><ele>82.0</ele><time>2026-05-04T13:26:34Z</time></trkpt><trkpt lat="42.084400477079505" lon="19.807942946390703"><ele>82.0</ele><time>2026-05-04T13:26:35Z</time></trkpt><trkpt lat="42.084458936265875" lon="19.807797758200813"><ele>82.0</ele><time>2026-05-04T13:26:36Z</time></trkpt><trkpt lat="42.08454329457707" lon="19.80768370825546"><ele>82.0</ele><time>2026-05-04T13:26:37Z</time></trkpt><trkpt lat="42.08466793013449" lon="19.807588570291752"><ele>82.0</ele><time>2026-05-04T13:26:38Z</time></trkpt><trkpt lat="42.08479294613231" lon="19.807471064077244"><ele>79.66666666666666</ele><time>2026-05-04T13:26:39Z</time></trkpt><trkpt lat="42.08487979764831" lon="19.80732134492543"><ele>77.33333333333333</ele><time>2026-05-04T13:26:40Z</time></trkpt><trkpt lat="42.084924099505265" lon="19.807141232749807"><ele>75.0</ele><time>2026-05-04T13:26:41Z</time></trkpt><trkpt lat="42.084953595168855" lon="19.806907454172304"><ele>75.5</ele><time>2026-05-04T13:26:42Z</time></trkpt><trkpt lat="42.084974350039424" lon="19.80666997865916"><ele>76.0</ele><time>2026-05-04T13:26:43Z</time></trkpt><trkpt lat="42.08497423242688" lon="19.80649050206027"><ele>76.5</ele><time>2026-05-04T13:26:44Z</time></trkpt><trkpt lat="42.08492089940798" lon="19.80633052849653"><ele>77.0</ele><time>2026-05-04T13:26:45Z</time></trkpt><trkpt lat="42.08482207726536" lon="19.806153565874254"><ele>91.33333333333334</ele><time>2026-05-04T13:26:46Z</time></trkpt><trkpt lat="42.08470149335927" lon="19.805949722475496"><ele>105.66666666666667</ele><time>2026-05-04T13:26:47Z</time></trkpt><trkpt lat="42.08456946153097" lon="19.805719147424778"><ele>120.0</ele><time>2026-05-04T13:26:48Z</time></trkpt><trkpt lat="42.08444518647745" lon="19.805476477657987"><ele>120.0</ele><time>2026-05-04T13:26:49Z</time></trkpt><trkpt lat="42.08434193950058" lon="19.805223253094855"><ele>120.0</ele><time>2026-05-04T13:26:50Z</time></trkpt><trkpt lat="42.084265044962194" lon="19.80495207708519"><ele>120.0</ele><time>2026-05-04T13:26:51Z</time></trkpt><trkpt lat="42.084224693088316" lon="19.804685167784136"><ele>124.33333333333334</ele><time>2026-05-04T13:26:52Z</time></trkpt><trkpt lat="42.08417271041747" lon="19.804465563582358"><ele>128.66666666666669</ele><time>2026-05-04T13:26:53Z</time></trkpt><trkpt lat="42.084072788537185" lon="19.804279881506044"><ele>133.0</ele><time>2026-05-04T13:26:54Z</time></trkpt><trkpt lat="42.08393123697434" lon="19.804115032871355"><ele>133.0</ele><time>2026-05-04T13:26:55Z</time></trkpt><trkpt lat="42.08378038126346" lon="19.803934591120072"><ele>133.0</ele><time>2026-05-04T13:26:56Z</time></trkpt><trkpt lat="42.08363247750564" lon="19.803723729288702"><ele>133.0</ele><time>2026-05-04T13:26:57Z</time></trkpt><trkpt lat="42.08348762141181" lon="19.80350661335759"><ele>129.0</ele><time>2026-05-04T13:26:58Z</time></trkpt><trkpt lat="42.08334325244206" lon="19.8033127759035"><ele>125.0</ele><time>2026-05-04T13:26:59Z</time></trkpt><trkpt lat="42.08321038490271" lon="19.803183678380684"><ele>121.0</ele><time>2026-05-04T13:27:00Z</time></trkpt><trkpt lat="42.08309712337202" lon="19.803110124983355"><ele>121.0</ele><time>2026-05-04T13:27:01Z</time></trkpt><trkpt lat="42.082995400912374" lon="19.803122936799877"><ele>121.0</ele><time>2026-05-04T13:27:02Z</time></trkpt><trkpt lat="42.08287499228547" lon="19.803176703794602"><ele>121.0</ele><time>2026-05-04T13:27:03Z</time></trkpt><trkpt lat="42.082732713776785" lon="19.803288096551814"><ele>121.0</ele><time>2026-05-04T13:27:04Z</time></trkpt><trkpt lat="42.082583987309135" lon="19.803373230645487"><ele>121.0</ele><time>2026-05-04T13:27:05Z</time></trkpt><trkpt lat="42.08245298962394" lon="19.803375580494702"><ele>121.0</ele><time>2026-05-04T13:27:06Z</time></trkpt><trkpt lat="42.08233451568588" lon="19.803321745841934"><ele>121.0</ele><time>2026-05-04T13:27:07Z</time></trkpt><trkpt lat="42.0822358826234" lon="19.80320871295151"><ele>121.0</ele><time>2026-05-04T13:27:08Z</time></trkpt><trkpt lat="42.08216357263339" lon="19.80307924832664"><ele>126.75</ele><time>2026-05-04T13:27:09Z</time></trkpt><trkpt lat="42.082127443429634" lon="19.80294412975497"><ele>132.5</ele><time>2026-05-04T13:27:10Z</time></trkpt><trkpt lat="42.082140886793944" lon="19.802801485596763"><ele>138.25</ele><time>2026-05-04T13:27:11Z</time></trkpt><trkpt lat="42.08219290361962" lon="19.80264261275801"><ele>144.0</ele><time>2026-05-04T13:27:12Z</time></trkpt><trkpt lat="42.08223593362159" lon="19.80247132751134"><ele>144.0</ele><time>2026-05-04T13:27:13Z</time></trkpt><trkpt lat="42.0822363067111" lon="19.802323271004845"><ele>144.0</ele><time>2026-05-04T13:27:14Z</time></trkpt><trkpt lat="42.082186482756306" lon="19.802204297551633"><ele>144.0</ele><time>2026-05-04T13:27:15Z</time></trkpt><trkpt lat="42.08208331800225" lon="19.802097039363016"><ele>144.0</ele><time>2026-05-04T13:27:16Z</time></trkpt><trkpt lat="42.08194537038859" lon="19.801980425432244"><ele>144.0</ele><time>2026-05-04T13:27:17Z</time></trkpt><trkpt lat="42.08179550178451" lon="19.801839881044778"><ele>144.0</ele><time>2026-05-04T13:27:18Z</time></trkpt><trkpt lat="42.08164633190618" lon="19.801687218913695"><ele>144.0</ele><time>2026-05-04T13:27:19Z</time></trkpt><trkpt lat="42.081496085886464" lon="19.80151821701899"><ele>151.0</ele><time>2026-05-04T13:27:20Z</time></trkpt><trkpt lat="42.08136910010976" lon="19.80132222652542"><ele>158.0</ele><time>2026-05-04T13:27:21Z</time></trkpt><trkpt lat="42.08127288192087" lon="19.80109084212511"><ele>165.0</ele><time>2026-05-04T13:27:22Z</time></trkpt><trkpt lat="42.08118287263007" lon="19.800850144895115"><ele>165.0</ele><time>2026-05-04T13:27:23Z</time></trkpt><trkpt lat="42.08106063678063" lon="19.800665394790567"><ele>165.0</ele><time>2026-05-04T13:27:24Z</time></trkpt><trkpt lat="42.08095903894481" lon="19.80050576149682"><ele>165.0</ele><time>2026-05-04T13:27:25Z</time></trkpt><trkpt lat="42.08090689637198" lon="19.800342031004888"><ele>159.25</ele><time>2026-05-04T13:27:26Z</time></trkpt><trkpt lat="42.0808940429858" lon="19.800154428064015"><ele>153.5</ele><time>2026-05-04T13:27:27Z</time></trkpt><trkpt lat="42.08086016804378" lon="19.800005873279908"><ele>147.75</ele><time>2026-05-04T13:27:28Z</time></trkpt><trkpt lat="42.0807719197981" lon="19.79990904094823"><ele>142.0</ele><time>2026-05-04T13:27:29Z</time></trkpt><trkpt lat="42.080639527975464" lon="19.79982202658051"><ele>158.0</ele><time>2026-05-04T13:27:30Z</time></trkpt><trkpt lat="42.08049461230822" lon="19.799702650535853"><ele>174.0</ele><time>2026-05-04T13:27:31Z</time></trkpt><trkpt lat="42.080375739863136" lon="19.799510415378997"><ele>190.0</ele><time>2026-05-04T13:27:32Z</time></trkpt><trkpt lat="42.080273077637194" lon="19.79927274849368"><ele>190.0</ele><time>2026-05-04T13:27:33Z</time></trkpt><trkpt lat="42.08018005338212" lon="19.799058457866117"><ele>190.0</ele><time>2026-05-04T13:27:34Z</time></trkpt><trkpt lat="42.0801225271111" lon="19.798893157450777"><ele>190.0</ele><time>2026-05-04T13:27:35Z</time></trkpt><trkpt lat="42.08011591151337" lon="19.798722162075887"><ele>190.0</ele><time>2026-05-04T13:27:36Z</time></trkpt><trkpt lat="42.08014083863081" lon="19.79852415730732"><ele>187.0</ele><time>2026-05-04T13:27:37Z</time></trkpt><trkpt lat="42.08017552446965" lon="19.79833080268075"><ele>184.0</ele><time>2026-05-04T13:27:38Z</time></trkpt><trkpt lat="42.08022030042928" lon="19.798187834798547"><ele>181.0</ele><time>2026-05-04T13:27:39Z</time></trkpt><trkpt lat="42.08028886218384" lon="19.798096610833902"><ele>178.0</ele><time>2026-05-04T13:27:39.999Z</time></trkpt><trkpt lat="42.080374546460874" lon="19.798010136137457"><ele>178.0</ele><time>2026-05-04T13:27:40.999Z</time></trkpt><trkpt lat="42.080410105243345" lon="19.797907506922307"><ele>178.0</ele><time>2026-05-04T13:27:41.999Z</time></trkpt><trkpt lat="42.080386231570245" lon="19.797772865583397"><ele>178.0</ele><time>2026-05-04T13:27:42.999Z</time></trkpt><trkpt lat="42.08031161344228" lon="19.797642212233495"><ele>178.0</ele><time>2026-05-04T13:27:43.999Z</time></trkpt><trkpt lat="42.08019160739527" lon="19.797502515924826"><ele>176.66666666666669</ele><time>2026-05-04T13:27:44.999Z</time></trkpt><trkpt lat="42.08005538599849" lon="19.797355096641386"><ele>175.33333333333334</ele><time>2026-05-04T13:27:45.999Z</time></trkpt><trkpt lat="42.07992480168216" lon="19.797219969291028"><ele>174.0</ele><time>2026-05-04T13:27:46.999Z</time></trkpt><trkpt lat="42.07980721846965" lon="19.79713125322483"><ele>174.0</ele><time>2026-05-04T13:27:47.999Z</time></trkpt><trkpt lat="42.07968884016403" lon="19.797083764090196"><ele>174.0</ele><time>2026-05-04T13:27:48.999Z</time></trkpt><trkpt lat="42.079561347502086" lon="19.79707688110937"><ele>174.0</ele><time>2026-05-04T13:27:49.999Z</time></trkpt><trkpt lat="42.079406932371505" lon="19.797105566821177"><ele>174.0</ele><time>2026-05-04T13:27:50.999Z</time></trkpt><trkpt lat="42.07923629355794" lon="19.79717487303842"><ele>171.33333333333334</ele><time>2026-05-04T13:27:51.999Z</time></trkpt><trkpt lat="42.079055645078256" lon="19.797283203296875"><ele>168.66666666666669</ele><time>2026-05-04T13:27:52.999Z</time></trkpt><trkpt lat="42.078853705860446" lon="19.79739240208697"><ele>166.0</ele><time>2026-05-04T13:27:53.999Z</time></trkpt><trkpt lat="42.07868661979052" lon="19.79745866442393"><ele>166.0</ele><time>2026-05-04T13:27:54.999Z</time></trkpt><trkpt lat="42.07856133626114" lon="19.797492472636126"><ele>166.0</ele><time>2026-05-04T13:27:55.999Z</time></trkpt><trkpt lat="42.07846333163621" lon="19.79749728895537"><ele>166.0</ele><time>2026-05-04T13:27:56.999Z</time></trkpt><trkpt lat="42.07837878005785" lon="19.797449612406062"><ele>166.0</ele><time>2026-05-04T13:27:57.999Z</time></trkpt><trkpt lat="42.07830306176293" lon="19.797338329455158"><ele>166.0</ele><time>2026-05-04T13:27:58.999Z</time></trkpt><trkpt lat="42.07824242793124" lon="19.797172996092222"><ele>177.0</ele><time>2026-05-04T13:27:59.999Z</time></trkpt><trkpt lat="42.07819517055991" lon="19.79696146419762"><ele>188.0</ele><time>2026-05-04T13:28:00.999Z</time></trkpt><trkpt lat="42.0781579734274" lon="19.796718092304715"><ele>199.0</ele><time>2026-05-04T13:28:02Z</time></trkpt><trkpt lat="42.07813024158073" lon="19.79644323457738"><ele>199.0</ele><time>2026-05-04T13:28:03Z</time></trkpt><trkpt lat="42.07811975718303" lon="19.79617041884609"><ele>199.0</ele><time>2026-05-04T13:28:04Z</time></trkpt><trkpt lat="42.078139367242755" lon="19.795936625975926"><ele>199.0</ele><time>2026-05-04T13:28:05Z</time></trkpt><trkpt lat="42.07819029167124" lon="19.795721415060942"><ele>180.66666666666666</ele><time>2026-05-04T13:28:06Z</time></trkpt><trkpt lat="42.07828078030789" lon="19.795530062819882"><ele>162.33333333333331</ele><time>2026-05-04T13:28:07Z</time></trkpt><trkpt lat="42.078360429793825" lon="19.79536720435298"><ele>144.0</ele><time>2026-05-04T13:28:08Z</time></trkpt><trkpt lat="42.07840237132997" lon="19.795186715317957"><ele>144.0</ele><time>2026-05-04T13:28:09Z</time></trkpt><trkpt lat="42.07841460413505" lon="19.795012544942566"><ele>144.0</ele><time>2026-05-04T13:28:10Z</time></trkpt><trkpt lat="42.0783970181945" lon="19.794885095890063"><ele>144.0</ele><time>2026-05-04T13:28:11Z</time></trkpt><trkpt lat="42.078332283132205" lon="19.794761509542266"><ele>144.0</ele><time>2026-05-04T13:28:12Z</time></trkpt><trkpt lat="42.07822664466342" lon="19.79461585254994"><ele>145.5</ele><time>2026-05-04T13:28:13Z</time></trkpt><trkpt lat="42.078120698003914" lon="19.79449891728378"><ele>147.0</ele><time>2026-05-04T13:28:14Z</time></trkpt><trkpt lat="42.07802255140793" lon="19.79444725465888"><ele>148.5</ele><time>2026-05-04T13:28:15Z</time></trkpt><trkpt lat="42.0779144665346" lon="19.79447266739661"><ele>150.0</ele><time>2026-05-04T13:28:16Z</time></trkpt><trkpt lat="42.07777799794312" lon="19.79454967694426"><ele>150.0</ele><time>2026-05-04T13:28:17Z</time></trkpt><trkpt lat="42.077616630136504" lon="19.794644143272667"><ele>150.0</ele><time>2026-05-04T13:28:18Z</time></trkpt><trkpt lat="42.07742575380654" lon="19.794716628781817"><ele>150.0</ele><time>2026-05-04T13:28:19Z</time></trkpt><trkpt lat="42.07722074773197" lon="19.79476437850461"><ele>147.0</ele><time>2026-05-04T13:28:20Z</time></trkpt><trkpt lat="42.076998166364596" lon="19.794785155680753"><ele>144.0</ele><time>2026-05-04T13:28:21Z</time></trkpt><trkpt lat="42.07676571158994" lon="19.794771827771285"><ele>145.5</ele><time>2026-05-04T13:28:22Z</time></trkpt><trkpt lat="42.07652601854452" lon="19.79472048383021"><ele>147.0</ele><time>2026-05-04T13:28:23Z</time></trkpt><trkpt lat="42.076309269185614" lon="19.79466704300276"><ele>147.0</ele><time>2026-05-04T13:28:24Z</time></trkpt><trkpt lat="42.07613798957329" lon="19.794628669903663"><ele>147.0</ele><time>2026-05-04T13:28:25Z</time></trkpt><trkpt lat="42.07601537266379" lon="19.79459609585201"><ele>147.0</ele><time>2026-05-04T13:28:26Z</time></trkpt><trkpt lat="42.07592741716236" lon="19.79455540010777"><ele>147.0</ele><time>2026-05-04T13:28:27Z</time></trkpt><trkpt lat="42.07586396398511" lon="19.794485460498596"><ele>147.0</ele><time>2026-05-04T13:28:28Z</time></trkpt><trkpt lat="42.07583064364137" lon="19.794391163790873"><ele>147.0</ele><time>2026-05-04T13:28:29Z</time></trkpt><trkpt lat="42.075837141619054" lon="19.794272143526335"><ele>147.0</ele><time>2026-05-04T13:28:30Z</time></trkpt><trkpt lat="42.07588107408983" lon="19.794136410604835"><ele>147.0</ele><time>2026-05-04T13:28:31Z</time></trkpt><trkpt lat="42.07595587229844" lon="19.79398765598975"><ele>147.0</ele><time>2026-05-04T13:28:32Z</time></trkpt><trkpt lat="42.07604807636375" lon="19.79381929746664"><ele>146.33333333333334</ele><time>2026-05-04T13:28:33Z</time></trkpt><trkpt lat="42.07615067556712" lon="19.793636609216115"><ele>145.66666666666669</ele><time>2026-05-04T13:28:34Z</time></trkpt><trkpt lat="42.07626885825451" lon="19.793457010019956"><ele>145.0</ele><time>2026-05-04T13:28:35Z</time></trkpt><trkpt lat="42.076419611804596" lon="19.793296767771807"><ele>139.66666666666669</ele><time>2026-05-04T13:28:36Z</time></trkpt><trkpt lat="42.076593262010114" lon="19.79313584988891"><ele>134.33333333333334</ele><time>2026-05-04T13:28:37Z</time></trkpt><trkpt lat="42.07675597697896" lon="19.79300672981463"><ele>129.0</ele><time>2026-05-04T13:28:38Z</time></trkpt><trkpt lat="42.07686420123651" lon="19.792905094542796"><ele>129.0</ele><time>2026-05-04T13:28:39Z</time></trkpt><trkpt lat="42.0769398361211" lon="19.792776697110305"><ele>129.0</ele><time>2026-05-04T13:28:40Z</time></trkpt><trkpt lat="42.076987074001124" lon="19.792621212578425"><ele>129.0</ele><time>2026-05-04T13:28:41Z</time></trkpt><trkpt lat="42.07699651464975" lon="19.792479881361206"><ele>129.0</ele><time>2026-05-04T13:28:42Z</time></trkpt><trkpt lat="42.07696236505529" lon="19.792361414083977"><ele>129.0</ele><time>2026-05-04T13:28:43Z</time></trkpt><trkpt lat="42.076894967161174" lon="19.792232541348433"><ele>132.33333333333334</ele><time>2026-05-04T13:28:44Z</time></trkpt><trkpt lat="42.07677880250037" lon="19.79212083412934"><ele>135.66666666666669</ele><time>2026-05-04T13:28:45Z</time></trkpt><trkpt lat="42.07663034435307" lon="19.792058188259904"><ele>139.0</ele><time>2026-05-04T13:28:46Z</time></trkpt><trkpt lat="42.07645381045291" lon="19.79204025942491"><ele>142.25</ele><time>2026-05-04T13:28:47Z</time></trkpt><trkpt lat="42.07630274121965" lon="19.791990552859623"><ele>145.5</ele><time>2026-05-04T13:28:48Z</time></trkpt><trkpt lat="42.0762066218921" lon="19.7918757659761"><ele>148.75</ele><time>2026-05-04T13:28:49Z</time></trkpt><trkpt lat="42.07614762515821" lon="19.791703810106487"><ele>152.0</ele><time>2026-05-04T13:28:50Z</time></trkpt><trkpt lat="42.076070072941086" lon="19.791531596266445"><ele>152.0</ele><time>2026-05-04T13:28:51Z</time></trkpt><trkpt lat="42.07593333011251" lon="19.791395926727358"><ele>152.0</ele><time>2026-05-04T13:28:52Z</time></trkpt><trkpt lat="42.07577960585977" lon="19.791262932660757"><ele>152.0</ele><time>2026-05-04T13:28:53Z</time></trkpt><trkpt lat="42.07567302626915" lon="19.791085639436492"><ele>155.0</ele><time>2026-05-04T13:28:54Z</time></trkpt><trkpt lat="42.07560090502662" lon="19.79085530023239"><ele>158.0</ele><time>2026-05-04T13:28:55Z</time></trkpt><trkpt lat="42.07553058556134" lon="19.790611799389236"><ele>161.0</ele><time>2026-05-04T13:28:56Z</time></trkpt><trkpt lat="42.075467298102694" lon="19.79044533734486"><ele>161.0</ele><time>2026-05-04T13:28:57Z</time></trkpt><trkpt lat="42.07538092677794" lon="19.79032484061424"><ele>161.0</ele><time>2026-05-04T13:28:58Z</time></trkpt><trkpt lat="42.07525002915411" lon="19.790236767456456"><ele>161.0</ele><time>2026-05-04T13:28:59Z</time></trkpt><trkpt lat="42.07507339589332" lon="19.790184679726917"><ele>158.0</ele><time>2026-05-04T13:29:00Z</time></trkpt><trkpt lat="42.07487865251284" lon="19.79013629996705"><ele>155.0</ele><time>2026-05-04T13:29:01Z</time></trkpt><trkpt lat="42.07468183938884" lon="19.790070230647775"><ele>152.0</ele><time>2026-05-04T13:29:02Z</time></trkpt><trkpt lat="42.07448946851081" lon="19.78997646023969"><ele>152.0</ele><time>2026-05-04T13:29:03Z</time></trkpt><trkpt lat="42.07430987235028" lon="19.789843423626955"><ele>152.0</ele><time>2026-05-04T13:29:04Z</time></trkpt><trkpt lat="42.074152512584966" lon="19.789718535000492"><ele>152.0</ele><time>2026-05-04T13:29:05Z</time></trkpt><trkpt lat="42.074000916895294" lon="19.789641095323496"><ele>153.4</ele><time>2026-05-04T13:29:06Z</time></trkpt><trkpt lat="42.07386587603743" lon="19.78962012166046"><ele>154.79999999999998</ele><time>2026-05-04T13:29:07Z</time></trkpt><trkpt lat="42.07375872046266" lon="19.78958776795326"><ele>156.2</ele><time>2026-05-04T13:29:08Z</time></trkpt><trkpt lat="42.07369538975899" lon="19.789507755715608"><ele>157.6</ele><time>2026-05-04T13:29:09Z</time></trkpt><trkpt lat="42.07366295281266" lon="19.78938727781739"><ele>159.0</ele><time>2026-05-04T13:29:10Z</time></trkpt><trkpt lat="42.073668041210944" lon="19.78925560044484"><ele>159.75</ele><time>2026-05-04T13:29:11Z</time></trkpt><trkpt lat="42.07373027029037" lon="19.78914130416666"><ele>160.5</ele><time>2026-05-04T13:29:12Z</time></trkpt><trkpt lat="42.07383236060806" lon="19.78903515858107"><ele>161.25</ele><time>2026-05-04T13:29:13Z</time></trkpt><trkpt lat="42.07397081207235" lon="19.78892334386636"><ele>162.0</ele><time>2026-05-04T13:29:14Z</time></trkpt><trkpt lat="42.07412787104583" lon="19.788800152435982"><ele>153.0</ele><time>2026-05-04T13:29:15Z</time></trkpt><trkpt lat="42.07429203864596" lon="19.78867505990322"><ele>144.0</ele><time>2026-05-04T13:29:16Z</time></trkpt><trkpt lat="42.0744659703894" lon="19.788572825677125"><ele>135.0</ele><time>2026-05-04T13:29:17Z</time></trkpt><trkpt lat="42.07462945260114" lon="19.78852991741281"><ele>135.0</ele><time>2026-05-04T13:29:18Z</time></trkpt><trkpt lat="42.07478197498199" lon="19.788522658789617"><ele>135.0</ele><time>2026-05-04T13:29:19Z</time></trkpt><trkpt lat="42.0749124563997" lon="19.788530115228813"><ele>135.0</ele><time>2026-05-04T13:29:20Z</time></trkpt><trkpt lat="42.07502425062363" lon="19.788501166884497"><ele>135.0</ele><time>2026-05-04T13:29:21Z</time></trkpt><trkpt lat="42.075121331644134" lon="19.788430192911772"><ele>133.0</ele><time>2026-05-04T13:29:22Z</time></trkpt><trkpt lat="42.075172911864" lon="19.78833489143966"><ele>131.0</ele><time>2026-05-04T13:29:23Z</time></trkpt><trkpt lat="42.07516944024383" lon="19.788230574268592"><ele>129.0</ele><time>2026-05-04T13:29:24Z</time></trkpt><trkpt lat="42.07512064578685" lon="19.78810807863248"><ele>127.0</ele><time>2026-05-04T13:29:25Z</time></trkpt><trkpt lat="42.07502047745229" lon="19.78796718947232"><ele>125.0</ele><time>2026-05-04T13:29:26Z</time></trkpt><trkpt lat="42.074893997297416" lon="19.78778509387656"><ele>142.66666666666666</ele><time>2026-05-04T13:29:27Z</time></trkpt><trkpt lat="42.07477302902998" lon="19.787588775992234"><ele>160.33333333333334</ele><time>2026-05-04T13:29:28Z</time></trkpt><trkpt lat="42.0746868535074" lon="19.787418225839872"><ele>178.0</ele><time>2026-05-04T13:29:29Z</time></trkpt><trkpt lat="42.07463999568513" lon="19.787278299249348"><ele>178.0</ele><time>2026-05-04T13:29:30Z</time></trkpt><trkpt lat="42.07464322938465" lon="19.787161525991323"><ele>178.0</ele><time>2026-05-04T13:29:31Z</time></trkpt><trkpt lat="42.07468605455473" lon="19.78705886051463"><ele>178.0</ele><time>2026-05-04T13:29:32Z</time></trkpt><trkpt lat="42.07476738499075" lon="19.786993463442055"><ele>178.0</ele><time>2026-05-04T13:29:33Z</time></trkpt><trkpt lat="42.07489831979111" lon="19.786924108564975"><ele>178.0</ele><time>2026-05-04T13:29:34Z</time></trkpt><trkpt lat="42.07503103616748" lon="19.786821489348817"><ele>166.5</ele><time>2026-05-04T13:29:35Z</time></trkpt><trkpt lat="42.07511891091168" lon="19.78668721805"><ele>155.0</ele><time>2026-05-04T13:29:36Z</time></trkpt><trkpt lat="42.07515463619295" lon="19.78652593011944"><ele>143.5</ele><time>2026-05-04T13:29:37Z</time></trkpt><trkpt lat="42.075152633239455" lon="19.786329602655304"><ele>132.0</ele><time>2026-05-04T13:29:38Z</time></trkpt><trkpt lat="42.07512860996542" lon="19.786110705868847"><ele>132.5</ele><time>2026-05-04T13:29:39Z</time></trkpt><trkpt lat="42.07509463140421" lon="19.785924453784432"><ele>133.0</ele><time>2026-05-04T13:29:40Z</time></trkpt><trkpt lat="42.07504238879925" lon="19.785764227053853"><ele>133.5</ele><time>2026-05-04T13:29:41Z</time></trkpt><trkpt lat="42.07498517438024" lon="19.78557805032343"><ele>134.0</ele><time>2026-05-04T13:29:42Z</time></trkpt><trkpt lat="42.07494018516958" lon="19.78538123301167"><ele>145.25</ele><time>2026-05-04T13:29:43Z</time></trkpt><trkpt lat="42.0748881690074" lon="19.78522121062402"><ele>156.5</ele><time>2026-05-04T13:29:44Z</time></trkpt><trkpt lat="42.07479281424694" lon="19.78507207548953"><ele>167.75</ele><time>2026-05-04T13:29:45Z</time></trkpt><trkpt lat="42.07469728612898" lon="19.784923104532776"><ele>179.0</ele><time>2026-05-04T13:29:46Z</time></trkpt><trkpt lat="42.074650976903406" lon="19.784780691272207"><ele>179.0</ele><time>2026-05-04T13:29:47Z</time></trkpt><trkpt lat="42.07465719694519" lon="19.784658318860657"><ele>179.0</ele><time>2026-05-04T13:29:48Z</time></trkpt><trkpt lat="42.074710961781506" lon="19.784554704212223"><ele>179.0</ele><time>2026-05-04T13:29:49Z</time></trkpt><trkpt lat="42.07480111384631" lon="19.78442162442814"><ele>179.0</ele><time>2026-05-04T13:29:50Z</time></trkpt><trkpt lat="42.07485582652772" lon="19.78427136271227"><ele>179.0</ele><time>2026-05-04T13:29:51Z</time></trkpt><trkpt lat="42.07485030454718" lon="19.78413333698844"><ele>177.25</ele><time>2026-05-04T13:29:52Z</time></trkpt><trkpt lat="42.074794451419486" lon="19.7840084740081"><ele>175.5</ele><time>2026-05-04T13:29:53Z</time></trkpt><trkpt lat="42.074694210082214" lon="19.783884681732292"><ele>173.75</ele><time>2026-05-04T13:29:54Z</time></trkpt><trkpt lat="42.074582865832696" lon="19.783740109326985"><ele>172.0</ele><time>2026-05-04T13:29:55Z</time></trkpt><trkpt lat="42.07449886964037" lon="19.78355822307064"><ele>164.75</ele><time>2026-05-04T13:29:56Z</time></trkpt><trkpt lat="42.07445260680698" lon="19.783332461972563"><ele>157.5</ele><time>2026-05-04T13:29:57Z</time></trkpt><trkpt lat="42.07445411166465" lon="19.7831345209602"><ele>150.25</ele><time>2026-05-04T13:29:58Z</time></trkpt><trkpt lat="42.07444025254362" lon="19.783003864583137"><ele>143.0</ele><time>2026-05-04T13:29:59Z</time></trkpt><trkpt lat="42.07437623792876" lon="19.78290564409319"><ele>143.0</ele><time>2026-05-04T13:30:00Z</time></trkpt><trkpt lat="42.07427039041672" lon="19.78283520048262"><ele>143.0</ele><time>2026-05-04T13:30:01Z</time></trkpt><trkpt lat="42.07414492260634" lon="19.782759111535597"><ele>143.0</ele><time>2026-05-04T13:30:02Z</time></trkpt><trkpt lat="42.074047506077626" lon="19.782646148597497"><ele>143.0</ele><time>2026-05-04T13:30:03Z</time></trkpt><trkpt lat="42.07399925937181" lon="19.782491759923584"><ele>147.25</ele><time>2026-05-04T13:30:04Z</time></trkpt><trkpt lat="42.07399189123051" lon="19.78231117101178"><ele>151.5</ele><time>2026-05-04T13:30:05Z</time></trkpt><trkpt lat="42.0739889761787" lon="19.782112708419366"><ele>155.75</ele><time>2026-05-04T13:30:06Z</time></trkpt><trkpt lat="42.073942352351416" lon="19.78190364555603"><ele>160.0</ele><time>2026-05-04T13:30:07Z</time></trkpt><trkpt lat="42.07386173943852" lon="19.78168484699635"><ele>160.0</ele><time>2026-05-04T13:30:08Z</time></trkpt><trkpt lat="42.073784983750116" lon="19.781461258972868"><ele>160.0</ele><time>2026-05-04T13:30:09Z</time></trkpt><trkpt lat="42.073715414219244" lon="19.781262022003858"><ele>160.0</ele><time>2026-05-04T13:30:10Z</time></trkpt><trkpt lat="42.07363038455494" lon="19.781081011781268"><ele>153.75</ele><time>2026-05-04T13:30:11Z</time></trkpt><trkpt lat="42.07354393113512" lon="19.78091675303995"><ele>147.5</ele><time>2026-05-04T13:30:12Z</time></trkpt><trkpt lat="42.0734785079469" lon="19.780740795285784"><ele>141.25</ele><time>2026-05-04T13:30:13Z</time></trkpt><trkpt lat="42.0734495744916" lon="19.780540764605533"><ele>135.0</ele><time>2026-05-04T13:30:14Z</time></trkpt><trkpt lat="42.07344058477468" lon="19.78035619257876"><ele>127.33333333333334</ele><time>2026-05-04T13:30:15Z</time></trkpt><trkpt lat="42.07338576463518" lon="19.780164099439762"><ele>119.66666666666667</ele><time>2026-05-04T13:30:16Z</time></trkpt><trkpt lat="42.073266381379824" lon="19.779932633992576"><ele>112.0</ele><time>2026-05-04T13:30:17Z</time></trkpt><trkpt lat="42.07316300230246" lon="19.77968304126886"><ele>126.66666666666667</ele><time>2026-05-04T13:30:18Z</time></trkpt><trkpt lat="42.07309952528124" lon="19.77940491792856"><ele>141.33333333333334</ele><time>2026-05-04T13:30:19Z</time></trkpt><trkpt lat="42.07305784325927" lon="19.779188912294764"><ele>156.0</ele><time>2026-05-04T13:30:20Z</time></trkpt><trkpt lat="42.07298062359272" lon="19.77900815865982"><ele>156.0</ele><time>2026-05-04T13:30:21Z</time></trkpt><trkpt lat="42.0728827028702" lon="19.77882382079646"><ele>156.0</ele><time>2026-05-04T13:30:22Z</time></trkpt><trkpt lat="42.072809685933336" lon="19.77864068838152"><ele>156.0</ele><time>2026-05-04T13:30:23Z</time></trkpt><trkpt lat="42.07278167519853" lon="19.778422672987826"><ele>147.25</ele><time>2026-05-04T13:30:24Z</time></trkpt><trkpt lat="42.07275468574934" lon="19.778192210397258"><ele>138.5</ele><time>2026-05-04T13:30:25Z</time></trkpt><trkpt lat="42.072713832380195" lon="19.778013219353703"><ele>129.75</ele><time>2026-05-04T13:30:26Z</time></trkpt><trkpt lat="42.07267729803958" lon="19.77787005923136"><ele>121.0</ele><time>2026-05-04T13:30:27Z</time></trkpt><trkpt lat="42.07263342531033" lon="19.777782223302275"><ele>121.0</ele><time>2026-05-04T13:30:28Z</time></trkpt><trkpt lat="42.07256881796923" lon="19.777742259644977"><ele>121.0</ele><time>2026-05-04T13:30:29Z</time></trkpt><trkpt lat="42.072469989437934" lon="19.77774748829578"><ele>121.0</ele><time>2026-05-04T13:30:30Z</time></trkpt><trkpt lat="42.07231987403465" lon="19.777779728953192"><ele>121.0</ele><time>2026-05-04T13:30:31Z</time></trkpt><trkpt lat="42.072179048507465" lon="19.777780185360886"><ele>121.6</ele><time>2026-05-04T13:30:32Z</time></trkpt><trkpt lat="42.07209567506007" lon="19.777716573130494"><ele>122.19999999999999</ele><time>2026-05-04T13:30:33Z</time></trkpt><trkpt lat="42.0720539013305" lon="19.777618658818945"><ele>122.80000000000001</ele><time>2026-05-04T13:30:34Z</time></trkpt><trkpt lat="42.07205103460274" lon="19.777476945861007"><ele>123.4</ele><time>2026-05-04T13:30:35Z</time></trkpt><trkpt lat="42.07208132689391" lon="19.77731336554603"><ele>124.0</ele><time>2026-05-04T13:30:36Z</time></trkpt><trkpt lat="42.07212998301935" lon="19.777094238092317"><ele>116.0</ele><time>2026-05-04T13:30:37Z</time></trkpt><trkpt lat="42.072173652330854" lon="19.77684872571468"><ele>108.0</ele><time>2026-05-04T13:30:38Z</time></trkpt><trkpt lat="42.072212407880954" lon="19.776570390447844"><ele>100.0</ele><time>2026-05-04T13:30:39Z</time></trkpt><trkpt lat="42.072257735230714" lon="19.776343962485623"><ele>100.0</ele><time>2026-05-04T13:30:40Z</time></trkpt><trkpt lat="42.07231383174192" lon="19.776191008634274"><ele>100.0</ele><time>2026-05-04T13:30:41Z</time></trkpt><trkpt lat="42.07238903546597" lon="19.776108913215506"><ele>100.0</ele><time>2026-05-04T13:30:42Z</time></trkpt><trkpt lat="42.07248438907991" lon="19.77607893336166"><ele>100.0</ele><time>2026-05-04T13:30:43Z</time></trkpt><trkpt lat="42.072603493157445" lon="19.776052041008143"><ele>100.0</ele><time>2026-05-04T13:30:44Z</time></trkpt><trkpt lat="42.07270614409912" lon="19.77598479554858"><ele>100.0</ele><time>2026-05-04T13:30:45Z</time></trkpt><trkpt lat="42.07276224533481" lon="19.775868636840364"><ele>100.0</ele><time>2026-05-04T13:30:46Z</time></trkpt><trkpt lat="42.07277540232895" lon="19.77571347970015"><ele>100.0</ele><time>2026-05-04T13:30:47Z</time></trkpt><trkpt lat="42.072777530713495" lon="19.775522774425344"><ele>100.0</ele><time>2026-05-04T13:30:48Z</time></trkpt><trkpt lat="42.07278638186022" lon="19.775287895959927"><ele>103.66666666666667</ele><time>2026-05-04T13:30:49Z</time></trkpt><trkpt lat="42.07280166557081" lon="19.7750476321916"><ele>107.33333333333334</ele><time>2026-05-04T13:30:50Z</time></trkpt><trkpt lat="42.07280945194002" lon="19.7748029851225"><ele>111.0</ele><time>2026-05-04T13:30:51Z</time></trkpt><trkpt lat="42.072804439237395" lon="19.77453266989919"><ele>114.33333333333334</ele><time>2026-05-04T13:30:52Z</time></trkpt><trkpt lat="42.072798125994154" lon="19.774247100349548"><ele>117.66666666666667</ele><time>2026-05-04T13:30:53Z</time></trkpt><trkpt lat="42.072785667776884" lon="19.773952312328923"><ele>121.0</ele><time>2026-05-04T13:30:54Z</time></trkpt><trkpt lat="42.072757800042474" lon="19.77364601028818"><ele>118.5</ele><time>2026-05-04T13:30:55Z</time></trkpt><trkpt lat="42.07272244790503" lon="19.773326903512373"><ele>116.0</ele><time>2026-05-04T13:30:56Z</time></trkpt><trkpt lat="42.07270532566865" lon="19.773035126652672"><ele>116.0</ele><time>2026-05-04T13:30:57Z</time></trkpt><trkpt lat="42.07272200763192" lon="19.772785473417112"><ele>116.0</ele><time>2026-05-04T13:30:58Z</time></trkpt><trkpt lat="42.07276975853609" lon="19.77252934169573"><ele>116.0</ele><time>2026-05-04T13:30:59Z</time></trkpt><trkpt lat="42.072844830945805" lon="19.772292526337996"><ele>117.75</ele><time>2026-05-04T13:31:00Z</time></trkpt><trkpt lat="42.072900701780995" lon="19.772087596191614"><ele>119.5</ele><time>2026-05-04T13:31:01Z</time></trkpt><trkpt lat="42.07292704520132" lon="19.771903974826873"><ele>121.25</ele><time>2026-05-04T13:31:02Z</time></trkpt><trkpt lat="42.072926988096825" lon="19.771707247647846"><ele>123.0</ele><time>2026-05-04T13:31:03Z</time></trkpt><trkpt lat="42.07289908815742" lon="19.771452185238612"><ele>124.66666666666666</ele><time>2026-05-04T13:31:04Z</time></trkpt><trkpt lat="42.07284973859022" lon="19.77116174005812"><ele>126.33333333333333</ele><time>2026-05-04T13:31:05Z</time></trkpt><trkpt lat="42.07283440962728" lon="19.770910012556087"><ele>128.0</ele><time>2026-05-04T13:31:06Z</time></trkpt><trkpt lat="42.07287113261562" lon="19.77064956086537"><ele>123.5</ele><time>2026-05-04T13:31:07Z</time></trkpt><trkpt lat="42.072944671366855" lon="19.770356317837173"><ele>119.0</ele><time>2026-05-04T13:31:08Z</time></trkpt><trkpt lat="42.07300747472303" lon="19.770031031990364"><ele>119.0</ele><time>2026-05-04T13:31:09Z</time></trkpt><trkpt lat="42.07303931068039" lon="19.769692099816222"><ele>119.0</ele><time>2026-05-04T13:31:10Z</time></trkpt><trkpt lat="42.07306295606417" lon="19.769340708892067"><ele>120.0</ele><time>2026-05-04T13:31:11Z</time></trkpt><trkpt lat="42.07308671412272" lon="19.768975863873997"><ele>121.0</ele><time>2026-05-04T13:31:12Z</time></trkpt><trkpt lat="42.07310962428573" lon="19.768597795805643"><ele>122.0</ele><time>2026-05-04T13:31:13Z</time></trkpt><trkpt lat="42.07312184697607" lon="19.768203030382953"><ele>123.0</ele><time>2026-05-04T13:31:14Z</time></trkpt><trkpt lat="42.07312347847101" lon="19.76781436693757"><ele>123.0</ele><time>2026-05-04T13:31:15Z</time></trkpt><trkpt lat="42.0731150217032" lon="19.767473216304072"><ele>123.0</ele><time>2026-05-04T13:31:16Z</time></trkpt><trkpt lat="42.07310952068146" lon="19.767157939346728"><ele>116.0</ele><time>2026-05-04T13:31:17Z</time></trkpt><trkpt lat="42.073123660602725" lon="19.76685789302815"><ele>109.0</ele><time>2026-05-04T13:31:18Z</time></trkpt><trkpt lat="42.07317111298356" lon="19.76657114938416"><ele>102.0</ele><time>2026-05-04T13:31:19Z</time></trkpt><trkpt lat="42.07324759737163" lon="19.76630321964004"><ele>94.0</ele><time>2026-05-04T13:31:20Z</time></trkpt><trkpt lat="42.073338432413536" lon="19.766029486418603"><ele>86.0</ele><time>2026-05-04T13:31:21Z</time></trkpt><trkpt lat="42.07342805789865" lon="19.76576000882483"><ele>78.0</ele><time>2026-05-04T13:31:22Z</time></trkpt><trkpt lat="42.07352085210729" lon="19.765476104932716"><ele>83.5</ele><time>2026-05-04T13:31:23Z</time></trkpt><trkpt lat="42.07360878173061" lon="19.765191394376053"><ele>89.0</ele><time>2026-05-04T13:31:24Z</time></trkpt><trkpt lat="42.073692624129436" lon="19.764910155581987"><ele>89.0</ele><time>2026-05-04T13:31:25Z</time></trkpt><trkpt lat="42.07376831061" lon="19.76465031160393"><ele>89.0</ele><time>2026-05-04T13:31:26Z</time></trkpt><trkpt lat="42.0738332170748" lon="19.764437467880153"><ele>89.0</ele><time>2026-05-04T13:31:27Z</time></trkpt><trkpt lat="42.073888701531914" lon="19.7642652847193"><ele>92.2</ele><time>2026-05-04T13:31:28Z</time></trkpt><trkpt lat="42.073935585108366" lon="19.764124046895244"><ele>95.4</ele><time>2026-05-04T13:31:29Z</time></trkpt><trkpt lat="42.073976126018835" lon="19.764001767598078"><ele>98.6</ele><time>2026-05-04T13:31:30Z</time></trkpt><trkpt lat="42.0740120472644" lon="19.76389841520095"><ele>101.8</ele><time>2026-05-04T13:31:31Z</time></trkpt><trkpt lat="42.07404278035092" lon="19.763810482357503"><ele>105.0</ele><time>2026-05-04T13:31:32Z</time></trkpt><trkpt lat="42.07409001155175" lon="19.763706661196096"><ele>103.16666666666667</ele><time>2026-05-04T13:31:34Z</time></trkpt><trkpt lat="42.07412966171845" lon="19.763616216822246"><ele>101.33333333333333</ele><time>2026-05-04T13:32:30Z</time></trkpt><trkpt lat="42.074177460264316" lon="19.763530983778534"><ele>99.5</ele><time>2026-05-04T13:32:39Z</time></trkpt><trkpt lat="42.0741997056887" lon="19.76343723401791"><ele>97.66666666666666</ele><time>2026-05-04T13:38:16Z</time></trkpt><trkpt lat="42.07425735349729" lon="19.76332314404199"><ele>95.83333333333333</ele><time>2026-05-04T13:38:19Z</time></trkpt><trkpt lat="42.07429142200586" lon="19.763236586956424"><ele>94.0</ele><time>2026-05-04T13:38:20Z</time></trkpt><trkpt lat="42.07431840068539" lon="19.763138890598388"><ele>94.0</ele><time>2026-05-04T13:38:21Z</time></trkpt><trkpt lat="42.074347564264876" lon="19.763030607766233"><ele>94.0</ele><time>2026-05-04T13:38:22Z</time></trkpt><trkpt lat="42.074380370959965" lon="19.762918912786425"><ele>94.0</ele><time>2026-05-04T13:38:23Z</time></trkpt><trkpt lat="42.07441420245969" lon="19.762792813036814"><ele>94.0</ele><time>2026-05-04T13:38:24Z</time></trkpt><trkpt lat="42.07445020320846" lon="19.762661469442158"><ele>94.0</ele><time>2026-05-04T13:38:25Z</time></trkpt><trkpt lat="42.07448864619212" lon="19.76252464273004"><ele>96.25</ele><time>2026-05-04T13:38:26Z</time></trkpt><trkpt lat="42.07452681032771" lon="19.762381488955583"><ele>98.5</ele><time>2026-05-04T13:38:27Z</time></trkpt><trkpt lat="42.07456459081658" lon="19.762234051210804"><ele>100.75</ele><time>2026-05-04T13:38:28Z</time></trkpt><trkpt lat="42.07460395934421" lon="19.762080131455757"><ele>103.0</ele><time>2026-05-04T13:38:29Z</time></trkpt><trkpt lat="42.074643200793425" lon="19.761924921094174"><ele>105.2</ele><time>2026-05-04T13:38:30Z</time></trkpt><trkpt lat="42.074679888184065" lon="19.761789692771625"><ele>107.4</ele><time>2026-05-04T13:38:31Z</time></trkpt><trkpt lat="42.0747093278747" lon="19.761681223720554"><ele>109.60000000000001</ele><time>2026-05-04T13:38:32Z</time></trkpt><trkpt lat="42.0747390775009" lon="19.761575845653287"><ele>111.80000000000001</ele><time>2026-05-04T13:38:33Z</time></trkpt><trkpt lat="42.07477162542698" lon="19.761485943353588"><ele>114.0</ele><time>2026-05-04T13:38:34Z</time></trkpt><trkpt lat="42.07483738746508" lon="19.761344111934324"><ele>114.0</ele><time>2026-05-04T13:38:36Z</time></trkpt><trkpt lat="42.074877048434324" lon="19.761193690527804"><ele>114.0</ele><time>2026-05-04T13:38:38Z</time></trkpt><trkpt lat="42.07489713921349" lon="19.761112476766296"><ele>114.0</ele><time>2026-05-04T13:38:39Z</time></trkpt><trkpt lat="42.07491839291485" lon="19.761023281263054"><ele>114.0</ele><time>2026-05-04T13:38:40Z</time></trkpt><trkpt lat="42.074942755611644" lon="19.760933432831436"><ele>114.0</ele><time>2026-05-04T13:38:41Z</time></trkpt><trkpt lat="42.074967326419966" lon="19.760837485070955"><ele>114.0</ele><time>2026-05-04T13:38:42Z</time></trkpt><trkpt lat="42.07499358120283" lon="19.760736877353544"><ele>110.4</ele><time>2026-05-04T13:38:43Z</time></trkpt><trkpt lat="42.07501756448128" lon="19.760644743281077"><ele>106.80000000000001</ele><time>2026-05-04T13:38:44Z</time></trkpt><trkpt lat="42.07505520473117" lon="19.760519820715288"><ele>103.19999999999999</ele><time>2026-05-04T13:38:46Z</time></trkpt><trkpt lat="42.07508213999468" lon="19.76041018893542"><ele>99.6</ele><time>2026-05-04T13:38:48Z</time></trkpt><trkpt lat="42.07511453083041" lon="19.760293513544248"><ele>96.0</ele><time>2026-05-04T13:38:50Z</time></trkpt><trkpt lat="42.07514758577409" lon="19.76016616389713"><ele>96.0</ele><time>2026-05-04T13:38:52Z</time></trkpt><trkpt lat="42.0751765774543" lon="19.76007248552805"><ele>96.0</ele><time>2026-05-04T13:38:54Z</time></trkpt><trkpt lat="42.07522481962813" lon="19.75992682588122"><ele>96.0</ele><time>2026-05-04T13:38:56Z</time></trkpt><trkpt lat="42.07525495796131" lon="19.75978926040353"><ele>96.0</ele><time>2026-05-04T13:38:58Z</time></trkpt><trkpt lat="42.07528221720274" lon="19.75969253470727"><ele>96.0</ele><time>2026-05-04T13:39:01Z</time></trkpt><trkpt lat="42.07529414837006" lon="19.75960370633247"><ele>96.0</ele><time>2026-05-04T13:39:03Z</time></trkpt><trkpt lat="42.075322652113506" lon="19.759439999396957"><ele>96.66666666666667</ele><time>2026-05-04T13:39:05Z</time></trkpt><trkpt lat="42.07534792732824" lon="19.759337491015707"><ele>97.33333333333334</ele><time>2026-05-04T13:39:06Z</time></trkpt><trkpt lat="42.075374364176845" lon="19.75923163162485"><ele>98.0</ele><time>2026-05-04T13:39:07Z</time></trkpt><trkpt lat="42.07540355535142" lon="19.759114933523268"><ele>98.66666666666667</ele><time>2026-05-04T13:39:08Z</time></trkpt><trkpt lat="42.07543198911627" lon="19.759018611648674"><ele>99.33333333333334</ele><time>2026-05-04T13:39:09Z</time></trkpt><trkpt lat="42.07546530424673" lon="19.75891864529248"><ele>100.0</ele><time>2026-05-04T13:39:10Z</time></trkpt><trkpt lat="42.07549527135963" lon="19.758831385093263"><ele>100.00000000000001</ele><time>2026-05-04T13:39:11Z</time></trkpt><trkpt lat="42.07552599404047" lon="19.758738096379467"><ele>100.0</ele><time>2026-05-04T13:39:12Z</time></trkpt><trkpt lat="42.0755513636763" lon="19.75865709494321"><ele>100.0</ele><time>2026-05-04T13:39:13Z</time></trkpt><trkpt lat="42.07559872693627" lon="19.758522976816874"><ele>100.0</ele><time>2026-05-04T13:39:15Z</time></trkpt><trkpt lat="42.075656290662224" lon="19.7583735710147"><ele>100.00000000000001</ele><time>2026-05-04T13:39:17Z</time></trkpt><trkpt lat="42.075691203971694" lon="19.758295134609035"><ele>100.0</ele><time>2026-05-04T13:39:18Z</time></trkpt><trkpt lat="42.07572716689499" lon="19.758212455798525"><ele>99.66666666666667</ele><time>2026-05-04T13:39:19Z</time></trkpt><trkpt lat="42.075761619848414" lon="19.758125398904753"><ele>99.33333333333334</ele><time>2026-05-04T13:39:20Z</time></trkpt><trkpt lat="42.07579751965289" lon="19.758036915061563"><ele>99.0</ele><time>2026-05-04T13:39:21Z</time></trkpt><trkpt lat="42.07583412010314" lon="19.757951332918438"><ele>98.66666666666666</ele><time>2026-05-04T13:39:22Z</time></trkpt><trkpt lat="42.075880303172426" lon="19.757853788414316"><ele>98.33333333333333</ele><time>2026-05-04T13:39:23Z</time></trkpt><trkpt lat="42.07593940344479" lon="19.757719484776526"><ele>98.0</ele><time>2026-05-04T13:39:24Z</time></trkpt><trkpt lat="42.076008598750796" lon="19.757550017652953"><ele>98.0</ele><time>2026-05-04T13:39:25Z</time></trkpt><trkpt lat="42.07608157020086" lon="19.757381285640296"><ele>98.0</ele><time>2026-05-04T13:39:26Z</time></trkpt><trkpt lat="42.07615131489291" lon="19.757206327543045"><ele>98.0</ele><time>2026-05-04T13:39:27Z</time></trkpt><trkpt lat="42.076220071436495" lon="19.757016499999054"><ele>98.0</ele><time>2026-05-04T13:39:28Z</time></trkpt><trkpt lat="42.07628205921812" lon="19.756843147226867"><ele>99.2</ele><time>2026-05-04T13:39:29Z</time></trkpt><trkpt lat="42.07633164736816" lon="19.756678341272288"><ele>100.4</ele><time>2026-05-04T13:39:30Z</time></trkpt><trkpt lat="42.0763643956784" lon="19.75653774394603"><ele>101.60000000000001</ele><time>2026-05-04T13:39:31Z</time></trkpt><trkpt lat="42.07638131561336" lon="19.756393633581496"><ele>102.80000000000001</ele><time>2026-05-04T13:39:32Z</time></trkpt><trkpt lat="42.076378478415236" lon="19.75626191368621"><ele>104.0</ele><time>2026-05-04T13:39:33Z</time></trkpt><trkpt lat="42.07635256556366" lon="19.756133553166375"><ele>105.0</ele><time>2026-05-04T13:39:34Z</time></trkpt><trkpt lat="42.07630671248525" lon="19.756011567883792"><ele>106.0</ele><time>2026-05-04T13:39:35Z</time></trkpt><trkpt lat="42.07623750105276" lon="19.755903420948506"><ele>107.0</ele><time>2026-05-04T13:39:36Z</time></trkpt><trkpt lat="42.07614237247035" lon="19.75579779965978"><ele>108.0</ele><time>2026-05-04T13:39:37Z</time></trkpt><trkpt lat="42.07604495956285" lon="19.75567171064578"><ele>108.0</ele><time>2026-05-04T13:39:38Z</time></trkpt><trkpt lat="42.07598191795526" lon="19.755532058738925"><ele>108.0</ele><time>2026-05-04T13:39:39Z</time></trkpt><trkpt lat="42.075954924527984" lon="19.75538063894688"><ele>108.0</ele><time>2026-05-04T13:39:40Z</time></trkpt><trkpt lat="42.075945400874446" lon="19.755195680974587"><ele>108.0</ele><time>2026-05-04T13:39:41Z</time></trkpt><trkpt lat="42.07595067028076" lon="19.754987909650367"><ele>108.66666666666666</ele><time>2026-05-04T13:39:42Z</time></trkpt><trkpt lat="42.07594527537276" lon="19.754768911624822"><ele>109.33333333333333</ele><time>2026-05-04T13:39:43Z</time></trkpt><trkpt lat="42.07591347040159" lon="19.754537138539504"><ele>110.0</ele><time>2026-05-04T13:39:44Z</time></trkpt><trkpt lat="42.075862628414896" lon="19.75429832628047"><ele>108.5</ele><time>2026-05-04T13:39:45Z</time></trkpt><trkpt lat="42.07581065551797" lon="19.754112999940926"><ele>107.0</ele><time>2026-05-04T13:39:46Z</time></trkpt><trkpt lat="42.075776059587014" lon="19.75398002842179"><ele>105.5</ele><time>2026-05-04T13:39:47Z</time></trkpt><trkpt lat="42.075769492061525" lon="19.753884854827866"><ele>104.0</ele><time>2026-05-04T13:39:48Z</time></trkpt><trkpt lat="42.07584842242077" lon="19.753736132802974"><ele>104.0</ele><time>2026-05-04T13:39:50Z</time></trkpt><trkpt lat="42.07591939744459" lon="19.753643851405627"><ele>104.0</ele><time>2026-05-04T13:39:51Z</time></trkpt><trkpt lat="42.07600699435246" lon="19.75353436463749"><ele>104.0</ele><time>2026-05-04T13:39:52Z</time></trkpt><trkpt lat="42.07608480667474" lon="19.753403064763003"><ele>104.0</ele><time>2026-05-04T13:39:53Z</time></trkpt><trkpt lat="42.07615845585653" lon="19.75325141929898"><ele>105.0</ele><time>2026-05-04T13:39:54Z</time></trkpt><trkpt lat="42.076229451415756" lon="19.753073858854215"><ele>106.0</ele><time>2026-05-04T13:39:55Z</time></trkpt><trkpt lat="42.07628500946445" lon="19.752879278383396"><ele>107.0</ele><time>2026-05-04T13:39:56Z</time></trkpt><trkpt lat="42.076316027163166" lon="19.752658703519067"><ele>112.66666666666666</ele><time>2026-05-04T13:39:57Z</time></trkpt><trkpt lat="42.07633242959565" lon="19.752404349338793"><ele>118.33333333333334</ele><time>2026-05-04T13:39:58Z</time></trkpt><trkpt lat="42.07635287083331" lon="19.752138833756025"><ele>124.0</ele><time>2026-05-04T13:39:59Z</time></trkpt><trkpt lat="42.07636942168707" lon="19.751858955267917"><ele>125.66666666666667</ele><time>2026-05-04T13:40:00Z</time></trkpt><trkpt lat="42.07637531168359" lon="19.751593452479785"><ele>127.33333333333334</ele><time>2026-05-04T13:40:01Z</time></trkpt><trkpt lat="42.0764011830292" lon="19.751316751256066"><ele>129.0</ele><time>2026-05-04T13:40:02Z</time></trkpt><trkpt lat="42.076454455837904" lon="19.751067544031294"><ele>131.66666666666666</ele><time>2026-05-04T13:40:03Z</time></trkpt><trkpt lat="42.07652309245835" lon="19.750827554407493"><ele>134.33333333333331</ele><time>2026-05-04T13:40:04Z</time></trkpt><trkpt lat="42.07658784925672" lon="19.75061736071482"><ele>137.0</ele><time>2026-05-04T13:40:05Z</time></trkpt><trkpt lat="42.076615799540726" lon="19.750446963513205"><ele>138.79999999999998</ele><time>2026-05-04T13:40:06Z</time></trkpt><trkpt lat="42.07660348343799" lon="19.750315129620738"><ele>140.6</ele><time>2026-05-04T13:40:07Z</time></trkpt><trkpt lat="42.07656391205211" lon="19.75019679556608"><ele>142.39999999999998</ele><time>2026-05-04T13:40:07.999Z</time></trkpt><trkpt lat="42.076506721416855" lon="19.750061184450715"><ele>144.2</ele><time>2026-05-04T13:40:08.999Z</time></trkpt><trkpt lat="42.07646591058849" lon="19.74990584140368"><ele>146.0</ele><time>2026-05-04T13:40:09.999Z</time></trkpt><trkpt lat="42.07646192119122" lon="19.74974008319459"><ele>146.0</ele><time>2026-05-04T13:40:10.999Z</time></trkpt><trkpt lat="42.076487962131715" lon="19.749598895405843"><ele>146.0</ele><time>2026-05-04T13:40:11.999Z</time></trkpt><trkpt lat="42.076506861602574" lon="19.749481809680535"><ele>146.0</ele><time>2026-05-04T13:40:12.999Z</time></trkpt><trkpt lat="42.07649032480988" lon="19.749375451053417"><ele>146.0</ele><time>2026-05-04T13:40:13.999Z</time></trkpt><trkpt lat="42.07642791330348" lon="19.749245231592337"><ele>146.0</ele><time>2026-05-04T13:40:14.999Z</time></trkpt><trkpt lat="42.07634213659119" lon="19.74909617574752"><ele>146.75</ele><time>2026-05-04T13:40:15.999Z</time></trkpt><trkpt lat="42.07627447472144" lon="19.748927799374172"><ele>147.5</ele><time>2026-05-04T13:40:16.999Z</time></trkpt><trkpt lat="42.07623828925897" lon="19.74876403810223"><ele>148.25</ele><time>2026-05-04T13:40:17.999Z</time></trkpt><trkpt lat="42.07624104941425" lon="19.748610289807452"><ele>149.0</ele><time>2026-05-04T13:40:18.999Z</time></trkpt><trkpt lat="42.07626432009896" lon="19.748434150925497"><ele>149.33333333333331</ele><time>2026-05-04T13:40:19.999Z</time></trkpt><trkpt lat="42.07631286156082" lon="19.748244084059476"><ele>149.66666666666666</ele><time>2026-05-04T13:40:20.999Z</time></trkpt><trkpt lat="42.07637863735499" lon="19.748045762816606"><ele>150.0</ele><time>2026-05-04T13:40:21.999Z</time></trkpt><trkpt lat="42.07646281237547" lon="19.74782553373494"><ele>151.66666666666666</ele><time>2026-05-04T13:40:22.999Z</time></trkpt><trkpt lat="42.076558224612725" lon="19.74762325555344"><ele>153.33333333333331</ele><time>2026-05-04T13:40:23.999Z</time></trkpt><trkpt lat="42.07664762701914" lon="19.747421386215517"><ele>155.0</ele><time>2026-05-04T13:40:24.999Z</time></trkpt><trkpt lat="42.07670438436535" lon="19.74728260057288"><ele>155.0</ele><time>2026-05-04T13:40:25.999Z</time></trkpt><trkpt lat="42.07671534956787" lon="19.747186853670957"><ele>155.0</ele><time>2026-05-04T13:40:26.999Z</time></trkpt><trkpt lat="42.0767007408899" lon="19.74708996519324"><ele>155.0</ele><time>2026-05-04T13:40:27.999Z</time></trkpt><trkpt lat="42.0766650380262" lon="19.747002977633343"><ele>155.0</ele><time>2026-05-04T13:40:28.999Z</time></trkpt><trkpt lat="42.076604629203594" lon="19.746938232970198"><ele>155.0</ele><time>2026-05-04T13:40:29.999Z</time></trkpt><trkpt lat="42.07652043899629" lon="19.7469255246823"><ele>155.0</ele><time>2026-05-04T13:40:30.999Z</time></trkpt><trkpt lat="42.07643468672256" lon="19.746959636932694"><ele>155.0</ele><time>2026-05-04T13:40:31.999Z</time></trkpt><trkpt lat="42.07633150486974" lon="19.747023556409484"><ele>155.0</ele><time>2026-05-04T13:40:32.999Z</time></trkpt><trkpt lat="42.07622990527908" lon="19.747071433588513"><ele>155.0</ele><time>2026-05-04T13:40:33.999Z</time></trkpt><trkpt lat="42.07615386463189" lon="19.747053448887172"><ele>155.0</ele><time>2026-05-04T13:40:34.999Z</time></trkpt><trkpt lat="42.07605266304651" lon="19.746931812845045"><ele>155.0</ele><time>2026-05-04T13:40:37Z</time></trkpt><trkpt lat="42.07603550667274" lon="19.746842580983493"><ele>153.2</ele><time>2026-05-04T13:40:38Z</time></trkpt><trkpt lat="42.07603636925655" lon="19.746700859940223"><ele>151.4</ele><time>2026-05-04T13:40:39Z</time></trkpt><trkpt lat="42.07605230168039" lon="19.746541542527943"><ele>149.6</ele><time>2026-05-04T13:40:40Z</time></trkpt><trkpt lat="42.07604215279748" lon="19.74640180904292"><ele>147.8</ele><time>2026-05-04T13:40:41Z</time></trkpt><trkpt lat="42.076004900530315" lon="19.746320523350956"><ele>146.0</ele><time>2026-05-04T13:40:42Z</time></trkpt><trkpt lat="42.075951029354066" lon="19.746271971453364"><ele>146.0</ele><time>2026-05-04T13:40:43Z</time></trkpt><trkpt lat="42.075877596129295" lon="19.746249554137602"><ele>146.0</ele><time>2026-05-04T13:40:44Z</time></trkpt><trkpt lat="42.07577148261444" lon="19.746234470778877"><ele>146.0</ele><time>2026-05-04T13:40:45Z</time></trkpt><trkpt lat="42.07567200876019" lon="19.746200428159117"><ele>146.0</ele><time>2026-05-04T13:40:46Z</time></trkpt><trkpt lat="42.075618289955806" lon="19.746127954698007"><ele>146.0</ele><time>2026-05-04T13:40:47Z</time></trkpt><trkpt lat="42.075573420939804" lon="19.746021623098674"><ele>150.25</ele><time>2026-05-04T13:40:48Z</time></trkpt><trkpt lat="42.07554647857158" lon="19.74586436692331"><ele>154.5</ele><time>2026-05-04T13:40:49Z</time></trkpt><trkpt lat="42.07551445919795" lon="19.745678465807952"><ele>158.75</ele><time>2026-05-04T13:40:50Z</time></trkpt><trkpt lat="42.07548104005489" lon="19.74548546398928"><ele>163.0</ele><time>2026-05-04T13:40:51Z</time></trkpt><trkpt lat="42.07546017458167" lon="19.7453284986316"><ele>163.0</ele><time>2026-05-04T13:40:52Z</time></trkpt><trkpt lat="42.075460812680085" lon="19.745224143305126"><ele>163.0</ele><time>2026-05-04T13:40:53Z</time></trkpt><trkpt lat="42.07547918704852" lon="19.7451396540294"><ele>163.0</ele><time>2026-05-04T13:40:54Z</time></trkpt><trkpt lat="42.075514466210656" lon="19.745058893770494"><ele>163.0</ele><time>2026-05-04T13:40:55Z</time></trkpt><trkpt lat="42.075553798056475" lon="19.744971460889975"><ele>163.0</ele><time>2026-05-04T13:40:56Z</time></trkpt><trkpt lat="42.075606286249226" lon="19.744904607123626"><ele>163.0</ele><time>2026-05-04T13:40:57Z</time></trkpt><trkpt lat="42.07568051716347" lon="19.744831529039203"><ele>164.2</ele><time>2026-05-04T13:40:58Z</time></trkpt><trkpt lat="42.075765943221356" lon="19.744770609112592"><ele>165.4</ele><time>2026-05-04T13:40:59Z</time></trkpt><trkpt lat="42.07585399533847" lon="19.74470397538736"><ele>166.6</ele><time>2026-05-04T13:41:00Z</time></trkpt><trkpt lat="42.07594239833962" lon="19.744639745474263"><ele>167.79999999999998</ele><time>2026-05-04T13:41:01Z</time></trkpt><trkpt lat="42.07603147228578" lon="19.744573481351566"><ele>169.0</ele><time>2026-05-04T13:41:02Z</time></trkpt><trkpt lat="42.076121732991695" lon="19.744498942163222"><ele>167.75</ele><time>2026-05-04T13:41:03Z</time></trkpt><trkpt lat="42.07621772966996" lon="19.7444183371032"><ele>166.5</ele><time>2026-05-04T13:41:04Z</time></trkpt><trkpt lat="42.07631579292265" lon="19.74434699776267"><ele>165.25</ele><time>2026-05-04T13:41:05Z</time></trkpt><trkpt lat="42.07643260067809" lon="19.744286457239824"><ele>164.0</ele><time>2026-05-04T13:41:06Z</time></trkpt><trkpt lat="42.07655107985763" lon="19.744221826862674"><ele>161.33333333333331</ele><time>2026-05-04T13:41:06.999Z</time></trkpt><trkpt lat="42.07664474232049" lon="19.744164584567887"><ele>158.66666666666666</ele><time>2026-05-04T13:41:07.999Z</time></trkpt><trkpt lat="42.076713642674754" lon="19.744091605511684"><ele>156.0</ele><time>2026-05-04T13:41:08.999Z</time></trkpt><trkpt lat="42.076762655362415" lon="19.7439993719235"><ele>153.33333333333334</ele><time>2026-05-04T13:41:09.999Z</time></trkpt><trkpt lat="42.076791353196334" lon="19.743896344972836"><ele>150.66666666666669</ele><time>2026-05-04T13:41:10.999Z</time></trkpt><trkpt lat="42.076797786941235" lon="19.74378333247838"><ele>148.0</ele><time>2026-05-04T13:41:11.999Z</time></trkpt><trkpt lat="42.07677812419374" lon="19.743653064696723"><ele>151.75</ele><time>2026-05-04T13:41:12.999Z</time></trkpt><trkpt lat="42.076755933886176" lon="19.743491434559708"><ele>155.5</ele><time>2026-05-04T13:41:13.999Z</time></trkpt><trkpt lat="42.076765109874636" lon="19.743327659312193"><ele>159.25</ele><time>2026-05-04T13:41:14.999Z</time></trkpt><trkpt lat="42.07680317950466" lon="19.743146753628714"><ele>163.0</ele><time>2026-05-04T13:41:15.999Z</time></trkpt><trkpt lat="42.07686239227427" lon="19.742951112645272"><ele>163.0</ele><time>2026-05-04T13:41:16.999Z</time></trkpt><trkpt lat="42.076894402897345" lon="19.742761610867806"><ele>163.0</ele><time>2026-05-04T13:41:17.999Z</time></trkpt><trkpt lat="42.07690573669226" lon="19.742541244960268"><ele>163.0</ele><time>2026-05-04T13:41:18.999Z</time></trkpt><trkpt lat="42.0769022648725" lon="19.74234190315518"><ele>163.4</ele><time>2026-05-04T13:41:19.999Z</time></trkpt><trkpt lat="42.07688730415705" lon="19.742219126314932"><ele>163.8</ele><time>2026-05-04T13:41:20.999Z</time></trkpt><trkpt lat="42.07684486133181" lon="19.74214908127146"><ele>164.2</ele><time>2026-05-04T13:41:21.999Z</time></trkpt><trkpt lat="42.076729999105936" lon="19.742052866082794"><ele>164.6</ele><time>2026-05-04T13:41:23.999Z</time></trkpt><trkpt lat="42.07664471443979" lon="19.74205781942526"><ele>165.0</ele><time>2026-05-04T13:41:24.999Z</time></trkpt><trkpt lat="42.07655335140766" lon="19.742103520121944"><ele>169.33333333333334</ele><time>2026-05-04T13:41:25.999Z</time></trkpt><trkpt lat="42.076443824569374" lon="19.742181280588767"><ele>173.66666666666666</ele><time>2026-05-04T13:41:26.999Z</time></trkpt><trkpt lat="42.07633938037058" lon="19.742212857105386"><ele>178.0</ele><time>2026-05-04T13:41:27.999Z</time></trkpt><trkpt lat="42.07627235338875" lon="19.742200304671975"><ele>182.33333333333331</ele><time>2026-05-04T13:41:28.999Z</time></trkpt><trkpt lat="42.07621741763481" lon="19.742146864996766"><ele>186.66666666666666</ele><time>2026-05-04T13:41:29.999Z</time></trkpt><trkpt lat="42.07617529353419" lon="19.742067479979614"><ele>191.0</ele><time>2026-05-04T13:41:30.999Z</time></trkpt><trkpt lat="42.07614195503565" lon="19.741967342136025"><ele>188.75</ele><time>2026-05-04T13:41:31.999Z</time></trkpt><trkpt lat="42.07611710321233" lon="19.74184322097287"><ele>186.5</ele><time>2026-05-04T13:41:32.999Z</time></trkpt><trkpt lat="42.07611983470371" lon="19.74169820630105"><ele>184.25</ele><time>2026-05-04T13:41:33.999Z</time></trkpt><trkpt lat="42.076142167844694" lon="19.741531164217477"><ele>182.0</ele><time>2026-05-04T13:41:34.999Z</time></trkpt><trkpt lat="42.07618303997547" lon="19.741336673884792"><ele>182.0</ele><time>2026-05-04T13:41:35.999Z</time></trkpt><trkpt lat="42.07622550422184" lon="19.74113528419624"><ele>182.0</ele><time>2026-05-04T13:41:36.999Z</time></trkpt><trkpt lat="42.07625808746766" lon="19.740914778488317"><ele>182.0</ele><time>2026-05-04T13:41:37.999Z</time></trkpt><trkpt lat="42.076277089159646" lon="19.74071433172054"><ele>180.0</ele><time>2026-05-04T13:41:38.999Z</time></trkpt><trkpt lat="42.07629766564581" lon="19.740505092865497"><ele>178.0</ele><time>2026-05-04T13:41:39.999Z</time></trkpt><trkpt lat="42.076341841000534" lon="19.74028308961669"><ele>176.0</ele><time>2026-05-04T13:41:40.999Z</time></trkpt><trkpt lat="42.07640130776583" lon="19.740042895953838"><ele>173.5</ele><time>2026-05-04T13:41:41.999Z</time></trkpt><trkpt lat="42.07644566716289" lon="19.739810645498366"><ele>171.0</ele><time>2026-05-04T13:41:42.999Z</time></trkpt><trkpt lat="42.076478373707324" lon="19.73961885139015"><ele>168.5</ele><time>2026-05-04T13:41:43.999Z</time></trkpt><trkpt lat="42.076496693680916" lon="19.73946461385148"><ele>166.0</ele><time>2026-05-04T13:41:44.999Z</time></trkpt><trkpt lat="42.07649854369276" lon="19.739345716511295"><ele>163.4</ele><time>2026-05-04T13:41:45.999Z</time></trkpt><trkpt lat="42.076479870299636" lon="19.73924988850959"><ele>160.8</ele><time>2026-05-04T13:41:46.999Z</time></trkpt><trkpt lat="42.07643889518827" lon="19.739161127952695"><ele>158.20000000000002</ele><time>2026-05-04T13:41:47.999Z</time></trkpt><trkpt lat="42.076367595249856" lon="19.739078835081607"><ele>155.60000000000002</ele><time>2026-05-04T13:41:48.999Z</time></trkpt><trkpt lat="42.07627001070556" lon="19.739019541985197"><ele>153.0</ele><time>2026-05-04T13:41:49.999Z</time></trkpt><trkpt lat="42.076165412051495" lon="19.738987569919455"><ele>153.0</ele><time>2026-05-04T13:41:50.999Z</time></trkpt><trkpt lat="42.07606403472496" lon="19.73899082889051"><ele>153.0</ele><time>2026-05-04T13:41:51.999Z</time></trkpt><trkpt lat="42.075999136847365" lon="19.73902556745694"><ele>153.0</ele><time>2026-05-04T13:41:52.999Z</time></trkpt><trkpt lat="42.075943976691654" lon="19.7390809466793"><ele>153.0</ele><time>2026-05-04T13:41:53.999Z</time></trkpt><trkpt lat="42.07588423178388" lon="19.739167122337307"><ele>153.0</ele><time>2026-05-04T13:41:54.999Z</time></trkpt><trkpt lat="42.07582585248408" lon="19.739291592603152"><ele>153.0</ele><time>2026-05-04T13:41:55.999Z</time></trkpt><trkpt lat="42.07576540561575" lon="19.739475490538812"><ele>157.60000000000002</ele><time>2026-05-04T13:41:56.999Z</time></trkpt><trkpt lat="42.07570106818308" lon="19.739649685322487"><ele>162.20000000000002</ele><time>2026-05-04T13:41:57.999Z</time></trkpt><trkpt lat="42.075631484599576" lon="19.73975182097487"><ele>166.8</ele><time>2026-05-04T13:41:58.999Z</time></trkpt><trkpt lat="42.075558547311786" lon="19.73981666559657"><ele>171.4</ele><time>2026-05-04T13:41:59.999Z</time></trkpt><trkpt lat="42.07549159149651" lon="19.7398277308337"><ele>176.0</ele><time>2026-05-04T13:42:00.999Z</time></trkpt><trkpt lat="42.075387412214994" lon="19.73975066639909"><ele>176.0</ele><time>2026-05-04T13:42:02.999Z</time></trkpt><trkpt lat="42.075367515378296" lon="19.739668551298106"><ele>176.0</ele><time>2026-05-04T13:42:03.999Z</time></trkpt><trkpt lat="42.07535618791278" lon="19.73954712853587"><ele>176.0</ele><time>2026-05-04T13:42:04.999Z</time></trkpt><trkpt lat="42.07536645292876" lon="19.73937820487512"><ele>176.0</ele><time>2026-05-04T13:42:05.999Z</time></trkpt><trkpt lat="42.07540227808062" lon="19.739173614904498"><ele>176.0</ele><time>2026-05-04T13:42:06.999Z</time></trkpt><trkpt lat="42.07544094230837" lon="19.738947178141174"><ele>172.20000000000002</ele><time>2026-05-04T13:42:07.999Z</time></trkpt><trkpt lat="42.07546026855482" lon="19.738755674881116"><ele>168.4</ele><time>2026-05-04T13:42:08.999Z</time></trkpt><trkpt lat="42.075463540699" lon="19.738621294693235"><ele>164.6</ele><time>2026-05-04T13:42:09.999Z</time></trkpt><trkpt lat="42.075407101573354" lon="19.7384829001215"><ele>160.8</ele><time>2026-05-04T13:42:11.999Z</time></trkpt><trkpt lat="42.0753414113115" lon="19.73843058154747"><ele>157.0</ele><time>2026-05-04T13:42:12.999Z</time></trkpt><trkpt lat="42.075216734880996" lon="19.738472658575372"><ele>157.0</ele><time>2026-05-04T13:42:14.999Z</time></trkpt><trkpt lat="42.07513122941879" lon="19.73855848779914"><ele>157.0</ele><time>2026-05-04T13:42:15.999Z</time></trkpt><trkpt lat="42.07502253388459" lon="19.738662286169095"><ele>157.0</ele><time>2026-05-04T13:42:16.999Z</time></trkpt><trkpt lat="42.07487504116905" lon="19.738758366181713"><ele>157.0</ele><time>2026-05-04T13:42:17.999Z</time></trkpt><trkpt lat="42.074689888344295" lon="19.738831041392707"><ele>150.66666666666669</ele><time>2026-05-04T13:42:18.999Z</time></trkpt><trkpt lat="42.07447501740038" lon="19.73889457966338"><ele>144.33333333333334</ele><time>2026-05-04T13:42:19.999Z</time></trkpt><trkpt lat="42.07424998419888" lon="19.738946768691907"><ele>138.0</ele><time>2026-05-04T13:42:20.999Z</time></trkpt><trkpt lat="42.074041843065736" lon="19.738985167414768"><ele>132.66666666666666</ele><time>2026-05-04T13:42:21.999Z</time></trkpt><trkpt lat="42.073854491829195" lon="19.73903265645193"><ele>127.33333333333333</ele><time>2026-05-04T13:42:22.999Z</time></trkpt><trkpt lat="42.07368591042119" lon="19.73909798554997"><ele>122.0</ele><time>2026-05-04T13:42:23.999Z</time></trkpt><trkpt lat="42.073514702176844" lon="19.73919904767745"><ele>122.0</ele><time>2026-05-04T13:42:24.999Z</time></trkpt><trkpt lat="42.07333979427515" lon="19.73931421318948"><ele>122.0</ele><time>2026-05-04T13:42:25.999Z</time></trkpt><trkpt lat="42.073190892322266" lon="19.739399636007114"><ele>122.0</ele><time>2026-05-04T13:42:26.999Z</time></trkpt><trkpt lat="42.07308003333461" lon="19.739440450782784"><ele>122.99999999999999</ele><time>2026-05-04T13:42:27.999Z</time></trkpt><trkpt lat="42.072974296109415" lon="19.739465387235075"><ele>124.0</ele><time>2026-05-04T13:42:28.999Z</time></trkpt><trkpt lat="42.07288119038742" lon="19.739465494225524"><ele>125.0</ele><time>2026-05-04T13:42:29.999Z</time></trkpt><trkpt lat="42.07280139412778" lon="19.73943883905056"><ele>126.0</ele><time>2026-05-04T13:42:30.999Z</time></trkpt><trkpt lat="42.07274785374449" lon="19.739369252175106"><ele>126.99999999999999</ele><time>2026-05-04T13:42:31.999Z</time></trkpt><trkpt lat="42.07270352740354" lon="19.73928023716261"><ele>128.0</ele><time>2026-05-04T13:42:32.999Z</time></trkpt><trkpt lat="42.072672981972964" lon="19.739161797567892"><ele>128.0</ele><time>2026-05-04T13:42:33.999Z</time></trkpt><trkpt lat="42.07265837045907" lon="19.738994130025002"><ele>128.0</ele><time>2026-05-04T13:42:35.999Z</time></trkpt><trkpt lat="42.07266348501584" lon="19.73887751008434"><ele>128.0</ele><time>2026-05-04T13:42:36.999Z</time></trkpt><trkpt lat="42.07269788508666" lon="19.738731816030025"><ele>128.0</ele><time>2026-05-04T13:42:37.999Z</time></trkpt><trkpt lat="42.07275851057218" lon="19.738559353906204"><ele>130.66666666666666</ele><time>2026-05-04T13:42:38.999Z</time></trkpt><trkpt lat="42.07284065926695" lon="19.738359453816848"><ele>133.33333333333334</ele><time>2026-05-04T13:42:39.999Z</time></trkpt><trkpt lat="42.07293340734364" lon="19.738143922083005"><ele>136.0</ele><time>2026-05-04T13:42:40.999Z</time></trkpt><trkpt lat="42.073030148030355" lon="19.73792792636198"><ele>136.0</ele><time>2026-05-04T13:42:41.999Z</time></trkpt><trkpt lat="42.073116589432445" lon="19.73774407548949"><ele>136.0</ele><time>2026-05-04T13:42:43Z</time></trkpt><trkpt lat="42.07320235255817" lon="19.73758364005526"><ele>136.0</ele><time>2026-05-04T13:42:44Z</time></trkpt><trkpt lat="42.073285114445184" lon="19.73747724810241"><ele>136.0</ele><time>2026-05-04T13:42:45Z</time></trkpt><trkpt lat="42.07339713198411" lon="19.737386511724477"><ele>133.0</ele><time>2026-05-04T13:42:46Z</time></trkpt><trkpt lat="42.073542173083936" lon="19.737311464800662"><ele>130.0</ele><time>2026-05-04T13:42:47Z</time></trkpt><trkpt lat="42.073709244356074" lon="19.737227313866118"><ele>127.0</ele><time>2026-05-04T13:42:48Z</time></trkpt><trkpt lat="42.07385625769478" lon="19.73711838926188"><ele>127.0</ele><time>2026-05-04T13:42:49Z</time></trkpt><trkpt lat="42.073984795214166" lon="19.736957927330128"><ele>127.0</ele><time>2026-05-04T13:42:50Z</time></trkpt><trkpt lat="42.07412764207543" lon="19.736734651186293"><ele>127.0</ele><time>2026-05-04T13:42:51Z</time></trkpt><trkpt lat="42.07430589778405" lon="19.7364884850654"><ele>127.5</ele><time>2026-05-04T13:42:52Z</time></trkpt><trkpt lat="42.074496806516024" lon="19.73623455200395"><ele>128.0</ele><time>2026-05-04T13:42:53Z</time></trkpt><trkpt lat="42.07467130527521" lon="19.736013254998305"><ele>131.66666666666666</ele><time>2026-05-04T13:42:54Z</time></trkpt><trkpt lat="42.07482226891505" lon="19.735828008080052"><ele>135.33333333333334</ele><time>2026-05-04T13:42:55Z</time></trkpt><trkpt lat="42.07497966593487" lon="19.73565043816221"><ele>139.0</ele><time>2026-05-04T13:42:56Z</time></trkpt><trkpt lat="42.075151958058505" lon="19.735454646018187"><ele>139.0</ele><time>2026-05-04T13:42:57Z</time></trkpt><trkpt lat="42.07532253553189" lon="19.735246096859626"><ele>139.0</ele><time>2026-05-04T13:42:58Z</time></trkpt><trkpt lat="42.07545520787683" lon="19.735048489789108"><ele>139.0</ele><time>2026-05-04T13:42:59Z</time></trkpt><trkpt lat="42.07558034144431" lon="19.73480840092981"><ele>139.66666666666669</ele><time>2026-05-04T13:43:00Z</time></trkpt><trkpt lat="42.075690849752974" lon="19.73460479868446"><ele>140.33333333333334</ele><time>2026-05-04T13:43:01Z</time></trkpt><trkpt lat="42.075788206050504" lon="19.734466621266204"><ele>141.0</ele><time>2026-05-04T13:43:02Z</time></trkpt><trkpt lat="42.07591287280114" lon="19.73432226431996"><ele>147.25</ele><time>2026-05-04T13:43:03Z</time></trkpt><trkpt lat="42.07600581621119" lon="19.734158537503433"><ele>153.5</ele><time>2026-05-04T13:43:04Z</time></trkpt><trkpt lat="42.07608265865415" lon="19.733978853400956"><ele>159.75</ele><time>2026-05-04T13:43:05Z</time></trkpt><trkpt lat="42.07616058289143" lon="19.73386013953"><ele>166.0</ele><time>2026-05-04T13:43:06Z</time></trkpt><trkpt lat="42.07623376770184" lon="19.733789976985033"><ele>166.0</ele><time>2026-05-04T13:43:07Z</time></trkpt><trkpt lat="42.07631787398095" lon="19.73376754626442"><ele>166.0</ele><time>2026-05-04T13:43:08Z</time></trkpt><trkpt lat="42.07640446150722" lon="19.733794889522557"><ele>166.0</ele><time>2026-05-04T13:43:09Z</time></trkpt><trkpt lat="42.076494891843865" lon="19.733848991487406"><ele>166.0</ele><time>2026-05-04T13:43:10Z</time></trkpt><trkpt lat="42.07659985500971" lon="19.733919470749"><ele>166.0</ele><time>2026-05-04T13:43:11Z</time></trkpt><trkpt lat="42.07672964896862" lon="19.733964155943557"><ele>163.20000000000002</ele><time>2026-05-04T13:43:12Z</time></trkpt><trkpt lat="42.076848729059535" lon="19.733964172096243"><ele>160.4</ele><time>2026-05-04T13:43:13Z</time></trkpt><trkpt lat="42.076949449274586" lon="19.73390016700934"><ele>157.6</ele><time>2026-05-04T13:43:14Z</time></trkpt><trkpt lat="42.077022832340674" lon="19.733819417354887"><ele>154.8</ele><time>2026-05-04T13:43:15Z</time></trkpt><trkpt lat="42.07706156108214" lon="19.733712124748337"><ele>152.0</ele><time>2026-05-04T13:43:16Z</time></trkpt><trkpt lat="42.07708087772783" lon="19.733574410801857"><ele>158.5</ele><time>2026-05-04T13:43:17Z</time></trkpt><trkpt lat="42.07706867736801" lon="19.733413158330826"><ele>165.0</ele><time>2026-05-04T13:43:18Z</time></trkpt><trkpt lat="42.077032268064045" lon="19.7332252750224"><ele>171.5</ele><time>2026-05-04T13:43:19Z</time></trkpt><trkpt lat="42.077012861582695" lon="19.73303113137781"><ele>178.0</ele><time>2026-05-04T13:43:20Z</time></trkpt><trkpt lat="42.077023108003985" lon="19.732862017903273"><ele>178.0</ele><time>2026-05-04T13:43:21Z</time></trkpt><trkpt lat="42.0770527751354" lon="19.73272974372968"><ele>178.0</ele><time>2026-05-04T13:43:22Z</time></trkpt><trkpt lat="42.07709272107325" lon="19.732651995010478"><ele>178.0</ele><time>2026-05-04T13:43:23Z</time></trkpt><trkpt lat="42.07714882275971" lon="19.732596877946023"><ele>178.0</ele><time>2026-05-04T13:43:24Z</time></trkpt><trkpt lat="42.07722192372427" lon="19.732589503557907"><ele>178.0</ele><time>2026-05-04T13:43:25Z</time></trkpt><trkpt lat="42.077321194499" lon="19.73260999171479"><ele>178.0</ele><time>2026-05-04T13:43:26Z</time></trkpt><trkpt lat="42.07744262979003" lon="19.73263649072068"><ele>177.4</ele><time>2026-05-04T13:43:27Z</time></trkpt><trkpt lat="42.07756230426655" lon="19.732622288588143"><ele>176.8</ele><time>2026-05-04T13:43:28Z</time></trkpt><trkpt lat="42.077655092050286" lon="19.73256774911877"><ele>176.2</ele><time>2026-05-04T13:43:29Z</time></trkpt><trkpt lat="42.077717136367376" lon="19.732474606779935"><ele>175.6</ele><time>2026-05-04T13:43:30Z</time></trkpt><trkpt lat="42.0777680518279" lon="19.73233786595516"><ele>175.0</ele><time>2026-05-04T13:43:31Z</time></trkpt><trkpt lat="42.07782266262277" lon="19.73214964342855"><ele>175.0</ele><time>2026-05-04T13:43:32Z</time></trkpt><trkpt lat="42.07788729734473" lon="19.731956725000316"><ele>175.0</ele><time>2026-05-04T13:43:33Z</time></trkpt><trkpt lat="42.077973213620915" lon="19.731743592001738"><ele>175.0</ele><time>2026-05-04T13:43:34Z</time></trkpt><trkpt lat="42.07803720609213" lon="19.73159134068474"><ele>175.33333333333334</ele><time>2026-05-04T13:43:35Z</time></trkpt><trkpt lat="42.07805834249826" lon="19.731486497420356"><ele>175.66666666666669</ele><time>2026-05-04T13:43:36Z</time></trkpt><trkpt lat="42.07804077541038" lon="19.731401617294598"><ele>176.0</ele><time>2026-05-04T13:43:37Z</time></trkpt><trkpt lat="42.07799333333501" lon="19.73133237420055"><ele>176.33333333333334</ele><time>2026-05-04T13:43:38Z</time></trkpt><trkpt lat="42.077925019880226" lon="19.73129045934445"><ele>176.66666666666666</ele><time>2026-05-04T13:43:39Z</time></trkpt><trkpt lat="42.07783338273904" lon="19.731293981179938"><ele>177.0</ele><time>2026-05-04T13:43:40Z</time></trkpt><trkpt lat="42.077715188163495" lon="19.731351040203077"><ele>177.0</ele><time>2026-05-04T13:43:41Z</time></trkpt><trkpt lat="42.07758742278697" lon="19.731440837354363"><ele>177.0</ele><time>2026-05-04T13:43:42Z</time></trkpt><trkpt lat="42.07743885479827" lon="19.731528486034893"><ele>177.0</ele><time>2026-05-04T13:43:43Z</time></trkpt><trkpt lat="42.07727951027311" lon="19.731592913880128"><ele>177.33333333333334</ele><time>2026-05-04T13:43:44Z</time></trkpt><trkpt lat="42.077112267440405" lon="19.731635002510657"><ele>177.66666666666669</ele><time>2026-05-04T13:43:45Z</time></trkpt><trkpt lat="42.076945212945375" lon="19.731655593648668"><ele>178.0</ele><time>2026-05-04T13:43:46Z</time></trkpt><trkpt lat="42.07677227666508" lon="19.731634774430855"><ele>184.0</ele><time>2026-05-04T13:43:47Z</time></trkpt><trkpt lat="42.07658937240093" lon="19.731582392728658"><ele>190.0</ele><time>2026-05-04T13:43:48Z</time></trkpt><trkpt lat="42.07639243256438" lon="19.73151929699125"><ele>196.0</ele><time>2026-05-04T13:43:49Z</time></trkpt><trkpt lat="42.07618822166311" lon="19.731467644553323"><ele>196.0</ele><time>2026-05-04T13:43:50Z</time></trkpt><trkpt lat="42.07596528605755" lon="19.731418503021615"><ele>196.0</ele><time>2026-05-04T13:43:51Z</time></trkpt><trkpt lat="42.075772604717706" lon="19.73137370806816"><ele>196.0</ele><time>2026-05-04T13:43:52Z</time></trkpt><trkpt lat="42.07560958065461" lon="19.731314534287986"><ele>197.60000000000002</ele><time>2026-05-04T13:43:53Z</time></trkpt><trkpt lat="42.07548046453261" lon="19.731246841543836"><ele>199.2</ele><time>2026-05-04T13:43:54Z</time></trkpt><trkpt lat="42.07537619310738" lon="19.731161293352567"><ele>200.8</ele><time>2026-05-04T13:43:55Z</time></trkpt><trkpt lat="42.075310446580765" lon="19.73107319376835"><ele>202.39999999999998</ele><time>2026-05-04T13:43:56Z</time></trkpt><trkpt lat="42.075267364865034" lon="19.730977776203595"><ele>204.0</ele><time>2026-05-04T13:43:57Z</time></trkpt><trkpt lat="42.07525036657755" lon="19.730874553819767"><ele>204.0</ele><time>2026-05-04T13:43:58Z</time></trkpt><trkpt lat="42.07526558716529" lon="19.73077651967287"><ele>204.0</ele><time>2026-05-04T13:43:59Z</time></trkpt><trkpt lat="42.075309308610564" lon="19.73067875066808"><ele>204.0</ele><time>2026-05-04T13:44:00Z</time></trkpt><trkpt lat="42.07537340439361" lon="19.73059132526848"><ele>204.0</ele><time>2026-05-04T13:44:01Z</time></trkpt><trkpt lat="42.075460954148056" lon="19.7304871761596"><ele>204.0</ele><time>2026-05-04T13:44:02Z</time></trkpt><trkpt lat="42.07554466031755" lon="19.73036016354071"><ele>204.0</ele><time>2026-05-04T13:44:03Z</time></trkpt><trkpt lat="42.075641634364324" lon="19.730229120675503"><ele>204.0</ele><time>2026-05-04T13:44:04Z</time></trkpt><trkpt lat="42.075736247876094" lon="19.73009609478191"><ele>204.0</ele><time>2026-05-04T13:44:05Z</time></trkpt><trkpt lat="42.07578808355544" lon="19.729975913343882"><ele>204.0</ele><time>2026-05-04T13:44:06Z</time></trkpt><trkpt lat="42.07582392654716" lon="19.729831318209595"><ele>202.25</ele><time>2026-05-04T13:44:07Z</time></trkpt><trkpt lat="42.075833629241764" lon="19.729680849010556"><ele>200.5</ele><time>2026-05-04T13:44:08Z</time></trkpt><trkpt lat="42.0758232000902" lon="19.72951704256628"><ele>198.75</ele><time>2026-05-04T13:44:09Z</time></trkpt><trkpt lat="42.07577935386912" lon="19.729344179027194"><ele>197.0</ele><time>2026-05-04T13:44:10Z</time></trkpt><trkpt lat="42.07570575779597" lon="19.729149874324545"><ele>204.33333333333334</ele><time>2026-05-04T13:44:11Z</time></trkpt><trkpt lat="42.07561418213453" lon="19.728960840525634"><ele>211.66666666666669</ele><time>2026-05-04T13:44:12Z</time></trkpt><trkpt lat="42.075520429319205" lon="19.728759277124333"><ele>219.0</ele><time>2026-05-04T13:44:13Z</time></trkpt><trkpt lat="42.07544384648218" lon="19.728586529922435"><ele>219.0</ele><time>2026-05-04T13:44:13.999Z</time></trkpt><trkpt lat="42.075377946269" lon="19.72848559059414"><ele>218.99999999999997</ele><time>2026-05-04T13:44:14.999Z</time></trkpt><trkpt lat="42.07530417372001" lon="19.72844188882663"><ele>218.99999999999997</ele><time>2026-05-04T13:44:15.999Z</time></trkpt><trkpt lat="42.07520666102217" lon="19.72843936260484"><ele>219.0</ele><time>2026-05-04T13:44:16.999Z</time></trkpt><trkpt lat="42.07510890343158" lon="19.72849079490235"><ele>219.0</ele><time>2026-05-04T13:44:17.999Z</time></trkpt><trkpt lat="42.07500662060595" lon="19.72857834067944"><ele>222.5</ele><time>2026-05-04T13:44:18.999Z</time></trkpt><trkpt lat="42.07489831842771" lon="19.728677694062004"><ele>226.0</ele><time>2026-05-04T13:44:19.999Z</time></trkpt><trkpt lat="42.074777701503876" lon="19.728740215472413"><ele>229.5</ele><time>2026-05-04T13:44:20.999Z</time></trkpt><trkpt lat="42.07467695712538" lon="19.72874780327342"><ele>233.0</ele><time>2026-05-04T13:44:21.999Z</time></trkpt><trkpt lat="42.074588713218205" lon="19.728702574729954"><ele>233.0</ele><time>2026-05-04T13:44:22.999Z</time></trkpt><trkpt lat="42.07448696596648" lon="19.728616148854815"><ele>233.0</ele><time>2026-05-04T13:44:23.999Z</time></trkpt><trkpt lat="42.07437822116936" lon="19.728492768288408"><ele>233.0</ele><time>2026-05-04T13:44:24.999Z</time></trkpt><trkpt lat="42.07426111920164" lon="19.72833949458388"><ele>233.0</ele><time>2026-05-04T13:44:25.999Z</time></trkpt><trkpt lat="42.074145515563394" lon="19.72821649712597"><ele>229.5</ele><time>2026-05-04T13:44:26.999Z</time></trkpt><trkpt lat="42.07403533092332" lon="19.72815322673086"><ele>226.0</ele><time>2026-05-04T13:44:27.999Z</time></trkpt><trkpt lat="42.07390150137952" lon="19.72814945397768"><ele>222.5</ele><time>2026-05-04T13:44:28.999Z</time></trkpt><trkpt lat="42.0737344122745" lon="19.728183043567743"><ele>219.0</ele><time>2026-05-04T13:44:29.999Z</time></trkpt><trkpt lat="42.07356784482877" lon="19.72822711458464"><ele>219.0</ele><time>2026-05-04T13:44:30.999Z</time></trkpt><trkpt lat="42.07345027672695" lon="19.728231644285156"><ele>218.99999999999997</ele><time>2026-05-04T13:44:31.999Z</time></trkpt><trkpt lat="42.07335005224226" lon="19.728203052433592"><ele>218.99999999999997</ele><time>2026-05-04T13:44:32.999Z</time></trkpt><trkpt lat="42.07325738937683" lon="19.728143639004713"><ele>219.0</ele><time>2026-05-04T13:44:33.999Z</time></trkpt><trkpt lat="42.07319498467727" lon="19.728064347776147"><ele>219.0</ele><time>2026-05-04T13:44:34.999Z</time></trkpt><trkpt lat="42.07315543433139" lon="19.727972454565457"><ele>225.75</ele><time>2026-05-04T13:44:35.999Z</time></trkpt><trkpt lat="42.07313548787781" lon="19.727846872791627"><ele>232.5</ele><time>2026-05-04T13:44:36.999Z</time></trkpt><trkpt lat="42.07312124226115" lon="19.72766990797125"><ele>239.25</ele><time>2026-05-04T13:44:37.999Z</time></trkpt><trkpt lat="42.0731293302207" lon="19.727438972465105"><ele>246.0</ele><time>2026-05-04T13:44:38.999Z</time></trkpt><trkpt lat="42.073150270589345" lon="19.727188879039684"><ele>246.0</ele><time>2026-05-04T13:44:39.999Z</time></trkpt><trkpt lat="42.07317746900645" lon="19.726926928276384"><ele>246.0</ele><time>2026-05-04T13:44:40.999Z</time></trkpt><trkpt lat="42.07322217012938" lon="19.726638091475493"><ele>246.0</ele><time>2026-05-04T13:44:41.999Z</time></trkpt><trkpt lat="42.073254770609076" lon="19.726392991922197"><ele>244.5</ele><time>2026-05-04T13:44:42.999Z</time></trkpt><trkpt lat="42.07326715207167" lon="19.726179422556278"><ele>243.0</ele><time>2026-05-04T13:44:43.999Z</time></trkpt><trkpt lat="42.0732644460762" lon="19.72599750937251"><ele>241.5</ele><time>2026-05-04T13:44:44.999Z</time></trkpt><trkpt lat="42.07322108884276" lon="19.725850744067436"><ele>240.0</ele><time>2026-05-04T13:44:45.999Z</time></trkpt><trkpt lat="42.073164271403705" lon="19.72570700015866"><ele>234.4</ele><time>2026-05-04T13:44:46.999Z</time></trkpt><trkpt lat="42.07309227686188" lon="19.72558999931111"><ele>228.8</ele><time>2026-05-04T13:44:47.999Z</time></trkpt><trkpt lat="42.07301770479336" lon="19.725523011080305"><ele>223.2</ele><time>2026-05-04T13:44:49Z</time></trkpt><trkpt lat="42.072940546687875" lon="19.72549648131445"><ele>217.6</ele><time>2026-05-04T13:44:50Z</time></trkpt><trkpt lat="42.072842273098615" lon="19.725504665881846"><ele>212.0</ele><time>2026-05-04T13:44:51Z</time></trkpt><trkpt lat="42.07272975255176" lon="19.72554948446285"><ele>212.0</ele><time>2026-05-04T13:44:52Z</time></trkpt><trkpt lat="42.07261321277856" lon="19.725594919494384"><ele>212.0</ele><time>2026-05-04T13:44:53Z</time></trkpt><trkpt lat="42.07249436726286" lon="19.72559995914748"><ele>212.0</ele><time>2026-05-04T13:44:54Z</time></trkpt><trkpt lat="42.07240610985056" lon="19.725562960770198"><ele>212.0</ele><time>2026-05-04T13:44:55Z</time></trkpt><trkpt lat="42.07233516584768" lon="19.725481321313747"><ele>212.0</ele><time>2026-05-04T13:44:56Z</time></trkpt><trkpt lat="42.07226609221224" lon="19.725361813265934"><ele>207.75</ele><time>2026-05-04T13:44:57Z</time></trkpt><trkpt lat="42.07218299590883" lon="19.72521775305004"><ele>203.5</ele><time>2026-05-04T13:44:58Z</time></trkpt><trkpt lat="42.072077573003405" lon="19.72511062242858"><ele>199.25</ele><time>2026-05-04T13:44:59Z</time></trkpt><trkpt lat="42.0719469864059" lon="19.725023744790995"><ele>195.0</ele><time>2026-05-04T13:45:00Z</time></trkpt><trkpt lat="42.07182492040319" lon="19.724960870491767"><ele>195.0</ele><time>2026-05-04T13:45:01Z</time></trkpt><trkpt lat="42.07171236245716" lon="19.72493695640716"><ele>195.0</ele><time>2026-05-04T13:45:02Z</time></trkpt><trkpt lat="42.0715958514307" lon="19.724937625739617"><ele>195.0</ele><time>2026-05-04T13:45:03Z</time></trkpt><trkpt lat="42.07148876283941" lon="19.724987741674273"><ele>195.0</ele><time>2026-05-04T13:45:04Z</time></trkpt><trkpt lat="42.07137089292941" lon="19.725082305250506"><ele>195.66666666666669</ele><time>2026-05-04T13:45:05Z</time></trkpt><trkpt lat="42.07124222869371" lon="19.72520386946027"><ele>196.33333333333334</ele><time>2026-05-04T13:45:06Z</time></trkpt><trkpt lat="42.071108631974845" lon="19.72534688319457"><ele>197.0</ele><time>2026-05-04T13:45:07Z</time></trkpt><trkpt lat="42.071003118342745" lon="19.725494026031598"><ele>197.0</ele><time>2026-05-04T13:45:08Z</time></trkpt><trkpt lat="42.07092301737306" lon="19.72565429005908"><ele>197.0</ele><time>2026-05-04T13:45:09Z</time></trkpt><trkpt lat="42.07085260064258" lon="19.725845780150475"><ele>197.0</ele><time>2026-05-04T13:45:10Z</time></trkpt><trkpt lat="42.07077414189096" lon="19.726082566070502"><ele>200.5</ele><time>2026-05-04T13:45:11Z</time></trkpt><trkpt lat="42.0706909968265" lon="19.72632205344733"><ele>204.0</ele><time>2026-05-04T13:45:12Z</time></trkpt><trkpt lat="42.07062007044944" lon="19.72647314846703"><ele>207.5</ele><time>2026-05-04T13:45:13Z</time></trkpt><trkpt lat="42.07056164631771" lon="19.726559248291142"><ele>211.0</ele><time>2026-05-04T13:45:14Z</time></trkpt><trkpt lat="42.070443583944154" lon="19.72660784674331"><ele>211.0</ele><time>2026-05-04T13:45:16Z</time></trkpt><trkpt lat="42.07034590912523" lon="19.72660686640897"><ele>211.0</ele><time>2026-05-04T13:45:17Z</time></trkpt><trkpt lat="42.07023241343228" lon="19.72656682880707"><ele>211.0</ele><time>2026-05-04T13:45:18Z</time></trkpt><trkpt lat="42.07010253188728" lon="19.726492798020768"><ele>211.0</ele><time>2026-05-04T13:45:19Z</time></trkpt><trkpt lat="42.06996689605832" lon="19.72639351619209"><ele>214.0</ele><time>2026-05-04T13:45:20Z</time></trkpt><trkpt lat="42.0698488583903" lon="19.726266885913898"><ele>217.0</ele><time>2026-05-04T13:45:21Z</time></trkpt><trkpt lat="42.069741133111684" lon="19.726102489122916"><ele>220.0</ele><time>2026-05-04T13:45:22Z</time></trkpt><trkpt lat="42.06964882479298" lon="19.725926743000535"><ele>220.0</ele><time>2026-05-04T13:45:23Z</time></trkpt><trkpt lat="42.06954939154212" lon="19.725726231510208"><ele>220.0</ele><time>2026-05-04T13:45:24Z</time></trkpt><trkpt lat="42.06945861054431" lon="19.72555748985725"><ele>220.0</ele><time>2026-05-04T13:45:25Z</time></trkpt><trkpt lat="42.06937593318261" lon="19.725421212847994"><ele>220.0</ele><time>2026-05-04T13:45:26Z</time></trkpt><trkpt lat="42.069323680083755" lon="19.72530669899969"><ele>220.0</ele><time>2026-05-04T13:45:27Z</time></trkpt><trkpt lat="42.06930756361169" lon="19.725197537610583"><ele>220.0</ele><time>2026-05-04T13:45:28Z</time></trkpt><trkpt lat="42.069328983670616" lon="19.725093628354568"><ele>220.0</ele><time>2026-05-04T13:45:29Z</time></trkpt><trkpt lat="42.06937267095835" lon="19.724982691422873"><ele>220.0</ele><time>2026-05-04T13:45:30Z</time></trkpt><trkpt lat="42.06945982086233" lon="19.72483738778916"><ele>220.0</ele><time>2026-05-04T13:45:31Z</time></trkpt><trkpt lat="42.06956866324982" lon="19.72469497316102"><ele>220.0</ele><time>2026-05-04T13:45:32Z</time></trkpt><trkpt lat="42.069674874993254" lon="19.72454886023973"><ele>220.0</ele><time>2026-05-04T13:45:33Z</time></trkpt><trkpt lat="42.0697536551988" lon="19.724417321725696"><ele>220.0</ele><time>2026-05-04T13:45:34Z</time></trkpt><trkpt lat="42.06980801821549" lon="19.72428519414666"><ele>218.75</ele><time>2026-05-04T13:45:35Z</time></trkpt><trkpt lat="42.06984437471549" lon="19.724135830670583"><ele>217.5</ele><time>2026-05-04T13:45:36Z</time></trkpt><trkpt lat="42.06986111253641" lon="19.723973555236984"><ele>216.25</ele><time>2026-05-04T13:45:37Z</time></trkpt><trkpt lat="42.069850958555094" lon="19.723791638690052"><ele>215.0</ele><time>2026-05-04T13:45:38Z</time></trkpt><trkpt lat="42.06981112435686" lon="19.723603955178934"><ele>212.66666666666669</ele><time>2026-05-04T13:45:39Z</time></trkpt><trkpt lat="42.0697402768815" lon="19.723376294167437"><ele>210.33333333333331</ele><time>2026-05-04T13:45:40Z</time></trkpt><trkpt lat="42.06965076639854" lon="19.72312428930345"><ele>208.0</ele><time>2026-05-04T13:45:41Z</time></trkpt><trkpt lat="42.06955714834676" lon="19.722861772601828"><ele>203.66666666666666</ele><time>2026-05-04T13:45:42Z</time></trkpt><trkpt lat="42.06947312381379" lon="19.722633849906323"><ele>199.33333333333331</ele><time>2026-05-04T13:45:43Z</time></trkpt><trkpt lat="42.06940052540486" lon="19.722468468873934"><ele>195.0</ele><time>2026-05-04T13:45:44Z</time></trkpt><trkpt lat="42.06932818439621" lon="19.722333363454993"><ele>195.0</ele><time>2026-05-04T13:45:45Z</time></trkpt><trkpt lat="42.0692331366821" lon="19.722229161180064"><ele>195.0</ele><time>2026-05-04T13:45:46Z</time></trkpt><trkpt lat="42.06911471095174" lon="19.72213368501364"><ele>195.0</ele><time>2026-05-04T13:45:47Z</time></trkpt><trkpt lat="42.068984527658934" lon="19.72206642245568"><ele>195.0</ele><time>2026-05-04T13:45:48Z</time></trkpt><trkpt lat="42.0688270108154" lon="19.722020156703717"><ele>191.33333333333334</ele><time>2026-05-04T13:45:49Z</time></trkpt><trkpt lat="42.06865806379166" lon="19.721958797159118"><ele>187.66666666666669</ele><time>2026-05-04T13:45:50Z</time></trkpt><trkpt lat="42.068469193416185" lon="19.721870421747038"><ele>184.0</ele><time>2026-05-04T13:45:51Z</time></trkpt><trkpt lat="42.06828245301416" lon="19.721779231185916"><ele>189.33333333333334</ele><time>2026-05-04T13:45:52Z</time></trkpt><trkpt lat="42.06810776434038" lon="19.721692816978695"><ele>194.66666666666669</ele><time>2026-05-04T13:45:53Z</time></trkpt><trkpt lat="42.06796903962291" lon="19.721605071905298"><ele>200.0</ele><time>2026-05-04T13:45:54Z</time></trkpt><trkpt lat="42.06783700902853" lon="19.721481294887337"><ele>200.0</ele><time>2026-05-04T13:45:55Z</time></trkpt><trkpt lat="42.06770001833281" lon="19.721356554598717"><ele>200.0</ele><time>2026-05-04T13:45:56Z</time></trkpt><trkpt lat="42.067571278556976" lon="19.72128354799363"><ele>200.0</ele><time>2026-05-04T13:45:57Z</time></trkpt><trkpt lat="42.06742960589544" lon="19.72121941608691"><ele>200.25</ele><time>2026-05-04T13:45:58Z</time></trkpt><trkpt lat="42.067314924384085" lon="19.72112404548357"><ele>200.5</ele><time>2026-05-04T13:45:59Z</time></trkpt><trkpt lat="42.06719880368566" lon="19.720986030449065"><ele>200.75</ele><time>2026-05-04T13:46:00Z</time></trkpt><trkpt lat="42.06708660948055" lon="19.720843327934656"><ele>201.0</ele><time>2026-05-04T13:46:01Z</time></trkpt><trkpt lat="42.066973965140825" lon="19.720689156688547"><ele>201.0</ele><time>2026-05-04T13:46:02Z</time></trkpt><trkpt lat="42.06682848040328" lon="19.720502789158257"><ele>201.0</ele><time>2026-05-04T13:46:03Z</time></trkpt><trkpt lat="42.06667511671005" lon="19.720298314869186"><ele>201.0</ele><time>2026-05-04T13:46:04Z</time></trkpt><trkpt lat="42.06651811599929" lon="19.720082287771778"><ele>196.66666666666666</ele><time>2026-05-04T13:46:05Z</time></trkpt><trkpt lat="42.06638435445858" lon="19.7198919779268"><ele>192.33333333333331</ele><time>2026-05-04T13:46:06Z</time></trkpt><trkpt lat="42.06624363374806" lon="19.719726697578288"><ele>188.0</ele><time>2026-05-04T13:46:07Z</time></trkpt><trkpt lat="42.06606210804627" lon="19.719535913828143"><ele>179.33333333333331</ele><time>2026-05-04T13:46:08Z</time></trkpt><trkpt lat="42.06588722731605" lon="19.71937782939176"><ele>170.66666666666666</ele><time>2026-05-04T13:46:09Z</time></trkpt><trkpt lat="42.065758676615296" lon="19.719257178497813"><ele>162.0</ele><time>2026-05-04T13:46:10Z</time></trkpt><trkpt lat="42.06566715519819" lon="19.71916795309641"><ele>162.0</ele><time>2026-05-04T13:46:11Z</time></trkpt><trkpt lat="42.06558385510076" lon="19.719096382509466"><ele>162.0</ele><time>2026-05-04T13:46:12Z</time></trkpt><trkpt lat="42.065496027138565" lon="19.719047825219853"><ele>162.0</ele><time>2026-05-04T13:46:13Z</time></trkpt><trkpt lat="42.06540793849037" lon="19.71904273969499"><ele>162.0</ele><time>2026-05-04T13:46:14Z</time></trkpt><trkpt lat="42.065301286968634" lon="19.719067600688145"><ele>162.0</ele><time>2026-05-04T13:46:15Z</time></trkpt><trkpt lat="42.06517660354709" lon="19.719147977776327"><ele>162.0</ele><time>2026-05-04T13:46:16Z</time></trkpt><trkpt lat="42.065066582284366" lon="19.719241274559018"><ele>162.0</ele><time>2026-05-04T13:46:17Z</time></trkpt><trkpt lat="42.064983260127015" lon="19.719256518198996"><ele>162.0</ele><time>2026-05-04T13:46:18Z</time></trkpt><trkpt lat="42.06492618084638" lon="19.719212630796694"><ele>162.0</ele><time>2026-05-04T13:46:19Z</time></trkpt><trkpt lat="42.0648807614625" lon="19.719110320387365"><ele>162.0</ele><time>2026-05-04T13:46:20Z</time></trkpt><trkpt lat="42.0648468885821" lon="19.718951460345625"><ele>160.25</ele><time>2026-05-04T13:46:21Z</time></trkpt><trkpt lat="42.064809493651495" lon="19.718756104280754"><ele>158.5</ele><time>2026-05-04T13:46:22Z</time></trkpt><trkpt lat="42.064757478035695" lon="19.718611820738076"><ele>156.75</ele><time>2026-05-04T13:46:23Z</time></trkpt><trkpt lat="42.06468753966377" lon="19.71853002268414"><ele>155.0</ele><time>2026-05-04T13:46:24Z</time></trkpt><trkpt lat="42.06458683510035" lon="19.71845518941995"><ele>155.0</ele><time>2026-05-04T13:46:25Z</time></trkpt><trkpt lat="42.06444617034286" lon="19.718379931723703"><ele>155.0</ele><time>2026-05-04T13:46:26Z</time></trkpt><trkpt lat="42.06428002684151" lon="19.718301245959854"><ele>155.0</ele><time>2026-05-04T13:46:27Z</time></trkpt><trkpt lat="42.064097136695985" lon="19.718207230187097"><ele>158.5</ele><time>2026-05-04T13:46:28Z</time></trkpt><trkpt lat="42.06388819457518" lon="19.718098300962033"><ele>162.0</ele><time>2026-05-04T13:46:29Z</time></trkpt><trkpt lat="42.063669609321664" lon="19.718003569649685"><ele>162.0</ele><time>2026-05-04T13:46:30Z</time></trkpt><trkpt lat="42.063475006332084" lon="19.717938104994243"><ele>162.0</ele><time>2026-05-04T13:46:31Z</time></trkpt><trkpt lat="42.06332475513127" lon="19.717877009636567"><ele>162.0</ele><time>2026-05-04T13:46:32Z</time></trkpt><trkpt lat="42.063221047120344" lon="19.71783560785282"><ele>160.4</ele><time>2026-05-04T13:46:33Z</time></trkpt><trkpt lat="42.063146482154615" lon="19.717776634211464"><ele>158.79999999999998</ele><time>2026-05-04T13:46:34Z</time></trkpt><trkpt lat="42.06309576709283" lon="19.717698849983716"><ele>157.2</ele><time>2026-05-04T13:46:35Z</time></trkpt><trkpt lat="42.063043556859114" lon="19.71751149615199"><ele>155.6</ele><time>2026-05-04T13:46:37Z</time></trkpt><trkpt lat="42.06303057498683" lon="19.717348350351646"><ele>154.0</ele><time>2026-05-04T13:46:38Z</time></trkpt><trkpt lat="42.06302438824539" lon="19.71715795624632"><ele>152.8</ele><time>2026-05-04T13:46:39Z</time></trkpt><trkpt lat="42.06302242034051" lon="19.716965286806012"><ele>151.60000000000002</ele><time>2026-05-04T13:46:40Z</time></trkpt><trkpt lat="42.06304753028153" lon="19.716862051156895"><ele>150.4</ele><time>2026-05-04T13:46:41Z</time></trkpt><trkpt lat="42.06309094939071" lon="19.716776671353674"><ele>149.20000000000002</ele><time>2026-05-04T13:46:42Z</time></trkpt><trkpt lat="42.06314998846274" lon="19.716709055577407"><ele>148.0</ele><time>2026-05-04T13:46:43Z</time></trkpt><trkpt lat="42.06324775857289" lon="19.716648929560776"><ele>150.33333333333334</ele><time>2026-05-04T13:46:44Z</time></trkpt><trkpt lat="42.06337480002435" lon="19.716601187879327"><ele>152.66666666666666</ele><time>2026-05-04T13:46:45Z</time></trkpt><trkpt lat="42.06354984793381" lon="19.71657637907779"><ele>155.0</ele><time>2026-05-04T13:46:46Z</time></trkpt><trkpt lat="42.06372440729232" lon="19.716544169747216"><ele>155.0</ele><time>2026-05-04T13:46:47Z</time></trkpt><trkpt lat="42.06391676061947" lon="19.716479520785917"><ele>155.0</ele><time>2026-05-04T13:46:48Z</time></trkpt><trkpt lat="42.06409187260671" lon="19.716407253581803"><ele>155.0</ele><time>2026-05-04T13:46:49Z</time></trkpt><trkpt lat="42.06427652512382" lon="19.716315776859414"><ele>153.33333333333331</ele><time>2026-05-04T13:46:50Z</time></trkpt><trkpt lat="42.0644579370002" lon="19.71624507479432"><ele>151.66666666666666</ele><time>2026-05-04T13:46:51Z</time></trkpt><trkpt lat="42.064597695307015" lon="19.716191050190414"><ele>150.0</ele><time>2026-05-04T13:46:52Z</time></trkpt><trkpt lat="42.064726347438736" lon="19.716182091431403"><ele>150.0</ele><time>2026-05-04T13:46:53Z</time></trkpt><trkpt lat="42.06484091139428" lon="19.716209360072646"><ele>150.0</ele><time>2026-05-04T13:46:54Z</time></trkpt><trkpt lat="42.06494273856322" lon="19.716277885256066"><ele>150.0</ele><time>2026-05-04T13:46:55Z</time></trkpt><trkpt lat="42.065050318205756" lon="19.716382263551242"><ele>150.0</ele><time>2026-05-04T13:46:56Z</time></trkpt><trkpt lat="42.06515866442011" lon="19.716468284672565"><ele>149.0</ele><time>2026-05-04T13:46:57Z</time></trkpt><trkpt lat="42.06525522454018" lon="19.716493908811895"><ele>148.0</ele><time>2026-05-04T13:46:58Z</time></trkpt><trkpt lat="42.06537596417581" lon="19.716485859735148"><ele>147.0</ele><time>2026-05-04T13:46:59.001Z</time></trkpt><trkpt lat="42.06552542485581" lon="19.7164575997862"><ele>146.0</ele><time>2026-05-04T13:47:00Z</time></trkpt><trkpt lat="42.06569141084837" lon="19.71640607887155"><ele>146.66666666666666</ele><time>2026-05-04T13:47:01.001Z</time></trkpt><trkpt lat="42.06587326075557" lon="19.716348214022666"><ele>147.33333333333334</ele><time>2026-05-04T13:47:02.001Z</time></trkpt><trkpt lat="42.066071535357594" lon="19.716296599437737"><ele>148.0</ele><time>2026-05-04T13:47:03Z</time></trkpt><trkpt lat="42.06627171222126" lon="19.71623922955681"><ele>148.0</ele><time>2026-05-04T13:47:04.001Z</time></trkpt><trkpt lat="42.06642438009926" lon="19.71617773112974"><ele>148.0</ele><time>2026-05-04T13:47:05.001Z</time></trkpt><trkpt lat="42.06655817535425" lon="19.71608618614852"><ele>148.0</ele><time>2026-05-04T13:47:06Z</time></trkpt><trkpt lat="42.06670333021388" lon="19.71595243453644"><ele>154.33333333333334</ele><time>2026-05-04T13:47:07.001Z</time></trkpt><trkpt lat="42.0668610111555" lon="19.715798109671407"><ele>160.66666666666666</ele><time>2026-05-04T13:47:08.001Z</time></trkpt><trkpt lat="42.06703292596642" lon="19.715648476368436"><ele>167.0</ele><time>2026-05-04T13:47:09.001Z</time></trkpt><trkpt lat="42.067214842112726" lon="19.71551355665539"><ele>167.0</ele><time>2026-05-04T13:47:10Z</time></trkpt><trkpt lat="42.06740939621408" lon="19.715379254482148"><ele>167.0</ele><time>2026-05-04T13:47:11Z</time></trkpt><trkpt lat="42.067603664011116" lon="19.71526752266449"><ele>167.0</ele><time>2026-05-04T13:47:12Z</time></trkpt><trkpt lat="42.06780643189187" lon="19.715168658228446"><ele>167.33333333333331</ele><time>2026-05-04T13:47:13Z</time></trkpt><trkpt lat="42.06802752271762" lon="19.71508071665061"><ele>167.66666666666666</ele><time>2026-05-04T13:47:14Z</time></trkpt><trkpt lat="42.068210709152815" lon="19.715014821924072"><ele>168.0</ele><time>2026-05-04T13:47:15Z</time></trkpt><trkpt lat="42.06835793706192" lon="19.714946580260335"><ele>168.0</ele><time>2026-05-04T13:47:16Z</time></trkpt><trkpt lat="42.06846975949629" lon="19.714889669474385"><ele>168.0</ele><time>2026-05-04T13:47:17Z</time></trkpt><trkpt lat="42.068568336955785" lon="19.714815774073752"><ele>168.0</ele><time>2026-05-04T13:47:18Z</time></trkpt><trkpt lat="42.06863430463348" lon="19.714712145830955"><ele>168.0</ele><time>2026-05-04T13:47:19Z</time></trkpt><trkpt lat="42.06866701817378" lon="19.714593681277904"><ele>168.0</ele><time>2026-05-04T13:47:20Z</time></trkpt><trkpt lat="42.068675790553705" lon="19.714455428768748"><ele>172.0</ele><time>2026-05-04T13:47:21Z</time></trkpt><trkpt lat="42.068656561662245" lon="19.7142951950884"><ele>176.0</ele><time>2026-05-04T13:47:22Z</time></trkpt><trkpt lat="42.06861724548323" lon="19.714124400549085"><ele>180.0</ele><time>2026-05-04T13:47:23Z</time></trkpt><trkpt lat="42.06855491527352" lon="19.713953905978503"><ele>184.0</ele><time>2026-05-04T13:47:24Z</time></trkpt><trkpt lat="42.06847191243066" lon="19.713810896939275"><ele>184.0</ele><time>2026-05-04T13:47:25Z</time></trkpt><trkpt lat="42.06836922654988" lon="19.71372913329479"><ele>184.0</ele><time>2026-05-04T13:47:26Z</time></trkpt><trkpt lat="42.06824871141208" lon="19.713686735520298"><ele>184.0</ele><time>2026-05-04T13:47:27Z</time></trkpt><trkpt lat="42.06811730175044" lon="19.713650671197144"><ele>184.0</ele><time>2026-05-04T13:47:28Z</time></trkpt><trkpt lat="42.068031509157485" lon="19.71357883619066"><ele>192.0</ele><time>2026-05-04T13:47:29Z</time></trkpt><trkpt lat="42.06799566705605" lon="19.713491567101602"><ele>200.0</ele><time>2026-05-04T13:47:30Z</time></trkpt><trkpt lat="42.06798523242456" lon="19.713380600909716"><ele>207.99999999999997</ele><time>2026-05-04T13:47:31Z</time></trkpt><trkpt lat="42.06799627473991" lon="19.713240154473723"><ele>216.0</ele><time>2026-05-04T13:47:32Z</time></trkpt><trkpt lat="42.0680209091665" lon="19.713088467003413"><ele>224.0</ele><time>2026-05-04T13:47:33Z</time></trkpt><trkpt lat="42.06801330706193" lon="19.712927806254534"><ele>224.0</ele><time>2026-05-04T13:47:34Z</time></trkpt><trkpt lat="42.06797127837606" lon="19.71275437719125"><ele>224.0</ele><time>2026-05-04T13:47:35Z</time></trkpt><trkpt lat="42.06790820328338" lon="19.712587906953246"><ele>224.0</ele><time>2026-05-04T13:47:36Z</time></trkpt><trkpt lat="42.0678271741761" lon="19.712438401565603"><ele>224.0</ele><time>2026-05-04T13:47:37Z</time></trkpt><trkpt lat="42.067723124131106" lon="19.712312667274116"><ele>222.79999999999998</ele><time>2026-05-04T13:47:38Z</time></trkpt><trkpt lat="42.0676199480537" lon="19.71219645476987"><ele>221.59999999999997</ele><time>2026-05-04T13:47:39Z</time></trkpt><trkpt lat="42.06756255283357" lon="19.712084635338485"><ele>220.4</ele><time>2026-05-04T13:47:40Z</time></trkpt><trkpt lat="42.06755006469909" lon="19.71198393351239"><ele>219.2</ele><time>2026-05-04T13:47:41Z</time></trkpt><trkpt lat="42.06757066546697" lon="19.71187492120275"><ele>218.0</ele><time>2026-05-04T13:47:42Z</time></trkpt><trkpt lat="42.06762560397684" lon="19.71176141255424"><ele>218.0</ele><time>2026-05-04T13:47:43Z</time></trkpt><trkpt lat="42.06770746312681" lon="19.711656350201437"><ele>218.0</ele><time>2026-05-04T13:47:44Z</time></trkpt><trkpt lat="42.06781472486085" lon="19.711570068151143"><ele>218.0</ele><time>2026-05-04T13:47:45Z</time></trkpt><trkpt lat="42.06793383771875" lon="19.71151836361853"><ele>218.0</ele><time>2026-05-04T13:47:46Z</time></trkpt><trkpt lat="42.068071483748156" lon="19.71148434531681"><ele>218.0</ele><time>2026-05-04T13:47:47Z</time></trkpt><trkpt lat="42.06820602256308" lon="19.71143978831062"><ele>218.0</ele><time>2026-05-04T13:47:48Z</time></trkpt><trkpt lat="42.06831014578902" lon="19.711359378866522"><ele>218.0</ele><time>2026-05-04T13:47:49Z</time></trkpt><trkpt lat="42.06839586234354" lon="19.711237379982286"><ele>218.0</ele><time>2026-05-04T13:47:50Z</time></trkpt><trkpt lat="42.0684782606387" lon="19.711086526768298"><ele>217.5</ele><time>2026-05-04T13:47:51Z</time></trkpt><trkpt lat="42.06857453038967" lon="19.710921197324378"><ele>217.0</ele><time>2026-05-04T13:47:52Z</time></trkpt><trkpt lat="42.068671220019645" lon="19.710798047092613"><ele>216.5</ele><time>2026-05-04T13:47:53Z</time></trkpt><trkpt lat="42.06875315570722" lon="19.710747117949484"><ele>216.0</ele><time>2026-05-04T13:47:54Z</time></trkpt><trkpt lat="42.06884228084889" lon="19.71075519807443"><ele>216.0</ele><time>2026-05-04T13:47:55Z</time></trkpt><trkpt lat="42.068956124005766" lon="19.71078203963125"><ele>216.00000000000003</ele><time>2026-05-04T13:47:56Z</time></trkpt><trkpt lat="42.06908299988463" lon="19.71080895154495"><ele>216.00000000000003</ele><time>2026-05-04T13:47:57Z</time></trkpt><trkpt lat="42.06919401511445" lon="19.710807636312527"><ele>216.0</ele><time>2026-05-04T13:47:58Z</time></trkpt><trkpt lat="42.06927773212251" lon="19.71077220295867"><ele>216.0</ele><time>2026-05-04T13:47:59Z</time></trkpt><trkpt lat="42.0693347928244" lon="19.710704361349404"><ele>216.60000000000002</ele><time>2026-05-04T13:48:00Z</time></trkpt><trkpt lat="42.06937028805908" lon="19.71060819155817"><ele>217.20000000000002</ele><time>2026-05-04T13:48:01Z</time></trkpt><trkpt lat="42.06938403046698" lon="19.710496766616796"><ele>217.79999999999998</ele><time>2026-05-04T13:48:02Z</time></trkpt><trkpt lat="42.06936847404524" lon="19.71035742045906"><ele>218.39999999999998</ele><time>2026-05-04T13:48:03Z</time></trkpt><trkpt lat="42.06933517472982" lon="19.710184401306027"><ele>219.0</ele><time>2026-05-04T13:48:04Z</time></trkpt><trkpt lat="42.0693118593136" lon="19.70999693692131"><ele>219.0</ele><time>2026-05-04T13:48:05Z</time></trkpt><trkpt lat="42.06931040660135" lon="19.7098222879337"><ele>218.99999999999997</ele><time>2026-05-04T13:48:06Z</time></trkpt><trkpt lat="42.06933406839294" lon="19.709679860702572"><ele>218.99999999999997</ele><time>2026-05-04T13:48:07Z</time></trkpt><trkpt lat="42.069382594540045" lon="19.70956641071062"><ele>219.0</ele><time>2026-05-04T13:48:08Z</time></trkpt><trkpt lat="42.06944994498321" lon="19.709462114107183"><ele>219.0</ele><time>2026-05-04T13:48:09Z</time></trkpt><trkpt lat="42.06953478962508" lon="19.709407594879412"><ele>222.0</ele><time>2026-05-04T13:48:10Z</time></trkpt><trkpt lat="42.069639924993744" lon="19.70937487970807"><ele>225.0</ele><time>2026-05-04T13:48:11Z</time></trkpt><trkpt lat="42.06976422979648" lon="19.709367760824733"><ele>228.0</ele><time>2026-05-04T13:48:12Z</time></trkpt><trkpt lat="42.069903904529774" lon="19.70937337684757"><ele>231.0</ele><time>2026-05-04T13:48:13Z</time></trkpt><trkpt lat="42.07002387858168" lon="19.70936007908783"><ele>226.83333333333334</ele><time>2026-05-04T13:48:14Z</time></trkpt><trkpt lat="42.07011412032797" lon="19.70932270143075"><ele>222.66666666666669</ele><time>2026-05-04T13:48:15Z</time></trkpt><trkpt lat="42.07018022271895" lon="19.709252816249087"><ele>218.5</ele><time>2026-05-04T13:48:16Z</time></trkpt><trkpt lat="42.070218375081346" lon="19.709163348171938"><ele>214.33333333333334</ele><time>2026-05-04T13:48:17Z</time></trkpt><trkpt lat="42.07023090169953" lon="19.70906704429716"><ele>210.16666666666669</ele><time>2026-05-04T13:48:18Z</time></trkpt><trkpt lat="42.07021641812672" lon="19.70894214051276"><ele>206.0</ele><time>2026-05-04T13:48:19Z</time></trkpt><trkpt lat="42.070176351243454" lon="19.708790065223372"><ele>206.0</ele><time>2026-05-04T13:48:20Z</time></trkpt><trkpt lat="42.07014342742589" lon="19.70861469906313"><ele>206.0</ele><time>2026-05-04T13:48:21Z</time></trkpt><trkpt lat="42.07013913706871" lon="19.70844597891885"><ele>206.0</ele><time>2026-05-04T13:48:22Z</time></trkpt><trkpt lat="42.070159956366076" lon="19.70832400191012"><ele>206.0</ele><time>2026-05-04T13:48:23Z</time></trkpt><trkpt lat="42.07020757035607" lon="19.70822400033467"><ele>206.0</ele><time>2026-05-04T13:48:24Z</time></trkpt><trkpt lat="42.070293749427634" lon="19.708091864222194"><ele>207.0</ele><time>2026-05-04T13:48:24.999Z</time></trkpt><trkpt lat="42.07037264614066" lon="19.707955487290302"><ele>208.0</ele><time>2026-05-04T13:48:25.999Z</time></trkpt><trkpt lat="42.07040571440723" lon="19.70783756640261"><ele>209.0</ele><time>2026-05-04T13:48:26.999Z</time></trkpt><trkpt lat="42.07039372358181" lon="19.7077254556933"><ele>210.0</ele><time>2026-05-04T13:48:27.999Z</time></trkpt><trkpt lat="42.07035669764701" lon="19.707634401474525"><ele>211.0</ele><time>2026-05-04T13:48:28.999Z</time></trkpt><trkpt lat="42.07029289482811" lon="19.707529352680304"><ele>211.0</ele><time>2026-05-04T13:48:29.999Z</time></trkpt><trkpt lat="42.07021250554452" lon="19.707427188206758"><ele>211.0</ele><time>2026-05-04T13:48:30.999Z</time></trkpt><trkpt lat="42.07015836425779" lon="19.707305804951492"><ele>211.0</ele><time>2026-05-04T13:48:31.999Z</time></trkpt><trkpt lat="42.07012244770974" lon="19.707171414646886"><ele>211.0</ele><time>2026-05-04T13:48:32.999Z</time></trkpt><trkpt lat="42.07011702146847" lon="19.70704771894423"><ele>211.0</ele><time>2026-05-04T13:48:33.999Z</time></trkpt><trkpt lat="42.07012878402005" lon="19.706910099093307"><ele>208.75</ele><time>2026-05-04T13:48:34.999Z</time></trkpt><trkpt lat="42.07015639300383" lon="19.70674640834688"><ele>206.5</ele><time>2026-05-04T13:48:35.999Z</time></trkpt><trkpt lat="42.070191557214635" lon="19.70657412127971"><ele>204.25</ele><time>2026-05-04T13:48:36.999Z</time></trkpt><trkpt lat="42.070232833536856" lon="19.706381872314285"><ele>202.0</ele><time>2026-05-04T13:48:37.999Z</time></trkpt><trkpt lat="42.07029475487396" lon="19.70620224243414"><ele>202.2</ele><time>2026-05-04T13:48:38.999Z</time></trkpt><trkpt lat="42.07036613777322" lon="19.70602092272827"><ele>202.39999999999998</ele><time>2026-05-04T13:48:39.999Z</time></trkpt><trkpt lat="42.07040111798824" lon="19.705864011467547"><ele>202.60000000000002</ele><time>2026-05-04T13:48:40.999Z</time></trkpt><trkpt lat="42.07040187804017" lon="19.705744766310357"><ele>202.8</ele><time>2026-05-04T13:48:41.999Z</time></trkpt><trkpt lat="42.07036924213496" lon="19.70564574406747"><ele>203.0</ele><time>2026-05-04T13:48:42.999Z</time></trkpt><trkpt lat="42.07031311460645" lon="19.7055524991389"><ele>203.0</ele><time>2026-05-04T13:48:43.999Z</time></trkpt><trkpt lat="42.07021105490998" lon="19.705437879774358"><ele>203.0</ele><time>2026-05-04T13:48:44.999Z</time></trkpt><trkpt lat="42.070083474891845" lon="19.705319809875178"><ele>203.0</ele><time>2026-05-04T13:48:45.999Z</time></trkpt><trkpt lat="42.06994100579547" lon="19.705175307062255"><ele>201.66666666666669</ele><time>2026-05-04T13:48:46.999Z</time></trkpt><trkpt lat="42.06978792146289" lon="19.70502053551747"><ele>200.33333333333331</ele><time>2026-05-04T13:48:47.999Z</time></trkpt><trkpt lat="42.06966394448513" lon="19.704870874676697"><ele>199.0</ele><time>2026-05-04T13:48:48.999Z</time></trkpt><trkpt lat="42.069562315958315" lon="19.70475452048687"><ele>199.0</ele><time>2026-05-04T13:48:49.999Z</time></trkpt><trkpt lat="42.06949371470156" lon="19.7046521786893"><ele>199.0</ele><time>2026-05-04T13:48:50.999Z</time></trkpt><trkpt lat="42.06946115521255" lon="19.70456852146055"><ele>199.0</ele><time>2026-05-04T13:48:51.999Z</time></trkpt><trkpt lat="42.06943967002708" lon="19.704471052450323"><ele>199.0</ele><time>2026-05-04T13:48:52.999Z</time></trkpt><trkpt lat="42.069460274389655" lon="19.704377150132924"><ele>199.0</ele><time>2026-05-04T13:48:53.999Z</time></trkpt><trkpt lat="42.06955943946073" lon="19.704260903822302"><ele>199.5</ele><time>2026-05-04T13:48:55.999Z</time></trkpt><trkpt lat="42.06965088438914" lon="19.704226281901192"><ele>200.0</ele><time>2026-05-04T13:48:56.999Z</time></trkpt><trkpt lat="42.06976807291115" lon="19.70417766368827"><ele>200.5</ele><time>2026-05-04T13:48:57.999Z</time></trkpt><trkpt lat="42.06989260200992" lon="19.704075030128532"><ele>201.0</ele><time>2026-05-04T13:48:58.999Z</time></trkpt><trkpt lat="42.070024339639026" lon="19.703930181984838"><ele>199.33333333333331</ele><time>2026-05-04T13:48:59.999Z</time></trkpt><trkpt lat="42.07016766744587" lon="19.703765548119907"><ele>197.66666666666666</ele><time>2026-05-04T13:49:01Z</time></trkpt><trkpt lat="42.0703191628657" lon="19.703613637113968"><ele>196.0</ele><time>2026-05-04T13:49:02Z</time></trkpt><trkpt lat="42.070486691129105" lon="19.70346606377297"><ele>196.0</ele><time>2026-05-04T13:49:03Z</time></trkpt><trkpt lat="42.07062928559319" lon="19.70334207061053"><ele>196.0</ele><time>2026-05-04T13:49:04Z</time></trkpt><trkpt lat="42.07075426734419" lon="19.703244753563837"><ele>196.0</ele><time>2026-05-04T13:49:05Z</time></trkpt><trkpt lat="42.07084935973158" lon="19.703175647277178"><ele>196.0</ele><time>2026-05-04T13:49:06Z</time></trkpt><trkpt lat="42.070917510157756" lon="19.70308496772041"><ele>190.75</ele><time>2026-05-04T13:49:07Z</time></trkpt><trkpt lat="42.07096789751851" lon="19.70296695463743"><ele>185.5</ele><time>2026-05-04T13:49:08Z</time></trkpt><trkpt lat="42.070990084456916" lon="19.702814260167738"><ele>180.25</ele><time>2026-05-04T13:49:09Z</time></trkpt><trkpt lat="42.07099362034167" lon="19.70263020456638"><ele>175.0</ele><time>2026-05-04T13:49:10Z</time></trkpt><trkpt lat="42.07099629056778" lon="19.702445812254403"><ele>175.0</ele><time>2026-05-04T13:49:11Z</time></trkpt><trkpt lat="42.071045955989284" lon="19.7022430103362"><ele>175.0</ele><time>2026-05-04T13:49:12Z</time></trkpt><trkpt lat="42.07111840487947" lon="19.702035187831864"><ele>175.0</ele><time>2026-05-04T13:49:13Z</time></trkpt><trkpt lat="42.071197379606055" lon="19.70181597776267"><ele>176.66666666666669</ele><time>2026-05-04T13:49:14Z</time></trkpt><trkpt lat="42.071262271991344" lon="19.70157770477657"><ele>178.33333333333334</ele><time>2026-05-04T13:49:15Z</time></trkpt><trkpt lat="42.07131900605047" lon="19.701349495053623"><ele>180.0</ele><time>2026-05-04T13:49:16Z</time></trkpt><trkpt lat="42.07134395242935" lon="19.70117765945921"><ele>179.25</ele><time>2026-05-04T13:49:17Z</time></trkpt><trkpt lat="42.07134868954546" lon="19.701011868533318"><ele>178.5</ele><time>2026-05-04T13:49:18Z</time></trkpt><trkpt lat="42.071316162641" lon="19.70084829635819"><ele>177.75</ele><time>2026-05-04T13:49:19Z</time></trkpt><trkpt lat="42.07126386956875" lon="19.700660858136118"><ele>177.0</ele><time>2026-05-04T13:49:20Z</time></trkpt><trkpt lat="42.07122109779792" lon="19.700462412852016"><ele>177.0</ele><time>2026-05-04T13:49:21Z</time></trkpt><trkpt lat="42.071227124432" lon="19.700296328066408"><ele>177.0</ele><time>2026-05-04T13:49:22Z</time></trkpt><trkpt lat="42.071253298280446" lon="19.700112196754066"><ele>177.0</ele><time>2026-05-04T13:49:23Z</time></trkpt><trkpt lat="42.07126686649375" lon="19.699919853405614"><ele>177.0</ele><time>2026-05-04T13:49:24Z</time></trkpt><trkpt lat="42.07126065039946" lon="19.69978173465081"><ele>175.8</ele><time>2026-05-04T13:49:25Z</time></trkpt><trkpt lat="42.07123033260264" lon="19.69968370130063"><ele>174.6</ele><time>2026-05-04T13:49:26Z</time></trkpt><trkpt lat="42.071163472774614" lon="19.699597131166037"><ele>173.4</ele><time>2026-05-04T13:49:27Z</time></trkpt><trkpt lat="42.07105401790133" lon="19.699510308204783"><ele>172.20000000000002</ele><time>2026-05-04T13:49:28Z</time></trkpt><trkpt lat="42.07093361455155" lon="19.69942118842258"><ele>171.0</ele><time>2026-05-04T13:49:29Z</time></trkpt><trkpt lat="42.0708030319616" lon="19.699320509207592"><ele>174.25</ele><time>2026-05-04T13:49:30Z</time></trkpt><trkpt lat="42.07068192515508" lon="19.699212188544188"><ele>177.5</ele><time>2026-05-04T13:49:31Z</time></trkpt><trkpt lat="42.0706075361104" lon="19.699102163977162"><ele>180.75</ele><time>2026-05-04T13:49:32Z</time></trkpt><trkpt lat="42.07056142341975" lon="19.69897889042577"><ele>184.0</ele><time>2026-05-04T13:49:33Z</time></trkpt><trkpt lat="42.07054951606171" lon="19.698816606281376"><ele>184.0</ele><time>2026-05-04T13:49:34Z</time></trkpt><trkpt lat="42.07054916178144" lon="19.69861002407131"><ele>184.0</ele><time>2026-05-04T13:49:35Z</time></trkpt><trkpt lat="42.070548882248396" lon="19.69839434254737"><ele>184.0</ele><time>2026-05-04T13:49:36Z</time></trkpt><trkpt lat="42.0705198813032" lon="19.698179082532466"><ele>183.66666666666669</ele><time>2026-05-04T13:49:37Z</time></trkpt><trkpt lat="42.07046277298227" lon="19.697944041118276"><ele>183.33333333333334</ele><time>2026-05-04T13:49:38Z</time></trkpt><trkpt lat="42.07040469871033" lon="19.697733285345457"><ele>183.0</ele><time>2026-05-04T13:49:39Z</time></trkpt><trkpt lat="42.07038937416891" lon="19.697576824068246"><ele>183.0</ele><time>2026-05-04T13:49:40Z</time></trkpt><trkpt lat="42.070399561126955" lon="19.697459107474142"><ele>183.0</ele><time>2026-05-04T13:49:41Z</time></trkpt><trkpt lat="42.07043994315315" lon="19.697335105616478"><ele>183.0</ele><time>2026-05-04T13:49:42Z</time></trkpt><trkpt lat="42.070481544343565" lon="19.69717762816908"><ele>183.0</ele><time>2026-05-04T13:49:43Z</time></trkpt><trkpt lat="42.07049137655249" lon="19.697061383970016"><ele>183.0</ele><time>2026-05-04T13:49:44Z</time></trkpt><trkpt lat="42.07045637405692" lon="19.696976566271047"><ele>178.0</ele><time>2026-05-04T13:49:45Z</time></trkpt><trkpt lat="42.07038527702257" lon="19.69688515941015"><ele>173.0</ele><time>2026-05-04T13:49:46Z</time></trkpt><trkpt lat="42.07027754232722" lon="19.696781020389995"><ele>168.0</ele><time>2026-05-04T13:49:47Z</time></trkpt><trkpt lat="42.070172927117305" lon="19.696652746011193"><ele>163.0</ele><time>2026-05-04T13:49:48Z</time></trkpt><trkpt lat="42.07012275622464" lon="19.69654484562687"><ele>163.0</ele><time>2026-05-04T13:49:48.999Z</time></trkpt><trkpt lat="42.07007852186483" lon="19.696371892502402"><ele>163.0</ele><time>2026-05-04T13:49:49.999Z</time></trkpt><trkpt lat="42.07002742597055" lon="19.69622332503698"><ele>163.0</ele><time>2026-05-04T13:49:50.999Z</time></trkpt><trkpt lat="42.06996221118152" lon="19.69612337451358"><ele>163.0</ele><time>2026-05-04T13:49:51.999Z</time></trkpt><trkpt lat="42.0698640082449" lon="19.6959954141016"><ele>165.60000000000002</ele><time>2026-05-04T13:49:52.999Z</time></trkpt><trkpt lat="42.069789112250845" lon="19.695866134347177"><ele>168.20000000000002</ele><time>2026-05-04T13:49:53.999Z</time></trkpt><trkpt lat="42.069760930635255" lon="19.695753339898754"><ele>170.8</ele><time>2026-05-04T13:49:54.999Z</time></trkpt><trkpt lat="42.06976701122587" lon="19.69561713878059"><ele>173.4</ele><time>2026-05-04T13:49:55.999Z</time></trkpt><trkpt lat="42.06980033255116" lon="19.695460383853106"><ele>176.0</ele><time>2026-05-04T13:49:56.999Z</time></trkpt><trkpt lat="42.06985919979508" lon="19.69528051292963"><ele>178.33333333333331</ele><time>2026-05-04T13:49:57.999Z</time></trkpt><trkpt lat="42.069936268962074" lon="19.69509436792066"><ele>180.66666666666666</ele><time>2026-05-04T13:49:58.999Z</time></trkpt><trkpt lat="42.07002042813761" lon="19.694883571520464"><ele>183.0</ele><time>2026-05-04T13:49:59.999Z</time></trkpt><trkpt lat="42.07007719950519" lon="19.694688321743264"><ele>176.0</ele><time>2026-05-04T13:50:00.999Z</time></trkpt><trkpt lat="42.07010226730533" lon="19.69454386124399"><ele>169.0</ele><time>2026-05-04T13:50:01.999Z</time></trkpt><trkpt lat="42.07010117181951" lon="19.69440860843791"><ele>162.0</ele><time>2026-05-04T13:50:02.999Z</time></trkpt><trkpt lat="42.070065716566454" lon="19.694257773332968"><ele>155.0</ele><time>2026-05-04T13:50:03.999Z</time></trkpt><trkpt lat="42.07001258296778" lon="19.694084490168798"><ele>154.8</ele><time>2026-05-04T13:50:04.999Z</time></trkpt><trkpt lat="42.06999416053213" lon="19.69394426735616"><ele>154.6</ele><time>2026-05-04T13:50:05.999Z</time></trkpt><trkpt lat="42.070006889906786" lon="19.69383915260265"><ele>154.4</ele><time>2026-05-04T13:50:06.999Z</time></trkpt><trkpt lat="42.07005129569635" lon="19.693755476968995"><ele>154.2</ele><time>2026-05-04T13:50:07.999Z</time></trkpt><trkpt lat="42.07012260551926" lon="19.69368429858964"><ele>154.0</ele><time>2026-05-04T13:50:08.999Z</time></trkpt><trkpt lat="42.07021991002682" lon="19.693607922481632"><ele>151.5</ele><time>2026-05-04T13:50:09.999Z</time></trkpt><trkpt lat="42.07032934874446" lon="19.693552765980833"><ele>149.0</ele><time>2026-05-04T13:50:10.999Z</time></trkpt><trkpt lat="42.07045316157578" lon="19.693471091274372"><ele>146.5</ele><time>2026-05-04T13:50:11.999Z</time></trkpt><trkpt lat="42.07058107733889" lon="19.693347895520933"><ele>144.0</ele><time>2026-05-04T13:50:12.999Z</time></trkpt><trkpt lat="42.07069956017153" lon="19.693192330227724"><ele>142.25</ele><time>2026-05-04T13:50:13.999Z</time></trkpt><trkpt lat="42.07081313183467" lon="19.693023736709375"><ele>140.5</ele><time>2026-05-04T13:50:14.999Z</time></trkpt><trkpt lat="42.07089703175008" lon="19.692874500197444"><ele>138.75</ele><time>2026-05-04T13:50:15.999Z</time></trkpt><trkpt lat="42.07094816329799" lon="19.692764939771898"><ele>137.0</ele><time>2026-05-04T13:50:16.999Z</time></trkpt><trkpt lat="42.070985209263775" lon="19.692666466095435"><ele>136.71428571428572</ele><time>2026-05-04T13:50:17.999Z</time></trkpt><trkpt lat="42.07099589958665" lon="19.692574046303715"><ele>136.42857142857144</ele><time>2026-05-04T13:50:18.999Z</time></trkpt><trkpt lat="42.07098486505307" lon="19.692484631815223"><ele>136.14285714285714</ele><time>2026-05-04T13:50:19.999Z</time></trkpt><trkpt lat="42.07095516875696" lon="19.692404493964577"><ele>135.85714285714286</ele><time>2026-05-04T13:50:20.999Z</time></trkpt><trkpt lat="42.07090323140689" lon="19.692350944382575"><ele>135.57142857142856</ele><time>2026-05-04T13:50:21.999Z</time></trkpt><trkpt lat="42.07083342616718" lon="19.692329662408586"><ele>135.28571428571428</ele><time>2026-05-04T13:50:22.999Z</time></trkpt><trkpt lat="42.070757383734616" lon="19.692341953503313"><ele>135.0</ele><time>2026-05-04T13:50:23.999Z</time></trkpt><trkpt lat="42.07067734208086" lon="19.692370474238373"><ele>133.16666666666666</ele><time>2026-05-04T13:50:24.999Z</time></trkpt><trkpt lat="42.0705960571088" lon="19.692410314040334"><ele>131.33333333333334</ele><time>2026-05-04T13:50:25.999Z</time></trkpt><trkpt lat="42.07051998678767" lon="19.692458253088375"><ele>129.5</ele><time>2026-05-04T13:50:26.999Z</time></trkpt><trkpt lat="42.07045859982836" lon="19.692508787120968"><ele>127.66666666666667</ele><time>2026-05-04T13:50:27.999Z</time></trkpt><trkpt lat="42.07040328397401" lon="19.692558909723104"><ele>125.83333333333334</ele><time>2026-05-04T13:50:28.999Z</time></trkpt><trkpt lat="42.07035074441344" lon="19.692609283601968"><ele>124.0</ele><time>2026-05-04T13:50:29.999Z</time></trkpt><trkpt lat="42.07027716281896" lon="19.692687232224227"><ele>124.0</ele><time>2026-05-04T13:50:30.999Z</time></trkpt><trkpt lat="42.07018838835038" lon="19.69275553351019"><ele>124.0</ele><time>2026-05-04T13:50:31.999Z</time></trkpt><trkpt lat="42.07008516270776" lon="19.6928335128866"><ele>124.0</ele><time>2026-05-04T13:50:32.999Z</time></trkpt><trkpt lat="42.06997319881557" lon="19.69292598750734"><ele>124.0</ele><time>2026-05-04T13:50:33.999Z</time></trkpt><trkpt lat="42.06988865864727" lon="19.69299403862652"><ele>127.66666666666667</ele><time>2026-05-04T13:50:34.999Z</time></trkpt><trkpt lat="42.06981321924872" lon="19.69304407846632"><ele>131.33333333333334</ele><time>2026-05-04T13:50:35.999Z</time></trkpt><trkpt lat="42.069744351805284" lon="19.6930436436746"><ele>135.0</ele><time>2026-05-04T13:50:36.999Z</time></trkpt><trkpt lat="42.069686715505185" lon="19.692989430128616"><ele>138.66666666666666</ele><time>2026-05-04T13:50:37.999Z</time></trkpt><trkpt lat="42.06964828043223" lon="19.692882335651213"><ele>142.33333333333331</ele><time>2026-05-04T13:50:38.999Z</time></trkpt><trkpt lat="42.06961905092717" lon="19.692724983982373"><ele>146.0</ele><time>2026-05-04T13:50:39.999Z</time></trkpt><trkpt lat="42.069615984948335" lon="19.692541182426552"><ele>146.0</ele><time>2026-05-04T13:50:40.999Z</time></trkpt><trkpt lat="42.06960876214104" lon="19.692329991519877"><ele>146.0</ele><time>2026-05-04T13:50:41.999Z</time></trkpt><trkpt lat="42.06957382104851" lon="19.69211257976849"><ele>146.0</ele><time>2026-05-04T13:50:42.999Z</time></trkpt><trkpt lat="42.06953022090203" lon="19.691887835643715"><ele>144.5</ele><time>2026-05-04T13:50:43.999Z</time></trkpt><trkpt lat="42.06950219659741" lon="19.691693276841885"><ele>143.0</ele><time>2026-05-04T13:50:44.999Z</time></trkpt><trkpt lat="42.06951039574042" lon="19.691527124429683"><ele>141.5</ele><time>2026-05-04T13:50:45.999Z</time></trkpt><trkpt lat="42.0695547515313" lon="19.691356735710315"><ele>140.0</ele><time>2026-05-04T13:50:46.999Z</time></trkpt><trkpt lat="42.0695992888537" lon="19.691167072179297"><ele>135.75</ele><time>2026-05-04T13:50:47.999Z</time></trkpt><trkpt lat="42.069623596482984" lon="19.690959132480724"><ele>131.5</ele><time>2026-05-04T13:50:48.999Z</time></trkpt><trkpt lat="42.06961208186084" lon="19.690765340323615"><ele>127.25</ele><time>2026-05-04T13:50:49.999Z</time></trkpt><trkpt lat="42.06957445719627" lon="19.690584842571027"><ele>123.0</ele><time>2026-05-04T13:50:50.999Z</time></trkpt><trkpt lat="42.069526526049074" lon="19.690463772381623"><ele>123.0</ele><time>2026-05-04T13:50:51.999Z</time></trkpt><trkpt lat="42.06946983245935" lon="19.690381862773695"><ele>123.00000000000001</ele><time>2026-05-04T13:50:52.999Z</time></trkpt><trkpt lat="42.06938985236112" lon="19.690326838067936"><ele>123.00000000000001</ele><time>2026-05-04T13:50:53.999Z</time></trkpt><trkpt lat="42.069271142465944" lon="19.6903028784991"><ele>123.0</ele><time>2026-05-04T13:50:54.999Z</time></trkpt><trkpt lat="42.06912670876783" lon="19.690298832546475"><ele>123.0</ele><time>2026-05-04T13:50:55.999Z</time></trkpt><trkpt lat="42.068972862810696" lon="19.690280287748863"><ele>121.5</ele><time>2026-05-04T13:50:56.999Z</time></trkpt><trkpt lat="42.068864689850145" lon="19.690225836990233"><ele>120.0</ele><time>2026-05-04T13:50:57.999Z</time></trkpt><trkpt lat="42.06877294050345" lon="19.69013443682376"><ele>118.5</ele><time>2026-05-04T13:50:58.999Z</time></trkpt><trkpt lat="42.06867361560165" lon="19.690004554146366"><ele>117.0</ele><time>2026-05-04T13:50:59.999Z</time></trkpt><trkpt lat="42.068575108082605" lon="19.689854405566496"><ele>117.0</ele><time>2026-05-04T13:51:00.999Z</time></trkpt><trkpt lat="42.068472622085004" lon="19.689693706366462"><ele>117.0</ele><time>2026-05-04T13:51:01.999Z</time></trkpt><trkpt lat="42.068361833933686" lon="19.68953150934356"><ele>117.0</ele><time>2026-05-04T13:51:02.999Z</time></trkpt><trkpt lat="42.06824792437856" lon="19.689371356285914"><ele>115.5</ele><time>2026-05-04T13:51:03.999Z</time></trkpt><trkpt lat="42.068140205706506" lon="19.68922605908656"><ele>114.0</ele><time>2026-05-04T13:51:04.999Z</time></trkpt><trkpt lat="42.06803129791936" lon="19.689088578716692"><ele>112.5</ele><time>2026-05-04T13:51:05.999Z</time></trkpt><trkpt lat="42.06793277117146" lon="19.688972849126728"><ele>111.0</ele><time>2026-05-04T13:51:07Z</time></trkpt><trkpt lat="42.06783029086429" lon="19.688854452269357"><ele>111.0</ele><time>2026-05-04T13:51:08Z</time></trkpt><trkpt lat="42.067719003917965" lon="19.68875962127175"><ele>111.0</ele><time>2026-05-04T13:51:09Z</time></trkpt><trkpt lat="42.06762218446078" lon="19.688684110241613"><ele>111.0</ele><time>2026-05-04T13:51:10Z</time></trkpt><trkpt lat="42.06754538750524" lon="19.688657201931054"><ele>111.0</ele><time>2026-05-04T13:51:11Z</time></trkpt><trkpt lat="42.06746681016484" lon="19.68867432225799"><ele>111.0</ele><time>2026-05-04T13:51:12Z</time></trkpt><trkpt lat="42.067402366420595" lon="19.68872670074117"><ele>113.75</ele><time>2026-05-04T13:51:13Z</time></trkpt><trkpt lat="42.067342357980195" lon="19.688841491678335"><ele>116.5</ele><time>2026-05-04T13:51:14Z</time></trkpt><trkpt lat="42.06728909756813" lon="19.688981418358413"><ele>119.25</ele><time>2026-05-04T13:51:15Z</time></trkpt><trkpt lat="42.06724595121474" lon="19.689149235318563"><ele>122.0</ele><time>2026-05-04T13:51:16Z</time></trkpt><trkpt lat="42.06718334789458" lon="19.689304517005"><ele>121.99999999999999</ele><time>2026-05-04T13:51:17Z</time></trkpt><trkpt lat="42.06712733749109" lon="19.689400923276136"><ele>122.0</ele><time>2026-05-04T13:51:18Z</time></trkpt><trkpt lat="42.06700733047532" lon="19.689435410165302"><ele>122.0</ele><time>2026-05-04T13:51:20Z</time></trkpt><trkpt lat="42.06694298103502" lon="19.689396342640617"><ele>122.0</ele><time>2026-05-04T13:51:21Z</time></trkpt><trkpt lat="42.06689036691867" lon="19.68932223875813"><ele>121.99999999999999</ele><time>2026-05-04T13:51:22Z</time></trkpt><trkpt lat="42.06686860681066" lon="19.68923568301517"><ele>122.0</ele><time>2026-05-04T13:51:23Z</time></trkpt><trkpt lat="42.06687477043071" lon="19.689138549534864"><ele>122.0</ele><time>2026-05-04T13:51:24Z</time></trkpt><trkpt lat="42.0668894327257" lon="19.68900535960635"><ele>121.99999999999999</ele><time>2026-05-04T13:51:26Z</time></trkpt><trkpt lat="42.066887658117416" lon="19.688895649804362"><ele>121.99999999999999</ele><time>2026-05-04T13:51:28Z</time></trkpt><trkpt lat="42.066872906441766" lon="19.688771903857866"><ele>122.0</ele><time>2026-05-04T13:51:30Z</time></trkpt><trkpt lat="42.066856882308336" lon="19.68866873480375"><ele>122.0</ele><time>2026-05-04T13:51:31Z</time></trkpt><trkpt lat="42.066814872810454" lon="19.688545074559528"><ele>121.39999999999999</ele><time>2026-05-04T13:51:33Z</time></trkpt><trkpt lat="42.06675992448581" lon="19.688495154003515"><ele>120.79999999999998</ele><time>2026-05-04T13:51:36Z</time></trkpt><trkpt lat="42.06668199004313" lon="19.688450063264618"><ele>120.2</ele><time>2026-05-04T13:51:48Z</time></trkpt><trkpt lat="42.066606311026085" lon="19.688393588537515"><ele>119.6</ele><time>2026-05-04T13:51:49Z</time></trkpt><trkpt lat="42.066507928238174" lon="19.688343703566282"><ele>119.0</ele><time>2026-05-04T13:51:50Z</time></trkpt><trkpt lat="42.066393037669805" lon="19.688284317818194"><ele>119.0</ele><time>2026-05-04T13:51:51Z</time></trkpt><trkpt lat="42.06625848772672" lon="19.68821893686133"><ele>119.0</ele><time>2026-05-04T13:51:52Z</time></trkpt><trkpt lat="42.06609904385821" lon="19.688148804109435"><ele>119.0</ele><time>2026-05-04T13:51:53Z</time></trkpt><trkpt lat="42.065931945662705" lon="19.688077754213168"><ele>121.0</ele><time>2026-05-04T13:51:54Z</time></trkpt><trkpt lat="42.06575375820811" lon="19.687998735077336"><ele>123.0</ele><time>2026-05-04T13:51:55Z</time></trkpt><trkpt lat="42.06556943140038" lon="19.687919260472366"><ele>125.0</ele><time>2026-05-04T13:51:56Z</time></trkpt><trkpt lat="42.06538194678024" lon="19.687836562620177"><ele>125.0</ele><time>2026-05-04T13:51:57Z</time></trkpt><trkpt lat="42.0652281781478" lon="19.687761879622215"><ele>125.0</ele><time>2026-05-04T13:51:58Z</time></trkpt><trkpt lat="42.06510343420922" lon="19.687702597825876"><ele>125.0</ele><time>2026-05-04T13:51:59Z</time></trkpt><trkpt lat="42.064998391989235" lon="19.687659125064066"><ele>125.0</ele><time>2026-05-04T13:52:00Z</time></trkpt><trkpt lat="42.064883673699626" lon="19.687629983899647"><ele>115.0</ele><time>2026-05-04T13:52:01Z</time></trkpt><trkpt lat="42.064749356738716" lon="19.687640543676785"><ele>105.0</ele><time>2026-05-04T13:52:02Z</time></trkpt><trkpt lat="42.06458080285504" lon="19.687673582286166"><ele>95.0</ele><time>2026-05-04T13:52:03Z</time></trkpt><trkpt lat="42.064397316476395" lon="19.687737748058794"><ele>99.33333333333334</ele><time>2026-05-04T13:52:04Z</time></trkpt><trkpt lat="42.06419994691222" lon="19.687811875537975"><ele>103.66666666666667</ele><time>2026-05-04T13:52:05Z</time></trkpt><trkpt lat="42.06399945328956" lon="19.687878983159173"><ele>108.0</ele><time>2026-05-04T13:52:06Z</time></trkpt><trkpt lat="42.063856450517505" lon="19.687910439517747"><ele>108.0</ele><time>2026-05-04T13:52:07Z</time></trkpt><trkpt lat="42.06374687378874" lon="19.687932200675238"><ele>108.00000000000001</ele><time>2026-05-04T13:52:08Z</time></trkpt><trkpt lat="42.063647539672765" lon="19.68793499691062"><ele>108.00000000000001</ele><time>2026-05-04T13:52:09Z</time></trkpt><trkpt lat="42.06357703198204" lon="19.68792396249376"><ele>108.0</ele><time>2026-05-04T13:52:10Z</time></trkpt><trkpt lat="42.06350766486046" lon="19.68781081608425"><ele>108.0</ele><time>2026-05-04T13:52:12Z</time></trkpt><trkpt lat="42.06348438099208" lon="19.687710371398424"><ele>108.2</ele><time>2026-05-04T13:52:13Z</time></trkpt><trkpt lat="42.06347094219158" lon="19.687568990317402"><ele>108.4</ele><time>2026-05-04T13:52:14Z</time></trkpt><trkpt lat="42.0634725509964" lon="19.687422795507693"><ele>108.60000000000001</ele><time>2026-05-04T13:52:15Z</time></trkpt><trkpt lat="42.063507917426314" lon="19.687343782237793"><ele>108.80000000000001</ele><time>2026-05-04T13:52:16Z</time></trkpt><trkpt lat="42.06358818742213" lon="19.687283942553524"><ele>109.0</ele><time>2026-05-04T13:52:17Z</time></trkpt><trkpt lat="42.063699812621" lon="19.687195620108323"><ele>109.0</ele><time>2026-05-04T13:52:18Z</time></trkpt><trkpt lat="42.06383036696847" lon="19.687083889085685"><ele>109.0</ele><time>2026-05-04T13:52:19Z</time></trkpt><trkpt lat="42.06396948767833" lon="19.68693843953511"><ele>109.0</ele><time>2026-05-04T13:52:20Z</time></trkpt><trkpt lat="42.064116048661475" lon="19.686766964316426"><ele>109.33333333333334</ele><time>2026-05-04T13:52:21Z</time></trkpt><trkpt lat="42.064257636551545" lon="19.68659815972578"><ele>109.66666666666666</ele><time>2026-05-04T13:52:22Z</time></trkpt><trkpt lat="42.06438484712218" lon="19.686471773282186"><ele>110.0</ele><time>2026-05-04T13:52:23Z</time></trkpt><trkpt lat="42.0645268173344" lon="19.686381193707113"><ele>110.0</ele><time>2026-05-04T13:52:24Z</time></trkpt><trkpt lat="42.0646848005122" lon="19.686281696355763"><ele>110.0</ele><time>2026-05-04T13:52:25Z</time></trkpt><trkpt lat="42.06483699291342" lon="19.686164097517317"><ele>110.0</ele><time>2026-05-04T13:52:26Z</time></trkpt><trkpt lat="42.06499888230455" lon="19.68603488064641"><ele>110.33333333333333</ele><time>2026-05-04T13:52:27Z</time></trkpt><trkpt lat="42.065168842396886" lon="19.685897982549285"><ele>110.66666666666666</ele><time>2026-05-04T13:52:28Z</time></trkpt><trkpt lat="42.06534247106852" lon="19.685759431716342"><ele>111.0</ele><time>2026-05-04T13:52:29Z</time></trkpt><trkpt lat="42.065518264026075" lon="19.68559968868817"><ele>111.0</ele><time>2026-05-04T13:52:30Z</time></trkpt><trkpt lat="42.06568255951308" lon="19.685419773689013"><ele>111.0</ele><time>2026-05-04T13:52:31Z</time></trkpt><trkpt lat="42.06582198529454" lon="19.68522362438276"><ele>111.0</ele><time>2026-05-04T13:52:32Z</time></trkpt><trkpt lat="42.06596344066714" lon="19.68502300119937"><ele>113.0</ele><time>2026-05-04T13:52:33Z</time></trkpt><trkpt lat="42.066095480553614" lon="19.68481056209176"><ele>115.0</ele><time>2026-05-04T13:52:34Z</time></trkpt><trkpt lat="42.066224579702045" lon="19.68458834723435"><ele>117.0</ele><time>2026-05-04T13:52:35Z</time></trkpt><trkpt lat="42.06635976988374" lon="19.684350117520285"><ele>116.5</ele><time>2026-05-04T13:52:36Z</time></trkpt><trkpt lat="42.0665031385013" lon="19.684109877679685"><ele>116.0</ele><time>2026-05-04T13:52:37Z</time></trkpt><trkpt lat="42.06664904340241" lon="19.683865438496383"><ele>116.0</ele><time>2026-05-04T13:52:37.999Z</time></trkpt><trkpt lat="42.066803736195475" lon="19.683605214767297"><ele>116.0</ele><time>2026-05-04T13:52:38.999Z</time></trkpt><trkpt lat="42.06694868787007" lon="19.683354820812188"><ele>121.66666666666666</ele><time>2026-05-04T13:52:39.999Z</time></trkpt><trkpt lat="42.06710037181612" lon="19.683122723511634"><ele>127.33333333333334</ele><time>2026-05-04T13:52:40.999Z</time></trkpt><trkpt lat="42.06722538670713" lon="19.682919238244633"><ele>133.0</ele><time>2026-05-04T13:52:41.999Z</time></trkpt><trkpt lat="42.06732653252185" lon="19.682746132982974"><ele>132.0</ele><time>2026-05-04T13:52:42.999Z</time></trkpt><trkpt lat="42.067398185506335" lon="19.682582311913887"><ele>131.0</ele><time>2026-05-04T13:52:43.999Z</time></trkpt><trkpt lat="42.067464514198434" lon="19.682406642226397"><ele>130.0</ele><time>2026-05-04T13:52:44.999Z</time></trkpt><trkpt lat="42.06753197874448" lon="19.682205650392483"><ele>130.0</ele><time>2026-05-04T13:52:45.999Z</time></trkpt><trkpt lat="42.0675826993408" lon="19.681995552974858"><ele>130.0</ele><time>2026-05-04T13:52:46.999Z</time></trkpt><trkpt lat="42.06762593122794" lon="19.681786970196885"><ele>130.0</ele><time>2026-05-04T13:52:47.999Z</time></trkpt><trkpt lat="42.067648415323085" lon="19.681612526198503"><ele>130.4</ele><time>2026-05-04T13:52:48.999Z</time></trkpt><trkpt lat="42.06764856951524" lon="19.681458067004378"><ele>130.8</ele><time>2026-05-04T13:52:49.999Z</time></trkpt><trkpt lat="42.067616095959984" lon="19.681338696487447"><ele>131.2</ele><time>2026-05-04T13:52:50.999Z</time></trkpt><trkpt lat="42.067557636735245" lon="19.681230742687827"><ele>131.6</ele><time>2026-05-04T13:52:51.999Z</time></trkpt><trkpt lat="42.06747289347746" lon="19.681150758765664"><ele>132.0</ele><time>2026-05-04T13:52:52.999Z</time></trkpt><trkpt lat="42.06735567404813" lon="19.681096359692358"><ele>132.0</ele><time>2026-05-04T13:52:53.999Z</time></trkpt><trkpt lat="42.06721675357151" lon="19.681056442242838"><ele>132.0</ele><time>2026-05-04T13:52:54.999Z</time></trkpt><trkpt lat="42.067094966373524" lon="19.681027063093964"><ele>132.0</ele><time>2026-05-04T13:52:55.999Z</time></trkpt><trkpt lat="42.066989538617314" lon="19.68098379535995"><ele>132.0</ele><time>2026-05-04T13:52:56.999Z</time></trkpt><trkpt lat="42.06690076628556" lon="19.680937314443337"><ele>132.0</ele><time>2026-05-04T13:52:57.999Z</time></trkpt><trkpt lat="42.06681615719331" lon="19.680908026079056"><ele>132.0</ele><time>2026-05-04T13:52:58.999Z</time></trkpt><trkpt lat="42.066741076832315" lon="19.680890137325502"><ele>132.0</ele><time>2026-05-04T13:52:59.999Z</time></trkpt><trkpt lat="42.06667005872373" lon="19.680870435628357"><ele>132.0</ele><time>2026-05-04T13:53:00.999Z</time></trkpt><trkpt lat="42.06658857396042" lon="19.680851717682504"><ele>132.0</ele><time>2026-05-04T13:53:01.999Z</time></trkpt><trkpt lat="42.066506393922765" lon="19.680826900494697"><ele>132.0</ele><time>2026-05-04T13:53:02.999Z</time></trkpt><trkpt lat="42.0664284120804" lon="19.680795452475312"><ele>133.6</ele><time>2026-05-04T13:53:03.999Z</time></trkpt><trkpt lat="42.06634023843857" lon="19.680750871503047"><ele>135.2</ele><time>2026-05-04T13:53:04.999Z</time></trkpt><trkpt lat="42.06625943046603" lon="19.680708549658167"><ele>136.8</ele><time>2026-05-04T13:53:05.999Z</time></trkpt><trkpt lat="42.06617118182146" lon="19.680669540607013"><ele>138.4</ele><time>2026-05-04T13:53:06.999Z</time></trkpt><trkpt lat="42.06607041879995" lon="19.680659612369375"><ele>140.0</ele><time>2026-05-04T13:53:07.999Z</time></trkpt><trkpt lat="42.06595771464974" lon="19.680669212027002"><ele>140.0</ele><time>2026-05-04T13:53:08.999Z</time></trkpt><trkpt lat="42.0658463176412" lon="19.68070328351242"><ele>140.0</ele><time>2026-05-04T13:53:09.999Z</time></trkpt><trkpt lat="42.065730262870204" lon="19.680736477408"><ele>140.0</ele><time>2026-05-04T13:53:10.999Z</time></trkpt><trkpt lat="42.065642459627576" lon="19.680746840153827"><ele>140.0</ele><time>2026-05-04T13:53:11.999Z</time></trkpt><trkpt lat="42.065565813813535" lon="19.6807180047503"><ele>140.0</ele><time>2026-05-04T13:53:13Z</time></trkpt><trkpt lat="42.065513840854024" lon="19.680665144026765"><ele>142.83333333333331</ele><time>2026-05-04T13:53:14Z</time></trkpt><trkpt lat="42.0654663437849" lon="19.680587063666565"><ele>145.66666666666666</ele><time>2026-05-04T13:53:15Z</time></trkpt><trkpt lat="42.06543034780584" lon="19.680476750329884"><ele>148.5</ele><time>2026-05-04T13:53:16Z</time></trkpt><trkpt lat="42.06542928711339" lon="19.680365066400963"><ele>151.33333333333334</ele><time>2026-05-04T13:53:17Z</time></trkpt><trkpt lat="42.06543980665367" lon="19.680257869704093"><ele>154.16666666666669</ele><time>2026-05-04T13:53:18Z</time></trkpt><trkpt lat="42.06546267891686" lon="19.680121876922374"><ele>157.0</ele><time>2026-05-04T13:53:19Z</time></trkpt><trkpt lat="42.06548574553525" lon="19.680008731792423"><ele>157.0</ele><time>2026-05-04T13:53:20Z</time></trkpt><trkpt lat="42.06550456501162" lon="19.679879432036895"><ele>157.0</ele><time>2026-05-04T13:53:21Z</time></trkpt><trkpt lat="42.06552461292378" lon="19.67976497727842"><ele>157.0</ele><time>2026-05-04T13:53:22Z</time></trkpt><trkpt lat="42.06553462287081" lon="19.679643431012146"><ele>157.0</ele><time>2026-05-04T13:53:23Z</time></trkpt><trkpt lat="42.065544219303" lon="19.679520344838643"><ele>157.0</ele><time>2026-05-04T13:53:24Z</time></trkpt><trkpt lat="42.065555694619086" lon="19.67941437778945"><ele>157.0</ele><time>2026-05-04T13:53:25Z</time></trkpt><trkpt lat="42.06555969176217" lon="19.679279143622725"><ele>156.66666666666669</ele><time>2026-05-04T13:53:27Z</time></trkpt><trkpt lat="42.06550757119722" lon="19.679164731747168"><ele>156.33333333333334</ele><time>2026-05-04T13:53:29Z</time></trkpt><trkpt lat="42.06544149764936" lon="19.679123725107196"><ele>156.0</ele><time>2026-05-04T13:53:31Z</time></trkpt><trkpt lat="42.065463128040506" lon="19.679225057611127"><ele>155.66666666666666</ele><time>2026-05-04T13:54:05Z</time></trkpt><trkpt lat="42.06544108753418" lon="19.679139875312657"><ele>155.33333333333331</ele><time>2026-05-04T13:54:15Z</time></trkpt><trkpt lat="42.065465203313906" lon="19.679229207711856"><ele>155.0</ele><time>2026-05-04T13:54:22Z</time></trkpt><trkpt lat="42.06547806196161" lon="19.679333153211896"><ele>155.0</ele><time>2026-05-04T13:54:27Z</time></trkpt><trkpt lat="42.06550392690011" lon="19.679414590323862"><ele>155.0</ele><time>2026-05-04T13:54:31Z</time></trkpt><trkpt lat="42.065525162565564" lon="19.679501419657857"><ele>155.0</ele><time>2026-05-04T13:54:34Z</time></trkpt><trkpt lat="42.065543040135836" lon="19.679621450679157"><ele>155.0</ele><time>2026-05-04T13:54:37Z</time></trkpt><trkpt lat="42.06553728845198" lon="19.67970674044018"><ele>155.0</ele><time>2026-05-04T13:54:55Z</time></trkpt><trkpt lat="42.0655328954945" lon="19.67980453660698"><ele>155.0</ele><time>2026-05-04T13:54:58Z</time></trkpt><trkpt lat="42.065531297859195" lon="19.67971584260106"><ele>155.0</ele><time>2026-05-04T13:55:19Z</time></trkpt><trkpt lat="42.06553727914864" lon="19.679623510197896"><ele>155.0</ele><time>2026-05-04T13:55:24Z</time></trkpt><trkpt lat="42.06552435475146" lon="19.679533680008138"><ele>155.0</ele><time>2026-05-04T13:55:28Z</time></trkpt><trkpt lat="42.06553408561427" lon="19.679445899812066"><ele>155.0</ele><time>2026-05-04T13:55:32Z</time></trkpt><trkpt lat="42.065526215668584" lon="19.67934205513831"><ele>155.0</ele><time>2026-05-04T13:55:37Z</time></trkpt><trkpt lat="42.065519311423486" lon="19.67924254760617"><ele>155.0</ele><time>2026-05-04T13:55:42Z</time></trkpt><trkpt lat="42.06548596861857" lon="19.679165172793038"><ele>155.0</ele><time>2026-05-04T13:55:48Z</time></trkpt><trkpt lat="42.06542162417647" lon="19.67913515276332"><ele>155.0</ele><time>2026-05-04T13:56:14Z</time></trkpt><trkpt lat="42.065362955896674" lon="19.679071297808594"><ele>155.0</ele><time>2026-05-04T13:57:13.999Z</time></trkpt><trkpt lat="42.06529878689749" lon="19.678981416081303"><ele>155.0</ele><time>2026-05-04T13:57:14.999Z</time></trkpt><trkpt lat="42.065228404943625" lon="19.6788311906268"><ele>155.0</ele><time>2026-05-04T13:57:15.999Z</time></trkpt><trkpt lat="42.06516204745559" lon="19.67864820908929"><ele>155.0</ele><time>2026-05-04T13:57:16.999Z</time></trkpt><trkpt lat="42.06510250252729" lon="19.678424482504397"><ele>151.66666666666666</ele><time>2026-05-04T13:57:17.999Z</time></trkpt><trkpt lat="42.06506343266218" lon="19.6781817997285"><ele>148.33333333333334</ele><time>2026-05-04T13:57:18.999Z</time></trkpt><trkpt lat="42.06503725438893" lon="19.677945102237167"><ele>145.0</ele><time>2026-05-04T13:57:19.999Z</time></trkpt><trkpt lat="42.06501796569809" lon="19.677721011612537"><ele>143.5</ele><time>2026-05-04T13:57:20.999Z</time></trkpt><trkpt lat="42.06498991635798" lon="19.677532385268975"><ele>142.0</ele><time>2026-05-04T13:57:21.999Z</time></trkpt><trkpt lat="42.06494790749877" lon="19.677373924825037"><ele>140.5</ele><time>2026-05-04T13:57:22.999Z</time></trkpt><trkpt lat="42.06487221656495" lon="19.677241521178164"><ele>139.0</ele><time>2026-05-04T13:57:23.999Z</time></trkpt><trkpt lat="42.06479107602091" lon="19.677131507204923"><ele>139.0</ele><time>2026-05-04T13:57:24.999Z</time></trkpt><trkpt lat="42.06471414157824" lon="19.67708937496619"><ele>139.0</ele><time>2026-05-04T13:57:25.999Z</time></trkpt><trkpt lat="42.06460367655768" lon="19.677077392665733"><ele>139.0</ele><time>2026-05-04T13:57:26.999Z</time></trkpt><trkpt lat="42.06446252209758" lon="19.677103087041075"><ele>139.0</ele><time>2026-05-04T13:57:27.999Z</time></trkpt><trkpt lat="42.064306718630384" lon="19.67718974543797"><ele>139.0</ele><time>2026-05-04T13:57:28.999Z</time></trkpt><trkpt lat="42.06415654061005" lon="19.677319641454066"><ele>139.0</ele><time>2026-05-04T13:57:29.999Z</time></trkpt><trkpt lat="42.06399946796673" lon="19.677450061768997"><ele>139.0</ele><time>2026-05-04T13:57:30.999Z</time></trkpt><trkpt lat="42.06386521084598" lon="19.677517258117497"><ele>135.66666666666669</ele><time>2026-05-04T13:57:31.999Z</time></trkpt><trkpt lat="42.06372984418656" lon="19.67754542219555"><ele>132.33333333333334</ele><time>2026-05-04T13:57:32.999Z</time></trkpt><trkpt lat="42.06357794827698" lon="19.67751610298239"><ele>129.0</ele><time>2026-05-04T13:57:33.999Z</time></trkpt><trkpt lat="42.06340900210109" lon="19.677475046032836"><ele>127.66666666666666</ele><time>2026-05-04T13:57:34.999Z</time></trkpt><trkpt lat="42.0632219973188" lon="19.677482583734463"><ele>126.33333333333333</ele><time>2026-05-04T13:57:35.999Z</time></trkpt><trkpt lat="42.063022591495574" lon="19.677534952124915"><ele>125.0</ele><time>2026-05-04T13:57:36.999Z</time></trkpt><trkpt lat="42.062825326659464" lon="19.677600596240506"><ele>125.0</ele><time>2026-05-04T13:57:37.999Z</time></trkpt><trkpt lat="42.06265426186137" lon="19.677645142097504"><ele>125.0</ele><time>2026-05-04T13:57:38.999Z</time></trkpt><trkpt lat="42.06247833214882" lon="19.677675957373012"><ele>125.0</ele><time>2026-05-04T13:57:39.999Z</time></trkpt><trkpt lat="42.062292943330036" lon="19.677685650974553"><ele>122.0</ele><time>2026-05-04T13:57:40.999Z</time></trkpt><trkpt lat="42.062095834611746" lon="19.677692806620303"><ele>119.0</ele><time>2026-05-04T13:57:41.999Z</time></trkpt><trkpt lat="42.061919513898125" lon="19.67771264599158"><ele>116.0</ele><time>2026-05-04T13:57:42.999Z</time></trkpt><trkpt lat="42.06174683150544" lon="19.677763281692762"><ele>121.0</ele><time>2026-05-04T13:57:43.999Z</time></trkpt><trkpt lat="42.061578943184735" lon="19.67783236643142"><ele>126.0</ele><time>2026-05-04T13:57:44.999Z</time></trkpt><trkpt lat="42.06139287939826" lon="19.677900998442848"><ele>131.0</ele><time>2026-05-04T13:57:45.999Z</time></trkpt><trkpt lat="42.0612239504024" lon="19.677939330743857"><ele>131.0</ele><time>2026-05-04T13:57:46.999Z</time></trkpt><trkpt lat="42.06105882216593" lon="19.677935902254617"><ele>131.0</ele><time>2026-05-04T13:57:47.999Z</time></trkpt><trkpt lat="42.06088610040301" lon="19.67790275937726"><ele>131.0</ele><time>2026-05-04T13:57:48.999Z</time></trkpt><trkpt lat="42.06072640417646" lon="19.677868380967034"><ele>129.0</ele><time>2026-05-04T13:57:49.999Z</time></trkpt><trkpt lat="42.06054913736832" lon="19.677819865806878"><ele>127.0</ele><time>2026-05-04T13:57:50.999Z</time></trkpt><trkpt lat="42.06038407311605" lon="19.677810003616507"><ele>125.0</ele><time>2026-05-04T13:57:51.999Z</time></trkpt><trkpt lat="42.0602221691332" lon="19.677847835387624"><ele>125.0</ele><time>2026-05-04T13:57:52.999Z</time></trkpt><trkpt lat="42.060058222135204" lon="19.677915535490218"><ele>125.0</ele><time>2026-05-04T13:57:53.999Z</time></trkpt><trkpt lat="42.05989663516085" lon="19.677987532730487"><ele>125.0</ele><time>2026-05-04T13:57:54.999Z</time></trkpt><trkpt lat="42.059720292438136" lon="19.6780372391581"><ele>121.66666666666666</ele><time>2026-05-04T13:57:55.999Z</time></trkpt><trkpt lat="42.05956044133125" lon="19.678075278413612"><ele>118.33333333333334</ele><time>2026-05-04T13:57:56.999Z</time></trkpt><trkpt lat="42.05940527567667" lon="19.67813878141957"><ele>115.0</ele><time>2026-05-04T13:57:57.999Z</time></trkpt><trkpt lat="42.0592542379588" lon="19.67823485507954"><ele>115.66666666666667</ele><time>2026-05-04T13:57:58.999Z</time></trkpt><trkpt lat="42.05910003768107" lon="19.678368973961337"><ele>116.33333333333334</ele><time>2026-05-04T13:57:59.999Z</time></trkpt><trkpt lat="42.058946375497584" lon="19.67851155515141"><ele>117.0</ele><time>2026-05-04T13:58:00.999Z</time></trkpt><trkpt lat="42.058787887463964" lon="19.67866703271644"><ele>117.75</ele><time>2026-05-04T13:58:01.999Z</time></trkpt><trkpt lat="42.05864849578679" lon="19.67880894214098"><ele>118.5</ele><time>2026-05-04T13:58:02.999Z</time></trkpt><trkpt lat="42.05853974409552" lon="19.67893437676496"><ele>119.25</ele><time>2026-05-04T13:58:03.999Z</time></trkpt><trkpt lat="42.05845402961348" lon="19.679015232522307"><ele>120.0</ele><time>2026-05-04T13:58:04.999Z</time></trkpt><trkpt lat="42.058384600790056" lon="19.679042612123375"><ele>120.0</ele><time>2026-05-04T13:58:05.999Z</time></trkpt><trkpt lat="42.05832090583541" lon="19.679027648393777"><ele>120.0</ele><time>2026-05-04T13:58:06.999Z</time></trkpt><trkpt lat="42.05822550009804" lon="19.678975760732765"><ele>120.0</ele><time>2026-05-04T13:58:07.999Z</time></trkpt><trkpt lat="42.058150813561326" lon="19.678877604710998"><ele>120.0</ele><time>2026-05-04T13:58:08.999Z</time></trkpt><trkpt lat="42.058105908917305" lon="19.678743255091415"><ele>120.0</ele><time>2026-05-04T13:58:09.999Z</time></trkpt><trkpt lat="42.058103019965166" lon="19.678576824213017"><ele>131.33333333333334</ele><time>2026-05-04T13:58:10.999Z</time></trkpt><trkpt lat="42.058124754187375" lon="19.678357022965994"><ele>142.66666666666669</ele><time>2026-05-04T13:58:11.999Z</time></trkpt><trkpt lat="42.05815928360891" lon="19.678094409032013"><ele>154.0</ele><time>2026-05-04T13:58:12.999Z</time></trkpt><trkpt lat="42.05817737302966" lon="19.677823474869168"><ele>153.33333333333334</ele><time>2026-05-04T13:58:13.999Z</time></trkpt><trkpt lat="42.05820480031974" lon="19.677594513513984"><ele>152.66666666666666</ele><time>2026-05-04T13:58:14.999Z</time></trkpt><trkpt lat="42.05827704056991" lon="19.677413018837516"><ele>152.0</ele><time>2026-05-04T13:58:15.999Z</time></trkpt><trkpt lat="42.0583997718062" lon="19.677219707678443"><ele>150.0</ele><time>2026-05-04T13:58:16.999Z</time></trkpt><trkpt lat="42.05855685687393" lon="19.677028952384028"><ele>148.0</ele><time>2026-05-04T13:58:17.999Z</time></trkpt><trkpt lat="42.05871751491092" lon="19.67682419573747"><ele>146.0</ele><time>2026-05-04T13:58:18.999Z</time></trkpt><trkpt lat="42.05887809526826" lon="19.676587806512444"><ele>146.0</ele><time>2026-05-04T13:58:19.999Z</time></trkpt><trkpt lat="42.05901092479021" lon="19.67637599533516"><ele>146.0</ele><time>2026-05-04T13:58:20.999Z</time></trkpt><trkpt lat="42.059113280216835" lon="19.67619044924436"><ele>146.0</ele><time>2026-05-04T13:58:21.999Z</time></trkpt><trkpt lat="42.059192799196104" lon="19.675993163771764"><ele>144.33333333333331</ele><time>2026-05-04T13:58:22.999Z</time></trkpt><trkpt lat="42.059278632513106" lon="19.675758287329483"><ele>142.66666666666666</ele><time>2026-05-04T13:58:23.999Z</time></trkpt><trkpt lat="42.05936018766942" lon="19.675562676120396"><ele>141.0</ele><time>2026-05-04T13:58:24.999Z</time></trkpt><trkpt lat="42.05945445750254" lon="19.675306767175574"><ele>146.0</ele><time>2026-05-04T13:58:25.999Z</time></trkpt><trkpt lat="42.05954732155272" lon="19.67507899320952"><ele>151.0</ele><time>2026-05-04T13:58:26.999Z</time></trkpt><trkpt lat="42.05964767383357" lon="19.67486201215077"><ele>156.0</ele><time>2026-05-04T13:58:27.999Z</time></trkpt><trkpt lat="42.059738238485004" lon="19.67469402715988"><ele>156.0</ele><time>2026-05-04T13:58:28.999Z</time></trkpt><trkpt lat="42.059854385276104" lon="19.67455135399646"><ele>156.0</ele><time>2026-05-04T13:58:29.999Z</time></trkpt><trkpt lat="42.05997517954128" lon="19.674405096246865"><ele>156.0</ele><time>2026-05-04T13:58:30.999Z</time></trkpt><trkpt lat="42.060026641859494" lon="19.674236210477027"><ele>154.8</ele><time>2026-05-04T13:58:31.999Z</time></trkpt><trkpt lat="42.06008542441632" lon="19.674109312066804"><ele>153.6</ele><time>2026-05-04T13:58:32.999Z</time></trkpt><trkpt lat="42.06011179080317" lon="19.673984858664394"><ele>152.4</ele><time>2026-05-04T13:58:33.999Z</time></trkpt><trkpt lat="42.06010647874679" lon="19.67384552978033"><ele>151.2</ele><time>2026-05-04T13:58:34.999Z</time></trkpt><trkpt lat="42.06006871971728" lon="19.67371559113105"><ele>150.0</ele><time>2026-05-04T13:58:35.999Z</time></trkpt><trkpt lat="42.05999513351673" lon="19.673610604597556"><ele>145.75</ele><time>2026-05-04T13:58:36.999Z</time></trkpt><trkpt lat="42.05991506386876" lon="19.673552365672432"><ele>141.5</ele><time>2026-05-04T13:58:37.999Z</time></trkpt><trkpt lat="42.0598072010093" lon="19.673536051221433"><ele>137.25</ele><time>2026-05-04T13:58:38.999Z</time></trkpt><trkpt lat="42.05967269703036" lon="19.673538042347374"><ele>133.0</ele><time>2026-05-04T13:58:39.999Z</time></trkpt><trkpt lat="42.05952022103845" lon="19.67356844827742"><ele>133.0</ele><time>2026-05-04T13:58:40.999Z</time></trkpt><trkpt lat="42.05933804852877" lon="19.67356431051318"><ele>133.0</ele><time>2026-05-04T13:58:41.999Z</time></trkpt><trkpt lat="42.059147276008986" lon="19.67352709727589"><ele>133.0</ele><time>2026-05-04T13:58:42.999Z</time></trkpt><trkpt lat="42.05900354442898" lon="19.67347932215948"><ele>141.33333333333334</ele><time>2026-05-04T13:58:43.999Z</time></trkpt><trkpt lat="42.05887104467016" lon="19.673401791055348"><ele>149.66666666666666</ele><time>2026-05-04T13:58:44.999Z</time></trkpt><trkpt lat="42.058736320662184" lon="19.673276314587078"><ele>158.0</ele><time>2026-05-04T13:58:45.999Z</time></trkpt><trkpt lat="42.05863557894541" lon="19.673105704757898"><ele>158.0</ele><time>2026-05-04T13:58:46.999Z</time></trkpt><trkpt lat="42.058572509710686" lon="19.67290135623487"><ele>158.0</ele><time>2026-05-04T13:58:47.999Z</time></trkpt><trkpt lat="42.058523996193486" lon="19.672672240061477"><ele>158.0</ele><time>2026-05-04T13:58:48.999Z</time></trkpt><trkpt lat="42.058474419869846" lon="19.6724973257351"><ele>157.75</ele><time>2026-05-04T13:58:49.999Z</time></trkpt><trkpt lat="42.058400898662335" lon="19.67239196270161"><ele>157.5</ele><time>2026-05-04T13:58:50.999Z</time></trkpt><trkpt lat="42.05826935482851" lon="19.67229563896839"><ele>157.25</ele><time>2026-05-04T13:58:51.999Z</time></trkpt><trkpt lat="42.0581028342332" lon="19.672192776106648"><ele>157.0</ele><time>2026-05-04T13:58:52.999Z</time></trkpt><trkpt lat="42.05792317118719" lon="19.672069401982537"><ele>147.66666666666669</ele><time>2026-05-04T13:58:53.999Z</time></trkpt><trkpt lat="42.05772331322806" lon="19.671933761331317"><ele>138.33333333333334</ele><time>2026-05-04T13:58:54.999Z</time></trkpt><trkpt lat="42.05753066091622" lon="19.671806583766767"><ele>129.0</ele><time>2026-05-04T13:58:55.999Z</time></trkpt><trkpt lat="42.057320387188796" lon="19.671688738609443"><ele>129.0</ele><time>2026-05-04T13:58:56.999Z</time></trkpt><trkpt lat="42.05710111462709" lon="19.671580859169357"><ele>129.0</ele><time>2026-05-04T13:58:57.999Z</time></trkpt><trkpt lat="42.05689249904649" lon="19.671474845033305"><ele>129.0</ele><time>2026-05-04T13:58:58.999Z</time></trkpt><trkpt lat="42.05668015961797" lon="19.67134801062819"><ele>129.0</ele><time>2026-05-04T13:58:59.999Z</time></trkpt><trkpt lat="42.05651388544268" lon="19.67122528120774"><ele>129.0</ele><time>2026-05-04T13:59:00.999Z</time></trkpt><trkpt lat="42.0563727703574" lon="19.671098005588803"><ele>122.25</ele><time>2026-05-04T13:59:01.999Z</time></trkpt><trkpt lat="42.05623974617946" lon="19.670992829023398"><ele>115.5</ele><time>2026-05-04T13:59:02.999Z</time></trkpt><trkpt lat="42.05611905091075" lon="19.670927654764995"><ele>108.75</ele><time>2026-05-04T13:59:03.999Z</time></trkpt><trkpt lat="42.055995173082" lon="19.670886766266225"><ele>102.0</ele><time>2026-05-04T13:59:04.999Z</time></trkpt><trkpt lat="42.055894362907935" lon="19.6708620222196"><ele>102.0</ele><time>2026-05-04T13:59:05.999Z</time></trkpt><trkpt lat="42.055817888675314" lon="19.67085721244379"><ele>102.0</ele><time>2026-05-04T13:59:06.999Z</time></trkpt><trkpt lat="42.05573264194696" lon="19.670870601578105"><ele>102.0</ele><time>2026-05-04T13:59:07.999Z</time></trkpt><trkpt lat="42.05564868406085" lon="19.67089939371936"><ele>102.0</ele><time>2026-05-04T13:59:08.999Z</time></trkpt><trkpt lat="42.05556084038678" lon="19.670928644982787"><ele>102.0</ele><time>2026-05-04T13:59:09.999Z</time></trkpt><trkpt lat="42.05544743627317" lon="19.670990680790435"><ele>103.66666666666666</ele><time>2026-05-04T13:59:10.999Z</time></trkpt><trkpt lat="42.055316911327004" lon="19.67108426089678"><ele>105.33333333333333</ele><time>2026-05-04T13:59:11.999Z</time></trkpt><trkpt lat="42.05518239337234" lon="19.671205263710323"><ele>107.0</ele><time>2026-05-04T13:59:12.999Z</time></trkpt><trkpt lat="42.055060617895144" lon="19.671345389922035"><ele>107.0</ele><time>2026-05-04T13:59:13.999Z</time></trkpt><trkpt lat="42.05495879295174" lon="19.67148980235686"><ele>107.0</ele><time>2026-05-04T13:59:14.999Z</time></trkpt><trkpt lat="42.054884720935476" lon="19.671632754538482"><ele>107.0</ele><time>2026-05-04T13:59:15.999Z</time></trkpt><trkpt lat="42.05483961962506" lon="19.671780712882086"><ele>107.0</ele><time>2026-05-04T13:59:16.999Z</time></trkpt><trkpt lat="42.05480011666364" lon="19.671951187303755"><ele>106.19999999999999</ele><time>2026-05-04T13:59:17.999Z</time></trkpt><trkpt lat="42.05478696866873" lon="19.672142734242833"><ele>105.39999999999999</ele><time>2026-05-04T13:59:18.999Z</time></trkpt><trkpt lat="42.054775637095176" lon="19.672297835677753"><ele>104.6</ele><time>2026-05-04T13:59:19.999Z</time></trkpt><trkpt lat="42.05473868159672" lon="19.672403821642845"><ele>103.80000000000001</ele><time>2026-05-04T13:59:20.999Z</time></trkpt><trkpt lat="42.054673546831836" lon="19.672477871236115"><ele>103.0</ele><time>2026-05-04T13:59:21.999Z</time></trkpt><trkpt lat="42.054589533754125" lon="19.67254395032544"><ele>103.0</ele><time>2026-05-04T13:59:22.999Z</time></trkpt><trkpt lat="42.05451925163629" lon="19.672566969489807"><ele>103.0</ele><time>2026-05-04T13:59:23.999Z</time></trkpt><trkpt lat="42.05440184492942" lon="19.672470749152964"><ele>103.0</ele><time>2026-05-04T13:59:25.999Z</time></trkpt><trkpt lat="42.05431025225883" lon="19.672359918985734"><ele>103.0</ele><time>2026-05-04T13:59:26.999Z</time></trkpt><trkpt lat="42.0542323376779" lon="19.67222609346419"><ele>103.0</ele><time>2026-05-04T13:59:27.999Z</time></trkpt><trkpt lat="42.05415512996645" lon="19.672054881105915"><ele>103.0</ele><time>2026-05-04T13:59:28.999Z</time></trkpt><trkpt lat="42.05407617236618" lon="19.671861626235565"><ele>103.0</ele><time>2026-05-04T13:59:29.999Z</time></trkpt><trkpt lat="42.05399524933627" lon="19.671652387031084"><ele>102.66666666666667</ele><time>2026-05-04T13:59:31Z</time></trkpt><trkpt lat="42.05391902690532" lon="19.67142220888511"><ele>102.33333333333334</ele><time>2026-05-04T13:59:32Z</time></trkpt><trkpt lat="42.05386848964038" lon="19.671222208934633"><ele>102.0</ele><time>2026-05-04T13:59:33Z</time></trkpt><trkpt lat="42.053857009368805" lon="19.671027527114127"><ele>102.0</ele><time>2026-05-04T13:59:34Z</time></trkpt><trkpt lat="42.053877096260365" lon="19.670851044639917"><ele>102.0</ele><time>2026-05-04T13:59:35Z</time></trkpt><trkpt lat="42.05391820243064" lon="19.670677190823515"><ele>102.0</ele><time>2026-05-04T13:59:36Z</time></trkpt><trkpt lat="42.0539364891842" lon="19.670525259693726"><ele>102.0</ele><time>2026-05-04T13:59:37Z</time></trkpt><trkpt lat="42.05390906983919" lon="19.670352965933816"><ele>102.0</ele><time>2026-05-04T13:59:38Z</time></trkpt><trkpt lat="42.05385601227009" lon="19.670140137938688"><ele>102.0</ele><time>2026-05-04T13:59:39Z</time></trkpt><trkpt lat="42.05382890783073" lon="19.669907539254503"><ele>102.0</ele><time>2026-05-04T13:59:40Z</time></trkpt><trkpt lat="42.05383688797974" lon="19.669709797972946"><ele>102.0</ele><time>2026-05-04T13:59:41Z</time></trkpt><trkpt lat="42.053891750859194" lon="19.669536043578685"><ele>102.0</ele><time>2026-05-04T13:59:42Z</time></trkpt><trkpt lat="42.053976133143856" lon="19.669350710900588"><ele>102.0</ele><time>2026-05-04T13:59:43Z</time></trkpt><trkpt lat="42.054043899624595" lon="19.669163513477404"><ele>104.75</ele><time>2026-05-04T13:59:44Z</time></trkpt><trkpt lat="42.05406485815989" lon="19.66899706837795"><ele>107.5</ele><time>2026-05-04T13:59:45Z</time></trkpt><trkpt lat="42.05405089823618" lon="19.668811536542833"><ele>110.25</ele><time>2026-05-04T13:59:46Z</time></trkpt><trkpt lat="42.053995797066364" lon="19.668601042963648"><ele>113.0</ele><time>2026-05-04T13:59:47Z</time></trkpt><trkpt lat="42.05393970355316" lon="19.668365112071008"><ele>113.0</ele><time>2026-05-04T13:59:48Z</time></trkpt><trkpt lat="42.053879140447414" lon="19.668139382281897"><ele>113.0</ele><time>2026-05-04T13:59:49Z</time></trkpt><trkpt lat="42.0538320290877" lon="19.66791625225689"><ele>113.0</ele><time>2026-05-04T13:59:50Z</time></trkpt><trkpt lat="42.05382585355017" lon="19.667720993679822"><ele>114.25</ele><time>2026-05-04T13:59:51Z</time></trkpt><trkpt lat="42.0538560788749" lon="19.66753634823309"><ele>115.5</ele><time>2026-05-04T13:59:52Z</time></trkpt><trkpt lat="42.0538879587806" lon="19.667334446526095"><ele>116.75</ele><time>2026-05-04T13:59:53Z</time></trkpt><trkpt lat="42.05390683935301" lon="19.667129396889138"><ele>118.0</ele><time>2026-05-04T13:59:54Z</time></trkpt><trkpt lat="42.05388237089368" lon="19.666924089941148"><ele>118.66666666666667</ele><time>2026-05-04T13:59:55Z</time></trkpt><trkpt lat="42.05383108028278" lon="19.666747257614873"><ele>119.33333333333334</ele><time>2026-05-04T13:59:56Z</time></trkpt><trkpt lat="42.053766325313205" lon="19.66657339858692"><ele>120.0</ele><time>2026-05-04T13:59:57Z</time></trkpt><trkpt lat="42.05367845751711" lon="19.6663753712611"><ele>120.0</ele><time>2026-05-04T13:59:58Z</time></trkpt><trkpt lat="42.053592698182776" lon="19.66614927961484"><ele>120.0</ele><time>2026-05-04T13:59:59Z</time></trkpt><trkpt lat="42.05349823670596" lon="19.66593166256791"><ele>120.0</ele><time>2026-05-04T14:00:00Z</time></trkpt><trkpt lat="42.05341105013853" lon="19.66573127177653"><ele>117.0</ele><time>2026-05-04T14:00:01Z</time></trkpt><trkpt lat="42.053318953868434" lon="19.665546275833666"><ele>114.0</ele><time>2026-05-04T14:00:02Z</time></trkpt><trkpt lat="42.053215566497414" lon="19.66536599444267"><ele>111.0</ele><time>2026-05-04T14:00:03Z</time></trkpt><trkpt lat="42.05308037929832" lon="19.66516712452858"><ele>117.0</ele><time>2026-05-04T14:00:04Z</time></trkpt><trkpt lat="42.05292836013169" lon="19.664970883699326"><ele>123.0</ele><time>2026-05-04T14:00:05Z</time></trkpt><trkpt lat="42.05276883787305" lon="19.664777684427314"><ele>129.0</ele><time>2026-05-04T14:00:06Z</time></trkpt><trkpt lat="42.05259225128908" lon="19.6645705555974"><ele>130.0</ele><time>2026-05-04T14:00:07Z</time></trkpt><trkpt lat="42.05242180875399" lon="19.664358947666084"><ele>131.0</ele><time>2026-05-04T14:00:08Z</time></trkpt><trkpt lat="42.0522751428074" lon="19.6641557559256"><ele>132.0</ele><time>2026-05-04T14:00:09Z</time></trkpt><trkpt lat="42.052148219352205" lon="19.66396667235808"><ele>132.0</ele><time>2026-05-04T14:00:10Z</time></trkpt><trkpt lat="42.05202527208765" lon="19.6638169046743"><ele>132.0</ele><time>2026-05-04T14:00:11Z</time></trkpt><trkpt lat="42.05189231220279" lon="19.66367339703431"><ele>132.0</ele><time>2026-05-04T14:00:12Z</time></trkpt><trkpt lat="42.05176156094957" lon="19.663572418858458"><ele>129.33333333333334</ele><time>2026-05-04T14:00:13Z</time></trkpt><trkpt lat="42.05160799024623" lon="19.66350891199754"><ele>126.66666666666667</ele><time>2026-05-04T14:00:14Z</time></trkpt><trkpt lat="42.05143058106885" lon="19.66346336065974"><ele>124.0</ele><time>2026-05-04T14:00:15Z</time></trkpt><trkpt lat="42.051249877374964" lon="19.66340194091111"><ele>124.0</ele><time>2026-05-04T14:00:16Z</time></trkpt><trkpt lat="42.051110057641964" lon="19.663344077449114"><ele>124.0</ele><time>2026-05-04T14:00:17Z</time></trkpt><trkpt lat="42.05098255101792" lon="19.663337985411378"><ele>124.0</ele><time>2026-05-04T14:00:18Z</time></trkpt><trkpt lat="42.05085541777003" lon="19.66337586297773"><ele>124.0</ele><time>2026-05-04T14:00:19Z</time></trkpt><trkpt lat="42.0507158045641" lon="19.663449699111116"><ele>126.0</ele><time>2026-05-04T14:00:20Z</time></trkpt><trkpt lat="42.05057448773036" lon="19.663493171324422"><ele>128.0</ele><time>2026-05-04T14:00:21Z</time></trkpt><trkpt lat="42.050443583363744" lon="19.663511029116385"><ele>130.0</ele><time>2026-05-04T14:00:22Z</time></trkpt><trkpt lat="42.05034821973304" lon="19.663494908711936"><ele>132.0</ele><time>2026-05-04T14:00:23Z</time></trkpt><trkpt lat="42.05026643585119" lon="19.663433111993754"><ele>132.0</ele><time>2026-05-04T14:00:24Z</time></trkpt><trkpt lat="42.05021435337518" lon="19.663339522854297"><ele>132.0</ele><time>2026-05-04T14:00:25Z</time></trkpt><trkpt lat="42.05016374224226" lon="19.663202330845547"><ele>132.0</ele><time>2026-05-04T14:00:26Z</time></trkpt><trkpt lat="42.05014512316856" lon="19.663045301936062"><ele>132.0</ele><time>2026-05-04T14:00:27Z</time></trkpt><trkpt lat="42.05013929742393" lon="19.662863811592153"><ele>132.0</ele><time>2026-05-04T14:00:28Z</time></trkpt><trkpt lat="42.05012773511624" lon="19.662661559017643"><ele>132.0</ele><time>2026-05-04T14:00:29Z</time></trkpt><trkpt lat="42.05008453574278" lon="19.662450723678734"><ele>132.0</ele><time>2026-05-04T14:00:30Z</time></trkpt><trkpt lat="42.05003042598919" lon="19.662232971656078"><ele>132.0</ele><time>2026-05-04T14:00:31Z</time></trkpt><trkpt lat="42.04997523344176" lon="19.66198582363737"><ele>132.0</ele><time>2026-05-04T14:00:31.999Z</time></trkpt><trkpt lat="42.04992981947757" lon="19.661731796948462"><ele>132.0</ele><time>2026-05-04T14:00:32.999Z</time></trkpt><trkpt lat="42.04987562098718" lon="19.661499390003158"><ele>131.75</ele><time>2026-05-04T14:00:33.999Z</time></trkpt><trkpt lat="42.04982221788293" lon="19.66132463150661"><ele>131.5</ele><time>2026-05-04T14:00:34.999Z</time></trkpt><trkpt lat="42.04974877060002" lon="19.66119332365199"><ele>131.25</ele><time>2026-05-04T14:00:35.999Z</time></trkpt><trkpt lat="42.049644874249175" lon="19.661077433864932"><ele>131.0</ele><time>2026-05-04T14:00:36.999Z</time></trkpt><trkpt lat="42.049515585380156" lon="19.660966199353947"><ele>131.0</ele><time>2026-05-04T14:00:37.999Z</time></trkpt><trkpt lat="42.04936692193469" lon="19.660883184537777"><ele>131.0</ele><time>2026-05-04T14:00:38.999Z</time></trkpt><trkpt lat="42.04922365389554" lon="19.66084656975926"><ele>131.0</ele><time>2026-05-04T14:00:39.999Z</time></trkpt><trkpt lat="42.04910484025204" lon="19.660855842299576"><ele>131.0</ele><time>2026-05-04T14:00:40.999Z</time></trkpt><trkpt lat="42.048975009029746" lon="19.66090815080006"><ele>131.66666666666666</ele><time>2026-05-04T14:00:41.999Z</time></trkpt><trkpt lat="42.048840280559915" lon="19.66099440992623"><ele>132.33333333333334</ele><time>2026-05-04T14:00:42.999Z</time></trkpt><trkpt lat="42.04870441353895" lon="19.6611132241836"><ele>133.0</ele><time>2026-05-04T14:00:43.999Z</time></trkpt><trkpt lat="42.048566460726484" lon="19.661248985545278"><ele>133.0</ele><time>2026-05-04T14:00:44.999Z</time></trkpt><trkpt lat="42.04842022619663" lon="19.661383934522508"><ele>133.0</ele><time>2026-05-04T14:00:45.999Z</time></trkpt><trkpt lat="42.04825180769812" lon="19.661497430252133"><ele>133.0</ele><time>2026-05-04T14:00:46.999Z</time></trkpt><trkpt lat="42.048088108143084" lon="19.661575124634616"><ele>130.66666666666669</ele><time>2026-05-04T14:00:47.999Z</time></trkpt><trkpt lat="42.04792068725914" lon="19.66161350071739"><ele>128.33333333333334</ele><time>2026-05-04T14:00:48.999Z</time></trkpt><trkpt lat="42.047740725980596" lon="19.661617459674183"><ele>126.0</ele><time>2026-05-04T14:00:49.999Z</time></trkpt><trkpt lat="42.04755241846839" lon="19.6615957702153"><ele>123.66666666666666</ele><time>2026-05-04T14:00:50.999Z</time></trkpt><trkpt lat="42.04735664608837" lon="19.661572401061935"><ele>121.33333333333333</ele><time>2026-05-04T14:00:51.999Z</time></trkpt><trkpt lat="42.047148903926335" lon="19.661570950280524"><ele>119.0</ele><time>2026-05-04T14:00:52.999Z</time></trkpt><trkpt lat="42.0469339934994" lon="19.661593997774087"><ele>119.0</ele><time>2026-05-04T14:00:53.999Z</time></trkpt><trkpt lat="42.046750381374174" lon="19.661616861263536"><ele>119.0</ele><time>2026-05-04T14:00:54.999Z</time></trkpt><trkpt lat="42.04658219441581" lon="19.66164163432604"><ele>119.0</ele><time>2026-05-04T14:00:55.999Z</time></trkpt><trkpt lat="42.0464477917755" lon="19.661643034308895"><ele>118.25</ele><time>2026-05-04T14:00:56.999Z</time></trkpt><trkpt lat="42.04631611214068" lon="19.661608241282945"><ele>117.5</ele><time>2026-05-04T14:00:57.999Z</time></trkpt><trkpt lat="42.04620007307161" lon="19.661508963632237"><ele>116.75</ele><time>2026-05-04T14:00:58.999Z</time></trkpt><trkpt lat="42.046084421970505" lon="19.661352557039"><ele>116.0</ele><time>2026-05-04T14:00:59.999Z</time></trkpt><trkpt lat="42.04597906912954" lon="19.661168845782683"><ele>115.16666666666666</ele><time>2026-05-04T14:01:00.999Z</time></trkpt><trkpt lat="42.045908596385495" lon="19.661036968847423"><ele>114.33333333333333</ele><time>2026-05-04T14:01:01.999Z</time></trkpt><trkpt lat="42.045845687450544" lon="19.660963122063524"><ele>113.5</ele><time>2026-05-04T14:01:02.999Z</time></trkpt><trkpt lat="42.04577027552153" lon="19.660921266983348"><ele>112.66666666666666</ele><time>2026-05-04T14:01:03.999Z</time></trkpt><trkpt lat="42.045696328714946" lon="19.660930038374744"><ele>111.83333333333333</ele><time>2026-05-04T14:01:04.999Z</time></trkpt><trkpt lat="42.04562235661998" lon="19.660986243069026"><ele>111.0</ele><time>2026-05-04T14:01:05.999Z</time></trkpt><trkpt lat="42.04557041363947" lon="19.661071162474933"><ele>108.5</ele><time>2026-05-04T14:01:06.999Z</time></trkpt><trkpt lat="42.045543193159546" lon="19.661199194866057"><ele>106.0</ele><time>2026-05-04T14:01:07.999Z</time></trkpt><trkpt lat="42.04552877888205" lon="19.661379659807135"><ele>103.5</ele><time>2026-05-04T14:01:08.999Z</time></trkpt><trkpt lat="42.04551898630634" lon="19.6615919897309"><ele>101.0</ele><time>2026-05-04T14:01:09.999Z</time></trkpt><trkpt lat="42.04549778762898" lon="19.66184535083752"><ele>101.0</ele><time>2026-05-04T14:01:10.999Z</time></trkpt><trkpt lat="42.045481241134254" lon="19.66211466307993"><ele>101.0</ele><time>2026-05-04T14:01:11.999Z</time></trkpt><trkpt lat="42.0454747118924" lon="19.66239039828702"><ele>101.0</ele><time>2026-05-04T14:01:12.999Z</time></trkpt><trkpt lat="42.04547643387943" lon="19.662649248693572"><ele>99.75</ele><time>2026-05-04T14:01:13.999Z</time></trkpt><trkpt lat="42.045493323868826" lon="19.66286066648168"><ele>98.5</ele><time>2026-05-04T14:01:14.999Z</time></trkpt><trkpt lat="42.045516091822826" lon="19.66301489027739"><ele>97.25</ele><time>2026-05-04T14:01:15.999Z</time></trkpt><trkpt lat="42.045551707350526" lon="19.66313555019819"><ele>96.0</ele><time>2026-05-04T14:01:16.999Z</time></trkpt><trkpt lat="42.0456137358423" lon="19.663271731531243"><ele>96.0</ele><time>2026-05-04T14:01:17.999Z</time></trkpt><trkpt lat="42.04570253037112" lon="19.663421099503285"><ele>96.0</ele><time>2026-05-04T14:01:18.999Z</time></trkpt><trkpt lat="42.04575686661645" lon="19.66356265999067"><ele>96.0</ele><time>2026-05-04T14:01:19.999Z</time></trkpt><trkpt lat="42.045770230765015" lon="19.663700408960576"><ele>96.0</ele><time>2026-05-04T14:01:20.999Z</time></trkpt><trkpt lat="42.04574941938129" lon="19.66382751081242"><ele>96.5</ele><time>2026-05-04T14:01:21.999Z</time></trkpt><trkpt lat="42.04569666844432" lon="19.663922496639657"><ele>97.0</ele><time>2026-05-04T14:01:22.999Z</time></trkpt><trkpt lat="42.0456079277481" lon="19.663994568604323"><ele>97.5</ele><time>2026-05-04T14:01:23.999Z</time></trkpt><trkpt lat="42.045473393748416" lon="19.664061752849758"><ele>98.0</ele><time>2026-05-04T14:01:24.999Z</time></trkpt><trkpt lat="42.045316497350576" lon="19.664127071683648"><ele>98.0</ele><time>2026-05-04T14:01:25.999Z</time></trkpt><trkpt lat="42.04515334215952" lon="19.664190010886955"><ele>98.0</ele><time>2026-05-04T14:01:26.999Z</time></trkpt><trkpt lat="42.04496568333537" lon="19.664248590904805"><ele>98.0</ele><time>2026-05-04T14:01:27.999Z</time></trkpt><trkpt lat="42.04480044208949" lon="19.664272563307374"><ele>101.0</ele><time>2026-05-04T14:01:28.999Z</time></trkpt><trkpt lat="42.044670870232395" lon="19.66425478183805"><ele>104.0</ele><time>2026-05-04T14:01:29.999Z</time></trkpt><trkpt lat="42.04455562531453" lon="19.664212305652864"><ele>107.0</ele><time>2026-05-04T14:01:30.999Z</time></trkpt><trkpt lat="42.04441511994918" lon="19.66414268438242"><ele>110.0</ele><time>2026-05-04T14:01:31.999Z</time></trkpt><trkpt lat="42.044265162112175" lon="19.66404285327041"><ele>109.66666666666666</ele><time>2026-05-04T14:01:32.999Z</time></trkpt><trkpt lat="42.044116495828085" lon="19.663933051940756"><ele>109.33333333333334</ele><time>2026-05-04T14:01:33.999Z</time></trkpt><trkpt lat="42.04394243775269" lon="19.66381926743258"><ele>109.0</ele><time>2026-05-04T14:01:34.999Z</time></trkpt><trkpt lat="42.043781499377154" lon="19.663731252480684"><ele>109.0</ele><time>2026-05-04T14:01:35.999Z</time></trkpt><trkpt lat="42.04362238990097" lon="19.663669999438447"><ele>109.0</ele><time>2026-05-04T14:01:37Z</time></trkpt><trkpt lat="42.0434885279794" lon="19.66361915127165"><ele>109.0</ele><time>2026-05-04T14:01:38Z</time></trkpt><trkpt lat="42.043370881954566" lon="19.663596079817363"><ele>109.0</ele><time>2026-05-04T14:01:39Z</time></trkpt><trkpt lat="42.04326563184291" lon="19.663614308945398"><ele>107.66666666666667</ele><time>2026-05-04T14:01:40Z</time></trkpt><trkpt lat="42.04314618210629" lon="19.663674196019173"><ele>106.33333333333334</ele><time>2026-05-04T14:01:41Z</time></trkpt><trkpt lat="42.043020765753035" lon="19.663784688819664"><ele>105.0</ele><time>2026-05-04T14:01:42Z</time></trkpt><trkpt lat="42.042868414169625" lon="19.66389906033941"><ele>105.0</ele><time>2026-05-04T14:01:43Z</time></trkpt><trkpt lat="42.04272428129546" lon="19.663964832903297"><ele>105.0</ele><time>2026-05-04T14:01:44Z</time></trkpt><trkpt lat="42.04253774107263" lon="19.663987923739725"><ele>105.0</ele><time>2026-05-04T14:01:45Z</time></trkpt><trkpt lat="42.04234536398096" lon="19.663989636513534"><ele>107.66666666666666</ele><time>2026-05-04T14:01:46Z</time></trkpt><trkpt lat="42.042144553841766" lon="19.663986084222213"><ele>110.33333333333333</ele><time>2026-05-04T14:01:47Z</time></trkpt><trkpt lat="42.04194806458034" lon="19.663961083529532"><ele>113.0</ele><time>2026-05-04T14:01:48Z</time></trkpt><trkpt lat="42.041764439245206" lon="19.66391371882769"><ele>115.33333333333333</ele><time>2026-05-04T14:01:49Z</time></trkpt><trkpt lat="42.041568375394895" lon="19.663863222181174"><ele>117.66666666666666</ele><time>2026-05-04T14:01:50Z</time></trkpt><trkpt lat="42.041378173049765" lon="19.663833921078673"><ele>120.0</ele><time>2026-05-04T14:01:51Z</time></trkpt><trkpt lat="42.04120095357178" lon="19.663814097711693"><ele>120.0</ele><time>2026-05-04T14:01:52Z</time></trkpt><trkpt lat="42.041025067108876" lon="19.66378494170636"><ele>120.0</ele><time>2026-05-04T14:01:53Z</time></trkpt><trkpt lat="42.04087341580827" lon="19.663759160083416"><ele>120.0</ele><time>2026-05-04T14:01:54Z</time></trkpt><trkpt lat="42.04072592842371" lon="19.66373908331986"><ele>119.5</ele><time>2026-05-04T14:01:55Z</time></trkpt><trkpt lat="42.040588960285035" lon="19.663730203710404"><ele>119.0</ele><time>2026-05-04T14:01:56Z</time></trkpt><trkpt lat="42.040473033706185" lon="19.663725312762963"><ele>118.5</ele><time>2026-05-04T14:01:57Z</time></trkpt><trkpt lat="42.04038196521032" lon="19.663720718666532"><ele>118.0</ele><time>2026-05-04T14:01:58Z</time></trkpt><trkpt lat="42.04025595782894" lon="19.66371355896594"><ele>118.0</ele><time>2026-05-04T14:02:00Z</time></trkpt><trkpt lat="42.04017050438964" lon="19.663702767840313"><ele>118.00000000000001</ele><time>2026-05-04T14:02:02Z</time></trkpt><trkpt lat="42.040081517915624" lon="19.663698747058472"><ele>118.00000000000001</ele><time>2026-05-04T14:02:04Z</time></trkpt><trkpt lat="42.03999550565336" lon="19.663685066773922"><ele>118.0</ele><time>2026-05-04T14:02:05Z</time></trkpt><trkpt lat="42.039888964559225" lon="19.663646017732418"><ele>118.0</ele><time>2026-05-04T14:02:06Z</time></trkpt><trkpt lat="42.03977149337509" lon="19.66360416604945"><ele>114.75</ele><time>2026-05-04T14:02:07Z</time></trkpt><trkpt lat="42.0396344568413" lon="19.663576498002293"><ele>111.5</ele><time>2026-05-04T14:02:08Z</time></trkpt><trkpt lat="42.039497687687394" lon="19.663554719249895"><ele>108.25</ele><time>2026-05-04T14:02:09Z</time></trkpt><trkpt lat="42.03939579350716" lon="19.663555705056368"><ele>105.0</ele><time>2026-05-04T14:02:10Z</time></trkpt><trkpt lat="42.03931283593639" lon="19.663582559914556"><ele>105.4</ele><time>2026-05-04T14:02:11Z</time></trkpt><trkpt lat="42.03924861938465" lon="19.66364365418639"><ele>105.8</ele><time>2026-05-04T14:02:12Z</time></trkpt><trkpt lat="42.039194184153864" lon="19.663750009998875"><ele>106.19999999999999</ele><time>2026-05-04T14:02:13Z</time></trkpt><trkpt lat="42.03916561533446" lon="19.66389899160353"><ele>106.6</ele><time>2026-05-04T14:02:14Z</time></trkpt><trkpt lat="42.039167243745" lon="19.664078465374143"><ele>107.0</ele><time>2026-05-04T14:02:15Z</time></trkpt><trkpt lat="42.0391944878197" lon="19.66428263215308"><ele>105.66666666666666</ele><time>2026-05-04T14:02:16Z</time></trkpt><trkpt lat="42.03922156479909" lon="19.66451400989885"><ele>104.33333333333334</ele><time>2026-05-04T14:02:17Z</time></trkpt><trkpt lat="42.039240357629254" lon="19.664763758578403"><ele>103.0</ele><time>2026-05-04T14:02:18Z</time></trkpt><trkpt lat="42.03925628368706" lon="19.66501767443324"><ele>103.0</ele><time>2026-05-04T14:02:19Z</time></trkpt><trkpt lat="42.039270077681905" lon="19.665276209840993"><ele>103.0</ele><time>2026-05-04T14:02:20Z</time></trkpt><trkpt lat="42.039279867990224" lon="19.665540935422293"><ele>103.0</ele><time>2026-05-04T14:02:21Z</time></trkpt><trkpt lat="42.039299208001665" lon="19.66582306773329"><ele>100.5</ele><time>2026-05-04T14:02:22Z</time></trkpt><trkpt lat="42.039329733368064" lon="19.66613448277386"><ele>98.0</ele><time>2026-05-04T14:02:23Z</time></trkpt><trkpt lat="42.039361941793565" lon="19.666451146002174"><ele>98.0</ele><time>2026-05-04T14:02:24Z</time></trkpt><trkpt lat="42.03938927980646" lon="19.666733785433742"><ele>98.0</ele><time>2026-05-04T14:02:25Z</time></trkpt><trkpt lat="42.03940197656351" lon="19.66698300899275"><ele>98.0</ele><time>2026-05-04T14:02:26Z</time></trkpt><trkpt lat="42.03940848710864" lon="19.667213476341267"><ele>98.0</ele><time>2026-05-04T14:02:27Z</time></trkpt><trkpt lat="42.03940868748209" lon="19.667434774220677"><ele>98.0</ele><time>2026-05-04T14:02:28Z</time></trkpt><trkpt lat="42.03940049660184" lon="19.667641976386125"><ele>98.0</ele><time>2026-05-04T14:02:29Z</time></trkpt><trkpt lat="42.03937915899252" lon="19.66782712252865"><ele>97.60000000000001</ele><time>2026-05-04T14:02:30Z</time></trkpt><trkpt lat="42.03935452077952" lon="19.66795344194865"><ele>97.2</ele><time>2026-05-04T14:02:31Z</time></trkpt><trkpt lat="42.039311298915024" lon="19.668066453231916"><ele>96.8</ele><time>2026-05-04T14:02:32Z</time></trkpt><trkpt lat="42.03923908283629" lon="19.668167092997454"><ele>96.4</ele><time>2026-05-04T14:02:33Z</time></trkpt><trkpt lat="42.039127507048235" lon="19.668282315397217"><ele>96.0</ele><time>2026-05-04T14:02:34Z</time></trkpt><trkpt lat="42.03900989437719" lon="19.66839601393563"><ele>99.0</ele><time>2026-05-04T14:02:35Z</time></trkpt><trkpt lat="42.03892499445099" lon="19.66843981258417"><ele>102.0</ele><time>2026-05-04T14:02:36Z</time></trkpt><trkpt lat="42.03886154692842" lon="19.668429304324217"><ele>105.0</ele><time>2026-05-04T14:02:37Z</time></trkpt><trkpt lat="42.03878404689621" lon="19.668372085790214"><ele>108.0</ele><time>2026-05-04T14:02:38Z</time></trkpt><trkpt lat="42.03868410409304" lon="19.66825772513251"><ele>111.0</ele><time>2026-05-04T14:02:39Z</time></trkpt><trkpt lat="42.03858033580839" lon="19.668090506263205"><ele>111.0</ele><time>2026-05-04T14:02:40Z</time></trkpt><trkpt lat="42.038461643361245" lon="19.667900646245318"><ele>111.0</ele><time>2026-05-04T14:02:41Z</time></trkpt><trkpt lat="42.038313351127606" lon="19.667724404446783"><ele>111.0</ele><time>2026-05-04T14:02:42Z</time></trkpt><trkpt lat="42.03814123925601" lon="19.667545541029586"><ele>112.0</ele><time>2026-05-04T14:02:43Z</time></trkpt><trkpt lat="42.03797016353728" lon="19.667343554068378"><ele>113.0</ele><time>2026-05-04T14:02:44Z</time></trkpt><trkpt lat="42.03780431544182" lon="19.6671148249318"><ele>117.0</ele><time>2026-05-04T14:02:45Z</time></trkpt><trkpt lat="42.037628758452925" lon="19.666882991212233"><ele>121.0</ele><time>2026-05-04T14:02:46Z</time></trkpt><trkpt lat="42.03746279598623" lon="19.66664456001724"><ele>121.0</ele><time>2026-05-04T14:02:47Z</time></trkpt><trkpt lat="42.037328244425645" lon="19.66644010467101"><ele>121.0</ele><time>2026-05-04T14:02:48Z</time></trkpt><trkpt lat="42.03721649844219" lon="19.66627868819277"><ele>121.0</ele><time>2026-05-04T14:02:49Z</time></trkpt><trkpt lat="42.037117321398625" lon="19.666165958588792"><ele>111.75</ele><time>2026-05-04T14:02:50Z</time></trkpt><trkpt lat="42.037029665044706" lon="19.66608320542162"><ele>102.5</ele><time>2026-05-04T14:02:51Z</time></trkpt><trkpt lat="42.03690384452492" lon="19.666019869361264"><ele>93.25</ele><time>2026-05-04T14:02:52Z</time></trkpt><trkpt lat="42.036754018821995" lon="19.66600366809576"><ele>84.0</ele><time>2026-05-04T14:02:53Z</time></trkpt><trkpt lat="42.03660644424369" lon="19.666003148002627"><ele>83.5</ele><time>2026-05-04T14:02:54Z</time></trkpt><trkpt lat="42.03646185741527" lon="19.666016654757307"><ele>83.0</ele><time>2026-05-04T14:02:55Z</time></trkpt><trkpt lat="42.036318484217624" lon="19.666039983412798"><ele>82.5</ele><time>2026-05-04T14:02:56Z</time></trkpt><trkpt lat="42.03620178153136" lon="19.666073242119477"><ele>82.0</ele><time>2026-05-04T14:02:57Z</time></trkpt><trkpt lat="42.036098851953916" lon="19.666139716280867"><ele>82.66666666666666</ele><time>2026-05-04T14:02:58Z</time></trkpt><trkpt lat="42.03599177052582" lon="19.6662439955119"><ele>83.33333333333333</ele><time>2026-05-04T14:02:59Z</time></trkpt><trkpt lat="42.03586745761547" lon="19.66637373938728"><ele>84.0</ele><time>2026-05-04T14:03:00Z</time></trkpt><trkpt lat="42.03574664035584" lon="19.666527883030824"><ele>84.0</ele><time>2026-05-04T14:03:01Z</time></trkpt><trkpt lat="42.03562519451162" lon="19.66669192384971"><ele>84.0</ele><time>2026-05-04T14:03:02Z</time></trkpt><trkpt lat="42.03550921557004" lon="19.66688212851244"><ele>84.0</ele><time>2026-05-04T14:03:03Z</time></trkpt><trkpt lat="42.03540626140853" lon="19.667074040681396"><ele>88.33333333333334</ele><time>2026-05-04T14:03:04Z</time></trkpt><trkpt lat="42.03531245979178" lon="19.667291250545247"><ele>92.66666666666667</ele><time>2026-05-04T14:03:05Z</time></trkpt><trkpt lat="42.03520349387287" lon="19.667520640014786"><ele>97.0</ele><time>2026-05-04T14:03:06Z</time></trkpt><trkpt lat="42.03508265487207" lon="19.66775443867952"><ele>92.66666666666667</ele><time>2026-05-04T14:03:07Z</time></trkpt><trkpt lat="42.034956967872525" lon="19.66798466327943"><ele>88.33333333333334</ele><time>2026-05-04T14:03:08Z</time></trkpt><trkpt lat="42.03484264106435" lon="19.668188738408315"><ele>84.0</ele><time>2026-05-04T14:03:09Z</time></trkpt><trkpt lat="42.03475118514765" lon="19.668359814865497"><ele>84.0</ele><time>2026-05-04T14:03:10Z</time></trkpt><trkpt lat="42.03467610194351" lon="19.668518505314804"><ele>84.0</ele><time>2026-05-04T14:03:11Z</time></trkpt><trkpt lat="42.03461808426881" lon="19.66871035675167"><ele>84.0</ele><time>2026-05-04T14:03:12Z</time></trkpt><trkpt lat="42.03456107947494" lon="19.668931314028637"><ele>86.33333333333333</ele><time>2026-05-04T14:03:13Z</time></trkpt><trkpt lat="42.034510842406036" lon="19.66917905897638"><ele>88.66666666666666</ele><time>2026-05-04T14:03:14Z</time></trkpt><trkpt lat="42.03446283988557" lon="19.669432398370738"><ele>91.0</ele><time>2026-05-04T14:03:15Z</time></trkpt><trkpt lat="42.034405133283485" lon="19.669695189114602"><ele>94.33333333333333</ele><time>2026-05-04T14:03:16Z</time></trkpt><trkpt lat="42.03434819968319" lon="19.669963325628913"><ele>97.66666666666666</ele><time>2026-05-04T14:03:17Z</time></trkpt><trkpt lat="42.03427773617404" lon="19.670261816588553"><ele>101.0</ele><time>2026-05-04T14:03:18Z</time></trkpt><trkpt lat="42.0342097287097" lon="19.670541256348915"><ele>99.66666666666666</ele><time>2026-05-04T14:03:19Z</time></trkpt><trkpt lat="42.03414239668658" lon="19.670756291660474"><ele>98.33333333333334</ele><time>2026-05-04T14:03:20Z</time></trkpt><trkpt lat="42.03406960669661" lon="19.670950549341"><ele>97.0</ele><time>2026-05-04T14:03:21Z</time></trkpt><trkpt lat="42.03397943205176" lon="19.671140465570062"><ele>97.0</ele><time>2026-05-04T14:03:22Z</time></trkpt><trkpt lat="42.03386871371392" lon="19.671326297890385"><ele>97.0</ele><time>2026-05-04T14:03:23Z</time></trkpt><trkpt lat="42.033716383841714" lon="19.671537657243707"><ele>97.0</ele><time>2026-05-04T14:03:24Z</time></trkpt><trkpt lat="42.03354250169092" lon="19.671741523231674"><ele>94.0</ele><time>2026-05-04T14:03:25Z</time></trkpt><trkpt lat="42.03337229509459" lon="19.67195660715844"><ele>91.0</ele><time>2026-05-04T14:03:26Z</time></trkpt><trkpt lat="42.0331989790376" lon="19.67219397919649"><ele>91.0</ele><time>2026-05-04T14:03:27Z</time></trkpt><trkpt lat="42.03303675921592" lon="19.672417426173492"><ele>91.0</ele><time>2026-05-04T14:03:28Z</time></trkpt><trkpt lat="42.03290066727094" lon="19.67259278179789"><ele>91.0</ele><time>2026-05-04T14:03:29Z</time></trkpt><trkpt lat="42.03279058497577" lon="19.672738169795334"><ele>93.75</ele><time>2026-05-04T14:03:30Z</time></trkpt><trkpt lat="42.03270150898569" lon="19.6728708646369"><ele>96.5</ele><time>2026-05-04T14:03:31Z</time></trkpt><trkpt lat="42.03262778534915" lon="19.67304182016572"><ele>99.25</ele><time>2026-05-04T14:03:32Z</time></trkpt><trkpt lat="42.03256880470816" lon="19.673250114964738"><ele>102.0</ele><time>2026-05-04T14:03:33Z</time></trkpt><trkpt lat="42.03251884090068" lon="19.67348243301658"><ele>99.25</ele><time>2026-05-04T14:03:34Z</time></trkpt><trkpt lat="42.03245708478084" lon="19.67366398176245"><ele>96.5</ele><time>2026-05-04T14:03:35Z</time></trkpt><trkpt lat="42.03237798357666" lon="19.673801996916886"><ele>93.75</ele><time>2026-05-04T14:03:36Z</time></trkpt><trkpt lat="42.03228580208954" lon="19.673901386395777"><ele>91.0</ele><time>2026-05-04T14:03:37Z</time></trkpt><trkpt lat="42.032167284260176" lon="19.67397967574656"><ele>91.0</ele><time>2026-05-04T14:03:38Z</time></trkpt><trkpt lat="42.032004723523585" lon="19.67404950247844"><ele>91.0</ele><time>2026-05-04T14:03:39Z</time></trkpt><trkpt lat="42.03182397170546" lon="19.674105679804935"><ele>91.0</ele><time>2026-05-04T14:03:40Z</time></trkpt><trkpt lat="42.03162664512801" lon="19.674179392583817"><ele>89.66666666666666</ele><time>2026-05-04T14:03:41Z</time></trkpt><trkpt lat="42.03145782672944" lon="19.674254618444415"><ele>88.33333333333333</ele><time>2026-05-04T14:03:42Z</time></trkpt><trkpt lat="42.031295581323576" lon="19.674354856582426"><ele>87.0</ele><time>2026-05-04T14:03:43.001Z</time></trkpt><trkpt lat="42.03113104602403" lon="19.674504080876677"><ele>87.0</ele><time>2026-05-04T14:03:44.001Z</time></trkpt><trkpt lat="42.030958416345115" lon="19.674687398022943"><ele>87.0</ele><time>2026-05-04T14:03:45.001Z</time></trkpt><trkpt lat="42.03079153439754" lon="19.674888167660686"><ele>87.0</ele><time>2026-05-04T14:03:46.001Z</time></trkpt><trkpt lat="42.030638864835375" lon="19.675036020286495"><ele>86.0</ele><time>2026-05-04T14:03:47.001Z</time></trkpt><trkpt lat="42.03049640680732" lon="19.675134002323365"><ele>85.0</ele><time>2026-05-04T14:03:48.001Z</time></trkpt><trkpt lat="42.03034521463499" lon="19.675216026742575"><ele>84.0</ele><time>2026-05-04T14:03:49.001Z</time></trkpt><trkpt lat="42.03018876082866" lon="19.67527966997404"><ele>84.0</ele><time>2026-05-04T14:03:50.001Z</time></trkpt><trkpt lat="42.03004242790426" lon="19.67534213518604"><ele>84.0</ele><time>2026-05-04T14:03:51.001Z</time></trkpt><trkpt lat="42.029932903776" lon="19.67543847048911"><ele>84.0</ele><time>2026-05-04T14:03:52.001Z</time></trkpt><trkpt lat="42.02984222641738" lon="19.67557391394605"><ele>84.0</ele><time>2026-05-04T14:03:53.001Z</time></trkpt><trkpt lat="42.02974815390938" lon="19.675758429496856"><ele>83.0</ele><time>2026-05-04T14:03:54.001Z</time></trkpt><trkpt lat="42.02964448029972" lon="19.675971270278406"><ele>82.0</ele><time>2026-05-04T14:03:55.001Z</time></trkpt><trkpt lat="42.02951886928098" lon="19.67618874092188"><ele>81.0</ele><time>2026-05-04T14:03:56.001Z</time></trkpt><trkpt lat="42.0293920596573" lon="19.676377711941566"><ele>81.0</ele><time>2026-05-04T14:03:57.001Z</time></trkpt><trkpt lat="42.02925203329828" lon="19.676525365157243"><ele>81.0</ele><time>2026-05-04T14:03:58.001Z</time></trkpt><trkpt lat="42.029095429582235" lon="19.67665523701586"><ele>81.0</ele><time>2026-05-04T14:03:59.001Z</time></trkpt><trkpt lat="42.0289417174089" lon="19.67678374227834"><ele>81.33333333333333</ele><time>2026-05-04T14:04:00.001Z</time></trkpt><trkpt lat="42.028789699278434" lon="19.676953613357657"><ele>81.66666666666666</ele><time>2026-05-04T14:04:01.001Z</time></trkpt><trkpt lat="42.02865323312143" lon="19.67715856591"><ele>82.0</ele><time>2026-05-04T14:04:02.001Z</time></trkpt><trkpt lat="42.028528670434966" lon="19.677399598168876"><ele>82.0</ele><time>2026-05-04T14:04:03.001Z</time></trkpt><trkpt lat="42.02842128377495" lon="19.677654972050068"><ele>82.0</ele><time>2026-05-04T14:04:04Z</time></trkpt><trkpt lat="42.028298814985355" lon="19.677924640780535"><ele>78.66666666666666</ele><time>2026-05-04T14:04:05Z</time></trkpt><trkpt lat="42.0281708369339" lon="19.678157223962277"><ele>75.33333333333333</ele><time>2026-05-04T14:04:06Z</time></trkpt><trkpt lat="42.02805280618856" lon="19.678338037851493"><ele>72.0</ele><time>2026-05-04T14:04:07Z</time></trkpt><trkpt lat="42.02794449686781" lon="19.678478590120957"><ele>75.66666666666667</ele><time>2026-05-04T14:04:08Z</time></trkpt><trkpt lat="42.02781949558574" lon="19.67860782412896"><ele>79.33333333333334</ele><time>2026-05-04T14:04:09Z</time></trkpt><trkpt lat="42.02769996789489" lon="19.67869461891336"><ele>83.0</ele><time>2026-05-04T14:04:10Z</time></trkpt><trkpt lat="42.027552427910706" lon="19.678767648803827"><ele>80.66666666666667</ele><time>2026-05-04T14:04:11Z</time></trkpt><trkpt lat="42.02739592294084" lon="19.678791751623464"><ele>78.33333333333333</ele><time>2026-05-04T14:04:12Z</time></trkpt><trkpt lat="42.02723493618081" lon="19.678835098635048"><ele>76.0</ele><time>2026-05-04T14:04:13Z</time></trkpt><trkpt lat="42.027083928263615" lon="19.678912496421397"><ele>76.0</ele><time>2026-05-04T14:04:14Z</time></trkpt><trkpt lat="42.02696471703089" lon="19.67900624314848"><ele>76.0</ele><time>2026-05-04T14:04:15Z</time></trkpt><trkpt lat="42.02685775881852" lon="19.679141971218847"><ele>76.0</ele><time>2026-05-04T14:04:16Z</time></trkpt><trkpt lat="42.02674773096334" lon="19.67931973581008"><ele>75.0</ele><time>2026-05-04T14:04:17Z</time></trkpt><trkpt lat="42.026625339487474" lon="19.67953467684717"><ele>74.0</ele><time>2026-05-04T14:04:18Z</time></trkpt><trkpt lat="42.02648913083873" lon="19.679772512954358"><ele>73.0</ele><time>2026-05-04T14:04:19Z</time></trkpt><trkpt lat="42.026340451083506" lon="19.680017013335377"><ele>73.0</ele><time>2026-05-04T14:04:20Z</time></trkpt><trkpt lat="42.026198054400304" lon="19.68024797556891"><ele>73.0</ele><time>2026-05-04T14:04:21Z</time></trkpt><trkpt lat="42.026039116013486" lon="19.680486709567244"><ele>73.5</ele><time>2026-05-04T14:04:22Z</time></trkpt><trkpt lat="42.02587694492331" lon="19.680714243807902"><ele>74.0</ele><time>2026-05-04T14:04:23Z</time></trkpt><trkpt lat="42.02570101794811" lon="19.68094472818771"><ele>75.0</ele><time>2026-05-04T14:04:24Z</time></trkpt><trkpt lat="42.025539083627955" lon="19.68115813922701"><ele>76.0</ele><time>2026-05-04T14:04:25Z</time></trkpt><trkpt lat="42.02538352725033" lon="19.681362153348324"><ele>77.0</ele><time>2026-05-04T14:04:26Z</time></trkpt><trkpt lat="42.02524178067583" lon="19.68153886171654"><ele>77.0</ele><time>2026-05-04T14:04:27Z</time></trkpt><trkpt lat="42.02510346502293" lon="19.681680825627375"><ele>77.0</ele><time>2026-05-04T14:04:28Z</time></trkpt><trkpt lat="42.02495844038123" lon="19.681808523111098"><ele>77.0</ele><time>2026-05-04T14:04:29Z</time></trkpt><trkpt lat="42.02481527930041" lon="19.681903516952698"><ele>77.33333333333334</ele><time>2026-05-04T14:04:30Z</time></trkpt><trkpt lat="42.024672086728714" lon="19.68194225787119"><ele>77.66666666666667</ele><time>2026-05-04T14:04:31Z</time></trkpt><trkpt lat="42.02451891449117" lon="19.681963521592106"><ele>78.0</ele><time>2026-05-04T14:04:32Z</time></trkpt><trkpt lat="42.02435044470676" lon="19.68196246682281"><ele>78.0</ele><time>2026-05-04T14:04:33Z</time></trkpt><trkpt lat="42.02416413142909" lon="19.681951640045828"><ele>78.0</ele><time>2026-05-04T14:04:34Z</time></trkpt><trkpt lat="42.02397568393083" lon="19.681944984162193"><ele>78.0</ele><time>2026-05-04T14:04:35Z</time></trkpt><trkpt lat="42.02379043563786" lon="19.6819370909654"><ele>78.33333333333333</ele><time>2026-05-04T14:04:36Z</time></trkpt><trkpt lat="42.02358848519637" lon="19.681930358496608"><ele>78.66666666666666</ele><time>2026-05-04T14:04:37Z</time></trkpt><trkpt lat="42.023398546069814" lon="19.68193268482916"><ele>79.0</ele><time>2026-05-04T14:04:38Z</time></trkpt><trkpt lat="42.0232062520348" lon="19.681930463612236"><ele>78.75</ele><time>2026-05-04T14:04:39Z</time></trkpt><trkpt lat="42.02302224006542" lon="19.681935167980797"><ele>78.5</ele><time>2026-05-04T14:04:40Z</time></trkpt><trkpt lat="42.02288493886108" lon="19.681925561433946"><ele>78.25</ele><time>2026-05-04T14:04:41Z</time></trkpt><trkpt lat="42.02277058411243" lon="19.68190750121676"><ele>78.0</ele><time>2026-05-04T14:04:42Z</time></trkpt><trkpt lat="42.0226812120068" lon="19.681846595593676"><ele>77.5</ele><time>2026-05-04T14:04:43Z</time></trkpt><trkpt lat="42.0225945499405" lon="19.681756062506796"><ele>77.0</ele><time>2026-05-04T14:04:44Z</time></trkpt><trkpt lat="42.022501800025104" lon="19.681638323344934"><ele>76.5</ele><time>2026-05-04T14:04:45Z</time></trkpt><trkpt lat="42.02240951819546" lon="19.68150074099206"><ele>76.0</ele><time>2026-05-04T14:04:46Z</time></trkpt><trkpt lat="42.02231168601916" lon="19.68135726758668"><ele>76.0</ele><time>2026-05-04T14:04:47Z</time></trkpt><trkpt lat="42.02221206512882" lon="19.68120799811165"><ele>76.0</ele><time>2026-05-04T14:04:48Z</time></trkpt><trkpt lat="42.022103548501676" lon="19.681055827328805"><ele>76.0</ele><time>2026-05-04T14:04:49Z</time></trkpt><trkpt lat="42.021994847193845" lon="19.68089898821877"><ele>75.66666666666666</ele><time>2026-05-04T14:04:50Z</time></trkpt><trkpt lat="42.021881896946816" lon="19.6807436448724"><ele>75.33333333333333</ele><time>2026-05-04T14:04:51Z</time></trkpt><trkpt lat="42.02176645729038" lon="19.68058788437905"><ele>75.0</ele><time>2026-05-04T14:04:52Z</time></trkpt><trkpt lat="42.02165472035249" lon="19.680431857947642"><ele>75.66666666666667</ele><time>2026-05-04T14:04:53Z</time></trkpt><trkpt lat="42.021540523348826" lon="19.680266689026777"><ele>76.33333333333334</ele><time>2026-05-04T14:04:54Z</time></trkpt><trkpt lat="42.021421807011734" lon="19.680100718481345"><ele>77.0</ele><time>2026-05-04T14:04:55Z</time></trkpt><trkpt lat="42.021302503201824" lon="19.679940758841617"><ele>77.0</ele><time>2026-05-04T14:04:56Z</time></trkpt><trkpt lat="42.021189791087245" lon="19.67978425009642"><ele>77.0</ele><time>2026-05-04T14:04:57Z</time></trkpt><trkpt lat="42.021083386689966" lon="19.67963940545571"><ele>77.0</ele><time>2026-05-04T14:04:58Z</time></trkpt><trkpt lat="42.02099157082554" lon="19.67951102312988"><ele>77.0</ele><time>2026-05-04T14:04:59Z</time></trkpt><trkpt lat="42.02092467720093" lon="19.67940101781357"><ele>79.2</ele><time>2026-05-04T14:05:00Z</time></trkpt><trkpt lat="42.02087735874508" lon="19.679283418925873"><ele>81.4</ele><time>2026-05-04T14:05:01Z</time></trkpt><trkpt lat="42.02086113869763" lon="19.679163954783505"><ele>83.60000000000001</ele><time>2026-05-04T14:05:01.999Z</time></trkpt><trkpt lat="42.02086699874224" lon="19.6790510712547"><ele>85.80000000000001</ele><time>2026-05-04T14:05:02.999Z</time></trkpt><trkpt lat="42.02090600533266" lon="19.67895766016492"><ele>88.0</ele><time>2026-05-04T14:05:03.999Z</time></trkpt><trkpt lat="42.02097786139933" lon="19.678864348803955"><ele>88.0</ele><time>2026-05-04T14:05:04.999Z</time></trkpt><trkpt lat="42.021075208572775" lon="19.678775111362654"><ele>88.0</ele><time>2026-05-04T14:05:05.999Z</time></trkpt><trkpt lat="42.0211396998564" lon="19.67867959405498"><ele>88.0</ele><time>2026-05-04T14:05:06.999Z</time></trkpt><trkpt lat="42.0212626766693" lon="19.67859686851384"><ele>88.0</ele><time>2026-05-04T14:05:07.999Z</time></trkpt><trkpt lat="42.021387549636486" lon="19.67850676470019"><ele>87.5</ele><time>2026-05-04T14:05:08.999Z</time></trkpt><trkpt lat="42.02150467904425" lon="19.67842344529051"><ele>87.0</ele><time>2026-05-04T14:05:09.999Z</time></trkpt><trkpt lat="42.021628983136814" lon="19.67834109235719"><ele>86.5</ele><time>2026-05-04T14:05:10.999Z</time></trkpt><trkpt lat="42.02175222139076" lon="19.67825726501214"><ele>86.0</ele><time>2026-05-04T14:05:11.999Z</time></trkpt><trkpt lat="42.021883382711955" lon="19.678168381629554"><ele>86.0</ele><time>2026-05-04T14:05:12.999Z</time></trkpt><trkpt lat="42.0220115728053" lon="19.67807624707457"><ele>86.0</ele><time>2026-05-04T14:05:13.999Z</time></trkpt><trkpt lat="42.0221592769813" lon="19.677996164241254"><ele>86.0</ele><time>2026-05-04T14:05:14.999Z</time></trkpt><trkpt lat="42.022299271359415" lon="19.677925422129945"><ele>86.0</ele><time>2026-05-04T14:05:15.999Z</time></trkpt><trkpt lat="42.02244986395449" lon="19.677860152571444"><ele>86.0</ele><time>2026-05-04T14:05:16.999Z</time></trkpt><trkpt lat="42.02260754662817" lon="19.677805047267874"><ele>86.0</ele><time>2026-05-04T14:05:17.999Z</time></trkpt><trkpt lat="42.02276577376619" lon="19.677741422980965"><ele>92.0</ele><time>2026-05-04T14:05:18.999Z</time></trkpt><trkpt lat="42.0229200259927" lon="19.67766284478807"><ele>98.0</ele><time>2026-05-04T14:05:19.999Z</time></trkpt><trkpt lat="42.023077010253616" lon="19.6775674503173"><ele>104.0</ele><time>2026-05-04T14:05:20.999Z</time></trkpt><trkpt lat="42.02323401322469" lon="19.677444477532866"><ele>96.66666666666666</ele><time>2026-05-04T14:05:21.999Z</time></trkpt><trkpt lat="42.02338675845579" lon="19.677298041095895"><ele>89.33333333333333</ele><time>2026-05-04T14:05:22.999Z</time></trkpt><trkpt lat="42.02352801119281" lon="19.67714719819118"><ele>82.0</ele><time>2026-05-04T14:05:23.999Z</time></trkpt><trkpt lat="42.02364698680268" lon="19.67697426441405"><ele>88.33333333333333</ele><time>2026-05-04T14:05:24.999Z</time></trkpt><trkpt lat="42.023747840379094" lon="19.676794772960427"><ele>94.66666666666666</ele><time>2026-05-04T14:05:25.999Z</time></trkpt><trkpt lat="42.02382457007281" lon="19.676603438609316"><ele>101.0</ele><time>2026-05-04T14:05:26.999Z</time></trkpt><trkpt lat="42.02388315547488" lon="19.676397317684636"><ele>101.0</ele><time>2026-05-04T14:05:27.999Z</time></trkpt><trkpt lat="42.023914555816596" lon="19.67617736802165"><ele>101.0</ele><time>2026-05-04T14:05:28.999Z</time></trkpt><trkpt lat="42.02394391930755" lon="19.675975091231273"><ele>101.0</ele><time>2026-05-04T14:05:29.999Z</time></trkpt><trkpt lat="42.023971074893616" lon="19.67579171233099"><ele>104.75</ele><time>2026-05-04T14:05:30.999Z</time></trkpt><trkpt lat="42.023987243219416" lon="19.675630212196726"><ele>108.5</ele><time>2026-05-04T14:05:31.999Z</time></trkpt><trkpt lat="42.02399925078621" lon="19.675498507902354"><ele>112.25</ele><time>2026-05-04T14:05:32.999Z</time></trkpt><trkpt lat="42.02401588098734" lon="19.67534472078532"><ele>116.0</ele><time>2026-05-04T14:05:33.999Z</time></trkpt><trkpt lat="42.02404349256423" lon="19.675157205850503"><ele>120.0</ele><time>2026-05-04T14:05:34.999Z</time></trkpt><trkpt lat="42.024077187824936" lon="19.67493767545723"><ele>124.0</ele><time>2026-05-04T14:05:35.999Z</time></trkpt><trkpt lat="42.02410147789374" lon="19.674707173254188"><ele>128.0</ele><time>2026-05-04T14:05:36.999Z</time></trkpt><trkpt lat="42.024100630360174" lon="19.674448034569302"><ele>131.66666666666666</ele><time>2026-05-04T14:05:37.999Z</time></trkpt><trkpt lat="42.02413315773315" lon="19.674189140448647"><ele>135.33333333333334</ele><time>2026-05-04T14:05:38.999Z</time></trkpt><trkpt lat="42.02416526157861" lon="19.673924051407994"><ele>139.0</ele><time>2026-05-04T14:05:39.999Z</time></trkpt><trkpt lat="42.02419411908106" lon="19.67364689838099"><ele>124.0</ele><time>2026-05-04T14:05:40.999Z</time></trkpt><trkpt lat="42.024229017820005" lon="19.673374699427942"><ele>109.0</ele><time>2026-05-04T14:05:41.999Z</time></trkpt><trkpt lat="42.02427604331274" lon="19.67316485323678"><ele>94.0</ele><time>2026-05-04T14:05:42.999Z</time></trkpt><trkpt lat="42.024346118293145" lon="19.672965801107395"><ele>94.0</ele><time>2026-05-04T14:05:43.999Z</time></trkpt><trkpt lat="42.024412036836154" lon="19.672775592569312"><ele>94.0</ele><time>2026-05-04T14:05:44.999Z</time></trkpt><trkpt lat="42.024446297424426" lon="19.67258663596933"><ele>94.0</ele><time>2026-05-04T14:05:45.999Z</time></trkpt><trkpt lat="42.02445970365038" lon="19.672388289708973"><ele>94.0</ele><time>2026-05-04T14:05:46.999Z</time></trkpt><trkpt lat="42.024456015928" lon="19.672191480013936"><ele>92.33333333333333</ele><time>2026-05-04T14:05:47.999Z</time></trkpt><trkpt lat="42.024441496392384" lon="19.671970430479952"><ele>90.66666666666667</ele><time>2026-05-04T14:05:49Z</time></trkpt><trkpt lat="42.02442156660569" lon="19.671731586538982"><ele>89.0</ele><time>2026-05-04T14:05:50Z</time></trkpt><trkpt lat="42.02439597136033" lon="19.671471669135013"><ele>89.0</ele><time>2026-05-04T14:05:51Z</time></trkpt><trkpt lat="42.024369363785624" lon="19.67120442482947"><ele>89.0</ele><time>2026-05-04T14:05:52Z</time></trkpt><trkpt lat="42.02434545657838" lon="19.670929701563427"><ele>89.0</ele><time>2026-05-04T14:05:53Z</time></trkpt><trkpt lat="42.02432502919174" lon="19.670667332334354"><ele>90.0</ele><time>2026-05-04T14:05:54Z</time></trkpt><trkpt lat="42.02430562391596" lon="19.6704310798558"><ele>91.0</ele><time>2026-05-04T14:05:55Z</time></trkpt><trkpt lat="42.024258311596085" lon="19.67020855218707"><ele>92.0</ele><time>2026-05-04T14:05:56Z</time></trkpt><trkpt lat="42.02418927825047" lon="19.669981172456225"><ele>98.0</ele><time>2026-05-04T14:05:57Z</time></trkpt><trkpt lat="42.02410687338878" lon="19.669742256042724"><ele>104.0</ele><time>2026-05-04T14:05:58Z</time></trkpt><trkpt lat="42.02403702520043" lon="19.669482835012822"><ele>110.0</ele><time>2026-05-04T14:05:59Z</time></trkpt><trkpt lat="42.02398396464196" lon="19.669218867011164"><ele>110.0</ele><time>2026-05-04T14:06:00Z</time></trkpt><trkpt lat="42.023953400843006" lon="19.66900082139115"><ele>110.0</ele><time>2026-05-04T14:06:01Z</time></trkpt><trkpt lat="42.023938783189415" lon="19.668799352641972"><ele>110.0</ele><time>2026-05-04T14:06:02Z</time></trkpt><trkpt lat="42.023945733260284" lon="19.66857527725577"><ele>107.25</ele><time>2026-05-04T14:06:03Z</time></trkpt><trkpt lat="42.02396588870918" lon="19.66836657268105"><ele>104.5</ele><time>2026-05-04T14:06:04Z</time></trkpt><trkpt lat="42.02396173371275" lon="19.668203208422902"><ele>101.75</ele><time>2026-05-04T14:06:05Z</time></trkpt><trkpt lat="42.02391821576958" lon="19.66806587375527"><ele>99.0</ele><time>2026-05-04T14:06:06Z</time></trkpt><trkpt lat="42.02384528386602" lon="19.667901773308834"><ele>94.33333333333333</ele><time>2026-05-04T14:06:07Z</time></trkpt><trkpt lat="42.02374265359573" lon="19.66774771134842"><ele>89.66666666666666</ele><time>2026-05-04T14:06:08Z</time></trkpt><trkpt lat="42.023614897758684" lon="19.66760187224922"><ele>85.0</ele><time>2026-05-04T14:06:09Z</time></trkpt><trkpt lat="42.02349065958378" lon="19.66743039915992"><ele>85.0</ele><time>2026-05-04T14:06:10Z</time></trkpt><trkpt lat="42.02335858818404" lon="19.667238752363755"><ele>85.0</ele><time>2026-05-04T14:06:11Z</time></trkpt><trkpt lat="42.02321234319153" lon="19.667057436779114"><ele>85.0</ele><time>2026-05-04T14:06:12Z</time></trkpt><trkpt lat="42.023050963535" lon="19.66688779464661"><ele>88.33333333333333</ele><time>2026-05-04T14:06:13Z</time></trkpt><trkpt lat="42.02286178966226" lon="19.666726472979686"><ele>91.66666666666667</ele><time>2026-05-04T14:06:14Z</time></trkpt><trkpt lat="42.02271041087629" lon="19.66657985644912"><ele>95.0</ele><time>2026-05-04T14:06:15Z</time></trkpt><trkpt lat="42.02262317210088" lon="19.666454224925136"><ele>95.0</ele><time>2026-05-04T14:06:16Z</time></trkpt><trkpt lat="42.022584563023756" lon="19.66633115095179"><ele>95.0</ele><time>2026-05-04T14:06:17Z</time></trkpt><trkpt lat="42.02256847094869" lon="19.66617746326094"><ele>95.0</ele><time>2026-05-04T14:06:18Z</time></trkpt><trkpt lat="42.02260635728762" lon="19.6659945746458"><ele>95.0</ele><time>2026-05-04T14:06:19Z</time></trkpt><trkpt lat="42.02258660414368" lon="19.665800574115057"><ele>94.66666666666667</ele><time>2026-05-04T14:06:20Z</time></trkpt><trkpt lat="42.022543017626454" lon="19.665592253756714"><ele>94.33333333333333</ele><time>2026-05-04T14:06:21Z</time></trkpt><trkpt lat="42.0224881098877" lon="19.665357690931803"><ele>94.0</ele><time>2026-05-04T14:06:22Z</time></trkpt><trkpt lat="42.02242988250223" lon="19.66508570358658"><ele>95.66666666666666</ele><time>2026-05-04T14:06:23Z</time></trkpt><trkpt lat="42.02235553169313" lon="19.664785105994053"><ele>97.33333333333333</ele><time>2026-05-04T14:06:24Z</time></trkpt><trkpt lat="42.02229063096294" lon="19.66452546824769"><ele>99.0</ele><time>2026-05-04T14:06:25Z</time></trkpt><trkpt lat="42.02221516705238" lon="19.66428780066948"><ele>99.0</ele><time>2026-05-04T14:06:26Z</time></trkpt><trkpt lat="42.022143160230925" lon="19.66413135746654"><ele>99.0</ele><time>2026-05-04T14:06:27Z</time></trkpt><trkpt lat="42.022063873112145" lon="19.66400373792414"><ele>99.0</ele><time>2026-05-04T14:06:28Z</time></trkpt><trkpt lat="42.02195358533315" lon="19.66385071180797"><ele>99.0</ele><time>2026-05-04T14:06:29Z</time></trkpt><trkpt lat="42.02181669278839" lon="19.663688750488323"><ele>100.0</ele><time>2026-05-04T14:06:30Z</time></trkpt><trkpt lat="42.02166915903184" lon="19.663542502852582"><ele>101.0</ele><time>2026-05-04T14:06:31Z</time></trkpt><trkpt lat="42.02150116400792" lon="19.663380687660485"><ele>102.0</ele><time>2026-05-04T14:06:32Z</time></trkpt><trkpt lat="42.02132615704927" lon="19.66322147453126"><ele>102.0</ele><time>2026-05-04T14:06:33Z</time></trkpt><trkpt lat="42.0211303550696" lon="19.663044545329196"><ele>102.0</ele><time>2026-05-04T14:06:34Z</time></trkpt><trkpt lat="42.020930832330855" lon="19.662894164451984"><ele>100.5</ele><time>2026-05-04T14:06:35Z</time></trkpt><trkpt lat="42.02072204600716" lon="19.662758057808652"><ele>99.0</ele><time>2026-05-04T14:06:36Z</time></trkpt><trkpt lat="42.020504467859645" lon="19.662632382726397"><ele>99.0</ele><time>2026-05-04T14:06:37Z</time></trkpt><trkpt lat="42.02031449460569" lon="19.66254071448552"><ele>99.0</ele><time>2026-05-04T14:06:38Z</time></trkpt><trkpt lat="42.020096458175345" lon="19.662438521262438"><ele>99.0</ele><time>2026-05-04T14:06:39Z</time></trkpt><trkpt lat="42.01987122275622" lon="19.662359521142854"><ele>101.5</ele><time>2026-05-04T14:06:40Z</time></trkpt><trkpt lat="42.01965122582825" lon="19.66228115909011"><ele>104.0</ele><time>2026-05-04T14:06:41Z</time></trkpt><trkpt lat="42.01943247983065" lon="19.662189168348004"><ele>104.0</ele><time>2026-05-04T14:06:42Z</time></trkpt><trkpt lat="42.01922043735816" lon="19.662072312536594"><ele>104.0</ele><time>2026-05-04T14:06:43Z</time></trkpt><trkpt lat="42.01901187013616" lon="19.661928177888477"><ele>104.5</ele><time>2026-05-04T14:06:44Z</time></trkpt><trkpt lat="42.01880489442603" lon="19.66177427245568"><ele>105.0</ele><time>2026-05-04T14:06:45Z</time></trkpt><trkpt lat="42.01859525915823" lon="19.66163659238414"><ele>105.0</ele><time>2026-05-04T14:06:46Z</time></trkpt><trkpt lat="42.018380031909885" lon="19.661503722673363"><ele>105.0</ele><time>2026-05-04T14:06:47Z</time></trkpt><trkpt lat="42.01816260603182" lon="19.661386959335356"><ele>104.33333333333334</ele><time>2026-05-04T14:06:47.999Z</time></trkpt><trkpt lat="42.01796412215285" lon="19.661281226299636"><ele>103.66666666666667</ele><time>2026-05-04T14:06:48.999Z</time></trkpt><trkpt lat="42.01776707115683" lon="19.66119536469291"><ele>103.0</ele><time>2026-05-04T14:06:49.999Z</time></trkpt><trkpt lat="42.01755357462836" lon="19.661101960397584"><ele>107.33333333333334</ele><time>2026-05-04T14:06:50.999Z</time></trkpt><trkpt lat="42.017341188188894" lon="19.661021845206655"><ele>111.66666666666666</ele><time>2026-05-04T14:06:51.999Z</time></trkpt><trkpt lat="42.01717127215554" lon="19.660920850657686"><ele>116.0</ele><time>2026-05-04T14:06:52.999Z</time></trkpt><trkpt lat="42.017018656493896" lon="19.660795066422285"><ele>116.0</ele><time>2026-05-04T14:06:53.999Z</time></trkpt><trkpt lat="42.016889328278886" lon="19.660632252850295"><ele>116.0</ele><time>2026-05-04T14:06:54.999Z</time></trkpt><trkpt lat="42.016769249070784" lon="19.66046801769785"><ele>116.0</ele><time>2026-05-04T14:06:55.999Z</time></trkpt><trkpt lat="42.01667154826342" lon="19.66037717415931"><ele>117.19999999999999</ele><time>2026-05-04T14:06:56.999Z</time></trkpt><trkpt lat="42.01658291949809" lon="19.660334726715966"><ele>118.39999999999999</ele><time>2026-05-04T14:06:57.999Z</time></trkpt><trkpt lat="42.016496325160624" lon="19.660333537581966"><ele>119.6</ele><time>2026-05-04T14:06:58.999Z</time></trkpt><trkpt lat="42.016383218750775" lon="19.660369824545864"><ele>120.8</ele><time>2026-05-04T14:06:59.999Z</time></trkpt><trkpt lat="42.01624916047083" lon="19.660444760987815"><ele>122.0</ele><time>2026-05-04T14:07:00.999Z</time></trkpt><trkpt lat="42.01609150982636" lon="19.660510227392813"><ele>122.0</ele><time>2026-05-04T14:07:01.999Z</time></trkpt><trkpt lat="42.01592523193207" lon="19.66055950274483"><ele>122.0</ele><time>2026-05-04T14:07:02.999Z</time></trkpt><trkpt lat="42.01575065481145" lon="19.660582256011274"><ele>122.0</ele><time>2026-05-04T14:07:03.999Z</time></trkpt><trkpt lat="42.015587427451116" lon="19.6605856565393"><ele>123.6</ele><time>2026-05-04T14:07:04.999Z</time></trkpt><trkpt lat="42.015468532330814" lon="19.6605803318416"><ele>125.19999999999999</ele><time>2026-05-04T14:07:05.999Z</time></trkpt><trkpt lat="42.01537573644729" lon="19.660549270119244"><ele>126.8</ele><time>2026-05-04T14:07:06.999Z</time></trkpt><trkpt lat="42.01531027886393" lon="19.660492183387245"><ele>128.4</ele><time>2026-05-04T14:07:07.999Z</time></trkpt><trkpt lat="42.01525440613432" lon="19.660392644260938"><ele>130.0</ele><time>2026-05-04T14:07:08.999Z</time></trkpt><trkpt lat="42.01520555258753" lon="19.660256994246215"><ele>130.0</ele><time>2026-05-04T14:07:09.999Z</time></trkpt><trkpt lat="42.015168802968155" lon="19.660104633855997"><ele>130.0</ele><time>2026-05-04T14:07:10.999Z</time></trkpt><trkpt lat="42.01511958026663" lon="19.659930992756887"><ele>130.0</ele><time>2026-05-04T14:07:11.999Z</time></trkpt><trkpt lat="42.015038462608366" lon="19.65976876888764"><ele>130.0</ele><time>2026-05-04T14:07:12.999Z</time></trkpt><trkpt lat="42.01493416048832" lon="19.659600660711387"><ele>138.5</ele><time>2026-05-04T14:07:13.999Z</time></trkpt><trkpt lat="42.01482800404428" lon="19.65943760469708"><ele>147.0</ele><time>2026-05-04T14:07:14.999Z</time></trkpt><trkpt lat="42.01473333304843" lon="19.65927283958313"><ele>155.5</ele><time>2026-05-04T14:07:15.999Z</time></trkpt><trkpt lat="42.0146776666993" lon="19.65915652703367"><ele>164.0</ele><time>2026-05-04T14:07:16.999Z</time></trkpt><trkpt lat="42.01465837623099" lon="19.659041516675824"><ele>164.0</ele><time>2026-05-04T14:07:17.999Z</time></trkpt><trkpt lat="42.01465850851158" lon="19.65888520194896"><ele>164.0</ele><time>2026-05-04T14:07:18.999Z</time></trkpt><trkpt lat="42.01468007343574" lon="19.658711527912953"><ele>164.0</ele><time>2026-05-04T14:07:19.999Z</time></trkpt><trkpt lat="42.01470535860769" lon="19.658516622892574"><ele>164.0</ele><time>2026-05-04T14:07:20.999Z</time></trkpt><trkpt lat="42.01473138310846" lon="19.65828725288489"><ele>162.75</ele><time>2026-05-04T14:07:21.999Z</time></trkpt><trkpt lat="42.014747350109616" lon="19.658092455402485"><ele>161.5</ele><time>2026-05-04T14:07:22.999Z</time></trkpt><trkpt lat="42.01473683131953" lon="19.657955036366122"><ele>160.25</ele><time>2026-05-04T14:07:23.999Z</time></trkpt><trkpt lat="42.01469450609634" lon="19.657841677708323"><ele>159.0</ele><time>2026-05-04T14:07:24.999Z</time></trkpt><trkpt lat="42.01462959822843" lon="19.65770616406647"><ele>154.33333333333334</ele><time>2026-05-04T14:07:25.999Z</time></trkpt><trkpt lat="42.01454142823795" lon="19.657580340640777"><ele>149.66666666666669</ele><time>2026-05-04T14:07:26.999Z</time></trkpt><trkpt lat="42.014420522864945" lon="19.657456454772298"><ele>145.0</ele><time>2026-05-04T14:07:27.999Z</time></trkpt><trkpt lat="42.01428806951118" lon="19.6573091344439"><ele>148.66666666666669</ele><time>2026-05-04T14:07:28.999Z</time></trkpt><trkpt lat="42.01413167937013" lon="19.657168863268517"><ele>152.33333333333334</ele><time>2026-05-04T14:07:29.999Z</time></trkpt><trkpt lat="42.0139695079908" lon="19.65701360646498"><ele>156.0</ele><time>2026-05-04T14:07:30.999Z</time></trkpt><trkpt lat="42.013808632977884" lon="19.65685607927752"><ele>156.0</ele><time>2026-05-04T14:07:31.999Z</time></trkpt><trkpt lat="42.013611086303314" lon="19.656709248563043"><ele>156.0</ele><time>2026-05-04T14:07:32.999Z</time></trkpt><trkpt lat="42.01342773555785" lon="19.656550883574173"><ele>156.0</ele><time>2026-05-04T14:07:33.999Z</time></trkpt><trkpt lat="42.013280887428294" lon="19.65639384562462"><ele>159.66666666666666</ele><time>2026-05-04T14:07:34.999Z</time></trkpt><trkpt lat="42.01313969909966" lon="19.656217267095542"><ele>163.33333333333331</ele><time>2026-05-04T14:07:35.999Z</time></trkpt><trkpt lat="42.01299632187404" lon="19.656029338235104"><ele>167.0</ele><time>2026-05-04T14:07:36.999Z</time></trkpt><trkpt lat="42.012833653895115" lon="19.655842729599577"><ele>167.0</ele><time>2026-05-04T14:07:37.999Z</time></trkpt><trkpt lat="42.01264260980694" lon="19.655653019385365"><ele>167.0</ele><time>2026-05-04T14:07:38.999Z</time></trkpt><trkpt lat="42.01246338715118" lon="19.65548406135652"><ele>163.75</ele><time>2026-05-04T14:07:39.999Z</time></trkpt><trkpt lat="42.01234860817425" lon="19.655342125751723"><ele>160.5</ele><time>2026-05-04T14:07:40.999Z</time></trkpt><trkpt lat="42.01226331139656" lon="19.65520269574524"><ele>157.25</ele><time>2026-05-04T14:07:41.999Z</time></trkpt><trkpt lat="42.01217160262842" lon="19.655113472927393"><ele>154.0</ele><time>2026-05-04T14:07:42.999Z</time></trkpt><trkpt lat="42.01209901121353" lon="19.655078305261455"><ele>154.0</ele><time>2026-05-04T14:07:43.999Z</time></trkpt><trkpt lat="42.01203063222515" lon="19.655068764014022"><ele>154.0</ele><time>2026-05-04T14:07:44.999Z</time></trkpt><trkpt lat="42.01194568676472" lon="19.65509634565032"><ele>154.0</ele><time>2026-05-04T14:07:45.999Z</time></trkpt><trkpt lat="42.01185710975976" lon="19.65515371578168"><ele>154.0</ele><time>2026-05-04T14:07:46.999Z</time></trkpt><trkpt lat="42.011772260670845" lon="19.65522125880489"><ele>154.0</ele><time>2026-05-04T14:07:47.999Z</time></trkpt><trkpt lat="42.01168756070003" lon="19.655302560880756"><ele>148.16666666666669</ele><time>2026-05-04T14:07:48.999Z</time></trkpt><trkpt lat="42.01161391025339" lon="19.65538542110847"><ele>142.33333333333334</ele><time>2026-05-04T14:07:49.999Z</time></trkpt><trkpt lat="42.011566094211524" lon="19.655458722377823"><ele>136.5</ele><time>2026-05-04T14:07:50.999Z</time></trkpt><trkpt lat="42.01151310390898" lon="19.655578186575138"><ele>130.66666666666666</ele><time>2026-05-04T14:07:52.999Z</time></trkpt><trkpt lat="42.011536637277736" lon="19.655717797813118"><ele>124.83333333333333</ele><time>2026-05-04T14:10:05Z</time></trkpt><trkpt lat="42.0115541038436" lon="19.65580542021758"><ele>119.0</ele><time>2026-05-04T14:10:06Z</time></trkpt><trkpt lat="42.01157798470692" lon="19.65592757520345"><ele>119.0</ele><time>2026-05-04T14:10:07Z</time></trkpt><trkpt lat="42.01159747426461" lon="19.656064426216552"><ele>119.0</ele><time>2026-05-04T14:10:08Z</time></trkpt><trkpt lat="42.01160855056258" lon="19.656214296968184"><ele>119.0</ele><time>2026-05-04T14:10:09Z</time></trkpt><trkpt lat="42.01161770129517" lon="19.656381152571583"><ele>119.0</ele><time>2026-05-04T14:10:10Z</time></trkpt><trkpt lat="42.01163565060522" lon="19.65656029639302"><ele>125.5</ele><time>2026-05-04T14:10:11Z</time></trkpt><trkpt lat="42.01166592393062" lon="19.656732299001195"><ele>132.0</ele><time>2026-05-04T14:10:12Z</time></trkpt><trkpt lat="42.01169946768309" lon="19.656890780451487"><ele>138.5</ele><time>2026-05-04T14:10:13Z</time></trkpt><trkpt lat="42.011731634840004" lon="19.657040524147128"><ele>145.0</ele><time>2026-05-04T14:10:14Z</time></trkpt><trkpt lat="42.01175709669736" lon="19.657188349326844"><ele>145.0</ele><time>2026-05-04T14:10:15Z</time></trkpt><trkpt lat="42.01178158059584" lon="19.657351610316265"><ele>145.0</ele><time>2026-05-04T14:10:16Z</time></trkpt><trkpt lat="42.01181656692051" lon="19.657527231178932"><ele>145.0</ele><time>2026-05-04T14:10:17Z</time></trkpt><trkpt lat="42.01185799063348" lon="19.6577035855169"><ele>145.0</ele><time>2026-05-04T14:10:18Z</time></trkpt><trkpt lat="42.01190484855657" lon="19.657866217810536"><ele>143.75</ele><time>2026-05-04T14:10:19Z</time></trkpt><trkpt lat="42.0119366628153" lon="19.658014426247284"><ele>142.5</ele><time>2026-05-04T14:10:20Z</time></trkpt><trkpt lat="42.01193830043092" lon="19.658164718141492"><ele>141.25</ele><time>2026-05-04T14:10:21Z</time></trkpt><trkpt lat="42.01189224357243" lon="19.65830695529323"><ele>140.0</ele><time>2026-05-04T14:10:22Z</time></trkpt><trkpt lat="42.011820526835635" lon="19.658459914349475"><ele>143.66666666666666</ele><time>2026-05-04T14:10:23Z</time></trkpt><trkpt lat="42.011727288843474" lon="19.65862976217"><ele>147.33333333333334</ele><time>2026-05-04T14:10:24Z</time></trkpt><trkpt lat="42.01162304125059" lon="19.658827652546524"><ele>151.0</ele><time>2026-05-04T14:10:25Z</time></trkpt><trkpt lat="42.011530508077485" lon="19.659026693208897"><ele>140.0</ele><time>2026-05-04T14:10:26Z</time></trkpt><trkpt lat="42.011455627949935" lon="19.659214479140875"><ele>129.0</ele><time>2026-05-04T14:10:27Z</time></trkpt><trkpt lat="42.011398819425416" lon="19.65941139199289"><ele>118.0</ele><time>2026-05-04T14:10:28Z</time></trkpt><trkpt lat="42.011361314882016" lon="19.659634111913924"><ele>118.0</ele><time>2026-05-04T14:10:29Z</time></trkpt><trkpt lat="42.011352347396375" lon="19.65987021963954"><ele>118.0</ele><time>2026-05-04T14:10:30Z</time></trkpt><trkpt lat="42.0113523814915" lon="19.66012264773222"><ele>118.0</ele><time>2026-05-04T14:10:31Z</time></trkpt><trkpt lat="42.011350077039964" lon="19.660389407082647"><ele>119.0</ele><time>2026-05-04T14:10:32Z</time></trkpt><trkpt lat="42.011341302651914" lon="19.660660680628535"><ele>120.0</ele><time>2026-05-04T14:10:33Z</time></trkpt><trkpt lat="42.0113286707308" lon="19.66093881491187"><ele>121.0</ele><time>2026-05-04T14:10:34Z</time></trkpt><trkpt lat="42.011313285575234" lon="19.66122180168266"><ele>121.33333333333334</ele><time>2026-05-04T14:10:35Z</time></trkpt><trkpt lat="42.01129836921423" lon="19.661494482549696"><ele>121.66666666666666</ele><time>2026-05-04T14:10:36Z</time></trkpt><trkpt lat="42.01127967611123" lon="19.66175052785403"><ele>122.0</ele><time>2026-05-04T14:10:37Z</time></trkpt><trkpt lat="42.01125669258158" lon="19.661991203759662"><ele>122.19999999999999</ele><time>2026-05-04T14:10:38Z</time></trkpt><trkpt lat="42.01123561779306" lon="19.662206551084928"><ele>122.39999999999999</ele><time>2026-05-04T14:10:39Z</time></trkpt><trkpt lat="42.011214087357956" lon="19.662362556664245"><ele>122.60000000000001</ele><time>2026-05-04T14:10:40Z</time></trkpt><trkpt lat="42.01118475400035" lon="19.662472025241986"><ele>122.80000000000001</ele><time>2026-05-04T14:10:41Z</time></trkpt><trkpt lat="42.01113263446215" lon="19.662534538310346"><ele>123.0</ele><time>2026-05-04T14:10:42Z</time></trkpt><trkpt lat="42.011004056652354" lon="19.662469275614736"><ele>123.0</ele><time>2026-05-04T14:10:44Z</time></trkpt><trkpt lat="42.01095957411241" lon="19.66236310757937"><ele>123.0</ele><time>2026-05-04T14:10:45Z</time></trkpt><trkpt lat="42.01095090203433" lon="19.66221910540494"><ele>123.0</ele><time>2026-05-04T14:10:46Z</time></trkpt><trkpt lat="42.010974814781264" lon="19.662052852314957"><ele>123.0</ele><time>2026-05-04T14:10:47Z</time></trkpt><trkpt lat="42.01099739750356" lon="19.661855639217645"><ele>122.66666666666666</ele><time>2026-05-04T14:10:48Z</time></trkpt><trkpt lat="42.010997097272096" lon="19.661633641014408"><ele>122.33333333333333</ele><time>2026-05-04T14:10:49Z</time></trkpt><trkpt lat="42.01098605277705" lon="19.66138960511546"><ele>122.0</ele><time>2026-05-04T14:10:50Z</time></trkpt><trkpt lat="42.01098279206604" lon="19.661139337140373"><ele>121.66666666666666</ele><time>2026-05-04T14:10:51Z</time></trkpt><trkpt lat="42.01097250150234" lon="19.660876971717236"><ele>121.33333333333334</ele><time>2026-05-04T14:10:52Z</time></trkpt><trkpt lat="42.010957236453024" lon="19.660600756021985"><ele>121.0</ele><time>2026-05-04T14:10:53Z</time></trkpt><trkpt lat="42.01093656895579" lon="19.660304395064"><ele>120.0</ele><time>2026-05-04T14:10:54Z</time></trkpt><trkpt lat="42.01091083557462" lon="19.660017157412117"><ele>119.0</ele><time>2026-05-04T14:10:55Z</time></trkpt><trkpt lat="42.01089322428448" lon="19.659738858985705"><ele>118.0</ele><time>2026-05-04T14:10:56Z</time></trkpt><trkpt lat="42.01088165914954" lon="19.65950900856644"><ele>115.33333333333334</ele><time>2026-05-04T14:10:57Z</time></trkpt><trkpt lat="42.01088716074675" lon="19.65929511005142"><ele>112.66666666666666</ele><time>2026-05-04T14:10:58Z</time></trkpt><trkpt lat="42.01094069599492" lon="19.65907027590216"><ele>110.0</ele><time>2026-05-04T14:10:59Z</time></trkpt><trkpt lat="42.01102001961318" lon="19.658834548280524"><ele>108.66666666666666</ele><time>2026-05-04T14:11:00Z</time></trkpt><trkpt lat="42.0110978439917" lon="19.658597632349274"><ele>107.33333333333334</ele><time>2026-05-04T14:11:01Z</time></trkpt><trkpt lat="42.011150770200125" lon="19.65836757357841"><ele>106.0</ele><time>2026-05-04T14:11:02Z</time></trkpt><trkpt lat="42.011159166381184" lon="19.658130556432816"><ele>106.0</ele><time>2026-05-04T14:11:03Z</time></trkpt><trkpt lat="42.01112932806524" lon="19.65786996876698"><ele>106.0</ele><time>2026-05-04T14:11:04Z</time></trkpt><trkpt lat="42.01107101742349" lon="19.657600962329393"><ele>106.0</ele><time>2026-05-04T14:11:05Z</time></trkpt><trkpt lat="42.0110001041443" lon="19.65732729655586"><ele>106.66666666666667</ele><time>2026-05-04T14:11:06Z</time></trkpt><trkpt lat="42.010894092309115" lon="19.657085414857377"><ele>107.33333333333334</ele><time>2026-05-04T14:11:07Z</time></trkpt><trkpt lat="42.01080553207245" lon="19.656847784417916"><ele>108.0</ele><time>2026-05-04T14:11:08Z</time></trkpt><trkpt lat="42.010691365834624" lon="19.65663368150435"><ele>105.0</ele><time>2026-05-04T14:11:09Z</time></trkpt><trkpt lat="42.01056020660867" lon="19.656427155521477"><ele>102.0</ele><time>2026-05-04T14:11:10Z</time></trkpt><trkpt lat="42.010435429798854" lon="19.656239577445586"><ele>99.0</ele><time>2026-05-04T14:11:11Z</time></trkpt><trkpt lat="42.01032396210104" lon="19.656079611025387"><ele>99.0</ele><time>2026-05-04T14:11:12Z</time></trkpt><trkpt lat="42.01019876600391" lon="19.65595310507824"><ele>99.0</ele><time>2026-05-04T14:11:13Z</time></trkpt><trkpt lat="42.010030337325915" lon="19.655860707230914"><ele>99.0</ele><time>2026-05-04T14:11:14Z</time></trkpt><trkpt lat="42.00984415032562" lon="19.6557864136097"><ele>96.0</ele><time>2026-05-04T14:11:15Z</time></trkpt><trkpt lat="42.0096777853086" lon="19.655702882393314"><ele>93.0</ele><time>2026-05-04T14:11:16Z</time></trkpt><trkpt lat="42.009562776737994" lon="19.655600859109008"><ele>90.0</ele><time>2026-05-04T14:11:17Z</time></trkpt><trkpt lat="42.0094929740911" lon="19.655472589337997"><ele>87.0</ele><time>2026-05-04T14:11:18Z</time></trkpt><trkpt lat="42.00946682951318" lon="19.655322526980047"><ele>87.33333333333333</ele><time>2026-05-04T14:11:19Z</time></trkpt><trkpt lat="42.009458654790286" lon="19.655112021094812"><ele>87.66666666666666</ele><time>2026-05-04T14:11:20Z</time></trkpt><trkpt lat="42.0094459167146" lon="19.65485868678329"><ele>88.0</ele><time>2026-05-04T14:11:21Z</time></trkpt><trkpt lat="42.00940217321826" lon="19.654594595538246"><ele>87.66666666666666</ele><time>2026-05-04T14:11:22Z</time></trkpt><trkpt lat="42.00934192645514" lon="19.654318324379986"><ele>87.33333333333333</ele><time>2026-05-04T14:11:23Z</time></trkpt><trkpt lat="42.00929529248958" lon="19.65401798204837"><ele>87.0</ele><time>2026-05-04T14:11:24Z</time></trkpt><trkpt lat="42.009273401089125" lon="19.653694462183683"><ele>87.0</ele><time>2026-05-04T14:11:25Z</time></trkpt><trkpt lat="42.00926499901266" lon="19.653353171735592"><ele>87.0</ele><time>2026-05-04T14:11:26Z</time></trkpt><trkpt lat="42.0092579209185" lon="19.652990827606367"><ele>84.0</ele><time>2026-05-04T14:11:27Z</time></trkpt><trkpt lat="42.009257294382124" lon="19.65261690752738"><ele>81.0</ele><time>2026-05-04T14:11:28Z</time></trkpt><trkpt lat="42.00925689515238" lon="19.652231812403958"><ele>79.5</ele><time>2026-05-04T14:11:29Z</time></trkpt><trkpt lat="42.00925230613884" lon="19.65184659128571"><ele>78.0</ele><time>2026-05-04T14:11:30Z</time></trkpt><trkpt lat="42.009247073454716" lon="19.651494106858582"><ele>78.0</ele><time>2026-05-04T14:11:31Z</time></trkpt><trkpt lat="42.00924757577538" lon="19.651176435248694"><ele>78.0</ele><time>2026-05-04T14:11:32Z</time></trkpt><trkpt lat="42.00925945365867" lon="19.650873224792598"><ele>76.0</ele><time>2026-05-04T14:11:33Z</time></trkpt><trkpt lat="42.00928642821947" lon="19.650580879992493"><ele>74.0</ele><time>2026-05-04T14:11:34Z</time></trkpt><trkpt lat="42.009321772349516" lon="19.650302554536708"><ele>72.0</ele><time>2026-05-04T14:11:35Z</time></trkpt><trkpt lat="42.009368251851726" lon="19.650033711459688"><ele>70.66666666666667</ele><time>2026-05-04T14:11:36Z</time></trkpt><trkpt lat="42.00942178036386" lon="19.649791660705564"><ele>69.33333333333334</ele><time>2026-05-04T14:11:37Z</time></trkpt><trkpt lat="42.009486079447775" lon="19.649591040881287"><ele>68.0</ele><time>2026-05-04T14:11:38Z</time></trkpt><trkpt lat="42.00957706418046" lon="19.64940209067772"><ele>67.0</ele><time>2026-05-04T14:11:39Z</time></trkpt><trkpt lat="42.00968414629299" lon="19.64922520148431"><ele>66.0</ele><time>2026-05-04T14:11:40Z</time></trkpt><trkpt lat="42.00976820228465" lon="19.649055302918917"><ele>65.0</ele><time>2026-05-04T14:11:41Z</time></trkpt><trkpt lat="42.00980843585332" lon="19.648891432006252"><ele>64.0</ele><time>2026-05-04T14:11:42Z</time></trkpt><trkpt lat="42.00979998475372" lon="19.648746988578782"><ele>63.5</ele><time>2026-05-04T14:11:43Z</time></trkpt><trkpt lat="42.00974106346633" lon="19.64862572571064"><ele>63.0</ele><time>2026-05-04T14:11:44Z</time></trkpt><trkpt lat="42.009639553492775" lon="19.64851967792591"><ele>62.5</ele><time>2026-05-04T14:11:45Z</time></trkpt><trkpt lat="42.009505483133864" lon="19.64841956079825"><ele>62.0</ele><time>2026-05-04T14:11:46Z</time></trkpt><trkpt lat="42.00936678970972" lon="19.6483253674372"><ele>62.00000000000001</ele><time>2026-05-04T14:11:47Z</time></trkpt><trkpt lat="42.00926199172136" lon="19.648242358668973"><ele>62.0</ele><time>2026-05-04T14:11:48Z</time></trkpt><trkpt lat="42.00918678296787" lon="19.648167841871455"><ele>62.0</ele><time>2026-05-04T14:11:49Z</time></trkpt><trkpt lat="42.00913389171861" lon="19.648106688340267"><ele>62.0</ele><time>2026-05-04T14:11:50Z</time></trkpt><trkpt lat="42.00908414695196" lon="19.64804363018816"><ele>62.00000000000001</ele><time>2026-05-04T14:11:52Z</time></trkpt><trkpt lat="42.0090480546172" lon="19.647973631347547"><ele>62.0</ele><time>2026-05-04T14:11:56Z</time></trkpt><trkpt lat="42.00899955082658" lon="19.647897881206212"><ele>60.8</ele><time>2026-05-04T14:11:59Z</time></trkpt><trkpt lat="42.008950306373194" lon="19.647791107674088"><ele>59.6</ele><time>2026-05-04T14:12:02Z</time></trkpt><trkpt lat="42.00890042329925" lon="19.647685657964274"><ele>58.39999999999999</ele><time>2026-05-04T14:12:04Z</time></trkpt><trkpt lat="42.008846222508396" lon="19.64757176742749"><ele>57.199999999999996</ele><time>2026-05-04T14:12:04.999Z</time></trkpt><trkpt lat="42.008778531129906" lon="19.647420981976577"><ele>56.0</ele><time>2026-05-04T14:12:05.999Z</time></trkpt><trkpt lat="42.00869547184924" lon="19.647233895572782"><ele>56.0</ele><time>2026-05-04T14:12:07Z</time></trkpt><trkpt lat="42.00860106706884" lon="19.647045259952076"><ele>56.0</ele><time>2026-05-04T14:12:08Z</time></trkpt><trkpt lat="42.0085102900928" lon="19.64685846214798"><ele>56.0</ele><time>2026-05-04T14:12:09Z</time></trkpt><trkpt lat="42.00844312746005" lon="19.646662556605918"><ele>55.66666666666667</ele><time>2026-05-04T14:12:10Z</time></trkpt><trkpt lat="42.00841555536714" lon="19.646457677748522"><ele>55.33333333333333</ele><time>2026-05-04T14:12:11Z</time></trkpt><trkpt lat="42.00840538430599" lon="19.646218377884672"><ele>55.0</ele><time>2026-05-04T14:12:12Z</time></trkpt><trkpt lat="42.00840282695269" lon="19.64596667803688"><ele>54.666666666666664</ele><time>2026-05-04T14:12:13Z</time></trkpt><trkpt lat="42.00838971049496" lon="19.645709573799046"><ele>54.33333333333333</ele><time>2026-05-04T14:12:14Z</time></trkpt><trkpt lat="42.00836442551841" lon="19.64544643042599"><ele>54.0</ele><time>2026-05-04T14:12:15Z</time></trkpt><trkpt lat="42.008322940063906" lon="19.645179629313386"><ele>52.0</ele><time>2026-05-04T14:12:16Z</time></trkpt><trkpt lat="42.00827070409793" lon="19.644903930116246"><ele>50.0</ele><time>2026-05-04T14:12:17Z</time></trkpt><trkpt lat="42.00821249559884" lon="19.644647214498"><ele>48.0</ele><time>2026-05-04T14:12:18Z</time></trkpt><trkpt lat="42.008160583851094" lon="19.64441020657377"><ele>47.333333333333336</ele><time>2026-05-04T14:12:19Z</time></trkpt><trkpt lat="42.0081117007113" lon="19.64418134716338"><ele>46.66666666666667</ele><time>2026-05-04T14:12:20Z</time></trkpt><trkpt lat="42.00806841828518" lon="19.643941738806173"><ele>46.0</ele><time>2026-05-04T14:12:21Z</time></trkpt><trkpt lat="42.00801927181879" lon="19.64366996377417"><ele>44.0</ele><time>2026-05-04T14:12:22Z</time></trkpt><trkpt lat="42.007963095360545" lon="19.64338006792067"><ele>42.0</ele><time>2026-05-04T14:12:23Z</time></trkpt><trkpt lat="42.00790412014433" lon="19.643081529363464"><ele>41.5</ele><time>2026-05-04T14:12:24Z</time></trkpt><trkpt lat="42.00785275521762" lon="19.642767226317986"><ele>41.0</ele><time>2026-05-04T14:12:25Z</time></trkpt><trkpt lat="42.00781749600039" lon="19.642462249551862"><ele>41.0</ele><time>2026-05-04T14:12:26Z</time></trkpt><trkpt lat="42.00779603111122" lon="19.64220701654925"><ele>41.0</ele><time>2026-05-04T14:12:27Z</time></trkpt><trkpt lat="42.00778543730339" lon="19.642021457999174"><ele>41.0</ele><time>2026-05-04T14:12:28Z</time></trkpt><trkpt lat="42.00778234197879" lon="19.641904246852324"><ele>41.0</ele><time>2026-05-04T14:12:29Z</time></trkpt><trkpt lat="42.00778303178293" lon="19.641809054118415"><ele>41.0</ele><time>2026-05-04T14:12:30Z</time></trkpt><trkpt lat="42.00778131648188" lon="19.641698044610255"><ele>41.0</ele><time>2026-05-04T14:12:32Z</time></trkpt><trkpt lat="42.00771707609667" lon="19.641767404333446"><ele>41.0</ele><time>2026-05-04T14:12:35Z</time></trkpt><trkpt lat="42.007725039875496" lon="19.64186150611588"><ele>41.0</ele><time>2026-05-04T14:12:36Z</time></trkpt><trkpt lat="42.00778537154802" lon="19.642001103974575"><ele>41.0</ele><time>2026-05-04T14:12:37Z</time></trkpt><trkpt lat="42.007852626264636" lon="19.64211529269709"><ele>41.0</ele><time>2026-05-04T14:12:38Z</time></trkpt><trkpt lat="42.007896800391855" lon="19.642209991495125"><ele>41.0</ele><time>2026-05-04T14:12:39Z</time></trkpt><trkpt lat="42.00792871845807" lon="19.642344058353686"><ele>41.0</ele><time>2026-05-04T14:12:41Z</time></trkpt><trkpt lat="42.00791821075968" lon="19.642436386965525"><ele>41.0</ele><time>2026-05-04T14:15:00.999Z</time></trkpt><trkpt lat="42.00795742912606" lon="19.64250906652606"><ele>41.0</ele><time>2026-05-04T14:15:02.999Z</time></trkpt><trkpt lat="42.00801123638141" lon="19.64236804231373"><ele>41.0</ele><time>2026-05-04T14:23:48Z</time></trkpt><trkpt lat="42.007952880706085" lon="19.64245366748657"><ele>40.99999999999999</ele><time>2026-05-04T14:23:57.999Z</time></trkpt><trkpt lat="42.00801475560133" lon="19.64242742438998"><ele>41.0</ele><time>2026-05-04T14:27:33Z</time></trkpt><trkpt lat="42.00795499269212" lon="19.642518967912363"><ele>41.0</ele><time>2026-05-04T14:36:29Z</time></trkpt><trkpt lat="42.00792395375242" lon="19.64261404022461"><ele>41.0</ele><time>2026-05-04T14:41:16.999Z</time></trkpt><trkpt lat="42.00786510995933" lon="19.64266450453506"><ele>41.0</ele><time>2026-05-04T14:41:20.999Z</time></trkpt><trkpt lat="42.00784274250195" lon="19.642752465802204"><ele>40.99999999999999</ele><time>2026-05-04T14:41:22.999Z</time></trkpt><trkpt lat="42.007854149445684" lon="19.6428398034873"><ele>41.0</ele><time>2026-05-04T14:41:23.999Z</time></trkpt><trkpt lat="42.00787918315474" lon="19.642948622952012"><ele>41.199999999999996</ele><time>2026-05-04T14:41:24.999Z</time></trkpt><trkpt lat="42.007901306628874" lon="19.643067170267663"><ele>41.4</ele><time>2026-05-04T14:41:25.999Z</time></trkpt><trkpt lat="42.007926248442935" lon="19.64320410171129"><ele>41.6</ele><time>2026-05-04T14:41:26.999Z</time></trkpt><trkpt lat="42.0079541043358" lon="19.64334480237498"><ele>41.8</ele><time>2026-05-04T14:41:27.999Z</time></trkpt><trkpt lat="42.00798367466953" lon="19.64349466989913"><ele>42.0</ele><time>2026-05-04T14:41:28.999Z</time></trkpt><trkpt lat="42.008016196422794" lon="19.643655181365492"><ele>43.0</ele><time>2026-05-04T14:41:29.999Z</time></trkpt><trkpt lat="42.008047691591464" lon="19.64382580719223"><ele>44.0</ele><time>2026-05-04T14:41:30.999Z</time></trkpt><trkpt lat="42.00808435031685" lon="19.64401419756448"><ele>45.0</ele><time>2026-05-04T14:41:31.999Z</time></trkpt><trkpt lat="42.00812239109306" lon="19.64419843109478"><ele>46.0</ele><time>2026-05-04T14:41:32.999Z</time></trkpt><trkpt lat="42.008161185303976" lon="19.644394773914254"><ele>46.66666666666667</ele><time>2026-05-04T14:41:33.999Z</time></trkpt><trkpt lat="42.00820317394957" lon="19.64459719725117"><ele>47.333333333333336</ele><time>2026-05-04T14:41:34.999Z</time></trkpt><trkpt lat="42.008247257812044" lon="19.644802814982683"><ele>48.0</ele><time>2026-05-04T14:41:35.999Z</time></trkpt><trkpt lat="42.008294809666516" lon="19.645016875800152"><ele>49.33333333333333</ele><time>2026-05-04T14:41:36.999Z</time></trkpt><trkpt lat="42.00834002380664" lon="19.645224633785435"><ele>50.666666666666664</ele><time>2026-05-04T14:41:37.999Z</time></trkpt><trkpt lat="42.00837906299218" lon="19.64545336413287"><ele>52.0</ele><time>2026-05-04T14:41:38.999Z</time></trkpt><trkpt lat="42.0084029697632" lon="19.645682013717984"><ele>52.666666666666664</ele><time>2026-05-04T14:41:39.999Z</time></trkpt><trkpt lat="42.00840630393728" lon="19.64590471345464"><ele>53.33333333333333</ele><time>2026-05-04T14:41:40.999Z</time></trkpt><trkpt lat="42.008411460964886" lon="19.64612454391767"><ele>54.0</ele><time>2026-05-04T14:41:41.999Z</time></trkpt><trkpt lat="42.008421182334835" lon="19.646343397094654"><ele>54.25</ele><time>2026-05-04T14:41:42.999Z</time></trkpt><trkpt lat="42.00844075666855" lon="19.646559132943285"><ele>54.5</ele><time>2026-05-04T14:41:43.999Z</time></trkpt><trkpt lat="42.008468586671746" lon="19.646743864735893"><ele>54.75</ele><time>2026-05-04T14:41:44.999Z</time></trkpt><trkpt lat="42.00852142227003" lon="19.6469208403531"><ele>55.0</ele><time>2026-05-04T14:41:45.999Z</time></trkpt><trkpt lat="42.008605151363184" lon="19.647099443870292"><ele>55.33333333333333</ele><time>2026-05-04T14:41:46.999Z</time></trkpt><trkpt lat="42.00870864638787" lon="19.6472834291236"><ele>55.66666666666667</ele><time>2026-05-04T14:41:47.999Z</time></trkpt><trkpt lat="42.00881412369113" lon="19.647479750855272"><ele>56.0</ele><time>2026-05-04T14:41:48.999Z</time></trkpt><trkpt lat="42.008910910365564" lon="19.647684607464903"><ele>56.5</ele><time>2026-05-04T14:41:49.999Z</time></trkpt><trkpt lat="42.00899728727464" lon="19.647871014968374"><ele>57.0</ele><time>2026-05-04T14:41:50.999Z</time></trkpt><trkpt lat="42.00906433204084" lon="19.648022770900116"><ele>57.5</ele><time>2026-05-04T14:41:51.999Z</time></trkpt><trkpt lat="42.00910117235218" lon="19.64814602266115"><ele>58.0</ele><time>2026-05-04T14:41:52.999Z</time></trkpt><trkpt lat="42.00907728343" lon="19.648275483297606"><ele>58.0</ele><time>2026-05-04T14:41:54.999Z</time></trkpt><trkpt lat="42.00900091983588" lon="19.648393467824587"><ele>58.0</ele><time>2026-05-04T14:41:56.999Z</time></trkpt><trkpt lat="42.0089500061052" lon="19.648458361641044"><ele>58.0</ele><time>2026-05-04T14:41:57.999Z</time></trkpt><trkpt lat="42.00888313754471" lon="19.648533518492442"><ele>58.0</ele><time>2026-05-04T14:41:58.999Z</time></trkpt><trkpt lat="42.00879936464675" lon="19.6486134620822"><ele>58.0</ele><time>2026-05-04T14:41:59.999Z</time></trkpt><trkpt lat="42.00869537762798" lon="19.64868888578949"><ele>58.75</ele><time>2026-05-04T14:42:00.999Z</time></trkpt><trkpt lat="42.008573958957726" lon="19.64874259298796"><ele>59.5</ele><time>2026-05-04T14:42:01.999Z</time></trkpt><trkpt lat="42.00841588284355" lon="19.64876614256128"><ele>60.25</ele><time>2026-05-04T14:42:02.999Z</time></trkpt><trkpt lat="42.00826511853242" lon="19.648790108394046"><ele>61.0</ele><time>2026-05-04T14:42:04Z</time></trkpt><trkpt lat="42.00810691503788" lon="19.648816426744975"><ele>61.0</ele><time>2026-05-04T14:42:05Z</time></trkpt><trkpt lat="42.00793654506611" lon="19.648843003077513"><ele>61.0</ele><time>2026-05-04T14:42:06Z</time></trkpt><trkpt lat="42.00776467023524" lon="19.648868229212063"><ele>61.0</ele><time>2026-05-04T14:42:07Z</time></trkpt><trkpt lat="42.00758521203334" lon="19.64889014460014"><ele>60.33333333333333</ele><time>2026-05-04T14:42:08Z</time></trkpt><trkpt lat="42.0074035589354" lon="19.64890899743403"><ele>59.66666666666667</ele><time>2026-05-04T14:42:09Z</time></trkpt><trkpt lat="42.007220562646054" lon="19.64893048441274"><ele>59.0</ele><time>2026-05-04T14:42:10Z</time></trkpt><trkpt lat="42.007032975685235" lon="19.648963842372577"><ele>59.0</ele><time>2026-05-04T14:42:11Z</time></trkpt><trkpt lat="42.00684461771347" lon="19.649009308009237"><ele>59.0</ele><time>2026-05-04T14:42:12Z</time></trkpt><trkpt lat="42.00665234635635" lon="19.649062287079918"><ele>59.0</ele><time>2026-05-04T14:42:13Z</time></trkpt><trkpt lat="42.00646297760651" lon="19.649119317696055"><ele>60.0</ele><time>2026-05-04T14:42:14Z</time></trkpt><trkpt lat="42.006274174653996" lon="19.64917083426723"><ele>61.0</ele><time>2026-05-04T14:42:15Z</time></trkpt><trkpt lat="42.00609781723105" lon="19.649205948457176"><ele>62.0</ele><time>2026-05-04T14:42:16Z</time></trkpt><trkpt lat="42.00592939423664" lon="19.649222822704132"><ele>66.66666666666667</ele><time>2026-05-04T14:42:17Z</time></trkpt><trkpt lat="42.00576249832183" lon="19.649201916569496"><ele>71.33333333333333</ele><time>2026-05-04T14:42:18Z</time></trkpt><trkpt lat="42.00560797186113" lon="19.649131880273885"><ele>76.0</ele><time>2026-05-04T14:42:19Z</time></trkpt><trkpt lat="42.00546214629602" lon="19.649013843279352"><ele>76.0</ele><time>2026-05-04T14:42:20Z</time></trkpt><trkpt lat="42.005315004348006" lon="19.648867679880617"><ele>76.0</ele><time>2026-05-04T14:42:21Z</time></trkpt><trkpt lat="42.00516785508016" lon="19.648711733004298"><ele>76.0</ele><time>2026-05-04T14:42:22Z</time></trkpt><trkpt lat="42.00502142969588" lon="19.64854434246111"><ele>79.33333333333333</ele><time>2026-05-04T14:42:23Z</time></trkpt><trkpt lat="42.004878523300796" lon="19.648365067355254"><ele>82.66666666666667</ele><time>2026-05-04T14:42:24Z</time></trkpt><trkpt lat="42.004740877336936" lon="19.648173944060606"><ele>86.0</ele><time>2026-05-04T14:42:25Z</time></trkpt><trkpt lat="42.004616034837206" lon="19.647991127887565"><ele>86.0</ele><time>2026-05-04T14:42:26Z</time></trkpt><trkpt lat="42.00449320375983" lon="19.64781289397023"><ele>86.0</ele><time>2026-05-04T14:42:27Z</time></trkpt><trkpt lat="42.00436469635979" lon="19.64763372090354"><ele>86.0</ele><time>2026-05-04T14:42:28Z</time></trkpt><trkpt lat="42.00423723375162" lon="19.64746783168856"><ele>79.33333333333334</ele><time>2026-05-04T14:42:29Z</time></trkpt><trkpt lat="42.00411257220453" lon="19.647328462358622"><ele>72.66666666666667</ele><time>2026-05-04T14:42:30Z</time></trkpt><trkpt lat="42.00398120915596" lon="19.647231308130635"><ele>66.0</ele><time>2026-05-04T14:42:31Z</time></trkpt><trkpt lat="42.00383815024337" lon="19.647192904669083"><ele>66.0</ele><time>2026-05-04T14:42:32Z</time></trkpt><trkpt lat="42.00367946988022" lon="19.647193258163668"><ele>66.0</ele><time>2026-05-04T14:42:33Z</time></trkpt><trkpt lat="42.00350599885368" lon="19.64720783635856"><ele>66.0</ele><time>2026-05-04T14:42:34Z</time></trkpt><trkpt lat="42.0033256500804" lon="19.647239020444157"><ele>63.66666666666667</ele><time>2026-05-04T14:42:35Z</time></trkpt><trkpt lat="42.00314396850359" lon="19.64729359141341"><ele>61.333333333333336</ele><time>2026-05-04T14:42:36Z</time></trkpt><trkpt lat="42.0029587403914" lon="19.647372140251182"><ele>59.0</ele><time>2026-05-04T14:42:37Z</time></trkpt><trkpt lat="42.00277466731065" lon="19.64746641694096"><ele>59.0</ele><time>2026-05-04T14:42:38Z</time></trkpt><trkpt lat="42.00259061084527" lon="19.647571401497714"><ele>59.0</ele><time>2026-05-04T14:42:39Z</time></trkpt><trkpt lat="42.00240945365549" lon="19.647694198962846"><ele>59.0</ele><time>2026-05-04T14:42:40Z</time></trkpt><trkpt lat="42.002231262183386" lon="19.64783495557131"><ele>60.0</ele><time>2026-05-04T14:42:41Z</time></trkpt><trkpt lat="42.00205514955905" lon="19.64798907370817"><ele>61.0</ele><time>2026-05-04T14:42:42Z</time></trkpt><trkpt lat="42.00187753130187" lon="19.648150189861664"><ele>62.0</ele><time>2026-05-04T14:42:43Z</time></trkpt><trkpt lat="42.00169398430996" lon="19.648314333638492"><ele>62.66666666666667</ele><time>2026-05-04T14:42:44Z</time></trkpt><trkpt lat="42.00151532104276" lon="19.648473644015397"><ele>63.33333333333333</ele><time>2026-05-04T14:42:45Z</time></trkpt><trkpt lat="42.0013349117724" lon="19.64863228513412"><ele>64.0</ele><time>2026-05-04T14:42:46Z</time></trkpt><trkpt lat="42.0011508866104" lon="19.648792240826094"><ele>64.0</ele><time>2026-05-04T14:42:47Z</time></trkpt><trkpt lat="42.000965697620124" lon="19.648951027036524"><ele>64.0</ele><time>2026-05-04T14:42:48Z</time></trkpt><trkpt lat="42.000796182391" lon="19.649105906595743"><ele>64.0</ele><time>2026-05-04T14:42:49Z</time></trkpt><trkpt lat="42.000645597226715" lon="19.64924812388425"><ele>63.0</ele><time>2026-05-04T14:42:50Z</time></trkpt><trkpt lat="42.00050252781067" lon="19.64935374435995"><ele>62.0</ele><time>2026-05-04T14:42:51Z</time></trkpt><trkpt lat="42.000350587284935" lon="19.64941807318267"><ele>61.0</ele><time>2026-05-04T14:42:52Z</time></trkpt><trkpt lat="42.00017920566123" lon="19.64946624695363"><ele>61.0</ele><time>2026-05-04T14:42:53Z</time></trkpt><trkpt lat="41.99999441972322" lon="19.649507297957353"><ele>61.0</ele><time>2026-05-04T14:42:54Z</time></trkpt><trkpt lat="41.9998042230657" lon="19.64954802424748"><ele>61.0</ele><time>2026-05-04T14:42:55Z</time></trkpt><trkpt lat="41.9996129823704" lon="19.649587448797234"><ele>61.0</ele><time>2026-05-04T14:42:56Z</time></trkpt><trkpt lat="41.99942113476079" lon="19.64961221947658"><ele>61.0</ele><time>2026-05-04T14:42:57Z</time></trkpt><trkpt lat="41.99922738194824" lon="19.64960933328616"><ele>61.0</ele><time>2026-05-04T14:42:58Z</time></trkpt><trkpt lat="41.999035756650706" lon="19.649586760912314"><ele>64.0</ele><time>2026-05-04T14:42:59Z</time></trkpt><trkpt lat="41.99883764623707" lon="19.649561855512022"><ele>67.0</ele><time>2026-05-04T14:43:00Z</time></trkpt><trkpt lat="41.99862843522678" lon="19.649549078264055"><ele>70.0</ele><time>2026-05-04T14:43:01Z</time></trkpt><trkpt lat="41.99841578683293" lon="19.649547706883183"><ele>70.33333333333333</ele><time>2026-05-04T14:43:02Z</time></trkpt><trkpt lat="41.998197854575714" lon="19.649553049655175"><ele>70.66666666666667</ele><time>2026-05-04T14:43:03Z</time></trkpt><trkpt lat="41.997976568076886" lon="19.649558303034738"><ele>71.0</ele><time>2026-05-04T14:43:04Z</time></trkpt><trkpt lat="41.997756163334614" lon="19.649562230885152"><ele>71.0</ele><time>2026-05-04T14:43:05Z</time></trkpt><trkpt lat="41.99753337524431" lon="19.64956836553939"><ele>71.0</ele><time>2026-05-04T14:43:06Z</time></trkpt><trkpt lat="41.99730692368486" lon="19.64957741293065"><ele>71.0</ele><time>2026-05-04T14:43:07Z</time></trkpt><trkpt lat="41.99709467688231" lon="19.649567607824668"><ele>69.33333333333334</ele><time>2026-05-04T14:43:08Z</time></trkpt><trkpt lat="41.99688607519873" lon="19.64952033876428"><ele>67.66666666666667</ele><time>2026-05-04T14:43:09Z</time></trkpt><trkpt lat="41.99667582444221" lon="19.649433738249943"><ele>66.0</ele><time>2026-05-04T14:43:10Z</time></trkpt><trkpt lat="41.99646269450048" lon="19.649327531695178"><ele>62.0</ele><time>2026-05-04T14:43:11Z</time></trkpt><trkpt lat="41.996255583944055" lon="19.64923226020859"><ele>58.0</ele><time>2026-05-04T14:43:12Z</time></trkpt><trkpt lat="41.99607523198506" lon="19.64915911043991"><ele>54.0</ele><time>2026-05-04T14:43:13Z</time></trkpt><trkpt lat="41.99593172786482" lon="19.649126750340955"><ele>54.66666666666667</ele><time>2026-05-04T14:43:14Z</time></trkpt><trkpt lat="41.99579448871532" lon="19.6491460187943"><ele>55.333333333333336</ele><time>2026-05-04T14:43:15Z</time></trkpt><trkpt lat="41.99564348276798" lon="19.64921543593352"><ele>56.0</ele><time>2026-05-04T14:43:16Z</time></trkpt><trkpt lat="41.99549171828043" lon="19.649301913848017"><ele>56.0</ele><time>2026-05-04T14:43:17Z</time></trkpt><trkpt lat="41.99532060142295" lon="19.64938394674952"><ele>56.0</ele><time>2026-05-04T14:43:18Z</time></trkpt><trkpt lat="41.99516394530443" lon="19.64947001769556"><ele>56.0</ele><time>2026-05-04T14:43:19Z</time></trkpt><trkpt lat="41.99503092892528" lon="19.649508904066238"><ele>55.75</ele><time>2026-05-04T14:43:20Z</time></trkpt><trkpt lat="41.99492419931552" lon="19.649483136867993"><ele>55.5</ele><time>2026-05-04T14:43:21Z</time></trkpt><trkpt lat="41.99484059984995" lon="19.649401915227926"><ele>55.25</ele><time>2026-05-04T14:43:22Z</time></trkpt><trkpt lat="41.99474831656259" lon="19.64927753932313"><ele>55.0</ele><time>2026-05-04T14:43:23Z</time></trkpt><trkpt lat="41.994681868945285" lon="19.649101530556234"><ele>55.0</ele><time>2026-05-04T14:43:24Z</time></trkpt><trkpt lat="41.99466132238123" lon="19.64892042966517"><ele>55.0</ele><time>2026-05-04T14:43:25Z</time></trkpt><trkpt lat="41.99467921091131" lon="19.648746800426057"><ele>55.0</ele><time>2026-05-04T14:43:26Z</time></trkpt><trkpt lat="41.994691163938484" lon="19.648578543636415"><ele>55.0</ele><time>2026-05-04T14:43:27Z</time></trkpt><trkpt lat="41.99464446835812" lon="19.648411388673207"><ele>53.0</ele><time>2026-05-04T14:43:28Z</time></trkpt><trkpt lat="41.99454539334215" lon="19.64825484962362"><ele>51.0</ele><time>2026-05-04T14:43:29Z</time></trkpt><trkpt lat="41.99440918288205" lon="19.64812622477211"><ele>49.0</ele><time>2026-05-04T14:43:30Z</time></trkpt><trkpt lat="41.9942361491193" lon="19.648009144981454"><ele>48.666666666666664</ele><time>2026-05-04T14:43:31Z</time></trkpt><trkpt lat="41.9940494385235" lon="19.647879243429475"><ele>48.33333333333333</ele><time>2026-05-04T14:43:32Z</time></trkpt><trkpt lat="41.99385890805948" lon="19.647735607811114"><ele>48.0</ele><time>2026-05-04T14:43:33Z</time></trkpt><trkpt lat="41.99367369928156" lon="19.647589899069107"><ele>48.0</ele><time>2026-05-04T14:43:34Z</time></trkpt><trkpt lat="41.993478955242225" lon="19.647433035969406"><ele>48.0</ele><time>2026-05-04T14:43:35Z</time></trkpt><trkpt lat="41.99328621115544" lon="19.647268306856724"><ele>46.5</ele><time>2026-05-04T14:43:36Z</time></trkpt><trkpt lat="41.993106588449564" lon="19.64708676535107"><ele>45.0</ele><time>2026-05-04T14:43:37Z</time></trkpt><trkpt lat="41.99294211444875" lon="19.64687192927645"><ele>45.0</ele><time>2026-05-04T14:43:38Z</time></trkpt><trkpt lat="41.99278765708687" lon="19.646644864804248"><ele>45.0</ele><time>2026-05-04T14:43:39Z</time></trkpt><trkpt lat="41.992630824390666" lon="19.64641680216823"><ele>46.5</ele><time>2026-05-04T14:43:40Z</time></trkpt><trkpt lat="41.99246873025007" lon="19.646198850664877"><ele>48.0</ele><time>2026-05-04T14:43:41Z</time></trkpt><trkpt lat="41.99230542463033" lon="19.645979661212657"><ele>48.0</ele><time>2026-05-04T14:43:42Z</time></trkpt><trkpt lat="41.99213932133137" lon="19.64575939031991"><ele>48.0</ele><time>2026-05-04T14:43:43Z</time></trkpt><trkpt lat="41.99196810346995" lon="19.645544073085524"><ele>48.0</ele><time>2026-05-04T14:43:44Z</time></trkpt><trkpt lat="41.991779678657444" lon="19.645352036601746"><ele>48.0</ele><time>2026-05-04T14:43:45Z</time></trkpt><trkpt lat="41.99158235813879" lon="19.645172181395374"><ele>49.0</ele><time>2026-05-04T14:43:46Z</time></trkpt><trkpt lat="41.99140316356611" lon="19.644996616224276"><ele>50.0</ele><time>2026-05-04T14:43:47Z</time></trkpt><trkpt lat="41.991223781527175" lon="19.64483813577517"><ele>51.0</ele><time>2026-05-04T14:43:48Z</time></trkpt><trkpt lat="41.99105581863677" lon="19.644686814486942"><ele>51.0</ele><time>2026-05-04T14:43:49Z</time></trkpt><trkpt lat="41.99088760244757" lon="19.644540921870057"><ele>51.0</ele><time>2026-05-04T14:43:49.999Z</time></trkpt><trkpt lat="41.990718585109114" lon="19.64443779678046"><ele>51.0</ele><time>2026-05-04T14:43:50.999Z</time></trkpt><trkpt lat="41.99054137624929" lon="19.64437906853793"><ele>45.333333333333336</ele><time>2026-05-04T14:43:51.999Z</time></trkpt><trkpt lat="41.99036169396891" lon="19.644339140705043"><ele>39.66666666666667</ele><time>2026-05-04T14:43:52.999Z</time></trkpt><trkpt lat="41.99019083799954" lon="19.64432280772331"><ele>34.0</ele><time>2026-05-04T14:43:53.999Z</time></trkpt><trkpt lat="41.990021046183735" lon="19.644338450656505"><ele>34.0</ele><time>2026-05-04T14:43:54.999Z</time></trkpt><trkpt lat="41.98985700628746" lon="19.644388798478737"><ele>34.0</ele><time>2026-05-04T14:43:55.999Z</time></trkpt><trkpt lat="41.98971388093444" lon="19.64447451910009"><ele>34.0</ele><time>2026-05-04T14:43:56.999Z</time></trkpt><trkpt lat="41.98958949204119" lon="19.644620724696473"><ele>42.333333333333336</ele><time>2026-05-04T14:43:57.999Z</time></trkpt><trkpt lat="41.98947676204409" lon="19.644816179986947"><ele>50.66666666666667</ele><time>2026-05-04T14:43:58.999Z</time></trkpt><trkpt lat="41.98935706080755" lon="19.645037117438005"><ele>59.0</ele><time>2026-05-04T14:43:59.999Z</time></trkpt><trkpt lat="41.98921401297034" lon="19.64524774793475"><ele>53.333333333333336</ele><time>2026-05-04T14:44:00.999Z</time></trkpt><trkpt lat="41.989061945219234" lon="19.645412799850625"><ele>47.66666666666667</ele><time>2026-05-04T14:44:01.999Z</time></trkpt><trkpt lat="41.988903536464655" lon="19.645472850245465"><ele>42.0</ele><time>2026-05-04T14:44:02.999Z</time></trkpt><trkpt lat="41.98873841374802" lon="19.645469434624548"><ele>42.0</ele><time>2026-05-04T14:44:03.999Z</time></trkpt><trkpt lat="41.98856573924769" lon="19.64540918753675"><ele>42.0</ele><time>2026-05-04T14:44:04.999Z</time></trkpt><trkpt lat="41.98837396871321" lon="19.64533179524443"><ele>42.0</ele><time>2026-05-04T14:44:05.999Z</time></trkpt><trkpt lat="41.98817339979248" lon="19.645255926102866"><ele>39.0</ele><time>2026-05-04T14:44:06.999Z</time></trkpt><trkpt lat="41.98798746776" lon="19.64517384002295"><ele>36.0</ele><time>2026-05-04T14:44:07.999Z</time></trkpt><trkpt lat="41.987845562712835" lon="19.645052409409313"><ele>33.0</ele><time>2026-05-04T14:44:08.999Z</time></trkpt><trkpt lat="41.987747862137034" lon="19.644876542026143"><ele>33.0</ele><time>2026-05-04T14:44:10Z</time></trkpt><trkpt lat="41.98767303163586" lon="19.644660130190292"><ele>33.0</ele><time>2026-05-04T14:44:11Z</time></trkpt><trkpt lat="41.98762024817073" lon="19.644421728824778"><ele>33.0</ele><time>2026-05-04T14:44:12Z</time></trkpt><trkpt lat="41.987603058481476" lon="19.64416579677859"><ele>31.666666666666664</ele><time>2026-05-04T14:44:13Z</time></trkpt><trkpt lat="41.987627639085176" lon="19.64391607188298"><ele>30.333333333333332</ele><time>2026-05-04T14:44:14Z</time></trkpt><trkpt lat="41.987649969005815" lon="19.64369933627686"><ele>29.0</ele><time>2026-05-04T14:44:15Z</time></trkpt><trkpt lat="41.987642620539326" lon="19.643506499037052"><ele>29.0</ele><time>2026-05-04T14:44:16Z</time></trkpt><trkpt lat="41.98759677628086" lon="19.643344285401522"><ele>29.0</ele><time>2026-05-04T14:44:17Z</time></trkpt><trkpt lat="41.987513971943436" lon="19.643216865910016"><ele>29.0</ele><time>2026-05-04T14:44:18Z</time></trkpt><trkpt lat="41.98741134533739" lon="19.643117940907818"><ele>29.0</ele><time>2026-05-04T14:44:19Z</time></trkpt><trkpt lat="41.98728931016792" lon="19.64305208877712"><ele>32.33333333333333</ele><time>2026-05-04T14:44:20Z</time></trkpt><trkpt lat="41.98714488300605" lon="19.6430256640633"><ele>35.666666666666664</ele><time>2026-05-04T14:44:21Z</time></trkpt><trkpt lat="41.98698718573969" lon="19.64305245294559"><ele>39.0</ele><time>2026-05-04T14:44:22Z</time></trkpt><trkpt lat="41.986816684654336" lon="19.643122112537963"><ele>39.333333333333336</ele><time>2026-05-04T14:44:23Z</time></trkpt><trkpt lat="41.98662828223368" lon="19.643207794703194"><ele>39.66666666666667</ele><time>2026-05-04T14:44:24Z</time></trkpt><trkpt lat="41.98643450031282" lon="19.643282114159884"><ele>40.0</ele><time>2026-05-04T14:44:25Z</time></trkpt><trkpt lat="41.986228637702325" lon="19.64335488102475"><ele>40.0</ele><time>2026-05-04T14:44:26Z</time></trkpt><trkpt lat="41.98601181194271" lon="19.64342406032693"><ele>40.0</ele><time>2026-05-04T14:44:27Z</time></trkpt><trkpt lat="41.98579260170695" lon="19.64349151381891"><ele>40.0</ele><time>2026-05-04T14:44:28Z</time></trkpt><trkpt lat="41.98559725035152" lon="19.643564354657084"><ele>44.333333333333336</ele><time>2026-05-04T14:44:29Z</time></trkpt><trkpt lat="41.985432578941285" lon="19.643650460454904"><ele>48.66666666666667</ele><time>2026-05-04T14:44:30Z</time></trkpt><trkpt lat="41.98528641976974" lon="19.64376708030009"><ele>53.0</ele><time>2026-05-04T14:44:31Z</time></trkpt><trkpt lat="41.985152044668304" lon="19.64394190454814"><ele>53.0</ele><time>2026-05-04T14:44:32Z</time></trkpt><trkpt lat="41.985022101245704" lon="19.64415048676474"><ele>53.0</ele><time>2026-05-04T14:44:33Z</time></trkpt><trkpt lat="41.98488222177094" lon="19.64435381106357"><ele>53.0</ele><time>2026-05-04T14:44:34Z</time></trkpt><trkpt lat="41.98471830819267" lon="19.644516228425445"><ele>54.0</ele><time>2026-05-04T14:44:35Z</time></trkpt><trkpt lat="41.984549303149024" lon="19.64460132382397"><ele>55.0</ele><time>2026-05-04T14:44:36Z</time></trkpt><trkpt lat="41.98436862260162" lon="19.64463693944"><ele>56.0</ele><time>2026-05-04T14:44:37Z</time></trkpt><trkpt lat="41.984184642607566" lon="19.644645839004152"><ele>56.0</ele><time>2026-05-04T14:44:38Z</time></trkpt><trkpt lat="41.98400510854493" lon="19.644619988399036"><ele>56.0</ele><time>2026-05-04T14:44:39Z</time></trkpt><trkpt lat="41.98384402263127" lon="19.644552477080136"><ele>56.0</ele><time>2026-05-04T14:44:40Z</time></trkpt><trkpt lat="41.98370134490489" lon="19.644419856738082"><ele>53.333333333333336</ele><time>2026-05-04T14:44:41Z</time></trkpt><trkpt lat="41.98357195974702" lon="19.644245051558915"><ele>50.66666666666667</ele><time>2026-05-04T14:44:42Z</time></trkpt><trkpt lat="41.983444501745474" lon="19.644080645448373"><ele>48.0</ele><time>2026-05-04T14:44:43Z</time></trkpt><trkpt lat="41.983315230814334" lon="19.643964765093088"><ele>48.0</ele><time>2026-05-04T14:44:44Z</time></trkpt><trkpt lat="41.983187977250054" lon="19.643894545983155"><ele>48.0</ele><time>2026-05-04T14:44:45Z</time></trkpt><trkpt lat="41.983059680669456" lon="19.643879462872768"><ele>48.0</ele><time>2026-05-04T14:44:46Z</time></trkpt><trkpt lat="41.98292447796872" lon="19.6439156369932"><ele>48.0</ele><time>2026-05-04T14:44:47Z</time></trkpt><trkpt lat="41.982795065721845" lon="19.64400076020227"><ele>48.0</ele><time>2026-05-04T14:44:48Z</time></trkpt><trkpt lat="41.982668054923636" lon="19.64413366682411"><ele>48.0</ele><time>2026-05-04T14:44:49Z</time></trkpt><trkpt lat="41.98254363601062" lon="19.644303336270397"><ele>48.0</ele><time>2026-05-04T14:44:50Z</time></trkpt><trkpt lat="41.982446840217115" lon="19.64449259796064"><ele>48.0</ele><time>2026-05-04T14:44:51Z</time></trkpt><trkpt lat="41.98238299869438" lon="19.644715345856767"><ele>48.0</ele><time>2026-05-04T14:44:52Z</time></trkpt><trkpt lat="41.98234738103854" lon="19.644966064104846"><ele>48.0</ele><time>2026-05-04T14:44:53Z</time></trkpt><trkpt lat="41.98234511506292" lon="19.645237035779402"><ele>46.666666666666664</ele><time>2026-05-04T14:44:54Z</time></trkpt><trkpt lat="41.982365598747855" lon="19.64552699748071"><ele>45.33333333333333</ele><time>2026-05-04T14:44:55Z</time></trkpt><trkpt lat="41.982376531381874" lon="19.645804001609513"><ele>44.0</ele><time>2026-05-04T14:44:56Z</time></trkpt><trkpt lat="41.98235508472026" lon="19.64603247669095"><ele>42.0</ele><time>2026-05-04T14:44:57Z</time></trkpt><trkpt lat="41.98229212219723" lon="19.646220257609766"><ele>40.0</ele><time>2026-05-04T14:44:58Z</time></trkpt><trkpt lat="41.9821852617477" lon="19.646365797129935"><ele>38.0</ele><time>2026-05-04T14:44:59Z</time></trkpt><trkpt lat="41.982032712401924" lon="19.64650120422787"><ele>38.0</ele><time>2026-05-04T14:45:00Z</time></trkpt><trkpt lat="41.981859554245474" lon="19.646640463404232"><ele>38.0</ele><time>2026-05-04T14:45:01Z</time></trkpt><trkpt lat="41.981678596879725" lon="19.646801654360594"><ele>38.0</ele><time>2026-05-04T14:45:02Z</time></trkpt><trkpt lat="41.9815151923764" lon="19.646934251539427"><ele>43.0</ele><time>2026-05-04T14:45:03Z</time></trkpt><trkpt lat="41.981373623075946" lon="19.646999063236795"><ele>48.0</ele><time>2026-05-04T14:45:04Z</time></trkpt><trkpt lat="41.98123183581944" lon="19.647006895647475"><ele>53.0</ele><time>2026-05-04T14:45:05Z</time></trkpt><trkpt lat="41.98107592575705" lon="19.646962424858128"><ele>48.0</ele><time>2026-05-04T14:45:06Z</time></trkpt><trkpt lat="41.98092641218585" lon="19.646867568957354"><ele>43.0</ele><time>2026-05-04T14:45:07Z</time></trkpt><trkpt lat="41.9808133584561" lon="19.646722912171583"><ele>38.0</ele><time>2026-05-04T14:45:08Z</time></trkpt><trkpt lat="41.98072542247172" lon="19.6465313868136"><ele>38.0</ele><time>2026-05-04T14:45:09Z</time></trkpt><trkpt lat="41.98066988598475" lon="19.646293046289326"><ele>38.0</ele><time>2026-05-04T14:45:10Z</time></trkpt><trkpt lat="41.98059974510346" lon="19.64602876664389"><ele>38.0</ele><time>2026-05-04T14:45:11Z</time></trkpt><trkpt lat="41.98049566528109" lon="19.645799623770632"><ele>36.0</ele><time>2026-05-04T14:45:12Z</time></trkpt><trkpt lat="41.98036940057274" lon="19.645634936616148"><ele>34.0</ele><time>2026-05-04T14:45:13Z</time></trkpt><trkpt lat="41.98023246242681" lon="19.64551280578855"><ele>32.0</ele><time>2026-05-04T14:45:14Z</time></trkpt><trkpt lat="41.98008437058004" lon="19.645421410389208"><ele>31.666666666666664</ele><time>2026-05-04T14:45:15Z</time></trkpt><trkpt lat="41.97991682946029" lon="19.645353097989624"><ele>31.333333333333336</ele><time>2026-05-04T14:45:16Z</time></trkpt><trkpt lat="41.97973125191438" lon="19.645307530179668"><ele>31.0</ele><time>2026-05-04T14:45:17Z</time></trkpt><trkpt lat="41.979533904401926" lon="19.645290957995066"><ele>31.0</ele><time>2026-05-04T14:45:18Z</time></trkpt><trkpt lat="41.97933394038284" lon="19.64527992923096"><ele>31.0</ele><time>2026-05-04T14:45:19Z</time></trkpt><trkpt lat="41.97913576958668" lon="19.645264619178132"><ele>31.0</ele><time>2026-05-04T14:45:20Z</time></trkpt><trkpt lat="41.978944403198156" lon="19.64524422427302"><ele>29.333333333333336</ele><time>2026-05-04T14:45:21Z</time></trkpt><trkpt lat="41.9787580105286" lon="19.645225833858717"><ele>27.666666666666664</ele><time>2026-05-04T14:45:22Z</time></trkpt><trkpt lat="41.97857221846931" lon="19.645211844523907"><ele>26.0</ele><time>2026-05-04T14:45:23Z</time></trkpt><trkpt lat="41.97838701455654" lon="19.645195838382907"><ele>26.5</ele><time>2026-05-04T14:45:24Z</time></trkpt><trkpt lat="41.97821108262362" lon="19.64517711167862"><ele>27.0</ele><time>2026-05-04T14:45:25Z</time></trkpt><trkpt lat="41.9780703196616" lon="19.645165299954268"><ele>27.5</ele><time>2026-05-04T14:45:26Z</time></trkpt><trkpt lat="41.97796456627914" lon="19.645159975399583"><ele>28.0</ele><time>2026-05-04T14:45:27Z</time></trkpt><trkpt lat="41.977881139411444" lon="19.645158237253142"><ele>28.0</ele><time>2026-05-04T14:45:28Z</time></trkpt><trkpt lat="41.97777641470697" lon="19.645148784642547"><ele>27.999999999999996</ele><time>2026-05-04T14:45:30Z</time></trkpt><trkpt lat="41.97770567547637" lon="19.645144749796323"><ele>27.999999999999996</ele><time>2026-05-04T14:45:32Z</time></trkpt><trkpt lat="41.97761566203805" lon="19.645118596605627"><ele>28.0</ele><time>2026-05-04T14:45:50Z</time></trkpt><trkpt lat="41.97750910162684" lon="19.645117216303014"><ele>28.0</ele><time>2026-05-04T14:45:52Z</time></trkpt><trkpt lat="41.977379589248024" lon="19.645095527178594"><ele>28.0</ele><time>2026-05-04T14:45:54Z</time></trkpt><trkpt lat="41.97729704358419" lon="19.64508320606472"><ele>27.999999999999996</ele><time>2026-05-04T14:45:55Z</time></trkpt><trkpt lat="41.97720609881583" lon="19.645068418333857"><ele>27.999999999999996</ele><time>2026-05-04T14:45:56Z</time></trkpt><trkpt lat="41.9771068995152" lon="19.645055184331653"><ele>28.0</ele><time>2026-05-04T14:45:57Z</time></trkpt><trkpt lat="41.97699955905319" lon="19.64504063518417"><ele>28.0</ele><time>2026-05-04T14:45:58Z</time></trkpt><trkpt lat="41.9768816212072" lon="19.645024355648353"><ele>28.0</ele><time>2026-05-04T14:45:59Z</time></trkpt><trkpt lat="41.97674991863684" lon="19.645013167145954"><ele>28.0</ele><time>2026-05-04T14:46:00Z</time></trkpt><trkpt lat="41.97660689622554" lon="19.64500164130641"><ele>28.0</ele><time>2026-05-04T14:46:01Z</time></trkpt><trkpt lat="41.97645326246059" lon="19.64498758211042"><ele>28.0</ele><time>2026-05-04T14:46:02Z</time></trkpt><trkpt lat="41.97629135097679" lon="19.644972745074373"><ele>28.0</ele><time>2026-05-04T14:46:03Z</time></trkpt><trkpt lat="41.976125576837994" lon="19.64495350795582"><ele>28.0</ele><time>2026-05-04T14:46:04Z</time></trkpt><trkpt lat="41.975948401169916" lon="19.644934643454125"><ele>28.0</ele><time>2026-05-04T14:46:05Z</time></trkpt><trkpt lat="41.9757606338108" lon="19.644914461284337"><ele>28.0</ele><time>2026-05-04T14:46:06Z</time></trkpt><trkpt lat="41.97556991671603" lon="19.644893554036756"><ele>28.0</ele><time>2026-05-04T14:46:07Z</time></trkpt><trkpt lat="41.97537379824765" lon="19.64487288883404"><ele>28.0</ele><time>2026-05-04T14:46:08Z</time></trkpt><trkpt lat="41.975167725063734" lon="19.644853876511224"><ele>28.0</ele><time>2026-05-04T14:46:09Z</time></trkpt><trkpt lat="41.974951724123784" lon="19.644833652324056"><ele>28.0</ele><time>2026-05-04T14:46:10Z</time></trkpt><trkpt lat="41.97473062357784" lon="19.644812747779195"><ele>28.0</ele><time>2026-05-04T14:46:11Z</time></trkpt><trkpt lat="41.974506127838424" lon="19.644791339880154"><ele>28.0</ele><time>2026-05-04T14:46:12Z</time></trkpt><trkpt lat="41.97428638055111" lon="19.64477233934829"><ele>28.0</ele><time>2026-05-04T14:46:13Z</time></trkpt><trkpt lat="41.97408906265525" lon="19.644748378044437"><ele>28.0</ele><time>2026-05-04T14:46:14Z</time></trkpt><trkpt lat="41.9739076270156" lon="19.644692473753164"><ele>28.666666666666668</ele><time>2026-05-04T14:46:15Z</time></trkpt><trkpt lat="41.97376603714331" lon="19.64458612724878"><ele>29.333333333333336</ele><time>2026-05-04T14:46:16.001Z</time></trkpt><trkpt lat="41.97364000878979" lon="19.644431839609386"><ele>30.0</ele><time>2026-05-04T14:46:17.001Z</time></trkpt><trkpt lat="41.97352067238504" lon="19.6442389254078"><ele>31.0</ele><time>2026-05-04T14:46:18.001Z</time></trkpt><trkpt lat="41.97338893147527" lon="19.644033500379255"><ele>32.0</ele><time>2026-05-04T14:46:19.001Z</time></trkpt><trkpt lat="41.973239953877865" lon="19.64382179174291"><ele>33.0</ele><time>2026-05-04T14:46:20.001Z</time></trkpt><trkpt lat="41.97307484227286" lon="19.643599071190177"><ele>33.0</ele><time>2026-05-04T14:46:21.001Z</time></trkpt><trkpt lat="41.97289369804323" lon="19.643367391732312"><ele>33.0</ele><time>2026-05-04T14:46:22.001Z</time></trkpt><trkpt lat="41.97271153220382" lon="19.643148507134406"><ele>33.0</ele><time>2026-05-04T14:46:23.001Z</time></trkpt><trkpt lat="41.972534988422154" lon="19.64292899243399"><ele>33.0</ele><time>2026-05-04T14:46:24.001Z</time></trkpt><trkpt lat="41.972359895093334" lon="19.64270344258108"><ele>34.666666666666664</ele><time>2026-05-04T14:46:25.001Z</time></trkpt><trkpt lat="41.97219834897611" lon="19.642481787082108"><ele>36.33333333333333</ele><time>2026-05-04T14:46:26.001Z</time></trkpt><trkpt lat="41.97204323052454" lon="19.642276060294993"><ele>38.0</ele><time>2026-05-04T14:46:27.001Z</time></trkpt><trkpt lat="41.971898268868095" lon="19.642081057624317"><ele>37.0</ele><time>2026-05-04T14:46:28.001Z</time></trkpt><trkpt lat="41.9717447831361" lon="19.64192413855037"><ele>36.0</ele><time>2026-05-04T14:46:29.001Z</time></trkpt><trkpt lat="41.971597901998315" lon="19.641801318887747"><ele>35.0</ele><time>2026-05-04T14:46:30.001Z</time></trkpt><trkpt lat="41.971473056330964" lon="19.641693306493703"><ele>35.0</ele><time>2026-05-04T14:46:31.001Z</time></trkpt><trkpt lat="41.971352491296194" lon="19.64162284176029"><ele>35.0</ele><time>2026-05-04T14:46:32.001Z</time></trkpt><trkpt lat="41.97121541414335" lon="19.64160273168955"><ele>35.0</ele><time>2026-05-04T14:46:33.001Z</time></trkpt><trkpt lat="41.97106009442107" lon="19.64163055209817"><ele>35.0</ele><time>2026-05-04T14:46:34.001Z</time></trkpt><trkpt lat="41.97088596451229" lon="19.64168891203069"><ele>36.666666666666664</ele><time>2026-05-04T14:46:35.001Z</time></trkpt><trkpt lat="41.970690778738074" lon="19.641707302003393"><ele>38.333333333333336</ele><time>2026-05-04T14:46:36.001Z</time></trkpt><trkpt lat="41.97048750897246" lon="19.641697131714718"><ele>40.0</ele><time>2026-05-04T14:46:37.001Z</time></trkpt><trkpt lat="41.9702672937512" lon="19.641653405967215"><ele>40.0</ele><time>2026-05-04T14:46:38.001Z</time></trkpt><trkpt lat="41.97003958013737" lon="19.64156780866782"><ele>40.0</ele><time>2026-05-04T14:46:39Z</time></trkpt><trkpt lat="41.969800082830815" lon="19.641450078063446"><ele>42.333333333333336</ele><time>2026-05-04T14:46:40Z</time></trkpt><trkpt lat="41.96957601939192" lon="19.64133148553332"><ele>44.666666666666664</ele><time>2026-05-04T14:46:41Z</time></trkpt><trkpt lat="41.969411132305815" lon="19.641240262531518"><ele>47.0</ele><time>2026-05-04T14:46:42Z</time></trkpt><trkpt lat="41.969279271314484" lon="19.641200396022914"><ele>47.25</ele><time>2026-05-04T14:46:43Z</time></trkpt><trkpt lat="41.96914747878866" lon="19.64119799407266"><ele>47.5</ele><time>2026-05-04T14:46:44Z</time></trkpt><trkpt lat="41.96901350797664" lon="19.64125529898808"><ele>47.75</ele><time>2026-05-04T14:46:45Z</time></trkpt><trkpt lat="41.96887068594224" lon="19.64137513006789"><ele>48.0</ele><time>2026-05-04T14:46:46Z</time></trkpt><trkpt lat="41.9687148059071" lon="19.64152144435383"><ele>48.0</ele><time>2026-05-04T14:46:47Z</time></trkpt><trkpt lat="41.96854017692377" lon="19.64167183122748"><ele>48.0</ele><time>2026-05-04T14:46:48Z</time></trkpt><trkpt lat="41.96835858737607" lon="19.641825020445065"><ele>48.0</ele><time>2026-05-04T14:46:49Z</time></trkpt><trkpt lat="41.96818587279085" lon="19.641954104525144"><ele>50.0</ele><time>2026-05-04T14:46:50Z</time></trkpt><trkpt lat="41.9680338592402" lon="19.642044721646695"><ele>52.0</ele><time>2026-05-04T14:46:50.999Z</time></trkpt><trkpt lat="41.967899942752204" lon="19.642095025835783"><ele>54.0</ele><time>2026-05-04T14:46:51.999Z</time></trkpt><trkpt lat="41.967773531941624" lon="19.642096390523438"><ele>56.0</ele><time>2026-05-04T14:46:52.999Z</time></trkpt><trkpt lat="41.96763650795272" lon="19.64204197271529"><ele>52.66666666666667</ele><time>2026-05-04T14:46:53.999Z</time></trkpt><trkpt lat="41.96747495920314" lon="19.641929775804172"><ele>49.333333333333336</ele><time>2026-05-04T14:46:54.999Z</time></trkpt><trkpt lat="41.967307918674415" lon="19.64179258319221"><ele>46.0</ele><time>2026-05-04T14:46:55.999Z</time></trkpt><trkpt lat="41.967143809694846" lon="19.641672867669755"><ele>46.0</ele><time>2026-05-04T14:46:56.999Z</time></trkpt><trkpt lat="41.96699012466402" lon="19.64160478644104"><ele>46.0</ele><time>2026-05-04T14:46:57.999Z</time></trkpt><trkpt lat="41.96684423960743" lon="19.641619650212537"><ele>46.0</ele><time>2026-05-04T14:46:58.999Z</time></trkpt><trkpt lat="41.96670387020841" lon="19.641702866263838"><ele>47.0</ele><time>2026-05-04T14:46:59.999Z</time></trkpt><trkpt lat="41.96655190911524" lon="19.641831767978534"><ele>48.0</ele><time>2026-05-04T14:47:00.999Z</time></trkpt><trkpt lat="41.96639643590119" lon="19.64199377560273"><ele>49.0</ele><time>2026-05-04T14:47:01.999Z</time></trkpt><trkpt lat="41.96624152292152" lon="19.642166955020027"><ele>50.0</ele><time>2026-05-04T14:47:02.999Z</time></trkpt><trkpt lat="41.966070890058276" lon="19.642340586527073"><ele>51.0</ele><time>2026-05-04T14:47:03.999Z</time></trkpt><trkpt lat="41.9658805334738" lon="19.6424857631232"><ele>52.0</ele><time>2026-05-04T14:47:04.999Z</time></trkpt><trkpt lat="41.96567530168261" lon="19.642600257664352"><ele>52.0</ele><time>2026-05-04T14:47:05.999Z</time></trkpt><trkpt lat="41.965475368696794" lon="19.6426794809945"><ele>52.0</ele><time>2026-05-04T14:47:06.999Z</time></trkpt><trkpt lat="41.965299697469284" lon="19.642756833287944"><ele>52.0</ele><time>2026-05-04T14:47:07.999Z</time></trkpt><trkpt lat="41.965147794820204" lon="19.642890701602102"><ele>51.0</ele><time>2026-05-04T14:47:08.999Z</time></trkpt><trkpt lat="41.965010451858696" lon="19.643074023075854"><ele>50.0</ele><time>2026-05-04T14:47:09.999Z</time></trkpt><trkpt lat="41.96487664921079" lon="19.643228027919264"><ele>49.0</ele><time>2026-05-04T14:47:10.999Z</time></trkpt><trkpt lat="41.96472191875967" lon="19.64331871739549"><ele>49.0</ele><time>2026-05-04T14:47:11.999Z</time></trkpt><trkpt lat="41.96454902389697" lon="19.643350384260557"><ele>49.0</ele><time>2026-05-04T14:47:12.999Z</time></trkpt><trkpt lat="41.96435253846267" lon="19.643351530606594"><ele>49.0</ele><time>2026-05-04T14:47:13.999Z</time></trkpt><trkpt lat="41.964148605541126" lon="19.643354490038032"><ele>47.33333333333333</ele><time>2026-05-04T14:47:14.999Z</time></trkpt><trkpt lat="41.96394876059143" lon="19.643367823918588"><ele>45.666666666666664</ele><time>2026-05-04T14:47:15.999Z</time></trkpt><trkpt lat="41.963767735025755" lon="19.64338715235328"><ele>44.0</ele><time>2026-05-04T14:47:16.999Z</time></trkpt><trkpt lat="41.96360942053482" lon="19.64337985593527"><ele>44.0</ele><time>2026-05-04T14:47:17.999Z</time></trkpt><trkpt lat="41.963466680593434" lon="19.643334919974983"><ele>44.0</ele><time>2026-05-04T14:47:18.999Z</time></trkpt><trkpt lat="41.963317223990146" lon="19.64326928444074"><ele>44.0</ele><time>2026-05-04T14:47:19.999Z</time></trkpt><trkpt lat="41.963166554830636" lon="19.64319082282949"><ele>45.666666666666664</ele><time>2026-05-04T14:47:20.999Z</time></trkpt><trkpt lat="41.9630220828934" lon="19.6431126642836"><ele>47.33333333333333</ele><time>2026-05-04T14:47:21.999Z</time></trkpt><trkpt lat="41.962876382994246" lon="19.643040242496433"><ele>49.0</ele><time>2026-05-04T14:47:22.999Z</time></trkpt><trkpt lat="41.96272890909239" lon="19.642966287713474"><ele>49.0</ele><time>2026-05-04T14:47:23.999Z</time></trkpt><trkpt lat="41.96259330113697" lon="19.642863161393553"><ele>49.0</ele><time>2026-05-04T14:47:24.999Z</time></trkpt><trkpt lat="41.96247103979593" lon="19.64271631439053"><ele>49.0</ele><time>2026-05-04T14:47:25.999Z</time></trkpt><trkpt lat="41.96235028699445" lon="19.642547058308683"><ele>51.0</ele><time>2026-05-04T14:47:26.999Z</time></trkpt><trkpt lat="41.96222088607622" lon="19.64237914788139"><ele>53.0</ele><time>2026-05-04T14:47:27.999Z</time></trkpt><trkpt lat="41.962097396283156" lon="19.642211951662294"><ele>55.0</ele><time>2026-05-04T14:47:28.999Z</time></trkpt><trkpt lat="41.96200099808786" lon="19.64204653467072"><ele>52.666666666666664</ele><time>2026-05-04T14:47:29.999Z</time></trkpt><trkpt lat="41.96194373082714" lon="19.64187337824774"><ele>50.33333333333333</ele><time>2026-05-04T14:47:30.999Z</time></trkpt><trkpt lat="41.96193136227479" lon="19.64167338595951"><ele>48.0</ele><time>2026-05-04T14:47:31.999Z</time></trkpt><trkpt lat="41.96193597166074" lon="19.64144783614106"><ele>48.0</ele><time>2026-05-04T14:47:32.999Z</time></trkpt><trkpt lat="41.96193367808098" lon="19.64121551353447"><ele>48.0</ele><time>2026-05-04T14:47:33.999Z</time></trkpt><trkpt lat="41.96190688500932" lon="19.64099570631074"><ele>48.0</ele><time>2026-05-04T14:47:34.999Z</time></trkpt><trkpt lat="41.96185967174792" lon="19.640810114865474"><ele>46.5</ele><time>2026-05-04T14:47:35.999Z</time></trkpt><trkpt lat="41.96178589712779" lon="19.640661558278282"><ele>45.0</ele><time>2026-05-04T14:47:36.999Z</time></trkpt><trkpt lat="41.96168089152555" lon="19.640554025505764"><ele>43.5</ele><time>2026-05-04T14:47:37.999Z</time></trkpt><trkpt lat="41.96154947828529" lon="19.640463883053883"><ele>42.0</ele><time>2026-05-04T14:47:38.999Z</time></trkpt><trkpt lat="41.96139351179542" lon="19.640409674022294"><ele>46.33333333333333</ele><time>2026-05-04T14:47:39.999Z</time></trkpt><trkpt lat="41.961230122127176" lon="19.640392842899395"><ele>50.666666666666664</ele><time>2026-05-04T14:47:40.999Z</time></trkpt><trkpt lat="41.961064256756885" lon="19.640424204806386"><ele>55.0</ele><time>2026-05-04T14:47:41.999Z</time></trkpt><trkpt lat="41.960888084943804" lon="19.640497816998227"><ele>57.33333333333333</ele><time>2026-05-04T14:47:42.999Z</time></trkpt><trkpt lat="41.96069408528185" lon="19.640576614736734"><ele>59.66666666666667</ele><time>2026-05-04T14:47:43.999Z</time></trkpt><trkpt lat="41.96048527115061" lon="19.64062735046912"><ele>62.0</ele><time>2026-05-04T14:47:44.999Z</time></trkpt><trkpt lat="41.96025033853436" lon="19.64064194764263"><ele>64.0</ele><time>2026-05-04T14:47:45.999Z</time></trkpt><trkpt lat="41.96000930377045" lon="19.640627087031685"><ele>66.0</ele><time>2026-05-04T14:47:46.999Z</time></trkpt><trkpt lat="41.95976811133666" lon="19.64061954932383"><ele>66.0</ele><time>2026-05-04T14:47:47.999Z</time></trkpt><trkpt lat="41.95953310096354" lon="19.64062738747523"><ele>66.0</ele><time>2026-05-04T14:47:48.999Z</time></trkpt><trkpt lat="41.95934416581598" lon="19.640612370070652"><ele>66.0</ele><time>2026-05-04T14:47:49.999Z</time></trkpt><trkpt lat="41.959194301990635" lon="19.64056262730923"><ele>66.0</ele><time>2026-05-04T14:47:50.999Z</time></trkpt><trkpt lat="41.959038299465234" lon="19.64048290978955"><ele>66.0</ele><time>2026-05-04T14:47:51.999Z</time></trkpt><trkpt lat="41.9588918432154" lon="19.640391856796807"><ele>66.0</ele><time>2026-05-04T14:47:52.999Z</time></trkpt><trkpt lat="41.95876790069273" lon="19.64028128732952"><ele>64.0</ele><time>2026-05-04T14:47:53.999Z</time></trkpt><trkpt lat="41.9586706841135" lon="19.640136520539926"><ele>62.0</ele><time>2026-05-04T14:47:54.999Z</time></trkpt><trkpt lat="41.95860641693146" lon="19.639968636278933"><ele>60.0</ele><time>2026-05-04T14:47:55.999Z</time></trkpt><trkpt lat="41.95858990768656" lon="19.63977826375468"><ele>58.0</ele><time>2026-05-04T14:47:56.999Z</time></trkpt><trkpt lat="41.95862891230694" lon="19.63958126943072"><ele>57.75</ele><time>2026-05-04T14:47:57.999Z</time></trkpt><trkpt lat="41.95867947753823" lon="19.63939611321753"><ele>57.5</ele><time>2026-05-04T14:47:58.999Z</time></trkpt><trkpt lat="41.958679165373994" lon="19.639226694177108"><ele>57.25</ele><time>2026-05-04T14:47:59.999Z</time></trkpt><trkpt lat="41.95862236477545" lon="19.63906835840238"><ele>57.0</ele><time>2026-05-04T14:48:00.999Z</time></trkpt><trkpt lat="41.95851872127177" lon="19.638925396725302"><ele>57.0</ele><time>2026-05-04T14:48:01.999Z</time></trkpt><trkpt lat="41.958386111789466" lon="19.638808859281497"><ele>57.0</ele><time>2026-05-04T14:48:02.999Z</time></trkpt><trkpt lat="41.958249179443605" lon="19.63872756721868"><ele>57.0</ele><time>2026-05-04T14:48:03.999Z</time></trkpt><trkpt lat="41.95812274821592" lon="19.638696404353944"><ele>57.0</ele><time>2026-05-04T14:48:04.999Z</time></trkpt><trkpt lat="41.95798768456097" lon="19.638707276336902"><ele>59.66666666666667</ele><time>2026-05-04T14:48:05.999Z</time></trkpt><trkpt lat="41.95784391251498" lon="19.638771576916348"><ele>62.333333333333336</ele><time>2026-05-04T14:48:06.999Z</time></trkpt><trkpt lat="41.95770417703816" lon="19.638878192597964"><ele>65.0</ele><time>2026-05-04T14:48:07.999Z</time></trkpt><trkpt lat="41.95757605576685" lon="19.639033265012255"><ele>63.66666666666667</ele><time>2026-05-04T14:48:08.999Z</time></trkpt><trkpt lat="41.957456050999895" lon="19.63923923501249"><ele>62.33333333333333</ele><time>2026-05-04T14:48:09.999Z</time></trkpt><trkpt lat="41.95731947496246" lon="19.63945806135931"><ele>61.0</ele><time>2026-05-04T14:48:10.999Z</time></trkpt><trkpt lat="41.95718025552909" lon="19.639617384006026"><ele>62.25</ele><time>2026-05-04T14:48:11.999Z</time></trkpt><trkpt lat="41.95704182799506" lon="19.639705994494065"><ele>63.5</ele><time>2026-05-04T14:48:12.999Z</time></trkpt><trkpt lat="41.956902475507974" lon="19.639737732675297"><ele>64.75</ele><time>2026-05-04T14:48:13.999Z</time></trkpt><trkpt lat="41.956752000078886" lon="19.63971083654408"><ele>66.0</ele><time>2026-05-04T14:48:14.999Z</time></trkpt><trkpt lat="41.956575487200475" lon="19.639669519395387"><ele>66.0</ele><time>2026-05-04T14:48:15.999Z</time></trkpt><trkpt lat="41.956392501095934" lon="19.639616073110858"><ele>66.0</ele><time>2026-05-04T14:48:16.999Z</time></trkpt><trkpt lat="41.9562382158659" lon="19.639524959875963"><ele>66.0</ele><time>2026-05-04T14:48:17.999Z</time></trkpt><trkpt lat="41.956108502181635" lon="19.639370657442406"><ele>65.66666666666667</ele><time>2026-05-04T14:48:18.999Z</time></trkpt><trkpt lat="41.95597773190976" lon="19.63921230942562"><ele>65.33333333333334</ele><time>2026-05-04T14:48:19.999Z</time></trkpt><trkpt lat="41.95584597932109" lon="19.639053879473195"><ele>65.0</ele><time>2026-05-04T14:48:20.999Z</time></trkpt><trkpt lat="41.95570687328191" lon="19.63891903736892"><ele>65.0</ele><time>2026-05-04T14:48:22Z</time></trkpt><trkpt lat="41.955548556389765" lon="19.638817619639166"><ele>65.0</ele><time>2026-05-04T14:48:23Z</time></trkpt><trkpt lat="41.955395462342516" lon="19.63875908570897"><ele>65.0</ele><time>2026-05-04T14:48:24Z</time></trkpt><trkpt lat="41.95526723585716" lon="19.638764040504615"><ele>65.0</ele><time>2026-05-04T14:48:25Z</time></trkpt><trkpt lat="41.95514089306262" lon="19.63882311036708"><ele>65.0</ele><time>2026-05-04T14:48:26Z</time></trkpt><trkpt lat="41.95501001558811" lon="19.638941758685647"><ele>65.0</ele><time>2026-05-04T14:48:27Z</time></trkpt><trkpt lat="41.954862197663424" lon="19.639106540327063"><ele>64.66666666666667</ele><time>2026-05-04T14:48:28Z</time></trkpt><trkpt lat="41.95468875028805" lon="19.639233939440665"><ele>64.33333333333333</ele><time>2026-05-04T14:48:29Z</time></trkpt><trkpt lat="41.95448959489508" lon="19.639290637773623"><ele>64.0</ele><time>2026-05-04T14:48:30Z</time></trkpt><trkpt lat="41.954260404508474" lon="19.639299497033054"><ele>61.5</ele><time>2026-05-04T14:48:31Z</time></trkpt><trkpt lat="41.95401582789075" lon="19.639296478934998"><ele>59.0</ele><time>2026-05-04T14:48:32Z</time></trkpt><trkpt lat="41.953781375773005" lon="19.639310618991978"><ele>59.0</ele><time>2026-05-04T14:48:33Z</time></trkpt><trkpt lat="41.95358923738183" lon="19.639352802047316"><ele>59.0</ele><time>2026-05-04T14:48:34Z</time></trkpt><trkpt lat="41.953433854874355" lon="19.639447394537772"><ele>59.0</ele><time>2026-05-04T14:48:35Z</time></trkpt><trkpt lat="41.95327560650242" lon="19.639605098366857"><ele>61.0</ele><time>2026-05-04T14:48:36Z</time></trkpt><trkpt lat="41.953098300446975" lon="19.639768611667904"><ele>63.0</ele><time>2026-05-04T14:48:37Z</time></trkpt><trkpt lat="41.95289768640958" lon="19.639883338642782"><ele>65.0</ele><time>2026-05-04T14:48:38Z</time></trkpt><trkpt lat="41.952681654627966" lon="19.63995006913889"><ele>65.0</ele><time>2026-05-04T14:48:39Z</time></trkpt><trkpt lat="41.952457671912974" lon="19.63998827772403"><ele>65.0</ele><time>2026-05-04T14:48:40Z</time></trkpt><trkpt lat="41.95221857133455" lon="19.640026947171787"><ele>65.0</ele><time>2026-05-04T14:48:41Z</time></trkpt><trkpt lat="41.95197839582133" lon="19.64006880583211"><ele>65.0</ele><time>2026-05-04T14:48:42Z</time></trkpt><trkpt lat="41.95175886023748" lon="19.64009575117759"><ele>61.333333333333336</ele><time>2026-05-04T14:48:43Z</time></trkpt><trkpt lat="41.95155905873969" lon="19.640070730461996"><ele>57.66666666666667</ele><time>2026-05-04T14:48:44Z</time></trkpt><trkpt lat="41.951399546972105" lon="19.639980469976805"><ele>54.0</ele><time>2026-05-04T14:48:45Z</time></trkpt><trkpt lat="41.9512586966979" lon="19.639832165805945"><ele>54.0</ele><time>2026-05-04T14:48:46Z</time></trkpt><trkpt lat="41.95112101539658" lon="19.639633465900847"><ele>54.0</ele><time>2026-05-04T14:48:47Z</time></trkpt><trkpt lat="41.95098652659028" lon="19.63940427425851"><ele>54.0</ele><time>2026-05-04T14:48:48Z</time></trkpt><trkpt lat="41.950869956087054" lon="19.63917338758158"><ele>54.66666666666667</ele><time>2026-05-04T14:48:49Z</time></trkpt><trkpt lat="41.950778905623665" lon="19.638944085974376"><ele>55.333333333333336</ele><time>2026-05-04T14:48:50Z</time></trkpt><trkpt lat="41.950707635146216" lon="19.638691823672033"><ele>56.0</ele><time>2026-05-04T14:48:51Z</time></trkpt><trkpt lat="41.950650794396516" lon="19.638422378697264"><ele>53.66666666666667</ele><time>2026-05-04T14:48:52Z</time></trkpt><trkpt lat="41.95059742621623" lon="19.63818693112916"><ele>51.33333333333333</ele><time>2026-05-04T14:48:53Z</time></trkpt><trkpt lat="41.9505282814608" lon="19.637986383608332"><ele>49.0</ele><time>2026-05-04T14:48:54Z</time></trkpt><trkpt lat="41.95043173656958" lon="19.63781678214082"><ele>48.0</ele><time>2026-05-04T14:48:55Z</time></trkpt><trkpt lat="41.950304427357494" lon="19.637657335829395"><ele>47.0</ele><time>2026-05-04T14:48:56Z</time></trkpt><trkpt lat="41.95015588858188" lon="19.63749770166445"><ele>46.0</ele><time>2026-05-04T14:48:57Z</time></trkpt><trkpt lat="41.94999687163219" lon="19.637357158707367"><ele>49.66666666666667</ele><time>2026-05-04T14:48:58Z</time></trkpt><trkpt lat="41.949829040640644" lon="19.63725209795248"><ele>53.333333333333336</ele><time>2026-05-04T14:48:59Z</time></trkpt><trkpt lat="41.949664412782504" lon="19.637197515593176"><ele>57.0</ele><time>2026-05-04T14:49:00Z</time></trkpt><trkpt lat="41.94952794599855" lon="19.637202745870127"><ele>57.0</ele><time>2026-05-04T14:49:01Z</time></trkpt><trkpt lat="41.94941990188283" lon="19.637250886993204"><ele>57.0</ele><time>2026-05-04T14:49:02Z</time></trkpt><trkpt lat="41.949326850060686" lon="19.63734054562187"><ele>57.0</ele><time>2026-05-04T14:49:03Z</time></trkpt><trkpt lat="41.949222521204284" lon="19.63746957843844"><ele>57.0</ele><time>2026-05-04T14:49:04Z</time></trkpt><trkpt lat="41.949091592214586" lon="19.63761787284642"><ele>57.0</ele><time>2026-05-04T14:49:05Z</time></trkpt><trkpt lat="41.94893587267331" lon="19.637780270819288"><ele>57.0</ele><time>2026-05-04T14:49:06Z</time></trkpt><trkpt lat="41.9487847624577" lon="19.637960367234054"><ele>57.0</ele><time>2026-05-04T14:49:07Z</time></trkpt><trkpt lat="41.94864998411921" lon="19.638180375906458"><ele>57.66666666666667</ele><time>2026-05-04T14:49:08Z</time></trkpt><trkpt lat="41.948509726006705" lon="19.63840739958737"><ele>58.333333333333336</ele><time>2026-05-04T14:49:09Z</time></trkpt><trkpt lat="41.94837401185025" lon="19.6386428450921"><ele>59.0</ele><time>2026-05-04T14:49:10Z</time></trkpt><trkpt lat="41.948243725274665" lon="19.638891926707"><ele>59.0</ele><time>2026-05-04T14:49:11Z</time></trkpt><trkpt lat="41.94812586476417" lon="19.63908689302342"><ele>59.0</ele><time>2026-05-04T14:49:12Z</time></trkpt><trkpt lat="41.94801183016386" lon="19.639215802052163"><ele>59.0</ele><time>2026-05-04T14:49:13Z</time></trkpt><trkpt lat="41.94787060332846" lon="19.639303151136428"><ele>59.0</ele><time>2026-05-04T14:49:14Z</time></trkpt><trkpt lat="41.947686596041486" lon="19.639385441322016"><ele>59.0</ele><time>2026-05-04T14:49:15Z</time></trkpt><trkpt lat="41.947490003628346" lon="19.63948150406331"><ele>59.0</ele><time>2026-05-04T14:49:16Z</time></trkpt><trkpt lat="41.94728814402045" lon="19.63958561479302"><ele>59.0</ele><time>2026-05-04T14:49:17Z</time></trkpt><trkpt lat="41.947080274509744" lon="19.639687044662182"><ele>59.0</ele><time>2026-05-04T14:49:18Z</time></trkpt><trkpt lat="41.946873304646324" lon="19.639785137830295"><ele>59.0</ele><time>2026-05-04T14:49:19Z</time></trkpt><trkpt lat="41.94667381195607" lon="19.63989258251572"><ele>59.0</ele><time>2026-05-04T14:49:20Z</time></trkpt><trkpt lat="41.94649097983746" lon="19.63999794319363"><ele>59.0</ele><time>2026-05-04T14:49:21Z</time></trkpt><trkpt lat="41.94631616350892" lon="19.640097472639617"><ele>59.0</ele><time>2026-05-04T14:49:22Z</time></trkpt><trkpt lat="41.946154884953735" lon="19.640197741443437"><ele>57.66666666666667</ele><time>2026-05-04T14:49:23Z</time></trkpt><trkpt lat="41.94601294100511" lon="19.640338178165674"><ele>56.33333333333333</ele><time>2026-05-04T14:49:24Z</time></trkpt><trkpt lat="41.94588780420209" lon="19.64052195504524"><ele>55.0</ele><time>2026-05-04T14:49:25Z</time></trkpt><trkpt lat="41.94576727445953" lon="19.640727703552425"><ele>55.0</ele><time>2026-05-04T14:49:26Z</time></trkpt><trkpt lat="41.94563511584707" lon="19.640935265846256"><ele>55.0</ele><time>2026-05-04T14:49:27Z</time></trkpt><trkpt lat="41.94548095872695" lon="19.641122855323967"><ele>55.0</ele><time>2026-05-04T14:49:28Z</time></trkpt><trkpt lat="41.94531240002877" lon="19.641300475190587"><ele>55.33333333333333</ele><time>2026-05-04T14:49:29Z</time></trkpt><trkpt lat="41.94513498786464" lon="19.641471169069902"><ele>55.66666666666667</ele><time>2026-05-04T14:49:30Z</time></trkpt><trkpt lat="41.94495794343829" lon="19.64163136268504"><ele>56.0</ele><time>2026-05-04T14:49:31Z</time></trkpt><trkpt lat="41.94478243036412" lon="19.64179164051555"><ele>57.333333333333336</ele><time>2026-05-04T14:49:32Z</time></trkpt><trkpt lat="41.9446067886831" lon="19.64195586416499"><ele>58.66666666666667</ele><time>2026-05-04T14:49:33Z</time></trkpt><trkpt lat="41.94444105937634" lon="19.6421196323656"><ele>60.0</ele><time>2026-05-04T14:49:34Z</time></trkpt><trkpt lat="41.94427537999751" lon="19.64230117315075"><ele>59.0</ele><time>2026-05-04T14:49:35Z</time></trkpt><trkpt lat="41.94411162409617" lon="19.642488465577035"><ele>58.0</ele><time>2026-05-04T14:49:36Z</time></trkpt><trkpt lat="41.943934852106736" lon="19.642683394931513"><ele>57.0</ele><time>2026-05-04T14:49:37Z</time></trkpt><trkpt lat="41.9437483402872" lon="19.642880361735862"><ele>57.0</ele><time>2026-05-04T14:49:38Z</time></trkpt><trkpt lat="41.94355807372698" lon="19.643080443160503"><ele>57.0</ele><time>2026-05-04T14:49:39Z</time></trkpt><trkpt lat="41.94336772519682" lon="19.643291488221447"><ele>57.5</ele><time>2026-05-04T14:49:40Z</time></trkpt><trkpt lat="41.94317672934105" lon="19.643508727187104"><ele>58.0</ele><time>2026-05-04T14:49:40.999Z</time></trkpt><trkpt lat="41.942996100897794" lon="19.643718686933543"><ele>58.0</ele><time>2026-05-04T14:49:41.999Z</time></trkpt><trkpt lat="41.94283177998792" lon="19.64389803597928"><ele>58.0</ele><time>2026-05-04T14:49:42.999Z</time></trkpt><trkpt lat="41.94267529167584" lon="19.644037174675532"><ele>58.0</ele><time>2026-05-04T14:49:43.999Z</time></trkpt><trkpt lat="41.94251251517808" lon="19.644139053749587"><ele>58.0</ele><time>2026-05-04T14:49:44.999Z</time></trkpt><trkpt lat="41.94234040172016" lon="19.644191060804353"><ele>58.0</ele><time>2026-05-04T14:49:45.999Z</time></trkpt><trkpt lat="41.94214308498195" lon="19.644200448238973"><ele>58.0</ele><time>2026-05-04T14:49:46.999Z</time></trkpt><trkpt lat="41.941925588037435" lon="19.64419919525027"><ele>56.666666666666664</ele><time>2026-05-04T14:49:47.999Z</time></trkpt><trkpt lat="41.94170129014619" lon="19.64421402086007"><ele>55.33333333333333</ele><time>2026-05-04T14:49:48.999Z</time></trkpt><trkpt lat="41.94150757276344" lon="19.644261282765765"><ele>54.0</ele><time>2026-05-04T14:49:49.999Z</time></trkpt><trkpt lat="41.94136803165984" lon="19.64433621017102"><ele>54.0</ele><time>2026-05-04T14:49:50.999Z</time></trkpt><trkpt lat="41.94128343353042" lon="19.644427306683205"><ele>54.0</ele><time>2026-05-04T14:49:51.999Z</time></trkpt><trkpt lat="41.94123246239738" lon="19.644549667868446"><ele>54.0</ele><time>2026-05-04T14:49:52.999Z</time></trkpt><trkpt lat="41.941193402991466" lon="19.644712782664445"><ele>54.0</ele><time>2026-05-04T14:49:53.999Z</time></trkpt><trkpt lat="41.941159666913954" lon="19.6448866055305"><ele>54.666666666666664</ele><time>2026-05-04T14:49:54.999Z</time></trkpt><trkpt lat="41.94111099239962" lon="19.645017879021605"><ele>55.33333333333333</ele><time>2026-05-04T14:49:55.999Z</time></trkpt><trkpt lat="41.9410439425273" lon="19.645087559089088"><ele>56.0</ele><time>2026-05-04T14:49:56.999Z</time></trkpt><trkpt lat="41.94096780454401" lon="19.645098177403884"><ele>56.666666666666664</ele><time>2026-05-04T14:49:57.999Z</time></trkpt><trkpt lat="41.940898686801496" lon="19.64506213243831"><ele>57.33333333333333</ele><time>2026-05-04T14:49:58.999Z</time></trkpt><trkpt lat="41.94084578705668" lon="19.645005704401232"><ele>58.0</ele><time>2026-05-04T14:49:59.999Z</time></trkpt><trkpt lat="41.940795072155154" lon="19.644944932722883"><ele>58.0</ele><time>2026-05-04T14:50:01.999Z</time></trkpt><trkpt lat="41.94067055796524" lon="19.64489012151398"><ele>58.0</ele><time>2026-05-04T14:50:23.999Z</time></trkpt><trkpt lat="41.94060544048946" lon="19.644864897097865"><ele>58.0</ele><time>2026-05-04T14:50:24.999Z</time></trkpt><trkpt lat="41.94047601565307" lon="19.644832841886238"><ele>58.0</ele><time>2026-05-04T14:50:26.999Z</time></trkpt><trkpt lat="41.94039186175585" lon="19.6448154574794"><ele>58.0</ele><time>2026-05-04T14:50:28Z</time></trkpt><trkpt lat="41.94031285590031" lon="19.644805116954927"><ele>58.0</ele><time>2026-05-04T14:50:29Z</time></trkpt><trkpt lat="41.940238490021876" lon="19.644828904168932"><ele>58.0</ele><time>2026-05-04T14:50:30Z</time></trkpt><trkpt lat="41.94017236096018" lon="19.644899475329655"><ele>58.0</ele><time>2026-05-04T14:50:31Z</time></trkpt><trkpt lat="41.9401073278082" lon="19.645016401181117"><ele>58.0</ele><time>2026-05-04T14:50:32Z</time></trkpt><trkpt lat="41.9400498577806" lon="19.645166203290046"><ele>58.0</ele><time>2026-05-04T14:50:33Z</time></trkpt><trkpt lat="41.94000236245636" lon="19.645334403552514"><ele>57.75</ele><time>2026-05-04T14:50:34Z</time></trkpt><trkpt lat="41.939952694361075" lon="19.645528516453194"><ele>57.5</ele><time>2026-05-04T14:50:35Z</time></trkpt><trkpt lat="41.93991593501109" lon="19.64570520379399"><ele>57.25</ele><time>2026-05-04T14:50:36Z</time></trkpt><trkpt lat="41.93989626185002" lon="19.645880551690233"><ele>57.0</ele><time>2026-05-04T14:50:37Z</time></trkpt><trkpt lat="41.939909044058574" lon="19.64607464759226"><ele>57.0</ele><time>2026-05-04T14:50:38Z</time></trkpt><trkpt lat="41.93994200935965" lon="19.646271447733824"><ele>57.0</ele><time>2026-05-04T14:50:39Z</time></trkpt><trkpt lat="41.93998623081568" lon="19.64641094963569"><ele>57.0</ele><time>2026-05-04T14:50:40Z</time></trkpt><trkpt lat="41.940061411783944" lon="19.646518015916694"><ele>57.0</ele><time>2026-05-04T14:50:41Z</time></trkpt><trkpt lat="41.94018101878324" lon="19.646597794466825"><ele>58.75</ele><time>2026-05-04T14:50:42Z</time></trkpt><trkpt lat="41.9403225988051" lon="19.646657564561373"><ele>60.5</ele><time>2026-05-04T14:50:43Z</time></trkpt><trkpt lat="41.94043267871219" lon="19.646744040953745"><ele>62.25</ele><time>2026-05-04T14:50:44Z</time></trkpt><trkpt lat="41.9404997570628" lon="19.646861105256942"><ele>64.0</ele><time>2026-05-04T14:50:45Z</time></trkpt><trkpt lat="41.940551737901174" lon="19.647013081082832"><ele>64.0</ele><time>2026-05-04T14:50:46Z</time></trkpt><trkpt lat="41.94058189283182" lon="19.647173924176826"><ele>64.0</ele><time>2026-05-04T14:50:47Z</time></trkpt><trkpt lat="41.94057479481579" lon="19.647331252280413"><ele>64.0</ele><time>2026-05-04T14:50:48Z</time></trkpt><trkpt lat="41.94053907959297" lon="19.647483453042433"><ele>64.0</ele><time>2026-05-04T14:50:49Z</time></trkpt><trkpt lat="41.94048817497133" lon="19.647585179867832"><ele>64.0</ele><time>2026-05-04T14:50:50Z</time></trkpt><trkpt lat="41.940423301034365" lon="19.647626704393936"><ele>64.0</ele><time>2026-05-04T14:50:51Z</time></trkpt><trkpt lat="41.940323292651975" lon="19.647632018907952"><ele>64.0</ele><time>2026-05-04T14:50:52Z</time></trkpt><trkpt lat="41.94022205949308" lon="19.647591500840424"><ele>64.0</ele><time>2026-05-04T14:50:53Z</time></trkpt><trkpt lat="41.94014742529594" lon="19.647502198658373"><ele>64.0</ele><time>2026-05-04T14:50:54Z</time></trkpt><trkpt lat="41.94008349686648" lon="19.647391899634247"><ele>64.0</ele><time>2026-05-04T14:50:55Z</time></trkpt><trkpt lat="41.93998315467614" lon="19.647325420418028"><ele>64.0</ele><time>2026-05-04T14:50:56Z</time></trkpt><trkpt lat="41.939845440162394" lon="19.647307889048154"><ele>64.0</ele><time>2026-05-04T14:50:57Z</time></trkpt><trkpt lat="41.93967967488353" lon="19.647299243760827"><ele>64.0</ele><time>2026-05-04T14:50:58Z</time></trkpt><trkpt lat="41.93950109528375" lon="19.647280441771443"><ele>64.0</ele><time>2026-05-04T14:50:59Z</time></trkpt><trkpt lat="41.93933312924827" lon="19.647254001136076"><ele>64.0</ele><time>2026-05-04T14:51:00Z</time></trkpt><trkpt lat="41.93918884461075" lon="19.647199274432246"><ele>64.0</ele><time>2026-05-04T14:51:01Z</time></trkpt><trkpt lat="41.93906999393594" lon="19.64717712259007"><ele>64.0</ele><time>2026-05-04T14:51:02Z</time></trkpt><trkpt lat="41.93897483331098" lon="19.647218129442834"><ele>65.5</ele><time>2026-05-04T14:51:03Z</time></trkpt><trkpt lat="41.9388795935983" lon="19.64732271356108"><ele>67.0</ele><time>2026-05-04T14:51:04Z</time></trkpt><trkpt lat="41.938784220555476" lon="19.64748620494055"><ele>68.5</ele><time>2026-05-04T14:51:05Z</time></trkpt><trkpt lat="41.93870053145237" lon="19.647674162820735"><ele>70.0</ele><time>2026-05-04T14:51:06Z</time></trkpt><trkpt lat="41.93862251635123" lon="19.64786964940869"><ele>72.25</ele><time>2026-05-04T14:51:07Z</time></trkpt><trkpt lat="41.938548849033694" lon="19.64804079511535"><ele>74.5</ele><time>2026-05-04T14:51:08Z</time></trkpt><trkpt lat="41.93846930786957" lon="19.648157661145646"><ele>76.75</ele><time>2026-05-04T14:51:09Z</time></trkpt><trkpt lat="41.9383945119953" lon="19.648217369289803"><ele>79.0</ele><time>2026-05-04T14:51:10Z</time></trkpt><trkpt lat="41.93830432019291" lon="19.648297618851867"><ele>79.0</ele><time>2026-05-04T14:51:11Z</time></trkpt><trkpt lat="41.93817006972792" lon="19.648326216661467"><ele>79.0</ele><time>2026-05-04T14:51:12Z</time></trkpt><trkpt lat="41.938002278365765" lon="19.648349038585412"><ele>79.0</ele><time>2026-05-04T14:51:13Z</time></trkpt><trkpt lat="41.93781381862971" lon="19.6483447900527"><ele>79.0</ele><time>2026-05-04T14:51:14Z</time></trkpt><trkpt lat="41.93763153740729" lon="19.64832186619628"><ele>79.0</ele><time>2026-05-04T14:51:15Z</time></trkpt><trkpt lat="41.93750210610349" lon="19.64830917147113"><ele>79.0</ele><time>2026-05-04T14:51:16Z</time></trkpt><trkpt lat="41.93741128978498" lon="19.648338522551775"><ele>79.0</ele><time>2026-05-04T14:51:17Z</time></trkpt><trkpt lat="41.93730792098388" lon="19.648416433926077"><ele>77.33333333333333</ele><time>2026-05-04T14:51:18Z</time></trkpt><trkpt lat="41.93722701407054" lon="19.648553195692628"><ele>75.66666666666667</ele><time>2026-05-04T14:51:19Z</time></trkpt><trkpt lat="41.93715484963848" lon="19.648741588760082"><ele>74.0</ele><time>2026-05-04T14:51:20Z</time></trkpt><trkpt lat="41.9370828370371" lon="19.648963272650754"><ele>79.0</ele><time>2026-05-04T14:51:21Z</time></trkpt><trkpt lat="41.936988824784265" lon="19.64913357405966"><ele>84.0</ele><time>2026-05-04T14:51:22Z</time></trkpt><trkpt lat="41.93687005780707" lon="19.649254753071965"><ele>89.0</ele><time>2026-05-04T14:51:23Z</time></trkpt><trkpt lat="41.93672554329644" lon="19.64935783588667"><ele>89.0</ele><time>2026-05-04T14:51:24Z</time></trkpt><trkpt lat="41.936559501862725" lon="19.649436755193587"><ele>89.0</ele><time>2026-05-04T14:51:25Z</time></trkpt><trkpt lat="41.936380840938675" lon="19.649493062498635"><ele>89.0</ele><time>2026-05-04T14:51:26Z</time></trkpt><trkpt lat="41.93618289492521" lon="19.64955299725468"><ele>89.0</ele><time>2026-05-04T14:51:27Z</time></trkpt><trkpt lat="41.93597785478746" lon="19.649625239140256"><ele>89.0</ele><time>2026-05-04T14:51:28Z</time></trkpt><trkpt lat="41.93577430385059" lon="19.64971493299"><ele>89.0</ele><time>2026-05-04T14:51:29Z</time></trkpt><trkpt lat="41.93555783118505" lon="19.649811068962677"><ele>87.0</ele><time>2026-05-04T14:51:30Z</time></trkpt><trkpt lat="41.935346797657544" lon="19.64990516488204"><ele>85.0</ele><time>2026-05-04T14:51:31Z</time></trkpt><trkpt lat="41.93518110516312" lon="19.6499801509669"><ele>83.0</ele><time>2026-05-04T14:51:32Z</time></trkpt><trkpt lat="41.93506117971531" lon="19.650046988056204"><ele>83.66666666666667</ele><time>2026-05-04T14:51:33Z</time></trkpt><trkpt lat="41.934971748535105" lon="19.650176882166715"><ele>84.33333333333333</ele><time>2026-05-04T14:51:34Z</time></trkpt><trkpt lat="41.934895987360726" lon="19.650382903315172"><ele>85.0</ele><time>2026-05-04T14:51:35Z</time></trkpt><trkpt lat="41.93480467976366" lon="19.65062462326393"><ele>85.0</ele><time>2026-05-04T14:51:36Z</time></trkpt><trkpt lat="41.93467034896744" lon="19.65086208478846"><ele>85.0</ele><time>2026-05-04T14:51:37Z</time></trkpt><trkpt lat="41.93450458976276" lon="19.651058005890686"><ele>85.0</ele><time>2026-05-04T14:51:38Z</time></trkpt><trkpt lat="41.93435098655719" lon="19.651197283783116"><ele>82.66666666666666</ele><time>2026-05-04T14:51:39Z</time></trkpt><trkpt lat="41.934234944204775" lon="19.651361721143918"><ele>80.33333333333333</ele><time>2026-05-04T14:51:40Z</time></trkpt><trkpt lat="41.93415990493983" lon="19.651576623207827"><ele>78.0</ele><time>2026-05-04T14:51:41Z</time></trkpt><trkpt lat="41.93409426463054" lon="19.65178047037584"><ele>78.0</ele><time>2026-05-04T14:51:42Z</time></trkpt><trkpt lat="41.934014119451604" lon="19.651900427182422"><ele>78.0</ele><time>2026-05-04T14:51:43Z</time></trkpt><trkpt lat="41.93388752664897" lon="19.65196525927076"><ele>78.0</ele><time>2026-05-04T14:51:44Z</time></trkpt><trkpt lat="41.9337564346388" lon="19.65195547560137"><ele>78.0</ele><time>2026-05-04T14:51:45Z</time></trkpt><trkpt lat="41.93359772609448" lon="19.65191228380592"><ele>78.0</ele><time>2026-05-04T14:51:46Z</time></trkpt><trkpt lat="41.93342706079074" lon="19.651827063918955"><ele>78.0</ele><time>2026-05-04T14:51:47Z</time></trkpt><trkpt lat="41.93324654002574" lon="19.65171555222014"><ele>78.0</ele><time>2026-05-04T14:51:48Z</time></trkpt><trkpt lat="41.933045620031066" lon="19.651596051257194"><ele>77.5</ele><time>2026-05-04T14:51:49Z</time></trkpt><trkpt lat="41.93282377590588" lon="19.651484296675644"><ele>77.0</ele><time>2026-05-04T14:51:50Z</time></trkpt><trkpt lat="41.932599464205396" lon="19.65136952757532"><ele>78.33333333333334</ele><time>2026-05-04T14:51:51Z</time></trkpt><trkpt lat="41.93241393728171" lon="19.651251686957004"><ele>79.66666666666667</ele><time>2026-05-04T14:51:52Z</time></trkpt><trkpt lat="41.932270476768544" lon="19.651104500345756"><ele>81.0</ele><time>2026-05-04T14:51:53Z</time></trkpt><trkpt lat="41.93214335217454" lon="19.650912037405753"><ele>75.0</ele><time>2026-05-04T14:51:54Z</time></trkpt><trkpt lat="41.93203206564501" lon="19.650667025287035"><ele>69.0</ele><time>2026-05-04T14:51:55Z</time></trkpt><trkpt lat="41.93192556904267" lon="19.650397632764733"><ele>63.0</ele><time>2026-05-04T14:51:56Z</time></trkpt><trkpt lat="41.931810223137205" lon="19.65013591639334"><ele>63.66666666666667</ele><time>2026-05-04T14:51:57Z</time></trkpt><trkpt lat="41.93169545080936" lon="19.64991807428112"><ele>64.33333333333334</ele><time>2026-05-04T14:51:58Z</time></trkpt><trkpt lat="41.931575987480436" lon="19.649749872859175"><ele>65.0</ele><time>2026-05-04T14:51:59Z</time></trkpt><trkpt lat="41.931467298593034" lon="19.649638013758878"><ele>65.0</ele><time>2026-05-04T14:52:00Z</time></trkpt><trkpt lat="41.93136545869973" lon="19.64958008369126"><ele>65.0</ele><time>2026-05-04T14:52:01Z</time></trkpt><trkpt lat="41.93125653538604" lon="19.649581858543424"><ele>65.0</ele><time>2026-05-04T14:52:02Z</time></trkpt><trkpt lat="41.93113195462321" lon="19.64964011062371"><ele>65.0</ele><time>2026-05-04T14:52:03Z</time></trkpt><trkpt lat="41.9310100459446" lon="19.64974220525878"><ele>65.0</ele><time>2026-05-04T14:52:04Z</time></trkpt><trkpt lat="41.93092788094432" lon="19.649882309768458"><ele>65.0</ele><time>2026-05-04T14:52:05Z</time></trkpt><trkpt lat="41.93088563962965" lon="19.65005960012375"><ele>65.0</ele><time>2026-05-04T14:52:06Z</time></trkpt><trkpt lat="41.930866733770266" lon="19.650278469272568"><ele>65.0</ele><time>2026-05-04T14:52:07Z</time></trkpt><trkpt lat="41.93083483873846" lon="19.65052299491257"><ele>63.333333333333336</ele><time>2026-05-04T14:52:08Z</time></trkpt><trkpt lat="41.93077452266559" lon="19.650759110730707"><ele>61.66666666666667</ele><time>2026-05-04T14:52:09Z</time></trkpt><trkpt lat="41.930702893698964" lon="19.65099911375147"><ele>60.0</ele><time>2026-05-04T14:52:10Z</time></trkpt><trkpt lat="41.93062868997428" lon="19.651233552565145"><ele>60.0</ele><time>2026-05-04T14:52:11Z</time></trkpt><trkpt lat="41.93055530070426" lon="19.65144842564096"><ele>60.0</ele><time>2026-05-04T14:52:12Z</time></trkpt><trkpt lat="41.93048297080235" lon="19.65164272745217"><ele>60.0</ele><time>2026-05-04T14:52:13Z</time></trkpt><trkpt lat="41.93041178778014" lon="19.651825649868314"><ele>59.0</ele><time>2026-05-04T14:52:14Z</time></trkpt><trkpt lat="41.93033581834446" lon="19.65199625974622"><ele>58.0</ele><time>2026-05-04T14:52:15Z</time></trkpt><trkpt lat="41.93024871347177" lon="19.652153111125138"><ele>57.0</ele><time>2026-05-04T14:52:16Z</time></trkpt><trkpt lat="41.93014667083119" lon="19.652300272076154"><ele>56.0</ele><time>2026-05-04T14:52:17Z</time></trkpt><trkpt lat="41.93002908251834" lon="19.652434252724905"><ele>54.4</ele><time>2026-05-04T14:52:18Z</time></trkpt><trkpt lat="41.92991199940069" lon="19.65254646398258"><ele>52.8</ele><time>2026-05-04T14:52:19Z</time></trkpt><trkpt lat="41.92980897900372" lon="19.65264287739811"><ele>51.199999999999996</ele><time>2026-05-04T14:52:20Z</time></trkpt><trkpt lat="41.92973231854175" lon="19.652720120995536"><ele>49.599999999999994</ele><time>2026-05-04T14:52:21Z</time></trkpt><trkpt lat="41.92968412662854" lon="19.65278203358055"><ele>48.0</ele><time>2026-05-04T14:52:22Z</time></trkpt><trkpt lat="41.92964265940362" lon="19.652869717898085"><ele>48.0</ele><time>2026-05-04T14:52:23.999Z</time></trkpt><trkpt lat="41.92959597385004" lon="19.65301707153136"><ele>48.0</ele><time>2026-05-04T14:53:00Z</time></trkpt><trkpt lat="41.929569148614185" lon="19.653111655475474"><ele>48.0</ele><time>2026-05-04T14:53:01Z</time></trkpt><trkpt lat="41.92954809973082" lon="19.6532323224503"><ele>48.0</ele><time>2026-05-04T14:53:02Z</time></trkpt><trkpt lat="41.92953124128146" lon="19.65335715190194"><ele>48.0</ele><time>2026-05-04T14:53:03Z</time></trkpt><trkpt lat="41.92951496998579" lon="19.653486158137312"><ele>48.0</ele><time>2026-05-04T14:53:04Z</time></trkpt><trkpt lat="41.92949927543077" lon="19.653621385405184"><ele>48.0</ele><time>2026-05-04T14:53:05Z</time></trkpt><trkpt lat="41.929483659016064" lon="19.653761639872727"><ele>48.0</ele><time>2026-05-04T14:53:06Z</time></trkpt><trkpt lat="41.92946780723787" lon="19.653912663234482"><ele>48.0</ele><time>2026-05-04T14:53:07Z</time></trkpt><trkpt lat="41.929449811832285" lon="19.654074951786576"><ele>48.0</ele><time>2026-05-04T14:53:08Z</time></trkpt><trkpt lat="41.92942436569144" lon="19.65424434889325"><ele>49.5</ele><time>2026-05-04T14:53:09Z</time></trkpt><trkpt lat="41.929393838479086" lon="19.65442565830628"><ele>51.0</ele><time>2026-05-04T14:53:10Z</time></trkpt><trkpt lat="41.92936651275457" lon="19.654617802786426"><ele>52.5</ele><time>2026-05-04T14:53:11Z</time></trkpt><trkpt lat="41.929341016451886" lon="19.65482529056018"><ele>54.0</ele><time>2026-05-04T14:53:12Z</time></trkpt><trkpt lat="41.92931633694407" lon="19.655031922886426"><ele>54.25</ele><time>2026-05-04T14:53:13Z</time></trkpt><trkpt lat="41.92929196175304" lon="19.65522981841161"><ele>54.5</ele><time>2026-05-04T14:53:14Z</time></trkpt><trkpt lat="41.92926273061826" lon="19.65540465546809"><ele>54.75</ele><time>2026-05-04T14:53:15Z</time></trkpt><trkpt lat="41.92923519229995" lon="19.655560178282457"><ele>55.0</ele><time>2026-05-04T14:53:16Z</time></trkpt><trkpt lat="41.92920456896499" lon="19.65569079357084"><ele>54.99999999999999</ele><time>2026-05-04T14:53:17Z</time></trkpt><trkpt lat="41.929186469449355" lon="19.655803728041008"><ele>55.0</ele><time>2026-05-04T14:53:18Z</time></trkpt><trkpt lat="41.92919049277643" lon="19.65588949137967"><ele>55.0</ele><time>2026-05-04T14:53:19Z</time></trkpt><trkpt lat="41.92919334158446" lon="19.655995168836217"><ele>55.0</ele><time>2026-05-04T14:53:21Z</time></trkpt><trkpt lat="41.92922519222972" lon="19.656077625481682"><ele>55.0</ele><time>2026-05-04T14:54:05Z</time></trkpt><trkpt lat="41.929244830914364" lon="19.656158149703657"><ele>54.99999999999999</ele><time>2026-05-04T14:54:06Z</time></trkpt><trkpt lat="41.9292589649169" lon="19.656268182810756"><ele>55.0</ele><time>2026-05-04T14:54:07Z</time></trkpt><trkpt lat="41.929281816015674" lon="19.65636730963387"><ele>57.8</ele><time>2026-05-04T14:54:08Z</time></trkpt><trkpt lat="41.92931169741383" lon="19.656528195585107"><ele>60.6</ele><time>2026-05-04T14:54:09Z</time></trkpt><trkpt lat="41.929340962474235" lon="19.656647866831317"><ele>63.400000000000006</ele><time>2026-05-04T14:54:10Z</time></trkpt><trkpt lat="41.929375487809324" lon="19.65673402726341"><ele>66.2</ele><time>2026-05-04T14:54:11Z</time></trkpt><trkpt lat="41.92944981408406" lon="19.656626710863094"><ele>69.0</ele><time>2026-05-04T14:54:14Z</time></trkpt><trkpt lat="41.92947160647984" lon="19.656510723571415"><ele>69.0</ele><time>2026-05-04T14:54:15Z</time></trkpt><trkpt lat="41.92951858688859" lon="19.65642722741499"><ele>69.0</ele><time>2026-05-04T14:54:16Z</time></trkpt><trkpt lat="41.92964270548897" lon="19.65645148539182"><ele>69.0</ele><time>2026-05-04T14:54:18Z</time></trkpt><trkpt lat="41.929693790573126" lon="19.65651742622933"><ele>69.0</ele><time>2026-05-04T14:54:19Z</time></trkpt><trkpt lat="41.92975487282283" lon="19.65660437431928"><ele>69.0</ele><time>2026-05-04T14:54:20Z</time></trkpt><trkpt lat="41.9298394009878" lon="19.656682387966363"><ele>69.0</ele><time>2026-05-04T14:54:21Z</time></trkpt><trkpt lat="41.92993169081038" lon="19.656730525590437"><ele>69.0</ele><time>2026-05-04T14:54:22Z</time></trkpt><trkpt lat="41.930032471848115" lon="19.656734961401412"><ele>69.0</ele><time>2026-05-04T14:54:23Z</time></trkpt><trkpt lat="41.93011363089014" lon="19.656748589873715"><ele>69.0</ele><time>2026-05-04T14:54:25Z</time></trkpt><trkpt lat="41.93015456642526" lon="19.656820515465522"><ele>69.0</ele><time>2026-05-04T14:54:26Z</time></trkpt><trkpt lat="41.93018434379559" lon="19.65691149435587"><ele>69.0</ele><time>2026-05-04T14:54:27Z</time></trkpt><trkpt lat="41.930213602517945" lon="19.657020181146155"><ele>71.2</ele><time>2026-05-04T14:54:28Z</time></trkpt><trkpt lat="41.930244493375454" lon="19.65713196602487"><ele>73.4</ele><time>2026-05-04T14:54:29Z</time></trkpt><trkpt lat="41.93027617472896" lon="19.657233105995854"><ele>75.6</ele><time>2026-05-04T14:54:30Z</time></trkpt><trkpt lat="41.930331355907754" lon="19.657340941003024"><ele>77.8</ele><time>2026-05-04T14:54:31Z</time></trkpt><trkpt lat="41.930418759642684" lon="19.657455437710656"><ele>80.0</ele><time>2026-05-04T14:54:32Z</time></trkpt><trkpt lat="41.93051696359229" lon="19.65756219923618"><ele>80.0</ele><time>2026-05-04T14:54:33Z</time></trkpt><trkpt lat="41.93062421818659" lon="19.65768279807346"><ele>80.0</ele><time>2026-05-04T14:54:34Z</time></trkpt><trkpt lat="41.930711573129365" lon="19.657812767464588"><ele>80.0</ele><time>2026-05-04T14:54:35Z</time></trkpt><trkpt lat="41.93079320786049" lon="19.657938750566846"><ele>80.0</ele><time>2026-05-04T14:54:36Z</time></trkpt><trkpt lat="41.93087129667685" lon="19.65806627117392"><ele>82.0</ele><time>2026-05-04T14:54:37Z</time></trkpt><trkpt lat="41.930929273997215" lon="19.658204822616234"><ele>84.0</ele><time>2026-05-04T14:54:38Z</time></trkpt><trkpt lat="41.93100617061619" lon="19.658351349570264"><ele>86.0</ele><time>2026-05-04T14:54:39Z</time></trkpt><trkpt lat="41.93111076126299" lon="19.658505764149417"><ele>88.0</ele><time>2026-05-04T14:54:40.001Z</time></trkpt><trkpt lat="41.9312047638374" lon="19.6586712056808"><ele>91.80000000000001</ele><time>2026-05-04T14:54:41.001Z</time></trkpt><trkpt lat="41.93126942163008" lon="19.658813034217616"><ele>95.6</ele><time>2026-05-04T14:54:42.001Z</time></trkpt><trkpt lat="41.9313246658147" lon="19.658922176175157"><ele>99.39999999999999</ele><time>2026-05-04T14:54:43.001Z</time></trkpt><trkpt lat="41.931396127276024" lon="19.658999869276037"><ele>103.19999999999999</ele><time>2026-05-04T14:54:44.001Z</time></trkpt><trkpt lat="41.93148551049257" lon="19.659076891533307"><ele>107.0</ele><time>2026-05-04T14:54:45.001Z</time></trkpt><trkpt lat="41.93157337020292" lon="19.659181258680587"><ele>107.0</ele><time>2026-05-04T14:54:46.001Z</time></trkpt><trkpt lat="41.93164574200918" lon="19.6593038349123"><ele>107.0</ele><time>2026-05-04T14:54:47.001Z</time></trkpt><trkpt lat="41.93169994937102" lon="19.659446273554156"><ele>107.0</ele><time>2026-05-04T14:54:48.001Z</time></trkpt><trkpt lat="41.93174505292132" lon="19.65961186717644"><ele>107.0</ele><time>2026-05-04T14:54:49.001Z</time></trkpt><trkpt lat="41.93179056253513" lon="19.659772156839665"><ele>107.5</ele><time>2026-05-04T14:54:50.001Z</time></trkpt><trkpt lat="41.93184868100353" lon="19.659928083728467"><ele>108.0</ele><time>2026-05-04T14:54:51.001Z</time></trkpt><trkpt lat="41.931921081455904" lon="19.66005887221181"><ele>108.5</ele><time>2026-05-04T14:54:52.001Z</time></trkpt><trkpt lat="41.931963563039446" lon="19.660197108341695"><ele>109.0</ele><time>2026-05-04T14:54:53.001Z</time></trkpt><trkpt lat="41.93199523965444" lon="19.66035987971999"><ele>112.4</ele><time>2026-05-04T14:54:54.001Z</time></trkpt><trkpt lat="41.932039407385176" lon="19.660477833648798"><ele>115.80000000000001</ele><time>2026-05-04T14:54:55.001Z</time></trkpt><trkpt lat="41.9321008084161" lon="19.660569449571412"><ele>119.19999999999999</ele><time>2026-05-04T14:54:56.001Z</time></trkpt><trkpt lat="41.93218955931963" lon="19.66065505407067"><ele>122.6</ele><time>2026-05-04T14:54:57.001Z</time></trkpt><trkpt lat="41.932247605900706" lon="19.660749057086228"><ele>126.0</ele><time>2026-05-04T14:54:58.001Z</time></trkpt><trkpt lat="41.93223469989534" lon="19.6608541723154"><ele>126.0</ele><time>2026-05-04T14:55:00.001Z</time></trkpt><trkpt lat="41.93212644347342" lon="19.660875275548285"><ele>126.0</ele><time>2026-05-04T14:55:02.001Z</time></trkpt><trkpt lat="41.932039918179264" lon="19.660842607724504"><ele>126.0</ele><time>2026-05-04T14:55:03.001Z</time></trkpt><trkpt lat="41.93193800985228" lon="19.66079123874858"><ele>126.0</ele><time>2026-05-04T14:55:04.001Z</time></trkpt><trkpt lat="41.93182403639627" lon="19.660733750402667"><ele>126.0</ele><time>2026-05-04T14:55:05.001Z</time></trkpt><trkpt lat="41.93171506558051" lon="19.660663861290335"><ele>128.6</ele><time>2026-05-04T14:55:06Z</time></trkpt><trkpt lat="41.93159560043095" lon="19.66059510139113"><ele>131.2</ele><time>2026-05-04T14:55:07Z</time></trkpt><trkpt lat="41.931494671329034" lon="19.660588091648904"><ele>133.8</ele><time>2026-05-04T14:55:08Z</time></trkpt><trkpt lat="41.93139600124934" lon="19.660605862540518"><ele>136.4</ele><time>2026-05-04T14:55:09Z</time></trkpt><trkpt lat="41.9313136006083" lon="19.660632446076015"><ele>139.0</ele><time>2026-05-04T14:55:10Z</time></trkpt><trkpt lat="41.93122369426904" lon="19.660629265003788"><ele>139.0</ele><time>2026-05-04T14:55:12Z</time></trkpt><trkpt lat="41.931144857187746" lon="19.660504374312872"><ele>139.0</ele><time>2026-05-04T14:55:13.999Z</time></trkpt><trkpt lat="41.931112640380455" lon="19.660413804597308"><ele>139.0</ele><time>2026-05-04T14:55:14.999Z</time></trkpt><trkpt lat="41.93108680070046" lon="19.660315060574305"><ele>139.0</ele><time>2026-05-04T14:55:15.999Z</time></trkpt><trkpt lat="41.931084294025496" lon="19.660229568022427"><ele>139.0</ele><time>2026-05-04T14:55:16.999Z</time></trkpt><trkpt lat="41.93100606839162" lon="19.66027909520872"><ele>139.0</ele><time>2026-05-04T14:55:24.999Z</time></trkpt><trkpt lat="41.93091628828488" lon="19.660283082753015"><ele>140.33333333333334</ele><time>2026-05-04T14:55:26.999Z</time></trkpt><trkpt lat="41.930842559527264" lon="19.660176487004673"><ele>141.66666666666669</ele><time>2026-05-04T14:55:28.999Z</time></trkpt><trkpt lat="41.930851532452394" lon="19.66004115617446"><ele>143.0</ele><time>2026-05-04T14:55:30.999Z</time></trkpt><trkpt lat="41.930788732738236" lon="19.660076462265284"><ele>144.33333333333334</ele><time>2026-05-04T14:55:33.999Z</time></trkpt><trkpt lat="41.93074690126119" lon="19.66016504739121"><ele>145.66666666666666</ele><time>2026-05-04T14:55:35.999Z</time></trkpt><trkpt lat="41.93067582658442" lon="19.6601591011399"><ele>147.0</ele><time>2026-05-04T14:55:37.999Z</time></trkpt><trkpt lat="41.93069907575485" lon="19.660079091431683"><ele>147.0</ele><time>2026-05-04T14:55:44.999Z</time></trkpt><trkpt lat="41.930699924318944" lon="19.659972208956653"><ele>147.0</ele><time>2026-05-04T14:55:46.999Z</time></trkpt><trkpt lat="41.93057737848126" lon="19.659875039164863"><ele>147.0</ele><time>2026-05-04T14:55:48.999Z</time></trkpt><trkpt lat="41.93049747682639" lon="19.659804438712285"><ele>147.0</ele><time>2026-05-04T14:55:50.999Z</time></trkpt><trkpt lat="41.9304617706331" lon="19.65971638593197"><ele>147.0</ele><time>2026-05-04T14:55:52.999Z</time></trkpt><trkpt lat="41.93038727824938" lon="19.65972330748339"><ele>147.0</ele><time>2026-05-04T14:56:03.999Z</time></trkpt><trkpt lat="41.93046148159224" lon="19.659703055799426"><ele>147.0</ele><time>2026-05-04T14:57:04Z</time></trkpt><trkpt lat="41.930513628598" lon="19.659807802917197"><ele>147.0</ele><time>2026-05-04T14:58:30.999Z</time></trkpt><trkpt lat="41.93059691793244" lon="19.659889705549055"><ele>147.0</ele><time>2026-05-04T14:58:32.999Z</time></trkpt><trkpt lat="41.93067661315744" lon="19.659965133045343"><ele>147.0</ele><time>2026-05-04T14:58:34.999Z</time></trkpt><trkpt lat="41.93073652130806" lon="19.660046173262813"><ele>147.0</ele><time>2026-05-04T14:58:36.999Z</time></trkpt><trkpt lat="41.930695765582925" lon="19.660142194526884"><ele>147.0</ele><time>2026-05-04T14:58:39.999Z</time></trkpt><trkpt lat="41.93077513652281" lon="19.660138682941973"><ele>147.0</ele><time>2026-05-04T14:58:43.999Z</time></trkpt><trkpt lat="41.930833724612086" lon="19.660022251642637"><ele>147.0</ele><time>2026-05-04T14:58:47.999Z</time></trkpt><trkpt lat="41.930878296509306" lon="19.660188741293272"><ele>147.0</ele><time>2026-05-04T14:58:50.999Z</time></trkpt><trkpt lat="41.930902383162824" lon="19.66030124632545"><ele>145.4</ele><time>2026-05-04T14:58:52Z</time></trkpt><trkpt lat="41.93097540427631" lon="19.660314094139807"><ele>143.79999999999998</ele><time>2026-05-04T14:58:54Z</time></trkpt><trkpt lat="41.931059936888545" lon="19.66023065534346"><ele>142.2</ele><time>2026-05-04T14:58:56Z</time></trkpt><trkpt lat="41.931124230880506" lon="19.66023143014173"><ele>140.6</ele><time>2026-05-04T14:59:00Z</time></trkpt><trkpt lat="41.93110987552489" lon="19.660355012459608"><ele>139.0</ele><time>2026-05-04T14:59:02Z</time></trkpt><trkpt lat="41.93114330994245" lon="19.660506709368157"><ele>139.0</ele><time>2026-05-04T14:59:04Z</time></trkpt><trkpt lat="41.93118689987373" lon="19.660577774037517"><ele>139.0</ele><time>2026-05-04T14:59:05Z</time></trkpt><trkpt lat="41.931242923636674" lon="19.660628564647684"><ele>139.0</ele><time>2026-05-04T14:59:06Z</time></trkpt><trkpt lat="41.931308061691084" lon="19.66065569776425"><ele>139.0</ele><time>2026-05-04T14:59:07Z</time></trkpt><trkpt lat="41.93138620825773" lon="19.66065253363301"><ele>139.0</ele><time>2026-05-04T14:59:08Z</time></trkpt><trkpt lat="41.9314853535315" lon="19.66063174386289"><ele>139.0</ele><time>2026-05-04T14:59:09Z</time></trkpt><trkpt lat="41.93158432943849" lon="19.660621203390892"><ele>139.0</ele><time>2026-05-04T14:59:10Z</time></trkpt><trkpt lat="41.93166863570846" lon="19.66061805463239"><ele>139.0</ele><time>2026-05-04T14:59:11Z</time></trkpt><trkpt lat="41.93175148591664" lon="19.660642520306403"><ele>139.0</ele><time>2026-05-04T14:59:12Z</time></trkpt><trkpt lat="41.93184456192013" lon="19.6606954036671"><ele>139.0</ele><time>2026-05-04T14:59:13Z</time></trkpt><trkpt lat="41.93193909946661" lon="19.66075900593706"><ele>139.0</ele><time>2026-05-04T14:59:14Z</time></trkpt><trkpt lat="41.932027206834675" lon="19.660814691921896"><ele>136.4</ele><time>2026-05-04T14:59:15Z</time></trkpt><trkpt lat="41.93210550965392" lon="19.660841049451996"><ele>133.8</ele><time>2026-05-04T14:59:16Z</time></trkpt><trkpt lat="41.932174532280435" lon="19.6608619922418"><ele>131.2</ele><time>2026-05-04T14:59:17Z</time></trkpt><trkpt lat="41.93224969612359" lon="19.66082127128252"><ele>128.6</ele><time>2026-05-04T14:59:19Z</time></trkpt><trkpt lat="41.93223741365564" lon="19.660710984570937"><ele>126.0</ele><time>2026-05-04T14:59:21Z</time></trkpt><trkpt lat="41.93214728259016" lon="19.660556845607626"><ele>126.0</ele><time>2026-05-04T14:59:23Z</time></trkpt><trkpt lat="41.93206944610974" lon="19.66047150847079"><ele>126.0</ele><time>2026-05-04T14:59:24Z</time></trkpt><trkpt lat="41.93200022105565" lon="19.66039524477001"><ele>126.0</ele><time>2026-05-04T14:59:25Z</time></trkpt><trkpt lat="41.931949765549966" lon="19.66031734121889"><ele>126.0</ele><time>2026-05-04T14:59:26Z</time></trkpt><trkpt lat="41.931925363299605" lon="19.6602285932951"><ele>126.0</ele><time>2026-05-04T14:59:27Z</time></trkpt><trkpt lat="41.93190015733067" lon="19.660098690264284"><ele>126.0</ele><time>2026-05-04T14:59:28Z</time></trkpt><trkpt lat="41.93186794683323" lon="19.659975719225393"><ele>125.5</ele><time>2026-05-04T14:59:29Z</time></trkpt><trkpt lat="41.9318241814546" lon="19.65985905720778"><ele>125.0</ele><time>2026-05-04T14:59:30Z</time></trkpt><trkpt lat="41.93177385304947" lon="19.65972335340335"><ele>124.5</ele><time>2026-05-04T14:59:31Z</time></trkpt><trkpt lat="41.9316976323396" lon="19.659590131602055"><ele>124.0</ele><time>2026-05-04T14:59:32Z</time></trkpt><trkpt lat="41.93165690704992" lon="19.659428794579565"><ele>119.75</ele><time>2026-05-04T14:59:33Z</time></trkpt><trkpt lat="41.93161515737412" lon="19.65928127055292"><ele>115.5</ele><time>2026-05-04T14:59:34Z</time></trkpt><trkpt lat="41.93155823739312" lon="19.65917606684749"><ele>111.25</ele><time>2026-05-04T14:59:35Z</time></trkpt><trkpt lat="41.93147144574216" lon="19.659072165710647"><ele>107.0</ele><time>2026-05-04T14:59:36Z</time></trkpt><trkpt lat="41.93137806160255" lon="19.658952830104226"><ele>107.0</ele><time>2026-05-04T14:59:37Z</time></trkpt><trkpt lat="41.93127845131967" lon="19.65884144401539"><ele>107.0</ele><time>2026-05-04T14:59:38Z</time></trkpt><trkpt lat="41.931207130716096" lon="19.658746429514753"><ele>107.0</ele><time>2026-05-04T14:59:39Z</time></trkpt><trkpt lat="41.93113980578134" lon="19.658620975343954"><ele>107.0</ele><time>2026-05-04T14:59:40Z</time></trkpt><trkpt lat="41.93105480571201" lon="19.658459529358122"><ele>107.0</ele><time>2026-05-04T14:59:41Z</time></trkpt><trkpt lat="41.93096468264897" lon="19.658303933433654"><ele>107.0</ele><time>2026-05-04T14:59:42Z</time></trkpt><trkpt lat="41.93087677183" lon="19.658149183439956"><ele>107.0</ele><time>2026-05-04T14:59:43Z</time></trkpt><trkpt lat="41.930795313134546" lon="19.6580031210695"><ele>107.0</ele><time>2026-05-04T14:59:44Z</time></trkpt><trkpt lat="41.93070804181634" lon="19.657855882278955"><ele>98.0</ele><time>2026-05-04T14:59:45Z</time></trkpt><trkpt lat="41.930605313300255" lon="19.657699829321327"><ele>89.0</ele><time>2026-05-04T14:59:46Z</time></trkpt><trkpt lat="41.930491572428025" lon="19.657543378228585"><ele>80.0</ele><time>2026-05-04T14:59:47Z</time></trkpt><trkpt lat="41.93039295305663" lon="19.657403048703316"><ele>80.0</ele><time>2026-05-04T14:59:48Z</time></trkpt><trkpt lat="41.93030494312544" lon="19.65728757406892"><ele>80.0</ele><time>2026-05-04T14:59:49Z</time></trkpt><trkpt lat="41.930238700263104" lon="19.65715812599495"><ele>80.0</ele><time>2026-05-04T14:59:50Z</time></trkpt><trkpt lat="41.93018236084793" lon="19.657029214673745"><ele>80.0</ele><time>2026-05-04T14:59:51Z</time></trkpt><trkpt lat="41.93014453645472" lon="19.65688450174417"><ele>77.8</ele><time>2026-05-04T14:59:52Z</time></trkpt><trkpt lat="41.93011348651423" lon="19.65679005512929"><ele>75.6</ele><time>2026-05-04T14:59:53Z</time></trkpt><trkpt lat="41.930071241502496" lon="19.656716298669664"><ele>73.4</ele><time>2026-05-04T14:59:54Z</time></trkpt><trkpt lat="41.92995466441581" lon="19.656691828491663"><ele>71.2</ele><time>2026-05-04T14:59:56Z</time></trkpt><trkpt lat="41.929867825270414" lon="19.65669933741933"><ele>69.0</ele><time>2026-05-04T14:59:57Z</time></trkpt><trkpt lat="41.92974436002664" lon="19.65665404794107"><ele>69.0</ele><time>2026-05-04T14:59:58Z</time></trkpt><trkpt lat="41.92964746293338" lon="19.656552962829856"><ele>69.0</ele><time>2026-05-04T14:59:59Z</time></trkpt><trkpt lat="41.92956391950784" lon="19.656457529841685"><ele>69.0</ele><time>2026-05-04T15:00:00Z</time></trkpt><trkpt lat="41.92948521837906" lon="19.656448426340514"><ele>69.0</ele><time>2026-05-04T15:00:02Z</time></trkpt><trkpt lat="41.92943393818672" lon="19.656607558267833"><ele>69.0</ele><time>2026-05-04T15:00:04Z</time></trkpt><trkpt lat="41.92940867869461" lon="19.656725686020856"><ele>69.0</ele><time>2026-05-04T15:00:05Z</time></trkpt><trkpt lat="41.9293438956534" lon="19.6567148683"><ele>69.0</ele><time>2026-05-04T15:00:07Z</time></trkpt><trkpt lat="41.92931748427652" lon="19.656623844440855"><ele>69.0</ele><time>2026-05-04T15:00:08Z</time></trkpt><trkpt lat="41.92928900827388" lon="19.65648986963339"><ele>69.0</ele><time>2026-05-04T15:00:09Z</time></trkpt><trkpt lat="41.92925737500838" lon="19.65630056464524"><ele>69.0</ele><time>2026-05-04T15:00:10Z</time></trkpt><trkpt lat="41.92922554403598" lon="19.656105920454067"><ele>67.0</ele><time>2026-05-04T15:00:11Z</time></trkpt><trkpt lat="41.92920063462617" lon="19.656016740809093"><ele>65.0</ele><time>2026-05-04T15:00:12Z</time></trkpt><trkpt lat="41.929141769946085" lon="19.655951874215912"><ele>63.0</ele><time>2026-05-04T15:00:14Z</time></trkpt><trkpt lat="41.92906945264199" lon="19.655925226209078"><ele>61.0</ele><time>2026-05-04T15:00:17Z</time></trkpt><trkpt lat="41.92900101360069" lon="19.65598303425909"><ele>59.0</ele><time>2026-05-04T15:02:58Z</time></trkpt><trkpt lat="41.92894172097652" lon="19.65602743683521"><ele>57.0</ele><time>2026-05-04T15:02:58.999Z</time></trkpt><trkpt lat="41.92886887340768" lon="19.65605765031995"><ele>55.0</ele><time>2026-05-04T15:02:59.999Z</time></trkpt><trkpt lat="41.92879256747763" lon="19.656087741711538"><ele>56.0</ele><time>2026-05-04T15:03:00.999Z</time></trkpt><trkpt lat="41.928704106224224" lon="19.656131885213124"><ele>57.0</ele><time>2026-05-04T15:03:01.999Z</time></trkpt><trkpt lat="41.928614175024535" lon="19.656190451279265"><ele>58.0</ele><time>2026-05-04T15:03:03Z</time></trkpt><trkpt lat="41.92853724744818" lon="19.656263052871306"><ele>59.0</ele><time>2026-05-04T15:03:04Z</time></trkpt><trkpt lat="41.928459984649166" lon="19.656342943155565"><ele>60.0</ele><time>2026-05-04T15:03:05Z</time></trkpt><trkpt lat="41.92837422449845" lon="19.656418873798906"><ele>60.0</ele><time>2026-05-04T15:03:06Z</time></trkpt><trkpt lat="41.928281129209374" lon="19.656496609403387"><ele>60.0</ele><time>2026-05-04T15:03:07Z</time></trkpt><trkpt lat="41.92818393385702" lon="19.65657593135733"><ele>60.0</ele><time>2026-05-04T15:03:08Z</time></trkpt><trkpt lat="41.928090136860796" lon="19.656674720335968"><ele>60.0</ele><time>2026-05-04T15:03:09Z</time></trkpt><trkpt lat="41.928002629188796" lon="19.656798556244723"><ele>60.0</ele><time>2026-05-04T15:03:10.001Z</time></trkpt><trkpt lat="41.92791237862552" lon="19.65694309683757"><ele>60.0</ele><time>2026-05-04T15:03:11Z</time></trkpt><trkpt lat="41.927814202646964" lon="19.65710171498503"><ele>60.0</ele><time>2026-05-04T15:03:12.001Z</time></trkpt><trkpt lat="41.92770264366878" lon="19.65726196230973"><ele>62.0</ele><time>2026-05-04T15:03:13.001Z</time></trkpt><trkpt lat="41.92758122860967" lon="19.65742276479143"><ele>64.0</ele><time>2026-05-04T15:03:14.001Z</time></trkpt><trkpt lat="41.92744573643119" lon="19.657586855503496"><ele>66.0</ele><time>2026-05-04T15:03:15.001Z</time></trkpt><trkpt lat="41.92730346509181" lon="19.657752327584863"><ele>62.66666666666667</ele><time>2026-05-04T15:03:16.001Z</time></trkpt><trkpt lat="41.92715705978148" lon="19.657915259423962"><ele>59.333333333333336</ele><time>2026-05-04T15:03:17.001Z</time></trkpt><trkpt lat="41.92700837537073" lon="19.658074936778863"><ele>56.0</ele><time>2026-05-04T15:03:18.001Z</time></trkpt><trkpt lat="41.926859911843955" lon="19.658232159005724"><ele>55.333333333333336</ele><time>2026-05-04T15:03:19Z</time></trkpt><trkpt lat="41.92670719268542" lon="19.658396378104584"><ele>54.66666666666667</ele><time>2026-05-04T15:03:20Z</time></trkpt><trkpt lat="41.92655223917267" lon="19.658560777947656"><ele>54.0</ele><time>2026-05-04T15:03:20.999Z</time></trkpt><trkpt lat="41.92640031369206" lon="19.658718777656187"><ele>54.0</ele><time>2026-05-04T15:03:21.999Z</time></trkpt><trkpt lat="41.92625184870741" lon="19.658885035563685"><ele>54.0</ele><time>2026-05-04T15:03:22.999Z</time></trkpt><trkpt lat="41.92610150773645" lon="19.65904873093406"><ele>54.0</ele><time>2026-05-04T15:03:23.999Z</time></trkpt><trkpt lat="41.925948558962006" lon="19.659215429227306"><ele>53.33333333333333</ele><time>2026-05-04T15:03:24.999Z</time></trkpt><trkpt lat="41.925793653628645" lon="19.659389899459562"><ele>52.666666666666664</ele><time>2026-05-04T15:03:25.999Z</time></trkpt><trkpt lat="41.92563628484974" lon="19.659560427383592"><ele>52.0</ele><time>2026-05-04T15:03:26.999Z</time></trkpt><trkpt lat="41.92547274312907" lon="19.65974300718848"><ele>52.0</ele><time>2026-05-04T15:03:27.999Z</time></trkpt><trkpt lat="41.925302897661176" lon="19.659940910864787"><ele>52.0</ele><time>2026-05-04T15:03:28.999Z</time></trkpt><trkpt lat="41.92513458640322" lon="19.660129658368774"><ele>52.0</ele><time>2026-05-04T15:03:29.999Z</time></trkpt><trkpt lat="41.924974066317645" lon="19.66030041517521"><ele>52.666666666666664</ele><time>2026-05-04T15:03:30.999Z</time></trkpt><trkpt lat="41.924816345831154" lon="19.660466652690037"><ele>53.33333333333333</ele><time>2026-05-04T15:03:31.999Z</time></trkpt><trkpt lat="41.92465741185021" lon="19.66063367414076"><ele>54.0</ele><time>2026-05-04T15:03:32.999Z</time></trkpt><trkpt lat="41.92450048895449" lon="19.660804506124034"><ele>54.0</ele><time>2026-05-04T15:03:33.999Z</time></trkpt><trkpt lat="41.924339044239844" lon="19.660986296596036"><ele>54.0</ele><time>2026-05-04T15:03:34.999Z</time></trkpt><trkpt lat="41.924175552057044" lon="19.661173324121346"><ele>54.0</ele><time>2026-05-04T15:03:35.999Z</time></trkpt><trkpt lat="41.92401158406901" lon="19.66135654437245"><ele>53.0</ele><time>2026-05-04T15:03:36.999Z</time></trkpt><trkpt lat="41.92383568442402" lon="19.661545517664653"><ele>52.0</ele><time>2026-05-04T15:03:37.999Z</time></trkpt><trkpt lat="41.92365613981247" lon="19.66173591389353"><ele>52.0</ele><time>2026-05-04T15:03:38.999Z</time></trkpt><trkpt lat="41.92347919772071" lon="19.661926991905396"><ele>52.0</ele><time>2026-05-04T15:03:39.999Z</time></trkpt><trkpt lat="41.92330042549892" lon="19.662123756773628"><ele>50.666666666666664</ele><time>2026-05-04T15:03:40.999Z</time></trkpt><trkpt lat="41.92312282757905" lon="19.662316009590132"><ele>49.33333333333333</ele><time>2026-05-04T15:03:41.999Z</time></trkpt><trkpt lat="41.92295155083744" lon="19.662499645004853"><ele>48.0</ele><time>2026-05-04T15:03:42.999Z</time></trkpt><trkpt lat="41.92279520482573" lon="19.66266659226325"><ele>50.33333333333333</ele><time>2026-05-04T15:03:43.999Z</time></trkpt><trkpt lat="41.92265106695083" lon="19.662796868228074"><ele>52.666666666666664</ele><time>2026-05-04T15:03:44.999Z</time></trkpt><trkpt lat="41.92250338320161" lon="19.66286994761395"><ele>55.0</ele><time>2026-05-04T15:03:45.999Z</time></trkpt><trkpt lat="41.92234912621361" lon="19.662890864562673"><ele>55.33333333333333</ele><time>2026-05-04T15:03:46.999Z</time></trkpt><trkpt lat="41.922188965139036" lon="19.662877948911497"><ele>55.66666666666667</ele><time>2026-05-04T15:03:47.999Z</time></trkpt><trkpt lat="41.92202532979322" lon="19.662834384884093"><ele>56.0</ele><time>2026-05-04T15:03:48.999Z</time></trkpt><trkpt lat="41.92185439412942" lon="19.66277139393629"><ele>54.66666666666667</ele><time>2026-05-04T15:03:49.999Z</time></trkpt><trkpt lat="41.92167052373024" lon="19.662720976719008"><ele>53.33333333333333</ele><time>2026-05-04T15:03:50.999Z</time></trkpt><trkpt lat="41.92149707273536" lon="19.66269262529504"><ele>52.0</ele><time>2026-05-04T15:03:51.999Z</time></trkpt><trkpt lat="41.92133966020732" lon="19.662702258157868"><ele>52.0</ele><time>2026-05-04T15:03:52.999Z</time></trkpt><trkpt lat="41.92121058004802" lon="19.662771424215578"><ele>52.0</ele><time>2026-05-04T15:03:53.999Z</time></trkpt><trkpt lat="41.92109291820113" lon="19.662899026856895"><ele>52.0</ele><time>2026-05-04T15:03:54.999Z</time></trkpt><trkpt lat="41.9209669073921" lon="19.663062253889525"><ele>53.666666666666664</ele><time>2026-05-04T15:03:55.999Z</time></trkpt><trkpt lat="41.92082472633141" lon="19.6632390108522"><ele>55.33333333333333</ele><time>2026-05-04T15:03:56.999Z</time></trkpt><trkpt lat="41.92067902225608" lon="19.663415832877245"><ele>57.0</ele><time>2026-05-04T15:03:57.999Z</time></trkpt><trkpt lat="41.92052242318812" lon="19.663593772189145"><ele>56.66666666666667</ele><time>2026-05-04T15:03:58.999Z</time></trkpt><trkpt lat="41.92036064192952" lon="19.663770360726645"><ele>56.333333333333336</ele><time>2026-05-04T15:03:59.999Z</time></trkpt><trkpt lat="41.920193839013294" lon="19.663949835794654"><ele>56.0</ele><time>2026-05-04T15:04:00.999Z</time></trkpt><trkpt lat="41.92002614346916" lon="19.664140021553273"><ele>57.5</ele><time>2026-05-04T15:04:01.999Z</time></trkpt><trkpt lat="41.91985389846521" lon="19.6643382873363"><ele>59.0</ele><time>2026-05-04T15:04:02.999Z</time></trkpt><trkpt lat="41.91967947375752" lon="19.664539039356058"><ele>61.0</ele><time>2026-05-04T15:04:03.999Z</time></trkpt><trkpt lat="41.91949769570859" lon="19.66474203849006"><ele>63.0</ele><time>2026-05-04T15:04:04.999Z</time></trkpt><trkpt lat="41.91931597628184" lon="19.66494602655631"><ele>63.5</ele><time>2026-05-04T15:04:05.999Z</time></trkpt><trkpt lat="41.91913763784648" lon="19.665151008363345"><ele>64.0</ele><time>2026-05-04T15:04:06.999Z</time></trkpt><trkpt lat="41.91896490907328" lon="19.665372942559284"><ele>65.0</ele><time>2026-05-04T15:04:07.999Z</time></trkpt><trkpt lat="41.918797824226914" lon="19.665607870833515"><ele>66.0</ele><time>2026-05-04T15:04:08.999Z</time></trkpt><trkpt lat="41.91863385698467" lon="19.66585239671671"><ele>66.0</ele><time>2026-05-04T15:04:09.999Z</time></trkpt><trkpt lat="41.91847399611521" lon="19.666093164553594"><ele>66.0</ele><time>2026-05-04T15:04:10.999Z</time></trkpt><trkpt lat="41.9183141803026" lon="19.666327475043307"><ele>65.0</ele><time>2026-05-04T15:04:11.999Z</time></trkpt><trkpt lat="41.918157358503855" lon="19.666551299935584"><ele>64.0</ele><time>2026-05-04T15:04:12.999Z</time></trkpt><trkpt lat="41.91799626425314" lon="19.666778547655248"><ele>64.66666666666666</ele><time>2026-05-04T15:04:13.999Z</time></trkpt><trkpt lat="41.9178386360174" lon="19.666997880920324"><ele>65.33333333333333</ele><time>2026-05-04T15:04:14.999Z</time></trkpt><trkpt lat="41.91769721245974" lon="19.66720334523081"><ele>66.0</ele><time>2026-05-04T15:04:15.999Z</time></trkpt><trkpt lat="41.91756379690074" lon="19.667405278884196"><ele>66.0</ele><time>2026-05-04T15:04:16.999Z</time></trkpt><trkpt lat="41.917431119041694" lon="19.66760805977984"><ele>66.0</ele><time>2026-05-04T15:04:17.999Z</time></trkpt><trkpt lat="41.917291523071384" lon="19.667808830808042"><ele>66.0</ele><time>2026-05-04T15:04:18.999Z</time></trkpt><trkpt lat="41.91716046029802" lon="19.66799593069272"><ele>66.0</ele><time>2026-05-04T15:04:19.999Z</time></trkpt><trkpt lat="41.91703161761604" lon="19.66817788977375"><ele>66.0</ele><time>2026-05-04T15:04:20.999Z</time></trkpt><trkpt lat="41.91689658606876" lon="19.66835825775306"><ele>66.0</ele><time>2026-05-04T15:04:21.999Z</time></trkpt><trkpt lat="41.91675055293054" lon="19.668532845160694"><ele>68.0</ele><time>2026-05-04T15:04:22.999Z</time></trkpt><trkpt lat="41.916589024403265" lon="19.668688797066334"><ele>70.0</ele><time>2026-05-04T15:04:23.999Z</time></trkpt><trkpt lat="41.91642136975148" lon="19.66881561340046"><ele>72.0</ele><time>2026-05-04T15:04:24.999Z</time></trkpt><trkpt lat="41.916254883961564" lon="19.66891646769033"><ele>72.0</ele><time>2026-05-04T15:04:25.999Z</time></trkpt><trkpt lat="41.91610048017257" lon="19.668991651079715"><ele>72.0</ele><time>2026-05-04T15:04:26.999Z</time></trkpt><trkpt lat="41.91594667615334" lon="19.66905034875702"><ele>72.0</ele><time>2026-05-04T15:04:27.999Z</time></trkpt><trkpt lat="41.915786653962144" lon="19.66909851423117"><ele>72.0</ele><time>2026-05-04T15:04:28.999Z</time></trkpt><trkpt lat="41.91560444856512" lon="19.66914398093429"><ele>72.0</ele><time>2026-05-04T15:04:29.999Z</time></trkpt><trkpt lat="41.91540789932816" lon="19.669176057873706"><ele>72.0</ele><time>2026-05-04T15:04:30.999Z</time></trkpt><trkpt lat="41.915196281762476" lon="19.669189928617357"><ele>72.0</ele><time>2026-05-04T15:04:31.999Z</time></trkpt><trkpt lat="41.91497718102807" lon="19.66919158736745"><ele>72.0</ele><time>2026-05-04T15:04:32.999Z</time></trkpt><trkpt lat="41.914757530856875" lon="19.669198645979115"><ele>72.0</ele><time>2026-05-04T15:04:33.999Z</time></trkpt><trkpt lat="41.91454207785673" lon="19.66920932836069"><ele>72.0</ele><time>2026-05-04T15:04:34.999Z</time></trkpt><trkpt lat="41.914316119016576" lon="19.669225761284405"><ele>72.0</ele><time>2026-05-04T15:04:35.999Z</time></trkpt><trkpt lat="41.91409210195954" lon="19.669245400890283"><ele>71.66666666666667</ele><time>2026-05-04T15:04:36.999Z</time></trkpt><trkpt lat="41.913870326934266" lon="19.669269345409358"><ele>71.33333333333334</ele><time>2026-05-04T15:04:37.999Z</time></trkpt><trkpt lat="41.91365307339543" lon="19.66929331659171"><ele>71.0</ele><time>2026-05-04T15:04:38.999Z</time></trkpt><trkpt lat="41.91345937959182" lon="19.669310192867346"><ele>69.66666666666667</ele><time>2026-05-04T15:04:39.999Z</time></trkpt><trkpt lat="41.91327662690726" lon="19.669332725496627"><ele>68.33333333333333</ele><time>2026-05-04T15:04:40.999Z</time></trkpt><trkpt lat="41.913101523529896" lon="19.669355775851137"><ele>67.0</ele><time>2026-05-04T15:04:41.999Z</time></trkpt><trkpt lat="41.91292616239956" lon="19.66940109652511"><ele>68.0</ele><time>2026-05-04T15:04:42.999Z</time></trkpt><trkpt lat="41.9127433645709" lon="19.66947612155221"><ele>69.0</ele><time>2026-05-04T15:04:43.999Z</time></trkpt><trkpt lat="41.91256350051651" lon="19.669586004038113"><ele>70.0</ele><time>2026-05-04T15:04:44.999Z</time></trkpt><trkpt lat="41.91239413532644" lon="19.66973097103847"><ele>70.0</ele><time>2026-05-04T15:04:45.999Z</time></trkpt><trkpt lat="41.91223042098559" lon="19.669901358004584"><ele>70.0</ele><time>2026-05-04T15:04:46.999Z</time></trkpt><trkpt lat="41.912075874133436" lon="19.670055052318848"><ele>70.0</ele><time>2026-05-04T15:04:47.999Z</time></trkpt><trkpt lat="41.911930292138564" lon="19.670199110549344"><ele>70.5</ele><time>2026-05-04T15:04:48.999Z</time></trkpt><trkpt lat="41.91179927532575" lon="19.670334709887506"><ele>71.0</ele><time>2026-05-04T15:04:49.999Z</time></trkpt><trkpt lat="41.91168156502433" lon="19.670462952067286"><ele>71.5</ele><time>2026-05-04T15:04:50.999Z</time></trkpt><trkpt lat="41.9115794668228" lon="19.670568835576333"><ele>72.0</ele><time>2026-05-04T15:04:51.999Z</time></trkpt><trkpt lat="41.91146762565986" lon="19.670667379309542"><ele>70.5</ele><time>2026-05-04T15:04:52.999Z</time></trkpt><trkpt lat="41.91135761964455" lon="19.67076078512051"><ele>69.0</ele><time>2026-05-04T15:04:53.999Z</time></trkpt><trkpt lat="41.911240920772" lon="19.670864575559005"><ele>67.5</ele><time>2026-05-04T15:04:54.999Z</time></trkpt><trkpt lat="41.911119870752124" lon="19.670976775071694"><ele>66.0</ele><time>2026-05-04T15:04:55.999Z</time></trkpt><trkpt lat="41.910987947289435" lon="19.67110736974841"><ele>65.0</ele><time>2026-05-04T15:04:56.999Z</time></trkpt><trkpt lat="41.91084790594243" lon="19.671240980606996"><ele>64.0</ele><time>2026-05-04T15:04:57.999Z</time></trkpt><trkpt lat="41.910697543027936" lon="19.671379251303193"><ele>63.0</ele><time>2026-05-04T15:04:58.999Z</time></trkpt><trkpt lat="41.91053960564897" lon="19.671525552678553"><ele>63.0</ele><time>2026-05-04T15:04:59.999Z</time></trkpt><trkpt lat="41.91037875551545" lon="19.67167839239087"><ele>63.0</ele><time>2026-05-04T15:05:00.999Z</time></trkpt><trkpt lat="41.91021641524472" lon="19.67183817431815"><ele>63.0</ele><time>2026-05-04T15:05:01.999Z</time></trkpt><trkpt lat="41.91005051233782" lon="19.67200235988604"><ele>64.0</ele><time>2026-05-04T15:05:02.999Z</time></trkpt><trkpt lat="41.909879898876554" lon="19.672160549427133"><ele>65.0</ele><time>2026-05-04T15:05:03.999Z</time></trkpt><trkpt lat="41.90971951886721" lon="19.672308687020728"><ele>66.0</ele><time>2026-05-04T15:05:04.999Z</time></trkpt><trkpt lat="41.90956206419153" lon="19.672459592934537"><ele>66.0</ele><time>2026-05-04T15:05:05.999Z</time></trkpt><trkpt lat="41.90940313537714" lon="19.672599224112453"><ele>66.0</ele><time>2026-05-04T15:05:06.999Z</time></trkpt><trkpt lat="41.90923133400856" lon="19.672722214261604"><ele>66.0</ele><time>2026-05-04T15:05:07.999Z</time></trkpt><trkpt lat="41.909055136137546" lon="19.672791137508735"><ele>66.66666666666667</ele><time>2026-05-04T15:05:09Z</time></trkpt><trkpt lat="41.90886866013779" lon="19.672807229642515"><ele>67.33333333333334</ele><time>2026-05-04T15:05:10Z</time></trkpt><trkpt lat="41.908676725058626" lon="19.672782309803587"><ele>68.0</ele><time>2026-05-04T15:05:11Z</time></trkpt><trkpt lat="41.908477356566536" lon="19.672744609809666"><ele>68.66666666666667</ele><time>2026-05-04T15:05:12Z</time></trkpt><trkpt lat="41.90826840594203" lon="19.67270475187218"><ele>69.33333333333333</ele><time>2026-05-04T15:05:13Z</time></trkpt><trkpt lat="41.90805844607062" lon="19.67266362685575"><ele>70.0</ele><time>2026-05-04T15:05:14Z</time></trkpt><trkpt lat="41.90784497455489" lon="19.672623703001065"><ele>70.0</ele><time>2026-05-04T15:05:15Z</time></trkpt><trkpt lat="41.90761929135566" lon="19.672582143754457"><ele>70.0</ele><time>2026-05-04T15:05:16Z</time></trkpt><trkpt lat="41.90738743595092" lon="19.672538919205365"><ele>67.5</ele><time>2026-05-04T15:05:17Z</time></trkpt><trkpt lat="41.90714508637884" lon="19.67249337970352"><ele>65.0</ele><time>2026-05-04T15:05:18Z</time></trkpt><trkpt lat="41.90689778521982" lon="19.67244555532207"><ele>66.5</ele><time>2026-05-04T15:05:19Z</time></trkpt><trkpt lat="41.906642939189084" lon="19.67239708939942"><ele>68.0</ele><time>2026-05-04T15:05:20Z</time></trkpt><trkpt lat="41.906383178486905" lon="19.672347003360287"><ele>68.0</ele><time>2026-05-04T15:05:21Z</time></trkpt><trkpt lat="41.90612109538433" lon="19.672297682016286"><ele>68.0</ele><time>2026-05-04T15:05:22Z</time></trkpt><trkpt lat="41.905852929556175" lon="19.672253170108323"><ele>67.5</ele><time>2026-05-04T15:05:23Z</time></trkpt><trkpt lat="41.90558272368178" lon="19.672214757115274"><ele>67.0</ele><time>2026-05-04T15:05:24Z</time></trkpt><trkpt lat="41.90531466570876" lon="19.672172298353637"><ele>65.0</ele><time>2026-05-04T15:05:25Z</time></trkpt><trkpt lat="41.90504731435005" lon="19.672124352573444"><ele>63.0</ele><time>2026-05-04T15:05:26Z</time></trkpt><trkpt lat="41.904780516270414" lon="19.672078974657964"><ele>63.0</ele><time>2026-05-04T15:05:27Z</time></trkpt><trkpt lat="41.90452279737857" lon="19.67203869013351"><ele>63.0</ele><time>2026-05-04T15:05:28Z</time></trkpt><trkpt lat="41.90427735525826" lon="19.672001266264168"><ele>62.5</ele><time>2026-05-04T15:05:29Z</time></trkpt><trkpt lat="41.904037816848664" lon="19.671961120273533"><ele>62.0</ele><time>2026-05-04T15:05:30Z</time></trkpt><trkpt lat="41.903798682437085" lon="19.671918947415683"><ele>60.0</ele><time>2026-05-04T15:05:31Z</time></trkpt><trkpt lat="41.90356577328494" lon="19.671871818633793"><ele>58.0</ele><time>2026-05-04T15:05:32Z</time></trkpt><trkpt lat="41.903337864599486" lon="19.67182746496275"><ele>58.0</ele><time>2026-05-04T15:05:33Z</time></trkpt><trkpt lat="41.9031095457995" lon="19.671785825127458"><ele>58.0</ele><time>2026-05-04T15:05:34Z</time></trkpt><trkpt lat="41.902885418473474" lon="19.67174591356092"><ele>58.0</ele><time>2026-05-04T15:05:35Z</time></trkpt><trkpt lat="41.90266409306308" lon="19.67170924154508"><ele>58.0</ele><time>2026-05-04T15:05:36Z</time></trkpt><trkpt lat="41.90243822223452" lon="19.67167557226395"><ele>57.5</ele><time>2026-05-04T15:05:37Z</time></trkpt><trkpt lat="41.90221476956868" lon="19.67163350049285"><ele>57.0</ele><time>2026-05-04T15:05:38Z</time></trkpt><trkpt lat="41.90199020918869" lon="19.671588893970775"><ele>57.0</ele><time>2026-05-04T15:05:39Z</time></trkpt><trkpt lat="41.901768162898236" lon="19.671548251539242"><ele>57.0</ele><time>2026-05-04T15:05:40Z</time></trkpt><trkpt lat="41.9015531136622" lon="19.671514531937326"><ele>57.0</ele><time>2026-05-04T15:05:41Z</time></trkpt><trkpt lat="41.90134216445048" lon="19.671481655055228"><ele>56.0</ele><time>2026-05-04T15:05:42Z</time></trkpt><trkpt lat="41.90114027011955" lon="19.67145113605802"><ele>55.0</ele><time>2026-05-04T15:05:43Z</time></trkpt><trkpt lat="41.90095197432361" lon="19.671417113273566"><ele>54.0</ele><time>2026-05-04T15:05:44Z</time></trkpt><trkpt lat="41.9007750106325" lon="19.671387631583244"><ele>52.33333333333333</ele><time>2026-05-04T15:05:45Z</time></trkpt><trkpt lat="41.9006041410746" lon="19.671360288094995"><ele>50.666666666666664</ele><time>2026-05-04T15:05:46Z</time></trkpt><trkpt lat="41.90043756274573" lon="19.671333010218497"><ele>49.0</ele><time>2026-05-04T15:05:47Z</time></trkpt><trkpt lat="41.90027376770276" lon="19.671308741456823"><ele>49.0</ele><time>2026-05-04T15:05:48Z</time></trkpt><trkpt lat="41.90010927470446" lon="19.671283423844546"><ele>49.0</ele><time>2026-05-04T15:05:49Z</time></trkpt><trkpt lat="41.89993985117495" lon="19.67124708919606"><ele>49.0</ele><time>2026-05-04T15:05:50Z</time></trkpt><trkpt lat="41.89977106214498" lon="19.67121247884983"><ele>48.666666666666664</ele><time>2026-05-04T15:05:51Z</time></trkpt><trkpt lat="41.89959546089484" lon="19.671181196821173"><ele>48.33333333333333</ele><time>2026-05-04T15:05:52Z</time></trkpt><trkpt lat="41.899422866588814" lon="19.671156853059912"><ele>48.0</ele><time>2026-05-04T15:05:53Z</time></trkpt><trkpt lat="41.89925607975295" lon="19.671126646658525"><ele>47.333333333333336</ele><time>2026-05-04T15:05:54Z</time></trkpt><trkpt lat="41.89908243376616" lon="19.67109612476409"><ele>46.66666666666667</ele><time>2026-05-04T15:05:55Z</time></trkpt><trkpt lat="41.89890797078973" lon="19.671067754491336"><ele>46.0</ele><time>2026-05-04T15:05:56Z</time></trkpt><trkpt lat="41.89873380164328" lon="19.67103788990135"><ele>46.0</ele><time>2026-05-04T15:05:57Z</time></trkpt><trkpt lat="41.89855986824517" lon="19.671004521247653"><ele>46.0</ele><time>2026-05-04T15:05:58Z</time></trkpt><trkpt lat="41.89838735179829" lon="19.670975347110932"><ele>46.0</ele><time>2026-05-04T15:05:59Z</time></trkpt><trkpt lat="41.89820859769158" lon="19.670947743620246"><ele>47.333333333333336</ele><time>2026-05-04T15:06:00Z</time></trkpt><trkpt lat="41.8980311940334" lon="19.670917023834185"><ele>48.66666666666667</ele><time>2026-05-04T15:06:01Z</time></trkpt><trkpt lat="41.8978570477293" lon="19.67088380533888"><ele>50.0</ele><time>2026-05-04T15:06:02Z</time></trkpt><trkpt lat="41.89768329133174" lon="19.670854790027132"><ele>50.333333333333336</ele><time>2026-05-04T15:06:03Z</time></trkpt><trkpt lat="41.89751939328812" lon="19.67082174853116"><ele>50.66666666666667</ele><time>2026-05-04T15:06:04Z</time></trkpt><trkpt lat="41.897354546042685" lon="19.670790237382846"><ele>51.0</ele><time>2026-05-04T15:06:05Z</time></trkpt><trkpt lat="41.897186457454296" lon="19.670768573827235"><ele>51.0</ele><time>2026-05-04T15:06:06Z</time></trkpt><trkpt lat="41.89701853749587" lon="19.67076098404952"><ele>51.0</ele><time>2026-05-04T15:06:07Z</time></trkpt><trkpt lat="41.89685407195756" lon="19.670770199355132"><ele>51.0</ele><time>2026-05-04T15:06:07.999Z</time></trkpt><trkpt lat="41.896689198618" lon="19.670812024324807"><ele>50.66666666666667</ele><time>2026-05-04T15:06:08.999Z</time></trkpt><trkpt lat="41.89651673567471" lon="19.670879753941502"><ele>50.333333333333336</ele><time>2026-05-04T15:06:09.999Z</time></trkpt><trkpt lat="41.896342327967766" lon="19.670964672294563"><ele>50.0</ele><time>2026-05-04T15:06:10.999Z</time></trkpt><trkpt lat="41.89616287109918" lon="19.671047607118272"><ele>49.66666666666667</ele><time>2026-05-04T15:06:11.999Z</time></trkpt><trkpt lat="41.89597511467986" lon="19.671133438524627"><ele>49.33333333333333</ele><time>2026-05-04T15:06:12.999Z</time></trkpt><trkpt lat="41.895780636761934" lon="19.671220930910977"><ele>49.0</ele><time>2026-05-04T15:06:13.999Z</time></trkpt><trkpt lat="41.89558340263653" lon="19.67130162261944"><ele>49.0</ele><time>2026-05-04T15:06:14.999Z</time></trkpt><trkpt lat="41.89538329005461" lon="19.67137911416981"><ele>49.0</ele><time>2026-05-04T15:06:15.999Z</time></trkpt><trkpt lat="41.895181010180245" lon="19.671458447042237"><ele>49.0</ele><time>2026-05-04T15:06:16.999Z</time></trkpt><trkpt lat="41.894984685858404" lon="19.671541695840876"><ele>49.0</ele><time>2026-05-04T15:06:17.999Z</time></trkpt><trkpt lat="41.894805347186875" lon="19.671640783389083"><ele>49.0</ele><time>2026-05-04T15:06:18.999Z</time></trkpt><trkpt lat="41.89463219786715" lon="19.671764160621166"><ele>49.0</ele><time>2026-05-04T15:06:19.999Z</time></trkpt><trkpt lat="41.89445992619668" lon="19.671891591876044"><ele>52.0</ele><time>2026-05-04T15:06:20.999Z</time></trkpt><trkpt lat="41.89428501798869" lon="19.672010462638063"><ele>55.0</ele><time>2026-05-04T15:06:21.999Z</time></trkpt><trkpt lat="41.89412105997522" lon="19.672127909921997"><ele>58.0</ele><time>2026-05-04T15:06:22.999Z</time></trkpt><trkpt lat="41.893994976300974" lon="19.672257524080607"><ele>58.33333333333333</ele><time>2026-05-04T15:06:23.999Z</time></trkpt><trkpt lat="41.8939125400889" lon="19.672417526019473"><ele>58.66666666666667</ele><time>2026-05-04T15:06:24.999Z</time></trkpt><trkpt lat="41.89384171947617" lon="19.672616732881938"><ele>59.0</ele><time>2026-05-04T15:06:25.999Z</time></trkpt><trkpt lat="41.893768651885665" lon="19.67283752600187"><ele>61.66666666666667</ele><time>2026-05-04T15:06:26.999Z</time></trkpt><trkpt lat="41.89369041787679" lon="19.673068002052066"><ele>64.33333333333333</ele><time>2026-05-04T15:06:27.999Z</time></trkpt><trkpt lat="41.89360138467761" lon="19.67328004061007"><ele>67.0</ele><time>2026-05-04T15:06:28.999Z</time></trkpt><trkpt lat="41.89350345172113" lon="19.673455607916278"><ele>65.66666666666666</ele><time>2026-05-04T15:06:29.999Z</time></trkpt><trkpt lat="41.89338206260484" lon="19.67361007936326"><ele>64.33333333333333</ele><time>2026-05-04T15:06:30.999Z</time></trkpt><trkpt lat="41.89322968444039" lon="19.673750833672635"><ele>63.0</ele><time>2026-05-04T15:06:31.999Z</time></trkpt><trkpt lat="41.89304811033149" lon="19.673874019977934"><ele>63.0</ele><time>2026-05-04T15:06:32.999Z</time></trkpt><trkpt lat="41.8928541763319" lon="19.673978696256253"><ele>63.0</ele><time>2026-05-04T15:06:33.999Z</time></trkpt><trkpt lat="41.89264285369798" lon="19.674053982167322"><ele>63.0</ele><time>2026-05-04T15:06:34.999Z</time></trkpt><trkpt lat="41.89243310577188" lon="19.674109123459267"><ele>62.5</ele><time>2026-05-04T15:06:35.999Z</time></trkpt><trkpt lat="41.89226568965161" lon="19.67417311699614"><ele>62.0</ele><time>2026-05-04T15:06:36.999Z</time></trkpt><trkpt lat="41.89216355087615" lon="19.67424869335237"><ele>61.5</ele><time>2026-05-04T15:06:37.999Z</time></trkpt><trkpt lat="41.89209940467893" lon="19.6743598004118"><ele>61.0</ele><time>2026-05-04T15:06:38.999Z</time></trkpt><trkpt lat="41.89207646900987" lon="19.674488006002555"><ele>62.0</ele><time>2026-05-04T15:06:39.999Z</time></trkpt><trkpt lat="41.8920925942697" lon="19.674638176171793"><ele>63.0</ele><time>2026-05-04T15:06:40.999Z</time></trkpt><trkpt lat="41.89213097535861" lon="19.674817882663053"><ele>64.0</ele><time>2026-05-04T15:06:41.999Z</time></trkpt><trkpt lat="41.89213562177857" lon="19.675011420696936"><ele>65.0</ele><time>2026-05-04T15:06:42.999Z</time></trkpt><trkpt lat="41.892090888171055" lon="19.67518613929867"><ele>66.66666666666667</ele><time>2026-05-04T15:06:43.999Z</time></trkpt><trkpt lat="41.89200159079507" lon="19.675344641378125"><ele>68.33333333333333</ele><time>2026-05-04T15:06:44.999Z</time></trkpt><trkpt lat="41.891879498187336" lon="19.675487852865054"><ele>70.0</ele><time>2026-05-04T15:06:45.999Z</time></trkpt><trkpt lat="41.89172954569592" lon="19.675625345111207"><ele>66.0</ele><time>2026-05-04T15:06:46.999Z</time></trkpt><trkpt lat="41.89157348456281" lon="19.675773050969312"><ele>62.0</ele><time>2026-05-04T15:06:47.999Z</time></trkpt><trkpt lat="41.891416261252225" lon="19.67592942316018"><ele>58.0</ele><time>2026-05-04T15:06:48.999Z</time></trkpt><trkpt lat="41.891261548410846" lon="19.67609727841096"><ele>56.0</ele><time>2026-05-04T15:06:49.999Z</time></trkpt><trkpt lat="41.891116631427245" lon="19.67624962692478"><ele>54.0</ele><time>2026-05-04T15:06:50.999Z</time></trkpt><trkpt lat="41.89097634505881" lon="19.67639430516968"><ele>52.0</ele><time>2026-05-04T15:06:51.999Z</time></trkpt><trkpt lat="41.89084948340586" lon="19.676546674845742"><ele>52.0</ele><time>2026-05-04T15:06:52.999Z</time></trkpt><trkpt lat="41.8907469894206" lon="19.676716644740655"><ele>52.0</ele><time>2026-05-04T15:06:53.999Z</time></trkpt><trkpt lat="41.89068382894669" lon="19.67689910624938"><ele>52.0</ele><time>2026-05-04T15:06:54.999Z</time></trkpt><trkpt lat="41.890663095155716" lon="19.67708633222884"><ele>52.0</ele><time>2026-05-04T15:06:55.999Z</time></trkpt><trkpt lat="41.890682359301664" lon="19.67725740338172"><ele>52.0</ele><time>2026-05-04T15:06:56.999Z</time></trkpt><trkpt lat="41.8907493360669" lon="19.677409510792508"><ele>52.0</ele><time>2026-05-04T15:06:57.999Z</time></trkpt><trkpt lat="41.89085082654418" lon="19.677552797405433"><ele>52.0</ele><time>2026-05-04T15:06:58.999Z</time></trkpt><trkpt lat="41.890970848992175" lon="19.677705614263626"><ele>53.0</ele><time>2026-05-04T15:06:59.999Z</time></trkpt><trkpt lat="41.891110146641196" lon="19.677866010993068"><ele>54.0</ele><time>2026-05-04T15:07:00.999Z</time></trkpt><trkpt lat="41.891252055245005" lon="19.67800178406142"><ele>55.0</ele><time>2026-05-04T15:07:01.999Z</time></trkpt><trkpt lat="41.89141999687354" lon="19.678135683140113"><ele>55.0</ele><time>2026-05-04T15:07:02.999Z</time></trkpt><trkpt lat="41.891585875448165" lon="19.678279015737207"><ele>55.0</ele><time>2026-05-04T15:07:03.999Z</time></trkpt><trkpt lat="41.89171591916539" lon="19.678426881020037"><ele>55.0</ele><time>2026-05-04T15:07:04.999Z</time></trkpt><trkpt lat="41.89179884706915" lon="19.678570294114095"><ele>54.25</ele><time>2026-05-04T15:07:05.999Z</time></trkpt><trkpt lat="41.89183661533512" lon="19.678726470123127"><ele>53.5</ele><time>2026-05-04T15:07:06.999Z</time></trkpt><trkpt lat="41.89182854604458" lon="19.678910886726342"><ele>52.75</ele><time>2026-05-04T15:07:07.999Z</time></trkpt><trkpt lat="41.891771412164104" lon="19.679093362375834"><ele>52.0</ele><time>2026-05-04T15:07:08.999Z</time></trkpt><trkpt lat="41.891692481423405" lon="19.6792535436718"><ele>51.25</ele><time>2026-05-04T15:07:09.999Z</time></trkpt><trkpt lat="41.891583514963166" lon="19.679372601265733"><ele>50.5</ele><time>2026-05-04T15:07:10.999Z</time></trkpt><trkpt lat="41.891457481770125" lon="19.67943139409927"><ele>49.75</ele><time>2026-05-04T15:07:11.999Z</time></trkpt><trkpt lat="41.89131042087667" lon="19.67945492245849"><ele>49.0</ele><time>2026-05-04T15:07:12.999Z</time></trkpt><trkpt lat="41.89116119045514" lon="19.679466441115643"><ele>48.666666666666664</ele><time>2026-05-04T15:07:13.999Z</time></trkpt><trkpt lat="41.89100813602165" lon="19.67946513938985"><ele>48.33333333333333</ele><time>2026-05-04T15:07:15Z</time></trkpt><trkpt lat="41.89085795846219" lon="19.679453223011247"><ele>48.0</ele><time>2026-05-04T15:07:16Z</time></trkpt><trkpt lat="41.89070430588385" lon="19.679405029580586"><ele>48.0</ele><time>2026-05-04T15:07:17Z</time></trkpt><trkpt lat="41.890555727057546" lon="19.679337901165564"><ele>48.0</ele><time>2026-05-04T15:07:18Z</time></trkpt><trkpt lat="41.89041741924746" lon="19.679286611598325"><ele>48.0</ele><time>2026-05-04T15:07:19Z</time></trkpt><trkpt lat="41.89028933908876" lon="19.67924151977738"><ele>48.0</ele><time>2026-05-04T15:07:20Z</time></trkpt><trkpt lat="41.890179979604106" lon="19.6792213430214"><ele>51.0</ele><time>2026-05-04T15:07:21Z</time></trkpt><trkpt lat="41.890085796768616" lon="19.67924942118438"><ele>54.0</ele><time>2026-05-04T15:07:22Z</time></trkpt><trkpt lat="41.88999260197957" lon="19.67932521900368"><ele>57.0</ele><time>2026-05-04T15:07:23Z</time></trkpt><trkpt lat="41.889879397393514" lon="19.679420160576743"><ele>60.0</ele><time>2026-05-04T15:07:24Z</time></trkpt><trkpt lat="41.88976860022427" lon="19.679520630758375"><ele>62.66666666666667</ele><time>2026-05-04T15:07:25Z</time></trkpt><trkpt lat="41.889651021208174" lon="19.67965071044778"><ele>65.33333333333334</ele><time>2026-05-04T15:07:26Z</time></trkpt><trkpt lat="41.88951512553669" lon="19.679785366824888"><ele>68.0</ele><time>2026-05-04T15:07:27Z</time></trkpt><trkpt lat="41.88936952976244" lon="19.679884643874782"><ele>67.33333333333334</ele><time>2026-05-04T15:07:28Z</time></trkpt><trkpt lat="41.88922261826619" lon="19.679933294779673"><ele>66.66666666666667</ele><time>2026-05-04T15:07:29Z</time></trkpt><trkpt lat="41.88907761087818" lon="19.679900711933115"><ele>66.0</ele><time>2026-05-04T15:07:30Z</time></trkpt><trkpt lat="41.88893025373673" lon="19.679812019356486"><ele>66.0</ele><time>2026-05-04T15:07:31Z</time></trkpt><trkpt lat="41.88877296206797" lon="19.679736119646876"><ele>66.0</ele><time>2026-05-04T15:07:32Z</time></trkpt><trkpt lat="41.88864020564192" lon="19.679713255475757"><ele>66.0</ele><time>2026-05-04T15:07:33Z</time></trkpt><trkpt lat="41.888535127909414" lon="19.679748625391905"><ele>66.0</ele><time>2026-05-04T15:07:34Z</time></trkpt><trkpt lat="41.888448427807745" lon="19.679847425019695"><ele>66.25</ele><time>2026-05-04T15:07:35Z</time></trkpt><trkpt lat="41.88837594532896" lon="19.679996154355432"><ele>66.5</ele><time>2026-05-04T15:07:36Z</time></trkpt><trkpt lat="41.888330013034555" lon="19.680152252784104"><ele>66.75</ele><time>2026-05-04T15:07:37Z</time></trkpt><trkpt lat="41.88832943340449" lon="19.68033672135515"><ele>67.0</ele><time>2026-05-04T15:07:38Z</time></trkpt><trkpt lat="41.88836609447944" lon="19.68056322445883"><ele>67.0</ele><time>2026-05-04T15:07:39Z</time></trkpt><trkpt lat="41.88841034083095" lon="19.680751498140747"><ele>67.0</ele><time>2026-05-04T15:07:40Z</time></trkpt><trkpt lat="41.88848204867539" lon="19.680934731448755"><ele>67.0</ele><time>2026-05-04T15:07:41Z</time></trkpt><trkpt lat="41.88860177295237" lon="19.681129493841304"><ele>67.0</ele><time>2026-05-04T15:07:42Z</time></trkpt><trkpt lat="41.88869595842828" lon="19.681338643690424"><ele>67.0</ele><time>2026-05-04T15:07:43Z</time></trkpt><trkpt lat="41.888762387731454" lon="19.68154303597332"><ele>67.0</ele><time>2026-05-04T15:07:44Z</time></trkpt><trkpt lat="41.88879784654102" lon="19.681708857229133"><ele>67.0</ele><time>2026-05-04T15:07:45Z</time></trkpt><trkpt lat="41.88878495412972" lon="19.681844394060164"><ele>67.0</ele><time>2026-05-04T15:07:46Z</time></trkpt><trkpt lat="41.88872725044733" lon="19.68195283146195"><ele>67.0</ele><time>2026-05-04T15:07:47Z</time></trkpt><trkpt lat="41.88863510570425" lon="19.682029887216284"><ele>67.0</ele><time>2026-05-04T15:07:48Z</time></trkpt><trkpt lat="41.88850627945941" lon="19.68206694352645"><ele>67.0</ele><time>2026-05-04T15:07:49Z</time></trkpt><trkpt lat="41.88836162716924" lon="19.682031295980906"><ele>70.0</ele><time>2026-05-04T15:07:50Z</time></trkpt><trkpt lat="41.888212849726564" lon="19.681940574267642"><ele>73.0</ele><time>2026-05-04T15:07:51Z</time></trkpt><trkpt lat="41.888065039952735" lon="19.6818013653138"><ele>76.0</ele><time>2026-05-04T15:07:52Z</time></trkpt><trkpt lat="41.88791146145954" lon="19.68163434765211"><ele>73.66666666666666</ele><time>2026-05-04T15:07:53Z</time></trkpt><trkpt lat="41.88775024592165" lon="19.681449785163913"><ele>71.33333333333333</ele><time>2026-05-04T15:07:54Z</time></trkpt><trkpt lat="41.887601144935296" lon="19.68129565006112"><ele>69.0</ele><time>2026-05-04T15:07:55Z</time></trkpt><trkpt lat="41.887478567470566" lon="19.68120483996323"><ele>69.0</ele><time>2026-05-04T15:07:56Z</time></trkpt><trkpt lat="41.88735962375161" lon="19.681163472616742"><ele>69.0</ele><time>2026-05-04T15:07:57Z</time></trkpt><trkpt lat="41.88723898807999" lon="19.68119101706372"><ele>69.0</ele><time>2026-05-04T15:07:58Z</time></trkpt><trkpt lat="41.88711028500832" lon="19.681255477265875"><ele>69.0</ele><time>2026-05-04T15:07:59Z</time></trkpt><trkpt lat="41.88695882099457" lon="19.68124782811737"><ele>69.0</ele><time>2026-05-04T15:08:00Z</time></trkpt><trkpt lat="41.886808386310776" lon="19.681160709777107"><ele>69.0</ele><time>2026-05-04T15:08:01Z</time></trkpt><trkpt lat="41.88667337771727" lon="19.68109946392646"><ele>69.0</ele><time>2026-05-04T15:08:02Z</time></trkpt><trkpt lat="41.88655882525142" lon="19.681140951183355"><ele>69.0</ele><time>2026-05-04T15:08:03Z</time></trkpt><trkpt lat="41.88643548144342" lon="19.68124688682309"><ele>73.0</ele><time>2026-05-04T15:08:04Z</time></trkpt><trkpt lat="41.88630009824285" lon="19.68135472118084"><ele>77.0</ele><time>2026-05-04T15:08:05Z</time></trkpt><trkpt lat="41.88615008505856" lon="19.681450990918744"><ele>81.0</ele><time>2026-05-04T15:08:06Z</time></trkpt><trkpt lat="41.88597258766981" lon="19.681557201942343"><ele>79.0</ele><time>2026-05-04T15:08:07Z</time></trkpt><trkpt lat="41.88577858630705" lon="19.681668783532967"><ele>77.0</ele><time>2026-05-04T15:08:08Z</time></trkpt><trkpt lat="41.88556544736338" lon="19.681791616910523"><ele>75.0</ele><time>2026-05-04T15:08:09Z</time></trkpt><trkpt lat="41.8853363623541" lon="19.68193504566669"><ele>74.5</ele><time>2026-05-04T15:08:10Z</time></trkpt><trkpt lat="41.88511250593862" lon="19.682094073561597"><ele>74.0</ele><time>2026-05-04T15:08:11Z</time></trkpt><trkpt lat="41.88487863893042" lon="19.68226936739561"><ele>71.5</ele><time>2026-05-04T15:08:12Z</time></trkpt><trkpt lat="41.88463479051586" lon="19.68245444734497"><ele>69.0</ele><time>2026-05-04T15:08:13Z</time></trkpt><trkpt lat="41.884384829497385" lon="19.682645828218366"><ele>69.5</ele><time>2026-05-04T15:08:14Z</time></trkpt><trkpt lat="41.884159413580804" lon="19.682808485473913"><ele>70.0</ele><time>2026-05-04T15:08:15Z</time></trkpt><trkpt lat="41.88397136877025" lon="19.68292277310354"><ele>70.0</ele><time>2026-05-04T15:08:16Z</time></trkpt><trkpt lat="41.88382005549569" lon="19.682984339077695"><ele>70.0</ele><time>2026-05-04T15:08:17Z</time></trkpt><trkpt lat="41.883684332482304" lon="19.682979714625148"><ele>70.0</ele><time>2026-05-04T15:08:18Z</time></trkpt><trkpt lat="41.8835570587696" lon="19.682929491865288"><ele>70.0</ele><time>2026-05-04T15:08:19Z</time></trkpt><trkpt lat="41.883453045240415" lon="19.682834668255637"><ele>70.25</ele><time>2026-05-04T15:08:20Z</time></trkpt><trkpt lat="41.883378612702906" lon="19.682693304053"><ele>70.5</ele><time>2026-05-04T15:08:21Z</time></trkpt><trkpt lat="41.88328344879139" lon="19.68258922470406"><ele>70.75</ele><time>2026-05-04T15:08:22Z</time></trkpt><trkpt lat="41.88315366622152" lon="19.68256748786365"><ele>71.0</ele><time>2026-05-04T15:08:23Z</time></trkpt><trkpt lat="41.88301230011997" lon="19.682622145745285"><ele>71.0</ele><time>2026-05-04T15:08:24Z</time></trkpt><trkpt lat="41.882892906069785" lon="19.682735712041946"><ele>71.0</ele><time>2026-05-04T15:08:25Z</time></trkpt><trkpt lat="41.88280805408711" lon="19.682887700640798"><ele>71.0</ele><time>2026-05-04T15:08:26Z</time></trkpt><trkpt lat="41.88277596223557" lon="19.683047234551736"><ele>71.0</ele><time>2026-05-04T15:08:27Z</time></trkpt><trkpt lat="41.88279561589746" lon="19.68323697613941"><ele>74.33333333333334</ele><time>2026-05-04T15:08:28Z</time></trkpt><trkpt lat="41.88287686373624" lon="19.683492608008"><ele>77.66666666666667</ele><time>2026-05-04T15:08:29Z</time></trkpt><trkpt lat="41.882932987544415" lon="19.68374832944806"><ele>81.0</ele><time>2026-05-04T15:08:30Z</time></trkpt><trkpt lat="41.882987798438826" lon="19.684030481510828"><ele>83.5</ele><time>2026-05-04T15:08:31Z</time></trkpt><trkpt lat="41.88303273859092" lon="19.684321587808792"><ele>86.0</ele><time>2026-05-04T15:08:32Z</time></trkpt><trkpt lat="41.88307211634312" lon="19.68463718790827"><ele>86.0</ele><time>2026-05-04T15:08:33Z</time></trkpt><trkpt lat="41.883112829369516" lon="19.68491151477438"><ele>86.0</ele><time>2026-05-04T15:08:34Z</time></trkpt><trkpt lat="41.88317639358397" lon="19.68513920037846"><ele>86.0</ele><time>2026-05-04T15:08:35Z</time></trkpt><trkpt lat="41.8832853563594" lon="19.685330393377978"><ele>85.0</ele><time>2026-05-04T15:08:36Z</time></trkpt><trkpt lat="41.88342977980723" lon="19.685493587923432"><ele>84.0</ele><time>2026-05-04T15:08:37Z</time></trkpt><trkpt lat="41.883510494738466" lon="19.685668206632425"><ele>83.0</ele><time>2026-05-04T15:08:38Z</time></trkpt><trkpt lat="41.88354074989242" lon="19.68584722272872"><ele>83.66666666666667</ele><time>2026-05-04T15:08:39Z</time></trkpt><trkpt lat="41.88353382140017" lon="19.686066506562604"><ele>84.33333333333333</ele><time>2026-05-04T15:08:40Z</time></trkpt><trkpt lat="41.88347617404537" lon="19.686287259794828"><ele>85.0</ele><time>2026-05-04T15:08:41Z</time></trkpt><trkpt lat="41.88339976379886" lon="19.686448485373724"><ele>85.0</ele><time>2026-05-04T15:08:42Z</time></trkpt><trkpt lat="41.88334183732688" lon="19.686595406868147"><ele>85.0</ele><time>2026-05-04T15:08:43Z</time></trkpt><trkpt lat="41.88333717871061" lon="19.686774349422798"><ele>85.0</ele><time>2026-05-04T15:08:44Z</time></trkpt><trkpt lat="41.88336979912304" lon="19.68699234422654"><ele>85.0</ele><time>2026-05-04T15:08:45Z</time></trkpt><trkpt lat="41.88340930079543" lon="19.6872377273202"><ele>89.66666666666666</ele><time>2026-05-04T15:08:46Z</time></trkpt><trkpt lat="41.88343171911591" lon="19.687518317502025"><ele>94.33333333333333</ele><time>2026-05-04T15:08:47Z</time></trkpt><trkpt lat="41.883448178362535" lon="19.687793212874215"><ele>99.0</ele><time>2026-05-04T15:08:48Z</time></trkpt><trkpt lat="41.883467636895894" lon="19.68807996537632"><ele>99.0</ele><time>2026-05-04T15:08:49Z</time></trkpt><trkpt lat="41.88348797396168" lon="19.688372664464772"><ele>99.0</ele><time>2026-05-04T15:08:50Z</time></trkpt><trkpt lat="41.88351581016635" lon="19.688674953168043"><ele>99.0</ele><time>2026-05-04T15:08:51Z</time></trkpt><trkpt lat="41.88354375837205" lon="19.688964095757452"><ele>96.33333333333333</ele><time>2026-05-04T15:08:52Z</time></trkpt><trkpt lat="41.88355182053577" lon="19.689243019114155"><ele>93.66666666666666</ele><time>2026-05-04T15:08:53Z</time></trkpt><trkpt lat="41.88353778592645" lon="19.689527699935894"><ele>91.0</ele><time>2026-05-04T15:08:54Z</time></trkpt><trkpt lat="41.88350875944406" lon="19.689816011693697"><ele>89.66666666666666</ele><time>2026-05-04T15:08:55Z</time></trkpt><trkpt lat="41.883478301926786" lon="19.69008444482412"><ele>88.33333333333333</ele><time>2026-05-04T15:08:56Z</time></trkpt><trkpt lat="41.88344908334074" lon="19.6903223326596"><ele>87.0</ele><time>2026-05-04T15:08:57Z</time></trkpt><trkpt lat="41.883408536148394" lon="19.690532343366822"><ele>87.0</ele><time>2026-05-04T15:08:58Z</time></trkpt><trkpt lat="41.88335499776628" lon="19.69072450035138"><ele>87.0</ele><time>2026-05-04T15:08:58.999Z</time></trkpt><trkpt lat="41.88327473508642" lon="19.690879384214693"><ele>87.0</ele><time>2026-05-04T15:08:59.999Z</time></trkpt><trkpt lat="41.883151324166036" lon="19.691004722224186"><ele>87.0</ele><time>2026-05-04T15:09:00.999Z</time></trkpt><trkpt lat="41.882981555389726" lon="19.69110390263536"><ele>90.0</ele><time>2026-05-04T15:09:01.999Z</time></trkpt><trkpt lat="41.88277303293871" lon="19.69120954950664"><ele>93.0</ele><time>2026-05-04T15:09:02.999Z</time></trkpt><trkpt lat="41.88255762426131" lon="19.691326538589617"><ele>93.5</ele><time>2026-05-04T15:09:03.999Z</time></trkpt><trkpt lat="41.88234458435765" lon="19.691452040094166"><ele>94.0</ele><time>2026-05-04T15:09:04.999Z</time></trkpt><trkpt lat="41.88213214486974" lon="19.69157380100698"><ele>94.0</ele><time>2026-05-04T15:09:05.999Z</time></trkpt><trkpt lat="41.88194043345292" lon="19.691684073246478"><ele>94.0</ele><time>2026-05-04T15:09:06.999Z</time></trkpt><trkpt lat="41.88177259971701" lon="19.691790699544608"><ele>94.0</ele><time>2026-05-04T15:09:07.999Z</time></trkpt><trkpt lat="41.881622347648275" lon="19.691893829536085"><ele>93.33333333333333</ele><time>2026-05-04T15:09:08.999Z</time></trkpt><trkpt lat="41.88147793442937" lon="19.69197526983093"><ele>92.66666666666667</ele><time>2026-05-04T15:09:09.999Z</time></trkpt><trkpt lat="41.881321173280504" lon="19.69202719092021"><ele>92.0</ele><time>2026-05-04T15:09:10.999Z</time></trkpt><trkpt lat="41.88113836680009" lon="19.692078182597132"><ele>89.33333333333334</ele><time>2026-05-04T15:09:11.999Z</time></trkpt><trkpt lat="41.880932233924" lon="19.692134625403344"><ele>86.66666666666667</ele><time>2026-05-04T15:09:12.999Z</time></trkpt><trkpt lat="41.88072328633032" lon="19.692185940389688"><ele>84.0</ele><time>2026-05-04T15:09:13.999Z</time></trkpt><trkpt lat="41.88050690163439" lon="19.69223897383518"><ele>84.0</ele><time>2026-05-04T15:09:14.999Z</time></trkpt><trkpt lat="41.88028626989827" lon="19.692298510726133"><ele>84.0</ele><time>2026-05-04T15:09:15.999Z</time></trkpt><trkpt lat="41.88005702155819" lon="19.692360380902628"><ele>84.5</ele><time>2026-05-04T15:09:16.999Z</time></trkpt><trkpt lat="41.879814378850334" lon="19.6924237089692"><ele>85.0</ele><time>2026-05-04T15:09:17.999Z</time></trkpt><trkpt lat="41.879555916675734" lon="19.692484602733906"><ele>85.0</ele><time>2026-05-04T15:09:18.999Z</time></trkpt><trkpt lat="41.87929417339493" lon="19.692547212367547"><ele>85.0</ele><time>2026-05-04T15:09:19.999Z</time></trkpt><trkpt lat="41.87906995632966" lon="19.692600588203828"><ele>85.0</ele><time>2026-05-04T15:09:21Z</time></trkpt><trkpt lat="41.87887714395986" lon="19.692650988233552"><ele>85.0</ele><time>2026-05-04T15:09:22Z</time></trkpt><trkpt lat="41.878736623210756" lon="19.692709439786405"><ele>85.0</ele><time>2026-05-04T15:09:23Z</time></trkpt><trkpt lat="41.87862419005978" lon="19.692804968368055"><ele>87.5</ele><time>2026-05-04T15:09:24Z</time></trkpt><trkpt lat="41.87854639145204" lon="19.692957833156477"><ele>90.0</ele><time>2026-05-04T15:09:25Z</time></trkpt><trkpt lat="41.87851149112121" lon="19.693148195114397"><ele>92.5</ele><time>2026-05-04T15:09:26Z</time></trkpt><trkpt lat="41.87851057267471" lon="19.693353167972244"><ele>95.0</ele><time>2026-05-04T15:09:27Z</time></trkpt><trkpt lat="41.8785773952712" lon="19.69359555906743"><ele>96.0</ele><time>2026-05-04T15:09:28Z</time></trkpt><trkpt lat="41.878633720753335" lon="19.69385988955106"><ele>97.0</ele><time>2026-05-04T15:09:29Z</time></trkpt><trkpt lat="41.878679272769794" lon="19.694143808913676"><ele>98.0</ele><time>2026-05-04T15:09:30Z</time></trkpt><trkpt lat="41.87871501912958" lon="19.694451535247687"><ele>98.0</ele><time>2026-05-04T15:09:31Z</time></trkpt><trkpt lat="41.87874034109216" lon="19.694756399734"><ele>98.0</ele><time>2026-05-04T15:09:32Z</time></trkpt><trkpt lat="41.87874932523252" lon="19.695034179438178"><ele>98.0</ele><time>2026-05-04T15:09:33Z</time></trkpt><trkpt lat="41.8787336180759" lon="19.695286540714037"><ele>98.66666666666666</ele><time>2026-05-04T15:09:34Z</time></trkpt><trkpt lat="41.87868679852801" lon="19.695488370694942"><ele>99.33333333333334</ele><time>2026-05-04T15:09:35Z</time></trkpt><trkpt lat="41.87859866658187" lon="19.695650115489663"><ele>100.0</ele><time>2026-05-04T15:09:36Z</time></trkpt><trkpt lat="41.87846755959743" lon="19.695803756924807"><ele>98.0</ele><time>2026-05-04T15:09:37Z</time></trkpt><trkpt lat="41.878302022542286" lon="19.69595911409214"><ele>96.0</ele><time>2026-05-04T15:09:38Z</time></trkpt><trkpt lat="41.878142948630625" lon="19.696120559614563"><ele>94.0</ele><time>2026-05-04T15:09:39Z</time></trkpt><trkpt lat="41.877969781197706" lon="19.696255155995978"><ele>94.0</ele><time>2026-05-04T15:09:40Z</time></trkpt><trkpt lat="41.877782611291195" lon="19.696349792404774"><ele>94.0</ele><time>2026-05-04T15:09:41Z</time></trkpt><trkpt lat="41.87760395439933" lon="19.696374380201895"><ele>94.0</ele><time>2026-05-04T15:09:42Z</time></trkpt><trkpt lat="41.87743434433473" lon="19.696330405058525"><ele>91.66666666666666</ele><time>2026-05-04T15:09:43Z</time></trkpt><trkpt lat="41.87727533630014" lon="19.69621333281764"><ele>89.33333333333333</ele><time>2026-05-04T15:09:44Z</time></trkpt><trkpt lat="41.87712698197034" lon="19.696039722467464"><ele>87.0</ele><time>2026-05-04T15:09:45Z</time></trkpt><trkpt lat="41.8769707734294" lon="19.695830754587433"><ele>87.0</ele><time>2026-05-04T15:09:46Z</time></trkpt><trkpt lat="41.87679422698885" lon="19.69564675886717"><ele>87.0</ele><time>2026-05-04T15:09:47Z</time></trkpt><trkpt lat="41.87665648187301" lon="19.6954801782817"><ele>87.0</ele><time>2026-05-04T15:09:48Z</time></trkpt><trkpt lat="41.876530748763614" lon="19.69533286909235"><ele>88.0</ele><time>2026-05-04T15:09:49Z</time></trkpt><trkpt lat="41.876334946720746" lon="19.69524503661867"><ele>89.0</ele><time>2026-05-04T15:09:50Z</time></trkpt><trkpt lat="41.87613944249255" lon="19.69519659099758"><ele>90.0</ele><time>2026-05-04T15:09:51Z</time></trkpt><trkpt lat="41.87591846860905" lon="19.695164793096655"><ele>95.5</ele><time>2026-05-04T15:09:52Z</time></trkpt><trkpt lat="41.87569171086376" lon="19.695117995839798"><ele>101.0</ele><time>2026-05-04T15:09:53Z</time></trkpt><trkpt lat="41.87546060223509" lon="19.695060375128666"><ele>101.0</ele><time>2026-05-04T15:09:54Z</time></trkpt><trkpt lat="41.87528116347687" lon="19.695011179913248"><ele>101.0</ele><time>2026-05-04T15:09:55Z</time></trkpt><trkpt lat="41.87514206804228" lon="19.69498920234172"><ele>101.0</ele><time>2026-05-04T15:09:56Z</time></trkpt><trkpt lat="41.8749923547186" lon="19.695032075593957"><ele>102.0</ele><time>2026-05-04T15:09:57Z</time></trkpt><trkpt lat="41.87482868583806" lon="19.69511238885775"><ele>103.0</ele><time>2026-05-04T15:09:58Z</time></trkpt><trkpt lat="41.87465649514169" lon="19.695219050329552"><ele>104.0</ele><time>2026-05-04T15:09:59Z</time></trkpt><trkpt lat="41.87449313138721" lon="19.69533481581456"><ele>105.33333333333333</ele><time>2026-05-04T15:10:00Z</time></trkpt><trkpt lat="41.87435694111187" lon="19.69543978016413"><ele>106.66666666666666</ele><time>2026-05-04T15:10:01Z</time></trkpt><trkpt lat="41.87423699434312" lon="19.695588141869372"><ele>108.0</ele><time>2026-05-04T15:10:02Z</time></trkpt><trkpt lat="41.87411515126053" lon="19.69578660693256"><ele>108.0</ele><time>2026-05-04T15:10:03Z</time></trkpt><trkpt lat="41.8739912960456" lon="19.696010415318128"><ele>108.0</ele><time>2026-05-04T15:10:04Z</time></trkpt><trkpt lat="41.87388183758791" lon="19.696200690733857"><ele>108.0</ele><time>2026-05-04T15:10:05Z</time></trkpt><trkpt lat="41.873802734229045" lon="19.69637026403297"><ele>109.33333333333334</ele><time>2026-05-04T15:10:06Z</time></trkpt><trkpt lat="41.87376373867106" lon="19.696552853201524"><ele>110.66666666666667</ele><time>2026-05-04T15:10:07Z</time></trkpt><trkpt lat="41.87377752972239" lon="19.696751835618137"><ele>112.0</ele><time>2026-05-04T15:10:08Z</time></trkpt><trkpt lat="41.87383140540675" lon="19.69698955223668"><ele>112.0</ele><time>2026-05-04T15:10:09Z</time></trkpt><trkpt lat="41.873898667320915" lon="19.697251837519467"><ele>112.0</ele><time>2026-05-04T15:10:10Z</time></trkpt><trkpt lat="41.8739600735941" lon="19.697538064786634"><ele>112.0</ele><time>2026-05-04T15:10:11Z</time></trkpt><trkpt lat="41.873990404940756" lon="19.69778492782325"><ele>108.66666666666667</ele><time>2026-05-04T15:10:12Z</time></trkpt><trkpt lat="41.87398467455561" lon="19.697980552132368"><ele>105.33333333333334</ele><time>2026-05-04T15:10:13Z</time></trkpt><trkpt lat="41.8739288107686" lon="19.698158277661946"><ele>102.0</ele><time>2026-05-04T15:10:14Z</time></trkpt><trkpt lat="41.87382284718329" lon="19.698349220790636"><ele>102.0</ele><time>2026-05-04T15:10:15Z</time></trkpt><trkpt lat="41.873691531735794" lon="19.698528237526144"><ele>102.0</ele><time>2026-05-04T15:10:16Z</time></trkpt><trkpt lat="41.87356260842484" lon="19.698727964392276"><ele>102.0</ele><time>2026-05-04T15:10:17Z</time></trkpt><trkpt lat="41.87344234538105" lon="19.69886576416194"><ele>102.5</ele><time>2026-05-04T15:10:18Z</time></trkpt><trkpt lat="41.87331232726376" lon="19.69894629105577"><ele>103.0</ele><time>2026-05-04T15:10:19Z</time></trkpt><trkpt lat="41.873166326957595" lon="19.698977989628187"><ele>103.5</ele><time>2026-05-04T15:10:20Z</time></trkpt><trkpt lat="41.873016368959256" lon="19.698930452744975"><ele>104.0</ele><time>2026-05-04T15:10:21Z</time></trkpt><trkpt lat="41.87286471377692" lon="19.6988725128513"><ele>104.0</ele><time>2026-05-04T15:10:22Z</time></trkpt><trkpt lat="41.872711485090306" lon="19.69878418675133"><ele>104.0</ele><time>2026-05-04T15:10:23Z</time></trkpt><trkpt lat="41.872575980502596" lon="19.698650268674204"><ele>104.0</ele><time>2026-05-04T15:10:24Z</time></trkpt><trkpt lat="41.87247372714753" lon="19.698471617619823"><ele>102.33333333333333</ele><time>2026-05-04T15:10:25Z</time></trkpt><trkpt lat="41.87236327959134" lon="19.698265062270476"><ele>100.66666666666666</ele><time>2026-05-04T15:10:26Z</time></trkpt><trkpt lat="41.87224133616776" lon="19.698049373564505"><ele>99.0</ele><time>2026-05-04T15:10:27Z</time></trkpt><trkpt lat="41.872125056245636" lon="19.697816972512808"><ele>98.0</ele><time>2026-05-04T15:10:28Z</time></trkpt><trkpt lat="41.87199675968613" lon="19.69758059665409"><ele>97.0</ele><time>2026-05-04T15:10:29Z</time></trkpt><trkpt lat="41.87187221657831" lon="19.697360513340303"><ele>96.0</ele><time>2026-05-04T15:10:30Z</time></trkpt><trkpt lat="41.87175783306144" lon="19.697158624008097"><ele>96.0</ele><time>2026-05-04T15:10:31Z</time></trkpt><trkpt lat="41.871646620275186" lon="19.696995254048655"><ele>96.0</ele><time>2026-05-04T15:10:32Z</time></trkpt><trkpt lat="41.87153054403454" lon="19.696908269366062"><ele>96.0</ele><time>2026-05-04T15:10:33Z</time></trkpt><trkpt lat="41.871388727368384" lon="19.696883063476236"><ele>96.0</ele><time>2026-05-04T15:10:34Z</time></trkpt><trkpt lat="41.871226673621024" lon="19.696898633413895"><ele>96.0</ele><time>2026-05-04T15:10:35Z</time></trkpt><trkpt lat="41.87107389198659" lon="19.6969767990624"><ele>96.0</ele><time>2026-05-04T15:10:36Z</time></trkpt><trkpt lat="41.870945853365946" lon="19.697120028321873"><ele>96.0</ele><time>2026-05-04T15:10:37Z</time></trkpt><trkpt lat="41.870844785917654" lon="19.697318748916846"><ele>92.0</ele><time>2026-05-04T15:10:38Z</time></trkpt><trkpt lat="41.870771248647" lon="19.697542788438252"><ele>88.0</ele><time>2026-05-04T15:10:39Z</time></trkpt><trkpt lat="41.87072246943259" lon="19.69780147599511"><ele>84.0</ele><time>2026-05-04T15:10:40Z</time></trkpt><trkpt lat="41.87068545344808" lon="19.698074110163454"><ele>83.66666666666667</ele><time>2026-05-04T15:10:41Z</time></trkpt><trkpt lat="41.87065653016921" lon="19.698329017521797"><ele>83.33333333333334</ele><time>2026-05-04T15:10:42Z</time></trkpt><trkpt lat="41.870660964757796" lon="19.6985602778256"><ele>83.0</ele><time>2026-05-04T15:10:43Z</time></trkpt><trkpt lat="41.87071819297563" lon="19.698801105235642"><ele>82.0</ele><time>2026-05-04T15:10:44Z</time></trkpt><trkpt lat="41.87079761875178" lon="19.69903040405817"><ele>81.0</ele><time>2026-05-04T15:10:45Z</time></trkpt><trkpt lat="41.87082422086509" lon="19.699237983821646"><ele>80.0</ele><time>2026-05-04T15:10:46Z</time></trkpt><trkpt lat="41.87078130943214" lon="19.69942984944005"><ele>78.33333333333334</ele><time>2026-05-04T15:10:47Z</time></trkpt><trkpt lat="41.870686105886975" lon="19.699608401478365"><ele>76.66666666666667</ele><time>2026-05-04T15:10:48Z</time></trkpt><trkpt lat="41.87052771832047" lon="19.699800114574096"><ele>75.0</ele><time>2026-05-04T15:10:49Z</time></trkpt><trkpt lat="41.87040902538274" lon="19.699971165678487"><ele>75.0</ele><time>2026-05-04T15:10:50Z</time></trkpt><trkpt lat="41.87029061124479" lon="19.700077946963116"><ele>75.0</ele><time>2026-05-04T15:10:51Z</time></trkpt><trkpt lat="41.870153540289664" lon="19.700117618577952"><ele>75.0</ele><time>2026-05-04T15:10:52Z</time></trkpt><trkpt lat="41.86998832614485" lon="19.700092184090128"><ele>75.0</ele><time>2026-05-04T15:10:53Z</time></trkpt><trkpt lat="41.86980678400888" lon="19.70003451006719"><ele>75.0</ele><time>2026-05-04T15:10:54Z</time></trkpt><trkpt lat="41.86961111635503" lon="19.699987821627236"><ele>75.0</ele><time>2026-05-04T15:10:55Z</time></trkpt><trkpt lat="41.86941549271569" lon="19.699945186837002"><ele>75.0</ele><time>2026-05-04T15:10:56Z</time></trkpt><trkpt lat="41.869220253759494" lon="19.699900488159944"><ele>75.0</ele><time>2026-05-04T15:10:57Z</time></trkpt><trkpt lat="41.86901805531977" lon="19.69985743807031"><ele>75.0</ele><time>2026-05-04T15:10:58Z</time></trkpt><trkpt lat="41.86881631374752" lon="19.699815664605484"><ele>75.0</ele><time>2026-05-04T15:10:59Z</time></trkpt><trkpt lat="41.86861416484821" lon="19.69977073684306"><ele>75.33333333333333</ele><time>2026-05-04T15:11:00Z</time></trkpt><trkpt lat="41.86841086561937" lon="19.699724794079604"><ele>75.66666666666666</ele><time>2026-05-04T15:11:01Z</time></trkpt><trkpt lat="41.86821096030951" lon="19.699683125662883"><ele>76.0</ele><time>2026-05-04T15:11:02Z</time></trkpt><trkpt lat="41.86801680260011" lon="19.699650251131143"><ele>76.0</ele><time>2026-05-04T15:11:03Z</time></trkpt><trkpt lat="41.867828653538076" lon="19.69961562971152"><ele>76.0</ele><time>2026-05-04T15:11:04Z</time></trkpt><trkpt lat="41.8676454884144" lon="19.699571554455336"><ele>76.0</ele><time>2026-05-04T15:11:05Z</time></trkpt><trkpt lat="41.867465645827565" lon="19.699521433878477"><ele>75.66666666666666</ele><time>2026-05-04T15:11:06Z</time></trkpt><trkpt lat="41.86728528327992" lon="19.699476966733993"><ele>75.33333333333333</ele><time>2026-05-04T15:11:07Z</time></trkpt><trkpt lat="41.867099176322775" lon="19.69943637180076"><ele>75.0</ele><time>2026-05-04T15:11:08Z</time></trkpt><trkpt lat="41.86690713365138" lon="19.699395314891426"><ele>75.33333333333333</ele><time>2026-05-04T15:11:09Z</time></trkpt><trkpt lat="41.86671479872797" lon="19.69935285369982"><ele>75.66666666666666</ele><time>2026-05-04T15:11:10Z</time></trkpt><trkpt lat="41.866521415904636" lon="19.699308990153202"><ele>76.0</ele><time>2026-05-04T15:11:11Z</time></trkpt><trkpt lat="41.86632698308021" lon="19.69926398724478"><ele>76.0</ele><time>2026-05-04T15:11:12Z</time></trkpt><trkpt lat="41.86613339055283" lon="19.699219818476646"><ele>76.0</ele><time>2026-05-04T15:11:13Z</time></trkpt><trkpt lat="41.86594103598641" lon="19.699180091298995"><ele>76.0</ele><time>2026-05-04T15:11:14Z</time></trkpt><trkpt lat="41.86574977568469" lon="19.69914199548084"><ele>75.66666666666666</ele><time>2026-05-04T15:11:15Z</time></trkpt><trkpt lat="41.86556226228994" lon="19.699101064579388"><ele>75.33333333333333</ele><time>2026-05-04T15:11:16Z</time></trkpt><trkpt lat="41.86537275336997" lon="19.699060041541994"><ele>75.0</ele><time>2026-05-04T15:11:17Z</time></trkpt><trkpt lat="41.86519584074823" lon="19.699020780505776"><ele>75.0</ele><time>2026-05-04T15:11:18Z</time></trkpt><trkpt lat="41.865003294064394" lon="19.698979323572246"><ele>75.0</ele><time>2026-05-04T15:11:19Z</time></trkpt><trkpt lat="41.86481726405726" lon="19.698941771624806"><ele>75.0</ele><time>2026-05-04T15:11:20Z</time></trkpt><trkpt lat="41.86462744345449" lon="19.698905507707778"><ele>75.0</ele><time>2026-05-04T15:11:21Z</time></trkpt><trkpt lat="41.86443879457822" lon="19.69886724395243"><ele>75.0</ele><time>2026-05-04T15:11:22Z</time></trkpt><trkpt lat="41.86425027179942" lon="19.698823825540686"><ele>75.0</ele><time>2026-05-04T15:11:23Z</time></trkpt><trkpt lat="41.86405870258078" lon="19.69878072403822"><ele>75.66666666666667</ele><time>2026-05-04T15:11:24Z</time></trkpt><trkpt lat="41.86386867456154" lon="19.69873633747505"><ele>76.33333333333334</ele><time>2026-05-04T15:11:25Z</time></trkpt><trkpt lat="41.86368451457977" lon="19.698691822307755"><ele>77.0</ele><time>2026-05-04T15:11:26Z</time></trkpt><trkpt lat="41.86350622909214" lon="19.698645592203697"><ele>77.33333333333334</ele><time>2026-05-04T15:11:27.001Z</time></trkpt><trkpt lat="41.86333056680452" lon="19.698604990063906"><ele>77.66666666666667</ele><time>2026-05-04T15:11:28.001Z</time></trkpt><trkpt lat="41.863151022439375" lon="19.698569626466607"><ele>78.0</ele><time>2026-05-04T15:11:29.001Z</time></trkpt><trkpt lat="41.86298050511085" lon="19.69853245332372"><ele>78.0</ele><time>2026-05-04T15:11:30Z</time></trkpt><trkpt lat="41.86281996381709" lon="19.698492433334817"><ele>78.0</ele><time>2026-05-04T15:11:31Z</time></trkpt><trkpt lat="41.86267090099263" lon="19.69848673076479"><ele>78.0</ele><time>2026-05-04T15:11:32Z</time></trkpt><trkpt lat="41.862526372589706" lon="19.698534929860706"><ele>78.33333333333333</ele><time>2026-05-04T15:11:33Z</time></trkpt><trkpt lat="41.86237418721039" lon="19.69863394689799"><ele>78.66666666666666</ele><time>2026-05-04T15:11:33.999Z</time></trkpt><trkpt lat="41.86221880522811" lon="19.69875719788769"><ele>79.0</ele><time>2026-05-04T15:11:34.999Z</time></trkpt><trkpt lat="41.86204865478401" lon="19.698866112423108"><ele>79.0</ele><time>2026-05-04T15:11:35.999Z</time></trkpt><trkpt lat="41.861867498951995" lon="19.69894481748696"><ele>79.0</ele><time>2026-05-04T15:11:36.999Z</time></trkpt><trkpt lat="41.86168178737032" lon="19.69899844844767"><ele>79.0</ele><time>2026-05-04T15:11:37.999Z</time></trkpt><trkpt lat="41.86150581005242" lon="19.699029503280318"><ele>77.0</ele><time>2026-05-04T15:11:38.999Z</time></trkpt><trkpt lat="41.861337951333006" lon="19.699050448376642"><ele>75.0</ele><time>2026-05-04T15:11:39.999Z</time></trkpt><trkpt lat="41.86116331295026" lon="19.699059763135544"><ele>73.0</ele><time>2026-05-04T15:11:40.999Z</time></trkpt><trkpt lat="41.86098081253492" lon="19.69905024094529"><ele>71.0</ele><time>2026-05-04T15:11:41.999Z</time></trkpt><trkpt lat="41.8607880651829" lon="19.699012226300983"><ele>69.0</ele><time>2026-05-04T15:11:42.999Z</time></trkpt><trkpt lat="41.86059646441223" lon="19.698958812672693"><ele>67.0</ele><time>2026-05-04T15:11:43.999Z</time></trkpt><trkpt lat="41.86039793081023" lon="19.698894591165857"><ele>67.0</ele><time>2026-05-04T15:11:44.999Z</time></trkpt><trkpt lat="41.86020912182836" lon="19.698798791968088"><ele>67.0</ele><time>2026-05-04T15:11:45.999Z</time></trkpt><trkpt lat="41.860027876754714" lon="19.698671944470618"><ele>67.0</ele><time>2026-05-04T15:11:46.999Z</time></trkpt><trkpt lat="41.859855279989006" lon="19.698539154071785"><ele>67.66666666666666</ele><time>2026-05-04T15:11:47.999Z</time></trkpt><trkpt lat="41.8597026630277" lon="19.698394975956344"><ele>68.33333333333333</ele><time>2026-05-04T15:11:48.999Z</time></trkpt><trkpt lat="41.859561804533946" lon="19.698226437101486"><ele>69.0</ele><time>2026-05-04T15:11:49.999Z</time></trkpt><trkpt lat="41.85942204614231" lon="19.698041563061594"><ele>69.66666666666667</ele><time>2026-05-04T15:11:50.999Z</time></trkpt><trkpt lat="41.8592780892209" lon="19.69785224452316"><ele>70.33333333333334</ele><time>2026-05-04T15:11:51.999Z</time></trkpt><trkpt lat="41.859135832132175" lon="19.69766492536818"><ele>71.0</ele><time>2026-05-04T15:11:52.999Z</time></trkpt><trkpt lat="41.85901162330945" lon="19.697497674049767"><ele>71.0</ele><time>2026-05-04T15:11:53.999Z</time></trkpt><trkpt lat="41.85889735705347" lon="19.697348732043206"><ele>71.0</ele><time>2026-05-04T15:11:54.999Z</time></trkpt><trkpt lat="41.858779352135116" lon="19.697216350958968"><ele>71.0</ele><time>2026-05-04T15:11:55.999Z</time></trkpt><trkpt lat="41.85863452495685" lon="19.697099672838995"><ele>71.0</ele><time>2026-05-04T15:11:56.999Z</time></trkpt><trkpt lat="41.85846564881123" lon="19.696987134574446"><ele>71.0</ele><time>2026-05-04T15:11:57.999Z</time></trkpt><trkpt lat="41.85828561408729" lon="19.696866280742366"><ele>71.0</ele><time>2026-05-04T15:11:58.999Z</time></trkpt><trkpt lat="41.8580988069947" lon="19.696734193639788"><ele>71.0</ele><time>2026-05-04T15:11:59.999Z</time></trkpt><trkpt lat="41.85790788728853" lon="19.69659468796691"><ele>71.0</ele><time>2026-05-04T15:12:00.999Z</time></trkpt><trkpt lat="41.85771724484792" lon="19.69645435653095"><ele>71.0</ele><time>2026-05-04T15:12:01.999Z</time></trkpt><trkpt lat="41.85752528672658" lon="19.696311622725275"><ele>71.0</ele><time>2026-05-04T15:12:02.999Z</time></trkpt><trkpt lat="41.85733197921242" lon="19.69616944530238"><ele>71.0</ele><time>2026-05-04T15:12:03.999Z</time></trkpt><trkpt lat="41.857149118430776" lon="19.69603427925442"><ele>71.0</ele><time>2026-05-04T15:12:04.999Z</time></trkpt><trkpt lat="41.85698254488289" lon="19.69591167861441"><ele>71.0</ele><time>2026-05-04T15:12:05.999Z</time></trkpt><trkpt lat="41.85682809274534" lon="19.695797160910878"><ele>71.0</ele><time>2026-05-04T15:12:06.999Z</time></trkpt><trkpt lat="41.856681484713455" lon="19.69569086785337"><ele>71.0</ele><time>2026-05-04T15:12:07.999Z</time></trkpt><trkpt lat="41.85654405655577" lon="19.69558816617453"><ele>72.66666666666667</ele><time>2026-05-04T15:12:08.999Z</time></trkpt><trkpt lat="41.856409356375664" lon="19.695493859659074"><ele>74.33333333333333</ele><time>2026-05-04T15:12:09.999Z</time></trkpt><trkpt lat="41.856267725085864" lon="19.69540507185146"><ele>76.0</ele><time>2026-05-04T15:12:10.999Z</time></trkpt><trkpt lat="41.85610750588553" lon="19.69533152566634"><ele>77.0</ele><time>2026-05-04T15:12:11.999Z</time></trkpt><trkpt lat="41.855926477261896" lon="19.695268807642766"><ele>78.0</ele><time>2026-05-04T15:12:12.999Z</time></trkpt><trkpt lat="41.85573601317492" lon="19.69520585868982"><ele>79.0</ele><time>2026-05-04T15:12:13.999Z</time></trkpt><trkpt lat="41.85553896089964" lon="19.69514467750916"><ele>79.0</ele><time>2026-05-04T15:12:14.999Z</time></trkpt><trkpt lat="41.85533581306524" lon="19.695087213477223"><ele>79.0</ele><time>2026-05-04T15:12:15.999Z</time></trkpt><trkpt lat="41.855130653313736" lon="19.69502567295059"><ele>79.0</ele><time>2026-05-04T15:12:16.999Z</time></trkpt><trkpt lat="41.85492694567131" lon="19.69495948150727"><ele>78.66666666666666</ele><time>2026-05-04T15:12:17.999Z</time></trkpt><trkpt lat="41.854718116074245" lon="19.694891942788107"><ele>78.33333333333333</ele><time>2026-05-04T15:12:18.999Z</time></trkpt><trkpt lat="41.85450404342748" lon="19.69482325953473"><ele>78.0</ele><time>2026-05-04T15:12:19.999Z</time></trkpt><trkpt lat="41.854293661248796" lon="19.694755118536968"><ele>80.0</ele><time>2026-05-04T15:12:20.999Z</time></trkpt><trkpt lat="41.85410253641682" lon="19.694683860246336"><ele>82.0</ele><time>2026-05-04T15:12:21.999Z</time></trkpt><trkpt lat="41.85392158003098" lon="19.69461468762021"><ele>84.0</ele><time>2026-05-04T15:12:22.999Z</time></trkpt><trkpt lat="41.85374117038941" lon="19.694551159781636"><ele>84.0</ele><time>2026-05-04T15:12:23.999Z</time></trkpt><trkpt lat="41.853562732630245" lon="19.694487325304017"><ele>84.0</ele><time>2026-05-04T15:12:24.999Z</time></trkpt><trkpt lat="41.853379591042106" lon="19.694420460943636"><ele>84.0</ele><time>2026-05-04T15:12:25.999Z</time></trkpt><trkpt lat="41.853190596573626" lon="19.69435450855756"><ele>80.33333333333333</ele><time>2026-05-04T15:12:26.999Z</time></trkpt><trkpt lat="41.852996422363" lon="19.6942906872729"><ele>76.66666666666666</ele><time>2026-05-04T15:12:27.999Z</time></trkpt><trkpt lat="41.852804701063036" lon="19.694227398086174"><ele>73.0</ele><time>2026-05-04T15:12:28.999Z</time></trkpt><trkpt lat="41.85262981250991" lon="19.69417332123931"><ele>75.5</ele><time>2026-05-04T15:12:29.999Z</time></trkpt><trkpt lat="41.85248342586701" lon="19.69412765089213"><ele>78.0</ele><time>2026-05-04T15:12:30.999Z</time></trkpt><trkpt lat="41.85235949702525" lon="19.694088085302496"><ele>80.5</ele><time>2026-05-04T15:12:31.999Z</time></trkpt><trkpt lat="41.85224429955603" lon="19.694051072137892"><ele>83.0</ele><time>2026-05-04T15:12:32.999Z</time></trkpt><trkpt lat="41.85211971859628" lon="19.69399067664796"><ele>83.0</ele><time>2026-05-04T15:12:33.999Z</time></trkpt><trkpt lat="41.851973966082475" lon="19.693879792711254"><ele>83.0</ele><time>2026-05-04T15:12:34.999Z</time></trkpt><trkpt lat="41.85183033584853" lon="19.693733595512875"><ele>83.0</ele><time>2026-05-04T15:12:35.999Z</time></trkpt><trkpt lat="41.85170133278795" lon="19.693559450936053"><ele>81.66666666666667</ele><time>2026-05-04T15:12:36.999Z</time></trkpt><trkpt lat="41.85159317724239" lon="19.693353407489862"><ele>80.33333333333333</ele><time>2026-05-04T15:12:37.999Z</time></trkpt><trkpt lat="41.851501335600524" lon="19.69312765554791"><ele>79.0</ele><time>2026-05-04T15:12:38.999Z</time></trkpt><trkpt lat="41.851407006140434" lon="19.69290379115091"><ele>76.33333333333333</ele><time>2026-05-04T15:12:39.999Z</time></trkpt><trkpt lat="41.85130688326146" lon="19.692688959087725"><ele>73.66666666666667</ele><time>2026-05-04T15:12:40.999Z</time></trkpt><trkpt lat="41.85121089217833" lon="19.692506144732512"><ele>71.0</ele><time>2026-05-04T15:12:41.999Z</time></trkpt><trkpt lat="41.85112196990731" lon="19.692330135841026"><ele>71.0</ele><time>2026-05-04T15:12:42.999Z</time></trkpt><trkpt lat="41.851028386994436" lon="19.69217280569978"><ele>71.0</ele><time>2026-05-04T15:12:43.999Z</time></trkpt><trkpt lat="41.85092672453214" lon="19.692028894015138"><ele>71.0</ele><time>2026-05-04T15:12:44.999Z</time></trkpt><trkpt lat="41.85082199581367" lon="19.69190000326441"><ele>71.0</ele><time>2026-05-04T15:12:45.999Z</time></trkpt><trkpt lat="41.85072309786223" lon="19.691797123651863"><ele>73.25</ele><time>2026-05-04T15:12:46.999Z</time></trkpt><trkpt lat="41.85061881298773" lon="19.691716674240663"><ele>75.5</ele><time>2026-05-04T15:12:47.999Z</time></trkpt><trkpt lat="41.850491519161494" lon="19.691633274872533"><ele>77.75</ele><time>2026-05-04T15:12:48.999Z</time></trkpt><trkpt lat="41.85034318549855" lon="19.691528114982543"><ele>80.0</ele><time>2026-05-04T15:12:49.999Z</time></trkpt><trkpt lat="41.8501950263654" lon="19.69140283598071"><ele>81.0</ele><time>2026-05-04T15:12:50.999Z</time></trkpt><trkpt lat="41.850041497848494" lon="19.691271467467274"><ele>82.0</ele><time>2026-05-04T15:12:51.999Z</time></trkpt><trkpt lat="41.849881825443966" lon="19.69113922794037"><ele>83.0</ele><time>2026-05-04T15:12:52.999Z</time></trkpt><trkpt lat="41.84972525830573" lon="19.691013929488147"><ele>81.0</ele><time>2026-05-04T15:12:53.999Z</time></trkpt><trkpt lat="41.84958223173911" lon="19.690901099333182"><ele>79.0</ele><time>2026-05-04T15:12:54.999Z</time></trkpt><trkpt lat="41.84944903305912" lon="19.690799154465385"><ele>77.0</ele><time>2026-05-04T15:12:55.999Z</time></trkpt><trkpt lat="41.849319495570406" lon="19.690707653988888"><ele>78.0</ele><time>2026-05-04T15:12:56.999Z</time></trkpt><trkpt lat="41.84919367258716" lon="19.690624035041555"><ele>79.0</ele><time>2026-05-04T15:12:57.999Z</time></trkpt><trkpt lat="41.849077066093464" lon="19.690533878939757"><ele>80.0</ele><time>2026-05-04T15:12:58.999Z</time></trkpt><trkpt lat="41.848961585947784" lon="19.690423917115776"><ele>81.0</ele><time>2026-05-04T15:12:59.999Z</time></trkpt><trkpt lat="41.848831286266766" lon="19.690308020539813"><ele>82.0</ele><time>2026-05-04T15:13:00.999Z</time></trkpt><trkpt lat="41.84869270737948" lon="19.690194952960432"><ele>83.0</ele><time>2026-05-04T15:13:01.999Z</time></trkpt><trkpt lat="41.84855049158644" lon="19.690084349910858"><ele>84.0</ele><time>2026-05-04T15:13:02.999Z</time></trkpt><trkpt lat="41.84840444376575" lon="19.689982236041978"><ele>84.0</ele><time>2026-05-04T15:13:03.999Z</time></trkpt><trkpt lat="41.84825679165937" lon="19.689872450649403"><ele>84.0</ele><time>2026-05-04T15:13:04.999Z</time></trkpt><trkpt lat="41.84810829290101" lon="19.68975617768014"><ele>84.0</ele><time>2026-05-04T15:13:05.999Z</time></trkpt><trkpt lat="41.847956580181354" lon="19.689642088827764"><ele>84.0</ele><time>2026-05-04T15:13:06.999Z</time></trkpt><trkpt lat="41.84780597329364" lon="19.689527221570795"><ele>84.0</ele><time>2026-05-04T15:13:07.999Z</time></trkpt><trkpt lat="41.84767092575876" lon="19.689415165436312"><ele>84.0</ele><time>2026-05-04T15:13:08.999Z</time></trkpt><trkpt lat="41.84756355097852" lon="19.68930053574654"><ele>81.66666666666667</ele><time>2026-05-04T15:13:09.999Z</time></trkpt><trkpt lat="41.847483215022564" lon="19.689161134765754"><ele>79.33333333333334</ele><time>2026-05-04T15:13:10.999Z</time></trkpt><trkpt lat="41.847418845948994" lon="19.688977366269164"><ele>77.0</ele><time>2026-05-04T15:13:11.999Z</time></trkpt><trkpt lat="41.847359624091496" lon="19.688766402157807"><ele>75.0</ele><time>2026-05-04T15:13:12.999Z</time></trkpt><trkpt lat="41.84729741077134" lon="19.688537590205538"><ele>73.0</ele><time>2026-05-04T15:13:13.999Z</time></trkpt><trkpt lat="41.8472335762264" lon="19.688297404669427"><ele>71.0</ele><time>2026-05-04T15:13:14.999Z</time></trkpt><trkpt lat="41.847167876067125" lon="19.688051485666687"><ele>71.0</ele><time>2026-05-04T15:13:15.999Z</time></trkpt><trkpt lat="41.84709736364861" lon="19.687792995494537"><ele>71.0</ele><time>2026-05-04T15:13:16.999Z</time></trkpt><trkpt lat="41.847022826905615" lon="19.68752561287499"><ele>71.0</ele><time>2026-05-04T15:13:17.999Z</time></trkpt><trkpt lat="41.84695042257814" lon="19.687258167727173"><ele>70.0</ele><time>2026-05-04T15:13:18.999Z</time></trkpt><trkpt lat="41.84687758272171" lon="19.686984089578285"><ele>69.0</ele><time>2026-05-04T15:13:19.999Z</time></trkpt><trkpt lat="41.8468064573789" lon="19.68670769223272"><ele>68.0</ele><time>2026-05-04T15:13:20.999Z</time></trkpt><trkpt lat="41.84673458214609" lon="19.68642977500639"><ele>68.0</ele><time>2026-05-04T15:13:21.999Z</time></trkpt><trkpt lat="41.84666108870483" lon="19.68615058583034"><ele>68.0</ele><time>2026-05-04T15:13:22.999Z</time></trkpt><trkpt lat="41.84658656616217" lon="19.685873601024966"><ele>68.0</ele><time>2026-05-04T15:13:23.999Z</time></trkpt><trkpt lat="41.84650537146801" lon="19.68559141221733"><ele>69.5</ele><time>2026-05-04T15:13:24.999Z</time></trkpt><trkpt lat="41.84642076576085" lon="19.685298944952752"><ele>71.0</ele><time>2026-05-04T15:13:25.999Z</time></trkpt><trkpt lat="41.846333848595926" lon="19.684996078715013"><ele>67.5</ele><time>2026-05-04T15:13:26.999Z</time></trkpt><trkpt lat="41.84624845271868" lon="19.68468901430811"><ele>64.0</ele><time>2026-05-04T15:13:27.999Z</time></trkpt><trkpt lat="41.84616188280123" lon="19.684377258685988"><ele>61.5</ele><time>2026-05-04T15:13:28.999Z</time></trkpt><trkpt lat="41.84607553980212" lon="19.684063386732547"><ele>59.0</ele><time>2026-05-04T15:13:29.999Z</time></trkpt><trkpt lat="41.84599031333715" lon="19.68374692148127"><ele>61.5</ele><time>2026-05-04T15:13:30.999Z</time></trkpt><trkpt lat="41.84590606887568" lon="19.683429543461216"><ele>64.0</ele><time>2026-05-04T15:13:31.999Z</time></trkpt><trkpt lat="41.84582083350638" lon="19.68311408897672"><ele>64.0</ele><time>2026-05-04T15:13:33Z</time></trkpt><trkpt lat="41.845745518529036" lon="19.682836974037084"><ele>64.0</ele><time>2026-05-04T15:13:34Z</time></trkpt><trkpt lat="41.84569581726275" lon="19.682579615487125"><ele>64.0</ele><time>2026-05-04T15:13:35Z</time></trkpt><trkpt lat="41.84565555422299" lon="19.682346506914136"><ele>61.666666666666664</ele><time>2026-05-04T15:13:36Z</time></trkpt><trkpt lat="41.845591689028744" lon="19.68215364534825"><ele>59.33333333333333</ele><time>2026-05-04T15:13:37Z</time></trkpt><trkpt lat="41.845516875604666" lon="19.681988305064472"><ele>57.0</ele><time>2026-05-04T15:13:38Z</time></trkpt><trkpt lat="41.84535548410445" lon="19.681769621742884"><ele>56.33333333333333</ele><time>2026-05-04T15:13:39Z</time></trkpt><trkpt lat="41.845210312051286" lon="19.681697945979742"><ele>55.666666666666664</ele><time>2026-05-04T15:13:40Z</time></trkpt><trkpt lat="41.84503129588227" lon="19.681672568944393"><ele>55.0</ele><time>2026-05-04T15:13:41Z</time></trkpt><trkpt lat="41.844851845929185" lon="19.68164368616834"><ele>56.33333333333333</ele><time>2026-05-04T15:13:42Z</time></trkpt><trkpt lat="41.84464557060362" lon="19.681610817552862"><ele>57.66666666666667</ele><time>2026-05-04T15:13:43Z</time></trkpt><trkpt lat="41.844442852014524" lon="19.681571206630036"><ele>59.0</ele><time>2026-05-04T15:13:44Z</time></trkpt><trkpt lat="41.84427116378755" lon="19.681523986289402"><ele>60.333333333333336</ele><time>2026-05-04T15:13:45Z</time></trkpt><trkpt lat="41.844127640626816" lon="19.68146392819604"><ele>61.66666666666667</ele><time>2026-05-04T15:13:46Z</time></trkpt><trkpt lat="41.844002226374634" lon="19.681356776430302"><ele>63.0</ele><time>2026-05-04T15:13:47Z</time></trkpt><trkpt lat="41.843895743910394" lon="19.6811874983692"><ele>61.0</ele><time>2026-05-04T15:13:48Z</time></trkpt><trkpt lat="41.84378192191115" lon="19.680991686049754"><ele>59.0</ele><time>2026-05-04T15:13:49Z</time></trkpt><trkpt lat="41.84365219469188" lon="19.680794308279175"><ele>57.0</ele><time>2026-05-04T15:13:50Z</time></trkpt><trkpt lat="41.84352223459173" lon="19.68058863137386"><ele>60.0</ele><time>2026-05-04T15:13:51Z</time></trkpt><trkpt lat="41.8433870222386" lon="19.68038608122582"><ele>63.0</ele><time>2026-05-04T15:13:52Z</time></trkpt><trkpt lat="41.843249362693264" lon="19.680174239647062"><ele>66.0</ele><time>2026-05-04T15:13:53Z</time></trkpt><trkpt lat="41.843109627219775" lon="19.67996733839967"><ele>66.0</ele><time>2026-05-04T15:13:54Z</time></trkpt><trkpt lat="41.842962445065524" lon="19.679753218961554"><ele>66.0</ele><time>2026-05-04T15:13:55Z</time></trkpt><trkpt lat="41.84281459204217" lon="19.6795253800824"><ele>66.0</ele><time>2026-05-04T15:13:56Z</time></trkpt><trkpt lat="41.84266865324324" lon="19.679289034291653"><ele>68.33333333333333</ele><time>2026-05-04T15:13:57Z</time></trkpt><trkpt lat="41.84252213970629" lon="19.679057536179684"><ele>70.66666666666666</ele><time>2026-05-04T15:13:58Z</time></trkpt><trkpt lat="41.84238281388747" lon="19.678848108400846"><ele>73.0</ele><time>2026-05-04T15:13:59Z</time></trkpt><trkpt lat="41.84225450397371" lon="19.678673801143926"><ele>70.0</ele><time>2026-05-04T15:14:00Z</time></trkpt><trkpt lat="41.84212547615185" lon="19.678494172660958"><ele>67.0</ele><time>2026-05-04T15:14:01Z</time></trkpt><trkpt lat="41.84199199731867" lon="19.678309847959213"><ele>64.0</ele><time>2026-05-04T15:14:02Z</time></trkpt><trkpt lat="41.84186225554665" lon="19.678104776085814"><ele>66.0</ele><time>2026-05-04T15:14:03Z</time></trkpt><trkpt lat="41.841725881113696" lon="19.67789184178047"><ele>68.0</ele><time>2026-05-04T15:14:04Z</time></trkpt><trkpt lat="41.84158458789111" lon="19.677676069397354"><ele>70.0</ele><time>2026-05-04T15:14:05Z</time></trkpt><trkpt lat="41.841443692942896" lon="19.677462217866704"><ele>70.0</ele><time>2026-05-04T15:14:06Z</time></trkpt><trkpt lat="41.84130595171909" lon="19.677264755695358"><ele>70.0</ele><time>2026-05-04T15:14:07Z</time></trkpt><trkpt lat="41.8411689504761" lon="19.67708062933145"><ele>70.0</ele><time>2026-05-04T15:14:08Z</time></trkpt><trkpt lat="41.841026069884535" lon="19.67689154948972"><ele>72.66666666666666</ele><time>2026-05-04T15:14:09Z</time></trkpt><trkpt lat="41.84088503641625" lon="19.676691475222377"><ele>75.33333333333333</ele><time>2026-05-04T15:14:10Z</time></trkpt><trkpt lat="41.840752134829025" lon="19.676471239617488"><ele>78.0</ele><time>2026-05-04T15:14:11Z</time></trkpt><trkpt lat="41.84062100136494" lon="19.67624464750333"><ele>76.0</ele><time>2026-05-04T15:14:12Z</time></trkpt><trkpt lat="41.8404991101758" lon="19.676035370003323"><ele>74.0</ele><time>2026-05-04T15:14:13Z</time></trkpt><trkpt lat="41.8403820232462" lon="19.67584498490256"><ele>72.0</ele><time>2026-05-04T15:14:14Z</time></trkpt><trkpt lat="41.84026174670725" lon="19.675665949572053"><ele>72.33333333333333</ele><time>2026-05-04T15:14:15Z</time></trkpt><trkpt lat="41.840126354431526" lon="19.675477316670037"><ele>72.66666666666666</ele><time>2026-05-04T15:14:16Z</time></trkpt><trkpt lat="41.83998194677731" lon="19.67527624249018"><ele>73.0</ele><time>2026-05-04T15:14:17Z</time></trkpt><trkpt lat="41.83983294229201" lon="19.675074205727913"><ele>73.0</ele><time>2026-05-04T15:14:18Z</time></trkpt><trkpt lat="41.839677773184455" lon="19.67485929284546"><ele>73.0</ele><time>2026-05-04T15:14:19Z</time></trkpt><trkpt lat="41.839514815305826" lon="19.674634636936275"><ele>70.5</ele><time>2026-05-04T15:14:20Z</time></trkpt><trkpt lat="41.839341294558935" lon="19.674406957176444"><ele>68.0</ele><time>2026-05-04T15:14:21Z</time></trkpt><trkpt lat="41.839170188914814" lon="19.674176095272284"><ele>68.0</ele><time>2026-05-04T15:14:22Z</time></trkpt><trkpt lat="41.83901109982609" lon="19.67394368352604"><ele>68.0</ele><time>2026-05-04T15:14:23Z</time></trkpt><trkpt lat="41.83886422187983" lon="19.67371550150914"><ele>65.66666666666667</ele><time>2026-05-04T15:14:24Z</time></trkpt><trkpt lat="41.83871900904834" lon="19.673498782806604"><ele>63.33333333333333</ele><time>2026-05-04T15:14:25Z</time></trkpt><trkpt lat="41.838568345551856" lon="19.67328442531459"><ele>61.0</ele><time>2026-05-04T15:14:26Z</time></trkpt><trkpt lat="41.83842237725585" lon="19.67306780698262"><ele>62.666666666666664</ele><time>2026-05-04T15:14:27Z</time></trkpt><trkpt lat="41.83829564399984" lon="19.67285520242927"><ele>64.33333333333333</ele><time>2026-05-04T15:14:28Z</time></trkpt><trkpt lat="41.838196956962825" lon="19.672643991355528"><ele>66.0</ele><time>2026-05-04T15:14:29Z</time></trkpt><trkpt lat="41.83813445745462" lon="19.672449663657062"><ele>66.0</ele><time>2026-05-04T15:14:30Z</time></trkpt><trkpt lat="41.838064088759936" lon="19.672308828769655"><ele>66.0</ele><time>2026-05-04T15:14:30.999Z</time></trkpt><trkpt lat="41.83796270062012" lon="19.672214120911107"><ele>66.0</ele><time>2026-05-04T15:14:31.999Z</time></trkpt><trkpt lat="41.837819048522384" lon="19.672136063483904"><ele>66.0</ele><time>2026-05-04T15:14:32.999Z</time></trkpt><trkpt lat="41.83764492635197" lon="19.672090165335387"><ele>68.66666666666667</ele><time>2026-05-04T15:14:33.999Z</time></trkpt><trkpt lat="41.83745381007573" lon="19.67204392676733"><ele>71.33333333333334</ele><time>2026-05-04T15:14:34.999Z</time></trkpt><trkpt lat="41.8372735053862" lon="19.672014010340952"><ele>74.0</ele><time>2026-05-04T15:14:35.999Z</time></trkpt><trkpt lat="41.83712378200349" lon="19.67202713455875"><ele>74.0</ele><time>2026-05-04T15:14:36.999Z</time></trkpt><trkpt lat="41.83699131302037" lon="19.672102953516912"><ele>74.0</ele><time>2026-05-04T15:14:37.999Z</time></trkpt><trkpt lat="41.83685616803064" lon="19.67224462914197"><ele>74.0</ele><time>2026-05-04T15:14:38.999Z</time></trkpt><trkpt lat="41.836703682721996" lon="19.672419909382093"><ele>76.0</ele><time>2026-05-04T15:14:39.999Z</time></trkpt><trkpt lat="41.836536249003146" lon="19.67260571831196"><ele>78.0</ele><time>2026-05-04T15:14:40.999Z</time></trkpt><trkpt lat="41.83637087613693" lon="19.672739078635264"><ele>80.0</ele><time>2026-05-04T15:14:41.999Z</time></trkpt><trkpt lat="41.83623592091478" lon="19.672837234572913"><ele>80.0</ele><time>2026-05-04T15:14:42.999Z</time></trkpt><trkpt lat="41.83611509166571" lon="19.67290188112753"><ele>80.0</ele><time>2026-05-04T15:14:43.999Z</time></trkpt><trkpt lat="41.83600343586771" lon="19.672895680103743"><ele>80.0</ele><time>2026-05-04T15:14:44.999Z</time></trkpt><trkpt lat="41.83589300308625" lon="19.672835057270138"><ele>80.0</ele><time>2026-05-04T15:14:45.999Z</time></trkpt><trkpt lat="41.83578066408352" lon="19.6727219142844"><ele>75.66666666666667</ele><time>2026-05-04T15:14:46.999Z</time></trkpt><trkpt lat="41.835682698624986" lon="19.67255782086433"><ele>71.33333333333333</ele><time>2026-05-04T15:14:47.999Z</time></trkpt><trkpt lat="41.83561062761442" lon="19.67236278537763"><ele>67.0</ele><time>2026-05-04T15:14:48.999Z</time></trkpt><trkpt lat="41.835544206049" lon="19.67216486849824"><ele>67.0</ele><time>2026-05-04T15:14:49.999Z</time></trkpt><trkpt lat="41.83546853750501" lon="19.672006044787587"><ele>67.0</ele><time>2026-05-04T15:14:50.999Z</time></trkpt><trkpt lat="41.835372928953625" lon="19.67191617661501"><ele>67.0</ele><time>2026-05-04T15:14:51.999Z</time></trkpt><trkpt lat="41.835245944459416" lon="19.67187304027242"><ele>67.0</ele><time>2026-05-04T15:14:52.999Z</time></trkpt><trkpt lat="41.835092336852675" lon="19.671871169007545"><ele>67.33333333333333</ele><time>2026-05-04T15:14:53.999Z</time></trkpt><trkpt lat="41.8349309975618" lon="19.671909340600862"><ele>67.66666666666667</ele><time>2026-05-04T15:14:54.999Z</time></trkpt><trkpt lat="41.834767432107164" lon="19.67198928634226"><ele>68.0</ele><time>2026-05-04T15:14:55.999Z</time></trkpt><trkpt lat="41.834600913510606" lon="19.672090392202623"><ele>70.66666666666667</ele><time>2026-05-04T15:14:56.999Z</time></trkpt><trkpt lat="41.834426505872834" lon="19.672208306735147"><ele>73.33333333333333</ele><time>2026-05-04T15:14:57.999Z</time></trkpt><trkpt lat="41.83425635077691" lon="19.672335485116044"><ele>76.0</ele><time>2026-05-04T15:14:58.999Z</time></trkpt><trkpt lat="41.834079158724506" lon="19.672453517302554"><ele>76.0</ele><time>2026-05-04T15:14:59.999Z</time></trkpt><trkpt lat="41.8339064316665" lon="19.672544079846183"><ele>76.0</ele><time>2026-05-04T15:15:00.999Z</time></trkpt><trkpt lat="41.83372518880793" lon="19.672608537386985"><ele>76.0</ele><time>2026-05-04T15:15:01.999Z</time></trkpt><trkpt lat="41.83354173539129" lon="19.672662007015024"><ele>74.0</ele><time>2026-05-04T15:15:02.999Z</time></trkpt><trkpt lat="41.8333812242786" lon="19.6726789835674"><ele>72.0</ele><time>2026-05-04T15:15:03.999Z</time></trkpt><trkpt lat="41.83322773532569" lon="19.672637561874176"><ele>70.0</ele><time>2026-05-04T15:15:04.999Z</time></trkpt><trkpt lat="41.83307582926924" lon="19.67253347266059"><ele>70.0</ele><time>2026-05-04T15:15:05.999Z</time></trkpt><trkpt lat="41.83291421629053" lon="19.67241419123993"><ele>70.0</ele><time>2026-05-04T15:15:06.999Z</time></trkpt><trkpt lat="41.832743852680245" lon="19.672300131285173"><ele>70.0</ele><time>2026-05-04T15:15:07.999Z</time></trkpt><trkpt lat="41.83259216245198" lon="19.672181394172636"><ele>71.0</ele><time>2026-05-04T15:15:08.999Z</time></trkpt><trkpt lat="41.832482410400445" lon="19.6720425961888"><ele>72.0</ele><time>2026-05-04T15:15:09.999Z</time></trkpt><trkpt lat="41.83241269568446" lon="19.67188119414404"><ele>73.0</ele><time>2026-05-04T15:15:10.999Z</time></trkpt><trkpt lat="41.832393123571904" lon="19.67172565801385"><ele>74.0</ele><time>2026-05-04T15:15:11.999Z</time></trkpt><trkpt lat="41.83241787864665" lon="19.671562294472444"><ele>74.0</ele><time>2026-05-04T15:15:12.999Z</time></trkpt><trkpt lat="41.832441510040745" lon="19.67137119747241"><ele>74.0</ele><time>2026-05-04T15:15:13.999Z</time></trkpt><trkpt lat="41.8324577042431" lon="19.671157558154892"><ele>74.0</ele><time>2026-05-04T15:15:14.999Z</time></trkpt><trkpt lat="41.83247376991196" lon="19.67094156267973"><ele>73.75</ele><time>2026-05-04T15:15:15.999Z</time></trkpt><trkpt lat="41.832490261503445" lon="19.67074769890245"><ele>73.5</ele><time>2026-05-04T15:15:16.999Z</time></trkpt><trkpt lat="41.83250742141994" lon="19.670550259099045"><ele>73.25</ele><time>2026-05-04T15:15:17.999Z</time></trkpt><trkpt lat="41.83252454811762" lon="19.67034988153116"><ele>73.0</ele><time>2026-05-04T15:15:18.999Z</time></trkpt><trkpt lat="41.83254390454941" lon="19.670149790567606"><ele>72.75</ele><time>2026-05-04T15:15:19.999Z</time></trkpt><trkpt lat="41.832565295253836" lon="19.669947063264665"><ele>72.5</ele><time>2026-05-04T15:15:20.999Z</time></trkpt><trkpt lat="41.83258881024167" lon="19.66975619141709"><ele>72.25</ele><time>2026-05-04T15:15:21.999Z</time></trkpt><trkpt lat="41.83260986344113" lon="19.669564644099463"><ele>72.0</ele><time>2026-05-04T15:15:22.999Z</time></trkpt><trkpt lat="41.832636157954106" lon="19.669347906929914"><ele>68.33333333333333</ele><time>2026-05-04T15:15:23.999Z</time></trkpt><trkpt lat="41.832668539845564" lon="19.6690968291339"><ele>64.66666666666666</ele><time>2026-05-04T15:15:24.999Z</time></trkpt><trkpt lat="41.83270543076569" lon="19.66883425308589"><ele>61.0</ele><time>2026-05-04T15:15:25.999Z</time></trkpt><trkpt lat="41.83272448244317" lon="19.668571873217264"><ele>61.0</ele><time>2026-05-04T15:15:26.999Z</time></trkpt><trkpt lat="41.832726934381455" lon="19.668327288249333"><ele>61.0</ele><time>2026-05-04T15:15:27.999Z</time></trkpt><trkpt lat="41.8327258827899" lon="19.668106863382082"><ele>61.0</ele><time>2026-05-04T15:15:28.999Z</time></trkpt><trkpt lat="41.83274481468419" lon="19.667914101367106"><ele>60.33333333333333</ele><time>2026-05-04T15:15:29.999Z</time></trkpt><trkpt lat="41.832802381814965" lon="19.66774445410914"><ele>59.66666666666667</ele><time>2026-05-04T15:15:30.999Z</time></trkpt><trkpt lat="41.832899334975316" lon="19.667580667751118"><ele>59.0</ele><time>2026-05-04T15:15:31.999Z</time></trkpt><trkpt lat="41.83302850556495" lon="19.667393930921474"><ele>59.0</ele><time>2026-05-04T15:15:32.999Z</time></trkpt><trkpt lat="41.83315500428941" lon="19.66719683731717"><ele>59.0</ele><time>2026-05-04T15:15:33.999Z</time></trkpt><trkpt lat="41.83324567589297" lon="19.667023359807683"><ele>59.0</ele><time>2026-05-04T15:15:34.999Z</time></trkpt><trkpt lat="41.83329212916179" lon="19.666884497251573"><ele>58.800000000000004</ele><time>2026-05-04T15:15:35.999Z</time></trkpt><trkpt lat="41.83330328582053" lon="19.666744013513064"><ele>58.60000000000001</ele><time>2026-05-04T15:15:36.999Z</time></trkpt><trkpt lat="41.83326928127295" lon="19.666637080674803"><ele>58.4</ele><time>2026-05-04T15:15:37.999Z</time></trkpt><trkpt lat="41.833194708328016" lon="19.666564494862516"><ele>58.2</ele><time>2026-05-04T15:15:39Z</time></trkpt><trkpt lat="41.83306866350647" lon="19.666477318337247"><ele>58.0</ele><time>2026-05-04T15:15:40Z</time></trkpt><trkpt lat="41.832908712323395" lon="19.666386296004845"><ele>58.0</ele><time>2026-05-04T15:15:41Z</time></trkpt><trkpt lat="41.832721295320965" lon="19.666322688328048"><ele>58.0</ele><time>2026-05-04T15:15:42Z</time></trkpt><trkpt lat="41.83251818407543" lon="19.666271078948057"><ele>58.0</ele><time>2026-05-04T15:15:43Z</time></trkpt><trkpt lat="41.83230736951483" lon="19.666190240975492"><ele>55.33333333333333</ele><time>2026-05-04T15:15:44Z</time></trkpt><trkpt lat="41.83211660812499" lon="19.6660967916837"><ele>52.66666666666667</ele><time>2026-05-04T15:15:45Z</time></trkpt><trkpt lat="41.831975438302585" lon="19.66599005542216"><ele>50.0</ele><time>2026-05-04T15:15:46Z</time></trkpt><trkpt lat="41.831881893301926" lon="19.66586386316895"><ele>50.0</ele><time>2026-05-04T15:15:47Z</time></trkpt><trkpt lat="41.83183800434498" lon="19.665730912653224"><ele>50.0</ele><time>2026-05-04T15:15:48Z</time></trkpt><trkpt lat="41.83185307492476" lon="19.665639650801864"><ele>50.0</ele><time>2026-05-04T15:15:49Z</time></trkpt><trkpt lat="41.83191425872794" lon="19.665568423410722"><ele>50.0</ele><time>2026-05-04T15:15:50Z</time></trkpt><trkpt lat="41.832019458517266" lon="19.665469396926074"><ele>50.0</ele><time>2026-05-04T15:15:51Z</time></trkpt><trkpt lat="41.8321519941336" lon="19.665338892853303"><ele>49.0</ele><time>2026-05-04T15:15:52Z</time></trkpt><trkpt lat="41.832247126333236" lon="19.665201348861867"><ele>48.0</ele><time>2026-05-04T15:15:53Z</time></trkpt><trkpt lat="41.83229006984295" lon="19.665053070167566"><ele>47.0</ele><time>2026-05-04T15:15:54Z</time></trkpt><trkpt lat="41.832291873326554" lon="19.66487879514322"><ele>46.0</ele><time>2026-05-04T15:15:55Z</time></trkpt><trkpt lat="41.83226823295324" lon="19.66467601888657"><ele>46.0</ele><time>2026-05-04T15:15:56Z</time></trkpt><trkpt lat="41.8322330456179" lon="19.66445512767132"><ele>46.0</ele><time>2026-05-04T15:15:57Z</time></trkpt><trkpt lat="41.83216777028927" lon="19.664227105197092"><ele>46.0</ele><time>2026-05-04T15:15:58Z</time></trkpt><trkpt lat="41.83207101560176" lon="19.663998510188602"><ele>44.66666666666667</ele><time>2026-05-04T15:15:59Z</time></trkpt><trkpt lat="41.8319597697095" lon="19.663758762163237"><ele>43.333333333333336</ele><time>2026-05-04T15:16:00Z</time></trkpt><trkpt lat="41.831851663910925" lon="19.663497237267443"><ele>42.0</ele><time>2026-05-04T15:16:01Z</time></trkpt><trkpt lat="41.83174887350303" lon="19.663225188100174"><ele>41.666666666666664</ele><time>2026-05-04T15:16:02Z</time></trkpt><trkpt lat="41.83165821069288" lon="19.662961819304527"><ele>41.33333333333333</ele><time>2026-05-04T15:16:03Z</time></trkpt><trkpt lat="41.83157081050598" lon="19.662725349266765"><ele>41.0</ele><time>2026-05-04T15:16:04Z</time></trkpt><trkpt lat="41.83148886583729" lon="19.662513649547392"><ele>39.25</ele><time>2026-05-04T15:16:05Z</time></trkpt><trkpt lat="41.83141515607513" lon="19.662337416579444"><ele>37.5</ele><time>2026-05-04T15:16:06Z</time></trkpt><trkpt lat="41.83133911893274" lon="19.662210377587726"><ele>35.75</ele><time>2026-05-04T15:16:07Z</time></trkpt><trkpt lat="41.831231903327634" lon="19.662120577121037"><ele>34.0</ele><time>2026-05-04T15:16:08Z</time></trkpt><trkpt lat="41.83108760589079" lon="19.662048353954997"><ele>35.0</ele><time>2026-05-04T15:16:09Z</time></trkpt><trkpt lat="41.83091693600245" lon="19.661968595534663"><ele>36.0</ele><time>2026-05-04T15:16:10Z</time></trkpt><trkpt lat="41.830736055582804" lon="19.661868806878044"><ele>37.0</ele><time>2026-05-04T15:16:11Z</time></trkpt><trkpt lat="41.83055686065862" lon="19.66175243033107"><ele>36.333333333333336</ele><time>2026-05-04T15:16:12Z</time></trkpt><trkpt lat="41.83037107697137" lon="19.66161607491898"><ele>35.666666666666664</ele><time>2026-05-04T15:16:13Z</time></trkpt><trkpt lat="41.8302037270441" lon="19.661456031873882"><ele>35.0</ele><time>2026-05-04T15:16:14Z</time></trkpt><trkpt lat="41.830075913687864" lon="19.661275156365644"><ele>32.666666666666664</ele><time>2026-05-04T15:16:15Z</time></trkpt><trkpt lat="41.82996975043765" lon="19.66107269634295"><ele>30.333333333333336</ele><time>2026-05-04T15:16:16Z</time></trkpt><trkpt lat="41.82983784097501" lon="19.660864881640645"><ele>28.0</ele><time>2026-05-04T15:16:17Z</time></trkpt><trkpt lat="41.829688265096365" lon="19.660653521208843"><ele>28.0</ele><time>2026-05-04T15:16:18Z</time></trkpt><trkpt lat="41.82953634510244" lon="19.66043510513189"><ele>28.0</ele><time>2026-05-04T15:16:19Z</time></trkpt><trkpt lat="41.8293714699387" lon="19.660207092445948"><ele>29.5</ele><time>2026-05-04T15:16:20Z</time></trkpt><trkpt lat="41.82920963646179" lon="19.659965436161805"><ele>31.0</ele><time>2026-05-04T15:16:21Z</time></trkpt><trkpt lat="41.8290623955678" lon="19.659710618600187"><ele>31.0</ele><time>2026-05-04T15:16:22Z</time></trkpt><trkpt lat="41.828941355361536" lon="19.65950974216064"><ele>31.0</ele><time>2026-05-04T15:16:23Z</time></trkpt><trkpt lat="41.82881257353149" lon="19.65936103660759"><ele>31.0</ele><time>2026-05-04T15:16:24Z</time></trkpt><trkpt lat="41.82865224829969" lon="19.659240839731872"><ele>30.666666666666668</ele><time>2026-05-04T15:16:25Z</time></trkpt><trkpt lat="41.82847089445573" lon="19.659114737876983"><ele>30.333333333333336</ele><time>2026-05-04T15:16:26Z</time></trkpt><trkpt lat="41.828303745865895" lon="19.65895131185283"><ele>30.0</ele><time>2026-05-04T15:16:27Z</time></trkpt><trkpt lat="41.828157245430724" lon="19.658747710636224"><ele>28.0</ele><time>2026-05-04T15:16:28Z</time></trkpt><trkpt lat="41.82804396947623" lon="19.65852750659012"><ele>26.0</ele><time>2026-05-04T15:16:29Z</time></trkpt><trkpt lat="41.827942260198974" lon="19.65832508958125"><ele>24.0</ele><time>2026-05-04T15:16:30Z</time></trkpt><trkpt lat="41.82783221849244" lon="19.658185131671168"><ele>24.0</ele><time>2026-05-04T15:16:31Z</time></trkpt><trkpt lat="41.827708920564774" lon="19.658127264590284"><ele>24.0</ele><time>2026-05-04T15:16:32Z</time></trkpt><trkpt lat="41.8275651093561" lon="19.658129600833266"><ele>24.0</ele><time>2026-05-04T15:16:33Z</time></trkpt><trkpt lat="41.82739758668707" lon="19.658160272545693"><ele>24.0</ele><time>2026-05-04T15:16:34Z</time></trkpt><trkpt lat="41.82720611303323" lon="19.65818213097449"><ele>27.333333333333336</ele><time>2026-05-04T15:16:35Z</time></trkpt><trkpt lat="41.82700721687141" lon="19.658193090485764"><ele>30.666666666666668</ele><time>2026-05-04T15:16:36Z</time></trkpt><trkpt lat="41.8267973436639" lon="19.658205325180607"><ele>34.0</ele><time>2026-05-04T15:16:37Z</time></trkpt><trkpt lat="41.826582285950394" lon="19.658225579837765"><ele>35.333333333333336</ele><time>2026-05-04T15:16:38Z</time></trkpt><trkpt lat="41.82635765238342" lon="19.658246811947656"><ele>36.666666666666664</ele><time>2026-05-04T15:16:39Z</time></trkpt><trkpt lat="41.826139006219535" lon="19.658269132107392"><ele>38.0</ele><time>2026-05-04T15:16:40Z</time></trkpt><trkpt lat="41.8259404321832" lon="19.65826976176215"><ele>38.666666666666664</ele><time>2026-05-04T15:16:41Z</time></trkpt><trkpt lat="41.82575953097452" lon="19.65824122941633"><ele>39.333333333333336</ele><time>2026-05-04T15:16:42Z</time></trkpt><trkpt lat="41.82557063164406" lon="19.658170992583205"><ele>40.0</ele><time>2026-05-04T15:16:43Z</time></trkpt><trkpt lat="41.825388704671425" lon="19.658075707270207"><ele>40.0</ele><time>2026-05-04T15:16:44Z</time></trkpt><trkpt lat="41.82519600457041" lon="19.657981068555497"><ele>40.0</ele><time>2026-05-04T15:16:45Z</time></trkpt><trkpt lat="41.82499903244315" lon="19.657898297456832"><ele>40.0</ele><time>2026-05-04T15:16:46Z</time></trkpt><trkpt lat="41.82479852817071" lon="19.657826161754056"><ele>39.0</ele><time>2026-05-04T15:16:47Z</time></trkpt><trkpt lat="41.82458922280729" lon="19.6577599743284"><ele>38.0</ele><time>2026-05-04T15:16:48Z</time></trkpt><trkpt lat="41.82437154296702" lon="19.657682321362298"><ele>37.0</ele><time>2026-05-04T15:16:49Z</time></trkpt><trkpt lat="41.82415085485548" lon="19.657595488329378"><ele>37.0</ele><time>2026-05-04T15:16:50Z</time></trkpt><trkpt lat="41.82394836796658" lon="19.657515263583903"><ele>37.0</ele><time>2026-05-04T15:16:51Z</time></trkpt><trkpt lat="41.823783658129756" lon="19.657428517329194"><ele>37.0</ele><time>2026-05-04T15:16:52Z</time></trkpt><trkpt lat="41.823633339703356" lon="19.65729774931877"><ele>37.0</ele><time>2026-05-04T15:16:53Z</time></trkpt><trkpt lat="41.82348496649819" lon="19.657131528089295"><ele>37.0</ele><time>2026-05-04T15:16:54Z</time></trkpt><trkpt lat="41.823329305780966" lon="19.656961527241613"><ele>37.0</ele><time>2026-05-04T15:16:55Z</time></trkpt><trkpt lat="41.823154039119345" lon="19.656794014792318"><ele>36.0</ele><time>2026-05-04T15:16:56Z</time></trkpt><trkpt lat="41.82296815609467" lon="19.656628835863955"><ele>35.0</ele><time>2026-05-04T15:16:57Z</time></trkpt><trkpt lat="41.82277470317139" lon="19.656451201984293"><ele>34.0</ele><time>2026-05-04T15:16:58Z</time></trkpt><trkpt lat="41.82258884700409" lon="19.65625796756936"><ele>33.0</ele><time>2026-05-04T15:16:59Z</time></trkpt><trkpt lat="41.82241514597567" lon="19.65606037415408"><ele>33.0</ele><time>2026-05-04T15:17:00Z</time></trkpt><trkpt lat="41.82225678136349" lon="19.65587958629714"><ele>33.0</ele><time>2026-05-04T15:17:01Z</time></trkpt><trkpt lat="41.8220962684902" lon="19.655704034453755"><ele>33.0</ele><time>2026-05-04T15:17:02Z</time></trkpt><trkpt lat="41.821942471796596" lon="19.655535073660058"><ele>33.666666666666664</ele><time>2026-05-04T15:17:03Z</time></trkpt><trkpt lat="41.82178885346594" lon="19.655385442673893"><ele>34.33333333333333</ele><time>2026-05-04T15:17:04Z</time></trkpt><trkpt lat="41.82161992857155" lon="19.65525285788514"><ele>35.0</ele><time>2026-05-04T15:17:05Z</time></trkpt><trkpt lat="41.821447657722516" lon="19.655113624799075"><ele>35.0</ele><time>2026-05-04T15:17:06Z</time></trkpt><trkpt lat="41.821289246005094" lon="19.65496321763575"><ele>35.0</ele><time>2026-05-04T15:17:07Z</time></trkpt><trkpt lat="41.821163658671686" lon="19.654814070456393"><ele>35.0</ele><time>2026-05-04T15:17:08Z</time></trkpt><trkpt lat="41.82104624981881" lon="19.654673280592576"><ele>33.25</ele><time>2026-05-04T15:17:09Z</time></trkpt><trkpt lat="41.82091459721345" lon="19.65454594953138"><ele>31.5</ele><time>2026-05-04T15:17:10Z</time></trkpt><trkpt lat="41.820786068849486" lon="19.654450201687233"><ele>29.75</ele><time>2026-05-04T15:17:11Z</time></trkpt><trkpt lat="41.82066795177987" lon="19.654399181029092"><ele>28.0</ele><time>2026-05-04T15:17:12Z</time></trkpt><trkpt lat="41.82055792224814" lon="19.6543984791487"><ele>30.333333333333336</ele><time>2026-05-04T15:17:13Z</time></trkpt><trkpt lat="41.82043287541492" lon="19.654470690860443"><ele>32.666666666666664</ele><time>2026-05-04T15:17:14Z</time></trkpt><trkpt lat="41.82029249295857" lon="19.654586200381708"><ele>35.0</ele><time>2026-05-04T15:17:15Z</time></trkpt><trkpt lat="41.82013657986349" lon="19.654723671021912"><ele>35.0</ele><time>2026-05-04T15:17:15.999Z</time></trkpt><trkpt lat="41.819954231230014" lon="19.65485989568207"><ele>35.0</ele><time>2026-05-04T15:17:16.999Z</time></trkpt><trkpt lat="41.81976912835361" lon="19.6549649815136"><ele>35.0</ele><time>2026-05-04T15:17:17.999Z</time></trkpt><trkpt lat="41.819593117334186" lon="19.655028488447655"><ele>35.0</ele><time>2026-05-04T15:17:18.999Z</time></trkpt><trkpt lat="41.81943118824941" lon="19.65503186288985"><ele>35.0</ele><time>2026-05-04T15:17:19.999Z</time></trkpt><trkpt lat="41.819269574398895" lon="19.654970303014686"><ele>35.0</ele><time>2026-05-04T15:17:20.999Z</time></trkpt><trkpt lat="41.81910368512245" lon="19.654871412429642"><ele>33.33333333333333</ele><time>2026-05-04T15:17:21.999Z</time></trkpt><trkpt lat="41.818922929505945" lon="19.654761987094776"><ele>31.666666666666664</ele><time>2026-05-04T15:17:22.999Z</time></trkpt><trkpt lat="41.81873718658808" lon="19.65467993724571"><ele>30.0</ele><time>2026-05-04T15:17:23.999Z</time></trkpt><trkpt lat="41.818538350458276" lon="19.65462935744428"><ele>31.0</ele><time>2026-05-04T15:17:24.999Z</time></trkpt><trkpt lat="41.81833150592456" lon="19.654615545798958"><ele>32.0</ele><time>2026-05-04T15:17:25.999Z</time></trkpt><trkpt lat="41.818114537150365" lon="19.654607658598447"><ele>33.0</ele><time>2026-05-04T15:17:26.999Z</time></trkpt><trkpt lat="41.81789147839429" lon="19.654594787397013"><ele>33.0</ele><time>2026-05-04T15:17:27.999Z</time></trkpt><trkpt lat="41.81766378147308" lon="19.654576586800683"><ele>33.0</ele><time>2026-05-04T15:17:28.999Z</time></trkpt><trkpt lat="41.81743826247857" lon="19.65456018796587"><ele>38.0</ele><time>2026-05-04T15:17:29.999Z</time></trkpt><trkpt lat="41.81721122772121" lon="19.654543879995952"><ele>43.0</ele><time>2026-05-04T15:17:30.999Z</time></trkpt><trkpt lat="41.81698120477373" lon="19.65453076278143"><ele>43.0</ele><time>2026-05-04T15:17:31.999Z</time></trkpt><trkpt lat="41.816750743554685" lon="19.654525262293845"><ele>43.0</ele><time>2026-05-04T15:17:32.999Z</time></trkpt><trkpt lat="41.81652284855591" lon="19.654541750609194"><ele>43.0</ele><time>2026-05-04T15:17:33.999Z</time></trkpt><trkpt lat="41.816296981810886" lon="19.654587605384666"><ele>43.0</ele><time>2026-05-04T15:17:34.999Z</time></trkpt><trkpt lat="41.816068609416185" lon="19.654635971561657"><ele>43.5</ele><time>2026-05-04T15:17:35.999Z</time></trkpt><trkpt lat="41.81583534992057" lon="19.654682993045828"><ele>44.0</ele><time>2026-05-04T15:17:36.999Z</time></trkpt><trkpt lat="41.81561245436109" lon="19.654717115985086"><ele>44.0</ele><time>2026-05-04T15:17:37.999Z</time></trkpt><trkpt lat="41.81537982870025" lon="19.65478264454613"><ele>44.0</ele><time>2026-05-04T15:17:38.999Z</time></trkpt><trkpt lat="41.81514606720844" lon="19.654847604061203"><ele>42.5</ele><time>2026-05-04T15:17:39.999Z</time></trkpt><trkpt lat="41.81490381568517" lon="19.654917632752618"><ele>41.0</ele><time>2026-05-04T15:17:40.999Z</time></trkpt><trkpt lat="41.81466465352445" lon="19.65499329224602"><ele>41.0</ele><time>2026-05-04T15:17:41.999Z</time></trkpt><trkpt lat="41.81441729816776" lon="19.65507134965368"><ele>41.0</ele><time>2026-05-04T15:17:42.999Z</time></trkpt><trkpt lat="41.81416503627495" lon="19.655115822436088"><ele>34.0</ele><time>2026-05-04T15:17:44Z</time></trkpt><trkpt lat="41.81390989642328" lon="19.65510707193843"><ele>27.0</ele><time>2026-05-04T15:17:45Z</time></trkpt><trkpt lat="41.81365164099654" lon="19.655067340323566"><ele>30.0</ele><time>2026-05-04T15:17:46Z</time></trkpt><trkpt lat="41.813388735147484" lon="19.65501658815409"><ele>33.0</ele><time>2026-05-04T15:17:47Z</time></trkpt><trkpt lat="41.81314939298005" lon="19.654974922200854"><ele>33.0</ele><time>2026-05-04T15:17:48Z</time></trkpt><trkpt lat="41.812929775372154" lon="19.65495554077577"><ele>33.0</ele><time>2026-05-04T15:17:49Z</time></trkpt><trkpt lat="41.81270641963034" lon="19.654980572112425"><ele>33.0</ele><time>2026-05-04T15:17:50Z</time></trkpt><trkpt lat="41.81248666055767" lon="19.655030552573766"><ele>33.666666666666664</ele><time>2026-05-04T15:17:51Z</time></trkpt><trkpt lat="41.8122847283689" lon="19.65507480307963"><ele>34.33333333333333</ele><time>2026-05-04T15:17:52Z</time></trkpt><trkpt lat="41.812087045215605" lon="19.65510759074802"><ele>35.0</ele><time>2026-05-04T15:17:53Z</time></trkpt><trkpt lat="41.81190828530022" lon="19.65513056127468"><ele>32.666666666666664</ele><time>2026-05-04T15:17:54Z</time></trkpt><trkpt lat="41.81173044404763" lon="19.655174219195967"><ele>30.333333333333336</ele><time>2026-05-04T15:17:55Z</time></trkpt><trkpt lat="41.811567547531446" lon="19.655258782441393"><ele>28.0</ele><time>2026-05-04T15:17:56Z</time></trkpt><trkpt lat="41.81140316464096" lon="19.655411655732227"><ele>30.666666666666668</ele><time>2026-05-04T15:17:57Z</time></trkpt><trkpt lat="41.81122905275007" lon="19.655585960235314"><ele>33.333333333333336</ele><time>2026-05-04T15:17:58Z</time></trkpt><trkpt lat="41.81104058303562" lon="19.65571468316374"><ele>36.0</ele><time>2026-05-04T15:17:59Z</time></trkpt><trkpt lat="41.810827923325185" lon="19.655787372300708"><ele>36.0</ele><time>2026-05-04T15:18:00Z</time></trkpt><trkpt lat="41.81061243520198" lon="19.655827519519903"><ele>36.0</ele><time>2026-05-04T15:18:01Z</time></trkpt><trkpt lat="41.810417016848085" lon="19.65585084295722"><ele>36.0</ele><time>2026-05-04T15:18:02Z</time></trkpt><trkpt lat="41.810250514942624" lon="19.655889738298654"><ele>34.666666666666664</ele><time>2026-05-04T15:18:03Z</time></trkpt><trkpt lat="41.81010949540977" lon="19.655970733796693"><ele>33.33333333333333</ele><time>2026-05-04T15:18:04Z</time></trkpt><trkpt lat="41.80998345757973" lon="19.656113253757088"><ele>32.0</ele><time>2026-05-04T15:18:05Z</time></trkpt><trkpt lat="41.80984926607951" lon="19.656291062113006"><ele>36.33333333333333</ele><time>2026-05-04T15:18:06Z</time></trkpt><trkpt lat="41.80970179094668" lon="19.656464753014806"><ele>40.666666666666664</ele><time>2026-05-04T15:18:07Z</time></trkpt><trkpt lat="41.80954853858075" lon="19.656646336720037"><ele>45.0</ele><time>2026-05-04T15:18:08Z</time></trkpt><trkpt lat="41.80940104312589" lon="19.65682491329803"><ele>44.25</ele><time>2026-05-04T15:18:09Z</time></trkpt><trkpt lat="41.80926472650845" lon="19.656982660453735"><ele>43.5</ele><time>2026-05-04T15:18:10Z</time></trkpt><trkpt lat="41.80914487232228" lon="19.65708953055929"><ele>42.75</ele><time>2026-05-04T15:18:11Z</time></trkpt><trkpt lat="41.80902835065349" lon="19.657142564721457"><ele>42.0</ele><time>2026-05-04T15:18:12Z</time></trkpt><trkpt lat="41.808891818235224" lon="19.657146227060238"><ele>42.0</ele><time>2026-05-04T15:18:13Z</time></trkpt><trkpt lat="41.80873001601129" lon="19.657109109492048"><ele>42.0</ele><time>2026-05-04T15:18:14Z</time></trkpt><trkpt lat="41.808559043526905" lon="19.657049558746408"><ele>42.0</ele><time>2026-05-04T15:18:15Z</time></trkpt><trkpt lat="41.808393797427" lon="19.6569722899159"><ele>40.5</ele><time>2026-05-04T15:18:16Z</time></trkpt><trkpt lat="41.80826170455688" lon="19.656863644460724"><ele>39.0</ele><time>2026-05-04T15:18:17Z</time></trkpt><trkpt lat="41.80817270322153" lon="19.65672114772781"><ele>37.5</ele><time>2026-05-04T15:18:18Z</time></trkpt><trkpt lat="41.80812001474823" lon="19.656530858906084"><ele>36.0</ele><time>2026-05-04T15:18:19Z</time></trkpt><trkpt lat="41.808085279380734" lon="19.65632185189654"><ele>36.0</ele><time>2026-05-04T15:18:20Z</time></trkpt><trkpt lat="41.808030312435584" lon="19.65615849947544"><ele>36.0</ele><time>2026-05-04T15:18:21Z</time></trkpt><trkpt lat="41.807944327852425" lon="19.656050957901005"><ele>36.0</ele><time>2026-05-04T15:18:22Z</time></trkpt><trkpt lat="41.807825301899356" lon="19.65599019892714"><ele>36.0</ele><time>2026-05-04T15:18:23Z</time></trkpt><trkpt lat="41.807690567409914" lon="19.655976824040003"><ele>35.666666666666664</ele><time>2026-05-04T15:18:24Z</time></trkpt><trkpt lat="41.8075337283901" lon="19.656005209515175"><ele>35.33333333333333</ele><time>2026-05-04T15:18:25Z</time></trkpt><trkpt lat="41.80736264477515" lon="19.65605495731542"><ele>35.0</ele><time>2026-05-04T15:18:26Z</time></trkpt><trkpt lat="41.80717818655733" lon="19.65611860627657"><ele>38.0</ele><time>2026-05-04T15:18:27Z</time></trkpt><trkpt lat="41.80698617998041" lon="19.656165558626032"><ele>41.0</ele><time>2026-05-04T15:18:28Z</time></trkpt><trkpt lat="41.806784416431405" lon="19.65616769832828"><ele>44.0</ele><time>2026-05-04T15:18:29Z</time></trkpt><trkpt lat="41.80657774126982" lon="19.65614329818993"><ele>43.666666666666664</ele><time>2026-05-04T15:18:30Z</time></trkpt><trkpt lat="41.80637064181696" lon="19.6561174554069"><ele>43.333333333333336</ele><time>2026-05-04T15:18:31Z</time></trkpt><trkpt lat="41.80618013411209" lon="19.656110281076657"><ele>43.0</ele><time>2026-05-04T15:18:32Z</time></trkpt><trkpt lat="41.80598233844247" lon="19.65613245220996"><ele>43.0</ele><time>2026-05-04T15:18:33Z</time></trkpt><trkpt lat="41.80577909966413" lon="19.656183353403108"><ele>43.0</ele><time>2026-05-04T15:18:34Z</time></trkpt><trkpt lat="41.8055712822994" lon="19.65623795897999"><ele>43.0</ele><time>2026-05-04T15:18:35Z</time></trkpt><trkpt lat="41.805373150251924" lon="19.656286900607945"><ele>43.0</ele><time>2026-05-04T15:18:36Z</time></trkpt><trkpt lat="41.80517692971411" lon="19.656324282179675"><ele>43.0</ele><time>2026-05-04T15:18:37Z</time></trkpt><trkpt lat="41.80497827906932" lon="19.656360611871417"><ele>43.0</ele><time>2026-05-04T15:18:38Z</time></trkpt><trkpt lat="41.804799513123974" lon="19.65639029729004"><ele>42.333333333333336</ele><time>2026-05-04T15:18:39Z</time></trkpt><trkpt lat="41.804627030141766" lon="19.656428816720414"><ele>41.666666666666664</ele><time>2026-05-04T15:18:40Z</time></trkpt><trkpt lat="41.80448448108262" lon="19.656501697067437"><ele>41.0</ele><time>2026-05-04T15:18:41Z</time></trkpt><trkpt lat="41.804353713958825" lon="19.656618932827232"><ele>40.0</ele><time>2026-05-04T15:18:42Z</time></trkpt><trkpt lat="41.80423725114635" lon="19.656780723039052"><ele>39.0</ele><time>2026-05-04T15:18:43Z</time></trkpt><trkpt lat="41.80413020684474" lon="19.65697478200361"><ele>38.0</ele><time>2026-05-04T15:18:44Z</time></trkpt><trkpt lat="41.804016786025656" lon="19.657169488651874"><ele>38.0</ele><time>2026-05-04T15:18:45Z</time></trkpt><trkpt lat="41.803891645090594" lon="19.657364912916027"><ele>38.0</ele><time>2026-05-04T15:18:46Z</time></trkpt><trkpt lat="41.803768626220275" lon="19.65755597185658"><ele>38.0</ele><time>2026-05-04T15:18:47Z</time></trkpt><trkpt lat="41.803661695861464" lon="19.657730996896156"><ele>37.33333333333333</ele><time>2026-05-04T15:18:48Z</time></trkpt><trkpt lat="41.80354979993053" lon="19.657877672497357"><ele>36.666666666666664</ele><time>2026-05-04T15:18:49Z</time></trkpt><trkpt lat="41.803419813400566" lon="19.65798113584959"><ele>36.0</ele><time>2026-05-04T15:18:50Z</time></trkpt><trkpt lat="41.80326597084822" lon="19.658038190781987"><ele>36.0</ele><time>2026-05-04T15:18:51Z</time></trkpt><trkpt lat="41.80308497460595" lon="19.658058220109854"><ele>36.0</ele><time>2026-05-04T15:18:52Z</time></trkpt><trkpt lat="41.802886990226035" lon="19.658062708561005"><ele>36.0</ele><time>2026-05-04T15:18:53Z</time></trkpt><trkpt lat="41.80268660403727" lon="19.65804811799707"><ele>37.0</ele><time>2026-05-04T15:18:54Z</time></trkpt><trkpt lat="41.80249592534907" lon="19.65798911418573"><ele>38.0</ele><time>2026-05-04T15:18:55Z</time></trkpt><trkpt lat="41.80233087054345" lon="19.657908512785244"><ele>39.0</ele><time>2026-05-04T15:18:56Z</time></trkpt><trkpt lat="41.80217929929939" lon="19.65786543031207"><ele>39.0</ele><time>2026-05-04T15:18:57Z</time></trkpt><trkpt lat="41.802021599885265" lon="19.657877117379773"><ele>39.0</ele><time>2026-05-04T15:18:58Z</time></trkpt><trkpt lat="41.8018491685955" lon="19.657936837385897"><ele>39.0</ele><time>2026-05-04T15:18:59Z</time></trkpt><trkpt lat="41.801663680671226" lon="19.658030224098994"><ele>36.0</ele><time>2026-05-04T15:19:00Z</time></trkpt><trkpt lat="41.801467887690684" lon="19.658146621923056"><ele>33.0</ele><time>2026-05-04T15:19:01Z</time></trkpt><trkpt lat="41.80126435903226" lon="19.658266901863403"><ele>30.0</ele><time>2026-05-04T15:19:02Z</time></trkpt><trkpt lat="41.80105784137843" lon="19.658377387959792"><ele>29.666666666666664</ele><time>2026-05-04T15:19:03Z</time></trkpt><trkpt lat="41.800881175923784" lon="19.658477181746612"><ele>29.333333333333332</ele><time>2026-05-04T15:19:04Z</time></trkpt><trkpt lat="41.80071108891917" lon="19.658568983840993"><ele>29.0</ele><time>2026-05-04T15:19:05Z</time></trkpt><trkpt lat="41.80056706219722" lon="19.65863535009781"><ele>29.0</ele><time>2026-05-04T15:19:06Z</time></trkpt><trkpt lat="41.80045021157109" lon="19.658695155772737"><ele>29.0</ele><time>2026-05-04T15:19:07Z</time></trkpt><trkpt lat="41.80034191866325" lon="19.658764589701136"><ele>29.0</ele><time>2026-05-04T15:19:08Z</time></trkpt><trkpt lat="41.80021552865947" lon="19.658847460321287"><ele>29.0</ele><time>2026-05-04T15:19:09Z</time></trkpt><trkpt lat="41.800092247888145" lon="19.658933404945405"><ele>27.0</ele><time>2026-05-04T15:19:10Z</time></trkpt><trkpt lat="41.79997524838929" lon="19.659028801706658"><ele>25.0</ele><time>2026-05-04T15:19:11Z</time></trkpt><trkpt lat="41.79986320501314" lon="19.659117068463885"><ele>23.0</ele><time>2026-05-04T15:19:12Z</time></trkpt><trkpt lat="41.79974650978769" lon="19.65920479615395"><ele>21.0</ele><time>2026-05-04T15:19:13Z</time></trkpt><trkpt lat="41.79961889018758" lon="19.65929613539902"><ele>21.0</ele><time>2026-05-04T15:19:14Z</time></trkpt><trkpt lat="41.79948764988225" lon="19.65939303900321"><ele>21.0</ele><time>2026-05-04T15:19:15Z</time></trkpt><trkpt lat="41.79936102725151" lon="19.65947899349986"><ele>21.0</ele><time>2026-05-04T15:19:16Z</time></trkpt><trkpt lat="41.79923480686622" lon="19.659557582657115"><ele>21.0</ele><time>2026-05-04T15:19:17Z</time></trkpt><trkpt lat="41.79910358419591" lon="19.659639263242767"><ele>21.25</ele><time>2026-05-04T15:19:18Z</time></trkpt><trkpt lat="41.79897635050427" lon="19.65972481894014"><ele>21.5</ele><time>2026-05-04T15:19:19Z</time></trkpt><trkpt lat="41.798849384532446" lon="19.65981599781909"><ele>21.75</ele><time>2026-05-04T15:19:20Z</time></trkpt><trkpt lat="41.79872354967975" lon="19.659892139957346"><ele>22.0</ele><time>2026-05-04T15:19:21Z</time></trkpt><trkpt lat="41.79859724411555" lon="19.65993502771967"><ele>20.5</ele><time>2026-05-04T15:19:22Z</time></trkpt><trkpt lat="41.798470222906715" lon="19.65994186341113"><ele>19.0</ele><time>2026-05-04T15:19:23Z</time></trkpt><trkpt lat="41.79833915110699" lon="19.65990966116135"><ele>17.5</ele><time>2026-05-04T15:19:24Z</time></trkpt><trkpt lat="41.7982023585326" lon="19.659856853713084"><ele>16.0</ele><time>2026-05-04T15:19:25Z</time></trkpt><trkpt lat="41.7980629212357" lon="19.659801467871404"><ele>16.0</ele><time>2026-05-04T15:19:26Z</time></trkpt><trkpt lat="41.797918979118286" lon="19.65975076634605"><ele>16.0</ele><time>2026-05-04T15:19:27Z</time></trkpt><trkpt lat="41.797789053400706" lon="19.659703606716988"><ele>16.0</ele><time>2026-05-04T15:19:28Z</time></trkpt><trkpt lat="41.797667728435435" lon="19.65966195730502"><ele>16.0</ele><time>2026-05-04T15:19:29Z</time></trkpt><trkpt lat="41.79755024460032" lon="19.659625646168564"><ele>15.5</ele><time>2026-05-04T15:19:30Z</time></trkpt><trkpt lat="41.79743916204812" lon="19.65959373911444"><ele>15.0</ele><time>2026-05-04T15:19:31Z</time></trkpt><trkpt lat="41.79732372531092" lon="19.65956597121647"><ele>14.5</ele><time>2026-05-04T15:19:31.999Z</time></trkpt><trkpt lat="41.797200899408296" lon="19.659540376328426"><ele>14.0</ele><time>2026-05-04T15:19:32.999Z</time></trkpt><trkpt lat="41.79707556619094" lon="19.65951373843359"><ele>14.0</ele><time>2026-05-04T15:19:33.999Z</time></trkpt><trkpt lat="41.796946631692514" lon="19.65948046718047"><ele>14.0</ele><time>2026-05-04T15:19:34.999Z</time></trkpt><trkpt lat="41.79680769264049" lon="19.65943959708148"><ele>14.0</ele><time>2026-05-04T15:19:35.999Z</time></trkpt><trkpt lat="41.79666178769319" lon="19.659398275367007"><ele>14.0</ele><time>2026-05-04T15:19:36.999Z</time></trkpt><trkpt lat="41.79650680316483" lon="19.659358139771943"><ele>12.333333333333334</ele><time>2026-05-04T15:19:37.999Z</time></trkpt><trkpt lat="41.79634638433778" lon="19.659322898637672"><ele>10.666666666666668</ele><time>2026-05-04T15:19:38.999Z</time></trkpt><trkpt lat="41.79618386446366" lon="19.65929382020458"><ele>9.0</ele><time>2026-05-04T15:19:39.999Z</time></trkpt><trkpt lat="41.79601108952418" lon="19.659262310712915"><ele>10.333333333333332</ele><time>2026-05-04T15:19:40.999Z</time></trkpt><trkpt lat="41.79583635216439" lon="19.659226231824633"><ele>11.666666666666666</ele><time>2026-05-04T15:19:41.999Z</time></trkpt><trkpt lat="41.79566624413858" lon="19.65918145038686"><ele>13.0</ele><time>2026-05-04T15:19:42.999Z</time></trkpt><trkpt lat="41.795495243902906" lon="19.65913379781823"><ele>13.0</ele><time>2026-05-04T15:19:43.999Z</time></trkpt><trkpt lat="41.79532556898453" lon="19.65908935779544"><ele>13.0</ele><time>2026-05-04T15:19:44.999Z</time></trkpt><trkpt lat="41.795146872060776" lon="19.65905002666091"><ele>13.0</ele><time>2026-05-04T15:19:45.999Z</time></trkpt><trkpt lat="41.79496642815315" lon="19.65900888077168"><ele>12.0</ele><time>2026-05-04T15:19:46.999Z</time></trkpt><trkpt lat="41.79478401722813" lon="19.658962675452493"><ele>11.0</ele><time>2026-05-04T15:19:47.999Z</time></trkpt><trkpt lat="41.794595451320696" lon="19.658909582537166"><ele>10.0</ele><time>2026-05-04T15:19:48.999Z</time></trkpt><trkpt lat="41.79440865789581" lon="19.65885483922558"><ele>12.333333333333334</ele><time>2026-05-04T15:19:50Z</time></trkpt><trkpt lat="41.794215117824784" lon="19.65880521614976"><ele>14.666666666666668</ele><time>2026-05-04T15:19:51Z</time></trkpt><trkpt lat="41.79402178502909" lon="19.658764397843605"><ele>17.0</ele><time>2026-05-04T15:19:52Z</time></trkpt><trkpt lat="41.793824179530354" lon="19.658724983393657"><ele>17.0</ele><time>2026-05-04T15:19:53Z</time></trkpt><trkpt lat="41.79363951627614" lon="19.65867270510261"><ele>17.0</ele><time>2026-05-04T15:19:54Z</time></trkpt><trkpt lat="41.7934780015051" lon="19.658618562051366"><ele>17.0</ele><time>2026-05-04T15:19:55Z</time></trkpt><trkpt lat="41.79334019731999" lon="19.658561647133418"><ele>17.5</ele><time>2026-05-04T15:19:56Z</time></trkpt><trkpt lat="41.79323166961222" lon="19.658478964701665"><ele>18.0</ele><time>2026-05-04T15:19:57Z</time></trkpt><trkpt lat="41.793137157227115" lon="19.658350267716273"><ele>18.5</ele><time>2026-05-04T15:19:58Z</time></trkpt><trkpt lat="41.79307277612892" lon="19.658187578203254"><ele>19.0</ele><time>2026-05-04T15:19:59Z</time></trkpt><trkpt lat="41.79302621739759" lon="19.65802384949039"><ele>19.0</ele><time>2026-05-04T15:20:00Z</time></trkpt><trkpt lat="41.7929846913364" lon="19.657870231036792"><ele>19.0</ele><time>2026-05-04T15:20:01Z</time></trkpt><trkpt lat="41.792950518916584" lon="19.65774604281412"><ele>19.0</ele><time>2026-05-04T15:20:02Z</time></trkpt><trkpt lat="41.79292831540146" lon="19.65766523710893"><ele>19.0</ele><time>2026-05-04T15:20:03Z</time></trkpt><trkpt lat="41.792947203322385" lon="19.657565634967003"><ele>19.0</ele><time>2026-05-04T15:20:05Z</time></trkpt><trkpt lat="41.79291096109133" lon="19.657483712589638"><ele>19.0</ele><time>2026-05-04T15:20:28.999Z</time></trkpt><trkpt lat="41.792876943357285" lon="19.657410659858094"><ele>18.4</ele><time>2026-05-04T15:20:29.999Z</time></trkpt><trkpt lat="41.792844521877385" lon="19.657308824656813"><ele>17.799999999999997</ele><time>2026-05-04T15:20:30.999Z</time></trkpt><trkpt lat="41.79280388146303" lon="19.65719420701016"><ele>17.200000000000003</ele><time>2026-05-04T15:20:31.999Z</time></trkpt><trkpt lat="41.792767783127644" lon="19.657057314209343"><ele>16.6</ele><time>2026-05-04T15:20:32.999Z</time></trkpt><trkpt lat="41.792725310940234" lon="19.65690652758022"><ele>16.0</ele><time>2026-05-04T15:20:33.999Z</time></trkpt><trkpt lat="41.792670035829566" lon="19.656747422612458"><ele>18.25</ele><time>2026-05-04T15:20:34.999Z</time></trkpt><trkpt lat="41.79260974903684" lon="19.656593892536105"><ele>20.5</ele><time>2026-05-04T15:20:35.999Z</time></trkpt><trkpt lat="41.79255067805562" lon="19.656450023023112"><ele>22.75</ele><time>2026-05-04T15:20:36.999Z</time></trkpt><trkpt lat="41.79248300972455" lon="19.656326482347108"><ele>25.0</ele><time>2026-05-04T15:20:37.999Z</time></trkpt><trkpt lat="41.79238690436386" lon="19.656211366395844"><ele>24.25</ele><time>2026-05-04T15:20:38.999Z</time></trkpt><trkpt lat="41.79227113548544" lon="19.65611408102667"><ele>23.5</ele><time>2026-05-04T15:20:39.999Z</time></trkpt><trkpt lat="41.79214107659372" lon="19.656021470249073"><ele>22.75</ele><time>2026-05-04T15:20:40.999Z</time></trkpt><trkpt lat="41.792002004955144" lon="19.65591133728434"><ele>22.0</ele><time>2026-05-04T15:20:41.999Z</time></trkpt><trkpt lat="41.79185518175507" lon="19.65578611023381"><ele>22.0</ele><time>2026-05-04T15:20:42.999Z</time></trkpt><trkpt lat="41.79170226054238" lon="19.65566132932368"><ele>22.0</ele><time>2026-05-04T15:20:43.999Z</time></trkpt><trkpt lat="41.79153807902929" lon="19.655533854683362"><ele>22.0</ele><time>2026-05-04T15:20:44.999Z</time></trkpt><trkpt lat="41.79136969096594" lon="19.655403870012325"><ele>22.0</ele><time>2026-05-04T15:20:45.999Z</time></trkpt><trkpt lat="41.79119990757464" lon="19.65526576765197"><ele>22.0</ele><time>2026-05-04T15:20:46.999Z</time></trkpt><trkpt lat="41.79103585199611" lon="19.655119275367014"><ele>22.0</ele><time>2026-05-04T15:20:47.999Z</time></trkpt><trkpt lat="41.790874213298366" lon="19.654978685304982"><ele>22.0</ele><time>2026-05-04T15:20:48.999Z</time></trkpt><trkpt lat="41.790746764201494" lon="19.654850470285915"><ele>22.0</ele><time>2026-05-04T15:20:49.999Z</time></trkpt><trkpt lat="41.79060916138093" lon="19.65469444939997"><ele>22.0</ele><time>2026-05-04T15:20:50.999Z</time></trkpt><trkpt lat="41.79047900445251" lon="19.654526316572063"><ele>21.333333333333332</ele><time>2026-05-04T15:20:51.999Z</time></trkpt><trkpt lat="41.79035464631879" lon="19.654341145168036"><ele>20.666666666666668</ele><time>2026-05-04T15:20:52.999Z</time></trkpt><trkpt lat="41.7902298182389" lon="19.654134169184502"><ele>20.0</ele><time>2026-05-04T15:20:53.999Z</time></trkpt><trkpt lat="41.790114427881136" lon="19.65390641216864"><ele>20.0</ele><time>2026-05-04T15:20:54.999Z</time></trkpt><trkpt lat="41.790009973985434" lon="19.65369488278429"><ele>20.0</ele><time>2026-05-04T15:20:55.999Z</time></trkpt><trkpt lat="41.78991774755417" lon="19.653524366769226"><ele>20.0</ele><time>2026-05-04T15:20:56.999Z</time></trkpt><trkpt lat="41.78983164470071" lon="19.65340020673886"><ele>20.4</ele><time>2026-05-04T15:20:57.999Z</time></trkpt><trkpt lat="41.789751881946145" lon="19.653315722632797"><ele>20.8</ele><time>2026-05-04T15:20:58.999Z</time></trkpt><trkpt lat="41.789667059735635" lon="19.653258510271634"><ele>21.200000000000003</ele><time>2026-05-04T15:20:59.999Z</time></trkpt><trkpt lat="41.7895769445437" lon="19.653222867477638"><ele>21.6</ele><time>2026-05-04T15:21:00.999Z</time></trkpt><trkpt lat="41.78949199510448" lon="19.653174237918588"><ele>22.0</ele><time>2026-05-04T15:21:01.999Z</time></trkpt><trkpt lat="41.78940648694411" lon="19.653125973618586"><ele>22.0</ele><time>2026-05-04T15:21:02.999Z</time></trkpt><trkpt lat="41.78931239295187" lon="19.653065741703184"><ele>22.0</ele><time>2026-05-04T15:21:03.999Z</time></trkpt><trkpt lat="41.78920562188954" lon="19.65296567095957"><ele>22.0</ele><time>2026-05-04T15:21:04.999Z</time></trkpt><trkpt lat="41.78912070431089" lon="19.652834803862923"><ele>22.0</ele><time>2026-05-04T15:21:05.999Z</time></trkpt><trkpt lat="41.789054087992994" lon="19.652677864313926"><ele>22.0</ele><time>2026-05-04T15:21:06.999Z</time></trkpt><trkpt lat="41.78901607480744" lon="19.652480495120294"><ele>22.0</ele><time>2026-05-04T15:21:07.999Z</time></trkpt><trkpt lat="41.78896582782529" lon="19.652263086992303"><ele>22.0</ele><time>2026-05-04T15:21:08.999Z</time></trkpt><trkpt lat="41.78891172000095" lon="19.65203141365553"><ele>22.333333333333332</ele><time>2026-05-04T15:21:09.999Z</time></trkpt><trkpt lat="41.78886641698471" lon="19.651809669441963"><ele>22.666666666666668</ele><time>2026-05-04T15:21:10.999Z</time></trkpt><trkpt lat="41.7888306918013" lon="19.651578081989634"><ele>23.0</ele><time>2026-05-04T15:21:11.999Z</time></trkpt><trkpt lat="41.78878309204217" lon="19.651360932261294"><ele>23.0</ele><time>2026-05-04T15:21:12.999Z</time></trkpt><trkpt lat="41.78873031804504" lon="19.651131729586634"><ele>23.0</ele><time>2026-05-04T15:21:13.999Z</time></trkpt><trkpt lat="41.788681811853046" lon="19.650906859890064"><ele>23.0</ele><time>2026-05-04T15:21:14.999Z</time></trkpt><trkpt lat="41.78863657200613" lon="19.650691057339795"><ele>22.5</ele><time>2026-05-04T15:21:15.999Z</time></trkpt><trkpt lat="41.78859465034215" lon="19.650493712823824"><ele>22.0</ele><time>2026-05-04T15:21:16.999Z</time></trkpt><trkpt lat="41.78855765757427" lon="19.650308126871398"><ele>21.5</ele><time>2026-05-04T15:21:17.999Z</time></trkpt><trkpt lat="41.78852552214346" lon="19.650129127797317"><ele>21.0</ele><time>2026-05-04T15:21:18.999Z</time></trkpt><trkpt lat="41.78848795068489" lon="19.649949373221528"><ele>23.333333333333336</ele><time>2026-05-04T15:21:19.999Z</time></trkpt><trkpt lat="41.788442490553194" lon="19.649753382253103"><ele>25.666666666666668</ele><time>2026-05-04T15:21:20.999Z</time></trkpt><trkpt lat="41.788387817951595" lon="19.649542524661157"><ele>28.0</ele><time>2026-05-04T15:21:21.999Z</time></trkpt><trkpt lat="41.788329941465896" lon="19.64932272863329"><ele>28.0</ele><time>2026-05-04T15:21:22.999Z</time></trkpt><trkpt lat="41.78827221375942" lon="19.64909115426044"><ele>28.0</ele><time>2026-05-04T15:21:23.999Z</time></trkpt><trkpt lat="41.78822307608839" lon="19.648857340449723"><ele>28.0</ele><time>2026-05-04T15:21:24.999Z</time></trkpt><trkpt lat="41.78818122006471" lon="19.648623817257103"><ele>27.333333333333336</ele><time>2026-05-04T15:21:25.999Z</time></trkpt><trkpt lat="41.78814952769003" lon="19.648407069229716"><ele>26.666666666666664</ele><time>2026-05-04T15:21:26.999Z</time></trkpt><trkpt lat="41.78810483918376" lon="19.648191176914224"><ele>26.0</ele><time>2026-05-04T15:21:27.999Z</time></trkpt><trkpt lat="41.78804451676737" lon="19.647971853414596"><ele>22.333333333333332</ele><time>2026-05-04T15:21:28.999Z</time></trkpt><trkpt lat="41.78798706331204" lon="19.647739787091833"><ele>18.666666666666664</ele><time>2026-05-04T15:21:29.999Z</time></trkpt><trkpt lat="41.78794374382488" lon="19.647498391509792"><ele>15.0</ele><time>2026-05-04T15:21:30.999Z</time></trkpt><trkpt lat="41.78790727296811" lon="19.647271590611087"><ele>15.0</ele><time>2026-05-04T15:21:31.999Z</time></trkpt><trkpt lat="41.78787247368559" lon="19.64706548817773"><ele>15.0</ele><time>2026-05-04T15:21:32.999Z</time></trkpt><trkpt lat="41.78783756217702" lon="19.646884783424486"><ele>15.0</ele><time>2026-05-04T15:21:33.999Z</time></trkpt><trkpt lat="41.78779812545551" lon="19.64674499167254"><ele>15.0</ele><time>2026-05-04T15:21:34.999Z</time></trkpt><trkpt lat="41.78774239222949" lon="19.646633340118566"><ele>14.8</ele><time>2026-05-04T15:21:35.999Z</time></trkpt><trkpt lat="41.787677842472114" lon="19.646556975406924"><ele>14.6</ele><time>2026-05-04T15:21:36.999Z</time></trkpt><trkpt lat="41.7875987714987" lon="19.64650633808575"><ele>14.399999999999999</ele><time>2026-05-04T15:21:37.999Z</time></trkpt><trkpt lat="41.78750745897675" lon="19.646489063932368"><ele>14.2</ele><time>2026-05-04T15:21:38.999Z</time></trkpt><trkpt lat="41.78736708780889" lon="19.646425845553946"><ele>14.0</ele><time>2026-05-04T15:21:39.999Z</time></trkpt><trkpt lat="41.787213671995936" lon="19.646354116412095"><ele>17.0</ele><time>2026-05-04T15:21:40.999Z</time></trkpt><trkpt lat="41.78706638683568" lon="19.646254729063884"><ele>20.0</ele><time>2026-05-04T15:21:41.999Z</time></trkpt><trkpt lat="41.78691786962998" lon="19.6461344043192"><ele>23.0</ele><time>2026-05-04T15:21:42.999Z</time></trkpt><trkpt lat="41.786765411348185" lon="19.645972167795907"><ele>23.0</ele><time>2026-05-04T15:21:43.999Z</time></trkpt><trkpt lat="41.786617689329894" lon="19.645782403896693"><ele>23.0</ele><time>2026-05-04T15:21:44.999Z</time></trkpt><trkpt lat="41.78648377399548" lon="19.64562740340007"><ele>23.0</ele><time>2026-05-04T15:21:45.999Z</time></trkpt><trkpt lat="41.78635175868131" lon="19.64551459908309"><ele>23.0</ele><time>2026-05-04T15:21:46.999Z</time></trkpt><trkpt lat="41.786189654021214" lon="19.64540126528418"><ele>23.0</ele><time>2026-05-04T15:21:47.999Z</time></trkpt><trkpt lat="41.78601931205938" lon="19.645282747883556"><ele>23.0</ele><time>2026-05-04T15:21:48.999Z</time></trkpt><trkpt lat="41.78585305667248" lon="19.645147138746115"><ele>21.333333333333336</ele><time>2026-05-04T15:21:49.999Z</time></trkpt><trkpt lat="41.78568944514085" lon="19.645004087269694"><ele>19.666666666666668</ele><time>2026-05-04T15:21:50.999Z</time></trkpt><trkpt lat="41.78552963773997" lon="19.644858247009818"><ele>18.0</ele><time>2026-05-04T15:21:51.999Z</time></trkpt><trkpt lat="41.7853766464784" lon="19.644710518236344"><ele>18.0</ele><time>2026-05-04T15:21:52.999Z</time></trkpt><trkpt lat="41.78522307308332" lon="19.64456395409364"><ele>18.0</ele><time>2026-05-04T15:21:53.999Z</time></trkpt><trkpt lat="41.7850705410335" lon="19.644408935512555"><ele>18.0</ele><time>2026-05-04T15:21:54.999Z</time></trkpt><trkpt lat="41.78492588378877" lon="19.644267957641638"><ele>17.75</ele><time>2026-05-04T15:21:56Z</time></trkpt><trkpt lat="41.78479808209335" lon="19.64415346384676"><ele>17.5</ele><time>2026-05-04T15:21:57Z</time></trkpt><trkpt lat="41.78467932603338" lon="19.644057880261037"><ele>17.25</ele><time>2026-05-04T15:21:58Z</time></trkpt><trkpt lat="41.78454499282415" lon="19.643976716186476"><ele>17.0</ele><time>2026-05-04T15:21:59Z</time></trkpt><trkpt lat="41.784389855129525" lon="19.64393171399688"><ele>17.333333333333336</ele><time>2026-05-04T15:22:00Z</time></trkpt><trkpt lat="41.78421481698668" lon="19.643934034246453"><ele>17.666666666666668</ele><time>2026-05-04T15:22:01Z</time></trkpt><trkpt lat="41.78402318897326" lon="19.64393313748892"><ele>18.0</ele><time>2026-05-04T15:22:02Z</time></trkpt><trkpt lat="41.783840476067304" lon="19.64391610092375"><ele>18.0</ele><time>2026-05-04T15:22:03Z</time></trkpt><trkpt lat="41.78366008089154" lon="19.643889326172694"><ele>18.0</ele><time>2026-05-04T15:22:04Z</time></trkpt><trkpt lat="41.78348080554177" lon="19.64386268172708"><ele>18.0</ele><time>2026-05-04T15:22:05Z</time></trkpt><trkpt lat="41.78329952635602" lon="19.643834021283688"><ele>18.0</ele><time>2026-05-04T15:22:06Z</time></trkpt><trkpt lat="41.783113811785974" lon="19.64381275141952"><ele>18.0</ele><time>2026-05-04T15:22:07Z</time></trkpt><trkpt lat="41.7829645784936" lon="19.643786224494317"><ele>18.0</ele><time>2026-05-04T15:22:08Z</time></trkpt><trkpt lat="41.78284309824986" lon="19.643758324794856"><ele>18.0</ele><time>2026-05-04T15:22:09Z</time></trkpt><trkpt lat="41.78274231287207" lon="19.64373573004472"><ele>18.0</ele><time>2026-05-04T15:22:10Z</time></trkpt><trkpt lat="41.78265198660869" lon="19.643740158733323"><ele>18.0</ele><time>2026-05-04T15:22:11Z</time></trkpt><trkpt lat="41.78254505221547" lon="19.64375104503891"><ele>18.0</ele><time>2026-05-04T15:22:12Z</time></trkpt><trkpt lat="41.78241995036594" lon="19.643763265002246"><ele>18.0</ele><time>2026-05-04T15:22:13Z</time></trkpt><trkpt lat="41.78229666628969" lon="19.643790230073403"><ele>16.75</ele><time>2026-05-04T15:22:14Z</time></trkpt><trkpt lat="41.78217240019799" lon="19.64382707085777"><ele>15.5</ele><time>2026-05-04T15:22:15Z</time></trkpt><trkpt lat="41.78204580591203" lon="19.643883913987022"><ele>14.25</ele><time>2026-05-04T15:22:16Z</time></trkpt><trkpt lat="41.78193680663933" lon="19.643954289222158"><ele>13.0</ele><time>2026-05-04T15:22:17Z</time></trkpt><trkpt lat="41.781834085284544" lon="19.644026627219315"><ele>11.999999999999998</ele><time>2026-05-04T15:22:18Z</time></trkpt><trkpt lat="41.781747812328845" lon="19.644093665165478"><ele>11.0</ele><time>2026-05-04T15:22:19Z</time></trkpt><trkpt lat="41.78167638607665" lon="19.6441493736699"><ele>10.0</ele><time>2026-05-04T15:22:20Z</time></trkpt><trkpt lat="41.78161970178405" lon="19.644205248581383"><ele>9.0</ele><time>2026-05-04T15:22:21Z</time></trkpt><trkpt lat="41.78155643468685" lon="19.644260440385732"><ele>8.0</ele><time>2026-05-04T15:22:22Z</time></trkpt><trkpt lat="41.78148677467329" lon="19.644296848718298"><ele>7.0</ele><time>2026-05-04T15:22:23Z</time></trkpt><trkpt lat="41.781406644594966" lon="19.644330651191932"><ele>7.000000000000001</ele><time>2026-05-04T15:22:24Z</time></trkpt><trkpt lat="41.781323524776035" lon="19.644368872629226"><ele>7.0</ele><time>2026-05-04T15:22:25Z</time></trkpt><trkpt lat="41.78124677216016" lon="19.64441420061022"><ele>7.0</ele><time>2026-05-04T15:22:26Z</time></trkpt><trkpt lat="41.781180007214466" lon="19.644463732907063"><ele>7.0</ele><time>2026-05-04T15:22:27Z</time></trkpt><trkpt lat="41.78112236066539" lon="19.64451671587549"><ele>7.000000000000001</ele><time>2026-05-04T15:22:28Z</time></trkpt><trkpt lat="41.78105926804971" lon="19.64457284673844"><ele>7.0</ele><time>2026-05-04T15:22:29Z</time></trkpt><trkpt lat="41.78099167445885" lon="19.644614963786452"><ele>7.3999999999999995</ele><time>2026-05-04T15:22:30Z</time></trkpt><trkpt lat="41.78090601779044" lon="19.644661858368874"><ele>7.799999999999999</ele><time>2026-05-04T15:22:31Z</time></trkpt><trkpt lat="41.780816912205985" lon="19.644709702459657"><ele>8.2</ele><time>2026-05-04T15:22:32Z</time></trkpt><trkpt lat="41.78072187688527" lon="19.64476343985765"><ele>8.6</ele><time>2026-05-04T15:22:33Z</time></trkpt><trkpt lat="41.780639455566714" lon="19.64481660112146"><ele>9.0</ele><time>2026-05-04T15:22:34Z</time></trkpt><trkpt lat="41.780570393195056" lon="19.644851219560564"><ele>9.0</ele><time>2026-05-04T15:22:35Z</time></trkpt><trkpt lat="41.780507213641904" lon="19.64484858396504"><ele>9.0</ele><time>2026-05-04T15:22:36Z</time></trkpt><trkpt lat="41.780423700875744" lon="19.64476376992446"><ele>9.0</ele><time>2026-05-04T15:22:38Z</time></trkpt><trkpt lat="41.780400456191224" lon="19.644617273256298"><ele>9.0</ele><time>2026-05-04T15:22:44Z</time></trkpt><trkpt lat="41.780424619781144" lon="19.644494800829257"><ele>9.0</ele><time>2026-05-04T15:22:45Z</time></trkpt><trkpt lat="41.78044337599288" lon="19.644364872457487"><ele>8.2</ele><time>2026-05-04T15:22:46Z</time></trkpt><trkpt lat="41.78045007995004" lon="19.64422867067615"><ele>7.4</ele><time>2026-05-04T15:22:47Z</time></trkpt><trkpt lat="41.7804634200213" lon="19.64408184039414"><ele>6.6</ele><time>2026-05-04T15:22:48Z</time></trkpt><trkpt lat="41.780473485068406" lon="19.643949613725507"><ele>5.8</ele><time>2026-05-04T15:22:49Z</time></trkpt><trkpt lat="41.78047993469427" lon="19.643836518662408"><ele>5.0</ele><time>2026-05-04T15:22:50Z</time></trkpt><trkpt lat="41.780485199619406" lon="19.643745628950697"><ele>5.0</ele><time>2026-05-04T15:22:51Z</time></trkpt><trkpt lat="41.78048537081398" lon="19.64365046467029"><ele>5.0</ele><time>2026-05-04T15:22:54Z</time></trkpt><trkpt lat="41.7804773308042" lon="19.64355624958432"><ele>5.0</ele><time>2026-05-04T15:23:01.999Z</time></trkpt><trkpt lat="41.7804283160168" lon="19.643502185220278"><ele>5.0</ele><time>2026-05-04T15:23:03.999Z</time></trkpt><trkpt lat="41.78035920476317" lon="19.643519177444375"><ele>5.0</ele><time>2026-05-04T15:23:04.999Z</time></trkpt><trkpt lat="41.78028484550259" lon="19.643553317958865"><ele>5.0</ele><time>2026-05-04T15:23:05.999Z</time></trkpt><trkpt lat="41.78021368741467" lon="19.64358407315952"><ele>5.0</ele><time>2026-05-04T15:23:06.999Z</time></trkpt><trkpt lat="41.7801302600579" lon="19.643612400517064"><ele>4.75</ele><time>2026-05-04T15:23:07.999Z</time></trkpt><trkpt lat="41.78001267036922" lon="19.643637958841417"><ele>4.5</ele><time>2026-05-04T15:23:08.999Z</time></trkpt><trkpt lat="41.779892240919054" lon="19.643654417101455"><ele>4.25</ele><time>2026-05-04T15:23:09.999Z</time></trkpt><trkpt lat="41.77976817989293" lon="19.643668961330388"><ele>4.0</ele><time>2026-05-04T15:23:10.999Z</time></trkpt><trkpt lat="41.77965324424645" lon="19.643687814679197"><ele>3.9999999999999996</ele><time>2026-05-04T15:23:11.999Z</time></trkpt><trkpt lat="41.77955793592244" lon="19.64370124494085"><ele>4.0</ele><time>2026-05-04T15:23:12.999Z</time></trkpt><trkpt lat="41.779480864890274" lon="19.643704182938"><ele>4.0</ele><time>2026-05-04T15:23:13.999Z</time></trkpt><trkpt lat="41.77939998077397" lon="19.643708575843277"><ele>4.0</ele><time>2026-05-04T15:23:14.999Z</time></trkpt><trkpt lat="41.779327530690374" lon="19.64370184268367"><ele>3.9999999999999996</ele><time>2026-05-04T15:23:15.999Z</time></trkpt><trkpt lat="41.7792068723501" lon="19.643706862517593"><ele>4.0</ele><time>2026-05-04T15:23:17.999Z</time></trkpt><trkpt lat="41.77910223560508" lon="19.64370705964944"><ele>3.9999999999999996</ele><time>2026-05-04T15:23:19.999Z</time></trkpt><trkpt lat="41.77901890172137" lon="19.643712329797047"><ele>4.0</ele><time>2026-05-04T15:23:21.999Z</time></trkpt><trkpt lat="41.7789179601923" lon="19.6437232405853"><ele>4.0</ele><time>2026-05-04T15:23:23.999Z</time></trkpt><trkpt lat="41.77885329607398" lon="19.643734092771563"><ele>4.0</ele><time>2026-05-04T15:23:24.999Z</time></trkpt><trkpt lat="41.778763035111126" lon="19.643741631177722"><ele>3.9999999999999996</ele><time>2026-05-04T15:23:26.999Z</time></trkpt><trkpt lat="41.77869604076339" lon="19.64375589439068"><ele>4.0</ele><time>2026-05-04T15:23:29.999Z</time></trkpt><trkpt lat="41.77869004624791" lon="19.64386392210417"><ele>4.0</ele><time>2026-05-04T15:23:37.999Z</time></trkpt><trkpt lat="41.77875117405107" lon="19.643823028173014"><ele>3.9999999999999996</ele><time>2026-05-04T15:23:41.999Z</time></trkpt><trkpt lat="41.77879858681303" lon="19.643745551887225"><ele>4.0</ele><time>2026-05-04T15:23:43.999Z</time></trkpt><trkpt lat="41.77887104190963" lon="19.643738163437444"><ele>4.0</ele><time>2026-05-04T15:23:44.999Z</time></trkpt><trkpt lat="41.778935211581995" lon="19.643739277072694"><ele>3.9999999999999996</ele><time>2026-05-04T15:23:45.999Z</time></trkpt><trkpt lat="41.77900602815737" lon="19.643728384059543"><ele>4.0</ele><time>2026-05-04T15:23:49.999Z</time></trkpt><trkpt lat="41.77907211210884" lon="19.64371311372955"><ele>4.0</ele><time>2026-05-04T15:23:52.999Z</time></trkpt><trkpt lat="41.77913395803942" lon="19.643685052119732"><ele>3.9999999999999996</ele><time>2026-05-04T15:23:54.999Z</time></trkpt><trkpt lat="41.77921468944325" lon="19.643674685047348"><ele>4.0</ele><time>2026-05-04T15:23:56.999Z</time></trkpt><trkpt lat="41.77931869750082" lon="19.643686175438585"><ele>4.0</ele><time>2026-05-04T15:23:58.999Z</time></trkpt><trkpt lat="41.77940008515889" lon="19.643667789166848"><ele>4.0</ele><time>2026-05-04T15:24:00.999Z</time></trkpt><trkpt lat="41.779474046435894" lon="19.643686628185353"><ele>3.9999999999999996</ele><time>2026-05-04T15:24:07Z</time></trkpt><trkpt lat="41.77947344861829" lon="19.643579882290922"><ele>4.0</ele><time>2026-05-04T15:26:28Z</time></trkpt><trkpt lat="41.77937610157853" lon="19.643541133766124"><ele>3.9999999999999996</ele><time>2026-05-04T15:29:39.999Z</time></trkpt><trkpt lat="41.77929359419641" lon="19.643557170963657"><ele>4.0</ele><time>2026-05-04T15:29:41.999Z</time></trkpt><trkpt lat="41.77919463023054" lon="19.643572866113637"><ele>4.0</ele><time>2026-05-04T15:29:43.999Z</time></trkpt><trkpt lat="41.77907716202616" lon="19.643588403085083"><ele>4.0</ele><time>2026-05-04T15:29:45.999Z</time></trkpt><trkpt lat="41.77900875429052" lon="19.643599824165406"><ele>3.9999999999999996</ele><time>2026-05-04T15:29:46.999Z</time></trkpt><trkpt lat="41.77893252999774" lon="19.643613414316643"><ele>4.0</ele><time>2026-05-04T15:29:47.999Z</time></trkpt><trkpt lat="41.77885126679735" lon="19.643631250142118"><ele>3.9999999999999996</ele><time>2026-05-04T15:29:48.999Z</time></trkpt><trkpt lat="41.778765777018556" lon="19.643648805897794"><ele>4.0</ele><time>2026-05-04T15:29:49.999Z</time></trkpt><trkpt lat="41.77868081978159" lon="19.64365967284325"><ele>4.0</ele><time>2026-05-04T15:29:50.999Z</time></trkpt><trkpt lat="41.778595755750615" lon="19.643667900291327"><ele>4.0</ele><time>2026-05-04T15:29:51.999Z</time></trkpt><trkpt lat="41.778511391028175" lon="19.643680540881835"><ele>3.9999999999999996</ele><time>2026-05-04T15:29:52.999Z</time></trkpt><trkpt lat="41.77842390942975" lon="19.64369477099235"><ele>4.0</ele><time>2026-05-04T15:29:53.999Z</time></trkpt><trkpt lat="41.778334055102405" lon="19.64371223387458"><ele>3.6</ele><time>2026-05-04T15:29:54.999Z</time></trkpt><trkpt lat="41.778239803528685" lon="19.643726470201027"><ele>3.2</ele><time>2026-05-04T15:29:55.999Z</time></trkpt><trkpt lat="41.778143053114015" lon="19.643741605618406"><ele>2.8000000000000003</ele><time>2026-05-04T15:29:56.999Z</time></trkpt><trkpt lat="41.77804843389588" lon="19.643754457058154"><ele>2.4000000000000004</ele><time>2026-05-04T15:29:57.999Z</time></trkpt><trkpt lat="41.777953690191595" lon="19.643772424263933"><ele>2.0</ele><time>2026-05-04T15:29:58.999Z</time></trkpt><trkpt lat="41.777867187193074" lon="19.643782363646647"><ele>1.9999999999999998</ele><time>2026-05-04T15:29:59.999Z</time></trkpt><trkpt lat="41.77778421566645" lon="19.643788904447536"><ele>2.0</ele><time>2026-05-04T15:30:00.999Z</time></trkpt><trkpt lat="41.777705058508715" lon="19.64379505643468"><ele>2.0</ele><time>2026-05-04T15:30:01.999Z</time></trkpt><trkpt lat="41.77762767796944" lon="19.64380295442051"><ele>2.0</ele><time>2026-05-04T15:30:02.999Z</time></trkpt><trkpt lat="41.77754857266224" lon="19.643812443358346"><ele>1.9999999999999998</ele><time>2026-05-04T15:30:03.999Z</time></trkpt><trkpt lat="41.7774726829534" lon="19.64382087403422"><ele>2.0</ele><time>2026-05-04T15:30:04.999Z</time></trkpt><trkpt lat="41.777402837471875" lon="19.643828668169157"><ele>1.9999999999999998</ele><time>2026-05-04T15:30:05.999Z</time></trkpt><trkpt lat="41.77732792465052" lon="19.643847751732775"><ele>2.0</ele><time>2026-05-04T15:30:06.999Z</time></trkpt><trkpt lat="41.777254086013905" lon="19.643860527654226"><ele>2.0</ele><time>2026-05-04T15:30:07.999Z</time></trkpt><trkpt lat="41.77718641833723" lon="19.643874738830984"><ele>2.0</ele><time>2026-05-04T15:30:08.999Z</time></trkpt><trkpt lat="41.77708235061471" lon="19.643896409294953"><ele>1.9999999999999998</ele><time>2026-05-04T15:30:10.999Z</time></trkpt><trkpt lat="41.77698401129261" lon="19.643913124862035"><ele>2.0</ele><time>2026-05-04T15:30:12.999Z</time></trkpt><trkpt lat="41.77689138228516" lon="19.643926869049036"><ele>1.8</ele><time>2026-05-04T15:30:14.999Z</time></trkpt><trkpt lat="41.776767609714135" lon="19.643925961791545"><ele>1.6</ele><time>2026-05-04T15:30:16.999Z</time></trkpt><trkpt lat="41.77669458861619" lon="19.643924112465168"><ele>1.4000000000000001</ele><time>2026-05-04T15:30:17.999Z</time></trkpt><trkpt lat="41.776618352721826" lon="19.643939440510383"><ele>1.2000000000000002</ele><time>2026-05-04T15:30:18.999Z</time></trkpt><trkpt lat="41.77653106791796" lon="19.643950485989013"><ele>1.0</ele><time>2026-05-04T15:30:20Z</time></trkpt><trkpt lat="41.77643052492628" lon="19.64395082269028"><ele>1.0</ele><time>2026-05-04T15:30:21Z</time></trkpt><trkpt lat="41.776327599130724" lon="19.643943754831692"><ele>1.0</ele><time>2026-05-04T15:30:22Z</time></trkpt><trkpt lat="41.77622330299727" lon="19.643933678555623"><ele>1.0</ele><time>2026-05-04T15:30:23Z</time></trkpt><trkpt lat="41.77611418366609" lon="19.643922534235855"><ele>1.0</ele><time>2026-05-04T15:30:24Z</time></trkpt><trkpt lat="41.77599994758337" lon="19.643917803807447"><ele>1.0</ele><time>2026-05-04T15:30:25Z</time></trkpt><trkpt lat="41.775883965656504" lon="19.64391799068168"><ele>0.8</ele><time>2026-05-04T15:30:26Z</time></trkpt><trkpt lat="41.77576840198788" lon="19.64392256460399"><ele>0.6000000000000001</ele><time>2026-05-04T15:30:27Z</time></trkpt><trkpt lat="41.77565984505549" lon="19.64392116026432"><ele>0.4</ele><time>2026-05-04T15:30:28Z</time></trkpt><trkpt lat="41.775552292816535" lon="19.64392279617205"><ele>0.2</ele><time>2026-05-04T15:30:29Z</time></trkpt><trkpt lat="41.77544569167122" lon="19.64392075269999"><ele>0.0</ele><time>2026-05-04T15:30:30Z</time></trkpt><trkpt lat="41.77532965979232" lon="19.64392528844897"><ele>0.0</ele><time>2026-05-04T15:30:31Z</time></trkpt><trkpt lat="41.77521500224209" lon="19.643926283486977"><ele>0.0</ele><time>2026-05-04T15:30:32Z</time></trkpt><trkpt lat="41.775099405606085" lon="19.643920972861405"><ele>0.0</ele><time>2026-05-04T15:30:33Z</time></trkpt><trkpt lat="41.77498109626222" lon="19.64391041260412"><ele>0.0</ele><time>2026-05-04T15:30:34Z</time></trkpt><trkpt lat="41.77486335946014" lon="19.643918165326543"><ele>0.0</ele><time>2026-05-04T15:30:35Z</time></trkpt><trkpt lat="41.77474604234767" lon="19.64391651002162"><ele>0.0</ele><time>2026-05-04T15:30:36Z</time></trkpt><trkpt lat="41.77463925009199" lon="19.64392101157187"><ele>0.0</ele><time>2026-05-04T15:30:37Z</time></trkpt><trkpt lat="41.774536508968616" lon="19.643921787745597"><ele>0.0</ele><time>2026-05-04T15:30:38Z</time></trkpt><trkpt lat="41.77443280557702" lon="19.643925297084678"><ele>0.0</ele><time>2026-05-04T15:30:39Z</time></trkpt><trkpt lat="41.774339967821106" lon="19.643931443217106"><ele>0.0</ele><time>2026-05-04T15:30:40Z</time></trkpt><trkpt lat="41.774255991804935" lon="19.643937965968007"><ele>0.0</ele><time>2026-05-04T15:30:41Z</time></trkpt><trkpt lat="41.77417724610863" lon="19.643937197390034"><ele>0.0</ele><time>2026-05-04T15:30:42Z</time></trkpt><trkpt lat="41.7741002732436" lon="19.643932683622044"><ele>0.0</ele><time>2026-05-04T15:30:43Z</time></trkpt><trkpt lat="41.77402907052429" lon="19.643928418691726"><ele>0.0</ele><time>2026-05-04T15:30:44Z</time></trkpt><trkpt lat="41.77395670773344" lon="19.64393091909743"><ele>0.0</ele><time>2026-05-04T15:30:45Z</time></trkpt><trkpt lat="41.773883826200894" lon="19.643933828617687"><ele>0.0</ele><time>2026-05-04T15:30:46Z</time></trkpt><trkpt lat="41.773795313062976" lon="19.643908863512916"><ele>0.0</ele><time>2026-05-04T15:30:48Z</time></trkpt><trkpt lat="41.77372086288665" lon="19.64389848022156"><ele>0.0</ele><time>2026-05-04T15:30:50Z</time></trkpt><trkpt lat="41.77360877712455" lon="19.64390397462821"><ele>0.0</ele><time>2026-05-04T15:30:52Z</time></trkpt><trkpt lat="41.7735007272208" lon="19.643891171908347"><ele>0.0</ele><time>2026-05-04T15:30:53Z</time></trkpt><trkpt lat="41.77337308856729" lon="19.64386268890949"><ele>0.2</ele><time>2026-05-04T15:30:54Z</time></trkpt><trkpt lat="41.773259036391224" lon="19.643836397694045"><ele>0.4</ele><time>2026-05-04T15:30:55Z</time></trkpt><trkpt lat="41.7731716458488" lon="19.643819860571444"><ele>0.6000000000000001</ele><time>2026-05-04T15:30:56Z</time></trkpt><trkpt lat="41.773094574780046" lon="19.643801756493378"><ele>0.8</ele><time>2026-05-04T15:30:57Z</time></trkpt><trkpt lat="41.77300889552602" lon="19.643783823302403"><ele>1.0</ele><time>2026-05-04T15:30:58Z</time></trkpt><trkpt lat="41.77291321622535" lon="19.643762575450374"><ele>0.9999999999999999</ele><time>2026-05-04T15:30:59Z</time></trkpt><trkpt lat="41.772828238294444" lon="19.64374475753432"><ele>1.0</ele><time>2026-05-04T15:31:00Z</time></trkpt><trkpt lat="41.772747505593934" lon="19.643728061831172"><ele>1.0</ele><time>2026-05-04T15:31:01Z</time></trkpt><trkpt lat="41.77266452634139" lon="19.64371256939446"><ele>1.0</ele><time>2026-05-04T15:31:02Z</time></trkpt><trkpt lat="41.77258167959761" lon="19.643697613203138"><ele>0.9999999999999999</ele><time>2026-05-04T15:31:03Z</time></trkpt><trkpt lat="41.772496809603275" lon="19.643678618197434"><ele>1.0</ele><time>2026-05-04T15:31:04Z</time></trkpt><trkpt lat="41.77241024585615" lon="19.643659559564156"><ele>1.1666666666666665</ele><time>2026-05-04T15:31:05Z</time></trkpt><trkpt lat="41.772322710174876" lon="19.64364164488726"><ele>1.3333333333333333</ele><time>2026-05-04T15:31:06Z</time></trkpt><trkpt lat="41.77224172145773" lon="19.64362462016239"><ele>1.5</ele><time>2026-05-04T15:31:07Z</time></trkpt><trkpt lat="41.772166514236496" lon="19.643602156250335"><ele>1.6666666666666665</ele><time>2026-05-04T15:31:08Z</time></trkpt><trkpt lat="41.77209451902143" lon="19.643580652493824"><ele>1.8333333333333333</ele><time>2026-05-04T15:31:09Z</time></trkpt><trkpt lat="41.77202254746741" lon="19.643552189742742"><ele>2.0</ele><time>2026-05-04T15:31:10Z</time></trkpt><trkpt lat="41.771960151136774" lon="19.643522543992695"><ele>2.0</ele><time>2026-05-04T15:31:11Z</time></trkpt><trkpt lat="41.77186394501906" lon="19.643481592032074"><ele>2.0</ele><time>2026-05-04T15:31:13Z</time></trkpt><trkpt lat="41.77177827926962" lon="19.643461573603492"><ele>2.0</ele><time>2026-05-04T15:31:14.999Z</time></trkpt><trkpt lat="41.771689168704555" lon="19.64344785931936"><ele>2.0</ele><time>2026-05-04T15:31:15.999Z</time></trkpt><trkpt lat="41.771569733536985" lon="19.643382627469656"><ele>2.0</ele><time>2026-05-04T15:31:16.999Z</time></trkpt><trkpt lat="41.77142928338123" lon="19.64332419321557"><ele>1.6666666666666665</ele><time>2026-05-04T15:31:17.999Z</time></trkpt><trkpt lat="41.771260670709104" lon="19.643267961436347"><ele>1.3333333333333333</ele><time>2026-05-04T15:31:18.999Z</time></trkpt><trkpt lat="41.77111464963803" lon="19.64321492328377"><ele>1.0</ele><time>2026-05-04T15:31:19.999Z</time></trkpt><trkpt lat="41.77097614756745" lon="19.643173990445042"><ele>0.5</ele><time>2026-05-04T15:31:20.999Z</time></trkpt><trkpt lat="41.77083375801794" lon="19.643137097567614"><ele>0.0</ele><time>2026-05-04T15:31:21.999Z</time></trkpt><trkpt lat="41.77068588568446" lon="19.64310428061301"><ele>-0.5</ele><time>2026-05-04T15:31:22.999Z</time></trkpt><trkpt lat="41.77053785657162" lon="19.64308127062396"><ele>-1.0</ele><time>2026-05-04T15:31:23.999Z</time></trkpt><trkpt lat="41.77038942829172" lon="19.643074028061612"><ele>-1.0</ele><time>2026-05-04T15:31:24.999Z</time></trkpt><trkpt lat="41.770242334971165" lon="19.643069075759673"><ele>-1.0</ele><time>2026-05-04T15:31:25.999Z</time></trkpt><trkpt lat="41.77009957529492" lon="19.643051878270512"><ele>-1.0</ele><time>2026-05-04T15:31:26.999Z</time></trkpt><trkpt lat="41.76998577235452" lon="19.643049829189845"><ele>-1.0</ele><time>2026-05-04T15:31:27.999Z</time></trkpt><trkpt lat="41.76987128752815" lon="19.64300265084273"><ele>-1.25</ele><time>2026-05-04T15:31:28.999Z</time></trkpt><trkpt lat="41.76975147669436" lon="19.642944523275712"><ele>-1.5</ele><time>2026-05-04T15:31:29.999Z</time></trkpt><trkpt lat="41.76962915459624" lon="19.642878186890705"><ele>-1.75</ele><time>2026-05-04T15:31:30.999Z</time></trkpt><trkpt lat="41.769500673946844" lon="19.642813787321053"><ele>-2.0</ele><time>2026-05-04T15:31:31.999Z</time></trkpt><trkpt lat="41.76937899141947" lon="19.642760634966674"><ele>-1.6</ele><time>2026-05-04T15:31:32.999Z</time></trkpt><trkpt lat="41.769277858684674" lon="19.642716239116154"><ele>-1.2000000000000002</ele><time>2026-05-04T15:31:33.999Z</time></trkpt><trkpt lat="41.769186616906" lon="19.642679832331225"><ele>-0.8</ele><time>2026-05-04T15:31:34.999Z</time></trkpt><trkpt lat="41.769108214858846" lon="19.64264591008291"><ele>-0.4</ele><time>2026-05-04T15:31:35.999Z</time></trkpt><trkpt lat="41.76903753822586" lon="19.64258290333434"><ele>0.0</ele><time>2026-05-04T15:31:36.999Z</time></trkpt><trkpt lat="41.768949541951706" lon="19.6425319551077"><ele>0.0</ele><time>2026-05-04T15:31:37.999Z</time></trkpt><trkpt lat="41.76887587481721" lon="19.64247668402686"><ele>0.0</ele><time>2026-05-04T15:31:38.999Z</time></trkpt><trkpt lat="41.76878906814252" lon="19.64241768222471"><ele>0.0</ele><time>2026-05-04T15:31:39.999Z</time></trkpt><trkpt lat="41.768697337153604" lon="19.642335991705526"><ele>0.0</ele><time>2026-05-04T15:31:40.999Z</time></trkpt><trkpt lat="41.768592342913884" lon="19.642254853268003"><ele>0.0</ele><time>2026-05-04T15:31:41.999Z</time></trkpt><trkpt lat="41.76848546953887" lon="19.642176819375475"><ele>0.25</ele><time>2026-05-04T15:31:42.999Z</time></trkpt><trkpt lat="41.768376338648245" lon="19.642098309713433"><ele>0.5</ele><time>2026-05-04T15:31:43.999Z</time></trkpt><trkpt lat="41.768270478247466" lon="19.6420272208377"><ele>0.75</ele><time>2026-05-04T15:31:44.999Z</time></trkpt><trkpt lat="41.76818608979712" lon="19.64194625185872"><ele>1.0</ele><time>2026-05-04T15:31:45.999Z</time></trkpt><trkpt lat="41.76810427710157" lon="19.641848292348026"><ele>1.0</ele><time>2026-05-04T15:31:46.999Z</time></trkpt><trkpt lat="41.768028729488286" lon="19.641759705477224"><ele>1.0</ele><time>2026-05-04T15:31:47.999Z</time></trkpt><trkpt lat="41.767940795572684" lon="19.641728025306357"><ele>1.0</ele><time>2026-05-04T15:31:49.999Z</time></trkpt><trkpt lat="41.76784245590259" lon="19.64183159886598"><ele>1.0</ele><time>2026-05-04T15:31:51.999Z</time></trkpt><trkpt lat="41.76776871471736" lon="19.641933131168646"><ele>1.0</ele><time>2026-05-04T15:31:52.999Z</time></trkpt><trkpt lat="41.76768601730058" lon="19.642042769202533"><ele>1.0</ele><time>2026-05-04T15:31:53.999Z</time></trkpt><trkpt lat="41.76759312045262" lon="19.64218218621624"><ele>1.0</ele><time>2026-05-04T15:31:54.999Z</time></trkpt><trkpt lat="41.76749795894777" lon="19.64232502691683"><ele>1.0</ele><time>2026-05-04T15:31:55.999Z</time></trkpt><trkpt lat="41.76739510524676" lon="19.642470441508475"><ele>1.0</ele><time>2026-05-04T15:31:56.999Z</time></trkpt><trkpt lat="41.767283188721585" lon="19.642582029471573"><ele>1.0</ele><time>2026-05-04T15:31:57.999Z</time></trkpt><trkpt lat="41.76716581654531" lon="19.642639525355857"><ele>1.0</ele><time>2026-05-04T15:31:58.999Z</time></trkpt><trkpt lat="41.767026805380546" lon="19.642671879863453"><ele>1.0</ele><time>2026-05-04T15:31:59.999Z</time></trkpt><trkpt lat="41.76686970564847" lon="19.64268696087692"><ele>1.0</ele><time>2026-05-04T15:32:00.999Z</time></trkpt><trkpt lat="41.76670348151734" lon="19.642700709831132"><ele>0.6666666666666666</ele><time>2026-05-04T15:32:01.999Z</time></trkpt><trkpt lat="41.76652068329075" lon="19.642723211883947"><ele>0.3333333333333333</ele><time>2026-05-04T15:32:02.999Z</time></trkpt><trkpt lat="41.766336644449446" lon="19.642753407596174"><ele>0.0</ele><time>2026-05-04T15:32:03.999Z</time></trkpt><trkpt lat="41.76614746622272" lon="19.642789243629004"><ele>0.0</ele><time>2026-05-04T15:32:04.999Z</time></trkpt><trkpt lat="41.76595016487185" lon="19.642821076099956"><ele>0.0</ele><time>2026-05-04T15:32:05.999Z</time></trkpt><trkpt lat="41.765754070743114" lon="19.642845700048124"><ele>0.0</ele><time>2026-05-04T15:32:06.999Z</time></trkpt><trkpt lat="41.76555401630574" lon="19.642875407407722"><ele>0.0</ele><time>2026-05-04T15:32:07.999Z</time></trkpt><trkpt lat="41.76534515160866" lon="19.64290904208906"><ele>0.0</ele><time>2026-05-04T15:32:08.999Z</time></trkpt><trkpt lat="41.76515179058569" lon="19.642944825730417"><ele>0.0</ele><time>2026-05-04T15:32:09.999Z</time></trkpt><trkpt lat="41.76496059441212" lon="19.64297688471835"><ele>0.6666666666666666</ele><time>2026-05-04T15:32:10.999Z</time></trkpt><trkpt lat="41.764777935083245" lon="19.643003844916187"><ele>1.3333333333333333</ele><time>2026-05-04T15:32:11.999Z</time></trkpt><trkpt lat="41.76460223915466" lon="19.643031584379575"><ele>2.0</ele><time>2026-05-04T15:32:12.999Z</time></trkpt><trkpt lat="41.764435914365166" lon="19.643054824978"><ele>0.33333333333333326</ele><time>2026-05-04T15:32:13.999Z</time></trkpt><trkpt lat="41.76426622640765" lon="19.643084166089714"><ele>-1.3333333333333335</ele><time>2026-05-04T15:32:14.999Z</time></trkpt><trkpt lat="41.764096979631404" lon="19.643118196326544"><ele>-3.0</ele><time>2026-05-04T15:32:15.999Z</time></trkpt><trkpt lat="41.76393975865773" lon="19.643157050024747"><ele>-3.0</ele><time>2026-05-04T15:32:16.999Z</time></trkpt><trkpt lat="41.76377920691751" lon="19.643200469301853"><ele>-3.0</ele><time>2026-05-04T15:32:17.999Z</time></trkpt><trkpt lat="41.763613871760946" lon="19.643232625281843"><ele>-3.0</ele><time>2026-05-04T15:32:18.999Z</time></trkpt><trkpt lat="41.763444651937796" lon="19.64325998037748"><ele>-2.3333333333333335</ele><time>2026-05-04T15:32:19.999Z</time></trkpt><trkpt lat="41.76326961710274" lon="19.64327756248756"><ele>-1.6666666666666665</ele><time>2026-05-04T15:32:20.999Z</time></trkpt><trkpt lat="41.76308976382802" lon="19.64330214428112"><ele>-1.0</ele><time>2026-05-04T15:32:21.999Z</time></trkpt><trkpt lat="41.762901090347704" lon="19.64333107175191"><ele>-1.0</ele><time>2026-05-04T15:32:22.999Z</time></trkpt><trkpt lat="41.76270816236068" lon="19.643359742346394"><ele>-1.0</ele><time>2026-05-04T15:32:23.999Z</time></trkpt><trkpt lat="41.76251191330342" lon="19.64339272973199"><ele>-1.0</ele><time>2026-05-04T15:32:24.999Z</time></trkpt><trkpt lat="41.76231659510931" lon="19.643426952693183"><ele>-0.6666666666666666</ele><time>2026-05-04T15:32:26Z</time></trkpt><trkpt lat="41.76211613169138" lon="19.643464367520885"><ele>-0.3333333333333333</ele><time>2026-05-04T15:32:27Z</time></trkpt><trkpt lat="41.76191839690124" lon="19.64349371955244"><ele>0.0</ele><time>2026-05-04T15:32:28Z</time></trkpt><trkpt lat="41.761711972842875" lon="19.64352775744437"><ele>-0.3333333333333333</ele><time>2026-05-04T15:32:29Z</time></trkpt><trkpt lat="41.761503895246726" lon="19.643566652835517"><ele>-0.6666666666666666</ele><time>2026-05-04T15:32:30Z</time></trkpt><trkpt lat="41.76129585591686" lon="19.643600713974216"><ele>-1.0</ele><time>2026-05-04T15:32:31Z</time></trkpt><trkpt lat="41.76107943310232" lon="19.643641253195074"><ele>-0.6666666666666666</ele><time>2026-05-04T15:32:32Z</time></trkpt><trkpt lat="41.760867095890674" lon="19.64367503198865"><ele>-0.3333333333333333</ele><time>2026-05-04T15:32:33Z</time></trkpt><trkpt lat="41.76066270774759" lon="19.643709205460933"><ele>0.0</ele><time>2026-05-04T15:32:34Z</time></trkpt><trkpt lat="41.76046715287904" lon="19.6437393189791"><ele>0.0</ele><time>2026-05-04T15:32:35Z</time></trkpt><trkpt lat="41.760263151332296" lon="19.643772440238553"><ele>0.0</ele><time>2026-05-04T15:32:36Z</time></trkpt><trkpt lat="41.76006022434672" lon="19.643809819489114"><ele>0.0</ele><time>2026-05-04T15:32:37Z</time></trkpt><trkpt lat="41.75984967421774" lon="19.643844783202116"><ele>0.0</ele><time>2026-05-04T15:32:38Z</time></trkpt><trkpt lat="41.75963826527041" lon="19.643879568721996"><ele>0.0</ele><time>2026-05-04T15:32:39Z</time></trkpt><trkpt lat="41.759426457338684" lon="19.643915339132334"><ele>0.0</ele><time>2026-05-04T15:32:40Z</time></trkpt><trkpt lat="41.75921366647086" lon="19.643951760767436"><ele>0.0</ele><time>2026-05-04T15:32:41Z</time></trkpt><trkpt lat="41.7590014797945" lon="19.64398828218621"><ele>0.0</ele><time>2026-05-04T15:32:42Z</time></trkpt><trkpt lat="41.75878546968497" lon="19.644027457731127"><ele>0.0</ele><time>2026-05-04T15:32:43Z</time></trkpt><trkpt lat="41.758572593429804" lon="19.644065758583817"><ele>0.3333333333333333</ele><time>2026-05-04T15:32:44Z</time></trkpt><trkpt lat="41.75836373652218" lon="19.64410019786287"><ele>0.6666666666666666</ele><time>2026-05-04T15:32:45Z</time></trkpt><trkpt lat="41.758157507670184" lon="19.644131825636915"><ele>1.0</ele><time>2026-05-04T15:32:46Z</time></trkpt><trkpt lat="41.75794920328618" lon="19.644167643289176"><ele>1.0</ele><time>2026-05-04T15:32:47Z</time></trkpt><trkpt lat="41.75774316815442" lon="19.64420512817507"><ele>1.0</ele><time>2026-05-04T15:32:48Z</time></trkpt><trkpt lat="41.757539155553005" lon="19.64423704579463"><ele>1.0</ele><time>2026-05-04T15:32:49Z</time></trkpt><trkpt lat="41.75734118218791" lon="19.644269452490658"><ele>1.0</ele><time>2026-05-04T15:32:50Z</time></trkpt><trkpt lat="41.75714346907225" lon="19.644304623153918"><ele>1.0</ele><time>2026-05-04T15:32:51Z</time></trkpt><trkpt lat="41.75694453756381" lon="19.644338535754326"><ele>1.0</ele><time>2026-05-04T15:32:52Z</time></trkpt><trkpt lat="41.75674274952687" lon="19.64437403200016"><ele>-0.33333333333333337</ele><time>2026-05-04T15:32:53Z</time></trkpt><trkpt lat="41.75653967596627" lon="19.644411872657233"><ele>-1.6666666666666667</ele><time>2026-05-04T15:32:54Z</time></trkpt><trkpt lat="41.756336081875446" lon="19.644450387617912"><ele>-3.0</ele><time>2026-05-04T15:32:55Z</time></trkpt><trkpt lat="41.75614323731091" lon="19.644484863720855"><ele>-1.3333333333333335</ele><time>2026-05-04T15:32:56Z</time></trkpt><trkpt lat="41.75596122253087" lon="19.644518508724563"><ele>0.33333333333333326</ele><time>2026-05-04T15:32:57Z</time></trkpt><trkpt lat="41.75579957851594" lon="19.644548034349018"><ele>2.0</ele><time>2026-05-04T15:32:58Z</time></trkpt><trkpt lat="41.75566420361483" lon="19.64456916704819"><ele>2.0</ele><time>2026-05-04T15:32:59Z</time></trkpt><trkpt lat="41.755531704018885" lon="19.644600796735492"><ele>2.0</ele><time>2026-05-04T15:33:00Z</time></trkpt><trkpt lat="41.75537667900986" lon="19.644656589240153"><ele>2.0</ele><time>2026-05-04T15:33:01Z</time></trkpt><trkpt lat="41.75520676477214" lon="19.644738285740388"><ele>1.3333333333333333</ele><time>2026-05-04T15:33:02Z</time></trkpt><trkpt lat="41.75503270848217" lon="19.64482651651094"><ele>0.6666666666666666</ele><time>2026-05-04T15:33:03Z</time></trkpt><trkpt lat="41.75485642553835" lon="19.644910760433614"><ele>0.0</ele><time>2026-05-04T15:33:04Z</time></trkpt><trkpt lat="41.75467627302446" lon="19.645001253215696"><ele>0.0</ele><time>2026-05-04T15:33:05Z</time></trkpt><trkpt lat="41.75449843293297" lon="19.645095607145553"><ele>0.0</ele><time>2026-05-04T15:33:06Z</time></trkpt><trkpt lat="41.75431702186079" lon="19.64518976305693"><ele>0.0</ele><time>2026-05-04T15:33:07Z</time></trkpt><trkpt lat="41.75413702355981" lon="19.645280850582985"><ele>0.0</ele><time>2026-05-04T15:33:08Z</time></trkpt><trkpt lat="41.75397350912642" lon="19.645359350315186"><ele>0.0</ele><time>2026-05-04T15:33:09Z</time></trkpt><trkpt lat="41.75382224421784" lon="19.645429304370097"><ele>0.0</ele><time>2026-05-04T15:33:10Z</time></trkpt><trkpt lat="41.7536844852761" lon="19.645499811955858"><ele>0.0</ele><time>2026-05-04T15:33:11Z</time></trkpt><trkpt lat="41.75352552306174" lon="19.645583045887175"><ele>0.0</ele><time>2026-05-04T15:33:12Z</time></trkpt><trkpt lat="41.75334034845419" lon="19.645662841579693"><ele>0.0</ele><time>2026-05-04T15:33:13Z</time></trkpt><trkpt lat="41.7531515518475" lon="19.645743900665696"><ele>0.0</ele><time>2026-05-04T15:33:14Z</time></trkpt><trkpt lat="41.75296607444273" lon="19.645832650463273"><ele>0.0</ele><time>2026-05-04T15:33:15Z</time></trkpt><trkpt lat="41.752790181102014" lon="19.64591911473607"><ele>0.0</ele><time>2026-05-04T15:33:16Z</time></trkpt><trkpt lat="41.75262164322489" lon="19.646009134957847"><ele>0.0</ele><time>2026-05-04T15:33:17Z</time></trkpt><trkpt lat="41.75244853656971" lon="19.646098557257393"><ele>0.0</ele><time>2026-05-04T15:33:18Z</time></trkpt><trkpt lat="41.752269372163546" lon="19.646183057074335"><ele>0.0</ele><time>2026-05-04T15:33:19Z</time></trkpt><trkpt lat="41.752103462878914" lon="19.646259246269864"><ele>-0.5</ele><time>2026-05-04T15:33:20Z</time></trkpt><trkpt lat="41.75195496232089" lon="19.646338673731194"><ele>-1.0</ele><time>2026-05-04T15:33:21Z</time></trkpt><trkpt lat="41.75183956546052" lon="19.646391386329455"><ele>-1.5</ele><time>2026-05-04T15:33:22Z</time></trkpt><trkpt lat="41.75173184025668" lon="19.64643706141693"><ele>-2.0</ele><time>2026-05-04T15:33:23Z</time></trkpt><trkpt lat="41.75163539948757" lon="19.646480038144606"><ele>-2.5</ele><time>2026-05-04T15:33:24Z</time></trkpt><trkpt lat="41.751545304467534" lon="19.646526585816616"><ele>-3.0</ele><time>2026-05-04T15:33:25Z</time></trkpt><trkpt lat="41.7514469089858" lon="19.64659500738127"><ele>-3.5</ele><time>2026-05-04T15:33:26Z</time></trkpt><trkpt lat="41.75132924103112" lon="19.646671257931427"><ele>-4.0</ele><time>2026-05-04T15:33:27Z</time></trkpt><trkpt lat="41.75117373949625" lon="19.646742503256174"><ele>-4.0</ele><time>2026-05-04T15:33:28Z</time></trkpt><trkpt lat="41.75100336407747" lon="19.646806309689467"><ele>-4.0</ele><time>2026-05-04T15:33:29Z</time></trkpt><trkpt lat="41.75082831764522" lon="19.646865492471935"><ele>-4.0</ele><time>2026-05-04T15:33:30Z</time></trkpt><trkpt lat="41.75065506170914" lon="19.646935141188948"><ele>-2.333333333333333</ele><time>2026-05-04T15:33:31Z</time></trkpt><trkpt lat="41.75048069232766" lon="19.647003945876055"><ele>-0.6666666666666666</ele><time>2026-05-04T15:33:32Z</time></trkpt><trkpt lat="41.75029070116102" lon="19.647058663806106"><ele>1.0</ele><time>2026-05-04T15:33:33Z</time></trkpt><trkpt lat="41.75009847296189" lon="19.64709444505883"><ele>1.3333333333333333</ele><time>2026-05-04T15:33:34Z</time></trkpt><trkpt lat="41.74989670243212" lon="19.647119707751134"><ele>1.6666666666666665</ele><time>2026-05-04T15:33:35Z</time></trkpt><trkpt lat="41.74969160882871" lon="19.64713102297722"><ele>2.0</ele><time>2026-05-04T15:33:36Z</time></trkpt><trkpt lat="41.74948900974785" lon="19.647125506379183"><ele>0.6666666666666666</ele><time>2026-05-04T15:33:37Z</time></trkpt><trkpt lat="41.74929595541995" lon="19.647113527319835"><ele>-0.6666666666666666</ele><time>2026-05-04T15:33:38Z</time></trkpt><trkpt lat="41.74910548761894" lon="19.647104527092807"><ele>-2.0</ele><time>2026-05-04T15:33:39Z</time></trkpt><trkpt lat="41.74890999549851" lon="19.647092252248655"><ele>-2.0</ele><time>2026-05-04T15:33:40Z</time></trkpt><trkpt lat="41.74871370283516" lon="19.647084789651643"><ele>-2.0</ele><time>2026-05-04T15:33:41Z</time></trkpt><trkpt lat="41.74851534550769" lon="19.647079178973726"><ele>-2.0</ele><time>2026-05-04T15:33:42Z</time></trkpt><trkpt lat="41.748309660424354" lon="19.647075709715732"><ele>-2.6666666666666665</ele><time>2026-05-04T15:33:43Z</time></trkpt><trkpt lat="41.74809880192498" lon="19.647074654361745"><ele>-3.333333333333333</ele><time>2026-05-04T15:33:44Z</time></trkpt><trkpt lat="41.74787779800481" lon="19.6470700588378"><ele>-4.0</ele><time>2026-05-04T15:33:45Z</time></trkpt><trkpt lat="41.7476523308443" lon="19.647060293444998"><ele>-1.5</ele><time>2026-05-04T15:33:46Z</time></trkpt><trkpt lat="41.74742233938074" lon="19.64704855872926"><ele>1.0</ele><time>2026-05-04T15:33:47Z</time></trkpt><trkpt lat="41.747196390322856" lon="19.647036570240807"><ele>1.0</ele><time>2026-05-04T15:33:48Z</time></trkpt><trkpt lat="41.74699724537215" lon="19.647029285824914"><ele>1.0</ele><time>2026-05-04T15:33:49Z</time></trkpt><trkpt lat="41.74682509350787" lon="19.64702234376842"><ele>1.0</ele><time>2026-05-04T15:33:50Z</time></trkpt><trkpt lat="41.74668359611534" lon="19.647015767624193"><ele>1.2000000000000002</ele><time>2026-05-04T15:33:51Z</time></trkpt><trkpt lat="41.74657501913216" lon="19.647011152962477"><ele>1.4000000000000001</ele><time>2026-05-04T15:33:52Z</time></trkpt><trkpt lat="41.74648091528806" lon="19.64698427826958"><ele>1.6</ele><time>2026-05-04T15:33:54Z</time></trkpt><trkpt lat="41.74635921009113" lon="19.646944138625404"><ele>1.8</ele><time>2026-05-04T15:34:02.999Z</time></trkpt><trkpt lat="41.74626061332185" lon="19.647022132864635"><ele>2.0</ele><time>2026-05-04T15:34:03.999Z</time></trkpt><trkpt lat="41.74616221479545" lon="19.647096484754865"><ele>2.0</ele><time>2026-05-04T15:34:04.999Z</time></trkpt><trkpt lat="41.74604715897303" lon="19.64717392404791"><ele>2.0</ele><time>2026-05-04T15:34:05.999Z</time></trkpt><trkpt lat="41.74590779625984" lon="19.647255506646466"><ele>2.0</ele><time>2026-05-04T15:34:06.999Z</time></trkpt><trkpt lat="41.74574873905564" lon="19.647343045171983"><ele>1.3333333333333333</ele><time>2026-05-04T15:34:07.999Z</time></trkpt><trkpt lat="41.74558045928647" lon="19.647441688116842"><ele>0.6666666666666666</ele><time>2026-05-04T15:34:08.999Z</time></trkpt><trkpt lat="41.74540385293797" lon="19.647553132444497"><ele>0.0</ele><time>2026-05-04T15:34:09.999Z</time></trkpt><trkpt lat="41.7452236723741" lon="19.647665862691092"><ele>0.0</ele><time>2026-05-04T15:34:10.999Z</time></trkpt><trkpt lat="41.74503402300081" lon="19.647782909756693"><ele>0.0</ele><time>2026-05-04T15:34:11.999Z</time></trkpt><trkpt lat="41.74484508375054" lon="19.647901750781383"><ele>0.0</ele><time>2026-05-04T15:34:12.999Z</time></trkpt><trkpt lat="41.74465896805359" lon="19.64801939138865"><ele>0.0</ele><time>2026-05-04T15:34:13.999Z</time></trkpt><trkpt lat="41.74447257123753" lon="19.648139395200214"><ele>0.0</ele><time>2026-05-04T15:34:14.999Z</time></trkpt><trkpt lat="41.74428331486797" lon="19.6482581707547"><ele>0.0</ele><time>2026-05-04T15:34:15.999Z</time></trkpt><trkpt lat="41.74409095331144" lon="19.648376861552173"><ele>-0.3333333333333333</ele><time>2026-05-04T15:34:16.999Z</time></trkpt><trkpt lat="41.7438987369597" lon="19.648498422421262"><ele>-0.6666666666666666</ele><time>2026-05-04T15:34:17.999Z</time></trkpt><trkpt lat="41.74370731369265" lon="19.648622361413885"><ele>-1.0</ele><time>2026-05-04T15:34:18.999Z</time></trkpt><trkpt lat="41.74352447206061" lon="19.648741478806663"><ele>-1.0</ele><time>2026-05-04T15:34:19.999Z</time></trkpt><trkpt lat="41.74334175814672" lon="19.64885776257395"><ele>-1.0</ele><time>2026-05-04T15:34:20.999Z</time></trkpt><trkpt lat="41.74315448816367" lon="19.648979568652408"><ele>-1.0</ele><time>2026-05-04T15:34:21.999Z</time></trkpt><trkpt lat="41.742963065910686" lon="19.649103541472556"><ele>-1.0</ele><time>2026-05-04T15:34:22.999Z</time></trkpt><trkpt lat="41.74276019088487" lon="19.649229308908392"><ele>-1.0</ele><time>2026-05-04T15:34:23.999Z</time></trkpt><trkpt lat="41.74255315939273" lon="19.649355554594557"><ele>0.0</ele><time>2026-05-04T15:34:24.999Z</time></trkpt><trkpt lat="41.7423465983516" lon="19.649484964697507"><ele>1.0</ele><time>2026-05-04T15:34:25.999Z</time></trkpt><trkpt lat="41.74213573010739" lon="19.649617288184523"><ele>1.0</ele><time>2026-05-04T15:34:26.999Z</time></trkpt><trkpt lat="41.74191906176205" lon="19.649752157532014"><ele>1.0</ele><time>2026-05-04T15:34:27.999Z</time></trkpt><trkpt lat="41.74169901889414" lon="19.64988716163977"><ele>0.0</ele><time>2026-05-04T15:34:28.999Z</time></trkpt><trkpt lat="41.74147715828024" lon="19.650022223223523"><ele>-1.0</ele><time>2026-05-04T15:34:29.999Z</time></trkpt><trkpt lat="41.74125850578869" lon="19.650164348267136"><ele>-2.5</ele><time>2026-05-04T15:34:30.999Z</time></trkpt><trkpt lat="41.74103842502867" lon="19.650304103518035"><ele>-4.0</ele><time>2026-05-04T15:34:32Z</time></trkpt><trkpt lat="41.74084598298507" lon="19.65041875047331"><ele>-4.0</ele><time>2026-05-04T15:34:33Z</time></trkpt><trkpt lat="41.74067374775493" lon="19.650531266985617"><ele>-4.0</ele><time>2026-05-04T15:34:34Z</time></trkpt><trkpt lat="41.7405156446682" lon="19.650627834355834"><ele>-4.0</ele><time>2026-05-04T15:34:35Z</time></trkpt><trkpt lat="41.74035950155263" lon="19.650722826339802"><ele>-2.6666666666666665</ele><time>2026-05-04T15:34:36Z</time></trkpt><trkpt lat="41.740184413908665" lon="19.650831594819813"><ele>-1.3333333333333333</ele><time>2026-05-04T15:34:37Z</time></trkpt><trkpt lat="41.7399994288866" lon="19.650946108989665"><ele>0.0</ele><time>2026-05-04T15:34:38Z</time></trkpt><trkpt lat="41.73980689895984" lon="19.651069897379962"><ele>0.5</ele><time>2026-05-04T15:34:39Z</time></trkpt><trkpt lat="41.73960246148943" lon="19.651200285973307"><ele>1.0</ele><time>2026-05-04T15:34:40Z</time></trkpt><trkpt lat="41.739385559773716" lon="19.651330730089583"><ele>-1.0</ele><time>2026-05-04T15:34:41Z</time></trkpt><trkpt lat="41.739166514648275" lon="19.651457991245497"><ele>-3.0</ele><time>2026-05-04T15:34:42Z</time></trkpt><trkpt lat="41.73893660938904" lon="19.651597724108594"><ele>-3.0</ele><time>2026-05-04T15:34:43Z</time></trkpt><trkpt lat="41.73869925076108" lon="19.65174515098488"><ele>-3.0</ele><time>2026-05-04T15:34:44Z</time></trkpt><trkpt lat="41.73845578575249" lon="19.651896378099092"><ele>-1.5</ele><time>2026-05-04T15:34:45Z</time></trkpt><trkpt lat="41.73821163031021" lon="19.65205196616772"><ele>0.0</ele><time>2026-05-04T15:34:46Z</time></trkpt><trkpt lat="41.73796355215207" lon="19.652209328817545"><ele>1.5</ele><time>2026-05-04T15:34:47Z</time></trkpt><trkpt lat="41.737714980979995" lon="19.65236807341267"><ele>3.0</ele><time>2026-05-04T15:34:48Z</time></trkpt><trkpt lat="41.737467126670055" lon="19.652523718526325"><ele>3.0</ele><time>2026-05-04T15:34:49Z</time></trkpt><trkpt lat="41.73721775455639" lon="19.65267750587005"><ele>3.0</ele><time>2026-05-04T15:34:50Z</time></trkpt><trkpt lat="41.73696851745426" lon="19.652829920988598"><ele>3.5</ele><time>2026-05-04T15:34:51Z</time></trkpt><trkpt lat="41.73672110578153" lon="19.6529807989958"><ele>4.0</ele><time>2026-05-04T15:34:52Z</time></trkpt><trkpt lat="41.736481923693056" lon="19.6531308656735"><ele>4.0</ele><time>2026-05-04T15:34:53Z</time></trkpt><trkpt lat="41.736258298492665" lon="19.653269102435168"><ele>4.0</ele><time>2026-05-04T15:34:54Z</time></trkpt><trkpt lat="41.73603576089371" lon="19.653408645747565"><ele>1.5</ele><time>2026-05-04T15:34:55Z</time></trkpt><trkpt lat="41.73582242900023" lon="19.65354099093976"><ele>-1.0</ele><time>2026-05-04T15:34:56Z</time></trkpt><trkpt lat="41.73561845322092" lon="19.653672339410413"><ele>-1.25</ele><time>2026-05-04T15:34:57Z</time></trkpt><trkpt lat="41.73544253097062" lon="19.65378288722215"><ele>-1.5</ele><time>2026-05-04T15:34:58Z</time></trkpt><trkpt lat="41.735319471647905" lon="19.653859195740548"><ele>-1.75</ele><time>2026-05-04T15:34:59Z</time></trkpt><trkpt lat="41.73524083194647" lon="19.6539003976106"><ele>-2.0</ele><time>2026-05-04T15:35:00Z</time></trkpt><trkpt lat="41.735174089011316" lon="19.65390547216565"><ele>-2.1666666666666665</ele><time>2026-05-04T15:35:03Z</time></trkpt><trkpt lat="41.73516029218097" lon="19.65381968625184"><ele>-2.333333333333333</ele><time>2026-05-04T15:35:11Z</time></trkpt><trkpt lat="41.735142765675896" lon="19.653713225325745"><ele>-2.5</ele><time>2026-05-04T15:35:13Z</time></trkpt><trkpt lat="41.73516740331772" lon="19.65361610599741"><ele>-2.6666666666666665</ele><time>2026-05-04T15:35:15Z</time></trkpt><trkpt lat="41.73528330373102" lon="19.653563550499697"><ele>-2.8333333333333335</ele><time>2026-05-04T15:35:17Z</time></trkpt><trkpt lat="41.73535833761998" lon="19.65355888618653"><ele>-3.0</ele><time>2026-05-04T15:35:18Z</time></trkpt><trkpt lat="41.735435393588354" lon="19.653468700705474"><ele>-2.6</ele><time>2026-05-04T15:35:20Z</time></trkpt><trkpt lat="41.73542743406576" lon="19.653366301169402"><ele>-2.1999999999999997</ele><time>2026-05-04T15:35:23Z</time></trkpt><trkpt lat="41.73536506391819" lon="19.65351231781354"><ele>-1.8</ele><time>2026-05-04T15:47:38.02Z</time></trkpt><trkpt lat="41.73537043128224" lon="19.653358182671134"><ele>-1.4</ele><time>2026-05-04T15:47:39.022Z</time></trkpt><trkpt lat="41.73544404227896" lon="19.65337412775961"><ele>-1.0</ele><time>2026-05-04T15:49:42.999Z</time></trkpt><trkpt lat="41.73550666927353" lon="19.653349154352803"><ele>-0.9999999999999999</ele><time>2026-05-04T15:49:48.999Z</time></trkpt><trkpt lat="41.735537244273495" lon="19.6534332001226"><ele>-1.0</ele><time>2026-05-04T15:49:51Z</time></trkpt><trkpt lat="41.735508049433186" lon="19.653553075865275"><ele>-1.0</ele><time>2026-05-04T15:49:53Z</time></trkpt><trkpt lat="41.73545154858498" lon="19.653639292607146"><ele>-1.0</ele><time>2026-05-04T15:49:55Z</time></trkpt><trkpt lat="41.73538952453762" lon="19.65367675997683"><ele>-0.9999999999999999</ele><time>2026-05-04T15:49:57Z</time></trkpt><trkpt lat="41.735305977774" lon="19.65373902233722"><ele>-1.0</ele><time>2026-05-04T15:50:00Z</time></trkpt><trkpt lat="41.735228332783954" lon="19.653829769135445"><ele>-1.4</ele><time>2026-05-04T15:50:02Z</time></trkpt><trkpt lat="41.735127473968475" lon="19.6539069086616"><ele>-1.8</ele><time>2026-05-04T15:50:04Z</time></trkpt><trkpt lat="41.73503072430474" lon="19.653982966835553"><ele>-2.1999999999999997</ele><time>2026-05-04T15:50:06Z</time></trkpt><trkpt lat="41.73496301757161" lon="19.654027559916777"><ele>-2.6</ele><time>2026-05-04T15:50:07Z</time></trkpt><trkpt lat="41.734889416887825" lon="19.654074983484975"><ele>-3.0</ele><time>2026-05-04T15:50:08Z</time></trkpt><trkpt lat="41.73481638888447" lon="19.65412476226281"><ele>-3.0</ele><time>2026-05-04T15:50:09Z</time></trkpt><trkpt lat="41.734732866607374" lon="19.6541790129866"><ele>-3.0</ele><time>2026-05-04T15:50:10Z</time></trkpt><trkpt lat="41.734630009227416" lon="19.65424217534925"><ele>-3.0</ele><time>2026-05-04T15:50:11Z</time></trkpt><trkpt lat="41.734515576649464" lon="19.654311955548785"><ele>-3.0</ele><time>2026-05-04T15:50:12Z</time></trkpt><trkpt lat="41.73438989654951" lon="19.654390673536223"><ele>-3.0</ele><time>2026-05-04T15:50:13Z</time></trkpt><trkpt lat="41.73425514016011" lon="19.654478658477593"><ele>-3.0</ele><time>2026-05-04T15:50:14Z</time></trkpt><trkpt lat="41.7341154209289" lon="19.65456735231389"><ele>-3.0</ele><time>2026-05-04T15:50:15Z</time></trkpt><trkpt lat="41.73396261791216" lon="19.654662253986714"><ele>-3.0</ele><time>2026-05-04T15:50:16Z</time></trkpt><trkpt lat="41.73380089096809" lon="19.654763178777618"><ele>-3.0</ele><time>2026-05-04T15:50:17Z</time></trkpt><trkpt lat="41.73362918011793" lon="19.65487038247551"><ele>-3.0</ele><time>2026-05-04T15:50:18Z</time></trkpt><trkpt lat="41.73345116114404" lon="19.65498426948315"><ele>-2.3333333333333335</ele><time>2026-05-04T15:50:19Z</time></trkpt><trkpt lat="41.733265966096944" lon="19.65509983354762"><ele>-1.6666666666666665</ele><time>2026-05-04T15:50:20Z</time></trkpt><trkpt lat="41.733071398566885" lon="19.65522065796333"><ele>-1.0</ele><time>2026-05-04T15:50:21Z</time></trkpt><trkpt lat="41.73287295557387" lon="19.655345028314027"><ele>0.0</ele><time>2026-05-04T15:50:22Z</time></trkpt><trkpt lat="41.73266762693288" lon="19.655475096411443"><ele>1.0</ele><time>2026-05-04T15:50:23Z</time></trkpt><trkpt lat="41.732459044311014" lon="19.655605760703"><ele>1.0</ele><time>2026-05-04T15:50:24Z</time></trkpt><trkpt lat="41.73224589074885" lon="19.65573810979793"><ele>1.0</ele><time>2026-05-04T15:50:25Z</time></trkpt><trkpt lat="41.732029927127094" lon="19.655870858892744"><ele>0.5</ele><time>2026-05-04T15:50:26Z</time></trkpt><trkpt lat="41.731813581412325" lon="19.65600799900195"><ele>0.0</ele><time>2026-05-04T15:50:27Z</time></trkpt><trkpt lat="41.731596782582386" lon="19.65614821116548"><ele>-0.5</ele><time>2026-05-04T15:50:28Z</time></trkpt><trkpt lat="41.731382639818534" lon="19.65628604680393"><ele>-1.0</ele><time>2026-05-04T15:50:29Z</time></trkpt><trkpt lat="41.73117023475319" lon="19.65641767985268"><ele>-3.0</ele><time>2026-05-04T15:50:30Z</time></trkpt><trkpt lat="41.73095576067518" lon="19.65654780376862"><ele>-5.0</ele><time>2026-05-04T15:50:31Z</time></trkpt><trkpt lat="41.73074118488829" lon="19.65667729868004"><ele>-5.0</ele><time>2026-05-04T15:50:32Z</time></trkpt><trkpt lat="41.73052689843272" lon="19.65680975942592"><ele>-5.0</ele><time>2026-05-04T15:50:33Z</time></trkpt><trkpt lat="41.730316016257085" lon="19.656944755399312"><ele>-4.0</ele><time>2026-05-04T15:50:34Z</time></trkpt><trkpt lat="41.730101074282615" lon="19.657084032988216"><ele>-3.0</ele><time>2026-05-04T15:50:35Z</time></trkpt><trkpt lat="41.7298851748108" lon="19.657222591964686"><ele>-3.0</ele><time>2026-05-04T15:50:36Z</time></trkpt><trkpt lat="41.729664532573544" lon="19.657361780549518"><ele>-3.0</ele><time>2026-05-04T15:50:37Z</time></trkpt><trkpt lat="41.729439766821955" lon="19.657500828657724"><ele>-1.5</ele><time>2026-05-04T15:50:38Z</time></trkpt><trkpt lat="41.729213135955426" lon="19.657640771693078"><ele>0.0</ele><time>2026-05-04T15:50:39Z</time></trkpt><trkpt lat="41.728986741383395" lon="19.657780815555526"><ele>-0.5</ele><time>2026-05-04T15:50:40Z</time></trkpt><trkpt lat="41.72876194502671" lon="19.657918284000328"><ele>-1.0</ele><time>2026-05-04T15:50:41Z</time></trkpt><trkpt lat="41.728539274456395" lon="19.65805448716627"><ele>-0.3333333333333333</ele><time>2026-05-04T15:50:42Z</time></trkpt><trkpt lat="41.72832932208276" lon="19.658188376531314"><ele>0.3333333333333333</ele><time>2026-05-04T15:50:43Z</time></trkpt><trkpt lat="41.728132343454526" lon="19.658310125054562"><ele>1.0</ele><time>2026-05-04T15:50:44Z</time></trkpt><trkpt lat="41.72794606828121" lon="19.65842631347732"><ele>1.0</ele><time>2026-05-04T15:50:45Z</time></trkpt><trkpt lat="41.72776723939773" lon="19.65853647157994"><ele>1.0</ele><time>2026-05-04T15:50:46Z</time></trkpt><trkpt lat="41.72759053196624" lon="19.658646111304993"><ele>1.0</ele><time>2026-05-04T15:50:47Z</time></trkpt><trkpt lat="41.727418087668305" lon="19.658751457794754"><ele>1.0</ele><time>2026-05-04T15:50:48Z</time></trkpt><trkpt lat="41.727251980482066" lon="19.65885502258177"><ele>1.0</ele><time>2026-05-04T15:50:49Z</time></trkpt><trkpt lat="41.727100725789626" lon="19.658957042238512"><ele>1.0</ele><time>2026-05-04T15:50:50Z</time></trkpt><trkpt lat="41.726957360612424" lon="19.659054703536103"><ele>-0.33333333333333337</ele><time>2026-05-04T15:50:51Z</time></trkpt><trkpt lat="41.7268099752921" lon="19.659146562466752"><ele>-1.6666666666666667</ele><time>2026-05-04T15:50:52Z</time></trkpt><trkpt lat="41.726654645458204" lon="19.65924000414142"><ele>-3.0</ele><time>2026-05-04T15:50:53Z</time></trkpt><trkpt lat="41.72649555166032" lon="19.659338124203842"><ele>-3.0</ele><time>2026-05-04T15:50:54Z</time></trkpt><trkpt lat="41.72633083789061" lon="19.65943782869996"><ele>-3.0</ele><time>2026-05-04T15:50:55Z</time></trkpt><trkpt lat="41.72616616161139" lon="19.659538751164593"><ele>-3.0</ele><time>2026-05-04T15:50:56Z</time></trkpt><trkpt lat="41.725998910158715" lon="19.65964605931598"><ele>-2.6666666666666665</ele><time>2026-05-04T15:50:57Z</time></trkpt><trkpt lat="41.72583033892431" lon="19.6597538389685"><ele>-2.333333333333333</ele><time>2026-05-04T15:50:58Z</time></trkpt><trkpt lat="41.72565668861462" lon="19.659861362467755"><ele>-2.0</ele><time>2026-05-04T15:50:59Z</time></trkpt><trkpt lat="41.7254806336504" lon="19.659970325098023"><ele>-2.0</ele><time>2026-05-04T15:51:00Z</time></trkpt><trkpt lat="41.72530023733244" lon="19.66008476447344"><ele>-2.0</ele><time>2026-05-04T15:51:01Z</time></trkpt><trkpt lat="41.72511605553674" lon="19.660199949134437"><ele>-2.0</ele><time>2026-05-04T15:51:02Z</time></trkpt><trkpt lat="41.72492613173013" lon="19.660314290494192"><ele>-1.6666666666666665</ele><time>2026-05-04T15:51:03Z</time></trkpt><trkpt lat="41.724737615236556" lon="19.660445223984077"><ele>-1.3333333333333333</ele><time>2026-05-04T15:51:04Z</time></trkpt><trkpt lat="41.72453304178502" lon="19.66057745133864"><ele>-1.0</ele><time>2026-05-04T15:51:05Z</time></trkpt><trkpt lat="41.7243345219473" lon="19.660700222201537"><ele>0.5</ele><time>2026-05-04T15:51:06Z</time></trkpt><trkpt lat="41.72412792265293" lon="19.66082170885808"><ele>2.0</ele><time>2026-05-04T15:51:07Z</time></trkpt><trkpt lat="41.72391972476384" lon="19.660948286752117"><ele>2.0</ele><time>2026-05-04T15:51:08Z</time></trkpt><trkpt lat="41.723720907452226" lon="19.661070214158393"><ele>2.0</ele><time>2026-05-04T15:51:09Z</time></trkpt><trkpt lat="41.72352337404959" lon="19.661198076172997"><ele>2.0</ele><time>2026-05-04T15:51:10Z</time></trkpt><trkpt lat="41.723321547202005" lon="19.661320871674587"><ele>1.6666666666666665</ele><time>2026-05-04T15:51:11Z</time></trkpt><trkpt lat="41.72312868087185" lon="19.661449923967066"><ele>1.3333333333333333</ele><time>2026-05-04T15:51:12Z</time></trkpt><trkpt lat="41.72293580457253" lon="19.66158684926469"><ele>1.0</ele><time>2026-05-04T15:51:13Z</time></trkpt><trkpt lat="41.72273453144625" lon="19.661713312883293"><ele>2.0</ele><time>2026-05-04T15:51:14Z</time></trkpt><trkpt lat="41.72252675500256" lon="19.661839180171743"><ele>3.0</ele><time>2026-05-04T15:51:15Z</time></trkpt><trkpt lat="41.72230418113393" lon="19.661979399980947"><ele>3.0</ele><time>2026-05-04T15:51:16Z</time></trkpt><trkpt lat="41.72208871288425" lon="19.662114458854727"><ele>3.0</ele><time>2026-05-04T15:51:17Z</time></trkpt><trkpt lat="41.72187216378647" lon="19.662252221487506"><ele>0.5</ele><time>2026-05-04T15:51:18Z</time></trkpt><trkpt lat="41.72165336946271" lon="19.662386932537395"><ele>-2.0</ele><time>2026-05-04T15:51:19Z</time></trkpt><trkpt lat="41.72143342922107" lon="19.662520167269147"><ele>-2.0</ele><time>2026-05-04T15:51:20Z</time></trkpt><trkpt lat="41.721214227969725" lon="19.6626644334584"><ele>-2.0</ele><time>2026-05-04T15:51:21Z</time></trkpt><trkpt lat="41.72100309483456" lon="19.662794479031337"><ele>0.0</ele><time>2026-05-04T15:51:22Z</time></trkpt><trkpt lat="41.720774679601426" lon="19.662940361649486"><ele>2.0</ele><time>2026-05-04T15:51:23Z</time></trkpt><trkpt lat="41.72055245521489" lon="19.663064193580173"><ele>2.0</ele><time>2026-05-04T15:51:24Z</time></trkpt><trkpt lat="41.720325133845776" lon="19.663176498386576"><ele>2.0</ele><time>2026-05-04T15:51:25Z</time></trkpt><trkpt lat="41.720103108057934" lon="19.663217568063143"><ele>-0.5</ele><time>2026-05-04T15:51:26Z</time></trkpt><trkpt lat="41.71986773194094" lon="19.663312898694265"><ele>-3.0</ele><time>2026-05-04T15:51:27Z</time></trkpt><trkpt lat="41.71962606286588" lon="19.663402549201724"><ele>-1.0</ele><time>2026-05-04T15:51:28Z</time></trkpt><trkpt lat="41.71938642374539" lon="19.663479688469533"><ele>1.0</ele><time>2026-05-04T15:51:29Z</time></trkpt><trkpt lat="41.71913947065193" lon="19.66355707771848"><ele>2.0</ele><time>2026-05-04T15:51:30Z</time></trkpt><trkpt lat="41.71889351474747" lon="19.66362527906482"><ele>3.0</ele><time>2026-05-04T15:51:31Z</time></trkpt><trkpt lat="41.71864110836295" lon="19.663686527392453"><ele>1.0</ele><time>2026-05-04T15:51:32Z</time></trkpt><trkpt lat="41.71839046923267" lon="19.663747159146702"><ele>-1.0</ele><time>2026-05-04T15:51:33Z</time></trkpt><trkpt lat="41.718137621595005" lon="19.663806229710705"><ele>-1.0</ele><time>2026-05-04T15:51:34Z</time></trkpt><trkpt lat="41.71788617302174" lon="19.663870429935642"><ele>-1.0</ele><time>2026-05-04T15:51:35Z</time></trkpt><trkpt lat="41.71763229506931" lon="19.66393445567114"><ele>-1.0</ele><time>2026-05-04T15:51:36Z</time></trkpt><trkpt lat="41.71738716699537" lon="19.66399582713473"><ele>-1.0</ele><time>2026-05-04T15:51:37Z</time></trkpt><trkpt lat="41.71714841744866" lon="19.6640571053882"><ele>-1.0</ele><time>2026-05-04T15:51:38Z</time></trkpt><trkpt lat="41.716916349722425" lon="19.66411831297472"><ele>-1.0</ele><time>2026-05-04T15:51:39Z</time></trkpt><trkpt lat="41.71668373686158" lon="19.66417480669643"><ele>-0.5</ele><time>2026-05-04T15:51:40Z</time></trkpt><trkpt lat="41.7164519350041" lon="19.664226002029267"><ele>0.0</ele><time>2026-05-04T15:51:41Z</time></trkpt><trkpt lat="41.71622216516364" lon="19.6642823840159"><ele>0.0</ele><time>2026-05-04T15:51:42Z</time></trkpt><trkpt lat="41.715989832413065" lon="19.664338987573615"><ele>0.0</ele><time>2026-05-04T15:51:43Z</time></trkpt><trkpt lat="41.715753393104805" lon="19.66439667644418"><ele>-0.5</ele><time>2026-05-04T15:51:44Z</time></trkpt><trkpt lat="41.715514052024005" lon="19.664455241394926"><ele>-1.0</ele><time>2026-05-04T15:51:45Z</time></trkpt><trkpt lat="41.71527085356532" lon="19.664514269363586"><ele>-1.5</ele><time>2026-05-04T15:51:46Z</time></trkpt><trkpt lat="41.71502031992522" lon="19.664575559419543"><ele>-2.0</ele><time>2026-05-04T15:51:47Z</time></trkpt><trkpt lat="41.71477151649977" lon="19.664638790225034"><ele>-2.0</ele><time>2026-05-04T15:51:48Z</time></trkpt><trkpt lat="41.71452118010955" lon="19.664705384588324"><ele>-2.0</ele><time>2026-05-04T15:51:49Z</time></trkpt><trkpt lat="41.71426785543845" lon="19.664771509070366"><ele>-1.0</ele><time>2026-05-04T15:51:50Z</time></trkpt><trkpt lat="41.71401332210578" lon="19.66482988335262"><ele>0.0</ele><time>2026-05-04T15:51:51Z</time></trkpt><trkpt lat="41.71375807696178" lon="19.664883814082415"><ele>0.0</ele><time>2026-05-04T15:51:51.999Z</time></trkpt><trkpt lat="41.71350178761846" lon="19.66494173992534"><ele>0.0</ele><time>2026-05-04T15:51:52.999Z</time></trkpt><trkpt lat="41.71324827600638" lon="19.665004189923135"><ele>0.0</ele><time>2026-05-04T15:51:53.999Z</time></trkpt><trkpt lat="41.71300176222248" lon="19.665071978081855"><ele>0.0</ele><time>2026-05-04T15:51:54.999Z</time></trkpt><trkpt lat="41.712753823703785" lon="19.665133780999536"><ele>0.0</ele><time>2026-05-04T15:51:56Z</time></trkpt><trkpt lat="41.712506079342724" lon="19.6651876913956"><ele>0.0</ele><time>2026-05-04T15:51:57Z</time></trkpt><trkpt lat="41.7122565162694" lon="19.665243688499526"><ele>0.0</ele><time>2026-05-04T15:51:58Z</time></trkpt><trkpt lat="41.712007127101806" lon="19.665302808850477"><ele>0.0</ele><time>2026-05-04T15:51:59Z</time></trkpt><trkpt lat="41.71175527245724" lon="19.665361185853286"><ele>0.0</ele><time>2026-05-04T15:52:00Z</time></trkpt><trkpt lat="41.71150559293438" lon="19.665420170073354"><ele>0.0</ele><time>2026-05-04T15:52:00.999Z</time></trkpt><trkpt lat="41.7112559116279" lon="19.665482753941507"><ele>-1.0</ele><time>2026-05-04T15:52:01.999Z</time></trkpt><trkpt lat="41.71100537748962" lon="19.665547934054672"><ele>-2.0</ele><time>2026-05-04T15:52:02.999Z</time></trkpt><trkpt lat="41.71075164281086" lon="19.665614684062813"><ele>-2.0</ele><time>2026-05-04T15:52:03.999Z</time></trkpt><trkpt lat="41.71049962708836" lon="19.66567606744365"><ele>-2.0</ele><time>2026-05-04T15:52:04.999Z</time></trkpt><trkpt lat="41.71023984089794" lon="19.665736275628706"><ele>-0.5</ele><time>2026-05-04T15:52:05.999Z</time></trkpt><trkpt lat="41.70998090290668" lon="19.665794916615642"><ele>1.0</ele><time>2026-05-04T15:52:06.999Z</time></trkpt><trkpt lat="41.709718986417194" lon="19.665855176543758"><ele>1.0</ele><time>2026-05-04T15:52:07.999Z</time></trkpt><trkpt lat="41.709459996794585" lon="19.66592086561539"><ele>1.0</ele><time>2026-05-04T15:52:08.999Z</time></trkpt><trkpt lat="41.709205515373256" lon="19.665987927588436"><ele>1.5</ele><time>2026-05-04T15:52:09.999Z</time></trkpt><trkpt lat="41.70895121903485" lon="19.666048967826164"><ele>2.0</ele><time>2026-05-04T15:52:10.999Z</time></trkpt><trkpt lat="41.70869481067233" lon="19.66610510665654"><ele>2.0</ele><time>2026-05-04T15:52:11.999Z</time></trkpt><trkpt lat="41.70843915732593" lon="19.66616163030682"><ele>2.0</ele><time>2026-05-04T15:52:12.999Z</time></trkpt><trkpt lat="41.708187448605614" lon="19.666223253119938"><ele>2.0</ele><time>2026-05-04T15:52:13.999Z</time></trkpt><trkpt lat="41.70794313124196" lon="19.666286500508317"><ele>2.0</ele><time>2026-05-04T15:52:14.999Z</time></trkpt><trkpt lat="41.70771979350077" lon="19.666346542081744"><ele>2.0</ele><time>2026-05-04T15:52:15.999Z</time></trkpt><trkpt lat="41.707506997502264" lon="19.66639871315256"><ele>2.0</ele><time>2026-05-04T15:52:16.999Z</time></trkpt><trkpt lat="41.707303021657424" lon="19.666449158183486"><ele>2.0</ele><time>2026-05-04T15:52:17.999Z</time></trkpt><trkpt lat="41.70711473027688" lon="19.666496556102114"><ele>2.0</ele><time>2026-05-04T15:52:18.999Z</time></trkpt><trkpt lat="41.70693493817872" lon="19.66654104945718"><ele>2.0</ele><time>2026-05-04T15:52:19.999Z</time></trkpt><trkpt lat="41.706776544762185" lon="19.666578388060675"><ele>2.0</ele><time>2026-05-04T15:52:20.999Z</time></trkpt><trkpt lat="41.70662259704667" lon="19.66661342327108"><ele>3.0</ele><time>2026-05-04T15:52:21.999Z</time></trkpt><trkpt lat="41.70646938645482" lon="19.66665190388064"><ele>4.0</ele><time>2026-05-04T15:52:22.999Z</time></trkpt><trkpt lat="41.70630363751181" lon="19.666693167719146"><ele>5.0</ele><time>2026-05-04T15:52:23.999Z</time></trkpt><trkpt lat="41.70612071210204" lon="19.666744855099488"><ele>4.333333333333334</ele><time>2026-05-04T15:52:24.999Z</time></trkpt><trkpt lat="41.70593210765873" lon="19.666796264509045"><ele>3.666666666666667</ele><time>2026-05-04T15:52:25.999Z</time></trkpt><trkpt lat="41.705733951386" lon="19.666845339539808"><ele>3.0</ele><time>2026-05-04T15:52:26.999Z</time></trkpt><trkpt lat="41.705529383236936" lon="19.666891499336458"><ele>3.0</ele><time>2026-05-04T15:52:27.999Z</time></trkpt><trkpt lat="41.70531916253419" lon="19.666935734668087"><ele>3.0</ele><time>2026-05-04T15:52:28.999Z</time></trkpt><trkpt lat="41.7051102485551" lon="19.666984803333694"><ele>3.0</ele><time>2026-05-04T15:52:29.999Z</time></trkpt><trkpt lat="41.70489772956843" lon="19.6670374766491"><ele>2.6666666666666665</ele><time>2026-05-04T15:52:30.999Z</time></trkpt><trkpt lat="41.704681931993306" lon="19.667091973251715"><ele>2.333333333333333</ele><time>2026-05-04T15:52:31.999Z</time></trkpt><trkpt lat="41.70446101944787" lon="19.667143211268396"><ele>2.0</ele><time>2026-05-04T15:52:32.999Z</time></trkpt><trkpt lat="41.70423060263098" lon="19.667194432969094"><ele>2.0</ele><time>2026-05-04T15:52:33.999Z</time></trkpt><trkpt lat="41.70398723746727" lon="19.66724831400974"><ele>2.0</ele><time>2026-05-04T15:52:34.999Z</time></trkpt><trkpt lat="41.70373966280721" lon="19.66730741593835"><ele>3.0</ele><time>2026-05-04T15:52:35.999Z</time></trkpt><trkpt lat="41.703494374261986" lon="19.667368923347016"><ele>4.0</ele><time>2026-05-04T15:52:36.999Z</time></trkpt><trkpt lat="41.703241541466014" lon="19.667435387513983"><ele>4.0</ele><time>2026-05-04T15:52:37.999Z</time></trkpt><trkpt lat="41.70298293406987" lon="19.66750089153367"><ele>4.0</ele><time>2026-05-04T15:52:38.999Z</time></trkpt><trkpt lat="41.70272575855533" lon="19.667566496528625"><ele>3.5</ele><time>2026-05-04T15:52:39.999Z</time></trkpt><trkpt lat="41.7024841446404" lon="19.66762618149426"><ele>3.0</ele><time>2026-05-04T15:52:40.999Z</time></trkpt><trkpt lat="41.7022497031434" lon="19.667686819840732"><ele>3.0</ele><time>2026-05-04T15:52:41.999Z</time></trkpt><trkpt lat="41.70202636463358" lon="19.667737738741735"><ele>3.0</ele><time>2026-05-04T15:52:42.999Z</time></trkpt><trkpt lat="41.70181443905251" lon="19.667791090620803"><ele>3.0</ele><time>2026-05-04T15:52:43.999Z</time></trkpt><trkpt lat="41.70161582672389" lon="19.667841521222247"><ele>3.666666666666667</ele><time>2026-05-04T15:52:44.999Z</time></trkpt><trkpt lat="41.70142913881278" lon="19.667887587868105"><ele>4.333333333333334</ele><time>2026-05-04T15:52:45.999Z</time></trkpt><trkpt lat="41.70125257437784" lon="19.66792843277966"><ele>5.0</ele><time>2026-05-04T15:52:46.999Z</time></trkpt><trkpt lat="41.70108621308508" lon="19.667967360355227"><ele>4.5</ele><time>2026-05-04T15:52:47.999Z</time></trkpt><trkpt lat="41.70093113102769" lon="19.668004661016205"><ele>4.0</ele><time>2026-05-04T15:52:48.999Z</time></trkpt><trkpt lat="41.7007930822011" lon="19.66803498225452"><ele>3.5</ele><time>2026-05-04T15:52:49.999Z</time></trkpt><trkpt lat="41.7006499650449" lon="19.668065887914818"><ele>3.0</ele><time>2026-05-04T15:52:50.999Z</time></trkpt><trkpt lat="41.70050341122131" lon="19.66810775313126"><ele>3.0</ele><time>2026-05-04T15:52:51.999Z</time></trkpt><trkpt lat="41.70035346381663" lon="19.668146524545925"><ele>3.0</ele><time>2026-05-04T15:52:52.999Z</time></trkpt><trkpt lat="41.70019676920494" lon="19.668184928545394"><ele>3.0</ele><time>2026-05-04T15:52:53.999Z</time></trkpt><trkpt lat="41.70003003949197" lon="19.66822428209497"><ele>3.333333333333333</ele><time>2026-05-04T15:52:54.999Z</time></trkpt><trkpt lat="41.69985552217055" lon="19.668269068391865"><ele>3.6666666666666665</ele><time>2026-05-04T15:52:55.999Z</time></trkpt><trkpt lat="41.699687190086394" lon="19.66830723815457"><ele>4.0</ele><time>2026-05-04T15:52:56.999Z</time></trkpt><trkpt lat="41.69953198186129" lon="19.668344353278364"><ele>3.333333333333333</ele><time>2026-05-04T15:52:57.999Z</time></trkpt><trkpt lat="41.69937948712316" lon="19.66838093695966"><ele>2.6666666666666665</ele><time>2026-05-04T15:52:58.999Z</time></trkpt><trkpt lat="41.699221802636245" lon="19.668419158584534"><ele>2.0</ele><time>2026-05-04T15:52:59.999Z</time></trkpt><trkpt lat="41.69906597835814" lon="19.66845300408448"><ele>2.0</ele><time>2026-05-04T15:53:00.999Z</time></trkpt><trkpt lat="41.69889820437299" lon="19.66848726436703"><ele>2.0</ele><time>2026-05-04T15:53:01.999Z</time></trkpt><trkpt lat="41.69872878326678" lon="19.668520203248868"><ele>2.0</ele><time>2026-05-04T15:53:02.999Z</time></trkpt><trkpt lat="41.69854069476558" lon="19.668565135455246"><ele>3.0</ele><time>2026-05-04T15:53:03.999Z</time></trkpt><trkpt lat="41.69833407258435" lon="19.668619147037262"><ele>4.0</ele><time>2026-05-04T15:53:04.999Z</time></trkpt><trkpt lat="41.69811032866874" lon="19.66867828734211"><ele>5.0</ele><time>2026-05-04T15:53:05.999Z</time></trkpt><trkpt lat="41.6978687499333" lon="19.668740262047635"><ele>5.0</ele><time>2026-05-04T15:53:06.999Z</time></trkpt><trkpt lat="41.69762525663179" lon="19.668805598309756"><ele>5.0</ele><time>2026-05-04T15:53:07.999Z</time></trkpt><trkpt lat="41.69736843513686" lon="19.66886935903995"><ele>5.0</ele><time>2026-05-04T15:53:08.999Z</time></trkpt><trkpt lat="41.69710072235607" lon="19.668935816433876"><ele>5.0</ele><time>2026-05-04T15:53:09.999Z</time></trkpt><trkpt lat="41.69682205020285" lon="19.669003332651993"><ele>5.0</ele><time>2026-05-04T15:53:10.999Z</time></trkpt><trkpt lat="41.69653330341486" lon="19.669067931866756"><ele>5.0</ele><time>2026-05-04T15:53:11.999Z</time></trkpt><trkpt lat="41.69625142734997" lon="19.669125074180858"><ele>5.0</ele><time>2026-05-04T15:53:12.999Z</time></trkpt><trkpt lat="41.69597024316592" lon="19.669192524610583"><ele>5.0</ele><time>2026-05-04T15:53:13.999Z</time></trkpt><trkpt lat="41.69569004979867" lon="19.669267157724157"><ele>5.0</ele><time>2026-05-04T15:53:14.999Z</time></trkpt><trkpt lat="41.69540964188589" lon="19.669342369402674"><ele>5.0</ele><time>2026-05-04T15:53:15.999Z</time></trkpt><trkpt lat="41.6951282686487" lon="19.669415402223706"><ele>5.0</ele><time>2026-05-04T15:53:16.999Z</time></trkpt><trkpt lat="41.69485055504928" lon="19.669488263422323"><ele>5.0</ele><time>2026-05-04T15:53:17.999Z</time></trkpt><trkpt lat="41.69457558679178" lon="19.66955725489617"><ele>4.5</ele><time>2026-05-04T15:53:18.999Z</time></trkpt><trkpt lat="41.69430381466488" lon="19.669630372423047"><ele>4.0</ele><time>2026-05-04T15:53:19.999Z</time></trkpt><trkpt lat="41.69403586487774" lon="19.669702948280612"><ele>4.0</ele><time>2026-05-04T15:53:20.999Z</time></trkpt><trkpt lat="41.693769146026774" lon="19.66977336559035"><ele>4.0</ele><time>2026-05-04T15:53:21.999Z</time></trkpt><trkpt lat="41.69349709151404" lon="19.669839075526607"><ele>5.5</ele><time>2026-05-04T15:53:22.999Z</time></trkpt><trkpt lat="41.693219484784535" lon="19.669905945908983"><ele>7.0</ele><time>2026-05-04T15:53:23.999Z</time></trkpt><trkpt lat="41.69293885883016" lon="19.669969560498654"><ele>7.0</ele><time>2026-05-04T15:53:24.999Z</time></trkpt><trkpt lat="41.692660332539" lon="19.67002912080262"><ele>7.0</ele><time>2026-05-04T15:53:25.999Z</time></trkpt><trkpt lat="41.69239873469106" lon="19.670083699972263"><ele>7.0</ele><time>2026-05-04T15:53:26.999Z</time></trkpt><trkpt lat="41.692151649877864" lon="19.67013575005849"><ele>7.0</ele><time>2026-05-04T15:53:27.999Z</time></trkpt><trkpt lat="41.69191856997173" lon="19.670192471172246"><ele>7.5</ele><time>2026-05-04T15:53:28.999Z</time></trkpt><trkpt lat="41.691680780274226" lon="19.67025069593339"><ele>8.0</ele><time>2026-05-04T15:53:29.999Z</time></trkpt><trkpt lat="41.69145255148342" lon="19.67030654787146"><ele>8.0</ele><time>2026-05-04T15:53:30.999Z</time></trkpt><trkpt lat="41.69123884201395" lon="19.67035900871111"><ele>8.0</ele><time>2026-05-04T15:53:31.999Z</time></trkpt><trkpt lat="41.691030699071014" lon="19.67041288762586"><ele>8.0</ele><time>2026-05-04T15:53:32.999Z</time></trkpt><trkpt lat="41.690821501125875" lon="19.67046498745818"><ele>7.666666666666666</ele><time>2026-05-04T15:53:33.999Z</time></trkpt><trkpt lat="41.6906137688912" lon="19.6705143386404"><ele>7.333333333333334</ele><time>2026-05-04T15:53:34.999Z</time></trkpt><trkpt lat="41.69042310952781" lon="19.670564714570126"><ele>7.0</ele><time>2026-05-04T15:53:35.999Z</time></trkpt><trkpt lat="41.69023648238775" lon="19.670612606918645"><ele>7.0</ele><time>2026-05-04T15:53:36.999Z</time></trkpt><trkpt lat="41.69005121076266" lon="19.670657468526308"><ele>7.0</ele><time>2026-05-04T15:53:37.999Z</time></trkpt><trkpt lat="41.689873497916196" lon="19.670697663307006"><ele>7.0</ele><time>2026-05-04T15:53:38.999Z</time></trkpt><trkpt lat="41.689669094635974" lon="19.670747462927988"><ele>7.0</ele><time>2026-05-04T15:53:39.999Z</time></trkpt><trkpt lat="41.68944586131877" lon="19.670804055195163"><ele>7.0</ele><time>2026-05-04T15:53:40.999Z</time></trkpt><trkpt lat="41.68920482182143" lon="19.670865028751905"><ele>7.0</ele><time>2026-05-04T15:53:41.999Z</time></trkpt><trkpt lat="41.68895516268077" lon="19.67092466850847"><ele>7.0</ele><time>2026-05-04T15:53:42.999Z</time></trkpt><trkpt lat="41.68871206074901" lon="19.670977823117674"><ele>7.0</ele><time>2026-05-04T15:53:43.999Z</time></trkpt><trkpt lat="41.68846698235624" lon="19.671035098318605"><ele>7.0</ele><time>2026-05-04T15:53:44.999Z</time></trkpt><trkpt lat="41.688216385084964" lon="19.671097539071276"><ele>6.5</ele><time>2026-05-04T15:53:45.999Z</time></trkpt><trkpt lat="41.68796416224711" lon="19.671156563474277"><ele>6.0</ele><time>2026-05-04T15:53:46.999Z</time></trkpt><trkpt lat="41.68771445509471" lon="19.6712141473552"><ele>6.0</ele><time>2026-05-04T15:53:47.999Z</time></trkpt><trkpt lat="41.68746698433097" lon="19.671275878981547"><ele>6.0</ele><time>2026-05-04T15:53:48.999Z</time></trkpt><trkpt lat="41.687241806909945" lon="19.671335539126343"><ele>6.0</ele><time>2026-05-04T15:53:49.999Z</time></trkpt><trkpt lat="41.68703018123534" lon="19.67138620791243"><ele>6.0</ele><time>2026-05-04T15:53:50.999Z</time></trkpt><trkpt lat="41.686820409620815" lon="19.671437586643343"><ele>6.0</ele><time>2026-05-04T15:53:51.999Z</time></trkpt><trkpt lat="41.686597614918455" lon="19.67149206516644"><ele>6.5</ele><time>2026-05-04T15:53:52.999Z</time></trkpt><trkpt lat="41.686374662269316" lon="19.671545208103737"><ele>7.0</ele><time>2026-05-04T15:53:53.999Z</time></trkpt><trkpt lat="41.686148768096814" lon="19.67159740591175"><ele>8.5</ele><time>2026-05-04T15:53:54.999Z</time></trkpt><trkpt lat="41.6859244575736" lon="19.671647697100223"><ele>10.0</ele><time>2026-05-04T15:53:55.999Z</time></trkpt><trkpt lat="41.68570359997515" lon="19.67169844211677"><ele>10.0</ele><time>2026-05-04T15:53:56.999Z</time></trkpt><trkpt lat="41.68549160208691" lon="19.6717496945048"><ele>10.0</ele><time>2026-05-04T15:53:57.999Z</time></trkpt><trkpt lat="41.685286412486036" lon="19.6718017977736"><ele>10.0</ele><time>2026-05-04T15:53:58.999Z</time></trkpt><trkpt lat="41.685082310309554" lon="19.671852586041044"><ele>9.0</ele><time>2026-05-04T15:53:59.999Z</time></trkpt><trkpt lat="41.684879979548946" lon="19.67190119685862"><ele>8.0</ele><time>2026-05-04T15:54:00.999Z</time></trkpt><trkpt lat="41.684677285384865" lon="19.671950494741672"><ele>7.0</ele><time>2026-05-04T15:54:02Z</time></trkpt><trkpt lat="41.68446409136299" lon="19.672005111120402"><ele>7.0</ele><time>2026-05-04T15:54:03Z</time></trkpt><trkpt lat="41.68423089699721" lon="19.672072536123856"><ele>7.0</ele><time>2026-05-04T15:54:04Z</time></trkpt><trkpt lat="41.68398401793778" lon="19.672137880238488"><ele>7.0</ele><time>2026-05-04T15:54:05Z</time></trkpt><trkpt lat="41.68373026382786" lon="19.672191932481866"><ele>7.0</ele><time>2026-05-04T15:54:06Z</time></trkpt><trkpt lat="41.683479475354275" lon="19.67224373251624"><ele>4.5</ele><time>2026-05-04T15:54:07Z</time></trkpt><trkpt lat="41.68324002945017" lon="19.672297540258093"><ele>2.0</ele><time>2026-05-04T15:54:08Z</time></trkpt><trkpt lat="41.683003835594455" lon="19.672361755008183"><ele>3.0</ele><time>2026-05-04T15:54:09Z</time></trkpt><trkpt lat="41.68276351358349" lon="19.672423463712352"><ele>4.0</ele><time>2026-05-04T15:54:10Z</time></trkpt><trkpt lat="41.68251605640736" lon="19.67247624526633"><ele>4.0</ele><time>2026-05-04T15:54:11Z</time></trkpt><trkpt lat="41.68226082139569" lon="19.672531051422435"><ele>4.0</ele><time>2026-05-04T15:54:12Z</time></trkpt><trkpt lat="41.68200058607117" lon="19.672589420646418"><ele>4.5</ele><time>2026-05-04T15:54:13Z</time></trkpt><trkpt lat="41.68174266195426" lon="19.67264843893697"><ele>5.0</ele><time>2026-05-04T15:54:14Z</time></trkpt><trkpt lat="41.681491150548915" lon="19.672705938654094"><ele>5.0</ele><time>2026-05-04T15:54:15Z</time></trkpt><trkpt lat="41.68124090541583" lon="19.672767783878488"><ele>5.0</ele><time>2026-05-04T15:54:16Z</time></trkpt><trkpt lat="41.68098825599932" lon="19.67283636429441"><ele>6.5</ele><time>2026-05-04T15:54:17Z</time></trkpt><trkpt lat="41.68073591451359" lon="19.672900282969547"><ele>8.0</ele><time>2026-05-04T15:54:18Z</time></trkpt><trkpt lat="41.68047814678749" lon="19.672960016932546"><ele>8.0</ele><time>2026-05-04T15:54:19Z</time></trkpt><trkpt lat="41.68022322230407" lon="19.673023194333524"><ele>8.0</ele><time>2026-05-04T15:54:20Z</time></trkpt><trkpt lat="41.67996540799656" lon="19.673084386436425"><ele>8.0</ele><time>2026-05-04T15:54:21Z</time></trkpt><trkpt lat="41.67970127674314" lon="19.673144586682344"><ele>8.0</ele><time>2026-05-04T15:54:22Z</time></trkpt><trkpt lat="41.67943631534322" lon="19.673204724202378"><ele>7.0</ele><time>2026-05-04T15:54:23Z</time></trkpt><trkpt lat="41.67917691363641" lon="19.673263967286537"><ele>6.0</ele><time>2026-05-04T15:54:24Z</time></trkpt><trkpt lat="41.678910659449336" lon="19.673329295531012"><ele>6.0</ele><time>2026-05-04T15:54:25Z</time></trkpt><trkpt lat="41.67864465216599" lon="19.67340142669709"><ele>6.0</ele><time>2026-05-04T15:54:26Z</time></trkpt><trkpt lat="41.678382510525665" lon="19.67346379194499"><ele>7.0</ele><time>2026-05-04T15:54:27Z</time></trkpt><trkpt lat="41.678116875513126" lon="19.673529812993433"><ele>8.0</ele><time>2026-05-04T15:54:28Z</time></trkpt><trkpt lat="41.67785320291838" lon="19.67359260284803"><ele>7.5</ele><time>2026-05-04T15:54:29Z</time></trkpt><trkpt lat="41.67760335666813" lon="19.673634613393272"><ele>7.0</ele><time>2026-05-04T15:54:30Z</time></trkpt><trkpt lat="41.67736692511723" lon="19.673679157593526"><ele>7.0</ele><time>2026-05-04T15:54:31Z</time></trkpt><trkpt lat="41.67713044665836" lon="19.673720175386503"><ele>7.0</ele><time>2026-05-04T15:54:32Z</time></trkpt><trkpt lat="41.67689734224282" lon="19.673763659738604"><ele>8.5</ele><time>2026-05-04T15:54:33Z</time></trkpt><trkpt lat="41.67667307153308" lon="19.673793771731347"><ele>10.0</ele><time>2026-05-04T15:54:34Z</time></trkpt><trkpt lat="41.67644208118244" lon="19.67383333814258"><ele>10.0</ele><time>2026-05-04T15:54:35Z</time></trkpt><trkpt lat="41.676219751455754" lon="19.67386455394961"><ele>10.0</ele><time>2026-05-04T15:54:36Z</time></trkpt><trkpt lat="41.676001170351874" lon="19.673897057443497"><ele>10.0</ele><time>2026-05-04T15:54:37Z</time></trkpt><trkpt lat="41.67577724274684" lon="19.673922427386707"><ele>10.0</ele><time>2026-05-04T15:54:38Z</time></trkpt><trkpt lat="41.67554432766087" lon="19.67394960487403"><ele>10.0</ele><time>2026-05-04T15:54:39Z</time></trkpt><trkpt lat="41.67532754212187" lon="19.673966588916173"><ele>9.333333333333334</ele><time>2026-05-04T15:54:40Z</time></trkpt><trkpt lat="41.67511680393035" lon="19.673980626297954"><ele>8.666666666666666</ele><time>2026-05-04T15:54:41Z</time></trkpt><trkpt lat="41.67491486219381" lon="19.673992779488014"><ele>8.0</ele><time>2026-05-04T15:54:42Z</time></trkpt><trkpt lat="41.674735883766004" lon="19.674003859793913"><ele>8.0</ele><time>2026-05-04T15:54:43Z</time></trkpt><trkpt lat="41.67456864641857" lon="19.674013179141518"><ele>8.0</ele><time>2026-05-04T15:54:44Z</time></trkpt><trkpt lat="41.674404154029986" lon="19.67402071853019"><ele>8.0</ele><time>2026-05-04T15:54:45Z</time></trkpt><trkpt lat="41.6742404479579" lon="19.674029727611448"><ele>7.666666666666666</ele><time>2026-05-04T15:54:46Z</time></trkpt><trkpt lat="41.6740621603084" lon="19.674040166095036"><ele>7.333333333333334</ele><time>2026-05-04T15:54:47Z</time></trkpt><trkpt lat="41.673878586971554" lon="19.67404586943568"><ele>7.0</ele><time>2026-05-04T15:54:48Z</time></trkpt><trkpt lat="41.673685744648715" lon="19.67403932816633"><ele>7.0</ele><time>2026-05-04T15:54:49Z</time></trkpt><trkpt lat="41.67349719745295" lon="19.674028981867664"><ele>7.0</ele><time>2026-05-04T15:54:50Z</time></trkpt><trkpt lat="41.673302701836214" lon="19.67402728874724"><ele>7.0</ele><time>2026-05-04T15:54:51Z</time></trkpt><trkpt lat="41.673107180680056" lon="19.674027302474297"><ele>7.0</ele><time>2026-05-04T15:54:52Z</time></trkpt><trkpt lat="41.67291244779022" lon="19.674024303881705"><ele>7.0</ele><time>2026-05-04T15:54:53Z</time></trkpt><trkpt lat="41.67272546803994" lon="19.67401673531871"><ele>7.0</ele><time>2026-05-04T15:54:54Z</time></trkpt><trkpt lat="41.67255154375215" lon="19.67400532139386"><ele>6.666666666666667</ele><time>2026-05-04T15:54:55Z</time></trkpt><trkpt lat="41.672388085471724" lon="19.67399224863829"><ele>6.333333333333334</ele><time>2026-05-04T15:54:56Z</time></trkpt><trkpt lat="41.672236791042224" lon="19.673980235258956"><ele>6.0</ele><time>2026-05-04T15:54:57Z</time></trkpt><trkpt lat="41.67208882513601" lon="19.673971097539585"><ele>6.0</ele><time>2026-05-04T15:54:58Z</time></trkpt><trkpt lat="41.671953506043884" lon="19.67396186501153"><ele>6.0</ele><time>2026-05-04T15:54:59Z</time></trkpt><trkpt lat="41.67181163649315" lon="19.67395005195614"><ele>6.0</ele><time>2026-05-04T15:54:59.999Z</time></trkpt><trkpt lat="41.67165908061807" lon="19.673934082243893"><ele>6.0</ele><time>2026-05-04T15:55:00.999Z</time></trkpt><trkpt lat="41.67150168140515" lon="19.673919558989315"><ele>6.0</ele><time>2026-05-04T15:55:01.999Z</time></trkpt><trkpt lat="41.67135055746594" lon="19.673904952105058"><ele>6.0</ele><time>2026-05-04T15:55:02.999Z</time></trkpt><trkpt lat="41.6712061519349" lon="19.673892521924348"><ele>6.0</ele><time>2026-05-04T15:55:03.999Z</time></trkpt><trkpt lat="41.67106328430141" lon="19.67388270509974"><ele>6.0</ele><time>2026-05-04T15:55:04.999Z</time></trkpt><trkpt lat="41.67091115450259" lon="19.673867263856646"><ele>6.333333333333334</ele><time>2026-05-04T15:55:05.999Z</time></trkpt><trkpt lat="41.67074761459247" lon="19.673848673455574"><ele>6.666666666666667</ele><time>2026-05-04T15:55:06.999Z</time></trkpt><trkpt lat="41.670559728036096" lon="19.673831606902525"><ele>7.0</ele><time>2026-05-04T15:55:07.999Z</time></trkpt><trkpt lat="41.67035117476599" lon="19.673810405597624"><ele>6.666666666666667</ele><time>2026-05-04T15:55:08.999Z</time></trkpt><trkpt lat="41.670136405654205" lon="19.67378648935105"><ele>6.333333333333334</ele><time>2026-05-04T15:55:09.999Z</time></trkpt><trkpt lat="41.6699170446251" lon="19.673764646898498"><ele>6.0</ele><time>2026-05-04T15:55:10.999Z</time></trkpt><trkpt lat="41.66968369618028" lon="19.67373991775497"><ele>5.0</ele><time>2026-05-04T15:55:11.999Z</time></trkpt><trkpt lat="41.669439552126406" lon="19.67371706977613"><ele>4.0</ele><time>2026-05-04T15:55:12.999Z</time></trkpt><trkpt lat="41.66919598903426" lon="19.673698315148886"><ele>4.0</ele><time>2026-05-04T15:55:13.999Z</time></trkpt><trkpt lat="41.668967779157114" lon="19.673672652938208"><ele>4.0</ele><time>2026-05-04T15:55:14.999Z</time></trkpt><trkpt lat="41.66873645859164" lon="19.673649071276362"><ele>4.0</ele><time>2026-05-04T15:55:15.999Z</time></trkpt><trkpt lat="41.668520181664064" lon="19.67363117022944"><ele>4.0</ele><time>2026-05-04T15:55:16.999Z</time></trkpt><trkpt lat="41.66829763283615" lon="19.67360058699477"><ele>4.0</ele><time>2026-05-04T15:55:17.999Z</time></trkpt><trkpt lat="41.66807140121137" lon="19.67357284731376"><ele>4.0</ele><time>2026-05-04T15:55:18.999Z</time></trkpt><trkpt lat="41.667845115291385" lon="19.673550848299662"><ele>4.0</ele><time>2026-05-04T15:55:19.999Z</time></trkpt><trkpt lat="41.66760834262234" lon="19.673535501996263"><ele>4.0</ele><time>2026-05-04T15:55:20.999Z</time></trkpt><trkpt lat="41.66735700874211" lon="19.673517911877617"><ele>4.0</ele><time>2026-05-04T15:55:21.999Z</time></trkpt><trkpt lat="41.66709952742491" lon="19.67349800343751"><ele>4.0</ele><time>2026-05-04T15:55:22.999Z</time></trkpt><trkpt lat="41.66683752599995" lon="19.673473759409593"><ele>4.0</ele><time>2026-05-04T15:55:23.999Z</time></trkpt><trkpt lat="41.66656490225225" lon="19.67344426711588"><ele>4.0</ele><time>2026-05-04T15:55:24.999Z</time></trkpt><trkpt lat="41.66628657818257" lon="19.67340771036911"><ele>4.0</ele><time>2026-05-04T15:55:25.999Z</time></trkpt><trkpt lat="41.66601472015944" lon="19.67336917830735"><ele>4.5</ele><time>2026-05-04T15:55:26.999Z</time></trkpt><trkpt lat="41.665741349934336" lon="19.67333579893264"><ele>5.0</ele><time>2026-05-04T15:55:27.999Z</time></trkpt><trkpt lat="41.66546605284976" lon="19.673308446994408"><ele>4.5</ele><time>2026-05-04T15:55:28.999Z</time></trkpt><trkpt lat="41.66518837733734" lon="19.673281774983856"><ele>4.0</ele><time>2026-05-04T15:55:29.999Z</time></trkpt><trkpt lat="41.66490738006278" lon="19.67325620415663"><ele>4.0</ele><time>2026-05-04T15:55:30.999Z</time></trkpt><trkpt lat="41.664624546730415" lon="19.673229368378543"><ele>4.0</ele><time>2026-05-04T15:55:31.999Z</time></trkpt><trkpt lat="41.664339847392185" lon="19.673201464638574"><ele>3.5</ele><time>2026-05-04T15:55:32.999Z</time></trkpt><trkpt lat="41.66405340967185" lon="19.67317508198862"><ele>3.0</ele><time>2026-05-04T15:55:33.999Z</time></trkpt><trkpt lat="41.66376774877593" lon="19.67314665690752"><ele>3.0</ele><time>2026-05-04T15:55:34.999Z</time></trkpt><trkpt lat="41.66347887288674" lon="19.673120627455514"><ele>3.0</ele><time>2026-05-04T15:55:35.999Z</time></trkpt><trkpt lat="41.66319152591819" lon="19.673095644676547"><ele>3.0</ele><time>2026-05-04T15:55:36.999Z</time></trkpt><trkpt lat="41.662903220224166" lon="19.673070938970444"><ele>3.0</ele><time>2026-05-04T15:55:37.999Z</time></trkpt><trkpt lat="41.66260986695657" lon="19.673044454238614"><ele>1.5</ele><time>2026-05-04T15:55:38.999Z</time></trkpt><trkpt lat="41.66232149568719" lon="19.673012876402815"><ele>0.0</ele><time>2026-05-04T15:55:39.999Z</time></trkpt><trkpt lat="41.66202616918743" lon="19.67298521892966"><ele>1.5</ele><time>2026-05-04T15:55:40.999Z</time></trkpt><trkpt lat="41.66173675799171" lon="19.6729531962046"><ele>3.0</ele><time>2026-05-04T15:55:41.999Z</time></trkpt><trkpt lat="41.66144791132631" lon="19.67292506199415"><ele>3.0</ele><time>2026-05-04T15:55:42.999Z</time></trkpt><trkpt lat="41.6611590741857" lon="19.672898931458807"><ele>3.0</ele><time>2026-05-04T15:55:43.999Z</time></trkpt><trkpt lat="41.6608715498024" lon="19.672872100694565"><ele>2.5</ele><time>2026-05-04T15:55:44.999Z</time></trkpt><trkpt lat="41.660587890045285" lon="19.67284639357883"><ele>2.0</ele><time>2026-05-04T15:55:45.999Z</time></trkpt><trkpt lat="41.66030629539021" lon="19.67281083837873"><ele>2.5</ele><time>2026-05-04T15:55:46.999Z</time></trkpt><trkpt lat="41.6600111496348" lon="19.67278629760606"><ele>3.0</ele><time>2026-05-04T15:55:47.999Z</time></trkpt><trkpt lat="41.65972523661464" lon="19.67275606425935"><ele>3.0</ele><time>2026-05-04T15:55:48.999Z</time></trkpt><trkpt lat="41.65943796805982" lon="19.672731094032425"><ele>3.0</ele><time>2026-05-04T15:55:49.999Z</time></trkpt><trkpt lat="41.65915112791224" lon="19.672706844469648"><ele>3.0</ele><time>2026-05-04T15:55:50.999Z</time></trkpt><trkpt lat="41.65886913055927" lon="19.672680626187226"><ele>3.0</ele><time>2026-05-04T15:55:51.999Z</time></trkpt><trkpt lat="41.658580547200884" lon="19.672652446235045"><ele>4.0</ele><time>2026-05-04T15:55:52.999Z</time></trkpt><trkpt lat="41.658296865962924" lon="19.672620708938894"><ele>5.0</ele><time>2026-05-04T15:55:53.999Z</time></trkpt><trkpt lat="41.65801016471341" lon="19.67259145693914"><ele>3.5</ele><time>2026-05-04T15:55:54.999Z</time></trkpt><trkpt lat="41.65772885289041" lon="19.67256261194907"><ele>2.0</ele><time>2026-05-04T15:55:55.999Z</time></trkpt><trkpt lat="41.65744507481792" lon="19.672536657485548"><ele>2.0</ele><time>2026-05-04T15:55:56.999Z</time></trkpt><trkpt lat="41.65715763089536" lon="19.672513487206793"><ele>2.0</ele><time>2026-05-04T15:55:57.999Z</time></trkpt><trkpt lat="41.6568708754743" lon="19.672486978760215"><ele>2.0</ele><time>2026-05-04T15:55:58.999Z</time></trkpt><trkpt lat="41.656584925648964" lon="19.672457261891598"><ele>2.0</ele><time>2026-05-04T15:55:59.999Z</time></trkpt><trkpt lat="41.65630068347746" lon="19.672426491204778"><ele>2.0</ele><time>2026-05-04T15:56:00.999Z</time></trkpt><trkpt lat="41.656014212838386" lon="19.672396091005087"><ele>2.0</ele><time>2026-05-04T15:56:01.999Z</time></trkpt><trkpt lat="41.655724982541514" lon="19.672367353924344"><ele>2.0</ele><time>2026-05-04T15:56:02.999Z</time></trkpt><trkpt lat="41.655440355907764" lon="19.67233744399776"><ele>2.0</ele><time>2026-05-04T15:56:03.999Z</time></trkpt><trkpt lat="41.65515322143867" lon="19.67231056880637"><ele>2.0</ele><time>2026-05-04T15:56:04.999Z</time></trkpt><trkpt lat="41.65486215417501" lon="19.67228653305715"><ele>2.0</ele><time>2026-05-04T15:56:05.999Z</time></trkpt><trkpt lat="41.6545758018231" lon="19.6722603314437"><ele>2.0</ele><time>2026-05-04T15:56:06.999Z</time></trkpt><trkpt lat="41.65428013796854" lon="19.672235864110675"><ele>2.0</ele><time>2026-05-04T15:56:08Z</time></trkpt><trkpt lat="41.65398884647896" lon="19.67220865972947"><ele>2.0</ele><time>2026-05-04T15:56:09Z</time></trkpt><trkpt lat="41.65369729200871" lon="19.672180156594756"><ele>2.0</ele><time>2026-05-04T15:56:10Z</time></trkpt><trkpt lat="41.65340104265932" lon="19.672152711007143"><ele>2.0</ele><time>2026-05-04T15:56:11Z</time></trkpt><trkpt lat="41.65310429502023" lon="19.672125745119178"><ele>2.0</ele><time>2026-05-04T15:56:12Z</time></trkpt><trkpt lat="41.65280666822131" lon="19.6721001482482"><ele>2.5</ele><time>2026-05-04T15:56:13Z</time></trkpt><trkpt lat="41.65250645427923" lon="19.672080056531573"><ele>3.0</ele><time>2026-05-04T15:56:14Z</time></trkpt><trkpt lat="41.65220433460209" lon="19.672067154424933"><ele>2.0</ele><time>2026-05-04T15:56:15Z</time></trkpt><trkpt lat="41.651904254488606" lon="19.672053971069353"><ele>1.0</ele><time>2026-05-04T15:56:16Z</time></trkpt><trkpt lat="41.65160738690718" lon="19.672032628335657"><ele>1.0</ele><time>2026-05-04T15:56:17Z</time></trkpt><trkpt lat="41.65130433367328" lon="19.672001118478715"><ele>1.0</ele><time>2026-05-04T15:56:18Z</time></trkpt><trkpt lat="41.65100301865381" lon="19.671977564928348"><ele>1.5</ele><time>2026-05-04T15:56:19Z</time></trkpt><trkpt lat="41.65070130601951" lon="19.671957463634655"><ele>2.0</ele><time>2026-05-04T15:56:20Z</time></trkpt><trkpt lat="41.650401444738684" lon="19.671939501705545"><ele>1.5</ele><time>2026-05-04T15:56:21Z</time></trkpt><trkpt lat="41.65010141033884" lon="19.67191740454577"><ele>1.0</ele><time>2026-05-04T15:56:22Z</time></trkpt><trkpt lat="41.649796442303746" lon="19.67189291201422"><ele>1.0</ele><time>2026-05-04T15:56:23Z</time></trkpt><trkpt lat="41.64948555516467" lon="19.671866282209695"><ele>1.0</ele><time>2026-05-04T15:56:24Z</time></trkpt><trkpt lat="41.64917630379275" lon="19.671842803437574"><ele>1.0</ele><time>2026-05-04T15:56:25Z</time></trkpt><trkpt lat="41.648866698175425" lon="19.67181978776778"><ele>1.0</ele><time>2026-05-04T15:56:26Z</time></trkpt><trkpt lat="41.64855453024645" lon="19.671795657988465"><ele>1.0</ele><time>2026-05-04T15:56:27Z</time></trkpt><trkpt lat="41.648244057049205" lon="19.671773385460103"><ele>1.0</ele><time>2026-05-04T15:56:28Z</time></trkpt><trkpt lat="41.64793650246122" lon="19.671748395106718"><ele>1.5</ele><time>2026-05-04T15:56:29Z</time></trkpt><trkpt lat="41.64762927618026" lon="19.671723115185497"><ele>2.0</ele><time>2026-05-04T15:56:30Z</time></trkpt><trkpt lat="41.647326272679734" lon="19.67169382623795"><ele>2.0</ele><time>2026-05-04T15:56:31Z</time></trkpt><trkpt lat="41.647025989896555" lon="19.671669034364747"><ele>2.0</ele><time>2026-05-04T15:56:32Z</time></trkpt><trkpt lat="41.64672429053943" lon="19.671643835883863"><ele>1.5</ele><time>2026-05-04T15:56:33Z</time></trkpt><trkpt lat="41.646422909595024" lon="19.671614839666"><ele>1.0</ele><time>2026-05-04T15:56:34Z</time></trkpt><trkpt lat="41.64611937033616" lon="19.6715825841978"><ele>0.0</ele><time>2026-05-04T15:56:35Z</time></trkpt><trkpt lat="41.64582320953752" lon="19.671551596890673"><ele>-1.0</ele><time>2026-05-04T15:56:36Z</time></trkpt><trkpt lat="41.6455233362532" lon="19.67151940387047"><ele>-0.5</ele><time>2026-05-04T15:56:37Z</time></trkpt><trkpt lat="41.645228409687924" lon="19.671498477022606"><ele>0.0</ele><time>2026-05-04T15:56:38Z</time></trkpt><trkpt lat="41.644937286857854" lon="19.671486757208385"><ele>0.0</ele><time>2026-05-04T15:56:39Z</time></trkpt><trkpt lat="41.64467275936572" lon="19.671473222659767"><ele>0.0</ele><time>2026-05-04T15:56:40Z</time></trkpt><trkpt lat="41.644418711913374" lon="19.67143980148119"><ele>0.3333333333333333</ele><time>2026-05-04T15:56:41Z</time></trkpt><trkpt lat="41.644189514298425" lon="19.67141757201183"><ele>0.6666666666666666</ele><time>2026-05-04T15:56:42Z</time></trkpt><trkpt lat="41.64397441140207" lon="19.671388174443383"><ele>1.0</ele><time>2026-05-04T15:56:43Z</time></trkpt><trkpt lat="41.64377592722562" lon="19.67136891998431"><ele>0.6666666666666666</ele><time>2026-05-04T15:56:44Z</time></trkpt><trkpt lat="41.643585567569914" lon="19.67135587635373"><ele>0.3333333333333333</ele><time>2026-05-04T15:56:45Z</time></trkpt><trkpt lat="41.643407926266555" lon="19.671346780739565"><ele>0.0</ele><time>2026-05-04T15:56:46Z</time></trkpt><trkpt lat="41.64323812863862" lon="19.671340058430992"><ele>0.0</ele><time>2026-05-04T15:56:47Z</time></trkpt><trkpt lat="41.64307995219222" lon="19.67133074104132"><ele>0.0</ele><time>2026-05-04T15:56:48Z</time></trkpt><trkpt lat="41.642930004792355" lon="19.671319565066344"><ele>0.0</ele><time>2026-05-04T15:56:49Z</time></trkpt><trkpt lat="41.64279435090498" lon="19.671306178253964"><ele>0.0</ele><time>2026-05-04T15:56:50Z</time></trkpt><trkpt lat="41.642699391902966" lon="19.671291183308906"><ele>-0.25</ele><time>2026-05-04T15:56:51Z</time></trkpt><trkpt lat="41.64267908351567" lon="19.671183398294996"><ele>-0.5</ele><time>2026-05-04T15:57:04Z</time></trkpt><trkpt lat="41.64258573755949" lon="19.671008017655097"><ele>-0.75</ele><time>2026-05-04T15:57:06Z</time></trkpt><trkpt lat="41.642513054841" lon="19.670892038211306"><ele>-1.0</ele><time>2026-05-04T15:57:07Z</time></trkpt><trkpt lat="41.64243966109361" lon="19.6707693134729"><ele>-0.6000000000000001</ele><time>2026-05-04T15:57:08Z</time></trkpt><trkpt lat="41.64237607186723" lon="19.670662981503416"><ele>-0.20000000000000007</ele><time>2026-05-04T15:57:09Z</time></trkpt><trkpt lat="41.64230739087508" lon="19.670554629897"><ele>0.20000000000000007</ele><time>2026-05-04T15:57:10Z</time></trkpt><trkpt lat="41.64223149404102" lon="19.670453582668017"><ele>0.6000000000000001</ele><time>2026-05-04T15:57:11Z</time></trkpt><trkpt lat="41.642146589021806" lon="19.670377350617812"><ele>1.0</ele><time>2026-05-04T15:57:12Z</time></trkpt><trkpt lat="41.64204531892952" lon="19.670330557204533"><ele>0.8333333333333333</ele><time>2026-05-04T15:57:13Z</time></trkpt><trkpt lat="41.64195195104126" lon="19.67030162053118"><ele>0.6666666666666666</ele><time>2026-05-04T15:57:14Z</time></trkpt><trkpt lat="41.64186933036497" lon="19.67028407064305"><ele>0.5</ele><time>2026-05-04T15:57:15Z</time></trkpt><trkpt lat="41.64180137996011" lon="19.67026898669602"><ele>0.3333333333333333</ele><time>2026-05-04T15:57:16Z</time></trkpt><trkpt lat="41.64171477931075" lon="19.670237307241113"><ele>0.16666666666666666</ele><time>2026-05-04T15:57:18Z</time></trkpt><trkpt lat="41.64165920399763" lon="19.67018781690548"><ele>0.0</ele><time>2026-05-04T15:57:19Z</time></trkpt><trkpt lat="41.64163879646949" lon="19.67009982715765"><ele>-0.4</ele><time>2026-05-04T15:57:20Z</time></trkpt><trkpt lat="41.64163705246267" lon="19.66997480810184"><ele>-0.8</ele><time>2026-05-04T15:57:21Z</time></trkpt><trkpt lat="41.64164340530075" lon="19.669842329089366"><ele>-1.2000000000000002</ele><time>2026-05-04T15:57:22Z</time></trkpt><trkpt lat="41.64165270425531" lon="19.66970256171225"><ele>-1.6</ele><time>2026-05-04T15:57:23Z</time></trkpt><trkpt lat="41.64166407470213" lon="19.669558331174226"><ele>-2.0</ele><time>2026-05-04T15:57:24Z</time></trkpt><trkpt lat="41.64169025919064" lon="19.669375820971087"><ele>-2.0</ele><time>2026-05-04T15:57:25Z</time></trkpt><trkpt lat="41.64170891522619" lon="19.669184722192647"><ele>-2.0</ele><time>2026-05-04T15:57:26Z</time></trkpt><trkpt lat="41.641719546640225" lon="19.6689490492862"><ele>-2.0</ele><time>2026-05-04T15:57:27Z</time></trkpt><trkpt lat="41.641740775156364" lon="19.668705948274827"><ele>-1.0</ele><time>2026-05-04T15:57:28Z</time></trkpt><trkpt lat="41.64176119186229" lon="19.668470359671872"><ele>0.0</ele><time>2026-05-04T15:57:29Z</time></trkpt><trkpt lat="41.641774606819936" lon="19.66823328462087"><ele>1.0</ele><time>2026-05-04T15:57:30Z</time></trkpt><trkpt lat="41.64178592261748" lon="19.66799246126053"><ele>0.3333333333333333</ele><time>2026-05-04T15:57:31Z</time></trkpt><trkpt lat="41.641796352015994" lon="19.66775567576484"><ele>-0.3333333333333333</ele><time>2026-05-04T15:57:32Z</time></trkpt><trkpt lat="41.6418112975466" lon="19.667515363767347"><ele>-1.0</ele><time>2026-05-04T15:57:33Z</time></trkpt><trkpt lat="41.64182970245818" lon="19.667276409243975"><ele>-1.0</ele><time>2026-05-04T15:57:34Z</time></trkpt><trkpt lat="41.64184790700558" lon="19.66703539920003"><ele>-1.0</ele><time>2026-05-04T15:57:35Z</time></trkpt><trkpt lat="41.64186635322916" lon="19.66679078892709"><ele>-1.0</ele><time>2026-05-04T15:57:36Z</time></trkpt><trkpt lat="41.64188488320611" lon="19.666546075507316"><ele>-1.3333333333333333</ele><time>2026-05-04T15:57:37Z</time></trkpt><trkpt lat="41.64190227284267" lon="19.66629820505197"><ele>-1.6666666666666665</ele><time>2026-05-04T15:57:38Z</time></trkpt><trkpt lat="41.64191528726532" lon="19.666058143911293"><ele>-2.0</ele><time>2026-05-04T15:57:39Z</time></trkpt><trkpt lat="41.64192636201694" lon="19.665844494438694"><ele>-2.25</ele><time>2026-05-04T15:57:40Z</time></trkpt><trkpt lat="41.64194057399995" lon="19.665641956940828"><ele>-2.5</ele><time>2026-05-04T15:57:41Z</time></trkpt><trkpt lat="41.64195413857458" lon="19.665447313838193"><ele>-2.75</ele><time>2026-05-04T15:57:42Z</time></trkpt><trkpt lat="41.64196335902997" lon="19.665254624407858"><ele>-3.0</ele><time>2026-05-04T15:57:43Z</time></trkpt><trkpt lat="41.641973424217554" lon="19.665076257329794"><ele>-2.75</ele><time>2026-05-04T15:57:44Z</time></trkpt><trkpt lat="41.64198316928433" lon="19.66491500141696"><ele>-2.5</ele><time>2026-05-04T15:57:45Z</time></trkpt><trkpt lat="41.6419937266864" lon="19.66474740986106"><ele>-2.25</ele><time>2026-05-04T15:57:45.999Z</time></trkpt><trkpt lat="41.642016994479405" lon="19.66452470792917"><ele>-2.0</ele><time>2026-05-04T15:57:46.999Z</time></trkpt><trkpt lat="41.64202296045118" lon="19.66434757642135"><ele>-2.0</ele><time>2026-05-04T15:57:47.999Z</time></trkpt><trkpt lat="41.64203372661628" lon="19.66418377128299"><ele>-2.0</ele><time>2026-05-04T15:57:48.999Z</time></trkpt><trkpt lat="41.642042742070096" lon="19.66401529509909"><ele>-2.0</ele><time>2026-05-04T15:57:49.999Z</time></trkpt><trkpt lat="41.64204682949908" lon="19.66386910992142"><ele>-2.0</ele><time>2026-05-04T15:57:50.999Z</time></trkpt><trkpt lat="41.64205357697273" lon="19.663748008075473"><ele>-2.0</ele><time>2026-05-04T15:57:51.999Z</time></trkpt><trkpt lat="41.642061149426404" lon="19.66362822071875"><ele>-2.0</ele><time>2026-05-04T15:57:52.999Z</time></trkpt><trkpt lat="41.64206929168495" lon="19.66350570043455"><ele>-2.0</ele><time>2026-05-04T15:57:53.999Z</time></trkpt><trkpt lat="41.64208225601428" lon="19.663393474931507"><ele>-2.0</ele><time>2026-05-04T15:57:54.999Z</time></trkpt><trkpt lat="41.64209368371509" lon="19.663284936507974"><ele>-2.0</ele><time>2026-05-04T15:57:55.999Z</time></trkpt><trkpt lat="41.64210418098298" lon="19.6631186553748"><ele>-2.0</ele><time>2026-05-04T15:57:56.999Z</time></trkpt><trkpt lat="41.642109588956735" lon="19.66293922105123"><ele>-1.6666666666666665</ele><time>2026-05-04T15:57:57.999Z</time></trkpt><trkpt lat="41.64212382743761" lon="19.662735258934703"><ele>-1.3333333333333333</ele><time>2026-05-04T15:57:58.999Z</time></trkpt><trkpt lat="41.64213677106131" lon="19.662497224053443"><ele>-1.0</ele><time>2026-05-04T15:57:59.999Z</time></trkpt><trkpt lat="41.64214886347498" lon="19.66224157426807"><ele>-1.0</ele><time>2026-05-04T15:58:00.999Z</time></trkpt><trkpt lat="41.6421640641905" lon="19.661981712391544"><ele>-1.0</ele><time>2026-05-04T15:58:01.999Z</time></trkpt><trkpt lat="41.64218330582806" lon="19.661709188854765"><ele>-1.0</ele><time>2026-05-04T15:58:02.999Z</time></trkpt><trkpt lat="41.64220401917095" lon="19.661421032580744"><ele>-1.0</ele><time>2026-05-04T15:58:03.999Z</time></trkpt><trkpt lat="41.64223160921675" lon="19.66111238084832"><ele>-1.0</ele><time>2026-05-04T15:58:04.999Z</time></trkpt><trkpt lat="41.642248893191294" lon="19.660815050196423"><ele>-1.0</ele><time>2026-05-04T15:58:05.999Z</time></trkpt><trkpt lat="41.64226787965498" lon="19.66050544903376"><ele>-1.0</ele><time>2026-05-04T15:58:06.999Z</time></trkpt><trkpt lat="41.642282178219396" lon="19.66019850631267"><ele>-1.0</ele><time>2026-05-04T15:58:07.999Z</time></trkpt><trkpt lat="41.64230995160773" lon="19.65988947118079"><ele>-1.0</ele><time>2026-05-04T15:58:08.999Z</time></trkpt><trkpt lat="41.64233162789897" lon="19.659571498604485"><ele>-1.0</ele><time>2026-05-04T15:58:09.999Z</time></trkpt><trkpt lat="41.64235352605877" lon="19.65924215220482"><ele>-1.0</ele><time>2026-05-04T15:58:10.999Z</time></trkpt><trkpt lat="41.64237204205569" lon="19.658898267444332"><ele>-0.5</ele><time>2026-05-04T15:58:11.999Z</time></trkpt><trkpt lat="41.64239496538675" lon="19.6585459407215"><ele>0.0</ele><time>2026-05-04T15:58:13Z</time></trkpt><trkpt lat="41.642419069716254" lon="19.65818283092752"><ele>0.0</ele><time>2026-05-04T15:58:14Z</time></trkpt><trkpt lat="41.64244094730846" lon="19.65783149689729"><ele>0.0</ele><time>2026-05-04T15:58:15Z</time></trkpt><trkpt lat="41.64246182831572" lon="19.657470398706366"><ele>0.0</ele><time>2026-05-04T15:58:16Z</time></trkpt><trkpt lat="41.64248342547298" lon="19.657110849076048"><ele>0.0</ele><time>2026-05-04T15:58:17Z</time></trkpt><trkpt lat="41.642505724944485" lon="19.656750014244512"><ele>-0.5</ele><time>2026-05-04T15:58:18Z</time></trkpt><trkpt lat="41.64252666691725" lon="19.65638122839604"><ele>-1.0</ele><time>2026-05-04T15:58:19Z</time></trkpt><trkpt lat="41.642540631414136" lon="19.65600972180409"><ele>0.0</ele><time>2026-05-04T15:58:20Z</time></trkpt><trkpt lat="41.6425638392036" lon="19.655643454695916"><ele>1.0</ele><time>2026-05-04T15:58:21Z</time></trkpt><trkpt lat="41.642589672927606" lon="19.6552705453766"><ele>1.5</ele><time>2026-05-04T15:58:22Z</time></trkpt><trkpt lat="41.64261377543534" lon="19.65490325631195"><ele>2.0</ele><time>2026-05-04T15:58:23Z</time></trkpt><trkpt lat="41.64263728826118" lon="19.654538656236944"><ele>0.5</ele><time>2026-05-04T15:58:24Z</time></trkpt><trkpt lat="41.642658657396034" lon="19.654169633186587"><ele>-1.0</ele><time>2026-05-04T15:58:25Z</time></trkpt><trkpt lat="41.64268020165359" lon="19.65380223982465"><ele>-1.0</ele><time>2026-05-04T15:58:26Z</time></trkpt><trkpt lat="41.642704606719505" lon="19.653436175087197"><ele>-1.0</ele><time>2026-05-04T15:58:27Z</time></trkpt><trkpt lat="41.64272938953933" lon="19.653066562485854"><ele>0.0</ele><time>2026-05-04T15:58:28Z</time></trkpt><trkpt lat="41.64275155697304" lon="19.652700436397506"><ele>1.0</ele><time>2026-05-04T15:58:29Z</time></trkpt><trkpt lat="41.642774785178034" lon="19.652333959714607"><ele>0.5</ele><time>2026-05-04T15:58:30Z</time></trkpt><trkpt lat="41.64279968231192" lon="19.651972851402046"><ele>0.0</ele><time>2026-05-04T15:58:31Z</time></trkpt><trkpt lat="41.64282040723781" lon="19.65163928889441"><ele>-0.5</ele><time>2026-05-04T15:58:32Z</time></trkpt><trkpt lat="41.64284045277176" lon="19.65129798230449"><ele>-1.0</ele><time>2026-05-04T15:58:33Z</time></trkpt><trkpt lat="41.64286406960556" lon="19.650960758947342"><ele>-1.0</ele><time>2026-05-04T15:58:34Z</time></trkpt><trkpt lat="41.64288830594287" lon="19.650612664574012"><ele>-1.0</ele><time>2026-05-04T15:58:35Z</time></trkpt><trkpt lat="41.64290872303031" lon="19.650266798658564"><ele>-0.5</ele><time>2026-05-04T15:58:36Z</time></trkpt><trkpt lat="41.642923585291754" lon="19.649920245835744"><ele>0.0</ele><time>2026-05-04T15:58:37Z</time></trkpt><trkpt lat="41.64294177828858" lon="19.649573618289363"><ele>0.5</ele><time>2026-05-04T15:58:38Z</time></trkpt><trkpt lat="41.64296747096317" lon="19.649224938758845"><ele>1.0</ele><time>2026-05-04T15:58:39Z</time></trkpt><trkpt lat="41.64299150339381" lon="19.64887647045099"><ele>0.5</ele><time>2026-05-04T15:58:40Z</time></trkpt><trkpt lat="41.64301613377656" lon="19.648521299636442"><ele>0.0</ele><time>2026-05-04T15:58:41Z</time></trkpt><trkpt lat="41.64304028107264" lon="19.648175048790716"><ele>0.0</ele><time>2026-05-04T15:58:42Z</time></trkpt><trkpt lat="41.64306143034159" lon="19.64786161543491"><ele>0.0</ele><time>2026-05-04T15:58:43Z</time></trkpt><trkpt lat="41.64308140736404" lon="19.647584699231157"><ele>0.0</ele><time>2026-05-04T15:58:44Z</time></trkpt><trkpt lat="41.643091724799575" lon="19.64732483151421"><ele>0.0</ele><time>2026-05-04T15:58:45Z</time></trkpt><trkpt lat="41.64307275180911" lon="19.64705890837727"><ele>0.0</ele><time>2026-05-04T15:58:46Z</time></trkpt><trkpt lat="41.643018310867454" lon="19.646788214734567"><ele>0.0</ele><time>2026-05-04T15:58:47Z</time></trkpt><trkpt lat="41.64295066520358" lon="19.646513588207746"><ele>0.0</ele><time>2026-05-04T15:58:48Z</time></trkpt><trkpt lat="41.642884612053685" lon="19.646237115390836"><ele>0.0</ele><time>2026-05-04T15:58:49Z</time></trkpt><trkpt lat="41.64281769521765" lon="19.64595514745072"><ele>0.0</ele><time>2026-05-04T15:58:50Z</time></trkpt><trkpt lat="41.64275571104401" lon="19.645672823475376"><ele>0.3333333333333333</ele><time>2026-05-04T15:58:51Z</time></trkpt><trkpt lat="41.64269845658913" lon="19.645383037293442"><ele>0.6666666666666666</ele><time>2026-05-04T15:58:52Z</time></trkpt><trkpt lat="41.642646078487495" lon="19.645092402743202"><ele>1.0</ele><time>2026-05-04T15:58:53Z</time></trkpt><trkpt lat="41.6425928159765" lon="19.644787222464743"><ele>1.0</ele><time>2026-05-04T15:58:54Z</time></trkpt><trkpt lat="41.64254672245383" lon="19.644512137018165"><ele>1.0</ele><time>2026-05-04T15:58:55Z</time></trkpt><trkpt lat="41.64252456443706" lon="19.644279788531378"><ele>1.0</ele><time>2026-05-04T15:58:56Z</time></trkpt><trkpt lat="41.64253184011471" lon="19.644111464711923"><ele>1.0</ele><time>2026-05-04T15:58:57Z</time></trkpt><trkpt lat="41.64257724577073" lon="19.64398190284577"><ele>1.0</ele><time>2026-05-04T15:58:58Z</time></trkpt><trkpt lat="41.64265455782618" lon="19.643881942445542"><ele>1.0</ele><time>2026-05-04T15:58:59Z</time></trkpt><trkpt lat="41.642782852055795" lon="19.643808831092322"><ele>1.0</ele><time>2026-05-04T15:59:00Z</time></trkpt><trkpt lat="41.64294285197717" lon="19.643750624589558"><ele>0.75</ele><time>2026-05-04T15:59:01Z</time></trkpt><trkpt lat="41.64310623321589" lon="19.643687155892092"><ele>0.5</ele><time>2026-05-04T15:59:02Z</time></trkpt><trkpt lat="41.643236153987274" lon="19.64360610395052"><ele>0.25</ele><time>2026-05-04T15:59:03Z</time></trkpt><trkpt lat="41.64330580413099" lon="19.64347778541647"><ele>0.0</ele><time>2026-05-04T15:59:04Z</time></trkpt><trkpt lat="41.6433511809445" lon="19.643316267689112"><ele>0.0</ele><time>2026-05-04T15:59:05Z</time></trkpt><trkpt lat="41.64337072876387" lon="19.64310875024218"><ele>0.0</ele><time>2026-05-04T15:59:06Z</time></trkpt><trkpt lat="41.643375384975286" lon="19.642860988725637"><ele>0.0</ele><time>2026-05-04T15:59:07Z</time></trkpt><trkpt lat="41.643382197607245" lon="19.64257611592169"><ele>0.0</ele><time>2026-05-04T15:59:08Z</time></trkpt><trkpt lat="41.643400917748416" lon="19.642288440041934"><ele>0.0</ele><time>2026-05-04T15:59:09Z</time></trkpt><trkpt lat="41.643424595356734" lon="19.64198188261591"><ele>0.0</ele><time>2026-05-04T15:59:10Z</time></trkpt><trkpt lat="41.64344569282427" lon="19.641643727689758"><ele>0.0</ele><time>2026-05-04T15:59:11Z</time></trkpt><trkpt lat="41.643464575684625" lon="19.641309514241744"><ele>0.0</ele><time>2026-05-04T15:59:12Z</time></trkpt><trkpt lat="41.643486073241476" lon="19.640977615033357"><ele>0.0</ele><time>2026-05-04T15:59:13Z</time></trkpt><trkpt lat="41.64350786264887" lon="19.640635363577605"><ele>0.0</ele><time>2026-05-04T15:59:14Z</time></trkpt><trkpt lat="41.64352955384535" lon="19.64028881037959"><ele>-1.5</ele><time>2026-05-04T15:59:15Z</time></trkpt><trkpt lat="41.643551666471474" lon="19.63993601487361"><ele>-3.0</ele><time>2026-05-04T15:59:16Z</time></trkpt><trkpt lat="41.643572006175354" lon="19.63958989920758"><ele>-2.5</ele><time>2026-05-04T15:59:17Z</time></trkpt><trkpt lat="41.64359323906165" lon="19.63923787409684"><ele>-2.0</ele><time>2026-05-04T15:59:18Z</time></trkpt><trkpt lat="41.64361471469068" lon="19.63889076760245"><ele>-2.0</ele><time>2026-05-04T15:59:19Z</time></trkpt><trkpt lat="41.64363452729701" lon="19.638547989335"><ele>-2.0</ele><time>2026-05-04T15:59:20Z</time></trkpt><trkpt lat="41.64365148612908" lon="19.638215930466174"><ele>-2.0</ele><time>2026-05-04T15:59:21Z</time></trkpt><trkpt lat="41.643670560940066" lon="19.637875219485466"><ele>-2.0</ele><time>2026-05-04T15:59:22Z</time></trkpt><trkpt lat="41.64368468217343" lon="19.637536006336706"><ele>-2.0</ele><time>2026-05-04T15:59:23Z</time></trkpt><trkpt lat="41.64370365408374" lon="19.63720079342892"><ele>-2.0</ele><time>2026-05-04T15:59:24Z</time></trkpt><trkpt lat="41.6437208549583" lon="19.636860971757653"><ele>-2.0</ele><time>2026-05-04T15:59:25Z</time></trkpt><trkpt lat="41.643742689085876" lon="19.63652465210059"><ele>-2.0</ele><time>2026-05-04T15:59:26Z</time></trkpt><trkpt lat="41.64376163839733" lon="19.63617836204015"><ele>-1.5</ele><time>2026-05-04T15:59:27Z</time></trkpt><trkpt lat="41.64378578149144" lon="19.635830679087686"><ele>-1.0</ele><time>2026-05-04T15:59:28Z</time></trkpt><trkpt lat="41.64380974062956" lon="19.635482998575235"><ele>-0.5</ele><time>2026-05-04T15:59:29Z</time></trkpt><trkpt lat="41.643833792290934" lon="19.63512677115668"><ele>0.0</ele><time>2026-05-04T15:59:30Z</time></trkpt><trkpt lat="41.64385464708248" lon="19.634775826428836"><ele>-1.5</ele><time>2026-05-04T15:59:31Z</time></trkpt><trkpt lat="41.64387645652988" lon="19.63442164381663"><ele>-3.0</ele><time>2026-05-04T15:59:32Z</time></trkpt><trkpt lat="41.64389873138472" lon="19.634060248550433"><ele>-3.0</ele><time>2026-05-04T15:59:33Z</time></trkpt><trkpt lat="41.64392040836106" lon="19.6337132176082"><ele>-3.0</ele><time>2026-05-04T15:59:34Z</time></trkpt><trkpt lat="41.6439404351243" lon="19.63335460735647"><ele>-2.5</ele><time>2026-05-04T15:59:35Z</time></trkpt><trkpt lat="41.64396441841056" lon="19.632999701471153"><ele>-2.0</ele><time>2026-05-04T15:59:36Z</time></trkpt><trkpt lat="41.643988725460886" lon="19.63264871218855"><ele>-1.5</ele><time>2026-05-04T15:59:37Z</time></trkpt><trkpt lat="41.644008514700246" lon="19.632295746819327"><ele>-1.0</ele><time>2026-05-04T15:59:38Z</time></trkpt><trkpt lat="41.644025562184076" lon="19.63194731092579"><ele>-1.0</ele><time>2026-05-04T15:59:39Z</time></trkpt><trkpt lat="41.64404559776976" lon="19.6315833598714"><ele>-1.0</ele><time>2026-05-04T15:59:40Z</time></trkpt><trkpt lat="41.644064465514155" lon="19.63123897159422"><ele>-1.5</ele><time>2026-05-04T15:59:41Z</time></trkpt><trkpt lat="41.64408474137863" lon="19.63088795456007"><ele>-2.0</ele><time>2026-05-04T15:59:42Z</time></trkpt><trkpt lat="41.644107377675724" lon="19.630530850474802"><ele>-2.0</ele><time>2026-05-04T15:59:43Z</time></trkpt><trkpt lat="41.644129277244225" lon="19.630182172791102"><ele>-2.0</ele><time>2026-05-04T15:59:44Z</time></trkpt><trkpt lat="41.64415384727087" lon="19.629816468331253"><ele>-1.5</ele><time>2026-05-04T15:59:45Z</time></trkpt><trkpt lat="41.6441757468977" lon="19.62945279022268"><ele>-1.0</ele><time>2026-05-04T15:59:46Z</time></trkpt><trkpt lat="41.64419955454728" lon="19.62908815327057"><ele>-1.0</ele><time>2026-05-04T15:59:47Z</time></trkpt><trkpt lat="41.64422346838146" lon="19.628723196357477"><ele>-1.0</ele><time>2026-05-04T15:59:48Z</time></trkpt><trkpt lat="41.644248229607435" lon="19.62835264532899"><ele>-1.5</ele><time>2026-05-04T15:59:49Z</time></trkpt><trkpt lat="41.64426874070627" lon="19.627990276443164"><ele>-2.0</ele><time>2026-05-04T15:59:50Z</time></trkpt><trkpt lat="41.64429001066177" lon="19.627611343300636"><ele>-2.0</ele><time>2026-05-04T15:59:51Z</time></trkpt><trkpt lat="41.64431016841572" lon="19.627242275120615"><ele>-2.0</ele><time>2026-05-04T15:59:52Z</time></trkpt><trkpt lat="41.64433498207372" lon="19.626867657076104"><ele>-1.5</ele><time>2026-05-04T15:59:53Z</time></trkpt><trkpt lat="41.64435770521222" lon="19.62649878997916"><ele>-1.0</ele><time>2026-05-04T15:59:54Z</time></trkpt><trkpt lat="41.6443796137875" lon="19.62612736802054"><ele>-1.0</ele><time>2026-05-04T15:59:55Z</time></trkpt><trkpt lat="41.644403317246876" lon="19.625752891487853"><ele>-1.0</ele><time>2026-05-04T15:59:56Z</time></trkpt><trkpt lat="41.64442857474237" lon="19.625386445523485"><ele>-1.0</ele><time>2026-05-04T15:59:57Z</time></trkpt><trkpt lat="41.64445243770887" lon="19.625021632786414"><ele>-1.0</ele><time>2026-05-04T15:59:58Z</time></trkpt><trkpt lat="41.64447466692545" lon="19.62466964696392"><ele>-1.5</ele><time>2026-05-04T15:59:59Z</time></trkpt><trkpt lat="41.6444980170882" lon="19.62433023982568"><ele>-2.0</ele><time>2026-05-04T16:00:00Z</time></trkpt><trkpt lat="41.64451680990763" lon="19.6240128803033"><ele>-2.0</ele><time>2026-05-04T16:00:01Z</time></trkpt><trkpt lat="41.64453484183126" lon="19.6236994803409"><ele>-2.0</ele><time>2026-05-04T16:00:02Z</time></trkpt><trkpt lat="41.644551051615245" lon="19.623395626204456"><ele>-1.3333333333333333</ele><time>2026-05-04T16:00:03Z</time></trkpt><trkpt lat="41.644571496955294" lon="19.62310743737581"><ele>-0.6666666666666666</ele><time>2026-05-04T16:00:03.999Z</time></trkpt><trkpt lat="41.64458786235433" lon="19.622834830525875"><ele>0.0</ele><time>2026-05-04T16:00:04.999Z</time></trkpt><trkpt lat="41.644610824554775" lon="19.622618398173444"><ele>0.0</ele><time>2026-05-04T16:00:05.999Z</time></trkpt><trkpt lat="41.64462637597224" lon="19.622460174597933"><ele>0.0</ele><time>2026-05-04T16:00:06.999Z</time></trkpt><trkpt lat="41.64464210415005" lon="19.6223473473096"><ele>0.0</ele><time>2026-05-04T16:00:07.999Z</time></trkpt><trkpt lat="41.64466183068479" lon="19.6222106315946"><ele>0.0</ele><time>2026-05-04T16:00:09.999Z</time></trkpt><trkpt lat="41.64467097726582" lon="19.622116546630107"><ele>0.0</ele><time>2026-05-04T16:00:10.999Z</time></trkpt><trkpt lat="41.644682517139245" lon="19.62199436072262"><ele>-0.25</ele><time>2026-05-04T16:00:11.999Z</time></trkpt><trkpt lat="41.6446906057709" lon="19.62186947081189"><ele>-0.5</ele><time>2026-05-04T16:00:12.999Z</time></trkpt><trkpt lat="41.64469558096042" lon="19.621745061864747"><ele>-0.75</ele><time>2026-05-04T16:00:13.999Z</time></trkpt><trkpt lat="41.64470206955112" lon="19.621567817455944"><ele>-1.0</ele><time>2026-05-04T16:00:14.999Z</time></trkpt><trkpt lat="41.644709982037156" lon="19.621377023810613"><ele>-1.0</ele><time>2026-05-04T16:00:15.999Z</time></trkpt><trkpt lat="41.644722150324235" lon="19.62115592720345"><ele>-1.0</ele><time>2026-05-04T16:00:16.998Z</time></trkpt><trkpt lat="41.64473667185193" lon="19.62093037310446"><ele>-1.0</ele><time>2026-05-04T16:00:17.998Z</time></trkpt><trkpt lat="41.64475070056429" lon="19.620686423491385"><ele>-1.0</ele><time>2026-05-04T16:00:19Z</time></trkpt><trkpt lat="41.64476758597116" lon="19.620420902800007"><ele>-1.0</ele><time>2026-05-04T16:00:20Z</time></trkpt><trkpt lat="41.64478508720177" lon="19.620150553164375"><ele>-1.0</ele><time>2026-05-04T16:00:21Z</time></trkpt><trkpt lat="41.64480260461341" lon="19.619872735428142"><ele>-1.0</ele><time>2026-05-04T16:00:22Z</time></trkpt><trkpt lat="41.64482044437726" lon="19.61958907438663"><ele>-1.0</ele><time>2026-05-04T16:00:23Z</time></trkpt><trkpt lat="41.64484042789767" lon="19.61929474876649"><ele>-1.0</ele><time>2026-05-04T16:00:24Z</time></trkpt><trkpt lat="41.644859896783856" lon="19.618986911160697"><ele>-1.5</ele><time>2026-05-04T16:00:25Z</time></trkpt><trkpt lat="41.644881289948195" lon="19.61867747667901"><ele>-2.0</ele><time>2026-05-04T16:00:26Z</time></trkpt><trkpt lat="41.64490079126275" lon="19.61835597745639"><ele>-2.0</ele><time>2026-05-04T16:00:27Z</time></trkpt><trkpt lat="41.644919486490856" lon="19.618020585723343"><ele>-2.0</ele><time>2026-05-04T16:00:28Z</time></trkpt><trkpt lat="41.644943011106285" lon="19.617667874063876"><ele>-2.5</ele><time>2026-05-04T16:00:29Z</time></trkpt><trkpt lat="41.644969069741364" lon="19.617302119370454"><ele>-3.0</ele><time>2026-05-04T16:00:30Z</time></trkpt><trkpt lat="41.64499777063757" lon="19.616918942973264"><ele>-3.0</ele><time>2026-05-04T16:00:31Z</time></trkpt><trkpt lat="41.64502540393733" lon="19.616530893527276"><ele>-3.0</ele><time>2026-05-04T16:00:32Z</time></trkpt><trkpt lat="41.64504964413711" lon="19.616151297210287"><ele>-2.5</ele><time>2026-05-04T16:00:33Z</time></trkpt><trkpt lat="41.64507487053623" lon="19.61579670742619"><ele>-2.0</ele><time>2026-05-04T16:00:34Z</time></trkpt><trkpt lat="41.645100979438624" lon="19.615462841261486"><ele>-2.0</ele><time>2026-05-04T16:00:35Z</time></trkpt><trkpt lat="41.64512064122681" lon="19.615152375365803"><ele>-2.0</ele><time>2026-05-04T16:00:36Z</time></trkpt><trkpt lat="41.64513999838604" lon="19.614841808462444"><ele>-2.0</ele><time>2026-05-04T16:00:37Z</time></trkpt><trkpt lat="41.64516249669209" lon="19.614531595276606"><ele>-2.0</ele><time>2026-05-04T16:00:38Z</time></trkpt><trkpt lat="41.64518399989683" lon="19.614225682330424"><ele>-2.5</ele><time>2026-05-04T16:00:39Z</time></trkpt><trkpt lat="41.64520550697771" lon="19.613916979108616"><ele>-3.0</ele><time>2026-05-04T16:00:40Z</time></trkpt><trkpt lat="41.6452299118712" lon="19.613608817727087"><ele>-3.0</ele><time>2026-05-04T16:00:41Z</time></trkpt><trkpt lat="41.645256081210505" lon="19.61329914929876"><ele>-3.0</ele><time>2026-05-04T16:00:42Z</time></trkpt><trkpt lat="41.6452799215629" lon="19.612991721000913"><ele>-2.5</ele><time>2026-05-04T16:00:43Z</time></trkpt><trkpt lat="41.64530473256332" lon="19.612688065253774"><ele>-2.0</ele><time>2026-05-04T16:00:44Z</time></trkpt><trkpt lat="41.64533080500608" lon="19.61234768803125"><ele>-2.0</ele><time>2026-05-04T16:00:45Z</time></trkpt><trkpt lat="41.64535152017938" lon="19.612029580132106"><ele>-2.0</ele><time>2026-05-04T16:00:46Z</time></trkpt><trkpt lat="41.6453785760995" lon="19.61171865902104"><ele>-2.0</ele><time>2026-05-04T16:00:47Z</time></trkpt><trkpt lat="41.64538873721867" lon="19.61139819066007"><ele>-2.0</ele><time>2026-05-04T16:00:48Z</time></trkpt><trkpt lat="41.645413868203526" lon="19.611075668530955"><ele>-3.0</ele><time>2026-05-04T16:00:49Z</time></trkpt><trkpt lat="41.645438536103434" lon="19.61074086482053"><ele>-4.0</ele><time>2026-05-04T16:00:50Z</time></trkpt><trkpt lat="41.64546487046459" lon="19.61040344488485"><ele>-4.0</ele><time>2026-05-04T16:00:50.999Z</time></trkpt><trkpt lat="41.64549680892895" lon="19.61006728408882"><ele>-4.0</ele><time>2026-05-04T16:00:51.999Z</time></trkpt><trkpt lat="41.64552078842741" lon="19.609728538229678"><ele>-4.5</ele><time>2026-05-04T16:00:52.999Z</time></trkpt><trkpt lat="41.6455477766294" lon="19.609385977272836"><ele>-5.0</ele><time>2026-05-04T16:00:53.999Z</time></trkpt><trkpt lat="41.64557274463935" lon="19.609035117813328"><ele>-5.0</ele><time>2026-05-04T16:00:54.999Z</time></trkpt><trkpt lat="41.6455884642375" lon="19.608678221181087"><ele>-5.0</ele><time>2026-05-04T16:00:55.999Z</time></trkpt><trkpt lat="41.6456087868557" lon="19.60832077174153"><ele>-3.5</ele><time>2026-05-04T16:00:56.999Z</time></trkpt><trkpt lat="41.64563057450169" lon="19.60796273466729"><ele>-2.0</ele><time>2026-05-04T16:00:57.999Z</time></trkpt><trkpt lat="41.645652383876254" lon="19.607618501855708"><ele>-2.0</ele><time>2026-05-04T16:00:58.999Z</time></trkpt><trkpt lat="41.64566825555277" lon="19.607309976551505"><ele>-2.0</ele><time>2026-05-04T16:00:59.999Z</time></trkpt><trkpt lat="41.64568739057944" lon="19.607049855116102"><ele>-2.0</ele><time>2026-05-04T16:01:00.999Z</time></trkpt><trkpt lat="41.64567947896598" lon="19.60682505940853"><ele>-2.0</ele><time>2026-05-04T16:01:01.999Z</time></trkpt><trkpt lat="41.64562867496156" lon="19.606605446363297"><ele>-2.0</ele><time>2026-05-04T16:01:02.999Z</time></trkpt><trkpt lat="41.645526120472745" lon="19.606381955855824"><ele>-2.0</ele><time>2026-05-04T16:01:03.999Z</time></trkpt><trkpt lat="41.64540104291992" lon="19.6061350475547"><ele>-1.5</ele><time>2026-05-04T16:01:04.999Z</time></trkpt><trkpt lat="41.64526092068782" lon="19.60587458912385"><ele>-1.0</ele><time>2026-05-04T16:01:05.999Z</time></trkpt><trkpt lat="41.64511861086739" lon="19.605607006227707"><ele>-1.0</ele><time>2026-05-04T16:01:06.999Z</time></trkpt><trkpt lat="41.64497910578322" lon="19.60533639114768"><ele>-1.0</ele><time>2026-05-04T16:01:07.999Z</time></trkpt><trkpt lat="41.6448299640155" lon="19.605043348374267"><ele>-1.0</ele><time>2026-05-04T16:01:08.999Z</time></trkpt><trkpt lat="41.644678937390964" lon="19.60475370739429"><ele>-1.0</ele><time>2026-05-04T16:01:09.999Z</time></trkpt><trkpt lat="41.644524419987235" lon="19.60445989043537"><ele>-2.0</ele><time>2026-05-04T16:01:10.999Z</time></trkpt><trkpt lat="41.644371729465014" lon="19.60415745564696"><ele>-3.0</ele><time>2026-05-04T16:01:11.999Z</time></trkpt><trkpt lat="41.64421558423572" lon="19.60387252258305"><ele>-2.5</ele><time>2026-05-04T16:01:12.999Z</time></trkpt><trkpt lat="41.64407048503053" lon="19.603616070356836"><ele>-2.0</ele><time>2026-05-04T16:01:13.999Z</time></trkpt><trkpt lat="41.6439280395283" lon="19.60336329133357"><ele>-2.0</ele><time>2026-05-04T16:01:14.999Z</time></trkpt><trkpt lat="41.64379091537647" lon="19.60311321532649"><ele>-2.0</ele><time>2026-05-04T16:01:15.999Z</time></trkpt><trkpt lat="41.64365536933835" lon="19.602875708594897"><ele>-1.5</ele><time>2026-05-04T16:01:16.999Z</time></trkpt><trkpt lat="41.643520299695176" lon="19.602621270076632"><ele>-1.0</ele><time>2026-05-04T16:01:17.999Z</time></trkpt><trkpt lat="41.64338203420709" lon="19.60237006573362"><ele>-1.0</ele><time>2026-05-04T16:01:18.999Z</time></trkpt><trkpt lat="41.64324261235684" lon="19.602116134302797"><ele>-1.0</ele><time>2026-05-04T16:01:19.999Z</time></trkpt><trkpt lat="41.6431059064959" lon="19.601856774992044"><ele>-1.0</ele><time>2026-05-04T16:01:20.999Z</time></trkpt><trkpt lat="41.642969269903574" lon="19.60159161621175"><ele>-1.0</ele><time>2026-05-04T16:01:21.999Z</time></trkpt><trkpt lat="41.64284784297925" lon="19.601312289228527"><ele>-2.0</ele><time>2026-05-04T16:01:22.999Z</time></trkpt><trkpt lat="41.642706687162445" lon="19.60105238734573"><ele>-3.0</ele><time>2026-05-04T16:01:23.999Z</time></trkpt><trkpt lat="41.64257212701646" lon="19.60080905419517"><ele>-3.0</ele><time>2026-05-04T16:01:24.999Z</time></trkpt><trkpt lat="41.64245653532869" lon="19.60060344815991"><ele>-3.0</ele><time>2026-05-04T16:01:25.999Z</time></trkpt><trkpt lat="41.642356845366905" lon="19.600423260060538"><ele>-3.0</ele><time>2026-05-04T16:01:26.999Z</time></trkpt><trkpt lat="41.64226353770119" lon="19.600248796206717"><ele>-2.6666666666666665</ele><time>2026-05-04T16:01:27.999Z</time></trkpt><trkpt lat="41.64217623673641" lon="19.6000769934292"><ele>-2.333333333333333</ele><time>2026-05-04T16:01:28.999Z</time></trkpt><trkpt lat="41.64209132200831" lon="19.599913637338457"><ele>-2.0</ele><time>2026-05-04T16:01:29.999Z</time></trkpt><trkpt lat="41.64199970816926" lon="19.599750558773437"><ele>-2.0</ele><time>2026-05-04T16:01:30.999Z</time></trkpt><trkpt lat="41.64190764492542" lon="19.599585911242436"><ele>-2.0</ele><time>2026-05-04T16:01:31.999Z</time></trkpt><trkpt lat="41.641816659485286" lon="19.599415766819458"><ele>-2.0</ele><time>2026-05-04T16:01:32.999Z</time></trkpt><trkpt lat="41.64172415913155" lon="19.599246961686646"><ele>-2.0</ele><time>2026-05-04T16:01:33.999Z</time></trkpt><trkpt lat="41.641634816770704" lon="19.599075816793636"><ele>-2.0</ele><time>2026-05-04T16:01:34.999Z</time></trkpt><trkpt lat="41.641542586379835" lon="19.59890746926602"><ele>-2.0</ele><time>2026-05-04T16:01:35.999Z</time></trkpt><trkpt lat="41.641450191220606" lon="19.59873823266076"><ele>-1.6666666666666665</ele><time>2026-05-04T16:01:36.999Z</time></trkpt><trkpt lat="41.64136159306911" lon="19.5985726317994"><ele>-1.3333333333333333</ele><time>2026-05-04T16:01:37.999Z</time></trkpt><trkpt lat="41.641268759103625" lon="19.598410945639042"><ele>-1.0</ele><time>2026-05-04T16:01:38.999Z</time></trkpt><trkpt lat="41.641167961857754" lon="19.598248697195846"><ele>-0.6666666666666666</ele><time>2026-05-04T16:01:39.999Z</time></trkpt><trkpt lat="41.64106786882495" lon="19.598068718046317"><ele>-0.3333333333333333</ele><time>2026-05-04T16:01:40.999Z</time></trkpt><trkpt lat="41.64097357031981" lon="19.597904588126575"><ele>0.0</ele><time>2026-05-04T16:01:41.999Z</time></trkpt><trkpt lat="41.64088230822972" lon="19.597758801751493"><ele>0.0</ele><time>2026-05-04T16:01:42.999Z</time></trkpt><trkpt lat="41.64079368598632" lon="19.59762555417971"><ele>0.0</ele><time>2026-05-04T16:01:43.999Z</time></trkpt><trkpt lat="41.64071063149264" lon="19.597475013564654"><ele>0.0</ele><time>2026-05-04T16:01:44.999Z</time></trkpt><trkpt lat="41.640638250027976" lon="19.59730696589218"><ele>0.0</ele><time>2026-05-04T16:01:45.999Z</time></trkpt><trkpt lat="41.640563341845656" lon="19.597113842133485"><ele>0.0</ele><time>2026-05-04T16:01:46.999Z</time></trkpt><trkpt lat="41.64048155939363" lon="19.59691404255769"><ele>0.0</ele><time>2026-05-04T16:01:47.999Z</time></trkpt><trkpt lat="41.64039259635684" lon="19.596709011905197"><ele>0.0</ele><time>2026-05-04T16:01:48.999Z</time></trkpt><trkpt lat="41.640307164250686" lon="19.596511387106737"><ele>0.0</ele><time>2026-05-04T16:01:49.999Z</time></trkpt><trkpt lat="41.640221167814154" lon="19.596310749164576"><ele>0.0</ele><time>2026-05-04T16:01:50.999Z</time></trkpt><trkpt lat="41.64013674306767" lon="19.59611509781926"><ele>0.0</ele><time>2026-05-04T16:01:51.999Z</time></trkpt><trkpt lat="41.640049331309235" lon="19.59592066436435"><ele>0.0</ele><time>2026-05-04T16:01:52.999Z</time></trkpt><trkpt lat="41.63995504689891" lon="19.59572447501765"><ele>0.0</ele><time>2026-05-04T16:01:53.999Z</time></trkpt><trkpt lat="41.63986799696215" lon="19.595529661016915"><ele>0.0</ele><time>2026-05-04T16:01:54.999Z</time></trkpt><trkpt lat="41.63979256784236" lon="19.595341148815066"><ele>0.0</ele><time>2026-05-04T16:01:55.999Z</time></trkpt><trkpt lat="41.63972641979446" lon="19.59515252723425"><ele>0.0</ele><time>2026-05-04T16:01:56.999Z</time></trkpt><trkpt lat="41.639661840624704" lon="19.594963574776177"><ele>0.0</ele><time>2026-05-04T16:01:57.999Z</time></trkpt><trkpt lat="41.63960196665442" lon="19.59477795029193"><ele>0.0</ele><time>2026-05-04T16:01:58.999Z</time></trkpt><trkpt lat="41.639538526143596" lon="19.594588176197398"><ele>0.0</ele><time>2026-05-04T16:01:59.999Z</time></trkpt><trkpt lat="41.639474520380425" lon="19.594402180845016"><ele>0.0</ele><time>2026-05-04T16:02:00.999Z</time></trkpt><trkpt lat="41.63940748804109" lon="19.594215096378868"><ele>0.0</ele><time>2026-05-04T16:02:01.999Z</time></trkpt><trkpt lat="41.63933670704891" lon="19.59402715308664"><ele>0.0</ele><time>2026-05-04T16:02:02.999Z</time></trkpt><trkpt lat="41.63926151819916" lon="19.593835523528472"><ele>0.0</ele><time>2026-05-04T16:02:03.999Z</time></trkpt><trkpt lat="41.639185193508844" lon="19.593629464555395"><ele>0.0</ele><time>2026-05-04T16:02:04.999Z</time></trkpt><trkpt lat="41.639114351893134" lon="19.593413836341778"><ele>0.0</ele><time>2026-05-04T16:02:05.999Z</time></trkpt><trkpt lat="41.63904130485268" lon="19.59319331700988"><ele>0.0</ele><time>2026-05-04T16:02:06.999Z</time></trkpt><trkpt lat="41.63896576308637" lon="19.592972300045478"><ele>0.0</ele><time>2026-05-04T16:02:07.999Z</time></trkpt><trkpt lat="41.638888627393705" lon="19.59274897364775"><ele>0.0</ele><time>2026-05-04T16:02:08.999Z</time></trkpt><trkpt lat="41.63881300585222" lon="19.59252240069172"><ele>0.0</ele><time>2026-05-04T16:02:09.999Z</time></trkpt><trkpt lat="41.63874162636416" lon="19.592297381082265"><ele>0.0</ele><time>2026-05-04T16:02:10.999Z</time></trkpt><trkpt lat="41.638671262392585" lon="19.59208016554108"><ele>0.0</ele><time>2026-05-04T16:02:11.999Z</time></trkpt><trkpt lat="41.63860568409908" lon="19.59188025902143"><ele>0.0</ele><time>2026-05-04T16:02:12.999Z</time></trkpt><trkpt lat="41.638543366796725" lon="19.591691584446124"><ele>0.0</ele><time>2026-05-04T16:02:13.999Z</time></trkpt><trkpt lat="41.63847959138227" lon="19.59150549150171"><ele>0.0</ele><time>2026-05-04T16:02:14.999Z</time></trkpt><trkpt lat="41.63840869651271" lon="19.591314180310597"><ele>0.0</ele><time>2026-05-04T16:02:15.999Z</time></trkpt><trkpt lat="41.638339752955595" lon="19.591123318826345"><ele>0.0</ele><time>2026-05-04T16:02:16.999Z</time></trkpt><trkpt lat="41.638273845865015" lon="19.590925865411936"><ele>0.0</ele><time>2026-05-04T16:02:17.999Z</time></trkpt><trkpt lat="41.63821219663984" lon="19.590721597523157"><ele>0.0</ele><time>2026-05-04T16:02:18.999Z</time></trkpt><trkpt lat="41.63814530968639" lon="19.590515461571925"><ele>0.0</ele><time>2026-05-04T16:02:19.999Z</time></trkpt><trkpt lat="41.638076032191215" lon="19.590321882440442"><ele>0.0</ele><time>2026-05-04T16:02:20.999Z</time></trkpt><trkpt lat="41.63800715338611" lon="19.590133971903366"><ele>0.0</ele><time>2026-05-04T16:02:21.999Z</time></trkpt><trkpt lat="41.63794243335882" lon="19.58995072977471"><ele>0.0</ele><time>2026-05-04T16:02:22.999Z</time></trkpt><trkpt lat="41.63787921497323" lon="19.589771624951243"><ele>0.0</ele><time>2026-05-04T16:02:23.999Z</time></trkpt><trkpt lat="41.63782464606755" lon="19.589608491579302"><ele>0.0</ele><time>2026-05-04T16:02:25Z</time></trkpt><trkpt lat="41.63777578014255" lon="19.58946366467616"><ele>0.0</ele><time>2026-05-04T16:02:26Z</time></trkpt><trkpt lat="41.63772840065647" lon="19.58936357149336"><ele>0.0</ele><time>2026-05-04T16:02:27Z</time></trkpt><trkpt lat="41.637669320602846" lon="19.5893214736315"><ele>0.0</ele><time>2026-05-04T16:02:28Z</time></trkpt><trkpt lat="41.637587091796824" lon="19.5893193732787"><ele>0.0</ele><time>2026-05-04T16:02:29Z</time></trkpt><trkpt lat="41.63749597884935" lon="19.589368327474226"><ele>0.0</ele><time>2026-05-04T16:02:30Z</time></trkpt><trkpt lat="41.63739537273028" lon="19.589444906015952"><ele>0.0</ele><time>2026-05-04T16:02:31Z</time></trkpt><trkpt lat="41.63729060279005" lon="19.58952195541426"><ele>0.0</ele><time>2026-05-04T16:02:32Z</time></trkpt><trkpt lat="41.637190382626656" lon="19.58957517695752"><ele>0.0</ele><time>2026-05-04T16:02:33Z</time></trkpt><trkpt lat="41.637092468136736" lon="19.58962480591682"><ele>0.0</ele><time>2026-05-04T16:02:34Z</time></trkpt><trkpt lat="41.63698531994421" lon="19.589679807476685"><ele>0.0</ele><time>2026-05-04T16:02:35Z</time></trkpt><trkpt lat="41.63686637199384" lon="19.589734058303485"><ele>0.2</ele><time>2026-05-04T16:02:36Z</time></trkpt><trkpt lat="41.63674279117637" lon="19.589793792254426"><ele>0.4</ele><time>2026-05-04T16:02:37Z</time></trkpt><trkpt lat="41.63662602732277" lon="19.589859529395326"><ele>0.6000000000000001</ele><time>2026-05-04T16:02:38Z</time></trkpt><trkpt lat="41.6365322030091" lon="19.58991514612587"><ele>0.8</ele><time>2026-05-04T16:02:39Z</time></trkpt><trkpt lat="41.63646990372519" lon="19.589945698554786"><ele>1.0</ele><time>2026-05-04T16:02:40Z</time></trkpt><trkpt lat="41.63640342325656" lon="19.589919676393546"><ele>1.0</ele><time>2026-05-04T16:02:45Z</time></trkpt><trkpt lat="41.63636374638467" lon="19.58981063029329"><ele>1.0</ele><time>2026-05-04T16:02:47Z</time></trkpt><trkpt lat="41.63632273620651" lon="19.589666463065146"><ele>1.0</ele><time>2026-05-04T16:02:49Z</time></trkpt><trkpt lat="41.63627868821654" lon="19.589541130525628"><ele>1.0</ele><time>2026-05-04T16:02:51Z</time></trkpt><trkpt lat="41.636216939327305" lon="19.5894650969568"><ele>1.0</ele><time>2026-05-04T16:02:53Z</time></trkpt><trkpt lat="41.636149870493966" lon="19.589458862308398"><ele>1.0</ele><time>2026-05-04T16:02:55Z</time></trkpt><trkpt lat="41.63608202775488" lon="19.589514353328386"><ele>-1.0</ele><time>2026-05-04T16:02:58Z</time></trkpt><trkpt lat="41.63603553873851" lon="19.589579638635595"><ele>-1.0</ele><time>2026-05-04T16:03:01Z</time></trkpt><trkpt lat="41.635976632441185" lon="19.58953541334888"><ele>-1.0</ele><time>2026-05-04T16:03:06Z</time></trkpt></trkseg><trkseg><trkpt lat="41.63924116367804" lon="19.72069982706212"><ele>75.0</ele><time>2026-05-05T08:04:17Z</time></trkpt><trkpt lat="41.639168555113145" lon="19.720831558400562"><ele>75.0</ele><time>2026-05-05T08:04:19Z</time></trkpt><trkpt lat="41.63909741406579" lon="19.720901827791103"><ele>75.0</ele><time>2026-05-05T08:04:20Z</time></trkpt><trkpt lat="41.63899730205773" lon="19.72098528546301"><ele>75.0</ele><time>2026-05-05T08:04:21Z</time></trkpt><trkpt lat="41.63891983132722" lon="19.721049058645672"><ele>75.0</ele><time>2026-05-05T08:04:22Z</time></trkpt><trkpt lat="41.638776026932746" lon="19.721157983160154"><ele>75.5</ele><time>2026-05-05T08:04:23Z</time></trkpt><trkpt lat="41.63863003605294" lon="19.72125997594492"><ele>76.0</ele><time>2026-05-05T08:04:24Z</time></trkpt><trkpt lat="41.63850406606002" lon="19.721334689342743"><ele>76.5</ele><time>2026-05-05T08:04:25Z</time></trkpt><trkpt lat="41.638402162704786" lon="19.721403574341757"><ele>77.0</ele><time>2026-05-05T08:04:26Z</time></trkpt><trkpt lat="41.63832487746458" lon="19.72149734932123"><ele>77.0</ele><time>2026-05-05T08:04:27Z</time></trkpt><trkpt lat="41.6382487652668" lon="19.721664638461466"><ele>77.0</ele><time>2026-05-05T08:04:28Z</time></trkpt><trkpt lat="41.638171839278314" lon="19.721904070848655"><ele>77.0</ele><time>2026-05-05T08:04:29Z</time></trkpt><trkpt lat="41.63811172397816" lon="19.72211230197857"><ele>78.6</ele><time>2026-05-05T08:04:30Z</time></trkpt><trkpt lat="41.638057194768116" lon="19.72230035848253"><ele>80.2</ele><time>2026-05-05T08:04:31Z</time></trkpt><trkpt lat="41.638032518134295" lon="19.722399530714515"><ele>81.8</ele><time>2026-05-05T08:04:32Z</time></trkpt><trkpt lat="41.638005434631765" lon="19.722536663525904"><ele>83.4</ele><time>2026-05-05T08:04:33Z</time></trkpt><trkpt lat="41.63797776912971" lon="19.722671660791782"><ele>85.0</ele><time>2026-05-05T08:04:34Z</time></trkpt><trkpt lat="41.637921693307554" lon="19.722851233426212"><ele>86.66666666666666</ele><time>2026-05-05T08:04:35Z</time></trkpt><trkpt lat="41.637822795411175" lon="19.72305921021695"><ele>88.33333333333333</ele><time>2026-05-05T08:04:36Z</time></trkpt><trkpt lat="41.637701500834645" lon="19.7232389964946"><ele>90.0</ele><time>2026-05-05T08:04:37Z</time></trkpt><trkpt lat="41.637564153466094" lon="19.723390177409623"><ele>90.0</ele><time>2026-05-05T08:04:38Z</time></trkpt><trkpt lat="41.637443078436746" lon="19.723529999577604"><ele>90.0</ele><time>2026-05-05T08:04:39Z</time></trkpt><trkpt lat="41.63735049999703" lon="19.723645162528555"><ele>90.0</ele><time>2026-05-05T08:04:40Z</time></trkpt><trkpt lat="41.637291023926934" lon="19.723714283935102"><ele>90.0</ele><time>2026-05-05T08:04:41Z</time></trkpt><trkpt lat="41.63724599179334" lon="19.72378536822211"><ele>90.0</ele><time>2026-05-05T08:04:42Z</time></trkpt><trkpt lat="41.63719777927027" lon="19.723868944889116"><ele>92.66666666666667</ele><time>2026-05-05T08:04:46Z</time></trkpt><trkpt lat="41.63716457660545" lon="19.723949300057882"><ele>95.33333333333334</ele><time>2026-05-05T08:04:48Z</time></trkpt><trkpt lat="41.6371340750314" lon="19.72405664565523"><ele>98.0</ele><time>2026-05-05T08:04:51Z</time></trkpt><trkpt lat="41.63711170446814" lon="19.724171325727795"><ele>100.66666666666667</ele><time>2026-05-05T08:04:53Z</time></trkpt><trkpt lat="41.63705266609829" lon="19.72425950819602"><ele>103.33333333333334</ele><time>2026-05-05T08:04:54Z</time></trkpt><trkpt lat="41.636983417494015" lon="19.724306352672766"><ele>106.0</ele><time>2026-05-05T08:04:55Z</time></trkpt><trkpt lat="41.6369042109754" lon="19.724335431720462"><ele>106.16666666666667</ele><time>2026-05-05T08:04:57Z</time></trkpt><trkpt lat="41.63685580173932" lon="19.724398454286703"><ele>106.33333333333334</ele><time>2026-05-05T08:05:01Z</time></trkpt><trkpt lat="41.6368844790116" lon="19.724500317069538"><ele>106.5</ele><time>2026-05-05T08:05:04Z</time></trkpt><trkpt lat="41.636987271170234" lon="19.724505368547224"><ele>106.66666666666666</ele><time>2026-05-05T08:05:06Z</time></trkpt><trkpt lat="41.637049602760435" lon="19.7244583497823"><ele>106.83333333333333</ele><time>2026-05-05T08:05:07Z</time></trkpt><trkpt lat="41.63714200917051" lon="19.72440637573718"><ele>107.0</ele><time>2026-05-05T08:05:08Z</time></trkpt><trkpt lat="41.63726439810258" lon="19.724368298918996"><ele>107.0</ele><time>2026-05-05T08:05:09Z</time></trkpt><trkpt lat="41.63739161668" lon="19.724358704909452"><ele>107.0</ele><time>2026-05-05T08:05:10Z</time></trkpt><trkpt lat="41.637540287345274" lon="19.7243746959021"><ele>107.0</ele><time>2026-05-05T08:05:11Z</time></trkpt><trkpt lat="41.637694918999735" lon="19.724407572946497"><ele>107.0</ele><time>2026-05-05T08:05:12Z</time></trkpt><trkpt lat="41.637847871377225" lon="19.724439405696792"><ele>114.5</ele><time>2026-05-05T08:05:13Z</time></trkpt><trkpt lat="41.63800230999013" lon="19.724472301994822"><ele>122.0</ele><time>2026-05-05T08:05:14Z</time></trkpt><trkpt lat="41.63815249735682" lon="19.724506220665084"><ele>129.5</ele><time>2026-05-05T08:05:15Z</time></trkpt><trkpt lat="41.638284939147894" lon="19.724533843399673"><ele>137.0</ele><time>2026-05-05T08:05:16Z</time></trkpt><trkpt lat="41.6383744639575" lon="19.72454115568741"><ele>137.00000000000003</ele><time>2026-05-05T08:05:17Z</time></trkpt><trkpt lat="41.638447716832175" lon="19.724550006234438"><ele>137.0</ele><time>2026-05-05T08:05:18Z</time></trkpt><trkpt lat="41.6385124963606" lon="19.724560466794106"><ele>137.0</ele><time>2026-05-05T08:05:19Z</time></trkpt><trkpt lat="41.638584087577904" lon="19.72457549256498"><ele>137.0</ele><time>2026-05-05T08:05:20Z</time></trkpt><trkpt lat="41.638657769571424" lon="19.724593116484026"><ele>137.0</ele><time>2026-05-05T08:05:21Z</time></trkpt><trkpt lat="41.638728336452935" lon="19.72461103153475"><ele>137.00000000000003</ele><time>2026-05-05T08:05:22Z</time></trkpt><trkpt lat="41.6387999931478" lon="19.724621627577516"><ele>137.0</ele><time>2026-05-05T08:05:23Z</time></trkpt><trkpt lat="41.63889517388407" lon="19.724619708013833"><ele>138.6</ele><time>2026-05-05T08:05:24Z</time></trkpt><trkpt lat="41.63903496612572" lon="19.72461175085002"><ele>140.2</ele><time>2026-05-05T08:05:25Z</time></trkpt><trkpt lat="41.63916258786373" lon="19.724626091355194"><ele>141.8</ele><time>2026-05-05T08:05:26Z</time></trkpt><trkpt lat="41.63922150763109" lon="19.724673496406925"><ele>143.4</ele><time>2026-05-05T08:05:27Z</time></trkpt><trkpt lat="41.63918293415407" lon="19.724811254646664"><ele>145.0</ele><time>2026-05-05T08:05:29Z</time></trkpt><trkpt lat="41.63909717295802" lon="19.724860625125274"><ele>145.0</ele><time>2026-05-05T08:05:30Z</time></trkpt><trkpt lat="41.638967518309045" lon="19.724914169904718"><ele>145.0</ele><time>2026-05-05T08:05:31Z</time></trkpt><trkpt lat="41.638816579383715" lon="19.724978294054043"><ele>145.0</ele><time>2026-05-05T08:05:32Z</time></trkpt><trkpt lat="41.63866222006241" lon="19.72504532777494"><ele>142.33333333333334</ele><time>2026-05-05T08:05:33Z</time></trkpt><trkpt lat="41.6384987120697" lon="19.725099811679783"><ele>139.66666666666666</ele><time>2026-05-05T08:05:34Z</time></trkpt><trkpt lat="41.638333076405644" lon="19.725138400391664"><ele>137.0</ele><time>2026-05-05T08:05:35Z</time></trkpt><trkpt lat="41.6381654608983" lon="19.725182745261232"><ele>139.0</ele><time>2026-05-05T08:05:36Z</time></trkpt><trkpt lat="41.63799587313184" lon="19.725252249552902"><ele>141.0</ele><time>2026-05-05T08:05:37Z</time></trkpt><trkpt lat="41.6378337850711" lon="19.72534193687432"><ele>143.0</ele><time>2026-05-05T08:05:38Z</time></trkpt><trkpt lat="41.63769676569238" lon="19.725459523205778"><ele>143.0</ele><time>2026-05-05T08:05:39Z</time></trkpt><trkpt lat="41.63759207767256" lon="19.725610933453662"><ele>143.0</ele><time>2026-05-05T08:05:40Z</time></trkpt><trkpt lat="41.63751068734568" lon="19.72580365467886"><ele>143.0</ele><time>2026-05-05T08:05:41Z</time></trkpt><trkpt lat="41.63743621413215" lon="19.726012597429612"><ele>149.25</ele><time>2026-05-05T08:05:42Z</time></trkpt><trkpt lat="41.637362474421224" lon="19.72620772942364"><ele>155.5</ele><time>2026-05-05T08:05:43Z</time></trkpt><trkpt lat="41.63729392171265" lon="19.726376044754147"><ele>161.75</ele><time>2026-05-05T08:05:44Z</time></trkpt><trkpt lat="41.63723314048198" lon="19.726510724888232"><ele>168.0</ele><time>2026-05-05T08:05:45Z</time></trkpt><trkpt lat="41.63717933948681" lon="19.726619223892833"><ele>168.0</ele><time>2026-05-05T08:05:46Z</time></trkpt><trkpt lat="41.63713183769015" lon="19.72670357118106"><ele>168.0</ele><time>2026-05-05T08:05:47Z</time></trkpt><trkpt lat="41.63703999190096" lon="19.726792409078083"><ele>168.0</ele><time>2026-05-05T08:05:49Z</time></trkpt><trkpt lat="41.636977240558764" lon="19.726815632012062"><ele>168.0</ele><time>2026-05-05T08:05:50Z</time></trkpt><trkpt lat="41.63690624805214" lon="19.726823390130047"><ele>168.0</ele><time>2026-05-05T08:05:50.999Z</time></trkpt><trkpt lat="41.63683712143003" lon="19.72679497188198"><ele>168.0</ele><time>2026-05-05T08:05:51.999Z</time></trkpt><trkpt lat="41.63677827468316" lon="19.726742384962176"><ele>167.85714285714286</ele><time>2026-05-05T08:05:52.999Z</time></trkpt><trkpt lat="41.63672100988008" lon="19.72668085121859"><ele>167.71428571428572</ele><time>2026-05-05T08:05:53.999Z</time></trkpt><trkpt lat="41.63666784215862" lon="19.726628814801394"><ele>167.57142857142856</ele><time>2026-05-05T08:05:54.999Z</time></trkpt><trkpt lat="41.63660953358073" lon="19.72657931616086"><ele>167.42857142857144</ele><time>2026-05-05T08:05:55.999Z</time></trkpt><trkpt lat="41.63655401469224" lon="19.72652893919422"><ele>167.28571428571428</ele><time>2026-05-05T08:05:56.999Z</time></trkpt><trkpt lat="41.63650125976258" lon="19.726478700935647"><ele>167.14285714285714</ele><time>2026-05-05T08:05:57.999Z</time></trkpt><trkpt lat="41.63644867975551" lon="19.72643103594475"><ele>167.0</ele><time>2026-05-05T08:05:58.999Z</time></trkpt><trkpt lat="41.636389710491365" lon="19.726384376090742"><ele>167.0</ele><time>2026-05-05T08:05:59.999Z</time></trkpt><trkpt lat="41.63632785486533" lon="19.726346771617873"><ele>167.0</ele><time>2026-05-05T08:06:00.999Z</time></trkpt><trkpt lat="41.63625942827182" lon="19.726335055952365"><ele>167.0</ele><time>2026-05-05T08:06:01.999Z</time></trkpt><trkpt lat="41.63617979206928" lon="19.72634359014761"><ele>167.0</ele><time>2026-05-05T08:06:02.999Z</time></trkpt><trkpt lat="41.636108051603756" lon="19.726373560259397"><ele>167.0</ele><time>2026-05-05T08:06:03.999Z</time></trkpt><trkpt lat="41.63603807676655" lon="19.726414654645964"><ele>167.0</ele><time>2026-05-05T08:06:04.999Z</time></trkpt><trkpt lat="41.63595780480431" lon="19.72645693774217"><ele>167.5</ele><time>2026-05-05T08:06:05.999Z</time></trkpt><trkpt lat="41.63585368292582" lon="19.72651092241556"><ele>168.0</ele><time>2026-05-05T08:06:06.999Z</time></trkpt><trkpt lat="41.63570918860936" lon="19.726562176913028"><ele>168.5</ele><time>2026-05-05T08:06:07.999Z</time></trkpt><trkpt lat="41.635562341129216" lon="19.726558171153897"><ele>169.0</ele><time>2026-05-05T08:06:08.999Z</time></trkpt><trkpt lat="41.63547252885505" lon="19.726550494394445"><ele>169.0</ele><time>2026-05-05T08:06:09.999Z</time></trkpt><trkpt lat="41.63544512130486" lon="19.726690760071428"><ele>169.0</ele><time>2026-05-05T08:06:11.999Z</time></trkpt><trkpt lat="41.63549135669154" lon="19.726775566655984"><ele>169.0</ele><time>2026-05-05T08:06:12.999Z</time></trkpt><trkpt lat="41.63557360235661" lon="19.7268194603948"><ele>169.0</ele><time>2026-05-05T08:06:13.999Z</time></trkpt><trkpt lat="41.63568634393612" lon="19.72682018744548"><ele>169.0</ele><time>2026-05-05T08:06:14.999Z</time></trkpt><trkpt lat="41.63580476335908" lon="19.726808172819823"><ele>169.0</ele><time>2026-05-05T08:06:15.999Z</time></trkpt><trkpt lat="41.63591643764317" lon="19.72679720998437"><ele>169.0</ele><time>2026-05-05T08:06:16.999Z</time></trkpt><trkpt lat="41.63603143393465" lon="19.72679349229041"><ele>169.0</ele><time>2026-05-05T08:06:17.999Z</time></trkpt><trkpt lat="41.63614807372781" lon="19.726787469907137"><ele>169.0</ele><time>2026-05-05T08:06:18.999Z</time></trkpt><trkpt lat="41.63624341863715" lon="19.72678401679226"><ele>169.0</ele><time>2026-05-05T08:06:19.999Z</time></trkpt><trkpt lat="41.63633924939184" lon="19.726858264928435"><ele>173.0</ele><time>2026-05-05T08:06:22Z</time></trkpt><trkpt lat="41.63633463183878" lon="19.726947426348318"><ele>177.0</ele><time>2026-05-05T08:06:23Z</time></trkpt><trkpt lat="41.63628666880205" lon="19.72702803696123"><ele>181.0</ele><time>2026-05-05T08:06:24Z</time></trkpt><trkpt lat="41.63619910918018" lon="19.727060923007034"><ele>185.0</ele><time>2026-05-05T08:06:25Z</time></trkpt><trkpt lat="41.63607186759621" lon="19.727052767458442"><ele>189.0</ele><time>2026-05-05T08:06:26Z</time></trkpt><trkpt lat="41.635927889045895" lon="19.727038677462396"><ele>191.75</ele><time>2026-05-05T08:06:27Z</time></trkpt><trkpt lat="41.63577987839441" lon="19.727052705320908"><ele>194.5</ele><time>2026-05-05T08:06:28Z</time></trkpt><trkpt lat="41.63562570993544" lon="19.727088875622538"><ele>197.25</ele><time>2026-05-05T08:06:29Z</time></trkpt><trkpt lat="41.63548253727508" lon="19.727109389551696"><ele>200.0</ele><time>2026-05-05T08:06:30Z</time></trkpt><trkpt lat="41.635345986594615" lon="19.727117693894293"><ele>200.0</ele><time>2026-05-05T08:06:31Z</time></trkpt><trkpt lat="41.635217922299226" lon="19.727115741682887"><ele>200.0</ele><time>2026-05-05T08:06:32Z</time></trkpt><trkpt lat="41.635099659882094" lon="19.727097996920563"><ele>200.0</ele><time>2026-05-05T08:06:33Z</time></trkpt><trkpt lat="41.63500129758091" lon="19.72707722419951"><ele>200.0</ele><time>2026-05-05T08:06:34Z</time></trkpt><trkpt lat="41.634918234075926" lon="19.727090369715082"><ele>200.0</ele><time>2026-05-05T08:06:36Z</time></trkpt><trkpt lat="41.63484358280535" lon="19.72711188486387"><ele>200.0</ele><time>2026-05-05T08:06:37Z</time></trkpt><trkpt lat="41.63471477444434" lon="19.72712018696696"><ele>200.0</ele><time>2026-05-05T08:06:38Z</time></trkpt><trkpt lat="41.63459434437172" lon="19.727118777879294"><ele>200.0</ele><time>2026-05-05T08:06:39Z</time></trkpt><trkpt lat="41.63450829845976" lon="19.72713201948142"><ele>200.0</ele><time>2026-05-05T08:06:40Z</time></trkpt><trkpt lat="41.63443026810968" lon="19.727146720485514"><ele>200.0</ele><time>2026-05-05T08:06:42Z</time></trkpt><trkpt lat="41.63431332903727" lon="19.72718807785342"><ele>201.25</ele><time>2026-05-05T08:06:45Z</time></trkpt><trkpt lat="41.634217711663275" lon="19.727193430158113"><ele>202.5</ele><time>2026-05-05T08:06:46Z</time></trkpt><trkpt lat="41.63410713999346" lon="19.727199339953177"><ele>203.75</ele><time>2026-05-05T08:06:47Z</time></trkpt><trkpt lat="41.633982239105386" lon="19.72720900228514"><ele>205.0</ele><time>2026-05-05T08:06:48Z</time></trkpt><trkpt lat="41.63386342693653" lon="19.727220319316146"><ele>204.99999999999997</ele><time>2026-05-05T08:06:49Z</time></trkpt><trkpt lat="41.63376827316805" lon="19.72723954070653"><ele>205.0</ele><time>2026-05-05T08:06:50Z</time></trkpt><trkpt lat="41.6337025156089" lon="19.727256341521745"><ele>205.0</ele><time>2026-05-05T08:06:51Z</time></trkpt><trkpt lat="41.63362073644647" lon="19.72726659324279"><ele>205.0</ele><time>2026-05-05T08:06:53Z</time></trkpt><trkpt lat="41.633574389778275" lon="19.727337739677203"><ele>204.99999999999997</ele><time>2026-05-05T08:06:55Z</time></trkpt><trkpt lat="41.633620085483344" lon="19.72747314884123"><ele>205.0</ele><time>2026-05-05T08:06:57Z</time></trkpt><trkpt lat="41.63368752324201" lon="19.72751068203279"><ele>204.99999999999997</ele><time>2026-05-05T08:06:58Z</time></trkpt><trkpt lat="41.633761802811065" lon="19.727531270798654"><ele>205.0</ele><time>2026-05-05T08:06:59Z</time></trkpt><trkpt lat="41.63382687985155" lon="19.72754798346215"><ele>205.0</ele><time>2026-05-05T08:07:00Z</time></trkpt><trkpt lat="41.633910774618066" lon="19.72759216365649"><ele>205.0</ele><time>2026-05-05T08:07:02Z</time></trkpt><trkpt lat="41.633995313358064" lon="19.72764588446617"><ele>204.99999999999997</ele><time>2026-05-05T08:07:05Z</time></trkpt><trkpt lat="41.63406335552033" lon="19.72769535368602"><ele>205.0</ele><time>2026-05-05T08:07:07Z</time></trkpt><trkpt lat="41.63412637267665" lon="19.727750895465583"><ele>210.0</ele><time>2026-05-05T08:07:09Z</time></trkpt><trkpt lat="41.634219320312624" lon="19.727809748702033"><ele>215.0</ele><time>2026-05-05T08:07:11Z</time></trkpt><trkpt lat="41.63432778012247" lon="19.72785642354759"><ele>220.0</ele><time>2026-05-05T08:07:13Z</time></trkpt><trkpt lat="41.63443485610262" lon="19.727881644461807"><ele>225.0</ele><time>2026-05-05T08:07:15Z</time></trkpt><trkpt lat="41.6345408342395" lon="19.727884233365156"><ele>230.0</ele><time>2026-05-05T08:07:17Z</time></trkpt><trkpt lat="41.63461829749284" lon="19.72788464171492"><ele>230.0</ele><time>2026-05-05T08:07:18Z</time></trkpt><trkpt lat="41.63474087998346" lon="19.727885089450087"><ele>230.0</ele><time>2026-05-05T08:07:19Z</time></trkpt><trkpt lat="41.63489220436569" lon="19.727903864609523"><ele>230.0</ele><time>2026-05-05T08:07:20Z</time></trkpt><trkpt lat="41.63507395547516" lon="19.7279456133992"><ele>230.0</ele><time>2026-05-05T08:07:21Z</time></trkpt><trkpt lat="41.63525958683139" lon="19.727997908978328"><ele>230.0</ele><time>2026-05-05T08:07:22Z</time></trkpt><trkpt lat="41.635413551874116" lon="19.72804427251014"><ele>230.0</ele><time>2026-05-05T08:07:23Z</time></trkpt><trkpt lat="41.63552355312739" lon="19.72808624850871"><ele>228.8</ele><time>2026-05-05T08:07:24Z</time></trkpt><trkpt lat="41.6355946383751" lon="19.728132327248005"><ele>227.6</ele><time>2026-05-05T08:07:25Z</time></trkpt><trkpt lat="41.63568713860184" lon="19.728218767980742"><ele>226.39999999999998</ele><time>2026-05-05T08:07:27Z</time></trkpt><trkpt lat="41.63575055628045" lon="19.72824018132228"><ele>225.2</ele><time>2026-05-05T08:07:28Z</time></trkpt><trkpt lat="41.63585541367242" lon="19.72828679244788"><ele>224.0</ele><time>2026-05-05T08:07:29Z</time></trkpt><trkpt lat="41.635967519974486" lon="19.72836703870232"><ele>224.0</ele><time>2026-05-05T08:07:30Z</time></trkpt><trkpt lat="41.63604538254499" lon="19.728433516882838"><ele>223.99999999999997</ele><time>2026-05-05T08:07:31Z</time></trkpt><trkpt lat="41.636128703215235" lon="19.728453838156856"><ele>223.99999999999997</ele><time>2026-05-05T08:07:33Z</time></trkpt><trkpt lat="41.63624563451065" lon="19.72848499573785"><ele>224.0</ele><time>2026-05-05T08:07:35Z</time></trkpt><trkpt lat="41.63630792108176" lon="19.7285050356752"><ele>224.0</ele><time>2026-05-05T08:07:36Z</time></trkpt><trkpt lat="41.63639303570414" lon="19.72856250703685"><ele>225.39999999999998</ele><time>2026-05-05T08:07:38Z</time></trkpt><trkpt lat="41.63644319831627" lon="19.728614430075883"><ele>226.79999999999998</ele><time>2026-05-05T08:07:39Z</time></trkpt><trkpt lat="41.636490921324345" lon="19.72869194326757"><ele>228.20000000000002</ele><time>2026-05-05T08:07:40Z</time></trkpt><trkpt lat="41.63652494083914" lon="19.728839189391728"><ele>229.60000000000002</ele><time>2026-05-05T08:07:41Z</time></trkpt><trkpt lat="41.63654095628437" lon="19.72899941000333"><ele>231.0</ele><time>2026-05-05T08:07:42Z</time></trkpt><trkpt lat="41.63653669195235" lon="19.7291885783302"><ele>233.33333333333331</ele><time>2026-05-05T08:07:43Z</time></trkpt><trkpt lat="41.636522212099756" lon="19.729420275059848"><ele>235.66666666666666</ele><time>2026-05-05T08:07:44Z</time></trkpt><trkpt lat="41.63650931272192" lon="19.729659006217485"><ele>238.0</ele><time>2026-05-05T08:07:45Z</time></trkpt><trkpt lat="41.63648665612829" lon="19.72991287697203"><ele>238.0</ele><time>2026-05-05T08:07:46Z</time></trkpt><trkpt lat="41.636451777720396" lon="19.73013878461347"><ele>238.0</ele><time>2026-05-05T08:07:47Z</time></trkpt><trkpt lat="41.63639987199258" lon="19.730326404715118"><ele>238.0</ele><time>2026-05-05T08:07:48Z</time></trkpt><trkpt lat="41.63632384176024" lon="19.73047625967716"><ele>240.33333333333331</ele><time>2026-05-05T08:07:49Z</time></trkpt><trkpt lat="41.63621626318777" lon="19.73061521854155"><ele>242.66666666666669</ele><time>2026-05-05T08:07:50Z</time></trkpt><trkpt lat="41.63609059414712" lon="19.73073389487409"><ele>245.0</ele><time>2026-05-05T08:07:51Z</time></trkpt><trkpt lat="41.63594965911263" lon="19.73080941577664"><ele>245.0</ele><time>2026-05-05T08:07:52Z</time></trkpt><trkpt lat="41.63579178178065" lon="19.730873973243465"><ele>245.0</ele><time>2026-05-05T08:07:53Z</time></trkpt><trkpt lat="41.63562444145856" lon="19.730943174216403"><ele>245.0</ele><time>2026-05-05T08:07:54Z</time></trkpt><trkpt lat="41.63545857899383" lon="19.73104069760665"><ele>242.0</ele><time>2026-05-05T08:07:55Z</time></trkpt><trkpt lat="41.63530701851546" lon="19.731166481477857"><ele>239.0</ele><time>2026-05-05T08:07:56Z</time></trkpt><trkpt lat="41.63517109024938" lon="19.73128767767736"><ele>236.0</ele><time>2026-05-05T08:07:57Z</time></trkpt><trkpt lat="41.6350478251699" lon="19.731366716907132"><ele>240.4</ele><time>2026-05-05T08:07:58Z</time></trkpt><trkpt lat="41.63493923540892" lon="19.731396026578"><ele>244.8</ele><time>2026-05-05T08:07:59Z</time></trkpt><trkpt lat="41.63485449258351" lon="19.731362984858464"><ele>249.20000000000002</ele><time>2026-05-05T08:08:00Z</time></trkpt><trkpt lat="41.63479456105323" lon="19.731274894676176"><ele>253.60000000000002</ele><time>2026-05-05T08:08:01Z</time></trkpt><trkpt lat="41.6347521369955" lon="19.731156748102514"><ele>258.0</ele><time>2026-05-05T08:08:02Z</time></trkpt><trkpt lat="41.634721412869304" lon="19.731057164980975"><ele>258.5</ele><time>2026-05-05T08:08:03Z</time></trkpt><trkpt lat="41.63459648978646" lon="19.731105272445966"><ele>259.0</ele><time>2026-05-05T08:08:05Z</time></trkpt><trkpt lat="41.63453985920239" lon="19.731208964815583"><ele>259.5</ele><time>2026-05-05T08:08:06Z</time></trkpt><trkpt lat="41.63449773815725" lon="19.731365654200847"><ele>260.0</ele><time>2026-05-05T08:08:07Z</time></trkpt><trkpt lat="41.634450034661874" lon="19.731534158754286"><ele>263.8</ele><time>2026-05-05T08:08:08Z</time></trkpt><trkpt lat="41.634397363910004" lon="19.731694023436187"><ele>267.6</ele><time>2026-05-05T08:08:09Z</time></trkpt><trkpt lat="41.63435601390262" lon="19.731834512734956"><ele>271.4</ele><time>2026-05-05T08:08:10Z</time></trkpt><trkpt lat="41.63433551475677" lon="19.731927764143087"><ele>275.2</ele><time>2026-05-05T08:08:11Z</time></trkpt><trkpt lat="41.634296895000446" lon="19.732039533834477"><ele>279.0</ele><time>2026-05-05T08:08:13Z</time></trkpt><trkpt lat="41.63423306428242" lon="19.732163601597527"><ele>279.0</ele><time>2026-05-05T08:08:15Z</time></trkpt><trkpt lat="41.6341603409381" lon="19.732254589604455"><ele>279.0</ele><time>2026-05-05T08:08:17Z</time></trkpt><trkpt lat="41.634070011038986" lon="19.7323361860427"><ele>279.0</ele><time>2026-05-05T08:08:19Z</time></trkpt><trkpt lat="41.63401412372102" lon="19.732384677093457"><ele>279.0</ele><time>2026-05-05T08:08:20Z</time></trkpt><trkpt lat="41.63395566106968" lon="19.732444840856903"><ele>279.0</ele><time>2026-05-05T08:08:21Z</time></trkpt><trkpt lat="41.63389221004471" lon="19.732504732158826"><ele>279.0</ele><time>2026-05-05T08:08:22Z</time></trkpt><trkpt lat="41.63381430536848" lon="19.73257777771096"><ele>279.0</ele><time>2026-05-05T08:08:23Z</time></trkpt><trkpt lat="41.63370616869643" lon="19.732659336354693"><ele>279.0</ele><time>2026-05-05T08:08:24Z</time></trkpt><trkpt lat="41.633596550591456" lon="19.73271676362993"><ele>279.0</ele><time>2026-05-05T08:08:25Z</time></trkpt><trkpt lat="41.63347931784783" lon="19.732773922975433"><ele>279.0</ele><time>2026-05-05T08:08:26Z</time></trkpt><trkpt lat="41.63335529719711" lon="19.73282670917112"><ele>279.6666666666667</ele><time>2026-05-05T08:08:27.001Z</time></trkpt><trkpt lat="41.63322344230312" lon="19.732876757321183"><ele>280.33333333333337</ele><time>2026-05-05T08:08:28.001Z</time></trkpt><trkpt lat="41.63307283049309" lon="19.732951203506875"><ele>281.0</ele><time>2026-05-05T08:08:29.001Z</time></trkpt><trkpt lat="41.632916426582916" lon="19.733052559156906"><ele>288.0</ele><time>2026-05-05T08:08:30.001Z</time></trkpt><trkpt lat="41.63277059342101" lon="19.733189840063677"><ele>295.0</ele><time>2026-05-05T08:08:31.001Z</time></trkpt><trkpt lat="41.632635608373334" lon="19.73334860555112"><ele>302.0</ele><time>2026-05-05T08:08:32.001Z</time></trkpt><trkpt lat="41.63250656135833" lon="19.73350756345398"><ele>300.6666666666667</ele><time>2026-05-05T08:08:33.001Z</time></trkpt><trkpt lat="41.63238261545642" lon="19.73365963241494"><ele>299.3333333333333</ele><time>2026-05-05T08:08:34.001Z</time></trkpt><trkpt lat="41.63226152658791" lon="19.7338020273337"><ele>298.0</ele><time>2026-05-05T08:08:35.001Z</time></trkpt><trkpt lat="41.632155963340374" lon="19.733919727444114"><ele>298.0</ele><time>2026-05-05T08:08:36.001Z</time></trkpt><trkpt lat="41.632059735243644" lon="19.73402485948274"><ele>298.0</ele><time>2026-05-05T08:08:37.001Z</time></trkpt><trkpt lat="41.63196699219678" lon="19.7341232693455"><ele>298.0</ele><time>2026-05-05T08:08:38.001Z</time></trkpt><trkpt lat="41.6318755002972" lon="19.734221892240353"><ele>298.0</ele><time>2026-05-05T08:08:39.001Z</time></trkpt><trkpt lat="41.63178579761412" lon="19.734317284768036"><ele>299.6</ele><time>2026-05-05T08:08:40.001Z</time></trkpt><trkpt lat="41.631699105277825" lon="19.734408390139475"><ele>301.20000000000005</ele><time>2026-05-05T08:08:41.001Z</time></trkpt><trkpt lat="41.631618872051085" lon="19.73448945083433"><ele>302.8</ele><time>2026-05-05T08:08:42.001Z</time></trkpt><trkpt lat="41.63155842366118" lon="19.734552842195097"><ele>304.40000000000003</ele><time>2026-05-05T08:08:43.001Z</time></trkpt><trkpt lat="41.63148241948402" lon="19.734639096425425"><ele>306.0</ele><time>2026-05-05T08:08:45.001Z</time></trkpt><trkpt lat="41.631439998187446" lon="19.734719420794843"><ele>306.0</ele><time>2026-05-05T08:08:48.001Z</time></trkpt><trkpt lat="41.631402791360955" lon="19.734792023282175"><ele>306.0</ele><time>2026-05-05T08:08:49.001Z</time></trkpt><trkpt lat="41.631346589541074" lon="19.734851875896737"><ele>306.0</ele><time>2026-05-05T08:08:50.001Z</time></trkpt><trkpt lat="41.63129806689334" lon="19.73494665919743"><ele>306.0</ele><time>2026-05-05T08:08:52.001Z</time></trkpt><trkpt lat="41.63126040421593" lon="19.73501936334939"><ele>306.0</ele><time>2026-05-05T08:09:04Z</time></trkpt><trkpt lat="41.63119469864398" lon="19.73511401497234"><ele>306.0</ele><time>2026-05-05T08:09:12Z</time></trkpt><trkpt lat="41.631146975745665" lon="19.735189082623126"><ele>308.6</ele><time>2026-05-05T08:09:23Z</time></trkpt><trkpt lat="41.63109858725042" lon="19.735271814751826"><ele>311.20000000000005</ele><time>2026-05-05T08:09:27Z</time></trkpt><trkpt lat="41.63102566547204" lon="19.735422758144953"><ele>313.79999999999995</ele><time>2026-05-05T08:09:28.999Z</time></trkpt><trkpt lat="41.630989988310404" lon="19.735514225145245"><ele>316.4</ele><time>2026-05-05T08:09:29.999Z</time></trkpt><trkpt lat="41.63095539759826" lon="19.735595687079403"><ele>319.0</ele><time>2026-05-05T08:09:30.999Z</time></trkpt><trkpt lat="41.63090521817572" lon="19.735719647945256"><ele>319.0</ele><time>2026-05-05T08:09:32.999Z</time></trkpt><trkpt lat="41.63090077693608" lon="19.735803965025237"><ele>319.0</ele><time>2026-05-05T08:09:36.999Z</time></trkpt><trkpt lat="41.63090712327177" lon="19.73589973345061"><ele>319.0</ele><time>2026-05-05T08:10:02.999Z</time></trkpt><trkpt lat="41.63089885795487" lon="19.736022752450054"><ele>319.0</ele><time>2026-05-05T08:10:04.999Z</time></trkpt><trkpt lat="41.630896499156115" lon="19.736161302884216"><ele>319.0</ele><time>2026-05-05T08:10:06.999Z</time></trkpt><trkpt lat="41.630897729995326" lon="19.73628490567431"><ele>319.0</ele><time>2026-05-05T08:10:08.999Z</time></trkpt><trkpt lat="41.63091865245898" lon="19.73642822336284"><ele>318.42857142857144</ele><time>2026-05-05T08:10:10.999Z</time></trkpt><trkpt lat="41.630949337439596" lon="19.736508523627034"><ele>317.85714285714283</ele><time>2026-05-05T08:10:11.999Z</time></trkpt><trkpt lat="41.63098046685329" lon="19.736590034982527"><ele>317.2857142857143</ele><time>2026-05-05T08:10:12.999Z</time></trkpt><trkpt lat="41.631007150130046" lon="19.73666873265213"><ele>316.7142857142857</ele><time>2026-05-05T08:10:13.999Z</time></trkpt><trkpt lat="41.631033969550444" lon="19.736754488098946"><ele>316.1428571428571</ele><time>2026-05-05T08:10:14.999Z</time></trkpt><trkpt lat="41.63106010746123" lon="19.736846811981213"><ele>315.57142857142856</ele><time>2026-05-05T08:10:15.999Z</time></trkpt><trkpt lat="41.63108374585573" lon="19.736937925699536"><ele>315.0</ele><time>2026-05-05T08:10:16.999Z</time></trkpt><trkpt lat="41.631106120199185" lon="19.737031288799837"><ele>314.8</ele><time>2026-05-05T08:10:17.999Z</time></trkpt><trkpt lat="41.63111708720829" lon="19.73720913329046"><ele>314.6</ele><time>2026-05-05T08:10:19.999Z</time></trkpt><trkpt lat="41.63115318817774" lon="19.73731245910309"><ele>314.4</ele><time>2026-05-05T08:10:20.999Z</time></trkpt><trkpt lat="41.631199834277375" lon="19.737414563506572"><ele>314.2</ele><time>2026-05-05T08:10:21.999Z</time></trkpt><trkpt lat="41.63124664832704" lon="19.737511979689508"><ele>314.0</ele><time>2026-05-05T08:10:22.999Z</time></trkpt><trkpt lat="41.63129568247978" lon="19.737610258826592"><ele>314.4</ele><time>2026-05-05T08:10:23.999Z</time></trkpt><trkpt lat="41.631349808178676" lon="19.737706701570605"><ele>314.79999999999995</ele><time>2026-05-05T08:10:24.999Z</time></trkpt><trkpt lat="41.631428615659964" lon="19.73782306290436"><ele>315.20000000000005</ele><time>2026-05-05T08:10:25.999Z</time></trkpt><trkpt lat="41.63149794712586" lon="19.73792568460086"><ele>315.6</ele><time>2026-05-05T08:10:26.999Z</time></trkpt><trkpt lat="41.63154637203649" lon="19.738032491876513"><ele>316.0</ele><time>2026-05-05T08:10:27.999Z</time></trkpt><trkpt lat="41.631581171594775" lon="19.73815558826468"><ele>316.3333333333333</ele><time>2026-05-05T08:10:28.999Z</time></trkpt><trkpt lat="41.63160255537362" lon="19.73825265532642"><ele>316.66666666666663</ele><time>2026-05-05T08:10:29.999Z</time></trkpt><trkpt lat="41.631618357652364" lon="19.738346599618108"><ele>317.0</ele><time>2026-05-05T08:10:30.999Z</time></trkpt><trkpt lat="41.631653451776245" lon="19.738461493812974"><ele>317.3333333333333</ele><time>2026-05-05T08:10:31.999Z</time></trkpt><trkpt lat="41.6316915493688" lon="19.73855974610068"><ele>317.6666666666667</ele><time>2026-05-05T08:10:33Z</time></trkpt><trkpt lat="41.63172808843917" lon="19.738641959535112"><ele>318.0</ele><time>2026-05-05T08:10:34Z</time></trkpt><trkpt lat="41.631772878044174" lon="19.738792775177043"><ele>319.8</ele><time>2026-05-05T08:10:36Z</time></trkpt><trkpt lat="41.63180596555928" lon="19.738952066852615"><ele>321.6</ele><time>2026-05-05T08:10:38Z</time></trkpt><trkpt lat="41.63178230162149" lon="19.73910693996657"><ele>323.40000000000003</ele><time>2026-05-05T08:10:40Z</time></trkpt><trkpt lat="41.63174299504228" lon="19.73918072773174"><ele>325.20000000000005</ele><time>2026-05-05T08:10:41Z</time></trkpt><trkpt lat="41.63170376144786" lon="19.739252238127637"><ele>327.0</ele><time>2026-05-05T08:10:42Z</time></trkpt><trkpt lat="41.63166908510656" lon="19.73934348473996"><ele>330.1666666666667</ele><time>2026-05-05T08:10:43Z</time></trkpt><trkpt lat="41.63164418597451" lon="19.739437830336314"><ele>333.3333333333333</ele><time>2026-05-05T08:10:44Z</time></trkpt><trkpt lat="41.63162569188666" lon="19.739541896532543"><ele>336.5</ele><time>2026-05-05T08:10:45Z</time></trkpt><trkpt lat="41.631618808492085" lon="19.739647575302765"><ele>339.66666666666663</ele><time>2026-05-05T08:10:46Z</time></trkpt><trkpt lat="41.63160153417126" lon="19.739760449908225"><ele>342.8333333333333</ele><time>2026-05-05T08:10:47Z</time></trkpt><trkpt lat="41.631587138737856" lon="19.739868064885638"><ele>346.0</ele><time>2026-05-05T08:10:48Z</time></trkpt><trkpt lat="41.63156766160796" lon="19.73997468943918"><ele>346.0</ele><time>2026-05-05T08:10:49Z</time></trkpt><trkpt lat="41.63155973770096" lon="19.74010462052851"><ele>346.0</ele><time>2026-05-05T08:10:50Z</time></trkpt><trkpt lat="41.63156451990838" lon="19.74020718609076"><ele>346.0</ele><time>2026-05-05T08:10:51Z</time></trkpt><trkpt lat="41.6315728782452" lon="19.74031147814853"><ele>346.0</ele><time>2026-05-05T08:10:52Z</time></trkpt><trkpt lat="41.6315835476091" lon="19.740434279911984"><ele>346.0</ele><time>2026-05-05T08:10:53Z</time></trkpt><trkpt lat="41.6316053669632" lon="19.740543924284687"><ele>346.0</ele><time>2026-05-05T08:10:54Z</time></trkpt><trkpt lat="41.63162947860575" lon="19.74064584145387"><ele>347.6</ele><time>2026-05-05T08:10:55Z</time></trkpt><trkpt lat="41.63169880639708" lon="19.740771697407215"><ele>349.20000000000005</ele><time>2026-05-05T08:10:57Z</time></trkpt><trkpt lat="41.631820257340166" lon="19.74080814583656"><ele>350.79999999999995</ele><time>2026-05-05T08:10:59Z</time></trkpt><trkpt lat="41.631894956133955" lon="19.740812097155843"><ele>352.4</ele><time>2026-05-05T08:11:00Z</time></trkpt><trkpt lat="41.63198834988565" lon="19.740830362543807"><ele>354.0</ele><time>2026-05-05T08:11:01Z</time></trkpt><trkpt lat="41.63204657209521" lon="19.740872193470846"><ele>354.0</ele><time>2026-05-05T08:11:02Z</time></trkpt><trkpt lat="41.632125379595635" lon="19.74094514010323"><ele>354.0</ele><time>2026-05-05T08:11:03Z</time></trkpt><trkpt lat="41.63217346951672" lon="19.741015242857983"><ele>354.0</ele><time>2026-05-05T08:11:04Z</time></trkpt><trkpt lat="41.632218860997064" lon="19.741102669003972"><ele>354.0</ele><time>2026-05-05T08:11:05Z</time></trkpt><trkpt lat="41.63226072753878" lon="19.741179697704446"><ele>354.0</ele><time>2026-05-05T08:11:06Z</time></trkpt><trkpt lat="41.63229206813025" lon="19.741262296195913"><ele>354.0</ele><time>2026-05-05T08:11:07Z</time></trkpt><trkpt lat="41.63229953693026" lon="19.741346907532773"><ele>356.5</ele><time>2026-05-05T08:11:08Z</time></trkpt><trkpt lat="41.63229832324063" lon="19.741440282715153"><ele>359.0</ele><time>2026-05-05T08:11:09Z</time></trkpt><trkpt lat="41.63228724978018" lon="19.74152956534113"><ele>361.5</ele><time>2026-05-05T08:11:10Z</time></trkpt><trkpt lat="41.632281993701305" lon="19.741642304415617"><ele>364.0</ele><time>2026-05-05T08:11:11Z</time></trkpt><trkpt lat="41.63228738616246" lon="19.741741786828396"><ele>366.5</ele><time>2026-05-05T08:11:12Z</time></trkpt><trkpt lat="41.632311899622" lon="19.741833694155034"><ele>369.0</ele><time>2026-05-05T08:11:13Z</time></trkpt><trkpt lat="41.63233382954518" lon="19.741941206294968"><ele>370.6666666666667</ele><time>2026-05-05T08:11:14Z</time></trkpt><trkpt lat="41.632349976122704" lon="19.74204163403955"><ele>372.3333333333333</ele><time>2026-05-05T08:11:15Z</time></trkpt><trkpt lat="41.63235750321315" lon="19.74212760589152"><ele>374.0</ele><time>2026-05-05T08:11:16Z</time></trkpt><trkpt lat="41.63234570814417" lon="19.742231803364504"><ele>375.66666666666663</ele><time>2026-05-05T08:11:17Z</time></trkpt><trkpt lat="41.63233649334176" lon="19.74233659795927"><ele>377.3333333333333</ele><time>2026-05-05T08:11:18Z</time></trkpt><trkpt lat="41.632332505835436" lon="19.74243409242899"><ele>379.0</ele><time>2026-05-05T08:11:19Z</time></trkpt><trkpt lat="41.6323702813185" lon="19.742595461953947"><ele>379.0</ele><time>2026-05-05T08:11:21Z</time></trkpt><trkpt lat="41.6324084560488" lon="19.742691298859146"><ele>379.0</ele><time>2026-05-05T08:11:22Z</time></trkpt><trkpt lat="41.63243023269357" lon="19.742793607585625"><ele>379.0</ele><time>2026-05-05T08:11:23Z</time></trkpt><trkpt lat="41.632456097244486" lon="19.742965208267975"><ele>379.0</ele><time>2026-05-05T08:11:25Z</time></trkpt><trkpt lat="41.63248513477228" lon="19.743129151602442"><ele>379.0</ele><time>2026-05-05T08:11:27Z</time></trkpt><trkpt lat="41.63249791293676" lon="19.743225421001725"><ele>380.5</ele><time>2026-05-05T08:11:28Z</time></trkpt><trkpt lat="41.63251672426485" lon="19.74332114872791"><ele>382.0</ele><time>2026-05-05T08:11:29Z</time></trkpt><trkpt lat="41.632546066257376" lon="19.743421077879507"><ele>383.5</ele><time>2026-05-05T08:11:30Z</time></trkpt><trkpt lat="41.632578545398985" lon="19.743518226901386"><ele>385.0</ele><time>2026-05-05T08:11:31Z</time></trkpt><trkpt lat="41.632610598157434" lon="19.743646291950842"><ele>386.50000000000006</ele><time>2026-05-05T08:11:32Z</time></trkpt><trkpt lat="41.63263310722615" lon="19.74375380722061"><ele>388.0</ele><time>2026-05-05T08:11:33Z</time></trkpt><trkpt lat="41.632655983929375" lon="19.74384894676698"><ele>390.59999999999997</ele><time>2026-05-05T08:11:34Z</time></trkpt><trkpt lat="41.63267681488723" lon="19.7439503852428"><ele>393.2</ele><time>2026-05-05T08:11:35Z</time></trkpt><trkpt lat="41.63269924866579" lon="19.744093208441566"><ele>395.8</ele><time>2026-05-05T08:11:36Z</time></trkpt><trkpt lat="41.63270526980536" lon="19.744206792575607"><ele>398.4</ele><time>2026-05-05T08:11:37Z</time></trkpt><trkpt lat="41.632715947900046" lon="19.744341832552767"><ele>401.0</ele><time>2026-05-05T08:11:38Z</time></trkpt><trkpt lat="41.63272790596794" lon="19.744462980800158"><ele>402.49999999999994</ele><time>2026-05-05T08:11:39Z</time></trkpt><trkpt lat="41.6327532364886" lon="19.74455164235766"><ele>404.0</ele><time>2026-05-05T08:11:40Z</time></trkpt><trkpt lat="41.63282978930496" lon="19.744685973979312"><ele>405.5</ele><time>2026-05-05T08:11:42Z</time></trkpt><trkpt lat="41.632889076296074" lon="19.744722221410647"><ele>407.0</ele><time>2026-05-05T08:11:43Z</time></trkpt><trkpt lat="41.63297598241886" lon="19.74474355378886"><ele>408.49999999999994</ele><time>2026-05-05T08:11:44Z</time></trkpt><trkpt lat="41.63306196693634" lon="19.744774596692075"><ele>410.0</ele><time>2026-05-05T08:11:45Z</time></trkpt><trkpt lat="41.633157277200205" lon="19.74481678538386"><ele>409.99999999999994</ele><time>2026-05-05T08:11:46Z</time></trkpt><trkpt lat="41.63324309003989" lon="19.744820428397972"><ele>410.0</ele><time>2026-05-05T08:11:47Z</time></trkpt><trkpt lat="41.63332256284008" lon="19.744798052273435"><ele>410.0</ele><time>2026-05-05T08:11:48Z</time></trkpt><trkpt lat="41.633413405250806" lon="19.744766249797678"><ele>410.0</ele><time>2026-05-05T08:11:49Z</time></trkpt><trkpt lat="41.633513500909515" lon="19.744739944784865"><ele>409.99999999999994</ele><time>2026-05-05T08:11:50Z</time></trkpt><trkpt lat="41.63359364058563" lon="19.7447360945092"><ele>410.0</ele><time>2026-05-05T08:11:51Z</time></trkpt><trkpt lat="41.63368167858166" lon="19.744731342107535"><ele>410.8333333333333</ele><time>2026-05-05T08:11:52Z</time></trkpt><trkpt lat="41.63376009266088" lon="19.744700854768684"><ele>411.66666666666663</ele><time>2026-05-05T08:11:53Z</time></trkpt><trkpt lat="41.633827141819374" lon="19.744670854670296"><ele>412.5</ele><time>2026-05-05T08:11:53.999Z</time></trkpt><trkpt lat="41.633942113523624" lon="19.744707824635643"><ele>413.33333333333337</ele><time>2026-05-05T08:11:55.999Z</time></trkpt><trkpt lat="41.63401066226097" lon="19.744764987520398"><ele>414.1666666666667</ele><time>2026-05-05T08:11:56.999Z</time></trkpt><trkpt lat="41.63408896805763" lon="19.74482671643115"><ele>415.0</ele><time>2026-05-05T08:11:57.999Z</time></trkpt><trkpt lat="41.63416846738403" lon="19.744881917115208"><ele>415.0</ele><time>2026-05-05T08:11:58.999Z</time></trkpt><trkpt lat="41.63423750787314" lon="19.744935673742965"><ele>415.0</ele><time>2026-05-05T08:11:59.999Z</time></trkpt><trkpt lat="41.63431005033759" lon="19.744972749845676"><ele>415.0</ele><time>2026-05-05T08:12:00.999Z</time></trkpt><trkpt lat="41.63438265764297" lon="19.745082617276"><ele>415.0</ele><time>2026-05-05T08:12:02.999Z</time></trkpt><trkpt lat="41.63434859952673" lon="19.745201669760576"><ele>415.0</ele><time>2026-05-05T08:12:04.999Z</time></trkpt><trkpt lat="41.63425163029644" lon="19.745300483058788"><ele>417.2857142857143</ele><time>2026-05-05T08:12:06.999Z</time></trkpt><trkpt lat="41.634184058516865" lon="19.745321650830718"><ele>419.57142857142856</ele><time>2026-05-05T08:12:07.999Z</time></trkpt><trkpt lat="41.63410322593656" lon="19.74533415848646"><ele>421.8571428571429</ele><time>2026-05-05T08:12:08.999Z</time></trkpt><trkpt lat="41.63403068648104" lon="19.745345342376886"><ele>424.1428571428571</ele><time>2026-05-05T08:12:09.999Z</time></trkpt><trkpt lat="41.633967379105655" lon="19.745369860775973"><ele>426.4285714285714</ele><time>2026-05-05T08:12:10.999Z</time></trkpt><trkpt lat="41.63389959886339" lon="19.745413820930054"><ele>428.7142857142857</ele><time>2026-05-05T08:12:11.999Z</time></trkpt><trkpt lat="41.633841051983936" lon="19.745459653686943"><ele>431.0</ele><time>2026-05-05T08:12:12.999Z</time></trkpt><trkpt lat="41.6337631022404" lon="19.745524381056267"><ele>430.99999999999994</ele><time>2026-05-05T08:12:13.999Z</time></trkpt><trkpt lat="41.633705780450654" lon="19.745581187210433"><ele>431.0</ele><time>2026-05-05T08:12:14.999Z</time></trkpt><trkpt lat="41.633628993016146" lon="19.74564884714619"><ele>431.0</ele><time>2026-05-05T08:12:15.999Z</time></trkpt><trkpt lat="41.63356751178514" lon="19.745709449316635"><ele>431.0</ele><time>2026-05-05T08:12:16.999Z</time></trkpt><trkpt lat="41.63349914066818" lon="19.745770992914377"><ele>430.99999999999994</ele><time>2026-05-05T08:12:17.999Z</time></trkpt><trkpt lat="41.633439190417185" lon="19.745839009883614"><ele>431.0</ele><time>2026-05-05T08:12:18.999Z</time></trkpt><trkpt lat="41.633387301161925" lon="19.74591173821788"><ele>430.66666666666663</ele><time>2026-05-05T08:12:19.999Z</time></trkpt><trkpt lat="41.63333574058555" lon="19.745976019713087"><ele>430.3333333333333</ele><time>2026-05-05T08:12:20.999Z</time></trkpt><trkpt lat="41.6332773026776" lon="19.746042831971906"><ele>430.0</ele><time>2026-05-05T08:12:21.999Z</time></trkpt><trkpt lat="41.63320874346357" lon="19.746122549131808"><ele>429.66666666666663</ele><time>2026-05-05T08:12:22.999Z</time></trkpt><trkpt lat="41.6331550609764" lon="19.74618294587791"><ele>429.3333333333333</ele><time>2026-05-05T08:12:23.999Z</time></trkpt><trkpt lat="41.63309626285795" lon="19.746241302989436"><ele>429.0</ele><time>2026-05-05T08:12:24.999Z</time></trkpt><trkpt lat="41.6330327663914" lon="19.74629773034589"><ele>432.8333333333333</ele><time>2026-05-05T08:12:25.999Z</time></trkpt><trkpt lat="41.63296301131175" lon="19.746346423429536"><ele>436.66666666666663</ele><time>2026-05-05T08:12:26.999Z</time></trkpt><trkpt lat="41.63289870264049" lon="19.74637777070959"><ele>440.5</ele><time>2026-05-05T08:12:27.999Z</time></trkpt><trkpt lat="41.63279664485759" lon="19.74648580569659"><ele>444.3333333333333</ele><time>2026-05-05T08:12:28.999Z</time></trkpt><trkpt lat="41.6327088387913" lon="19.746518482746314"><ele>448.16666666666663</ele><time>2026-05-05T08:12:29.999Z</time></trkpt><trkpt lat="41.6326368264468" lon="19.74654735170854"><ele>452.0</ele><time>2026-05-05T08:12:30.999Z</time></trkpt><trkpt lat="41.632563961447865" lon="19.746566794358056"><ele>452.6</ele><time>2026-05-05T08:12:31.999Z</time></trkpt><trkpt lat="41.63246024357009" lon="19.7466099599"><ele>453.20000000000005</ele><time>2026-05-05T08:12:32.999Z</time></trkpt><trkpt lat="41.63235670193737" lon="19.746610055661197"><ele>453.8</ele><time>2026-05-05T08:12:33.999Z</time></trkpt><trkpt lat="41.63226406419721" lon="19.74661533926374"><ele>454.4</ele><time>2026-05-05T08:12:34.999Z</time></trkpt><trkpt lat="41.63217163706801" lon="19.74662934940131"><ele>455.0</ele><time>2026-05-05T08:12:35.999Z</time></trkpt><trkpt lat="41.632076227055464" lon="19.746620414573016"><ele>454.99999999999994</ele><time>2026-05-05T08:12:36.999Z</time></trkpt><trkpt lat="41.63198273683653" lon="19.746602850622953"><ele>455.0</ele><time>2026-05-05T08:12:37.999Z</time></trkpt><trkpt lat="41.63187885816626" lon="19.746598628942014"><ele>455.0</ele><time>2026-05-05T08:12:39Z</time></trkpt><trkpt lat="41.63178342392002" lon="19.746613036144304"><ele>455.0</ele><time>2026-05-05T08:12:40Z</time></trkpt><trkpt lat="41.63170643432662" lon="19.74662743136894"><ele>454.99999999999994</ele><time>2026-05-05T08:12:41Z</time></trkpt><trkpt lat="41.63163202999305" lon="19.74664130465652"><ele>455.0</ele><time>2026-05-05T08:12:42Z</time></trkpt><trkpt lat="41.63154518263692" lon="19.746710417985536"><ele>455.49999999999994</ele><time>2026-05-05T08:12:44Z</time></trkpt><trkpt lat="41.631505304215764" lon="19.7468542927023"><ele>456.0</ele><time>2026-05-05T08:12:46Z</time></trkpt><trkpt lat="41.63153874933393" lon="19.747005104880813"><ele>456.5</ele><time>2026-05-05T08:12:48Z</time></trkpt><trkpt lat="41.63159363213494" lon="19.74705305584115"><ele>457.0</ele><time>2026-05-05T08:12:49Z</time></trkpt><trkpt lat="41.631660729883556" lon="19.747077571754396"><ele>457.49999999999994</ele><time>2026-05-05T08:12:50Z</time></trkpt><trkpt lat="41.63173593109847" lon="19.74709938964111"><ele>458.0</ele><time>2026-05-05T08:12:51Z</time></trkpt><trkpt lat="41.6318166435347" lon="19.747108318033746"><ele>460.8333333333333</ele><time>2026-05-05T08:12:52Z</time></trkpt><trkpt lat="41.63188698891481" lon="19.747138067596065"><ele>463.66666666666663</ele><time>2026-05-05T08:12:53Z</time></trkpt><trkpt lat="41.631957032413126" lon="19.747173952145186"><ele>466.5</ele><time>2026-05-05T08:12:54Z</time></trkpt><trkpt lat="41.632025373398186" lon="19.74722244558623"><ele>469.33333333333337</ele><time>2026-05-05T08:12:56Z</time></trkpt><trkpt lat="41.63200089963823" lon="19.747352628553678"><ele>472.1666666666667</ele><time>2026-05-05T08:12:59Z</time></trkpt><trkpt lat="41.63191478364491" lon="19.747406066798348"><ele>475.0</ele><time>2026-05-05T08:13:01Z</time></trkpt><trkpt lat="41.63189578820615" lon="19.74731997267408"><ele>475.00000000000006</ele><time>2026-05-05T08:13:14Z</time></trkpt><trkpt lat="41.63196239293574" lon="19.747326605320623"><ele>475.0</ele><time>2026-05-05T08:13:26Z</time></trkpt><trkpt lat="41.6320376057716" lon="19.747331694561392"><ele>475.0</ele><time>2026-05-05T08:13:28Z</time></trkpt><trkpt lat="41.63213279809997" lon="19.74736727566588"><ele>475.0</ele><time>2026-05-05T08:13:30Z</time></trkpt><trkpt lat="41.63220973034759" lon="19.747339335528736"><ele>475.00000000000006</ele><time>2026-05-05T08:15:14Z</time></trkpt><trkpt lat="41.632285983399406" lon="19.74740115951956"><ele>475.0</ele><time>2026-05-05T08:15:16Z</time></trkpt><trkpt lat="41.63234951209873" lon="19.747418678561232"><ele>475.0</ele><time>2026-05-05T08:15:17Z</time></trkpt><trkpt lat="41.63245671108517" lon="19.747387802555654"><ele>475.0</ele><time>2026-05-05T08:15:19Z</time></trkpt><trkpt lat="41.63255564335792" lon="19.747364817377946"><ele>475.0</ele><time>2026-05-05T08:15:21Z</time></trkpt><trkpt lat="41.632642636235424" lon="19.747412110719676"><ele>475.0</ele><time>2026-05-05T08:15:23Z</time></trkpt><trkpt lat="41.632735232812635" lon="19.747534762874842"><ele>475.0</ele><time>2026-05-05T08:15:25Z</time></trkpt><trkpt lat="41.63277937087868" lon="19.747617890950952"><ele>474.4</ele><time>2026-05-05T08:15:26Z</time></trkpt><trkpt lat="41.63282813434122" lon="19.74769454481787"><ele>473.8</ele><time>2026-05-05T08:15:27Z</time></trkpt><trkpt lat="41.632929182337705" lon="19.747803169731032"><ele>473.20000000000005</ele><time>2026-05-05T08:15:29Z</time></trkpt><trkpt lat="41.63299393622719" lon="19.747871482401393"><ele>472.6</ele><time>2026-05-05T08:15:30Z</time></trkpt><trkpt lat="41.63305249664812" lon="19.747940622465972"><ele>472.0</ele><time>2026-05-05T08:15:31Z</time></trkpt><trkpt lat="41.63312799157398" lon="19.748011215500867"><ele>475.0</ele><time>2026-05-05T08:15:32Z</time></trkpt><trkpt lat="41.63319630977104" lon="19.748049451216918"><ele>478.0</ele><time>2026-05-05T08:15:33Z</time></trkpt><trkpt lat="41.63326479351433" lon="19.748078049845347"><ele>481.0</ele><time>2026-05-05T08:15:34Z</time></trkpt><trkpt lat="41.633327217219" lon="19.74810003214734"><ele>484.0</ele><time>2026-05-05T08:15:35Z</time></trkpt><trkpt lat="41.63340053202492" lon="19.74812337055319"><ele>487.0</ele><time>2026-05-05T08:15:36Z</time></trkpt><trkpt lat="41.63347374668951" lon="19.748154189886932"><ele>490.0</ele><time>2026-05-05T08:15:37Z</time></trkpt><trkpt lat="41.633534222017126" lon="19.748209045118493"><ele>493.0</ele><time>2026-05-05T08:15:38Z</time></trkpt><trkpt lat="41.63357683820988" lon="19.74828396560753"><ele>493.0</ele><time>2026-05-05T08:15:39Z</time></trkpt><trkpt lat="41.633620907564215" lon="19.74834657502026"><ele>492.99999999999994</ele><time>2026-05-05T08:15:40Z</time></trkpt><trkpt lat="41.633726405806314" lon="19.748420151121135"><ele>492.99999999999994</ele><time>2026-05-05T08:15:42Z</time></trkpt><trkpt lat="41.63379125417482" lon="19.74842239089802"><ele>493.0</ele><time>2026-05-05T08:15:43Z</time></trkpt><trkpt lat="41.63391876633415" lon="19.748409144742187"><ele>493.0</ele><time>2026-05-05T08:15:45Z</time></trkpt><trkpt lat="41.63402163280404" lon="19.74836448862436"><ele>493.59999999999997</ele><time>2026-05-05T08:15:47Z</time></trkpt><trkpt lat="41.634113127229604" lon="19.748418551348678"><ele>494.19999999999993</ele><time>2026-05-05T08:15:49Z</time></trkpt><trkpt lat="41.63415659752866" lon="19.748484450719594"><ele>494.8</ele><time>2026-05-05T08:15:50Z</time></trkpt><trkpt lat="41.634202578117424" lon="19.748641991264577"><ele>495.4</ele><time>2026-05-05T08:15:52Z</time></trkpt><trkpt lat="41.634233783452856" lon="19.7487744587332"><ele>496.0</ele><time>2026-05-05T08:15:54Z</time></trkpt><trkpt lat="41.634299125774945" lon="19.748896027732197"><ele>499.00000000000006</ele><time>2026-05-05T08:15:56Z</time></trkpt><trkpt lat="41.63441457103286" lon="19.74893986033701"><ele>502.0</ele><time>2026-05-05T08:15:58Z</time></trkpt><trkpt lat="41.634477430376634" lon="19.748953447022597"><ele>505.0</ele><time>2026-05-05T08:15:59Z</time></trkpt><trkpt lat="41.634564565844414" lon="19.74898846373778"><ele>508.0</ele><time>2026-05-05T08:16:01Z</time></trkpt><trkpt lat="41.6346042999551" lon="19.749069005087755"><ele>511.00000000000006</ele><time>2026-05-05T08:17:35.999Z</time></trkpt><trkpt lat="41.63459032289848" lon="19.749196372998778"><ele>514.0</ele><time>2026-05-05T08:17:37.999Z</time></trkpt><trkpt lat="41.63450126000692" lon="19.74931408401683"><ele>514.0</ele><time>2026-05-05T08:17:39.999Z</time></trkpt><trkpt lat="41.63442928647363" lon="19.749373433436467"><ele>514.0</ele><time>2026-05-05T08:17:40.999Z</time></trkpt><trkpt lat="41.63434839863197" lon="19.749435068971994"><ele>514.0</ele><time>2026-05-05T08:17:41.999Z</time></trkpt><trkpt lat="41.63425984567911" lon="19.749496381805663"><ele>514.0</ele><time>2026-05-05T08:17:42.999Z</time></trkpt><trkpt lat="41.63417400288707" lon="19.749534247849116"><ele>514.0</ele><time>2026-05-05T08:17:43.999Z</time></trkpt><trkpt lat="41.6340819468059" lon="19.749554933504122"><ele>519.6</ele><time>2026-05-05T08:17:44.999Z</time></trkpt><trkpt lat="41.63398005891327" lon="19.749566284093937"><ele>525.2</ele><time>2026-05-05T08:17:45.999Z</time></trkpt><trkpt lat="41.633879502583895" lon="19.749574247200563"><ele>530.8000000000001</ele><time>2026-05-05T08:17:46.999Z</time></trkpt><trkpt lat="41.63378426614169" lon="19.749568888365783"><ele>536.4</ele><time>2026-05-05T08:17:47.999Z</time></trkpt><trkpt lat="41.633693648619044" lon="19.749532405177582"><ele>542.0</ele><time>2026-05-05T08:17:48.999Z</time></trkpt><trkpt lat="41.63360550620077" lon="19.749503431768154"><ele>542.3333333333333</ele><time>2026-05-05T08:17:49.999Z</time></trkpt><trkpt lat="41.63353197225006" lon="19.749477420669063"><ele>542.6666666666666</ele><time>2026-05-05T08:17:50.999Z</time></trkpt><trkpt lat="41.63345638085726" lon="19.74944951322593"><ele>543.0</ele><time>2026-05-05T08:17:51.999Z</time></trkpt><trkpt lat="41.6333689658861" lon="19.749421164656322"><ele>543.3333333333334</ele><time>2026-05-05T08:17:52.999Z</time></trkpt><trkpt lat="41.63328172460926" lon="19.74942704769431"><ele>543.6666666666667</ele><time>2026-05-05T08:17:53.999Z</time></trkpt><trkpt lat="41.633198005348625" lon="19.749466702814193"><ele>544.0</ele><time>2026-05-05T08:17:54.999Z</time></trkpt><trkpt lat="41.63311719107765" lon="19.749544875271802"><ele>544.0</ele><time>2026-05-05T08:17:55.999Z</time></trkpt><trkpt lat="41.63303692971451" lon="19.749623845159636"><ele>544.0</ele><time>2026-05-05T08:17:56.999Z</time></trkpt><trkpt lat="41.63297308719211" lon="19.749671590120116"><ele>544.0</ele><time>2026-05-05T08:17:57.999Z</time></trkpt><trkpt lat="41.632908202458495" lon="19.74970493161508"><ele>544.0</ele><time>2026-05-05T08:17:58.999Z</time></trkpt><trkpt lat="41.63279267329579" lon="19.74969140554087"><ele>544.0</ele><time>2026-05-05T08:18:00.999Z</time></trkpt><trkpt lat="41.63273543540241" lon="19.749628225236595"><ele>544.0</ele><time>2026-05-05T08:18:01.999Z</time></trkpt><trkpt lat="41.63265710023479" lon="19.749528379630828"><ele>545.2</ele><time>2026-05-05T08:18:03.999Z</time></trkpt><trkpt lat="41.63262222118109" lon="19.74945425025998"><ele>546.4</ele><time>2026-05-05T08:18:04.999Z</time></trkpt><trkpt lat="41.6325263266382" lon="19.749391703345115"><ele>547.6</ele><time>2026-05-05T08:18:06.999Z</time></trkpt><trkpt lat="41.63240230420443" lon="19.749419461486998"><ele>548.8</ele><time>2026-05-05T08:18:08.999Z</time></trkpt><trkpt lat="41.63232642012259" lon="19.749429213775716"><ele>550.0</ele><time>2026-05-05T08:18:09.999Z</time></trkpt><trkpt lat="41.632246703488505" lon="19.749434230529584"><ele>550.0</ele><time>2026-05-05T08:18:10.999Z</time></trkpt><trkpt lat="41.632169755397356" lon="19.749437558043134"><ele>550.0</ele><time>2026-05-05T08:18:11.999Z</time></trkpt><trkpt lat="41.63210454364627" lon="19.749451354413527"><ele>550.0</ele><time>2026-05-05T08:18:12.999Z</time></trkpt><trkpt lat="41.632030275933275" lon="19.74948408529382"><ele>550.0</ele><time>2026-05-05T08:18:13.999Z</time></trkpt><trkpt lat="41.63195154808813" lon="19.749520598535312"><ele>550.0</ele><time>2026-05-05T08:18:14.999Z</time></trkpt><trkpt lat="41.6318413831601" lon="19.74952520553318"><ele>550.0</ele><time>2026-05-05T08:18:16.999Z</time></trkpt><trkpt lat="41.63177381637449" lon="19.749587461970183"><ele>550.0</ele><time>2026-05-05T08:18:17.999Z</time></trkpt><trkpt lat="41.6317093250219" lon="19.74961846221472"><ele>550.0</ele><time>2026-05-05T08:18:18.999Z</time></trkpt><trkpt lat="41.63163724860888" lon="19.749666791812224"><ele>550.0</ele><time>2026-05-05T08:18:19.999Z</time></trkpt><trkpt lat="41.631570382946144" lon="19.749702962523354"><ele>550.0</ele><time>2026-05-05T08:18:20.999Z</time></trkpt><trkpt lat="41.63149888472186" lon="19.749775650586844"><ele>550.0</ele><time>2026-05-05T08:18:21.999Z</time></trkpt><trkpt lat="41.631434583649046" lon="19.749845563972965"><ele>550.0</ele><time>2026-05-05T08:18:22.999Z</time></trkpt><trkpt lat="41.63137142785998" lon="19.749907069236915"><ele>550.0</ele><time>2026-05-05T08:18:23.999Z</time></trkpt><trkpt lat="41.63129613344631" lon="19.749964390396773"><ele>550.0</ele><time>2026-05-05T08:18:24.999Z</time></trkpt><trkpt lat="41.63120196378511" lon="19.750010500280187"><ele>550.0</ele><time>2026-05-05T08:18:25.999Z</time></trkpt><trkpt lat="41.6311422083081" lon="19.750039719493905"><ele>550.0</ele><time>2026-05-05T08:18:26.999Z</time></trkpt><trkpt lat="41.631079268999535" lon="19.75006958823849"><ele>550.0</ele><time>2026-05-05T08:18:27.999Z</time></trkpt><trkpt lat="41.6309507817527" lon="19.75014774001205"><ele>549.0</ele><time>2026-05-05T08:18:28.999Z</time></trkpt><trkpt lat="41.63086605811267" lon="19.75018183854978"><ele>548.0</ele><time>2026-05-05T08:18:29.999Z</time></trkpt><trkpt lat="41.630784967369856" lon="19.750228784028106"><ele>547.0</ele><time>2026-05-05T08:18:30.999Z</time></trkpt><trkpt lat="41.63071207473266" lon="19.750290191701517"><ele>546.0</ele><time>2026-05-05T08:18:31.999Z</time></trkpt><trkpt lat="41.63064583100077" lon="19.750357191411332"><ele>545.0</ele><time>2026-05-05T08:18:32.999Z</time></trkpt><trkpt lat="41.6305886640726" lon="19.750432544470467"><ele>544.0</ele><time>2026-05-05T08:18:33.999Z</time></trkpt><trkpt lat="41.63053252357109" lon="19.7505056161668"><ele>547.8</ele><time>2026-05-05T08:18:34.999Z</time></trkpt><trkpt lat="41.63047681207023" lon="19.750587354143157"><ele>551.5999999999999</ele><time>2026-05-05T08:18:35.999Z</time></trkpt><trkpt lat="41.63043087840851" lon="19.75069855495452"><ele>555.4</ele><time>2026-05-05T08:18:36.999Z</time></trkpt><trkpt lat="41.63039250701453" lon="19.750822840308604"><ele>559.1999999999999</ele><time>2026-05-05T08:18:37.999Z</time></trkpt><trkpt lat="41.63036236439406" lon="19.750960606286508"><ele>563.0</ele><time>2026-05-05T08:18:38.999Z</time></trkpt><trkpt lat="41.63033260382025" lon="19.751098871044455"><ele>563.4</ele><time>2026-05-05T08:18:39.999Z</time></trkpt><trkpt lat="41.630290240316285" lon="19.751244395174545"><ele>563.8</ele><time>2026-05-05T08:18:40.999Z</time></trkpt><trkpt lat="41.63025396246416" lon="19.75136121845179"><ele>564.2</ele><time>2026-05-05T08:18:41.999Z</time></trkpt><trkpt lat="41.630200314713385" lon="19.751450683971015"><ele>564.6</ele><time>2026-05-05T08:18:42.999Z</time></trkpt><trkpt lat="41.63012645673385" lon="19.75152852267954"><ele>565.0</ele><time>2026-05-05T08:18:43.999Z</time></trkpt><trkpt lat="41.63004701980813" lon="19.751596234916864"><ele>565.0</ele><time>2026-05-05T08:18:44.999Z</time></trkpt><trkpt lat="41.629963507535386" lon="19.75167524242245"><ele>565.0</ele><time>2026-05-05T08:18:45.999Z</time></trkpt><trkpt lat="41.629881853145896" lon="19.751738265820865"><ele>565.0</ele><time>2026-05-05T08:18:46.999Z</time></trkpt><trkpt lat="41.62980747667362" lon="19.751761355805154"><ele>565.0</ele><time>2026-05-05T08:18:47.999Z</time></trkpt><trkpt lat="41.62966233056147" lon="19.75173323202825"><ele>565.0</ele><time>2026-05-05T08:18:49.999Z</time></trkpt><trkpt lat="41.629568600896384" lon="19.75171032759303"><ele>565.0</ele><time>2026-05-05T08:18:50.999Z</time></trkpt><trkpt lat="41.62947706230337" lon="19.75170904965854"><ele>565.0</ele><time>2026-05-05T08:18:51.999Z</time></trkpt><trkpt lat="41.62938305246042" lon="19.751721905910905"><ele>565.0</ele><time>2026-05-05T08:18:52.999Z</time></trkpt><trkpt lat="41.62928756526341" lon="19.751754885079485"><ele>565.0</ele><time>2026-05-05T08:18:53.999Z</time></trkpt><trkpt lat="41.62918840697987" lon="19.751765315320572"><ele>565.0</ele><time>2026-05-05T08:18:54.999Z</time></trkpt><trkpt lat="41.62908299076321" lon="19.751795209919294"><ele>565.1666666666667</ele><time>2026-05-05T08:18:55.999Z</time></trkpt><trkpt lat="41.62899806300841" lon="19.751832004822514"><ele>565.3333333333334</ele><time>2026-05-05T08:18:57Z</time></trkpt><trkpt lat="41.628935827314365" lon="19.751886044455865"><ele>565.5</ele><time>2026-05-05T08:18:58Z</time></trkpt><trkpt lat="41.62888264676304" lon="19.75196669345841"><ele>565.6666666666666</ele><time>2026-05-05T08:18:59Z</time></trkpt><trkpt lat="41.62883086652773" lon="19.752065664212633"><ele>565.8333333333333</ele><time>2026-05-05T08:19:00Z</time></trkpt><trkpt lat="41.62877745406851" lon="19.752173952099177"><ele>566.0</ele><time>2026-05-05T08:19:01Z</time></trkpt><trkpt lat="41.628712156091815" lon="19.75227509956721"><ele>568.0</ele><time>2026-05-05T08:19:02Z</time></trkpt><trkpt lat="41.628644032584305" lon="19.752380858692643"><ele>570.0</ele><time>2026-05-05T08:19:03Z</time></trkpt><trkpt lat="41.628588830098444" lon="19.75248307405207"><ele>572.0</ele><time>2026-05-05T08:19:04Z</time></trkpt><trkpt lat="41.628534106887344" lon="19.752566642960925"><ele>574.0</ele><time>2026-05-05T08:19:05Z</time></trkpt><trkpt lat="41.628461271546385" lon="19.752622996349256"><ele>576.0</ele><time>2026-05-05T08:19:06Z</time></trkpt><trkpt lat="41.628378500844484" lon="19.752664257230258"><ele>580.8</ele><time>2026-05-05T08:19:07Z</time></trkpt><trkpt lat="41.62828310598631" lon="19.75270823257589"><ele>585.6</ele><time>2026-05-05T08:19:08Z</time></trkpt><trkpt lat="41.62818031107482" lon="19.752743889245917"><ele>590.4</ele><time>2026-05-05T08:19:09Z</time></trkpt><trkpt lat="41.628074899446496" lon="19.752788848009395"><ele>595.2</ele><time>2026-05-05T08:19:10Z</time></trkpt><trkpt lat="41.62796367749962" lon="19.752839345287292"><ele>600.0</ele><time>2026-05-05T08:19:11Z</time></trkpt><trkpt lat="41.62785248747069" lon="19.75287069279346"><ele>596.75</ele><time>2026-05-05T08:19:12Z</time></trkpt><trkpt lat="41.627743220280735" lon="19.75289271358825"><ele>593.5</ele><time>2026-05-05T08:19:13Z</time></trkpt><trkpt lat="41.6276343947194" lon="19.752932102021873"><ele>590.25</ele><time>2026-05-05T08:19:14Z</time></trkpt><trkpt lat="41.62752879865677" lon="19.75299770700192"><ele>587.0</ele><time>2026-05-05T08:19:15Z</time></trkpt><trkpt lat="41.627427027334676" lon="19.753073297455234"><ele>587.0</ele><time>2026-05-05T08:19:16Z</time></trkpt><trkpt lat="41.62731829642064" lon="19.7531532911795"><ele>587.0</ele><time>2026-05-05T08:19:17Z</time></trkpt><trkpt lat="41.62722831051223" lon="19.753243658328014"><ele>587.0</ele><time>2026-05-05T08:19:18Z</time></trkpt><trkpt lat="41.627137636247824" lon="19.75334793559731"><ele>587.0</ele><time>2026-05-05T08:19:19Z</time></trkpt><trkpt lat="41.627063254564256" lon="19.75343542118771"><ele>587.0</ele><time>2026-05-05T08:19:20Z</time></trkpt><trkpt lat="41.62698127187366" lon="19.753519372413553"><ele>587.0</ele><time>2026-05-05T08:19:21Z</time></trkpt><trkpt lat="41.62689582088766" lon="19.753577118575087"><ele>587.0</ele><time>2026-05-05T08:19:22Z</time></trkpt><trkpt lat="41.626798984228" lon="19.753624540975412"><ele>587.0</ele><time>2026-05-05T08:19:23Z</time></trkpt><trkpt lat="41.626698641711855" lon="19.753650983775877"><ele>587.0</ele><time>2026-05-05T08:19:24Z</time></trkpt><trkpt lat="41.626603055787136" lon="19.753664569227436"><ele>589.0</ele><time>2026-05-05T08:19:25Z</time></trkpt><trkpt lat="41.62650748114363" lon="19.753693618574516"><ele>591.0</ele><time>2026-05-05T08:19:26Z</time></trkpt><trkpt lat="41.62643960042851" lon="19.753715904927805"><ele>593.0</ele><time>2026-05-05T08:19:27Z</time></trkpt><trkpt lat="41.62637894446948" lon="19.753742683794247"><ele>595.0</ele><time>2026-05-05T08:19:28Z</time></trkpt><trkpt lat="41.62625114994126" lon="19.753892368459518"><ele>597.0</ele><time>2026-05-05T08:19:30Z</time></trkpt><trkpt lat="41.626186864891984" lon="19.754001357878714"><ele>594.2</ele><time>2026-05-05T08:19:31Z</time></trkpt><trkpt lat="41.62611462128494" lon="19.75410331881638"><ele>591.4000000000001</ele><time>2026-05-05T08:19:32Z</time></trkpt><trkpt lat="41.62603268398981" lon="19.754181482692225"><ele>588.5999999999999</ele><time>2026-05-05T08:19:33Z</time></trkpt><trkpt lat="41.62594397081462" lon="19.754234201846494"><ele>585.8</ele><time>2026-05-05T08:19:34Z</time></trkpt><trkpt lat="41.62586155171992" lon="19.754252087367547"><ele>583.0</ele><time>2026-05-05T08:19:35Z</time></trkpt><trkpt lat="41.6257996714326" lon="19.754276160098225"><ele>583.0</ele><time>2026-05-05T08:19:36Z</time></trkpt><trkpt lat="41.62573665053093" lon="19.75430947389598"><ele>583.0</ele><time>2026-05-05T08:19:37Z</time></trkpt><trkpt lat="41.62567721422319" lon="19.75437219489486"><ele>583.0</ele><time>2026-05-05T08:19:38Z</time></trkpt><trkpt lat="41.62559936277443" lon="19.754457874465388"><ele>583.0</ele><time>2026-05-05T08:19:39Z</time></trkpt><trkpt lat="41.62552373207805" lon="19.754534410969274"><ele>583.0</ele><time>2026-05-05T08:19:40Z</time></trkpt><trkpt lat="41.6254349334696" lon="19.754602657750926"><ele>583.0</ele><time>2026-05-05T08:19:41Z</time></trkpt><trkpt lat="41.625339915340334" lon="19.754643281213916"><ele>583.8</ele><time>2026-05-05T08:19:42Z</time></trkpt><trkpt lat="41.6252412918925" lon="19.754667707462318"><ele>584.5999999999999</ele><time>2026-05-05T08:19:43Z</time></trkpt><trkpt lat="41.62515807809218" lon="19.754682813091385"><ele>585.4000000000001</ele><time>2026-05-05T08:19:44Z</time></trkpt><trkpt lat="41.625066756120205" lon="19.754709855655534"><ele>586.2</ele><time>2026-05-05T08:19:45Z</time></trkpt><trkpt lat="41.624983536341574" lon="19.754757310166106"><ele>587.0</ele><time>2026-05-05T08:19:46Z</time></trkpt><trkpt lat="41.624901523796105" lon="19.754832400195607"><ele>587.0</ele><time>2026-05-05T08:19:47Z</time></trkpt><trkpt lat="41.624823039916464" lon="19.754912057454888"><ele>587.0</ele><time>2026-05-05T08:19:48Z</time></trkpt><trkpt lat="41.62476765207031" lon="19.755006567885708"><ele>587.0</ele><time>2026-05-05T08:19:49Z</time></trkpt><trkpt lat="41.62471571804796" lon="19.755123036839322"><ele>587.0</ele><time>2026-05-05T08:19:50Z</time></trkpt><trkpt lat="41.624655742509695" lon="19.75523428869962"><ele>587.0</ele><time>2026-05-05T08:19:51Z</time></trkpt><trkpt lat="41.62458477745599" lon="19.755342503619044"><ele>587.5</ele><time>2026-05-05T08:19:51.999Z</time></trkpt><trkpt lat="41.62451778770773" lon="19.755421508665616"><ele>588.0</ele><time>2026-05-05T08:19:52.999Z</time></trkpt><trkpt lat="41.62445923282443" lon="19.755494017400036"><ele>588.5</ele><time>2026-05-05T08:19:53.999Z</time></trkpt><trkpt lat="41.624396101787056" lon="19.75555252442009"><ele>589.0</ele><time>2026-05-05T08:19:54.999Z</time></trkpt><trkpt lat="41.624329215018925" lon="19.755580850616685"><ele>589.5</ele><time>2026-05-05T08:19:55.999Z</time></trkpt><trkpt lat="41.624255418465275" lon="19.75559055025359"><ele>590.0</ele><time>2026-05-05T08:19:56.999Z</time></trkpt><trkpt lat="41.62416336528924" lon="19.75559959070574"><ele>590.0</ele><time>2026-05-05T08:19:57.999Z</time></trkpt><trkpt lat="41.624059350059575" lon="19.75563595235173"><ele>590.0</ele><time>2026-05-05T08:19:58.999Z</time></trkpt><trkpt lat="41.623953353110515" lon="19.75569811873682"><ele>590.0</ele><time>2026-05-05T08:19:59.999Z</time></trkpt><trkpt lat="41.62387018721126" lon="19.755788056172186"><ele>590.0</ele><time>2026-05-05T08:20:00.999Z</time></trkpt><trkpt lat="41.62379565926526" lon="19.75585810055897"><ele>590.0</ele><time>2026-05-05T08:20:01.999Z</time></trkpt><trkpt lat="41.62372535701775" lon="19.755880226201867"><ele>590.5</ele><time>2026-05-05T08:20:02.999Z</time></trkpt><trkpt lat="41.62363666002649" lon="19.75588825286385"><ele>591.0</ele><time>2026-05-05T08:20:03.999Z</time></trkpt><trkpt lat="41.6235488280984" lon="19.75588016611987"><ele>591.5</ele><time>2026-05-05T08:20:04.999Z</time></trkpt><trkpt lat="41.62348414415371" lon="19.755899633714073"><ele>592.0</ele><time>2026-05-05T08:20:05.999Z</time></trkpt><trkpt lat="41.623404120190784" lon="19.755961210370597"><ele>592.5</ele><time>2026-05-05T08:20:06.999Z</time></trkpt><trkpt lat="41.62332183505437" lon="19.756022927777796"><ele>593.0</ele><time>2026-05-05T08:20:07.999Z</time></trkpt><trkpt lat="41.62324596258986" lon="19.756075581443195"><ele>593.0</ele><time>2026-05-05T08:20:08.999Z</time></trkpt><trkpt lat="41.623152949191784" lon="19.756158942351913"><ele>593.0</ele><time>2026-05-05T08:20:09.999Z</time></trkpt><trkpt lat="41.6230638945774" lon="19.75626228020744"><ele>593.0</ele><time>2026-05-05T08:20:10.999Z</time></trkpt><trkpt lat="41.622951705752776" lon="19.756372801364083"><ele>593.0</ele><time>2026-05-05T08:20:11.999Z</time></trkpt><trkpt lat="41.62285820611614" lon="19.756470488242947"><ele>590.1999999999999</ele><time>2026-05-05T08:20:12.999Z</time></trkpt><trkpt lat="41.62277181913994" lon="19.75656288324932"><ele>587.4</ele><time>2026-05-05T08:20:13.999Z</time></trkpt><trkpt lat="41.62269405623251" lon="19.75665892677473"><ele>584.5999999999999</ele><time>2026-05-05T08:20:14.999Z</time></trkpt><trkpt lat="41.622611415936326" lon="19.75675301422164"><ele>581.8</ele><time>2026-05-05T08:20:15.999Z</time></trkpt><trkpt lat="41.62252389056902" lon="19.75682783484847"><ele>579.0</ele><time>2026-05-05T08:20:16.999Z</time></trkpt><trkpt lat="41.6224385064724" lon="19.75685773451613"><ele>579.0</ele><time>2026-05-05T08:20:17.999Z</time></trkpt><trkpt lat="41.62236120844901" lon="19.756856492106937"><ele>579.0</ele><time>2026-05-05T08:20:18.999Z</time></trkpt><trkpt lat="41.622272826480895" lon="19.75684432394634"><ele>579.0</ele><time>2026-05-05T08:20:19.999Z</time></trkpt><trkpt lat="41.62219020795195" lon="19.75683056869698"><ele>579.0</ele><time>2026-05-05T08:20:20.999Z</time></trkpt><trkpt lat="41.62211101720427" lon="19.75682180170784"><ele>579.0</ele><time>2026-05-05T08:20:21.999Z</time></trkpt><trkpt lat="41.62203048939683" lon="19.756835617595044"><ele>579.0</ele><time>2026-05-05T08:20:22.999Z</time></trkpt><trkpt lat="41.62194969847583" lon="19.756875441721284"><ele>581.6</ele><time>2026-05-05T08:20:23.999Z</time></trkpt><trkpt lat="41.62186133797466" lon="19.756944051594164"><ele>584.2</ele><time>2026-05-05T08:20:24.999Z</time></trkpt><trkpt lat="41.62178854446696" lon="19.757012927824682"><ele>586.8000000000001</ele><time>2026-05-05T08:20:25.999Z</time></trkpt><trkpt lat="41.62169991173266" lon="19.75709100807573"><ele>589.4</ele><time>2026-05-05T08:20:26.999Z</time></trkpt><trkpt lat="41.621620932178715" lon="19.757162391170784"><ele>592.0</ele><time>2026-05-05T08:20:27.999Z</time></trkpt><trkpt lat="41.62154330941273" lon="19.757201375325508"><ele>592.0</ele><time>2026-05-05T08:20:28.999Z</time></trkpt><trkpt lat="41.62147178430523" lon="19.757221167483657"><ele>592.0</ele><time>2026-05-05T08:20:29.999Z</time></trkpt><trkpt lat="41.621396293955804" lon="19.757241983017487"><ele>592.0</ele><time>2026-05-05T08:20:30.999Z</time></trkpt><trkpt lat="41.621298317477105" lon="19.757281670302373"><ele>592.0</ele><time>2026-05-05T08:20:31.999Z</time></trkpt><trkpt lat="41.62120177167215" lon="19.7573242300208"><ele>592.0</ele><time>2026-05-05T08:20:32.999Z</time></trkpt><trkpt lat="41.621092455338285" lon="19.757372650339978"><ele>591.2</ele><time>2026-05-05T08:20:33.999Z</time></trkpt><trkpt lat="41.62099508103912" lon="19.757416890703585"><ele>590.4000000000001</ele><time>2026-05-05T08:20:34.999Z</time></trkpt><trkpt lat="41.620907865064325" lon="19.757442354251648"><ele>589.5999999999999</ele><time>2026-05-05T08:20:35.999Z</time></trkpt><trkpt lat="41.620814516284966" lon="19.757468566050687"><ele>588.8</ele><time>2026-05-05T08:20:36.999Z</time></trkpt><trkpt lat="41.62070873183487" lon="19.757500532672047"><ele>588.0</ele><time>2026-05-05T08:20:37.999Z</time></trkpt><trkpt lat="41.620598951561824" lon="19.757556246357737"><ele>588.0</ele><time>2026-05-05T08:20:38.999Z</time></trkpt><trkpt lat="41.620517438657075" lon="19.75761362267202"><ele>588.0</ele><time>2026-05-05T08:20:39.999Z</time></trkpt><trkpt lat="41.620452820968296" lon="19.75765010252208"><ele>588.0</ele><time>2026-05-05T08:20:40.999Z</time></trkpt><trkpt lat="41.62037506388753" lon="19.757684586739398"><ele>588.0</ele><time>2026-05-05T08:20:41.999Z</time></trkpt><trkpt lat="41.62031163739713" lon="19.75771024366308"><ele>588.0</ele><time>2026-05-05T08:20:42.999Z</time></trkpt><trkpt lat="41.62024833389811" lon="19.75773183592318"><ele>588.0</ele><time>2026-05-05T08:20:43.999Z</time></trkpt><trkpt lat="41.620161177298705" lon="19.75776736583822"><ele>591.0</ele><time>2026-05-05T08:20:44.999Z</time></trkpt><trkpt lat="41.62007666203944" lon="19.75781755294636"><ele>594.0</ele><time>2026-05-05T08:20:45.999Z</time></trkpt><trkpt lat="41.61999991300615" lon="19.757879332988658"><ele>597.0</ele><time>2026-05-05T08:20:46.999Z</time></trkpt><trkpt lat="41.61991871249503" lon="19.757957536821745"><ele>600.0</ele><time>2026-05-05T08:20:47.999Z</time></trkpt><trkpt lat="41.61984050041105" lon="19.758046119803794"><ele>603.0</ele><time>2026-05-05T08:20:48.999Z</time></trkpt><trkpt lat="41.61976243794799" lon="19.758125202744026"><ele>603.0</ele><time>2026-05-05T08:20:49.999Z</time></trkpt><trkpt lat="41.61967766139634" lon="19.758157632785895"><ele>603.0</ele><time>2026-05-05T08:20:50.999Z</time></trkpt><trkpt lat="41.61957469230141" lon="19.758184264180116"><ele>603.0</ele><time>2026-05-05T08:20:51.999Z</time></trkpt><trkpt lat="41.61946953737619" lon="19.758202456941792"><ele>603.0</ele><time>2026-05-05T08:20:52.999Z</time></trkpt><trkpt lat="41.619369442419874" lon="19.75820133790892"><ele>603.0</ele><time>2026-05-05T08:20:53.999Z</time></trkpt><trkpt lat="41.61926493212794" lon="19.758189517911692"><ele>602.0</ele><time>2026-05-05T08:20:54.999Z</time></trkpt><trkpt lat="41.61916216799209" lon="19.758152536982557"><ele>601.0</ele><time>2026-05-05T08:20:55.999Z</time></trkpt><trkpt lat="41.61906392577694" lon="19.758106162690638"><ele>600.0</ele><time>2026-05-05T08:20:56.999Z</time></trkpt><trkpt lat="41.618965325958776" lon="19.758088036155605"><ele>599.0</ele><time>2026-05-05T08:20:57.999Z</time></trkpt><trkpt lat="41.618871219955516" lon="19.75808068108733"><ele>598.0</ele><time>2026-05-05T08:20:58.999Z</time></trkpt><trkpt lat="41.61879073088845" lon="19.758081860753915"><ele>598.0</ele><time>2026-05-05T08:20:59.999Z</time></trkpt><trkpt lat="41.61871993466619" lon="19.758100475647844"><ele>598.0</ele><time>2026-05-05T08:21:00.999Z</time></trkpt><trkpt lat="41.61863790802024" lon="19.758118579718595"><ele>598.0</ele><time>2026-05-05T08:21:01.999Z</time></trkpt><trkpt lat="41.61855287874589" lon="19.758144957845328"><ele>598.0</ele><time>2026-05-05T08:21:03Z</time></trkpt><trkpt lat="41.618462068989466" lon="19.758203959130615"><ele>598.0</ele><time>2026-05-05T08:21:04Z</time></trkpt><trkpt lat="41.6183816129413" lon="19.75826672187351"><ele>598.0</ele><time>2026-05-05T08:21:05Z</time></trkpt><trkpt lat="41.618285361269415" lon="19.758336409454607"><ele>596.4</ele><time>2026-05-05T08:21:06Z</time></trkpt><trkpt lat="41.6181914806028" lon="19.758402855570274"><ele>594.8</ele><time>2026-05-05T08:21:07Z</time></trkpt><trkpt lat="41.61812058037389" lon="19.758452161035333"><ele>593.2</ele><time>2026-05-05T08:21:08Z</time></trkpt><trkpt lat="41.61803460535936" lon="19.75849860092476"><ele>591.6</ele><time>2026-05-05T08:21:09Z</time></trkpt><trkpt lat="41.61794847917749" lon="19.758540239985198"><ele>590.0</ele><time>2026-05-05T08:21:10Z</time></trkpt><trkpt lat="41.61784163375349" lon="19.758607509606502"><ele>593.1666666666666</ele><time>2026-05-05T08:21:11Z</time></trkpt><trkpt lat="41.61774482370131" lon="19.758672073820946"><ele>596.3333333333333</ele><time>2026-05-05T08:21:12Z</time></trkpt><trkpt lat="41.61765374319156" lon="19.758713995948312"><ele>599.5</ele><time>2026-05-05T08:21:13Z</time></trkpt><trkpt lat="41.61756176648347" lon="19.758752137285487"><ele>602.6666666666666</ele><time>2026-05-05T08:21:14Z</time></trkpt><trkpt lat="41.61750066381717" lon="19.75877781511359"><ele>605.8333333333334</ele><time>2026-05-05T08:21:15Z</time></trkpt><trkpt lat="41.61744027282085" lon="19.758815414714952"><ele>609.0</ele><time>2026-05-05T08:21:16Z</time></trkpt><trkpt lat="41.6173637741263" lon="19.75896606087003"><ele>609.0</ele><time>2026-05-05T08:21:18Z</time></trkpt><trkpt lat="41.617307613847025" lon="19.759053731385404"><ele>609.0</ele><time>2026-05-05T08:21:19Z</time></trkpt><trkpt lat="41.617234013853995" lon="19.759140415690112"><ele>609.0</ele><time>2026-05-05T08:21:20Z</time></trkpt><trkpt lat="41.61714946929563" lon="19.759221234212745"><ele>609.0</ele><time>2026-05-05T08:21:21Z</time></trkpt><trkpt lat="41.61706782845586" lon="19.759252116222562"><ele>609.0</ele><time>2026-05-05T08:21:22Z</time></trkpt><trkpt lat="41.6169862665331" lon="19.75926883244269"><ele>609.1666666666666</ele><time>2026-05-05T08:21:23Z</time></trkpt><trkpt lat="41.61689106537729" lon="19.759264886539917"><ele>609.3333333333334</ele><time>2026-05-05T08:21:24Z</time></trkpt><trkpt lat="41.616804982054674" lon="19.759242497215418"><ele>609.5</ele><time>2026-05-05T08:21:25Z</time></trkpt><trkpt lat="41.616726270867986" lon="19.759209377516125"><ele>609.6666666666667</ele><time>2026-05-05T08:21:26Z</time></trkpt><trkpt lat="41.61664071725005" lon="19.759140526632773"><ele>609.8333333333334</ele><time>2026-05-05T08:21:27Z</time></trkpt><trkpt lat="41.616572157845944" lon="19.759084952624143"><ele>610.0</ele><time>2026-05-05T08:21:28Z</time></trkpt><trkpt lat="41.616498811340925" lon="19.759043219831042"><ele>610.0</ele><time>2026-05-05T08:21:29Z</time></trkpt><trkpt lat="41.61642965666486" lon="19.75902714803339"><ele>610.0</ele><time>2026-05-05T08:21:30Z</time></trkpt><trkpt lat="41.61630234120674" lon="19.759071939254085"><ele>610.0</ele><time>2026-05-05T08:21:32Z</time></trkpt><trkpt lat="41.61623394569505" lon="19.75913579253907"><ele>610.0</ele><time>2026-05-05T08:21:33Z</time></trkpt><trkpt lat="41.61616174497928" lon="19.75920606331192"><ele>610.0</ele><time>2026-05-05T08:21:34Z</time></trkpt><trkpt lat="41.61609486358243" lon="19.759279013050975"><ele>609.2</ele><time>2026-05-05T08:21:35Z</time></trkpt><trkpt lat="41.61600544844978" lon="19.7593598038933"><ele>608.4</ele><time>2026-05-05T08:21:36Z</time></trkpt><trkpt lat="41.615917359585445" lon="19.7594405350026"><ele>607.6</ele><time>2026-05-05T08:21:37Z</time></trkpt><trkpt lat="41.61582932314622" lon="19.759507041975144"><ele>606.8</ele><time>2026-05-05T08:21:38Z</time></trkpt><trkpt lat="41.615735507978506" lon="19.759590290989767"><ele>606.0</ele><time>2026-05-05T08:21:39Z</time></trkpt><trkpt lat="41.615648814166484" lon="19.75967100512716"><ele>608.2</ele><time>2026-05-05T08:21:40Z</time></trkpt><trkpt lat="41.61556522930864" lon="19.759725003429384"><ele>610.4000000000001</ele><time>2026-05-05T08:21:41Z</time></trkpt><trkpt lat="41.615484615323524" lon="19.75975514047173"><ele>612.6</ele><time>2026-05-05T08:21:42Z</time></trkpt><trkpt lat="41.615371792061204" lon="19.759789776663137"><ele>614.8000000000001</ele><time>2026-05-05T08:21:43Z</time></trkpt><trkpt lat="41.61526519728868" lon="19.759811495451256"><ele>617.0</ele><time>2026-05-05T08:21:44Z</time></trkpt><trkpt lat="41.61514653595106" lon="19.75981808155853"><ele>617.0</ele><time>2026-05-05T08:21:45Z</time></trkpt><trkpt lat="41.61505126168592" lon="19.759810155152238"><ele>617.0</ele><time>2026-05-05T08:21:46Z</time></trkpt><trkpt lat="41.61494225676816" lon="19.75980772736562"><ele>617.0</ele><time>2026-05-05T08:21:47Z</time></trkpt><trkpt lat="41.61486291037452" lon="19.759828095332686"><ele>617.0</ele><time>2026-05-05T08:21:48Z</time></trkpt><trkpt lat="41.614780276613736" lon="19.759875333337416"><ele>617.0</ele><time>2026-05-05T08:21:49Z</time></trkpt><trkpt lat="41.614692739307515" lon="19.759949544639266"><ele>617.0</ele><time>2026-05-05T08:21:50Z</time></trkpt><trkpt lat="41.61461251942553" lon="19.760012286394755"><ele>617.0</ele><time>2026-05-05T08:21:51Z</time></trkpt><trkpt lat="41.61455357306824" lon="19.76006270156249"><ele>617.0</ele><time>2026-05-05T08:21:52Z</time></trkpt><trkpt lat="41.61447744605275" lon="19.760135979530833"><ele>617.0</ele><time>2026-05-05T08:21:53Z</time></trkpt><trkpt lat="41.614395860950786" lon="19.760225851269027"><ele>617.0</ele><time>2026-05-05T08:21:54Z</time></trkpt><trkpt lat="41.61431900056102" lon="19.76029900075126"><ele>618.8333333333333</ele><time>2026-05-05T08:21:55Z</time></trkpt><trkpt lat="41.61422969490519" lon="19.76034466976649"><ele>620.6666666666666</ele><time>2026-05-05T08:21:56Z</time></trkpt><trkpt lat="41.61413603973612" lon="19.7603792484548"><ele>622.5</ele><time>2026-05-05T08:21:57Z</time></trkpt><trkpt lat="41.61405045001714" lon="19.760400619329936"><ele>624.3333333333334</ele><time>2026-05-05T08:21:58Z</time></trkpt><trkpt lat="41.61396687144315" lon="19.760416559568586"><ele>626.1666666666667</ele><time>2026-05-05T08:21:59Z</time></trkpt><trkpt lat="41.613894545717166" lon="19.76047557307348"><ele>628.0</ele><time>2026-05-05T08:22:00Z</time></trkpt><trkpt lat="41.61383513854103" lon="19.76053866159482"><ele>628.0</ele><time>2026-05-05T08:22:01Z</time></trkpt><trkpt lat="41.61377267053626" lon="19.76061359874072"><ele>628.0</ele><time>2026-05-05T08:22:02Z</time></trkpt><trkpt lat="41.6137090429143" lon="19.760675532128264"><ele>628.0</ele><time>2026-05-05T08:22:03Z</time></trkpt><trkpt lat="41.61360411152203" lon="19.760744714927537"><ele>628.0</ele><time>2026-05-05T08:22:05Z</time></trkpt><trkpt lat="41.613534996782334" lon="19.760747553696234"><ele>628.0</ele><time>2026-05-05T08:22:06Z</time></trkpt><trkpt lat="41.61344784484569" lon="19.7607621777041"><ele>628.0</ele><time>2026-05-05T08:22:07Z</time></trkpt><trkpt lat="41.613358595667364" lon="19.760785392161825"><ele>625.6</ele><time>2026-05-05T08:22:08Z</time></trkpt><trkpt lat="41.6132831575858" lon="19.76080318134137"><ele>623.1999999999999</ele><time>2026-05-05T08:22:09Z</time></trkpt><trkpt lat="41.61317475109723" lon="19.760830477397505"><ele>620.8</ele><time>2026-05-05T08:22:10Z</time></trkpt><trkpt lat="41.61308271555804" lon="19.760856714978207"><ele>618.4</ele><time>2026-05-05T08:22:11Z</time></trkpt><trkpt lat="41.6129805185353" lon="19.760870760523428"><ele>616.0</ele><time>2026-05-05T08:22:12Z</time></trkpt><trkpt lat="41.61288657561501" lon="19.760892610716574"><ele>614.6</ele><time>2026-05-05T08:22:13Z</time></trkpt><trkpt lat="41.612778619834" lon="19.76091840077991"><ele>613.2</ele><time>2026-05-05T08:22:14Z</time></trkpt><trkpt lat="41.61268065507304" lon="19.760944213087765"><ele>611.8</ele><time>2026-05-05T08:22:15Z</time></trkpt><trkpt lat="41.612569489284624" lon="19.760955983786978"><ele>610.4</ele><time>2026-05-05T08:22:16Z</time></trkpt><trkpt lat="41.612480090253456" lon="19.760970492452323"><ele>609.0</ele><time>2026-05-05T08:22:17Z</time></trkpt><trkpt lat="41.61237514924985" lon="19.76099168491423"><ele>609.0</ele><time>2026-05-05T08:22:18Z</time></trkpt><trkpt lat="41.612291555288905" lon="19.76101855753323"><ele>609.0</ele><time>2026-05-05T08:22:19Z</time></trkpt><trkpt lat="41.61221838947909" lon="19.76104400302724"><ele>609.0</ele><time>2026-05-05T08:22:20Z</time></trkpt><trkpt lat="41.612124967078664" lon="19.76109541123381"><ele>609.0</ele><time>2026-05-05T08:22:21Z</time></trkpt><trkpt lat="41.61204096477704" lon="19.76116308336866"><ele>609.0</ele><time>2026-05-05T08:22:22Z</time></trkpt><trkpt lat="41.611948935587414" lon="19.76121572581466"><ele>611.0</ele><time>2026-05-05T08:22:23Z</time></trkpt><trkpt lat="41.611852389851116" lon="19.76125080453761"><ele>613.0</ele><time>2026-05-05T08:22:24Z</time></trkpt><trkpt lat="41.611753491339016" lon="19.76126676857016"><ele>615.0</ele><time>2026-05-05T08:22:25Z</time></trkpt><trkpt lat="41.61167996301817" lon="19.76127040204792"><ele>617.0</ele><time>2026-05-05T08:22:26Z</time></trkpt><trkpt lat="41.61161018478479" lon="19.76128930581286"><ele>619.0</ele><time>2026-05-05T08:22:27Z</time></trkpt><trkpt lat="41.61152345238438" lon="19.761338266004657"><ele>621.0</ele><time>2026-05-05T08:22:27.999Z</time></trkpt><trkpt lat="41.611441762227464" lon="19.76139031050153"><ele>621.0</ele><time>2026-05-05T08:22:28.999Z</time></trkpt><trkpt lat="41.61135648153178" lon="19.761450039603297"><ele>621.0</ele><time>2026-05-05T08:22:29.999Z</time></trkpt><trkpt lat="41.61127777747754" lon="19.761506760811166"><ele>621.0</ele><time>2026-05-05T08:22:30.999Z</time></trkpt><trkpt lat="41.61118203365613" lon="19.761548878941603"><ele>621.0</ele><time>2026-05-05T08:22:31.999Z</time></trkpt><trkpt lat="41.61109697574026" lon="19.76158091589047"><ele>621.0</ele><time>2026-05-05T08:22:32.999Z</time></trkpt><trkpt lat="41.61102226890279" lon="19.761583572759047"><ele>619.0</ele><time>2026-05-05T08:22:33.999Z</time></trkpt><trkpt lat="41.61096271763837" lon="19.7615443304044"><ele>617.0</ele><time>2026-05-05T08:22:34.999Z</time></trkpt><trkpt lat="41.61089354404212" lon="19.76150517702792"><ele>615.0</ele><time>2026-05-05T08:22:35.999Z</time></trkpt><trkpt lat="41.61079598401676" lon="19.761478817719208"><ele>613.0</ele><time>2026-05-05T08:22:36.999Z</time></trkpt><trkpt lat="41.61072230395199" lon="19.76146969388382"><ele>611.0</ele><time>2026-05-05T08:22:37.999Z</time></trkpt><trkpt lat="41.61064758352829" lon="19.76147555684864"><ele>609.0</ele><time>2026-05-05T08:22:38.999Z</time></trkpt><trkpt lat="41.61054967551201" lon="19.761490907785902"><ele>609.0</ele><time>2026-05-05T08:22:39.999Z</time></trkpt><trkpt lat="41.610459534217" lon="19.761506519267837"><ele>609.0</ele><time>2026-05-05T08:22:40.999Z</time></trkpt><trkpt lat="41.61035389900564" lon="19.761523636677765"><ele>609.0</ele><time>2026-05-05T08:22:41.999Z</time></trkpt><trkpt lat="41.61024969117626" lon="19.76151884588758"><ele>609.0</ele><time>2026-05-05T08:22:42.999Z</time></trkpt><trkpt lat="41.61016746762378" lon="19.7615305809129"><ele>609.0</ele><time>2026-05-05T08:22:43.999Z</time></trkpt><trkpt lat="41.6100658145115" lon="19.761560981716062"><ele>607.2</ele><time>2026-05-05T08:22:44.999Z</time></trkpt><trkpt lat="41.60995370369752" lon="19.761592848855525"><ele>605.4</ele><time>2026-05-05T08:22:45.999Z</time></trkpt><trkpt lat="41.60984113051" lon="19.761618520625046"><ele>603.6</ele><time>2026-05-05T08:22:46.999Z</time></trkpt><trkpt lat="41.60973032006042" lon="19.761629353344315"><ele>601.8</ele><time>2026-05-05T08:22:47.999Z</time></trkpt><trkpt lat="41.60964865773754" lon="19.761631808459068"><ele>600.0</ele><time>2026-05-05T08:22:48.999Z</time></trkpt><trkpt lat="41.60957188620011" lon="19.76162462837201"><ele>600.0</ele><time>2026-05-05T08:22:49.999Z</time></trkpt><trkpt lat="41.609497989907126" lon="19.761622846989464"><ele>600.0</ele><time>2026-05-05T08:22:50.999Z</time></trkpt><trkpt lat="41.609431210538375" lon="19.761648765535544"><ele>600.0</ele><time>2026-05-05T08:22:51.999Z</time></trkpt><trkpt lat="41.60934276229537" lon="19.761801461458113"><ele>600.0</ele><time>2026-05-05T08:22:53.999Z</time></trkpt><trkpt lat="41.60927113249741" lon="19.761918956076013"><ele>600.0</ele><time>2026-05-05T08:22:54.999Z</time></trkpt><trkpt lat="41.60919871017176" lon="19.762015616941444"><ele>602.6</ele><time>2026-05-05T08:22:55.999Z</time></trkpt><trkpt lat="41.60912170185712" lon="19.76206743917099"><ele>605.2</ele><time>2026-05-05T08:22:56.999Z</time></trkpt><trkpt lat="41.6090533899353" lon="19.76207804851114"><ele>607.8</ele><time>2026-05-05T08:22:57.999Z</time></trkpt><trkpt lat="41.60896436861882" lon="19.76211668656316"><ele>610.4</ele><time>2026-05-05T08:22:58.999Z</time></trkpt><trkpt lat="41.60886629622929" lon="19.76217694283331"><ele>613.0</ele><time>2026-05-05T08:22:59.999Z</time></trkpt><trkpt lat="41.6087698888212" lon="19.762244681164677"><ele>613.0</ele><time>2026-05-05T08:23:00.999Z</time></trkpt><trkpt lat="41.60867704851666" lon="19.76229302299419"><ele>613.0</ele><time>2026-05-05T08:23:01.999Z</time></trkpt><trkpt lat="41.60857838667136" lon="19.762337499571515"><ele>613.0</ele><time>2026-05-05T08:23:02.999Z</time></trkpt><trkpt lat="41.60849373748398" lon="19.762397571786202"><ele>613.0</ele><time>2026-05-05T08:23:03.999Z</time></trkpt><trkpt lat="41.60840399902914" lon="19.762471178382498"><ele>613.0</ele><time>2026-05-05T08:23:04.999Z</time></trkpt><trkpt lat="41.60833656043076" lon="19.762529108370877"><ele>611.0</ele><time>2026-05-05T08:23:05.999Z</time></trkpt><trkpt lat="41.60825118470399" lon="19.76256978892374"><ele>609.0</ele><time>2026-05-05T08:23:06.999Z</time></trkpt><trkpt lat="41.60812639962019" lon="19.762596890268846"><ele>607.0</ele><time>2026-05-05T08:23:09Z</time></trkpt><trkpt lat="41.60806235863046" lon="19.76262306461997"><ele>605.0</ele><time>2026-05-05T08:23:10Z</time></trkpt><trkpt lat="41.60798739857474" lon="19.762626751652853"><ele>603.0</ele><time>2026-05-05T08:23:11Z</time></trkpt><trkpt lat="41.607894932673524" lon="19.762611971926997"><ele>602.5</ele><time>2026-05-05T08:23:12Z</time></trkpt><trkpt lat="41.60779797108441" lon="19.76260543275977"><ele>602.0</ele><time>2026-05-05T08:23:13Z</time></trkpt><trkpt lat="41.60770736725162" lon="19.762620742096924"><ele>601.5</ele><time>2026-05-05T08:23:15Z</time></trkpt><trkpt lat="41.60763740506436" lon="19.762628097078288"><ele>601.0</ele><time>2026-05-05T08:23:16Z</time></trkpt><trkpt lat="41.60754528554152" lon="19.762660988099398"><ele>600.5</ele><time>2026-05-05T08:23:17Z</time></trkpt><trkpt lat="41.6074879506923" lon="19.762716837046067"><ele>600.0</ele><time>2026-05-05T08:23:18Z</time></trkpt><trkpt lat="41.607414746682544" lon="19.762802090418337"><ele>606.0</ele><time>2026-05-05T08:23:19Z</time></trkpt><trkpt lat="41.60734775149124" lon="19.762858716396067"><ele>612.0</ele><time>2026-05-05T08:23:20Z</time></trkpt><trkpt lat="41.607264424225775" lon="19.762908057510344"><ele>618.0</ele><time>2026-05-05T08:23:21Z</time></trkpt><trkpt lat="41.6071750506126" lon="19.762955796922874"><ele>624.0</ele><time>2026-05-05T08:23:22Z</time></trkpt><trkpt lat="41.60710429814754" lon="19.763018461108626"><ele>630.0</ele><time>2026-05-05T08:23:23Z</time></trkpt><trkpt lat="41.60703261397164" lon="19.76312459346996"><ele>628.4</ele><time>2026-05-05T08:23:24Z</time></trkpt><trkpt lat="41.606967959455034" lon="19.763211920878735"><ele>626.8</ele><time>2026-05-05T08:23:25Z</time></trkpt><trkpt lat="41.606905711506" lon="19.763307744778146"><ele>625.2</ele><time>2026-05-05T08:23:26Z</time></trkpt><trkpt lat="41.606839942025225" lon="19.763404502958355"><ele>623.6</ele><time>2026-05-05T08:23:27Z</time></trkpt><trkpt lat="41.60677024653065" lon="19.763498736180477"><ele>622.0</ele><time>2026-05-05T08:23:28Z</time></trkpt><trkpt lat="41.60670986595999" lon="19.763556103463372"><ele>625.1666666666667</ele><time>2026-05-05T08:23:29Z</time></trkpt><trkpt lat="41.606649007331775" lon="19.763591744838177"><ele>628.3333333333334</ele><time>2026-05-05T08:23:30Z</time></trkpt><trkpt lat="41.60655859027325" lon="19.763638884588644"><ele>631.5</ele><time>2026-05-05T08:23:31Z</time></trkpt><trkpt lat="41.60648361537307" lon="19.763679737196046"><ele>634.6666666666666</ele><time>2026-05-05T08:23:32Z</time></trkpt><trkpt lat="41.60639784729873" lon="19.763713118760567"><ele>637.8333333333333</ele><time>2026-05-05T08:23:33Z</time></trkpt><trkpt lat="41.60631288256089" lon="19.76373277933512"><ele>641.0</ele><time>2026-05-05T08:23:34Z</time></trkpt><trkpt lat="41.60622594997237" lon="19.763741826594813"><ele>638.75</ele><time>2026-05-05T08:23:36Z</time></trkpt><trkpt lat="41.606066849685405" lon="19.76376932161281"><ele>636.5</ele><time>2026-05-05T08:23:38Z</time></trkpt><trkpt lat="41.605972567549514" lon="19.76379927550342"><ele>634.25</ele><time>2026-05-05T08:23:39Z</time></trkpt><trkpt lat="41.605882780793955" lon="19.763840442712784"><ele>632.0</ele><time>2026-05-05T08:23:40Z</time></trkpt><trkpt lat="41.60575743270869" lon="19.763894409622722"><ele>632.0</ele><time>2026-05-05T08:23:41Z</time></trkpt><trkpt lat="41.60565043404035" lon="19.763945890058913"><ele>632.0</ele><time>2026-05-05T08:23:42Z</time></trkpt><trkpt lat="41.60558756421684" lon="19.763977135662884"><ele>632.0</ele><time>2026-05-05T08:23:43Z</time></trkpt><trkpt lat="41.60547960555064" lon="19.76399158279152"><ele>632.0</ele><time>2026-05-05T08:23:46Z</time></trkpt><trkpt lat="41.60540407322852" lon="19.763929024402245"><ele>632.0</ele><time>2026-05-05T08:23:48Z</time></trkpt><trkpt lat="41.60535276780826" lon="19.763871655718624"><ele>632.0</ele><time>2026-05-05T08:23:51Z</time></trkpt><trkpt lat="41.60532302058037" lon="19.76395406023531"><ele>632.0</ele><time>2026-05-05T08:25:07.999Z</time></trkpt><trkpt lat="41.605368796233044" lon="19.76405244293473"><ele>632.0</ele><time>2026-05-05T08:25:09.999Z</time></trkpt><trkpt lat="41.605397899641304" lon="19.764190146114682"><ele>632.0</ele><time>2026-05-05T08:25:11.999Z</time></trkpt><trkpt lat="41.60535311126808" lon="19.764288900660926"><ele>632.0</ele><time>2026-05-05T08:25:13.999Z</time></trkpt><trkpt lat="41.60529862277399" lon="19.764348252838012"><ele>632.0</ele><time>2026-05-05T08:25:15.001Z</time></trkpt><trkpt lat="41.60522906707396" lon="19.764419823059832"><ele>632.0</ele><time>2026-05-05T08:25:16.001Z</time></trkpt><trkpt lat="41.60514875504787" lon="19.764498639375244"><ele>634.0</ele><time>2026-05-05T08:25:17.001Z</time></trkpt><trkpt lat="41.60506345528248" lon="19.764569829928302"><ele>636.0</ele><time>2026-05-05T08:25:18.001Z</time></trkpt><trkpt lat="41.60497194155789" lon="19.764642993760543"><ele>638.0</ele><time>2026-05-05T08:25:19.001Z</time></trkpt><trkpt lat="41.604880304540124" lon="19.764702039899316"><ele>640.0</ele><time>2026-05-05T08:25:20.001Z</time></trkpt><trkpt lat="41.60480324643573" lon="19.76475521112839"><ele>642.0</ele><time>2026-05-05T08:25:21.001Z</time></trkpt><trkpt lat="41.60472694617644" lon="19.764822545836495"><ele>642.0</ele><time>2026-05-05T08:25:22.001Z</time></trkpt><trkpt lat="41.60464909402055" lon="19.76488237107952"><ele>642.0</ele><time>2026-05-05T08:25:23.001Z</time></trkpt><trkpt lat="41.604569540820954" lon="19.76495718869695"><ele>642.0</ele><time>2026-05-05T08:25:24.001Z</time></trkpt><trkpt lat="41.60450242529744" lon="19.765044175624837"><ele>642.0</ele><time>2026-05-05T08:25:25.001Z</time></trkpt><trkpt lat="41.604407214616934" lon="19.765103872082342"><ele>642.0</ele><time>2026-05-05T08:25:26.001Z</time></trkpt><trkpt lat="41.6043141714569" lon="19.76515625950077"><ele>640.4</ele><time>2026-05-05T08:25:27Z</time></trkpt><trkpt lat="41.60422006975791" lon="19.765185382975663"><ele>638.8000000000001</ele><time>2026-05-05T08:25:28Z</time></trkpt><trkpt lat="41.60412205217844" lon="19.76521709483306"><ele>637.2</ele><time>2026-05-05T08:25:29Z</time></trkpt><trkpt lat="41.6040140659449" lon="19.765234543267084"><ele>635.6</ele><time>2026-05-05T08:25:30Z</time></trkpt><trkpt lat="41.603911666102576" lon="19.76523110192555"><ele>634.0</ele><time>2026-05-05T08:25:31Z</time></trkpt><trkpt lat="41.60381770721769" lon="19.765214385831673"><ele>634.0</ele><time>2026-05-05T08:25:31.999Z</time></trkpt><trkpt lat="41.60372912987773" lon="19.765186335552936"><ele>634.0</ele><time>2026-05-05T08:25:32.999Z</time></trkpt><trkpt lat="41.60364237998121" lon="19.76516010995221"><ele>634.0</ele><time>2026-05-05T08:25:33.999Z</time></trkpt><trkpt lat="41.60355449298078" lon="19.76516063726348"><ele>634.0</ele><time>2026-05-05T08:25:34.999Z</time></trkpt><trkpt lat="41.60345867069233" lon="19.76517898773407"><ele>634.0</ele><time>2026-05-05T08:25:35.999Z</time></trkpt><trkpt lat="41.60335120308439" lon="19.76519724255319"><ele>637.6666666666667</ele><time>2026-05-05T08:25:36.999Z</time></trkpt><trkpt lat="41.60325674627893" lon="19.765224664413985"><ele>641.3333333333334</ele><time>2026-05-05T08:25:37.999Z</time></trkpt><trkpt lat="41.603187408208136" lon="19.765242268220955"><ele>645.0</ele><time>2026-05-05T08:25:38.999Z</time></trkpt><trkpt lat="41.60313026344761" lon="19.765288527986247"><ele>648.6666666666666</ele><time>2026-05-05T08:25:39.999Z</time></trkpt><trkpt lat="41.60305683465667" lon="19.76531470891444"><ele>652.3333333333333</ele><time>2026-05-05T08:25:40.999Z</time></trkpt><trkpt lat="41.60298703856105" lon="19.765343773339747"><ele>656.0</ele><time>2026-05-05T08:25:41.999Z</time></trkpt><trkpt lat="41.60291197904086" lon="19.765387496490412"><ele>654.5</ele><time>2026-05-05T08:25:42.999Z</time></trkpt><trkpt lat="41.602830426008865" lon="19.765460815064852"><ele>653.0</ele><time>2026-05-05T08:25:44.999Z</time></trkpt><trkpt lat="41.60277867198753" lon="19.765510260752936"><ele>651.5</ele><time>2026-05-05T08:25:47.999Z</time></trkpt><trkpt lat="41.60273930321917" lon="19.765578825793437"><ele>650.0</ele><time>2026-05-05T08:26:17.999Z</time></trkpt><trkpt lat="41.60270911826515" lon="19.76566387022645"><ele>648.5</ele><time>2026-05-05T08:26:18.999Z</time></trkpt><trkpt lat="41.602599412337995" lon="19.765782202186116"><ele>647.0</ele><time>2026-05-05T08:26:20.999Z</time></trkpt><trkpt lat="41.6025135962799" lon="19.765845643927655"><ele>647.0</ele><time>2026-05-05T08:26:21.999Z</time></trkpt><trkpt lat="41.60241731137157" lon="19.765894056695767"><ele>647.0</ele><time>2026-05-05T08:26:22.999Z</time></trkpt><trkpt lat="41.602324141445074" lon="19.765944655075234"><ele>647.0</ele><time>2026-05-05T08:26:23.999Z</time></trkpt><trkpt lat="41.6022271469626" lon="19.76599716282106"><ele>647.0</ele><time>2026-05-05T08:26:24.999Z</time></trkpt><trkpt lat="41.60213431816936" lon="19.766047407067422"><ele>647.0</ele><time>2026-05-05T08:26:25.999Z</time></trkpt><trkpt lat="41.60203401615669" lon="19.766094493851543"><ele>647.4000000000001</ele><time>2026-05-05T08:26:26.999Z</time></trkpt><trkpt lat="41.60194286936895" lon="19.766142291025208"><ele>647.8000000000001</ele><time>2026-05-05T08:26:27.999Z</time></trkpt><trkpt lat="41.60185615502374" lon="19.766188720181535"><ele>648.2</ele><time>2026-05-05T08:26:28.999Z</time></trkpt><trkpt lat="41.601772520785886" lon="19.766247800794506"><ele>648.6</ele><time>2026-05-05T08:26:29.999Z</time></trkpt><trkpt lat="41.60169142390646" lon="19.766315264540278"><ele>649.0</ele><time>2026-05-05T08:26:30.999Z</time></trkpt><trkpt lat="41.60159507220421" lon="19.766377662807525"><ele>649.0</ele><time>2026-05-05T08:26:31.999Z</time></trkpt><trkpt lat="41.60151499745626" lon="19.766446983769153"><ele>649.0</ele><time>2026-05-05T08:26:32.999Z</time></trkpt><trkpt lat="41.60141642751318" lon="19.766525478176042"><ele>649.0</ele><time>2026-05-05T08:26:33.999Z</time></trkpt><trkpt lat="41.601316648063495" lon="19.76659051230735"><ele>649.0</ele><time>2026-05-05T08:26:34.999Z</time></trkpt><trkpt lat="41.601234728214386" lon="19.766637992602554"><ele>649.0</ele><time>2026-05-05T08:26:35.999Z</time></trkpt><trkpt lat="41.6011503630498" lon="19.766682751903183"><ele>647.2</ele><time>2026-05-05T08:26:36.999Z</time></trkpt><trkpt lat="41.60106180374484" lon="19.766736439070144"><ele>645.4000000000001</ele><time>2026-05-05T08:26:37.999Z</time></trkpt><trkpt lat="41.60096413308462" lon="19.766775286827315"><ele>643.6</ele><time>2026-05-05T08:26:38.999Z</time></trkpt><trkpt lat="41.60086770284451" lon="19.76679675146314"><ele>641.8</ele><time>2026-05-05T08:26:39.999Z</time></trkpt><trkpt lat="41.60076685989908" lon="19.76680129353176"><ele>640.0</ele><time>2026-05-05T08:26:40.999Z</time></trkpt><trkpt lat="41.60066683720024" lon="19.766785085171712"><ele>640.0</ele><time>2026-05-05T08:26:41.999Z</time></trkpt><trkpt lat="41.60059008021424" lon="19.766760917813013"><ele>640.0</ele><time>2026-05-05T08:26:42.999Z</time></trkpt><trkpt lat="41.600525864534724" lon="19.76676525672093"><ele>640.0</ele><time>2026-05-05T08:26:43.999Z</time></trkpt><trkpt lat="41.600420226103694" lon="19.766878245663435"><ele>640.0</ele><time>2026-05-05T08:26:45.999Z</time></trkpt><trkpt lat="41.60035575030983" lon="19.766996104958917"><ele>640.0</ele><time>2026-05-05T08:26:46.999Z</time></trkpt><trkpt lat="41.600280442501266" lon="19.767098444897144"><ele>640.75</ele><time>2026-05-05T08:26:47.999Z</time></trkpt><trkpt lat="41.60017867403773" lon="19.767196481682262"><ele>641.5</ele><time>2026-05-05T08:26:48.999Z</time></trkpt><trkpt lat="41.60006854722041" lon="19.767264629485943"><ele>642.25</ele><time>2026-05-05T08:26:49.999Z</time></trkpt><trkpt lat="41.59995820949389" lon="19.767319930065735"><ele>643.0</ele><time>2026-05-05T08:26:50.999Z</time></trkpt><trkpt lat="41.59984512508724" lon="19.767373313325475"><ele>643.0</ele><time>2026-05-05T08:26:51.999Z</time></trkpt><trkpt lat="41.59974053513132" lon="19.767414915938513"><ele>643.0</ele><time>2026-05-05T08:26:52.999Z</time></trkpt><trkpt lat="41.599640766378656" lon="19.767448738028623"><ele>643.0</ele><time>2026-05-05T08:26:53.999Z</time></trkpt><trkpt lat="41.59953757724088" lon="19.767492452453006"><ele>643.0</ele><time>2026-05-05T08:26:54.999Z</time></trkpt><trkpt lat="41.59942445373681" lon="19.76753749558064"><ele>643.0</ele><time>2026-05-05T08:26:55.999Z</time></trkpt><trkpt lat="41.5993163265141" lon="19.767595199560482"><ele>641.1999999999999</ele><time>2026-05-05T08:26:56.999Z</time></trkpt><trkpt lat="41.59921269824953" lon="19.767658711869018"><ele>639.4</ele><time>2026-05-05T08:26:57.999Z</time></trkpt><trkpt lat="41.599123570678344" lon="19.76772324944432"><ele>637.5999999999999</ele><time>2026-05-05T08:26:58.999Z</time></trkpt><trkpt lat="41.59902538567267" lon="19.767787693722298"><ele>635.8</ele><time>2026-05-05T08:26:59.999Z</time></trkpt><trkpt lat="41.59893789503008" lon="19.76785438424768"><ele>634.0</ele><time>2026-05-05T08:27:00.999Z</time></trkpt><trkpt lat="41.59885106998715" lon="19.76792340956602"><ele>636.2</ele><time>2026-05-05T08:27:01.999Z</time></trkpt><trkpt lat="41.59876283225055" lon="19.767985906675772"><ele>638.4</ele><time>2026-05-05T08:27:02.999Z</time></trkpt><trkpt lat="41.59869092476204" lon="19.768044690764516"><ele>640.6</ele><time>2026-05-05T08:27:03.999Z</time></trkpt><trkpt lat="41.59863090041579" lon="19.768120741383314"><ele>642.8</ele><time>2026-05-05T08:27:04.999Z</time></trkpt><trkpt lat="41.59857803126345" lon="19.768217036416395"><ele>645.0</ele><time>2026-05-05T08:27:05.999Z</time></trkpt><trkpt lat="41.5985093241394" lon="19.768319408435936"><ele>645.0</ele><time>2026-05-05T08:27:06.999Z</time></trkpt><trkpt lat="41.598431744114244" lon="19.768419144404408"><ele>645.0</ele><time>2026-05-05T08:27:07.999Z</time></trkpt><trkpt lat="41.5983489675546" lon="19.76851249211331"><ele>645.0</ele><time>2026-05-05T08:27:08.999Z</time></trkpt><trkpt lat="41.59826950961195" lon="19.76858170799889"><ele>645.0</ele><time>2026-05-05T08:27:09.999Z</time></trkpt><trkpt lat="41.59818655556543" lon="19.768629752001413"><ele>645.0</ele><time>2026-05-05T08:27:10.999Z</time></trkpt><trkpt lat="41.59809861611227" lon="19.768658244378486"><ele>646.4</ele><time>2026-05-05T08:27:11.999Z</time></trkpt><trkpt lat="41.59801932991622" lon="19.76869625189644"><ele>647.8</ele><time>2026-05-05T08:27:12.999Z</time></trkpt><trkpt lat="41.5979353017545" lon="19.768734529357953"><ele>649.2</ele><time>2026-05-05T08:27:13.999Z</time></trkpt><trkpt lat="41.597852845874236" lon="19.768775743592748"><ele>650.6</ele><time>2026-05-05T08:27:14.999Z</time></trkpt><trkpt lat="41.59776276509386" lon="19.768815486491025"><ele>652.0</ele><time>2026-05-05T08:27:15.999Z</time></trkpt><trkpt lat="41.59766441972778" lon="19.76886765927315"><ele>652.0</ele><time>2026-05-05T08:27:16.999Z</time></trkpt><trkpt lat="41.59756106483672" lon="19.768913783591053"><ele>652.0</ele><time>2026-05-05T08:27:17.999Z</time></trkpt><trkpt lat="41.59745642066105" lon="19.76896821933174"><ele>652.0</ele><time>2026-05-05T08:27:18.999Z</time></trkpt><trkpt lat="41.597358903491084" lon="19.769031679067346"><ele>652.0</ele><time>2026-05-05T08:27:19.999Z</time></trkpt><trkpt lat="41.59725256027963" lon="19.76909807536028"><ele>652.0</ele><time>2026-05-05T08:27:21Z</time></trkpt><trkpt lat="41.59715850021189" lon="19.769165774473105"><ele>652.0</ele><time>2026-05-05T08:27:22Z</time></trkpt><trkpt lat="41.59707204276481" lon="19.76923318751947"><ele>652.0</ele><time>2026-05-05T08:27:23Z</time></trkpt><trkpt lat="41.59699051377267" lon="19.76930137242298"><ele>652.0</ele><time>2026-05-05T08:27:24Z</time></trkpt><trkpt lat="41.59691721168067" lon="19.769362133285718"><ele>652.0</ele><time>2026-05-05T08:27:25Z</time></trkpt><trkpt lat="41.596845345098835" lon="19.769415355236433"><ele>652.0</ele><time>2026-05-05T08:27:26Z</time></trkpt><trkpt lat="41.596765606599895" lon="19.76946625956868"><ele>652.1666666666667</ele><time>2026-05-05T08:27:27Z</time></trkpt><trkpt lat="41.596687431840515" lon="19.76950584421124"><ele>652.3333333333334</ele><time>2026-05-05T08:27:28Z</time></trkpt><trkpt lat="41.596616679009884" lon="19.769516776749757"><ele>652.5</ele><time>2026-05-05T08:27:29Z</time></trkpt><trkpt lat="41.59654350137093" lon="19.769527157650877"><ele>652.6666666666666</ele><time>2026-05-05T08:27:30Z</time></trkpt><trkpt lat="41.5964618705665" lon="19.76953002140831"><ele>652.8333333333333</ele><time>2026-05-05T08:27:31Z</time></trkpt><trkpt lat="41.59637082360059" lon="19.76953707697472"><ele>653.0</ele><time>2026-05-05T08:27:32Z</time></trkpt><trkpt lat="41.59628724044213" lon="19.769553161713954"><ele>653.0</ele><time>2026-05-05T08:27:33Z</time></trkpt><trkpt lat="41.59619069332947" lon="19.769596662655253"><ele>653.0</ele><time>2026-05-05T08:27:34Z</time></trkpt><trkpt lat="41.59610463448059" lon="19.769650626309826"><ele>653.0</ele><time>2026-05-05T08:27:35Z</time></trkpt><trkpt lat="41.59604477462699" lon="19.76969445937439"><ele>653.0</ele><time>2026-05-05T08:27:36Z</time></trkpt><trkpt lat="41.59598611029857" lon="19.769748266702845"><ele>653.0</ele><time>2026-05-05T08:27:37Z</time></trkpt><trkpt lat="41.59588081234531" lon="19.769816609094335"><ele>652.4</ele><time>2026-05-05T08:27:39Z</time></trkpt><trkpt lat="41.59576181707067" lon="19.769881328298883"><ele>651.8</ele><time>2026-05-05T08:27:41Z</time></trkpt><trkpt lat="41.595654310446136" lon="19.769949565641483"><ele>651.2</ele><time>2026-05-05T08:27:43Z</time></trkpt><trkpt lat="41.595585013485255" lon="19.76997501314309"><ele>650.6</ele><time>2026-05-05T08:27:44Z</time></trkpt><trkpt lat="41.59550280435897" lon="19.769985383417136"><ele>650.0</ele><time>2026-05-05T08:27:45Z</time></trkpt><trkpt lat="41.59542812141868" lon="19.769974074658542"><ele>650.0</ele><time>2026-05-05T08:27:46Z</time></trkpt><trkpt lat="41.59534480608757" lon="19.769962755746285"><ele>650.0</ele><time>2026-05-05T08:27:47Z</time></trkpt><trkpt lat="41.59527831506875" lon="19.769965946523936"><ele>650.0</ele><time>2026-05-05T08:27:48Z</time></trkpt><trkpt lat="41.595206220234395" lon="19.76996736567804"><ele>650.0</ele><time>2026-05-05T08:27:49Z</time></trkpt><trkpt lat="41.59508233723531" lon="19.769973620749468"><ele>650.0</ele><time>2026-05-05T08:27:51Z</time></trkpt><trkpt lat="41.594977538954915" lon="19.769991330672212"><ele>649.8</ele><time>2026-05-05T08:27:53Z</time></trkpt><trkpt lat="41.594886121919856" lon="19.770039053966478"><ele>649.6</ele><time>2026-05-05T08:27:55Z</time></trkpt><trkpt lat="41.59482246180143" lon="19.770099450656726"><ele>649.4000000000001</ele><time>2026-05-05T08:27:56Z</time></trkpt><trkpt lat="41.594738422011" lon="19.770147588108625"><ele>649.2</ele><time>2026-05-05T08:27:57Z</time></trkpt><trkpt lat="41.594644110736525" lon="19.770188767630422"><ele>649.0</ele><time>2026-05-05T08:27:58Z</time></trkpt><trkpt lat="41.59454404165798" lon="19.77022511091047"><ele>650.4000000000001</ele><time>2026-05-05T08:27:59Z</time></trkpt><trkpt lat="41.594449691388846" lon="19.77026806987339"><ele>651.8</ele><time>2026-05-05T08:28:00Z</time></trkpt><trkpt lat="41.59434528074302" lon="19.770311839794964"><ele>653.2</ele><time>2026-05-05T08:28:01Z</time></trkpt><trkpt lat="41.59425425417703" lon="19.770343684738936"><ele>654.5999999999999</ele><time>2026-05-05T08:28:02Z</time></trkpt><trkpt lat="41.59416681248138" lon="19.770379965000185"><ele>656.0</ele><time>2026-05-05T08:28:03Z</time></trkpt><trkpt lat="41.59409166378819" lon="19.77041607759441"><ele>656.0</ele><time>2026-05-05T08:28:04Z</time></trkpt><trkpt lat="41.594015760563124" lon="19.77045343347771"><ele>656.0</ele><time>2026-05-05T08:28:05Z</time></trkpt><trkpt lat="41.593926698804715" lon="19.770506958709156"><ele>656.0</ele><time>2026-05-05T08:28:06Z</time></trkpt><trkpt lat="41.59382937706344" lon="19.770562517055673"><ele>656.0</ele><time>2026-05-05T08:28:07Z</time></trkpt><trkpt lat="41.5937376469933" lon="19.77059934899866"><ele>656.0</ele><time>2026-05-05T08:28:08Z</time></trkpt><trkpt lat="41.59363047287299" lon="19.77062965040806"><ele>653.1999999999999</ele><time>2026-05-05T08:28:09Z</time></trkpt><trkpt lat="41.593531843083014" lon="19.770625112184952"><ele>650.4</ele><time>2026-05-05T08:28:10Z</time></trkpt><trkpt lat="41.593445221828134" lon="19.77057653662261"><ele>647.6</ele><time>2026-05-05T08:28:11Z</time></trkpt><trkpt lat="41.59337314977303" lon="19.770549620449355"><ele>644.8</ele><time>2026-05-05T08:28:12Z</time></trkpt><trkpt lat="41.593285151473786" lon="19.7705603265248"><ele>642.0</ele><time>2026-05-05T08:28:13Z</time></trkpt><trkpt lat="41.59318928070506" lon="19.770563354600938"><ele>642.0</ele><time>2026-05-05T08:28:14Z</time></trkpt><trkpt lat="41.59310397290389" lon="19.770546952693962"><ele>642.0</ele><time>2026-05-05T08:28:14.999Z</time></trkpt><trkpt lat="41.5930211094992" lon="19.770539616660276"><ele>642.0</ele><time>2026-05-05T08:28:15.999Z</time></trkpt><trkpt lat="41.59294831551927" lon="19.770529286691733"><ele>642.0</ele><time>2026-05-05T08:28:16.999Z</time></trkpt><trkpt lat="41.592870246297785" lon="19.77053600957847"><ele>642.0</ele><time>2026-05-05T08:28:17.999Z</time></trkpt><trkpt lat="41.59278154866786" lon="19.770571808634173"><ele>642.0</ele><time>2026-05-05T08:28:18.999Z</time></trkpt><trkpt lat="41.59270745275632" lon="19.770610653031277"><ele>641.0</ele><time>2026-05-05T08:28:19.999Z</time></trkpt><trkpt lat="41.59260579032165" lon="19.770634316640297"><ele>640.0</ele><time>2026-05-05T08:28:20.999Z</time></trkpt><trkpt lat="41.592534987098" lon="19.77064974078018"><ele>639.0</ele><time>2026-05-05T08:28:21.999Z</time></trkpt><trkpt lat="41.59246613719637" lon="19.770694381081498"><ele>638.0</ele><time>2026-05-05T08:28:22.999Z</time></trkpt><trkpt lat="41.59241975498754" lon="19.77075137089101"><ele>637.0</ele><time>2026-05-05T08:28:23.999Z</time></trkpt><trkpt lat="41.59236982536099" lon="19.770825798185584"><ele>636.0</ele><time>2026-05-05T08:28:25.999Z</time></trkpt><trkpt lat="41.592307354543735" lon="19.77092607999677"><ele>636.0</ele><time>2026-05-05T08:28:27.999Z</time></trkpt><trkpt lat="41.592269428731484" lon="19.77099557111927"><ele>636.0</ele><time>2026-05-05T08:28:29.999Z</time></trkpt><trkpt lat="41.59217651178779" lon="19.77104094149875"><ele>636.0</ele><time>2026-05-05T08:28:36.999Z</time></trkpt><trkpt lat="41.592087001690444" lon="19.77106771474738"><ele>636.0</ele><time>2026-05-05T08:28:37.999Z</time></trkpt><trkpt lat="41.59201018287941" lon="19.77109279164417"><ele>636.0</ele><time>2026-05-05T08:28:38.999Z</time></trkpt><trkpt lat="41.59193037075029" lon="19.77118910486955"><ele>636.0</ele><time>2026-05-05T08:28:40.999Z</time></trkpt><trkpt lat="41.59189159328938" lon="19.771274387401405"><ele>636.8</ele><time>2026-05-05T08:28:41.999Z</time></trkpt><trkpt lat="41.59185456817691" lon="19.771374832450114"><ele>637.6</ele><time>2026-05-05T08:28:42.999Z</time></trkpt><trkpt lat="41.591844194478924" lon="19.771503899201697"><ele>638.4</ele><time>2026-05-05T08:28:43.999Z</time></trkpt><trkpt lat="41.59184946560265" lon="19.77162459363236"><ele>639.2</ele><time>2026-05-05T08:28:44.999Z</time></trkpt><trkpt lat="41.5918304586596" lon="19.771758977529256"><ele>640.0</ele><time>2026-05-05T08:28:46.999Z</time></trkpt><trkpt lat="41.59173273443928" lon="19.77179601307458"><ele>640.0</ele><time>2026-05-05T08:28:49.999Z</time></trkpt><trkpt lat="41.59167234618341" lon="19.771832726648455"><ele>640.0</ele><time>2026-05-05T08:28:50.999Z</time></trkpt><trkpt lat="41.59159401197355" lon="19.771870274162065"><ele>640.0</ele><time>2026-05-05T08:28:51.999Z</time></trkpt><trkpt lat="41.59152220650078" lon="19.771916333694943"><ele>640.0</ele><time>2026-05-05T08:28:52.999Z</time></trkpt><trkpt lat="41.591450837349" lon="19.77195141535427"><ele>640.0</ele><time>2026-05-05T08:28:53.999Z</time></trkpt><trkpt lat="41.59135688405503" lon="19.77198978800608"><ele>640.0</ele><time>2026-05-05T08:28:54.999Z</time></trkpt><trkpt lat="41.59126493405134" lon="19.772028736404124"><ele>642.5</ele><time>2026-05-05T08:28:55.999Z</time></trkpt><trkpt lat="41.59117608239617" lon="19.772085198874763"><ele>645.0</ele><time>2026-05-05T08:28:56.999Z</time></trkpt><trkpt lat="41.591089015905176" lon="19.772144611286944"><ele>647.5</ele><time>2026-05-05T08:28:57.999Z</time></trkpt><trkpt lat="41.59101919414028" lon="19.77219913346415"><ele>650.0</ele><time>2026-05-05T08:28:58.999Z</time></trkpt><trkpt lat="41.590957380611165" lon="19.772257590109913"><ele>652.5</ele><time>2026-05-05T08:28:59.999Z</time></trkpt><trkpt lat="41.590893057530636" lon="19.772303005370606"><ele>655.0</ele><time>2026-05-05T08:29:00.999Z</time></trkpt><trkpt lat="41.590830090875805" lon="19.772334393830704"><ele>655.0</ele><time>2026-05-05T08:29:01.999Z</time></trkpt><trkpt lat="41.59075681873641" lon="19.772349357387405"><ele>655.0</ele><time>2026-05-05T08:29:02.999Z</time></trkpt><trkpt lat="41.59068712433368" lon="19.77234881122861"><ele>655.0</ele><time>2026-05-05T08:29:03.999Z</time></trkpt><trkpt lat="41.59062388239399" lon="19.772342838903104"><ele>655.0</ele><time>2026-05-05T08:29:04.999Z</time></trkpt><trkpt lat="41.59051604026381" lon="19.772275624727136"><ele>655.0</ele><time>2026-05-05T08:29:06.999Z</time></trkpt><trkpt lat="41.590446079723804" lon="19.772255887744013"><ele>655.0</ele><time>2026-05-05T08:29:07.999Z</time></trkpt><trkpt lat="41.590375082512374" lon="19.77226672540493"><ele>655.8333333333334</ele><time>2026-05-05T08:29:08.999Z</time></trkpt><trkpt lat="41.59030433166579" lon="19.772280047439587"><ele>656.6666666666667</ele><time>2026-05-05T08:29:09.999Z</time></trkpt><trkpt lat="41.59023779270992" lon="19.77230485248996"><ele>657.5</ele><time>2026-05-05T08:29:10.999Z</time></trkpt><trkpt lat="41.59013159756629" lon="19.772391645598347"><ele>658.3333333333334</ele><time>2026-05-05T08:29:12.999Z</time></trkpt><trkpt lat="41.59006956831978" lon="19.772412372168894"><ele>659.1666666666666</ele><time>2026-05-05T08:29:13.999Z</time></trkpt><trkpt lat="41.59000782709367" lon="19.772441987544603"><ele>660.0</ele><time>2026-05-05T08:29:14.999Z</time></trkpt><trkpt lat="41.58993924611265" lon="19.77248303974222"><ele>660.0</ele><time>2026-05-05T08:29:15.999Z</time></trkpt><trkpt lat="41.58986839345883" lon="19.772529677898564"><ele>660.0</ele><time>2026-05-05T08:29:16.999Z</time></trkpt><trkpt lat="41.589807056870626" lon="19.772580300692134"><ele>660.0</ele><time>2026-05-05T08:29:17.999Z</time></trkpt><trkpt lat="41.58973721051464" lon="19.77262402398655"><ele>660.0</ele><time>2026-05-05T08:29:18.999Z</time></trkpt><trkpt lat="41.58967196644878" lon="19.772678315138748"><ele>660.0</ele><time>2026-05-05T08:29:19.999Z</time></trkpt><trkpt lat="41.58961305602168" lon="19.772736262392364"><ele>660.0</ele><time>2026-05-05T08:29:20.999Z</time></trkpt><trkpt lat="41.58955236177345" lon="19.772801960065227"><ele>662.2857142857143</ele><time>2026-05-05T08:29:21.999Z</time></trkpt><trkpt lat="41.589481390147874" lon="19.77286019184385"><ele>664.5714285714286</ele><time>2026-05-05T08:29:22.999Z</time></trkpt><trkpt lat="41.589411070746394" lon="19.77291832895844"><ele>666.8571428571429</ele><time>2026-05-05T08:29:23.999Z</time></trkpt><trkpt lat="41.589346401840245" lon="19.77296182690925"><ele>669.1428571428571</ele><time>2026-05-05T08:29:24.999Z</time></trkpt><trkpt lat="41.58928560393858" lon="19.773002526870652"><ele>671.4285714285714</ele><time>2026-05-05T08:29:25.999Z</time></trkpt><trkpt lat="41.589227962953835" lon="19.773051269030695"><ele>673.7142857142858</ele><time>2026-05-05T08:29:27Z</time></trkpt><trkpt lat="41.58917289496042" lon="19.77310115426845"><ele>676.0</ele><time>2026-05-05T08:29:28Z</time></trkpt><trkpt lat="41.58911466710727" lon="19.773143383763024"><ele>676.0</ele><time>2026-05-05T08:29:29Z</time></trkpt><trkpt lat="41.589055668679144" lon="19.773176700368197"><ele>676.0</ele><time>2026-05-05T08:29:30Z</time></trkpt><trkpt lat="41.588989090214255" lon="19.773217878475954"><ele>676.0</ele><time>2026-05-05T08:29:31Z</time></trkpt><trkpt lat="41.58891421509773" lon="19.773264546039254"><ele>676.0</ele><time>2026-05-05T08:29:32Z</time></trkpt><trkpt lat="41.58884159768267" lon="19.77331170312131"><ele>676.0</ele><time>2026-05-05T08:29:33Z</time></trkpt><trkpt lat="41.588777319387376" lon="19.77335342890938"><ele>676.0</ele><time>2026-05-05T08:29:34Z</time></trkpt><trkpt lat="41.58871764338698" lon="19.7733945400774"><ele>676.0</ele><time>2026-05-05T08:29:35Z</time></trkpt><trkpt lat="41.58865085553917" lon="19.773426554761553"><ele>674.5999999999999</ele><time>2026-05-05T08:29:36Z</time></trkpt><trkpt lat="41.58858202260479" lon="19.773450500582637"><ele>673.2</ele><time>2026-05-05T08:29:37Z</time></trkpt><trkpt lat="41.588478424773996" lon="19.77348966961238"><ele>671.8</ele><time>2026-05-05T08:29:39Z</time></trkpt><trkpt lat="41.588380649049476" lon="19.773571399797554"><ele>670.4000000000001</ele><time>2026-05-05T08:29:41Z</time></trkpt><trkpt lat="41.588329832045744" lon="19.77363682371661"><ele>669.0</ele><time>2026-05-05T08:29:42Z</time></trkpt><trkpt lat="41.588217344567255" lon="19.77371918621866"><ele>672.6</ele><time>2026-05-05T08:29:44Z</time></trkpt><trkpt lat="41.58810926316642" lon="19.77377779701325"><ele>676.2</ele><time>2026-05-05T08:29:46Z</time></trkpt><trkpt lat="41.588002611201546" lon="19.773872218983005"><ele>679.8000000000001</ele><time>2026-05-05T08:29:48Z</time></trkpt><trkpt lat="41.58795194944243" lon="19.77392273039388"><ele>683.4000000000001</ele><time>2026-05-05T08:29:49Z</time></trkpt><trkpt lat="41.58785405847176" lon="19.774037948036025"><ele>687.0</ele><time>2026-05-05T08:29:51Z</time></trkpt><trkpt lat="41.58780539618344" lon="19.774094932966943"><ele>687.0</ele><time>2026-05-05T08:29:52Z</time></trkpt><trkpt lat="41.587740487588746" lon="19.774174610070354"><ele>687.0</ele><time>2026-05-05T08:29:54Z</time></trkpt><trkpt lat="41.5876688877706" lon="19.774213653181096"><ele>687.0</ele><time>2026-05-05T08:29:57Z</time></trkpt><trkpt lat="41.587596733188235" lon="19.774244428765183"><ele>687.0</ele><time>2026-05-05T08:30:05Z</time></trkpt><trkpt lat="41.5875239855401" lon="19.77421868865957"><ele>687.0</ele><time>2026-05-05T08:30:07Z</time></trkpt><trkpt lat="41.58742124936241" lon="19.774210996159344"><ele>687.0</ele><time>2026-05-05T08:30:09Z</time></trkpt><trkpt lat="41.58733176414628" lon="19.774201023402167"><ele>687.0</ele><time>2026-05-05T08:30:11Z</time></trkpt><trkpt lat="41.58723331517648" lon="19.77420908726974"><ele>687.0</ele><time>2026-05-05T08:30:13Z</time></trkpt><trkpt lat="41.58712565489441" lon="19.7742165940547"><ele>687.0</ele><time>2026-05-05T08:30:15Z</time></trkpt><trkpt lat="41.58700405701896" lon="19.77421897344999"><ele>687.0</ele><time>2026-05-05T08:30:17Z</time></trkpt><trkpt lat="41.586900452973545" lon="19.774234420594343"><ele>687.0</ele><time>2026-05-05T08:30:19Z</time></trkpt><trkpt lat="41.58681535187891" lon="19.774272061618507"><ele>687.4000000000001</ele><time>2026-05-05T08:30:21Z</time></trkpt><trkpt lat="41.58671961720172" lon="19.774317853476308"><ele>687.8000000000001</ele><time>2026-05-05T08:30:23Z</time></trkpt><trkpt lat="41.58661377129019" lon="19.774395404564487"><ele>688.2</ele><time>2026-05-05T08:30:25Z</time></trkpt><trkpt lat="41.586521435973516" lon="19.77446687316625"><ele>688.6</ele><time>2026-05-05T08:30:27Z</time></trkpt><trkpt lat="41.58642257350709" lon="19.77449650059068"><ele>689.0</ele><time>2026-05-05T08:30:29Z</time></trkpt><trkpt lat="41.58630893302487" lon="19.774495830757196"><ele>693.8000000000001</ele><time>2026-05-05T08:30:31Z</time></trkpt><trkpt lat="41.58619402484606" lon="19.774469859925492"><ele>698.6</ele><time>2026-05-05T08:30:33Z</time></trkpt><trkpt lat="41.58608569501748" lon="19.774440873077538"><ele>703.4</ele><time>2026-05-05T08:30:35Z</time></trkpt><trkpt lat="41.585969031867855" lon="19.774425015513174"><ele>708.2</ele><time>2026-05-05T08:30:37Z</time></trkpt><trkpt lat="41.585896893210254" lon="19.774437070380642"><ele>713.0</ele><time>2026-05-05T08:30:38Z</time></trkpt><trkpt lat="41.585829868524264" lon="19.77444777102937"><ele>713.0</ele><time>2026-05-05T08:30:39Z</time></trkpt><trkpt lat="41.585693256474755" lon="19.774453523440325"><ele>713.0</ele><time>2026-05-05T08:30:41Z</time></trkpt><trkpt lat="41.58559732405924" lon="19.774441587120783"><ele>713.0</ele><time>2026-05-05T08:30:42Z</time></trkpt><trkpt lat="41.58553281016374" lon="19.774430312501696"><ele>713.0</ele><time>2026-05-05T08:30:43Z</time></trkpt><trkpt lat="41.58546026053133" lon="19.774431722515683"><ele>713.0</ele><time>2026-05-05T08:30:44Z</time></trkpt><trkpt lat="41.585394561643454" lon="19.77443446785595"><ele>713.0</ele><time>2026-05-05T08:30:45Z</time></trkpt><trkpt lat="41.58526352966194" lon="19.774456328353565"><ele>713.3333333333333</ele><time>2026-05-05T08:30:47Z</time></trkpt><trkpt lat="41.58519951598258" lon="19.774478086240077"><ele>713.6666666666666</ele><time>2026-05-05T08:30:48Z</time></trkpt><trkpt lat="41.585134113393984" lon="19.77450991766267"><ele>714.0</ele><time>2026-05-05T08:30:49Z</time></trkpt><trkpt lat="41.58504442431335" lon="19.774586978190886"><ele>714.3333333333334</ele><time>2026-05-05T08:30:51Z</time></trkpt><trkpt lat="41.58498785382715" lon="19.774631823822777"><ele>714.6666666666667</ele><time>2026-05-05T08:30:52Z</time></trkpt><trkpt lat="41.58492309573263" lon="19.774722213382482"><ele>715.0</ele><time>2026-05-05T08:30:54Z</time></trkpt><trkpt lat="41.58483696138789" lon="19.77482460202904"><ele>715.0</ele><time>2026-05-05T08:30:56Z</time></trkpt><trkpt lat="41.58473399753036" lon="19.774901188396534"><ele>715.0</ele><time>2026-05-05T08:30:58Z</time></trkpt><trkpt lat="41.584666700574104" lon="19.77494837239865"><ele>715.0</ele><time>2026-05-05T08:30:59Z</time></trkpt><trkpt lat="41.58457544487643" lon="19.77497709319634"><ele>715.0</ele><time>2026-05-05T08:31:00.999Z</time></trkpt><trkpt lat="41.584513830403765" lon="19.77500511724618"><ele>715.0</ele><time>2026-05-05T08:31:01.999Z</time></trkpt><trkpt lat="41.58444865672074" lon="19.775035767653947"><ele>715.0</ele><time>2026-05-05T08:31:02.999Z</time></trkpt><trkpt lat="41.58438118292632" lon="19.775060936819653"><ele>714.6666666666667</ele><time>2026-05-05T08:31:03.999Z</time></trkpt><trkpt lat="41.58432140403517" lon="19.775093198235034"><ele>714.3333333333334</ele><time>2026-05-05T08:31:04.999Z</time></trkpt><trkpt lat="41.584215316368095" lon="19.775161456976203"><ele>714.0</ele><time>2026-05-05T08:31:06.999Z</time></trkpt><trkpt lat="41.584155822815084" lon="19.77519586984013"><ele>713.6666666666666</ele><time>2026-05-05T08:31:07.999Z</time></trkpt><trkpt lat="41.584083940631984" lon="19.77523517878981"><ele>713.3333333333333</ele><time>2026-05-05T08:31:08.999Z</time></trkpt><trkpt lat="41.58401038747426" lon="19.775280136988787"><ele>713.0</ele><time>2026-05-05T08:31:09.999Z</time></trkpt><trkpt lat="41.58392638886416" lon="19.775315609511072"><ele>714.8333333333333</ele><time>2026-05-05T08:31:10.999Z</time></trkpt><trkpt lat="41.58384522361728" lon="19.775316709349166"><ele>716.6666666666666</ele><time>2026-05-05T08:31:11.999Z</time></trkpt><trkpt lat="41.58376666735978" lon="19.77529054159531"><ele>718.5</ele><time>2026-05-05T08:31:12.999Z</time></trkpt><trkpt lat="41.583694030482945" lon="19.775266047388058"><ele>720.3333333333334</ele><time>2026-05-05T08:31:13.999Z</time></trkpt><trkpt lat="41.58362705886356" lon="19.775260537991564"><ele>722.1666666666667</ele><time>2026-05-05T08:31:14.999Z</time></trkpt><trkpt lat="41.58353097858825" lon="19.775329272058855"><ele>724.0</ele><time>2026-05-05T08:31:16.999Z</time></trkpt><trkpt lat="41.58342719311009" lon="19.775451370015475"><ele>724.0</ele><time>2026-05-05T08:31:18.999Z</time></trkpt><trkpt lat="41.583361147328986" lon="19.775528640616827"><ele>724.0</ele><time>2026-05-05T08:31:19.999Z</time></trkpt><trkpt lat="41.583293273369364" lon="19.775619748304866"><ele>724.0</ele><time>2026-05-05T08:31:20.999Z</time></trkpt><trkpt lat="41.583230272924496" lon="19.77570796133233"><ele>724.0</ele><time>2026-05-05T08:31:21.999Z</time></trkpt><trkpt lat="41.58314865224289" lon="19.7758004232127"><ele>724.0</ele><time>2026-05-05T08:31:22.999Z</time></trkpt><trkpt lat="41.583072369174026" lon="19.77589079875351"><ele>724.0</ele><time>2026-05-05T08:31:23.999Z</time></trkpt><trkpt lat="41.582997499407334" lon="19.775970528385052"><ele>724.0</ele><time>2026-05-05T08:31:24.999Z</time></trkpt><trkpt lat="41.58292420578287" lon="19.77602138015785"><ele>724.0</ele><time>2026-05-05T08:31:25.999Z</time></trkpt><trkpt lat="41.58285577143719" lon="19.7760504338551"><ele>724.0</ele><time>2026-05-05T08:31:26.999Z</time></trkpt><trkpt lat="41.58278048320028" lon="19.776058120072438"><ele>724.0</ele><time>2026-05-05T08:31:27.999Z</time></trkpt><trkpt lat="41.58271177220068" lon="19.77606915594318"><ele>724.0</ele><time>2026-05-05T08:31:28.999Z</time></trkpt><trkpt lat="41.58259443986161" lon="19.776119252403326"><ele>721.8000000000001</ele><time>2026-05-05T08:31:30.999Z</time></trkpt><trkpt lat="41.58248278902199" lon="19.7761757863169"><ele>719.6</ele><time>2026-05-05T08:31:33Z</time></trkpt><trkpt lat="41.58239304529076" lon="19.776288529686315"><ele>717.4</ele><time>2026-05-05T08:31:35Z</time></trkpt><trkpt lat="41.582353695181475" lon="19.776361311987124"><ele>715.2</ele><time>2026-05-05T08:31:36Z</time></trkpt><trkpt lat="41.58232672723593" lon="19.77644110611143"><ele>713.0</ele><time>2026-05-05T08:31:37Z</time></trkpt><trkpt lat="41.58228384868657" lon="19.7765388513924"><ele>713.0</ele><time>2026-05-05T08:31:38Z</time></trkpt><trkpt lat="41.58224782383344" lon="19.776647380803947"><ele>713.0</ele><time>2026-05-05T08:31:39Z</time></trkpt><trkpt lat="41.582222498030035" lon="19.776763500714807"><ele>713.0</ele><time>2026-05-05T08:31:40Z</time></trkpt><trkpt lat="41.58218880558752" lon="19.77687474672077"><ele>713.0</ele><time>2026-05-05T08:31:41Z</time></trkpt><trkpt lat="41.58214351998496" lon="19.776984792518252"><ele>713.0</ele><time>2026-05-05T08:31:42Z</time></trkpt><trkpt lat="41.5820951786835" lon="19.77710099862688"><ele>714.5</ele><time>2026-05-05T08:31:43Z</time></trkpt><trkpt lat="41.58205303386978" lon="19.777224084388685"><ele>716.0</ele><time>2026-05-05T08:31:44Z</time></trkpt><trkpt lat="41.58201682987419" lon="19.777332141105752"><ele>717.5</ele><time>2026-05-05T08:31:45Z</time></trkpt><trkpt lat="41.581971815268524" lon="19.777416107221164"><ele>719.0</ele><time>2026-05-05T08:31:46Z</time></trkpt><trkpt lat="41.58191940840567" lon="19.777491844519698"><ele>720.5</ele><time>2026-05-05T08:31:47Z</time></trkpt><trkpt lat="41.58186262860081" lon="19.777552005179867"><ele>722.0</ele><time>2026-05-05T08:31:48Z</time></trkpt><trkpt lat="41.581789585248515" lon="19.77760177401073"><ele>720.5</ele><time>2026-05-05T08:31:49Z</time></trkpt><trkpt lat="41.581716536630324" lon="19.77766203297853"><ele>719.0</ele><time>2026-05-05T08:31:50Z</time></trkpt><trkpt lat="41.5816542568368" lon="19.777700686266368"><ele>717.5</ele><time>2026-05-05T08:31:51Z</time></trkpt><trkpt lat="41.58158048910161" lon="19.777772173346104"><ele>716.0</ele><time>2026-05-05T08:31:52Z</time></trkpt><trkpt lat="41.58148326231096" lon="19.7778639200431"><ele>714.5</ele><time>2026-05-05T08:31:54Z</time></trkpt><trkpt lat="41.58143478885215" lon="19.777947716076547"><ele>713.0</ele><time>2026-05-05T08:31:55Z</time></trkpt><trkpt lat="41.58139549674128" lon="19.77801869739044"><ele>713.0</ele><time>2026-05-05T08:31:56Z</time></trkpt><trkpt lat="41.58134906130335" lon="19.778079803909225"><ele>713.0</ele><time>2026-05-05T08:31:57Z</time></trkpt><trkpt lat="41.58128759175064" lon="19.778131515554875"><ele>713.0</ele><time>2026-05-05T08:31:58Z</time></trkpt><trkpt lat="41.58121421796066" lon="19.778253479314877"><ele>713.0</ele><time>2026-05-05T08:32:00Z</time></trkpt><trkpt lat="41.581158772621734" lon="19.77840108121469"><ele>713.0</ele><time>2026-05-05T08:32:02Z</time></trkpt><trkpt lat="41.58112154160558" lon="19.778487092636514"><ele>710.1666666666666</ele><time>2026-05-05T08:32:03Z</time></trkpt><trkpt lat="41.58107947738698" lon="19.778594817328006"><ele>707.3333333333333</ele><time>2026-05-05T08:32:04Z</time></trkpt><trkpt lat="41.581046134482335" lon="19.778700602601624"><ele>704.5</ele><time>2026-05-05T08:32:05Z</time></trkpt><trkpt lat="41.5810146985554" lon="19.77880362110461"><ele>701.6666666666666</ele><time>2026-05-05T08:32:06Z</time></trkpt><trkpt lat="41.58098540967195" lon="19.77890400442359"><ele>698.8333333333334</ele><time>2026-05-05T08:32:07Z</time></trkpt><trkpt lat="41.58097019174071" lon="19.77898963903121"><ele>696.0</ele><time>2026-05-05T08:32:08Z</time></trkpt><trkpt lat="41.58095132763243" lon="19.779078063260567"><ele>696.0</ele><time>2026-05-05T08:32:09Z</time></trkpt><trkpt lat="41.58093537528695" lon="19.77916872366901"><ele>696.0</ele><time>2026-05-05T08:32:10Z</time></trkpt><trkpt lat="41.58091156942449" lon="19.77925032370143"><ele>696.0</ele><time>2026-05-05T08:32:11Z</time></trkpt><trkpt lat="41.5808727749573" lon="19.779339184005455"><ele>696.0</ele><time>2026-05-05T08:32:12Z</time></trkpt><trkpt lat="41.58084154675045" lon="19.77943746696525"><ele>696.0</ele><time>2026-05-05T08:32:13Z</time></trkpt><trkpt lat="41.580822006020284" lon="19.7796070011764"><ele>696.0</ele><time>2026-05-05T08:32:15Z</time></trkpt><trkpt lat="41.58083890426413" lon="19.779692540183728"><ele>694.25</ele><time>2026-05-05T08:32:16Z</time></trkpt><trkpt lat="41.58085516247618" lon="19.77984100078935"><ele>692.5</ele><time>2026-05-05T08:32:18Z</time></trkpt><trkpt lat="41.580892410991055" lon="19.77997644594077"><ele>690.75</ele><time>2026-05-05T08:32:20Z</time></trkpt><trkpt lat="41.58091753739237" lon="19.780141476487206"><ele>689.0</ele><time>2026-05-05T08:32:22Z</time></trkpt><trkpt lat="41.580915649620444" lon="19.78031435710664"><ele>687.8000000000001</ele><time>2026-05-05T08:32:24Z</time></trkpt><trkpt lat="41.58091718157393" lon="19.780496698881635"><ele>686.6</ele><time>2026-05-05T08:32:26Z</time></trkpt><trkpt lat="41.58091556127643" lon="19.780608760972473"><ele>685.4</ele><time>2026-05-05T08:32:27Z</time></trkpt><trkpt lat="41.58090935242777" lon="19.78069980134755"><ele>684.2</ele><time>2026-05-05T08:32:28Z</time></trkpt><trkpt lat="41.5809054580558" lon="19.780809668837467"><ele>683.0</ele><time>2026-05-05T08:32:29Z</time></trkpt><trkpt lat="41.580898161204104" lon="19.780922129817"><ele>682.0</ele><time>2026-05-05T08:32:30Z</time></trkpt><trkpt lat="41.58089330966337" lon="19.78103297551617"><ele>681.0</ele><time>2026-05-05T08:32:31Z</time></trkpt><trkpt lat="41.58089024496373" lon="19.78111776373941"><ele>680.0</ele><time>2026-05-05T08:32:32Z</time></trkpt><trkpt lat="41.580888397077466" lon="19.78120924986664"><ele>679.0</ele><time>2026-05-05T08:32:33Z</time></trkpt><trkpt lat="41.58086467463668" lon="19.78137235271179"><ele>678.0</ele><time>2026-05-05T08:32:35Z</time></trkpt><trkpt lat="41.58084480838469" lon="19.781466225891926"><ele>677.0</ele><time>2026-05-05T08:32:36Z</time></trkpt><trkpt lat="41.580829873963815" lon="19.78156665961733"><ele>677.0</ele><time>2026-05-05T08:32:37Z</time></trkpt><trkpt lat="41.580828629759594" lon="19.781667588649036"><ele>677.0</ele><time>2026-05-05T08:32:38Z</time></trkpt><trkpt lat="41.58083433614346" lon="19.78179931578982"><ele>677.0</ele><time>2026-05-05T08:32:40Z</time></trkpt><trkpt lat="41.58087326167623" lon="19.78187798207036"><ele>677.0</ele><time>2026-05-05T08:32:41Z</time></trkpt><trkpt lat="41.580920851554374" lon="19.781958660595798"><ele>677.0</ele><time>2026-05-05T08:32:42Z</time></trkpt><trkpt lat="41.58095558717801" lon="19.782044500971963"><ele>677.0</ele><time>2026-05-05T08:32:43Z</time></trkpt><trkpt lat="41.58099603484111" lon="19.78213219085354"><ele>675.6666666666666</ele><time>2026-05-05T08:32:44Z</time></trkpt><trkpt lat="41.58104298494271" lon="19.782230463629606"><ele>674.3333333333333</ele><time>2026-05-05T08:32:45Z</time></trkpt><trkpt lat="41.58106195204524" lon="19.782326609911483"><ele>673.0</ele><time>2026-05-05T08:32:46Z</time></trkpt><trkpt lat="41.58106855931975" lon="19.782412754982666"><ele>671.6666666666666</ele><time>2026-05-05T08:32:47Z</time></trkpt><trkpt lat="41.58107778922059" lon="19.782521529266184"><ele>670.3333333333334</ele><time>2026-05-05T08:32:48Z</time></trkpt><trkpt lat="41.58108229338614" lon="19.782636311119088"><ele>669.0</ele><time>2026-05-05T08:32:49Z</time></trkpt><trkpt lat="41.5811000836108" lon="19.78278960279869"><ele>669.0</ele><time>2026-05-05T08:32:51Z</time></trkpt><trkpt lat="41.58110937633767" lon="19.782928694525374"><ele>669.0</ele><time>2026-05-05T08:32:53Z</time></trkpt><trkpt lat="41.581110826532615" lon="19.783030724326405"><ele>669.0</ele><time>2026-05-05T08:32:55Z</time></trkpt><trkpt lat="41.58111130873507" lon="19.78312718657842"><ele>669.0</ele><time>2026-05-05T08:33:09Z</time></trkpt><trkpt lat="41.581119944103754" lon="19.783217616478307"><ele>669.0</ele><time>2026-05-05T08:33:10Z</time></trkpt><trkpt lat="41.58112559989484" lon="19.78330748788769"><ele>669.0</ele><time>2026-05-05T08:33:11Z</time></trkpt><trkpt lat="41.58113158138222" lon="19.7834192235704"><ele>670.3333333333334</ele><time>2026-05-05T08:33:12Z</time></trkpt><trkpt lat="41.581151664591786" lon="19.783526987255048"><ele>671.6666666666666</ele><time>2026-05-05T08:33:13Z</time></trkpt><trkpt lat="41.581180176028326" lon="19.783649553123684"><ele>673.0</ele><time>2026-05-05T08:33:14Z</time></trkpt><trkpt lat="41.58120496609456" lon="19.78376109486794"><ele>674.3333333333333</ele><time>2026-05-05T08:33:15Z</time></trkpt><trkpt lat="41.58123537375996" lon="19.78385502046303"><ele>675.6666666666666</ele><time>2026-05-05T08:33:16Z</time></trkpt><trkpt lat="41.58128722226199" lon="19.783974811138286"><ele>677.0</ele><time>2026-05-05T08:33:17Z</time></trkpt><trkpt lat="41.581346184143015" lon="19.78410234006098"><ele>679.0</ele><time>2026-05-05T08:33:18Z</time></trkpt><trkpt lat="41.58138209110425" lon="19.784242024464803"><ele>681.0</ele><time>2026-05-05T08:33:18.999Z</time></trkpt><trkpt lat="41.58141231716681" lon="19.784330885118116"><ele>683.0</ele><time>2026-05-05T08:33:19.999Z</time></trkpt><trkpt lat="41.581435690791906" lon="19.784409759754823"><ele>685.0</ele><time>2026-05-05T08:33:20.999Z</time></trkpt><trkpt lat="41.58144633156316" lon="19.784515606438738"><ele>687.0</ele><time>2026-05-05T08:33:21.999Z</time></trkpt><trkpt lat="41.581454568832655" lon="19.78471117724469"><ele>687.0</ele><time>2026-05-05T08:33:23.999Z</time></trkpt><trkpt lat="41.58146041283833" lon="19.7848319484034"><ele>687.0</ele><time>2026-05-05T08:33:24.999Z</time></trkpt><trkpt lat="41.58146104385413" lon="19.784927908743025"><ele>687.0</ele><time>2026-05-05T08:33:25.999Z</time></trkpt><trkpt lat="41.581499502862094" lon="19.785020987479676"><ele>687.0</ele><time>2026-05-05T08:33:27.999Z</time></trkpt><trkpt lat="41.581603489002084" lon="19.785070969200742"><ele>687.0</ele><time>2026-05-05T08:33:29.999Z</time></trkpt><trkpt lat="41.58165408024068" lon="19.78512248723724"><ele>687.0</ele><time>2026-05-05T08:33:31.999Z</time></trkpt><trkpt lat="41.58162602984981" lon="19.78524545597768"><ele>687.0</ele><time>2026-05-05T08:33:35.999Z</time></trkpt><trkpt lat="41.58157030356841" lon="19.78529701221291"><ele>687.0</ele><time>2026-05-05T08:33:50Z</time></trkpt><trkpt lat="41.58147114541925" lon="19.78528102473232"><ele>687.0</ele><time>2026-05-05T08:33:52Z</time></trkpt><trkpt lat="41.58135448520466" lon="19.785206181969656"><ele>687.0</ele><time>2026-05-05T08:33:54Z</time></trkpt><trkpt lat="41.58126584508877" lon="19.785161444037573"><ele>687.0</ele><time>2026-05-05T08:33:56Z</time></trkpt><trkpt lat="41.5812094827673" lon="19.785087823122314"><ele>688.5714285714286</ele><time>2026-05-05T08:33:58Z</time></trkpt><trkpt lat="41.58116599899288" lon="19.78500324970284"><ele>690.1428571428571</ele><time>2026-05-05T08:34:00Z</time></trkpt><trkpt lat="41.58111691863512" lon="19.78492475458319"><ele>691.7142857142857</ele><time>2026-05-05T08:34:02Z</time></trkpt><trkpt lat="41.58107912046384" lon="19.7848565665855"><ele>693.2857142857142</ele><time>2026-05-05T08:34:03Z</time></trkpt><trkpt lat="41.58104193509112" lon="19.784769753294157"><ele>694.8571428571429</ele><time>2026-05-05T08:34:04Z</time></trkpt><trkpt lat="41.58101147004833" lon="19.78468216728169"><ele>696.4285714285713</ele><time>2026-05-05T08:34:05Z</time></trkpt><trkpt lat="41.58097066725025" lon="19.78459883509705"><ele>698.0</ele><time>2026-05-05T08:34:05.999Z</time></trkpt><trkpt lat="41.58092585122552" lon="19.784539580664404"><ele>698.0</ele><time>2026-05-05T08:34:06.999Z</time></trkpt><trkpt lat="41.58085941235191" lon="19.78444560449865"><ele>698.0</ele><time>2026-05-05T08:34:08.999Z</time></trkpt><trkpt lat="41.58077408254748" lon="19.784383479471003"><ele>698.0</ele><time>2026-05-05T08:34:10.999Z</time></trkpt><trkpt lat="41.58070727746637" lon="19.784330990913638"><ele>698.0</ele><time>2026-05-05T08:34:11.999Z</time></trkpt><trkpt lat="41.58065528882124" lon="19.784274257809106"><ele>698.0</ele><time>2026-05-05T08:34:12.999Z</time></trkpt><trkpt lat="41.580570711520984" lon="19.78414577681349"><ele>701.75</ele><time>2026-05-05T08:34:14.999Z</time></trkpt><trkpt lat="41.5804845870038" lon="19.784011536497374"><ele>705.5</ele><time>2026-05-05T08:34:16.999Z</time></trkpt><trkpt lat="41.5804076636026" lon="19.78389673273486"><ele>709.25</ele><time>2026-05-05T08:34:18.999Z</time></trkpt><trkpt lat="41.580312015191694" lon="19.783834274899743"><ele>713.0</ele><time>2026-05-05T08:34:20.999Z</time></trkpt><trkpt lat="41.5802119130195" lon="19.783801263362058"><ele>713.0</ele><time>2026-05-05T08:34:22.999Z</time></trkpt><trkpt lat="41.58008867181024" lon="19.78383939367203"><ele>713.0</ele><time>2026-05-05T08:34:24.999Z</time></trkpt><trkpt lat="41.57998540390851" lon="19.783905400022327"><ele>713.0</ele><time>2026-05-05T08:34:26.999Z</time></trkpt><trkpt lat="41.579920837648345" lon="19.783918734363553"><ele>713.0</ele><time>2026-05-05T08:34:27.999Z</time></trkpt><trkpt lat="41.57984850230077" lon="19.783925652482186"><ele>713.0</ele><time>2026-05-05T08:34:28.999Z</time></trkpt><trkpt lat="41.57978020483421" lon="19.783919527793557"><ele>713.0</ele><time>2026-05-05T08:34:29.999Z</time></trkpt><trkpt lat="41.5797006486761" lon="19.783906921769336"><ele>713.0</ele><time>2026-05-05T08:34:30.999Z</time></trkpt><trkpt lat="41.579629514696386" lon="19.78388922749665"><ele>713.0</ele><time>2026-05-05T08:34:31.999Z</time></trkpt><trkpt lat="41.579544727900604" lon="19.783779248310516"><ele>713.0</ele><time>2026-05-05T08:34:33.999Z</time></trkpt><trkpt lat="41.57944803069205" lon="19.7836469762388"><ele>713.0</ele><time>2026-05-05T08:34:35.999Z</time></trkpt><trkpt lat="41.57939110105106" lon="19.7835872504249"><ele>713.0</ele><time>2026-05-05T08:34:36.999Z</time></trkpt><trkpt lat="41.57932885556032" lon="19.783515892732805"><ele>710.8333333333333</ele><time>2026-05-05T08:34:37.999Z</time></trkpt><trkpt lat="41.579279401283515" lon="19.78346246322884"><ele>708.6666666666666</ele><time>2026-05-05T08:34:38.999Z</time></trkpt><trkpt lat="41.579184932480025" lon="19.783456251890225"><ele>706.5</ele><time>2026-05-05T08:34:40.999Z</time></trkpt><trkpt lat="41.57909408444399" lon="19.783467723352523"><ele>704.3333333333334</ele><time>2026-05-05T08:34:42.999Z</time></trkpt><trkpt lat="41.57901381365896" lon="19.783415155415053"><ele>702.1666666666667</ele><time>2026-05-05T08:34:44.999Z</time></trkpt><trkpt lat="41.578912206491395" lon="19.783398406869804"><ele>700.0</ele><time>2026-05-05T08:34:46.999Z</time></trkpt><trkpt lat="41.57881062919825" lon="19.78344183811249"><ele>702.0</ele><time>2026-05-05T08:34:48.999Z</time></trkpt><trkpt lat="41.57867953226987" lon="19.783477683545073"><ele>704.0</ele><time>2026-05-05T08:34:50.999Z</time></trkpt><trkpt lat="41.57860493126812" lon="19.783491945876946"><ele>706.0</ele><time>2026-05-05T08:34:51.999Z</time></trkpt><trkpt lat="41.57851227153916" lon="19.78350182827848"><ele>708.0</ele><time>2026-05-05T08:34:52.999Z</time></trkpt><trkpt lat="41.578404865696626" lon="19.783510843967825"><ele>710.0</ele><time>2026-05-05T08:34:54.999Z</time></trkpt><trkpt lat="41.57833797796709" lon="19.783530933631358"><ele>715.0</ele><time>2026-05-05T08:34:55.999Z</time></trkpt><trkpt lat="41.578159804612696" lon="19.783553801021085"><ele>720.0</ele><time>2026-05-05T08:34:57.999Z</time></trkpt><trkpt lat="41.57807953037717" lon="19.783555677529908"><ele>725.0</ele><time>2026-05-05T08:34:58.999Z</time></trkpt><trkpt lat="41.577990550615084" lon="19.783557805899914"><ele>730.0</ele><time>2026-05-05T08:34:59.999Z</time></trkpt><trkpt lat="41.577900490817505" lon="19.783559659920908"><ele>735.0</ele><time>2026-05-05T08:35:00.999Z</time></trkpt><trkpt lat="41.57782067187602" lon="19.783571563803687"><ele>735.0</ele><time>2026-05-05T08:35:01.999Z</time></trkpt><trkpt lat="41.57774236046711" lon="19.783590678258744"><ele>735.0</ele><time>2026-05-05T08:35:02.999Z</time></trkpt><trkpt lat="41.57765313543578" lon="19.78360457695371"><ele>735.0</ele><time>2026-05-05T08:35:03.999Z</time></trkpt><trkpt lat="41.57756581058174" lon="19.783620278872696"><ele>735.0</ele><time>2026-05-05T08:35:04.999Z</time></trkpt><trkpt lat="41.57749544851886" lon="19.783655523826134"><ele>735.0</ele><time>2026-05-05T08:35:05.999Z</time></trkpt><trkpt lat="41.57744507013287" lon="19.783717411915173"><ele>735.0</ele><time>2026-05-05T08:35:07.999Z</time></trkpt><trkpt lat="41.57745925551722" lon="19.783806748678"><ele>735.0</ele><time>2026-05-05T08:35:09.999Z</time></trkpt><trkpt lat="41.57754984900879" lon="19.78387876603259"><ele>735.0</ele><time>2026-05-05T08:35:11.999Z</time></trkpt><trkpt lat="41.577613518182375" lon="19.78390975918169"><ele>735.0</ele><time>2026-05-05T08:35:12.999Z</time></trkpt><trkpt lat="41.57768334103455" lon="19.783929511697114"><ele>735.0</ele><time>2026-05-05T08:35:13.999Z</time></trkpt><trkpt lat="41.57775016400473" lon="19.783949294423916"><ele>735.0</ele><time>2026-05-05T08:35:14.999Z</time></trkpt><trkpt lat="41.5778243220656" lon="19.78396741894155"><ele>735.0</ele><time>2026-05-05T08:35:15.999Z</time></trkpt><trkpt lat="41.577901901296805" lon="19.78397325438304"><ele>735.2</ele><time>2026-05-05T08:35:16.999Z</time></trkpt><trkpt lat="41.57798710623487" lon="19.783983681846852"><ele>735.4</ele><time>2026-05-05T08:35:17.999Z</time></trkpt><trkpt lat="41.57808479443499" lon="19.78399038853977"><ele>735.5999999999999</ele><time>2026-05-05T08:35:18.999Z</time></trkpt><trkpt lat="41.57818005939054" lon="19.784005482142916"><ele>735.8</ele><time>2026-05-05T08:35:19.999Z</time></trkpt><trkpt lat="41.57827640323459" lon="19.78401773943172"><ele>736.0</ele><time>2026-05-05T08:35:20.999Z</time></trkpt><trkpt lat="41.57835680835265" lon="19.784021031642315"><ele>736.0</ele><time>2026-05-05T08:35:21.999Z</time></trkpt><trkpt lat="41.57842263038292" lon="19.784088369803527"><ele>736.0</ele><time>2026-05-05T08:35:24.999Z</time></trkpt><trkpt lat="41.57834248647153" lon="19.78418593071103"><ele>736.0</ele><time>2026-05-05T08:35:27.999Z</time></trkpt><trkpt lat="41.5782172081828" lon="19.784174154014035"><ele>736.0</ele><time>2026-05-05T08:35:29.999Z</time></trkpt><trkpt lat="41.57813303833442" lon="19.784180505849164"><ele>736.0</ele><time>2026-05-05T08:35:30.999Z</time></trkpt><trkpt lat="41.57800218234529" lon="19.78425577343069"><ele>736.0</ele><time>2026-05-05T08:35:32.999Z</time></trkpt><trkpt lat="41.57786877264617" lon="19.784337891367205"><ele>736.0</ele><time>2026-05-05T08:35:34.999Z</time></trkpt><trkpt lat="41.57774418585687" lon="19.784404056614196"><ele>736.0</ele><time>2026-05-05T08:35:36.999Z</time></trkpt><trkpt lat="41.57767413078121" lon="19.784446715318513"><ele>736.0</ele><time>2026-05-05T08:35:37.999Z</time></trkpt><trkpt lat="41.57760845553457" lon="19.784483255559802"><ele>736.0</ele><time>2026-05-05T08:35:38.999Z</time></trkpt><trkpt lat="41.57752653760974" lon="19.78452243094426"><ele>741.0</ele><time>2026-05-05T08:35:39.999Z</time></trkpt><trkpt lat="41.577443115545705" lon="19.78455794078171"><ele>746.0</ele><time>2026-05-05T08:35:40.999Z</time></trkpt><trkpt lat="41.57736615496373" lon="19.784569630261903"><ele>751.0</ele><time>2026-05-05T08:35:41.999Z</time></trkpt><trkpt lat="41.57727783013114" lon="19.7845827348637"><ele>756.0</ele><time>2026-05-05T08:35:42.999Z</time></trkpt><trkpt lat="41.577201387803655" lon="19.78459610080662"><ele>761.0</ele><time>2026-05-05T08:35:44Z</time></trkpt><trkpt lat="41.577107977314334" lon="19.78468775102635"><ele>766.0</ele><time>2026-05-05T08:35:46Z</time></trkpt><trkpt lat="41.57705269745731" lon="19.784756580793893"><ele>763.5999999999999</ele><time>2026-05-05T08:35:47Z</time></trkpt><trkpt lat="41.57698798950209" lon="19.78482789780525"><ele>761.2</ele><time>2026-05-05T08:35:48Z</time></trkpt><trkpt lat="41.57691036104205" lon="19.784914985372943"><ele>758.8</ele><time>2026-05-05T08:35:49Z</time></trkpt><trkpt lat="41.576827019570764" lon="19.785000601550532"><ele>756.4000000000001</ele><time>2026-05-05T08:35:50Z</time></trkpt><trkpt lat="41.576728711424146" lon="19.785107094230426"><ele>754.0</ele><time>2026-05-05T08:35:51Z</time></trkpt><trkpt lat="41.57663652263517" lon="19.78518427546313"><ele>759.4000000000001</ele><time>2026-05-05T08:35:52Z</time></trkpt><trkpt lat="41.5765377577233" lon="19.785247880376172"><ele>764.8</ele><time>2026-05-05T08:35:53Z</time></trkpt><trkpt lat="41.5764295002578" lon="19.785310380150687"><ele>770.2</ele><time>2026-05-05T08:35:54Z</time></trkpt><trkpt lat="41.5763365037493" lon="19.785367739430825"><ele>775.5999999999999</ele><time>2026-05-05T08:35:55Z</time></trkpt><trkpt lat="41.57624633967447" lon="19.78541413863553"><ele>781.0</ele><time>2026-05-05T08:35:56Z</time></trkpt><trkpt lat="41.5761643794788" lon="19.78545935799536"><ele>781.0</ele><time>2026-05-05T08:35:57Z</time></trkpt><trkpt lat="41.57607750154549" lon="19.78549599643126"><ele>781.0</ele><time>2026-05-05T08:35:58Z</time></trkpt><trkpt lat="41.57598490867299" lon="19.785529223270654"><ele>781.0</ele><time>2026-05-05T08:35:59Z</time></trkpt><trkpt lat="41.57591468194184" lon="19.785546645432042"><ele>781.0</ele><time>2026-05-05T08:36:00Z</time></trkpt><trkpt lat="41.575766124348036" lon="19.78552117072698"><ele>781.0</ele><time>2026-05-05T08:36:02Z</time></trkpt><trkpt lat="41.575678779022525" lon="19.785487992310856"><ele>781.0</ele><time>2026-05-05T08:36:03Z</time></trkpt><trkpt lat="41.57559649240276" lon="19.785444253505364"><ele>781.0</ele><time>2026-05-05T08:36:04Z</time></trkpt><trkpt lat="41.575528680797824" lon="19.785379963024212"><ele>781.0</ele><time>2026-05-05T08:36:05Z</time></trkpt><trkpt lat="41.575474509743316" lon="19.785312040168105"><ele>781.0</ele><time>2026-05-05T08:36:06Z</time></trkpt><trkpt lat="41.575419513141526" lon="19.78525012797298"><ele>781.0</ele><time>2026-05-05T08:36:07Z</time></trkpt><trkpt lat="41.57529370895987" lon="19.785143157757147"><ele>777.1999999999999</ele><time>2026-05-05T08:36:09Z</time></trkpt><trkpt lat="41.575234132437146" lon="19.785055820828983"><ele>773.4</ele><time>2026-05-05T08:36:10Z</time></trkpt><trkpt lat="41.57516874524329" lon="19.78497674603504"><ele>769.6</ele><time>2026-05-05T08:36:11Z</time></trkpt><trkpt lat="41.57510423119934" lon="19.784916005254683"><ele>765.8</ele><time>2026-05-05T08:36:12Z</time></trkpt><trkpt lat="41.57498210749496" lon="19.784889052885227"><ele>762.0</ele><time>2026-05-05T08:36:14Z</time></trkpt><trkpt lat="41.57490288243059" lon="19.78487341377933"><ele>762.0</ele><time>2026-05-05T08:36:15Z</time></trkpt><trkpt lat="41.574813726467845" lon="19.78483626152328"><ele>762.0</ele><time>2026-05-05T08:36:16Z</time></trkpt><trkpt lat="41.574734706163014" lon="19.784814789075476"><ele>762.0</ele><time>2026-05-05T08:36:17Z</time></trkpt><trkpt lat="41.57464108180747" lon="19.784797122942063"><ele>762.0</ele><time>2026-05-05T08:36:18Z</time></trkpt><trkpt lat="41.57450459782912" lon="19.78475204242986"><ele>762.0</ele><time>2026-05-05T08:36:20Z</time></trkpt><trkpt lat="41.57441725659486" lon="19.78472826425847"><ele>763.0</ele><time>2026-05-05T08:36:21Z</time></trkpt><trkpt lat="41.574352634404484" lon="19.78471265716417"><ele>764.0</ele><time>2026-05-05T08:36:22Z</time></trkpt><trkpt lat="41.57422110214696" lon="19.784678914317134"><ele>765.0</ele><time>2026-05-05T08:36:24Z</time></trkpt><trkpt lat="41.57413193094415" lon="19.784638599279226"><ele>766.0</ele><time>2026-05-05T08:36:25Z</time></trkpt><trkpt lat="41.57406417594496" lon="19.784623075959328"><ele>767.0</ele><time>2026-05-05T08:36:26Z</time></trkpt><trkpt lat="41.57398467474464" lon="19.78462121020527"><ele>768.0</ele><time>2026-05-05T08:36:27Z</time></trkpt><trkpt lat="41.57390645433272" lon="19.784606201112656"><ele>768.0</ele><time>2026-05-05T08:36:28Z</time></trkpt><trkpt lat="41.57383642125682" lon="19.7845821658764"><ele>768.0</ele><time>2026-05-05T08:36:29Z</time></trkpt><trkpt lat="41.573736269442264" lon="19.78456563708252"><ele>768.0</ele><time>2026-05-05T08:36:31Z</time></trkpt><trkpt lat="41.57363439571751" lon="19.784603755164817"><ele>768.0</ele><time>2026-05-05T08:36:33Z</time></trkpt><trkpt lat="41.573572730585354" lon="19.784701100876458"><ele>768.0</ele><time>2026-05-05T08:36:35Z</time></trkpt><trkpt lat="41.573486381985035" lon="19.784808699841427"><ele>767.8333333333334</ele><time>2026-05-05T08:36:37Z</time></trkpt><trkpt lat="41.57336262602403" lon="19.784893640578076"><ele>767.6666666666666</ele><time>2026-05-05T08:36:38.999Z</time></trkpt><trkpt lat="41.573283825658955" lon="19.784932192138015"><ele>767.5</ele><time>2026-05-05T08:36:39.999Z</time></trkpt><trkpt lat="41.57322759858363" lon="19.78497498877626"><ele>767.3333333333333</ele><time>2026-05-05T08:36:40.999Z</time></trkpt><trkpt lat="41.573166480659395" lon="19.785012627715062"><ele>767.1666666666666</ele><time>2026-05-05T08:36:41.999Z</time></trkpt><trkpt lat="41.5730969106667" lon="19.78504767001838"><ele>767.0</ele><time>2026-05-05T08:36:42.999Z</time></trkpt><trkpt lat="41.573004051177726" lon="19.78513405034731"><ele>766.8333333333333</ele><time>2026-05-05T08:36:44.999Z</time></trkpt><trkpt lat="41.57290241156802" lon="19.785228899738332"><ele>766.6666666666666</ele><time>2026-05-05T08:36:46.999Z</time></trkpt><trkpt lat="41.57285285717827" lon="19.78528380203388"><ele>766.5</ele><time>2026-05-05T08:36:47.999Z</time></trkpt><trkpt lat="41.57280758571103" lon="19.785342917256894"><ele>766.3333333333334</ele><time>2026-05-05T08:36:48.999Z</time></trkpt><trkpt lat="41.572759645031084" lon="19.78540567313404"><ele>766.1666666666667</ele><time>2026-05-05T08:36:49.999Z</time></trkpt><trkpt lat="41.572682870666824" lon="19.78549984308705"><ele>766.0</ele><time>2026-05-05T08:36:51.999Z</time></trkpt><trkpt lat="41.57256593125141" lon="19.785588100427184"><ele>766.0</ele><time>2026-05-05T08:36:53.999Z</time></trkpt><trkpt lat="41.57248873264434" lon="19.785652103676462"><ele>766.0</ele><time>2026-05-05T08:36:54.999Z</time></trkpt><trkpt lat="41.57242023354335" lon="19.78568967499027"><ele>766.0</ele><time>2026-05-05T08:36:55.999Z</time></trkpt><trkpt lat="41.57234975320084" lon="19.785702377030034"><ele>766.0</ele><time>2026-05-05T08:37:00.999Z</time></trkpt><trkpt lat="41.57226117154079" lon="19.785692618813396"><ele>766.0</ele><time>2026-05-05T08:37:02.999Z</time></trkpt><trkpt lat="41.572194686208704" lon="19.785673558915583"><ele>766.0</ele><time>2026-05-05T08:37:03.999Z</time></trkpt><trkpt lat="41.57212642584821" lon="19.785657455646913"><ele>765.0</ele><time>2026-05-05T08:37:04.999Z</time></trkpt><trkpt lat="41.57202120740801" lon="19.785692196634894"><ele>764.0</ele><time>2026-05-05T08:37:06.999Z</time></trkpt><trkpt lat="41.57192263669881" lon="19.785757326480393"><ele>763.0</ele><time>2026-05-05T08:37:08.999Z</time></trkpt><trkpt lat="41.5718351787241" lon="19.785837256483735"><ele>762.0</ele><time>2026-05-05T08:37:10.999Z</time></trkpt><trkpt lat="41.57176759883214" lon="19.785867788271513"><ele>761.0</ele><time>2026-05-05T08:37:11.999Z</time></trkpt><trkpt lat="41.57163524110581" lon="19.785861306922527"><ele>761.0</ele><time>2026-05-05T08:37:13.999Z</time></trkpt><trkpt lat="41.571565375066335" lon="19.785840984031807"><ele>761.0</ele><time>2026-05-05T08:37:14.999Z</time></trkpt><trkpt lat="41.57149532974339" lon="19.78581486345687"><ele>761.0</ele><time>2026-05-05T08:37:15.999Z</time></trkpt><trkpt lat="41.57137192937549" lon="19.785765623477474"><ele>761.0</ele><time>2026-05-05T08:37:17.999Z</time></trkpt><trkpt lat="41.571304493290384" lon="19.785747128873563"><ele>761.0</ele><time>2026-05-05T08:37:18.999Z</time></trkpt><trkpt lat="41.571235241920846" lon="19.785718193418095"><ele>761.0</ele><time>2026-05-05T08:37:19.999Z</time></trkpt><trkpt lat="41.57116875277055" lon="19.78569705967591"><ele>758.5999999999999</ele><time>2026-05-05T08:37:20.999Z</time></trkpt><trkpt lat="41.57107246390357" lon="19.785607762955955"><ele>756.2</ele><time>2026-05-05T08:37:22.999Z</time></trkpt><trkpt lat="41.570990934410666" lon="19.785557465079563"><ele>753.8</ele><time>2026-05-05T08:37:24.999Z</time></trkpt><trkpt lat="41.570939562978616" lon="19.785646568393574"><ele>751.4000000000001</ele><time>2026-05-05T08:37:26.999Z</time></trkpt><trkpt lat="41.57092584114971" lon="19.785810445907604"><ele>749.0</ele><time>2026-05-05T08:37:28.999Z</time></trkpt><trkpt lat="41.57095069424723" lon="19.785986143950467"><ele>747.5</ele><time>2026-05-05T08:37:30.999Z</time></trkpt><trkpt lat="41.57098631783987" lon="19.786080704731813"><ele>746.0</ele><time>2026-05-05T08:37:31.999Z</time></trkpt><trkpt lat="41.57102608006944" lon="19.786170373970222"><ele>744.5</ele><time>2026-05-05T08:37:32.999Z</time></trkpt><trkpt lat="41.571074157744775" lon="19.786285064689544"><ele>743.0</ele><time>2026-05-05T08:37:33.999Z</time></trkpt><trkpt lat="41.571119134426986" lon="19.78638605441276"><ele>741.5</ele><time>2026-05-05T08:37:34.999Z</time></trkpt><trkpt lat="41.57116523218722" lon="19.786493205900577"><ele>740.0</ele><time>2026-05-05T08:37:35.999Z</time></trkpt><trkpt lat="41.57120296250725" lon="19.786573210149985"><ele>744.6</ele><time>2026-05-05T08:37:36.999Z</time></trkpt><trkpt lat="41.57126801380954" lon="19.78671768208315"><ele>749.2</ele><time>2026-05-05T08:37:38.999Z</time></trkpt><trkpt lat="41.57130242789683" lon="19.78679914174492"><ele>753.8</ele><time>2026-05-05T08:37:39.999Z</time></trkpt><trkpt lat="41.5712985752078" lon="19.78693906516499"><ele>758.4</ele><time>2026-05-05T08:37:41.999Z</time></trkpt><trkpt lat="41.571223447443764" lon="19.787095564877394"><ele>763.0</ele><time>2026-05-05T08:37:43.999Z</time></trkpt><trkpt lat="41.57119514898044" lon="19.787198681684007"><ele>757.4</ele><time>2026-05-05T08:37:44.999Z</time></trkpt><trkpt lat="41.571156499157645" lon="19.787344295133956"><ele>751.8</ele><time>2026-05-05T08:37:45.999Z</time></trkpt><trkpt lat="41.57113603159441" lon="19.787455422957542"><ele>746.2</ele><time>2026-05-05T08:37:46.999Z</time></trkpt><trkpt lat="41.571124068846075" lon="19.787566536178538"><ele>740.6</ele><time>2026-05-05T08:37:47.999Z</time></trkpt><trkpt lat="41.57113783353529" lon="19.78778478397819"><ele>735.0</ele><time>2026-05-05T08:37:50Z</time></trkpt><trkpt lat="41.571160160772564" lon="19.787897445183415"><ele>734.6666666666666</ele><time>2026-05-05T08:37:51Z</time></trkpt><trkpt lat="41.57118361941917" lon="19.787989619061054"><ele>734.3333333333334</ele><time>2026-05-05T08:37:52Z</time></trkpt><trkpt lat="41.57120426486469" lon="19.78808756409488"><ele>734.0</ele><time>2026-05-05T08:37:53Z</time></trkpt><trkpt lat="41.571207294795855" lon="19.788177463268827"><ele>733.6666666666667</ele><time>2026-05-05T08:37:54Z</time></trkpt><trkpt lat="41.571197804691515" lon="19.788281061724202"><ele>733.3333333333334</ele><time>2026-05-05T08:37:55Z</time></trkpt><trkpt lat="41.57113500533465" lon="19.788387990930463"><ele>733.0</ele><time>2026-05-05T08:37:57Z</time></trkpt><trkpt lat="41.5710392316143" lon="19.78848603693198"><ele>733.1428571428571</ele><time>2026-05-05T08:37:59Z</time></trkpt><trkpt lat="41.57098638817934" lon="19.78853755483897"><ele>733.2857142857142</ele><time>2026-05-05T08:38:00Z</time></trkpt><trkpt lat="41.57095581411227" lon="19.78864009656856"><ele>733.4285714285713</ele><time>2026-05-05T08:38:01Z</time></trkpt><trkpt lat="41.5709212738052" lon="19.788717551116367"><ele>733.5714285714286</ele><time>2026-05-05T08:38:02Z</time></trkpt><trkpt lat="41.57089505446893" lon="19.78880282668301"><ele>733.7142857142858</ele><time>2026-05-05T08:38:03Z</time></trkpt><trkpt lat="41.57087733894785" lon="19.788903478143528"><ele>733.8571428571428</ele><time>2026-05-05T08:38:04Z</time></trkpt><trkpt lat="41.57087845937258" lon="19.788998572267918"><ele>734.0</ele><time>2026-05-05T08:38:05Z</time></trkpt><trkpt lat="41.570896923028506" lon="19.789092563226355"><ele>734.0</ele><time>2026-05-05T08:38:06Z</time></trkpt><trkpt lat="41.57092990837515" lon="19.789183305346974"><ele>734.0</ele><time>2026-05-05T08:38:07Z</time></trkpt><trkpt lat="41.57095875781887" lon="19.78928210686932"><ele>734.0</ele><time>2026-05-05T08:38:08Z</time></trkpt><trkpt lat="41.570966512858945" lon="19.78936718645307"><ele>734.0</ele><time>2026-05-05T08:38:10Z</time></trkpt><trkpt lat="41.57089195187866" lon="19.789400364575666"><ele>734.0</ele><time>2026-05-05T08:38:12Z</time></trkpt><trkpt lat="41.57082452543162" lon="19.789446130164297"><ele>734.0</ele><time>2026-05-05T08:38:13Z</time></trkpt><trkpt lat="41.57074782110222" lon="19.789489039937425"><ele>736.4000000000001</ele><time>2026-05-05T08:38:14Z</time></trkpt><trkpt lat="41.570689351395195" lon="19.789591000190413"><ele>738.8</ele><time>2026-05-05T08:38:16Z</time></trkpt><trkpt lat="41.57068245407012" lon="19.789789089702538"><ele>741.2</ele><time>2026-05-05T08:38:18Z</time></trkpt><trkpt lat="41.57068762658994" lon="19.789904186373228"><ele>743.5999999999999</ele><time>2026-05-05T08:38:19Z</time></trkpt><trkpt lat="41.57068917867012" lon="19.79000844169303"><ele>746.0</ele><time>2026-05-05T08:38:21Z</time></trkpt><trkpt lat="41.57060517157091" lon="19.790063107029734"><ele>746.0</ele><time>2026-05-05T08:38:24Z</time></trkpt><trkpt lat="41.570543854566644" lon="19.79002166611456"><ele>746.0</ele><time>2026-05-05T08:38:26Z</time></trkpt><trkpt lat="41.57045242882686" lon="19.789867138886116"><ele>746.0</ele><time>2026-05-05T08:38:28Z</time></trkpt><trkpt lat="41.57039031863989" lon="19.789777522122094"><ele>746.0</ele><time>2026-05-05T08:38:29Z</time></trkpt><trkpt lat="41.57032856507064" lon="19.789711189026917"><ele>746.0</ele><time>2026-05-05T08:38:30Z</time></trkpt><trkpt lat="41.57026292416993" lon="19.789675058414346"><ele>745.0</ele><time>2026-05-05T08:38:31Z</time></trkpt><trkpt lat="41.570145054679095" lon="19.789675085594613"><ele>744.0</ele><time>2026-05-05T08:38:33Z</time></trkpt><trkpt lat="41.570059363514154" lon="19.78968819859199"><ele>743.0</ele><time>2026-05-05T08:38:34Z</time></trkpt><trkpt lat="41.569958224526694" lon="19.789703741621942"><ele>742.0</ele><time>2026-05-05T08:38:35Z</time></trkpt><trkpt lat="41.569880638260976" lon="19.7897114180048"><ele>741.0</ele><time>2026-05-05T08:38:36Z</time></trkpt><trkpt lat="41.56979876580013" lon="19.789669003672334"><ele>741.0</ele><time>2026-05-05T08:38:37Z</time></trkpt><trkpt lat="41.56973259368542" lon="19.789626795594828"><ele>741.0</ele><time>2026-05-05T08:38:38Z</time></trkpt><trkpt lat="41.56960373916459" lon="19.78962662238826"><ele>741.0</ele><time>2026-05-05T08:38:40Z</time></trkpt><trkpt lat="41.569520628263774" lon="19.789658171014135"><ele>741.0</ele><time>2026-05-05T08:38:41Z</time></trkpt><trkpt lat="41.56944843708119" lon="19.7896757310298"><ele>741.0</ele><time>2026-05-05T08:38:42Z</time></trkpt><trkpt lat="41.56934074785051" lon="19.78961694538176"><ele>742.8</ele><time>2026-05-05T08:38:44Z</time></trkpt><trkpt lat="41.56925387556237" lon="19.78955298817546"><ele>744.5999999999999</ele><time>2026-05-05T08:38:45Z</time></trkpt><trkpt lat="41.56915981515117" lon="19.789484764380926"><ele>746.4</ele><time>2026-05-05T08:38:46Z</time></trkpt><trkpt lat="41.5690955701635" lon="19.789431229658412"><ele>748.2</ele><time>2026-05-05T08:38:47Z</time></trkpt><trkpt lat="41.569037820508704" lon="19.789349825312595"><ele>750.0</ele><time>2026-05-05T08:38:48Z</time></trkpt><trkpt lat="41.56899158140854" lon="19.78925309293663"><ele>746.4</ele><time>2026-05-05T08:38:49Z</time></trkpt><trkpt lat="41.56896578020926" lon="19.78914181673239"><ele>742.8</ele><time>2026-05-05T08:38:50Z</time></trkpt><trkpt lat="41.56894921027925" lon="19.789048144415187"><ele>739.2</ele><time>2026-05-05T08:38:51Z</time></trkpt><trkpt lat="41.56884704870644" lon="19.788950505690263"><ele>735.6</ele><time>2026-05-05T08:38:53Z</time></trkpt><trkpt lat="41.56876479020271" lon="19.788926542465337"><ele>732.0</ele><time>2026-05-05T08:38:54Z</time></trkpt><trkpt lat="41.56865823516298" lon="19.788902825295615"><ele>732.0</ele><time>2026-05-05T08:38:55Z</time></trkpt><trkpt lat="41.56854493649621" lon="19.788895420658896"><ele>732.0</ele><time>2026-05-05T08:38:56Z</time></trkpt><trkpt lat="41.56844624715597" lon="19.78890577452067"><ele>732.0</ele><time>2026-05-05T08:38:57Z</time></trkpt><trkpt lat="41.56836931394829" lon="19.788946228547132"><ele>732.0</ele><time>2026-05-05T08:38:58Z</time></trkpt><trkpt lat="41.568294045497176" lon="19.78900766456758"><ele>732.0</ele><time>2026-05-05T08:38:59Z</time></trkpt><trkpt lat="41.568234541203715" lon="19.789082197735954"><ele>732.0</ele><time>2026-05-05T08:39:00Z</time></trkpt><trkpt lat="41.56817306132935" lon="19.789181767120184"><ele>732.0</ele><time>2026-05-05T08:39:01Z</time></trkpt><trkpt lat="41.56812650923069" lon="19.78928596227759"><ele>732.0</ele><time>2026-05-05T08:39:02Z</time></trkpt><trkpt lat="41.56809523958111" lon="19.789377457751094"><ele>732.0</ele><time>2026-05-05T08:39:03Z</time></trkpt><trkpt lat="41.568057394637215" lon="19.789497391316758"><ele>732.0</ele><time>2026-05-05T08:39:04Z</time></trkpt><trkpt lat="41.568024309863794" lon="19.789578984148044"><ele>732.0</ele><time>2026-05-05T08:39:05Z</time></trkpt><trkpt lat="41.567906092127735" lon="19.789585097744354"><ele>733.0</ele><time>2026-05-05T08:39:08Z</time></trkpt><trkpt lat="41.56782326175153" lon="19.789558920855345"><ele>734.0</ele><time>2026-05-05T08:39:09Z</time></trkpt><trkpt lat="41.567733361849676" lon="19.78954014444694"><ele>735.0</ele><time>2026-05-05T08:39:10Z</time></trkpt><trkpt lat="41.56766796032834" lon="19.789568852324386"><ele>736.0</ele><time>2026-05-05T08:39:11Z</time></trkpt><trkpt lat="41.56761649329068" lon="19.78962904644034"><ele>737.0</ele><time>2026-05-05T08:39:12Z</time></trkpt><trkpt lat="41.567569413527664" lon="19.78970320202782"><ele>738.0</ele><time>2026-05-05T08:39:13Z</time></trkpt><trkpt lat="41.567539041486185" lon="19.78981694335978"><ele>738.0</ele><time>2026-05-05T08:39:14Z</time></trkpt><trkpt lat="41.56750394017661" lon="19.789956842754467"><ele>738.0</ele><time>2026-05-05T08:39:15Z</time></trkpt><trkpt lat="41.567458468238684" lon="19.79008740554358"><ele>738.0</ele><time>2026-05-05T08:39:16Z</time></trkpt><trkpt lat="41.56739270926886" lon="19.79019444430279"><ele>738.0</ele><time>2026-05-05T08:39:17Z</time></trkpt><trkpt lat="41.56732468025575" lon="19.790303698479338"><ele>738.0</ele><time>2026-05-05T08:39:18Z</time></trkpt><trkpt lat="41.567253963869675" lon="19.790411983847115"><ele>737.2</ele><time>2026-05-05T08:39:19Z</time></trkpt><trkpt lat="41.56717843850452" lon="19.79050702388319"><ele>736.4</ele><time>2026-05-05T08:39:20Z</time></trkpt><trkpt lat="41.56708812539458" lon="19.790589260621818"><ele>735.6</ele><time>2026-05-05T08:39:21Z</time></trkpt><trkpt lat="41.56700857680735" lon="19.79063651463593"><ele>734.8000000000001</ele><time>2026-05-05T08:39:22Z</time></trkpt><trkpt lat="41.56694222512564" lon="19.790658262867797"><ele>734.0</ele><time>2026-05-05T08:39:23Z</time></trkpt><trkpt lat="41.5668516415689" lon="19.790667039457258"><ele>734.0</ele><time>2026-05-05T08:39:25Z</time></trkpt><trkpt lat="41.566786727890076" lon="19.790678401448055"><ele>734.0</ele><time>2026-05-05T08:39:25.999Z</time></trkpt><trkpt lat="41.5666726217391" lon="19.790795681727964"><ele>734.0</ele><time>2026-05-05T08:39:27.999Z</time></trkpt><trkpt lat="41.56661528251698" lon="19.790867122233"><ele>734.0</ele><time>2026-05-05T08:39:28.999Z</time></trkpt><trkpt lat="41.56654918251593" lon="19.79093661879172"><ele>734.0</ele><time>2026-05-05T08:39:29.999Z</time></trkpt><trkpt lat="41.56647959747417" lon="19.79100184869671"><ele>733.6666666666666</ele><time>2026-05-05T08:39:30.999Z</time></trkpt><trkpt lat="41.56641082966791" lon="19.791041032922127"><ele>733.3333333333333</ele><time>2026-05-05T08:39:31.999Z</time></trkpt><trkpt lat="41.566341111167205" lon="19.791061867392227"><ele>733.0</ele><time>2026-05-05T08:39:32.999Z</time></trkpt><trkpt lat="41.56621003083464" lon="19.79104755094916"><ele>732.6666666666666</ele><time>2026-05-05T08:39:34.999Z</time></trkpt><trkpt lat="41.566138951732384" lon="19.791056183127377"><ele>732.3333333333334</ele><time>2026-05-05T08:39:35.999Z</time></trkpt><trkpt lat="41.56608183493998" lon="19.791095270007858"><ele>732.0</ele><time>2026-05-05T08:39:36.999Z</time></trkpt><trkpt lat="41.56605149701837" lon="19.791198843816606"><ele>732.0</ele><time>2026-05-05T08:41:58.999Z</time></trkpt><trkpt lat="41.56601866568306" lon="19.791388248712238"><ele>732.0</ele><time>2026-05-05T08:42:01Z</time></trkpt><trkpt lat="41.566006767209885" lon="19.79150337291392"><ele>732.0</ele><time>2026-05-05T08:42:02Z</time></trkpt><trkpt lat="41.565997163548815" lon="19.791608405905464"><ele>732.0</ele><time>2026-05-05T08:42:03Z</time></trkpt><trkpt lat="41.565942697392074" lon="19.791703878364697"><ele>732.0</ele><time>2026-05-05T08:42:05Z</time></trkpt><trkpt lat="41.56585228399008" lon="19.791738706807905"><ele>732.0</ele><time>2026-05-05T08:42:07Z</time></trkpt><trkpt lat="41.56572101892078" lon="19.79166295602105"><ele>732.0</ele><time>2026-05-05T08:42:09Z</time></trkpt><trkpt lat="41.56565580527201" lon="19.791622466538428"><ele>732.0</ele><time>2026-05-05T08:42:10Z</time></trkpt><trkpt lat="41.56558338787516" lon="19.791615477407465"><ele>732.0</ele><time>2026-05-05T08:42:11Z</time></trkpt><trkpt lat="41.56549578767627" lon="19.791660217246715"><ele>732.0</ele><time>2026-05-05T08:42:12Z</time></trkpt><trkpt lat="41.565393093176205" lon="19.791710178274446"><ele>731.0</ele><time>2026-05-05T08:42:13Z</time></trkpt><trkpt lat="41.56527454922765" lon="19.791763824484153"><ele>730.0</ele><time>2026-05-05T08:42:14Z</time></trkpt><trkpt lat="41.565154981687456" lon="19.79182624002449"><ele>729.0</ele><time>2026-05-05T08:42:15Z</time></trkpt><trkpt lat="41.565064048919275" lon="19.79189451858292"><ele>728.0</ele><time>2026-05-05T08:42:16Z</time></trkpt><trkpt lat="41.56498523652915" lon="19.791964259627967"><ele>726.4</ele><time>2026-05-05T08:42:17Z</time></trkpt><trkpt lat="41.56488773582354" lon="19.79204397998326"><ele>724.8</ele><time>2026-05-05T08:42:18Z</time></trkpt><trkpt lat="41.564790377042335" lon="19.792102200137833"><ele>723.2</ele><time>2026-05-05T08:42:19Z</time></trkpt><trkpt lat="41.56469252232404" lon="19.792138330528566"><ele>721.6</ele><time>2026-05-05T08:42:20Z</time></trkpt><trkpt lat="41.56460507034437" lon="19.792161078781636"><ele>720.0</ele><time>2026-05-05T08:42:21Z</time></trkpt><trkpt lat="41.56452138690888" lon="19.792166563573183"><ele>720.0</ele><time>2026-05-05T08:42:22Z</time></trkpt><trkpt lat="41.56443673739382" lon="19.792163959860023"><ele>720.0</ele><time>2026-05-05T08:42:23Z</time></trkpt><trkpt lat="41.56433592566022" lon="19.792147052670398"><ele>720.0</ele><time>2026-05-05T08:42:24Z</time></trkpt><trkpt lat="41.5642395848249" lon="19.792103169389453"><ele>720.0</ele><time>2026-05-05T08:42:25Z</time></trkpt><trkpt lat="41.56415278166985" lon="19.79205870978768"><ele>720.0</ele><time>2026-05-05T08:42:26Z</time></trkpt><trkpt lat="41.56407895022051" lon="19.7920077862975"><ele>720.0</ele><time>2026-05-05T08:42:27Z</time></trkpt><trkpt lat="41.56401559132781" lon="19.791960724263625"><ele>720.0</ele><time>2026-05-05T08:42:28Z</time></trkpt><trkpt lat="41.56392766027912" lon="19.791911700122927"><ele>720.0</ele><time>2026-05-05T08:42:30Z</time></trkpt><trkpt lat="41.563835099677526" lon="19.791990006451638"><ele>720.0</ele><time>2026-05-05T08:42:32Z</time></trkpt><trkpt lat="41.56383018050123" lon="19.792123559825217"><ele>720.0</ele><time>2026-05-05T08:42:34Z</time></trkpt><trkpt lat="41.56385715177299" lon="19.792226753494734"><ele>720.0</ele><time>2026-05-05T08:42:36Z</time></trkpt><trkpt lat="41.56393333828955" lon="19.792335726519536"><ele>720.0</ele><time>2026-05-05T08:42:38Z</time></trkpt><trkpt lat="41.56402900923326" lon="19.792471834259807"><ele>720.0</ele><time>2026-05-05T08:42:39.999Z</time></trkpt><trkpt lat="41.5640807526644" lon="19.792558431445308"><ele>720.0</ele><time>2026-05-05T08:42:40.999Z</time></trkpt><trkpt lat="41.56412971019436" lon="19.79263355382249"><ele>720.0</ele><time>2026-05-05T08:42:41.999Z</time></trkpt><trkpt lat="41.564171675935214" lon="19.79271409114348"><ele>720.0</ele><time>2026-05-05T08:42:42.999Z</time></trkpt><trkpt lat="41.5642637829156" lon="19.792815099893136"><ele>720.0</ele><time>2026-05-05T08:42:44.999Z</time></trkpt><trkpt lat="41.564300713389514" lon="19.79293723171762"><ele>720.0</ele><time>2026-05-05T08:42:46.999Z</time></trkpt><trkpt lat="41.564286068084556" lon="19.79302789484616"><ele>720.0</ele><time>2026-05-05T08:42:48.999Z</time></trkpt><trkpt lat="41.564237744389104" lon="19.793160023609715"><ele>720.0</ele><time>2026-05-05T08:42:49.999Z</time></trkpt><trkpt lat="41.56416668459071" lon="19.793210736177098"><ele>720.0</ele><time>2026-05-05T08:42:50.999Z</time></trkpt><trkpt lat="41.56410904421848" lon="19.793278913872612"><ele>720.0</ele><time>2026-05-05T08:42:51.999Z</time></trkpt><trkpt lat="41.56406063252478" lon="19.793343340265206"><ele>720.0</ele><time>2026-05-05T08:42:52.999Z</time></trkpt><trkpt lat="41.563985396981316" lon="19.793415153683526"><ele>720.0</ele><time>2026-05-05T08:42:54.999Z</time></trkpt><trkpt lat="41.563873358980985" lon="19.793371934516585"><ele>720.0</ele><time>2026-05-05T08:42:56.999Z</time></trkpt><trkpt lat="41.563787751519726" lon="19.793362032445643"><ele>720.0</ele><time>2026-05-05T08:42:57.999Z</time></trkpt><trkpt lat="41.56370142348726" lon="19.793398760595604"><ele>717.8571428571428</ele><time>2026-05-05T08:42:58.999Z</time></trkpt><trkpt lat="41.56362433023548" lon="19.793452420107336"><ele>715.7142857142858</ele><time>2026-05-05T08:42:59.999Z</time></trkpt><trkpt lat="41.56355213548275" lon="19.793488506465735"><ele>713.5714285714286</ele><time>2026-05-05T08:43:00.999Z</time></trkpt><trkpt lat="41.56349419584924" lon="19.79353042341945"><ele>711.4285714285713</ele><time>2026-05-05T08:43:01.999Z</time></trkpt><trkpt lat="41.56343621505027" lon="19.793577275420336"><ele>709.2857142857142</ele><time>2026-05-05T08:43:02.999Z</time></trkpt><trkpt lat="41.56336933446097" lon="19.79358821766035"><ele>707.1428571428571</ele><time>2026-05-05T08:43:03.999Z</time></trkpt><trkpt lat="41.5633041780956" lon="19.7935672722474"><ele>705.0</ele><time>2026-05-05T08:43:04.999Z</time></trkpt><trkpt lat="41.563234016858736" lon="19.793561929407833"><ele>705.0</ele><time>2026-05-05T08:43:05.999Z</time></trkpt><trkpt lat="41.563168652237366" lon="19.793572158618236"><ele>705.0</ele><time>2026-05-05T08:43:06.999Z</time></trkpt><trkpt lat="41.5630710142897" lon="19.79356283159868"><ele>705.0</ele><time>2026-05-05T08:43:08.999Z</time></trkpt><trkpt lat="41.563001848368074" lon="19.793578749655964"><ele>705.0</ele><time>2026-05-05T08:43:10.999Z</time></trkpt><trkpt lat="41.562924065264184" lon="19.793567023242673"><ele>705.0</ele><time>2026-05-05T08:43:12.999Z</time></trkpt><trkpt lat="41.562838691955434" lon="19.793554391736336"><ele>705.0</ele><time>2026-05-05T08:43:15.999Z</time></trkpt><trkpt lat="41.562771428771846" lon="19.793531333788337"><ele>700.2</ele><time>2026-05-05T08:43:18.999Z</time></trkpt><trkpt lat="41.5626984322239" lon="19.793549403886825"><ele>695.4</ele><time>2026-05-05T08:43:21.999Z</time></trkpt><trkpt lat="41.562591016751036" lon="19.79354674183249"><ele>690.5999999999999</ele><time>2026-05-05T08:45:28.999Z</time></trkpt><trkpt lat="41.56248842482895" lon="19.793518472785557"><ele>685.8</ele><time>2026-05-05T08:45:30.999Z</time></trkpt><trkpt lat="41.56241856835285" lon="19.793411328761803"><ele>681.0</ele><time>2026-05-05T08:45:32.999Z</time></trkpt><trkpt lat="41.562399633232246" lon="19.793329496827567"><ele>681.0000000000001</ele><time>2026-05-05T08:45:33.999Z</time></trkpt><trkpt lat="41.56236640975859" lon="19.79323538984539"><ele>681.0</ele><time>2026-05-05T08:45:34.999Z</time></trkpt><trkpt lat="41.56231912546937" lon="19.7931460345187"><ele>681.0</ele><time>2026-05-05T08:45:35.999Z</time></trkpt><trkpt lat="41.562276249997254" lon="19.79306247396204"><ele>681.0</ele><time>2026-05-05T08:45:36.999Z</time></trkpt><trkpt lat="41.562229113899" lon="19.79300421497225"><ele>681.0</ele><time>2026-05-05T08:45:38.999Z</time></trkpt><trkpt lat="41.56222214165431" lon="19.792915251492325"><ele>681.0000000000001</ele><time>2026-05-05T08:45:40.999Z</time></trkpt><trkpt lat="41.5621904530122" lon="19.793006910834606"><ele>681.0</ele><time>2026-05-05T08:45:44.999Z</time></trkpt><trkpt lat="41.56228054337837" lon="19.793024916006466"><ele>681.0</ele><time>2026-05-05T08:46:39Z</time></trkpt><trkpt lat="41.562322212111084" lon="19.793104059215928"><ele>681.0</ele><time>2026-05-05T08:46:41Z</time></trkpt><trkpt lat="41.56238845420802" lon="19.79322030981906"><ele>681.0</ele><time>2026-05-05T08:46:43Z</time></trkpt><trkpt lat="41.56242072255765" lon="19.793297155290333"><ele>681.0</ele><time>2026-05-05T08:46:44Z</time></trkpt><trkpt lat="41.56245024282903" lon="19.793376993324728"><ele>681.0</ele><time>2026-05-05T08:46:45Z</time></trkpt><trkpt lat="41.56247625574129" lon="19.79346081682356"><ele>681.0</ele><time>2026-05-05T08:46:46Z</time></trkpt><trkpt lat="41.56255450641835" lon="19.793555812107748"><ele>680.3333333333334</ele><time>2026-05-05T08:46:48Z</time></trkpt><trkpt lat="41.562674752593004" lon="19.793557102715052"><ele>679.6666666666666</ele><time>2026-05-05T08:46:50Z</time></trkpt><trkpt lat="41.56274116638486" lon="19.793549195154256"><ele>679.0</ele><time>2026-05-05T08:46:51Z</time></trkpt><trkpt lat="41.562806026677265" lon="19.793550301246693"><ele>678.3333333333333</ele><time>2026-05-05T08:46:52Z</time></trkpt><trkpt lat="41.56287800972229" lon="19.793544321299667"><ele>677.6666666666666</ele><time>2026-05-05T08:46:53Z</time></trkpt><trkpt lat="41.56294787146416" lon="19.79354840496469"><ele>677.0</ele><time>2026-05-05T08:46:54Z</time></trkpt><trkpt lat="41.563026533153725" lon="19.79355433786827"><ele>681.6666666666666</ele><time>2026-05-05T08:46:55Z</time></trkpt><trkpt lat="41.56310849489592" lon="19.793547081269196"><ele>686.3333333333333</ele><time>2026-05-05T08:46:56Z</time></trkpt><trkpt lat="41.563180265198014" lon="19.793541427665673"><ele>691.0</ele><time>2026-05-05T08:46:57Z</time></trkpt><trkpt lat="41.56325129772746" lon="19.79353921480476"><ele>695.6666666666666</ele><time>2026-05-05T08:46:58Z</time></trkpt><trkpt lat="41.563363119548434" lon="19.793518234476977"><ele>700.3333333333334</ele><time>2026-05-05T08:47:00Z</time></trkpt><trkpt lat="41.56344004716941" lon="19.79353459861349"><ele>705.0</ele><time>2026-05-05T08:47:04Z</time></trkpt><trkpt lat="41.56353554038391" lon="19.79350569868128"><ele>705.0</ele><time>2026-05-05T08:47:06Z</time></trkpt><trkpt lat="41.56358782702673" lon="19.793437989892496"><ele>705.0</ele><time>2026-05-05T08:47:08Z</time></trkpt><trkpt lat="41.56363026523176" lon="19.793374841482212"><ele>705.0</ele><time>2026-05-05T08:47:11Z</time></trkpt><trkpt lat="41.56361893135125" lon="19.79345824075913"><ele>705.0</ele><time>2026-05-05T08:47:24Z</time></trkpt><trkpt lat="41.5635259177324" lon="19.79349824787269"><ele>705.0</ele><time>2026-05-05T08:47:26Z</time></trkpt><trkpt lat="41.5634418461974" lon="19.793547341107246"><ele>705.0</ele><time>2026-05-05T08:47:28Z</time></trkpt><trkpt lat="41.563368862134155" lon="19.793537393728098"><ele>705.0</ele><time>2026-05-05T08:48:26Z</time></trkpt><trkpt lat="41.563281153153454" lon="19.79355032718854"><ele>705.0</ele><time>2026-05-05T08:48:28Z</time></trkpt><trkpt lat="41.563200507243515" lon="19.793567091794745"><ele>705.0</ele><time>2026-05-05T08:48:30Z</time></trkpt><trkpt lat="41.563077034184154" lon="19.79354679304019"><ele>705.0</ele><time>2026-05-05T08:48:32Z</time></trkpt><trkpt lat="41.56300874719061" lon="19.79355274267991"><ele>705.0</ele><time>2026-05-05T08:48:33Z</time></trkpt><trkpt lat="41.56290209865047" lon="19.793566524088604"><ele>700.2</ele><time>2026-05-05T08:48:35Z</time></trkpt><trkpt lat="41.562837112961844" lon="19.793557948059213"><ele>695.4</ele><time>2026-05-05T08:49:13.999Z</time></trkpt><trkpt lat="41.56274079397448" lon="19.79354463485051"><ele>690.5999999999999</ele><time>2026-05-05T08:49:15.999Z</time></trkpt><trkpt lat="41.56263059621197" lon="19.79355087768952"><ele>685.8</ele><time>2026-05-05T08:49:17.999Z</time></trkpt><trkpt lat="41.562528490946185" lon="19.793548470090133"><ele>681.0</ele><time>2026-05-05T08:49:19.999Z</time></trkpt><trkpt lat="41.56243917354154" lon="19.793464999718225"><ele>681.0</ele><time>2026-05-05T08:49:21.999Z</time></trkpt><trkpt lat="41.56240449029019" lon="19.79336996924926"><ele>681.0</ele><time>2026-05-05T08:49:22.999Z</time></trkpt><trkpt lat="41.56239431729612" lon="19.793276242073667"><ele>681.0</ele><time>2026-05-05T08:49:23.999Z</time></trkpt><trkpt lat="41.562326096975255" lon="19.79311989285051"><ele>681.0</ele><time>2026-05-05T08:49:25.999Z</time></trkpt><trkpt lat="41.562261180894815" lon="19.793028267234032"><ele>681.0</ele><time>2026-05-05T08:49:26.999Z</time></trkpt><trkpt lat="41.562207699321014" lon="19.7929645973037"><ele>681.0</ele><time>2026-05-05T08:49:27.999Z</time></trkpt><trkpt lat="41.56226259323246" lon="19.79301806550836"><ele>681.0</ele><time>2026-05-05T08:49:36.999Z</time></trkpt><trkpt lat="41.56231229149843" lon="19.79310857938426"><ele>681.0</ele><time>2026-05-05T08:49:59.999Z</time></trkpt><trkpt lat="41.562375706778894" lon="19.793216379914895"><ele>681.0</ele><time>2026-05-05T08:50:01.999Z</time></trkpt><trkpt lat="41.56242622779261" lon="19.793356678178117"><ele>681.0</ele><time>2026-05-05T08:50:03.999Z</time></trkpt><trkpt lat="41.56247656747256" lon="19.793494587275724"><ele>680.1999999999999</ele><time>2026-05-05T08:50:05.999Z</time></trkpt><trkpt lat="41.56256160813055" lon="19.7935870622552"><ele>679.4</ele><time>2026-05-05T08:50:07.999Z</time></trkpt><trkpt lat="41.562688890703384" lon="19.793559234573213"><ele>678.6</ele><time>2026-05-05T08:50:09.999Z</time></trkpt><trkpt lat="41.56281796445092" lon="19.793549807347215"><ele>677.8</ele><time>2026-05-05T08:50:11.999Z</time></trkpt><trkpt lat="41.562883555810046" lon="19.79355840448877"><ele>677.0</ele><time>2026-05-05T08:50:12.999Z</time></trkpt><trkpt lat="41.562954356177116" lon="19.793567356146347"><ele>682.6</ele><time>2026-05-05T08:50:13.999Z</time></trkpt><trkpt lat="41.56302285050413" lon="19.793563962768097"><ele>688.2</ele><time>2026-05-05T08:50:14.999Z</time></trkpt><trkpt lat="41.56314719743682" lon="19.79355239649497"><ele>693.8</ele><time>2026-05-05T08:50:16.999Z</time></trkpt><trkpt lat="41.56327429545101" lon="19.793527868982352"><ele>699.4</ele><time>2026-05-05T08:50:18.999Z</time></trkpt><trkpt lat="41.563368422442366" lon="19.79350934407473"><ele>705.0</ele><time>2026-05-05T08:50:20.999Z</time></trkpt><trkpt lat="41.56349034658765" lon="19.793529040353597"><ele>705.0</ele><time>2026-05-05T08:50:22.999Z</time></trkpt><trkpt lat="41.563588069597955" lon="19.79345086702616"><ele>705.0</ele><time>2026-05-05T08:50:25Z</time></trkpt><trkpt lat="41.56363180502005" lon="19.79337311688127"><ele>705.0</ele><time>2026-05-05T08:50:28Z</time></trkpt><trkpt lat="41.56358905226329" lon="19.79347542107653"><ele>705.0</ele><time>2026-05-05T08:50:36Z</time></trkpt><trkpt lat="41.56352737718562" lon="19.793502090880686"><ele>705.0</ele><time>2026-05-05T08:50:37Z</time></trkpt><trkpt lat="41.563453644807744" lon="19.79352774788647"><ele>705.0</ele><time>2026-05-05T08:50:38Z</time></trkpt><trkpt lat="41.56337895617962" lon="19.793536940997065"><ele>705.0</ele><time>2026-05-05T08:50:39Z</time></trkpt><trkpt lat="41.563298043548706" lon="19.793544501388283"><ele>705.0</ele><time>2026-05-05T08:50:40Z</time></trkpt><trkpt lat="41.56318943659513" lon="19.793559198153815"><ele>705.0</ele><time>2026-05-05T08:50:41Z</time></trkpt><trkpt lat="41.563111372150836" lon="19.79357315427706"><ele>705.0</ele><time>2026-05-05T08:50:42Z</time></trkpt><trkpt lat="41.56303258205509" lon="19.79356529193107"><ele>705.0</ele><time>2026-05-05T08:50:43Z</time></trkpt><trkpt lat="41.5629546169682" lon="19.79357281269617"><ele>705.0</ele><time>2026-05-05T08:50:44Z</time></trkpt><trkpt lat="41.56288961237945" lon="19.793561444319725"><ele>700.2</ele><time>2026-05-05T08:50:45Z</time></trkpt><trkpt lat="41.56279702936872" lon="19.79346510337243"><ele>695.4</ele><time>2026-05-05T08:50:47Z</time></trkpt><trkpt lat="41.5627459694956" lon="19.793403805451486"><ele>690.5999999999999</ele><time>2026-05-05T08:50:48Z</time></trkpt><trkpt lat="41.56267322420265" lon="19.793299175072196"><ele>685.8</ele><time>2026-05-05T08:50:50Z</time></trkpt><trkpt lat="41.56262919256926" lon="19.793178458248878"><ele>681.0</ele><time>2026-05-05T08:50:52Z</time></trkpt><trkpt lat="41.562523881422855" lon="19.793127315802977"><ele>681.0</ele><time>2026-05-05T08:50:54Z</time></trkpt><trkpt lat="41.56242519542751" lon="19.793073338293066"><ele>681.0</ele><time>2026-05-05T08:50:56Z</time></trkpt><trkpt lat="41.562366053751944" lon="19.793004683800632"><ele>681.0</ele><time>2026-05-05T08:50:59Z</time></trkpt><trkpt lat="41.56230258647202" lon="19.792958798510995"><ele>681.0</ele><time>2026-05-05T08:51:01Z</time></trkpt><trkpt lat="41.56224036254685" lon="19.792943583448906"><ele>681.0</ele><time>2026-05-05T08:51:02.999Z</time></trkpt><trkpt lat="41.562160118977694" lon="19.792920816517793"><ele>681.0</ele><time>2026-05-05T08:51:04.999Z</time></trkpt><trkpt lat="41.5620703735332" lon="19.792866571675436"><ele>678.8</ele><time>2026-05-05T08:51:06.999Z</time></trkpt><trkpt lat="41.56197395486064" lon="19.792809624592174"><ele>676.5999999999999</ele><time>2026-05-05T08:51:08.999Z</time></trkpt><trkpt lat="41.56191743253344" lon="19.7927627220966"><ele>674.4</ele><time>2026-05-05T08:51:09.999Z</time></trkpt><trkpt lat="41.561854430741526" lon="19.792690112517143"><ele>672.2</ele><time>2026-05-05T08:51:10.999Z</time></trkpt><trkpt lat="41.56179568171918" lon="19.792645781002907"><ele>670.0</ele><time>2026-05-05T08:51:11.999Z</time></trkpt><trkpt lat="41.56167493785676" lon="19.792560453512444"><ele>670.0</ele><time>2026-05-05T08:51:13.999Z</time></trkpt><trkpt lat="41.56161885310211" lon="19.792519343053"><ele>670.0</ele><time>2026-05-05T08:51:14.999Z</time></trkpt><trkpt lat="41.56155655967009" lon="19.792469270938604"><ele>670.0</ele><time>2026-05-05T08:51:15.999Z</time></trkpt><trkpt lat="41.56145551559191" lon="19.792379163934417"><ele>670.0</ele><time>2026-05-05T08:51:17.999Z</time></trkpt><trkpt lat="41.561385087241554" lon="19.792334514964956"><ele>670.0</ele><time>2026-05-05T08:51:18.999Z</time></trkpt><trkpt lat="41.56130255989221" lon="19.79231485333993"><ele>670.0</ele><time>2026-05-05T08:51:19.999Z</time></trkpt><trkpt lat="41.56123760099138" lon="19.792293458325997"><ele>668.2</ele><time>2026-05-05T08:51:20.999Z</time></trkpt><trkpt lat="41.56114754559484" lon="19.792276979007962"><ele>666.4</ele><time>2026-05-05T08:51:21.999Z</time></trkpt><trkpt lat="41.56105429828754" lon="19.79226694773059"><ele>664.5999999999999</ele><time>2026-05-05T08:51:22.999Z</time></trkpt><trkpt lat="41.560972729952766" lon="19.792194807636275"><ele>662.8</ele><time>2026-05-05T08:51:23.999Z</time></trkpt><trkpt lat="41.56088831379605" lon="19.79210373680342"><ele>661.0</ele><time>2026-05-05T08:51:24.999Z</time></trkpt><trkpt lat="41.56081149182863" lon="19.792007845352536"><ele>661.0</ele><time>2026-05-05T08:51:25.999Z</time></trkpt><trkpt lat="41.56075723534045" lon="19.791905598762643"><ele>661.0</ele><time>2026-05-05T08:51:26.999Z</time></trkpt><trkpt lat="41.56071597154728" lon="19.791788318991397"><ele>661.0</ele><time>2026-05-05T08:51:27.999Z</time></trkpt><trkpt lat="41.56069331580106" lon="19.79165799123943"><ele>661.0</ele><time>2026-05-05T08:51:28.999Z</time></trkpt><trkpt lat="41.56066391304603" lon="19.79152787677642"><ele>661.0</ele><time>2026-05-05T08:51:29.999Z</time></trkpt><trkpt lat="41.56061181031308" lon="19.791411651946316"><ele>662.1999999999999</ele><time>2026-05-05T08:51:30.999Z</time></trkpt><trkpt lat="41.56055726258461" lon="19.7912958499375"><ele>663.4</ele><time>2026-05-05T08:51:31.999Z</time></trkpt><trkpt lat="41.560485710942025" lon="19.79118931026736"><ele>664.6</ele><time>2026-05-05T08:51:32.999Z</time></trkpt><trkpt lat="41.56040423609562" lon="19.791084229065426"><ele>665.8</ele><time>2026-05-05T08:51:33.999Z</time></trkpt><trkpt lat="41.56030394203746" lon="19.790994717158252"><ele>667.0</ele><time>2026-05-05T08:51:34.999Z</time></trkpt><trkpt lat="41.5602081603313" lon="19.790898778572647"><ele>667.4000000000001</ele><time>2026-05-05T08:51:35.999Z</time></trkpt><trkpt lat="41.56012247820174" lon="19.790821549690516"><ele>667.8000000000001</ele><time>2026-05-05T08:51:36.999Z</time></trkpt><trkpt lat="41.560032455409136" lon="19.790769568503105"><ele>668.2</ele><time>2026-05-05T08:51:37.999Z</time></trkpt><trkpt lat="41.559928021276306" lon="19.79072682219106"><ele>668.6</ele><time>2026-05-05T08:51:38.999Z</time></trkpt><trkpt lat="41.55982571744345" lon="19.7906767112751"><ele>669.0</ele><time>2026-05-05T08:51:39.999Z</time></trkpt><trkpt lat="41.559712881168174" lon="19.79062358672453"><ele>669.0</ele><time>2026-05-05T08:51:40.999Z</time></trkpt><trkpt lat="41.55960278202918" lon="19.79057232531365"><ele>669.0</ele><time>2026-05-05T08:51:41.999Z</time></trkpt><trkpt lat="41.559495059648434" lon="19.790512291856345"><ele>669.0</ele><time>2026-05-05T08:51:42.999Z</time></trkpt><trkpt lat="41.55938702280169" lon="19.790456845345016"><ele>669.0</ele><time>2026-05-05T08:51:43.999Z</time></trkpt><trkpt lat="41.55927122613497" lon="19.790415218319154"><ele>665.0</ele><time>2026-05-05T08:51:44.999Z</time></trkpt><trkpt lat="41.559163816887036" lon="19.790387579371327"><ele>661.0</ele><time>2026-05-05T08:51:45.999Z</time></trkpt><trkpt lat="41.55906591320485" lon="19.790351319221106"><ele>657.0</ele><time>2026-05-05T08:51:46.999Z</time></trkpt><trkpt lat="41.55897499406289" lon="19.790294993115445"><ele>653.0</ele><time>2026-05-05T08:51:47.999Z</time></trkpt><trkpt lat="41.558888036690995" lon="19.79024258389685"><ele>649.0</ele><time>2026-05-05T08:51:48.999Z</time></trkpt><trkpt lat="41.55882776204234" lon="19.790211621451927"><ele>650.4000000000001</ele><time>2026-05-05T08:51:49.999Z</time></trkpt><trkpt lat="41.55874982848017" lon="19.790163866764384"><ele>651.8</ele><time>2026-05-05T08:51:51.999Z</time></trkpt><trkpt lat="41.55867959501932" lon="19.790112328477864"><ele>653.2</ele><time>2026-05-05T08:51:53.999Z</time></trkpt><trkpt lat="41.55856540284308" lon="19.79003879537167"><ele>654.5999999999999</ele><time>2026-05-05T08:51:55.999Z</time></trkpt><trkpt lat="41.55846162643558" lon="19.79001181431164"><ele>656.0</ele><time>2026-05-05T08:51:57.999Z</time></trkpt><trkpt lat="41.55839402016478" lon="19.790009827693737"><ele>656.0</ele><time>2026-05-05T08:51:58.999Z</time></trkpt><trkpt lat="41.55832807014366" lon="19.790006372065694"><ele>656.0</ele><time>2026-05-05T08:51:59.999Z</time></trkpt><trkpt lat="41.55826035005794" lon="19.790006741805406"><ele>656.0</ele><time>2026-05-05T08:52:00.999Z</time></trkpt><trkpt lat="41.55815070181453" lon="19.78998720271812"><ele>656.0</ele><time>2026-05-05T08:52:02.999Z</time></trkpt><trkpt lat="41.558060440436115" lon="19.78996588406767"><ele>656.0</ele><time>2026-05-05T08:52:04.999Z</time></trkpt><trkpt lat="41.5579815863116" lon="19.789878126188952"><ele>656.0</ele><time>2026-05-05T08:52:13.999Z</time></trkpt><trkpt lat="41.55791622129168" lon="19.78981869419279"><ele>654.5999999999999</ele><time>2026-05-05T08:52:14.999Z</time></trkpt><trkpt lat="41.55783125278625" lon="19.78975713184922"><ele>653.2</ele><time>2026-05-05T08:52:15.999Z</time></trkpt><trkpt lat="41.55773253578259" lon="19.789712622063085"><ele>651.8</ele><time>2026-05-05T08:52:16.999Z</time></trkpt><trkpt lat="41.55762792134635" lon="19.789678845401383"><ele>650.4000000000001</ele><time>2026-05-05T08:52:17.999Z</time></trkpt><trkpt lat="41.55753223005076" lon="19.78963486204303"><ele>649.0</ele><time>2026-05-05T08:52:18.999Z</time></trkpt><trkpt lat="41.557451193140764" lon="19.789593150486958"><ele>649.0</ele><time>2026-05-05T08:52:19.999Z</time></trkpt><trkpt lat="41.55737130536715" lon="19.789595519591575"><ele>649.0</ele><time>2026-05-05T08:52:20.999Z</time></trkpt><trkpt lat="41.55728288412101" lon="19.78963942681362"><ele>649.0</ele><time>2026-05-05T08:52:21.999Z</time></trkpt><trkpt lat="41.55723118694236" lon="19.789715205839602"><ele>649.0</ele><time>2026-05-05T08:52:22.999Z</time></trkpt><trkpt lat="41.55718512207802" lon="19.78981976898187"><ele>649.0</ele><time>2026-05-05T08:52:23.999Z</time></trkpt><trkpt lat="41.55712906208697" lon="19.78991090144"><ele>649.0</ele><time>2026-05-05T08:52:24.999Z</time></trkpt><trkpt lat="41.557007122817936" lon="19.78995533087401"><ele>647.4000000000001</ele><time>2026-05-05T08:52:26.999Z</time></trkpt><trkpt lat="41.55692213406869" lon="19.78993890154246"><ele>645.8</ele><time>2026-05-05T08:52:27.999Z</time></trkpt><trkpt lat="41.55681792509546" lon="19.789893225556867"><ele>644.2</ele><time>2026-05-05T08:52:28.999Z</time></trkpt><trkpt lat="41.55669634172284" lon="19.789869141548614"><ele>642.5999999999999</ele><time>2026-05-05T08:52:29.999Z</time></trkpt><trkpt lat="41.556566761246266" lon="19.789864825056437"><ele>641.0</ele><time>2026-05-05T08:52:31Z</time></trkpt><trkpt lat="41.55644607585166" lon="19.789875994465426"><ele>641.0</ele><time>2026-05-05T08:52:32Z</time></trkpt><trkpt lat="41.556343140840674" lon="19.789887035219007"><ele>641.0</ele><time>2026-05-05T08:52:33Z</time></trkpt><trkpt lat="41.55627818700838" lon="19.789898390226277"><ele>641.0</ele><time>2026-05-05T08:52:34Z</time></trkpt><trkpt lat="41.55619591890824" lon="19.789923526049407"><ele>641.0</ele><time>2026-05-05T08:52:36Z</time></trkpt><trkpt lat="41.55616310975279" lon="19.790045704243514"><ele>641.0</ele><time>2026-05-05T08:52:38Z</time></trkpt><trkpt lat="41.5562415878603" lon="19.79015281183311"><ele>635.1999999999999</ele><time>2026-05-05T08:52:40Z</time></trkpt><trkpt lat="41.55630732155225" lon="19.79018340652785"><ele>629.4</ele><time>2026-05-05T08:52:41Z</time></trkpt><trkpt lat="41.55639687871932" lon="19.790193356189498"><ele>623.6</ele><time>2026-05-05T08:52:42Z</time></trkpt><trkpt lat="41.55650904896309" lon="19.79019288000409"><ele>617.8</ele><time>2026-05-05T08:52:43Z</time></trkpt><trkpt lat="41.55660382517289" lon="19.790193221036517"><ele>612.0</ele><time>2026-05-05T08:52:44Z</time></trkpt><trkpt lat="41.55667846677923" lon="19.790244220624334"><ele>612.0</ele><time>2026-05-05T08:52:45Z</time></trkpt><trkpt lat="41.556738965015796" lon="19.790329013771597"><ele>612.0</ele><time>2026-05-05T08:52:46Z</time></trkpt><trkpt lat="41.55681134790435" lon="19.790422670303624"><ele>612.0</ele><time>2026-05-05T08:52:47Z</time></trkpt><trkpt lat="41.5568949929315" lon="19.790520721893934"><ele>612.0</ele><time>2026-05-05T08:52:48Z</time></trkpt><trkpt lat="41.55695704328184" lon="19.790611291611857"><ele>612.0</ele><time>2026-05-05T08:52:49Z</time></trkpt><trkpt lat="41.55701025198297" lon="19.790705682633845"><ele>610.0</ele><time>2026-05-05T08:52:50Z</time></trkpt><trkpt lat="41.55706116278744" lon="19.790773762945744"><ele>608.0</ele><time>2026-05-05T08:52:51Z</time></trkpt><trkpt lat="41.55712031403015" lon="19.790833014406186"><ele>606.0</ele><time>2026-05-05T08:52:52Z</time></trkpt><trkpt lat="41.557206272452376" lon="19.7908582319144"><ele>604.0</ele><time>2026-05-05T08:52:53Z</time></trkpt><trkpt lat="41.55732766632515" lon="19.790869495417766"><ele>602.0</ele><time>2026-05-05T08:52:55Z</time></trkpt><trkpt lat="41.557338073025626" lon="19.79102451080464"><ele>602.0</ele><time>2026-05-05T08:52:57Z</time></trkpt><trkpt lat="41.55729452567852" lon="19.79111496003417"><ele>602.0</ele><time>2026-05-05T08:52:58Z</time></trkpt><trkpt lat="41.557248062533354" lon="19.791200571182678"><ele>602.0</ele><time>2026-05-05T08:52:59Z</time></trkpt><trkpt lat="41.557191276246094" lon="19.791277533061134"><ele>602.0</ele><time>2026-05-05T08:53:00Z</time></trkpt><trkpt lat="41.557099735683465" lon="19.79130481008586"><ele>602.0</ele><time>2026-05-05T08:53:02Z</time></trkpt><trkpt lat="41.55699483897018" lon="19.791234237477525"><ele>601.0</ele><time>2026-05-05T08:53:04Z</time></trkpt><trkpt lat="41.556914533488026" lon="19.79116612674276"><ele>600.0</ele><time>2026-05-05T08:53:05Z</time></trkpt><trkpt lat="41.55683987912322" lon="19.791080968716702"><ele>599.0</ele><time>2026-05-05T08:53:06Z</time></trkpt><trkpt lat="41.55677056167722" lon="19.790986955280466"><ele>598.0</ele><time>2026-05-05T08:53:07Z</time></trkpt><trkpt lat="41.55671893256856" lon="19.79089835456144"><ele>597.0</ele><time>2026-05-05T08:53:08Z</time></trkpt><trkpt lat="41.55666662343087" lon="19.790850173962948"><ele>596.0</ele><time>2026-05-05T08:53:09Z</time></trkpt><trkpt lat="41.55660186843847" lon="19.790871635003445"><ele>596.0</ele><time>2026-05-05T08:53:10Z</time></trkpt><trkpt lat="41.556526136760624" lon="19.790951363347574"><ele>596.0</ele><time>2026-05-05T08:53:11Z</time></trkpt><trkpt lat="41.55642091946101" lon="19.791032376451273"><ele>596.0</ele><time>2026-05-05T08:53:12Z</time></trkpt><trkpt lat="41.55633027273193" lon="19.79106268708375"><ele>596.0</ele><time>2026-05-05T08:53:13Z</time></trkpt><trkpt lat="41.55625176226793" lon="19.791057435732956"><ele>596.0</ele><time>2026-05-05T08:53:14Z</time></trkpt><trkpt lat="41.556157330437316" lon="19.79101713387507"><ele>597.8333333333333</ele><time>2026-05-05T08:53:15Z</time></trkpt><trkpt lat="41.55607702062557" lon="19.790962658389653"><ele>599.6666666666666</ele><time>2026-05-05T08:53:16Z</time></trkpt><trkpt lat="41.55600592489926" lon="19.790928635010957"><ele>601.5</ele><time>2026-05-05T08:53:17Z</time></trkpt><trkpt lat="41.55591452762934" lon="19.79091613119466"><ele>603.3333333333334</ele><time>2026-05-05T08:53:18Z</time></trkpt><trkpt lat="41.5558267165926" lon="19.790895040510883"><ele>605.1666666666667</ele><time>2026-05-05T08:53:19Z</time></trkpt><trkpt lat="41.55572861454842" lon="19.790862537792027"><ele>607.0</ele><time>2026-05-05T08:53:20Z</time></trkpt><trkpt lat="41.55565315199038" lon="19.790841717486323"><ele>607.0</ele><time>2026-05-05T08:53:21Z</time></trkpt><trkpt lat="41.555587248022206" lon="19.790850469218046"><ele>607.0</ele><time>2026-05-05T08:53:22Z</time></trkpt><trkpt lat="41.555519971704484" lon="19.790924675611663"><ele>607.0</ele><time>2026-05-05T08:53:23Z</time></trkpt><trkpt lat="41.55547365130442" lon="19.791019544751393"><ele>607.0</ele><time>2026-05-05T08:53:24Z</time></trkpt><trkpt lat="41.55541154663769" lon="19.791112943762215"><ele>607.0</ele><time>2026-05-05T08:53:25Z</time></trkpt><trkpt lat="41.55533764772556" lon="19.79115361704204"><ele>607.0</ele><time>2026-05-05T08:53:26Z</time></trkpt><trkpt lat="41.55525613726658" lon="19.791169189275454"><ele>601.8333333333334</ele><time>2026-05-05T08:53:27Z</time></trkpt><trkpt lat="41.55517849121431" lon="19.791173295737572"><ele>596.6666666666667</ele><time>2026-05-05T08:53:28Z</time></trkpt><trkpt lat="41.55508770777707" lon="19.7911681441407"><ele>591.5</ele><time>2026-05-05T08:53:29Z</time></trkpt><trkpt lat="41.55500058037125" lon="19.791129309353458"><ele>586.3333333333334</ele><time>2026-05-05T08:53:30Z</time></trkpt><trkpt lat="41.55492916819942" lon="19.791075515044895"><ele>581.1666666666666</ele><time>2026-05-05T08:53:31Z</time></trkpt><trkpt lat="41.5548634390736" lon="19.791065471345398"><ele>576.0</ele><time>2026-05-05T08:53:32Z</time></trkpt><trkpt lat="41.55480807868135" lon="19.791181533732868"><ele>576.0000000000001</ele><time>2026-05-05T08:53:34Z</time></trkpt><trkpt lat="41.55480383094714" lon="19.79127984073176"><ele>576.0</ele><time>2026-05-05T08:53:35Z</time></trkpt><trkpt lat="41.554810740831314" lon="19.791375429595547"><ele>576.0</ele><time>2026-05-05T08:53:36Z</time></trkpt><trkpt lat="41.55483731127919" lon="19.791462775011397"><ele>576.0</ele><time>2026-05-05T08:53:37Z</time></trkpt><trkpt lat="41.554871130681875" lon="19.791539942079698"><ele>576.0</ele><time>2026-05-05T08:53:38Z</time></trkpt><trkpt lat="41.55484960243732" lon="19.791620969090456"><ele>576.0000000000001</ele><time>2026-05-05T08:53:40Z</time></trkpt><trkpt lat="41.55478398301486" lon="19.791652650526615"><ele>576.0</ele><time>2026-05-05T08:53:42Z</time></trkpt><trkpt lat="41.5547109502906" lon="19.791686699792958"><ele>576.0</ele><time>2026-05-05T08:53:43Z</time></trkpt><trkpt lat="41.554620450715845" lon="19.791738902116332"><ele>576.0</ele><time>2026-05-05T08:53:44Z</time></trkpt><trkpt lat="41.554526731095926" lon="19.791788205319005"><ele>576.0</ele><time>2026-05-05T08:53:45Z</time></trkpt><trkpt lat="41.55445067773042" lon="19.791812432420247"><ele>576.0</ele><time>2026-05-05T08:53:46Z</time></trkpt><trkpt lat="41.554373165207274" lon="19.79179601169703"><ele>576.0</ele><time>2026-05-05T08:53:46.999Z</time></trkpt><trkpt lat="41.554284168246554" lon="19.791772313201744"><ele>576.0</ele><time>2026-05-05T08:53:47.999Z</time></trkpt><trkpt lat="41.55419512116016" lon="19.79173731502335"><ele>575.6666666666666</ele><time>2026-05-05T08:53:48.999Z</time></trkpt><trkpt lat="41.55410147477501" lon="19.791693610110407"><ele>575.3333333333334</ele><time>2026-05-05T08:53:49.999Z</time></trkpt><trkpt lat="41.55402725716709" lon="19.79168188936309"><ele>575.0</ele><time>2026-05-05T08:53:50.999Z</time></trkpt><trkpt lat="41.55394830213464" lon="19.79171514818777"><ele>574.6666666666667</ele><time>2026-05-05T08:53:51.999Z</time></trkpt><trkpt lat="41.55389019924337" lon="19.79179185982417"><ele>574.3333333333334</ele><time>2026-05-05T08:53:52.999Z</time></trkpt><trkpt lat="41.55384600486276" lon="19.791890041117878"><ele>574.0</ele><time>2026-05-05T08:53:53.999Z</time></trkpt><trkpt lat="41.55382759401867" lon="19.791988574339204"><ele>570.7142857142857</ele><time>2026-05-05T08:53:54.999Z</time></trkpt><trkpt lat="41.55382650506971" lon="19.792098474595445"><ele>567.4285714285714</ele><time>2026-05-05T08:53:55.999Z</time></trkpt><trkpt lat="41.55384435338062" lon="19.792192689821654"><ele>564.1428571428571</ele><time>2026-05-05T08:53:56.999Z</time></trkpt><trkpt lat="41.55387950747795" lon="19.792274878858795"><ele>560.8571428571429</ele><time>2026-05-05T08:53:57.999Z</time></trkpt><trkpt lat="41.553926213502415" lon="19.79233310200006"><ele>557.5714285714286</ele><time>2026-05-05T08:53:58.999Z</time></trkpt><trkpt lat="41.55398563577148" lon="19.792368147819314"><ele>554.2857142857142</ele><time>2026-05-05T08:53:59.999Z</time></trkpt><trkpt lat="41.55404968961622" lon="19.79237519130631"><ele>551.0</ele><time>2026-05-05T08:54:00.999Z</time></trkpt><trkpt lat="41.554183286479386" lon="19.792343739665128"><ele>551.0</ele><time>2026-05-05T08:54:02.999Z</time></trkpt><trkpt lat="41.55430760855171" lon="19.792361106286307"><ele>551.0</ele><time>2026-05-05T08:54:04.999Z</time></trkpt><trkpt lat="41.55433610810535" lon="19.792496472593783"><ele>551.0</ele><time>2026-05-05T08:54:06.999Z</time></trkpt><trkpt lat="41.55425365243003" lon="19.792607142818422"><ele>551.0</ele><time>2026-05-05T08:54:08.999Z</time></trkpt><trkpt lat="41.55411990898722" lon="19.792627657605276"><ele>551.0</ele><time>2026-05-05T08:54:10.999Z</time></trkpt><trkpt lat="41.554051069179295" lon="19.792654014503274"><ele>551.0</ele><time>2026-05-05T08:54:11.999Z</time></trkpt><trkpt lat="41.55398511063157" lon="19.79267684704024"><ele>551.0</ele><time>2026-05-05T08:54:12.999Z</time></trkpt><trkpt lat="41.55391541099809" lon="19.792709042632705"><ele>551.0</ele><time>2026-05-05T08:54:13.999Z</time></trkpt><trkpt lat="41.55383854323736" lon="19.792714142301357"><ele>551.0</ele><time>2026-05-05T08:54:14.999Z</time></trkpt><trkpt lat="41.55372700897723" lon="19.792668813315174"><ele>551.0</ele><time>2026-05-05T08:54:16.999Z</time></trkpt><trkpt lat="41.553624295011566" lon="19.792612198564953"><ele>546.8</ele><time>2026-05-05T08:54:18.999Z</time></trkpt><trkpt lat="41.55357874336546" lon="19.79269224345741"><ele>542.6</ele><time>2026-05-05T08:54:20.999Z</time></trkpt><trkpt lat="41.55364433474941" lon="19.792827224881314"><ele>538.4</ele><time>2026-05-05T08:54:22.999Z</time></trkpt><trkpt lat="41.55376670949676" lon="19.79289700926815"><ele>534.2</ele><time>2026-05-05T08:54:24.999Z</time></trkpt><trkpt lat="41.553835831657736" lon="19.792945836274633"><ele>530.0</ele><time>2026-05-05T08:54:25.999Z</time></trkpt><trkpt lat="41.55391439878024" lon="19.79300464115752"><ele>530.0</ele><time>2026-05-05T08:54:26.999Z</time></trkpt><trkpt lat="41.55399649193517" lon="19.793052384632645"><ele>530.0</ele><time>2026-05-05T08:54:27.999Z</time></trkpt><trkpt lat="41.55407064703395" lon="19.793085393371552"><ele>530.0</ele><time>2026-05-05T08:54:28.999Z</time></trkpt><trkpt lat="41.55413076823664" lon="19.793121471213606"><ele>530.0</ele><time>2026-05-05T08:54:29.999Z</time></trkpt><trkpt lat="41.55417205890415" lon="19.793251916132228"><ele>530.0</ele><time>2026-05-05T08:54:31.999Z</time></trkpt><trkpt lat="41.55411936162305" lon="19.79335157389268"><ele>530.0</ele><time>2026-05-05T08:54:33.999Z</time></trkpt><trkpt lat="41.55401282285574" lon="19.793399426735746"><ele>530.0</ele><time>2026-05-05T08:54:35.999Z</time></trkpt><trkpt lat="41.55393250619335" lon="19.79340657498818"><ele>530.0</ele><time>2026-05-05T08:54:37Z</time></trkpt><trkpt lat="41.55384314055638" lon="19.793396539869395"><ele>530.0</ele><time>2026-05-05T08:54:38Z</time></trkpt><trkpt lat="41.55376352424919" lon="19.793366614424585"><ele>530.0</ele><time>2026-05-05T08:54:39Z</time></trkpt><trkpt lat="41.55369779957662" lon="19.793316182066132"><ele>530.0</ele><time>2026-05-05T08:54:40Z</time></trkpt><trkpt lat="41.55363951735616" lon="19.793262016911267"><ele>530.0</ele><time>2026-05-05T08:54:41Z</time></trkpt><trkpt lat="41.553534081518286" lon="19.793242054729603"><ele>529.0</ele><time>2026-05-05T08:54:43Z</time></trkpt><trkpt lat="41.55347119502183" lon="19.793280221381572"><ele>528.0</ele><time>2026-05-05T08:54:44Z</time></trkpt><trkpt lat="41.55339381900919" lon="19.79335362740206"><ele>527.0</ele><time>2026-05-05T08:54:45Z</time></trkpt><trkpt lat="41.55331975818257" lon="19.79341526919074"><ele>526.0</ele><time>2026-05-05T08:54:46Z</time></trkpt><trkpt lat="41.55324487017008" lon="19.793440908066454"><ele>525.0</ele><time>2026-05-05T08:54:47Z</time></trkpt><trkpt lat="41.55318039564267" lon="19.79343092445737"><ele>524.0</ele><time>2026-05-05T08:54:48Z</time></trkpt><trkpt lat="41.55310989674985" lon="19.793408630722993"><ele>524.0</ele><time>2026-05-05T08:54:49Z</time></trkpt><trkpt lat="41.553030304663245" lon="19.793394184428884"><ele>524.0</ele><time>2026-05-05T08:54:50Z</time></trkpt><trkpt lat="41.552953198006975" lon="19.793403353223194"><ele>524.0</ele><time>2026-05-05T08:54:51Z</time></trkpt><trkpt lat="41.55285599557075" lon="19.79342175284575"><ele>524.0</ele><time>2026-05-05T08:54:52Z</time></trkpt><trkpt lat="41.55279607529853" lon="19.793463308216175"><ele>524.0</ele><time>2026-05-05T08:54:53Z</time></trkpt><trkpt lat="41.552736295519225" lon="19.793511585325398"><ele>524.0</ele><time>2026-05-05T08:54:54Z</time></trkpt><trkpt lat="41.55268506571788" lon="19.793574882619215"><ele>520.5</ele><time>2026-05-05T08:54:55Z</time></trkpt><trkpt lat="41.55262831929079" lon="19.793645146008796"><ele>517.0</ele><time>2026-05-05T08:54:56Z</time></trkpt><trkpt lat="41.55251941581934" lon="19.79367755414726"><ele>513.5</ele><time>2026-05-05T08:54:58Z</time></trkpt><trkpt lat="41.55245923959497" lon="19.793652026657686"><ele>510.0</ele><time>2026-05-05T08:54:59Z</time></trkpt><trkpt lat="41.552391449196136" lon="19.79361920326911"><ele>506.49999999999994</ele><time>2026-05-05T08:55:00Z</time></trkpt><trkpt lat="41.55230641428833" lon="19.793596413258218"><ele>503.0</ele><time>2026-05-05T08:55:01Z</time></trkpt><trkpt lat="41.55221511138172" lon="19.793556298513586"><ele>503.0</ele><time>2026-05-05T08:55:02Z</time></trkpt><trkpt lat="41.55215399424971" lon="19.793508050301554"><ele>502.99999999999994</ele><time>2026-05-05T08:55:03Z</time></trkpt><trkpt lat="41.5520194504213" lon="19.793503999090678"><ele>502.99999999999994</ele><time>2026-05-05T08:55:05Z</time></trkpt><trkpt lat="41.551947473602674" lon="19.793541231750865"><ele>503.0</ele><time>2026-05-05T08:55:06Z</time></trkpt><trkpt lat="41.55185771997129" lon="19.79355934642081"><ele>503.0</ele><time>2026-05-05T08:55:07Z</time></trkpt><trkpt lat="41.55175649100199" lon="19.793565848485"><ele>500.79999999999995</ele><time>2026-05-05T08:55:08Z</time></trkpt><trkpt lat="41.5516527085434" lon="19.793569927175188"><ele>498.59999999999997</ele><time>2026-05-05T08:55:09Z</time></trkpt><trkpt lat="41.55154636758169" lon="19.793584394518117"><ele>496.40000000000003</ele><time>2026-05-05T08:55:10Z</time></trkpt><trkpt lat="41.551449904236335" lon="19.79360939267638"><ele>494.20000000000005</ele><time>2026-05-05T08:55:11Z</time></trkpt><trkpt lat="41.55134588013077" lon="19.79364304787022"><ele>492.0</ele><time>2026-05-05T08:55:12Z</time></trkpt><trkpt lat="41.551235909916294" lon="19.793706013119092"><ele>496.75</ele><time>2026-05-05T08:55:13Z</time></trkpt><trkpt lat="41.55112124790603" lon="19.79380984578431"><ele>501.5</ele><time>2026-05-05T08:55:14Z</time></trkpt><trkpt lat="41.55101359580668" lon="19.79391489666796"><ele>506.25</ele><time>2026-05-05T08:55:15Z</time></trkpt><trkpt lat="41.550907290641305" lon="19.794007812982844"><ele>511.0</ele><time>2026-05-05T08:55:16Z</time></trkpt><trkpt lat="41.55080716992808" lon="19.79407585226697"><ele>511.0</ele><time>2026-05-05T08:55:17Z</time></trkpt><trkpt lat="41.55071623262294" lon="19.79414091200097"><ele>511.0</ele><time>2026-05-05T08:55:18Z</time></trkpt><trkpt lat="41.550624336414366" lon="19.79420871565125"><ele>511.0</ele><time>2026-05-05T08:55:19Z</time></trkpt><trkpt lat="41.55053530464578" lon="19.794297359407505"><ele>511.0</ele><time>2026-05-05T08:55:20Z</time></trkpt><trkpt lat="41.550469064630995" lon="19.79438136816992"><ele>511.0</ele><time>2026-05-05T08:55:21Z</time></trkpt><trkpt lat="41.550403333872666" lon="19.794482341273564"><ele>510.8</ele><time>2026-05-05T08:55:22Z</time></trkpt><trkpt lat="41.5503452910233" lon="19.794608262769763"><ele>510.6</ele><time>2026-05-05T08:55:23Z</time></trkpt><trkpt lat="41.55030048285495" lon="19.794729272282073"><ele>510.4</ele><time>2026-05-05T08:55:24Z</time></trkpt><trkpt lat="41.55026078061952" lon="19.7948401468937"><ele>510.2</ele><time>2026-05-05T08:55:25Z</time></trkpt><trkpt lat="41.55020462015549" lon="19.79490599414488"><ele>510.0</ele><time>2026-05-05T08:55:26Z</time></trkpt><trkpt lat="41.55012291999694" lon="19.794979575339884"><ele>510.0</ele><time>2026-05-05T08:55:27Z</time></trkpt><trkpt lat="41.55006381985403" lon="19.795074645773852"><ele>510.0</ele><time>2026-05-05T08:55:28Z</time></trkpt><trkpt lat="41.550030200044105" lon="19.795188515511036"><ele>510.0</ele><time>2026-05-05T08:55:29Z</time></trkpt><trkpt lat="41.5500032743909" lon="19.79532288325641"><ele>510.0</ele><time>2026-05-05T08:55:30Z</time></trkpt><trkpt lat="41.54995936449987" lon="19.7954486491408"><ele>510.0</ele><time>2026-05-05T08:55:31Z</time></trkpt><trkpt lat="41.54989645732112" lon="19.795553213780472"><ele>505.2</ele><time>2026-05-05T08:55:32Z</time></trkpt><trkpt lat="41.549825476034385" lon="19.795652045230916"><ele>500.4</ele><time>2026-05-05T08:55:33Z</time></trkpt><trkpt lat="41.549769276488334" lon="19.795747608116034"><ele>495.6</ele><time>2026-05-05T08:55:34Z</time></trkpt><trkpt lat="41.54972318390963" lon="19.79585230087416"><ele>490.8</ele><time>2026-05-05T08:55:35Z</time></trkpt><trkpt lat="41.549687137861355" lon="19.795990106315074"><ele>486.0</ele><time>2026-05-05T08:55:36Z</time></trkpt><trkpt lat="41.54966508402402" lon="19.79612624443006"><ele>485.0</ele><time>2026-05-05T08:55:37Z</time></trkpt><trkpt lat="41.54962328819584" lon="19.79624295954693"><ele>484.0</ele><time>2026-05-05T08:55:38Z</time></trkpt><trkpt lat="41.549561509743675" lon="19.796339222559418"><ele>483.0</ele><time>2026-05-05T08:55:39Z</time></trkpt><trkpt lat="41.54948643655618" lon="19.796416144733126"><ele>482.0</ele><time>2026-05-05T08:55:40Z</time></trkpt><trkpt lat="41.54939514477425" lon="19.796477941230357"><ele>481.0</ele><time>2026-05-05T08:55:41Z</time></trkpt><trkpt lat="41.54929690416584" lon="19.796520748211144"><ele>481.0</ele><time>2026-05-05T08:55:42Z</time></trkpt><trkpt lat="41.54919346297478" lon="19.796562079997255"><ele>481.0</ele><time>2026-05-05T08:55:43Z</time></trkpt><trkpt lat="41.54909845862738" lon="19.796607445118845"><ele>481.0</ele><time>2026-05-05T08:55:44Z</time></trkpt><trkpt lat="41.54901300989142" lon="19.7966580491234"><ele>481.0</ele><time>2026-05-05T08:55:45Z</time></trkpt><trkpt lat="41.54893990045162" lon="19.796699147808113"><ele>481.0</ele><time>2026-05-05T08:55:46Z</time></trkpt><trkpt lat="41.54885202239764" lon="19.7967580602316"><ele>481.0</ele><time>2026-05-05T08:55:47Z</time></trkpt><trkpt lat="41.54874631939155" lon="19.796802908347342"><ele>481.0</ele><time>2026-05-05T08:55:48Z</time></trkpt><trkpt lat="41.54863353831836" lon="19.796844624224303"><ele>481.0</ele><time>2026-05-05T08:55:49Z</time></trkpt><trkpt lat="41.5485151308902" lon="19.796870021295227"><ele>481.0</ele><time>2026-05-05T08:55:50Z</time></trkpt><trkpt lat="41.5484109093753" lon="19.796878927793642"><ele>480.20000000000005</ele><time>2026-05-05T08:55:51Z</time></trkpt><trkpt lat="41.54831344375107" lon="19.79686267450999"><ele>479.40000000000003</ele><time>2026-05-05T08:55:52Z</time></trkpt><trkpt lat="41.548214790589846" lon="19.796814663281527"><ele>478.6</ele><time>2026-05-05T08:55:53Z</time></trkpt><trkpt lat="41.548116013670246" lon="19.79675230332671"><ele>477.8</ele><time>2026-05-05T08:55:54Z</time></trkpt><trkpt lat="41.54803568479897" lon="19.796709449616934"><ele>477.0</ele><time>2026-05-05T08:55:55Z</time></trkpt><trkpt lat="41.54796307761169" lon="19.796691580352164"><ele>475.25</ele><time>2026-05-05T08:55:56Z</time></trkpt><trkpt lat="41.547877818808324" lon="19.79673140022435"><ele>473.5</ele><time>2026-05-05T08:55:57Z</time></trkpt><trkpt lat="41.54778340466867" lon="19.796791946311792"><ele>471.75</ele><time>2026-05-05T08:55:58Z</time></trkpt><trkpt lat="41.54767707902077" lon="19.796879298262066"><ele>470.0</ele><time>2026-05-05T08:55:59Z</time></trkpt><trkpt lat="41.54755732565301" lon="19.796972133613888"><ele>470.0</ele><time>2026-05-05T08:56:00Z</time></trkpt><trkpt lat="41.547438544611836" lon="19.79702561769988"><ele>470.0</ele><time>2026-05-05T08:56:01Z</time></trkpt><trkpt lat="41.54733804926285" lon="19.797084084577435"><ele>470.0</ele><time>2026-05-05T08:56:02Z</time></trkpt><trkpt lat="41.547238359981385" lon="19.797145016537854"><ele>470.0</ele><time>2026-05-05T08:56:03Z</time></trkpt><trkpt lat="41.54715460280084" lon="19.79719144696926"><ele>470.0</ele><time>2026-05-05T08:56:04Z</time></trkpt><trkpt lat="41.54704548779416" lon="19.79725648551094"><ele>470.6</ele><time>2026-05-05T08:56:05Z</time></trkpt><trkpt lat="41.54695110249472" lon="19.797284141658004"><ele>471.2</ele><time>2026-05-05T08:56:06Z</time></trkpt><trkpt lat="41.54684476526788" lon="19.79731003001274"><ele>471.79999999999995</ele><time>2026-05-05T08:56:07Z</time></trkpt><trkpt lat="41.54673166149536" lon="19.797334489198917"><ele>472.4</ele><time>2026-05-05T08:56:08Z</time></trkpt><trkpt lat="41.54662482369261" lon="19.797353641065833"><ele>473.0</ele><time>2026-05-05T08:56:09Z</time></trkpt><trkpt lat="41.54651998025419" lon="19.79738963515925"><ele>473.0</ele><time>2026-05-05T08:56:10Z</time></trkpt><trkpt lat="41.54643549042571" lon="19.797456902263043"><ele>472.99999999999994</ele><time>2026-05-05T08:56:11Z</time></trkpt><trkpt lat="41.5463634062529" lon="19.797552201109227"><ele>472.99999999999994</ele><time>2026-05-05T08:56:12Z</time></trkpt><trkpt lat="41.546285757499696" lon="19.797670338030464"><ele>473.0</ele><time>2026-05-05T08:56:13Z</time></trkpt><trkpt lat="41.546217596341144" lon="19.797755842612105"><ele>473.0</ele><time>2026-05-05T08:56:14Z</time></trkpt><trkpt lat="41.54615382462989" lon="19.797838167708747"><ele>470.8333333333333</ele><time>2026-05-05T08:56:15Z</time></trkpt><trkpt lat="41.54609454715776" lon="19.797896839326718"><ele>468.66666666666663</ele><time>2026-05-05T08:56:16Z</time></trkpt><trkpt lat="41.54603217076408" lon="19.79794321407778"><ele>466.5</ele><time>2026-05-05T08:56:17Z</time></trkpt><trkpt lat="41.545960681099494" lon="19.797962207615306"><ele>464.33333333333337</ele><time>2026-05-05T08:56:18Z</time></trkpt><trkpt lat="41.54587690338954" lon="19.797961361936157"><ele>462.1666666666667</ele><time>2026-05-05T08:56:19Z</time></trkpt><trkpt lat="41.54579106380498" lon="19.797988431295458"><ele>460.0</ele><time>2026-05-05T08:56:20Z</time></trkpt><trkpt lat="41.545692580008826" lon="19.798034057902207"><ele>460.0</ele><time>2026-05-05T08:56:21Z</time></trkpt><trkpt lat="41.54560155460479" lon="19.798096516997365"><ele>460.0</ele><time>2026-05-05T08:56:22Z</time></trkpt><trkpt lat="41.54552391123882" lon="19.798167532071748"><ele>460.0</ele><time>2026-05-05T08:56:23Z</time></trkpt><trkpt lat="41.54544853386655" lon="19.798265128985786"><ele>460.0</ele><time>2026-05-05T08:56:24Z</time></trkpt><trkpt lat="41.545366027111015" lon="19.798356572636983"><ele>460.0</ele><time>2026-05-05T08:56:25Z</time></trkpt><trkpt lat="41.54529829784557" lon="19.79843322517293"><ele>459.25</ele><time>2026-05-05T08:56:26Z</time></trkpt><trkpt lat="41.54521773564869" lon="19.79853832821985"><ele>458.5</ele><time>2026-05-05T08:56:27Z</time></trkpt><trkpt lat="41.54514195659409" lon="19.798655262470174"><ele>457.75</ele><time>2026-05-05T08:56:27.999Z</time></trkpt><trkpt lat="41.54507630489072" lon="19.798775571252097"><ele>457.0</ele><time>2026-05-05T08:56:28.999Z</time></trkpt><trkpt lat="41.54500964055739" lon="19.798908222239056"><ele>457.0</ele><time>2026-05-05T08:56:29.999Z</time></trkpt><trkpt lat="41.54494670073284" lon="19.79901501390804"><ele>457.0</ele><time>2026-05-05T08:56:30.999Z</time></trkpt><trkpt lat="41.544878424929045" lon="19.79913840318939"><ele>457.0</ele><time>2026-05-05T08:56:31.999Z</time></trkpt><trkpt lat="41.544808372777354" lon="19.799279745280177"><ele>457.0</ele><time>2026-05-05T08:56:32.999Z</time></trkpt><trkpt lat="41.54474663946945" lon="19.79944938800394"><ele>452.0</ele><time>2026-05-05T08:56:33.999Z</time></trkpt><trkpt lat="41.5447052408793" lon="19.799627482618053"><ele>447.0</ele><time>2026-05-05T08:56:34.999Z</time></trkpt><trkpt lat="41.54467179027743" lon="19.799777263965318"><ele>442.0</ele><time>2026-05-05T08:56:35.999Z</time></trkpt><trkpt lat="41.544642828889614" lon="19.799918845470206"><ele>437.0</ele><time>2026-05-05T08:56:36.999Z</time></trkpt><trkpt lat="41.54461805264014" lon="19.800035357446863"><ele>436.99999999999994</ele><time>2026-05-05T08:56:37.999Z</time></trkpt><trkpt lat="41.54458204487614" lon="19.8001223093705"><ele>437.0</ele><time>2026-05-05T08:56:38.999Z</time></trkpt><trkpt lat="41.544533889414915" lon="19.80019004841764"><ele>437.0</ele><time>2026-05-05T08:56:39.999Z</time></trkpt><trkpt lat="41.54448337538819" lon="19.800271867035644"><ele>437.0</ele><time>2026-05-05T08:56:40.999Z</time></trkpt><trkpt lat="41.54443127187335" lon="19.800380773418112"><ele>436.99999999999994</ele><time>2026-05-05T08:56:41.999Z</time></trkpt><trkpt lat="41.544356403829" lon="19.800494819344266"><ele>437.0</ele><time>2026-05-05T08:56:43Z</time></trkpt><trkpt lat="41.5442670762431" lon="19.800599643654106"><ele>437.3333333333333</ele><time>2026-05-05T08:56:44Z</time></trkpt><trkpt lat="41.54417312365216" lon="19.80069418290691"><ele>437.66666666666663</ele><time>2026-05-05T08:56:45Z</time></trkpt><trkpt lat="41.544103248717846" lon="19.800762505429997"><ele>438.0</ele><time>2026-05-05T08:56:46Z</time></trkpt><trkpt lat="41.54404122119643" lon="19.80082705932472"><ele>438.33333333333337</ele><time>2026-05-05T08:56:47Z</time></trkpt><trkpt lat="41.543991681897" lon="19.800901232344774"><ele>438.6666666666667</ele><time>2026-05-05T08:56:48Z</time></trkpt><trkpt lat="41.54398765244322" lon="19.800993537033108"><ele>439.0</ele><time>2026-05-05T08:56:49Z</time></trkpt><trkpt lat="41.543979257251394" lon="19.80108175049461"><ele>435.1666666666667</ele><time>2026-05-05T08:56:50Z</time></trkpt><trkpt lat="41.5439614478846" lon="19.80118256854253"><ele>431.33333333333337</ele><time>2026-05-05T08:56:51Z</time></trkpt><trkpt lat="41.543891291106945" lon="19.801273654980736"><ele>427.5</ele><time>2026-05-05T08:56:53Z</time></trkpt><trkpt lat="41.54380483636339" lon="19.80125525348987"><ele>423.66666666666663</ele><time>2026-05-05T08:56:55Z</time></trkpt><trkpt lat="41.54373217028731" lon="19.8012377865877"><ele>419.8333333333333</ele><time>2026-05-05T08:56:56Z</time></trkpt><trkpt lat="41.54365461018897" lon="19.801240398521692"><ele>416.0</ele><time>2026-05-05T08:56:57Z</time></trkpt><trkpt lat="41.54352708097971" lon="19.801266545523887"><ele>415.99999999999994</ele><time>2026-05-05T08:56:59Z</time></trkpt><trkpt lat="41.5434633075927" lon="19.801261995966495"><ele>416.0</ele><time>2026-05-05T08:57:00Z</time></trkpt><trkpt lat="41.543335031965064" lon="19.80125537929022"><ele>416.0</ele><time>2026-05-05T08:57:02Z</time></trkpt><trkpt lat="41.54326438122171" lon="19.80125312667978"><ele>416.0</ele><time>2026-05-05T08:57:03Z</time></trkpt><trkpt lat="41.5431845152264" lon="19.801282516163738"><ele>415.99999999999994</ele><time>2026-05-05T08:57:04Z</time></trkpt><trkpt lat="41.54312482720718" lon="19.801326356504504"><ele>416.0</ele><time>2026-05-05T08:57:05Z</time></trkpt><trkpt lat="41.54306281896198" lon="19.801391937658448"><ele>415.99999999999994</ele><time>2026-05-05T08:57:06Z</time></trkpt><trkpt lat="41.54297864709914" lon="19.80149332374593"><ele>416.0</ele><time>2026-05-05T08:57:07Z</time></trkpt><trkpt lat="41.542911568387645" lon="19.801562544812338"><ele>416.0</ele><time>2026-05-05T08:57:08Z</time></trkpt><trkpt lat="41.54284620489439" lon="19.801590909936277"><ele>416.0</ele><time>2026-05-05T08:57:09Z</time></trkpt><trkpt lat="41.542783120258576" lon="19.801585988878756"><ele>415.99999999999994</ele><time>2026-05-05T08:57:10Z</time></trkpt><trkpt lat="41.54270642819867" lon="19.80156491589915"><ele>416.0</ele><time>2026-05-05T08:57:11Z</time></trkpt><trkpt lat="41.54264203040942" lon="19.801538335476227"><ele>416.0</ele><time>2026-05-05T08:57:12Z</time></trkpt><trkpt lat="41.54258200264284" lon="19.80150761136957"><ele>416.0</ele><time>2026-05-05T08:57:13Z</time></trkpt><trkpt lat="41.542474139752855" lon="19.801500880970273"><ele>416.0</ele><time>2026-05-05T08:57:15Z</time></trkpt><trkpt lat="41.54235622819045" lon="19.801617222534688"><ele>416.0</ele><time>2026-05-05T08:57:17Z</time></trkpt><trkpt lat="41.54228417914319" lon="19.80167165089962"><ele>416.0</ele><time>2026-05-05T08:57:18Z</time></trkpt><trkpt lat="41.54220450264645" lon="19.801707500629995"><ele>416.0</ele><time>2026-05-05T08:57:18.999Z</time></trkpt><trkpt lat="41.542100506979814" lon="19.801701244849095"><ele>416.0</ele><time>2026-05-05T08:57:20.999Z</time></trkpt><trkpt lat="41.542039194043404" lon="19.80167953871459"><ele>416.0</ele><time>2026-05-05T08:57:21.999Z</time></trkpt><trkpt lat="41.54191396163834" lon="19.80171460781012"><ele>416.0</ele><time>2026-05-05T08:57:23.999Z</time></trkpt><trkpt lat="41.54183244373157" lon="19.801837788188646"><ele>416.0</ele><time>2026-05-05T08:57:25.999Z</time></trkpt><trkpt lat="41.54179041641034" lon="19.801942972721285"><ele>413.4</ele><time>2026-05-05T08:57:26.999Z</time></trkpt><trkpt lat="41.541745193167266" lon="19.802081009182274"><ele>410.8</ele><time>2026-05-05T08:57:27.999Z</time></trkpt><trkpt lat="41.541697729213304" lon="19.802198147093186"><ele>408.2</ele><time>2026-05-05T08:57:28.999Z</time></trkpt><trkpt lat="41.54164296553756" lon="19.80230957616704"><ele>405.59999999999997</ele><time>2026-05-05T08:57:29.999Z</time></trkpt><trkpt lat="41.54157319378574" lon="19.802385114993832"><ele>403.0</ele><time>2026-05-05T08:57:30.999Z</time></trkpt><trkpt lat="41.54148187436036" lon="19.802429869444936"><ele>403.0</ele><time>2026-05-05T08:57:31.999Z</time></trkpt><trkpt lat="41.54137962774006" lon="19.80246482047992"><ele>403.0</ele><time>2026-05-05T08:57:32.999Z</time></trkpt><trkpt lat="41.541284937049184" lon="19.802523960191053"><ele>403.0</ele><time>2026-05-05T08:57:33.999Z</time></trkpt><trkpt lat="41.54122776926453" lon="19.802609812203684"><ele>403.0</ele><time>2026-05-05T08:57:34.999Z</time></trkpt><trkpt lat="41.541178320211976" lon="19.802694854820274"><ele>403.0</ele><time>2026-05-05T08:57:35.999Z</time></trkpt><trkpt lat="41.54109824609831" lon="19.80275837966979"><ele>399.59999999999997</ele><time>2026-05-05T08:57:36.999Z</time></trkpt><trkpt lat="41.54100673006776" lon="19.802794210874957"><ele>396.2</ele><time>2026-05-05T08:57:37.999Z</time></trkpt><trkpt lat="41.5409031735148" lon="19.802827932443982"><ele>392.8</ele><time>2026-05-05T08:57:38.999Z</time></trkpt><trkpt lat="41.5407989190028" lon="19.802886747613858"><ele>389.4</ele><time>2026-05-05T08:57:39.999Z</time></trkpt><trkpt lat="41.54072576659623" lon="19.802944037516276"><ele>386.0</ele><time>2026-05-05T08:57:40.999Z</time></trkpt><trkpt lat="41.54061519309099" lon="19.803002974679604"><ele>386.0</ele><time>2026-05-05T08:57:42.999Z</time></trkpt><trkpt lat="41.54052515833752" lon="19.803113678220175"><ele>386.0</ele><time>2026-05-05T08:57:44.999Z</time></trkpt><trkpt lat="41.54049252208334" lon="19.803200380526352"><ele>386.0</ele><time>2026-05-05T08:57:45.999Z</time></trkpt><trkpt lat="41.54046307812584" lon="19.80328532245049"><ele>386.0</ele><time>2026-05-05T08:57:46.999Z</time></trkpt><trkpt lat="41.54045577824046" lon="19.80340498004551"><ele>386.0</ele><time>2026-05-05T08:57:48.999Z</time></trkpt><trkpt lat="41.54053864524668" lon="19.803481986591528"><ele>385.99999999999994</ele><time>2026-05-05T08:57:50.999Z</time></trkpt><trkpt lat="41.54060362973552" lon="19.80350794908201"><ele>386.0</ele><time>2026-05-05T08:57:51.999Z</time></trkpt><trkpt lat="41.54069113842135" lon="19.80349344730333"><ele>386.0</ele><time>2026-05-05T08:57:52.999Z</time></trkpt><trkpt lat="41.540767208704004" lon="19.803448260072336"><ele>386.0</ele><time>2026-05-05T08:57:53.999Z</time></trkpt><trkpt lat="41.54082931619894" lon="19.80341388493652"><ele>385.99999999999994</ele><time>2026-05-05T08:57:54.999Z</time></trkpt><trkpt lat="41.54090563653026" lon="19.80347359426601"><ele>386.0</ele><time>2026-05-05T08:57:56.999Z</time></trkpt><trkpt lat="41.540876351457406" lon="19.803586034814604"><ele>381.8333333333333</ele><time>2026-05-05T08:57:58.999Z</time></trkpt><trkpt lat="41.54079357292018" lon="19.803634968230632"><ele>377.66666666666663</ele><time>2026-05-05T08:58:00.999Z</time></trkpt><trkpt lat="41.5407271619669" lon="19.803673443588718"><ele>373.5</ele><time>2026-05-05T08:58:01.999Z</time></trkpt><trkpt lat="41.54065282864871" lon="19.803722516391808"><ele>369.3333333333333</ele><time>2026-05-05T08:58:02.999Z</time></trkpt><trkpt lat="41.5405765188867" lon="19.803764292317407"><ele>365.16666666666663</ele><time>2026-05-05T08:58:03.999Z</time></trkpt><trkpt lat="41.5404865475186" lon="19.803805954278463"><ele>361.0</ele><time>2026-05-05T08:58:04.999Z</time></trkpt><trkpt lat="41.54039861340521" lon="19.803861769967096"><ele>361.5</ele><time>2026-05-05T08:58:05.999Z</time></trkpt><trkpt lat="41.540340949047696" lon="19.80391653462131"><ele>362.0</ele><time>2026-05-05T08:58:06.999Z</time></trkpt><trkpt lat="41.5402720447609" lon="19.803947115928697"><ele>362.5</ele><time>2026-05-05T08:58:07.999Z</time></trkpt><trkpt lat="41.5401879446456" lon="19.803955229363428"><ele>363.0</ele><time>2026-05-05T08:58:08.999Z</time></trkpt><trkpt lat="41.54010694756664" lon="19.803913472704156"><ele>363.5</ele><time>2026-05-05T08:58:09.999Z</time></trkpt><trkpt lat="41.54003538174094" lon="19.803848244853285"><ele>364.0</ele><time>2026-05-05T08:58:10.999Z</time></trkpt><trkpt lat="41.53996506976538" lon="19.803812303230288"><ele>364.0</ele><time>2026-05-05T08:58:11.999Z</time></trkpt><trkpt lat="41.53987798033442" lon="19.80380984993174"><ele>364.0</ele><time>2026-05-05T08:58:12.999Z</time></trkpt><trkpt lat="41.539783431238696" lon="19.803832914473777"><ele>364.0</ele><time>2026-05-05T08:58:13.999Z</time></trkpt><trkpt lat="41.53969342246832" lon="19.80384750589514"><ele>364.0</ele><time>2026-05-05T08:58:14.999Z</time></trkpt><trkpt lat="41.539617821675165" lon="19.803842340648135"><ele>364.0</ele><time>2026-05-05T08:58:15.999Z</time></trkpt><trkpt lat="41.539553304407384" lon="19.80383952453827"><ele>364.0</ele><time>2026-05-05T08:58:16.999Z</time></trkpt><trkpt lat="41.53948325799035" lon="19.803876336053253"><ele>364.0</ele><time>2026-05-05T08:58:18.999Z</time></trkpt><trkpt lat="41.539494726251284" lon="19.8039896305723"><ele>364.0</ele><time>2026-05-05T08:58:20.999Z</time></trkpt><trkpt lat="41.539612007356325" lon="19.80410944180063"><ele>364.0</ele><time>2026-05-05T08:58:22.999Z</time></trkpt><trkpt lat="41.539681508755656" lon="19.80415426927679"><ele>364.0</ele><time>2026-05-05T08:58:23.999Z</time></trkpt><trkpt lat="41.53972362718084" lon="19.804267900433725"><ele>364.0</ele><time>2026-05-05T08:58:25.999Z</time></trkpt><trkpt lat="41.53965493136167" lon="19.804333845154844"><ele>364.0</ele><time>2026-05-05T08:58:27.999Z</time></trkpt><trkpt lat="41.53957874978462" lon="19.80431413166899"><ele>364.0</ele><time>2026-05-05T08:58:29.999Z</time></trkpt><trkpt lat="41.53946913403257" lon="19.804194893387287"><ele>364.0</ele><time>2026-05-05T08:58:31.999Z</time></trkpt><trkpt lat="41.53940808008037" lon="19.80411862718696"><ele>364.0</ele><time>2026-05-05T08:58:32.999Z</time></trkpt><trkpt lat="41.539333681525896" lon="19.8040802486443"><ele>364.0</ele><time>2026-05-05T08:58:33.999Z</time></trkpt><trkpt lat="41.53924127461908" lon="19.804053629272286"><ele>362.5</ele><time>2026-05-05T08:58:34.999Z</time></trkpt><trkpt lat="41.53916059933957" lon="19.804021396792443"><ele>361.0</ele><time>2026-05-05T08:58:35.999Z</time></trkpt><trkpt lat="41.53908128876041" lon="19.803993293040673"><ele>359.5</ele><time>2026-05-05T08:58:36.999Z</time></trkpt><trkpt lat="41.539001230411486" lon="19.80399782276156"><ele>358.0</ele><time>2026-05-05T08:58:37.999Z</time></trkpt><trkpt lat="41.53892319648827" lon="19.804042085905113"><ele>356.5</ele><time>2026-05-05T08:58:38.999Z</time></trkpt><trkpt lat="41.538840939349654" lon="19.80410717458948"><ele>355.0</ele><time>2026-05-05T08:58:39.999Z</time></trkpt><trkpt lat="41.53874981720657" lon="19.80417115449685"><ele>352.0</ele><time>2026-05-05T08:58:40.999Z</time></trkpt><trkpt lat="41.538660775145075" lon="19.804224152235204"><ele>349.0</ele><time>2026-05-05T08:58:41.999Z</time></trkpt><trkpt lat="41.53856893113683" lon="19.804290046830662"><ele>346.0</ele><time>2026-05-05T08:58:42.999Z</time></trkpt><trkpt lat="41.538482141500275" lon="19.804361431189506"><ele>343.0</ele><time>2026-05-05T08:58:43.999Z</time></trkpt><trkpt lat="41.538406481268346" lon="19.804409975762827"><ele>340.0</ele><time>2026-05-05T08:58:44.999Z</time></trkpt><trkpt lat="41.53833201020136" lon="19.804477145803396"><ele>340.0</ele><time>2026-05-05T08:58:45.999Z</time></trkpt><trkpt lat="41.53826379936361" lon="19.8045292884791"><ele>340.0</ele><time>2026-05-05T08:58:46.999Z</time></trkpt><trkpt lat="41.53820173799582" lon="19.804556879528445"><ele>340.0</ele><time>2026-05-05T08:58:47.999Z</time></trkpt><trkpt lat="41.53806993834213" lon="19.80459135622621"><ele>340.0</ele><time>2026-05-05T08:58:50Z</time></trkpt><trkpt lat="41.537949381943506" lon="19.804613116351646"><ele>340.0</ele><time>2026-05-05T08:58:52Z</time></trkpt><trkpt lat="41.53785251055812" lon="19.804668509211876"><ele>344.4</ele><time>2026-05-05T08:58:54Z</time></trkpt><trkpt lat="41.53780127022471" lon="19.804750311377788"><ele>348.8</ele><time>2026-05-05T08:58:56Z</time></trkpt><trkpt lat="41.53776939986519" lon="19.80488529506697"><ele>353.20000000000005</ele><time>2026-05-05T08:58:58Z</time></trkpt><trkpt lat="41.53769951466313" lon="19.80500644277795"><ele>357.6</ele><time>2026-05-05T08:59:00Z</time></trkpt><trkpt lat="41.537642065165215" lon="19.805071947348036"><ele>362.0</ele><time>2026-05-05T08:59:01Z</time></trkpt><trkpt lat="41.5375653331196" lon="19.805143984331153"><ele>358.5</ele><time>2026-05-05T08:59:02Z</time></trkpt><trkpt lat="41.537492622650895" lon="19.80519896836119"><ele>355.0</ele><time>2026-05-05T08:59:03Z</time></trkpt><trkpt lat="41.537414349031565" lon="19.805239492072303"><ele>351.5</ele><time>2026-05-05T08:59:04Z</time></trkpt><trkpt lat="41.53733654701581" lon="19.805284274912434"><ele>348.0</ele><time>2026-05-05T08:59:05Z</time></trkpt><trkpt lat="41.53726195521541" lon="19.805327075007565"><ele>344.5</ele><time>2026-05-05T08:59:06Z</time></trkpt><trkpt lat="41.53719845746427" lon="19.805360457174327"><ele>341.0</ele><time>2026-05-05T08:59:07Z</time></trkpt><trkpt lat="41.537122970360535" lon="19.805414795234398"><ele>341.0</ele><time>2026-05-05T08:59:08Z</time></trkpt><trkpt lat="41.53706664429935" lon="19.8054845121737"><ele>341.0</ele><time>2026-05-05T08:59:09Z</time></trkpt><trkpt lat="41.537019654873966" lon="19.80558446836307"><ele>341.0</ele><time>2026-05-05T08:59:10Z</time></trkpt><trkpt lat="41.536980246842894" lon="19.80568865742278"><ele>341.0</ele><time>2026-05-05T08:59:11Z</time></trkpt><trkpt lat="41.53692118584955" lon="19.805806109337166"><ele>341.0</ele><time>2026-05-05T08:59:12Z</time></trkpt><trkpt lat="41.53686140715365" lon="19.805901253222462"><ele>343.0</ele><time>2026-05-05T08:59:13Z</time></trkpt><trkpt lat="41.53678233616284" lon="19.80598082307453"><ele>345.0</ele><time>2026-05-05T08:59:14Z</time></trkpt><trkpt lat="41.536713830135945" lon="19.80603424527559"><ele>347.0</ele><time>2026-05-05T08:59:15Z</time></trkpt><trkpt lat="41.536636493179884" lon="19.80607798837454"><ele>349.0</ele><time>2026-05-05T08:59:16Z</time></trkpt><trkpt lat="41.5365737391766" lon="19.806128250126374"><ele>351.0</ele><time>2026-05-05T08:59:17Z</time></trkpt><trkpt lat="41.536523414089366" lon="19.806182831967057"><ele>353.0</ele><time>2026-05-05T08:59:18Z</time></trkpt><trkpt lat="41.53645593439905" lon="19.806232657222367"><ele>353.0</ele><time>2026-05-05T08:59:19Z</time></trkpt><trkpt lat="41.53636397534409" lon="19.80631780503576"><ele>353.0</ele><time>2026-05-05T08:59:21Z</time></trkpt><trkpt lat="41.536324865754786" lon="19.80638704258082"><ele>353.0</ele><time>2026-05-05T08:59:22Z</time></trkpt><trkpt lat="41.53626641206407" lon="19.8064713112645"><ele>353.0</ele><time>2026-05-05T08:59:23Z</time></trkpt><trkpt lat="41.53619593207644" lon="19.806555581302156"><ele>353.0</ele><time>2026-05-05T08:59:24Z</time></trkpt><trkpt lat="41.53613931658765" lon="19.8066247613726"><ele>353.0</ele><time>2026-05-05T08:59:25Z</time></trkpt><trkpt lat="41.536093172405245" lon="19.806724417309468"><ele>356.33333333333337</ele><time>2026-05-05T08:59:26Z</time></trkpt><trkpt lat="41.53606420420082" lon="19.806830876046742"><ele>359.6666666666667</ele><time>2026-05-05T08:59:27Z</time></trkpt><trkpt lat="41.53605554736181" lon="19.80692069567173"><ele>363.0</ele><time>2026-05-05T08:59:28Z</time></trkpt><trkpt lat="41.5360344739934" lon="19.80703473179757"><ele>366.3333333333333</ele><time>2026-05-05T08:59:29Z</time></trkpt><trkpt lat="41.53599535191873" lon="19.807120320344477"><ele>369.66666666666663</ele><time>2026-05-05T08:59:30Z</time></trkpt><trkpt lat="41.53595266972628" lon="19.807208624253345"><ele>373.0</ele><time>2026-05-05T08:59:31Z</time></trkpt><trkpt lat="41.53588892573089" lon="19.807313120893113"><ele>373.0</ele><time>2026-05-05T08:59:32Z</time></trkpt><trkpt lat="41.53583055837104" lon="19.807415518993647"><ele>373.0</ele><time>2026-05-05T08:59:33Z</time></trkpt><trkpt lat="41.53576959561545" lon="19.80751500627216"><ele>373.0</ele><time>2026-05-05T08:59:34Z</time></trkpt><trkpt lat="41.53571056474931" lon="19.80759460945215"><ele>373.0</ele><time>2026-05-05T08:59:35Z</time></trkpt><trkpt lat="41.53562293982858" lon="19.807663782171865"><ele>373.0</ele><time>2026-05-05T08:59:36Z</time></trkpt><trkpt lat="41.53554108664144" lon="19.807722938176415"><ele>371.59999999999997</ele><time>2026-05-05T08:59:37Z</time></trkpt><trkpt lat="41.53544784228719" lon="19.807807027337105"><ele>370.2</ele><time>2026-05-05T08:59:38Z</time></trkpt><trkpt lat="41.5353590979395" lon="19.807893345156398"><ele>368.8</ele><time>2026-05-05T08:59:38.999Z</time></trkpt><trkpt lat="41.535281132112424" lon="19.807976564962487"><ele>367.4</ele><time>2026-05-05T08:59:39.999Z</time></trkpt><trkpt lat="41.53521879411359" lon="19.808067297766414"><ele>366.0</ele><time>2026-05-05T08:59:40.999Z</time></trkpt><trkpt lat="41.53518321545851" lon="19.808156861305857"><ele>368.7142857142857</ele><time>2026-05-05T08:59:41.999Z</time></trkpt><trkpt lat="41.535142747345" lon="19.808236047301964"><ele>371.42857142857144</ele><time>2026-05-05T08:59:42.999Z</time></trkpt><trkpt lat="41.535084693037" lon="19.80833082746465"><ele>374.1428571428571</ele><time>2026-05-05T08:59:43.999Z</time></trkpt><trkpt lat="41.53503089405595" lon="19.808381041594426"><ele>376.8571428571429</ele><time>2026-05-05T08:59:44.999Z</time></trkpt><trkpt lat="41.5349783385786" lon="19.808464072734935"><ele>379.57142857142856</ele><time>2026-05-05T08:59:45.999Z</time></trkpt><trkpt lat="41.534928000964186" lon="19.808529326093677"><ele>382.2857142857143</ele><time>2026-05-05T08:59:46.999Z</time></trkpt><trkpt lat="41.53487003230317" lon="19.808576805139936"><ele>385.0</ele><time>2026-05-05T08:59:47.999Z</time></trkpt><trkpt lat="41.53479656857152" lon="19.808652669692137"><ele>385.0</ele><time>2026-05-05T08:59:49.999Z</time></trkpt><trkpt lat="41.534805319818275" lon="19.80881298275052"><ele>385.0</ele><time>2026-05-05T08:59:51.999Z</time></trkpt><trkpt lat="41.53481840233594" lon="19.80892601291196"><ele>385.0</ele><time>2026-05-05T08:59:52.999Z</time></trkpt><trkpt lat="41.534810174765546" lon="19.80904813011251"><ele>385.0</ele><time>2026-05-05T08:59:53.999Z</time></trkpt><trkpt lat="41.53478477833277" lon="19.809158572032175"><ele>385.0</ele><time>2026-05-05T08:59:54.999Z</time></trkpt><trkpt lat="41.534769818273915" lon="19.80930012868565"><ele>384.33333333333337</ele><time>2026-05-05T08:59:55.999Z</time></trkpt><trkpt lat="41.534726853117675" lon="19.80943742382271"><ele>383.6666666666667</ele><time>2026-05-05T08:59:57.999Z</time></trkpt><trkpt lat="41.53462926134903" lon="19.809474081554228"><ele>383.0</ele><time>2026-05-05T08:59:59.999Z</time></trkpt><trkpt lat="41.534566389404226" lon="19.809512031266284"><ele>382.33333333333337</ele><time>2026-05-05T09:00:00.999Z</time></trkpt><trkpt lat="41.53450567049988" lon="19.80957041893136"><ele>381.6666666666667</ele><time>2026-05-05T09:00:01.999Z</time></trkpt><trkpt lat="41.53446456997633" lon="19.809647741024033"><ele>381.0</ele><time>2026-05-05T09:00:02.999Z</time></trkpt><trkpt lat="41.53443772277979" lon="19.809761277447976"><ele>386.0</ele><time>2026-05-05T09:00:03.999Z</time></trkpt><trkpt lat="41.53442015974848" lon="19.80987571288242"><ele>391.0</ele><time>2026-05-05T09:00:04.999Z</time></trkpt><trkpt lat="41.53439561023446" lon="19.809982150850622"><ele>396.0</ele><time>2026-05-05T09:00:05.999Z</time></trkpt><trkpt lat="41.534355426646556" lon="19.810094264393893"><ele>401.0</ele><time>2026-05-05T09:00:06.999Z</time></trkpt><trkpt lat="41.534295573032765" lon="19.810191283465066"><ele>406.0</ele><time>2026-05-05T09:00:07.999Z</time></trkpt><trkpt lat="41.53423453094364" lon="19.810310907981023"><ele>406.0</ele><time>2026-05-05T09:00:08.999Z</time></trkpt><trkpt lat="41.53419824625649" lon="19.810429081123754"><ele>406.0</ele><time>2026-05-05T09:00:09.999Z</time></trkpt><trkpt lat="41.53418132311636" lon="19.810519413428526"><ele>406.0</ele><time>2026-05-05T09:00:10.999Z</time></trkpt><trkpt lat="41.53416378559861" lon="19.810620450382572"><ele>406.0</ele><time>2026-05-05T09:00:11.999Z</time></trkpt><trkpt lat="41.534090873383796" lon="19.810707145611396"><ele>406.0</ele><time>2026-05-05T09:00:13.999Z</time></trkpt><trkpt lat="41.53397673554956" lon="19.810758983164867"><ele>406.00000000000006</ele><time>2026-05-05T09:00:15.999Z</time></trkpt><trkpt lat="41.53390263741777" lon="19.810771090279708"><ele>406.0</ele><time>2026-05-05T09:00:16.999Z</time></trkpt><trkpt lat="41.53382975769087" lon="19.8107719020712"><ele>406.0</ele><time>2026-05-05T09:00:17.999Z</time></trkpt><trkpt lat="41.533747208236456" lon="19.810782134344613"><ele>406.0</ele><time>2026-05-05T09:00:18.999Z</time></trkpt><trkpt lat="41.533683738893714" lon="19.810809622213174"><ele>406.00000000000006</ele><time>2026-05-05T09:00:19.999Z</time></trkpt><trkpt lat="41.533601181538984" lon="19.810840073379243"><ele>406.0</ele><time>2026-05-05T09:00:21.999Z</time></trkpt><trkpt lat="41.533564758732844" lon="19.81074835368087"><ele>409.6666666666667</ele><time>2026-05-05T09:00:24.999Z</time></trkpt><trkpt lat="41.53357258162019" lon="19.81066202157085"><ele>413.33333333333337</ele><time>2026-05-05T09:00:26.999Z</time></trkpt><trkpt lat="41.53360105645747" lon="19.8105561230666"><ele>417.0</ele><time>2026-05-05T09:00:28.999Z</time></trkpt><trkpt lat="41.53360743902968" lon="19.81043788406985"><ele>420.66666666666663</ele><time>2026-05-05T09:00:30.999Z</time></trkpt><trkpt lat="41.53360388891358" lon="19.810295906402214"><ele>424.3333333333333</ele><time>2026-05-05T09:00:32.999Z</time></trkpt><trkpt lat="41.5336172439073" lon="19.81016835944531"><ele>428.0</ele><time>2026-05-05T09:00:34.999Z</time></trkpt><trkpt lat="41.533649355377726" lon="19.810055615700016"><ele>429.66666666666663</ele><time>2026-05-05T09:00:36.999Z</time></trkpt><trkpt lat="41.53366414451288" lon="19.809929674640212"><ele>431.3333333333333</ele><time>2026-05-05T09:00:38.999Z</time></trkpt><trkpt lat="41.53366249827774" lon="19.809836801728398"><ele>433.0</ele><time>2026-05-05T09:00:39.999Z</time></trkpt><trkpt lat="41.53365510859316" lon="19.809734321195606"><ele>434.66666666666663</ele><time>2026-05-05T09:00:40.999Z</time></trkpt><trkpt lat="41.53364934259205" lon="19.809593439921738"><ele>436.3333333333333</ele><time>2026-05-05T09:00:41.999Z</time></trkpt><trkpt lat="41.53365651888916" lon="19.809465889275966"><ele>438.0</ele><time>2026-05-05T09:00:42.999Z</time></trkpt><trkpt lat="41.53365333796622" lon="19.80933896570557"><ele>438.0</ele><time>2026-05-05T09:00:44.999Z</time></trkpt><trkpt lat="41.53355338180517" lon="19.8093397867597"><ele>437.99999999999994</ele><time>2026-05-05T09:00:46.999Z</time></trkpt><trkpt lat="41.533488334569775" lon="19.809411423772"><ele>437.99999999999994</ele><time>2026-05-05T09:00:47.999Z</time></trkpt><trkpt lat="41.53343380437559" lon="19.809499626599344"><ele>438.0</ele><time>2026-05-05T09:00:48.999Z</time></trkpt><trkpt lat="41.533372707311656" lon="19.809610762084088"><ele>438.0</ele><time>2026-05-05T09:00:49.999Z</time></trkpt><trkpt lat="41.53333637365269" lon="19.809724746736375"><ele>438.0</ele><time>2026-05-05T09:00:50.999Z</time></trkpt><trkpt lat="41.533313566378425" lon="19.80986298947891"><ele>437.99999999999994</ele><time>2026-05-05T09:00:51.999Z</time></trkpt><trkpt lat="41.533286879731556" lon="19.809964948346213"><ele>437.99999999999994</ele><time>2026-05-05T09:00:52.999Z</time></trkpt><trkpt lat="41.53324396982841" lon="19.810038120548597"><ele>438.0</ele><time>2026-05-05T09:00:53.999Z</time></trkpt><trkpt lat="41.533112850732635" lon="19.810083528404842"><ele>438.0</ele><time>2026-05-05T09:00:56Z</time></trkpt><trkpt lat="41.53306452196309" lon="19.810146026529406"><ele>436.0</ele><time>2026-05-05T09:00:58Z</time></trkpt><trkpt lat="41.53299896822342" lon="19.810254540264125"><ele>433.99999999999994</ele><time>2026-05-05T09:01:00Z</time></trkpt><trkpt lat="41.53290705595692" lon="19.81034128986363"><ele>431.99999999999994</ele><time>2026-05-05T09:01:02Z</time></trkpt><trkpt lat="41.53285750292287" lon="19.810418311170984"><ele>430.0</ele><time>2026-05-05T09:01:05Z</time></trkpt><trkpt lat="41.53277298196712" lon="19.810496032614303"><ele>428.0</ele><time>2026-05-05T09:01:09Z</time></trkpt><trkpt lat="41.5326669555605" lon="19.81057253376628"><ele>431.3333333333333</ele><time>2026-05-05T09:01:11Z</time></trkpt><trkpt lat="41.532607196827385" lon="19.81061767950104"><ele>434.66666666666663</ele><time>2026-05-05T09:01:12Z</time></trkpt><trkpt lat="41.532543885935944" lon="19.81065208241414"><ele>438.0</ele><time>2026-05-05T09:01:13Z</time></trkpt><trkpt lat="41.53242697765752" lon="19.810688344611645"><ele>441.33333333333337</ele><time>2026-05-05T09:01:15Z</time></trkpt><trkpt lat="41.5323524635311" lon="19.810637951816226"><ele>444.6666666666667</ele><time>2026-05-05T09:01:17Z</time></trkpt><trkpt lat="41.532349775617675" lon="19.81053430026364"><ele>448.0</ele><time>2026-05-05T09:01:19Z</time></trkpt><trkpt lat="41.53236962820012" lon="19.810390944770568"><ele>448.00000000000006</ele><time>2026-05-05T09:01:21Z</time></trkpt><trkpt lat="41.53231878567453" lon="19.81029643554367"><ele>448.0</ele><time>2026-05-05T09:01:23Z</time></trkpt><trkpt lat="41.532232155552514" lon="19.810294588868718"><ele>448.0</ele><time>2026-05-05T09:01:25Z</time></trkpt><trkpt lat="41.532198892571245" lon="19.810455001470068"><ele>448.0</ele><time>2026-05-05T09:01:27Z</time></trkpt><trkpt lat="41.53218543057374" lon="19.8105399895143"><ele>448.00000000000006</ele><time>2026-05-05T09:01:28Z</time></trkpt><trkpt lat="41.53212149438732" lon="19.81058356650788"><ele>448.0</ele><time>2026-05-05T09:01:30Z</time></trkpt><trkpt lat="41.53203200124105" lon="19.8105213366647"><ele>455.5</ele><time>2026-05-05T09:01:32Z</time></trkpt><trkpt lat="41.531974561841984" lon="19.810359680179086"><ele>463.0</ele><time>2026-05-05T09:01:34Z</time></trkpt><trkpt lat="41.53191590709356" lon="19.810255367441194"><ele>470.5</ele><time>2026-05-05T09:01:35Z</time></trkpt><trkpt lat="41.53183879302747" lon="19.810153517747857"><ele>478.0</ele><time>2026-05-05T09:01:36Z</time></trkpt><trkpt lat="41.531747774149714" lon="19.810054364095016"><ele>479.33333333333337</ele><time>2026-05-05T09:01:37Z</time></trkpt><trkpt lat="41.53166320122347" lon="19.809971674672752"><ele>480.6666666666667</ele><time>2026-05-05T09:01:38Z</time></trkpt><trkpt lat="41.531606637783945" lon="19.809888893367525"><ele>482.0</ele><time>2026-05-05T09:01:39Z</time></trkpt><trkpt lat="41.53158775371926" lon="19.80980282425439"><ele>483.33333333333337</ele><time>2026-05-05T09:01:40Z</time></trkpt><trkpt lat="41.53159847214464" lon="19.809708219557812"><ele>484.6666666666667</ele><time>2026-05-05T09:01:41Z</time></trkpt><trkpt lat="41.5316428638022" lon="19.809605716104837"><ele>486.0</ele><time>2026-05-05T09:01:42Z</time></trkpt><trkpt lat="41.531714867155394" lon="19.80949020670831"><ele>486.0</ele><time>2026-05-05T09:01:43Z</time></trkpt><trkpt lat="41.53180620930742" lon="19.809398955640955"><ele>486.0</ele><time>2026-05-05T09:01:44Z</time></trkpt><trkpt lat="41.53188755708521" lon="19.809322945884762"><ele>486.0</ele><time>2026-05-05T09:01:45Z</time></trkpt><trkpt lat="41.53195302869003" lon="19.809211159865857"><ele>486.0</ele><time>2026-05-05T09:01:46Z</time></trkpt><trkpt lat="41.531981947291875" lon="19.80908378703241"><ele>486.0</ele><time>2026-05-05T09:01:47Z</time></trkpt><trkpt lat="41.532012051906506" lon="19.80894301571434"><ele>487.3333333333333</ele><time>2026-05-05T09:01:48Z</time></trkpt><trkpt lat="41.53204254042419" lon="19.80883102879344"><ele>488.66666666666663</ele><time>2026-05-05T09:01:49Z</time></trkpt><trkpt lat="41.53206023474295" lon="19.80873176482438"><ele>490.0</ele><time>2026-05-05T09:01:50Z</time></trkpt><trkpt lat="41.53208593740749" lon="19.808612409478872"><ele>491.3333333333333</ele><time>2026-05-05T09:01:51Z</time></trkpt><trkpt lat="41.53212503439485" lon="19.808485968017134"><ele>492.66666666666663</ele><time>2026-05-05T09:01:52Z</time></trkpt><trkpt lat="41.53217793815637" lon="19.808394469442227"><ele>494.0</ele><time>2026-05-05T09:01:53Z</time></trkpt><trkpt lat="41.532226191433146" lon="19.8083132074517"><ele>493.99999999999994</ele><time>2026-05-05T09:01:54Z</time></trkpt><trkpt lat="41.532268693830694" lon="19.808213784526792"><ele>494.0</ele><time>2026-05-05T09:01:55Z</time></trkpt><trkpt lat="41.53231112900031" lon="19.808108790841857"><ele>494.0</ele><time>2026-05-05T09:01:56Z</time></trkpt><trkpt lat="41.532355304339646" lon="19.808018191573172"><ele>494.0</ele><time>2026-05-05T09:01:57Z</time></trkpt><trkpt lat="41.53241604089025" lon="19.807935078374246"><ele>493.99999999999994</ele><time>2026-05-05T09:01:58Z</time></trkpt><trkpt lat="41.532482043017204" lon="19.80784997132413"><ele>494.0</ele><time>2026-05-05T09:01:59Z</time></trkpt><trkpt lat="41.53254470758033" lon="19.8077540276367"><ele>502.3333333333333</ele><time>2026-05-05T09:02:00Z</time></trkpt><trkpt lat="41.53260062297478" lon="19.807655951804875"><ele>510.66666666666663</ele><time>2026-05-05T09:02:01Z</time></trkpt><trkpt lat="41.53265477404666" lon="19.807558348550966"><ele>519.0</ele><time>2026-05-05T09:02:02Z</time></trkpt><trkpt lat="41.53271707643996" lon="19.80746487996019"><ele>527.3333333333334</ele><time>2026-05-05T09:02:03Z</time></trkpt><trkpt lat="41.53276086807618" lon="19.807393366738225"><ele>535.6666666666667</ele><time>2026-05-05T09:02:04Z</time></trkpt><trkpt lat="41.53282281135779" lon="19.807338476540153"><ele>544.0</ele><time>2026-05-05T09:02:07Z</time></trkpt><trkpt lat="41.53274773289603" lon="19.80729756151225"><ele>544.0</ele><time>2026-05-05T09:04:45Z</time></trkpt><trkpt lat="41.53269705725387" lon="19.80735016876232"><ele>544.0</ele><time>2026-05-05T09:04:46Z</time></trkpt><trkpt lat="41.53262705218883" lon="19.80742885231793"><ele>544.0</ele><time>2026-05-05T09:04:47Z</time></trkpt><trkpt lat="41.53253080993693" lon="19.80752949912043"><ele>544.0</ele><time>2026-05-05T09:04:48Z</time></trkpt><trkpt lat="41.53241920594625" lon="19.807640427679427"><ele>544.0</ele><time>2026-05-05T09:04:49Z</time></trkpt><trkpt lat="41.532292359227796" lon="19.80775280578595"><ele>548.0</ele><time>2026-05-05T09:04:50Z</time></trkpt><trkpt lat="41.532168973149844" lon="19.807862768831775"><ele>552.0</ele><time>2026-05-05T09:04:50.999Z</time></trkpt><trkpt lat="41.5320672225321" lon="19.807985740087098"><ele>556.0</ele><time>2026-05-05T09:04:51.999Z</time></trkpt><trkpt lat="41.5319817292827" lon="19.808134738220144"><ele>560.0</ele><time>2026-05-05T09:04:52.999Z</time></trkpt><trkpt lat="41.531893568998946" lon="19.80828976626727"><ele>560.0</ele><time>2026-05-05T09:04:53.999Z</time></trkpt><trkpt lat="41.53180610935304" lon="19.808426154900825"><ele>560.0</ele><time>2026-05-05T09:04:54.999Z</time></trkpt><trkpt lat="41.531717016033895" lon="19.808549506901457"><ele>560.0</ele><time>2026-05-05T09:04:55.999Z</time></trkpt><trkpt lat="41.53161410862413" lon="19.808646573637695"><ele>560.0</ele><time>2026-05-05T09:04:56.999Z</time></trkpt><trkpt lat="41.53149460095378" lon="19.80876656817493"><ele>558.0</ele><time>2026-05-05T09:04:57.999Z</time></trkpt><trkpt lat="41.53136366046416" lon="19.80889039523767"><ele>556.0</ele><time>2026-05-05T09:04:58.999Z</time></trkpt><trkpt lat="41.5312241860008" lon="19.809020701768727"><ele>554.0</ele><time>2026-05-05T09:04:59.999Z</time></trkpt><trkpt lat="41.53107988572906" lon="19.80915761087573"><ele>554.0</ele><time>2026-05-05T09:05:00.999Z</time></trkpt><trkpt lat="41.53093677484632" lon="19.809296874521443"><ele>554.0</ele><time>2026-05-05T09:05:01.999Z</time></trkpt><trkpt lat="41.53078836941942" lon="19.80944658875083"><ele>554.0</ele><time>2026-05-05T09:05:02.999Z</time></trkpt><trkpt lat="41.53065210588803" lon="19.80961469471184"><ele>551.3333333333333</ele><time>2026-05-05T09:05:03.999Z</time></trkpt><trkpt lat="41.530528123459185" lon="19.80980654296092"><ele>548.6666666666666</ele><time>2026-05-05T09:05:04.999Z</time></trkpt><trkpt lat="41.53041692441507" lon="19.81001575558327"><ele>546.0</ele><time>2026-05-05T09:05:05.999Z</time></trkpt><trkpt lat="41.530315683859435" lon="19.810239736511367"><ele>546.0</ele><time>2026-05-05T09:05:07Z</time></trkpt><trkpt lat="41.53021655635664" lon="19.810467318104823"><ele>546.0</ele><time>2026-05-05T09:05:08Z</time></trkpt><trkpt lat="41.53011127660729" lon="19.810692455372756"><ele>546.0</ele><time>2026-05-05T09:05:09Z</time></trkpt><trkpt lat="41.5300095399701" lon="19.81091929260628"><ele>541.3333333333334</ele><time>2026-05-05T09:05:10Z</time></trkpt><trkpt lat="41.52992171172778" lon="19.8111582203921"><ele>536.6666666666667</ele><time>2026-05-05T09:05:11Z</time></trkpt><trkpt lat="41.52984400391672" lon="19.811404282437383"><ele>532.0</ele><time>2026-05-05T09:05:12Z</time></trkpt><trkpt lat="41.52977411246581" lon="19.8116447655367"><ele>531.6666666666667</ele><time>2026-05-05T09:05:13Z</time></trkpt><trkpt lat="41.52971095904379" lon="19.811867118471184"><ele>531.3333333333334</ele><time>2026-05-05T09:05:14Z</time></trkpt><trkpt lat="41.5296442034977" lon="19.8120554184937"><ele>531.0</ele><time>2026-05-05T09:05:15Z</time></trkpt><trkpt lat="41.52956303209471" lon="19.812213997736773"><ele>535.5</ele><time>2026-05-05T09:05:16Z</time></trkpt><trkpt lat="41.5294678876807" lon="19.812338533425148"><ele>540.0</ele><time>2026-05-05T09:05:17Z</time></trkpt><trkpt lat="41.52935227764125" lon="19.8124418643588"><ele>544.5</ele><time>2026-05-05T09:05:18Z</time></trkpt><trkpt lat="41.529212366240934" lon="19.812537095706265"><ele>549.0</ele><time>2026-05-05T09:05:19Z</time></trkpt><trkpt lat="41.529062227415665" lon="19.812639905671823"><ele>546.3333333333334</ele><time>2026-05-05T09:05:20Z</time></trkpt><trkpt lat="41.528905962943725" lon="19.81274996695948"><ele>543.6666666666667</ele><time>2026-05-05T09:05:21Z</time></trkpt><trkpt lat="41.52875102045224" lon="19.812842929427102"><ele>541.0</ele><time>2026-05-05T09:05:22Z</time></trkpt><trkpt lat="41.52861758738996" lon="19.81289905890552"><ele>544.6</ele><time>2026-05-05T09:05:23Z</time></trkpt><trkpt lat="41.52852196046144" lon="19.812936527087746"><ele>548.2</ele><time>2026-05-05T09:05:24Z</time></trkpt><trkpt lat="41.52845646828926" lon="19.81298072120624"><ele>551.8</ele><time>2026-05-05T09:05:25Z</time></trkpt><trkpt lat="41.52840618162483" lon="19.813068331943228"><ele>555.4</ele><time>2026-05-05T09:05:25.999Z</time></trkpt><trkpt lat="41.52839720082122" lon="19.813193776390232"><ele>559.0</ele><time>2026-05-05T09:05:26.999Z</time></trkpt><trkpt lat="41.52843373033071" lon="19.81332699556874"><ele>559.0</ele><time>2026-05-05T09:05:27.999Z</time></trkpt><trkpt lat="41.5285075908718" lon="19.8134496925327"><ele>559.0</ele><time>2026-05-05T09:05:28.999Z</time></trkpt><trkpt lat="41.528576354028715" lon="19.813548085313176"><ele>559.0</ele><time>2026-05-05T09:05:29.999Z</time></trkpt><trkpt lat="41.52853016671804" lon="19.813684934209615"><ele>559.0</ele><time>2026-05-05T09:05:31.999Z</time></trkpt><trkpt lat="41.52843762142517" lon="19.813694822509408"><ele>559.0</ele><time>2026-05-05T09:05:32.999Z</time></trkpt><trkpt lat="41.528321848673365" lon="19.813694858329633"><ele>561.5</ele><time>2026-05-05T09:05:33.999Z</time></trkpt><trkpt lat="41.528199105865674" lon="19.813698737063337"><ele>564.0</ele><time>2026-05-05T09:05:34.999Z</time></trkpt><trkpt lat="41.528069047362465" lon="19.813682486824206"><ele>566.5</ele><time>2026-05-05T09:05:35.999Z</time></trkpt><trkpt lat="41.52793993303729" lon="19.813604494178705"><ele>569.0</ele><time>2026-05-05T09:05:36.999Z</time></trkpt><trkpt lat="41.52783854433374" lon="19.813484086974913"><ele>569.0</ele><time>2026-05-05T09:05:37.999Z</time></trkpt><trkpt lat="41.52778492998585" lon="19.813372081244797"><ele>569.0</ele><time>2026-05-05T09:05:38.999Z</time></trkpt><trkpt lat="41.52779501366771" lon="19.813254562617747"><ele>569.0</ele><time>2026-05-05T09:05:39.999Z</time></trkpt><trkpt lat="41.52784953172365" lon="19.813132700529586"><ele>569.0</ele><time>2026-05-05T09:05:40.999Z</time></trkpt><trkpt lat="41.52793614222169" lon="19.813008713586214"><ele>569.0</ele><time>2026-05-05T09:05:41.999Z</time></trkpt><trkpt lat="41.52800626624327" lon="19.812861824838343"><ele>569.0</ele><time>2026-05-05T09:05:42.999Z</time></trkpt><trkpt lat="41.528049968361714" lon="19.81272264070741"><ele>569.0</ele><time>2026-05-05T09:05:43.999Z</time></trkpt><trkpt lat="41.52805533444759" lon="19.812615327314393"><ele>569.0</ele><time>2026-05-05T09:05:44.999Z</time></trkpt><trkpt lat="41.52802099831734" lon="19.81254336373037"><ele>569.0</ele><time>2026-05-05T09:05:45.999Z</time></trkpt><trkpt lat="41.527956301012054" lon="19.81253260673932"><ele>569.0</ele><time>2026-05-05T09:05:46.999Z</time></trkpt><trkpt lat="41.52787612904063" lon="19.812577649642563"><ele>569.0</ele><time>2026-05-05T09:05:47.999Z</time></trkpt><trkpt lat="41.52778659297118" lon="19.812658097855955"><ele>569.0</ele><time>2026-05-05T09:05:48.999Z</time></trkpt><trkpt lat="41.52768234914075" lon="19.812741413885856"><ele>569.0</ele><time>2026-05-05T09:05:49.999Z</time></trkpt><trkpt lat="41.527563853498094" lon="19.812815225351567"><ele>569.0</ele><time>2026-05-05T09:05:50.999Z</time></trkpt><trkpt lat="41.527415913901905" lon="19.812880281716243"><ele>569.0</ele><time>2026-05-05T09:05:51.999Z</time></trkpt><trkpt lat="41.52727010484061" lon="19.812929048548728"><ele>569.0</ele><time>2026-05-05T09:05:52.999Z</time></trkpt><trkpt lat="41.52713119636189" lon="19.812993999080668"><ele>569.0</ele><time>2026-05-05T09:05:53.999Z</time></trkpt><trkpt lat="41.52700289075243" lon="19.813101595585774"><ele>569.0</ele><time>2026-05-05T09:05:54.999Z</time></trkpt><trkpt lat="41.526877911290725" lon="19.813223645589964"><ele>570.0</ele><time>2026-05-05T09:05:55.999Z</time></trkpt><trkpt lat="41.526735258858665" lon="19.8132972695951"><ele>571.0</ele><time>2026-05-05T09:05:56.999Z</time></trkpt><trkpt lat="41.526610317271995" lon="19.813320251932794"><ele>572.0</ele><time>2026-05-05T09:05:57.999Z</time></trkpt><trkpt lat="41.52652062939858" lon="19.81340380755785"><ele>573.0</ele><time>2026-05-05T09:05:58.999Z</time></trkpt><trkpt lat="41.52645116665566" lon="19.813522622698866"><ele>573.0</ele><time>2026-05-05T09:05:59.999Z</time></trkpt><trkpt lat="41.526398949487735" lon="19.81367256668884"><ele>573.0</ele><time>2026-05-05T09:06:00.999Z</time></trkpt><trkpt lat="41.526374294837424" lon="19.81384757744509"><ele>573.0</ele><time>2026-05-05T09:06:01.999Z</time></trkpt><trkpt lat="41.52639214246702" lon="19.814033291135384"><ele>573.0</ele><time>2026-05-05T09:06:02.999Z</time></trkpt><trkpt lat="41.52642202232238" lon="19.81420508276048"><ele>572.6666666666666</ele><time>2026-05-05T09:06:03.999Z</time></trkpt><trkpt lat="41.52640929701059" lon="19.81438138040468"><ele>572.3333333333333</ele><time>2026-05-05T09:06:04.999Z</time></trkpt><trkpt lat="41.526369668747215" lon="19.81458252729532"><ele>572.0</ele><time>2026-05-05T09:06:05.999Z</time></trkpt><trkpt lat="41.52633544140855" lon="19.814803369864133"><ele>572.0</ele><time>2026-05-05T09:06:06.999Z</time></trkpt><trkpt lat="41.52629531962846" lon="19.81502211698837"><ele>572.0</ele><time>2026-05-05T09:06:07.999Z</time></trkpt><trkpt lat="41.52623243111975" lon="19.815238775495455"><ele>572.0</ele><time>2026-05-05T09:06:08.999Z</time></trkpt><trkpt lat="41.526158562903284" lon="19.815456730763806"><ele>574.5</ele><time>2026-05-05T09:06:09.999Z</time></trkpt><trkpt lat="41.52608887694262" lon="19.815654683866725"><ele>577.0</ele><time>2026-05-05T09:06:10.999Z</time></trkpt><trkpt lat="41.526016094573265" lon="19.815816565574774"><ele>579.5</ele><time>2026-05-05T09:06:11.999Z</time></trkpt><trkpt lat="41.52591948343687" lon="19.815951819360304"><ele>582.0</ele><time>2026-05-05T09:06:12.999Z</time></trkpt><trkpt lat="41.52579789539129" lon="19.816075329937462"><ele>582.0</ele><time>2026-05-05T09:06:13.999Z</time></trkpt><trkpt lat="41.52566827510548" lon="19.816193007820225"><ele>582.0</ele><time>2026-05-05T09:06:14.999Z</time></trkpt><trkpt lat="41.525531962687126" lon="19.816302424605137"><ele>582.0</ele><time>2026-05-05T09:06:15.999Z</time></trkpt><trkpt lat="41.525401227071896" lon="19.81639598340566"><ele>586.5</ele><time>2026-05-05T09:06:16.999Z</time></trkpt><trkpt lat="41.52527239794428" lon="19.81648695606617"><ele>591.0</ele><time>2026-05-05T09:06:17.999Z</time></trkpt><trkpt lat="41.52514480885567" lon="19.816567361850613"><ele>595.5</ele><time>2026-05-05T09:06:18.999Z</time></trkpt><trkpt lat="41.5250211534968" lon="19.816637438510337"><ele>600.0</ele><time>2026-05-05T09:06:19.999Z</time></trkpt><trkpt lat="41.52489937234171" lon="19.816704013737446"><ele>600.0</ele><time>2026-05-05T09:06:20.999Z</time></trkpt><trkpt lat="41.524794146163345" lon="19.816767537752657"><ele>600.0</ele><time>2026-05-05T09:06:21.999Z</time></trkpt><trkpt lat="41.52469994315869" lon="19.81682639127979"><ele>600.0</ele><time>2026-05-05T09:06:22.999Z</time></trkpt><trkpt lat="41.52461329790592" lon="19.816881661500336"><ele>600.0</ele><time>2026-05-05T09:06:23.999Z</time></trkpt><trkpt lat="41.52452841681831" lon="19.8169225067162"><ele>600.0</ele><time>2026-05-05T09:06:24.999Z</time></trkpt><trkpt lat="41.524447047767424" lon="19.816949326639932"><ele>599.8333333333334</ele><time>2026-05-05T09:06:25.999Z</time></trkpt><trkpt lat="41.5243687209201" lon="19.81697753734399"><ele>599.6666666666666</ele><time>2026-05-05T09:06:26.999Z</time></trkpt><trkpt lat="41.52429322863882" lon="19.817009562104086"><ele>599.5</ele><time>2026-05-05T09:06:27.999Z</time></trkpt><trkpt lat="41.52421043768962" lon="19.81703527087805"><ele>599.3333333333333</ele><time>2026-05-05T09:06:28.999Z</time></trkpt><trkpt lat="41.52412340640922" lon="19.817056767268884"><ele>599.1666666666666</ele><time>2026-05-05T09:06:29.999Z</time></trkpt><trkpt lat="41.52402615257566" lon="19.817092660386948"><ele>599.0</ele><time>2026-05-05T09:06:30.999Z</time></trkpt><trkpt lat="41.5239226976614" lon="19.81714436997836"><ele>599.0</ele><time>2026-05-05T09:06:31.999Z</time></trkpt><trkpt lat="41.5238174749699" lon="19.81720627118284"><ele>599.0</ele><time>2026-05-05T09:06:32.999Z</time></trkpt><trkpt lat="41.52371177196921" lon="19.817285605004166"><ele>599.0</ele><time>2026-05-05T09:06:33.999Z</time></trkpt><trkpt lat="41.52361804092582" lon="19.81739274427872"><ele>599.0</ele><time>2026-05-05T09:06:34.999Z</time></trkpt><trkpt lat="41.52354155834814" lon="19.817524031285874"><ele>600.75</ele><time>2026-05-05T09:06:35.999Z</time></trkpt><trkpt lat="41.52347585389913" lon="19.8176751095408"><ele>602.5</ele><time>2026-05-05T09:06:36.999Z</time></trkpt><trkpt lat="41.52341866294526" lon="19.81782734244861"><ele>604.25</ele><time>2026-05-05T09:06:37.999Z</time></trkpt><trkpt lat="41.52336223938936" lon="19.817937427030728"><ele>606.0</ele><time>2026-05-05T09:06:38.999Z</time></trkpt><trkpt lat="41.52326016284768" lon="19.817956003860907"><ele>606.0</ele><time>2026-05-05T09:06:40.999Z</time></trkpt><trkpt lat="41.52320795883434" lon="19.81781995561596"><ele>606.0</ele><time>2026-05-05T09:06:42.999Z</time></trkpt><trkpt lat="41.52322383605602" lon="19.817714975966734"><ele>606.0</ele><time>2026-05-05T09:06:43.999Z</time></trkpt><trkpt lat="41.523251699011766" lon="19.81760001473329"><ele>606.0</ele><time>2026-05-05T09:06:44.999Z</time></trkpt><trkpt lat="41.52329016285876" lon="19.817471033787722"><ele>606.0</ele><time>2026-05-05T09:06:45.999Z</time></trkpt><trkpt lat="41.52333432104385" lon="19.817345274217093"><ele>608.5</ele><time>2026-05-05T09:06:46.999Z</time></trkpt><trkpt lat="41.52337737164417" lon="19.81721929474665"><ele>611.0</ele><time>2026-05-05T09:06:47.999Z</time></trkpt><trkpt lat="41.52344450000991" lon="19.817085766751163"><ele>613.5</ele><time>2026-05-05T09:06:48.999Z</time></trkpt><trkpt lat="41.52354828529662" lon="19.816968827873314"><ele>616.0</ele><time>2026-05-05T09:06:49.999Z</time></trkpt><trkpt lat="41.523676750808185" lon="19.816860512159256"><ele>615.0</ele><time>2026-05-05T09:06:50.999Z</time></trkpt><trkpt lat="41.52380346666246" lon="19.816753540490303"><ele>614.0</ele><time>2026-05-05T09:06:51.999Z</time></trkpt><trkpt lat="41.5239390516643" lon="19.816658679945434"><ele>613.0</ele><time>2026-05-05T09:06:52.999Z</time></trkpt><trkpt lat="41.52407346254183" lon="19.816606709559956"><ele>612.0</ele><time>2026-05-05T09:06:53.999Z</time></trkpt><trkpt lat="41.524196042138165" lon="19.816599179660507"><ele>612.0</ele><time>2026-05-05T09:06:54.999Z</time></trkpt><trkpt lat="41.52429807838599" lon="19.81657731298121"><ele>612.0</ele><time>2026-05-05T09:06:55.999Z</time></trkpt><trkpt lat="41.52438185422607" lon="19.816501620515513"><ele>612.0</ele><time>2026-05-05T09:06:56.999Z</time></trkpt><trkpt lat="41.52445351767663" lon="19.816373092126735"><ele>612.0</ele><time>2026-05-05T09:06:57.999Z</time></trkpt><trkpt lat="41.52451998685459" lon="19.816216604830597"><ele>612.2</ele><time>2026-05-05T09:06:58.999Z</time></trkpt><trkpt lat="41.52458386510082" lon="19.81605101362166"><ele>612.4000000000001</ele><time>2026-05-05T09:06:59.999Z</time></trkpt><trkpt lat="41.524619363418786" lon="19.81592570890389"><ele>612.5999999999999</ele><time>2026-05-05T09:07:00.999Z</time></trkpt><trkpt lat="41.52466429686285" lon="19.81579744832921"><ele>612.8</ele><time>2026-05-05T09:07:02.999Z</time></trkpt><trkpt lat="41.52472467543937" lon="19.815746073752898"><ele>613.0</ele><time>2026-05-05T09:07:03.999Z</time></trkpt><trkpt lat="41.524808595411" lon="19.815699469778842"><ele>613.0</ele><time>2026-05-05T09:07:04.999Z</time></trkpt><trkpt lat="41.52491514299116" lon="19.815649519280434"><ele>613.0</ele><time>2026-05-05T09:07:05.999Z</time></trkpt><trkpt lat="41.525026483436186" lon="19.81559715875292"><ele>613.0</ele><time>2026-05-05T09:07:06.999Z</time></trkpt><trkpt lat="41.52515038117748" lon="19.815552260800093"><ele>613.0</ele><time>2026-05-05T09:07:07.999Z</time></trkpt><trkpt lat="41.52528363205882" lon="19.81550691003788"><ele>608.75</ele><time>2026-05-05T09:07:08.999Z</time></trkpt><trkpt lat="41.52540549932252" lon="19.815443717798832"><ele>604.5</ele><time>2026-05-05T09:07:09.999Z</time></trkpt><trkpt lat="41.52551982187404" lon="19.81536258974907"><ele>600.25</ele><time>2026-05-05T09:07:10.999Z</time></trkpt><trkpt lat="41.52561871179411" lon="19.815274387842916"><ele>596.0</ele><time>2026-05-05T09:07:11.999Z</time></trkpt><trkpt lat="41.52566742704338" lon="19.8151951165103"><ele>597.6666666666666</ele><time>2026-05-05T09:07:13Z</time></trkpt><trkpt lat="41.525681514095844" lon="19.815101566756756"><ele>599.3333333333333</ele><time>2026-05-05T09:07:14Z</time></trkpt><trkpt lat="41.52565725657859" lon="19.814996844307714"><ele>601.0</ele><time>2026-05-05T09:07:15Z</time></trkpt><trkpt lat="41.52559079721918" lon="19.81494397971239"><ele>602.6666666666666</ele><time>2026-05-05T09:07:16Z</time></trkpt><trkpt lat="41.52552457451064" lon="19.814961194579418"><ele>604.3333333333334</ele><time>2026-05-05T09:07:17Z</time></trkpt><trkpt lat="41.525468380062485" lon="19.815027980035165"><ele>606.0</ele><time>2026-05-05T09:07:18Z</time></trkpt><trkpt lat="41.525414452095" lon="19.815129301818935"><ele>607.4</ele><time>2026-05-05T09:07:19Z</time></trkpt><trkpt lat="41.52534886032336" lon="19.815250584999013"><ele>608.8</ele><time>2026-05-05T09:07:20Z</time></trkpt><trkpt lat="41.525266386232936" lon="19.815303052688"><ele>610.1999999999999</ele><time>2026-05-05T09:07:21Z</time></trkpt><trkpt lat="41.525176270806405" lon="19.815328842544847"><ele>611.6</ele><time>2026-05-05T09:07:22Z</time></trkpt><trkpt lat="41.52507668181928" lon="19.81533737946747"><ele>613.0</ele><time>2026-05-05T09:07:23Z</time></trkpt><trkpt lat="41.52496924033501" lon="19.81534721097957"><ele>613.0</ele><time>2026-05-05T09:07:24Z</time></trkpt><trkpt lat="41.524860933699856" lon="19.815357656225697"><ele>613.0</ele><time>2026-05-05T09:07:25Z</time></trkpt><trkpt lat="41.524761755909054" lon="19.815374543430615"><ele>613.0</ele><time>2026-05-05T09:07:26Z</time></trkpt><trkpt lat="41.52467241330975" lon="19.815399680238013"><ele>613.0</ele><time>2026-05-05T09:07:27Z</time></trkpt><trkpt lat="41.52458184504978" lon="19.815439487411975"><ele>613.0</ele><time>2026-05-05T09:07:28Z</time></trkpt><trkpt lat="41.524509001786456" lon="19.815500315793585"><ele>616.4</ele><time>2026-05-05T09:07:29Z</time></trkpt><trkpt lat="41.52443876047977" lon="19.81559342356013"><ele>619.8</ele><time>2026-05-05T09:07:30Z</time></trkpt><trkpt lat="41.52436745965085" lon="19.81569818009748"><ele>623.2</ele><time>2026-05-05T09:07:31Z</time></trkpt><trkpt lat="41.52430296051593" lon="19.815783833346632"><ele>626.6</ele><time>2026-05-05T09:07:32Z</time></trkpt><trkpt lat="41.52422753938353" lon="19.815860957933253"><ele>630.0</ele><time>2026-05-05T09:07:33Z</time></trkpt><trkpt lat="41.524132613775095" lon="19.815917022460695"><ele>630.0</ele><time>2026-05-05T09:07:34Z</time></trkpt><trkpt lat="41.52400987547832" lon="19.815953362749383"><ele>630.0</ele><time>2026-05-05T09:07:35Z</time></trkpt><trkpt lat="41.52388275901886" lon="19.815991295394333"><ele>630.0</ele><time>2026-05-05T09:07:36Z</time></trkpt><trkpt lat="41.52375958003678" lon="19.816059777938452"><ele>630.0</ele><time>2026-05-05T09:07:37Z</time></trkpt><trkpt lat="41.52362942784409" lon="19.81613412950555"><ele>629.25</ele><time>2026-05-05T09:07:38Z</time></trkpt><trkpt lat="41.52348844884453" lon="19.816189684767323"><ele>628.5</ele><time>2026-05-05T09:07:39Z</time></trkpt><trkpt lat="41.52334036771436" lon="19.816231243610364"><ele>627.75</ele><time>2026-05-05T09:07:40Z</time></trkpt><trkpt lat="41.52319027059339" lon="19.816235825972196"><ele>627.0</ele><time>2026-05-05T09:07:41Z</time></trkpt><trkpt lat="41.52307297530869" lon="19.81624231407175"><ele>627.0</ele><time>2026-05-05T09:07:42Z</time></trkpt><trkpt lat="41.522986243561704" lon="19.816310446956663"><ele>627.0</ele><time>2026-05-05T09:07:43Z</time></trkpt><trkpt lat="41.52291609900698" lon="19.816440267030625"><ele>627.0</ele><time>2026-05-05T09:07:44Z</time></trkpt><trkpt lat="41.522834971736465" lon="19.816546850239625"><ele>627.0</ele><time>2026-05-05T09:07:45Z</time></trkpt><trkpt lat="41.52275985238221" lon="19.816629137554614"><ele>627.0</ele><time>2026-05-05T09:07:46Z</time></trkpt><trkpt lat="41.52270054457391" lon="19.816727694836292"><ele>630.4000000000001</ele><time>2026-05-05T09:07:47Z</time></trkpt><trkpt lat="41.522639466682165" lon="19.81685271113123"><ele>633.8000000000001</ele><time>2026-05-05T09:07:48Z</time></trkpt><trkpt lat="41.522590434549215" lon="19.81695642055467"><ele>637.2</ele><time>2026-05-05T09:07:49Z</time></trkpt><trkpt lat="41.52256643317512" lon="19.8170450503796"><ele>640.6</ele><time>2026-05-05T09:07:51Z</time></trkpt><trkpt lat="41.522575764656224" lon="19.817129589617785"><ele>644.0</ele><time>2026-05-05T09:08:14.999Z</time></trkpt><trkpt lat="41.52256844881017" lon="19.817288974285162"><ele>644.0</ele><time>2026-05-05T09:08:16.999Z</time></trkpt><trkpt lat="41.52254729326771" lon="19.817373625792666"><ele>644.0</ele><time>2026-05-05T09:08:17.999Z</time></trkpt><trkpt lat="41.5225131467558" lon="19.817456138909133"><ele>644.0</ele><time>2026-05-05T09:08:18.999Z</time></trkpt><trkpt lat="41.52247114999311" lon="19.81754296319414"><ele>644.0</ele><time>2026-05-05T09:08:19.999Z</time></trkpt><trkpt lat="41.52242346721459" lon="19.817640223704274"><ele>644.0</ele><time>2026-05-05T09:08:20.999Z</time></trkpt><trkpt lat="41.522363695422165" lon="19.81773657144076"><ele>644.0</ele><time>2026-05-05T09:08:21.999Z</time></trkpt><trkpt lat="41.52230029878154" lon="19.817825189755602"><ele>640.5</ele><time>2026-05-05T09:08:22.999Z</time></trkpt><trkpt lat="41.52222606205483" lon="19.817929181536353"><ele>637.0</ele><time>2026-05-05T09:08:23.999Z</time></trkpt><trkpt lat="41.522140803076965" lon="19.8180320442105"><ele>633.5</ele><time>2026-05-05T09:08:24.999Z</time></trkpt><trkpt lat="41.52204665086268" lon="19.818136736540865"><ele>630.0</ele><time>2026-05-05T09:08:25.999Z</time></trkpt><trkpt lat="41.52195149905881" lon="19.818252630902947"><ele>635.25</ele><time>2026-05-05T09:08:26.999Z</time></trkpt><trkpt lat="41.521860910261154" lon="19.8183721348071"><ele>640.5</ele><time>2026-05-05T09:08:27.999Z</time></trkpt><trkpt lat="41.521778842674046" lon="19.818500918708093"><ele>645.75</ele><time>2026-05-05T09:08:28.999Z</time></trkpt><trkpt lat="41.52172296490251" lon="19.818653929862798"><ele>651.0</ele><time>2026-05-05T09:08:29.999Z</time></trkpt><trkpt lat="41.521675694488394" lon="19.81880990561262"><ele>651.0</ele><time>2026-05-05T09:08:30.999Z</time></trkpt><trkpt lat="41.521641850388995" lon="19.818963009068682"><ele>651.0</ele><time>2026-05-05T09:08:31.999Z</time></trkpt><trkpt lat="41.521605359902225" lon="19.819085011075465"><ele>651.0</ele><time>2026-05-05T09:08:32.999Z</time></trkpt><trkpt lat="41.521561442091006" lon="19.819177519367397"><ele>651.0</ele><time>2026-05-05T09:08:33.999Z</time></trkpt><trkpt lat="41.52151044946105" lon="19.819255611155814"><ele>651.0</ele><time>2026-05-05T09:08:34.999Z</time></trkpt><trkpt lat="41.52144802219817" lon="19.819298036763247"><ele>651.0</ele><time>2026-05-05T09:08:35.999Z</time></trkpt><trkpt lat="41.52138065096307" lon="19.819303647452994"><ele>651.0</ele><time>2026-05-05T09:08:36.999Z</time></trkpt><trkpt lat="41.52131388925997" lon="19.81928453987743"><ele>651.0</ele><time>2026-05-05T09:08:37.999Z</time></trkpt><trkpt lat="41.52125088447774" lon="19.819260547096818"><ele>651.0</ele><time>2026-05-05T09:08:38.999Z</time></trkpt><trkpt lat="41.52114606139883" lon="19.819242878987385"><ele>651.0</ele><time>2026-05-05T09:08:40.999Z</time></trkpt><trkpt lat="41.521061730145554" lon="19.81924324863723"><ele>651.0</ele><time>2026-05-05T09:08:42.999Z</time></trkpt><trkpt lat="41.520988785338425" lon="19.81924734025017"><ele>651.0</ele><time>2026-05-05T09:08:44.999Z</time></trkpt><trkpt lat="41.52092445459486" lon="19.81924031465691"><ele>651.0</ele><time>2026-05-05T09:08:47.999Z</time></trkpt><trkpt lat="41.520996196089435" lon="19.819279687912896"><ele>651.0</ele><time>2026-05-05T09:09:09.999Z</time></trkpt><trkpt lat="41.52111700947134" lon="19.819261414700403"><ele>651.0</ele><time>2026-05-05T09:09:11.999Z</time></trkpt><trkpt lat="41.52118794483726" lon="19.819259237776723"><ele>651.0</ele><time>2026-05-05T09:09:12.999Z</time></trkpt><trkpt lat="41.52124497681006" lon="19.819305292694892"><ele>651.0</ele><time>2026-05-05T09:09:14.999Z</time></trkpt><trkpt lat="41.52119521737143" lon="19.819364705373523"><ele>651.0</ele><time>2026-05-05T09:09:17.999Z</time></trkpt><trkpt lat="41.52113746795306" lon="19.819414690486305"><ele>651.7142857142857</ele><time>2026-05-05T09:09:27Z</time></trkpt><trkpt lat="41.521074798590625" lon="19.81946553702921"><ele>652.4285714285714</ele><time>2026-05-05T09:09:29Z</time></trkpt><trkpt lat="41.521006671941436" lon="19.819517147000315"><ele>653.1428571428571</ele><time>2026-05-05T09:09:32Z</time></trkpt><trkpt lat="41.520953655339405" lon="19.81959764712535"><ele>653.8571428571429</ele><time>2026-05-05T09:09:36Z</time></trkpt><trkpt lat="41.52092233516644" lon="19.819670686824573"><ele>654.5714285714286</ele><time>2026-05-05T09:09:39Z</time></trkpt><trkpt lat="41.52092228239341" lon="19.819755493753988"><ele>655.2857142857142</ele><time>2026-05-05T09:09:42Z</time></trkpt><trkpt lat="41.5208771411626" lon="19.81982501218367"><ele>656.0</ele><time>2026-05-05T09:09:44Z</time></trkpt><trkpt lat="41.52080761237132" lon="19.819862659614817"><ele>655.9999999999999</ele><time>2026-05-05T09:09:48Z</time></trkpt><trkpt lat="41.52073194543472" lon="19.819839827786858"><ele>656.0</ele><time>2026-05-05T09:09:53Z</time></trkpt><trkpt lat="41.52066709112859" lon="19.819842247524864"><ele>656.0</ele><time>2026-05-05T09:09:59Z</time></trkpt><trkpt lat="41.52061275771451" lon="19.819888213183635"><ele>656.0</ele><time>2026-05-05T09:10:02Z</time></trkpt><trkpt lat="41.520628106201904" lon="19.819995894796946"><ele>656.0</ele><time>2026-05-05T09:10:05Z</time></trkpt><trkpt lat="41.520676020545785" lon="19.819914186765445"><ele>655.9999999999999</ele><time>2026-05-05T09:10:08Z</time></trkpt><trkpt lat="41.520620115867054" lon="19.819874102660908"><ele>656.0</ele><time>2026-05-05T09:10:12Z</time></trkpt><trkpt lat="41.52066297933939" lon="19.81978802194896"><ele>656.0</ele><time>2026-05-05T09:10:16Z</time></trkpt><trkpt lat="41.520749219734356" lon="19.819810713401537"><ele>656.0</ele><time>2026-05-05T09:11:08.999Z</time></trkpt><trkpt lat="41.520831542574975" lon="19.81983369430065"><ele>656.0</ele><time>2026-05-05T09:11:11.999Z</time></trkpt><trkpt lat="41.52089101243631" lon="19.819788634040407"><ele>656.0</ele><time>2026-05-05T09:11:13.999Z</time></trkpt><trkpt lat="41.52091687426901" lon="19.819679937984066"><ele>656.0</ele><time>2026-05-05T09:11:16.999Z</time></trkpt><trkpt lat="41.52096616014769" lon="19.819623294125613"><ele>656.0</ele><time>2026-05-05T09:11:18.999Z</time></trkpt><trkpt lat="41.52097543338972" lon="19.819521103971198"><ele>656.0</ele><time>2026-05-05T09:11:22.999Z</time></trkpt><trkpt lat="41.521060253279366" lon="19.819448143325072"><ele>656.0</ele><time>2026-05-05T09:11:28Z</time></trkpt><trkpt lat="41.52117035500118" lon="19.819398185553965"><ele>656.0</ele><time>2026-05-05T09:11:30Z</time></trkpt><trkpt lat="41.52117476912628" lon="19.81929138392146"><ele>656.0</ele><time>2026-05-05T09:11:33Z</time></trkpt><trkpt lat="41.52108306516411" lon="19.81925369235828"><ele>656.0</ele><time>2026-05-05T09:11:35Z</time></trkpt><trkpt lat="41.52100922763726" lon="19.819258310529563"><ele>656.0</ele><time>2026-05-05T09:11:36Z</time></trkpt><trkpt lat="41.52092913960278" lon="19.819260904082423"><ele>656.0</ele><time>2026-05-05T09:11:37Z</time></trkpt><trkpt lat="41.52086219640711" lon="19.819274340948905"><ele>656.0</ele><time>2026-05-05T09:11:38Z</time></trkpt><trkpt lat="41.52080245382735" lon="19.819304608827924"><ele>656.0</ele><time>2026-05-05T09:11:39Z</time></trkpt><trkpt lat="41.52073745373447" lon="19.81935851748658"><ele>656.0</ele><time>2026-05-05T09:11:41Z</time></trkpt><trkpt lat="41.520850318752956" lon="19.819350487176532"><ele>656.0</ele><time>2026-05-05T09:12:29Z</time></trkpt><trkpt lat="41.52078875467776" lon="19.819400986762343"><ele>655.9999999999999</ele><time>2026-05-05T09:13:06Z</time></trkpt><trkpt lat="41.520736207460935" lon="19.81945080216946"><ele>656.0</ele><time>2026-05-05T09:13:20Z</time></trkpt><trkpt lat="41.52067748579278" lon="19.81949952737135"><ele>656.0</ele><time>2026-05-05T09:13:25Z</time></trkpt><trkpt lat="41.520599889746606" lon="19.81954286727049"><ele>656.0</ele><time>2026-05-05T09:13:36Z</time></trkpt><trkpt lat="41.520619574597106" lon="19.81946031301125"><ele>656.0</ele><time>2026-05-05T09:14:08.999Z</time></trkpt><trkpt lat="41.520679415638064" lon="19.819404689594275"><ele>655.9999999999999</ele><time>2026-05-05T09:14:14.999Z</time></trkpt><trkpt lat="41.52072194106497" lon="19.81932563017891"><ele>656.0</ele><time>2026-05-05T09:14:20.999Z</time></trkpt><trkpt lat="41.52066284453895" lon="19.819437516788714"><ele>656.0</ele><time>2026-05-05T09:17:00.999Z</time></trkpt><trkpt lat="41.520546605728775" lon="19.819502765021753"><ele>656.0</ele><time>2026-05-05T09:17:02.999Z</time></trkpt><trkpt lat="41.520446619930055" lon="19.81957492657646"><ele>656.0</ele><time>2026-05-05T09:17:04.999Z</time></trkpt><trkpt lat="41.52035431679101" lon="19.819653691858072"><ele>656.0</ele><time>2026-05-05T09:17:06.999Z</time></trkpt><trkpt lat="41.520277690950714" lon="19.819750056940663"><ele>657.5</ele><time>2026-05-05T09:17:08.999Z</time></trkpt><trkpt lat="41.520221831667804" lon="19.81984428710313"><ele>659.0</ele><time>2026-05-05T09:17:10.999Z</time></trkpt><trkpt lat="41.52018929892647" lon="19.819950662157975"><ele>660.5</ele><time>2026-05-05T09:17:12.999Z</time></trkpt><trkpt lat="41.52016198633308" lon="19.820042921077196"><ele>662.0</ele><time>2026-05-05T09:17:15.999Z</time></trkpt><trkpt lat="41.520109626839535" lon="19.82014613663523"><ele>663.5</ele><time>2026-05-05T09:17:17.999Z</time></trkpt><trkpt lat="41.520066115747944" lon="19.82021685211372"><ele>665.0</ele><time>2026-05-05T09:17:18.999Z</time></trkpt><trkpt lat="41.52001417903793" lon="19.82029946819024"><ele>665.0</ele><time>2026-05-05T09:17:19.999Z</time></trkpt><trkpt lat="41.51994207090602" lon="19.820381795949498"><ele>665.0</ele><time>2026-05-05T09:17:20.999Z</time></trkpt><trkpt lat="41.519861827444075" lon="19.820456346828117"><ele>665.0</ele><time>2026-05-05T09:17:21.999Z</time></trkpt><trkpt lat="41.519778946369115" lon="19.820547012320244"><ele>665.0</ele><time>2026-05-05T09:17:22.999Z</time></trkpt><trkpt lat="41.51969913642465" lon="19.820646633615784"><ele>665.0</ele><time>2026-05-05T09:17:23.999Z</time></trkpt><trkpt lat="41.51962244519947" lon="19.820753533214386"><ele>667.0</ele><time>2026-05-05T09:17:24.999Z</time></trkpt><trkpt lat="41.51954658059129" lon="19.82087276687559"><ele>669.0</ele><time>2026-05-05T09:17:25.999Z</time></trkpt><trkpt lat="41.5194689536949" lon="19.82099341122967"><ele>671.0</ele><time>2026-05-05T09:17:26.999Z</time></trkpt><trkpt lat="41.519392002618595" lon="19.821102630190865"><ele>673.0</ele><time>2026-05-05T09:17:27.999Z</time></trkpt><trkpt lat="41.51931138326261" lon="19.821167036493357"><ele>675.0</ele><time>2026-05-05T09:17:28.999Z</time></trkpt><trkpt lat="41.51922293675813" lon="19.821191377760375"><ele>675.0</ele><time>2026-05-05T09:17:29.999Z</time></trkpt><trkpt lat="41.51911691670776" lon="19.82120612275806"><ele>675.0</ele><time>2026-05-05T09:17:30.999Z</time></trkpt><trkpt lat="41.51900124302484" lon="19.821218022407777"><ele>675.0</ele><time>2026-05-05T09:17:31.999Z</time></trkpt><trkpt lat="41.51889668794599" lon="19.821261979601932"><ele>675.0</ele><time>2026-05-05T09:17:32.999Z</time></trkpt><trkpt lat="41.5188206255126" lon="19.821364619685944"><ele>675.0</ele><time>2026-05-05T09:17:33.999Z</time></trkpt><trkpt lat="41.51876272948766" lon="19.821499135105636"><ele>679.0</ele><time>2026-05-05T09:17:34.999Z</time></trkpt><trkpt lat="41.51870586058369" lon="19.821641469943025"><ele>683.0</ele><time>2026-05-05T09:17:35.999Z</time></trkpt><trkpt lat="41.51863376292685" lon="19.82178840891038"><ele>687.0</ele><time>2026-05-05T09:17:36.999Z</time></trkpt><trkpt lat="41.518540646597145" lon="19.82191214796637"><ele>691.0</ele><time>2026-05-05T09:17:37.999Z</time></trkpt><trkpt lat="41.51844054168471" lon="19.821976942800156"><ele>691.0</ele><time>2026-05-05T09:17:38.999Z</time></trkpt><trkpt lat="41.518400373326145" lon="19.822058425797476"><ele>691.0</ele><time>2026-05-05T09:17:39.999Z</time></trkpt><trkpt lat="41.51840344586057" lon="19.822151536443513"><ele>691.0</ele><time>2026-05-05T09:17:40.999Z</time></trkpt><trkpt lat="41.51845061023441" lon="19.82224850875685"><ele>691.0</ele><time>2026-05-05T09:17:41.999Z</time></trkpt><trkpt lat="41.51852592470494" lon="19.822339770552365"><ele>691.0</ele><time>2026-05-05T09:17:42.999Z</time></trkpt><trkpt lat="41.51858981589123" lon="19.822447875492447"><ele>691.0</ele><time>2026-05-05T09:17:43.999Z</time></trkpt><trkpt lat="41.518619338381534" lon="19.822572483978806"><ele>691.0</ele><time>2026-05-05T09:17:44.999Z</time></trkpt><trkpt lat="41.51859217838244" lon="19.822702867551484"><ele>691.0</ele><time>2026-05-05T09:17:45.999Z</time></trkpt><trkpt lat="41.51854001946043" lon="19.82284174773085"><ele>691.0</ele><time>2026-05-05T09:17:46.999Z</time></trkpt><trkpt lat="41.518480362892916" lon="19.822991242766264"><ele>691.0</ele><time>2026-05-05T09:17:47.999Z</time></trkpt><trkpt lat="41.51840833261298" lon="19.823138797069028"><ele>691.0</ele><time>2026-05-05T09:17:48.999Z</time></trkpt><trkpt lat="41.518311471811366" lon="19.823247037473568"><ele>691.0</ele><time>2026-05-05T09:17:49.999Z</time></trkpt><trkpt lat="41.518225785967644" lon="19.823329459469164"><ele>691.0</ele><time>2026-05-05T09:17:50.999Z</time></trkpt><trkpt lat="41.518180104075505" lon="19.823427578610573"><ele>691.0</ele><time>2026-05-05T09:17:51.999Z</time></trkpt><trkpt lat="41.51817548445543" lon="19.823544527006657"><ele>691.0</ele><time>2026-05-05T09:17:52.999Z</time></trkpt><trkpt lat="41.518218165930854" lon="19.823660442385837"><ele>691.1999999999999</ele><time>2026-05-05T09:17:53.999Z</time></trkpt><trkpt lat="41.518293141059246" lon="19.82376764813041"><ele>691.4</ele><time>2026-05-05T09:17:54.999Z</time></trkpt><trkpt lat="41.51836998225192" lon="19.823871979853738"><ele>691.6</ele><time>2026-05-05T09:17:56Z</time></trkpt><trkpt lat="41.518411644705274" lon="19.823971540231756"><ele>691.8</ele><time>2026-05-05T09:17:57Z</time></trkpt><trkpt lat="41.5184054566853" lon="19.82408561545117"><ele>692.0</ele><time>2026-05-05T09:17:58Z</time></trkpt><trkpt lat="41.51836018008535" lon="19.824215126427802"><ele>689.75</ele><time>2026-05-05T09:17:59Z</time></trkpt><trkpt lat="41.518283754118514" lon="19.82434123957224"><ele>687.5</ele><time>2026-05-05T09:18:00Z</time></trkpt><trkpt lat="41.518198070231115" lon="19.82442419101609"><ele>685.25</ele><time>2026-05-05T09:18:01Z</time></trkpt><trkpt lat="41.51809142582702" lon="19.824454633527157"><ele>683.0</ele><time>2026-05-05T09:18:02Z</time></trkpt><trkpt lat="41.51796652071434" lon="19.824467212429266"><ele>688.25</ele><time>2026-05-05T09:18:03Z</time></trkpt><trkpt lat="41.51784235307149" lon="19.824453208623993"><ele>693.5</ele><time>2026-05-05T09:18:04Z</time></trkpt><trkpt lat="41.51772734939585" lon="19.82438326768652"><ele>698.75</ele><time>2026-05-05T09:18:05Z</time></trkpt><trkpt lat="41.51763844453438" lon="19.824282644582606"><ele>704.0</ele><time>2026-05-05T09:18:06Z</time></trkpt><trkpt lat="41.517548058970135" lon="19.824226245201547"><ele>704.0</ele><time>2026-05-05T09:18:07Z</time></trkpt><trkpt lat="41.517449958854485" lon="19.824225749682235"><ele>704.0</ele><time>2026-05-05T09:18:08Z</time></trkpt><trkpt lat="41.51735464571771" lon="19.82428304205201"><ele>704.0</ele><time>2026-05-05T09:18:09Z</time></trkpt><trkpt lat="41.51728332140749" lon="19.824388439793623"><ele>704.0</ele><time>2026-05-05T09:18:10Z</time></trkpt><trkpt lat="41.517249112898085" lon="19.82452641489329"><ele>704.0</ele><time>2026-05-05T09:18:11Z</time></trkpt><trkpt lat="41.51726908540472" lon="19.82466807205365"><ele>704.0</ele><time>2026-05-05T09:18:12Z</time></trkpt><trkpt lat="41.51731863178868" lon="19.824812711944734"><ele>704.0</ele><time>2026-05-05T09:18:13Z</time></trkpt><trkpt lat="41.5173503708189" lon="19.824959078361186"><ele>704.0</ele><time>2026-05-05T09:18:14Z</time></trkpt><trkpt lat="41.51732754510466" lon="19.825093743908862"><ele>704.0</ele><time>2026-05-05T09:18:15Z</time></trkpt><trkpt lat="41.51725817866395" lon="19.825197205325583"><ele>704.0</ele><time>2026-05-05T09:18:16Z</time></trkpt><trkpt lat="41.51716727644939" lon="19.82526238106012"><ele>705.4000000000001</ele><time>2026-05-05T09:18:17Z</time></trkpt><trkpt lat="41.517087004065104" lon="19.82535326316001"><ele>706.8</ele><time>2026-05-05T09:18:18Z</time></trkpt><trkpt lat="41.51701219355412" lon="19.825479787216995"><ele>708.2</ele><time>2026-05-05T09:18:19Z</time></trkpt><trkpt lat="41.51694965175571" lon="19.82561407670389"><ele>709.5999999999999</ele><time>2026-05-05T09:18:20Z</time></trkpt><trkpt lat="41.51693709216895" lon="19.825722886032295"><ele>711.0</ele><time>2026-05-05T09:18:21Z</time></trkpt><trkpt lat="41.516970492756634" lon="19.8258138039663"><ele>711.0</ele><time>2026-05-05T09:18:22Z</time></trkpt><trkpt lat="41.51705191105152" lon="19.82588247770932"><ele>711.0</ele><time>2026-05-05T09:18:23Z</time></trkpt><trkpt lat="41.51716923938898" lon="19.82593173016065"><ele>711.0</ele><time>2026-05-05T09:18:24Z</time></trkpt><trkpt lat="41.51728748778248" lon="19.825996205487456"><ele>711.0</ele><time>2026-05-05T09:18:25Z</time></trkpt><trkpt lat="41.51742011484619" lon="19.82610095197664"><ele>716.0</ele><time>2026-05-05T09:18:26Z</time></trkpt><trkpt lat="41.517540007963724" lon="19.82624719260245"><ele>721.0</ele><time>2026-05-05T09:18:27Z</time></trkpt><trkpt lat="41.51765056717662" lon="19.82640075267556"><ele>726.0</ele><time>2026-05-05T09:18:28Z</time></trkpt><trkpt lat="41.51775098267746" lon="19.826503890508317"><ele>731.0</ele><time>2026-05-05T09:18:29Z</time></trkpt><trkpt lat="41.51781155347936" lon="19.826579153163294"><ele>731.0</ele><time>2026-05-05T09:18:30Z</time></trkpt><trkpt lat="41.51782191950322" lon="19.826676153735708"><ele>731.0</ele><time>2026-05-05T09:18:31Z</time></trkpt><trkpt lat="41.51778721732522" lon="19.826801858060005"><ele>731.0</ele><time>2026-05-05T09:18:32Z</time></trkpt><trkpt lat="41.517733344858776" lon="19.82695160652122"><ele>731.0</ele><time>2026-05-05T09:18:33Z</time></trkpt><trkpt lat="41.51769663594197" lon="19.82711926352055"><ele>731.0</ele><time>2026-05-05T09:18:34Z</time></trkpt><trkpt lat="41.51768195271093" lon="19.82728732039219"><ele>733.0</ele><time>2026-05-05T09:18:35Z</time></trkpt><trkpt lat="41.51767728407116" lon="19.827469761747462"><ele>735.0</ele><time>2026-05-05T09:18:36Z</time></trkpt><trkpt lat="41.51766245199469" lon="19.827662410752556"><ele>737.0</ele><time>2026-05-05T09:18:37Z</time></trkpt><trkpt lat="41.51763279301556" lon="19.827851516063596"><ele>739.0</ele><time>2026-05-05T09:18:38Z</time></trkpt><trkpt lat="41.517598665257054" lon="19.828043467667367"><ele>740.5</ele><time>2026-05-05T09:18:39Z</time></trkpt><trkpt lat="41.51759588153866" lon="19.828227375214045"><ele>742.0</ele><time>2026-05-05T09:18:40Z</time></trkpt><trkpt lat="41.517642616210686" lon="19.828411612239258"><ele>743.5</ele><time>2026-05-05T09:18:41Z</time></trkpt><trkpt lat="41.51769906946292" lon="19.828605031331776"><ele>745.0</ele><time>2026-05-05T09:18:42Z</time></trkpt><trkpt lat="41.51775466435638" lon="19.82876327314439"><ele>746.0</ele><time>2026-05-05T09:18:43Z</time></trkpt><trkpt lat="41.51781865078924" lon="19.8288598629974"><ele>747.0</ele><time>2026-05-05T09:18:44Z</time></trkpt><trkpt lat="41.517918024214886" lon="19.828898530672486"><ele>748.0</ele><time>2026-05-05T09:18:45Z</time></trkpt><trkpt lat="41.51805677276225" lon="19.82891664696612"><ele>749.0</ele><time>2026-05-05T09:18:46Z</time></trkpt><trkpt lat="41.51821838842591" lon="19.828958411604475"><ele>749.0</ele><time>2026-05-05T09:18:47Z</time></trkpt><trkpt lat="41.518373646293576" lon="19.82899205761048"><ele>749.0</ele><time>2026-05-05T09:18:48Z</time></trkpt><trkpt lat="41.518511040783295" lon="19.828989234259396"><ele>749.0</ele><time>2026-05-05T09:18:49Z</time></trkpt><trkpt lat="41.518610193025275" lon="19.829018191748002"><ele>749.0</ele><time>2026-05-05T09:18:50Z</time></trkpt><trkpt lat="41.51867705091232" lon="19.829105955407222"><ele>748.25</ele><time>2026-05-05T09:18:51Z</time></trkpt><trkpt lat="41.518750283293954" lon="19.82923894733545"><ele>747.5</ele><time>2026-05-05T09:18:52Z</time></trkpt><trkpt lat="41.518833133254326" lon="19.829395383497815"><ele>746.75</ele><time>2026-05-05T09:18:53Z</time></trkpt><trkpt lat="41.51892678099762" lon="19.82953036171633"><ele>746.0</ele><time>2026-05-05T09:18:54Z</time></trkpt><trkpt lat="41.51901204125249" lon="19.829610062836277"><ele>752.5</ele><time>2026-05-05T09:18:55Z</time></trkpt><trkpt lat="41.51911756852463" lon="19.829651634360076"><ele>759.0</ele><time>2026-05-05T09:18:56Z</time></trkpt><trkpt lat="41.51923415567845" lon="19.82963075881037"><ele>765.5</ele><time>2026-05-05T09:18:57Z</time></trkpt><trkpt lat="41.51935821160179" lon="19.829566784607202"><ele>772.0</ele><time>2026-05-05T09:18:58Z</time></trkpt><trkpt lat="41.51948821213728" lon="19.82947180800445"><ele>774.3333333333333</ele><time>2026-05-05T09:18:59Z</time></trkpt><trkpt lat="41.519608714843564" lon="19.829322469964236"><ele>776.6666666666667</ele><time>2026-05-05T09:19:00Z</time></trkpt><trkpt lat="41.51973721905467" lon="19.82916501782125"><ele>779.0</ele><time>2026-05-05T09:19:01Z</time></trkpt><trkpt lat="41.51987563302752" lon="19.82905376726607"><ele>774.25</ele><time>2026-05-05T09:19:02Z</time></trkpt><trkpt lat="41.520004916939236" lon="19.82897528304563"><ele>769.5</ele><time>2026-05-05T09:19:03Z</time></trkpt><trkpt lat="41.52011638179327" lon="19.828906262967777"><ele>764.75</ele><time>2026-05-05T09:19:04Z</time></trkpt><trkpt lat="41.52023254018297" lon="19.8288727647786"><ele>760.0</ele><time>2026-05-05T09:19:05Z</time></trkpt><trkpt lat="41.520365195922004" lon="19.828866507200345"><ele>762.4</ele><time>2026-05-05T09:19:06Z</time></trkpt><trkpt lat="41.520498211910926" lon="19.82887005485062"><ele>764.8</ele><time>2026-05-05T09:19:07Z</time></trkpt><trkpt lat="41.5205930825748" lon="19.82888086482354"><ele>767.2</ele><time>2026-05-05T09:19:08Z</time></trkpt><trkpt lat="41.52067806930276" lon="19.82893261169961"><ele>769.6</ele><time>2026-05-05T09:19:09.999Z</time></trkpt><trkpt lat="41.52067764966367" lon="19.829025793991075"><ele>772.0</ele><time>2026-05-05T09:19:11.999Z</time></trkpt><trkpt lat="41.52062034447791" lon="19.829073041254343"><ele>772.0</ele><time>2026-05-05T09:19:12.999Z</time></trkpt><trkpt lat="41.52051739589374" lon="19.829096325594893"><ele>772.0</ele><time>2026-05-05T09:19:13.999Z</time></trkpt><trkpt lat="41.52039175625511" lon="19.82910771493423"><ele>772.0</ele><time>2026-05-05T09:19:14.999Z</time></trkpt><trkpt lat="41.520262749074405" lon="19.82914406003708"><ele>772.0</ele><time>2026-05-05T09:19:15.999Z</time></trkpt><trkpt lat="41.52012684462742" lon="19.829231603587377"><ele>773.75</ele><time>2026-05-05T09:19:16.999Z</time></trkpt><trkpt lat="41.51998751722549" lon="19.82935374835238"><ele>775.5</ele><time>2026-05-05T09:19:17.999Z</time></trkpt><trkpt lat="41.51988326950395" lon="19.829471034792363"><ele>777.25</ele><time>2026-05-05T09:19:18.999Z</time></trkpt><trkpt lat="41.51981489145991" lon="19.82961608722785"><ele>779.0</ele><time>2026-05-05T09:19:19.999Z</time></trkpt><trkpt lat="41.51976433782094" lon="19.82982009694481"><ele>779.0</ele><time>2026-05-05T09:19:20.999Z</time></trkpt><trkpt lat="41.5197048945913" lon="19.830043091082697"><ele>779.0</ele><time>2026-05-05T09:19:21.999Z</time></trkpt><trkpt lat="41.51964133846089" lon="19.83024392330309"><ele>779.0</ele><time>2026-05-05T09:19:22.999Z</time></trkpt><trkpt lat="41.519583391483636" lon="19.83037919656809"><ele>780.4000000000001</ele><time>2026-05-05T09:19:23.999Z</time></trkpt><trkpt lat="41.51951536138557" lon="19.830428509890677"><ele>781.8</ele><time>2026-05-05T09:19:24.999Z</time></trkpt><trkpt lat="41.51941517575701" lon="19.830420339543185"><ele>783.2</ele><time>2026-05-05T09:19:25.999Z</time></trkpt><trkpt lat="41.519284813262935" lon="19.830394233558955"><ele>784.5999999999999</ele><time>2026-05-05T09:19:26.999Z</time></trkpt><trkpt lat="41.519167140508124" lon="19.83042138192173"><ele>786.0</ele><time>2026-05-05T09:19:27.999Z</time></trkpt><trkpt lat="41.51907223005099" lon="19.830530660773206"><ele>786.0</ele><time>2026-05-05T09:19:28.999Z</time></trkpt><trkpt lat="41.518985280083" lon="19.8306225610418"><ele>786.0</ele><time>2026-05-05T09:19:29.999Z</time></trkpt><trkpt lat="41.51890011875518" lon="19.830615445556102"><ele>786.0</ele><time>2026-05-05T09:19:30.999Z</time></trkpt><trkpt lat="41.5188393803957" lon="19.830538003710245"><ele>786.0</ele><time>2026-05-05T09:19:31.999Z</time></trkpt><trkpt lat="41.51882690986326" lon="19.83040735660398"><ele>786.0</ele><time>2026-05-05T09:19:32.999Z</time></trkpt><trkpt lat="41.51881820124706" lon="19.830254437558246"><ele>786.0</ele><time>2026-05-05T09:19:33.999Z</time></trkpt><trkpt lat="41.518775275949736" lon="19.830143419942026"><ele>786.0</ele><time>2026-05-05T09:19:34.999Z</time></trkpt><trkpt lat="41.51869142797812" lon="19.830093539334452"><ele>786.0</ele><time>2026-05-05T09:19:36.999Z</time></trkpt><trkpt lat="41.51860265616206" lon="19.83010042992699"><ele>786.0</ele><time>2026-05-05T09:21:44Z</time></trkpt><trkpt lat="41.51853479340993" lon="19.830109451302892"><ele>786.0</ele><time>2026-05-05T09:21:45Z</time></trkpt><trkpt lat="41.51844789159665" lon="19.830119718299894"><ele>786.0</ele><time>2026-05-05T09:21:46Z</time></trkpt><trkpt lat="41.51834823399922" lon="19.830105337354055"><ele>785.5999999999999</ele><time>2026-05-05T09:21:47Z</time></trkpt><trkpt lat="41.518250639779595" lon="19.83004670477432"><ele>785.2</ele><time>2026-05-05T09:21:48Z</time></trkpt><trkpt lat="41.518150403532836" lon="19.829970379351845"><ele>784.8</ele><time>2026-05-05T09:21:49Z</time></trkpt><trkpt lat="41.51804484231211" lon="19.829955556241387"><ele>784.4000000000001</ele><time>2026-05-05T09:21:50Z</time></trkpt><trkpt lat="41.51793905722549" lon="19.83002255683059"><ele>784.0</ele><time>2026-05-05T09:21:51Z</time></trkpt><trkpt lat="41.5178366081936" lon="19.83012946599979"><ele>788.9999999999999</ele><time>2026-05-05T09:21:52Z</time></trkpt><trkpt lat="41.51775080318882" lon="19.83020928336789"><ele>794.0</ele><time>2026-05-05T09:21:53Z</time></trkpt><trkpt lat="41.5176704126141" lon="19.83023244607279"><ele>799.0</ele><time>2026-05-05T09:21:54Z</time></trkpt><trkpt lat="41.51759817254256" lon="19.830221654143962"><ele>804.0</ele><time>2026-05-05T09:21:55.001Z</time></trkpt><trkpt lat="41.517495758313004" lon="19.83018710068894"><ele>808.9999999999999</ele><time>2026-05-05T09:21:57.001Z</time></trkpt><trkpt lat="41.51742096239964" lon="19.830235585767724"><ele>814.0</ele><time>2026-05-05T09:21:59.001Z</time></trkpt><trkpt lat="41.51737569360394" lon="19.830316451300614"><ele>813.9999999999999</ele><time>2026-05-05T09:22:01.001Z</time></trkpt><trkpt lat="41.51736566601921" lon="19.830416179171205"><ele>814.0</ele><time>2026-05-05T09:22:03.001Z</time></trkpt><trkpt lat="41.51735667083889" lon="19.83055467611793"><ele>814.0</ele><time>2026-05-05T09:22:05.001Z</time></trkpt><trkpt lat="41.51732527643219" lon="19.830633607751363"><ele>814.0</ele><time>2026-05-05T09:22:06.001Z</time></trkpt><trkpt lat="41.517267147116335" lon="19.830697222695022"><ele>813.9999999999999</ele><time>2026-05-05T09:22:07.001Z</time></trkpt><trkpt lat="41.517198933265576" lon="19.830717332260157"><ele>814.0</ele><time>2026-05-05T09:22:08Z</time></trkpt><trkpt lat="41.51707830322571" lon="19.830688381934028"><ele>811.3333333333333</ele><time>2026-05-05T09:22:10Z</time></trkpt><trkpt lat="41.51697116564622" lon="19.83063842072253"><ele>808.6666666666666</ele><time>2026-05-05T09:22:12Z</time></trkpt><trkpt lat="41.51688313330595" lon="19.83060007819146"><ele>806.0</ele><time>2026-05-05T09:22:14Z</time></trkpt><trkpt lat="41.516818575859034" lon="19.83058689809808"><ele>803.3333333333333</ele><time>2026-05-05T09:22:17Z</time></trkpt><trkpt lat="41.516741648361766" lon="19.830587743358592"><ele>800.6666666666666</ele><time>2026-05-05T09:23:10.999Z</time></trkpt><trkpt lat="41.51669544006733" lon="19.830661935726393"><ele>798.0</ele><time>2026-05-05T09:23:12.999Z</time></trkpt><trkpt lat="41.51669827378779" lon="19.830777052644734"><ele>798.0</ele><time>2026-05-05T09:23:14.999Z</time></trkpt><trkpt lat="41.516737219864034" lon="19.83090700695526"><ele>798.0</ele><time>2026-05-05T09:23:16.999Z</time></trkpt><trkpt lat="41.516768690507114" lon="19.830983964772386"><ele>798.0</ele><time>2026-05-05T09:23:17.999Z</time></trkpt><trkpt lat="41.516803961223204" lon="19.831065828582005"><ele>798.0</ele><time>2026-05-05T09:23:18.999Z</time></trkpt><trkpt lat="41.51684278117952" lon="19.831160609948054"><ele>798.0</ele><time>2026-05-05T09:23:19.999Z</time></trkpt><trkpt lat="41.5168784023844" lon="19.83128586912315"><ele>798.0</ele><time>2026-05-05T09:23:20.999Z</time></trkpt><trkpt lat="41.516901858587964" lon="19.831428677737268"><ele>799.0</ele><time>2026-05-05T09:23:21.999Z</time></trkpt><trkpt lat="41.5169197535711" lon="19.831572300306323"><ele>800.0</ele><time>2026-05-05T09:23:22.999Z</time></trkpt><trkpt lat="41.51695041922706" lon="19.831722280195404"><ele>801.0</ele><time>2026-05-05T09:23:23.999Z</time></trkpt><trkpt lat="41.51699105065927" lon="19.831878861513957"><ele>802.0</ele><time>2026-05-05T09:23:24.999Z</time></trkpt><trkpt lat="41.51701455894225" lon="19.83202960488281"><ele>804.8333333333333</ele><time>2026-05-05T09:23:25.999Z</time></trkpt><trkpt lat="41.51699820654903" lon="19.83215252715199"><ele>807.6666666666666</ele><time>2026-05-05T09:23:26.999Z</time></trkpt><trkpt lat="41.516946914357234" lon="19.83224787072474"><ele>810.5</ele><time>2026-05-05T09:23:27.999Z</time></trkpt><trkpt lat="41.51687717082737" lon="19.83232253092897"><ele>813.3333333333333</ele><time>2026-05-05T09:23:28.999Z</time></trkpt><trkpt lat="41.516850423984565" lon="19.83241981017542"><ele>816.1666666666666</ele><time>2026-05-05T09:23:29.999Z</time></trkpt><trkpt lat="41.51685710636985" lon="19.83252938765632"><ele>819.0</ele><time>2026-05-05T09:23:30.999Z</time></trkpt><trkpt lat="41.51686833030294" lon="19.832645779904556"><ele>823.4000000000001</ele><time>2026-05-05T09:23:31.999Z</time></trkpt><trkpt lat="41.516846021896846" lon="19.832746703166386"><ele>827.8</ele><time>2026-05-05T09:23:32.999Z</time></trkpt><trkpt lat="41.51680054166176" lon="19.83280606091263"><ele>832.2</ele><time>2026-05-05T09:23:33.999Z</time></trkpt><trkpt lat="41.516679553842295" lon="19.832838836090367"><ele>836.5999999999999</ele><time>2026-05-05T09:23:35.999Z</time></trkpt><trkpt lat="41.51658645410015" lon="19.832820120801703"><ele>841.0</ele><time>2026-05-05T09:23:36.999Z</time></trkpt><trkpt lat="41.516493698513116" lon="19.832811708266206"><ele>841.0</ele><time>2026-05-05T09:23:37.999Z</time></trkpt><trkpt lat="41.51640318858303" lon="19.83281329419228"><ele>841.0</ele><time>2026-05-05T09:23:38.999Z</time></trkpt><trkpt lat="41.51631450216285" lon="19.832814556439676"><ele>841.0</ele><time>2026-05-05T09:23:39.999Z</time></trkpt><trkpt lat="41.516216282717046" lon="19.832821911516273"><ele>841.0</ele><time>2026-05-05T09:23:40.999Z</time></trkpt><trkpt lat="41.51612071163569" lon="19.832837197864393"><ele>841.0</ele><time>2026-05-05T09:23:41.999Z</time></trkpt><trkpt lat="41.51602747166619" lon="19.83285797515954"><ele>839.8333333333333</ele><time>2026-05-05T09:23:42.999Z</time></trkpt><trkpt lat="41.51593688950135" lon="19.832887827630127"><ele>838.6666666666666</ele><time>2026-05-05T09:23:43.999Z</time></trkpt><trkpt lat="41.5158506029579" lon="19.83291674317674"><ele>837.5</ele><time>2026-05-05T09:23:44.999Z</time></trkpt><trkpt lat="41.51576654280616" lon="19.832928480559023"><ele>836.3333333333333</ele><time>2026-05-05T09:23:45.999Z</time></trkpt><trkpt lat="41.515684243662854" lon="19.832925335559562"><ele>835.1666666666666</ele><time>2026-05-05T09:23:46.999Z</time></trkpt><trkpt lat="41.51560350046309" lon="19.832928690267376"><ele>834.0</ele><time>2026-05-05T09:23:47.999Z</time></trkpt><trkpt lat="41.515530837720725" lon="19.832944642884613"><ele>834.0</ele><time>2026-05-05T09:23:48.999Z</time></trkpt><trkpt lat="41.51543665617943" lon="19.833020833854572"><ele>834.0</ele><time>2026-05-05T09:23:50.999Z</time></trkpt><trkpt lat="41.51539081782879" lon="19.833160734591427"><ele>834.0</ele><time>2026-05-05T09:23:52.999Z</time></trkpt><trkpt lat="41.51537550583553" lon="19.833268550531976"><ele>834.0</ele><time>2026-05-05T09:23:53.999Z</time></trkpt><trkpt lat="41.515355387125155" lon="19.833397477474485"><ele>834.0</ele><time>2026-05-05T09:23:54.999Z</time></trkpt><trkpt lat="41.51532935224557" lon="19.83353630907986"><ele>834.0</ele><time>2026-05-05T09:23:55.999Z</time></trkpt><trkpt lat="41.51529624648796" lon="19.833682571405532"><ele>834.0</ele><time>2026-05-05T09:23:56.999Z</time></trkpt><trkpt lat="41.515266062107024" lon="19.833829756920625"><ele>834.0</ele><time>2026-05-05T09:23:57.999Z</time></trkpt><trkpt lat="41.51521879264371" lon="19.83396117293327"><ele>834.0</ele><time>2026-05-05T09:23:58.999Z</time></trkpt><trkpt lat="41.515138663928724" lon="19.834047843094634"><ele>834.0</ele><time>2026-05-05T09:23:59.999Z</time></trkpt><trkpt lat="41.515050436265476" lon="19.83411675901002"><ele>834.0</ele><time>2026-05-05T09:24:01Z</time></trkpt><trkpt lat="41.51497586883727" lon="19.834207523156383"><ele>834.0</ele><time>2026-05-05T09:24:02Z</time></trkpt><trkpt lat="41.514914179603366" lon="19.834329694555354"><ele>834.0</ele><time>2026-05-05T09:24:03Z</time></trkpt><trkpt lat="41.51486125132257" lon="19.834467006495164"><ele>834.0</ele><time>2026-05-05T09:24:04Z</time></trkpt><trkpt lat="41.5148034187977" lon="19.834604055045805"><ele>834.0</ele><time>2026-05-05T09:24:05Z</time></trkpt><trkpt lat="41.51473404693115" lon="19.834737801395015"><ele>835.5</ele><time>2026-05-05T09:24:06Z</time></trkpt><trkpt lat="41.514655332590316" lon="19.83486555890566"><ele>837.0</ele><time>2026-05-05T09:24:07Z</time></trkpt><trkpt lat="41.51457350824693" lon="19.835002424239395"><ele>838.5</ele><time>2026-05-05T09:24:08Z</time></trkpt><trkpt lat="41.51449758246343" lon="19.835152461731546"><ele>840.0</ele><time>2026-05-05T09:24:09Z</time></trkpt><trkpt lat="41.514425476200095" lon="19.835313690368892"><ele>840.0</ele><time>2026-05-05T09:24:10Z</time></trkpt><trkpt lat="41.51435514780127" lon="19.83548556914223"><ele>840.0</ele><time>2026-05-05T09:24:11Z</time></trkpt><trkpt lat="41.514295186023006" lon="19.835669489034608"><ele>840.0</ele><time>2026-05-05T09:24:12Z</time></trkpt><trkpt lat="41.51425211028581" lon="19.83585342951844"><ele>840.0</ele><time>2026-05-05T09:24:13Z</time></trkpt><trkpt lat="41.514194369758805" lon="19.836004240754363"><ele>842.75</ele><time>2026-05-05T09:24:14Z</time></trkpt><trkpt lat="41.51410265462302" lon="19.836135953245968"><ele>845.5</ele><time>2026-05-05T09:24:15Z</time></trkpt><trkpt lat="41.513991672634155" lon="19.836256779694946"><ele>848.25</ele><time>2026-05-05T09:24:16Z</time></trkpt><trkpt lat="41.513876336241935" lon="19.836377770313582"><ele>851.0</ele><time>2026-05-05T09:24:17Z</time></trkpt><trkpt lat="41.513778221965104" lon="19.83648183316429"><ele>851.1999999999999</ele><time>2026-05-05T09:24:18Z</time></trkpt><trkpt lat="41.5137114322325" lon="19.8365585646289"><ele>851.4</ele><time>2026-05-05T09:24:19Z</time></trkpt><trkpt lat="41.51367919829345" lon="19.836659728430575"><ele>851.6</ele><time>2026-05-05T09:24:21Z</time></trkpt><trkpt lat="41.513670424759894" lon="19.836767451811717"><ele>851.8</ele><time>2026-05-05T09:25:06Z</time></trkpt><trkpt lat="41.51370633450115" lon="19.836892145581484"><ele>852.0</ele><time>2026-05-05T09:25:08Z</time></trkpt><trkpt lat="41.51381984085592" lon="19.83687426259822"><ele>851.8</ele><time>2026-05-05T09:25:10Z</time></trkpt><trkpt lat="41.51387427241453" lon="19.83677986815071"><ele>851.6</ele><time>2026-05-05T09:25:11Z</time></trkpt><trkpt lat="41.51392225898809" lon="19.836677538718117"><ele>851.4</ele><time>2026-05-05T09:25:12Z</time></trkpt><trkpt lat="41.513985613791306" lon="19.836576939448012"><ele>851.1999999999999</ele><time>2026-05-05T09:25:13Z</time></trkpt><trkpt lat="41.514070419840365" lon="19.836488341855183"><ele>851.0</ele><time>2026-05-05T09:25:14Z</time></trkpt><trkpt lat="41.51416583838234" lon="19.836411124852983"><ele>851.0</ele><time>2026-05-05T09:25:15Z</time></trkpt><trkpt lat="41.514261702733066" lon="19.836345487404458"><ele>851.0</ele><time>2026-05-05T09:25:16Z</time></trkpt><trkpt lat="41.514340389257484" lon="19.836340346280103"><ele>851.0</ele><time>2026-05-05T09:25:17Z</time></trkpt><trkpt lat="41.51439769388474" lon="19.836380505620852"><ele>851.0</ele><time>2026-05-05T09:25:18Z</time></trkpt><trkpt lat="41.51442310448246" lon="19.836545108882195"><ele>851.0</ele><time>2026-05-05T09:25:20Z</time></trkpt><trkpt lat="41.51438938577447" lon="19.836644371085477"><ele>851.0</ele><time>2026-05-05T09:25:21Z</time></trkpt><trkpt lat="41.51431880252883" lon="19.836710378044998"><ele>851.0</ele><time>2026-05-05T09:25:22Z</time></trkpt><trkpt lat="41.51422804892381" lon="19.836761533260347"><ele>851.0</ele><time>2026-05-05T09:25:23Z</time></trkpt><trkpt lat="41.51414547859801" lon="19.836827445703605"><ele>851.0</ele><time>2026-05-05T09:25:24Z</time></trkpt><trkpt lat="41.51408975666828" lon="19.83693869036686"><ele>851.0</ele><time>2026-05-05T09:25:25Z</time></trkpt><trkpt lat="41.51406155028613" lon="19.837088538324455"><ele>851.25</ele><time>2026-05-05T09:25:26Z</time></trkpt><trkpt lat="41.51404635385241" lon="19.83725742232232"><ele>851.5</ele><time>2026-05-05T09:25:27Z</time></trkpt><trkpt lat="41.51404680054415" lon="19.837429057488595"><ele>851.75</ele><time>2026-05-05T09:25:28Z</time></trkpt><trkpt lat="41.514063132649916" lon="19.837593448206444"><ele>852.0</ele><time>2026-05-05T09:25:29Z</time></trkpt><trkpt lat="41.51410333993074" lon="19.837748238839996"><ele>852.25</ele><time>2026-05-05T09:25:30Z</time></trkpt><trkpt lat="41.51414559840887" lon="19.837907662761598"><ele>852.5</ele><time>2026-05-05T09:25:31Z</time></trkpt><trkpt lat="41.514175158965024" lon="19.83807903992536"><ele>852.75</ele><time>2026-05-05T09:25:32Z</time></trkpt><trkpt lat="41.514201386173724" lon="19.83824270461545"><ele>853.0</ele><time>2026-05-05T09:25:33Z</time></trkpt><trkpt lat="41.51423052236239" lon="19.83839515223219"><ele>856.2</ele><time>2026-05-05T09:25:34Z</time></trkpt><trkpt lat="41.51425742112656" lon="19.838544135653734"><ele>859.4</ele><time>2026-05-05T09:25:35Z</time></trkpt><trkpt lat="41.514281660410944" lon="19.838684363329296"><ele>862.6000000000001</ele><time>2026-05-05T09:25:36Z</time></trkpt><trkpt lat="41.514279402271136" lon="19.83881363212964"><ele>865.8000000000001</ele><time>2026-05-05T09:25:37Z</time></trkpt><trkpt lat="41.514232004217874" lon="19.83892509308266"><ele>869.0</ele><time>2026-05-05T09:25:38Z</time></trkpt><trkpt lat="41.5141539460211" lon="19.83900858808874"><ele>869.0</ele><time>2026-05-05T09:25:39Z</time></trkpt><trkpt lat="41.51405388311311" lon="19.83907899916989"><ele>869.0</ele><time>2026-05-05T09:25:39.999Z</time></trkpt><trkpt lat="41.51393942779745" lon="19.839151388436882"><ele>869.0</ele><time>2026-05-05T09:25:40.999Z</time></trkpt><trkpt lat="41.51381617102726" lon="19.839238459712966"><ele>869.0</ele><time>2026-05-05T09:25:41.999Z</time></trkpt><trkpt lat="41.51370673018007" lon="19.83931687403917"><ele>862.8000000000001</ele><time>2026-05-05T09:25:42.999Z</time></trkpt><trkpt lat="41.5136131235394" lon="19.83938869794754"><ele>856.6000000000001</ele><time>2026-05-05T09:25:43.999Z</time></trkpt><trkpt lat="41.51352399383213" lon="19.839478112075216"><ele>850.4</ele><time>2026-05-05T09:25:44.999Z</time></trkpt><trkpt lat="41.51344788112805" lon="19.839584019844303"><ele>844.2</ele><time>2026-05-05T09:25:45.999Z</time></trkpt><trkpt lat="41.51340677528694" lon="19.839718374408537"><ele>838.0</ele><time>2026-05-05T09:25:46.999Z</time></trkpt><trkpt lat="41.51337947620131" lon="19.839857111332396"><ele>838.0</ele><time>2026-05-05T09:25:47.999Z</time></trkpt><trkpt lat="41.51333834007189" lon="19.840013586535576"><ele>838.0</ele><time>2026-05-05T09:25:48.999Z</time></trkpt><trkpt lat="41.51328637991281" lon="19.840181315520507"><ele>838.0</ele><time>2026-05-05T09:25:49.999Z</time></trkpt><trkpt lat="41.51322685962281" lon="19.840361973332357"><ele>838.0</ele><time>2026-05-05T09:25:50.999Z</time></trkpt><trkpt lat="41.513162381819626" lon="19.840533249427057"><ele>840.5</ele><time>2026-05-05T09:25:51.999Z</time></trkpt><trkpt lat="41.513085291515445" lon="19.840656552111174"><ele>843.0</ele><time>2026-05-05T09:25:52.999Z</time></trkpt><trkpt lat="41.51298461323502" lon="19.840734934526775"><ele>845.5</ele><time>2026-05-05T09:25:53.999Z</time></trkpt><trkpt lat="41.512871878188555" lon="19.840785853159197"><ele>848.0</ele><time>2026-05-05T09:25:54.999Z</time></trkpt><trkpt lat="41.51277334519508" lon="19.840825577294265"><ele>841.8</ele><time>2026-05-05T09:25:55.999Z</time></trkpt><trkpt lat="41.51271847594739" lon="19.84086977278464"><ele>835.5999999999999</ele><time>2026-05-05T09:25:56.999Z</time></trkpt><trkpt lat="41.512722893119644" lon="19.84105344789924"><ele>829.4000000000001</ele><time>2026-05-05T09:25:58.999Z</time></trkpt><trkpt lat="41.51275799033854" lon="19.841175338782314"><ele>823.2</ele><time>2026-05-05T09:25:59.999Z</time></trkpt><trkpt lat="41.51280299035945" lon="19.84129372464122"><ele>817.0</ele><time>2026-05-05T09:26:00.999Z</time></trkpt><trkpt lat="41.512849667759106" lon="19.841416666775096"><ele>816.8</ele><time>2026-05-05T09:26:01.999Z</time></trkpt><trkpt lat="41.51287842678436" lon="19.841524741756334"><ele>816.6</ele><time>2026-05-05T09:26:02.999Z</time></trkpt><trkpt lat="41.512872949264484" lon="19.841621033579703"><ele>816.4</ele><time>2026-05-05T09:26:03.999Z</time></trkpt><trkpt lat="41.51282033919629" lon="19.841738343609155"><ele>816.1999999999999</ele><time>2026-05-05T09:26:05.999Z</time></trkpt><trkpt lat="41.51272132740233" lon="19.84187905693257"><ele>816.0</ele><time>2026-05-05T09:26:08Z</time></trkpt><trkpt lat="41.512641691225184" lon="19.841973565032013"><ele>818.75</ele><time>2026-05-05T09:26:09Z</time></trkpt><trkpt lat="41.51254421943351" lon="19.84206568774782"><ele>821.5</ele><time>2026-05-05T09:26:10Z</time></trkpt><trkpt lat="41.512438563958725" lon="19.842162064529727"><ele>824.25</ele><time>2026-05-05T09:26:11Z</time></trkpt><trkpt lat="41.51233444878006" lon="19.84227236287317"><ele>827.0</ele><time>2026-05-05T09:26:12Z</time></trkpt><trkpt lat="41.512242449356634" lon="19.842400962766927"><ele>827.0</ele><time>2026-05-05T09:26:13Z</time></trkpt><trkpt lat="41.512161734726355" lon="19.842538661072886"><ele>827.0</ele><time>2026-05-05T09:26:14Z</time></trkpt><trkpt lat="41.512082213245385" lon="19.84267991921095"><ele>827.0</ele><time>2026-05-05T09:26:15Z</time></trkpt><trkpt lat="41.51199779689362" lon="19.842821910533466"><ele>827.0</ele><time>2026-05-05T09:26:16Z</time></trkpt><trkpt lat="41.51190672270264" lon="19.842956383663363"><ele>828.75</ele><time>2026-05-05T09:26:17Z</time></trkpt><trkpt lat="41.51181117289792" lon="19.843099931769434"><ele>830.5</ele><time>2026-05-05T09:26:18Z</time></trkpt><trkpt lat="41.5117223275703" lon="19.843249548082827"><ele>832.25</ele><time>2026-05-05T09:26:19Z</time></trkpt><trkpt lat="41.51164583995095" lon="19.843396037700415"><ele>834.0</ele><time>2026-05-05T09:26:20Z</time></trkpt><trkpt lat="41.51156719446496" lon="19.84355157158172"><ele>834.0</ele><time>2026-05-05T09:26:21Z</time></trkpt><trkpt lat="41.51147144866929" lon="19.843686455671197"><ele>834.0</ele><time>2026-05-05T09:26:22Z</time></trkpt><trkpt lat="41.51135547303817" lon="19.843809593739515"><ele>834.0</ele><time>2026-05-05T09:26:23Z</time></trkpt><trkpt lat="41.51123404837143" lon="19.843933737834792"><ele>834.0</ele><time>2026-05-05T09:26:24Z</time></trkpt><trkpt lat="41.51111058437935" lon="19.844055507190284"><ele>824.5</ele><time>2026-05-05T09:26:25Z</time></trkpt><trkpt lat="41.51100562538247" lon="19.84416133992169"><ele>815.0</ele><time>2026-05-05T09:26:26Z</time></trkpt><trkpt lat="41.51093389978982" lon="19.844273975716188"><ele>805.5</ele><time>2026-05-05T09:26:27Z</time></trkpt><trkpt lat="41.51090735806383" lon="19.84445173085137"><ele>796.0</ele><time>2026-05-05T09:26:28Z</time></trkpt><trkpt lat="41.51088189853164" lon="19.844652457390154"><ele>796.0</ele><time>2026-05-05T09:26:29Z</time></trkpt><trkpt lat="41.51085842276437" lon="19.8448701728716"><ele>796.0</ele><time>2026-05-05T09:26:30Z</time></trkpt><trkpt lat="41.510824796593774" lon="19.84508396302598"><ele>796.0</ele><time>2026-05-05T09:26:31Z</time></trkpt><trkpt lat="41.51077108168012" lon="19.84527114924064"><ele>796.5</ele><time>2026-05-05T09:26:32Z</time></trkpt><trkpt lat="41.510707164052924" lon="19.845421348534483"><ele>797.0</ele><time>2026-05-05T09:26:33Z</time></trkpt><trkpt lat="41.51064356229969" lon="19.845550333127843"><ele>797.5</ele><time>2026-05-05T09:26:34Z</time></trkpt><trkpt lat="41.510599443782056" lon="19.8456748896177"><ele>798.0</ele><time>2026-05-05T09:26:35Z</time></trkpt><trkpt lat="41.51058118190645" lon="19.845809633687093"><ele>798.0</ele><time>2026-05-05T09:26:36Z</time></trkpt><trkpt lat="41.510593478027666" lon="19.84593698903828"><ele>798.0</ele><time>2026-05-05T09:26:37Z</time></trkpt><trkpt lat="41.510630252357956" lon="19.846054535294098"><ele>798.0</ele><time>2026-05-05T09:26:38Z</time></trkpt><trkpt lat="41.510673998797955" lon="19.846169753298415"><ele>798.0</ele><time>2026-05-05T09:26:39Z</time></trkpt><trkpt lat="41.51070453675466" lon="19.846295566349017"><ele>798.0</ele><time>2026-05-05T09:26:40Z</time></trkpt><trkpt lat="41.51073634207101" lon="19.846428851947394"><ele>796.75</ele><time>2026-05-05T09:26:41Z</time></trkpt><trkpt lat="41.510775119353525" lon="19.846580722630588"><ele>795.5</ele><time>2026-05-05T09:26:42Z</time></trkpt><trkpt lat="41.510789040535265" lon="19.846751410152656"><ele>794.25</ele><time>2026-05-05T09:26:43Z</time></trkpt><trkpt lat="41.51078149558526" lon="19.846937385311367"><ele>793.0</ele><time>2026-05-05T09:26:44Z</time></trkpt><trkpt lat="41.5107789520463" lon="19.847125154223686"><ele>790.25</ele><time>2026-05-05T09:26:45Z</time></trkpt><trkpt lat="41.51080014548247" lon="19.847319028407775"><ele>787.5</ele><time>2026-05-05T09:26:46Z</time></trkpt><trkpt lat="41.51084942643277" lon="19.847506777673704"><ele>784.75</ele><time>2026-05-05T09:26:47Z</time></trkpt><trkpt lat="41.51091702999087" lon="19.847685088337556"><ele>782.0</ele><time>2026-05-05T09:26:48Z</time></trkpt><trkpt lat="41.51096387280213" lon="19.847855923515937"><ele>779.25</ele><time>2026-05-05T09:26:49Z</time></trkpt><trkpt lat="41.51096695707798" lon="19.84802691474437"><ele>776.5</ele><time>2026-05-05T09:26:50Z</time></trkpt><trkpt lat="41.51093117970247" lon="19.84820483898293"><ele>773.75</ele><time>2026-05-05T09:26:51Z</time></trkpt><trkpt lat="41.51088108134203" lon="19.848382198063387"><ele>771.0</ele><time>2026-05-05T09:26:52Z</time></trkpt><trkpt lat="41.510841010366015" lon="19.848550549865273"><ele>769.75</ele><time>2026-05-05T09:26:53Z</time></trkpt><trkpt lat="41.51081923259868" lon="19.848712155591972"><ele>768.5</ele><time>2026-05-05T09:26:54Z</time></trkpt><trkpt lat="41.51081628186822" lon="19.84888203397973"><ele>767.25</ele><time>2026-05-05T09:26:55Z</time></trkpt><trkpt lat="41.51082905065278" lon="19.84907119904814"><ele>766.0</ele><time>2026-05-05T09:26:56Z</time></trkpt><trkpt lat="41.510847893664796" lon="19.849276134616797"><ele>764.75</ele><time>2026-05-05T09:26:57Z</time></trkpt><trkpt lat="41.510858659866514" lon="19.84947488590248"><ele>763.5</ele><time>2026-05-05T09:26:58Z</time></trkpt><trkpt lat="41.51085886583981" lon="19.84962953356718"><ele>762.25</ele><time>2026-05-05T09:26:59Z</time></trkpt><trkpt lat="41.51084627790915" lon="19.84975467615198"><ele>761.0</ele><time>2026-05-05T09:27:00Z</time></trkpt><trkpt lat="41.51081821089599" lon="19.849871733375693"><ele>761.0</ele><time>2026-05-05T09:27:01Z</time></trkpt><trkpt lat="41.510784672771" lon="19.849975841103554"><ele>761.0</ele><time>2026-05-05T09:27:02Z</time></trkpt><trkpt lat="41.510768868666595" lon="19.85009978434606"><ele>761.0</ele><time>2026-05-05T09:27:03Z</time></trkpt><trkpt lat="41.5107928819814" lon="19.850229337398726"><ele>761.0</ele><time>2026-05-05T09:27:04Z</time></trkpt><trkpt lat="41.51084667537209" lon="19.850378370890894"><ele>761.0</ele><time>2026-05-05T09:27:05Z</time></trkpt><trkpt lat="41.510870846826144" lon="19.850553236186776"><ele>758.3333333333333</ele><time>2026-05-05T09:27:06Z</time></trkpt><trkpt lat="41.51085284009031" lon="19.850742151021944"><ele>755.6666666666666</ele><time>2026-05-05T09:27:07Z</time></trkpt><trkpt lat="41.51082260296246" lon="19.850950306946714"><ele>753.0</ele><time>2026-05-05T09:27:08Z</time></trkpt><trkpt lat="41.51081327789257" lon="19.851158473212028"><ele>751.25</ele><time>2026-05-05T09:27:09Z</time></trkpt><trkpt lat="41.510831078492004" lon="19.85135068885576"><ele>749.5</ele><time>2026-05-05T09:27:10Z</time></trkpt><trkpt lat="41.51084596580766" lon="19.851510419122448"><ele>747.75</ele><time>2026-05-05T09:27:11Z</time></trkpt><trkpt lat="41.510840465096905" lon="19.851651153722344"><ele>746.0</ele><time>2026-05-05T09:27:12Z</time></trkpt><trkpt lat="41.51080914549385" lon="19.85175224577335"><ele>749.0</ele><time>2026-05-05T09:27:13Z</time></trkpt><trkpt lat="41.51077073951797" lon="19.85187523788031"><ele>752.0</ele><time>2026-05-05T09:27:14Z</time></trkpt><trkpt lat="41.51072775906778" lon="19.852022041106295"><ele>755.0</ele><time>2026-05-05T09:27:15Z</time></trkpt><trkpt lat="41.51066306517629" lon="19.852182560923044"><ele>758.0</ele><time>2026-05-05T09:27:16Z</time></trkpt><trkpt lat="41.510582516846455" lon="19.852339067786236"><ele>758.0</ele><time>2026-05-05T09:27:17Z</time></trkpt><trkpt lat="41.51049393120509" lon="19.85249318554444"><ele>758.0</ele><time>2026-05-05T09:27:18Z</time></trkpt><trkpt lat="41.510403511649045" lon="19.85265701722121"><ele>758.0</ele><time>2026-05-05T09:27:19Z</time></trkpt><trkpt lat="41.51031423717428" lon="19.852822702534713"><ele>746.25</ele><time>2026-05-05T09:27:20Z</time></trkpt><trkpt lat="41.51022594652403" lon="19.852952866714734"><ele>734.5</ele><time>2026-05-05T09:27:21Z</time></trkpt><trkpt lat="41.510160967304714" lon="19.853055247760192"><ele>722.75</ele><time>2026-05-05T09:27:22Z</time></trkpt><trkpt lat="41.510139374768755" lon="19.85317925498757"><ele>711.0</ele><time>2026-05-05T09:27:23Z</time></trkpt><trkpt lat="41.51015486538358" lon="19.853341226685906"><ele>708.5</ele><time>2026-05-05T09:27:24Z</time></trkpt><trkpt lat="41.51019451515424" lon="19.85351207929479"><ele>706.0</ele><time>2026-05-05T09:27:25Z</time></trkpt><trkpt lat="41.51024650312529" lon="19.853690270652688"><ele>703.5</ele><time>2026-05-05T09:27:26Z</time></trkpt><trkpt lat="41.51032259435505" lon="19.853878543442423"><ele>701.0</ele><time>2026-05-05T09:27:27Z</time></trkpt><trkpt lat="41.51040541989416" lon="19.854075116139697"><ele>712.6666666666666</ele><time>2026-05-05T09:27:28Z</time></trkpt><trkpt lat="41.51049085261452" lon="19.854285043460283"><ele>724.3333333333334</ele><time>2026-05-05T09:27:29Z</time></trkpt><trkpt lat="41.51057613974385" lon="19.854504435301628"><ele>736.0</ele><time>2026-05-05T09:27:30Z</time></trkpt><trkpt lat="41.510656399630996" lon="19.854728554106664"><ele>736.0</ele><time>2026-05-05T09:27:31Z</time></trkpt><trkpt lat="41.51072743305763" lon="19.85495520956919"><ele>736.0</ele><time>2026-05-05T09:27:32Z</time></trkpt><trkpt lat="41.51079818187779" lon="19.85516028312041"><ele>736.0</ele><time>2026-05-05T09:27:33Z</time></trkpt><trkpt lat="41.510868158597134" lon="19.85534237468952"><ele>732.4</ele><time>2026-05-05T09:27:34Z</time></trkpt><trkpt lat="41.51092347359811" lon="19.85549330169741"><ele>728.8</ele><time>2026-05-05T09:27:35Z</time></trkpt><trkpt lat="41.51096178030621" lon="19.85563706026382"><ele>725.1999999999999</ele><time>2026-05-05T09:27:36Z</time></trkpt><trkpt lat="41.51098394638413" lon="19.855763809907785"><ele>721.5999999999999</ele><time>2026-05-05T09:27:37Z</time></trkpt><trkpt lat="41.511012101041416" lon="19.855890245847448"><ele>718.0</ele><time>2026-05-05T09:27:38Z</time></trkpt><trkpt lat="41.51105554886443" lon="19.85601150999284"><ele>719.2</ele><time>2026-05-05T09:27:39Z</time></trkpt><trkpt lat="41.51111333480704" lon="19.856122055248328"><ele>720.4</ele><time>2026-05-05T09:27:40Z</time></trkpt><trkpt lat="41.51118469341058" lon="19.856233196687267"><ele>721.6</ele><time>2026-05-05T09:27:41Z</time></trkpt><trkpt lat="41.511264317377346" lon="19.856345117561226"><ele>722.8000000000001</ele><time>2026-05-05T09:27:42Z</time></trkpt><trkpt lat="41.51134452639853" lon="19.856464723813527"><ele>724.0</ele><time>2026-05-05T09:27:43Z</time></trkpt><trkpt lat="41.511403163608165" lon="19.856608210193777"><ele>724.0</ele><time>2026-05-05T09:27:44Z</time></trkpt><trkpt lat="41.511442450755325" lon="19.8567577653729"><ele>724.0</ele><time>2026-05-05T09:27:45Z</time></trkpt><trkpt lat="41.51148974074207" lon="19.85690065968092"><ele>724.0</ele><time>2026-05-05T09:27:46Z</time></trkpt><trkpt lat="41.51155108420195" lon="19.85700685892128"><ele>724.0</ele><time>2026-05-05T09:27:47Z</time></trkpt><trkpt lat="41.51163839651619" lon="19.85706778640435"><ele>724.0</ele><time>2026-05-05T09:27:48Z</time></trkpt><trkpt lat="41.511716005605564" lon="19.85705608152429"><ele>724.0</ele><time>2026-05-05T09:27:49Z</time></trkpt><trkpt lat="41.511785379494945" lon="19.856983348757947"><ele>724.0</ele><time>2026-05-05T09:27:50Z</time></trkpt><trkpt lat="41.51185578286083" lon="19.85686802981588"><ele>724.0</ele><time>2026-05-05T09:27:51Z</time></trkpt><trkpt lat="41.511926532678565" lon="19.856723814412096"><ele>724.0</ele><time>2026-05-05T09:27:52Z</time></trkpt><trkpt lat="41.51201081700179" lon="19.85656552052743"><ele>714.5</ele><time>2026-05-05T09:27:53Z</time></trkpt><trkpt lat="41.51210767456693" lon="19.856407852552053"><ele>705.0</ele><time>2026-05-05T09:27:54Z</time></trkpt><trkpt lat="41.51221682250943" lon="19.8562636323869"><ele>695.5</ele><time>2026-05-05T09:27:55Z</time></trkpt><trkpt lat="41.51232003286941" lon="19.8561393934131"><ele>686.0</ele><time>2026-05-05T09:27:56Z</time></trkpt><trkpt lat="41.51239414119233" lon="19.85598718164777"><ele>701.0</ele><time>2026-05-05T09:27:57Z</time></trkpt><trkpt lat="41.51244763472225" lon="19.85580353324769"><ele>716.0</ele><time>2026-05-05T09:27:58Z</time></trkpt><trkpt lat="41.512501375194795" lon="19.85561973005705"><ele>731.0</ele><time>2026-05-05T09:27:59Z</time></trkpt><trkpt lat="41.51257208050253" lon="19.85543290633471"><ele>731.0</ele><time>2026-05-05T09:28:00Z</time></trkpt><trkpt lat="41.512655969011796" lon="19.85524433692615"><ele>731.0</ele><time>2026-05-05T09:28:01Z</time></trkpt><trkpt lat="41.51275337658213" lon="19.855056935542656"><ele>731.0</ele><time>2026-05-05T09:28:02Z</time></trkpt><trkpt lat="41.512854977315115" lon="19.85487635723246"><ele>725.0</ele><time>2026-05-05T09:28:03Z</time></trkpt><trkpt lat="41.51297399933676" lon="19.854712386473444"><ele>719.0</ele><time>2026-05-05T09:28:04Z</time></trkpt><trkpt lat="41.51310652966854" lon="19.854569823165185"><ele>713.0</ele><time>2026-05-05T09:28:05Z</time></trkpt><trkpt lat="41.51325108715023" lon="19.854459819710193"><ele>713.0</ele><time>2026-05-05T09:28:06Z</time></trkpt><trkpt lat="41.51340107127814" lon="19.8543719079892"><ele>713.0</ele><time>2026-05-05T09:28:07Z</time></trkpt><trkpt lat="41.51355888030277" lon="19.854307163594484"><ele>713.0</ele><time>2026-05-05T09:28:08Z</time></trkpt><trkpt lat="41.51372553969347" lon="19.854275132869983"><ele>718.6666666666666</ele><time>2026-05-05T09:28:09Z</time></trkpt><trkpt lat="41.51388865563382" lon="19.854233292827114"><ele>724.3333333333334</ele><time>2026-05-05T09:28:10Z</time></trkpt><trkpt lat="41.514050427286065" lon="19.854176252359473"><ele>730.0</ele><time>2026-05-05T09:28:11Z</time></trkpt><trkpt lat="41.51420813474085" lon="19.854101484268387"><ele>730.0</ele><time>2026-05-05T09:28:12Z</time></trkpt><trkpt lat="41.51436669890032" lon="19.85402103576187"><ele>730.0</ele><time>2026-05-05T09:28:13.001Z</time></trkpt><trkpt lat="41.514523597312355" lon="19.853954201756203"><ele>730.0</ele><time>2026-05-05T09:28:14.001Z</time></trkpt><trkpt lat="41.51467548758287" lon="19.853898891260496"><ele>722.3333333333334</ele><time>2026-05-05T09:28:15.001Z</time></trkpt><trkpt lat="41.514818955169865" lon="19.853828732607543"><ele>714.6666666666666</ele><time>2026-05-05T09:28:16.001Z</time></trkpt><trkpt lat="41.51495147079677" lon="19.85372412561857"><ele>707.0</ele><time>2026-05-05T09:28:17.001Z</time></trkpt><trkpt lat="41.51507306068474" lon="19.85359453221702"><ele>719.6666666666666</ele><time>2026-05-05T09:28:18.001Z</time></trkpt><trkpt lat="41.515171518950105" lon="19.85343826208389"><ele>732.3333333333334</ele><time>2026-05-05T09:28:19.001Z</time></trkpt><trkpt lat="41.51526422546611" lon="19.853264976871042"><ele>745.0</ele><time>2026-05-05T09:28:20.001Z</time></trkpt><trkpt lat="41.51535462565182" lon="19.85309259585528"><ele>746.75</ele><time>2026-05-05T09:28:21.001Z</time></trkpt><trkpt lat="41.51543777233524" lon="19.852925972054184"><ele>748.5</ele><time>2026-05-05T09:28:22.001Z</time></trkpt><trkpt lat="41.515501536909895" lon="19.852774504480493"><ele>750.25</ele><time>2026-05-05T09:28:23.001Z</time></trkpt><trkpt lat="41.51555738165631" lon="19.852657098123462"><ele>752.0</ele><time>2026-05-05T09:28:24.001Z</time></trkpt><trkpt lat="41.51562285352708" lon="19.85259340283523"><ele>752.0</ele><time>2026-05-05T09:28:25.001Z</time></trkpt><trkpt lat="41.515700407280164" lon="19.85258813007731"><ele>752.0</ele><time>2026-05-05T09:28:26.001Z</time></trkpt><trkpt lat="41.51576558845301" lon="19.852651131081902"><ele>752.0</ele><time>2026-05-05T09:28:27.001Z</time></trkpt><trkpt lat="41.515812204977514" lon="19.852765178766017"><ele>752.0</ele><time>2026-05-05T09:28:28.001Z</time></trkpt><trkpt lat="41.51586288904364" lon="19.852909169192554"><ele>752.0</ele><time>2026-05-05T09:28:29.001Z</time></trkpt><trkpt lat="41.515930445573936" lon="19.85306696927674"><ele>746.4000000000001</ele><time>2026-05-05T09:28:30.001Z</time></trkpt><trkpt lat="41.516016291569876" lon="19.853217945964442"><ele>740.8000000000001</ele><time>2026-05-05T09:28:31.001Z</time></trkpt><trkpt lat="41.516077256155796" lon="19.853334821308383"><ele>735.2</ele><time>2026-05-05T09:28:32.001Z</time></trkpt><trkpt lat="41.51608089953715" lon="19.853419930566496"><ele>729.6</ele><time>2026-05-05T09:28:33.001Z</time></trkpt><trkpt lat="41.51602932948089" lon="19.85349527932961"><ele>724.0</ele><time>2026-05-05T09:28:34.001Z</time></trkpt><trkpt lat="41.51596433450753" lon="19.85359415479208"><ele>722.5</ele><time>2026-05-05T09:28:35.001Z</time></trkpt><trkpt lat="41.515926952415334" lon="19.853733282637847"><ele>721.0</ele><time>2026-05-05T09:28:36.001Z</time></trkpt><trkpt lat="41.515933133938695" lon="19.85391732305566"><ele>719.5</ele><time>2026-05-05T09:28:37.001Z</time></trkpt><trkpt lat="41.515950987978364" lon="19.854129028722788"><ele>718.0</ele><time>2026-05-05T09:28:38.001Z</time></trkpt><trkpt lat="41.515962988111504" lon="19.854345263582445"><ele>717.3333333333334</ele><time>2026-05-05T09:28:39.001Z</time></trkpt><trkpt lat="41.51598685264691" lon="19.854568405944054"><ele>716.6666666666666</ele><time>2026-05-05T09:28:40Z</time></trkpt><trkpt lat="41.515999490884695" lon="19.8547963475911"><ele>716.0</ele><time>2026-05-05T09:28:41Z</time></trkpt><trkpt lat="41.51599794628931" lon="19.854991431515074"><ele>715.75</ele><time>2026-05-05T09:28:42Z</time></trkpt><trkpt lat="41.516025416587475" lon="19.855161328935797"><ele>715.5</ele><time>2026-05-05T09:28:43Z</time></trkpt><trkpt lat="41.516085675601616" lon="19.85527629682703"><ele>715.25</ele><time>2026-05-05T09:28:44Z</time></trkpt><trkpt lat="41.516175629204504" lon="19.855367963377855"><ele>715.0</ele><time>2026-05-05T09:28:45Z</time></trkpt><trkpt lat="41.51629538913379" lon="19.855447602628182"><ele>715.0</ele><time>2026-05-05T09:28:46Z</time></trkpt><trkpt lat="41.51642039010454" lon="19.855523138785305"><ele>715.0</ele><time>2026-05-05T09:28:47Z</time></trkpt><trkpt lat="41.51652097767777" lon="19.855553153913572"><ele>715.0</ele><time>2026-05-05T09:28:48Z</time></trkpt><trkpt lat="41.516618282035054" lon="19.855520446565734"><ele>715.0</ele><time>2026-05-05T09:28:49Z</time></trkpt><trkpt lat="41.51672696053856" lon="19.855489280109722"><ele>715.0</ele><time>2026-05-05T09:28:50Z</time></trkpt><trkpt lat="41.51685609400507" lon="19.85547076755945"><ele>715.0</ele><time>2026-05-05T09:28:51Z</time></trkpt><trkpt lat="41.51696048984788" lon="19.855517063016748"><ele>715.0</ele><time>2026-05-05T09:28:52Z</time></trkpt><trkpt lat="41.51702917731657" lon="19.85561369919998"><ele>715.0</ele><time>2026-05-05T09:28:53Z</time></trkpt><trkpt lat="41.517077868937626" lon="19.855749731129062"><ele>710.25</ele><time>2026-05-05T09:28:54Z</time></trkpt><trkpt lat="41.517134557011445" lon="19.85590124896081"><ele>705.5</ele><time>2026-05-05T09:28:55Z</time></trkpt><trkpt lat="41.51719956561381" lon="19.85600379376503"><ele>700.75</ele><time>2026-05-05T09:28:56Z</time></trkpt><trkpt lat="41.51729082515562" lon="19.856057074025237"><ele>696.0</ele><time>2026-05-05T09:28:57Z</time></trkpt><trkpt lat="41.51741273485572" lon="19.85609146545876"><ele>696.0</ele><time>2026-05-05T09:28:58Z</time></trkpt><trkpt lat="41.51751487354413" lon="19.856084869731767"><ele>696.0</ele><time>2026-05-05T09:28:59Z</time></trkpt><trkpt lat="41.51760407149359" lon="19.85601565755882"><ele>696.0</ele><time>2026-05-05T09:29:00Z</time></trkpt><trkpt lat="41.51770927870703" lon="19.85593176995364"><ele>696.0</ele><time>2026-05-05T09:29:01Z</time></trkpt><trkpt lat="41.51782007322313" lon="19.855891282040268"><ele>696.0</ele><time>2026-05-05T09:29:02Z</time></trkpt><trkpt lat="41.517929196184134" lon="19.855897139116987"><ele>696.4</ele><time>2026-05-05T09:29:03Z</time></trkpt><trkpt lat="41.518026740907054" lon="19.855953592770597"><ele>696.8</ele><time>2026-05-05T09:29:04Z</time></trkpt><trkpt lat="41.51812872746457" lon="19.85603030145847"><ele>697.1999999999999</ele><time>2026-05-05T09:29:05Z</time></trkpt><trkpt lat="41.51823365053269" lon="19.8560696107837"><ele>697.5999999999999</ele><time>2026-05-05T09:29:06Z</time></trkpt><trkpt lat="41.51832652060725" lon="19.85605218717002"><ele>698.0</ele><time>2026-05-05T09:29:07Z</time></trkpt><trkpt lat="41.5184215430137" lon="19.85598604921887"><ele>706.0</ele><time>2026-05-05T09:29:08Z</time></trkpt><trkpt lat="41.51850993646388" lon="19.85586784288978"><ele>714.0</ele><time>2026-05-05T09:29:09Z</time></trkpt><trkpt lat="41.51859586566628" lon="19.85578245564139"><ele>722.0</ele><time>2026-05-05T09:29:10Z</time></trkpt><trkpt lat="41.51868313351937" lon="19.855790955315406"><ele>730.0</ele><time>2026-05-05T09:29:11Z</time></trkpt><trkpt lat="41.518813521537766" lon="19.85585021026725"><ele>730.0</ele><time>2026-05-05T09:29:12Z</time></trkpt><trkpt lat="41.51896928757431" lon="19.855942693717523"><ele>730.0</ele><time>2026-05-05T09:29:13Z</time></trkpt><trkpt lat="41.519116714732604" lon="19.85602602000087"><ele>730.0</ele><time>2026-05-05T09:29:14Z</time></trkpt><trkpt lat="41.5192314907371" lon="19.85607931672829"><ele>730.0</ele><time>2026-05-05T09:29:15Z</time></trkpt><trkpt lat="41.519323619195326" lon="19.856067208063944"><ele>730.0</ele><time>2026-05-05T09:29:16Z</time></trkpt><trkpt lat="41.519410170755904" lon="19.85599529847234"><ele>730.0</ele><time>2026-05-05T09:29:17Z</time></trkpt><trkpt lat="41.51950629280267" lon="19.85588975681929"><ele>730.0</ele><time>2026-05-05T09:29:18Z</time></trkpt><trkpt lat="41.51961238523567" lon="19.855844890226845"><ele>730.0</ele><time>2026-05-05T09:29:19Z</time></trkpt><trkpt lat="41.51972622540319" lon="19.85585674689"><ele>727.25</ele><time>2026-05-05T09:29:20Z</time></trkpt><trkpt lat="41.51984735969482" lon="19.85583878242529"><ele>724.5</ele><time>2026-05-05T09:29:21Z</time></trkpt><trkpt lat="41.519969350996035" lon="19.855776573409198"><ele>721.75</ele><time>2026-05-05T09:29:22Z</time></trkpt><trkpt lat="41.520089300184296" lon="19.855738104664027"><ele>719.0</ele><time>2026-05-05T09:29:23Z</time></trkpt><trkpt lat="41.520196237933234" lon="19.855740836654295"><ele>719.0</ele><time>2026-05-05T09:29:24Z</time></trkpt><trkpt lat="41.520296979501154" lon="19.855772592105165"><ele>719.0</ele><time>2026-05-05T09:29:25Z</time></trkpt><trkpt lat="41.52038171112578" lon="19.8558019446367"><ele>719.0</ele><time>2026-05-05T09:29:26Z</time></trkpt><trkpt lat="41.52044184705984" lon="19.855828078947184"><ele>719.0</ele><time>2026-05-05T09:29:27Z</time></trkpt><trkpt lat="41.52049633660322" lon="19.855918336785752"><ele>719.0</ele><time>2026-05-05T09:29:29Z</time></trkpt><trkpt lat="41.52049909539698" lon="19.856012225093558"><ele>719.0</ele><time>2026-05-05T09:29:31Z</time></trkpt><trkpt lat="41.52048250674041" lon="19.85609954245148"><ele>717.1666666666666</ele><time>2026-05-05T09:29:33Z</time></trkpt><trkpt lat="41.52042045324233" lon="19.85613935180572"><ele>715.3333333333333</ele><time>2026-05-05T09:29:36Z</time></trkpt><trkpt lat="41.52035098298488" lon="19.856174422785173"><ele>713.5</ele><time>2026-05-05T09:30:10Z</time></trkpt><trkpt lat="41.520295722504166" lon="19.856302370717962"><ele>711.6666666666666</ele><time>2026-05-05T09:30:12Z</time></trkpt><trkpt lat="41.52025450840762" lon="19.85638692001255"><ele>709.8333333333334</ele><time>2026-05-05T09:30:13Z</time></trkpt><trkpt lat="41.52021461937033" lon="19.856468662576123"><ele>708.0</ele><time>2026-05-05T09:30:14Z</time></trkpt><trkpt lat="41.520173106839856" lon="19.856565365275554"><ele>708.0</ele><time>2026-05-05T09:30:15Z</time></trkpt><trkpt lat="41.520128149386615" lon="19.856671925424532"><ele>708.0</ele><time>2026-05-05T09:30:16Z</time></trkpt><trkpt lat="41.52007767589412" lon="19.856780884632375"><ele>708.0</ele><time>2026-05-05T09:30:17Z</time></trkpt><trkpt lat="41.52002861290773" lon="19.856898378360473"><ele>708.0</ele><time>2026-05-05T09:30:18Z</time></trkpt><trkpt lat="41.51996460955665" lon="19.85702988211647"><ele>708.0</ele><time>2026-05-05T09:30:19Z</time></trkpt><trkpt lat="41.51989556628876" lon="19.857164014628392"><ele>715.75</ele><time>2026-05-05T09:30:20Z</time></trkpt><trkpt lat="41.51982540537652" lon="19.857306078500283"><ele>723.5</ele><time>2026-05-05T09:30:21Z</time></trkpt><trkpt lat="41.51975363732114" lon="19.857447185891655"><ele>731.25</ele><time>2026-05-05T09:30:22Z</time></trkpt><trkpt lat="41.51967152999413" lon="19.857580753775732"><ele>739.0</ele><time>2026-05-05T09:30:23Z</time></trkpt><trkpt lat="41.519571826348205" lon="19.857702370397657"><ele>735.75</ele><time>2026-05-05T09:30:24Z</time></trkpt><trkpt lat="41.51945827382668" lon="19.85780550294038"><ele>732.5</ele><time>2026-05-05T09:30:25Z</time></trkpt><trkpt lat="41.51933290751304" lon="19.857894351538242"><ele>729.25</ele><time>2026-05-05T09:30:26Z</time></trkpt><trkpt lat="41.51920198380011" lon="19.857968239841703"><ele>726.0</ele><time>2026-05-05T09:30:27Z</time></trkpt><trkpt lat="41.519075007979986" lon="19.858058325130678"><ele>726.0</ele><time>2026-05-05T09:30:28Z</time></trkpt><trkpt lat="41.51895606309838" lon="19.85817845497409"><ele>726.0</ele><time>2026-05-05T09:30:29Z</time></trkpt><trkpt lat="41.51883459006726" lon="19.858308573331517"><ele>726.0</ele><time>2026-05-05T09:30:30Z</time></trkpt><trkpt lat="41.51870930554843" lon="19.858435698807774"><ele>725.3333333333334</ele><time>2026-05-05T09:30:31Z</time></trkpt><trkpt lat="41.51858114793757" lon="19.858565947249865"><ele>724.6666666666667</ele><time>2026-05-05T09:30:32Z</time></trkpt><trkpt lat="41.51845517300378" lon="19.85868245058741"><ele>724.0</ele><time>2026-05-05T09:30:33Z</time></trkpt><trkpt lat="41.51832440718039" lon="19.85876999053301"><ele>724.0</ele><time>2026-05-05T09:30:34Z</time></trkpt><trkpt lat="41.518211735388384" lon="19.858825233076757"><ele>724.0</ele><time>2026-05-05T09:30:35Z</time></trkpt><trkpt lat="41.51814545957542" lon="19.85888640282828"><ele>724.0</ele><time>2026-05-05T09:30:36Z</time></trkpt><trkpt lat="41.51811956824248" lon="19.858985515317396"><ele>724.0</ele><time>2026-05-05T09:30:37Z</time></trkpt><trkpt lat="41.51813682609712" lon="19.85911591912601"><ele>724.0</ele><time>2026-05-05T09:30:38Z</time></trkpt><trkpt lat="41.51818389374719" lon="19.859270041807232"><ele>723.25</ele><time>2026-05-05T09:30:39Z</time></trkpt><trkpt lat="41.5182262765003" lon="19.85945796011195"><ele>722.5</ele><time>2026-05-05T09:30:40Z</time></trkpt><trkpt lat="41.51825224377846" lon="19.85965834007886"><ele>721.75</ele><time>2026-05-05T09:30:41Z</time></trkpt><trkpt lat="41.51830456742709" lon="19.859826309678095"><ele>721.0</ele><time>2026-05-05T09:30:42Z</time></trkpt><trkpt lat="41.518412875111316" lon="19.85997807372756"><ele>718.0</ele><time>2026-05-05T09:30:43Z</time></trkpt><trkpt lat="41.518536911439455" lon="19.860126293917656"><ele>715.0</ele><time>2026-05-05T09:30:44Z</time></trkpt><trkpt lat="41.51862751862659" lon="19.860294106699502"><ele>712.0</ele><time>2026-05-05T09:30:45Z</time></trkpt><trkpt lat="41.51866404560213" lon="19.860489708955534"><ele>712.0</ele><time>2026-05-05T09:30:46Z</time></trkpt><trkpt lat="41.51866434870404" lon="19.860694597322166"><ele>712.0</ele><time>2026-05-05T09:30:47Z</time></trkpt><trkpt lat="41.5186542375161" lon="19.860874050672823"><ele>712.0</ele><time>2026-05-05T09:30:48Z</time></trkpt><trkpt lat="41.51867620891105" lon="19.86101816415483"><ele>712.0</ele><time>2026-05-05T09:30:49Z</time></trkpt><trkpt lat="41.51872635198005" lon="19.861150543379754"><ele>721.0</ele><time>2026-05-05T09:30:50Z</time></trkpt><trkpt lat="41.51879473723047" lon="19.861316374202577"><ele>730.0</ele><time>2026-05-05T09:30:51Z</time></trkpt><trkpt lat="41.51887016327377" lon="19.861489323279827"><ele>739.0</ele><time>2026-05-05T09:30:52Z</time></trkpt><trkpt lat="41.518932853821916" lon="19.861649085438614"><ele>748.0</ele><time>2026-05-05T09:30:53Z</time></trkpt><trkpt lat="41.518998022088304" lon="19.861774791798375"><ele>744.2</ele><time>2026-05-05T09:30:54Z</time></trkpt><trkpt lat="41.51906879515263" lon="19.86186393002722"><ele>740.4</ele><time>2026-05-05T09:30:55Z</time></trkpt><trkpt lat="41.51915920282633" lon="19.86193299383064"><ele>736.6</ele><time>2026-05-05T09:30:56Z</time></trkpt><trkpt lat="41.51924969039551" lon="19.862025212587266"><ele>732.8000000000001</ele><time>2026-05-05T09:30:57Z</time></trkpt><trkpt lat="41.51933328950335" lon="19.862141182750012"><ele>729.0</ele><time>2026-05-05T09:30:58Z</time></trkpt><trkpt lat="41.51942183270738" lon="19.862288235457555"><ele>729.0</ele><time>2026-05-05T09:30:59Z</time></trkpt><trkpt lat="41.519503033488185" lon="19.862432932337065"><ele>729.0</ele><time>2026-05-05T09:31:00Z</time></trkpt><trkpt lat="41.51957206651268" lon="19.862586317531168"><ele>729.0</ele><time>2026-05-05T09:31:01Z</time></trkpt><trkpt lat="41.51961825193694" lon="19.86274319809108"><ele>729.0</ele><time>2026-05-05T09:31:01.999Z</time></trkpt><trkpt lat="41.519651317645376" lon="19.86289501849949"><ele>733.75</ele><time>2026-05-05T09:31:02.999Z</time></trkpt><trkpt lat="41.519698838144336" lon="19.86303266601738"><ele>738.5</ele><time>2026-05-05T09:31:03.999Z</time></trkpt><trkpt lat="41.519773526952235" lon="19.863157062411997"><ele>743.25</ele><time>2026-05-05T09:31:04.999Z</time></trkpt><trkpt lat="41.51987294934648" lon="19.863274725996636"><ele>748.0</ele><time>2026-05-05T09:31:05.999Z</time></trkpt><trkpt lat="41.519982681357504" lon="19.86337601413988"><ele>744.25</ele><time>2026-05-05T09:31:06.999Z</time></trkpt><trkpt lat="41.52009229150599" lon="19.863486967550326"><ele>740.5</ele><time>2026-05-05T09:31:07.999Z</time></trkpt><trkpt lat="41.52019074418728" lon="19.86362161159342"><ele>736.75</ele><time>2026-05-05T09:31:08.999Z</time></trkpt><trkpt lat="41.520288714872436" lon="19.863748213383836"><ele>733.0</ele><time>2026-05-05T09:31:09.999Z</time></trkpt><trkpt lat="41.52037742287626" lon="19.863830787845693"><ele>740.25</ele><time>2026-05-05T09:31:10.999Z</time></trkpt><trkpt lat="41.52048401461956" lon="19.863880637735193"><ele>747.5</ele><time>2026-05-05T09:31:11.999Z</time></trkpt><trkpt lat="41.52061022381541" lon="19.863909198812344"><ele>754.75</ele><time>2026-05-05T09:31:12.999Z</time></trkpt><trkpt lat="41.520728553078115" lon="19.863952776696586"><ele>762.0</ele><time>2026-05-05T09:31:13.999Z</time></trkpt><trkpt lat="41.52081666060984" lon="19.864017684905523"><ele>762.0</ele><time>2026-05-05T09:31:14.999Z</time></trkpt><trkpt lat="41.52087946328985" lon="19.8640866997536"><ele>762.0</ele><time>2026-05-05T09:31:15.999Z</time></trkpt><trkpt lat="41.52092433497621" lon="19.864166930899607"><ele>762.0</ele><time>2026-05-05T09:31:16.999Z</time></trkpt><trkpt lat="41.52093924510329" lon="19.864257553194914"><ele>762.0</ele><time>2026-05-05T09:31:17.999Z</time></trkpt><trkpt lat="41.52093149730887" lon="19.86438547334977"><ele>762.0</ele><time>2026-05-05T09:31:18.999Z</time></trkpt><trkpt lat="41.52089823982528" lon="19.864538154148917"><ele>762.0</ele><time>2026-05-05T09:31:19.999Z</time></trkpt><trkpt lat="41.52085758146949" lon="19.864696130318865"><ele>762.0</ele><time>2026-05-05T09:31:20.999Z</time></trkpt><trkpt lat="41.52084874955672" lon="19.864812058082013"><ele>762.0</ele><time>2026-05-05T09:31:21.999Z</time></trkpt><trkpt lat="41.520898370838296" lon="19.86490735497985"><ele>762.0</ele><time>2026-05-05T09:31:22.999Z</time></trkpt><trkpt lat="41.52095683237422" lon="19.865014193189072"><ele>762.0</ele><time>2026-05-05T09:31:23.999Z</time></trkpt><trkpt lat="41.52098262946511" lon="19.865134032478256"><ele>762.0</ele><time>2026-05-05T09:31:24.999Z</time></trkpt><trkpt lat="41.52097492877684" lon="19.86528704695862"><ele>764.5</ele><time>2026-05-05T09:31:25.999Z</time></trkpt><trkpt lat="41.52095170906264" lon="19.865475454194392"><ele>767.0</ele><time>2026-05-05T09:31:26.999Z</time></trkpt><trkpt lat="41.520934746778295" lon="19.865669520218496"><ele>769.5</ele><time>2026-05-05T09:31:27.999Z</time></trkpt><trkpt lat="41.52092142834842" lon="19.86587582476524"><ele>772.0</ele><time>2026-05-05T09:31:28.999Z</time></trkpt><trkpt lat="41.52089992074718" lon="19.866094943874945"><ele>775.0</ele><time>2026-05-05T09:31:29.999Z</time></trkpt><trkpt lat="41.520869602738294" lon="19.866316228142423"><ele>778.0</ele><time>2026-05-05T09:31:30.999Z</time></trkpt><trkpt lat="41.520828973880256" lon="19.866510619863913"><ele>781.0</ele><time>2026-05-05T09:31:31.999Z</time></trkpt><trkpt lat="41.520769422782024" lon="19.86665960200965"><ele>784.0</ele><time>2026-05-05T09:31:32.999Z</time></trkpt><trkpt lat="41.52069212954607" lon="19.866789835900445"><ele>784.0</ele><time>2026-05-05T09:31:33.999Z</time></trkpt><trkpt lat="41.520608036215926" lon="19.866895890154897"><ele>784.0</ele><time>2026-05-05T09:31:34.999Z</time></trkpt><trkpt lat="41.52053402626063" lon="19.866963602886283"><ele>784.0</ele><time>2026-05-05T09:31:35.999Z</time></trkpt><trkpt lat="41.52042564415803" lon="19.866908061680057"><ele>784.0</ele><time>2026-05-05T09:31:37.999Z</time></trkpt><trkpt lat="41.5204125833208" lon="19.866816546282696"><ele>784.0</ele><time>2026-05-05T09:31:38.999Z</time></trkpt><trkpt lat="41.52042987932008" lon="19.866694556983465"><ele>784.0</ele><time>2026-05-05T09:31:39.999Z</time></trkpt><trkpt lat="41.52046842735195" lon="19.866551279172526"><ele>784.0</ele><time>2026-05-05T09:31:40.999Z</time></trkpt><trkpt lat="41.52050444510126" lon="19.866391912445668"><ele>784.0</ele><time>2026-05-05T09:31:41.999Z</time></trkpt><trkpt lat="41.520515757274836" lon="19.86624405732491"><ele>784.0</ele><time>2026-05-05T09:31:42.999Z</time></trkpt><trkpt lat="41.52050274427129" lon="19.866116993250156"><ele>784.0</ele><time>2026-05-05T09:31:43.999Z</time></trkpt><trkpt lat="41.52045625258454" lon="19.865989510166738"><ele>783.5</ele><time>2026-05-05T09:31:44.999Z</time></trkpt><trkpt lat="41.52038673209278" lon="19.865846386876843"><ele>783.0</ele><time>2026-05-05T09:31:45.999Z</time></trkpt><trkpt lat="41.52031163922121" lon="19.8656998170661"><ele>782.5</ele><time>2026-05-05T09:31:46.999Z</time></trkpt><trkpt lat="41.520233197740296" lon="19.865586221085216"><ele>782.0</ele><time>2026-05-05T09:31:47.999Z</time></trkpt><trkpt lat="41.52013763268907" lon="19.86552477328531"><ele>782.0</ele><time>2026-05-05T09:31:48.999Z</time></trkpt><trkpt lat="41.52002006455956" lon="19.86551500144455"><ele>782.0</ele><time>2026-05-05T09:31:49.999Z</time></trkpt><trkpt lat="41.51989188355937" lon="19.865552327054107"><ele>782.0</ele><time>2026-05-05T09:31:50.999Z</time></trkpt><trkpt lat="41.519759360343464" lon="19.86561105475595"><ele>782.0</ele><time>2026-05-05T09:31:51.999Z</time></trkpt><trkpt lat="41.51962776205825" lon="19.865647239596942"><ele>784.0</ele><time>2026-05-05T09:31:52.999Z</time></trkpt><trkpt lat="41.51950279343242" lon="19.8656345311469"><ele>786.0</ele><time>2026-05-05T09:31:53.999Z</time></trkpt><trkpt lat="41.51939273653849" lon="19.86560924350861"><ele>788.0</ele><time>2026-05-05T09:31:54.999Z</time></trkpt><trkpt lat="41.519285238299005" lon="19.86565293607588"><ele>790.0</ele><time>2026-05-05T09:31:55.999Z</time></trkpt><trkpt lat="41.51918001255735" lon="19.86571973496634"><ele>790.0</ele><time>2026-05-05T09:31:56.999Z</time></trkpt><trkpt lat="41.5190893278117" lon="19.86572673845401"><ele>790.0</ele><time>2026-05-05T09:31:57.999Z</time></trkpt><trkpt lat="41.519015966728155" lon="19.865667656214455"><ele>790.0</ele><time>2026-05-05T09:31:58.999Z</time></trkpt><trkpt lat="41.5189279496505" lon="19.86559906972963"><ele>790.0</ele><time>2026-05-05T09:31:59.999Z</time></trkpt><trkpt lat="41.51882799605922" lon="19.86559837576968"><ele>790.0</ele><time>2026-05-05T09:32:00.999Z</time></trkpt><trkpt lat="41.51873545580985" lon="19.865668687408004"><ele>794.0</ele><time>2026-05-05T09:32:01.999Z</time></trkpt><trkpt lat="41.51865825704195" lon="19.865781760730545"><ele>798.0</ele><time>2026-05-05T09:32:02.999Z</time></trkpt><trkpt lat="41.51860860581443" lon="19.86589267345614"><ele>802.0</ele><time>2026-05-05T09:32:03.999Z</time></trkpt><trkpt lat="41.51856106848576" lon="19.865948925177836"><ele>806.0</ele><time>2026-05-05T09:32:04.999Z</time></trkpt><trkpt lat="41.5184699957291" lon="19.865872587622924"><ele>810.0</ele><time>2026-05-05T09:32:06.999Z</time></trkpt><trkpt lat="41.51841534182252" lon="19.865799541678278"><ele>810.0</ele><time>2026-05-05T09:32:07.999Z</time></trkpt><trkpt lat="41.51836089507975" lon="19.86572587859496"><ele>810.0</ele><time>2026-05-05T09:32:08.999Z</time></trkpt><trkpt lat="41.5183213861085" lon="19.865642284073907"><ele>810.0</ele><time>2026-05-05T09:32:09.999Z</time></trkpt><trkpt lat="41.51830719095955" lon="19.865532684809754"><ele>810.0</ele><time>2026-05-05T09:32:10.999Z</time></trkpt><trkpt lat="41.51831000472284" lon="19.865408082081277"><ele>810.0</ele><time>2026-05-05T09:32:11.999Z</time></trkpt><trkpt lat="41.51831797867544" lon="19.865275636644686"><ele>810.0</ele><time>2026-05-05T09:32:12.999Z</time></trkpt><trkpt lat="41.51833332475705" lon="19.86513880011656"><ele>807.3333333333334</ele><time>2026-05-05T09:32:13.999Z</time></trkpt><trkpt lat="41.518342504324785" lon="19.865027374674785"><ele>804.6666666666667</ele><time>2026-05-05T09:32:14.999Z</time></trkpt><trkpt lat="41.51834843910631" lon="19.864932412340877"><ele>802.0</ele><time>2026-05-05T09:32:15.999Z</time></trkpt><trkpt lat="41.51834947239431" lon="19.864848206653548"><ele>799.3333333333334</ele><time>2026-05-05T09:32:16.999Z</time></trkpt><trkpt lat="41.518352133860645" lon="19.864754144675103"><ele>796.6666666666667</ele><time>2026-05-05T09:32:17.999Z</time></trkpt><trkpt lat="41.518345091071296" lon="19.864637670029612"><ele>794.0</ele><time>2026-05-05T09:32:18.999Z</time></trkpt><trkpt lat="41.51832048756718" lon="19.864507449947872"><ele>794.0</ele><time>2026-05-05T09:32:19.999Z</time></trkpt><trkpt lat="41.51826925446837" lon="19.864398444040145"><ele>794.0</ele><time>2026-05-05T09:32:20.999Z</time></trkpt><trkpt lat="41.518175107489924" lon="19.864346162158114"><ele>794.0</ele><time>2026-05-05T09:32:21.999Z</time></trkpt><trkpt lat="41.51808031721231" lon="19.864319855380366"><ele>794.0</ele><time>2026-05-05T09:32:22.999Z</time></trkpt><trkpt lat="41.51796546935068" lon="19.86430297176826"><ele>794.0</ele><time>2026-05-05T09:32:23.999Z</time></trkpt><trkpt lat="41.51785956028939" lon="19.86426118051815"><ele>792.8000000000001</ele><time>2026-05-05T09:32:25Z</time></trkpt><trkpt lat="41.51777181056823" lon="19.864237957037894"><ele>791.6</ele><time>2026-05-05T09:32:26Z</time></trkpt><trkpt lat="41.5176804801" lon="19.864274146793786"><ele>790.4</ele><time>2026-05-05T09:32:27Z</time></trkpt><trkpt lat="41.517589372531845" lon="19.8643598064571"><ele>789.2</ele><time>2026-05-05T09:32:28Z</time></trkpt><trkpt lat="41.517504777555104" lon="19.864431754939723"><ele>788.0</ele><time>2026-05-05T09:32:29Z</time></trkpt><trkpt lat="41.51742205622558" lon="19.864455436342382"><ele>788.0</ele><time>2026-05-05T09:32:30Z</time></trkpt><trkpt lat="41.517341730974984" lon="19.86442915048529"><ele>788.0</ele><time>2026-05-05T09:32:31Z</time></trkpt><trkpt lat="41.517256035980935" lon="19.864365906009827"><ele>788.0</ele><time>2026-05-05T09:32:32Z</time></trkpt><trkpt lat="41.51717313707882" lon="19.864281762135885"><ele>788.0</ele><time>2026-05-05T09:32:33Z</time></trkpt><trkpt lat="41.51709079025399" lon="19.864177563460878"><ele>788.0</ele><time>2026-05-05T09:32:34Z</time></trkpt><trkpt lat="41.51701980551208" lon="19.864050205361426"><ele>790.4</ele><time>2026-05-05T09:32:35Z</time></trkpt><trkpt lat="41.516970632295" lon="19.863906565093206"><ele>792.8</ele><time>2026-05-05T09:32:36Z</time></trkpt><trkpt lat="41.51694685358079" lon="19.863767612394362"><ele>795.2</ele><time>2026-05-05T09:32:37Z</time></trkpt><trkpt lat="41.516898636573885" lon="19.863632188669026"><ele>797.6</ele><time>2026-05-05T09:32:38Z</time></trkpt><trkpt lat="41.51685629611479" lon="19.863523947107783"><ele>800.0</ele><time>2026-05-05T09:32:39Z</time></trkpt><trkpt lat="41.516787012221926" lon="19.86342265313599"><ele>800.0</ele><time>2026-05-05T09:32:40Z</time></trkpt><trkpt lat="41.51672001594028" lon="19.863322408668918"><ele>800.0</ele><time>2026-05-05T09:32:41Z</time></trkpt><trkpt lat="41.51667139170066" lon="19.86319444302641"><ele>800.0</ele><time>2026-05-05T09:32:42Z</time></trkpt><trkpt lat="41.51663613142862" lon="19.863047694859098"><ele>800.0</ele><time>2026-05-05T09:32:43Z</time></trkpt><trkpt lat="41.516585249004855" lon="19.86289854134944"><ele>800.0</ele><time>2026-05-05T09:32:44Z</time></trkpt><trkpt lat="41.516523108932546" lon="19.862759138583865"><ele>800.0</ele><time>2026-05-05T09:32:45Z</time></trkpt><trkpt lat="41.51643387082604" lon="19.862643225090082"><ele>800.0</ele><time>2026-05-05T09:32:46Z</time></trkpt><trkpt lat="41.5163229617042" lon="19.86254041720078"><ele>800.0</ele><time>2026-05-05T09:32:47Z</time></trkpt><trkpt lat="41.516221604209" lon="19.86243507490562"><ele>800.0</ele><time>2026-05-05T09:32:48Z</time></trkpt><trkpt lat="41.51613128795102" lon="19.86232562286675"><ele>799.4</ele><time>2026-05-05T09:32:49Z</time></trkpt><trkpt lat="41.51605189554608" lon="19.862230897995786"><ele>798.8</ele><time>2026-05-05T09:32:50Z</time></trkpt><trkpt lat="41.51596632189759" lon="19.862189357940085"><ele>798.2</ele><time>2026-05-05T09:32:51Z</time></trkpt><trkpt lat="41.51587592400576" lon="19.862229760100014"><ele>797.6</ele><time>2026-05-05T09:32:52Z</time></trkpt><trkpt lat="41.515796473481025" lon="19.862319408260625"><ele>797.0</ele><time>2026-05-05T09:32:53Z</time></trkpt><trkpt lat="41.51575676222845" lon="19.862457956678806"><ele>797.0</ele><time>2026-05-05T09:32:54Z</time></trkpt><trkpt lat="41.51576528773241" lon="19.862603677360692"><ele>797.0</ele><time>2026-05-05T09:32:55Z</time></trkpt><trkpt lat="41.51582741506658" lon="19.862747618398167"><ele>797.0</ele><time>2026-05-05T09:32:56Z</time></trkpt><trkpt lat="41.51592581459997" lon="19.862888901950566"><ele>797.0</ele><time>2026-05-05T09:32:57Z</time></trkpt><trkpt lat="41.51602914258259" lon="19.863051353314443"><ele>799.0</ele><time>2026-05-05T09:32:58Z</time></trkpt><trkpt lat="41.516112299807645" lon="19.86323978534759"><ele>801.0</ele><time>2026-05-05T09:32:59Z</time></trkpt><trkpt lat="41.51615311768624" lon="19.863449293126436"><ele>803.0</ele><time>2026-05-05T09:33:00Z</time></trkpt><trkpt lat="41.516152564347585" lon="19.86366040584824"><ele>803.5</ele><time>2026-05-05T09:33:01Z</time></trkpt><trkpt lat="41.51610031440075" lon="19.863848117598035"><ele>804.0</ele><time>2026-05-05T09:33:02Z</time></trkpt><trkpt lat="41.51604213076126" lon="19.86398991539668"><ele>804.5</ele><time>2026-05-05T09:33:03Z</time></trkpt><trkpt lat="41.51601811304718" lon="19.86409029805898"><ele>805.0</ele><time>2026-05-05T09:33:04Z</time></trkpt><trkpt lat="41.516111293270505" lon="19.86418553715042"><ele>805.0</ele><time>2026-05-05T09:33:06Z</time></trkpt><trkpt lat="41.51618581357436" lon="19.86413046213483"><ele>805.0</ele><time>2026-05-05T09:33:07Z</time></trkpt><trkpt lat="41.51624218666458" lon="19.864014335612143"><ele>805.0</ele><time>2026-05-05T09:33:08Z</time></trkpt><trkpt lat="41.516281060585904" lon="19.863866539432312"><ele>805.0</ele><time>2026-05-05T09:33:09Z</time></trkpt><trkpt lat="41.516332946589195" lon="19.8637468538363"><ele>805.0</ele><time>2026-05-05T09:33:10Z</time></trkpt><trkpt lat="41.51639644270176" lon="19.86370995919482"><ele>807.8</ele><time>2026-05-05T09:33:11Z</time></trkpt><trkpt lat="41.5164544849691" lon="19.86375860997233"><ele>810.6</ele><time>2026-05-05T09:33:12Z</time></trkpt><trkpt lat="41.516481600729215" lon="19.863860240219754"><ele>813.4000000000001</ele><time>2026-05-05T09:33:13Z</time></trkpt><trkpt lat="41.51645740966763" lon="19.863980146909448"><ele>816.2</ele><time>2026-05-05T09:33:14Z</time></trkpt><trkpt lat="41.51639230310959" lon="19.864104682505747"><ele>819.0</ele><time>2026-05-05T09:33:15Z</time></trkpt><trkpt lat="41.51633428154338" lon="19.864271445961368"><ele>823.75</ele><time>2026-05-05T09:33:16Z</time></trkpt><trkpt lat="41.516308813658455" lon="19.86444725918738"><ele>828.5</ele><time>2026-05-05T09:33:17Z</time></trkpt><trkpt lat="41.516293714027384" lon="19.86461925351484"><ele>833.25</ele><time>2026-05-05T09:33:18Z</time></trkpt><trkpt lat="41.516309522731355" lon="19.864790321380426"><ele>838.0</ele><time>2026-05-05T09:33:19Z</time></trkpt><trkpt lat="41.51635737395928" lon="19.86497885012323"><ele>840.25</ele><time>2026-05-05T09:33:20Z</time></trkpt><trkpt lat="41.51638627832679" lon="19.865173075860646"><ele>842.5</ele><time>2026-05-05T09:33:21Z</time></trkpt><trkpt lat="41.5163674047702" lon="19.865372473311094"><ele>844.75</ele><time>2026-05-05T09:33:22Z</time></trkpt><trkpt lat="41.51633881913165" lon="19.865530877733917"><ele>847.0</ele><time>2026-05-05T09:33:23Z</time></trkpt><trkpt lat="41.5163577794032" lon="19.865674495731717"><ele>847.0</ele><time>2026-05-05T09:33:24Z</time></trkpt><trkpt lat="41.51642601063278" lon="19.865803708497193"><ele>847.0</ele><time>2026-05-05T09:33:25Z</time></trkpt><trkpt lat="41.51652493921068" lon="19.865927446056478"><ele>847.0</ele><time>2026-05-05T09:33:26Z</time></trkpt><trkpt lat="41.516635069977625" lon="19.866035742050173"><ele>847.0</ele><time>2026-05-05T09:33:27Z</time></trkpt><trkpt lat="41.51674927566215" lon="19.866143569107354"><ele>847.5</ele><time>2026-05-05T09:33:28Z</time></trkpt><trkpt lat="41.51681882331915" lon="19.86628747640441"><ele>848.0</ele><time>2026-05-05T09:33:29Z</time></trkpt><trkpt lat="41.51686439342909" lon="19.866445509407402"><ele>848.5</ele><time>2026-05-05T09:33:30Z</time></trkpt><trkpt lat="41.5168830324585" lon="19.866612720042284"><ele>849.0</ele><time>2026-05-05T09:33:31Z</time></trkpt><trkpt lat="41.51688719888165" lon="19.866782655564855"><ele>849.0</ele><time>2026-05-05T09:33:32Z</time></trkpt><trkpt lat="41.516900792252294" lon="19.866951493315057"><ele>849.0</ele><time>2026-05-05T09:33:33Z</time></trkpt><trkpt lat="41.51693033347668" lon="19.867123828252215"><ele>849.0</ele><time>2026-05-05T09:33:34Z</time></trkpt><trkpt lat="41.51696369174687" lon="19.867289724680436"><ele>849.0</ele><time>2026-05-05T09:33:35Z</time></trkpt><trkpt lat="41.516979620455" lon="19.86744339785597"><ele>849.0</ele><time>2026-05-05T09:33:36Z</time></trkpt><trkpt lat="41.51698387664704" lon="19.86759767569801"><ele>849.0</ele><time>2026-05-05T09:33:37Z</time></trkpt><trkpt lat="41.51697879227634" lon="19.867740759719744"><ele>849.0</ele><time>2026-05-05T09:33:38Z</time></trkpt><trkpt lat="41.51697240211145" lon="19.867860933369403"><ele>849.0</ele><time>2026-05-05T09:33:39Z</time></trkpt><trkpt lat="41.51697026286296" lon="19.867961078065218"><ele>849.0</ele><time>2026-05-05T09:33:40Z</time></trkpt><trkpt lat="41.516987681343835" lon="19.868089500383526"><ele>849.5</ele><time>2026-05-05T09:33:42Z</time></trkpt><trkpt lat="41.51696120629342" lon="19.868214976357553"><ele>850.0</ele><time>2026-05-05T09:33:44Z</time></trkpt><trkpt lat="41.516931627116634" lon="19.868357591433103"><ele>850.5</ele><time>2026-05-05T09:33:45.999Z</time></trkpt><trkpt lat="41.51691956126117" lon="19.868440223354572"><ele>851.0</ele><time>2026-05-05T09:33:47.999Z</time></trkpt><trkpt lat="41.51691480917812" lon="19.868541788450706"><ele>851.5</ele><time>2026-05-05T09:33:51.999Z</time></trkpt><trkpt lat="41.516890681491866" lon="19.868621620283466"><ele>852.0</ele><time>2026-05-05T09:33:53.999Z</time></trkpt><trkpt lat="41.516903808109376" lon="19.868777645329224"><ele>852.0</ele><time>2026-05-05T09:33:56.999Z</time></trkpt><trkpt lat="41.51692419050027" lon="19.868881127919654"><ele>852.0</ele><time>2026-05-05T09:33:57.999Z</time></trkpt><trkpt lat="41.51694218995281" lon="19.86900772647"><ele>852.0</ele><time>2026-05-05T09:33:58.999Z</time></trkpt><trkpt lat="41.51695266673492" lon="19.86913555899607"><ele>852.0</ele><time>2026-05-05T09:33:59.999Z</time></trkpt><trkpt lat="41.51695942352715" lon="19.869271622237786"><ele>852.0</ele><time>2026-05-05T09:34:00.999Z</time></trkpt><trkpt lat="41.51696495589245" lon="19.869411991453546"><ele>852.2</ele><time>2026-05-05T09:34:01.999Z</time></trkpt><trkpt lat="41.5169663997339" lon="19.869557116230276"><ele>852.4000000000001</ele><time>2026-05-05T09:34:02.999Z</time></trkpt><trkpt lat="41.51695992523834" lon="19.8697089581016"><ele>852.5999999999999</ele><time>2026-05-05T09:34:03.999Z</time></trkpt><trkpt lat="41.5169348373442" lon="19.869858239434766"><ele>852.8</ele><time>2026-05-05T09:34:04.999Z</time></trkpt><trkpt lat="41.51690434184268" lon="19.86999899579883"><ele>853.0</ele><time>2026-05-05T09:34:05.999Z</time></trkpt><trkpt lat="41.516860502599904" lon="19.870125336751578"><ele>855.5999999999999</ele><time>2026-05-05T09:34:06.999Z</time></trkpt><trkpt lat="41.516797382773106" lon="19.87022927345555"><ele>858.1999999999999</ele><time>2026-05-05T09:34:07.999Z</time></trkpt><trkpt lat="41.51671738227203" lon="19.870318606883604"><ele>860.8</ele><time>2026-05-05T09:34:08.999Z</time></trkpt><trkpt lat="41.51664127658595" lon="19.87042131996583"><ele>863.4</ele><time>2026-05-05T09:34:09.999Z</time></trkpt><trkpt lat="41.51657841785904" lon="19.870552646159723"><ele>866.0</ele><time>2026-05-05T09:34:10.999Z</time></trkpt><trkpt lat="41.516530576160484" lon="19.870702343099836"><ele>866.0</ele><time>2026-05-05T09:34:11.999Z</time></trkpt><trkpt lat="41.51649099914495" lon="19.87087355456757"><ele>866.0</ele><time>2026-05-05T09:34:12.999Z</time></trkpt><trkpt lat="41.516458511856555" lon="19.871052815341336"><ele>866.0</ele><time>2026-05-05T09:34:13.999Z</time></trkpt><trkpt lat="41.516421765931845" lon="19.871191633793337"><ele>866.0</ele><time>2026-05-05T09:34:14.999Z</time></trkpt><trkpt lat="41.51635387506555" lon="19.871288216578705"><ele>863.75</ele><time>2026-05-05T09:34:15.999Z</time></trkpt><trkpt lat="41.516263894131015" lon="19.871379552944536"><ele>861.5</ele><time>2026-05-05T09:34:16.999Z</time></trkpt><trkpt lat="41.51619267061089" lon="19.871507690454827"><ele>859.25</ele><time>2026-05-05T09:34:17.999Z</time></trkpt><trkpt lat="41.51613649707383" lon="19.871675522021885"><ele>857.0</ele><time>2026-05-05T09:34:18.999Z</time></trkpt><trkpt lat="41.516082426712565" lon="19.871855280893133"><ele>857.0</ele><time>2026-05-05T09:34:19.999Z</time></trkpt><trkpt lat="41.51603771114881" lon="19.87204065549008"><ele>857.0</ele><time>2026-05-05T09:34:20.999Z</time></trkpt><trkpt lat="41.51599630168078" lon="19.87221823035921"><ele>857.0</ele><time>2026-05-05T09:34:21.999Z</time></trkpt><trkpt lat="41.51596461973346" lon="19.872360294238305"><ele>857.0</ele><time>2026-05-05T09:34:22.999Z</time></trkpt><trkpt lat="41.51596607789053" lon="19.87248453024712"><ele>855.25</ele><time>2026-05-05T09:34:23.999Z</time></trkpt><trkpt lat="41.516010550838296" lon="19.87262068670352"><ele>853.5</ele><time>2026-05-05T09:34:24.999Z</time></trkpt><trkpt lat="41.51608835018629" lon="19.872757299058506"><ele>851.75</ele><time>2026-05-05T09:34:25.999Z</time></trkpt><trkpt lat="41.51617913686837" lon="19.87290263336642"><ele>850.0</ele><time>2026-05-05T09:34:26.999Z</time></trkpt><trkpt lat="41.51626981907054" lon="19.87305305319682"><ele>857.6</ele><time>2026-05-05T09:34:27.999Z</time></trkpt><trkpt lat="41.51635139877639" lon="19.873204867502533"><ele>865.2</ele><time>2026-05-05T09:34:28.999Z</time></trkpt><trkpt lat="41.51642841951274" lon="19.873332448998173"><ele>872.8</ele><time>2026-05-05T09:34:29.999Z</time></trkpt><trkpt lat="41.51650293342505" lon="19.873428384270913"><ele>880.4</ele><time>2026-05-05T09:34:31Z</time></trkpt><trkpt lat="41.51655201640697" lon="19.873517080307447"><ele>888.0</ele><time>2026-05-05T09:34:32Z</time></trkpt><trkpt lat="41.516544266283674" lon="19.873601981905885"><ele>888.0</ele><time>2026-05-05T09:34:33Z</time></trkpt><trkpt lat="41.51649635671299" lon="19.873674465299043"><ele>888.0</ele><time>2026-05-05T09:34:34Z</time></trkpt><trkpt lat="41.516422492858545" lon="19.873778939252922"><ele>888.0</ele><time>2026-05-05T09:34:35Z</time></trkpt><trkpt lat="41.51633736181053" lon="19.873929641517137"><ele>888.0</ele><time>2026-05-05T09:34:36Z</time></trkpt><trkpt lat="41.5162707507817" lon="19.874117718028202"><ele>887.5</ele><time>2026-05-05T09:34:37Z</time></trkpt><trkpt lat="41.51623933567616" lon="19.87430718717209"><ele>887.0</ele><time>2026-05-05T09:34:38Z</time></trkpt><trkpt lat="41.516246428308946" lon="19.874474197230157"><ele>886.5</ele><time>2026-05-05T09:34:39Z</time></trkpt><trkpt lat="41.51630373752742" lon="19.874633826344716"><ele>886.0</ele><time>2026-05-05T09:34:40Z</time></trkpt><trkpt lat="41.51636303184338" lon="19.874815262748676"><ele>886.0</ele><time>2026-05-05T09:34:41Z</time></trkpt><trkpt lat="41.516413802556954" lon="19.8750064540661"><ele>886.0</ele><time>2026-05-05T09:34:42Z</time></trkpt><trkpt lat="41.51649577117764" lon="19.875178845533302"><ele>886.0</ele><time>2026-05-05T09:34:43Z</time></trkpt><trkpt lat="41.51661188813099" lon="19.87531946300669"><ele>887.8</ele><time>2026-05-05T09:34:44Z</time></trkpt><trkpt lat="41.51670358949576" lon="19.875454244989673"><ele>889.5999999999999</ele><time>2026-05-05T09:34:45Z</time></trkpt><trkpt lat="41.51672843426628" lon="19.875580932247065"><ele>891.4</ele><time>2026-05-05T09:34:46Z</time></trkpt><trkpt lat="41.51670161818174" lon="19.875683369493114"><ele>893.2</ele><time>2026-05-05T09:34:47Z</time></trkpt><trkpt lat="41.51663386551198" lon="19.875755270769478"><ele>895.0</ele><time>2026-05-05T09:34:48Z</time></trkpt><trkpt lat="41.51652822517558" lon="19.875797230854833"><ele>895.0</ele><time>2026-05-05T09:34:49Z</time></trkpt><trkpt lat="41.516395181555325" lon="19.875846978714986"><ele>895.0</ele><time>2026-05-05T09:34:50Z</time></trkpt><trkpt lat="41.51626762590682" lon="19.87593106536218"><ele>895.0</ele><time>2026-05-05T09:34:51Z</time></trkpt><trkpt lat="41.51616398542659" lon="19.876025391838034"><ele>895.0</ele><time>2026-05-05T09:34:52Z</time></trkpt><trkpt lat="41.516106175961646" lon="19.87611560497464"><ele>886.75</ele><time>2026-05-05T09:34:53Z</time></trkpt><trkpt lat="41.51609507731777" lon="19.876233097904187"><ele>878.5</ele><time>2026-05-05T09:34:54Z</time></trkpt><trkpt lat="41.516123067882" lon="19.87639381794636"><ele>870.25</ele><time>2026-05-05T09:34:55Z</time></trkpt><trkpt lat="41.51617007916012" lon="19.876572151397436"><ele>862.0</ele><time>2026-05-05T09:34:56Z</time></trkpt><trkpt lat="41.51622191208866" lon="19.87674039000777"><ele>867.0</ele><time>2026-05-05T09:34:57Z</time></trkpt><trkpt lat="41.5163027102758" lon="19.87686128263956"><ele>872.0</ele><time>2026-05-05T09:34:58Z</time></trkpt><trkpt lat="41.51642132015348" lon="19.87693350821364"><ele>877.0</ele><time>2026-05-05T09:34:59Z</time></trkpt><trkpt lat="41.51657127712883" lon="19.876960187700597"><ele>882.0</ele><time>2026-05-05T09:35:00Z</time></trkpt><trkpt lat="41.51673843779964" lon="19.876974703654433"><ele>882.0</ele><time>2026-05-05T09:35:01Z</time></trkpt><trkpt lat="41.516902344976266" lon="19.877021403138347"><ele>882.0</ele><time>2026-05-05T09:35:02Z</time></trkpt><trkpt lat="41.51706143487897" lon="19.87709477124052"><ele>882.0</ele><time>2026-05-05T09:35:03Z</time></trkpt><trkpt lat="41.51720146705282" lon="19.87717316728192"><ele>889.2</ele><time>2026-05-05T09:35:04Z</time></trkpt><trkpt lat="41.517307760581296" lon="19.8772597033954"><ele>896.4000000000001</ele><time>2026-05-05T09:35:05Z</time></trkpt><trkpt lat="41.51738252274468" lon="19.87736660047321"><ele>903.5999999999999</ele><time>2026-05-05T09:35:06Z</time></trkpt><trkpt lat="41.51741753058444" lon="19.877479018316325"><ele>910.8</ele><time>2026-05-05T09:35:07Z</time></trkpt><trkpt lat="41.51743272466208" lon="19.877590463804694"><ele>918.0</ele><time>2026-05-05T09:35:08Z</time></trkpt><trkpt lat="41.517432517798774" lon="19.8776838506089"><ele>918.0</ele><time>2026-05-05T09:35:09Z</time></trkpt><trkpt lat="41.51740130191705" lon="19.8777580422916"><ele>918.0</ele><time>2026-05-05T09:35:10Z</time></trkpt><trkpt lat="41.517332426447645" lon="19.87780123252279"><ele>918.0</ele><time>2026-05-05T09:35:11Z</time></trkpt><trkpt lat="41.517235900291915" lon="19.877861045207702"><ele>918.0</ele><time>2026-05-05T09:35:12Z</time></trkpt><trkpt lat="41.51713969418274" lon="19.877955205072336"><ele>918.0</ele><time>2026-05-05T09:35:13Z</time></trkpt><trkpt lat="41.51706112913408" lon="19.878073341854453"><ele>918.0</ele><time>2026-05-05T09:35:14Z</time></trkpt><trkpt lat="41.51702184306581" lon="19.878181848536187"><ele>918.0</ele><time>2026-05-05T09:35:15Z</time></trkpt><trkpt lat="41.51704273514955" lon="19.87829062880292"><ele>918.0</ele><time>2026-05-05T09:35:16Z</time></trkpt><trkpt lat="41.51711992938956" lon="19.878396008738815"><ele>918.0</ele><time>2026-05-05T09:35:17Z</time></trkpt><trkpt lat="41.517232698471624" lon="19.878491890504318"><ele>918.0</ele><time>2026-05-05T09:35:18Z</time></trkpt><trkpt lat="41.517358241625374" lon="19.878600799683994"><ele>918.2</ele><time>2026-05-05T09:35:19Z</time></trkpt><trkpt lat="41.517465976383846" lon="19.87871675383989"><ele>918.4</ele><time>2026-05-05T09:35:20Z</time></trkpt><trkpt lat="41.51754565011475" lon="19.878832531405997"><ele>918.6000000000001</ele><time>2026-05-05T09:35:21Z</time></trkpt><trkpt lat="41.51758164456392" lon="19.87894807450467"><ele>918.8000000000001</ele><time>2026-05-05T09:35:22Z</time></trkpt><trkpt lat="41.51758008455656" lon="19.879055064265387"><ele>919.0</ele><time>2026-05-05T09:35:23Z</time></trkpt><trkpt lat="41.51753365789871" lon="19.87913955108399"><ele>919.0</ele><time>2026-05-05T09:35:24Z</time></trkpt><trkpt lat="41.517450883439764" lon="19.879233438311385"><ele>919.0</ele><time>2026-05-05T09:35:25Z</time></trkpt><trkpt lat="41.517379382755465" lon="19.879354394775707"><ele>919.0</ele><time>2026-05-05T09:35:26Z</time></trkpt><trkpt lat="41.51737448593289" lon="19.87952097366613"><ele>919.0</ele><time>2026-05-05T09:35:27Z</time></trkpt><trkpt lat="41.51741950884936" lon="19.879688521712954"><ele>920.0</ele><time>2026-05-05T09:35:28Z</time></trkpt><trkpt lat="41.51749699198556" lon="19.87984863943874"><ele>921.0</ele><time>2026-05-05T09:35:29Z</time></trkpt><trkpt lat="41.51758555226475" lon="19.880006084867315"><ele>922.0</ele><time>2026-05-05T09:35:30Z</time></trkpt><trkpt lat="41.51765778722276" lon="19.8801518673029"><ele>923.0</ele><time>2026-05-05T09:35:31Z</time></trkpt><trkpt lat="41.51767718531046" lon="19.880263133026205"><ele>924.4</ele><time>2026-05-05T09:35:32Z</time></trkpt><trkpt lat="41.51764289022694" lon="19.880339407196754"><ele>925.8</ele><time>2026-05-05T09:35:33Z</time></trkpt><trkpt lat="41.51756553572616" lon="19.880411827824734"><ele>927.2</ele><time>2026-05-05T09:35:34Z</time></trkpt><trkpt lat="41.517471336671356" lon="19.88052128872487"><ele>928.6</ele><time>2026-05-05T09:35:35Z</time></trkpt><trkpt lat="41.51738804300369" lon="19.880676723527994"><ele>930.0</ele><time>2026-05-05T09:35:36Z</time></trkpt><trkpt lat="41.517334188672194" lon="19.88085530451399"><ele>931.0</ele><time>2026-05-05T09:35:37Z</time></trkpt><trkpt lat="41.51730304230086" lon="19.881043713808438"><ele>932.0</ele><time>2026-05-05T09:35:38Z</time></trkpt><trkpt lat="41.51730035346303" lon="19.88124823459964"><ele>933.0</ele><time>2026-05-05T09:35:39Z</time></trkpt><trkpt lat="41.51731563728955" lon="19.881459250351817"><ele>933.0</ele><time>2026-05-05T09:35:40Z</time></trkpt><trkpt lat="41.517343193353696" lon="19.881666134869665"><ele>933.0</ele><time>2026-05-05T09:35:41Z</time></trkpt><trkpt lat="41.517375966071114" lon="19.8818827525951"><ele>933.0</ele><time>2026-05-05T09:35:42Z</time></trkpt><trkpt lat="41.517391307183644" lon="19.882084306547256"><ele>933.5</ele><time>2026-05-05T09:35:43Z</time></trkpt><trkpt lat="41.51739497477636" lon="19.882262106249534"><ele>934.0</ele><time>2026-05-05T09:35:44Z</time></trkpt><trkpt lat="41.517403186100275" lon="19.882433037106654"><ele>934.5</ele><time>2026-05-05T09:35:45Z</time></trkpt><trkpt lat="41.51741928607722" lon="19.882590577572174"><ele>935.0</ele><time>2026-05-05T09:35:46Z</time></trkpt><trkpt lat="41.51744721084148" lon="19.88272274409083"><ele>933.5000000000001</ele><time>2026-05-05T09:35:47Z</time></trkpt><trkpt lat="41.51748782818462" lon="19.882829472099974"><ele>932.0</ele><time>2026-05-05T09:35:48Z</time></trkpt><trkpt lat="41.51755094015906" lon="19.882899930324566"><ele>930.5</ele><time>2026-05-05T09:35:49Z</time></trkpt><trkpt lat="41.51763021162585" lon="19.8829379611868"><ele>929.0</ele><time>2026-05-05T09:35:50Z</time></trkpt><trkpt lat="41.517716385730864" lon="19.8829477479651"><ele>927.5000000000001</ele><time>2026-05-05T09:35:51Z</time></trkpt><trkpt lat="41.517798426466264" lon="19.88294922344011"><ele>926.0</ele><time>2026-05-05T09:35:52Z</time></trkpt><trkpt lat="41.51786241278075" lon="19.882945167615997"><ele>929.4</ele><time>2026-05-05T09:35:53Z</time></trkpt><trkpt lat="41.517964214934985" lon="19.88293163740111"><ele>932.8</ele><time>2026-05-05T09:35:55Z</time></trkpt><trkpt lat="41.51806527764521" lon="19.88283335132894"><ele>936.1999999999999</ele><time>2026-05-05T09:35:57Z</time></trkpt><trkpt lat="41.51813276957262" lon="19.882691549445745"><ele>939.5999999999999</ele><time>2026-05-05T09:35:59Z</time></trkpt><trkpt lat="41.51816756380852" lon="19.882612606251133"><ele>943.0</ele><time>2026-05-05T09:36:00Z</time></trkpt><trkpt lat="41.518208310829785" lon="19.882520292504093"><ele>944.3333333333333</ele><time>2026-05-05T09:36:01Z</time></trkpt><trkpt lat="41.51824854384875" lon="19.882431279216654"><ele>945.6666666666666</ele><time>2026-05-05T09:36:02Z</time></trkpt><trkpt lat="41.51828276646184" lon="19.882340632069262"><ele>947.0</ele><time>2026-05-05T09:36:03Z</time></trkpt><trkpt lat="41.51829564895122" lon="19.882240636832282"><ele>948.3333333333333</ele><time>2026-05-05T09:36:04Z</time></trkpt><trkpt lat="41.518267229990514" lon="19.882129073684162"><ele>949.6666666666666</ele><time>2026-05-05T09:36:05Z</time></trkpt><trkpt lat="41.51820835338007" lon="19.882023678697667"><ele>951.0</ele><time>2026-05-05T09:36:06Z</time></trkpt><trkpt lat="41.51814043363666" lon="19.881908967984934"><ele>951.0</ele><time>2026-05-05T09:36:07Z</time></trkpt><trkpt lat="41.51807612596203" lon="19.881770440654144"><ele>950.9999999999999</ele><time>2026-05-05T09:36:08Z</time></trkpt><trkpt lat="41.51801380436854" lon="19.88162114041914"><ele>950.9999999999999</ele><time>2026-05-05T09:36:09Z</time></trkpt><trkpt lat="41.51796799842588" lon="19.881500541684353"><ele>951.0</ele><time>2026-05-05T09:36:10Z</time></trkpt><trkpt lat="41.5179660263742" lon="19.88139409381605"><ele>951.0</ele><time>2026-05-05T09:36:11Z</time></trkpt><trkpt lat="41.51800832277373" lon="19.88129162305373"><ele>952.0</ele><time>2026-05-05T09:36:11.999Z</time></trkpt><trkpt lat="41.51808631999854" lon="19.88118093662925"><ele>953.0</ele><time>2026-05-05T09:36:12.999Z</time></trkpt><trkpt lat="41.518185633588175" lon="19.881052264849878"><ele>954.0</ele><time>2026-05-05T09:36:13.999Z</time></trkpt><trkpt lat="41.51827698069585" lon="19.880933482773145"><ele>955.0</ele><time>2026-05-05T09:36:14.999Z</time></trkpt><trkpt lat="41.518344116302714" lon="19.880888537183175"><ele>955.2</ele><time>2026-05-05T09:36:15.999Z</time></trkpt><trkpt lat="41.51840587477393" lon="19.88098908498501"><ele>955.4</ele><time>2026-05-05T09:36:17.999Z</time></trkpt><trkpt lat="41.518325940551286" lon="19.881141658387573"><ele>955.5999999999999</ele><time>2026-05-05T09:36:19.999Z</time></trkpt><trkpt lat="41.51823350252919" lon="19.881221622134596"><ele>955.8</ele><time>2026-05-05T09:36:20.999Z</time></trkpt><trkpt lat="41.51818616852567" lon="19.88131566372472"><ele>956.0</ele><time>2026-05-05T09:36:21.999Z</time></trkpt><trkpt lat="41.51822013961139" lon="19.881436099771715"><ele>956.0</ele><time>2026-05-05T09:36:22.999Z</time></trkpt><trkpt lat="41.518310292897226" lon="19.881582722026724"><ele>956.0</ele><time>2026-05-05T09:36:23.999Z</time></trkpt><trkpt lat="41.518415414291724" lon="19.881724541510668"><ele>956.0</ele><time>2026-05-05T09:36:24.999Z</time></trkpt><trkpt lat="41.51851422046379" lon="19.881887686860946"><ele>956.0</ele><time>2026-05-05T09:36:25.999Z</time></trkpt><trkpt lat="41.518598547651976" lon="19.88206442329711"><ele>955.1666666666667</ele><time>2026-05-05T09:36:26.999Z</time></trkpt><trkpt lat="41.518663643064315" lon="19.8821910387135"><ele>954.3333333333334</ele><time>2026-05-05T09:36:27.999Z</time></trkpt><trkpt lat="41.518727957509824" lon="19.882250333661332"><ele>953.5</ele><time>2026-05-05T09:36:28.999Z</time></trkpt><trkpt lat="41.518789146808786" lon="19.882225843434547"><ele>952.6666666666667</ele><time>2026-05-05T09:36:29.999Z</time></trkpt><trkpt lat="41.51883292251493" lon="19.882142802574432"><ele>951.8333333333334</ele><time>2026-05-05T09:36:30.999Z</time></trkpt><trkpt lat="41.51882136790458" lon="19.882034151314443"><ele>951.0</ele><time>2026-05-05T09:36:31.999Z</time></trkpt><trkpt lat="41.51875871174149" lon="19.88192956123345"><ele>951.0</ele><time>2026-05-05T09:36:32.999Z</time></trkpt><trkpt lat="41.51866519895818" lon="19.88183418196314"><ele>950.9999999999999</ele><time>2026-05-05T09:36:33.999Z</time></trkpt><trkpt lat="41.51858895891056" lon="19.881709850676202"><ele>950.9999999999999</ele><time>2026-05-05T09:36:34.999Z</time></trkpt><trkpt lat="41.51857320987015" lon="19.881569412027265"><ele>951.0</ele><time>2026-05-05T09:36:35.999Z</time></trkpt><trkpt lat="41.51859404189666" lon="19.881442305909502"><ele>951.0</ele><time>2026-05-05T09:36:37Z</time></trkpt><trkpt lat="41.518650835595516" lon="19.881334924835965"><ele>958.25</ele><time>2026-05-05T09:36:38Z</time></trkpt><trkpt lat="41.518741529400515" lon="19.88123717569679"><ele>965.5</ele><time>2026-05-05T09:36:39Z</time></trkpt><trkpt lat="41.51884751805743" lon="19.881106513339596"><ele>972.75</ele><time>2026-05-05T09:36:40Z</time></trkpt><trkpt lat="41.518907174526085" lon="19.880888865497212"><ele>980.0</ele><time>2026-05-05T09:36:41Z</time></trkpt><trkpt lat="41.51895421185904" lon="19.8806748950907"><ele>980.2</ele><time>2026-05-05T09:36:42Z</time></trkpt><trkpt lat="41.51900188398351" lon="19.880522975333946"><ele>980.4</ele><time>2026-05-05T09:36:43Z</time></trkpt><trkpt lat="41.5190537196661" lon="19.8803786317198"><ele>980.5999999999999</ele><time>2026-05-05T09:36:44Z</time></trkpt><trkpt lat="41.519166976258596" lon="19.880381825056645"><ele>980.8</ele><time>2026-05-05T09:36:45Z</time></trkpt><trkpt lat="41.51921769944732" lon="19.88044910648719"><ele>981.0</ele><time>2026-05-05T09:36:46Z</time></trkpt><trkpt lat="41.519216084976776" lon="19.880617304337097"><ele>981.0</ele><time>2026-05-05T09:36:48Z</time></trkpt><trkpt lat="41.519174609999375" lon="19.88070139780605"><ele>980.9999999999999</ele><time>2026-05-05T09:36:49Z</time></trkpt><trkpt lat="41.51913328133656" lon="19.88082171070904"><ele>980.9999999999999</ele><time>2026-05-05T09:36:50Z</time></trkpt><trkpt lat="41.51907784437928" lon="19.881013828398018"><ele>981.0</ele><time>2026-05-05T09:36:51Z</time></trkpt><trkpt lat="41.51906259131724" lon="19.881146270486767"><ele>981.0</ele><time>2026-05-05T09:36:52Z</time></trkpt><trkpt lat="41.519096171231254" lon="19.881233816548484"><ele>980.75</ele><time>2026-05-05T09:36:53Z</time></trkpt><trkpt lat="41.519153439101586" lon="19.881336403605683"><ele>980.5</ele><time>2026-05-05T09:36:54Z</time></trkpt><trkpt lat="41.51922720962495" lon="19.88148255657424"><ele>980.25</ele><time>2026-05-05T09:36:55Z</time></trkpt><trkpt lat="41.51928659508506" lon="19.881654544127937"><ele>980.0</ele><time>2026-05-05T09:36:56Z</time></trkpt><trkpt lat="41.51931558301713" lon="19.881858646785407"><ele>979.25</ele><time>2026-05-05T09:36:57Z</time></trkpt><trkpt lat="41.51934107078427" lon="19.88204133568495"><ele>978.5</ele><time>2026-05-05T09:36:58Z</time></trkpt><trkpt lat="41.51937331744626" lon="19.882207401197014"><ele>977.75</ele><time>2026-05-05T09:36:59Z</time></trkpt><trkpt lat="41.51940859478631" lon="19.88231327758037"><ele>977.0</ele><time>2026-05-05T09:37:00Z</time></trkpt><trkpt lat="41.519552600268" lon="19.88230537821684"><ele>977.75</ele><time>2026-05-05T09:37:02Z</time></trkpt><trkpt lat="41.519616330479565" lon="19.882128948823333"><ele>978.5</ele><time>2026-05-05T09:37:04Z</time></trkpt><trkpt lat="41.5196030253337" lon="19.881977317546117"><ele>979.25</ele><time>2026-05-05T09:37:05Z</time></trkpt><trkpt lat="41.519574990212725" lon="19.881817554077184"><ele>980.0</ele><time>2026-05-05T09:37:06Z</time></trkpt><trkpt lat="41.51956576021553" lon="19.881602690061015"><ele>990.0</ele><time>2026-05-05T09:37:07Z</time></trkpt><trkpt lat="41.51958965088248" lon="19.88142188514619"><ele>1000.0</ele><time>2026-05-05T09:37:08Z</time></trkpt><trkpt lat="41.51963752046413" lon="19.881221818658734"><ele>1010.0</ele><time>2026-05-05T09:37:09Z</time></trkpt><trkpt lat="41.51966603877081" lon="19.88101123369622"><ele>1010.0000000000001</ele><time>2026-05-05T09:37:10Z</time></trkpt><trkpt lat="41.519692685477054" lon="19.88085026922901"><ele>1010.0</ele><time>2026-05-05T09:37:11Z</time></trkpt><trkpt lat="41.51973867659897" lon="19.880727903819103"><ele>1010.0</ele><time>2026-05-05T09:37:12Z</time></trkpt><trkpt lat="41.5198116252034" lon="19.880755118985185"><ele>1010.0</ele><time>2026-05-05T09:37:13Z</time></trkpt><trkpt lat="41.51983975202145" lon="19.880841959881845"><ele>1010.0000000000001</ele><time>2026-05-05T09:37:14Z</time></trkpt><trkpt lat="41.51986692663686" lon="19.880919178774736"><ele>1010.0</ele><time>2026-05-05T09:37:15Z</time></trkpt><trkpt lat="41.51984225422759" lon="19.881044166795174"><ele>1010.0</ele><time>2026-05-05T09:37:16Z</time></trkpt><trkpt lat="41.51977572422885" lon="19.881164099367552"><ele>1010.0</ele><time>2026-05-05T09:37:17Z</time></trkpt><trkpt lat="41.51973005457231" lon="19.88128973321532"><ele>1010.0</ele><time>2026-05-05T09:37:18Z</time></trkpt><trkpt lat="41.51970607916734" lon="19.8814804265884"><ele>1010.0</ele><time>2026-05-05T09:37:19Z</time></trkpt><trkpt lat="41.5197265214156" lon="19.881667996003575"><ele>1010.25</ele><time>2026-05-05T09:37:20Z</time></trkpt><trkpt lat="41.519799462881" lon="19.881818519676052"><ele>1010.5</ele><time>2026-05-05T09:37:21Z</time></trkpt><trkpt lat="41.51986938972788" lon="19.882003857676942"><ele>1010.75</ele><time>2026-05-05T09:37:22Z</time></trkpt><trkpt lat="41.51990559371071" lon="19.882205616365436"><ele>1011.0</ele><time>2026-05-05T09:37:23Z</time></trkpt><trkpt lat="41.519930734367534" lon="19.882439091544327"><ele>1013.0</ele><time>2026-05-05T09:37:24Z</time></trkpt><trkpt lat="41.51994286573431" lon="19.88267949060131"><ele>1015.0</ele><time>2026-05-05T09:37:25Z</time></trkpt><trkpt lat="41.51995212855389" lon="19.88289355356745"><ele>1017.0</ele><time>2026-05-05T09:37:26Z</time></trkpt><trkpt lat="41.51996918092948" lon="19.88310343795033"><ele>1017.0</ele><time>2026-05-05T09:37:27Z</time></trkpt><trkpt lat="41.519985945583755" lon="19.883316285024087"><ele>1017.0</ele><time>2026-05-05T09:37:28Z</time></trkpt><trkpt lat="41.519979859006476" lon="19.883542758584063"><ele>1017.0</ele><time>2026-05-05T09:37:29Z</time></trkpt><trkpt lat="41.51994678106857" lon="19.883755798160234"><ele>1017.8</ele><time>2026-05-05T09:37:30Z</time></trkpt><trkpt lat="41.51989682771456" lon="19.88389605997807"><ele>1018.6</ele><time>2026-05-05T09:37:31Z</time></trkpt><trkpt lat="41.51986920026387" lon="19.884042575831185"><ele>1019.3999999999999</ele><time>2026-05-05T09:37:32Z</time></trkpt><trkpt lat="41.519864471578664" lon="19.884137031251434"><ele>1020.1999999999999</ele><time>2026-05-05T09:37:33Z</time></trkpt><trkpt lat="41.51999465203659" lon="19.88417488415521"><ele>1021.0</ele><time>2026-05-05T09:37:34Z</time></trkpt><trkpt lat="41.52007667946489" lon="19.884229899617583"><ele>1020.8</ele><time>2026-05-05T09:37:35Z</time></trkpt><trkpt lat="41.52014373648085" lon="19.884357102908293"><ele>1020.5999999999999</ele><time>2026-05-05T09:37:36Z</time></trkpt><trkpt lat="41.520183974778426" lon="19.884485340682374"><ele>1020.4</ele><time>2026-05-05T09:37:37Z</time></trkpt><trkpt lat="41.520189146352486" lon="19.884616868452756"><ele>1020.2</ele><time>2026-05-05T09:37:38Z</time></trkpt><trkpt lat="41.52018524319496" lon="19.884744037397486"><ele>1020.0</ele><time>2026-05-05T09:37:39Z</time></trkpt><trkpt lat="41.52015713785692" lon="19.884885013084116"><ele>1020.0</ele><time>2026-05-05T09:37:40Z</time></trkpt><trkpt lat="41.52012188248842" lon="19.885063406454137"><ele>1020.0</ele><time>2026-05-05T09:37:41Z</time></trkpt><trkpt lat="41.520068024119695" lon="19.88523659662566"><ele>1020.0</ele><time>2026-05-05T09:37:42Z</time></trkpt><trkpt lat="41.520009989773214" lon="19.88540878551702"><ele>1020.0</ele><time>2026-05-05T09:37:43Z</time></trkpt><trkpt lat="41.51994757995653" lon="19.88560265475825"><ele>1020.6</ele><time>2026-05-05T09:37:44Z</time></trkpt><trkpt lat="41.519875872938364" lon="19.885770553245514"><ele>1021.2</ele><time>2026-05-05T09:37:45Z</time></trkpt><trkpt lat="41.519854742489514" lon="19.88589973938316"><ele>1021.8</ele><time>2026-05-05T09:37:46Z</time></trkpt><trkpt lat="41.51987254171247" lon="19.885998991368822"><ele>1022.4</ele><time>2026-05-05T09:37:47Z</time></trkpt><trkpt lat="41.51993530757214" lon="19.88606699008164"><ele>1023.0</ele><time>2026-05-05T09:37:48Z</time></trkpt><trkpt lat="41.52003649803814" lon="19.886109433210244"><ele>1026.75</ele><time>2026-05-05T09:37:49Z</time></trkpt><trkpt lat="41.520163414964216" lon="19.88614982998029"><ele>1030.5</ele><time>2026-05-05T09:37:50Z</time></trkpt><trkpt lat="41.52028467688614" lon="19.8862471037364"><ele>1034.25</ele><time>2026-05-05T09:37:51Z</time></trkpt><trkpt lat="41.52037374555164" lon="19.886354638810218"><ele>1038.0</ele><time>2026-05-05T09:37:52Z</time></trkpt><trkpt lat="41.52044680042151" lon="19.88638413478741"><ele>1038.0</ele><time>2026-05-05T09:37:53Z</time></trkpt><trkpt lat="41.520539872200715" lon="19.88632066009999"><ele>1038.0</ele><time>2026-05-05T09:37:54Z</time></trkpt><trkpt lat="41.52063720221099" lon="19.886279831399325"><ele>1038.0</ele><time>2026-05-05T09:37:55Z</time></trkpt><trkpt lat="41.52070641219378" lon="19.886330115319097"><ele>1038.0</ele><time>2026-05-05T09:37:56Z</time></trkpt><trkpt lat="41.52077971526294" lon="19.886443641094445"><ele>1038.0</ele><time>2026-05-05T09:37:57Z</time></trkpt><trkpt lat="41.520865966091364" lon="19.886591899374036"><ele>1038.0</ele><time>2026-05-05T09:37:58Z</time></trkpt><trkpt lat="41.52096283542434" lon="19.886748705889033"><ele>1038.0</ele><time>2026-05-05T09:37:59Z</time></trkpt><trkpt lat="41.52107786064007" lon="19.88689609252434"><ele>1038.0</ele><time>2026-05-05T09:38:00Z</time></trkpt><trkpt lat="41.52121109684482" lon="19.88704454633232"><ele>1041.75</ele><time>2026-05-05T09:38:01Z</time></trkpt><trkpt lat="41.52133507169945" lon="19.88718085073247"><ele>1045.5</ele><time>2026-05-05T09:38:02Z</time></trkpt><trkpt lat="41.52140549649954" lon="19.887297792351376"><ele>1049.25</ele><time>2026-05-05T09:38:03Z</time></trkpt><trkpt lat="41.52142689931887" lon="19.887403818623525"><ele>1053.0</ele><time>2026-05-05T09:38:04Z</time></trkpt><trkpt lat="41.521411051607686" lon="19.887531175029665"><ele>1052.6666666666667</ele><time>2026-05-05T09:38:05Z</time></trkpt><trkpt lat="41.52137380822766" lon="19.88770914299969"><ele>1052.3333333333335</ele><time>2026-05-05T09:38:06Z</time></trkpt><trkpt lat="41.521367508908206" lon="19.887915833105616"><ele>1052.0</ele><time>2026-05-05T09:38:07Z</time></trkpt><trkpt lat="41.52138156033428" lon="19.888144238805143"><ele>1052.0</ele><time>2026-05-05T09:38:08Z</time></trkpt><trkpt lat="41.52136918219204" lon="19.88838825497684"><ele>1052.0</ele><time>2026-05-05T09:38:09Z</time></trkpt><trkpt lat="41.521350757812556" lon="19.88859987889641"><ele>1052.0</ele><time>2026-05-05T09:38:10Z</time></trkpt><trkpt lat="41.52136195978889" lon="19.888755608401965"><ele>1052.8333333333335</ele><time>2026-05-05T09:38:11Z</time></trkpt><trkpt lat="41.521406890913724" lon="19.888873417747575"><ele>1053.6666666666667</ele><time>2026-05-05T09:38:12Z</time></trkpt><trkpt lat="41.52147497893005" lon="19.88897141747202"><ele>1054.5</ele><time>2026-05-05T09:38:13Z</time></trkpt><trkpt lat="41.521527899424576" lon="19.889051991824598"><ele>1055.3333333333333</ele><time>2026-05-05T09:38:14Z</time></trkpt><trkpt lat="41.521534086466495" lon="19.88914260697695"><ele>1056.1666666666665</ele><time>2026-05-05T09:38:15Z</time></trkpt><trkpt lat="41.521489782907615" lon="19.889227287153048"><ele>1057.0</ele><time>2026-05-05T09:38:16Z</time></trkpt><trkpt lat="41.52142443410656" lon="19.889318714766198"><ele>1059.0</ele><time>2026-05-05T09:38:17Z</time></trkpt><trkpt lat="41.52136726809038" lon="19.889425127376548"><ele>1061.0</ele><time>2026-05-05T09:38:18Z</time></trkpt><trkpt lat="41.52132845020365" lon="19.88952876671525"><ele>1063.0</ele><time>2026-05-05T09:38:19Z</time></trkpt><trkpt lat="41.52130954484011" lon="19.88961487677237"><ele>1065.0</ele><time>2026-05-05T09:38:20Z</time></trkpt><trkpt lat="41.52130169197652" lon="19.889703152701372"><ele>1067.0</ele><time>2026-05-05T09:38:21Z</time></trkpt><trkpt lat="41.521292698002874" lon="19.88980470723019"><ele>1069.0</ele><time>2026-05-05T09:38:21.999Z</time></trkpt><trkpt lat="41.5212764463171" lon="19.889921962121825"><ele>1069.0</ele><time>2026-05-05T09:38:22.999Z</time></trkpt><trkpt lat="41.52124582670651" lon="19.890041918582302"><ele>1069.0</ele><time>2026-05-05T09:38:23.999Z</time></trkpt><trkpt lat="41.52120504228645" lon="19.890158306234436"><ele>1069.0</ele><time>2026-05-05T09:38:24.999Z</time></trkpt><trkpt lat="41.521170163734006" lon="19.89027762024674"><ele>1069.0</ele><time>2026-05-05T09:38:25.999Z</time></trkpt><trkpt lat="41.5211481556637" lon="19.890396157643657"><ele>1069.0</ele><time>2026-05-05T09:38:26.999Z</time></trkpt><trkpt lat="41.521152584768025" lon="19.890525002015277"><ele>1066.8</ele><time>2026-05-05T09:38:27.999Z</time></trkpt><trkpt lat="41.521157667720445" lon="19.89064339767796"><ele>1064.6000000000001</ele><time>2026-05-05T09:38:28.999Z</time></trkpt><trkpt lat="41.521164009623014" lon="19.89077582857239"><ele>1062.4</ele><time>2026-05-05T09:38:29.999Z</time></trkpt><trkpt lat="41.52116479979838" lon="19.890907875462755"><ele>1060.2</ele><time>2026-05-05T09:38:30.999Z</time></trkpt><trkpt lat="41.521165769087354" lon="19.89102356287544"><ele>1058.0</ele><time>2026-05-05T09:38:31.999Z</time></trkpt><trkpt lat="41.521173072232635" lon="19.891142043560286"><ele>1058.0</ele><time>2026-05-05T09:38:32.999Z</time></trkpt><trkpt lat="41.52117796102665" lon="19.891269887329294"><ele>1058.0</ele><time>2026-05-05T09:38:33.999Z</time></trkpt><trkpt lat="41.521170783090625" lon="19.89139746135004"><ele>1058.0</ele><time>2026-05-05T09:38:34.999Z</time></trkpt><trkpt lat="41.521140611261934" lon="19.891519286114693"><ele>1058.0</ele><time>2026-05-05T09:38:35.999Z</time></trkpt><trkpt lat="41.52110527008542" lon="19.891642866189468"><ele>1058.0</ele><time>2026-05-05T09:38:36.999Z</time></trkpt><trkpt lat="41.521062903426746" lon="19.89176232438038"><ele>1061.8</ele><time>2026-05-05T09:38:37.999Z</time></trkpt><trkpt lat="41.52102030320934" lon="19.891881005906697"><ele>1065.6</ele><time>2026-05-05T09:38:38.999Z</time></trkpt><trkpt lat="41.520971416094724" lon="19.89198423613733"><ele>1069.4</ele><time>2026-05-05T09:38:39.999Z</time></trkpt><trkpt lat="41.520902761289626" lon="19.89204020574028"><ele>1073.2</ele><time>2026-05-05T09:38:40.999Z</time></trkpt><trkpt lat="41.52081664048502" lon="19.892039026022488"><ele>1077.0</ele><time>2026-05-05T09:38:41.999Z</time></trkpt><trkpt lat="41.52071762791769" lon="19.892007911457384"><ele>1077.0</ele><time>2026-05-05T09:38:43Z</time></trkpt><trkpt lat="41.52059767655434" lon="19.891946010102895"><ele>1077.0</ele><time>2026-05-05T09:38:44Z</time></trkpt><trkpt lat="41.52047163362668" lon="19.891866474900787"><ele>1077.0</ele><time>2026-05-05T09:38:45Z</time></trkpt><trkpt lat="41.52035723569803" lon="19.891782221496463"><ele>1077.0</ele><time>2026-05-05T09:38:46Z</time></trkpt><trkpt lat="41.52025235423981" lon="19.891800042559026"><ele>1076.5</ele><time>2026-05-05T09:38:47Z</time></trkpt><trkpt lat="41.52010975875791" lon="19.891811212074405"><ele>1076.0</ele><time>2026-05-05T09:38:48Z</time></trkpt><trkpt lat="41.51998026891216" lon="19.891881677394828"><ele>1075.5</ele><time>2026-05-05T09:38:49Z</time></trkpt><trkpt lat="41.519883228273976" lon="19.89200812486783"><ele>1075.0</ele><time>2026-05-05T09:38:50Z</time></trkpt><trkpt lat="41.51980549873406" lon="19.892173947255053"><ele>1075.0</ele><time>2026-05-05T09:38:51Z</time></trkpt><trkpt lat="41.51976347433622" lon="19.892316946341364"><ele>1075.0</ele><time>2026-05-05T09:38:52Z</time></trkpt><trkpt lat="41.51976490526531" lon="19.89242704965293"><ele>1075.0</ele><time>2026-05-05T09:38:53Z</time></trkpt><trkpt lat="41.519736263020555" lon="19.892543827993702"><ele>1075.0</ele><time>2026-05-05T09:38:54Z</time></trkpt><trkpt lat="41.5198995947108" lon="19.8924704849859"><ele>1075.0</ele><time>2026-05-05T09:38:55Z</time></trkpt><trkpt lat="41.51997257387351" lon="19.892370289573652"><ele>1075.0</ele><time>2026-05-05T09:38:56Z</time></trkpt><trkpt lat="41.52007718803193" lon="19.892293479850135"><ele>1075.0</ele><time>2026-05-05T09:38:57Z</time></trkpt><trkpt lat="41.520186335758375" lon="19.892288899166775"><ele>1075.0</ele><time>2026-05-05T09:38:58Z</time></trkpt><trkpt lat="41.5203046855249" lon="19.892322694558636"><ele>1075.5</ele><time>2026-05-05T09:38:59Z</time></trkpt><trkpt lat="41.520464200448245" lon="19.892372296999493"><ele>1076.0</ele><time>2026-05-05T09:39:00Z</time></trkpt><trkpt lat="41.520556370355315" lon="19.892446485639553"><ele>1076.5</ele><time>2026-05-05T09:39:01Z</time></trkpt><trkpt lat="41.520483876183185" lon="19.89258858903309"><ele>1077.0</ele><time>2026-05-05T09:39:03Z</time></trkpt><trkpt lat="41.52040297647957" lon="19.89259954321972"><ele>1080.2</ele><time>2026-05-05T09:39:04Z</time></trkpt><trkpt lat="41.52032343150566" lon="19.892624479162894"><ele>1083.4</ele><time>2026-05-05T09:39:05Z</time></trkpt><trkpt lat="41.52023524702016" lon="19.892709731702922"><ele>1086.6</ele><time>2026-05-05T09:39:06Z</time></trkpt><trkpt lat="41.52016975811884" lon="19.892810242788663"><ele>1089.8</ele><time>2026-05-05T09:39:07Z</time></trkpt><trkpt lat="41.52011697086419" lon="19.892915081883768"><ele>1093.0</ele><time>2026-05-05T09:39:08Z</time></trkpt><trkpt lat="41.5200826619483" lon="19.893037873796178"><ele>1093.0</ele><time>2026-05-05T09:39:09Z</time></trkpt><trkpt lat="41.520095750901724" lon="19.893156987355777"><ele>1093.0</ele><time>2026-05-05T09:39:10Z</time></trkpt><trkpt lat="41.52018023781114" lon="19.89324636158373"><ele>1093.0</ele><time>2026-05-05T09:39:12Z</time></trkpt><trkpt lat="41.520314317534776" lon="19.893147670302298"><ele>1093.0</ele><time>2026-05-05T09:39:12.999Z</time></trkpt><trkpt lat="41.52041560524332" lon="19.893103415441523"><ele>1095.0</ele><time>2026-05-05T09:39:13.999Z</time></trkpt><trkpt lat="41.52054855539487" lon="19.893090966568142"><ele>1097.0</ele><time>2026-05-05T09:39:14.999Z</time></trkpt><trkpt lat="41.52069411684509" lon="19.893093454913092"><ele>1099.0</ele><time>2026-05-05T09:39:15.999Z</time></trkpt><trkpt lat="41.52082917813856" lon="19.89312674874052"><ele>1101.0</ele><time>2026-05-05T09:39:16.999Z</time></trkpt><trkpt lat="41.52096406431781" lon="19.893123552622427"><ele>1101.0</ele><time>2026-05-05T09:39:17.999Z</time></trkpt><trkpt lat="41.521097798739305" lon="19.893126499099562"><ele>1101.0</ele><time>2026-05-05T09:39:18.999Z</time></trkpt><trkpt lat="41.52122095611118" lon="19.893160894269332"><ele>1101.0</ele><time>2026-05-05T09:39:19.999Z</time></trkpt><trkpt lat="41.5213010844291" lon="19.893257193817256"><ele>1101.0</ele><time>2026-05-05T09:39:20.999Z</time></trkpt><trkpt lat="41.52132632621299" lon="19.893345175074487"><ele>1101.0</ele><time>2026-05-05T09:39:21.999Z</time></trkpt><trkpt lat="41.521390369467674" lon="19.893497544481786"><ele>1106.8</ele><time>2026-05-05T09:39:22.999Z</time></trkpt><trkpt lat="41.5214665191775" lon="19.89360363723896"><ele>1112.6</ele><time>2026-05-05T09:39:23.999Z</time></trkpt><trkpt lat="41.521594223028735" lon="19.893672353644575"><ele>1118.4</ele><time>2026-05-05T09:39:24.999Z</time></trkpt><trkpt lat="41.52164647595772" lon="19.893782875601477"><ele>1124.2</ele><time>2026-05-05T09:39:25.999Z</time></trkpt><trkpt lat="41.52157992478096" lon="19.89381213993819"><ele>1130.0</ele><time>2026-05-05T09:39:26.999Z</time></trkpt><trkpt lat="41.52144556967036" lon="19.893843394422785"><ele>1130.0</ele><time>2026-05-05T09:39:28.999Z</time></trkpt><trkpt lat="41.52132680385109" lon="19.893797330534234"><ele>1130.0</ele><time>2026-05-05T09:39:29.999Z</time></trkpt><trkpt lat="41.52122860822302" lon="19.89369690716446"><ele>1130.0</ele><time>2026-05-05T09:39:30.999Z</time></trkpt><trkpt lat="41.521132990082236" lon="19.893623829625604"><ele>1130.0</ele><time>2026-05-05T09:39:31.999Z</time></trkpt><trkpt lat="41.52101289888415" lon="19.89354945833994"><ele>1129.25</ele><time>2026-05-05T09:39:32.999Z</time></trkpt><trkpt lat="41.520901620866454" lon="19.893570957869482"><ele>1128.5</ele><time>2026-05-05T09:39:33.999Z</time></trkpt><trkpt lat="41.5207758161325" lon="19.893639334489055"><ele>1127.75</ele><time>2026-05-05T09:39:34.999Z</time></trkpt><trkpt lat="41.5206438496219" lon="19.893718910976524"><ele>1127.0</ele><time>2026-05-05T09:39:35.999Z</time></trkpt><trkpt lat="41.52051105983175" lon="19.893798616294724"><ele>1127.0</ele><time>2026-05-05T09:39:36.999Z</time></trkpt><trkpt lat="41.520407884591386" lon="19.89388064416994"><ele>1127.0</ele><time>2026-05-05T09:39:37.999Z</time></trkpt><trkpt lat="41.52035945826959" lon="19.893998851782882"><ele>1127.0</ele><time>2026-05-05T09:39:38.999Z</time></trkpt><trkpt lat="41.52036245493931" lon="19.89414122392141"><ele>1127.0</ele><time>2026-05-05T09:39:39.999Z</time></trkpt><trkpt lat="41.52040216446456" lon="19.894279752303"><ele>1127.0</ele><time>2026-05-05T09:39:40.999Z</time></trkpt><trkpt lat="41.52047169587977" lon="19.8943821617983"><ele>1128.6666666666667</ele><time>2026-05-05T09:39:41.999Z</time></trkpt><trkpt lat="41.520551943058244" lon="19.89445347443731"><ele>1130.3333333333335</ele><time>2026-05-05T09:39:42.999Z</time></trkpt><trkpt lat="41.52063334891173" lon="19.894506191713624"><ele>1132.0</ele><time>2026-05-05T09:39:43.999Z</time></trkpt><trkpt lat="41.52069776178643" lon="19.894566776321195"><ele>1133.6666666666667</ele><time>2026-05-05T09:39:44.999Z</time></trkpt><trkpt lat="41.520755975091255" lon="19.894633858669916"><ele>1135.3333333333333</ele><time>2026-05-05T09:39:45.999Z</time></trkpt><trkpt lat="41.520801625331266" lon="19.894720407218472"><ele>1137.0</ele><time>2026-05-05T09:39:46.999Z</time></trkpt><trkpt lat="41.52083870065206" lon="19.894819658378744"><ele>1137.0</ele><time>2026-05-05T09:39:47.999Z</time></trkpt><trkpt lat="41.520888756349116" lon="19.894904097240126"><ele>1137.0</ele><time>2026-05-05T09:39:48.999Z</time></trkpt><trkpt lat="41.52096563315713" lon="19.894929514940117"><ele>1137.0</ele><time>2026-05-05T09:39:49.999Z</time></trkpt><trkpt lat="41.521049572285804" lon="19.894887600787698"><ele>1137.0</ele><time>2026-05-05T09:39:50.999Z</time></trkpt><trkpt lat="41.52113197901462" lon="19.894825351606286"><ele>1137.0</ele><time>2026-05-05T09:39:51.999Z</time></trkpt><trkpt lat="41.521224480489686" lon="19.89479850800809"><ele>1137.0</ele><time>2026-05-05T09:39:52.999Z</time></trkpt><trkpt lat="41.52131532663981" lon="19.894795918738012"><ele>1139.2</ele><time>2026-05-05T09:39:53.999Z</time></trkpt><trkpt lat="41.52140030625348" lon="19.89479394383509"><ele>1141.4</ele><time>2026-05-05T09:39:54.999Z</time></trkpt><trkpt lat="41.52149365098608" lon="19.89481097935555"><ele>1143.6</ele><time>2026-05-05T09:39:55.999Z</time></trkpt><trkpt lat="41.52156392841175" lon="19.894890798495723"><ele>1145.8</ele><time>2026-05-05T09:39:57.999Z</time></trkpt><trkpt lat="41.521479339837626" lon="19.89495954071213"><ele>1148.0</ele><time>2026-05-05T09:39:58.999Z</time></trkpt><trkpt lat="41.52140606148982" lon="19.895002294742998"><ele>1148.0</ele><time>2026-05-05T09:39:59.999Z</time></trkpt><trkpt lat="41.52130484560976" lon="19.895045873774247"><ele>1148.0</ele><time>2026-05-05T09:40:00.999Z</time></trkpt><trkpt lat="41.52122508128722" lon="19.895119114487677"><ele>1148.0</ele><time>2026-05-05T09:40:01.999Z</time></trkpt><trkpt lat="41.52115530400031" lon="19.895264120911285"><ele>1148.0</ele><time>2026-05-05T09:40:02.999Z</time></trkpt><trkpt lat="41.52106393120324" lon="19.895409210731234"><ele>1149.75</ele><time>2026-05-05T09:40:03.999Z</time></trkpt><trkpt lat="41.52096320449739" lon="19.895553380076475"><ele>1151.5</ele><time>2026-05-05T09:40:04.999Z</time></trkpt><trkpt lat="41.52088577194894" lon="19.89570401358799"><ele>1153.25</ele><time>2026-05-05T09:40:05.999Z</time></trkpt><trkpt lat="41.520842201561116" lon="19.895834418132736"><ele>1155.0</ele><time>2026-05-05T09:40:06.999Z</time></trkpt><trkpt lat="41.5207765272425" lon="19.895900504260272"><ele>1155.0</ele><time>2026-05-05T09:40:07.999Z</time></trkpt><trkpt lat="41.520685180173025" lon="19.89590095126735"><ele>1155.0</ele><time>2026-05-05T09:40:08.999Z</time></trkpt><trkpt lat="41.52057665151175" lon="19.89587548276686"><ele>1155.0</ele><time>2026-05-05T09:40:09.999Z</time></trkpt><trkpt lat="41.52045504840137" lon="19.89583199011883"><ele>1155.0</ele><time>2026-05-05T09:40:10.999Z</time></trkpt><trkpt lat="41.52032646387501" lon="19.895775152529733"><ele>1158.75</ele><time>2026-05-05T09:40:11.999Z</time></trkpt><trkpt lat="41.520195970812885" lon="19.895702624246127"><ele>1162.5</ele><time>2026-05-05T09:40:12.999Z</time></trkpt><trkpt lat="41.520079189302585" lon="19.895587964059853"><ele>1166.25</ele><time>2026-05-05T09:40:13.999Z</time></trkpt><trkpt lat="41.519983776104226" lon="19.89546543995219"><ele>1170.0</ele><time>2026-05-05T09:40:14.999Z</time></trkpt><trkpt lat="41.51987048789243" lon="19.895393958329887"><ele>1170.0</ele><time>2026-05-05T09:40:15.999Z</time></trkpt><trkpt lat="41.51975156390807" lon="19.895390130499823"><ele>1170.0</ele><time>2026-05-05T09:40:16.999Z</time></trkpt><trkpt lat="41.519621774464326" lon="19.89541052270621"><ele>1170.0</ele><time>2026-05-05T09:40:17.999Z</time></trkpt><trkpt lat="41.51947391425275" lon="19.895464113112027"><ele>1170.0</ele><time>2026-05-05T09:40:18.999Z</time></trkpt><trkpt lat="41.5193375026052" lon="19.895469356022403"><ele>1172.5</ele><time>2026-05-05T09:40:19.999Z</time></trkpt><trkpt lat="41.51924029815698" lon="19.89542198326209"><ele>1175.0</ele><time>2026-05-05T09:40:20.999Z</time></trkpt><trkpt lat="41.51915606164813" lon="19.89535657494267"><ele>1177.5</ele><time>2026-05-05T09:40:21.999Z</time></trkpt><trkpt lat="41.51903928565784" lon="19.895240922161562"><ele>1180.0</ele><time>2026-05-05T09:40:22.999Z</time></trkpt><trkpt lat="41.51892457920838" lon="19.895201382192734"><ele>1180.0</ele><time>2026-05-05T09:40:23.999Z</time></trkpt><trkpt lat="41.5187883983223" lon="19.895243315357767"><ele>1180.0</ele><time>2026-05-05T09:40:24.999Z</time></trkpt><trkpt lat="41.51864342697275" lon="19.895312111797697"><ele>1180.0</ele><time>2026-05-05T09:40:25.999Z</time></trkpt><trkpt lat="41.518494135867" lon="19.8953949146891"><ele>1180.6666666666665</ele><time>2026-05-05T09:40:26.999Z</time></trkpt><trkpt lat="41.51833937638944" lon="19.89545317189861"><ele>1181.3333333333333</ele><time>2026-05-05T09:40:27.999Z</time></trkpt><trkpt lat="41.5181756840388" lon="19.895455832496502"><ele>1182.0</ele><time>2026-05-05T09:40:28.999Z</time></trkpt><trkpt lat="41.5180451261036" lon="19.895409737943467"><ele>1182.0</ele><time>2026-05-05T09:40:29.999Z</time></trkpt><trkpt lat="41.51793129900821" lon="19.89530869970793"><ele>1182.0</ele><time>2026-05-05T09:40:30.999Z</time></trkpt><trkpt lat="41.51781700451755" lon="19.895199176434765"><ele>1182.0</ele><time>2026-05-05T09:40:31.999Z</time></trkpt><trkpt lat="41.51770069156339" lon="19.89509817946328"><ele>1182.0</ele><time>2026-05-05T09:40:32.999Z</time></trkpt><trkpt lat="41.51761315333444" lon="19.895003188384138"><ele>1180.2</ele><time>2026-05-05T09:40:33.999Z</time></trkpt><trkpt lat="41.51754524161393" lon="19.894957188309665"><ele>1178.4</ele><time>2026-05-05T09:40:34.999Z</time></trkpt><trkpt lat="41.51745289133057" lon="19.895049316018483"><ele>1176.6</ele><time>2026-05-05T09:40:36.999Z</time></trkpt><trkpt lat="41.517462517428335" lon="19.89514900351819"><ele>1174.8</ele><time>2026-05-05T09:40:37.999Z</time></trkpt><trkpt lat="41.51751762520716" lon="19.8952340209121"><ele>1173.0</ele><time>2026-05-05T09:40:38.999Z</time></trkpt><trkpt lat="41.51761815805217" lon="19.895315160344815"><ele>1173.0</ele><time>2026-05-05T09:40:39.999Z</time></trkpt><trkpt lat="41.51772737324994" lon="19.895408211808867"><ele>1173.0</ele><time>2026-05-05T09:40:40.999Z</time></trkpt><trkpt lat="41.517834365915185" lon="19.895509016281412"><ele>1173.0</ele><time>2026-05-05T09:40:41.999Z</time></trkpt><trkpt lat="41.51794821491039" lon="19.895631265804035"><ele>1173.0</ele><time>2026-05-05T09:40:42.999Z</time></trkpt><trkpt lat="41.51807740562317" lon="19.895745086244023"><ele>1175.25</ele><time>2026-05-05T09:40:43.999Z</time></trkpt><trkpt lat="41.518199597022296" lon="19.895845976476583"><ele>1177.5</ele><time>2026-05-05T09:40:44.999Z</time></trkpt><trkpt lat="41.51831719355704" lon="19.89592259340509"><ele>1179.75</ele><time>2026-05-05T09:40:45.999Z</time></trkpt><trkpt lat="41.518438402736855" lon="19.895951842267163"><ele>1182.0</ele><time>2026-05-05T09:40:46.999Z</time></trkpt><trkpt lat="41.51855606208627" lon="19.895911300978792"><ele>1182.0</ele><time>2026-05-05T09:40:47.999Z</time></trkpt><trkpt lat="41.51868359536157" lon="19.895846010845233"><ele>1182.0</ele><time>2026-05-05T09:40:49Z</time></trkpt><trkpt lat="41.51881191642636" lon="19.895815193414606"><ele>1182.0</ele><time>2026-05-05T09:40:50Z</time></trkpt><trkpt lat="41.51891183784179" lon="19.89584485348594"><ele>1182.0</ele><time>2026-05-05T09:40:51Z</time></trkpt><trkpt lat="41.519016525709866" lon="19.89594895737166"><ele>1187.25</ele><time>2026-05-05T09:40:52Z</time></trkpt><trkpt lat="41.51910574223883" lon="19.896020884210692"><ele>1192.5</ele><time>2026-05-05T09:40:53Z</time></trkpt><trkpt lat="41.51922758533583" lon="19.896026508771044"><ele>1197.75</ele><time>2026-05-05T09:40:54Z</time></trkpt><trkpt lat="41.51933951276899" lon="19.895981570871555"><ele>1203.0</ele><time>2026-05-05T09:40:55Z</time></trkpt><trkpt lat="41.519475769372775" lon="19.895976575417244"><ele>1200.5</ele><time>2026-05-05T09:40:56Z</time></trkpt><trkpt lat="41.51960876175647" lon="19.896006395179246"><ele>1198.0</ele><time>2026-05-05T09:40:57Z</time></trkpt><trkpt lat="41.519726695076024" lon="19.89609740854251"><ele>1195.5</ele><time>2026-05-05T09:40:58Z</time></trkpt><trkpt lat="41.519805113801425" lon="19.896189779467335"><ele>1193.0</ele><time>2026-05-05T09:40:59Z</time></trkpt><trkpt lat="41.519831461342775" lon="19.89628843498026"><ele>1193.0</ele><time>2026-05-05T09:41:00Z</time></trkpt><trkpt lat="41.51981769841526" lon="19.896408162307377"><ele>1193.0</ele><time>2026-05-05T09:41:01Z</time></trkpt><trkpt lat="41.51983530909837" lon="19.896530260572273"><ele>1193.0</ele><time>2026-05-05T09:41:02Z</time></trkpt><trkpt lat="41.519905631529056" lon="19.89660664248756"><ele>1193.0</ele><time>2026-05-05T09:41:03Z</time></trkpt><trkpt lat="41.52000553508197" lon="19.896666099144348"><ele>1193.0</ele><time>2026-05-05T09:41:04Z</time></trkpt><trkpt lat="41.52012541669437" lon="19.896714610656872"><ele>1197.5</ele><time>2026-05-05T09:41:05Z</time></trkpt><trkpt lat="41.5202555701351" lon="19.896764426921173"><ele>1202.0</ele><time>2026-05-05T09:41:06Z</time></trkpt><trkpt lat="41.52039146171718" lon="19.8968436411813"><ele>1206.5</ele><time>2026-05-05T09:41:07Z</time></trkpt><trkpt lat="41.52051112878059" lon="19.89697246622046"><ele>1211.0</ele><time>2026-05-05T09:41:08Z</time></trkpt><trkpt lat="41.52062700734018" lon="19.897142560564365"><ele>1211.0</ele><time>2026-05-05T09:41:09Z</time></trkpt><trkpt lat="41.520740797701215" lon="19.897292934197218"><ele>1211.0</ele><time>2026-05-05T09:41:10Z</time></trkpt><trkpt lat="41.520861194812134" lon="19.897372621954652"><ele>1211.0</ele><time>2026-05-05T09:41:11Z</time></trkpt><trkpt lat="41.52099280740665" lon="19.897383678943168"><ele>1211.0</ele><time>2026-05-05T09:41:12Z</time></trkpt><trkpt lat="41.52112845312162" lon="19.89738434082805"><ele>1211.3333333333335</ele><time>2026-05-05T09:41:13Z</time></trkpt><trkpt lat="41.521274607036986" lon="19.897407912732838"><ele>1211.6666666666667</ele><time>2026-05-05T09:41:14Z</time></trkpt><trkpt lat="41.52143096254603" lon="19.897433556046984"><ele>1212.0</ele><time>2026-05-05T09:41:15Z</time></trkpt><trkpt lat="41.52158022112388" lon="19.897459840497522"><ele>1212.0</ele><time>2026-05-05T09:41:16Z</time></trkpt><trkpt lat="41.521704123092476" lon="19.897484260752393"><ele>1212.0</ele><time>2026-05-05T09:41:17Z</time></trkpt><trkpt lat="41.52178297063025" lon="19.8975283410932"><ele>1212.0</ele><time>2026-05-05T09:41:18Z</time></trkpt><trkpt lat="41.52177407218535" lon="19.897662675246146"><ele>1212.0</ele><time>2026-05-05T09:41:20Z</time></trkpt><trkpt lat="41.521710624972926" lon="19.897700268505524"><ele>1212.0</ele><time>2026-05-05T09:41:21Z</time></trkpt><trkpt lat="41.52162326408002" lon="19.897709506907404"><ele>1211.75</ele><time>2026-05-05T09:41:22Z</time></trkpt><trkpt lat="41.521522708322784" lon="19.89767722403537"><ele>1211.5</ele><time>2026-05-05T09:41:23Z</time></trkpt><trkpt lat="41.521398111303064" lon="19.897638300366882"><ele>1211.25</ele><time>2026-05-05T09:41:24Z</time></trkpt><trkpt lat="41.52126933925289" lon="19.897597567371733"><ele>1211.0</ele><time>2026-05-05T09:41:25Z</time></trkpt><trkpt lat="41.52112383282221" lon="19.897582190913976"><ele>1211.0</ele><time>2026-05-05T09:41:26Z</time></trkpt><trkpt lat="41.52097134786026" lon="19.897589295898065"><ele>1211.0</ele><time>2026-05-05T09:41:27Z</time></trkpt><trkpt lat="41.52081773302711" lon="19.897581778567027"><ele>1211.0</ele><time>2026-05-05T09:41:28Z</time></trkpt><trkpt lat="41.52065399536822" lon="19.897550316066777"><ele>1211.0</ele><time>2026-05-05T09:41:29Z</time></trkpt><trkpt lat="41.520489602325554" lon="19.89750173940945"><ele>1211.0</ele><time>2026-05-05T09:41:30Z</time></trkpt><trkpt lat="41.52033294168582" lon="19.897438777766492"><ele>1211.0</ele><time>2026-05-05T09:41:31Z</time></trkpt><trkpt lat="41.520193400393694" lon="19.897385295618793"><ele>1213.0</ele><time>2026-05-05T09:41:32Z</time></trkpt><trkpt lat="41.52005301229927" lon="19.897367166528884"><ele>1215.0</ele><time>2026-05-05T09:41:33Z</time></trkpt><trkpt lat="41.51990414984152" lon="19.89737419175146"><ele>1217.0</ele><time>2026-05-05T09:41:34Z</time></trkpt><trkpt lat="41.519746920775326" lon="19.8974288622467"><ele>1217.0</ele><time>2026-05-05T09:41:35Z</time></trkpt><trkpt lat="41.519605080931065" lon="19.897491323482694"><ele>1217.0</ele><time>2026-05-05T09:41:36Z</time></trkpt><trkpt lat="41.51951260135183" lon="19.897555991010336"><ele>1217.0</ele><time>2026-05-05T09:41:37Z</time></trkpt><trkpt lat="41.519515434245356" lon="19.89764672579078"><ele>1217.0</ele><time>2026-05-05T09:41:39Z</time></trkpt><trkpt lat="41.51959291926051" lon="19.897679612832444"><ele>1217.0</ele><time>2026-05-05T09:41:41Z</time></trkpt><trkpt lat="41.51967198386214" lon="19.89768578422619"><ele>1220.75</ele><time>2026-05-05T09:41:42Z</time></trkpt><trkpt lat="41.51977204215982" lon="19.897686844000837"><ele>1224.5</ele><time>2026-05-05T09:41:43Z</time></trkpt><trkpt lat="41.51988949003863" lon="19.89768484121577"><ele>1228.25</ele><time>2026-05-05T09:41:44Z</time></trkpt><trkpt lat="41.5200081674463" lon="19.89767314669612"><ele>1232.0</ele><time>2026-05-05T09:41:45Z</time></trkpt><trkpt lat="41.52013330437726" lon="19.897670477928173"><ele>1232.0</ele><time>2026-05-05T09:41:46Z</time></trkpt><trkpt lat="41.520226937515446" lon="19.897709839251746"><ele>1232.0</ele><time>2026-05-05T09:41:46.999Z</time></trkpt><trkpt lat="41.52029320194021" lon="19.897790949575445"><ele>1232.0</ele><time>2026-05-05T09:41:47.999Z</time></trkpt><trkpt lat="41.52035067782738" lon="19.897900905232557"><ele>1232.0</ele><time>2026-05-05T09:41:48.999Z</time></trkpt><trkpt lat="41.520413217301325" lon="19.898018522203856"><ele>1232.0</ele><time>2026-05-05T09:41:49.999Z</time></trkpt><trkpt lat="41.52048816298088" lon="19.898131312220507"><ele>1232.0</ele><time>2026-05-05T09:41:50.999Z</time></trkpt><trkpt lat="41.520557040630635" lon="19.898239131919848"><ele>1232.0</ele><time>2026-05-05T09:41:51.999Z</time></trkpt><trkpt lat="41.52062925195588" lon="19.898308738294308"><ele>1232.0</ele><time>2026-05-05T09:41:52.999Z</time></trkpt><trkpt lat="41.520722343932654" lon="19.898371639277375"><ele>1232.0</ele><time>2026-05-05T09:41:53.999Z</time></trkpt><trkpt lat="41.52083260934813" lon="19.89844165516587"><ele>1232.0</ele><time>2026-05-05T09:41:54.999Z</time></trkpt><trkpt lat="41.520972528211374" lon="19.898487654221515"><ele>1234.75</ele><time>2026-05-05T09:41:55.999Z</time></trkpt><trkpt lat="41.52111170693893" lon="19.89849999291424"><ele>1237.5</ele><time>2026-05-05T09:41:56.999Z</time></trkpt><trkpt lat="41.521251303257856" lon="19.89853868984616"><ele>1240.25</ele><time>2026-05-05T09:41:57.999Z</time></trkpt><trkpt lat="41.521389968612674" lon="19.89857844853347"><ele>1243.0</ele><time>2026-05-05T09:41:58.999Z</time></trkpt><trkpt lat="41.52153520656676" lon="19.898582782246073"><ele>1237.5</ele><time>2026-05-05T09:41:59.999Z</time></trkpt><trkpt lat="41.52167801384393" lon="19.89855696831267"><ele>1232.0</ele><time>2026-05-05T09:42:00.999Z</time></trkpt><trkpt lat="41.521813847876764" lon="19.898551629326622"><ele>1226.5</ele><time>2026-05-05T09:42:01.999Z</time></trkpt><trkpt lat="41.52192595154454" lon="19.898572639247497"><ele>1221.0</ele><time>2026-05-05T09:42:02.999Z</time></trkpt><trkpt lat="41.522002637711125" lon="19.89861392070201"><ele>1221.3333333333333</ele><time>2026-05-05T09:42:03.999Z</time></trkpt><trkpt lat="41.522095788272715" lon="19.89871140076128"><ele>1221.6666666666667</ele><time>2026-05-05T09:42:05.999Z</time></trkpt><trkpt lat="41.522148595346096" lon="19.898783058691937"><ele>1222.0</ele><time>2026-05-05T09:42:07.999Z</time></trkpt><trkpt lat="41.52225935486734" lon="19.89883244281413"><ele>1222.3333333333335</ele><time>2026-05-05T09:42:09.999Z</time></trkpt><trkpt lat="41.52231627911009" lon="19.898895178944784"><ele>1222.6666666666667</ele><time>2026-05-05T09:42:10.999Z</time></trkpt><trkpt lat="41.52236160289216" lon="19.89895770335214"><ele>1223.0</ele><time>2026-05-05T09:42:11.999Z</time></trkpt><trkpt lat="41.52241100557518" lon="19.899023459884074"><ele>1223.0</ele><time>2026-05-05T09:42:12.999Z</time></trkpt><trkpt lat="41.52246715389979" lon="19.899103323977453"><ele>1223.0</ele><time>2026-05-05T09:44:03Z</time></trkpt><trkpt lat="41.522543816297606" lon="19.89918547222755"><ele>1223.0</ele><time>2026-05-05T09:44:05Z</time></trkpt><trkpt lat="41.522593596230344" lon="19.899238330107526"><ele>1223.0</ele><time>2026-05-05T09:44:06Z</time></trkpt><trkpt lat="41.52264945784359" lon="19.899291486065696"><ele>1223.0</ele><time>2026-05-05T09:44:07Z</time></trkpt><trkpt lat="41.52275029120055" lon="19.899346082656248"><ele>1223.0</ele><time>2026-05-05T09:44:09Z</time></trkpt><trkpt lat="41.52282427240254" lon="19.899412478866594"><ele>1219.5</ele><time>2026-05-05T09:44:11Z</time></trkpt><trkpt lat="41.52291566215862" lon="19.899462111591003"><ele>1216.0</ele><time>2026-05-05T09:44:13Z</time></trkpt><trkpt lat="41.523046943574805" lon="19.899467508311375"><ele>1212.5</ele><time>2026-05-05T09:44:15Z</time></trkpt><trkpt lat="41.52311395724064" lon="19.899462246884465"><ele>1209.0</ele><time>2026-05-05T09:44:16Z</time></trkpt><trkpt lat="41.52318641029609" lon="19.899462774337746"><ele>1205.5</ele><time>2026-05-05T09:44:17Z</time></trkpt><trkpt lat="41.52326121568735" lon="19.899463185603715"><ele>1202.0</ele><time>2026-05-05T09:44:18Z</time></trkpt><trkpt lat="41.52333345492485" lon="19.899464992499375"><ele>1202.0</ele><time>2026-05-05T09:44:19Z</time></trkpt><trkpt lat="41.52340353909722" lon="19.8994591909975"><ele>1202.0</ele><time>2026-05-05T09:44:20Z</time></trkpt><trkpt lat="41.52350605681071" lon="19.89948573461992"><ele>1202.0</ele><time>2026-05-05T09:44:22Z</time></trkpt><trkpt lat="41.52353981184149" lon="19.899564968403624"><ele>1202.0</ele><time>2026-05-05T09:44:24Z</time></trkpt><trkpt lat="41.52354757755166" lon="19.89965115174626"><ele>1202.0</ele><time>2026-05-05T09:44:25.999Z</time></trkpt><trkpt lat="41.52346599433695" lon="19.899713823407204"><ele>1202.0</ele><time>2026-05-05T09:44:27.999Z</time></trkpt><trkpt lat="41.52339728688302" lon="19.899728581141602"><ele>1202.0</ele><time>2026-05-05T09:44:28.999Z</time></trkpt><trkpt lat="41.52331547320727" lon="19.899686307416918"><ele>1202.0</ele><time>2026-05-05T09:44:29.999Z</time></trkpt><trkpt lat="41.52322530997091" lon="19.89970464175976"><ele>1202.0</ele><time>2026-05-05T09:44:30.999Z</time></trkpt><trkpt lat="41.52312799447935" lon="19.899735450841206"><ele>1202.0</ele><time>2026-05-05T09:44:31.999Z</time></trkpt><trkpt lat="41.52301516565608" lon="19.899768612345703"><ele>1202.0</ele><time>2026-05-05T09:44:33.999Z</time></trkpt><trkpt lat="41.52290947678307" lon="19.899813449829786"><ele>1201.0</ele><time>2026-05-05T09:44:35.999Z</time></trkpt><trkpt lat="41.5228701760392" lon="19.899917750270742"><ele>1200.0</ele><time>2026-05-05T09:44:37.999Z</time></trkpt><trkpt lat="41.52288975449081" lon="19.90000968498936"><ele>1199.0</ele><time>2026-05-05T09:44:39.999Z</time></trkpt><trkpt lat="41.52293498686056" lon="19.90011829204867"><ele>1198.0</ele><time>2026-05-05T09:44:41.999Z</time></trkpt><trkpt lat="41.52298407298543" lon="19.900230839636475"><ele>1197.0</ele><time>2026-05-05T09:44:43.999Z</time></trkpt><trkpt lat="41.52301638161146" lon="19.9003357604007"><ele>1196.0</ele><time>2026-05-05T09:44:45.999Z</time></trkpt><trkpt lat="41.523023929801774" lon="19.900425169248393"><ele>1193.6666666666667</ele><time>2026-05-05T09:44:46.999Z</time></trkpt><trkpt lat="41.523059134663086" lon="19.90049661919698"><ele>1191.3333333333335</ele><time>2026-05-05T09:44:48.999Z</time></trkpt><trkpt lat="41.523135535266455" lon="19.90053705989947"><ele>1189.0</ele><time>2026-05-05T09:44:50.999Z</time></trkpt><trkpt lat="41.523231661642285" lon="19.900470053347696"><ele>1186.6666666666667</ele><time>2026-05-05T09:44:52.999Z</time></trkpt><trkpt lat="41.523280338998525" lon="19.90041192197871"><ele>1184.3333333333333</ele><time>2026-05-05T09:44:53.999Z</time></trkpt><trkpt lat="41.52335114401414" lon="19.90031286694848"><ele>1182.0</ele><time>2026-05-05T09:44:55.999Z</time></trkpt><trkpt lat="41.523438245761824" lon="19.90022088337923"><ele>1182.0</ele><time>2026-05-05T09:44:56.999Z</time></trkpt><trkpt lat="41.52353890714608" lon="19.900131930899043"><ele>1182.0</ele><time>2026-05-05T09:44:58.999Z</time></trkpt><trkpt lat="41.523610203838686" lon="19.900101411220316"><ele>1182.0</ele><time>2026-05-05T09:44:59.999Z</time></trkpt><trkpt lat="41.52369164695615" lon="19.900077166553285"><ele>1182.0</ele><time>2026-05-05T09:45:01Z</time></trkpt><trkpt lat="41.52375760536658" lon="19.900064331346528"><ele>1182.0</ele><time>2026-05-05T09:45:02Z</time></trkpt><trkpt lat="41.523841693017495" lon="19.900056417507685"><ele>1182.0</ele><time>2026-05-05T09:45:03Z</time></trkpt><trkpt lat="41.52393452324663" lon="19.90003944553242"><ele>1184.0</ele><time>2026-05-05T09:45:04Z</time></trkpt><trkpt lat="41.52401630382394" lon="19.900023642904667"><ele>1186.0</ele><time>2026-05-05T09:45:05Z</time></trkpt><trkpt lat="41.524083376892726" lon="19.90001608084807"><ele>1188.0</ele><time>2026-05-05T09:45:06Z</time></trkpt><trkpt lat="41.52416077762977" lon="19.90001738469504"><ele>1190.0</ele><time>2026-05-05T09:45:07Z</time></trkpt><trkpt lat="41.524285346928934" lon="19.90004829919327"><ele>1192.0</ele><time>2026-05-05T09:45:09Z</time></trkpt><trkpt lat="41.52436986212613" lon="19.90012146987166"><ele>1187.2</ele><time>2026-05-05T09:45:11Z</time></trkpt><trkpt lat="41.524488349846884" lon="19.90018979321293"><ele>1182.4</ele><time>2026-05-05T09:45:13Z</time></trkpt><trkpt lat="41.524574466041834" lon="19.90023714860862"><ele>1177.6</ele><time>2026-05-05T09:45:14Z</time></trkpt><trkpt lat="41.52465002527147" lon="19.900287960094154"><ele>1172.8</ele><time>2026-05-05T09:45:15Z</time></trkpt><trkpt lat="41.52474419671561" lon="19.90032017960877"><ele>1168.0</ele><time>2026-05-05T09:45:17Z</time></trkpt><trkpt lat="41.52481511513946" lon="19.9003232783345"><ele>1168.0</ele><time>2026-05-05T09:45:18Z</time></trkpt><trkpt lat="41.52488908046008" lon="19.900307746738463"><ele>1168.0</ele><time>2026-05-05T09:45:19Z</time></trkpt><trkpt lat="41.52500505027795" lon="19.90029214051391"><ele>1168.0</ele><time>2026-05-05T09:45:21Z</time></trkpt><trkpt lat="41.52505396384376" lon="19.9003510036343"><ele>1168.0</ele><time>2026-05-05T09:45:24Z</time></trkpt><trkpt lat="41.52503646889876" lon="19.900462401024217"><ele>1168.0</ele><time>2026-05-05T09:45:27Z</time></trkpt><trkpt lat="41.524965526876606" lon="19.900507374959613"><ele>1168.0</ele><time>2026-05-05T09:45:29Z</time></trkpt><trkpt lat="41.52484976948669" lon="19.90050065716323"><ele>1168.0</ele><time>2026-05-05T09:45:31Z</time></trkpt><trkpt lat="41.524769532504614" lon="19.900524599692087"><ele>1168.0</ele><time>2026-05-05T09:45:32Z</time></trkpt><trkpt lat="41.52469108592349" lon="19.900511678209423"><ele>1168.0</ele><time>2026-05-05T09:45:33Z</time></trkpt><trkpt lat="41.52456488229448" lon="19.900480247024603"><ele>1168.0</ele><time>2026-05-05T09:45:35Z</time></trkpt><trkpt lat="41.52449394349562" lon="19.900470658053127"><ele>1168.0</ele><time>2026-05-05T09:45:36Z</time></trkpt><trkpt lat="41.524428032811194" lon="19.90046234066162"><ele>1168.0</ele><time>2026-05-05T09:45:37Z</time></trkpt><trkpt lat="41.524360798332495" lon="19.900455278852128"><ele>1167.3333333333333</ele><time>2026-05-05T09:45:38Z</time></trkpt><trkpt lat="41.524273138775975" lon="19.900432976698227"><ele>1166.6666666666665</ele><time>2026-05-05T09:45:39Z</time></trkpt><trkpt lat="41.52419691523618" lon="19.90043218077002"><ele>1166.0</ele><time>2026-05-05T09:45:40Z</time></trkpt><trkpt lat="41.52412627954657" lon="19.90046417433581"><ele>1165.3333333333333</ele><time>2026-05-05T09:45:41Z</time></trkpt><trkpt lat="41.52404931787509" lon="19.900515235060933"><ele>1164.6666666666667</ele><time>2026-05-05T09:45:42Z</time></trkpt><trkpt lat="41.52398992528288" lon="19.900570700899163"><ele>1164.0</ele><time>2026-05-05T09:45:43Z</time></trkpt><trkpt lat="41.52393976667095" lon="19.900630896153988"><ele>1164.0</ele><time>2026-05-05T09:45:44Z</time></trkpt><trkpt lat="41.52388370159713" lon="19.900749397881988"><ele>1164.0</ele><time>2026-05-05T09:45:46Z</time></trkpt><trkpt lat="41.52381604277021" lon="19.90087883117086"><ele>1164.0</ele><time>2026-05-05T09:45:48Z</time></trkpt><trkpt lat="41.52387111223824" lon="19.900923808174014"><ele>1164.0</ele><time>2026-05-05T09:45:50Z</time></trkpt><trkpt lat="41.52397804854801" lon="19.900953087373477"><ele>1164.0</ele><time>2026-05-05T09:45:52Z</time></trkpt><trkpt lat="41.52405046423376" lon="19.9009515677182"><ele>1160.5</ele><time>2026-05-05T09:45:53Z</time></trkpt><trkpt lat="41.52412549106683" lon="19.90096195187485"><ele>1157.0</ele><time>2026-05-05T09:45:56Z</time></trkpt><trkpt lat="41.5242389283667" lon="19.900979952716867"><ele>1153.5</ele><time>2026-05-05T09:45:58Z</time></trkpt><trkpt lat="41.52430389027317" lon="19.900970028371482"><ele>1150.0</ele><time>2026-05-05T09:45:59Z</time></trkpt><trkpt lat="41.524391240488875" lon="19.900973785314097"><ele>1146.5</ele><time>2026-05-05T09:46:01Z</time></trkpt><trkpt lat="41.52445776209894" lon="19.901012840838465"><ele>1143.0</ele><time>2026-05-05T09:47:28Z</time></trkpt><trkpt lat="41.52451106727898" lon="19.901100211993757"><ele>1143.4</ele><time>2026-05-05T09:47:30Z</time></trkpt><trkpt lat="41.524581937853554" lon="19.90119987697944"><ele>1143.8</ele><time>2026-05-05T09:47:32Z</time></trkpt><trkpt lat="41.52467542073103" lon="19.901293566786382"><ele>1144.2</ele><time>2026-05-05T09:47:34Z</time></trkpt><trkpt lat="41.52476518321099" lon="19.901377894958394"><ele>1144.6</ele><time>2026-05-05T09:47:36Z</time></trkpt><trkpt lat="41.52482482037893" lon="19.90141155608625"><ele>1145.0</ele><time>2026-05-05T09:47:37Z</time></trkpt><trkpt lat="41.52490058319622" lon="19.90143410236003"><ele>1145.0</ele><time>2026-05-05T09:47:38Z</time></trkpt><trkpt lat="41.52496571903801" lon="19.901422891695976"><ele>1145.0</ele><time>2026-05-05T09:47:39Z</time></trkpt><trkpt lat="41.525048986777755" lon="19.90140631841102"><ele>1145.0</ele><time>2026-05-05T09:47:40Z</time></trkpt><trkpt lat="41.52512452264811" lon="19.90141765631411"><ele>1145.0</ele><time>2026-05-05T09:47:41Z</time></trkpt><trkpt lat="41.525229586050656" lon="19.901494114596787"><ele>1145.0</ele><time>2026-05-05T09:47:42.999Z</time></trkpt><trkpt lat="41.525285570150594" lon="19.901633219761553"><ele>1146.2</ele><time>2026-05-05T09:47:44.999Z</time></trkpt><trkpt lat="41.52532043908117" lon="19.90176726744969"><ele>1147.4</ele><time>2026-05-05T09:47:45.999Z</time></trkpt><trkpt lat="41.52536315641808" lon="19.901914835864616"><ele>1148.6</ele><time>2026-05-05T09:47:46.999Z</time></trkpt><trkpt lat="41.525412486188344" lon="19.902039994948762"><ele>1149.8</ele><time>2026-05-05T09:47:47.999Z</time></trkpt><trkpt lat="41.52546071102087" lon="19.902156419668664"><ele>1151.0</ele><time>2026-05-05T09:47:48.999Z</time></trkpt><trkpt lat="41.525500671427984" lon="19.902251906693586"><ele>1151.0</ele><time>2026-05-05T09:47:49.999Z</time></trkpt><trkpt lat="41.52553482893038" lon="19.902332510390274"><ele>1151.0</ele><time>2026-05-05T09:47:50.999Z</time></trkpt><trkpt lat="41.525595472308005" lon="19.902413334017748"><ele>1151.0</ele><time>2026-05-05T09:47:51.999Z</time></trkpt><trkpt lat="41.52567620808922" lon="19.902499011024425"><ele>1151.0</ele><time>2026-05-05T09:47:52.999Z</time></trkpt><trkpt lat="41.52576958637071" lon="19.902600312346223"><ele>1151.0</ele><time>2026-05-05T09:47:53.999Z</time></trkpt><trkpt lat="41.52584787834996" lon="19.902759052946752"><ele>1146.1666666666667</ele><time>2026-05-05T09:47:55.999Z</time></trkpt><trkpt lat="41.525891995360425" lon="19.90286260600876"><ele>1141.3333333333335</ele><time>2026-05-05T09:47:56.999Z</time></trkpt><trkpt lat="41.525952525896464" lon="19.90296620973393"><ele>1136.5</ele><time>2026-05-05T09:47:57.999Z</time></trkpt><trkpt lat="41.52600611554286" lon="19.903026084010886"><ele>1131.6666666666667</ele><time>2026-05-05T09:47:58.999Z</time></trkpt><trkpt lat="41.52606908958916" lon="19.903085413548432"><ele>1126.8333333333333</ele><time>2026-05-05T09:47:59.999Z</time></trkpt><trkpt lat="41.526150017799374" lon="19.90312189508366"><ele>1122.0</ele><time>2026-05-05T09:48:00.999Z</time></trkpt><trkpt lat="41.52621274667862" lon="19.90313116853701"><ele>1124.0</ele><time>2026-05-05T09:48:01.999Z</time></trkpt><trkpt lat="41.526289533056655" lon="19.903143837882684"><ele>1126.0</ele><time>2026-05-05T09:48:02.999Z</time></trkpt><trkpt lat="41.526401557902894" lon="19.903155530957342"><ele>1128.0</ele><time>2026-05-05T09:48:04.999Z</time></trkpt><trkpt lat="41.526478516981946" lon="19.90316793324889"><ele>1130.0</ele><time>2026-05-05T09:48:05.999Z</time></trkpt><trkpt lat="41.526559419989105" lon="19.903184629646333"><ele>1132.0</ele><time>2026-05-05T09:48:06.999Z</time></trkpt><trkpt lat="41.52667887147371" lon="19.9032124589476"><ele>1132.0</ele><time>2026-05-05T09:48:08.999Z</time></trkpt><trkpt lat="41.52677943098485" lon="19.903246573561393"><ele>1132.0</ele><time>2026-05-05T09:48:10.999Z</time></trkpt><trkpt lat="41.52684572657156" lon="19.903278250369347"><ele>1132.0</ele><time>2026-05-05T09:48:11.999Z</time></trkpt><trkpt lat="41.526901957426404" lon="19.903323148983265"><ele>1132.0</ele><time>2026-05-05T09:48:12.999Z</time></trkpt><trkpt lat="41.52701994774001" lon="19.90342400146604"><ele>1132.0</ele><time>2026-05-05T09:48:14.999Z</time></trkpt><trkpt lat="41.52709138263572" lon="19.903450138265555"><ele>1128.3333333333333</ele><time>2026-05-05T09:48:15.999Z</time></trkpt><trkpt lat="41.52717038979419" lon="19.903481264095085"><ele>1124.6666666666665</ele><time>2026-05-05T09:48:16.999Z</time></trkpt><trkpt lat="41.52726305672791" lon="19.903515974079184"><ele>1121.0</ele><time>2026-05-05T09:48:18.999Z</time></trkpt><trkpt lat="41.52733215896816" lon="19.90355879748268"><ele>1117.3333333333333</ele><time>2026-05-05T09:48:20.999Z</time></trkpt><trkpt lat="41.5273857338148" lon="19.903627074747167"><ele>1113.6666666666667</ele><time>2026-05-05T09:48:22.999Z</time></trkpt><trkpt lat="41.52740159722244" lon="19.903712027801458"><ele>1110.0</ele><time>2026-05-05T09:48:24.999Z</time></trkpt><trkpt lat="41.52739809329067" lon="19.903817321820185"><ele>1110.0</ele><time>2026-05-05T09:49:13Z</time></trkpt><trkpt lat="41.52734440775942" lon="19.90390409887706"><ele>1110.0</ele><time>2026-05-05T09:49:15Z</time></trkpt><trkpt lat="41.52725758225327" lon="19.903982571409507"><ele>1110.0</ele><time>2026-05-05T09:49:17Z</time></trkpt><trkpt lat="41.527136097078895" lon="19.904030102583675"><ele>1110.0</ele><time>2026-05-05T09:49:19Z</time></trkpt><trkpt lat="41.527016606596135" lon="19.90400631095456"><ele>1110.0</ele><time>2026-05-05T09:49:21Z</time></trkpt><trkpt lat="41.5269567935599" lon="19.903971190246875"><ele>1109.5714285714287</ele><time>2026-05-05T09:49:22Z</time></trkpt><trkpt lat="41.526888861387555" lon="19.90392451720991"><ele>1109.142857142857</ele><time>2026-05-05T09:49:23Z</time></trkpt><trkpt lat="41.52683031428511" lon="19.90388934003915"><ele>1108.7142857142858</ele><time>2026-05-05T09:49:24Z</time></trkpt><trkpt lat="41.52675811447416" lon="19.903879773476746"><ele>1108.2857142857142</ele><time>2026-05-05T09:49:26Z</time></trkpt><trkpt lat="41.52670099421631" lon="19.903938296931926"><ele>1107.857142857143</ele><time>2026-05-05T09:49:29Z</time></trkpt><trkpt lat="41.526772196330725" lon="19.904014611143193"><ele>1107.4285714285716</ele><time>2026-05-05T09:49:31Z</time></trkpt><trkpt lat="41.52682773199867" lon="19.904062667606453"><ele>1107.0</ele><time>2026-05-05T09:49:32Z</time></trkpt><trkpt lat="41.52688043519911" lon="19.904132581276446"><ele>1107.0</ele><time>2026-05-05T09:49:34Z</time></trkpt><trkpt lat="41.52682882318344" lon="19.904208708398134"><ele>1107.0</ele><time>2026-05-05T09:49:36Z</time></trkpt><trkpt lat="41.526749335473" lon="19.904251192955694"><ele>1107.0</ele><time>2026-05-05T09:49:38Z</time></trkpt><trkpt lat="41.526633143155166" lon="19.904173337304506"><ele>1107.0</ele><time>2026-05-05T09:49:40Z</time></trkpt><trkpt lat="41.52653801521442" lon="19.90415194349089"><ele>1107.0</ele><time>2026-05-05T09:49:42Z</time></trkpt><trkpt lat="41.52644355014114" lon="19.904200122435746"><ele>1103.0</ele><time>2026-05-05T09:49:44Z</time></trkpt><trkpt lat="41.52639732542234" lon="19.90427989742486"><ele>1099.0</ele><time>2026-05-05T09:49:46Z</time></trkpt><trkpt lat="41.526412164927" lon="19.90437111068257"><ele>1095.0</ele><time>2026-05-05T09:49:47Z</time></trkpt><trkpt lat="41.526418449010734" lon="19.904473612415917"><ele>1091.0</ele><time>2026-05-05T09:49:48Z</time></trkpt><trkpt lat="41.52646777634296" lon="19.904637710631988"><ele>1087.0</ele><time>2026-05-05T09:49:50Z</time></trkpt><trkpt lat="41.526514069027016" lon="19.90470938856333"><ele>1083.0</ele><time>2026-05-05T09:49:51Z</time></trkpt><trkpt lat="41.52656846649073" lon="19.904768204273804"><ele>1083.0</ele><time>2026-05-05T09:49:52Z</time></trkpt><trkpt lat="41.52662733942322" lon="19.904806999404176"><ele>1083.0</ele><time>2026-05-05T09:49:53Z</time></trkpt><trkpt lat="41.526687654675094" lon="19.90483726266827"><ele>1083.0</ele><time>2026-05-05T09:49:54Z</time></trkpt><trkpt lat="41.52675410768754" lon="19.90487133120983"><ele>1083.0</ele><time>2026-05-05T09:49:55Z</time></trkpt><trkpt lat="41.52681169000317" lon="19.904914472819883"><ele>1083.0</ele><time>2026-05-05T09:49:56Z</time></trkpt><trkpt lat="41.52686992198251" lon="19.90495803044639"><ele>1083.0</ele><time>2026-05-05T09:49:57Z</time></trkpt><trkpt lat="41.52692998126657" lon="19.904994359793456"><ele>1083.0</ele><time>2026-05-05T09:49:58Z</time></trkpt><trkpt lat="41.52699297732649" lon="19.905039616431655"><ele>1078.3333333333333</ele><time>2026-05-05T09:49:59Z</time></trkpt><trkpt lat="41.52704724295367" lon="19.90509213827315"><ele>1073.6666666666667</ele><time>2026-05-05T09:50:00Z</time></trkpt><trkpt lat="41.527103571685515" lon="19.905141422901004"><ele>1069.0</ele><time>2026-05-05T09:50:01Z</time></trkpt><trkpt lat="41.52716362293633" lon="19.905175107787738"><ele>1064.3333333333335</ele><time>2026-05-05T09:50:02Z</time></trkpt><trkpt lat="41.52728276092009" lon="19.90519109410853"><ele>1059.6666666666667</ele><time>2026-05-05T09:50:04Z</time></trkpt><trkpt lat="41.52739764567153" lon="19.90518949450204"><ele>1055.0</ele><time>2026-05-05T09:50:06Z</time></trkpt><trkpt lat="41.527496205857204" lon="19.905144893699042"><ele>1057.6</ele><time>2026-05-05T09:50:08Z</time></trkpt><trkpt lat="41.527617358613526" lon="19.905061260195428"><ele>1060.2</ele><time>2026-05-05T09:50:10Z</time></trkpt><trkpt lat="41.52768864896362" lon="19.905018050332497"><ele>1062.8</ele><time>2026-05-05T09:50:11Z</time></trkpt><trkpt lat="41.5277648797745" lon="19.904964651429626"><ele>1065.4</ele><time>2026-05-05T09:50:12Z</time></trkpt><trkpt lat="41.527836043114824" lon="19.904916941485293"><ele>1068.0</ele><time>2026-05-05T09:50:13Z</time></trkpt><trkpt lat="41.527910345604916" lon="19.904864317471688"><ele>1068.0</ele><time>2026-05-05T09:50:14Z</time></trkpt><trkpt lat="41.52797368621023" lon="19.904789035035535"><ele>1068.0</ele><time>2026-05-05T09:50:15Z</time></trkpt><trkpt lat="41.528032256696214" lon="19.90469400117189"><ele>1068.0</ele><time>2026-05-05T09:50:16Z</time></trkpt><trkpt lat="41.52808776983636" lon="19.904628884294564"><ele>1068.0</ele><time>2026-05-05T09:50:17Z</time></trkpt><trkpt lat="41.52816024285657" lon="19.904563186559525"><ele>1068.0</ele><time>2026-05-05T09:50:19Z</time></trkpt><trkpt lat="41.528265831979866" lon="19.904587592566614"><ele>1068.0</ele><time>2026-05-05T09:50:21Z</time></trkpt><trkpt lat="41.52837382847936" lon="19.90467784824639"><ele>1068.0</ele><time>2026-05-05T09:50:22.999Z</time></trkpt><trkpt lat="41.52843358828079" lon="19.904736354540436"><ele>1068.0</ele><time>2026-05-05T09:50:23.999Z</time></trkpt><trkpt lat="41.52848056913389" lon="19.90480415158974"><ele>1068.0</ele><time>2026-05-05T09:50:24.999Z</time></trkpt><trkpt lat="41.528521474677696" lon="19.9048776768212"><ele>1068.0</ele><time>2026-05-05T09:50:25.999Z</time></trkpt><trkpt lat="41.528605736274855" lon="19.904981207783784"><ele>1068.0</ele><time>2026-05-05T09:50:27.999Z</time></trkpt><trkpt lat="41.528684103387384" lon="19.904992161794894"><ele>1068.0</ele><time>2026-05-05T09:50:29.999Z</time></trkpt><trkpt lat="41.528781009193" lon="19.904955183609662"><ele>1069.0</ele><time>2026-05-05T09:50:31.999Z</time></trkpt><trkpt lat="41.52887271725746" lon="19.904897747977735"><ele>1070.0</ele><time>2026-05-05T09:50:33.999Z</time></trkpt><trkpt lat="41.52895689344737" lon="19.904954665552626"><ele>1071.0</ele><time>2026-05-05T09:50:35.999Z</time></trkpt><trkpt lat="41.52895324246637" lon="19.905055659473508"><ele>1072.0</ele><time>2026-05-05T09:50:37.999Z</time></trkpt><trkpt lat="41.52889165395775" lon="19.905113346706127"><ele>1073.0</ele><time>2026-05-05T09:50:40.999Z</time></trkpt><trkpt lat="41.52880469824369" lon="19.90512099385003"><ele>1074.0</ele><time>2026-05-05T09:50:42.999Z</time></trkpt><trkpt lat="41.528742779127825" lon="19.90514736669029"><ele>1072.8</ele><time>2026-05-05T09:50:44.999Z</time></trkpt><trkpt lat="41.52866344878357" lon="19.905201371548273"><ele>1071.6000000000001</ele><time>2026-05-05T09:50:46.999Z</time></trkpt><trkpt lat="41.52852978679488" lon="19.90519374813181"><ele>1070.4</ele><time>2026-05-05T09:50:48.999Z</time></trkpt><trkpt lat="41.5284711807487" lon="19.905145086518726"><ele>1069.2</ele><time>2026-05-05T09:50:49.999Z</time></trkpt><trkpt lat="41.52842825571502" lon="19.905071425192034"><ele>1068.0</ele><time>2026-05-05T09:50:50.999Z</time></trkpt><trkpt lat="41.5283477880308" lon="19.904990761736236"><ele>1062.8333333333333</ele><time>2026-05-05T09:50:52.999Z</time></trkpt><trkpt lat="41.52827805968556" lon="19.90509649845755"><ele>1057.6666666666667</ele><time>2026-05-05T09:50:55.999Z</time></trkpt><trkpt lat="41.528301492889234" lon="19.905192708066544"><ele>1052.5</ele><time>2026-05-05T09:50:57.999Z</time></trkpt><trkpt lat="41.52837918991184" lon="19.905244505449065"><ele>1047.3333333333335</ele><time>2026-05-05T09:50:59.999Z</time></trkpt><trkpt lat="41.528437043697494" lon="19.90529065724174"><ele>1042.1666666666667</ele><time>2026-05-05T09:51:08.999Z</time></trkpt><trkpt lat="41.52837552217772" lon="19.905257811070253"><ele>1037.0</ele><time>2026-05-05T09:53:43Z</time></trkpt><trkpt lat="41.52830233103855" lon="19.905199372633817"><ele>1037.0</ele><time>2026-05-05T09:53:46Z</time></trkpt><trkpt lat="41.52825888937769" lon="19.9051267128006"><ele>1037.0</ele><time>2026-05-05T09:53:48Z</time></trkpt><trkpt lat="41.528309755354876" lon="19.905017023479886"><ele>1037.0</ele><time>2026-05-05T09:55:40.999Z</time></trkpt><trkpt lat="41.52837491139353" lon="19.905020033900183"><ele>1037.0</ele><time>2026-05-05T09:55:43Z</time></trkpt><trkpt lat="41.528474291595124" lon="19.905119010067416"><ele>1037.0</ele><time>2026-05-05T09:55:45Z</time></trkpt><trkpt lat="41.528538134794125" lon="19.905184232003094"><ele>1037.0</ele><time>2026-05-05T09:55:46Z</time></trkpt><trkpt lat="41.52861416963397" lon="19.905222391576306"><ele>1037.0</ele><time>2026-05-05T09:55:47Z</time></trkpt><trkpt lat="41.52869074497317" lon="19.90522190803719"><ele>1037.0</ele><time>2026-05-05T09:55:47.999Z</time></trkpt><trkpt lat="41.528769639353115" lon="19.90520517484569"><ele>1037.0</ele><time>2026-05-05T09:55:48.999Z</time></trkpt><trkpt lat="41.52885576169513" lon="19.90521052520251"><ele>1037.0</ele><time>2026-05-05T09:56:02.999Z</time></trkpt><trkpt lat="41.528938833903474" lon="19.90525134197294"><ele>1037.0</ele><time>2026-05-05T09:56:04.999Z</time></trkpt><trkpt lat="41.529021464936555" lon="19.905271949740026"><ele>1037.0</ele><time>2026-05-05T09:56:06.999Z</time></trkpt><trkpt lat="41.52911758664901" lon="19.905242694015165"><ele>1035.5714285714287</ele><time>2026-05-05T09:56:09.999Z</time></trkpt><trkpt lat="41.529182686447704" lon="19.905231823554995"><ele>1034.142857142857</ele><time>2026-05-05T09:56:11.999Z</time></trkpt><trkpt lat="41.529262241361764" lon="19.9052041085154"><ele>1032.7142857142858</ele><time>2026-05-05T09:56:13.999Z</time></trkpt><trkpt lat="41.52934365282237" lon="19.905190918697397"><ele>1031.2857142857142</ele><time>2026-05-05T09:56:16.999Z</time></trkpt><trkpt lat="41.52940227734216" lon="19.905236007022026"><ele>1029.857142857143</ele><time>2026-05-05T09:56:18.999Z</time></trkpt><trkpt lat="41.52944638169276" lon="19.905296197255847"><ele>1028.4285714285716</ele><time>2026-05-05T09:56:20.999Z</time></trkpt><trkpt lat="41.529425519704716" lon="19.905393321354264"><ele>1027.0</ele><time>2026-05-05T09:56:22.999Z</time></trkpt><trkpt lat="41.529315635666116" lon="19.905439234565208"><ele>1027.0</ele><time>2026-05-05T09:56:24.999Z</time></trkpt><trkpt lat="41.52922478417836" lon="19.905465830387637"><ele>1027.0</ele><time>2026-05-05T09:56:25.999Z</time></trkpt><trkpt lat="41.5291428972944" lon="19.905538632217297"><ele>1027.0</ele><time>2026-05-05T09:56:27.999Z</time></trkpt><trkpt lat="41.529156403146004" lon="19.90565721628556"><ele>1027.0</ele><time>2026-05-05T09:56:30.999Z</time></trkpt><trkpt lat="41.52923226568664" lon="19.905677509713602"><ele>1027.0</ele><time>2026-05-05T09:56:32.999Z</time></trkpt><trkpt lat="41.52929647368681" lon="19.90564001748689"><ele>1027.0</ele><time>2026-05-05T09:56:33.999Z</time></trkpt><trkpt lat="41.529354550190604" lon="19.905585282389527"><ele>1027.0</ele><time>2026-05-05T09:56:34.999Z</time></trkpt><trkpt lat="41.529433255241685" lon="19.905517750422543"><ele>1027.0</ele><time>2026-05-05T09:56:36.999Z</time></trkpt><trkpt lat="41.52953845180987" lon="19.905480631987192"><ele>1027.0</ele><time>2026-05-05T09:56:38.999Z</time></trkpt><trkpt lat="41.52960063511569" lon="19.905458796021982"><ele>1027.0</ele><time>2026-05-05T09:56:39.999Z</time></trkpt><trkpt lat="41.529678740365945" lon="19.905436204504525"><ele>1027.0</ele><time>2026-05-05T09:56:40.999Z</time></trkpt><trkpt lat="41.52974727662872" lon="19.905435033237538"><ele>1027.0</ele><time>2026-05-05T09:56:41.999Z</time></trkpt><trkpt lat="41.529857125887894" lon="19.90545381065972"><ele>1027.6</ele><time>2026-05-05T09:56:43.999Z</time></trkpt><trkpt lat="41.52993228181021" lon="19.905533000672307"><ele>1028.2</ele><time>2026-05-05T09:56:45.999Z</time></trkpt><trkpt lat="41.52992612308351" lon="19.905666315652578"><ele>1028.8</ele><time>2026-05-05T09:56:47.999Z</time></trkpt><trkpt lat="41.52982988477437" lon="19.90574544467789"><ele>1029.4</ele><time>2026-05-05T09:56:49.999Z</time></trkpt><trkpt lat="41.529766526202174" lon="19.905768836731916"><ele>1030.0</ele><time>2026-05-05T09:56:50.999Z</time></trkpt><trkpt lat="41.52968192757409" lon="19.905852596148282"><ele>1030.0</ele><time>2026-05-05T09:56:52.999Z</time></trkpt><trkpt lat="41.52964621599051" lon="19.905946958025606"><ele>1030.0</ele><time>2026-05-05T09:56:54.999Z</time></trkpt><trkpt lat="41.529694231701114" lon="19.906033709232325"><ele>1030.0</ele><time>2026-05-05T09:56:57.999Z</time></trkpt><trkpt lat="41.52980824327545" lon="19.906019144403235"><ele>1030.0</ele><time>2026-05-05T09:56:59.999Z</time></trkpt><trkpt lat="41.52989157965635" lon="19.90599546050344"><ele>1030.0</ele><time>2026-05-05T09:57:00.999Z</time></trkpt><trkpt lat="41.529978906721425" lon="19.9059678646978"><ele>1030.0</ele><time>2026-05-05T09:57:01.999Z</time></trkpt><trkpt lat="41.5300665759055" lon="19.905906015833587"><ele>1030.0</ele><time>2026-05-05T09:57:02.999Z</time></trkpt><trkpt lat="41.53014417688981" lon="19.905821285863468"><ele>1030.0</ele><time>2026-05-05T09:57:03.999Z</time></trkpt><trkpt lat="41.530204654323626" lon="19.905758710132737"><ele>1030.0</ele><time>2026-05-05T09:57:04.999Z</time></trkpt><trkpt lat="41.530271807432754" lon="19.905689350551846"><ele>1030.0</ele><time>2026-05-05T09:57:05.999Z</time></trkpt><trkpt lat="41.53034454695746" lon="19.905636510814194"><ele>1030.0</ele><time>2026-05-05T09:57:06.999Z</time></trkpt><trkpt lat="41.530430847510566" lon="19.905599669794054"><ele>1030.0</ele><time>2026-05-05T09:57:07.999Z</time></trkpt><trkpt lat="41.5305267527731" lon="19.905582939425788"><ele>1027.0</ele><time>2026-05-05T09:57:08.999Z</time></trkpt><trkpt lat="41.53061949798735" lon="19.905574471382852"><ele>1024.0</ele><time>2026-05-05T09:57:09.999Z</time></trkpt><trkpt lat="41.53071253162318" lon="19.90556363868163"><ele>1021.0</ele><time>2026-05-05T09:57:10.999Z</time></trkpt><trkpt lat="41.53080319557942" lon="19.905552000505732"><ele>1018.0</ele><time>2026-05-05T09:57:11.999Z</time></trkpt><trkpt lat="41.53089416157111" lon="19.90553199429285"><ele>1015.0</ele><time>2026-05-05T09:57:12.999Z</time></trkpt><trkpt lat="41.53098708192955" lon="19.905531303983604"><ele>1015.0</ele><time>2026-05-05T09:57:13.999Z</time></trkpt><trkpt lat="41.53108145739519" lon="19.90553851100281"><ele>1015.0</ele><time>2026-05-05T09:57:14.999Z</time></trkpt><trkpt lat="41.53117320179922" lon="19.905544368431826"><ele>1015.0</ele><time>2026-05-05T09:57:15.999Z</time></trkpt><trkpt lat="41.53128157640532" lon="19.905568150585868"><ele>1015.0</ele><time>2026-05-05T09:57:16.999Z</time></trkpt><trkpt lat="41.53136941684948" lon="19.905590504123175"><ele>1015.0</ele><time>2026-05-05T09:57:17.999Z</time></trkpt><trkpt lat="41.53144984400476" lon="19.9055921044578"><ele>1011.0</ele><time>2026-05-05T09:57:18.999Z</time></trkpt><trkpt lat="41.53152866741044" lon="19.905585863152645"><ele>1007.0</ele><time>2026-05-05T09:57:19.999Z</time></trkpt><trkpt lat="41.53160199584546" lon="19.905564286407515"><ele>1003.0</ele><time>2026-05-05T09:57:20.999Z</time></trkpt><trkpt lat="41.531714220875116" lon="19.905481698535937"><ele>999.0</ele><time>2026-05-05T09:57:22.999Z</time></trkpt><trkpt lat="41.531779603672994" lon="19.905390891981003"><ele>995.0</ele><time>2026-05-05T09:57:23.999Z</time></trkpt><trkpt lat="41.53182373197365" lon="19.90527104931869"><ele>995.0</ele><time>2026-05-05T09:57:24.999Z</time></trkpt><trkpt lat="41.53188130368473" lon="19.90515978882076"><ele>995.0</ele><time>2026-05-05T09:57:25.999Z</time></trkpt><trkpt lat="41.53194785636479" lon="19.905062063102793"><ele>995.0</ele><time>2026-05-05T09:57:26.999Z</time></trkpt><trkpt lat="41.53202883282275" lon="19.90495902103696"><ele>995.0</ele><time>2026-05-05T09:57:27.999Z</time></trkpt><trkpt lat="41.53209878555331" lon="19.90485424922459"><ele>995.0</ele><time>2026-05-05T09:57:28.999Z</time></trkpt><trkpt lat="41.53217225519977" lon="19.904766639"><ele>997.0000000000001</ele><time>2026-05-05T09:57:29.999Z</time></trkpt><trkpt lat="41.53224385381148" lon="19.90470126610982"><ele>999.0</ele><time>2026-05-05T09:57:30.999Z</time></trkpt><trkpt lat="41.5323208948126" lon="19.90466762514502"><ele>1001.0</ele><time>2026-05-05T09:57:31.999Z</time></trkpt><trkpt lat="41.532404918637866" lon="19.904662580685102"><ele>1003.0</ele><time>2026-05-05T09:57:32.999Z</time></trkpt><trkpt lat="41.53248340679107" lon="19.90468091211506"><ele>1005.0000000000001</ele><time>2026-05-05T09:57:33.999Z</time></trkpt><trkpt lat="41.532565827249485" lon="19.904710517036452"><ele>1007.0</ele><time>2026-05-05T09:57:34.999Z</time></trkpt><trkpt lat="41.532663026377236" lon="19.904792241854327"><ele>1007.0000000000001</ele><time>2026-05-05T09:57:37Z</time></trkpt><trkpt lat="41.53270103960195" lon="19.904867099797432"><ele>1007.0</ele><time>2026-05-05T09:57:38Z</time></trkpt><trkpt lat="41.532733503291624" lon="19.904939806243128"><ele>1007.0</ele><time>2026-05-05T09:57:39Z</time></trkpt><trkpt lat="41.53276988229509" lon="19.905033913418954"><ele>1007.0</ele><time>2026-05-05T09:57:40Z</time></trkpt><trkpt lat="41.532818264518674" lon="19.90513742945796"><ele>1007.0000000000001</ele><time>2026-05-05T09:57:41Z</time></trkpt><trkpt lat="41.532864410252444" lon="19.905254786395535"><ele>1007.0</ele><time>2026-05-05T09:57:42Z</time></trkpt><trkpt lat="41.532901632596605" lon="19.90536631923071"><ele>1006.4000000000001</ele><time>2026-05-05T09:57:43Z</time></trkpt><trkpt lat="41.53293501318818" lon="19.90548832580443"><ele>1005.8000000000001</ele><time>2026-05-05T09:57:44Z</time></trkpt><trkpt lat="41.53295157275094" lon="19.90561309009862"><ele>1005.2</ele><time>2026-05-05T09:57:45Z</time></trkpt><trkpt lat="41.532976542744976" lon="19.90574278055162"><ele>1004.6</ele><time>2026-05-05T09:57:46Z</time></trkpt><trkpt lat="41.53300715343407" lon="19.905852431536324"><ele>1004.0</ele><time>2026-05-05T09:57:47Z</time></trkpt><trkpt lat="41.53303908963528" lon="19.905947872113536"><ele>994.6</ele><time>2026-05-05T09:57:48Z</time></trkpt><trkpt lat="41.53308268368827" lon="19.906010594641568"><ele>985.2</ele><time>2026-05-05T09:57:49Z</time></trkpt><trkpt lat="41.53320307595157" lon="19.90606759593169"><ele>975.8000000000001</ele><time>2026-05-05T09:57:51Z</time></trkpt><trkpt lat="41.533287120019715" lon="19.906045888120513"><ele>966.4000000000001</ele><time>2026-05-05T09:57:52Z</time></trkpt><trkpt lat="41.53337736048313" lon="19.905984649277144"><ele>957.0</ele><time>2026-05-05T09:57:53Z</time></trkpt><trkpt lat="41.53347121110799" lon="19.90592905262273"><ele>957.0</ele><time>2026-05-05T09:57:54Z</time></trkpt><trkpt lat="41.53358824705828" lon="19.905912566812628"><ele>957.0</ele><time>2026-05-05T09:57:55Z</time></trkpt><trkpt lat="41.5337158047814" lon="19.90592698944307"><ele>957.0</ele><time>2026-05-05T09:57:56Z</time></trkpt><trkpt lat="41.533838968308345" lon="19.905960457161978"><ele>957.0</ele><time>2026-05-05T09:57:57Z</time></trkpt><trkpt lat="41.53394863164947" lon="19.905977148937158"><ele>957.5</ele><time>2026-05-05T09:57:58Z</time></trkpt><trkpt lat="41.534042217120344" lon="19.905966122155615"><ele>958.0</ele><time>2026-05-05T09:57:59Z</time></trkpt><trkpt lat="41.5341067480327" lon="19.905929729190788"><ele>958.5</ele><time>2026-05-05T09:58:00Z</time></trkpt><trkpt lat="41.53418146786601" lon="19.9058818108487"><ele>959.0</ele><time>2026-05-05T09:58:01Z</time></trkpt><trkpt lat="41.53425795626164" lon="19.90584278353748"><ele>959.5</ele><time>2026-05-05T09:58:02Z</time></trkpt><trkpt lat="41.53433593292554" lon="19.905818737727785"><ele>960.0</ele><time>2026-05-05T09:58:03Z</time></trkpt><trkpt lat="41.534436468978384" lon="19.905782136947057"><ele>960.2</ele><time>2026-05-05T09:58:05Z</time></trkpt><trkpt lat="41.534515571994845" lon="19.905786570273012"><ele>960.4</ele><time>2026-05-05T09:58:25Z</time></trkpt><trkpt lat="41.534640258391455" lon="19.905790871983626"><ele>960.5999999999999</ele><time>2026-05-05T09:58:27Z</time></trkpt><trkpt lat="41.53471810585731" lon="19.90581396292758"><ele>960.8</ele><time>2026-05-05T09:58:28Z</time></trkpt><trkpt lat="41.53481448121607" lon="19.905854023866667"><ele>961.0</ele><time>2026-05-05T09:58:29Z</time></trkpt><trkpt lat="41.53490532188895" lon="19.905932434031616"><ele>961.0</ele><time>2026-05-05T09:58:30Z</time></trkpt><trkpt lat="41.53499980542844" lon="19.905998733846477"><ele>960.9999999999999</ele><time>2026-05-05T09:58:31Z</time></trkpt><trkpt lat="41.535096040896384" lon="19.906040012354477"><ele>960.9999999999999</ele><time>2026-05-05T09:58:32Z</time></trkpt><trkpt lat="41.53518842523673" lon="19.906081529155983"><ele>961.0</ele><time>2026-05-05T09:58:33Z</time></trkpt><trkpt lat="41.535280578136536" lon="19.906114224565393"><ele>961.0</ele><time>2026-05-05T09:58:34Z</time></trkpt><trkpt lat="41.53537127344059" lon="19.906138863444344"><ele>965.1666666666666</ele><time>2026-05-05T09:58:35Z</time></trkpt><trkpt lat="41.53545724872597" lon="19.90619223958393"><ele>969.3333333333333</ele><time>2026-05-05T09:58:36Z</time></trkpt><trkpt lat="41.535517797348014" lon="19.906251844606253"><ele>973.5</ele><time>2026-05-05T09:58:37Z</time></trkpt><trkpt lat="41.53555429733383" lon="19.906325606879683"><ele>977.6666666666667</ele><time>2026-05-05T09:58:38Z</time></trkpt><trkpt lat="41.53557730481847" lon="19.90643724780217"><ele>981.8333333333334</ele><time>2026-05-05T09:58:39Z</time></trkpt><trkpt lat="41.53559866004755" lon="19.906560022566616"><ele>986.0</ele><time>2026-05-05T09:58:40Z</time></trkpt><trkpt lat="41.535635677895414" lon="19.906727527957727"><ele>979.4</ele><time>2026-05-05T09:58:41Z</time></trkpt><trkpt lat="41.535676631463936" lon="19.9068689813522"><ele>972.8</ele><time>2026-05-05T09:58:42Z</time></trkpt><trkpt lat="41.535717144458424" lon="19.906954282226057"><ele>966.1999999999999</ele><time>2026-05-05T09:58:43Z</time></trkpt><trkpt lat="41.53577232237494" lon="19.907028290250075"><ele>959.5999999999999</ele><time>2026-05-05T09:58:44Z</time></trkpt><trkpt lat="41.53589903090154" lon="19.90707522807208"><ele>953.0</ele><time>2026-05-05T09:58:46Z</time></trkpt><trkpt lat="41.53601418400077" lon="19.90710614723483"><ele>953.0000000000001</ele><time>2026-05-05T09:58:47Z</time></trkpt><trkpt lat="41.53610396415213" lon="19.907136486712737"><ele>953.0</ele><time>2026-05-05T09:58:47.999Z</time></trkpt><trkpt lat="41.536179243025195" lon="19.90718625447216"><ele>953.0</ele><time>2026-05-05T09:58:48.999Z</time></trkpt><trkpt lat="41.536251589666556" lon="19.907278551569068"><ele>953.0</ele><time>2026-05-05T09:58:49.999Z</time></trkpt><trkpt lat="41.536304154908194" lon="19.907376537674747"><ele>953.0000000000001</ele><time>2026-05-05T09:58:50.999Z</time></trkpt><trkpt lat="41.536358946501856" lon="19.907441386697055"><ele>953.0</ele><time>2026-05-05T09:58:51.999Z</time></trkpt><trkpt lat="41.53650266774552" lon="19.90744578942117"><ele>956.25</ele><time>2026-05-05T09:58:53.999Z</time></trkpt><trkpt lat="41.53660678557286" lon="19.907424463246866"><ele>959.5</ele><time>2026-05-05T09:58:54.999Z</time></trkpt><trkpt lat="41.53673929892163" lon="19.907422346122992"><ele>962.75</ele><time>2026-05-05T09:58:55.999Z</time></trkpt><trkpt lat="41.53685153471733" lon="19.90746349208964"><ele>966.0</ele><time>2026-05-05T09:58:56.999Z</time></trkpt><trkpt lat="41.53695674335287" lon="19.90752486711177"><ele>963.8</ele><time>2026-05-05T09:58:57.999Z</time></trkpt><trkpt lat="41.53705342484075" lon="19.907548888157315"><ele>961.5999999999999</ele><time>2026-05-05T09:58:58.999Z</time></trkpt><trkpt lat="41.53716859261937" lon="19.907538735545938"><ele>959.4</ele><time>2026-05-05T09:58:59.999Z</time></trkpt><trkpt lat="41.537274014940024" lon="19.907503295943542"><ele>957.2</ele><time>2026-05-05T09:59:00.999Z</time></trkpt><trkpt lat="41.53735312232144" lon="19.90744407223602"><ele>955.0</ele><time>2026-05-05T09:59:01.999Z</time></trkpt><trkpt lat="41.53745940443903" lon="19.90734685222048"><ele>955.0</ele><time>2026-05-05T09:59:02.999Z</time></trkpt><trkpt lat="41.537550811492345" lon="19.90723384451078"><ele>955.0</ele><time>2026-05-05T09:59:03.999Z</time></trkpt><trkpt lat="41.53762810525205" lon="19.90712892027712"><ele>955.0</ele><time>2026-05-05T09:59:04.999Z</time></trkpt><trkpt lat="41.53770853914069" lon="19.907064660280458"><ele>955.0</ele><time>2026-05-05T09:59:05.999Z</time></trkpt><trkpt lat="41.53779414408665" lon="19.9070342374388"><ele>955.0</ele><time>2026-05-05T09:59:06.999Z</time></trkpt><trkpt lat="41.53790804691489" lon="19.907035547059134"><ele>953.5</ele><time>2026-05-05T09:59:07.999Z</time></trkpt><trkpt lat="41.53802203888398" lon="19.907059097492755"><ele>952.0</ele><time>2026-05-05T09:59:08.999Z</time></trkpt><trkpt lat="41.538148525815075" lon="19.9070758628332"><ele>950.5</ele><time>2026-05-05T09:59:09.999Z</time></trkpt><trkpt lat="41.53828247342221" lon="19.90711226201845"><ele>949.0</ele><time>2026-05-05T09:59:10.999Z</time></trkpt><trkpt lat="41.53841408996285" lon="19.907171463035922"><ele>949.0</ele><time>2026-05-05T09:59:11.999Z</time></trkpt><trkpt lat="41.53855027449377" lon="19.90723959523141"><ele>949.0</ele><time>2026-05-05T09:59:12.999Z</time></trkpt><trkpt lat="41.53867872167144" lon="19.90729883011735"><ele>949.0</ele><time>2026-05-05T09:59:13.999Z</time></trkpt><trkpt lat="41.53876646721057" lon="19.907345952551644"><ele>949.0</ele><time>2026-05-05T09:59:14.999Z</time></trkpt><trkpt lat="41.53889264305546" lon="19.907324072976273"><ele>950.4000000000001</ele><time>2026-05-05T09:59:16.999Z</time></trkpt><trkpt lat="41.53895368878598" lon="19.90724024140543"><ele>951.8000000000001</ele><time>2026-05-05T09:59:17.999Z</time></trkpt><trkpt lat="41.53898451651312" lon="19.90711118076002"><ele>953.1999999999999</ele><time>2026-05-05T09:59:18.999Z</time></trkpt><trkpt lat="41.53900777507756" lon="19.906949071469423"><ele>954.5999999999999</ele><time>2026-05-05T09:59:19.999Z</time></trkpt><trkpt lat="41.53901258146793" lon="19.90680546741577"><ele>956.0</ele><time>2026-05-05T09:59:20.999Z</time></trkpt><trkpt lat="41.53906203571333" lon="19.906729555218096"><ele>956.0</ele><time>2026-05-05T09:59:21.999Z</time></trkpt><trkpt lat="41.539142161289995" lon="19.90667248957177"><ele>955.9999999999999</ele><time>2026-05-05T09:59:22.999Z</time></trkpt><trkpt lat="41.53923945913196" lon="19.90660900253804"><ele>955.9999999999999</ele><time>2026-05-05T09:59:23.999Z</time></trkpt><trkpt lat="41.53930192973944" lon="19.90651217317283"><ele>956.0</ele><time>2026-05-05T09:59:24.999Z</time></trkpt><trkpt lat="41.53933431506442" lon="19.90637311339944"><ele>956.0</ele><time>2026-05-05T09:59:25.999Z</time></trkpt><trkpt lat="41.539354233808844" lon="19.906208994463565"><ele>956.0</ele><time>2026-05-05T09:59:26.999Z</time></trkpt><trkpt lat="41.53940255643492" lon="19.906090038302793"><ele>955.9999999999999</ele><time>2026-05-05T09:59:27.999Z</time></trkpt><trkpt lat="41.53947485012619" lon="19.906020755515133"><ele>955.9999999999999</ele><time>2026-05-05T09:59:28.999Z</time></trkpt><trkpt lat="41.53955525018504" lon="19.90598442937215"><ele>956.0</ele><time>2026-05-05T09:59:29.999Z</time></trkpt><trkpt lat="41.53964459224326" lon="19.905977438216855"><ele>956.0</ele><time>2026-05-05T09:59:30.999Z</time></trkpt><trkpt lat="41.539730154059505" lon="19.9060152141921"><ele>953.1999999999999</ele><time>2026-05-05T09:59:31.999Z</time></trkpt><trkpt lat="41.539831976362215" lon="19.906075291522296"><ele>950.3999999999999</ele><time>2026-05-05T09:59:32.999Z</time></trkpt><trkpt lat="41.53994008743964" lon="19.90615439934896"><ele>947.6</ele><time>2026-05-05T09:59:33.999Z</time></trkpt><trkpt lat="41.540038972211036" lon="19.90622771525558"><ele>944.8</ele><time>2026-05-05T09:59:34.999Z</time></trkpt><trkpt lat="41.54011495559483" lon="19.906281135778613"><ele>942.0</ele><time>2026-05-05T09:59:35.999Z</time></trkpt><trkpt lat="41.540200805231144" lon="19.90635002129902"><ele>942.0</ele><time>2026-05-05T09:59:36.999Z</time></trkpt><trkpt lat="41.540280384332334" lon="19.90643769021276"><ele>942.0</ele><time>2026-05-05T09:59:37.999Z</time></trkpt><trkpt lat="41.540370662190256" lon="19.906507449496985"><ele>942.0</ele><time>2026-05-05T09:59:38.999Z</time></trkpt><trkpt lat="41.54046764211327" lon="19.906571918261314"><ele>942.0</ele><time>2026-05-05T09:59:39.999Z</time></trkpt><trkpt lat="41.54057966877625" lon="19.906640320863456"><ele>942.0</ele><time>2026-05-05T09:59:40.999Z</time></trkpt><trkpt lat="41.54070259045215" lon="19.906736317018233"><ele>938.75</ele><time>2026-05-05T09:59:42Z</time></trkpt><trkpt lat="41.54075818302475" lon="19.906858445721408"><ele>935.5</ele><time>2026-05-05T09:59:43Z</time></trkpt><trkpt lat="41.5407855997945" lon="19.906978294287512"><ele>932.25</ele><time>2026-05-05T09:59:44Z</time></trkpt><trkpt lat="41.54088072036812" lon="19.90707961023951"><ele>929.0</ele><time>2026-05-05T09:59:46Z</time></trkpt><trkpt lat="41.541010719685474" lon="19.907044168935737"><ele>929.0</ele><time>2026-05-05T09:59:48Z</time></trkpt><trkpt lat="41.54109134716641" lon="19.906965731803716"><ele>929.0</ele><time>2026-05-05T09:59:49Z</time></trkpt><trkpt lat="41.541188492232955" lon="19.906869308565856"><ele>929.0</ele><time>2026-05-05T09:59:50Z</time></trkpt><trkpt lat="41.54129728281144" lon="19.906785424044877"><ele>929.0</ele><time>2026-05-05T09:59:51Z</time></trkpt><trkpt lat="41.54138679019803" lon="19.906684246705144"><ele>929.5</ele><time>2026-05-05T09:59:52Z</time></trkpt><trkpt lat="41.5414442287621" lon="19.906576920280056"><ele>930.0</ele><time>2026-05-05T09:59:53Z</time></trkpt><trkpt lat="41.54148499432187" lon="19.906436769529844"><ele>930.5</ele><time>2026-05-05T09:59:54Z</time></trkpt><trkpt lat="41.541502682167256" lon="19.906285720668595"><ele>931.0</ele><time>2026-05-05T09:59:55Z</time></trkpt><trkpt lat="41.541518682906236" lon="19.906120328890147"><ele>931.0</ele><time>2026-05-05T09:59:56Z</time></trkpt><trkpt lat="41.54153731525064" lon="19.9059460342293"><ele>930.9999999999999</ele><time>2026-05-05T09:59:57Z</time></trkpt><trkpt lat="41.54153193393757" lon="19.905825275170653"><ele>930.9999999999999</ele><time>2026-05-05T09:59:58Z</time></trkpt><trkpt lat="41.541504397886264" lon="19.905729757372107"><ele>931.0</ele><time>2026-05-05T09:59:59Z</time></trkpt><trkpt lat="41.541445557346265" lon="19.90563532888615"><ele>931.0</ele><time>2026-05-05T10:00:00Z</time></trkpt><trkpt lat="41.54139612509146" lon="19.905526489423277"><ele>933.5999999999999</ele><time>2026-05-05T10:00:01Z</time></trkpt><trkpt lat="41.54139064387183" lon="19.905400724899284"><ele>936.1999999999999</ele><time>2026-05-05T10:00:02Z</time></trkpt><trkpt lat="41.54141798181548" lon="19.90528126846835"><ele>938.8000000000001</ele><time>2026-05-05T10:00:03Z</time></trkpt><trkpt lat="41.54145477826039" lon="19.905142055856373"><ele>941.4000000000001</ele><time>2026-05-05T10:00:04Z</time></trkpt><trkpt lat="41.541462180443105" lon="19.905005345712752"><ele>944.0</ele><time>2026-05-05T10:00:05Z</time></trkpt><trkpt lat="41.5414376182267" lon="19.90484220431036"><ele>944.75</ele><time>2026-05-05T10:00:06Z</time></trkpt><trkpt lat="41.541405251938926" lon="19.90465989107666"><ele>945.5</ele><time>2026-05-05T10:00:07Z</time></trkpt><trkpt lat="41.54139582547706" lon="19.904477649590287"><ele>946.25</ele><time>2026-05-05T10:00:08Z</time></trkpt><trkpt lat="41.541410979101315" lon="19.904290360533363"><ele>947.0</ele><time>2026-05-05T10:00:09Z</time></trkpt><trkpt lat="41.54142655200971" lon="19.904102698008522"><ele>949.0</ele><time>2026-05-05T10:00:10Z</time></trkpt><trkpt lat="41.54142125082707" lon="19.90389561430853"><ele>951.0</ele><time>2026-05-05T10:00:11Z</time></trkpt><trkpt lat="41.541399974471695" lon="19.903676562278303"><ele>953.0</ele><time>2026-05-05T10:00:12Z</time></trkpt><trkpt lat="41.54136400640626" lon="19.903466227966028"><ele>952.75</ele><time>2026-05-05T10:00:13Z</time></trkpt><trkpt lat="41.54132450649721" lon="19.903255081706376"><ele>952.5</ele><time>2026-05-05T10:00:14Z</time></trkpt><trkpt lat="41.541306356480206" lon="19.903063213348844"><ele>952.25</ele><time>2026-05-05T10:00:15Z</time></trkpt><trkpt lat="41.54129012368045" lon="19.90289090470192"><ele>952.0</ele><time>2026-05-05T10:00:16Z</time></trkpt><trkpt lat="41.54125105816512" lon="19.90270899148886"><ele>954.8333333333333</ele><time>2026-05-05T10:00:17Z</time></trkpt><trkpt lat="41.54118559574138" lon="19.902547367434877"><ele>957.6666666666666</ele><time>2026-05-05T10:00:18Z</time></trkpt><trkpt lat="41.5411418202348" lon="19.902436202975984"><ele>960.5</ele><time>2026-05-05T10:00:19Z</time></trkpt><trkpt lat="41.541139016618686" lon="19.90235098282108"><ele>963.3333333333333</ele><time>2026-05-05T10:00:20Z</time></trkpt><trkpt lat="41.54115932978279" lon="19.902265106122822"><ele>966.1666666666666</ele><time>2026-05-05T10:00:21Z</time></trkpt><trkpt lat="41.54120791240724" lon="19.902199803026615"><ele>969.0</ele><time>2026-05-05T10:00:22Z</time></trkpt><trkpt lat="41.541284754964465" lon="19.902149587203297"><ele>969.0</ele><time>2026-05-05T10:00:23Z</time></trkpt><trkpt lat="41.541362532939125" lon="19.902139075936606"><ele>969.0000000000001</ele><time>2026-05-05T10:00:24Z</time></trkpt><trkpt lat="41.541451304054675" lon="19.90216668342035"><ele>969.0000000000001</ele><time>2026-05-05T10:00:25Z</time></trkpt><trkpt lat="41.54156100967132" lon="19.902180249831023"><ele>969.0</ele><time>2026-05-05T10:00:26Z</time></trkpt><trkpt lat="41.541672899571566" lon="19.902198701291375"><ele>969.0</ele><time>2026-05-05T10:00:27Z</time></trkpt><trkpt lat="41.541803545949016" lon="19.90221799715474"><ele>969.0</ele><time>2026-05-05T10:00:28Z</time></trkpt><trkpt lat="41.54193979844742" lon="19.902260274692093"><ele>969.0000000000001</ele><time>2026-05-05T10:00:29Z</time></trkpt><trkpt lat="41.54203669796722" lon="19.902346337471638"><ele>969.0000000000001</ele><time>2026-05-05T10:00:30Z</time></trkpt><trkpt lat="41.54213621108149" lon="19.902418311609107"><ele>969.0</ele><time>2026-05-05T10:00:31Z</time></trkpt><trkpt lat="41.54221517901487" lon="19.902422582657486"><ele>969.0</ele><time>2026-05-05T10:00:33Z</time></trkpt><trkpt lat="41.54226886976548" lon="19.90225795706457"><ele>970.6</ele><time>2026-05-05T10:00:35Z</time></trkpt><trkpt lat="41.542309069302476" lon="19.90216981961161"><ele>972.2</ele><time>2026-05-05T10:00:36Z</time></trkpt><trkpt lat="41.54236874106751" lon="19.902058139219534"><ele>973.8000000000001</ele><time>2026-05-05T10:00:37Z</time></trkpt><trkpt lat="41.542439681096454" lon="19.9019269911245"><ele>975.4000000000001</ele><time>2026-05-05T10:00:38Z</time></trkpt><trkpt lat="41.542520888154336" lon="19.901781783350796"><ele>977.0</ele><time>2026-05-05T10:00:39Z</time></trkpt><trkpt lat="41.54257813024136" lon="19.90162644365548"><ele>977.0000000000001</ele><time>2026-05-05T10:00:40Z</time></trkpt><trkpt lat="41.542602433272826" lon="19.90151704746828"><ele>977.0</ele><time>2026-05-05T10:00:41Z</time></trkpt><trkpt lat="41.54263927490722" lon="19.90143255559465"><ele>977.0</ele><time>2026-05-05T10:00:42Z</time></trkpt><trkpt lat="41.54270997700913" lon="19.901332623706"><ele>977.0</ele><time>2026-05-05T10:00:43Z</time></trkpt><trkpt lat="41.54279981166725" lon="19.90128595834455"><ele>977.0000000000001</ele><time>2026-05-05T10:00:44Z</time></trkpt><trkpt lat="41.542870436974646" lon="19.901256259635918"><ele>977.0</ele><time>2026-05-05T10:00:45Z</time></trkpt><trkpt lat="41.5429358307553" lon="19.901228024427866"><ele>977.2</ele><time>2026-05-05T10:00:46Z</time></trkpt><trkpt lat="41.54304310679318" lon="19.90124003173608"><ele>977.4000000000001</ele><time>2026-05-05T10:00:48Z</time></trkpt><trkpt lat="41.543102826554254" lon="19.901284765157268"><ele>977.5999999999999</ele><time>2026-05-05T10:00:49Z</time></trkpt><trkpt lat="41.543161725617416" lon="19.90136692413217"><ele>977.8</ele><time>2026-05-05T10:00:50Z</time></trkpt><trkpt lat="41.543215705751805" lon="19.90148156257894"><ele>978.0</ele><time>2026-05-05T10:00:51Z</time></trkpt><trkpt lat="41.54326125947658" lon="19.901619321458526"><ele>972.75</ele><time>2026-05-05T10:00:52Z</time></trkpt><trkpt lat="41.54327244567393" lon="19.90179181544048"><ele>967.5</ele><time>2026-05-05T10:00:53Z</time></trkpt><trkpt lat="41.54330908488823" lon="19.901946485108915"><ele>962.25</ele><time>2026-05-05T10:00:54Z</time></trkpt><trkpt lat="41.54333929621023" lon="19.90210368928992"><ele>957.0</ele><time>2026-05-05T10:00:55Z</time></trkpt><trkpt lat="41.543396204611206" lon="19.902258888587514"><ele>957.0</ele><time>2026-05-05T10:00:56Z</time></trkpt><trkpt lat="41.543459927638274" lon="19.90241690082506"><ele>957.0</ele><time>2026-05-05T10:00:57Z</time></trkpt><trkpt lat="41.54350377814847" lon="19.90256647455825"><ele>957.0</ele><time>2026-05-05T10:00:58Z</time></trkpt><trkpt lat="41.54353814638208" lon="19.902689051752578"><ele>957.0</ele><time>2026-05-05T10:00:59Z</time></trkpt><trkpt lat="41.54357955404953" lon="19.90280513509894"><ele>957.0</ele><time>2026-05-05T10:01:00Z</time></trkpt><trkpt lat="41.54360704630116" lon="19.90293004312257"><ele>954.3333333333334</ele><time>2026-05-05T10:01:01Z</time></trkpt><trkpt lat="41.543611530228155" lon="19.903034094173723"><ele>951.6666666666667</ele><time>2026-05-05T10:01:02Z</time></trkpt><trkpt lat="41.54361883380206" lon="19.903152817534107"><ele>949.0</ele><time>2026-05-05T10:01:03Z</time></trkpt><trkpt lat="41.54363383088695" lon="19.903308153379868"><ele>946.3333333333334</ele><time>2026-05-05T10:01:04Z</time></trkpt><trkpt lat="41.54364246362177" lon="19.90341944326444"><ele>943.6666666666667</ele><time>2026-05-05T10:01:05Z</time></trkpt><trkpt lat="41.54365112356283" lon="19.903511677846566"><ele>941.0</ele><time>2026-05-05T10:01:06Z</time></trkpt><trkpt lat="41.5436576525646" lon="19.903608142296136"><ele>939.25</ele><time>2026-05-05T10:01:07Z</time></trkpt><trkpt lat="41.54370967735228" lon="19.903791155972005"><ele>937.5</ele><time>2026-05-05T10:01:08Z</time></trkpt><trkpt lat="41.543764402840544" lon="19.903940193628124"><ele>935.75</ele><time>2026-05-05T10:01:09Z</time></trkpt><trkpt lat="41.54383115711373" lon="19.90409903099716"><ele>934.0</ele><time>2026-05-05T10:01:10Z</time></trkpt><trkpt lat="41.54390157539866" lon="19.90426262202448"><ele>934.0</ele><time>2026-05-05T10:01:11Z</time></trkpt><trkpt lat="41.54396838764994" lon="19.904389563756162"><ele>934.0000000000001</ele><time>2026-05-05T10:01:12Z</time></trkpt><trkpt lat="41.54403781606814" lon="19.904447625778495"><ele>934.0000000000001</ele><time>2026-05-05T10:01:13Z</time></trkpt><trkpt lat="41.544118555731735" lon="19.90448978261446"><ele>934.0</ele><time>2026-05-05T10:01:14Z</time></trkpt><trkpt lat="41.54422103106323" lon="19.904545484025142"><ele>934.0</ele><time>2026-05-05T10:01:15Z</time></trkpt><trkpt lat="41.54432944201173" lon="19.90458734173898"><ele>934.0</ele><time>2026-05-05T10:01:16Z</time></trkpt><trkpt lat="41.544439532943564" lon="19.90464572472258"><ele>934.0000000000001</ele><time>2026-05-05T10:01:17Z</time></trkpt><trkpt lat="41.54452100214761" lon="19.904719299252477"><ele>934.0000000000001</ele><time>2026-05-05T10:01:18Z</time></trkpt><trkpt lat="41.54459195659791" lon="19.90479672443932"><ele>934.0</ele><time>2026-05-05T10:01:19Z</time></trkpt><trkpt lat="41.54463903451533" lon="19.904890437808326"><ele>934.0</ele><time>2026-05-05T10:01:20Z</time></trkpt><trkpt lat="41.54465818250409" lon="19.905016897346123"><ele>941.75</ele><time>2026-05-05T10:01:21Z</time></trkpt><trkpt lat="41.544659747225225" lon="19.90516177190739"><ele>949.5</ele><time>2026-05-05T10:01:22Z</time></trkpt><trkpt lat="41.54465548133454" lon="19.90531337268707"><ele>957.25</ele><time>2026-05-05T10:01:23Z</time></trkpt><trkpt lat="41.544631957302556" lon="19.905481406772786"><ele>965.0</ele><time>2026-05-05T10:01:24Z</time></trkpt><trkpt lat="41.5446211958233" lon="19.90562325763891"><ele>965.0</ele><time>2026-05-05T10:01:25Z</time></trkpt><trkpt lat="41.54463292688611" lon="19.90573745479035"><ele>965.0</ele><time>2026-05-05T10:01:26Z</time></trkpt><trkpt lat="41.544670241133076" lon="19.90583084022259"><ele>965.0</ele><time>2026-05-05T10:01:27Z</time></trkpt><trkpt lat="41.54473962297881" lon="19.905935693628273"><ele>965.0</ele><time>2026-05-05T10:01:28Z</time></trkpt><trkpt lat="41.54479934887379" lon="19.90606355012459"><ele>965.0</ele><time>2026-05-05T10:01:29Z</time></trkpt><trkpt lat="41.54483751135901" lon="19.906204571462702"><ele>962.0</ele><time>2026-05-05T10:01:30Z</time></trkpt><trkpt lat="41.544848945128194" lon="19.90633576426177"><ele>959.0</ele><time>2026-05-05T10:01:31Z</time></trkpt><trkpt lat="41.54485567031717" lon="19.90648578670896"><ele>956.0</ele><time>2026-05-05T10:01:32Z</time></trkpt><trkpt lat="41.54485481104643" lon="19.90663279984825"><ele>953.0</ele><time>2026-05-05T10:01:33Z</time></trkpt><trkpt lat="41.54484423500174" lon="19.906817083047095"><ele>951.75</ele><time>2026-05-05T10:01:34Z</time></trkpt><trkpt lat="41.544834614010874" lon="19.90699994262817"><ele>950.5</ele><time>2026-05-05T10:01:35Z</time></trkpt><trkpt lat="41.54483762417797" lon="19.907179224789125"><ele>949.25</ele><time>2026-05-05T10:01:36Z</time></trkpt><trkpt lat="41.54482919148404" lon="19.907347103478397"><ele>948.0</ele><time>2026-05-05T10:01:37Z</time></trkpt><trkpt lat="41.544811655667154" lon="19.90751771927473"><ele>947.0</ele><time>2026-05-05T10:01:38Z</time></trkpt><trkpt lat="41.54479592091954" lon="19.907682983513677"><ele>946.0</ele><time>2026-05-05T10:01:39Z</time></trkpt><trkpt lat="41.54479345691736" lon="19.907859154619572"><ele>945.0</ele><time>2026-05-05T10:01:40Z</time></trkpt><trkpt lat="41.54479849612007" lon="19.908049375148167"><ele>944.0</ele><time>2026-05-05T10:01:40.999Z</time></trkpt><trkpt lat="41.54479663541821" lon="19.90823629326087"><ele>939.25</ele><time>2026-05-05T10:01:41.999Z</time></trkpt><trkpt lat="41.54478882104244" lon="19.908416825350212"><ele>934.5</ele><time>2026-05-05T10:01:42.999Z</time></trkpt><trkpt lat="41.5447887728997" lon="19.9085985662223"><ele>929.75</ele><time>2026-05-05T10:01:43.999Z</time></trkpt><trkpt lat="41.544776854510744" lon="19.908766078531766"><ele>925.0</ele><time>2026-05-05T10:01:44.999Z</time></trkpt><trkpt lat="41.54475622537794" lon="19.90888678461074"><ele>925.0</ele><time>2026-05-05T10:01:45.999Z</time></trkpt><trkpt lat="41.54475734912908" lon="19.9089811850538"><ele>925.0</ele><time>2026-05-05T10:01:46.999Z</time></trkpt><trkpt lat="41.54483910280067" lon="19.90908417922698"><ele>925.0</ele><time>2026-05-05T10:01:49.001Z</time></trkpt><trkpt lat="41.544922994174634" lon="19.909143192701986"><ele>925.0</ele><time>2026-05-05T10:01:50Z</time></trkpt><trkpt lat="41.545016349297796" lon="19.909188798512233"><ele>925.0</ele><time>2026-05-05T10:01:51Z</time></trkpt><trkpt lat="41.54514063202109" lon="19.909246659798768"><ele>928.5</ele><time>2026-05-05T10:01:52.001Z</time></trkpt><trkpt lat="41.545268997876" lon="19.909317791434564"><ele>932.0</ele><time>2026-05-05T10:01:53Z</time></trkpt><trkpt lat="41.5453856936129" lon="19.909401419740067"><ele>935.5</ele><time>2026-05-05T10:01:54.001Z</time></trkpt><trkpt lat="41.54546253729472" lon="19.90948384347345"><ele>939.0</ele><time>2026-05-05T10:01:55.001Z</time></trkpt><trkpt lat="41.54550539511016" lon="19.90958000015624"><ele>939.0</ele><time>2026-05-05T10:01:56Z</time></trkpt><trkpt lat="41.54553321520758" lon="19.909688531107665"><ele>939.0000000000001</ele><time>2026-05-05T10:01:57.001Z</time></trkpt><trkpt lat="41.54555609366609" lon="19.909818322293866"><ele>939.0000000000001</ele><time>2026-05-05T10:01:58.001Z</time></trkpt><trkpt lat="41.54559457710837" lon="19.90995644866059"><ele>939.0</ele><time>2026-05-05T10:01:59Z</time></trkpt><trkpt lat="41.54564103290278" lon="19.910107890985362"><ele>939.0</ele><time>2026-05-05T10:02:00Z</time></trkpt><trkpt lat="41.545682775265355" lon="19.910274803921826"><ele>933.8000000000001</ele><time>2026-05-05T10:02:01.001Z</time></trkpt><trkpt lat="41.54574238242098" lon="19.910440927075413"><ele>928.6000000000001</ele><time>2026-05-05T10:02:02Z</time></trkpt><trkpt lat="41.54579942575351" lon="19.910569566153757"><ele>923.4</ele><time>2026-05-05T10:02:03Z</time></trkpt><trkpt lat="41.54585407620106" lon="19.910641959734477"><ele>918.2</ele><time>2026-05-05T10:02:04Z</time></trkpt><trkpt lat="41.545921750319444" lon="19.910709722114216"><ele>913.0</ele><time>2026-05-05T10:02:05Z</time></trkpt><trkpt lat="41.54598216809573" lon="19.910743436826486"><ele>913.0</ele><time>2026-05-05T10:02:06Z</time></trkpt><trkpt lat="41.54607052778498" lon="19.910765646592715"><ele>913.0</ele><time>2026-05-05T10:02:07Z</time></trkpt><trkpt lat="41.5461747954092" lon="19.910763347834123"><ele>913.0</ele><time>2026-05-05T10:02:08Z</time></trkpt><trkpt lat="41.54629126606871" lon="19.910736289389334"><ele>913.0</ele><time>2026-05-05T10:02:09Z</time></trkpt><trkpt lat="41.54641517167663" lon="19.910715546657368"><ele>913.0</ele><time>2026-05-05T10:02:10Z</time></trkpt><trkpt lat="41.54653461379508" lon="19.910731017892022"><ele>914.4999999999999</ele><time>2026-05-05T10:02:11Z</time></trkpt><trkpt lat="41.546656032149" lon="19.91076345075527"><ele>916.0</ele><time>2026-05-05T10:02:12Z</time></trkpt><trkpt lat="41.54675750569415" lon="19.91079610734835"><ele>917.5</ele><time>2026-05-05T10:02:13Z</time></trkpt><trkpt lat="41.546830546248174" lon="19.910802146797284"><ele>919.0</ele><time>2026-05-05T10:02:14Z</time></trkpt><trkpt lat="41.54688779358417" lon="19.91076395681496"><ele>920.4999999999999</ele><time>2026-05-05T10:02:15Z</time></trkpt><trkpt lat="41.54693556258706" lon="19.910687965740657"><ele>922.0</ele><time>2026-05-05T10:02:16Z</time></trkpt><trkpt lat="41.54700119735565" lon="19.910588432368925"><ele>916.2</ele><time>2026-05-05T10:02:17Z</time></trkpt><trkpt lat="41.54708139965891" lon="19.910486087653343"><ele>910.4000000000001</ele><time>2026-05-05T10:02:18Z</time></trkpt><trkpt lat="41.54717809858516" lon="19.910417100815742"><ele>904.5999999999999</ele><time>2026-05-05T10:02:19Z</time></trkpt><trkpt lat="41.54728038038519" lon="19.91035121443023"><ele>898.8</ele><time>2026-05-05T10:02:20Z</time></trkpt><trkpt lat="41.54736396705405" lon="19.910287430708603"><ele>893.0</ele><time>2026-05-05T10:02:21Z</time></trkpt><trkpt lat="41.547438986107025" lon="19.91020654280785"><ele>893.0</ele><time>2026-05-05T10:02:22Z</time></trkpt><trkpt lat="41.54751410956376" lon="19.9101097555068"><ele>893.0</ele><time>2026-05-05T10:02:23Z</time></trkpt><trkpt lat="41.54760212160938" lon="19.910008637547612"><ele>893.0</ele><time>2026-05-05T10:02:24Z</time></trkpt><trkpt lat="41.5476894700121" lon="19.909891149366373"><ele>893.0</ele><time>2026-05-05T10:02:25Z</time></trkpt><trkpt lat="41.54778192244573" lon="19.909772289794674"><ele>898.6666666666667</ele><time>2026-05-05T10:02:26Z</time></trkpt><trkpt lat="41.547862285798715" lon="19.909699918578582"><ele>904.3333333333334</ele><time>2026-05-05T10:02:27Z</time></trkpt><trkpt lat="41.54792900871409" lon="19.909669263925593"><ele>910.0</ele><time>2026-05-05T10:02:28Z</time></trkpt><trkpt lat="41.548006715225036" lon="19.909675430463118"><ele>915.6666666666667</ele><time>2026-05-05T10:02:29Z</time></trkpt><trkpt lat="41.54807448662263" lon="19.909733883650123"><ele>921.3333333333334</ele><time>2026-05-05T10:02:30Z</time></trkpt><trkpt lat="41.54813370723045" lon="19.909831209601037"><ele>927.0</ele><time>2026-05-05T10:02:31Z</time></trkpt><trkpt lat="41.548185367518265" lon="19.909964383389617"><ele>919.5</ele><time>2026-05-05T10:02:32Z</time></trkpt><trkpt lat="41.54824508375894" lon="19.91011442885755"><ele>912.0</ele><time>2026-05-05T10:02:33Z</time></trkpt><trkpt lat="41.548314431962886" lon="19.910265502198406"><ele>904.5</ele><time>2026-05-05T10:02:34Z</time></trkpt><trkpt lat="41.548403647756295" lon="19.91041770592422"><ele>897.0</ele><time>2026-05-05T10:02:35Z</time></trkpt><trkpt lat="41.5485107396771" lon="19.910579558808664"><ele>897.0</ele><time>2026-05-05T10:02:36Z</time></trkpt><trkpt lat="41.548633705066415" lon="19.910739943750507"><ele>897.0</ele><time>2026-05-05T10:02:37Z</time></trkpt><trkpt lat="41.548755357495985" lon="19.910894993995743"><ele>897.0</ele><time>2026-05-05T10:02:38Z</time></trkpt><trkpt lat="41.54886197856121" lon="19.911029028215864"><ele>897.2</ele><time>2026-05-05T10:02:39Z</time></trkpt><trkpt lat="41.5489375391284" lon="19.911131558470245"><ele>897.4000000000001</ele><time>2026-05-05T10:02:40Z</time></trkpt><trkpt lat="41.54899463369448" lon="19.9111973055256"><ele>897.5999999999999</ele><time>2026-05-05T10:02:41Z</time></trkpt><trkpt lat="41.54905769130248" lon="19.91124596537808"><ele>897.8</ele><time>2026-05-05T10:02:42Z</time></trkpt><trkpt lat="41.54914804533628" lon="19.911268592941322"><ele>898.0</ele><time>2026-05-05T10:02:42.999Z</time></trkpt><trkpt lat="41.549259209816235" lon="19.911247828081322"><ele>898.0</ele><time>2026-05-05T10:02:43.999Z</time></trkpt><trkpt lat="41.549395595061654" lon="19.911219004650743"><ele>898.0</ele><time>2026-05-05T10:02:44.999Z</time></trkpt><trkpt lat="41.54953596452872" lon="19.91121868416446"><ele>898.0</ele><time>2026-05-05T10:02:45.999Z</time></trkpt><trkpt lat="41.54967183076879" lon="19.911269380576645"><ele>898.0</ele><time>2026-05-05T10:02:46.999Z</time></trkpt><trkpt lat="41.549772871198606" lon="19.911332647723512"><ele>897.8</ele><time>2026-05-05T10:02:47.999Z</time></trkpt><trkpt lat="41.54984318365424" lon="19.911362467044075"><ele>897.5999999999999</ele><time>2026-05-05T10:02:48.999Z</time></trkpt><trkpt lat="41.54991235508893" lon="19.91133175056684"><ele>897.4000000000001</ele><time>2026-05-05T10:02:49.999Z</time></trkpt><trkpt lat="41.54999220420827" lon="19.91125679253787"><ele>897.2</ele><time>2026-05-05T10:02:50.999Z</time></trkpt><trkpt lat="41.55007258521909" lon="19.911140989484803"><ele>897.0</ele><time>2026-05-05T10:02:51.999Z</time></trkpt><trkpt lat="41.5501677293819" lon="19.911018372477166"><ele>897.0</ele><time>2026-05-05T10:02:52.999Z</time></trkpt><trkpt lat="41.550282871642416" lon="19.91090894310761"><ele>897.0</ele><time>2026-05-05T10:02:53.999Z</time></trkpt><trkpt lat="41.55039862032011" lon="19.910831598834733"><ele>897.0</ele><time>2026-05-05T10:02:54.999Z</time></trkpt><trkpt lat="41.550494822571046" lon="19.910750201569282"><ele>897.0</ele><time>2026-05-05T10:02:55.999Z</time></trkpt><trkpt lat="41.55056235963675" lon="19.91065185119156"><ele>897.4000000000001</ele><time>2026-05-05T10:02:56.999Z</time></trkpt><trkpt lat="41.55060583153769" lon="19.910520401133294"><ele>897.8000000000001</ele><time>2026-05-05T10:02:57.999Z</time></trkpt><trkpt lat="41.550644117892105" lon="19.91037369123284"><ele>898.2</ele><time>2026-05-05T10:02:58.999Z</time></trkpt><trkpt lat="41.550709246531866" lon="19.910229180663464"><ele>898.6</ele><time>2026-05-05T10:02:59.999Z</time></trkpt><trkpt lat="41.550773619186344" lon="19.910136373527735"><ele>899.0</ele><time>2026-05-05T10:03:00.999Z</time></trkpt><trkpt lat="41.5508430074466" lon="19.910092951094764"><ele>899.0</ele><time>2026-05-05T10:03:01.999Z</time></trkpt><trkpt lat="41.55092789919259" lon="19.91008551692026"><ele>899.0000000000001</ele><time>2026-05-05T10:03:02.999Z</time></trkpt><trkpt lat="41.55101671872872" lon="19.91011881922057"><ele>899.0000000000001</ele><time>2026-05-05T10:03:03.999Z</time></trkpt><trkpt lat="41.551129999506266" lon="19.91016751465466"><ele>899.0</ele><time>2026-05-05T10:03:04.999Z</time></trkpt><trkpt lat="41.5512421764311" lon="19.910239282626204"><ele>899.0</ele><time>2026-05-05T10:03:05.999Z</time></trkpt><trkpt lat="41.55134819885165" lon="19.91031683767235"><ele>902.5</ele><time>2026-05-05T10:03:06.999Z</time></trkpt><trkpt lat="41.55143920587635" lon="19.91041440491342"><ele>906.0</ele><time>2026-05-05T10:03:07.999Z</time></trkpt><trkpt lat="41.55152610636129" lon="19.910523012285445"><ele>909.5</ele><time>2026-05-05T10:03:08.999Z</time></trkpt><trkpt lat="41.55161410870839" lon="19.910638803559713"><ele>913.0</ele><time>2026-05-05T10:03:09.999Z</time></trkpt><trkpt lat="41.551719585003866" lon="19.91074540288916"><ele>913.0</ele><time>2026-05-05T10:03:10.999Z</time></trkpt><trkpt lat="41.551830048682774" lon="19.910845158677372"><ele>913.0</ele><time>2026-05-05T10:03:11.999Z</time></trkpt><trkpt lat="41.551926383445505" lon="19.91096948093126"><ele>913.0</ele><time>2026-05-05T10:03:12.999Z</time></trkpt><trkpt lat="41.552021508600035" lon="19.911122856725253"><ele>913.0</ele><time>2026-05-05T10:03:13.999Z</time></trkpt><trkpt lat="41.55208487860258" lon="19.911271562871246"><ele>915.0</ele><time>2026-05-05T10:03:14.999Z</time></trkpt><trkpt lat="41.55214910903048" lon="19.91141961599962"><ele>917.0</ele><time>2026-05-05T10:03:15.999Z</time></trkpt><trkpt lat="41.55223844229354" lon="19.91156741682555"><ele>919.0</ele><time>2026-05-05T10:03:16.999Z</time></trkpt><trkpt lat="41.55234953922221" lon="19.911704185357113"><ele>921.0</ele><time>2026-05-05T10:03:17.999Z</time></trkpt><trkpt lat="41.55246550065968" lon="19.91182784912547"><ele>920.5</ele><time>2026-05-05T10:03:18.999Z</time></trkpt><trkpt lat="41.552585821299864" lon="19.911957576711362"><ele>920.0</ele><time>2026-05-05T10:03:19.999Z</time></trkpt><trkpt lat="41.552694335374746" lon="19.912060886348442"><ele>919.5</ele><time>2026-05-05T10:03:20.999Z</time></trkpt><trkpt lat="41.55280486689528" lon="19.91214118683956"><ele>919.0</ele><time>2026-05-05T10:03:21.999Z</time></trkpt><trkpt lat="41.55290945376396" lon="19.91220132246473"><ele>919.0</ele><time>2026-05-05T10:03:22.999Z</time></trkpt><trkpt lat="41.5530125651413" lon="19.9123141997692"><ele>919.0</ele><time>2026-05-05T10:03:23.999Z</time></trkpt><trkpt lat="41.55311204264003" lon="19.91245739361477"><ele>919.0</ele><time>2026-05-05T10:03:24.999Z</time></trkpt><trkpt lat="41.55321528605772" lon="19.912598995613283"><ele>919.0</ele><time>2026-05-05T10:03:25.999Z</time></trkpt><trkpt lat="41.553317326870065" lon="19.912717459506037"><ele>914.0</ele><time>2026-05-05T10:03:26.999Z</time></trkpt><trkpt lat="41.5534260322277" lon="19.91282736030973"><ele>909.0</ele><time>2026-05-05T10:03:27.999Z</time></trkpt><trkpt lat="41.55354348578667" lon="19.91291557322427"><ele>904.0</ele><time>2026-05-05T10:03:28.999Z</time></trkpt><trkpt lat="41.55363836587732" lon="19.91297701646926"><ele>899.0</ele><time>2026-05-05T10:03:29.999Z</time></trkpt><trkpt lat="41.55372194635189" lon="19.913007739044335"><ele>899.0</ele><time>2026-05-05T10:03:30.999Z</time></trkpt><trkpt lat="41.55381533124311" lon="19.91301187143798"><ele>899.0000000000001</ele><time>2026-05-05T10:03:31.999Z</time></trkpt><trkpt lat="41.55390433174333" lon="19.913008478786697"><ele>899.0000000000001</ele><time>2026-05-05T10:03:32.999Z</time></trkpt><trkpt lat="41.5540174629158" lon="19.913010009915435"><ele>899.0</ele><time>2026-05-05T10:03:33.999Z</time></trkpt><trkpt lat="41.55414548283638" lon="19.91302595059398"><ele>899.0</ele><time>2026-05-05T10:03:34.999Z</time></trkpt><trkpt lat="41.554280400110656" lon="19.91306822671878"><ele>899.0</ele><time>2026-05-05T10:03:35.999Z</time></trkpt><trkpt lat="41.55441789953369" lon="19.91313906232145"><ele>899.0</ele><time>2026-05-05T10:03:36.999Z</time></trkpt><trkpt lat="41.55454349248791" lon="19.913236713335777"><ele>899.0</ele><time>2026-05-05T10:03:37.999Z</time></trkpt><trkpt lat="41.55465763721739" lon="19.913329486968454"><ele>899.0</ele><time>2026-05-05T10:03:38.999Z</time></trkpt><trkpt lat="41.554758609087855" lon="19.91341683197781"><ele>898.25</ele><time>2026-05-05T10:03:39.999Z</time></trkpt><trkpt lat="41.55485857914732" lon="19.913499812786796"><ele>897.5</ele><time>2026-05-05T10:03:40.999Z</time></trkpt><trkpt lat="41.55495251943126" lon="19.913584841278798"><ele>896.75</ele><time>2026-05-05T10:03:41.999Z</time></trkpt><trkpt lat="41.55502336683395" lon="19.913705788109127"><ele>896.0</ele><time>2026-05-05T10:03:42.999Z</time></trkpt><trkpt lat="41.555088725251906" lon="19.91384904840765"><ele>896.0</ele><time>2026-05-05T10:03:43.999Z</time></trkpt><trkpt lat="41.555168260042926" lon="19.913989963527694"><ele>896.0</ele><time>2026-05-05T10:03:44.999Z</time></trkpt><trkpt lat="41.55520966959984" lon="19.914118270606632"><ele>896.0</ele><time>2026-05-05T10:03:45.999Z</time></trkpt><trkpt lat="41.55521803500985" lon="19.914258794907497"><ele>896.0</ele><time>2026-05-05T10:03:46.999Z</time></trkpt><trkpt lat="41.55520516441243" lon="19.914430093824915"><ele>895.5</ele><time>2026-05-05T10:03:47.999Z</time></trkpt><trkpt lat="41.55516703341133" lon="19.914614071992194"><ele>895.0</ele><time>2026-05-05T10:03:48.999Z</time></trkpt><trkpt lat="41.555137067291916" lon="19.91478297578897"><ele>894.5</ele><time>2026-05-05T10:03:49.999Z</time></trkpt><trkpt lat="41.55511647535288" lon="19.914926840508045"><ele>894.0</ele><time>2026-05-05T10:03:50.999Z</time></trkpt><trkpt lat="41.55511078454132" lon="19.915075145692185"><ele>892.25</ele><time>2026-05-05T10:03:51.999Z</time></trkpt><trkpt lat="41.55512467967022" lon="19.9152353353758"><ele>890.5</ele><time>2026-05-05T10:03:52.999Z</time></trkpt><trkpt lat="41.55515483289655" lon="19.915390943127946"><ele>888.75</ele><time>2026-05-05T10:03:54Z</time></trkpt><trkpt lat="41.55515662841797" lon="19.915544798287165"><ele>887.0</ele><time>2026-05-05T10:03:55Z</time></trkpt><trkpt lat="41.555122803130736" lon="19.915664324809377"><ele>887.0</ele><time>2026-05-05T10:03:56Z</time></trkpt><trkpt lat="41.555108150825056" lon="19.915760339727782"><ele>887.0</ele><time>2026-05-05T10:03:57Z</time></trkpt><trkpt lat="41.55517292169405" lon="19.91590798141908"><ele>887.0</ele><time>2026-05-05T10:03:59Z</time></trkpt><trkpt lat="41.55525634034426" lon="19.915972605112106"><ele>887.0</ele><time>2026-05-05T10:04:00Z</time></trkpt><trkpt lat="41.55535035343427" lon="19.91603395988003"><ele>887.0</ele><time>2026-05-05T10:04:01Z</time></trkpt><trkpt lat="41.55542439082708" lon="19.916122726542774"><ele>889.6</ele><time>2026-05-05T10:04:02Z</time></trkpt><trkpt lat="41.555478981537725" lon="19.9162390552343"><ele>892.2</ele><time>2026-05-05T10:04:03Z</time></trkpt><trkpt lat="41.55552553008733" lon="19.916360456873722"><ele>894.8</ele><time>2026-05-05T10:04:04Z</time></trkpt><trkpt lat="41.55556835600344" lon="19.916450998653385"><ele>897.4</ele><time>2026-05-05T10:04:05Z</time></trkpt><trkpt lat="41.55563943662161" lon="19.916538724216306"><ele>900.0</ele><time>2026-05-05T10:04:06Z</time></trkpt><trkpt lat="41.55574944652631" lon="19.916573630997814"><ele>900.0</ele><time>2026-05-05T10:04:07Z</time></trkpt><trkpt lat="41.55586985783654" lon="19.916625764160155"><ele>900.0</ele><time>2026-05-05T10:04:08Z</time></trkpt><trkpt lat="41.55596983594421" lon="19.916725402986252"><ele>900.0</ele><time>2026-05-05T10:04:09Z</time></trkpt><trkpt lat="41.55605860136252" lon="19.91686957897607"><ele>900.0</ele><time>2026-05-05T10:04:10Z</time></trkpt><trkpt lat="41.55615403262213" lon="19.917015566963087"><ele>901.5</ele><time>2026-05-05T10:04:11Z</time></trkpt><trkpt lat="41.556278116928254" lon="19.917149104524984"><ele>903.0</ele><time>2026-05-05T10:04:12Z</time></trkpt><trkpt lat="41.55639954532369" lon="19.917282059297087"><ele>904.5</ele><time>2026-05-05T10:04:13Z</time></trkpt><trkpt lat="41.556481315716816" lon="19.917413556514013"><ele>906.0</ele><time>2026-05-05T10:04:14Z</time></trkpt><trkpt lat="41.55653654124588" lon="19.91755387644194"><ele>901.5</ele><time>2026-05-05T10:04:15Z</time></trkpt><trkpt lat="41.55659702569227" lon="19.917712436886195"><ele>897.0</ele><time>2026-05-05T10:04:16Z</time></trkpt><trkpt lat="41.556668742715495" lon="19.917882466494504"><ele>892.5</ele><time>2026-05-05T10:04:17Z</time></trkpt><trkpt lat="41.55674215220231" lon="19.918050024755118"><ele>888.0</ele><time>2026-05-05T10:04:18Z</time></trkpt><trkpt lat="41.55676326260279" lon="19.918218851680347"><ele>888.0</ele><time>2026-05-05T10:04:19Z</time></trkpt><trkpt lat="41.55675156370051" lon="19.918382979967944"><ele>888.0</ele><time>2026-05-05T10:04:20Z</time></trkpt><trkpt lat="41.556727567080934" lon="19.91849921986918"><ele>888.0</ele><time>2026-05-05T10:04:21Z</time></trkpt><trkpt lat="41.55673853331503" lon="19.918597002118194"><ele>888.0</ele><time>2026-05-05T10:04:22Z</time></trkpt><trkpt lat="41.556796301172184" lon="19.91868010237176"><ele>888.0</ele><time>2026-05-05T10:04:23Z</time></trkpt><trkpt lat="41.55686738299082" lon="19.918754516766924"><ele>891.75</ele><time>2026-05-05T10:04:24Z</time></trkpt><trkpt lat="41.55697357315923" lon="19.918804317455635"><ele>895.5</ele><time>2026-05-05T10:04:25Z</time></trkpt><trkpt lat="41.557105289418416" lon="19.91883242110384"><ele>899.25</ele><time>2026-05-05T10:04:26Z</time></trkpt><trkpt lat="41.557225873948454" lon="19.918911938243063"><ele>903.0</ele><time>2026-05-05T10:04:27Z</time></trkpt><trkpt lat="41.557321972986124" lon="19.919041742317162"><ele>903.0</ele><time>2026-05-05T10:04:28Z</time></trkpt><trkpt lat="41.55741177946243" lon="19.919206733080024"><ele>903.0</ele><time>2026-05-05T10:04:29Z</time></trkpt><trkpt lat="41.55748530207456" lon="19.9193970751566"><ele>903.0</ele><time>2026-05-05T10:04:30Z</time></trkpt><trkpt lat="41.55754773581092" lon="19.91956582488607"><ele>907.0</ele><time>2026-05-05T10:04:31Z</time></trkpt><trkpt lat="41.55760868929125" lon="19.919689215185794"><ele>911.0</ele><time>2026-05-05T10:04:32Z</time></trkpt><trkpt lat="41.557699495511" lon="19.91978204558464"><ele>915.0</ele><time>2026-05-05T10:04:33Z</time></trkpt><trkpt lat="41.557818482510406" lon="19.9199035041283"><ele>919.0</ele><time>2026-05-05T10:04:34Z</time></trkpt><trkpt lat="41.55790927114502" lon="19.920051944055714"><ele>917.25</ele><time>2026-05-05T10:04:35Z</time></trkpt><trkpt lat="41.55795116878397" lon="19.920211798297053"><ele>915.5</ele><time>2026-05-05T10:04:36Z</time></trkpt><trkpt lat="41.55796541417034" lon="19.920399319295928"><ele>913.75</ele><time>2026-05-05T10:04:37Z</time></trkpt><trkpt lat="41.55798235082767" lon="19.920576809146812"><ele>912.0</ele><time>2026-05-05T10:04:38Z</time></trkpt><trkpt lat="41.55800501594867" lon="19.920727610108187"><ele>912.0</ele><time>2026-05-05T10:04:39Z</time></trkpt><trkpt lat="41.558008256866586" lon="19.9208930868689"><ele>912.0</ele><time>2026-05-05T10:04:40Z</time></trkpt><trkpt lat="41.55798329049829" lon="19.921064539678696"><ele>912.0</ele><time>2026-05-05T10:04:41Z</time></trkpt><trkpt lat="41.55792701273877" lon="19.92122712328205"><ele>912.0</ele><time>2026-05-05T10:04:42Z</time></trkpt><trkpt lat="41.557837133755065" lon="19.92136422491617"><ele>902.75</ele><time>2026-05-05T10:04:42.999Z</time></trkpt><trkpt lat="41.557738778887575" lon="19.92150058589925"><ele>893.5</ele><time>2026-05-05T10:04:43.999Z</time></trkpt><trkpt lat="41.55764072939143" lon="19.921648337465903"><ele>884.25</ele><time>2026-05-05T10:04:44.999Z</time></trkpt><trkpt lat="41.557553068166094" lon="19.921762185402038"><ele>875.0</ele><time>2026-05-05T10:04:45.999Z</time></trkpt><trkpt lat="41.557501397340424" lon="19.92184917878761"><ele>875.0</ele><time>2026-05-05T10:04:46.999Z</time></trkpt><trkpt lat="41.55747639894625" lon="19.921929026012606"><ele>875.0</ele><time>2026-05-05T10:04:47.999Z</time></trkpt><trkpt lat="41.557479164077094" lon="19.922032502997762"><ele>875.0</ele><time>2026-05-05T10:04:48.999Z</time></trkpt><trkpt lat="41.55750904181209" lon="19.92215811826929"><ele>875.0</ele><time>2026-05-05T10:04:49.999Z</time></trkpt><trkpt lat="41.557564363896624" lon="19.92231484256121"><ele>875.0</ele><time>2026-05-05T10:04:50.999Z</time></trkpt><trkpt lat="41.55762265258388" lon="19.922444786427878"><ele>875.0</ele><time>2026-05-05T10:04:51.999Z</time></trkpt><trkpt lat="41.55768531202904" lon="19.922519333650314"><ele>875.0</ele><time>2026-05-05T10:04:52.999Z</time></trkpt><trkpt lat="41.55776482128069" lon="19.922566827773334"><ele>875.0</ele><time>2026-05-05T10:04:53.999Z</time></trkpt><trkpt lat="41.55785953244782" lon="19.922579811394368"><ele>875.0</ele><time>2026-05-05T10:04:54.999Z</time></trkpt><trkpt lat="41.5579577440826" lon="19.922590592283317"><ele>875.0</ele><time>2026-05-05T10:04:55.999Z</time></trkpt><trkpt lat="41.5580521047904" lon="19.922642358531782"><ele>877.75</ele><time>2026-05-05T10:04:56.999Z</time></trkpt><trkpt lat="41.55811208940733" lon="19.922757203753125"><ele>880.5</ele><time>2026-05-05T10:04:57.999Z</time></trkpt><trkpt lat="41.55816313906276" lon="19.92290430209513"><ele>883.25</ele><time>2026-05-05T10:04:58.999Z</time></trkpt><trkpt lat="41.55820620181843" lon="19.923061639926516"><ele>886.0</ele><time>2026-05-05T10:04:59.999Z</time></trkpt><trkpt lat="41.558272493948586" lon="19.923219193310345"><ele>886.0</ele><time>2026-05-05T10:05:00.999Z</time></trkpt><trkpt lat="41.55835950792966" lon="19.923347856893546"><ele>886.0</ele><time>2026-05-05T10:05:01.999Z</time></trkpt><trkpt lat="41.558445121385695" lon="19.923434581584477"><ele>886.0</ele><time>2026-05-05T10:05:02.999Z</time></trkpt><trkpt lat="41.55854875488384" lon="19.92355432968703"><ele>886.0</ele><time>2026-05-05T10:05:03.999Z</time></trkpt><trkpt lat="41.55864301424543" lon="19.923668813606604"><ele>887.5999999999999</ele><time>2026-05-05T10:05:04.999Z</time></trkpt><trkpt lat="41.558692621538455" lon="19.92383352216904"><ele>889.1999999999999</ele><time>2026-05-05T10:05:05.999Z</time></trkpt><trkpt lat="41.558732190882964" lon="19.923946330404792"><ele>890.8000000000001</ele><time>2026-05-05T10:05:06.999Z</time></trkpt><trkpt lat="41.55874279213203" lon="19.924049615399404"><ele>892.4000000000001</ele><time>2026-05-05T10:05:07.999Z</time></trkpt><trkpt lat="41.558716234427905" lon="19.924166151108537"><ele>894.0</ele><time>2026-05-05T10:05:08.999Z</time></trkpt><trkpt lat="41.55866665611016" lon="19.924295615075398"><ele>890.8000000000001</ele><time>2026-05-05T10:05:09.999Z</time></trkpt><trkpt lat="41.558620632465" lon="19.924445562390595"><ele>887.6000000000001</ele><time>2026-05-05T10:05:10.999Z</time></trkpt><trkpt lat="41.558614909271625" lon="19.92454256533676"><ele>884.4</ele><time>2026-05-05T10:05:11.999Z</time></trkpt><trkpt lat="41.55864756606039" lon="19.924640861065463"><ele>881.2</ele><time>2026-05-05T10:05:12.999Z</time></trkpt><trkpt lat="41.55870864263804" lon="19.92475515202385"><ele>878.0</ele><time>2026-05-05T10:05:13.999Z</time></trkpt><trkpt lat="41.55878641418404" lon="19.92485747639961"><ele>878.0</ele><time>2026-05-05T10:05:14.999Z</time></trkpt><trkpt lat="41.5588572741807" lon="19.924913590051023"><ele>878.0</ele><time>2026-05-05T10:05:15.999Z</time></trkpt><trkpt lat="41.55894124527763" lon="19.92492728648146"><ele>878.0</ele><time>2026-05-05T10:05:16.999Z</time></trkpt><trkpt lat="41.559045074910024" lon="19.924893214875322"><ele>878.0</ele><time>2026-05-05T10:05:17.999Z</time></trkpt><trkpt lat="41.55916135494515" lon="19.92486719491449"><ele>878.0</ele><time>2026-05-05T10:05:18.999Z</time></trkpt><trkpt lat="41.559270354440955" lon="19.92490503666826"><ele>878.0</ele><time>2026-05-05T10:05:19.999Z</time></trkpt><trkpt lat="41.55939877607634" lon="19.92498809410259"><ele>878.0</ele><time>2026-05-05T10:05:20.999Z</time></trkpt><trkpt lat="41.559526006876425" lon="19.925102121200133"><ele>878.0</ele><time>2026-05-05T10:05:21.999Z</time></trkpt><trkpt lat="41.559659879866324" lon="19.9252158855425"><ele>875.25</ele><time>2026-05-05T10:05:22.999Z</time></trkpt><trkpt lat="41.559779552778615" lon="19.925332195511462"><ele>872.5</ele><time>2026-05-05T10:05:23.999Z</time></trkpt><trkpt lat="41.55986601944686" lon="19.925451665288417"><ele>869.75</ele><time>2026-05-05T10:05:24.999Z</time></trkpt><trkpt lat="41.55992663617887" lon="19.925600869716245"><ele>867.0</ele><time>2026-05-05T10:05:25.999Z</time></trkpt><trkpt lat="41.55997134812271" lon="19.925780525483454"><ele>864.0</ele><time>2026-05-05T10:05:26.999Z</time></trkpt><trkpt lat="41.560002279315476" lon="19.92594786979908"><ele>861.0</ele><time>2026-05-05T10:05:27.999Z</time></trkpt><trkpt lat="41.56004806949393" lon="19.92608692194054"><ele>858.0</ele><time>2026-05-05T10:05:28.999Z</time></trkpt><trkpt lat="41.56010089507601" lon="19.9262012173474"><ele>855.0</ele><time>2026-05-05T10:05:29.999Z</time></trkpt><trkpt lat="41.560152536718014" lon="19.92630244046445"><ele>852.0</ele><time>2026-05-05T10:05:30.999Z</time></trkpt><trkpt lat="41.56020145031871" lon="19.926398080833035"><ele>852.0</ele><time>2026-05-05T10:05:31.999Z</time></trkpt><trkpt lat="41.56026902328985" lon="19.92647108962938"><ele>852.0</ele><time>2026-05-05T10:05:32.999Z</time></trkpt><trkpt lat="41.560370217617795" lon="19.926547115128773"><ele>852.0</ele><time>2026-05-05T10:05:33.999Z</time></trkpt><trkpt lat="41.56048632601397" lon="19.92662610310671"><ele>852.0</ele><time>2026-05-05T10:05:34.999Z</time></trkpt><trkpt lat="41.56060858032413" lon="19.926695625101033"><ele>853.2</ele><time>2026-05-05T10:05:35.999Z</time></trkpt><trkpt lat="41.56071183787222" lon="19.926759167279116"><ele>854.4000000000001</ele><time>2026-05-05T10:05:36.999Z</time></trkpt><trkpt lat="41.560817838275945" lon="19.926837635874247"><ele>855.5999999999999</ele><time>2026-05-05T10:05:37.999Z</time></trkpt><trkpt lat="41.56091375359425" lon="19.926886933961068"><ele>856.8</ele><time>2026-05-05T10:05:38.999Z</time></trkpt><trkpt lat="41.56100867150054" lon="19.926918080897345"><ele>858.0</ele><time>2026-05-05T10:05:39.999Z</time></trkpt><trkpt lat="41.56110885536406" lon="19.926924494535232"><ele>856.2</ele><time>2026-05-05T10:05:40.999Z</time></trkpt><trkpt lat="41.5612107489101" lon="19.926931862105405"><ele>854.4</ele><time>2026-05-05T10:05:41.999Z</time></trkpt><trkpt lat="41.56128208326886" lon="19.92694941455357"><ele>852.6</ele><time>2026-05-05T10:05:42.999Z</time></trkpt><trkpt lat="41.56135926058748" lon="19.92704146796171"><ele>850.8000000000001</ele><time>2026-05-05T10:05:44.999Z</time></trkpt><trkpt lat="41.56138022226516" lon="19.927143833653226"><ele>849.0</ele><time>2026-05-05T10:05:45.999Z</time></trkpt><trkpt lat="41.56138894847787" lon="19.927275855419012"><ele>849.0</ele><time>2026-05-05T10:05:46.999Z</time></trkpt><trkpt lat="41.56141662030354" lon="19.927398393236626"><ele>849.0</ele><time>2026-05-05T10:05:47.999Z</time></trkpt><trkpt lat="41.56149171297295" lon="19.927532622930542"><ele>849.0</ele><time>2026-05-05T10:05:48.999Z</time></trkpt><trkpt lat="41.56156997989327" lon="19.92766546667959"><ele>849.0</ele><time>2026-05-05T10:05:49.999Z</time></trkpt><trkpt lat="41.56160975486491" lon="19.927823644115787"><ele>850.2</ele><time>2026-05-05T10:05:50.999Z</time></trkpt><trkpt lat="41.561625157998094" lon="19.927976902891817"><ele>851.4000000000001</ele><time>2026-05-05T10:05:51.999Z</time></trkpt><trkpt lat="41.56166324035597" lon="19.92810998402707"><ele>852.6</ele><time>2026-05-05T10:05:52.999Z</time></trkpt><trkpt lat="41.56172573314114" lon="19.92821122965669"><ele>853.8</ele><time>2026-05-05T10:05:53.999Z</time></trkpt><trkpt lat="41.561770642905394" lon="19.92830884063531"><ele>855.0</ele><time>2026-05-05T10:05:54.999Z</time></trkpt><trkpt lat="41.5617825214952" lon="19.928451832207607"><ele>856.5</ele><time>2026-05-05T10:05:55.999Z</time></trkpt><trkpt lat="41.56178206227586" lon="19.92861280035544"><ele>858.0</ele><time>2026-05-05T10:05:56.999Z</time></trkpt><trkpt lat="41.56178516295301" lon="19.928779489182762"><ele>859.5</ele><time>2026-05-05T10:05:57.999Z</time></trkpt><trkpt lat="41.56178443925468" lon="19.928964902800526"><ele>861.0</ele><time>2026-05-05T10:05:58.999Z</time></trkpt><trkpt lat="41.561805853128455" lon="19.92913645969892"><ele>861.8</ele><time>2026-05-05T10:06:00Z</time></trkpt><trkpt lat="41.56185128865601" lon="19.929281036651535"><ele>862.5999999999999</ele><time>2026-05-05T10:06:01Z</time></trkpt><trkpt lat="41.56191632782466" lon="19.929412189666238"><ele>863.4</ele><time>2026-05-05T10:06:02Z</time></trkpt><trkpt lat="41.5619856088756" lon="19.929496860694268"><ele>864.2</ele><time>2026-05-05T10:06:03Z</time></trkpt><trkpt lat="41.5620864993621" lon="19.929554813108805"><ele>865.0</ele><time>2026-05-05T10:06:04Z</time></trkpt><trkpt lat="41.56222694114796" lon="19.929586205889255"><ele>865.0</ele><time>2026-05-05T10:06:05Z</time></trkpt><trkpt lat="41.562374968450165" lon="19.929576689175516"><ele>865.0</ele><time>2026-05-05T10:06:06Z</time></trkpt><trkpt lat="41.56251486867514" lon="19.92959258653645"><ele>865.0</ele><time>2026-05-05T10:06:07Z</time></trkpt><trkpt lat="41.56264480303502" lon="19.929644300528867"><ele>865.0</ele><time>2026-05-05T10:06:08Z</time></trkpt><trkpt lat="41.56279673203841" lon="19.929700893835474"><ele>863.6666666666666</ele><time>2026-05-05T10:06:09Z</time></trkpt><trkpt lat="41.56295563993813" lon="19.929746091716055"><ele>862.3333333333333</ele><time>2026-05-05T10:06:10Z</time></trkpt><trkpt lat="41.56310152906962" lon="19.929793857009336"><ele>861.0</ele><time>2026-05-05T10:06:11Z</time></trkpt><trkpt lat="41.56324092030881" lon="19.929851047136136"><ele>861.0</ele><time>2026-05-05T10:06:12Z</time></trkpt><trkpt lat="41.56337579642477" lon="19.929906726447992"><ele>861.0</ele><time>2026-05-05T10:06:13Z</time></trkpt><trkpt lat="41.563498503949184" lon="19.92995516627167"><ele>861.0</ele><time>2026-05-05T10:06:14Z</time></trkpt><trkpt lat="41.56360593098568" lon="19.929988534900144"><ele>861.0</ele><time>2026-05-05T10:06:15Z</time></trkpt><trkpt lat="41.563694609554524" lon="19.930007582771907"><ele>858.5999999999999</ele><time>2026-05-05T10:06:16Z</time></trkpt><trkpt lat="41.56378636307644" lon="19.930006552725082"><ele>856.1999999999999</ele><time>2026-05-05T10:06:17Z</time></trkpt><trkpt lat="41.563849522279234" lon="19.92997386077189"><ele>853.8</ele><time>2026-05-05T10:06:18Z</time></trkpt><trkpt lat="41.56391618134971" lon="19.929929326336268"><ele>851.4000000000001</ele><time>2026-05-05T10:06:19Z</time></trkpt><trkpt lat="41.56398588470951" lon="19.92980190245469"><ele>849.0</ele><time>2026-05-05T10:06:21Z</time></trkpt><trkpt lat="41.564016775482884" lon="19.929677787969005"><ele>849.0</ele><time>2026-05-05T10:06:22Z</time></trkpt><trkpt lat="41.56403645357974" lon="19.929542587124317"><ele>849.0</ele><time>2026-05-05T10:06:23Z</time></trkpt><trkpt lat="41.56403289118683" lon="19.92943253569108"><ele>849.0</ele><time>2026-05-05T10:06:24Z</time></trkpt><trkpt lat="41.564029876238116" lon="19.92934154904464"><ele>849.0</ele><time>2026-05-05T10:06:25Z</time></trkpt><trkpt lat="41.564049969884586" lon="19.929243183882907"><ele>849.0</ele><time>2026-05-05T10:06:26Z</time></trkpt><trkpt lat="41.56407249507812" lon="19.9291633671816"><ele>849.0</ele><time>2026-05-05T10:06:27Z</time></trkpt><trkpt lat="41.564112239896104" lon="19.929070013226454"><ele>847.8333333333334</ele><time>2026-05-05T10:06:28Z</time></trkpt><trkpt lat="41.56416529154881" lon="19.92898905069066"><ele>846.6666666666667</ele><time>2026-05-05T10:06:29Z</time></trkpt><trkpt lat="41.56424201691623" lon="19.928937094623652"><ele>845.5</ele><time>2026-05-05T10:06:30Z</time></trkpt><trkpt lat="41.56431787434141" lon="19.928886768602098"><ele>844.3333333333334</ele><time>2026-05-05T10:06:31Z</time></trkpt><trkpt lat="41.56437670303849" lon="19.928829099033923"><ele>843.1666666666667</ele><time>2026-05-05T10:06:32Z</time></trkpt><trkpt lat="41.56444079783649" lon="19.928694098412244"><ele>842.0</ele><time>2026-05-05T10:06:34Z</time></trkpt><trkpt lat="41.564424700396174" lon="19.928593430883186"><ele>842.0</ele><time>2026-05-05T10:06:35Z</time></trkpt><trkpt lat="41.56437725141448" lon="19.928480154300182"><ele>842.0</ele><time>2026-05-05T10:06:36Z</time></trkpt><trkpt lat="41.56432895165028" lon="19.92833054269997"><ele>842.0</ele><time>2026-05-05T10:06:37Z</time></trkpt><trkpt lat="41.56427569692813" lon="19.92816447581098"><ele>842.0</ele><time>2026-05-05T10:06:38Z</time></trkpt><trkpt lat="41.56424290458372" lon="19.928042336921305"><ele>840.2</ele><time>2026-05-05T10:06:39Z</time></trkpt><trkpt lat="41.564231905116294" lon="19.927937519468877"><ele>838.4000000000001</ele><time>2026-05-05T10:06:40Z</time></trkpt><trkpt lat="41.564256918996804" lon="19.927850867724956"><ele>836.5999999999999</ele><time>2026-05-05T10:06:41Z</time></trkpt><trkpt lat="41.564371913698196" lon="19.927734405601914"><ele>834.8</ele><time>2026-05-05T10:06:43Z</time></trkpt><trkpt lat="41.56444995653426" lon="19.92773463871318"><ele>833.0</ele><time>2026-05-05T10:06:44Z</time></trkpt><trkpt lat="41.56454848658013" lon="19.92778076571616"><ele>833.0</ele><time>2026-05-05T10:06:45Z</time></trkpt><trkpt lat="41.564663016919546" lon="19.92783227444147"><ele>833.0</ele><time>2026-05-05T10:06:46Z</time></trkpt><trkpt lat="41.56478025611502" lon="19.927865337683443"><ele>833.0</ele><time>2026-05-05T10:06:47Z</time></trkpt><trkpt lat="41.56489331031136" lon="19.92789898908981"><ele>833.0</ele><time>2026-05-05T10:06:48Z</time></trkpt><trkpt lat="41.56500870462794" lon="19.9279349998945"><ele>833.0</ele><time>2026-05-05T10:06:49Z</time></trkpt><trkpt lat="41.56512306335607" lon="19.92797358077822"><ele>833.0</ele><time>2026-05-05T10:06:50Z</time></trkpt><trkpt lat="41.56521972876148" lon="19.928016922079813"><ele>833.0</ele><time>2026-05-05T10:06:51Z</time></trkpt><trkpt lat="41.56532760406259" lon="19.9280908957952"><ele>833.0</ele><time>2026-05-05T10:06:52Z</time></trkpt><trkpt lat="41.56539401354984" lon="19.928166593064265"><ele>833.0</ele><time>2026-05-05T10:06:53Z</time></trkpt><trkpt lat="41.5654625689806" lon="19.92827398182551"><ele>832.0</ele><time>2026-05-05T10:06:54Z</time></trkpt><trkpt lat="41.56552041925034" lon="19.928386663913848"><ele>831.0</ele><time>2026-05-05T10:06:55Z</time></trkpt><trkpt lat="41.565598667267274" lon="19.92848293039311"><ele>830.0</ele><time>2026-05-05T10:06:56Z</time></trkpt><trkpt lat="41.565675497852695" lon="19.92853306143926"><ele>829.0</ele><time>2026-05-05T10:06:57Z</time></trkpt><trkpt lat="41.56575523128615" lon="19.928555576782333"><ele>828.0</ele><time>2026-05-05T10:06:58Z</time></trkpt><trkpt lat="41.56583286327105" lon="19.92852269740382"><ele>828.0</ele><time>2026-05-05T10:06:59Z</time></trkpt><trkpt lat="41.56592698062" lon="19.928490040693646"><ele>828.0</ele><time>2026-05-05T10:07:00Z</time></trkpt><trkpt lat="41.56603498117211" lon="19.928453669326725"><ele>828.0</ele><time>2026-05-05T10:07:01Z</time></trkpt><trkpt lat="41.566137934141466" lon="19.928468475299855"><ele>828.0</ele><time>2026-05-05T10:07:02Z</time></trkpt><trkpt lat="41.566226547659745" lon="19.928517809883267"><ele>828.0</ele><time>2026-05-05T10:07:03Z</time></trkpt><trkpt lat="41.56631720573194" lon="19.92856916018598"><ele>824.2</ele><time>2026-05-05T10:07:04Z</time></trkpt><trkpt lat="41.56637471820615" lon="19.92861260289762"><ele>820.4</ele><time>2026-05-05T10:07:05Z</time></trkpt><trkpt lat="41.566492034991704" lon="19.928729506841538"><ele>816.6</ele><time>2026-05-05T10:07:07Z</time></trkpt><trkpt lat="41.56656547395067" lon="19.92878693846701"><ele>812.8000000000001</ele><time>2026-05-05T10:07:08Z</time></trkpt><trkpt lat="41.56665230560185" lon="19.928858669924157"><ele>809.0</ele><time>2026-05-05T10:07:09Z</time></trkpt><trkpt lat="41.56669865815425" lon="19.928919081407763"><ele>809.0000000000001</ele><time>2026-05-05T10:07:10Z</time></trkpt><trkpt lat="41.56673121196779" lon="19.928993174370664"><ele>809.0</ele><time>2026-05-05T10:07:11Z</time></trkpt><trkpt lat="41.56675081265403" lon="19.929088204377813"><ele>809.0</ele><time>2026-05-05T10:07:12Z</time></trkpt><trkpt lat="41.56676732896292" lon="19.92921979955086"><ele>809.0</ele><time>2026-05-05T10:07:13Z</time></trkpt><trkpt lat="41.56676667552266" lon="19.929361850109874"><ele>809.0000000000001</ele><time>2026-05-05T10:07:14Z</time></trkpt><trkpt lat="41.56675149063443" lon="19.929500488013062"><ele>809.0</ele><time>2026-05-05T10:07:15Z</time></trkpt><trkpt lat="41.566753206146" lon="19.929652818161916"><ele>810.4000000000001</ele><time>2026-05-05T10:07:16Z</time></trkpt><trkpt lat="41.56677023918404" lon="19.929794655731758"><ele>811.8</ele><time>2026-05-05T10:07:17Z</time></trkpt><trkpt lat="41.566797017397754" lon="19.929919259803523"><ele>813.2</ele><time>2026-05-05T10:07:18Z</time></trkpt><trkpt lat="41.566822273749615" lon="19.930020235436682"><ele>814.5999999999999</ele><time>2026-05-05T10:07:19Z</time></trkpt><trkpt lat="41.56687083168597" lon="19.930114864513964"><ele>816.0</ele><time>2026-05-05T10:07:20Z</time></trkpt><trkpt lat="41.56693037648972" lon="19.9301917310494"><ele>807.75</ele><time>2026-05-05T10:07:21Z</time></trkpt><trkpt lat="41.56703033096658" lon="19.930259470539223"><ele>799.5</ele><time>2026-05-05T10:07:22Z</time></trkpt><trkpt lat="41.56713747375213" lon="19.930322990332275"><ele>791.25</ele><time>2026-05-05T10:07:23Z</time></trkpt><trkpt lat="41.56725060159163" lon="19.93038044549451"><ele>783.0</ele><time>2026-05-05T10:07:24Z</time></trkpt><trkpt lat="41.56735338366085" lon="19.93039959626386"><ele>783.0</ele><time>2026-05-05T10:07:25Z</time></trkpt><trkpt lat="41.56744443625652" lon="19.93041442797901"><ele>783.0</ele><time>2026-05-05T10:07:26Z</time></trkpt><trkpt lat="41.56753135895114" lon="19.930440398232584"><ele>783.0</ele><time>2026-05-05T10:07:27Z</time></trkpt><trkpt lat="41.56763402091252" lon="19.930473750039933"><ele>783.0</ele><time>2026-05-05T10:07:28.999Z</time></trkpt><trkpt lat="41.56765541597648" lon="19.930559064050062"><ele>783.0</ele><time>2026-05-05T10:07:30.999Z</time></trkpt><trkpt lat="41.567626664365584" lon="19.930663241526066"><ele>783.0</ele><time>2026-05-05T10:07:32.999Z</time></trkpt><trkpt lat="41.56755462226454" lon="19.930814677523166"><ele>782.0</ele><time>2026-05-05T10:07:34.999Z</time></trkpt><trkpt lat="41.56749245679696" lon="19.93091227305103"><ele>781.0</ele><time>2026-05-05T10:07:35.999Z</time></trkpt><trkpt lat="41.56742513224862" lon="19.93105005677361"><ele>780.0</ele><time>2026-05-05T10:07:36.999Z</time></trkpt><trkpt lat="41.56735757456665" lon="19.931163195481357"><ele>779.0</ele><time>2026-05-05T10:07:37.999Z</time></trkpt><trkpt lat="41.56727450067895" lon="19.931309014417284"><ele>779.0</ele><time>2026-05-05T10:07:38.999Z</time></trkpt><trkpt lat="41.56721160620487" lon="19.931434354035144"><ele>779.0</ele><time>2026-05-05T10:07:39.999Z</time></trkpt><trkpt lat="41.567178696511746" lon="19.93154145179472"><ele>779.0</ele><time>2026-05-05T10:07:40.999Z</time></trkpt><trkpt lat="41.567159595243936" lon="19.931667817032643"><ele>779.0</ele><time>2026-05-05T10:07:41.999Z</time></trkpt><trkpt lat="41.56715944393309" lon="19.93178474028783"><ele>779.0</ele><time>2026-05-05T10:07:42.999Z</time></trkpt><trkpt lat="41.56718311440915" lon="19.931887945487297"><ele>782.2</ele><time>2026-05-05T10:07:43.999Z</time></trkpt><trkpt lat="41.56722692671316" lon="19.931985725687984"><ele>785.4000000000001</ele><time>2026-05-05T10:07:44.999Z</time></trkpt><trkpt lat="41.56728787619472" lon="19.932096646584508"><ele>788.6</ele><time>2026-05-05T10:07:45.999Z</time></trkpt><trkpt lat="41.56735877835751" lon="19.93221109120847"><ele>791.8</ele><time>2026-05-05T10:07:46.999Z</time></trkpt><trkpt lat="41.56745983054594" lon="19.93231578762184"><ele>795.0</ele><time>2026-05-05T10:07:47.999Z</time></trkpt><trkpt lat="41.56757097768833" lon="19.932415776506414"><ele>795.0</ele><time>2026-05-05T10:07:48.999Z</time></trkpt><trkpt lat="41.567681165208064" lon="19.932523124251432"><ele>795.0</ele><time>2026-05-05T10:07:49.999Z</time></trkpt><trkpt lat="41.5677801219571" lon="19.93265214790354"><ele>795.0</ele><time>2026-05-05T10:07:50.999Z</time></trkpt><trkpt lat="41.56787472167895" lon="19.93278980552652"><ele>795.0</ele><time>2026-05-05T10:07:51.999Z</time></trkpt><trkpt lat="41.56796061731493" lon="19.932911986508984"><ele>793.4</ele><time>2026-05-05T10:07:52.999Z</time></trkpt><trkpt lat="41.56803212014141" lon="19.933022930472685"><ele>791.8</ele><time>2026-05-05T10:07:53.999Z</time></trkpt><trkpt lat="41.568094891140355" lon="19.93312431488525"><ele>790.2</ele><time>2026-05-05T10:07:54.999Z</time></trkpt><trkpt lat="41.568166636098965" lon="19.933200523815543"><ele>788.6</ele><time>2026-05-05T10:07:55.999Z</time></trkpt><trkpt lat="41.568237276932585" lon="19.933216841137423"><ele>787.0</ele><time>2026-05-05T10:07:56.999Z</time></trkpt><trkpt lat="41.568316929230406" lon="19.933180247300864"><ele>787.0</ele><time>2026-05-05T10:07:57.999Z</time></trkpt><trkpt lat="41.56842180424618" lon="19.933137117340607"><ele>787.0</ele><time>2026-05-05T10:07:58.999Z</time></trkpt><trkpt lat="41.568543355015194" lon="19.933102951852288"><ele>787.0</ele><time>2026-05-05T10:07:59.999Z</time></trkpt><trkpt lat="41.56866334585279" lon="19.93308629114464"><ele>787.0</ele><time>2026-05-05T10:08:00.999Z</time></trkpt><trkpt lat="41.5687730470322" lon="19.933085958080063"><ele>785.6</ele><time>2026-05-05T10:08:01.999Z</time></trkpt><trkpt lat="41.568879401930054" lon="19.933101716216857"><ele>784.2</ele><time>2026-05-05T10:08:02.999Z</time></trkpt><trkpt lat="41.5689827566569" lon="19.933154001112037"><ele>782.8</ele><time>2026-05-05T10:08:03.999Z</time></trkpt><trkpt lat="41.56906681106525" lon="19.93322099447719"><ele>781.4</ele><time>2026-05-05T10:08:04.999Z</time></trkpt><trkpt lat="41.56914785009019" lon="19.933319430708774"><ele>780.0</ele><time>2026-05-05T10:08:06Z</time></trkpt><trkpt lat="41.569229918225304" lon="19.933415966324723"><ele>780.0</ele><time>2026-05-05T10:08:07Z</time></trkpt><trkpt lat="41.5693364178484" lon="19.93348173767711"><ele>780.0</ele><time>2026-05-05T10:08:08Z</time></trkpt><trkpt lat="41.56944217858" lon="19.933528922127884"><ele>780.0</ele><time>2026-05-05T10:08:09Z</time></trkpt><trkpt lat="41.56955281215173" lon="19.933582906324503"><ele>780.0</ele><time>2026-05-05T10:08:10Z</time></trkpt><trkpt lat="41.569622110619" lon="19.933624240515798"><ele>780.0</ele><time>2026-05-05T10:08:11Z</time></trkpt><trkpt lat="41.569670035058685" lon="19.933686401797008"><ele>780.0</ele><time>2026-05-05T10:08:12Z</time></trkpt><trkpt lat="41.569625162928695" lon="19.93385565435222"><ele>780.0</ele><time>2026-05-05T10:08:14Z</time></trkpt><trkpt lat="41.56957386410634" lon="19.9339518382708"><ele>780.0</ele><time>2026-05-05T10:08:15Z</time></trkpt><trkpt lat="41.56951153198514" lon="19.934057599371812"><ele>780.0</ele><time>2026-05-05T10:08:16Z</time></trkpt><trkpt lat="41.56947400863332" lon="19.934156691835945"><ele>780.0</ele><time>2026-05-05T10:08:17Z</time></trkpt><trkpt lat="41.569488298776456" lon="19.934249239621625"><ele>775.2</ele><time>2026-05-05T10:08:18Z</time></trkpt><trkpt lat="41.56952605769317" lon="19.934349757807396"><ele>770.4</ele><time>2026-05-05T10:08:19Z</time></trkpt><trkpt lat="41.56957807848696" lon="19.934499059188337"><ele>765.5999999999999</ele><time>2026-05-05T10:08:20Z</time></trkpt><trkpt lat="41.56962053195129" lon="19.93463931015718"><ele>760.8</ele><time>2026-05-05T10:08:21Z</time></trkpt><trkpt lat="41.56965611614068" lon="19.93478857286606"><ele>756.0</ele><time>2026-05-05T10:08:22Z</time></trkpt><trkpt lat="41.56967944850635" lon="19.93491427588356"><ele>756.0</ele><time>2026-05-05T10:08:23Z</time></trkpt><trkpt lat="41.56970698402854" lon="19.935001848579862"><ele>756.0</ele><time>2026-05-05T10:08:24Z</time></trkpt><trkpt lat="41.56975055032646" lon="19.935077095791762"><ele>756.0</ele><time>2026-05-05T10:08:25Z</time></trkpt><trkpt lat="41.56989456589476" lon="19.935118964308817"><ele>756.0</ele><time>2026-05-05T10:08:27Z</time></trkpt><trkpt lat="41.56998036335547" lon="19.935152061340773"><ele>756.0</ele><time>2026-05-05T10:08:28Z</time></trkpt><trkpt lat="41.570021870700465" lon="19.9352168568235"><ele>756.0</ele><time>2026-05-05T10:08:29Z</time></trkpt><trkpt lat="41.57004321286317" lon="19.935300069295373"><ele>761.5999999999999</ele><time>2026-05-05T10:08:30Z</time></trkpt><trkpt lat="41.57004596648667" lon="19.93548628814928"><ele>767.2</ele><time>2026-05-05T10:08:32Z</time></trkpt><trkpt lat="41.57006248401344" lon="19.935599067652984"><ele>772.8</ele><time>2026-05-05T10:08:33Z</time></trkpt><trkpt lat="41.57012409652278" lon="19.9356890507953"><ele>778.4000000000001</ele><time>2026-05-05T10:08:34Z</time></trkpt><trkpt lat="41.57021319145214" lon="19.93573645079441"><ele>784.0</ele><time>2026-05-05T10:08:35Z</time></trkpt><trkpt lat="41.570283671047484" lon="19.935779464594717"><ele>784.0</ele><time>2026-05-05T10:08:36Z</time></trkpt><trkpt lat="41.57033834133126" lon="19.935870813968954"><ele>784.0</ele><time>2026-05-05T10:08:38Z</time></trkpt><trkpt lat="41.57036914425061" lon="19.93608731417875"><ele>784.0</ele><time>2026-05-05T10:08:40Z</time></trkpt><trkpt lat="41.570421068177026" lon="19.93619232525039"><ele>784.0</ele><time>2026-05-05T10:08:41Z</time></trkpt><trkpt lat="41.570501887364706" lon="19.936251443425864"><ele>784.0</ele><time>2026-05-05T10:08:42Z</time></trkpt><trkpt lat="41.57064277799176" lon="19.936231958608637"><ele>782.2</ele><time>2026-05-05T10:08:44Z</time></trkpt><trkpt lat="41.57075354298811" lon="19.93617481844642"><ele>780.4000000000001</ele><time>2026-05-05T10:08:45Z</time></trkpt><trkpt lat="41.570860184819836" lon="19.936105615685634"><ele>778.6</ele><time>2026-05-05T10:08:46Z</time></trkpt><trkpt lat="41.570952138995665" lon="19.93607352530545"><ele>776.8</ele><time>2026-05-05T10:08:47Z</time></trkpt><trkpt lat="41.57103484030116" lon="19.93608278840025"><ele>775.0</ele><time>2026-05-05T10:08:48Z</time></trkpt><trkpt lat="41.57112132993301" lon="19.936112816341332"><ele>775.0</ele><time>2026-05-05T10:08:49Z</time></trkpt><trkpt lat="41.57117269195358" lon="19.936177648485554"><ele>775.0</ele><time>2026-05-05T10:08:50Z</time></trkpt><trkpt lat="41.57123762461348" lon="19.93626078144378"><ele>775.0</ele><time>2026-05-05T10:08:51Z</time></trkpt><trkpt lat="41.57132510920496" lon="19.936324325982334"><ele>775.0</ele><time>2026-05-05T10:08:52Z</time></trkpt><trkpt lat="41.571433600562365" lon="19.936353504737063"><ele>775.0</ele><time>2026-05-05T10:08:53Z</time></trkpt><trkpt lat="41.5715573695983" lon="19.93637383710314"><ele>772.6</ele><time>2026-05-05T10:08:54Z</time></trkpt><trkpt lat="41.57167835711089" lon="19.936384401026565"><ele>770.2</ele><time>2026-05-05T10:08:55Z</time></trkpt><trkpt lat="41.571786085992066" lon="19.936419121781846"><ele>767.8</ele><time>2026-05-05T10:08:56Z</time></trkpt><trkpt lat="41.57187329124968" lon="19.93648536633207"><ele>765.4</ele><time>2026-05-05T10:08:57Z</time></trkpt><trkpt lat="41.57192917587448" lon="19.93656729209667"><ele>763.0</ele><time>2026-05-05T10:08:58Z</time></trkpt><trkpt lat="41.571949806862854" lon="19.936669010514137"><ele>767.5</ele><time>2026-05-05T10:08:59Z</time></trkpt><trkpt lat="41.57195550042193" lon="19.93679883117062"><ele>772.0</ele><time>2026-05-05T10:09:00Z</time></trkpt><trkpt lat="41.571957970330594" lon="19.93695814359874"><ele>776.5</ele><time>2026-05-05T10:09:01Z</time></trkpt><trkpt lat="41.571980955522086" lon="19.937120554899884"><ele>781.0</ele><time>2026-05-05T10:09:02Z</time></trkpt><trkpt lat="41.57204158044268" lon="19.93726499289995"><ele>769.0</ele><time>2026-05-05T10:09:03Z</time></trkpt><trkpt lat="41.57213136857559" lon="19.937376787920254"><ele>757.0</ele><time>2026-05-05T10:09:04Z</time></trkpt><trkpt lat="41.57223377409709" lon="19.937440042450884"><ele>745.0</ele><time>2026-05-05T10:09:05Z</time></trkpt><trkpt lat="41.57237955667299" lon="19.937474311544793"><ele>733.0</ele><time>2026-05-05T10:09:06Z</time></trkpt><trkpt lat="41.57251800706038" lon="19.937512297146746"><ele>733.0</ele><time>2026-05-05T10:09:07Z</time></trkpt><trkpt lat="41.57263451266558" lon="19.937536809733352"><ele>733.0</ele><time>2026-05-05T10:09:08Z</time></trkpt><trkpt lat="41.57271111096585" lon="19.937545247945142"><ele>733.0</ele><time>2026-05-05T10:09:09Z</time></trkpt><trkpt lat="41.572762848748724" lon="19.937659266035855"><ele>733.0</ele><time>2026-05-05T10:09:11Z</time></trkpt><trkpt lat="41.57276025376497" lon="19.93775497697501"><ele>733.0</ele><time>2026-05-05T10:09:12Z</time></trkpt><trkpt lat="41.57273611279" lon="19.937839583975258"><ele>733.0</ele><time>2026-05-05T10:09:13Z</time></trkpt><trkpt lat="41.57268646231967" lon="19.937934310356596"><ele>733.5999999999999</ele><time>2026-05-05T10:09:14Z</time></trkpt><trkpt lat="41.57262287113047" lon="19.93803991230502"><ele>734.1999999999999</ele><time>2026-05-05T10:09:15Z</time></trkpt><trkpt lat="41.57255317251105" lon="19.938144865495286"><ele>734.8</ele><time>2026-05-05T10:09:16Z</time></trkpt><trkpt lat="41.57248106715033" lon="19.938254527601593"><ele>735.4</ele><time>2026-05-05T10:09:17Z</time></trkpt><trkpt lat="41.57239359027374" lon="19.938348841201325"><ele>736.0</ele><time>2026-05-05T10:09:18Z</time></trkpt><trkpt lat="41.57230825435792" lon="19.93845948940231"><ele>736.0</ele><time>2026-05-05T10:09:19Z</time></trkpt><trkpt lat="41.57221975364709" lon="19.938588931727363"><ele>736.0</ele><time>2026-05-05T10:09:20Z</time></trkpt><trkpt lat="41.57214626500354" lon="19.938712617509623"><ele>736.0</ele><time>2026-05-05T10:09:21Z</time></trkpt><trkpt lat="41.57211217866895" lon="19.938787260887405"><ele>736.0</ele><time>2026-05-05T10:09:22Z</time></trkpt><trkpt lat="41.572114187148685" lon="19.93888200008167"><ele>736.0</ele><time>2026-05-05T10:09:23Z</time></trkpt><trkpt lat="41.572152861905316" lon="19.938990852905263"><ele>736.0</ele><time>2026-05-05T10:09:24Z</time></trkpt><trkpt lat="41.572218146193116" lon="19.939102487811443"><ele>736.0</ele><time>2026-05-05T10:09:25Z</time></trkpt><trkpt lat="41.57230398157873" lon="19.939206691043328"><ele>736.0</ele><time>2026-05-05T10:09:26Z</time></trkpt><trkpt lat="41.57238770392383" lon="19.939319652672765"><ele>736.0</ele><time>2026-05-05T10:09:27Z</time></trkpt><trkpt lat="41.572441063837914" lon="19.939444343910367"><ele>736.0</ele><time>2026-05-05T10:09:28Z</time></trkpt><trkpt lat="41.57248082050813" lon="19.939581493824686"><ele>740.4</ele><time>2026-05-05T10:09:29Z</time></trkpt><trkpt lat="41.572533187327835" lon="19.93967198470761"><ele>744.8</ele><time>2026-05-05T10:09:30Z</time></trkpt><trkpt lat="41.572625220307266" lon="19.93973530187576"><ele>749.1999999999999</ele><time>2026-05-05T10:09:31Z</time></trkpt><trkpt lat="41.57273039868736" lon="19.93981250460791"><ele>753.5999999999999</ele><time>2026-05-05T10:09:32Z</time></trkpt><trkpt lat="41.572816537984515" lon="19.939929418419183"><ele>758.0</ele><time>2026-05-05T10:09:33Z</time></trkpt><trkpt lat="41.57288553476845" lon="19.94005467946935"><ele>755.0</ele><time>2026-05-05T10:09:34Z</time></trkpt><trkpt lat="41.57294518564898" lon="19.940145293725763"><ele>752.0</ele><time>2026-05-05T10:09:35Z</time></trkpt><trkpt lat="41.57300971880719" lon="19.940167386434556"><ele>749.0</ele><time>2026-05-05T10:09:36Z</time></trkpt><trkpt lat="41.57306877896266" lon="19.94013231406019"><ele>746.0</ele><time>2026-05-05T10:09:37Z</time></trkpt><trkpt lat="41.5731389797183" lon="19.94006540150178"><ele>743.0</ele><time>2026-05-05T10:09:38Z</time></trkpt><trkpt lat="41.573217419308556" lon="19.940021576058534"><ele>740.0</ele><time>2026-05-05T10:09:39Z</time></trkpt><trkpt lat="41.5732953081669" lon="19.940003690662905"><ele>740.0</ele><time>2026-05-05T10:09:40Z</time></trkpt><trkpt lat="41.573390168279474" lon="19.939982187324127"><ele>740.0</ele><time>2026-05-05T10:09:41Z</time></trkpt><trkpt lat="41.57347843655943" lon="19.93993062422523"><ele>740.0</ele><time>2026-05-05T10:09:42Z</time></trkpt><trkpt lat="41.57355275175221" lon="19.939896825034587"><ele>740.0</ele><time>2026-05-05T10:09:43Z</time></trkpt><trkpt lat="41.57364983200161" lon="19.939885781169522"><ele>740.0</ele><time>2026-05-05T10:09:44Z</time></trkpt><trkpt lat="41.57374121992601" lon="19.939919842254277"><ele>739.1666666666666</ele><time>2026-05-05T10:09:45Z</time></trkpt><trkpt lat="41.57381360641171" lon="19.93995767457707"><ele>738.3333333333333</ele><time>2026-05-05T10:09:46Z</time></trkpt><trkpt lat="41.573889396264256" lon="19.94001528565307"><ele>737.5</ele><time>2026-05-05T10:09:47Z</time></trkpt><trkpt lat="41.5739479378127" lon="19.940090256857225"><ele>736.6666666666666</ele><time>2026-05-05T10:09:48Z</time></trkpt><trkpt lat="41.574016069376775" lon="19.9401843913529"><ele>735.8333333333334</ele><time>2026-05-05T10:09:49Z</time></trkpt><trkpt lat="41.574099526885256" lon="19.940260580764974"><ele>735.0</ele><time>2026-05-05T10:09:50Z</time></trkpt><trkpt lat="41.57418628845314" lon="19.940307209057888"><ele>735.0</ele><time>2026-05-05T10:09:51Z</time></trkpt><trkpt lat="41.57426559903905" lon="19.94030129606035"><ele>735.0</ele><time>2026-05-05T10:09:52Z</time></trkpt><trkpt lat="41.574349656164145" lon="19.94036835429448"><ele>735.0</ele><time>2026-05-05T10:09:54Z</time></trkpt><trkpt lat="41.5743582649759" lon="19.94045836729184"><ele>735.0</ele><time>2026-05-05T10:09:55Z</time></trkpt><trkpt lat="41.57433999682601" lon="19.940557610598304"><ele>735.0</ele><time>2026-05-05T10:09:56Z</time></trkpt><trkpt lat="41.57430837568979" lon="19.94069899741713"><ele>735.0</ele><time>2026-05-05T10:09:57Z</time></trkpt><trkpt lat="41.574280899807235" lon="19.94083470188576"><ele>731.8</ele><time>2026-05-05T10:09:58Z</time></trkpt><trkpt lat="41.5742753683666" lon="19.94093558345519"><ele>728.6</ele><time>2026-05-05T10:09:59Z</time></trkpt><trkpt lat="41.57423822731105" lon="19.941018918865865"><ele>725.4000000000001</ele><time>2026-05-05T10:10:00Z</time></trkpt><trkpt lat="41.57416933745029" lon="19.941109799620804"><ele>722.2</ele><time>2026-05-05T10:10:01Z</time></trkpt><trkpt lat="41.57407850194399" lon="19.94124057257304"><ele>719.0</ele><time>2026-05-05T10:10:02Z</time></trkpt><trkpt lat="41.57398596973231" lon="19.941400529728707"><ele>719.0</ele><time>2026-05-05T10:10:03Z</time></trkpt><trkpt lat="41.573915387178495" lon="19.941557362337623"><ele>719.0</ele><time>2026-05-05T10:10:04Z</time></trkpt><trkpt lat="41.57388888160786" lon="19.941704876191043"><ele>719.0</ele><time>2026-05-05T10:10:05Z</time></trkpt><trkpt lat="41.573881307233776" lon="19.94186709994374"><ele>719.0</ele><time>2026-05-05T10:10:06Z</time></trkpt><trkpt lat="41.573896566017204" lon="19.942007987835787"><ele>718.0</ele><time>2026-05-05T10:10:07Z</time></trkpt><trkpt lat="41.573910245381704" lon="19.942112362530032"><ele>717.0</ele><time>2026-05-05T10:10:08Z</time></trkpt><trkpt lat="41.57387681927641" lon="19.942185027562918"><ele>716.0</ele><time>2026-05-05T10:10:09Z</time></trkpt><trkpt lat="41.57380375035022" lon="19.94226561384858"><ele>715.0</ele><time>2026-05-05T10:10:10Z</time></trkpt><trkpt lat="41.57370699444068" lon="19.9423800599164"><ele>714.0</ele><time>2026-05-05T10:10:11Z</time></trkpt><trkpt lat="41.573628140885205" lon="19.942514500649203"><ele>721.25</ele><time>2026-05-05T10:10:12.001Z</time></trkpt><trkpt lat="41.57361041308041" lon="19.942628070521714"><ele>728.5</ele><time>2026-05-05T10:10:13.001Z</time></trkpt><trkpt lat="41.573609292117226" lon="19.942791752668626"><ele>735.75</ele><time>2026-05-05T10:10:14.001Z</time></trkpt><trkpt lat="41.57361286098373" lon="19.942980509711713"><ele>743.0</ele><time>2026-05-05T10:10:15.001Z</time></trkpt><trkpt lat="41.57362602792653" lon="19.943141836668968"><ele>743.0</ele><time>2026-05-05T10:10:16.001Z</time></trkpt><trkpt lat="41.57365543200939" lon="19.943246984479917"><ele>743.0</ele><time>2026-05-05T10:10:17.001Z</time></trkpt><trkpt lat="41.573705309670736" lon="19.943305502932095"><ele>743.0</ele><time>2026-05-05T10:10:18.001Z</time></trkpt><trkpt lat="41.57377153494793" lon="19.943327241418885"><ele>743.0</ele><time>2026-05-05T10:10:19.001Z</time></trkpt><trkpt lat="41.57386013284954" lon="19.943314150185742"><ele>743.0</ele><time>2026-05-05T10:10:20.001Z</time></trkpt><trkpt lat="41.5739773343123" lon="19.943263792603354"><ele>743.0</ele><time>2026-05-05T10:10:21.001Z</time></trkpt><trkpt lat="41.57410894501885" lon="19.943210588864346"><ele>738.6666666666666</ele><time>2026-05-05T10:10:22Z</time></trkpt><trkpt lat="41.5742505523247" lon="19.943176289323976"><ele>734.3333333333334</ele><time>2026-05-05T10:10:23Z</time></trkpt><trkpt lat="41.57440542212899" lon="19.943170256236716"><ele>730.0</ele><time>2026-05-05T10:10:24Z</time></trkpt><trkpt lat="41.57456870089146" lon="19.943176692546647"><ele>729.0</ele><time>2026-05-05T10:10:25Z</time></trkpt><trkpt lat="41.57471321107447" lon="19.943166207323422"><ele>728.0</ele><time>2026-05-05T10:10:26Z</time></trkpt><trkpt lat="41.574842703621165" lon="19.943145278005034"><ele>727.0</ele><time>2026-05-05T10:10:27Z</time></trkpt><trkpt lat="41.57496662647603" lon="19.943158045129536"><ele>726.0</ele><time>2026-05-05T10:10:28Z</time></trkpt><trkpt lat="41.57509706724413" lon="19.943197942301126"><ele>726.0</ele><time>2026-05-05T10:10:29Z</time></trkpt><trkpt lat="41.57521361478012" lon="19.94325054820959"><ele>726.0</ele><time>2026-05-05T10:10:30Z</time></trkpt><trkpt lat="41.5752915370504" lon="19.9433143529312"><ele>726.0</ele><time>2026-05-05T10:10:31Z</time></trkpt><trkpt lat="41.57535877508154" lon="19.943390934308773"><ele>726.0</ele><time>2026-05-05T10:10:32Z</time></trkpt><trkpt lat="41.57541808718509" lon="19.94350713853337"><ele>726.0</ele><time>2026-05-05T10:10:33Z</time></trkpt><trkpt lat="41.57546680215663" lon="19.943646100761608"><ele>726.1666666666666</ele><time>2026-05-05T10:10:34Z</time></trkpt><trkpt lat="41.57548203406152" lon="19.943755891751877"><ele>726.3333333333334</ele><time>2026-05-05T10:10:35Z</time></trkpt><trkpt lat="41.575466515616576" lon="19.943864837088665"><ele>726.5</ele><time>2026-05-05T10:10:36Z</time></trkpt><trkpt lat="41.57542173240029" lon="19.943935661042474"><ele>726.6666666666667</ele><time>2026-05-05T10:10:37Z</time></trkpt><trkpt lat="41.575348147926505" lon="19.943987769285464"><ele>726.8333333333334</ele><time>2026-05-05T10:10:38Z</time></trkpt><trkpt lat="41.57525937063758" lon="19.944055165233078"><ele>727.0</ele><time>2026-05-05T10:10:39Z</time></trkpt><trkpt lat="41.5751841800969" lon="19.94415693228882"><ele>724.2</ele><time>2026-05-05T10:10:40Z</time></trkpt><trkpt lat="41.57515145468548" lon="19.944275526722365"><ele>721.4000000000001</ele><time>2026-05-05T10:10:41Z</time></trkpt><trkpt lat="41.57514745842578" lon="19.94439974544825"><ele>718.5999999999999</ele><time>2026-05-05T10:10:42Z</time></trkpt><trkpt lat="41.57513283412612" lon="19.944529170221124"><ele>715.8</ele><time>2026-05-05T10:10:43Z</time></trkpt><trkpt lat="41.57508804313465" lon="19.94463982863358"><ele>713.0</ele><time>2026-05-05T10:10:44Z</time></trkpt><trkpt lat="41.575016970066855" lon="19.94473123603401"><ele>713.0</ele><time>2026-05-05T10:10:45Z</time></trkpt><trkpt lat="41.574947003258046" lon="19.944818980912675"><ele>713.0</ele><time>2026-05-05T10:10:45.999Z</time></trkpt><trkpt lat="41.57490117558171" lon="19.944918340292745"><ele>713.0</ele><time>2026-05-05T10:10:46.999Z</time></trkpt><trkpt lat="41.57488314453316" lon="19.945051978014305"><ele>713.0</ele><time>2026-05-05T10:10:47.999Z</time></trkpt><trkpt lat="41.574873606442324" lon="19.945182044229465"><ele>713.0</ele><time>2026-05-05T10:10:48.999Z</time></trkpt><trkpt lat="41.57484340345631" lon="19.945305972051028"><ele>709.0</ele><time>2026-05-05T10:10:49.999Z</time></trkpt><trkpt lat="41.574793922724766" lon="19.945439692017434"><ele>705.0</ele><time>2026-05-05T10:10:50.999Z</time></trkpt><trkpt lat="41.57474927165464" lon="19.94557717692381"><ele>701.0</ele><time>2026-05-05T10:10:51.999Z</time></trkpt><trkpt lat="41.57466909544476" lon="19.945503821142452"><ele>697.0</ele><time>2026-05-05T10:10:52.999Z</time></trkpt><trkpt lat="41.57468236803694" lon="19.9457514624448"><ele>695.4000000000001</ele><time>2026-05-05T10:10:57.999Z</time></trkpt><trkpt lat="41.57467230322022" lon="19.945884337595615"><ele>693.8000000000001</ele><time>2026-05-05T10:10:58.999Z</time></trkpt><trkpt lat="41.574664739525986" lon="19.946001203365093"><ele>692.2</ele><time>2026-05-05T10:10:59.999Z</time></trkpt><trkpt lat="41.57465566629657" lon="19.94611785578762"><ele>690.6</ele><time>2026-05-05T10:11:00.999Z</time></trkpt><trkpt lat="41.574622020097024" lon="19.946218313231107"><ele>689.0</ele><time>2026-05-05T10:11:01.999Z</time></trkpt><trkpt lat="41.574513304334715" lon="19.946311658449854"><ele>688.3333333333333</ele><time>2026-05-05T10:11:03.999Z</time></trkpt><trkpt lat="41.57443681128323" lon="19.946359262267435"><ele>687.6666666666666</ele><time>2026-05-05T10:11:04.999Z</time></trkpt><trkpt lat="41.57436913083598" lon="19.94643077466467"><ele>687.0</ele><time>2026-05-05T10:11:05.999Z</time></trkpt><trkpt lat="41.57433855878198" lon="19.94652876862296"><ele>686.3333333333334</ele><time>2026-05-05T10:11:06.999Z</time></trkpt><trkpt lat="41.574323251034095" lon="19.946644787610285"><ele>685.6666666666667</ele><time>2026-05-05T10:11:07.999Z</time></trkpt><trkpt lat="41.57430753003547" lon="19.946779314112202"><ele>685.0</ele><time>2026-05-05T10:11:08.999Z</time></trkpt><trkpt lat="41.574288244468676" lon="19.94690060023008"><ele>683.2</ele><time>2026-05-05T10:11:09.999Z</time></trkpt><trkpt lat="41.57428618822481" lon="19.947016616442433"><ele>681.4</ele><time>2026-05-05T10:11:10.999Z</time></trkpt><trkpt lat="41.57430025023293" lon="19.947128642458523"><ele>679.5999999999999</ele><time>2026-05-05T10:11:11.999Z</time></trkpt><trkpt lat="41.5743324890024" lon="19.947263270399414"><ele>677.8</ele><time>2026-05-05T10:11:12.999Z</time></trkpt><trkpt lat="41.57435782831631" lon="19.94739282681221"><ele>676.0</ele><time>2026-05-05T10:11:13.999Z</time></trkpt><trkpt lat="41.5743850696981" lon="19.947513759651738"><ele>674.5</ele><time>2026-05-05T10:11:14.999Z</time></trkpt><trkpt lat="41.57441816077426" lon="19.94761820306421"><ele>673.0</ele><time>2026-05-05T10:11:15.999Z</time></trkpt><trkpt lat="41.57446585645528" lon="19.94770581147954"><ele>671.5</ele><time>2026-05-05T10:11:16.999Z</time></trkpt><trkpt lat="41.57452310931832" lon="19.947787167780596"><ele>670.0</ele><time>2026-05-05T10:11:17.999Z</time></trkpt><trkpt lat="41.57459069096951" lon="19.947859130989155"><ele>668.5</ele><time>2026-05-05T10:11:18.999Z</time></trkpt><trkpt lat="41.57466057662625" lon="19.947912892847036"><ele>667.0</ele><time>2026-05-05T10:11:19.999Z</time></trkpt><trkpt lat="41.574736730522694" lon="19.94795401828322"><ele>667.0</ele><time>2026-05-05T10:11:20.999Z</time></trkpt><trkpt lat="41.57481808546488" lon="19.947986351515443"><ele>667.0</ele><time>2026-05-05T10:11:21.999Z</time></trkpt><trkpt lat="41.574899407301" lon="19.94797907703661"><ele>667.0</ele><time>2026-05-05T10:11:22.999Z</time></trkpt><trkpt lat="41.574968458615274" lon="19.947953047313938"><ele>667.0</ele><time>2026-05-05T10:11:23.999Z</time></trkpt><trkpt lat="41.575034867323204" lon="19.947878175839858"><ele>667.0</ele><time>2026-05-05T10:11:24.999Z</time></trkpt><trkpt lat="41.57507039568994" lon="19.947776145487005"><ele>667.0</ele><time>2026-05-05T10:11:25.999Z</time></trkpt><trkpt lat="41.575088378670145" lon="19.947694073244868"><ele>667.0</ele><time>2026-05-05T10:11:26.999Z</time></trkpt><trkpt lat="41.5751912008375" lon="19.947661631717985"><ele>667.0</ele><time>2026-05-05T10:11:28.999Z</time></trkpt><trkpt lat="41.57524821882533" lon="19.947812774293325"><ele>667.0</ele><time>2026-05-05T10:11:30.999Z</time></trkpt><trkpt lat="41.575231210401206" lon="19.94793572593603"><ele>667.0</ele><time>2026-05-05T10:11:31.999Z</time></trkpt><trkpt lat="41.57518039425172" lon="19.948035297990444"><ele>667.0</ele><time>2026-05-05T10:11:32.999Z</time></trkpt><trkpt lat="41.575109196265196" lon="19.948126200802438"><ele>667.0</ele><time>2026-05-05T10:11:33.999Z</time></trkpt><trkpt lat="41.575028089871196" lon="19.948207306007244"><ele>667.0</ele><time>2026-05-05T10:11:34.999Z</time></trkpt><trkpt lat="41.57494129700321" lon="19.94829095146889"><ele>667.0</ele><time>2026-05-05T10:11:35.999Z</time></trkpt><trkpt lat="41.5748592710284" lon="19.94833343767487"><ele>667.0</ele><time>2026-05-05T10:11:36.999Z</time></trkpt><trkpt lat="41.574771827224644" lon="19.948340595990068"><ele>667.0</ele><time>2026-05-05T10:11:37.999Z</time></trkpt><trkpt lat="41.57468905276322" lon="19.94829077158953"><ele>667.0</ele><time>2026-05-05T10:11:38.999Z</time></trkpt><trkpt lat="41.57461655308237" lon="19.948201073893788"><ele>667.0</ele><time>2026-05-05T10:11:39.999Z</time></trkpt><trkpt lat="41.574561288824015" lon="19.94814032338588"><ele>667.0</ele><time>2026-05-05T10:11:40.999Z</time></trkpt><trkpt lat="41.57448871048582" lon="19.948131332375176"><ele>667.0</ele><time>2026-05-05T10:11:41.999Z</time></trkpt><trkpt lat="41.574433287670864" lon="19.948179759721825"><ele>667.0</ele><time>2026-05-05T10:11:42.999Z</time></trkpt><trkpt lat="41.57440312955677" lon="19.948276279334536"><ele>667.0</ele><time>2026-05-05T10:11:43.999Z</time></trkpt><trkpt lat="41.57443417853795" lon="19.948379241268935"><ele>662.4000000000001</ele><time>2026-05-05T10:11:44.999Z</time></trkpt><trkpt lat="41.57449602529852" lon="19.94847147290293"><ele>657.8000000000001</ele><time>2026-05-05T10:11:45.999Z</time></trkpt><trkpt lat="41.57456902431273" lon="19.948532395963674"><ele>653.2</ele><time>2026-05-05T10:11:46.999Z</time></trkpt><trkpt lat="41.574672214885894" lon="19.94855283839914"><ele>648.6</ele><time>2026-05-05T10:11:47.999Z</time></trkpt><trkpt lat="41.57479293143668" lon="19.94855048997308"><ele>644.0</ele><time>2026-05-05T10:11:48.999Z</time></trkpt><trkpt lat="41.57488787705423" lon="19.94851615290615"><ele>644.0</ele><time>2026-05-05T10:11:49.999Z</time></trkpt><trkpt lat="41.574952777777874" lon="19.948452074813556"><ele>644.0</ele><time>2026-05-05T10:11:50.999Z</time></trkpt><trkpt lat="41.57503727948288" lon="19.948461924570406"><ele>644.0</ele><time>2026-05-05T10:11:52.999Z</time></trkpt><trkpt lat="41.575044074537374" lon="19.948593528142514"><ele>644.0</ele><time>2026-05-05T10:11:54.999Z</time></trkpt><trkpt lat="41.57495449011416" lon="19.948690634869642"><ele>644.0</ele><time>2026-05-05T10:11:56.999Z</time></trkpt><trkpt lat="41.57487780259798" lon="19.948697694201037"><ele>644.0</ele><time>2026-05-05T10:11:57.999Z</time></trkpt><trkpt lat="41.574789806085846" lon="19.948679473123555"><ele>644.0</ele><time>2026-05-05T10:11:58.999Z</time></trkpt><trkpt lat="41.57468284189737" lon="19.94867592166047"><ele>644.0</ele><time>2026-05-05T10:11:59.999Z</time></trkpt><trkpt lat="41.57456948220825" lon="19.948710540374435"><ele>644.0</ele><time>2026-05-05T10:12:00.999Z</time></trkpt><trkpt lat="41.574457101386805" lon="19.94872226836115"><ele>644.0</ele><time>2026-05-05T10:12:01.999Z</time></trkpt><trkpt lat="41.57436657695195" lon="19.948707923912465"><ele>643.8333333333333</ele><time>2026-05-05T10:12:02.999Z</time></trkpt><trkpt lat="41.5742889921093" lon="19.948666310903945"><ele>643.6666666666666</ele><time>2026-05-05T10:12:03.999Z</time></trkpt><trkpt lat="41.574229655502045" lon="19.948591084326978"><ele>643.5</ele><time>2026-05-05T10:12:04.999Z</time></trkpt><trkpt lat="41.574173528906165" lon="19.948500623772226"><ele>643.3333333333334</ele><time>2026-05-05T10:12:05.999Z</time></trkpt><trkpt lat="41.574109902019416" lon="19.9484733188873"><ele>643.1666666666667</ele><time>2026-05-05T10:12:06.999Z</time></trkpt><trkpt lat="41.57404368592462" lon="19.948598859647852"><ele>643.0</ele><time>2026-05-05T10:12:08.999Z</time></trkpt><trkpt lat="41.57405072957637" lon="19.948684052563173"><ele>643.0</ele><time>2026-05-05T10:12:09.999Z</time></trkpt><trkpt lat="41.57409142375614" lon="19.948764651037777"><ele>643.0</ele><time>2026-05-05T10:12:10.999Z</time></trkpt><trkpt lat="41.57416492194323" lon="19.948844629908752"><ele>643.0</ele><time>2026-05-05T10:12:11.999Z</time></trkpt><trkpt lat="41.57427075540338" lon="19.948893974155176"><ele>643.0</ele><time>2026-05-05T10:12:12.999Z</time></trkpt><trkpt lat="41.5743996406392" lon="19.94893803859003"><ele>643.0</ele><time>2026-05-05T10:12:13.999Z</time></trkpt><trkpt lat="41.574533215006596" lon="19.948974648596593"><ele>643.25</ele><time>2026-05-05T10:12:14.999Z</time></trkpt><trkpt lat="41.574674971107406" lon="19.949003794911032"><ele>643.5</ele><time>2026-05-05T10:12:15.999Z</time></trkpt><trkpt lat="41.5748223321296" lon="19.949058341602527"><ele>643.75</ele><time>2026-05-05T10:12:16.999Z</time></trkpt><trkpt lat="41.57496212026893" lon="19.949091810693506"><ele>644.0</ele><time>2026-05-05T10:12:18Z</time></trkpt><trkpt lat="41.57507611619039" lon="19.94911407091482"><ele>644.0</ele><time>2026-05-05T10:12:19Z</time></trkpt><trkpt lat="41.57516710022668" lon="19.94911980720982"><ele>644.0</ele><time>2026-05-05T10:12:20Z</time></trkpt><trkpt lat="41.575252815852295" lon="19.949122474849293"><ele>644.0</ele><time>2026-05-05T10:12:21Z</time></trkpt><trkpt lat="41.57533835652269" lon="19.94910349940945"><ele>644.0</ele><time>2026-05-05T10:12:22Z</time></trkpt><trkpt lat="41.57542016789441" lon="19.94905764587597"><ele>644.0</ele><time>2026-05-05T10:12:23Z</time></trkpt><trkpt lat="41.575487033224626" lon="19.948987244364186"><ele>644.0</ele><time>2026-05-05T10:12:24Z</time></trkpt><trkpt lat="41.5755250507414" lon="19.948893225468353"><ele>643.8000000000001</ele><time>2026-05-05T10:12:25Z</time></trkpt><trkpt lat="41.57555276502199" lon="19.948773719483476"><ele>643.6</ele><time>2026-05-05T10:12:26Z</time></trkpt><trkpt lat="41.57557387269867" lon="19.948630382077575"><ele>643.4</ele><time>2026-05-05T10:12:27Z</time></trkpt><trkpt lat="41.57559056253851" lon="19.94847892522194"><ele>643.2</ele><time>2026-05-05T10:12:28Z</time></trkpt><trkpt lat="41.57562469738304" lon="19.9483302912482"><ele>643.0</ele><time>2026-05-05T10:12:29Z</time></trkpt><trkpt lat="41.57569295505315" lon="19.94819113970628"><ele>643.0</ele><time>2026-05-05T10:12:30Z</time></trkpt><trkpt lat="41.57577160576892" lon="19.948059725830216"><ele>643.0</ele><time>2026-05-05T10:12:31Z</time></trkpt><trkpt lat="41.57582065215014" lon="19.94793277479822"><ele>643.0</ele><time>2026-05-05T10:12:32Z</time></trkpt><trkpt lat="41.57584294542551" lon="19.947845622235885"><ele>643.0</ele><time>2026-05-05T10:12:33Z</time></trkpt><trkpt lat="41.57591836664744" lon="19.947772655928162"><ele>643.0</ele><time>2026-05-05T10:12:35Z</time></trkpt><trkpt lat="41.57601166645746" lon="19.947826149574063"><ele>643.0</ele><time>2026-05-05T10:12:37Z</time></trkpt><trkpt lat="41.57606351199274" lon="19.947898701609713"><ele>643.0</ele><time>2026-05-05T10:12:38Z</time></trkpt><trkpt lat="41.57611063603569" lon="19.948014284512237"><ele>643.0</ele><time>2026-05-05T10:12:39Z</time></trkpt><trkpt lat="41.576161435029476" lon="19.948141254909977"><ele>643.0</ele><time>2026-05-05T10:12:40Z</time></trkpt><trkpt lat="41.57622954867059" lon="19.948239741554254"><ele>643.0</ele><time>2026-05-05T10:12:41Z</time></trkpt><trkpt lat="41.576294096190324" lon="19.948306404393566"><ele>637.0</ele><time>2026-05-05T10:12:42Z</time></trkpt><trkpt lat="41.5763715002059" lon="19.948378660184577"><ele>631.0</ele><time>2026-05-05T10:12:43Z</time></trkpt><trkpt lat="41.57645186435606" lon="19.94843483408109"><ele>625.0</ele><time>2026-05-05T10:12:44Z</time></trkpt><trkpt lat="41.57657070649205" lon="19.9485093343667"><ele>619.0</ele><time>2026-05-05T10:12:45Z</time></trkpt><trkpt lat="41.57667374156558" lon="19.94858919285456"><ele>613.0</ele><time>2026-05-05T10:12:46Z</time></trkpt><trkpt lat="41.57677501424844" lon="19.948649269764484"><ele>613.0</ele><time>2026-05-05T10:12:47Z</time></trkpt><trkpt lat="41.576860892040955" lon="19.948734244498123"><ele>613.0</ele><time>2026-05-05T10:12:48Z</time></trkpt><trkpt lat="41.576951377613284" lon="19.948832193150714"><ele>613.0</ele><time>2026-05-05T10:12:49Z</time></trkpt><trkpt lat="41.57704145902433" lon="19.94888650910537"><ele>613.0</ele><time>2026-05-05T10:12:50Z</time></trkpt><trkpt lat="41.577132547733086" lon="19.948887778116838"><ele>613.0</ele><time>2026-05-05T10:12:51Z</time></trkpt><trkpt lat="41.57725359323163" lon="19.948885281504598"><ele>615.0</ele><time>2026-05-05T10:12:52Z</time></trkpt><trkpt lat="41.57737514252183" lon="19.94890217678994"><ele>617.0</ele><time>2026-05-05T10:12:53Z</time></trkpt><trkpt lat="41.57748690667334" lon="19.948920137639497"><ele>619.0</ele><time>2026-05-05T10:12:54Z</time></trkpt><trkpt lat="41.577622118694755" lon="19.94892636243368"><ele>621.0</ele><time>2026-05-05T10:12:55Z</time></trkpt><trkpt lat="41.57775540131005" lon="19.94892435384485"><ele>620.2</ele><time>2026-05-05T10:12:56Z</time></trkpt><trkpt lat="41.57786438183829" lon="19.948912281868353"><ele>619.4000000000001</ele><time>2026-05-05T10:12:57Z</time></trkpt><trkpt lat="41.57798772047142" lon="19.94893358249492"><ele>618.6</ele><time>2026-05-05T10:12:58Z</time></trkpt><trkpt lat="41.57808120197085" lon="19.948944398048877"><ele>617.8000000000001</ele><time>2026-05-05T10:12:59Z</time></trkpt><trkpt lat="41.57818811603063" lon="19.94895940924722"><ele>617.0</ele><time>2026-05-05T10:13:00Z</time></trkpt><trkpt lat="41.578291571606165" lon="19.94895859514492"><ele>617.0</ele><time>2026-05-05T10:13:01Z</time></trkpt><trkpt lat="41.5783909967467" lon="19.948935499564172"><ele>617.0</ele><time>2026-05-05T10:13:02Z</time></trkpt><trkpt lat="41.57846166870703" lon="19.94892134790631"><ele>617.0</ele><time>2026-05-05T10:13:03Z</time></trkpt><trkpt lat="41.57853371246752" lon="19.94901149635523"><ele>617.0</ele><time>2026-05-05T10:13:05Z</time></trkpt><trkpt lat="41.578508571757894" lon="19.949114347869152"><ele>617.0</ele><time>2026-05-05T10:13:07Z</time></trkpt><trkpt lat="41.57845642364444" lon="19.94917609497836"><ele>617.0</ele><time>2026-05-05T10:13:08Z</time></trkpt><trkpt lat="41.57838209773872" lon="19.949196200779078"><ele>617.0</ele><time>2026-05-05T10:13:09Z</time></trkpt><trkpt lat="41.57828840960701" lon="19.949189444604418"><ele>617.0</ele><time>2026-05-05T10:13:10Z</time></trkpt><trkpt lat="41.578193256678894" lon="19.94918569654265"><ele>617.0</ele><time>2026-05-05T10:13:11Z</time></trkpt><trkpt lat="41.57809062638545" lon="19.949231874435693"><ele>617.0</ele><time>2026-05-05T10:13:12Z</time></trkpt><trkpt lat="41.57800216574827" lon="19.94933447361238"><ele>617.0</ele><time>2026-05-05T10:13:13Z</time></trkpt><trkpt lat="41.57790192083978" lon="19.949461450815647"><ele>614.6</ele><time>2026-05-05T10:13:13.999Z</time></trkpt><trkpt lat="41.57780616397521" lon="19.949577702036702"><ele>612.2</ele><time>2026-05-05T10:13:14.999Z</time></trkpt><trkpt lat="41.577725316952275" lon="19.949652208104723"><ele>609.8</ele><time>2026-05-05T10:13:15.999Z</time></trkpt><trkpt lat="41.5776473468289" lon="19.94967591200847"><ele>607.4</ele><time>2026-05-05T10:13:16.999Z</time></trkpt><trkpt lat="41.57757312883402" lon="19.94969082945296"><ele>605.0</ele><time>2026-05-05T10:13:17.999Z</time></trkpt><trkpt lat="41.57750045249336" lon="19.94972904382582"><ele>605.0</ele><time>2026-05-05T10:13:18.999Z</time></trkpt><trkpt lat="41.57743237512851" lon="19.949812054995686"><ele>605.0</ele><time>2026-05-05T10:13:19.999Z</time></trkpt><trkpt lat="41.57739222955677" lon="19.949913079620888"><ele>605.0</ele><time>2026-05-05T10:13:20.999Z</time></trkpt><trkpt lat="41.57737942667599" lon="19.95002526195547"><ele>605.0</ele><time>2026-05-05T10:13:21.999Z</time></trkpt><trkpt lat="41.57739982792365" lon="19.950131054029875"><ele>605.0</ele><time>2026-05-05T10:13:22.999Z</time></trkpt><trkpt lat="41.577453075205206" lon="19.95023673295447"><ele>605.0</ele><time>2026-05-05T10:13:23.999Z</time></trkpt><trkpt lat="41.57753859225708" lon="19.95032450464411"><ele>601.4</ele><time>2026-05-05T10:13:24.999Z</time></trkpt><trkpt lat="41.57761898304766" lon="19.950389820463098"><ele>597.8</ele><time>2026-05-05T10:13:25.999Z</time></trkpt><trkpt lat="41.57771006633752" lon="19.950433291470038"><ele>594.2</ele><time>2026-05-05T10:13:26.999Z</time></trkpt><trkpt lat="41.57782045533367" lon="19.950468726181047"><ele>590.6</ele><time>2026-05-05T10:13:27.999Z</time></trkpt><trkpt lat="41.57795077414095" lon="19.950490583340375"><ele>587.0</ele><time>2026-05-05T10:13:28.999Z</time></trkpt><trkpt lat="41.578073927453595" lon="19.95051186157341"><ele>586.6666666666666</ele><time>2026-05-05T10:13:29.999Z</time></trkpt><trkpt lat="41.578178796420296" lon="19.950547547581607"><ele>586.3333333333333</ele><time>2026-05-05T10:13:30.999Z</time></trkpt><trkpt lat="41.578262034581634" lon="19.950610961729087"><ele>586.0</ele><time>2026-05-05T10:13:31.999Z</time></trkpt><trkpt lat="41.57833116269896" lon="19.950655616858388"><ele>585.6666666666666</ele><time>2026-05-05T10:13:32.999Z</time></trkpt><trkpt lat="41.578403782056334" lon="19.95064632245307"><ele>585.3333333333334</ele><time>2026-05-05T10:13:33.999Z</time></trkpt><trkpt lat="41.578479874081886" lon="19.9505924276507"><ele>585.0</ele><time>2026-05-05T10:13:34.999Z</time></trkpt><trkpt lat="41.57852989377117" lon="19.95051920984849"><ele>585.0</ele><time>2026-05-05T10:13:35.999Z</time></trkpt><trkpt lat="41.5785293392806" lon="19.950340558659892"><ele>585.0</ele><time>2026-05-05T10:13:37.999Z</time></trkpt><trkpt lat="41.578520700688394" lon="19.950209065368263"><ele>585.0</ele><time>2026-05-05T10:13:38.999Z</time></trkpt><trkpt lat="41.57853907224512" lon="19.950071532408312"><ele>585.0</ele><time>2026-05-05T10:13:39.999Z</time></trkpt><trkpt lat="41.578552584639496" lon="19.949949914046467"><ele>585.0</ele><time>2026-05-05T10:13:40.999Z</time></trkpt><trkpt lat="41.57863476097994" lon="19.949969935377048"><ele>585.0</ele><time>2026-05-05T10:13:41.999Z</time></trkpt><trkpt lat="41.57869936704375" lon="19.949940751289205"><ele>585.0</ele><time>2026-05-05T10:13:42.999Z</time></trkpt><trkpt lat="41.578783456302766" lon="19.949949534970134"><ele>585.0</ele><time>2026-05-05T10:13:43.999Z</time></trkpt><trkpt lat="41.578870659742314" lon="19.949923434059578"><ele>585.0</ele><time>2026-05-05T10:13:44.999Z</time></trkpt><trkpt lat="41.57897281058904" lon="19.949844532669054"><ele>585.0</ele><time>2026-05-05T10:13:45.999Z</time></trkpt><trkpt lat="41.579072564163624" lon="19.949733249433773"><ele>585.0</ele><time>2026-05-05T10:13:46.999Z</time></trkpt><trkpt lat="41.57916301250902" lon="19.949661470151895"><ele>585.0</ele><time>2026-05-05T10:13:47.999Z</time></trkpt><trkpt lat="41.57926112100813" lon="19.949624307901235"><ele>585.0</ele><time>2026-05-05T10:13:48.999Z</time></trkpt><trkpt lat="41.57934909194092" lon="19.949595358358295"><ele>585.0</ele><time>2026-05-05T10:13:49.999Z</time></trkpt><trkpt lat="41.579468925207365" lon="19.949536974622777"><ele>585.0</ele><time>2026-05-05T10:13:50.999Z</time></trkpt><trkpt lat="41.57957906820708" lon="19.949486952634306"><ele>581.0</ele><time>2026-05-05T10:13:51.999Z</time></trkpt><trkpt lat="41.57967819927506" lon="19.94947126462423"><ele>577.0</ele><time>2026-05-05T10:13:52.999Z</time></trkpt><trkpt lat="41.57978240434966" lon="19.949469251131298"><ele>573.0</ele><time>2026-05-05T10:13:53.999Z</time></trkpt><trkpt lat="41.57987645710059" lon="19.949485001763197"><ele>569.0</ele><time>2026-05-05T10:13:54.999Z</time></trkpt><trkpt lat="41.579974008153975" lon="19.94951141706169"><ele>565.0</ele><time>2026-05-05T10:13:55.999Z</time></trkpt><trkpt lat="41.580072716941075" lon="19.949541859249646"><ele>565.0</ele><time>2026-05-05T10:13:56.999Z</time></trkpt><trkpt lat="41.58016910928044" lon="19.94955914068502"><ele>565.0</ele><time>2026-05-05T10:13:57.999Z</time></trkpt><trkpt lat="41.58026320392836" lon="19.949551985032276"><ele>565.0</ele><time>2026-05-05T10:13:58.999Z</time></trkpt><trkpt lat="41.58034196714889" lon="19.949545332354166"><ele>565.0</ele><time>2026-05-05T10:13:59.999Z</time></trkpt><trkpt lat="41.580414966850185" lon="19.949529009962106"><ele>565.0</ele><time>2026-05-05T10:14:00.999Z</time></trkpt><trkpt lat="41.580515785589085" lon="19.949559529497396"><ele>565.0</ele><time>2026-05-05T10:14:01.999Z</time></trkpt><trkpt lat="41.580632209571235" lon="19.94961947900524"><ele>563.75</ele><time>2026-05-05T10:14:02.999Z</time></trkpt><trkpt lat="41.58074234670399" lon="19.949701454735397"><ele>562.5</ele><time>2026-05-05T10:14:03.999Z</time></trkpt><trkpt lat="41.580843135513" lon="19.949757053488383"><ele>561.25</ele><time>2026-05-05T10:14:04.999Z</time></trkpt><trkpt lat="41.58096086002135" lon="19.949787927729673"><ele>560.0</ele><time>2026-05-05T10:14:05.999Z</time></trkpt><trkpt lat="41.58108022276429" lon="19.94980645859887"><ele>560.0</ele><time>2026-05-05T10:14:06.999Z</time></trkpt><trkpt lat="41.58118494333838" lon="19.949835569253022"><ele>560.0</ele><time>2026-05-05T10:14:07.999Z</time></trkpt><trkpt lat="41.58127086454491" lon="19.94988862098035"><ele>560.0</ele><time>2026-05-05T10:14:08.999Z</time></trkpt><trkpt lat="41.581321049920824" lon="19.94996417921374"><ele>560.0</ele><time>2026-05-05T10:14:09.999Z</time></trkpt><trkpt lat="41.58133283512925" lon="19.95007019680978"><ele>560.0</ele><time>2026-05-05T10:14:10.999Z</time></trkpt><trkpt lat="41.581320483869796" lon="19.950191063700668"><ele>560.0</ele><time>2026-05-05T10:14:11.999Z</time></trkpt><trkpt lat="41.58132166307128" lon="19.950306792617493"><ele>560.0</ele><time>2026-05-05T10:14:12.999Z</time></trkpt><trkpt lat="41.58135099805252" lon="19.950406289839528"><ele>560.0</ele><time>2026-05-05T10:14:13.999Z</time></trkpt><trkpt lat="41.5813941204547" lon="19.950513262449284"><ele>560.0</ele><time>2026-05-05T10:14:14.999Z</time></trkpt><trkpt lat="41.58139380554667" lon="19.9506228379729"><ele>560.0</ele><time>2026-05-05T10:14:15.999Z</time></trkpt><trkpt lat="41.58138315563017" lon="19.950753886253008"><ele>560.0</ele><time>2026-05-05T10:14:16.999Z</time></trkpt><trkpt lat="41.581387870044" lon="19.95087303828205"><ele>560.0</ele><time>2026-05-05T10:14:17.999Z</time></trkpt><trkpt lat="41.58142965225774" lon="19.950985207674155"><ele>557.6</ele><time>2026-05-05T10:14:18.999Z</time></trkpt><trkpt lat="41.58149249180043" lon="19.951121144606354"><ele>555.2</ele><time>2026-05-05T10:14:19.999Z</time></trkpt><trkpt lat="41.58155288211973" lon="19.95125339167728"><ele>552.8</ele><time>2026-05-05T10:14:20.999Z</time></trkpt><trkpt lat="41.58160769330715" lon="19.951342052356804"><ele>550.4</ele><time>2026-05-05T10:14:21.999Z</time></trkpt><trkpt lat="41.581697917720504" lon="19.951409081505822"><ele>548.0</ele><time>2026-05-05T10:14:24Z</time></trkpt><trkpt lat="41.581684569270855" lon="19.95152586331687"><ele>548.0</ele><time>2026-05-05T10:14:26Z</time></trkpt><trkpt lat="41.581614929943065" lon="19.95159093416041"><ele>548.0</ele><time>2026-05-05T10:14:28Z</time></trkpt><trkpt lat="41.58150692286607" lon="19.951547139873707"><ele>548.0</ele><time>2026-05-05T10:14:30Z</time></trkpt><trkpt lat="41.58144208718791" lon="19.95147665290169"><ele>548.0</ele><time>2026-05-05T10:14:31Z</time></trkpt><trkpt lat="41.58140593040196" lon="19.951373133241617"><ele>548.0</ele><time>2026-05-05T10:14:32Z</time></trkpt><trkpt lat="41.58137712049877" lon="19.951239227951785"><ele>548.0</ele><time>2026-05-05T10:14:33Z</time></trkpt><trkpt lat="41.581331039730586" lon="19.951090613214728"><ele>548.0</ele><time>2026-05-05T10:14:34Z</time></trkpt><trkpt lat="41.58127347339967" lon="19.950965658900962"><ele>548.0</ele><time>2026-05-05T10:14:35Z</time></trkpt><trkpt lat="41.58122041266347" lon="19.950863835132527"><ele>548.0</ele><time>2026-05-05T10:14:36Z</time></trkpt><trkpt lat="41.581181789779926" lon="19.95074975017164"><ele>548.0</ele><time>2026-05-05T10:14:37Z</time></trkpt><trkpt lat="41.581171402135205" lon="19.950614176252813"><ele>545.0</ele><time>2026-05-05T10:14:38Z</time></trkpt><trkpt lat="41.58115270847741" lon="19.950488202167083"><ele>542.0</ele><time>2026-05-05T10:14:39Z</time></trkpt><trkpt lat="41.58110392036396" lon="19.950365309733808"><ele>539.0</ele><time>2026-05-05T10:14:40Z</time></trkpt><trkpt lat="41.58103017849144" lon="19.95024384491402"><ele>536.0</ele><time>2026-05-05T10:14:41Z</time></trkpt><trkpt lat="41.580966656067964" lon="19.950178646085035"><ele>533.0</ele><time>2026-05-05T10:14:42Z</time></trkpt><trkpt lat="41.58089623015919" lon="19.95015046990757"><ele>533.0</ele><time>2026-05-05T10:14:43Z</time></trkpt><trkpt lat="41.58079874257488" lon="19.950158866140622"><ele>533.0</ele><time>2026-05-05T10:14:44Z</time></trkpt><trkpt lat="41.58068588669907" lon="19.95019709127868"><ele>533.0</ele><time>2026-05-05T10:14:45Z</time></trkpt><trkpt lat="41.58057975890775" lon="19.950229477011373"><ele>533.0</ele><time>2026-05-05T10:14:46Z</time></trkpt><trkpt lat="41.58044827296329" lon="19.950247477098582"><ele>533.5</ele><time>2026-05-05T10:14:47Z</time></trkpt><trkpt lat="41.5803143077486" lon="19.950248361223377"><ele>534.0</ele><time>2026-05-05T10:14:48Z</time></trkpt><trkpt lat="41.58018684671806" lon="19.95024967903411"><ele>534.5</ele><time>2026-05-05T10:14:49Z</time></trkpt><trkpt lat="41.580078540489225" lon="19.950283536405585"><ele>535.0</ele><time>2026-05-05T10:14:50Z</time></trkpt><trkpt lat="41.57997280939333" lon="19.950348974004765"><ele>535.0</ele><time>2026-05-05T10:14:51Z</time></trkpt><trkpt lat="41.57987943181745" lon="19.95042212636007"><ele>535.0</ele><time>2026-05-05T10:14:52Z</time></trkpt><trkpt lat="41.57980353086907" lon="19.950490556714563"><ele>535.0</ele><time>2026-05-05T10:14:53Z</time></trkpt><trkpt lat="41.57974776785777" lon="19.95055650316071"><ele>535.0</ele><time>2026-05-05T10:14:54Z</time></trkpt><trkpt lat="41.579711560142044" lon="19.95063326005338"><ele>535.0</ele><time>2026-05-05T10:14:55Z</time></trkpt><trkpt lat="41.57976821136426" lon="19.950782511373976"><ele>531.1666666666667</ele><time>2026-05-05T10:14:57Z</time></trkpt><trkpt lat="41.57984001420959" lon="19.950879781898806"><ele>527.3333333333334</ele><time>2026-05-05T10:14:58Z</time></trkpt><trkpt lat="41.57987568278139" lon="19.950969598314582"><ele>523.5</ele><time>2026-05-05T10:14:59Z</time></trkpt><trkpt lat="41.579864331987416" lon="19.95106034382918"><ele>519.6666666666666</ele><time>2026-05-05T10:15:00Z</time></trkpt><trkpt lat="41.57982563753588" lon="19.95116840495481"><ele>515.8333333333333</ele><time>2026-05-05T10:15:01Z</time></trkpt><trkpt lat="41.57976219538036" lon="19.951291616513902"><ele>512.0</ele><time>2026-05-05T10:15:02Z</time></trkpt><trkpt lat="41.57968122816967" lon="19.951424221046942"><ele>512.0</ele><time>2026-05-05T10:15:03Z</time></trkpt><trkpt lat="41.57957932096823" lon="19.951543116210924"><ele>512.0</ele><time>2026-05-05T10:15:04Z</time></trkpt><trkpt lat="41.57945960000258" lon="19.951649700370783"><ele>512.0</ele><time>2026-05-05T10:15:05Z</time></trkpt><trkpt lat="41.579321626149394" lon="19.951730900198207"><ele>512.0</ele><time>2026-05-05T10:15:06Z</time></trkpt><trkpt lat="41.579190815277784" lon="19.95181635946088"><ele>510.5</ele><time>2026-05-05T10:15:07Z</time></trkpt><trkpt lat="41.57905182122181" lon="19.95191439306817"><ele>509.0</ele><time>2026-05-05T10:15:08Z</time></trkpt><trkpt lat="41.57892691763947" lon="19.95201088048691"><ele>507.5</ele><time>2026-05-05T10:15:09Z</time></trkpt><trkpt lat="41.57881618065418" lon="19.95210236553096"><ele>506.0</ele><time>2026-05-05T10:15:10Z</time></trkpt><trkpt lat="41.57870208715256" lon="19.95219023948464"><ele>508.5</ele><time>2026-05-05T10:15:11Z</time></trkpt><trkpt lat="41.57858673037986" lon="19.952273887966378"><ele>511.0</ele><time>2026-05-05T10:15:12Z</time></trkpt><trkpt lat="41.578465752236326" lon="19.952359263955135"><ele>513.5</ele><time>2026-05-05T10:15:13Z</time></trkpt><trkpt lat="41.578363666772354" lon="19.9524259220925"><ele>516.0</ele><time>2026-05-05T10:15:14Z</time></trkpt><trkpt lat="41.57828056182263" lon="19.952471657407514"><ele>516.0</ele><time>2026-05-05T10:15:15Z</time></trkpt><trkpt lat="41.57813866390594" lon="19.952458623887523"><ele>516.0</ele><time>2026-05-05T10:15:17Z</time></trkpt><trkpt lat="41.57806694139265" lon="19.952417432032178"><ele>516.0</ele><time>2026-05-05T10:15:18Z</time></trkpt><trkpt lat="41.578000373000556" lon="19.95240621815393"><ele>516.0</ele><time>2026-05-05T10:15:19Z</time></trkpt><trkpt lat="41.57787641019667" lon="19.952399219490253"><ele>516.0</ele><time>2026-05-05T10:15:20Z</time></trkpt><trkpt lat="41.57778542623544" lon="19.952463228672734"><ele>509.4</ele><time>2026-05-05T10:15:21Z</time></trkpt><trkpt lat="41.577690508318724" lon="19.952547565937273"><ele>502.8</ele><time>2026-05-05T10:15:22Z</time></trkpt><trkpt lat="41.57760224808692" lon="19.9526031997396"><ele>496.19999999999993</ele><time>2026-05-05T10:15:23Z</time></trkpt><trkpt lat="41.57751942589604" lon="19.95262370389676"><ele>489.59999999999997</ele><time>2026-05-05T10:15:24Z</time></trkpt><trkpt lat="41.5774236932273" lon="19.952615749897717"><ele>483.0</ele><time>2026-05-05T10:15:25Z</time></trkpt><trkpt lat="41.577324710629" lon="19.952576726072394"><ele>492.0</ele><time>2026-05-05T10:15:26Z</time></trkpt><trkpt lat="41.57722621606573" lon="19.95252601002754"><ele>501.0</ele><time>2026-05-05T10:15:27Z</time></trkpt><trkpt lat="41.57711498669038" lon="19.95250957185755"><ele>510.0</ele><time>2026-05-05T10:15:28Z</time></trkpt><trkpt lat="41.576991351389154" lon="19.952522523783742"><ele>519.0</ele><time>2026-05-05T10:15:29Z</time></trkpt><trkpt lat="41.57688199068642" lon="19.952530016462795"><ele>521.6</ele><time>2026-05-05T10:15:30Z</time></trkpt><trkpt lat="41.57679587051712" lon="19.952534942378048"><ele>524.2</ele><time>2026-05-05T10:15:31Z</time></trkpt><trkpt lat="41.576706277694164" lon="19.952615079694798"><ele>526.8000000000001</ele><time>2026-05-05T10:15:33Z</time></trkpt><trkpt lat="41.57666886396031" lon="19.952712007742512"><ele>529.4</ele><time>2026-05-05T10:15:34Z</time></trkpt><trkpt lat="41.57662701819264" lon="19.95283890327639"><ele>532.0</ele><time>2026-05-05T10:15:35Z</time></trkpt><trkpt lat="41.576545845524414" lon="19.95295258305309"><ele>529.5</ele><time>2026-05-05T10:15:36Z</time></trkpt><trkpt lat="41.57643354743164" lon="19.953061196026223"><ele>527.0</ele><time>2026-05-05T10:15:37Z</time></trkpt><trkpt lat="41.57630938607667" lon="19.953151694848028"><ele>524.5</ele><time>2026-05-05T10:15:38Z</time></trkpt><trkpt lat="41.57617404959637" lon="19.953236126293483"><ele>522.0</ele><time>2026-05-05T10:15:39Z</time></trkpt><trkpt lat="41.57606450289362" lon="19.953307944112883"><ele>515.0</ele><time>2026-05-05T10:15:40Z</time></trkpt><trkpt lat="41.57599443333246" lon="19.95340390529224"><ele>508.00000000000006</ele><time>2026-05-05T10:15:41Z</time></trkpt><trkpt lat="41.5759401759697" lon="19.953548012818878"><ele>501.00000000000006</ele><time>2026-05-05T10:15:42Z</time></trkpt><trkpt lat="41.57591016600799" lon="19.95367525234656"><ele>494.0</ele><time>2026-05-05T10:15:43Z</time></trkpt><trkpt lat="41.575869764627036" lon="19.953757293622004"><ele>487.0</ele><time>2026-05-05T10:15:44Z</time></trkpt><trkpt lat="41.57581331440531" lon="19.95381120422661"><ele>487.0</ele><time>2026-05-05T10:15:45Z</time></trkpt><trkpt lat="41.575742627905825" lon="19.953860399249443"><ele>487.0</ele><time>2026-05-05T10:15:46Z</time></trkpt><trkpt lat="41.575674537879905" lon="19.9539096788638"><ele>487.0</ele><time>2026-05-05T10:15:47Z</time></trkpt><trkpt lat="41.575538196217394" lon="19.954011686580355"><ele>487.0</ele><time>2026-05-05T10:15:47.999Z</time></trkpt><trkpt lat="41.575409092277816" lon="19.954071076041497"><ele>487.6</ele><time>2026-05-05T10:15:48.999Z</time></trkpt><trkpt lat="41.575301451729565" lon="19.954102633058614"><ele>488.20000000000005</ele><time>2026-05-05T10:15:49.999Z</time></trkpt><trkpt lat="41.57521643214265" lon="19.954103389030518"><ele>488.8</ele><time>2026-05-05T10:15:50.999Z</time></trkpt><trkpt lat="41.575148251772546" lon="19.954061107909702"><ele>489.4</ele><time>2026-05-05T10:15:51.999Z</time></trkpt><trkpt lat="41.57507126738573" lon="19.953966461384248"><ele>490.0</ele><time>2026-05-05T10:15:53.999Z</time></trkpt><trkpt lat="41.57497210711321" lon="19.954072991854634"><ele>484.0</ele><time>2026-05-05T10:15:55.999Z</time></trkpt><trkpt lat="41.5750112742132" lon="19.95421661941934"><ele>478.0</ele><time>2026-05-05T10:15:57.999Z</time></trkpt><trkpt lat="41.57507500336589" lon="19.95427708904596"><ele>472.0</ele><time>2026-05-05T10:15:58.999Z</time></trkpt><trkpt lat="41.575163444095104" lon="19.954303785449536"><ele>466.0</ele><time>2026-05-05T10:15:59.999Z</time></trkpt><trkpt lat="41.57526687339204" lon="19.95429222679762"><ele>460.0</ele><time>2026-05-05T10:16:00.999Z</time></trkpt><trkpt lat="41.57538113387486" lon="19.95425485546842"><ele>466.75</ele><time>2026-05-05T10:16:01.999Z</time></trkpt><trkpt lat="41.57550061400549" lon="19.954193686304542"><ele>473.5</ele><time>2026-05-05T10:16:02.999Z</time></trkpt><trkpt lat="41.57562327029822" lon="19.954150074348924"><ele>480.25</ele><time>2026-05-05T10:16:03.999Z</time></trkpt><trkpt lat="41.57575610523917" lon="19.954116033018988"><ele>487.0</ele><time>2026-05-05T10:16:04.999Z</time></trkpt><trkpt lat="41.57588424604282" lon="19.954075248182765"><ele>487.0</ele><time>2026-05-05T10:16:05.999Z</time></trkpt><trkpt lat="41.57599597470221" lon="19.954051860773696"><ele>487.00000000000006</ele><time>2026-05-05T10:16:06.999Z</time></trkpt><trkpt lat="41.57609014059598" lon="19.954013896067817"><ele>487.00000000000006</ele><time>2026-05-05T10:16:07.999Z</time></trkpt><trkpt lat="41.576159988413416" lon="19.95393745585796"><ele>487.0</ele><time>2026-05-05T10:16:08.999Z</time></trkpt><trkpt lat="41.57620762947806" lon="19.953823216388873"><ele>487.0</ele><time>2026-05-05T10:16:09.999Z</time></trkpt><trkpt lat="41.57623298530129" lon="19.953688361772322"><ele>482.0</ele><time>2026-05-05T10:16:10.999Z</time></trkpt><trkpt lat="41.576272521139785" lon="19.95358362249862"><ele>477.00000000000006</ele><time>2026-05-05T10:16:11.999Z</time></trkpt><trkpt lat="41.57635423301806" lon="19.953538182787504"><ele>472.00000000000006</ele><time>2026-05-05T10:16:12.999Z</time></trkpt><trkpt lat="41.576464039484264" lon="19.95352821884924"><ele>467.0</ele><time>2026-05-05T10:16:13.999Z</time></trkpt><trkpt lat="41.57656533581685" lon="19.95353465241996"><ele>462.0</ele><time>2026-05-05T10:16:14.999Z</time></trkpt><trkpt lat="41.57664355632077" lon="19.953504780938875"><ele>462.0</ele><time>2026-05-05T10:16:15.999Z</time></trkpt><trkpt lat="41.57671927375665" lon="19.953427031390337"><ele>462.00000000000006</ele><time>2026-05-05T10:16:16.999Z</time></trkpt><trkpt lat="41.57678072732342" lon="19.953313451922554"><ele>462.00000000000006</ele><time>2026-05-05T10:16:17.999Z</time></trkpt><trkpt lat="41.576866151041955" lon="19.953191875564638"><ele>462.0</ele><time>2026-05-05T10:16:18.999Z</time></trkpt><trkpt lat="41.5769363052856" lon="19.95310456477386"><ele>462.0</ele><time>2026-05-05T10:16:19.999Z</time></trkpt><trkpt lat="41.57699952648071" lon="19.953076734247684"><ele>467.25</ele><time>2026-05-05T10:16:20.999Z</time></trkpt><trkpt lat="41.57713732021971" lon="19.95312273016305"><ele>472.5</ele><time>2026-05-05T10:16:22.999Z</time></trkpt><trkpt lat="41.577226598165055" lon="19.953178368741657"><ele>477.75</ele><time>2026-05-05T10:16:23.999Z</time></trkpt><trkpt lat="41.57732303518381" lon="19.953260158126856"><ele>483.0</ele><time>2026-05-05T10:16:24.999Z</time></trkpt><trkpt lat="41.57740413000909" lon="19.953332062338717"><ele>476.79999999999995</ele><time>2026-05-05T10:16:25.999Z</time></trkpt><trkpt lat="41.57747199721571" lon="19.953409843638998"><ele>470.59999999999997</ele><time>2026-05-05T10:16:26.999Z</time></trkpt><trkpt lat="41.577527128753985" lon="19.953519987239495"><ele>464.40000000000003</ele><time>2026-05-05T10:16:27.999Z</time></trkpt><trkpt lat="41.5775841552392" lon="19.953636095694346"><ele>458.20000000000005</ele><time>2026-05-05T10:16:28.999Z</time></trkpt><trkpt lat="41.577648923265556" lon="19.953735450805407"><ele>452.0</ele><time>2026-05-05T10:16:30Z</time></trkpt><trkpt lat="41.57770177665458" lon="19.95379939795299"><ele>451.99999999999994</ele><time>2026-05-05T10:16:31Z</time></trkpt><trkpt lat="41.57777350623656" lon="19.95382130007944"><ele>452.0</ele><time>2026-05-05T10:16:32Z</time></trkpt><trkpt lat="41.577847696261514" lon="19.9537941644494"><ele>452.0</ele><time>2026-05-05T10:16:33Z</time></trkpt><trkpt lat="41.57790474319892" lon="19.953720911231635"><ele>452.0</ele><time>2026-05-05T10:16:34Z</time></trkpt><trkpt lat="41.57795343379422" lon="19.95361042316078"><ele>451.99999999999994</ele><time>2026-05-05T10:16:35Z</time></trkpt><trkpt lat="41.57799765844834" lon="19.953485046346582"><ele>452.0</ele><time>2026-05-05T10:16:36Z</time></trkpt><trkpt lat="41.57806044652167" lon="19.95346334366209"><ele>450.8</ele><time>2026-05-05T10:16:37Z</time></trkpt><trkpt lat="41.57814261231077" lon="19.953492545271263"><ele>449.6</ele><time>2026-05-05T10:16:38Z</time></trkpt><trkpt lat="41.57819281772703" lon="19.953554990005127"><ele>448.40000000000003</ele><time>2026-05-05T10:16:39Z</time></trkpt><trkpt lat="41.57825497866785" lon="19.953640465378687"><ele>447.20000000000005</ele><time>2026-05-05T10:16:40Z</time></trkpt><trkpt lat="41.578345229408065" lon="19.95374927387056"><ele>446.0</ele><time>2026-05-05T10:16:41Z</time></trkpt><trkpt lat="41.57842906446111" lon="19.95383656646753"><ele>446.0</ele><time>2026-05-05T10:16:42Z</time></trkpt><trkpt lat="41.57851375868992" lon="19.953859490445"><ele>446.0</ele><time>2026-05-05T10:16:43Z</time></trkpt><trkpt lat="41.57861343477085" lon="19.953845752054114"><ele>446.0</ele><time>2026-05-05T10:16:44Z</time></trkpt><trkpt lat="41.57873163981926" lon="19.953806871200857"><ele>446.0</ele><time>2026-05-05T10:16:45Z</time></trkpt><trkpt lat="41.57886378385805" lon="19.953771890456906"><ele>446.0</ele><time>2026-05-05T10:16:46Z</time></trkpt><trkpt lat="41.5789848278708" lon="19.953757975534153"><ele>445.8</ele><time>2026-05-05T10:16:47Z</time></trkpt><trkpt lat="41.57909053772109" lon="19.953773222681797"><ele>445.6</ele><time>2026-05-05T10:16:48Z</time></trkpt><trkpt lat="41.57918301604644" lon="19.95382338252764"><ele>445.4</ele><time>2026-05-05T10:16:49Z</time></trkpt><trkpt lat="41.57925287880638" lon="19.953896254366743"><ele>445.2</ele><time>2026-05-05T10:16:50Z</time></trkpt><trkpt lat="41.57931248713938" lon="19.95400021043126"><ele>445.0</ele><time>2026-05-05T10:16:51Z</time></trkpt><trkpt lat="41.579359946462496" lon="19.95411208475407"><ele>443.33333333333337</ele><time>2026-05-05T10:16:52Z</time></trkpt><trkpt lat="41.579404789992765" lon="19.95422674590814"><ele>441.6666666666667</ele><time>2026-05-05T10:16:53Z</time></trkpt><trkpt lat="41.579433429641874" lon="19.954345479831304"><ele>440.0</ele><time>2026-05-05T10:16:54Z</time></trkpt><trkpt lat="41.57942347795613" lon="19.954450578994326"><ele>438.33333333333337</ele><time>2026-05-05T10:16:55Z</time></trkpt><trkpt lat="41.57939387411102" lon="19.954562496452592"><ele>436.6666666666667</ele><time>2026-05-05T10:16:56Z</time></trkpt><trkpt lat="41.57937491816419" lon="19.954675895602268"><ele>435.0</ele><time>2026-05-05T10:16:57Z</time></trkpt><trkpt lat="41.57935924902839" lon="19.954807165565583"><ele>435.0</ele><time>2026-05-05T10:16:58Z</time></trkpt><trkpt lat="41.579334383546424" lon="19.954933571136404"><ele>435.0</ele><time>2026-05-05T10:16:59Z</time></trkpt><trkpt lat="41.57930294114832" lon="19.955047748589635"><ele>435.0</ele><time>2026-05-05T10:17:00Z</time></trkpt><trkpt lat="41.57927065718142" lon="19.95515995595165"><ele>435.0</ele><time>2026-05-05T10:17:01Z</time></trkpt><trkpt lat="41.579240686370696" lon="19.95527112228135"><ele>435.0</ele><time>2026-05-05T10:17:02Z</time></trkpt><trkpt lat="41.57921317624818" lon="19.95537616634932"><ele>433.8333333333333</ele><time>2026-05-05T10:17:03Z</time></trkpt><trkpt lat="41.57918162963414" lon="19.955485151252795"><ele>432.66666666666663</ele><time>2026-05-05T10:17:04Z</time></trkpt><trkpt lat="41.57914263958828" lon="19.95558615353949"><ele>431.5</ele><time>2026-05-05T10:17:05Z</time></trkpt><trkpt lat="41.57908736487031" lon="19.95567065059077"><ele>430.3333333333333</ele><time>2026-05-05T10:17:06Z</time></trkpt><trkpt lat="41.579030913230014" lon="19.955743114386674"><ele>429.16666666666663</ele><time>2026-05-05T10:17:07Z</time></trkpt><trkpt lat="41.578977540156295" lon="19.955819050288504"><ele>428.0</ele><time>2026-05-05T10:17:08Z</time></trkpt><trkpt lat="41.57892682038503" lon="19.955893830052112"><ele>425.8333333333333</ele><time>2026-05-05T10:17:09Z</time></trkpt><trkpt lat="41.57888371106399" lon="19.95597957488127"><ele>423.66666666666663</ele><time>2026-05-05T10:17:10Z</time></trkpt><trkpt lat="41.578871362221406" lon="19.956066574502966"><ele>421.5</ele><time>2026-05-05T10:17:11Z</time></trkpt><trkpt lat="41.57889012484402" lon="19.956147999526674"><ele>419.33333333333337</ele><time>2026-05-05T10:17:12Z</time></trkpt><trkpt lat="41.57894272205815" lon="19.956231266437847"><ele>417.1666666666667</ele><time>2026-05-05T10:17:13Z</time></trkpt><trkpt lat="41.579016964617985" lon="19.95628955637446"><ele>415.0</ele><time>2026-05-05T10:17:14Z</time></trkpt><trkpt lat="41.579106265941654" lon="19.95632741317837"><ele>415.0</ele><time>2026-05-05T10:17:15Z</time></trkpt><trkpt lat="41.57921994045533" lon="19.956340665568874"><ele>415.0</ele><time>2026-05-05T10:17:16Z</time></trkpt><trkpt lat="41.57934349646229" lon="19.956325380414455"><ele>415.0</ele><time>2026-05-05T10:17:17Z</time></trkpt><trkpt lat="41.57947898502794" lon="19.956324047493553"><ele>415.0</ele><time>2026-05-05T10:17:18Z</time></trkpt><trkpt lat="41.57956865366262" lon="19.956339809317566"><ele>412.6</ele><time>2026-05-05T10:17:19Z</time></trkpt><trkpt lat="41.5796308463482" lon="19.956321776362525"><ele>410.2</ele><time>2026-05-05T10:17:20Z</time></trkpt><trkpt lat="41.57968161705742" lon="19.956245080295155"><ele>407.79999999999995</ele><time>2026-05-05T10:17:21Z</time></trkpt><trkpt lat="41.579737312074364" lon="19.956130500221892"><ele>405.4</ele><time>2026-05-05T10:17:22Z</time></trkpt><trkpt lat="41.57981519625584" lon="19.956009536533745"><ele>403.0</ele><time>2026-05-05T10:17:23Z</time></trkpt><trkpt lat="41.579902652269794" lon="19.955935557907825"><ele>403.0</ele><time>2026-05-05T10:17:24Z</time></trkpt><trkpt lat="41.57999351455472" lon="19.955906954331645"><ele>403.0</ele><time>2026-05-05T10:17:25Z</time></trkpt><trkpt lat="41.58006532650991" lon="19.955842148179954"><ele>403.0</ele><time>2026-05-05T10:17:26Z</time></trkpt><trkpt lat="41.58009669549655" lon="19.955733351729855"><ele>403.0</ele><time>2026-05-05T10:17:27Z</time></trkpt><trkpt lat="41.580111436663806" lon="19.955578060389882"><ele>403.0</ele><time>2026-05-05T10:17:28Z</time></trkpt><trkpt lat="41.58009576381859" lon="19.95540612301551"><ele>405.6666666666667</ele><time>2026-05-05T10:17:29Z</time></trkpt><trkpt lat="41.580079055319146" lon="19.95524888781026"><ele>408.33333333333337</ele><time>2026-05-05T10:17:30Z</time></trkpt><trkpt lat="41.58008551261563" lon="19.955138207618685"><ele>411.0</ele><time>2026-05-05T10:17:31Z</time></trkpt><trkpt lat="41.58010310467898" lon="19.95503838961658"><ele>413.66666666666663</ele><time>2026-05-05T10:17:32Z</time></trkpt><trkpt lat="41.58014095774938" lon="19.95496665845282"><ele>416.3333333333333</ele><time>2026-05-05T10:17:33Z</time></trkpt><trkpt lat="41.5801994771913" lon="19.954934291423733"><ele>419.0</ele><time>2026-05-05T10:17:34Z</time></trkpt><trkpt lat="41.58026630521029" lon="19.95494241705145"><ele>418.79999999999995</ele><time>2026-05-05T10:17:35Z</time></trkpt><trkpt lat="41.58033174387933" lon="19.954992488695364"><ele>418.59999999999997</ele><time>2026-05-05T10:17:36Z</time></trkpt><trkpt lat="41.580403727143526" lon="19.955068668100814"><ele>418.4</ele><time>2026-05-05T10:17:37Z</time></trkpt><trkpt lat="41.58043129088538" lon="19.95517989362643"><ele>418.2</ele><time>2026-05-05T10:17:38Z</time></trkpt><trkpt lat="41.58045446586572" lon="19.955332090255315"><ele>418.0</ele><time>2026-05-05T10:17:39Z</time></trkpt><trkpt lat="41.58050677201186" lon="19.95550858091106"><ele>418.0</ele><time>2026-05-05T10:17:40Z</time></trkpt><trkpt lat="41.58054067729447" lon="19.95571618894871"><ele>418.0</ele><time>2026-05-05T10:17:41Z</time></trkpt><trkpt lat="41.580534769944684" lon="19.95589773260055"><ele>418.0</ele><time>2026-05-05T10:17:42Z</time></trkpt><trkpt lat="41.58052233886839" lon="19.956051474491545"><ele>418.0</ele><time>2026-05-05T10:17:43Z</time></trkpt><trkpt lat="41.58049290081635" lon="19.956196921042878"><ele>414.0</ele><time>2026-05-05T10:17:44Z</time></trkpt><trkpt lat="41.58044331289368" lon="19.956343868047927"><ele>410.0</ele><time>2026-05-05T10:17:45Z</time></trkpt><trkpt lat="41.580430445119184" lon="19.956505611199493"><ele>406.0</ele><time>2026-05-05T10:17:46Z</time></trkpt><trkpt lat="41.58040999888804" lon="19.956659673757418"><ele>402.0</ele><time>2026-05-05T10:17:47Z</time></trkpt><trkpt lat="41.58038226647243" lon="19.956791242951105"><ele>399.6666666666667</ele><time>2026-05-05T10:17:48Z</time></trkpt><trkpt lat="41.58035819773084" lon="19.95689194972691"><ele>397.33333333333337</ele><time>2026-05-05T10:17:49Z</time></trkpt><trkpt lat="41.580361147610816" lon="19.95698703563737"><ele>395.0</ele><time>2026-05-05T10:17:50Z</time></trkpt><trkpt lat="41.580397339505836" lon="19.957075199911333"><ele>392.6666666666667</ele><time>2026-05-05T10:17:51Z</time></trkpt><trkpt lat="41.58046077405242" lon="19.957134314707623"><ele>390.33333333333337</ele><time>2026-05-05T10:17:52Z</time></trkpt><trkpt lat="41.58054455000291" lon="19.957159778832445"><ele>388.0</ele><time>2026-05-05T10:17:53Z</time></trkpt><trkpt lat="41.58063784149049" lon="19.957167084203753"><ele>388.00000000000006</ele><time>2026-05-05T10:17:54Z</time></trkpt><trkpt lat="41.580738370704324" lon="19.957174706127553"><ele>388.0</ele><time>2026-05-05T10:17:55Z</time></trkpt><trkpt lat="41.5808241911473" lon="19.957194017727716"><ele>388.0</ele><time>2026-05-05T10:17:56Z</time></trkpt><trkpt lat="41.58089334140525" lon="19.957254644400408"><ele>388.0</ele><time>2026-05-05T10:17:57Z</time></trkpt><trkpt lat="41.58094744828669" lon="19.95732502906585"><ele>388.00000000000006</ele><time>2026-05-05T10:17:58Z</time></trkpt><trkpt lat="41.581001302349335" lon="19.95739042497991"><ele>388.0</ele><time>2026-05-05T10:17:59Z</time></trkpt><trkpt lat="41.581058150683916" lon="19.95744663368033"><ele>388.00000000000006</ele><time>2026-05-05T10:18:00Z</time></trkpt><trkpt lat="41.58111541837527" lon="19.957498583143778"><ele>388.0</ele><time>2026-05-05T10:18:01Z</time></trkpt><trkpt lat="41.5811685429368" lon="19.957543858833333"><ele>388.0</ele><time>2026-05-05T10:18:02Z</time></trkpt><trkpt lat="41.5812742245655" lon="19.957602769123046"><ele>388.0</ele><time>2026-05-05T10:18:04Z</time></trkpt><trkpt lat="41.58119700506161" lon="19.95762987347534"><ele>388.00000000000006</ele><time>2026-05-05T10:18:10Z</time></trkpt><trkpt lat="41.58113104294536" lon="19.95755271898687"><ele>388.0</ele><time>2026-05-05T10:18:11Z</time></trkpt><trkpt lat="41.58106656985408" lon="19.957480094769984"><ele>388.0</ele><time>2026-05-05T10:18:12Z</time></trkpt><trkpt lat="41.58099903970895" lon="19.957410682380306"><ele>388.0</ele><time>2026-05-05T10:18:13Z</time></trkpt><trkpt lat="41.5809267629459" lon="19.95732773619583"><ele>388.0</ele><time>2026-05-05T10:18:14Z</time></trkpt><trkpt lat="41.58084412139004" lon="19.957244118905074"><ele>388.0</ele><time>2026-05-05T10:18:15Z</time></trkpt><trkpt lat="41.58075719436748" lon="19.957174503605835"><ele>388.0</ele><time>2026-05-05T10:18:16Z</time></trkpt><trkpt lat="41.5806802452083" lon="19.95712948244951"><ele>388.00000000000006</ele><time>2026-05-05T10:18:17Z</time></trkpt><trkpt lat="41.580601798584176" lon="19.957115733228605"><ele>388.0</ele><time>2026-05-05T10:18:18Z</time></trkpt><trkpt lat="41.58050600279812" lon="19.957117545470993"><ele>388.0</ele><time>2026-05-05T10:18:19Z</time></trkpt><trkpt lat="41.58042848539213" lon="19.957097069948695"><ele>388.0</ele><time>2026-05-05T10:18:20Z</time></trkpt><trkpt lat="41.58037564568023" lon="19.95702457789721"><ele>388.00000000000006</ele><time>2026-05-05T10:18:21Z</time></trkpt><trkpt lat="41.5803481963026" lon="19.956928784753675"><ele>388.0</ele><time>2026-05-05T10:18:21.999Z</time></trkpt><trkpt lat="41.580349753191356" lon="19.956823423607172"><ele>388.0</ele><time>2026-05-05T10:18:22.999Z</time></trkpt><trkpt lat="41.580378793350036" lon="19.956709461602472"><ele>388.0</ele><time>2026-05-05T10:18:23.999Z</time></trkpt><trkpt lat="41.580425119770254" lon="19.956590983035213"><ele>388.0</ele><time>2026-05-05T10:18:24.999Z</time></trkpt><trkpt lat="41.580460335620906" lon="19.95644697673169"><ele>388.0</ele><time>2026-05-05T10:18:25.999Z</time></trkpt><trkpt lat="41.58046876605976" lon="19.956273193522566"><ele>388.0</ele><time>2026-05-05T10:18:26.999Z</time></trkpt><trkpt lat="41.58048645250483" lon="19.956088687512544"><ele>391.5</ele><time>2026-05-05T10:18:27.999Z</time></trkpt><trkpt lat="41.58051226841965" lon="19.955935584747778"><ele>395.0</ele><time>2026-05-05T10:18:28.999Z</time></trkpt><trkpt lat="41.58052524117681" lon="19.95578656942555"><ele>398.5</ele><time>2026-05-05T10:18:29.999Z</time></trkpt><trkpt lat="41.58050492713771" lon="19.955609488542304"><ele>402.0</ele><time>2026-05-05T10:18:30.999Z</time></trkpt><trkpt lat="41.580471520540584" lon="19.955427348732055"><ele>406.0</ele><time>2026-05-05T10:18:31.999Z</time></trkpt><trkpt lat="41.580422128274954" lon="19.95525701803148"><ele>410.0</ele><time>2026-05-05T10:18:32.999Z</time></trkpt><trkpt lat="41.580369098864004" lon="19.955112606969656"><ele>414.0</ele><time>2026-05-05T10:18:33.999Z</time></trkpt><trkpt lat="41.58032766366399" lon="19.955019120397843"><ele>418.0</ele><time>2026-05-05T10:18:34.999Z</time></trkpt><trkpt lat="41.580220951256855" lon="19.954964924819105"><ele>418.2</ele><time>2026-05-05T10:18:37Z</time></trkpt><trkpt lat="41.58014567772385" lon="19.95500554662741"><ele>418.4</ele><time>2026-05-05T10:18:38Z</time></trkpt><trkpt lat="41.5800948752377" lon="19.955078158500363"><ele>418.59999999999997</ele><time>2026-05-05T10:18:39Z</time></trkpt><trkpt lat="41.58007946685245" lon="19.95517706640473"><ele>418.79999999999995</ele><time>2026-05-05T10:18:40Z</time></trkpt><trkpt lat="41.58007466899817" lon="19.95531480276884"><ele>419.0</ele><time>2026-05-05T10:18:41Z</time></trkpt><trkpt lat="41.580081531151095" lon="19.95546935930694"><ele>418.99999999999994</ele><time>2026-05-05T10:18:42Z</time></trkpt><trkpt lat="41.580083745929436" lon="19.955592495451462"><ele>419.0</ele><time>2026-05-05T10:18:43Z</time></trkpt><trkpt lat="41.58007332747986" lon="19.9557020769066"><ele>419.0</ele><time>2026-05-05T10:18:44Z</time></trkpt><trkpt lat="41.58005552762646" lon="19.955806301552276"><ele>419.0</ele><time>2026-05-05T10:18:45Z</time></trkpt><trkpt lat="41.580010541101494" lon="19.955910101815558"><ele>418.99999999999994</ele><time>2026-05-05T10:18:46.001Z</time></trkpt><trkpt lat="41.5799373057839" lon="19.955991957857474"><ele>419.0</ele><time>2026-05-05T10:18:46.999Z</time></trkpt><trkpt lat="41.579844355398734" lon="19.95605131418116"><ele>418.3333333333333</ele><time>2026-05-05T10:18:48Z</time></trkpt><trkpt lat="41.579750900481216" lon="19.956086340603694"><ele>417.66666666666663</ele><time>2026-05-05T10:18:49Z</time></trkpt><trkpt lat="41.57968820463612" lon="19.956134449693014"><ele>417.0</ele><time>2026-05-05T10:18:50Z</time></trkpt><trkpt lat="41.579652862891635" lon="19.956216053170447"><ele>416.33333333333337</ele><time>2026-05-05T10:18:50.999Z</time></trkpt><trkpt lat="41.579620636478005" lon="19.95629873728173"><ele>415.6666666666667</ele><time>2026-05-05T10:18:51.999Z</time></trkpt><trkpt lat="41.57951127983062" lon="19.956372007064147"><ele>415.0</ele><time>2026-05-05T10:18:53.999Z</time></trkpt><trkpt lat="41.5794098660102" lon="19.956353543465678"><ele>415.0</ele><time>2026-05-05T10:18:55.999Z</time></trkpt><trkpt lat="41.5793213403675" lon="19.95632246814599"><ele>415.0</ele><time>2026-05-05T10:18:57.999Z</time></trkpt><trkpt lat="41.579209719059705" lon="19.956335841065766"><ele>415.0</ele><time>2026-05-05T10:18:59.999Z</time></trkpt><trkpt lat="41.579148485979644" lon="19.9563560491755"><ele>415.0</ele><time>2026-05-05T10:19:00.999Z</time></trkpt><trkpt lat="41.57903380047144" lon="19.95632137143603"><ele>415.0</ele><time>2026-05-05T10:19:02.999Z</time></trkpt><trkpt lat="41.57894604141104" lon="19.95623104075976"><ele>415.0</ele><time>2026-05-05T10:19:04.999Z</time></trkpt><trkpt lat="41.57886332297973" lon="19.956181526045306"><ele>415.0</ele><time>2026-05-05T10:19:06.999Z</time></trkpt><trkpt lat="41.579019994066165" lon="19.956282986147574"><ele>415.0</ele><time>2026-05-05T10:25:31Z</time></trkpt><trkpt lat="41.57910206141223" lon="19.956332575487938"><ele>415.0</ele><time>2026-05-05T10:25:32Z</time></trkpt><trkpt lat="41.57918791550854" lon="19.956342554382942"><ele>415.0</ele><time>2026-05-05T10:25:33Z</time></trkpt><trkpt lat="41.579288696018054" lon="19.956326755176132"><ele>415.0</ele><time>2026-05-05T10:25:34Z</time></trkpt><trkpt lat="41.57940085617006" lon="19.956326454346733"><ele>415.0</ele><time>2026-05-05T10:25:35Z</time></trkpt><trkpt lat="41.57950624708367" lon="19.95634664149499"><ele>415.0</ele><time>2026-05-05T10:25:36Z</time></trkpt><trkpt lat="41.5795866145112" lon="19.956339800432133"><ele>415.0</ele><time>2026-05-05T10:25:37Z</time></trkpt><trkpt lat="41.57965412790036" lon="19.95629566928836"><ele>415.0</ele><time>2026-05-05T10:25:38Z</time></trkpt><trkpt lat="41.57970231381742" lon="19.95620181436395"><ele>415.8</ele><time>2026-05-05T10:25:39Z</time></trkpt><trkpt lat="41.57975907665447" lon="19.956087322736867"><ele>416.6</ele><time>2026-05-05T10:25:40Z</time></trkpt><trkpt lat="41.57982577882825" lon="19.956009579383526"><ele>417.4</ele><time>2026-05-05T10:25:41Z</time></trkpt><trkpt lat="41.57990753215651" lon="19.95596056626291"><ele>418.2</ele><time>2026-05-05T10:25:42Z</time></trkpt><trkpt lat="41.579998288702214" lon="19.9559157733821"><ele>419.0</ele><time>2026-05-05T10:25:43Z</time></trkpt><trkpt lat="41.58006406233548" lon="19.95583159641938"><ele>419.0</ele><time>2026-05-05T10:25:44Z</time></trkpt><trkpt lat="41.58009851918475" lon="19.955704333459295"><ele>419.0</ele><time>2026-05-05T10:25:45Z</time></trkpt><trkpt lat="41.580103234643204" lon="19.955549398598848"><ele>419.0</ele><time>2026-05-05T10:25:46Z</time></trkpt><trkpt lat="41.58008613554537" lon="19.955389969391046"><ele>419.0</ele><time>2026-05-05T10:25:47Z</time></trkpt><trkpt lat="41.58007760302823" lon="19.95524689388839"><ele>419.0</ele><time>2026-05-05T10:25:48Z</time></trkpt><trkpt lat="41.580090945535666" lon="19.95513495961279"><ele>418.99999999999994</ele><time>2026-05-05T10:25:49Z</time></trkpt><trkpt lat="41.58012066202353" lon="19.95504861071935"><ele>419.0</ele><time>2026-05-05T10:25:50Z</time></trkpt><trkpt lat="41.58021776264152" lon="19.9549668516442"><ele>419.0</ele><time>2026-05-05T10:25:52Z</time></trkpt><trkpt lat="41.58028603334697" lon="19.954979026619828"><ele>419.0</ele><time>2026-05-05T10:25:53Z</time></trkpt><trkpt lat="41.58035222473336" lon="19.955032166739606"><ele>418.99999999999994</ele><time>2026-05-05T10:25:54Z</time></trkpt><trkpt lat="41.580392492263194" lon="19.955117634021747"><ele>419.0</ele><time>2026-05-05T10:25:55Z</time></trkpt><trkpt lat="41.58041581528627" lon="19.955242939775832"><ele>418.75</ele><time>2026-05-05T10:25:56Z</time></trkpt><trkpt lat="41.58044505684588" lon="19.955369148715832"><ele>418.5</ele><time>2026-05-05T10:25:57Z</time></trkpt><trkpt lat="41.58050672299522" lon="19.95551448104639"><ele>418.25</ele><time>2026-05-05T10:25:58Z</time></trkpt><trkpt lat="41.58053533251346" lon="19.955718804388642"><ele>418.0</ele><time>2026-05-05T10:25:59Z</time></trkpt><trkpt lat="41.58054712509221" lon="19.955897739422557"><ele>414.0</ele><time>2026-05-05T10:26:00Z</time></trkpt><trkpt lat="41.58052063359218" lon="19.956083600887276"><ele>410.0</ele><time>2026-05-05T10:26:01Z</time></trkpt><trkpt lat="41.580493411493755" lon="19.956260423542066"><ele>406.0</ele><time>2026-05-05T10:26:02Z</time></trkpt><trkpt lat="41.58045489208741" lon="19.95642961563258"><ele>402.0</ele><time>2026-05-05T10:26:03Z</time></trkpt><trkpt lat="41.58042802272731" lon="19.956600545705353"><ele>399.6666666666667</ele><time>2026-05-05T10:26:04Z</time></trkpt><trkpt lat="41.580395813676446" lon="19.95674738955527"><ele>397.33333333333337</ele><time>2026-05-05T10:26:05Z</time></trkpt><trkpt lat="41.58036475599858" lon="19.95687781424086"><ele>395.0</ele><time>2026-05-05T10:26:06Z</time></trkpt><trkpt lat="41.580364744097714" lon="19.956989763248362"><ele>392.6666666666667</ele><time>2026-05-05T10:26:07Z</time></trkpt><trkpt lat="41.580399507821234" lon="19.95707558059705"><ele>390.33333333333337</ele><time>2026-05-05T10:26:08Z</time></trkpt><trkpt lat="41.580457059718846" lon="19.957127080812263"><ele>388.0</ele><time>2026-05-05T10:26:09Z</time></trkpt><trkpt lat="41.58054164888485" lon="19.957143708752238"><ele>388.0</ele><time>2026-05-05T10:26:10Z</time></trkpt><trkpt lat="41.580648963923075" lon="19.957153526385422"><ele>388.0</ele><time>2026-05-05T10:26:11Z</time></trkpt><trkpt lat="41.580746835497635" lon="19.957181307242756"><ele>388.0</ele><time>2026-05-05T10:26:12Z</time></trkpt><trkpt lat="41.58086699985503" lon="19.957237723783262"><ele>388.0</ele><time>2026-05-05T10:26:13Z</time></trkpt><trkpt lat="41.580959109827944" lon="19.95733166295429"><ele>388.0</ele><time>2026-05-05T10:26:14Z</time></trkpt><trkpt lat="41.58105092950828" lon="19.95743008538808"><ele>388.0</ele><time>2026-05-05T10:26:15Z</time></trkpt><trkpt lat="41.581142671096735" lon="19.957536782933488"><ele>388.0</ele><time>2026-05-05T10:26:16Z</time></trkpt><trkpt lat="41.581240825912644" lon="19.957632014719632"><ele>388.0</ele><time>2026-05-05T10:26:17Z</time></trkpt><trkpt lat="41.581357652091654" lon="19.957710196225786"><ele>385.5</ele><time>2026-05-05T10:26:18Z</time></trkpt><trkpt lat="41.5814898627366" lon="19.95776083176311"><ele>383.0</ele><time>2026-05-05T10:26:19Z</time></trkpt><trkpt lat="41.58163802633402" lon="19.957810602134025"><ele>380.5</ele><time>2026-05-05T10:26:20Z</time></trkpt><trkpt lat="41.581787328579395" lon="19.95785602615085"><ele>378.0</ele><time>2026-05-05T10:26:21Z</time></trkpt><trkpt lat="41.58194655877972" lon="19.957895396380568"><ele>374.6666666666667</ele><time>2026-05-05T10:26:22Z</time></trkpt><trkpt lat="41.582105311526426" lon="19.957941077916935"><ele>371.33333333333337</ele><time>2026-05-05T10:26:23Z</time></trkpt><trkpt lat="41.58226079424059" lon="19.957990069498788"><ele>368.0</ele><time>2026-05-05T10:26:24Z</time></trkpt><trkpt lat="41.58242300735647" lon="19.95804546128269"><ele>368.0</ele><time>2026-05-05T10:26:25Z</time></trkpt><trkpt lat="41.58259569921472" lon="19.958094092096022"><ele>368.0</ele><time>2026-05-05T10:26:26Z</time></trkpt><trkpt lat="41.58277519793883" lon="19.958149678252337"><ele>368.0</ele><time>2026-05-05T10:26:27Z</time></trkpt><trkpt lat="41.58294856297317" lon="19.958189296758324"><ele>367.6666666666667</ele><time>2026-05-05T10:26:28Z</time></trkpt><trkpt lat="41.58312597698616" lon="19.95823304840051"><ele>367.3333333333333</ele><time>2026-05-05T10:26:29Z</time></trkpt><trkpt lat="41.58330053792643" lon="19.958281115822786"><ele>367.0</ele><time>2026-05-05T10:26:30Z</time></trkpt><trkpt lat="41.58346359123971" lon="19.95833102192011"><ele>366.25</ele><time>2026-05-05T10:26:31Z</time></trkpt><trkpt lat="41.583604518076775" lon="19.958388657623335"><ele>365.5</ele><time>2026-05-05T10:26:32Z</time></trkpt><trkpt lat="41.58372368206319" lon="19.95847237564014"><ele>364.75</ele><time>2026-05-05T10:26:33Z</time></trkpt><trkpt lat="41.58381440194237" lon="19.9585904186414"><ele>364.0</ele><time>2026-05-05T10:26:34Z</time></trkpt><trkpt lat="41.58386619280319" lon="19.958735868471315"><ele>364.0</ele><time>2026-05-05T10:26:35Z</time></trkpt><trkpt lat="41.58386870685926" lon="19.958943439480887"><ele>364.0</ele><time>2026-05-05T10:26:36Z</time></trkpt><trkpt lat="41.58388494767527" lon="19.959149560111936"><ele>364.0</ele><time>2026-05-05T10:26:37Z</time></trkpt><trkpt lat="41.58391023570441" lon="19.959354848951172"><ele>363.66666666666663</ele><time>2026-05-05T10:26:38Z</time></trkpt><trkpt lat="41.58393643813084" lon="19.959583419645224"><ele>363.3333333333333</ele><time>2026-05-05T10:26:39Z</time></trkpt><trkpt lat="41.5839589015874" lon="19.959811101081083"><ele>363.0</ele><time>2026-05-05T10:26:40Z</time></trkpt><trkpt lat="41.58398807871346" lon="19.96005402650583"><ele>362.0</ele><time>2026-05-05T10:26:41Z</time></trkpt><trkpt lat="41.58402421805683" lon="19.960289112579844"><ele>361.0</ele><time>2026-05-05T10:26:42Z</time></trkpt><trkpt lat="41.584060231722184" lon="19.960539954125647"><ele>360.0</ele><time>2026-05-05T10:26:43Z</time></trkpt><trkpt lat="41.584087941912045" lon="19.960791805657742"><ele>359.0</ele><time>2026-05-05T10:26:44Z</time></trkpt><trkpt lat="41.584101211053856" lon="19.96103797590167"><ele>358.0</ele><time>2026-05-05T10:26:44.999Z</time></trkpt><trkpt lat="41.58410263297765" lon="19.961293015728863"><ele>357.0</ele><time>2026-05-05T10:26:45.999Z</time></trkpt><trkpt lat="41.58409505435935" lon="19.961550359806164"><ele>356.3333333333333</ele><time>2026-05-05T10:26:46.999Z</time></trkpt><trkpt lat="41.58407524761715" lon="19.961803280776092"><ele>355.66666666666663</ele><time>2026-05-05T10:26:47.999Z</time></trkpt><trkpt lat="41.5840493423973" lon="19.96205517699531"><ele>355.0</ele><time>2026-05-05T10:26:48.999Z</time></trkpt><trkpt lat="41.584022919763136" lon="19.962311047839602"><ele>354.3333333333333</ele><time>2026-05-05T10:26:49.999Z</time></trkpt><trkpt lat="41.58399919063688" lon="19.962570519531422"><ele>353.6666666666667</ele><time>2026-05-05T10:26:50.999Z</time></trkpt><trkpt lat="41.583980682942965" lon="19.962834212258457"><ele>353.0</ele><time>2026-05-05T10:26:51.999Z</time></trkpt><trkpt lat="41.58396259032435" lon="19.96310412002572"><ele>352.6666666666667</ele><time>2026-05-05T10:26:52.999Z</time></trkpt><trkpt lat="41.58394271351175" lon="19.96338366281334"><ele>352.3333333333333</ele><time>2026-05-05T10:26:53.999Z</time></trkpt><trkpt lat="41.583923760656305" lon="19.963654046046795"><ele>352.0</ele><time>2026-05-05T10:26:54.999Z</time></trkpt><trkpt lat="41.583899688191536" lon="19.963909195790247"><ele>352.0</ele><time>2026-05-05T10:26:55.999Z</time></trkpt><trkpt lat="41.583860740254586" lon="19.964139906395786"><ele>352.0</ele><time>2026-05-05T10:26:56.999Z</time></trkpt><trkpt lat="41.58380044516223" lon="19.964352516035188"><ele>352.0</ele><time>2026-05-05T10:26:57.999Z</time></trkpt><trkpt lat="41.58370989431508" lon="19.964564219213333"><ele>351.66666666666663</ele><time>2026-05-05T10:26:59Z</time></trkpt><trkpt lat="41.58359406706836" lon="19.96474984135121"><ele>351.3333333333333</ele><time>2026-05-05T10:27:00Z</time></trkpt><trkpt lat="41.58345601697391" lon="19.964910189051253"><ele>351.0</ele><time>2026-05-05T10:27:01Z</time></trkpt><trkpt lat="41.58332541090944" lon="19.965070557551478"><ele>350.0</ele><time>2026-05-05T10:27:02Z</time></trkpt><trkpt lat="41.5832096216643" lon="19.965254214248763"><ele>349.0</ele><time>2026-05-05T10:27:03Z</time></trkpt><trkpt lat="41.583109252515705" lon="19.965455879135163"><ele>348.0</ele><time>2026-05-05T10:27:04Z</time></trkpt><trkpt lat="41.58300968073322" lon="19.965659780437722"><ele>347.0</ele><time>2026-05-05T10:27:05Z</time></trkpt><trkpt lat="41.582905109441406" lon="19.965863677972422"><ele>346.0</ele><time>2026-05-05T10:27:06Z</time></trkpt><trkpt lat="41.582798565327266" lon="19.966059902839067"><ele>345.0</ele><time>2026-05-05T10:27:06.999Z</time></trkpt><trkpt lat="41.582687397182234" lon="19.966245233846365"><ele>345.0</ele><time>2026-05-05T10:27:07.999Z</time></trkpt><trkpt lat="41.58257311608388" lon="19.96640482572945"><ele>345.0</ele><time>2026-05-05T10:27:08.999Z</time></trkpt><trkpt lat="41.582448532137725" lon="19.966536950379624"><ele>345.0</ele><time>2026-05-05T10:27:09.999Z</time></trkpt><trkpt lat="41.58230859185571" lon="19.966635911849632"><ele>344.75</ele><time>2026-05-05T10:27:10.999Z</time></trkpt><trkpt lat="41.582168015088556" lon="19.966695229976345"><ele>344.5</ele><time>2026-05-05T10:27:11.999Z</time></trkpt><trkpt lat="41.58204612145379" lon="19.966736521704508"><ele>344.25</ele><time>2026-05-05T10:27:12.999Z</time></trkpt><trkpt lat="41.58194808234383" lon="19.966817075548835"><ele>344.0</ele><time>2026-05-05T10:27:13.999Z</time></trkpt><trkpt lat="41.58188166109882" lon="19.966946618225798"><ele>343.75</ele><time>2026-05-05T10:27:14.999Z</time></trkpt><trkpt lat="41.58185370565681" lon="19.96710944777592"><ele>343.5</ele><time>2026-05-05T10:27:15.999Z</time></trkpt><trkpt lat="41.58186210780821" lon="19.967297657606707"><ele>343.25</ele><time>2026-05-05T10:27:16.999Z</time></trkpt><trkpt lat="41.58190054800515" lon="19.967505013084427"><ele>343.0</ele><time>2026-05-05T10:27:17.999Z</time></trkpt><trkpt lat="41.581950766392715" lon="19.96773847567187"><ele>343.0</ele><time>2026-05-05T10:27:18.999Z</time></trkpt><trkpt lat="41.581990609207544" lon="19.96799402424778"><ele>343.0</ele><time>2026-05-05T10:27:19.999Z</time></trkpt><trkpt lat="41.582025171674005" lon="19.968270352176262"><ele>343.0</ele><time>2026-05-05T10:27:20.999Z</time></trkpt><trkpt lat="41.58206461584883" lon="19.968565872967705"><ele>340.0</ele><time>2026-05-05T10:27:21.999Z</time></trkpt><trkpt lat="41.58210185122142" lon="19.968862279294953"><ele>337.0</ele><time>2026-05-05T10:27:22.999Z</time></trkpt><trkpt lat="41.5821356736288" lon="19.96917276407049"><ele>336.0</ele><time>2026-05-05T10:27:23.999Z</time></trkpt><trkpt lat="41.58216663353993" lon="19.969486521949108"><ele>335.0</ele><time>2026-05-05T10:27:24.999Z</time></trkpt><trkpt lat="41.582203260321315" lon="19.969799297949532"><ele>333.5</ele><time>2026-05-05T10:27:25.999Z</time></trkpt><trkpt lat="41.582243172712396" lon="19.9701185140372"><ele>332.0</ele><time>2026-05-05T10:27:26.999Z</time></trkpt><trkpt lat="41.58228109307302" lon="19.970434352121565"><ele>332.0</ele><time>2026-05-05T10:27:27.999Z</time></trkpt><trkpt lat="41.58232040367467" lon="19.970756221863528"><ele>332.0</ele><time>2026-05-05T10:27:28.999Z</time></trkpt><trkpt lat="41.58236133674749" lon="19.971080941277798"><ele>331.5</ele><time>2026-05-05T10:27:29.999Z</time></trkpt><trkpt lat="41.58240277508951" lon="19.97140221844639"><ele>331.0</ele><time>2026-05-05T10:27:30.999Z</time></trkpt><trkpt lat="41.582442424726366" lon="19.971734114100645"><ele>331.0</ele><time>2026-05-05T10:27:31.999Z</time></trkpt><trkpt lat="41.582479188161834" lon="19.97205786145535"><ele>331.0</ele><time>2026-05-05T10:27:32.999Z</time></trkpt><trkpt lat="41.582514453985446" lon="19.97238019277506"><ele>330.0</ele><time>2026-05-05T10:27:33.999Z</time></trkpt><trkpt lat="41.58255585891833" lon="19.97270401940073"><ele>329.0</ele><time>2026-05-05T10:27:34.999Z</time></trkpt><trkpt lat="41.58260298396093" lon="19.973027477598517"><ele>329.0</ele><time>2026-05-05T10:27:35.999Z</time></trkpt><trkpt lat="41.582648348485804" lon="19.973345272156525"><ele>329.0</ele><time>2026-05-05T10:27:36.999Z</time></trkpt><trkpt lat="41.58268577738472" lon="19.97365494785263"><ele>327.6666666666667</ele><time>2026-05-05T10:27:37.999Z</time></trkpt><trkpt lat="41.5827162289704" lon="19.973955298461107"><ele>326.3333333333333</ele><time>2026-05-05T10:27:38.999Z</time></trkpt><trkpt lat="41.58274863424877" lon="19.97424270199388"><ele>325.0</ele><time>2026-05-05T10:27:39.999Z</time></trkpt><trkpt lat="41.58278305114213" lon="19.974515236340718"><ele>325.0</ele><time>2026-05-05T10:27:40.999Z</time></trkpt><trkpt lat="41.58281866642852" lon="19.97477298045327"><ele>325.0</ele><time>2026-05-05T10:27:41.999Z</time></trkpt><trkpt lat="41.58285150090815" lon="19.97504094288227"><ele>325.0</ele><time>2026-05-05T10:27:42.999Z</time></trkpt><trkpt lat="41.582878269437785" lon="19.97529411663838"><ele>322.66666666666663</ele><time>2026-05-05T10:27:43.999Z</time></trkpt><trkpt lat="41.582910689107415" lon="19.97555332139147"><ele>320.3333333333333</ele><time>2026-05-05T10:27:44.999Z</time></trkpt><trkpt lat="41.58294900355346" lon="19.975813738889716"><ele>318.0</ele><time>2026-05-05T10:27:45.999Z</time></trkpt><trkpt lat="41.58298790220604" lon="19.97608084159171"><ele>318.0</ele><time>2026-05-05T10:27:46.999Z</time></trkpt><trkpt lat="41.583026571962975" lon="19.976358358342566"><ele>318.0</ele><time>2026-05-05T10:27:47.999Z</time></trkpt><trkpt lat="41.5830607714806" lon="19.976645579820673"><ele>318.0</ele><time>2026-05-05T10:27:48.999Z</time></trkpt><trkpt lat="41.5830954471857" lon="19.976941923003626"><ele>317.6666666666667</ele><time>2026-05-05T10:27:49.999Z</time></trkpt><trkpt lat="41.58312949875795" lon="19.977236360048515"><ele>317.33333333333337</ele><time>2026-05-05T10:27:50.999Z</time></trkpt><trkpt lat="41.58316248060156" lon="19.977516794273853"><ele>317.0</ele><time>2026-05-05T10:27:51.999Z</time></trkpt><trkpt lat="41.58318594749234" lon="19.977759021333444"><ele>316.33333333333337</ele><time>2026-05-05T10:27:52.999Z</time></trkpt><trkpt lat="41.58321130476316" lon="19.977958144365882"><ele>315.6666666666667</ele><time>2026-05-05T10:27:53.999Z</time></trkpt><trkpt lat="41.58324138341633" lon="19.978163711409774"><ele>315.0</ele><time>2026-05-05T10:27:54.999Z</time></trkpt><trkpt lat="41.58327168270945" lon="19.97839275308011"><ele>315.0</ele><time>2026-05-05T10:27:55.999Z</time></trkpt><trkpt lat="41.583303298568055" lon="19.97862281713915"><ele>315.0</ele><time>2026-05-05T10:27:56.999Z</time></trkpt><trkpt lat="41.583332018442576" lon="19.978833029561276"><ele>315.0</ele><time>2026-05-05T10:27:57.999Z</time></trkpt><trkpt lat="41.58335167098685" lon="19.979004783788948"><ele>315.0</ele><time>2026-05-05T10:27:58.999Z</time></trkpt><trkpt lat="41.58336657220583" lon="19.979154119960526"><ele>315.0</ele><time>2026-05-05T10:27:59.999Z</time></trkpt><trkpt lat="41.583388462019435" lon="19.97929622628745"><ele>315.0</ele><time>2026-05-05T10:28:00.999Z</time></trkpt><trkpt lat="41.583412390923165" lon="19.979451892455774"><ele>315.0</ele><time>2026-05-05T10:28:01.999Z</time></trkpt><trkpt lat="41.583430487948505" lon="19.97962693826404"><ele>314.5</ele><time>2026-05-05T10:28:02.999Z</time></trkpt><trkpt lat="41.58344858940795" lon="19.97982192480388"><ele>314.0</ele><time>2026-05-05T10:28:03.999Z</time></trkpt><trkpt lat="41.58346836267176" lon="19.979994808653736"><ele>313.5</ele><time>2026-05-05T10:28:04.999Z</time></trkpt><trkpt lat="41.58348448781081" lon="19.980199596092284"><ele>313.0</ele><time>2026-05-05T10:28:05.999Z</time></trkpt><trkpt lat="41.58348516258002" lon="19.980409043437568"><ele>312.3333333333333</ele><time>2026-05-05T10:28:06.999Z</time></trkpt><trkpt lat="41.58347555496562" lon="19.980645297475576"><ele>311.6666666666667</ele><time>2026-05-05T10:28:07.999Z</time></trkpt><trkpt lat="41.58346386850742" lon="19.98088157587597"><ele>311.0</ele><time>2026-05-05T10:28:08.999Z</time></trkpt><trkpt lat="41.58345596001174" lon="19.98113915026625"><ele>310.0</ele><time>2026-05-05T10:28:09.999Z</time></trkpt><trkpt lat="41.58344498523418" lon="19.98140046501645"><ele>309.0</ele><time>2026-05-05T10:28:10.999Z</time></trkpt><trkpt lat="41.58342892751935" lon="19.981672667438396"><ele>308.0</ele><time>2026-05-05T10:28:11.999Z</time></trkpt><trkpt lat="41.58341132736148" lon="19.981937231828955"><ele>307.6666666666667</ele><time>2026-05-05T10:28:12.999Z</time></trkpt><trkpt lat="41.583398734067536" lon="19.982208674306264"><ele>307.3333333333333</ele><time>2026-05-05T10:28:13.999Z</time></trkpt><trkpt lat="41.58338927574057" lon="19.98247909658404"><ele>307.0</ele><time>2026-05-05T10:28:14.999Z</time></trkpt><trkpt lat="41.58337704728649" lon="19.9827555312942"><ele>307.0</ele><time>2026-05-05T10:28:15.999Z</time></trkpt><trkpt lat="41.58336505314882" lon="19.983032536457486"><ele>307.0</ele><time>2026-05-05T10:28:16.999Z</time></trkpt><trkpt lat="41.5833537031713" lon="19.98331344878456"><ele>307.0</ele><time>2026-05-05T10:28:17.999Z</time></trkpt><trkpt lat="41.58334115735052" lon="19.98360240080476"><ele>306.0</ele><time>2026-05-05T10:28:18.999Z</time></trkpt><trkpt lat="41.583323233568265" lon="19.983882296795805"><ele>305.0</ele><time>2026-05-05T10:28:19.999Z</time></trkpt><trkpt lat="41.583311671641894" lon="19.984166870434684"><ele>304.0</ele><time>2026-05-05T10:28:20.999Z</time></trkpt><trkpt lat="41.58330798922012" lon="19.98443253346963"><ele>303.66666666666663</ele><time>2026-05-05T10:28:21.999Z</time></trkpt><trkpt lat="41.583301926843376" lon="19.984669784228814"><ele>303.3333333333333</ele><time>2026-05-05T10:28:22.999Z</time></trkpt><trkpt lat="41.583289200335415" lon="19.98489707552176"><ele>303.0</ele><time>2026-05-05T10:28:23.999Z</time></trkpt><trkpt lat="41.583270465305894" lon="19.985115693611245"><ele>302.75</ele><time>2026-05-05T10:28:24.999Z</time></trkpt><trkpt lat="41.58325266327329" lon="19.985308458647115"><ele>302.5</ele><time>2026-05-05T10:28:25.999Z</time></trkpt><trkpt lat="41.58324171265241" lon="19.985502499965616"><ele>302.25</ele><time>2026-05-05T10:28:26.999Z</time></trkpt><trkpt lat="41.58323225236126" lon="19.98570093107181"><ele>302.0</ele><time>2026-05-05T10:28:27.999Z</time></trkpt><trkpt lat="41.58322204586604" lon="19.98588767982441"><ele>302.5</ele><time>2026-05-05T10:28:28.999Z</time></trkpt><trkpt lat="41.58320494676872" lon="19.98606265130731"><ele>303.0</ele><time>2026-05-05T10:28:29.999Z</time></trkpt><trkpt lat="41.58319367297178" lon="19.98622787162625"><ele>303.5</ele><time>2026-05-05T10:28:30.999Z</time></trkpt><trkpt lat="41.583192381766" lon="19.986398743338057"><ele>304.0</ele><time>2026-05-05T10:28:31.999Z</time></trkpt><trkpt lat="41.58320777790096" lon="19.98656863949283"><ele>306.25</ele><time>2026-05-05T10:28:32.999Z</time></trkpt><trkpt lat="41.58324972587317" lon="19.986743672483637"><ele>308.5</ele><time>2026-05-05T10:28:33.999Z</time></trkpt><trkpt lat="41.5833231938999" lon="19.986922917420568"><ele>310.75</ele><time>2026-05-05T10:28:34.999Z</time></trkpt><trkpt lat="41.58340364569852" lon="19.98707877718353"><ele>313.0</ele><time>2026-05-05T10:28:35.999Z</time></trkpt><trkpt lat="41.58347452817657" lon="19.98720807499687"><ele>313.0</ele><time>2026-05-05T10:28:36.999Z</time></trkpt><trkpt lat="41.58352205536678" lon="19.98730819483124"><ele>313.0</ele><time>2026-05-05T10:28:37.999Z</time></trkpt><trkpt lat="41.583558509903845" lon="19.98738603101349"><ele>313.0</ele><time>2026-05-05T10:28:38.999Z</time></trkpt><trkpt lat="41.58360780065866" lon="19.98748460611157"><ele>313.0</ele><time>2026-05-05T10:28:40.999Z</time></trkpt><trkpt lat="41.58365705884952" lon="19.98755673194504"><ele>313.0</ele><time>2026-05-05T10:28:42.999Z</time></trkpt><trkpt lat="41.58371554850003" lon="19.987659479092017"><ele>313.0</ele><time>2026-05-05T10:28:45.999Z</time></trkpt><trkpt lat="41.583759552369585" lon="19.987752610059896"><ele>312.0</ele><time>2026-05-05T10:28:47.999Z</time></trkpt><trkpt lat="41.58379325490554" lon="19.987849818567216"><ele>311.0</ele><time>2026-05-05T10:28:50.999Z</time></trkpt><trkpt lat="41.58385334111604" lon="19.987935140370485"><ele>310.0</ele><time>2026-05-05T10:28:52.999Z</time></trkpt><trkpt lat="41.58392152174369" lon="19.988006320573888"><ele>309.0</ele><time>2026-05-05T10:28:54.999Z</time></trkpt><trkpt lat="41.58397462864865" lon="19.98807455472326"><ele>308.0</ele><time>2026-05-05T10:28:55.999Z</time></trkpt><trkpt lat="41.58403176103125" lon="19.98816805472129"><ele>307.0</ele><time>2026-05-05T10:28:56.999Z</time></trkpt><trkpt lat="41.584090630192854" lon="19.98828017104562"><ele>309.75</ele><time>2026-05-05T10:28:57.999Z</time></trkpt><trkpt lat="41.58415169167705" lon="19.988412526878978"><ele>312.5</ele><time>2026-05-05T10:28:58.999Z</time></trkpt><trkpt lat="41.58423097903736" lon="19.988564354473247"><ele>315.25</ele><time>2026-05-05T10:28:59.999Z</time></trkpt><trkpt lat="41.58430985743808" lon="19.988696283036717"><ele>318.0</ele><time>2026-05-05T10:29:00.999Z</time></trkpt><trkpt lat="41.58438392486589" lon="19.988806974010668"><ele>318.0</ele><time>2026-05-05T10:29:01.999Z</time></trkpt><trkpt lat="41.584465582258545" lon="19.988921936529913"><ele>318.0</ele><time>2026-05-05T10:29:02.999Z</time></trkpt><trkpt lat="41.58456482364396" lon="19.989051959922417"><ele>318.0</ele><time>2026-05-05T10:29:03.999Z</time></trkpt><trkpt lat="41.584677177074724" lon="19.98916612309274"><ele>318.0</ele><time>2026-05-05T10:29:05Z</time></trkpt><trkpt lat="41.584806404320844" lon="19.98927275622028"><ele>316.25</ele><time>2026-05-05T10:29:06Z</time></trkpt><trkpt lat="41.584944528179456" lon="19.98936037789475"><ele>314.5</ele><time>2026-05-05T10:29:07Z</time></trkpt><trkpt lat="41.585074345859155" lon="19.989430292586867"><ele>312.75</ele><time>2026-05-05T10:29:08Z</time></trkpt><trkpt lat="41.58517410938542" lon="19.989495106536708"><ele>311.0</ele><time>2026-05-05T10:29:09Z</time></trkpt><trkpt lat="41.58522640106299" lon="19.989556385077933"><ele>311.0</ele><time>2026-05-05T10:29:10Z</time></trkpt><trkpt lat="41.585273045459054" lon="19.98962576316666"><ele>311.0</ele><time>2026-05-05T10:29:11Z</time></trkpt><trkpt lat="41.58534829487679" lon="19.989747009285992"><ele>311.0</ele><time>2026-05-05T10:29:12Z</time></trkpt><trkpt lat="41.5854319288557" lon="19.989898858399236"><ele>311.0</ele><time>2026-05-05T10:29:13Z</time></trkpt><trkpt lat="41.58550682231205" lon="19.990033132813906"><ele>309.40000000000003</ele><time>2026-05-05T10:29:14Z</time></trkpt><trkpt lat="41.5855617485121" lon="19.990118409823932"><ele>307.8</ele><time>2026-05-05T10:29:15Z</time></trkpt><trkpt lat="41.585622840849716" lon="19.9902054739502"><ele>306.20000000000005</ele><time>2026-05-05T10:29:16Z</time></trkpt><trkpt lat="41.58568544320942" lon="19.990305258542012"><ele>304.6</ele><time>2026-05-05T10:29:17Z</time></trkpt><trkpt lat="41.585770493674524" lon="19.9904374846522"><ele>303.0</ele><time>2026-05-05T10:29:18Z</time></trkpt><trkpt lat="41.585881229961764" lon="19.990564771211684"><ele>303.0</ele><time>2026-05-05T10:29:19Z</time></trkpt><trkpt lat="41.58601799583846" lon="19.99068202822215"><ele>303.0</ele><time>2026-05-05T10:29:20Z</time></trkpt><trkpt lat="41.58616742720708" lon="19.990800750007867"><ele>303.0</ele><time>2026-05-05T10:29:21Z</time></trkpt><trkpt lat="41.58632558212728" lon="19.990929486135276"><ele>302.0</ele><time>2026-05-05T10:29:22Z</time></trkpt><trkpt lat="41.58649463144029" lon="19.9910721582814"><ele>301.0</ele><time>2026-05-05T10:29:23Z</time></trkpt><trkpt lat="41.586672006839635" lon="19.9912281538944"><ele>300.0</ele><time>2026-05-05T10:29:24Z</time></trkpt><trkpt lat="41.586852846193885" lon="19.99139689620698"><ele>301.5</ele><time>2026-05-05T10:29:25Z</time></trkpt><trkpt lat="41.58703551945568" lon="19.991596839872994"><ele>303.0</ele><time>2026-05-05T10:29:26Z</time></trkpt><trkpt lat="41.5872118521442" lon="19.991837767894225"><ele>303.0</ele><time>2026-05-05T10:29:27Z</time></trkpt><trkpt lat="41.58738775861824" lon="19.992101897588057"><ele>303.0</ele><time>2026-05-05T10:29:28Z</time></trkpt><trkpt lat="41.5875670995648" lon="19.992349816234015"><ele>302.0</ele><time>2026-05-05T10:29:29Z</time></trkpt><trkpt lat="41.58776218681701" lon="19.992592185025906"><ele>301.0</ele><time>2026-05-05T10:29:30Z</time></trkpt><trkpt lat="41.58796581656741" lon="19.992822835669674"><ele>301.0</ele><time>2026-05-05T10:29:31Z</time></trkpt><trkpt lat="41.58816379567135" lon="19.993012431444185"><ele>301.0</ele><time>2026-05-05T10:29:32Z</time></trkpt><trkpt lat="41.58836586522454" lon="19.993173657851898"><ele>301.0</ele><time>2026-05-05T10:29:33Z</time></trkpt><trkpt lat="41.58856932611209" lon="19.993314436326752"><ele>301.0</ele><time>2026-05-05T10:29:34Z</time></trkpt><trkpt lat="41.58876800485684" lon="19.993427065861834"><ele>301.0</ele><time>2026-05-05T10:29:35Z</time></trkpt><trkpt lat="41.58896357016164" lon="19.993513143759653"><ele>303.0</ele><time>2026-05-05T10:29:36Z</time></trkpt><trkpt lat="41.58914099893047" lon="19.993568271706543"><ele>305.0</ele><time>2026-05-05T10:29:37Z</time></trkpt><trkpt lat="41.58930755252225" lon="19.99361036585881"><ele>307.0</ele><time>2026-05-05T10:29:38Z</time></trkpt><trkpt lat="41.589473581409784" lon="19.993661670811974"><ele>304.66666666666663</ele><time>2026-05-05T10:29:39Z</time></trkpt><trkpt lat="41.589647054634" lon="19.99373942134057"><ele>302.3333333333333</ele><time>2026-05-05T10:29:40Z</time></trkpt><trkpt lat="41.589818792887925" lon="19.993850514503617"><ele>300.0</ele><time>2026-05-05T10:29:41Z</time></trkpt><trkpt lat="41.58998429876554" lon="19.9939913171075"><ele>300.0</ele><time>2026-05-05T10:29:42Z</time></trkpt><trkpt lat="41.590119762217476" lon="19.994133336033133"><ele>300.0</ele><time>2026-05-05T10:29:43Z</time></trkpt><trkpt lat="41.59021863822677" lon="19.994234835786386"><ele>300.0</ele><time>2026-05-05T10:29:44Z</time></trkpt><trkpt lat="41.59030568419251" lon="19.994280240214866"><ele>300.0</ele><time>2026-05-05T10:29:45Z</time></trkpt><trkpt lat="41.59040812700452" lon="19.99426261283623"><ele>301.0</ele><time>2026-05-05T10:29:46Z</time></trkpt><trkpt lat="41.59052632527204" lon="19.994189854807235"><ele>302.0</ele><time>2026-05-05T10:29:47Z</time></trkpt><trkpt lat="41.59064734246086" lon="19.994083560014364"><ele>303.0</ele><time>2026-05-05T10:29:48Z</time></trkpt><trkpt lat="41.59076345385656" lon="19.99401909583311"><ele>304.0</ele><time>2026-05-05T10:29:49Z</time></trkpt><trkpt lat="41.59086652140165" lon="19.994026482749696"><ele>304.0</ele><time>2026-05-05T10:29:50Z</time></trkpt><trkpt lat="41.59097760410236" lon="19.994080768250132"><ele>304.0</ele><time>2026-05-05T10:29:51Z</time></trkpt><trkpt lat="41.59109070367103" lon="19.994172883427215"><ele>304.0</ele><time>2026-05-05T10:29:52Z</time></trkpt><trkpt lat="41.591202592647114" lon="19.994316077860887"><ele>304.0</ele><time>2026-05-05T10:29:53Z</time></trkpt><trkpt lat="41.59132222087515" lon="19.994494610270394"><ele>305.66666666666663</ele><time>2026-05-05T10:29:54Z</time></trkpt><trkpt lat="41.591442269134134" lon="19.99468158586503"><ele>307.3333333333333</ele><time>2026-05-05T10:29:55Z</time></trkpt><trkpt lat="41.591571879932346" lon="19.994896508129973"><ele>309.0</ele><time>2026-05-05T10:29:56Z</time></trkpt><trkpt lat="41.591700728890316" lon="19.9951121534828"><ele>309.0</ele><time>2026-05-05T10:29:57Z</time></trkpt><trkpt lat="41.591846227790654" lon="19.995315353835277"><ele>309.0</ele><time>2026-05-05T10:29:58Z</time></trkpt><trkpt lat="41.59201383766675" lon="19.995491025120035"><ele>309.0</ele><time>2026-05-05T10:29:59Z</time></trkpt><trkpt lat="41.59220519453144" lon="19.99564571134251"><ele>309.0</ele><time>2026-05-05T10:30:00Z</time></trkpt><trkpt lat="41.592405539517046" lon="19.995796389281292"><ele>309.0</ele><time>2026-05-05T10:30:01Z</time></trkpt><trkpt lat="41.59260777490479" lon="19.995955758089806"><ele>310.5</ele><time>2026-05-05T10:30:02Z</time></trkpt><trkpt lat="41.59280620696884" lon="19.996120072859725"><ele>312.0</ele><time>2026-05-05T10:30:03Z</time></trkpt><trkpt lat="41.59299599599855" lon="19.99627079126363"><ele>312.0</ele><time>2026-05-05T10:30:04Z</time></trkpt><trkpt lat="41.59317135060263" lon="19.99639445013385"><ele>312.0</ele><time>2026-05-05T10:30:05Z</time></trkpt><trkpt lat="41.59333098887727" lon="19.99649767538031"><ele>312.0</ele><time>2026-05-05T10:30:06Z</time></trkpt><trkpt lat="41.59349004043325" lon="19.996598524101373"><ele>309.3333333333333</ele><time>2026-05-05T10:30:07Z</time></trkpt><trkpt lat="41.59365947754717" lon="19.996705410849632"><ele>306.66666666666663</ele><time>2026-05-05T10:30:08Z</time></trkpt><trkpt lat="41.593837152439114" lon="19.996804482677003"><ele>304.0</ele><time>2026-05-05T10:30:09Z</time></trkpt><trkpt lat="41.59402736863917" lon="19.996886261999094"><ele>304.0</ele><time>2026-05-05T10:30:10Z</time></trkpt><trkpt lat="41.594231454884806" lon="19.99695460600749"><ele>304.0</ele><time>2026-05-05T10:30:11Z</time></trkpt><trkpt lat="41.59443981281659" lon="19.997014631417635"><ele>304.0</ele><time>2026-05-05T10:30:12Z</time></trkpt><trkpt lat="41.59466248697298" lon="19.997075338522247"><ele>304.5</ele><time>2026-05-05T10:30:13Z</time></trkpt><trkpt lat="41.594889320772374" lon="19.99713213904801"><ele>305.0</ele><time>2026-05-05T10:30:13.999Z</time></trkpt><trkpt lat="41.595116738718936" lon="19.997188609862587"><ele>305.0</ele><time>2026-05-05T10:30:14.999Z</time></trkpt><trkpt lat="41.59532566866877" lon="19.997249705915987"><ele>305.0</ele><time>2026-05-05T10:30:15.999Z</time></trkpt><trkpt lat="41.59551421243085" lon="19.997316759299537"><ele>305.0</ele><time>2026-05-05T10:30:16.999Z</time></trkpt><trkpt lat="41.59569498932273" lon="19.997402849986933"><ele>306.0</ele><time>2026-05-05T10:30:17.999Z</time></trkpt><trkpt lat="41.59587278753289" lon="19.997517653690316"><ele>307.0</ele><time>2026-05-05T10:30:18.999Z</time></trkpt><trkpt lat="41.59604771481121" lon="19.997642430818978"><ele>308.0</ele><time>2026-05-05T10:30:19.999Z</time></trkpt><trkpt lat="41.596202574770516" lon="19.997775319085914"><ele>312.33333333333337</ele><time>2026-05-05T10:30:20.999Z</time></trkpt><trkpt lat="41.5963285568258" lon="19.997919771205144"><ele>316.6666666666667</ele><time>2026-05-05T10:30:21.999Z</time></trkpt><trkpt lat="41.59642366598866" lon="19.998086441119618"><ele>321.0</ele><time>2026-05-05T10:30:22.999Z</time></trkpt><trkpt lat="41.5964837863361" lon="19.998271617900603"><ele>321.0</ele><time>2026-05-05T10:30:23.999Z</time></trkpt><trkpt lat="41.59649690352206" lon="19.998466600907225"><ele>321.0</ele><time>2026-05-05T10:30:24.999Z</time></trkpt><trkpt lat="41.59648166136819" lon="19.998665336889815"><ele>321.0</ele><time>2026-05-05T10:30:25.999Z</time></trkpt><trkpt lat="41.5964798190465" lon="19.99882805853085"><ele>321.0</ele><time>2026-05-05T10:30:26.999Z</time></trkpt><trkpt lat="41.59652160363994" lon="19.998925253731233"><ele>321.0</ele><time>2026-05-05T10:30:27.999Z</time></trkpt><trkpt lat="41.59659152355926" lon="19.99898118992577"><ele>321.0</ele><time>2026-05-05T10:30:28.999Z</time></trkpt><trkpt lat="41.59669120899816" lon="19.99902645499819"><ele>321.0</ele><time>2026-05-05T10:30:29.999Z</time></trkpt><trkpt lat="41.59680451709754" lon="19.999070738235304"><ele>321.0</ele><time>2026-05-05T10:30:30.999Z</time></trkpt><trkpt lat="41.59692197107084" lon="19.99913117124596"><ele>321.0</ele><time>2026-05-05T10:30:31.999Z</time></trkpt><trkpt lat="41.597034312954555" lon="19.999215728212118"><ele>320.75</ele><time>2026-05-05T10:30:32.999Z</time></trkpt><trkpt lat="41.59712828348025" lon="19.99931659272306"><ele>320.5</ele><time>2026-05-05T10:30:33.999Z</time></trkpt><trkpt lat="41.59721453849812" lon="19.99943036774705"><ele>320.25</ele><time>2026-05-05T10:30:34.999Z</time></trkpt><trkpt lat="41.59731075893754" lon="19.99954757830059"><ele>320.0</ele><time>2026-05-05T10:30:35.999Z</time></trkpt><trkpt lat="41.59741085339354" lon="19.999661105082648"><ele>320.0</ele><time>2026-05-05T10:30:36.999Z</time></trkpt><trkpt lat="41.597506386979724" lon="19.999756321594248"><ele>320.0</ele><time>2026-05-05T10:30:37.999Z</time></trkpt><trkpt lat="41.59760395344656" lon="19.999802486270724"><ele>320.0</ele><time>2026-05-05T10:30:38.999Z</time></trkpt><trkpt lat="41.5977056271771" lon="19.99977474844448"><ele>320.0</ele><time>2026-05-05T10:30:39.999Z</time></trkpt><trkpt lat="41.597821865884164" lon="19.999708009227003"><ele>318.6666666666667</ele><time>2026-05-05T10:30:40.999Z</time></trkpt><trkpt lat="41.59794792640961" lon="19.99961444468173"><ele>317.3333333333333</ele><time>2026-05-05T10:30:41.999Z</time></trkpt><trkpt lat="41.59807283602641" lon="19.999486972182165"><ele>316.0</ele><time>2026-05-05T10:30:42.999Z</time></trkpt><trkpt lat="41.59820251000145" lon="19.999352765305165"><ele>316.0</ele><time>2026-05-05T10:30:43.999Z</time></trkpt><trkpt lat="41.59835115572726" lon="19.99923346933631"><ele>316.0</ele><time>2026-05-05T10:30:44.999Z</time></trkpt><trkpt lat="41.59852676908308" lon="19.999141308043086"><ele>316.0</ele><time>2026-05-05T10:30:45.999Z</time></trkpt><trkpt lat="41.59871033493319" lon="19.999093685798506"><ele>318.0</ele><time>2026-05-05T10:30:46.999Z</time></trkpt><trkpt lat="41.59888729961032" lon="19.99909252854731"><ele>320.0</ele><time>2026-05-05T10:30:47.999Z</time></trkpt><trkpt lat="41.59905048239097" lon="19.999145930414326"><ele>322.0</ele><time>2026-05-05T10:30:48.999Z</time></trkpt><trkpt lat="41.599207104333445" lon="19.9992369672829"><ele>322.0</ele><time>2026-05-05T10:30:49.999Z</time></trkpt><trkpt lat="41.599340598924286" lon="19.999327834428897"><ele>322.0</ele><time>2026-05-05T10:30:50.999Z</time></trkpt><trkpt lat="41.59946899703922" lon="19.99936523189963"><ele>322.0</ele><time>2026-05-05T10:30:51.999Z</time></trkpt><trkpt lat="41.5996052491663" lon="19.999355610446212"><ele>322.0</ele><time>2026-05-05T10:30:52.999Z</time></trkpt><trkpt lat="41.599736514177074" lon="19.99935313784095"><ele>323.8</ele><time>2026-05-05T10:30:53.999Z</time></trkpt><trkpt lat="41.5998460291722" lon="19.999377957229534"><ele>325.6</ele><time>2026-05-05T10:30:54.999Z</time></trkpt><trkpt lat="41.59994052427662" lon="19.999415813596965"><ele>327.40000000000003</ele><time>2026-05-05T10:30:55.999Z</time></trkpt><trkpt lat="41.60002622670958" lon="19.999460842708647"><ele>329.20000000000005</ele><time>2026-05-05T10:30:56.999Z</time></trkpt><trkpt lat="41.600102638217244" lon="19.99951649545926"><ele>331.0</ele><time>2026-05-05T10:30:57.999Z</time></trkpt><trkpt lat="41.60017446506224" lon="19.99959521428914"><ele>331.0</ele><time>2026-05-05T10:30:58.999Z</time></trkpt><trkpt lat="41.600241804832656" lon="19.99969701429869"><ele>331.0</ele><time>2026-05-05T10:30:59.999Z</time></trkpt><trkpt lat="41.60031020164465" lon="19.999810065740014"><ele>331.0</ele><time>2026-05-05T10:31:00.999Z</time></trkpt><trkpt lat="41.6003907282572" lon="19.99991101802159"><ele>331.0</ele><time>2026-05-05T10:31:01.999Z</time></trkpt><trkpt lat="41.60046672717603" lon="20.000018084577786"><ele>331.0</ele><time>2026-05-05T10:31:02.999Z</time></trkpt><trkpt lat="41.600543395270236" lon="20.00014073573473"><ele>332.5</ele><time>2026-05-05T10:31:03.999Z</time></trkpt><trkpt lat="41.60062154199965" lon="20.000272157864362"><ele>334.0</ele><time>2026-05-05T10:31:04.999Z</time></trkpt><trkpt lat="41.60070420602549" lon="20.0004088017291"><ele>335.5</ele><time>2026-05-05T10:31:05.999Z</time></trkpt><trkpt lat="41.600789837347335" lon="20.00055888397607"><ele>337.0</ele><time>2026-05-05T10:31:06.999Z</time></trkpt><trkpt lat="41.60087905827136" lon="20.00072594067059"><ele>335.66666666666663</ele><time>2026-05-05T10:31:07.999Z</time></trkpt><trkpt lat="41.60096971648904" lon="20.000900348635312"><ele>334.3333333333333</ele><time>2026-05-05T10:31:08.999Z</time></trkpt><trkpt lat="41.6010615756406" lon="20.001082472349836"><ele>333.0</ele><time>2026-05-05T10:31:09.999Z</time></trkpt><trkpt lat="41.60114580441134" lon="20.001250733908627"><ele>333.0</ele><time>2026-05-05T10:31:11Z</time></trkpt><trkpt lat="41.60124075765614" lon="20.001402930252386"><ele>333.0</ele><time>2026-05-05T10:31:12Z</time></trkpt><trkpt lat="41.601354048383335" lon="20.00153740907902"><ele>333.0</ele><time>2026-05-05T10:31:13Z</time></trkpt><trkpt lat="41.60147766011819" lon="20.001670455176434"><ele>333.0</ele><time>2026-05-05T10:31:14Z</time></trkpt><trkpt lat="41.601605533113855" lon="20.00180431354743"><ele>333.0</ele><time>2026-05-05T10:31:15Z</time></trkpt><trkpt lat="41.601739800227186" lon="20.001939190105432"><ele>333.0</ele><time>2026-05-05T10:31:16Z</time></trkpt><trkpt lat="41.60187913463579" lon="20.00207278498661"><ele>332.3333333333333</ele><time>2026-05-05T10:31:17Z</time></trkpt><trkpt lat="41.60201851936498" lon="20.002207533824507"><ele>331.66666666666663</ele><time>2026-05-05T10:31:18Z</time></trkpt><trkpt lat="41.60215424094061" lon="20.002358893973145"><ele>331.0</ele><time>2026-05-05T10:31:19Z</time></trkpt><trkpt lat="41.60228076703658" lon="20.002533467183778"><ele>331.0</ele><time>2026-05-05T10:31:20Z</time></trkpt><trkpt lat="41.602405277752865" lon="20.0027231764537"><ele>331.0</ele><time>2026-05-05T10:31:21Z</time></trkpt><trkpt lat="41.6025336506791" lon="20.002916652209322"><ele>331.0</ele><time>2026-05-05T10:31:22Z</time></trkpt><trkpt lat="41.60266695349083" lon="20.003102663502435"><ele>331.0</ele><time>2026-05-05T10:31:23Z</time></trkpt><trkpt lat="41.60281398378607" lon="20.003273397822436"><ele>331.0</ele><time>2026-05-05T10:31:24Z</time></trkpt><trkpt lat="41.602963669974876" lon="20.003425704313496"><ele>331.0</ele><time>2026-05-05T10:31:25Z</time></trkpt><trkpt lat="41.60311231150228" lon="20.003574409863873"><ele>331.0</ele><time>2026-05-05T10:31:26Z</time></trkpt><trkpt lat="41.603247860203965" lon="20.003709838177883"><ele>331.0</ele><time>2026-05-05T10:31:27Z</time></trkpt><trkpt lat="41.60337694673801" lon="20.003833998168098"><ele>331.0</ele><time>2026-05-05T10:31:28Z</time></trkpt><trkpt lat="41.6035017943869" lon="20.00395176329552"><ele>331.0</ele><time>2026-05-05T10:31:29Z</time></trkpt><trkpt lat="41.603616109623225" lon="20.004052671315563"><ele>331.0</ele><time>2026-05-05T10:31:30Z</time></trkpt><trkpt lat="41.60371579469412" lon="20.004141990847597"><ele>331.0</ele><time>2026-05-05T10:31:31Z</time></trkpt><trkpt lat="41.603791472902095" lon="20.00421155097021"><ele>331.0</ele><time>2026-05-05T10:31:32Z</time></trkpt><trkpt lat="41.60384546459768" lon="20.004270952372014"><ele>331.0</ele><time>2026-05-05T10:31:33Z</time></trkpt><trkpt lat="41.6039158348436" lon="20.004348597307207"><ele>331.0</ele><time>2026-05-05T10:31:35Z</time></trkpt><trkpt lat="41.60399089928117" lon="20.00442347846397"><ele>331.0</ele><time>2026-05-05T10:31:38Z</time></trkpt><trkpt lat="41.60403142918884" lon="20.00449161134092"><ele>331.0</ele><time>2026-05-05T10:31:40Z</time></trkpt><trkpt lat="41.60407435913224" lon="20.004556416674074"><ele>331.0</ele><time>2026-05-05T10:31:41Z</time></trkpt><trkpt lat="41.60416500507658" lon="20.004680519301715"><ele>331.0</ele><time>2026-05-05T10:31:43Z</time></trkpt><trkpt lat="41.60421852510812" lon="20.004759500526877"><ele>331.0</ele><time>2026-05-05T10:31:44Z</time></trkpt><trkpt lat="41.604278848480305" lon="20.00484856822157"><ele>331.0</ele><time>2026-05-05T10:31:45Z</time></trkpt><trkpt lat="41.60434078458111" lon="20.004932005183125"><ele>331.0</ele><time>2026-05-05T10:31:46Z</time></trkpt><trkpt lat="41.60441244384588" lon="20.005019975027793"><ele>331.0</ele><time>2026-05-05T10:31:47Z</time></trkpt><trkpt lat="41.60447893984944" lon="20.005125061335"><ele>331.0</ele><time>2026-05-05T10:31:48Z</time></trkpt><trkpt lat="41.60453752549119" lon="20.005241858448098"><ele>331.0</ele><time>2026-05-05T10:31:49Z</time></trkpt><trkpt lat="41.60460152666939" lon="20.005347490963327"><ele>330.6</ele><time>2026-05-05T10:31:50Z</time></trkpt><trkpt lat="41.60466980349336" lon="20.0054481037313"><ele>330.20000000000005</ele><time>2026-05-05T10:31:51Z</time></trkpt><trkpt lat="41.60473711676458" lon="20.005542733895798"><ele>329.79999999999995</ele><time>2026-05-05T10:31:52Z</time></trkpt><trkpt lat="41.6048042095286" lon="20.00563615255812"><ele>329.4</ele><time>2026-05-05T10:31:53Z</time></trkpt><trkpt lat="41.604870494663" lon="20.005728360892927"><ele>329.0</ele><time>2026-05-05T10:31:54Z</time></trkpt><trkpt lat="41.60493750026577" lon="20.00581821367473"><ele>329.0</ele><time>2026-05-05T10:31:55Z</time></trkpt><trkpt lat="41.60500189892442" lon="20.00590760939534"><ele>329.0</ele><time>2026-05-05T10:31:56Z</time></trkpt><trkpt lat="41.60505675430178" lon="20.00599344004852"><ele>329.0</ele><time>2026-05-05T10:31:57Z</time></trkpt><trkpt lat="41.60510595433455" lon="20.006068884075912"><ele>329.0</ele><time>2026-05-05T10:31:58Z</time></trkpt><trkpt lat="41.6051512199431" lon="20.006136448304126"><ele>329.0</ele><time>2026-05-05T10:31:59Z</time></trkpt><trkpt lat="41.60519499642289" lon="20.006201729793695"><ele>329.0</ele><time>2026-05-05T10:32:00Z</time></trkpt><trkpt lat="41.60524608125712" lon="20.006271766636196"><ele>329.0</ele><time>2026-05-05T10:32:01Z</time></trkpt><trkpt lat="41.605303093894356" lon="20.006345743188156"><ele>329.0</ele><time>2026-05-05T10:32:02Z</time></trkpt><trkpt lat="41.605362167037065" lon="20.00642600260764"><ele>329.0</ele><time>2026-05-05T10:32:03Z</time></trkpt><trkpt lat="41.60541916217451" lon="20.00651365988245"><ele>329.0</ele><time>2026-05-05T10:32:04Z</time></trkpt><trkpt lat="41.60546539992101" lon="20.00658665434214"><ele>329.0</ele><time>2026-05-05T10:32:05Z</time></trkpt><trkpt lat="41.605544125134806" lon="20.006709287584112"><ele>329.0</ele><time>2026-05-05T10:32:07Z</time></trkpt><trkpt lat="41.605588235393235" lon="20.006771540358557"><ele>328.2</ele><time>2026-05-05T10:32:25Z</time></trkpt><trkpt lat="41.60565114383457" lon="20.00685616579342"><ele>327.4</ele><time>2026-05-05T10:32:27Z</time></trkpt><trkpt lat="41.60573662206657" lon="20.006952891487483"><ele>326.6</ele><time>2026-05-05T10:32:29Z</time></trkpt><trkpt lat="41.60578915302982" lon="20.007030735553574"><ele>325.8</ele><time>2026-05-05T10:32:30Z</time></trkpt><trkpt lat="41.605840649639546" lon="20.007113217251817"><ele>325.0</ele><time>2026-05-05T10:32:31Z</time></trkpt><trkpt lat="41.60590085151577" lon="20.007209172217507"><ele>325.0</ele><time>2026-05-05T10:32:32Z</time></trkpt><trkpt lat="41.60596593445436" lon="20.00731109069425"><ele>325.0</ele><time>2026-05-05T10:32:33Z</time></trkpt><trkpt lat="41.6060380237967" lon="20.007419796056748"><ele>325.0</ele><time>2026-05-05T10:32:34Z</time></trkpt><trkpt lat="41.60611523793911" lon="20.007537208353316"><ele>325.0</ele><time>2026-05-05T10:32:35Z</time></trkpt><trkpt lat="41.60619962948278" lon="20.007654628332283"><ele>325.0</ele><time>2026-05-05T10:32:36Z</time></trkpt><trkpt lat="41.606289599066045" lon="20.007776352539544"><ele>324.0</ele><time>2026-05-05T10:32:37Z</time></trkpt><trkpt lat="41.60638167537949" lon="20.007898165008452"><ele>323.0</ele><time>2026-05-05T10:32:38Z</time></trkpt><trkpt lat="41.60647284350529" lon="20.008022177688012"><ele>322.0</ele><time>2026-05-05T10:32:39Z</time></trkpt><trkpt lat="41.60655418010322" lon="20.00814214709796"><ele>321.0</ele><time>2026-05-05T10:32:40Z</time></trkpt><trkpt lat="41.60662744309704" lon="20.008252090345565"><ele>321.20000000000005</ele><time>2026-05-05T10:32:41Z</time></trkpt><trkpt lat="41.60669687221804" lon="20.00835345483363"><ele>321.40000000000003</ele><time>2026-05-05T10:32:42Z</time></trkpt><trkpt lat="41.606764754159855" lon="20.00845140468265"><ele>321.6</ele><time>2026-05-05T10:32:43Z</time></trkpt><trkpt lat="41.60683185859084" lon="20.00854773733893"><ele>321.8</ele><time>2026-05-05T10:32:44Z</time></trkpt><trkpt lat="41.60689757506304" lon="20.008637757798763"><ele>322.0</ele><time>2026-05-05T10:32:45Z</time></trkpt><trkpt lat="41.60695539641567" lon="20.008723513964885"><ele>321.5</ele><time>2026-05-05T10:32:46Z</time></trkpt><trkpt lat="41.6070043149234" lon="20.008804365803655"><ele>321.0</ele><time>2026-05-05T10:32:47Z</time></trkpt><trkpt lat="41.60706384224382" lon="20.008890735227915"><ele>320.5</ele><time>2026-05-05T10:32:48Z</time></trkpt><trkpt lat="41.60713104990473" lon="20.008972941153207"><ele>320.0</ele><time>2026-05-05T10:32:49Z</time></trkpt><trkpt lat="41.60719349237615" lon="20.009056721058343"><ele>319.5</ele><time>2026-05-05T10:32:50Z</time></trkpt><trkpt lat="41.60726124921605" lon="20.00915483699359"><ele>319.0</ele><time>2026-05-05T10:32:51Z</time></trkpt><trkpt lat="41.60731807070002" lon="20.009239932711388"><ele>319.0</ele><time>2026-05-05T10:32:52Z</time></trkpt><trkpt lat="41.607364754353966" lon="20.009312207908724"><ele>319.0</ele><time>2026-05-05T10:32:53Z</time></trkpt><trkpt lat="41.60744753382489" lon="20.0094214254877"><ele>319.0</ele><time>2026-05-05T10:32:55Z</time></trkpt><trkpt lat="41.60749578804534" lon="20.00948730314405"><ele>319.0</ele><time>2026-05-05T10:32:56Z</time></trkpt><trkpt lat="41.60754083423763" lon="20.009554689518392"><ele>319.0</ele><time>2026-05-05T10:32:57Z</time></trkpt><trkpt lat="41.60760063534026" lon="20.009640974360522"><ele>319.0</ele><time>2026-05-05T10:32:58Z</time></trkpt><trkpt lat="41.60765942715019" lon="20.009729055649743"><ele>319.0</ele><time>2026-05-05T10:32:59Z</time></trkpt><trkpt lat="41.6077187068763" lon="20.009811483763684"><ele>319.0</ele><time>2026-05-05T10:33:00Z</time></trkpt><trkpt lat="41.607771371615385" lon="20.00987920013082"><ele>319.0</ele><time>2026-05-05T10:33:01Z</time></trkpt><trkpt lat="41.607816880480755" lon="20.009942601380406"><ele>319.0</ele><time>2026-05-05T10:33:02Z</time></trkpt><trkpt lat="41.60786832945169" lon="20.01002039383704"><ele>319.0</ele><time>2026-05-05T10:33:03.999Z</time></trkpt><trkpt lat="41.60792007952339" lon="20.01008005633354"><ele>319.0</ele><time>2026-05-05T10:33:08.999Z</time></trkpt><trkpt lat="41.607957750852144" lon="20.010154249769542"><ele>319.0</ele><time>2026-05-05T10:33:10.999Z</time></trkpt><trkpt lat="41.60800073999232" lon="20.010228106662506"><ele>318.4</ele><time>2026-05-05T10:33:11.999Z</time></trkpt><trkpt lat="41.60806612841547" lon="20.010309837305257"><ele>317.79999999999995</ele><time>2026-05-05T10:33:12.999Z</time></trkpt><trkpt lat="41.60812943136053" lon="20.010402621224625"><ele>317.20000000000005</ele><time>2026-05-05T10:33:13.999Z</time></trkpt><trkpt lat="41.608197609786934" lon="20.010503373762706"><ele>316.6</ele><time>2026-05-05T10:33:14.999Z</time></trkpt><trkpt lat="41.608264641254934" lon="20.010599988556727"><ele>316.0</ele><time>2026-05-05T10:33:16Z</time></trkpt><trkpt lat="41.60831482777082" lon="20.01066258794959"><ele>316.0</ele><time>2026-05-05T10:33:17Z</time></trkpt><trkpt lat="41.60836355503125" lon="20.010740283411995"><ele>316.0</ele><time>2026-05-05T10:33:19Z</time></trkpt><trkpt lat="41.60840774926664" lon="20.010808272276083"><ele>316.0</ele><time>2026-05-05T10:33:22Z</time></trkpt><trkpt lat="41.6084620665677" lon="20.010874367609393"><ele>316.0</ele><time>2026-05-05T10:33:24Z</time></trkpt><trkpt lat="41.60853427213139" lon="20.01095938639153"><ele>316.0</ele><time>2026-05-05T10:33:27Z</time></trkpt><trkpt lat="41.60858918414357" lon="20.011051041035333"><ele>316.0</ele><time>2026-05-05T10:33:30Z</time></trkpt><trkpt lat="41.6086387827693" lon="20.011140600967625"><ele>315.2</ele><time>2026-05-05T10:33:33Z</time></trkpt><trkpt lat="41.60870797197751" lon="20.011199654852415"><ele>314.40000000000003</ele><time>2026-05-05T10:33:36Z</time></trkpt><trkpt lat="41.60878512293825" lon="20.01130904450911"><ele>313.6</ele><time>2026-05-05T10:33:38Z</time></trkpt><trkpt lat="41.60884373999238" lon="20.011396271542704"><ele>312.8</ele><time>2026-05-05T10:33:39Z</time></trkpt><trkpt lat="41.60890941091212" lon="20.011495038957996"><ele>312.0</ele><time>2026-05-05T10:33:40Z</time></trkpt><trkpt lat="41.608972046778625" lon="20.011589879532025"><ele>312.2</ele><time>2026-05-05T10:33:41Z</time></trkpt><trkpt lat="41.60903923631998" lon="20.011694279726882"><ele>312.4</ele><time>2026-05-05T10:33:42Z</time></trkpt><trkpt lat="41.60910680895993" lon="20.011800642588362"><ele>312.6</ele><time>2026-05-05T10:33:43Z</time></trkpt><trkpt lat="41.60917375297536" lon="20.01188963708502"><ele>312.8</ele><time>2026-05-05T10:33:44Z</time></trkpt><trkpt lat="41.60924383896899" lon="20.01198299139646"><ele>313.0</ele><time>2026-05-05T10:33:45Z</time></trkpt><trkpt lat="41.60931302567404" lon="20.012081489237406"><ele>313.0</ele><time>2026-05-05T10:33:46Z</time></trkpt><trkpt lat="41.60937738766133" lon="20.012181865624427"><ele>313.0</ele><time>2026-05-05T10:33:47Z</time></trkpt><trkpt lat="41.609431117891546" lon="20.012264640180867"><ele>313.0</ele><time>2026-05-05T10:33:48Z</time></trkpt><trkpt lat="41.60947544086223" lon="20.01232722625111"><ele>313.0</ele><time>2026-05-05T10:33:49Z</time></trkpt><trkpt lat="41.60951876902582" lon="20.01239285644753"><ele>313.0</ele><time>2026-05-05T10:33:50Z</time></trkpt><trkpt lat="41.60958169848437" lon="20.012486540893295"><ele>313.0</ele><time>2026-05-05T10:33:52Z</time></trkpt><trkpt lat="41.609631514825" lon="20.0125480123372"><ele>312.4</ele><time>2026-05-05T10:33:55Z</time></trkpt><trkpt lat="41.60967960062201" lon="20.012618979184328"><ele>311.8</ele><time>2026-05-05T10:34:02Z</time></trkpt><trkpt lat="41.60976841747126" lon="20.012754116366477"><ele>311.2</ele><time>2026-05-05T10:34:04Z</time></trkpt><trkpt lat="41.60982073670745" lon="20.012835167400308"><ele>310.6</ele><time>2026-05-05T10:34:05Z</time></trkpt><trkpt lat="41.609866874011885" lon="20.012898208648114"><ele>310.0</ele><time>2026-05-05T10:34:06Z</time></trkpt><trkpt lat="41.60994526253261" lon="20.012981273772887"><ele>310.0</ele><time>2026-05-05T10:34:08Z</time></trkpt><trkpt lat="41.61003300320204" lon="20.0130691603438"><ele>310.0</ele><time>2026-05-05T10:34:10Z</time></trkpt><trkpt lat="41.61009272051139" lon="20.01316574237108"><ele>310.0</ele><time>2026-05-05T10:34:11Z</time></trkpt><trkpt lat="41.610154839328146" lon="20.013268909649817"><ele>310.0</ele><time>2026-05-05T10:34:12Z</time></trkpt><trkpt lat="41.610222013890095" lon="20.01336919395605"><ele>310.0</ele><time>2026-05-05T10:34:13Z</time></trkpt><trkpt lat="41.610287854177145" lon="20.01346713300863"><ele>309.8333333333333</ele><time>2026-05-05T10:34:14Z</time></trkpt><trkpt lat="41.61034279176193" lon="20.013550461017793"><ele>309.66666666666663</ele><time>2026-05-05T10:34:15Z</time></trkpt><trkpt lat="41.61040198619946" lon="20.01365532651619"><ele>309.5</ele><time>2026-05-05T10:34:17Z</time></trkpt><trkpt lat="41.610413501847646" lon="20.013757602574845"><ele>309.3333333333333</ele><time>2026-05-05T10:34:20Z</time></trkpt><trkpt lat="41.61038308338189" lon="20.013853166659707"><ele>309.1666666666667</ele><time>2026-05-05T10:34:23Z</time></trkpt><trkpt lat="41.61033725225596" lon="20.013931433884537"><ele>309.0</ele><time>2026-05-05T10:34:25Z</time></trkpt><trkpt lat="41.61028598323432" lon="20.01399825280066"><ele>309.0</ele><time>2026-05-05T10:34:27Z</time></trkpt><trkpt lat="41.61022798818817" lon="20.014069556379557"><ele>309.0</ele><time>2026-05-05T10:34:29Z</time></trkpt><trkpt lat="41.610155322611206" lon="20.014140278787462"><ele>309.0</ele><time>2026-05-05T10:34:31Z</time></trkpt><trkpt lat="41.61008691497687" lon="20.014221997578503"><ele>309.0</ele><time>2026-05-05T10:34:33Z</time></trkpt><trkpt lat="41.61003170362214" lon="20.014296263258856"><ele>309.0</ele><time>2026-05-05T10:34:35Z</time></trkpt><trkpt lat="41.609980270820444" lon="20.014353499387113"><ele>309.0</ele><time>2026-05-05T10:34:37Z</time></trkpt><trkpt lat="41.60993112499832" lon="20.014406965803445"><ele>308.8571428571429</ele><time>2026-05-05T10:34:39Z</time></trkpt><trkpt lat="41.60998713742766" lon="20.014479316994898"><ele>308.7142857142857</ele><time>2026-05-05T10:34:48Z</time></trkpt><trkpt lat="41.609920474940495" lon="20.01441160979343"><ele>308.57142857142856</ele><time>2026-05-05T10:36:49.999Z</time></trkpt><trkpt lat="41.609858554049865" lon="20.014345162523387"><ele>308.42857142857144</ele><time>2026-05-05T10:36:50.999Z</time></trkpt><trkpt lat="41.60991702076936" lon="20.014382136293275"><ele>308.2857142857143</ele><time>2026-05-05T10:38:28.999Z</time></trkpt><trkpt lat="41.609940032551414" lon="20.014465447579976"><ele>308.14285714285717</ele><time>2026-05-05T10:38:47.999Z</time></trkpt><trkpt lat="41.61000837310383" lon="20.01443725449123"><ele>308.0</ele><time>2026-05-05T10:40:53Z</time></trkpt><trkpt lat="41.61006805012992" lon="20.014348974777164"><ele>308.0</ele><time>2026-05-05T10:41:02.999Z</time></trkpt><trkpt lat="41.61004128312033" lon="20.014233121486637"><ele>308.0</ele><time>2026-05-05T10:41:04.999Z</time></trkpt><trkpt lat="41.610129831988914" lon="20.01412993737583"><ele>308.0</ele><time>2026-05-05T10:41:07.999Z</time></trkpt><trkpt lat="41.61020729491546" lon="20.01405030889194"><ele>308.0</ele><time>2026-05-05T10:41:09.999Z</time></trkpt><trkpt lat="41.61027452080125" lon="20.013960635484235"><ele>308.0</ele><time>2026-05-05T10:41:11.999Z</time></trkpt><trkpt lat="41.61034979071234" lon="20.013847366220247"><ele>308.0</ele><time>2026-05-05T10:41:13.999Z</time></trkpt><trkpt lat="41.61041374277687" lon="20.013770407531684"><ele>308.0</ele><time>2026-05-05T10:41:15.999Z</time></trkpt><trkpt lat="41.61046718904676" lon="20.01371033383521"><ele>308.0</ele><time>2026-05-05T10:41:17.999Z</time></trkpt><trkpt lat="41.610552580572794" lon="20.0136348130679"><ele>308.0</ele><time>2026-05-05T10:41:19.999Z</time></trkpt><trkpt lat="41.61062462864623" lon="20.01355589985021"><ele>308.0</ele><time>2026-05-05T10:41:21.999Z</time></trkpt><trkpt lat="41.610676223326166" lon="20.013482244998826"><ele>308.0</ele><time>2026-05-05T10:41:24.999Z</time></trkpt><trkpt lat="41.610733246330284" lon="20.01342084679945"><ele>308.0</ele><time>2026-05-05T10:41:27.999Z</time></trkpt><trkpt lat="41.6107923546486" lon="20.01334598274846"><ele>308.0</ele><time>2026-05-05T10:41:30.999Z</time></trkpt><trkpt lat="41.61073416482791" lon="20.013295674666523"><ele>308.0</ele><time>2026-05-05T10:41:42Z</time></trkpt><trkpt lat="41.610711520655" lon="20.013403233996893"><ele>308.0</ele><time>2026-05-05T10:41:45Z</time></trkpt><trkpt lat="41.610717950941016" lon="20.013488880240782"><ele>308.0</ele><time>2026-05-05T10:41:49Z</time></trkpt><trkpt lat="41.61064498851763" lon="20.013562500722053"><ele>308.0</ele><time>2026-05-05T10:41:51Z</time></trkpt><trkpt lat="41.61058488939455" lon="20.013618117833172"><ele>308.0</ele><time>2026-05-05T10:41:54Z</time></trkpt><trkpt lat="41.61054422417909" lon="20.013684612748182"><ele>308.0</ele><time>2026-05-05T10:41:57Z</time></trkpt><trkpt lat="41.61048871197607" lon="20.013749435254816"><ele>308.0</ele><time>2026-05-05T10:42:03Z</time></trkpt><trkpt lat="41.6104452304203" lon="20.01368408721168"><ele>308.0</ele><time>2026-05-05T10:42:05Z</time></trkpt><trkpt lat="41.61040330348882" lon="20.013614610987858"><ele>308.0</ele><time>2026-05-05T10:42:06Z</time></trkpt><trkpt lat="41.610321982607246" lon="20.01349281253427"><ele>308.0</ele><time>2026-05-05T10:42:10Z</time></trkpt><trkpt lat="41.6102590409142" lon="20.013396657026366"><ele>308.4</ele><time>2026-05-05T10:42:11Z</time></trkpt><trkpt lat="41.61018656134292" lon="20.013295877213483"><ele>308.8</ele><time>2026-05-05T10:42:12Z</time></trkpt><trkpt lat="41.61011050412602" lon="20.013193850639407"><ele>309.2</ele><time>2026-05-05T10:42:13Z</time></trkpt><trkpt lat="41.61004947448785" lon="20.013104860242812"><ele>309.6</ele><time>2026-05-05T10:42:14Z</time></trkpt><trkpt lat="41.610000344488355" lon="20.013041286286608"><ele>310.0</ele><time>2026-05-05T10:42:15Z</time></trkpt><trkpt lat="41.60992005659508" lon="20.012944097585148"><ele>310.0</ele><time>2026-05-05T10:42:17Z</time></trkpt><trkpt lat="41.60982614352401" lon="20.012830752012956"><ele>310.0</ele><time>2026-05-05T10:42:19Z</time></trkpt><trkpt lat="41.60978397445125" lon="20.012767462574132"><ele>310.0</ele><time>2026-05-05T10:42:20Z</time></trkpt><trkpt lat="41.60974123177733" lon="20.012699375475226"><ele>310.0</ele><time>2026-05-05T10:42:21Z</time></trkpt><trkpt lat="41.60969768881369" lon="20.01262937075444"><ele>310.0</ele><time>2026-05-05T10:42:22Z</time></trkpt><trkpt lat="41.6096494737409" lon="20.012560139595085"><ele>310.0</ele><time>2026-05-05T10:42:23Z</time></trkpt><trkpt lat="41.609599152095406" lon="20.012490542628257"><ele>309.8333333333333</ele><time>2026-05-05T10:42:24Z</time></trkpt><trkpt lat="41.609544411063446" lon="20.012418783501023"><ele>309.66666666666663</ele><time>2026-05-05T10:42:25Z</time></trkpt><trkpt lat="41.609489954408765" lon="20.01234427609655"><ele>309.5</ele><time>2026-05-05T10:42:26Z</time></trkpt><trkpt lat="41.60944312902809" lon="20.01227610573148"><ele>309.3333333333333</ele><time>2026-05-05T10:42:27Z</time></trkpt><trkpt lat="41.609374759756186" lon="20.012176822817388"><ele>309.1666666666667</ele><time>2026-05-05T10:42:29Z</time></trkpt><trkpt lat="41.609332923159904" lon="20.012093171600032"><ele>309.0</ele><time>2026-05-05T10:42:32Z</time></trkpt><trkpt lat="41.60925405224353" lon="20.012029889780127"><ele>309.42857142857144</ele><time>2026-05-05T10:42:35Z</time></trkpt><trkpt lat="41.6092068217201" lon="20.011959576636027"><ele>309.8571428571429</ele><time>2026-05-05T10:42:36Z</time></trkpt><trkpt lat="41.60915150725886" lon="20.011868849451435"><ele>310.28571428571433</ele><time>2026-05-05T10:42:37Z</time></trkpt><trkpt lat="41.60910687424438" lon="20.011792995500883"><ele>310.7142857142857</ele><time>2026-05-05T10:42:38Z</time></trkpt><trkpt lat="41.60905500345684" lon="20.011740414372284"><ele>311.1428571428571</ele><time>2026-05-05T10:42:49Z</time></trkpt><trkpt lat="41.609005213396294" lon="20.01166373733894"><ele>311.5714285714286</ele><time>2026-05-05T10:42:51Z</time></trkpt><trkpt lat="41.60895636744699" lon="20.01159969711456"><ele>312.0</ele><time>2026-05-05T10:43:02Z</time></trkpt><trkpt lat="41.60887859876429" lon="20.01146228272403"><ele>312.0</ele><time>2026-05-05T10:43:04Z</time></trkpt><trkpt lat="41.60881192713123" lon="20.011363396630113"><ele>312.0</ele><time>2026-05-05T10:43:05Z</time></trkpt><trkpt lat="41.608740698308026" lon="20.01126025285256"><ele>312.0</ele><time>2026-05-05T10:43:06Z</time></trkpt><trkpt lat="41.608662781124934" lon="20.011154140118578"><ele>312.0</ele><time>2026-05-05T10:43:07Z</time></trkpt><trkpt lat="41.60857946095771" lon="20.01103549538263"><ele>312.0</ele><time>2026-05-05T10:43:08Z</time></trkpt><trkpt lat="41.608502276583536" lon="20.010924968307936"><ele>312.6</ele><time>2026-05-05T10:43:09Z</time></trkpt><trkpt lat="41.608440009005726" lon="20.01083455527481"><ele>313.2</ele><time>2026-05-05T10:43:10Z</time></trkpt><trkpt lat="41.608386968876765" lon="20.010762224267484"><ele>313.8</ele><time>2026-05-05T10:43:11Z</time></trkpt><trkpt lat="41.608334761698906" lon="20.01070206731773"><ele>314.4</ele><time>2026-05-05T10:43:12Z</time></trkpt><trkpt lat="41.608239192323374" lon="20.01057040488163"><ele>315.0</ele><time>2026-05-05T10:43:14Z</time></trkpt><trkpt lat="41.6081773141655" lon="20.010479567173466"><ele>315.2</ele><time>2026-05-05T10:43:15Z</time></trkpt><trkpt lat="41.60811021825996" lon="20.01037605270378"><ele>315.4</ele><time>2026-05-05T10:43:16Z</time></trkpt><trkpt lat="41.608051972243345" lon="20.010273729903396"><ele>315.6</ele><time>2026-05-05T10:43:17Z</time></trkpt><trkpt lat="41.60804374122977" lon="20.010186900276288"><ele>315.8</ele><time>2026-05-05T10:43:21Z</time></trkpt><trkpt lat="41.6080796101995" lon="20.01011344555728"><ele>316.0</ele><time>2026-05-05T10:43:24Z</time></trkpt><trkpt lat="41.60818376217209" lon="20.009966890246968"><ele>316.25</ele><time>2026-05-05T10:43:26Z</time></trkpt><trkpt lat="41.60827709879138" lon="20.00986294108176"><ele>316.5</ele><time>2026-05-05T10:43:27Z</time></trkpt><trkpt lat="41.60836190476833" lon="20.009762518793824"><ele>316.75</ele><time>2026-05-05T10:43:28Z</time></trkpt><trkpt lat="41.60844282282435" lon="20.00966471954968"><ele>317.0</ele><time>2026-05-05T10:43:29Z</time></trkpt><trkpt lat="41.60852599485493" lon="20.009558765309503"><ele>317.0</ele><time>2026-05-05T10:43:30Z</time></trkpt><trkpt lat="41.6086305382417" lon="20.009426645423417"><ele>317.0</ele><time>2026-05-05T10:43:31Z</time></trkpt><trkpt lat="41.608736426773646" lon="20.009292366765063"><ele>317.0</ele><time>2026-05-05T10:43:32Z</time></trkpt><trkpt lat="41.608840571476186" lon="20.009160937796697"><ele>317.0</ele><time>2026-05-05T10:43:33Z</time></trkpt><trkpt lat="41.6089274008746" lon="20.00904847953817"><ele>316.83333333333337</ele><time>2026-05-05T10:43:34Z</time></trkpt><trkpt lat="41.60900353774063" lon="20.008959958225617"><ele>316.6666666666667</ele><time>2026-05-05T10:43:35Z</time></trkpt><trkpt lat="41.60905720430947" lon="20.00890460556308"><ele>316.5</ele><time>2026-05-05T10:43:36Z</time></trkpt><trkpt lat="41.60911436711244" lon="20.008851029670936"><ele>316.3333333333333</ele><time>2026-05-05T10:43:40Z</time></trkpt><trkpt lat="41.60916526252383" lon="20.008787496076362"><ele>316.16666666666663</ele><time>2026-05-05T10:43:42Z</time></trkpt><trkpt lat="41.60924411209947" lon="20.00876915859679"><ele>316.0</ele><time>2026-05-05T10:43:44Z</time></trkpt><trkpt lat="41.60934318016259" lon="20.008822817435604"><ele>316.0</ele><time>2026-05-05T10:43:45.999Z</time></trkpt><trkpt lat="41.609399595769005" lon="20.008910494897513"><ele>316.0</ele><time>2026-05-05T10:43:46.999Z</time></trkpt><trkpt lat="41.6094697745138" lon="20.009054902802937"><ele>316.0</ele><time>2026-05-05T10:43:47.999Z</time></trkpt><trkpt lat="41.6095292258466" lon="20.009153109325972"><ele>316.0</ele><time>2026-05-05T10:43:48.999Z</time></trkpt><trkpt lat="41.60958956308007" lon="20.009210963523895"><ele>316.0</ele><time>2026-05-05T10:43:49.999Z</time></trkpt><trkpt lat="41.60964780464571" lon="20.009259688981096"><ele>315.8333333333333</ele><time>2026-05-05T10:43:51.999Z</time></trkpt><trkpt lat="41.60969143803873" lon="20.009333076429055"><ele>315.66666666666663</ele><time>2026-05-05T10:43:52.999Z</time></trkpt><trkpt lat="41.609726551775196" lon="20.009413457637052"><ele>315.5</ele><time>2026-05-05T10:43:53.999Z</time></trkpt><trkpt lat="41.609763423157574" lon="20.00948938214976"><ele>315.3333333333333</ele><time>2026-05-05T10:43:54.999Z</time></trkpt><trkpt lat="41.60982246714388" lon="20.009583447243635"><ele>315.1666666666667</ele><time>2026-05-05T10:43:55.999Z</time></trkpt><trkpt lat="41.609897263594284" lon="20.00967903730283"><ele>315.0</ele><time>2026-05-05T10:43:56.999Z</time></trkpt><trkpt lat="41.60996233349147" lon="20.009776003152012"><ele>315.0</ele><time>2026-05-05T10:43:57.999Z</time></trkpt><trkpt lat="41.61002730547039" lon="20.009873094354756"><ele>315.0</ele><time>2026-05-05T10:43:58.999Z</time></trkpt><trkpt lat="41.61010040009439" lon="20.009977314293188"><ele>315.0</ele><time>2026-05-05T10:43:59.999Z</time></trkpt><trkpt lat="41.610182385209036" lon="20.010101564039662"><ele>315.0</ele><time>2026-05-05T10:44:00.999Z</time></trkpt><trkpt lat="41.61025356176967" lon="20.010214383621985"><ele>315.0</ele><time>2026-05-05T10:44:01.999Z</time></trkpt><trkpt lat="41.61033341785517" lon="20.01034468029062"><ele>314.0</ele><time>2026-05-05T10:44:02.999Z</time></trkpt><trkpt lat="41.610412946904674" lon="20.01046319520191"><ele>313.0</ele><time>2026-05-05T10:44:03.999Z</time></trkpt><trkpt lat="41.610500712223185" lon="20.010593199240827"><ele>312.0</ele><time>2026-05-05T10:44:04.999Z</time></trkpt><trkpt lat="41.61060948063354" lon="20.010742605890677"><ele>311.0</ele><time>2026-05-05T10:44:05.999Z</time></trkpt><trkpt lat="41.61069251243874" lon="20.010867130776248"><ele>310.8</ele><time>2026-05-05T10:44:06.999Z</time></trkpt><trkpt lat="41.610776658664214" lon="20.01096583662909"><ele>310.6</ele><time>2026-05-05T10:44:07.999Z</time></trkpt><trkpt lat="41.61085414448352" lon="20.011083763465894"><ele>310.4</ele><time>2026-05-05T10:44:08.999Z</time></trkpt><trkpt lat="41.61092843965536" lon="20.011200187060936"><ele>310.2</ele><time>2026-05-05T10:44:09.999Z</time></trkpt><trkpt lat="41.61099866272715" lon="20.0113051068176"><ele>310.0</ele><time>2026-05-05T10:44:10.999Z</time></trkpt><trkpt lat="41.61105645733336" lon="20.01139007574378"><ele>310.0</ele><time>2026-05-05T10:44:11.999Z</time></trkpt><trkpt lat="41.61110514967507" lon="20.011462828324994"><ele>310.0</ele><time>2026-05-05T10:44:12.999Z</time></trkpt><trkpt lat="41.6111734463916" lon="20.011541554121177"><ele>310.0</ele><time>2026-05-05T10:44:14.999Z</time></trkpt><trkpt lat="41.611268825759936" lon="20.011491937379944"><ele>310.0</ele><time>2026-05-05T10:44:16.999Z</time></trkpt><trkpt lat="41.611317857778026" lon="20.011416781606208"><ele>310.0</ele><time>2026-05-05T10:44:17.999Z</time></trkpt><trkpt lat="41.61136304872836" lon="20.011317329823722"><ele>310.0</ele><time>2026-05-05T10:44:18.999Z</time></trkpt><trkpt lat="41.61141366095076" lon="20.011211786915393"><ele>310.0</ele><time>2026-05-05T10:44:19.999Z</time></trkpt><trkpt lat="41.611469182273254" lon="20.011102438256554"><ele>310.0</ele><time>2026-05-05T10:44:20.999Z</time></trkpt><trkpt lat="41.611530562324305" lon="20.01098723135813"><ele>310.0</ele><time>2026-05-05T10:44:21.999Z</time></trkpt><trkpt lat="41.611595457828315" lon="20.01087427753531"><ele>310.0</ele><time>2026-05-05T10:44:22.999Z</time></trkpt><trkpt lat="41.61165166255645" lon="20.010777450328966"><ele>310.0</ele><time>2026-05-05T10:44:23.999Z</time></trkpt><trkpt lat="41.61169656778213" lon="20.010697720622616"><ele>310.0</ele><time>2026-05-05T10:44:24.999Z</time></trkpt><trkpt lat="41.6117492155102" lon="20.0106028827983"><ele>310.0</ele><time>2026-05-05T10:44:26.999Z</time></trkpt><trkpt lat="41.611800937409114" lon="20.010477508591038"><ele>310.0</ele><time>2026-05-05T10:44:28.999Z</time></trkpt><trkpt lat="41.61184873943398" lon="20.010354601800305"><ele>310.0</ele><time>2026-05-05T10:44:29.999Z</time></trkpt><trkpt lat="41.611913406081165" lon="20.01023376706538"><ele>310.0</ele><time>2026-05-05T10:44:30.999Z</time></trkpt><trkpt lat="41.611987899514496" lon="20.010120642917553"><ele>309.25</ele><time>2026-05-05T10:44:31.999Z</time></trkpt><trkpt lat="41.61205653316998" lon="20.01000440310245"><ele>308.5</ele><time>2026-05-05T10:44:32.999Z</time></trkpt><trkpt lat="41.61212890031255" lon="20.009869336733097"><ele>307.75</ele><time>2026-05-05T10:44:33.999Z</time></trkpt><trkpt lat="41.612196980475126" lon="20.00972126445677"><ele>307.0</ele><time>2026-05-05T10:44:34.999Z</time></trkpt><trkpt lat="41.61225265616216" lon="20.009604805987102"><ele>307.0</ele><time>2026-05-05T10:44:35.999Z</time></trkpt><trkpt lat="41.61230474788834" lon="20.009514545026295"><ele>307.0</ele><time>2026-05-05T10:44:36.999Z</time></trkpt><trkpt lat="41.61238296443165" lon="20.00939288157691"><ele>307.0</ele><time>2026-05-05T10:44:37.999Z</time></trkpt><trkpt lat="41.612479327754656" lon="20.00923667131324"><ele>307.0</ele><time>2026-05-05T10:44:38.999Z</time></trkpt><trkpt lat="41.6125765499431" lon="20.009066336013365"><ele>306.66666666666663</ele><time>2026-05-05T10:44:39.999Z</time></trkpt><trkpt lat="41.612666752152826" lon="20.008870341172475"><ele>306.3333333333333</ele><time>2026-05-05T10:44:40.999Z</time></trkpt><trkpt lat="41.61274636827537" lon="20.008640989520025"><ele>306.0</ele><time>2026-05-05T10:44:41.999Z</time></trkpt><trkpt lat="41.61281991807943" lon="20.00840876857725"><ele>304.0</ele><time>2026-05-05T10:44:42.999Z</time></trkpt><trkpt lat="41.612899746834245" lon="20.008169389547987"><ele>302.0</ele><time>2026-05-05T10:44:43.999Z</time></trkpt><trkpt lat="41.612985449151175" lon="20.007919357905703"><ele>300.0</ele><time>2026-05-05T10:44:44.999Z</time></trkpt><trkpt lat="41.61307074855376" lon="20.00767208663001"><ele>300.3333333333333</ele><time>2026-05-05T10:44:45.999Z</time></trkpt><trkpt lat="41.61314881746575" lon="20.007445711504324"><ele>300.66666666666663</ele><time>2026-05-05T10:44:46.999Z</time></trkpt><trkpt lat="41.61321957910838" lon="20.00723457396518"><ele>301.0</ele><time>2026-05-05T10:44:47.999Z</time></trkpt><trkpt lat="41.61328512323841" lon="20.007035970323926"><ele>301.0</ele><time>2026-05-05T10:44:48.999Z</time></trkpt><trkpt lat="41.613345537896535" lon="20.00684949043737"><ele>301.0</ele><time>2026-05-05T10:44:49.999Z</time></trkpt><trkpt lat="41.613405889046476" lon="20.0066695505281"><ele>301.0</ele><time>2026-05-05T10:44:50.999Z</time></trkpt><trkpt lat="41.613470067779154" lon="20.006493207263862"><ele>301.0</ele><time>2026-05-05T10:44:51.999Z</time></trkpt><trkpt lat="41.613548793890544" lon="20.00631111394033"><ele>301.0</ele><time>2026-05-05T10:44:52.999Z</time></trkpt><trkpt lat="41.613637693316804" lon="20.006141725952745"><ele>301.0</ele><time>2026-05-05T10:44:53.999Z</time></trkpt><trkpt lat="41.613728091358105" lon="20.00597195187052"><ele>301.0</ele><time>2026-05-05T10:44:54.999Z</time></trkpt><trkpt lat="41.613818680450485" lon="20.005790061390037"><ele>300.3333333333333</ele><time>2026-05-05T10:44:55.999Z</time></trkpt><trkpt lat="41.613911030255274" lon="20.005600114325063"><ele>299.6666666666667</ele><time>2026-05-05T10:44:56.999Z</time></trkpt><trkpt lat="41.614007400767335" lon="20.005409283653112"><ele>299.0</ele><time>2026-05-05T10:44:57.999Z</time></trkpt><trkpt lat="41.614107505172605" lon="20.005210208601007"><ele>299.0</ele><time>2026-05-05T10:44:58.999Z</time></trkpt><trkpt lat="41.61420801166648" lon="20.005000498925774"><ele>299.0</ele><time>2026-05-05T10:44:59.999Z</time></trkpt><trkpt lat="41.61431378128148" lon="20.004774453387412"><ele>299.0</ele><time>2026-05-05T10:45:00.999Z</time></trkpt><trkpt lat="41.6144266429649" lon="20.004539672216065"><ele>297.0</ele><time>2026-05-05T10:45:01.999Z</time></trkpt><trkpt lat="41.6145367487996" lon="20.004311230242866"><ele>295.0</ele><time>2026-05-05T10:45:02.999Z</time></trkpt><trkpt lat="41.61465266369357" lon="20.004085556177206"><ele>293.0</ele><time>2026-05-05T10:45:03.999Z</time></trkpt><trkpt lat="41.61476734828732" lon="20.003863207098327"><ele>293.0</ele><time>2026-05-05T10:45:04.999Z</time></trkpt><trkpt lat="41.61487169509418" lon="20.003659661706877"><ele>293.0</ele><time>2026-05-05T10:45:05.999Z</time></trkpt><trkpt lat="41.6149736222454" lon="20.00346752048498"><ele>293.0</ele><time>2026-05-05T10:45:06.999Z</time></trkpt><trkpt lat="41.61506728415229" lon="20.003290136764015"><ele>291.6666666666667</ele><time>2026-05-05T10:45:07.999Z</time></trkpt><trkpt lat="41.61516679030825" lon="20.00311289593064"><ele>290.3333333333333</ele><time>2026-05-05T10:45:08.999Z</time></trkpt><trkpt lat="41.61526893866962" lon="20.002943824204056"><ele>289.0</ele><time>2026-05-05T10:45:09.999Z</time></trkpt><trkpt lat="41.61537522365065" lon="20.00278469036739"><ele>288.3333333333333</ele><time>2026-05-05T10:45:10.999Z</time></trkpt><trkpt lat="41.61549488096341" lon="20.002634430821956"><ele>287.6666666666667</ele><time>2026-05-05T10:45:11.999Z</time></trkpt><trkpt lat="41.61563830074901" lon="20.002492247086916"><ele>287.0</ele><time>2026-05-05T10:45:12.999Z</time></trkpt><trkpt lat="41.61579064420981" lon="20.002368682376215"><ele>285.0</ele><time>2026-05-05T10:45:13.999Z</time></trkpt><trkpt lat="41.61593131716542" lon="20.002258988983826"><ele>283.0</ele><time>2026-05-05T10:45:14.999Z</time></trkpt><trkpt lat="41.616045176523414" lon="20.00216375645175"><ele>281.0</ele><time>2026-05-05T10:45:15.999Z</time></trkpt><trkpt lat="41.61613969296407" lon="20.00207281441014"><ele>279.0</ele><time>2026-05-05T10:45:16.999Z</time></trkpt><trkpt lat="41.6162528453183" lon="20.001979007915114"><ele>278.75</ele><time>2026-05-05T10:45:17.999Z</time></trkpt><trkpt lat="41.61636927186217" lon="20.001901221011543"><ele>278.5</ele><time>2026-05-05T10:45:18.999Z</time></trkpt><trkpt lat="41.616498748647764" lon="20.001833761999762"><ele>278.25</ele><time>2026-05-05T10:45:19.999Z</time></trkpt><trkpt lat="41.61663782044053" lon="20.00179258660891"><ele>278.0</ele><time>2026-05-05T10:45:20.999Z</time></trkpt><trkpt lat="41.61679048006073" lon="20.00177326052822"><ele>278.0</ele><time>2026-05-05T10:45:21.999Z</time></trkpt><trkpt lat="41.61696453938683" lon="20.001778569319367"><ele>278.0</ele><time>2026-05-05T10:45:22.999Z</time></trkpt><trkpt lat="41.617173245556536" lon="20.001817588383307"><ele>278.0</ele><time>2026-05-05T10:45:23.999Z</time></trkpt><trkpt lat="41.61740176585681" lon="20.00188468628787"><ele>275.0</ele><time>2026-05-05T10:45:24.999Z</time></trkpt><trkpt lat="41.61764619471903" lon="20.00194235317274"><ele>272.0</ele><time>2026-05-05T10:45:25.999Z</time></trkpt><trkpt lat="41.617898980560774" lon="20.0019907958791"><ele>269.5</ele><time>2026-05-05T10:45:26.999Z</time></trkpt><trkpt lat="41.61814643714551" lon="20.0020232363348"><ele>267.0</ele><time>2026-05-05T10:45:27.999Z</time></trkpt><trkpt lat="41.61838011560078" lon="20.002035849931854"><ele>267.0</ele><time>2026-05-05T10:45:28.999Z</time></trkpt><trkpt lat="41.618601747324725" lon="20.00201233996546"><ele>267.0</ele><time>2026-05-05T10:45:29.999Z</time></trkpt><trkpt lat="41.61884631311349" lon="20.001966591522468"><ele>263.5</ele><time>2026-05-05T10:45:30.999Z</time></trkpt><trkpt lat="41.61911265496984" lon="20.001922439411207"><ele>260.0</ele><time>2026-05-05T10:45:31.999Z</time></trkpt><trkpt lat="41.61936717941456" lon="20.00188221048736"><ele>257.0</ele><time>2026-05-05T10:45:32.999Z</time></trkpt><trkpt lat="41.619608662392004" lon="20.001817617737384"><ele>254.0</ele><time>2026-05-05T10:45:33.999Z</time></trkpt><trkpt lat="41.61983379688793" lon="20.001736173915575"><ele>253.33333333333334</ele><time>2026-05-05T10:45:34.999Z</time></trkpt><trkpt lat="41.62002557101657" lon="20.00165862300275"><ele>252.66666666666669</ele><time>2026-05-05T10:45:35.999Z</time></trkpt><trkpt lat="41.620197929712646" lon="20.001585165673376"><ele>252.0</ele><time>2026-05-05T10:45:36.999Z</time></trkpt><trkpt lat="41.620323615324494" lon="20.001534261690175"><ele>251.8</ele><time>2026-05-05T10:45:37.999Z</time></trkpt><trkpt lat="41.62042097181098" lon="20.001500240234368"><ele>251.6</ele><time>2026-05-05T10:45:38.999Z</time></trkpt><trkpt lat="41.62050542273456" lon="20.001476333022516"><ele>251.40000000000003</ele><time>2026-05-05T10:45:39.999Z</time></trkpt><trkpt lat="41.62058920117406" lon="20.001456442396915"><ele>251.20000000000002</ele><time>2026-05-05T10:45:40.999Z</time></trkpt><trkpt lat="41.62069826631158" lon="20.00146216630226"><ele>251.0</ele><time>2026-05-05T10:45:41.999Z</time></trkpt><trkpt lat="41.62084543477364" lon="20.001502978822842"><ele>251.0</ele><time>2026-05-05T10:45:42.999Z</time></trkpt><trkpt lat="41.62102156514587" lon="20.001589376826786"><ele>251.0</ele><time>2026-05-05T10:45:43.999Z</time></trkpt><trkpt lat="41.621205318981204" lon="20.00168513677257"><ele>251.0</ele><time>2026-05-05T10:45:44.999Z</time></trkpt><trkpt lat="41.6213857162197" lon="20.00175128246546"><ele>250.66666666666669</ele><time>2026-05-05T10:45:45.999Z</time></trkpt><trkpt lat="41.621526886472694" lon="20.001791251515417"><ele>250.33333333333331</ele><time>2026-05-05T10:45:46.999Z</time></trkpt><trkpt lat="41.62167806603843" lon="20.001785196393907"><ele>250.0</ele><time>2026-05-05T10:45:47.999Z</time></trkpt><trkpt lat="41.62185524217008" lon="20.00171507804175"><ele>247.0</ele><time>2026-05-05T10:45:48.999Z</time></trkpt><trkpt lat="41.6220531292115" lon="20.00158105994001"><ele>244.0</ele><time>2026-05-05T10:45:49.999Z</time></trkpt><trkpt lat="41.62226365197919" lon="20.00144101567375"><ele>244.0</ele><time>2026-05-05T10:45:51Z</time></trkpt><trkpt lat="41.622492499978584" lon="20.001329524114265"><ele>244.0</ele><time>2026-05-05T10:45:52Z</time></trkpt><trkpt lat="41.622745257014344" lon="20.001253284203745"><ele>239.5</ele><time>2026-05-05T10:45:53Z</time></trkpt><trkpt lat="41.623000113090406" lon="20.001208003564916"><ele>235.0</ele><time>2026-05-05T10:45:54Z</time></trkpt><trkpt lat="41.623244824703306" lon="20.00117942936126"><ele>235.0</ele><time>2026-05-05T10:45:55Z</time></trkpt><trkpt lat="41.62350260042401" lon="20.001152717885823"><ele>235.0</ele><time>2026-05-05T10:45:56Z</time></trkpt><trkpt lat="41.62376421904389" lon="20.00112453877655"><ele>229.0</ele><time>2026-05-05T10:45:57Z</time></trkpt><trkpt lat="41.62403209563787" lon="20.001108446165254"><ele>223.0</ele><time>2026-05-05T10:45:58Z</time></trkpt><trkpt lat="41.624271939757875" lon="20.001110234489836"><ele>223.0</ele><time>2026-05-05T10:45:59Z</time></trkpt><trkpt lat="41.62447608513419" lon="20.001109639116944"><ele>223.0</ele><time>2026-05-05T10:46:00Z</time></trkpt><trkpt lat="41.62465471281115" lon="20.001069019509796"><ele>223.0</ele><time>2026-05-05T10:46:01Z</time></trkpt><trkpt lat="41.624841590320806" lon="20.000953926891707"><ele>216.0</ele><time>2026-05-05T10:46:02Z</time></trkpt><trkpt lat="41.625045943086576" lon="20.00082067269669"><ele>209.0</ele><time>2026-05-05T10:46:03Z</time></trkpt><trkpt lat="41.62526136451756" lon="20.00072934032035"><ele>207.66666666666669</ele><time>2026-05-05T10:46:04Z</time></trkpt><trkpt lat="41.62548356713111" lon="20.00067569693732"><ele>206.33333333333331</ele><time>2026-05-05T10:46:05Z</time></trkpt><trkpt lat="41.62569101183097" lon="20.000626779924996"><ele>205.0</ele><time>2026-05-05T10:46:06Z</time></trkpt><trkpt lat="41.62589220409783" lon="20.00056726103984"><ele>205.0</ele><time>2026-05-05T10:46:07Z</time></trkpt><trkpt lat="41.62608847068004" lon="20.000505243216697"><ele>205.0</ele><time>2026-05-05T10:46:08Z</time></trkpt><trkpt lat="41.626261430812214" lon="20.00043688968894"><ele>205.0</ele><time>2026-05-05T10:46:09Z</time></trkpt><trkpt lat="41.626414702061815" lon="20.000333504169895"><ele>204.25</ele><time>2026-05-05T10:46:10Z</time></trkpt><trkpt lat="41.62651426306291" lon="20.000210138128153"><ele>203.5</ele><time>2026-05-05T10:46:11Z</time></trkpt><trkpt lat="41.626563127709105" lon="20.000067775848418"><ele>202.75</ele><time>2026-05-05T10:46:12Z</time></trkpt><trkpt lat="41.626553172228185" lon="19.999920635395668"><ele>202.0</ele><time>2026-05-05T10:46:13Z</time></trkpt><trkpt lat="41.62649844850668" lon="19.999769786902284"><ele>202.0</ele><time>2026-05-05T10:46:14Z</time></trkpt><trkpt lat="41.62640426161406" lon="19.999619461003824"><ele>202.0</ele><time>2026-05-05T10:46:15Z</time></trkpt><trkpt lat="41.62627979864699" lon="19.999492571711873"><ele>202.0</ele><time>2026-05-05T10:46:16Z</time></trkpt><trkpt lat="41.62613032746482" lon="19.999367716669187"><ele>202.0</ele><time>2026-05-05T10:46:17Z</time></trkpt><trkpt lat="41.625980316733376" lon="19.999241316469856"><ele>202.0</ele><time>2026-05-05T10:46:18Z</time></trkpt><trkpt lat="41.625824933621054" lon="19.99911862765519"><ele>202.0</ele><time>2026-05-05T10:46:19Z</time></trkpt><trkpt lat="41.625657149930305" lon="19.999016192984257"><ele>202.0</ele><time>2026-05-05T10:46:20Z</time></trkpt><trkpt lat="41.62548676037599" lon="19.99895756560724"><ele>202.0</ele><time>2026-05-05T10:46:21Z</time></trkpt><trkpt lat="41.625310886165636" lon="19.998917881168012"><ele>202.0</ele><time>2026-05-05T10:46:22Z</time></trkpt><trkpt lat="41.625132463428" lon="19.998877372174316"><ele>203.0</ele><time>2026-05-05T10:46:23Z</time></trkpt><trkpt lat="41.62496435459638" lon="19.998834409261196"><ele>204.0</ele><time>2026-05-05T10:46:24Z</time></trkpt><trkpt lat="41.62479648308607" lon="19.9987873091809"><ele>205.0</ele><time>2026-05-05T10:46:25Z</time></trkpt><trkpt lat="41.624623597561374" lon="19.99873875057543"><ele>207.66666666666666</ele><time>2026-05-05T10:46:26Z</time></trkpt><trkpt lat="41.624451436238786" lon="19.998697035056853"><ele>210.33333333333331</ele><time>2026-05-05T10:46:27Z</time></trkpt><trkpt lat="41.62428159688854" lon="19.998635511555502"><ele>213.0</ele><time>2026-05-05T10:46:28Z</time></trkpt><trkpt lat="41.62410271212457" lon="19.998550809869318"><ele>213.0</ele><time>2026-05-05T10:46:29Z</time></trkpt><trkpt lat="41.62392265076388" lon="19.998448428505395"><ele>213.0</ele><time>2026-05-05T10:46:30Z</time></trkpt><trkpt lat="41.623751135593594" lon="19.998324353086144"><ele>213.0</ele><time>2026-05-05T10:46:31Z</time></trkpt><trkpt lat="41.623573959316744" lon="19.998183985292812"><ele>210.33333333333331</ele><time>2026-05-05T10:46:32Z</time></trkpt><trkpt lat="41.62339800448209" lon="19.99805202334163"><ele>207.66666666666666</ele><time>2026-05-05T10:46:33Z</time></trkpt><trkpt lat="41.623218949615534" lon="19.997916933977358"><ele>205.0</ele><time>2026-05-05T10:46:34Z</time></trkpt><trkpt lat="41.62305903834834" lon="19.997766619613227"><ele>205.0</ele><time>2026-05-05T10:46:35Z</time></trkpt><trkpt lat="41.62291988873381" lon="19.997603347621347"><ele>205.0</ele><time>2026-05-05T10:46:36Z</time></trkpt><trkpt lat="41.62279833543323" lon="19.997417240364232"><ele>205.0</ele><time>2026-05-05T10:46:37Z</time></trkpt><trkpt lat="41.6226862748999" lon="19.997229671868517"><ele>204.0</ele><time>2026-05-05T10:46:38Z</time></trkpt><trkpt lat="41.62254858016286" lon="19.997070851828692"><ele>203.0</ele><time>2026-05-05T10:46:39Z</time></trkpt><trkpt lat="41.62237669715818" lon="19.99695446168319"><ele>202.0</ele><time>2026-05-05T10:46:40Z</time></trkpt><trkpt lat="41.62218769907935" lon="19.996841374402848"><ele>202.0</ele><time>2026-05-05T10:46:40.999Z</time></trkpt><trkpt lat="41.622000294279516" lon="19.996723394979426"><ele>202.0</ele><time>2026-05-05T10:46:41.999Z</time></trkpt><trkpt lat="41.62182248457838" lon="19.996641916010173"><ele>202.0</ele><time>2026-05-05T10:46:42.999Z</time></trkpt><trkpt lat="41.621639344694614" lon="19.996598680895993"><ele>200.0</ele><time>2026-05-05T10:46:43.999Z</time></trkpt><trkpt lat="41.62148154239002" lon="19.996585758555"><ele>198.0</ele><time>2026-05-05T10:46:44.999Z</time></trkpt><trkpt lat="41.621342851845164" lon="19.996546130573595"><ele>196.0</ele><time>2026-05-05T10:46:45.999Z</time></trkpt><trkpt lat="41.621251458018406" lon="19.996485261590713"><ele>194.0</ele><time>2026-05-05T10:46:46.999Z</time></trkpt><trkpt lat="41.62119645843853" lon="19.996423374215926"><ele>194.00000000000003</ele><time>2026-05-05T10:46:47.999Z</time></trkpt><trkpt lat="41.621158833136995" lon="19.996339269096747"><ele>194.0</ele><time>2026-05-05T10:46:49.999Z</time></trkpt><trkpt lat="41.621059690294985" lon="19.996236480700126"><ele>194.0</ele><time>2026-05-05T10:47:03.999Z</time></trkpt><trkpt lat="41.62100949478812" lon="19.996167647497852"><ele>194.0</ele><time>2026-05-05T10:47:04.999Z</time></trkpt><trkpt lat="41.62094780593755" lon="19.996087632997806"><ele>194.00000000000003</ele><time>2026-05-05T10:47:05.999Z</time></trkpt><trkpt lat="41.62087734298194" lon="19.99601247417831"><ele>194.0</ele><time>2026-05-05T10:47:06.999Z</time></trkpt><trkpt lat="41.620785535189604" lon="19.995945185653373"><ele>194.0</ele><time>2026-05-05T10:47:07.999Z</time></trkpt><trkpt lat="41.62067446232662" lon="19.99588666572518"><ele>194.0</ele><time>2026-05-05T10:47:08.999Z</time></trkpt><trkpt lat="41.620555855433594" lon="19.995827869173834"><ele>194.0</ele><time>2026-05-05T10:47:09.999Z</time></trkpt><trkpt lat="41.62043885366898" lon="19.995774958086223"><ele>194.0</ele><time>2026-05-05T10:47:10.999Z</time></trkpt><trkpt lat="41.620310092343935" lon="19.99572060380222"><ele>194.25</ele><time>2026-05-05T10:47:11.999Z</time></trkpt><trkpt lat="41.62017962470117" lon="19.995671420489323"><ele>194.5</ele><time>2026-05-05T10:47:12.999Z</time></trkpt><trkpt lat="41.62003872519545" lon="19.995647411524022"><ele>194.75</ele><time>2026-05-05T10:47:13.999Z</time></trkpt><trkpt lat="41.61989805060796" lon="19.99567295438632"><ele>195.0</ele><time>2026-05-05T10:47:14.999Z</time></trkpt><trkpt lat="41.61976642321562" lon="19.9957731415774"><ele>194.8</ele><time>2026-05-05T10:47:15.999Z</time></trkpt><trkpt lat="41.61965061635174" lon="19.995895008536795"><ele>194.6</ele><time>2026-05-05T10:47:16.999Z</time></trkpt><trkpt lat="41.619546381986744" lon="19.995944251400168"><ele>194.39999999999998</ele><time>2026-05-05T10:47:17.999Z</time></trkpt><trkpt lat="41.61945755985934" lon="19.99590887816941"><ele>194.2</ele><time>2026-05-05T10:47:18.999Z</time></trkpt><trkpt lat="41.619394531285984" lon="19.995809713149484"><ele>194.0</ele><time>2026-05-05T10:47:19.999Z</time></trkpt><trkpt lat="41.61937349661921" lon="19.995677807855568"><ele>194.0</ele><time>2026-05-05T10:47:20.999Z</time></trkpt><trkpt lat="41.619415156575144" lon="19.995557069785654"><ele>194.0</ele><time>2026-05-05T10:47:21.999Z</time></trkpt><trkpt lat="41.619500978398264" lon="19.995459367462086"><ele>194.0</ele><time>2026-05-05T10:47:22.999Z</time></trkpt><trkpt lat="41.61961254566785" lon="19.995369839912772"><ele>194.0</ele><time>2026-05-05T10:47:23.999Z</time></trkpt><trkpt lat="41.61974656335741" lon="19.99528086568078"><ele>194.33333333333334</ele><time>2026-05-05T10:47:24.999Z</time></trkpt><trkpt lat="41.61990875517006" lon="19.99520560205127"><ele>194.66666666666669</ele><time>2026-05-05T10:47:25.999Z</time></trkpt><trkpt lat="41.62010306202975" lon="19.995150357424283"><ele>195.0</ele><time>2026-05-05T10:47:26.999Z</time></trkpt><trkpt lat="41.62030692734906" lon="19.995100561578557"><ele>194.66666666666669</ele><time>2026-05-05T10:47:27.999Z</time></trkpt><trkpt lat="41.62051951769243" lon="19.995048208841855"><ele>194.33333333333334</ele><time>2026-05-05T10:47:28.999Z</time></trkpt><trkpt lat="41.62074110093133" lon="19.99501040429003"><ele>194.0</ele><time>2026-05-05T10:47:29.999Z</time></trkpt><trkpt lat="41.62096414840734" lon="19.994985182644655"><ele>197.33333333333334</ele><time>2026-05-05T10:47:30.999Z</time></trkpt><trkpt lat="41.62119135509539" lon="19.994961867842136"><ele>200.66666666666669</ele><time>2026-05-05T10:47:31.999Z</time></trkpt><trkpt lat="41.62141024874671" lon="19.994939598459393"><ele>204.0</ele><time>2026-05-05T10:47:32.999Z</time></trkpt><trkpt lat="41.62160940660551" lon="19.99492540416375"><ele>204.0</ele><time>2026-05-05T10:47:33.999Z</time></trkpt><trkpt lat="41.62177521719683" lon="19.99492673211228"><ele>204.0</ele><time>2026-05-05T10:47:34.999Z</time></trkpt><trkpt lat="41.62192653640145" lon="19.994965698773782"><ele>204.0</ele><time>2026-05-05T10:47:35.999Z</time></trkpt><trkpt lat="41.622079540275635" lon="19.995058841156002"><ele>198.66666666666666</ele><time>2026-05-05T10:47:36.999Z</time></trkpt><trkpt lat="41.62223130210882" lon="19.995135777389386"><ele>193.33333333333331</ele><time>2026-05-05T10:47:37.999Z</time></trkpt><trkpt lat="41.622386119555756" lon="19.995144587726152"><ele>188.0</ele><time>2026-05-05T10:47:38.999Z</time></trkpt><trkpt lat="41.62256949039122" lon="19.995100549027143"><ele>188.0</ele><time>2026-05-05T10:47:39.999Z</time></trkpt><trkpt lat="41.62276355670286" lon="19.99503771572965"><ele>188.0</ele><time>2026-05-05T10:47:40.999Z</time></trkpt><trkpt lat="41.62297139829943" lon="19.994989563183708"><ele>188.0</ele><time>2026-05-05T10:47:41.999Z</time></trkpt><trkpt lat="41.62319612765425" lon="19.994958644419743"><ele>196.5</ele><time>2026-05-05T10:47:42.999Z</time></trkpt><trkpt lat="41.623426915448945" lon="19.99493016882379"><ele>205.0</ele><time>2026-05-05T10:47:43.999Z</time></trkpt><trkpt lat="41.623662960039994" lon="19.99491277753159"><ele>206.33333333333331</ele><time>2026-05-05T10:47:44.999Z</time></trkpt><trkpt lat="41.62389618882461" lon="19.994931030670116"><ele>207.66666666666669</ele><time>2026-05-05T10:47:45.999Z</time></trkpt><trkpt lat="41.62410899722755" lon="19.994968045463466"><ele>209.0</ele><time>2026-05-05T10:47:46.999Z</time></trkpt><trkpt lat="41.62429849313294" lon="19.994990080764982"><ele>209.33333333333334</ele><time>2026-05-05T10:47:47.999Z</time></trkpt><trkpt lat="41.62448194585748" lon="19.99496572549849"><ele>209.66666666666669</ele><time>2026-05-05T10:47:48.999Z</time></trkpt><trkpt lat="41.62467610888185" lon="19.99489600721327"><ele>210.0</ele><time>2026-05-05T10:47:49.999Z</time></trkpt><trkpt lat="41.62488045393431" lon="19.994829467702964"><ele>210.0</ele><time>2026-05-05T10:47:50.999Z</time></trkpt><trkpt lat="41.62510059040795" lon="19.994817149185707"><ele>210.0</ele><time>2026-05-05T10:47:51.999Z</time></trkpt><trkpt lat="41.6253258321956" lon="19.99484755988025"><ele>210.0</ele><time>2026-05-05T10:47:52.999Z</time></trkpt><trkpt lat="41.62553505499762" lon="19.994876308967545"><ele>210.25</ele><time>2026-05-05T10:47:53.999Z</time></trkpt><trkpt lat="41.625699208165024" lon="19.99489027495634"><ele>210.5</ele><time>2026-05-05T10:47:54.999Z</time></trkpt><trkpt lat="41.62581920019423" lon="19.994874371802556"><ele>210.75</ele><time>2026-05-05T10:47:55.999Z</time></trkpt><trkpt lat="41.62592827098175" lon="19.994795694350753"><ele>211.0</ele><time>2026-05-05T10:47:57Z</time></trkpt><trkpt lat="41.62601904051567" lon="19.99464514959521"><ele>211.0</ele><time>2026-05-05T10:47:58Z</time></trkpt><trkpt lat="41.62609867398927" lon="19.99446332969597"><ele>211.0</ele><time>2026-05-05T10:47:59Z</time></trkpt><trkpt lat="41.6262032443777" lon="19.994325494439877"><ele>211.0</ele><time>2026-05-05T10:48:00Z</time></trkpt><trkpt lat="41.62632568868645" lon="19.99427080041411"><ele>211.0</ele><time>2026-05-05T10:48:01Z</time></trkpt><trkpt lat="41.626462513891504" lon="19.99427421989151"><ele>212.33333333333331</ele><time>2026-05-05T10:48:02Z</time></trkpt><trkpt lat="41.62660342365732" lon="19.99433063037277"><ele>213.66666666666669</ele><time>2026-05-05T10:48:03Z</time></trkpt><trkpt lat="41.62675115685108" lon="19.994394283337574"><ele>215.0</ele><time>2026-05-05T10:48:04Z</time></trkpt><trkpt lat="41.62691625214201" lon="19.994380705214045"><ele>216.0</ele><time>2026-05-05T10:48:05Z</time></trkpt><trkpt lat="41.62709828053977" lon="19.99432439728111"><ele>217.0</ele><time>2026-05-05T10:48:06Z</time></trkpt><trkpt lat="41.62725828672851" lon="19.994332599519982"><ele>218.0</ele><time>2026-05-05T10:48:07Z</time></trkpt><trkpt lat="41.627405499121444" lon="19.994386771669507"><ele>218.0</ele><time>2026-05-05T10:48:08Z</time></trkpt><trkpt lat="41.62755984920875" lon="19.994433729752036"><ele>218.0</ele><time>2026-05-05T10:48:09Z</time></trkpt><trkpt lat="41.62771824176984" lon="19.994384918327622"><ele>218.0</ele><time>2026-05-05T10:48:10Z</time></trkpt><trkpt lat="41.627894218226295" lon="19.99427823042606"><ele>218.66666666666669</ele><time>2026-05-05T10:48:11Z</time></trkpt><trkpt lat="41.62806625416753" lon="19.99418221047244"><ele>219.33333333333331</ele><time>2026-05-05T10:48:12Z</time></trkpt><trkpt lat="41.62822239136811" lon="19.994124026995657"><ele>220.0</ele><time>2026-05-05T10:48:13Z</time></trkpt><trkpt lat="41.62834316705375" lon="19.994109884701064"><ele>220.0</ele><time>2026-05-05T10:48:14Z</time></trkpt><trkpt lat="41.62847258403765" lon="19.994125075916784"><ele>220.0</ele><time>2026-05-05T10:48:15Z</time></trkpt><trkpt lat="41.628612750457236" lon="19.994196689540455"><ele>220.0</ele><time>2026-05-05T10:48:16Z</time></trkpt><trkpt lat="41.628754943798725" lon="19.994333515298774"><ele>223.0</ele><time>2026-05-05T10:48:17Z</time></trkpt><trkpt lat="41.628912178139124" lon="19.994506816096955"><ele>226.0</ele><time>2026-05-05T10:48:18Z</time></trkpt><trkpt lat="41.62907923232969" lon="19.994678192990243"><ele>229.0</ele><time>2026-05-05T10:48:19Z</time></trkpt><trkpt lat="41.629256150018705" lon="19.994832307051606"><ele>229.0</ele><time>2026-05-05T10:48:20Z</time></trkpt><trkpt lat="41.62944010307092" lon="19.99497714327137"><ele>229.0</ele><time>2026-05-05T10:48:21Z</time></trkpt><trkpt lat="41.62964202486549" lon="19.995096159956834"><ele>229.0</ele><time>2026-05-05T10:48:22Z</time></trkpt><trkpt lat="41.62984942155225" lon="19.995211383981626"><ele>229.33333333333331</ele><time>2026-05-05T10:48:23Z</time></trkpt><trkpt lat="41.63006329377071" lon="19.99534528019128"><ele>229.66666666666669</ele><time>2026-05-05T10:48:24Z</time></trkpt><trkpt lat="41.63024381866285" lon="19.995488050324575"><ele>230.0</ele><time>2026-05-05T10:48:25Z</time></trkpt><trkpt lat="41.63039238870912" lon="19.995628076995786"><ele>227.33333333333334</ele><time>2026-05-05T10:48:26Z</time></trkpt><trkpt lat="41.630522498639536" lon="19.995744715530957"><ele>224.66666666666669</ele><time>2026-05-05T10:48:27Z</time></trkpt><trkpt lat="41.6306728288491" lon="19.995825782025648"><ele>222.0</ele><time>2026-05-05T10:48:28Z</time></trkpt><trkpt lat="41.63084505186046" lon="19.995851598754218"><ele>228.66666666666669</ele><time>2026-05-05T10:48:29Z</time></trkpt><trkpt lat="41.631009886057925" lon="19.995819344008943"><ele>235.33333333333334</ele><time>2026-05-05T10:48:30Z</time></trkpt><trkpt lat="41.63119428326394" lon="19.995760095804847"><ele>242.0</ele><time>2026-05-05T10:48:31Z</time></trkpt><trkpt lat="41.63138240469649" lon="19.995686863212565"><ele>244.0</ele><time>2026-05-05T10:48:32Z</time></trkpt><trkpt lat="41.63157287855063" lon="19.99567497462888"><ele>246.0</ele><time>2026-05-05T10:48:33Z</time></trkpt><trkpt lat="41.63176290974932" lon="19.995729356199817"><ele>248.0</ele><time>2026-05-05T10:48:34Z</time></trkpt><trkpt lat="41.63195942146084" lon="19.995789366643788"><ele>249.0</ele><time>2026-05-05T10:48:35Z</time></trkpt><trkpt lat="41.63216326309012" lon="19.995826628234905"><ele>250.0</ele><time>2026-05-05T10:48:36Z</time></trkpt><trkpt lat="41.6323646370666" lon="19.995847226904758"><ele>251.0</ele><time>2026-05-05T10:48:37Z</time></trkpt><trkpt lat="41.63253772435808" lon="19.995827730229422"><ele>251.0</ele><time>2026-05-05T10:48:38Z</time></trkpt><trkpt lat="41.63268753923212" lon="19.995754219802297"><ele>251.0</ele><time>2026-05-05T10:48:39Z</time></trkpt><trkpt lat="41.63280839311476" lon="19.995640348101784"><ele>251.0</ele><time>2026-05-05T10:48:40Z</time></trkpt><trkpt lat="41.63288265089069" lon="19.995506370553084"><ele>251.0</ele><time>2026-05-05T10:48:41Z</time></trkpt><trkpt lat="41.632913013537056" lon="19.995346696455744"><ele>251.0</ele><time>2026-05-05T10:48:42Z</time></trkpt><trkpt lat="41.63289722114781" lon="19.995160048678216"><ele>251.0</ele><time>2026-05-05T10:48:43Z</time></trkpt><trkpt lat="41.63283719816067" lon="19.994962314158695"><ele>251.0</ele><time>2026-05-05T10:48:44Z</time></trkpt><trkpt lat="41.63274677010784" lon="19.994754508630002"><ele>252.66666666666669</ele><time>2026-05-05T10:48:45Z</time></trkpt><trkpt lat="41.63266135435458" lon="19.99452183846327"><ele>254.33333333333331</ele><time>2026-05-05T10:48:46Z</time></trkpt><trkpt lat="41.63261704244314" lon="19.994286582539804"><ele>256.0</ele><time>2026-05-05T10:48:47Z</time></trkpt><trkpt lat="41.63262090207568" lon="19.99410171715902"><ele>256.0</ele><time>2026-05-05T10:48:48Z</time></trkpt><trkpt lat="41.63267540688736" lon="19.993961388376103"><ele>256.0</ele><time>2026-05-05T10:48:49Z</time></trkpt><trkpt lat="41.63277731672397" lon="19.993838074551718"><ele>256.0</ele><time>2026-05-05T10:48:50Z</time></trkpt><trkpt lat="41.6329311183265" lon="19.993728891199805"><ele>256.0</ele><time>2026-05-05T10:48:51Z</time></trkpt><trkpt lat="41.63311452293669" lon="19.993644794476587"><ele>255.0</ele><time>2026-05-05T10:48:52Z</time></trkpt><trkpt lat="41.63330491065682" lon="19.993549354016437"><ele>254.0</ele><time>2026-05-05T10:48:53Z</time></trkpt><trkpt lat="41.63349381092611" lon="19.99341153669946"><ele>253.0</ele><time>2026-05-05T10:48:54Z</time></trkpt><trkpt lat="41.63367574257599" lon="19.99322863482925"><ele>250.0</ele><time>2026-05-05T10:48:55Z</time></trkpt><trkpt lat="41.633854336077874" lon="19.993023340657768"><ele>247.0</ele><time>2026-05-05T10:48:56Z</time></trkpt><trkpt lat="41.63404588594167" lon="19.992807511720745"><ele>247.0</ele><time>2026-05-05T10:48:57Z</time></trkpt><trkpt lat="41.63425117060356" lon="19.992597076466268"><ele>247.0</ele><time>2026-05-05T10:48:58Z</time></trkpt><trkpt lat="41.634461195024905" lon="19.9923904108787"><ele>243.0</ele><time>2026-05-05T10:48:59Z</time></trkpt><trkpt lat="41.63465615293674" lon="19.992190825410226"><ele>239.0</ele><time>2026-05-05T10:49:00Z</time></trkpt><trkpt lat="41.63481668125442" lon="19.992008380463336"><ele>239.0</ele><time>2026-05-05T10:49:01Z</time></trkpt><trkpt lat="41.63493220469032" lon="19.99181580431016"><ele>239.0</ele><time>2026-05-05T10:49:02Z</time></trkpt><trkpt lat="41.63500422101112" lon="19.991575700016565"><ele>239.0</ele><time>2026-05-05T10:49:03Z</time></trkpt><trkpt lat="41.635045945566254" lon="19.991300384137247"><ele>241.0</ele><time>2026-05-05T10:49:04Z</time></trkpt><trkpt lat="41.635076380797585" lon="19.991016029249938"><ele>243.0</ele><time>2026-05-05T10:49:05Z</time></trkpt><trkpt lat="41.63511815545881" lon="19.990745544964785"><ele>245.0</ele><time>2026-05-05T10:49:06Z</time></trkpt><trkpt lat="41.63515240120314" lon="19.990543639798673"><ele>245.0</ele><time>2026-05-05T10:49:07Z</time></trkpt><trkpt lat="41.63514864013878" lon="19.9903685662741"><ele>245.0</ele><time>2026-05-05T10:49:08Z</time></trkpt><trkpt lat="41.63509286012861" lon="19.9902100829706"><ele>245.0</ele><time>2026-05-05T10:49:09Z</time></trkpt><trkpt lat="41.63498754365531" lon="19.99005098134619"><ele>245.0</ele><time>2026-05-05T10:49:10Z</time></trkpt><trkpt lat="41.63484562488081" lon="19.9898899835583"><ele>246.66666666666669</ele><time>2026-05-05T10:49:11Z</time></trkpt><trkpt lat="41.63467971425053" lon="19.989718308012158"><ele>248.33333333333331</ele><time>2026-05-05T10:49:12Z</time></trkpt><trkpt lat="41.6345047191837" lon="19.989543815928254"><ele>250.0</ele><time>2026-05-05T10:49:13Z</time></trkpt><trkpt lat="41.634328496237146" lon="19.989373119093234"><ele>250.0</ele><time>2026-05-05T10:49:14Z</time></trkpt><trkpt lat="41.63417730142752" lon="19.989221311894955"><ele>250.0</ele><time>2026-05-05T10:49:15Z</time></trkpt><trkpt lat="41.63403176390127" lon="19.989067917749097"><ele>250.0</ele><time>2026-05-05T10:49:16Z</time></trkpt><trkpt lat="41.63389072224514" lon="19.988909916278303"><ele>247.5</ele><time>2026-05-05T10:49:17Z</time></trkpt><trkpt lat="41.63378615848325" lon="19.988777439752358"><ele>245.0</ele><time>2026-05-05T10:49:18Z</time></trkpt><trkpt lat="41.63369523235113" lon="19.988668439915664"><ele>242.5</ele><time>2026-05-05T10:49:19Z</time></trkpt><trkpt lat="41.63361724093411" lon="19.988550638770686"><ele>240.0</ele><time>2026-05-05T10:49:20Z</time></trkpt><trkpt lat="41.633586753426925" lon="19.98842295466804"><ele>238.0</ele><time>2026-05-05T10:49:21Z</time></trkpt><trkpt lat="41.63361659530985" lon="19.98829408722504"><ele>236.0</ele><time>2026-05-05T10:49:22Z</time></trkpt><trkpt lat="41.633689660901894" lon="19.988173035880887"><ele>234.0</ele><time>2026-05-05T10:49:23Z</time></trkpt><trkpt lat="41.63379578862864" lon="19.98807283167923"><ele>232.0</ele><time>2026-05-05T10:49:24Z</time></trkpt><trkpt lat="41.63393236852028" lon="19.98801265227064"><ele>231.33333333333331</ele><time>2026-05-05T10:49:25Z</time></trkpt><trkpt lat="41.63408892905924" lon="19.987992826964692"><ele>230.66666666666669</ele><time>2026-05-05T10:49:26Z</time></trkpt><trkpt lat="41.6342586917394" lon="19.988000287639398"><ele>230.0</ele><time>2026-05-05T10:49:27Z</time></trkpt><trkpt lat="41.634442400474455" lon="19.988019783081004"><ele>228.66666666666669</ele><time>2026-05-05T10:49:28Z</time></trkpt><trkpt lat="41.63462133483376" lon="19.988048728603427"><ele>227.33333333333331</ele><time>2026-05-05T10:49:29Z</time></trkpt><trkpt lat="41.63479633117562" lon="19.988069242755852"><ele>226.0</ele><time>2026-05-05T10:49:30Z</time></trkpt><trkpt lat="41.6349647303541" lon="19.988073665191823"><ele>226.0</ele><time>2026-05-05T10:49:31Z</time></trkpt><trkpt lat="41.63513573977969" lon="19.988063695482875"><ele>226.0</ele><time>2026-05-05T10:49:32Z</time></trkpt><trkpt lat="41.635314258640165" lon="19.988047086278648"><ele>226.0</ele><time>2026-05-05T10:49:33Z</time></trkpt><trkpt lat="41.63550639881987" lon="19.98802903008258"><ele>224.33333333333331</ele><time>2026-05-05T10:49:34Z</time></trkpt><trkpt lat="41.635701846072664" lon="19.988004851315303"><ele>222.66666666666669</ele><time>2026-05-05T10:49:35Z</time></trkpt><trkpt lat="41.63590396871856" lon="19.98796904941404"><ele>221.0</ele><time>2026-05-05T10:49:36Z</time></trkpt><trkpt lat="41.636112922617414" lon="19.98794805349909"><ele>220.0</ele><time>2026-05-05T10:49:37Z</time></trkpt><trkpt lat="41.63633321689361" lon="19.987967437900814"><ele>219.0</ele><time>2026-05-05T10:49:38Z</time></trkpt><trkpt lat="41.636551296017544" lon="19.988018518954544"><ele>218.0</ele><time>2026-05-05T10:49:39Z</time></trkpt><trkpt lat="41.63678163592961" lon="19.98807080967634"><ele>217.0</ele><time>2026-05-05T10:49:40Z</time></trkpt><trkpt lat="41.637009809387386" lon="19.98809902778643"><ele>216.0</ele><time>2026-05-05T10:49:41Z</time></trkpt><trkpt lat="41.63725184316067" lon="19.988089207905137"><ele>216.0</ele><time>2026-05-05T10:49:42Z</time></trkpt><trkpt lat="41.63750878996611" lon="19.988048138966846"><ele>216.0</ele><time>2026-05-05T10:49:43Z</time></trkpt><trkpt lat="41.63777242326272" lon="19.988017972580437"><ele>214.0</ele><time>2026-05-05T10:49:44Z</time></trkpt><trkpt lat="41.63803242169444" lon="19.988025368606827"><ele>212.0</ele><time>2026-05-05T10:49:45Z</time></trkpt><trkpt lat="41.638254381717736" lon="19.98805523946269"><ele>212.0</ele><time>2026-05-05T10:49:46Z</time></trkpt><trkpt lat="41.638470620385675" lon="19.9880687810988"><ele>212.0</ele><time>2026-05-05T10:49:47Z</time></trkpt><trkpt lat="41.638687242296186" lon="19.988056911241816"><ele>212.0</ele><time>2026-05-05T10:49:48Z</time></trkpt><trkpt lat="41.63890011548453" lon="19.988017429468215"><ele>210.0</ele><time>2026-05-05T10:49:49Z</time></trkpt><trkpt lat="41.639072126144356" lon="19.98795543394716"><ele>208.0</ele><time>2026-05-05T10:49:50Z</time></trkpt><trkpt lat="41.63920573603841" lon="19.987871784558163"><ele>206.0</ele><time>2026-05-05T10:49:51Z</time></trkpt><trkpt lat="41.63931212309545" lon="19.987750940248713"><ele>206.0</ele><time>2026-05-05T10:49:52Z</time></trkpt><trkpt lat="41.63938511877688" lon="19.98760714639042"><ele>206.0</ele><time>2026-05-05T10:49:53Z</time></trkpt><trkpt lat="41.63941268780509" lon="19.98744845525082"><ele>206.0</ele><time>2026-05-05T10:49:54Z</time></trkpt><trkpt lat="41.63939737945843" lon="19.987288686686185"><ele>206.0</ele><time>2026-05-05T10:49:54.999Z</time></trkpt><trkpt lat="41.639337662909185" lon="19.987126166528007"><ele>209.0</ele><time>2026-05-05T10:49:55.999Z</time></trkpt><trkpt lat="41.6392331665614" lon="19.98696879301838"><ele>212.0</ele><time>2026-05-05T10:49:56.999Z</time></trkpt><trkpt lat="41.63908448683864" lon="19.986830650349344"><ele>215.0</ele><time>2026-05-05T10:49:57.999Z</time></trkpt><trkpt lat="41.63889966814991" lon="19.986730152773553"><ele>212.33333333333334</ele><time>2026-05-05T10:49:58.999Z</time></trkpt><trkpt lat="41.63869462654026" lon="19.98664122662739"><ele>209.66666666666669</ele><time>2026-05-05T10:49:59.999Z</time></trkpt><trkpt lat="41.63850361233448" lon="19.98654803872359"><ele>207.0</ele><time>2026-05-05T10:50:00.999Z</time></trkpt><trkpt lat="41.63835416913728" lon="19.986446667064193"><ele>207.0</ele><time>2026-05-05T10:50:01.999Z</time></trkpt><trkpt lat="41.63821202086841" lon="19.986335721796575"><ele>207.0</ele><time>2026-05-05T10:50:03Z</time></trkpt><trkpt lat="41.63805916630897" lon="19.986187499288096"><ele>207.0</ele><time>2026-05-05T10:50:04Z</time></trkpt><trkpt lat="41.63792957170203" lon="19.986008704702137"><ele>204.33333333333331</ele><time>2026-05-05T10:50:05Z</time></trkpt><trkpt lat="41.637798628056196" lon="19.985841391562392"><ele>201.66666666666666</ele><time>2026-05-05T10:50:06Z</time></trkpt><trkpt lat="41.63763378057522" lon="19.985698431299003"><ele>199.0</ele><time>2026-05-05T10:50:07Z</time></trkpt><trkpt lat="41.637443601053405" lon="19.985581203240006"><ele>199.0</ele><time>2026-05-05T10:50:08Z</time></trkpt><trkpt lat="41.63725806867907" lon="19.98551194485431"><ele>199.0</ele><time>2026-05-05T10:50:09Z</time></trkpt><trkpt lat="41.63708440733859" lon="19.98546521988749"><ele>199.0</ele><time>2026-05-05T10:50:10Z</time></trkpt><trkpt lat="41.63694978071815" lon="19.98539167594935"><ele>199.0</ele><time>2026-05-05T10:50:11Z</time></trkpt><trkpt lat="41.63683401985571" lon="19.985279201293327"><ele>199.0</ele><time>2026-05-05T10:50:12Z</time></trkpt><trkpt lat="41.63676575042773" lon="19.98514141364098"><ele>199.0</ele><time>2026-05-05T10:50:13Z</time></trkpt><trkpt lat="41.63675679288843" lon="19.98497853580505"><ele>199.0</ele><time>2026-05-05T10:50:14Z</time></trkpt><trkpt lat="41.63677318489682" lon="19.984779332805918"><ele>196.5</ele><time>2026-05-05T10:50:15Z</time></trkpt><trkpt lat="41.636795612345836" lon="19.984559561177775"><ele>194.0</ele><time>2026-05-05T10:50:16Z</time></trkpt><trkpt lat="41.636804267248976" lon="19.98434973521588"><ele>191.5</ele><time>2026-05-05T10:50:17Z</time></trkpt><trkpt lat="41.63679120898974" lon="19.98419252601497"><ele>189.0</ele><time>2026-05-05T10:50:18Z</time></trkpt><trkpt lat="41.6367478159867" lon="19.98406129558677"><ele>186.0</ele><time>2026-05-05T10:50:19Z</time></trkpt><trkpt lat="41.63665011223607" lon="19.983940253695838"><ele>183.0</ele><time>2026-05-05T10:50:20Z</time></trkpt><trkpt lat="41.63650418300547" lon="19.983857057891505"><ele>180.0</ele><time>2026-05-05T10:50:21Z</time></trkpt><trkpt lat="41.63633499672991" lon="19.983824549143446"><ele>180.0</ele><time>2026-05-05T10:50:22Z</time></trkpt><trkpt lat="41.636161163351034" lon="19.98380122272793"><ele>180.0</ele><time>2026-05-05T10:50:23Z</time></trkpt><trkpt lat="41.636016607241174" lon="19.98373098175011"><ele>180.0</ele><time>2026-05-05T10:50:24Z</time></trkpt><trkpt lat="41.63587298951004" lon="19.983617170787703"><ele>181.75</ele><time>2026-05-05T10:50:25Z</time></trkpt><trkpt lat="41.635738207242525" lon="19.983494409955473"><ele>183.5</ele><time>2026-05-05T10:50:26Z</time></trkpt><trkpt lat="41.635603478091504" lon="19.98340932832644"><ele>185.25</ele><time>2026-05-05T10:50:27Z</time></trkpt><trkpt lat="41.63548779444099" lon="19.983368205251114"><ele>187.0</ele><time>2026-05-05T10:50:28Z</time></trkpt><trkpt lat="41.635375614345826" lon="19.983363518857512"><ele>187.75</ele><time>2026-05-05T10:50:29Z</time></trkpt><trkpt lat="41.63524758594685" lon="19.9834058537431"><ele>188.5</ele><time>2026-05-05T10:50:30Z</time></trkpt><trkpt lat="41.635112698347505" lon="19.98348331406478"><ele>189.25</ele><time>2026-05-05T10:50:31Z</time></trkpt><trkpt lat="41.63497585140917" lon="19.983542203586154"><ele>190.0</ele><time>2026-05-05T10:50:32Z</time></trkpt><trkpt lat="41.63486942390971" lon="19.983535628291243"><ele>190.0</ele><time>2026-05-05T10:50:33Z</time></trkpt><trkpt lat="41.63480001681448" lon="19.983468505785034"><ele>190.0</ele><time>2026-05-05T10:50:34Z</time></trkpt><trkpt lat="41.63477512019296" lon="19.983364946512133"><ele>190.0</ele><time>2026-05-05T10:50:35Z</time></trkpt><trkpt lat="41.634799264323384" lon="19.983250470741424"><ele>190.0</ele><time>2026-05-05T10:50:36Z</time></trkpt><trkpt lat="41.63488134584608" lon="19.98313215094693"><ele>190.0</ele><time>2026-05-05T10:50:37Z</time></trkpt><trkpt lat="41.63501314150814" lon="19.983021883591583"><ele>183.66666666666669</ele><time>2026-05-05T10:50:38Z</time></trkpt><trkpt lat="41.635164951807546" lon="19.982924465969116"><ele>177.33333333333334</ele><time>2026-05-05T10:50:39Z</time></trkpt><trkpt lat="41.63531749935243" lon="19.98280526671616"><ele>171.0</ele><time>2026-05-05T10:50:40Z</time></trkpt><trkpt lat="41.63545485054087" lon="19.982661466950894"><ele>170.8</ele><time>2026-05-05T10:50:41Z</time></trkpt><trkpt lat="41.635566160083805" lon="19.982520261023872"><ele>170.60000000000002</ele><time>2026-05-05T10:50:42Z</time></trkpt><trkpt lat="41.63564902453874" lon="19.98241088190825"><ele>170.4</ele><time>2026-05-05T10:50:43Z</time></trkpt><trkpt lat="41.6356991853331" lon="19.982337735311948"><ele>170.2</ele><time>2026-05-05T10:50:44Z</time></trkpt><trkpt lat="41.63575203720596" lon="19.982233735981183"><ele>170.0</ele><time>2026-05-05T10:50:46Z</time></trkpt><trkpt lat="41.63580015934705" lon="19.982114535239628"><ele>168.16666666666666</ele><time>2026-05-05T10:50:48Z</time></trkpt><trkpt lat="41.635834655119154" lon="19.982043258398235"><ele>166.33333333333331</ele><time>2026-05-05T10:50:49Z</time></trkpt><trkpt lat="41.63589483446513" lon="19.981957678508113"><ele>164.5</ele><time>2026-05-05T10:50:51Z</time></trkpt><trkpt lat="41.63594062924259" lon="19.981892199145978"><ele>162.66666666666666</ele><time>2026-05-05T10:50:53Z</time></trkpt><trkpt lat="41.63599939125624" lon="19.9817782559042"><ele>160.83333333333334</ele><time>2026-05-05T10:50:56Z</time></trkpt><trkpt lat="41.63605655171979" lon="19.98167314722197"><ele>159.0</ele><time>2026-05-05T10:50:58Z</time></trkpt><trkpt lat="41.63609071594821" lon="19.98159924713978"><ele>158.5</ele><time>2026-05-05T10:50:59Z</time></trkpt><trkpt lat="41.63612742893099" lon="19.98152390734486"><ele>158.0</ele><time>2026-05-05T10:51:00Z</time></trkpt><trkpt lat="41.636159265425334" lon="19.98144665686505"><ele>157.5</ele><time>2026-05-05T10:51:01Z</time></trkpt><trkpt lat="41.63619128498337" lon="19.981342414248825"><ele>157.0</ele><time>2026-05-05T10:51:02Z</time></trkpt><trkpt lat="41.63620522449863" lon="19.981213114206565"><ele>156.5</ele><time>2026-05-05T10:51:03Z</time></trkpt><trkpt lat="41.63619536818233" lon="19.98107202329793"><ele>156.0</ele><time>2026-05-05T10:51:04Z</time></trkpt><trkpt lat="41.63615561672889" lon="19.980932959683603"><ele>157.75</ele><time>2026-05-05T10:51:05Z</time></trkpt><trkpt lat="41.63607612779688" lon="19.98080244315312"><ele>159.5</ele><time>2026-05-05T10:51:06Z</time></trkpt><trkpt lat="41.63595903287833" lon="19.980666546049452"><ele>161.25</ele><time>2026-05-05T10:51:07Z</time></trkpt><trkpt lat="41.635843412982766" lon="19.980514857620808"><ele>163.0</ele><time>2026-05-05T10:51:08Z</time></trkpt><trkpt lat="41.635750553207494" lon="19.98032383700559"><ele>163.0</ele><time>2026-05-05T10:51:09Z</time></trkpt><trkpt lat="41.63567648293465" lon="19.98011640635642"><ele>163.0</ele><time>2026-05-05T10:51:10Z</time></trkpt><trkpt lat="41.63562609329488" lon="19.97990458478028"><ele>163.0</ele><time>2026-05-05T10:51:11Z</time></trkpt><trkpt lat="41.635611550694435" lon="19.97968905324562"><ele>167.0</ele><time>2026-05-05T10:51:12Z</time></trkpt><trkpt lat="41.63564089302889" lon="19.979488244494124"><ele>171.0</ele><time>2026-05-05T10:51:13Z</time></trkpt><trkpt lat="41.63570240153528" lon="19.979289001991315"><ele>175.0</ele><time>2026-05-05T10:51:14Z</time></trkpt><trkpt lat="41.63577131067604" lon="19.979095799366068"><ele>175.8</ele><time>2026-05-05T10:51:15Z</time></trkpt><trkpt lat="41.63581725109609" lon="19.978934920767397"><ele>176.6</ele><time>2026-05-05T10:51:16Z</time></trkpt><trkpt lat="41.63581587998116" lon="19.97881070954838"><ele>177.39999999999998</ele><time>2026-05-05T10:51:17Z</time></trkpt><trkpt lat="41.635774456502425" lon="19.97870051232043"><ele>178.2</ele><time>2026-05-05T10:51:18Z</time></trkpt><trkpt lat="41.635691558191134" lon="19.97862436166057"><ele>179.0</ele><time>2026-05-05T10:51:19Z</time></trkpt><trkpt lat="41.63558190638012" lon="19.97860264069516"><ele>179.0</ele><time>2026-05-05T10:51:20Z</time></trkpt><trkpt lat="41.63545748135031" lon="19.978630815815166"><ele>179.0</ele><time>2026-05-05T10:51:21Z</time></trkpt><trkpt lat="41.63534649964645" lon="19.978724691122963"><ele>179.0</ele><time>2026-05-05T10:51:22Z</time></trkpt><trkpt lat="41.6352439586273" lon="19.978882205559422"><ele>179.0</ele><time>2026-05-05T10:51:23Z</time></trkpt><trkpt lat="41.635167275415085" lon="19.979051746057674"><ele>178.66666666666666</ele><time>2026-05-05T10:51:24Z</time></trkpt><trkpt lat="41.63505803536079" lon="19.979240861201305"><ele>178.33333333333334</ele><time>2026-05-05T10:51:25Z</time></trkpt><trkpt lat="41.63492528826618" lon="19.97940317458914"><ele>178.0</ele><time>2026-05-05T10:51:26Z</time></trkpt><trkpt lat="41.63477038598457" lon="19.979534033334296"><ele>178.0</ele><time>2026-05-05T10:51:27Z</time></trkpt><trkpt lat="41.634615284584264" lon="19.97962317270882"><ele>178.0</ele><time>2026-05-05T10:51:28Z</time></trkpt><trkpt lat="41.63446624363391" lon="19.979675433814215"><ele>178.0</ele><time>2026-05-05T10:51:29Z</time></trkpt><trkpt lat="41.634330720325046" lon="19.97970826116191"><ele>179.60000000000002</ele><time>2026-05-05T10:51:30Z</time></trkpt><trkpt lat="41.63422986890602" lon="19.9797219303745"><ele>181.20000000000002</ele><time>2026-05-05T10:51:31Z</time></trkpt><trkpt lat="41.63413324906768" lon="19.97973355399739"><ele>182.8</ele><time>2026-05-05T10:51:32Z</time></trkpt><trkpt lat="41.63403653666262" lon="19.97974162199248"><ele>184.4</ele><time>2026-05-05T10:51:33Z</time></trkpt><trkpt lat="41.63394556798919" lon="19.97973733782184"><ele>186.0</ele><time>2026-05-05T10:51:34Z</time></trkpt><trkpt lat="41.633858825136066" lon="19.979713950400292"><ele>186.0</ele><time>2026-05-05T10:51:35Z</time></trkpt><trkpt lat="41.63376177936526" lon="19.97966719037443"><ele>186.0</ele><time>2026-05-05T10:51:36Z</time></trkpt><trkpt lat="41.63367393562757" lon="19.97959043627568"><ele>186.0</ele><time>2026-05-05T10:51:37Z</time></trkpt><trkpt lat="41.633601579007845" lon="19.97948893876231"><ele>186.0</ele><time>2026-05-05T10:51:38Z</time></trkpt><trkpt lat="41.63354683126379" lon="19.979365190999612"><ele>186.0</ele><time>2026-05-05T10:51:39Z</time></trkpt><trkpt lat="41.633513564458625" lon="19.979219153224964"><ele>188.0</ele><time>2026-05-05T10:51:40Z</time></trkpt><trkpt lat="41.63349233755032" lon="19.979037169126343"><ele>190.0</ele><time>2026-05-05T10:51:41Z</time></trkpt><trkpt lat="41.63348804479026" lon="19.97881256592643"><ele>192.0</ele><time>2026-05-05T10:51:42Z</time></trkpt><trkpt lat="41.63350061147512" lon="19.978547070316083"><ele>194.66666666666669</ele><time>2026-05-05T10:51:43Z</time></trkpt><trkpt lat="41.63351553344975" lon="19.978269972344965"><ele>197.33333333333334</ele><time>2026-05-05T10:51:44Z</time></trkpt><trkpt lat="41.63353248179976" lon="19.97799484591185"><ele>200.0</ele><time>2026-05-05T10:51:45Z</time></trkpt><trkpt lat="41.63355496708621" lon="19.977750697490684"><ele>201.0</ele><time>2026-05-05T10:51:46Z</time></trkpt><trkpt lat="41.63356980536524" lon="19.9774906196389"><ele>202.0</ele><time>2026-05-05T10:51:47Z</time></trkpt><trkpt lat="41.63354523882719" lon="19.977225526477476"><ele>203.0</ele><time>2026-05-05T10:51:48Z</time></trkpt><trkpt lat="41.63349233826339" lon="19.97694372167737"><ele>203.0</ele><time>2026-05-05T10:51:49Z</time></trkpt><trkpt lat="41.63345214416973" lon="19.976704697857297"><ele>203.0</ele><time>2026-05-05T10:51:50Z</time></trkpt><trkpt lat="41.633427633967415" lon="19.976506363488046"><ele>203.0</ele><time>2026-05-05T10:51:51Z</time></trkpt><trkpt lat="41.63339648523398" lon="19.976349161076584"><ele>203.8</ele><time>2026-05-05T10:51:52Z</time></trkpt><trkpt lat="41.63333670657905" lon="19.97623468258668"><ele>204.60000000000002</ele><time>2026-05-05T10:51:53Z</time></trkpt><trkpt lat="41.63324502365278" lon="19.976178954490194"><ele>205.39999999999998</ele><time>2026-05-05T10:51:54Z</time></trkpt><trkpt lat="41.63313256496448" lon="19.976179415584095"><ele>206.2</ele><time>2026-05-05T10:51:55Z</time></trkpt><trkpt lat="41.63301813102901" lon="19.9762386805608"><ele>207.0</ele><time>2026-05-05T10:51:56Z</time></trkpt><trkpt lat="41.63291600112166" lon="19.976352346547873"><ele>207.0</ele><time>2026-05-05T10:51:57Z</time></trkpt><trkpt lat="41.63284507264315" lon="19.976521451500798"><ele>207.0</ele><time>2026-05-05T10:51:58Z</time></trkpt><trkpt lat="41.632804462887066" lon="19.97673485282387"><ele>207.0</ele><time>2026-05-05T10:51:59Z</time></trkpt><trkpt lat="41.63277048983705" lon="19.976987732221534"><ele>207.66666666666669</ele><time>2026-05-05T10:52:00Z</time></trkpt><trkpt lat="41.63270665108891" lon="19.977247375581804"><ele>208.33333333333334</ele><time>2026-05-05T10:52:01Z</time></trkpt><trkpt lat="41.632630804334674" lon="19.977497177743118"><ele>209.0</ele><time>2026-05-05T10:52:02Z</time></trkpt><trkpt lat="41.63257040361741" lon="19.977719074855532"><ele>209.0</ele><time>2026-05-05T10:52:03Z</time></trkpt><trkpt lat="41.63250481259929" lon="19.977887124427788"><ele>209.0</ele><time>2026-05-05T10:52:04Z</time></trkpt><trkpt lat="41.63239696178599" lon="19.978009971738945"><ele>209.0</ele><time>2026-05-05T10:52:05Z</time></trkpt><trkpt lat="41.63225876199031" lon="19.978099963343503"><ele>209.0</ele><time>2026-05-05T10:52:05.999Z</time></trkpt><trkpt lat="41.63209488216442" lon="19.978191065942895"><ele>211.5</ele><time>2026-05-05T10:52:06.999Z</time></trkpt><trkpt lat="41.63193958424878" lon="19.978248620565957"><ele>214.0</ele><time>2026-05-05T10:52:07.999Z</time></trkpt><trkpt lat="41.63180224462124" lon="19.978259972855763"><ele>216.5</ele><time>2026-05-05T10:52:09Z</time></trkpt><trkpt lat="41.631659712918285" lon="19.978225238866347"><ele>219.0</ele><time>2026-05-05T10:52:10Z</time></trkpt><trkpt lat="41.63152034994849" lon="19.97814898400913"><ele>219.0</ele><time>2026-05-05T10:52:11Z</time></trkpt><trkpt lat="41.63142544421074" lon="19.978035105831808"><ele>218.99999999999997</ele><time>2026-05-05T10:52:12Z</time></trkpt><trkpt lat="41.63137048313271" lon="19.977902803617432"><ele>218.99999999999997</ele><time>2026-05-05T10:52:13Z</time></trkpt><trkpt lat="41.63137490088892" lon="19.977791242680645"><ele>219.0</ele><time>2026-05-05T10:52:14Z</time></trkpt><trkpt lat="41.631429495563516" lon="19.97770167173214"><ele>219.0</ele><time>2026-05-05T10:52:15Z</time></trkpt><trkpt lat="41.631527650169296" lon="19.97758791341906"><ele>221.33333333333331</ele><time>2026-05-05T10:52:16Z</time></trkpt><trkpt lat="41.6316395192882" lon="19.97743830926481"><ele>223.66666666666666</ele><time>2026-05-05T10:52:17Z</time></trkpt><trkpt lat="41.63172793689221" lon="19.977278860233994"><ele>226.0</ele><time>2026-05-05T10:52:18Z</time></trkpt><trkpt lat="41.631725730538015" lon="19.9770869815754"><ele>226.0</ele><time>2026-05-05T10:52:19Z</time></trkpt><trkpt lat="41.63171415495329" lon="19.976857567527837"><ele>226.0</ele><time>2026-05-05T10:52:20Z</time></trkpt><trkpt lat="41.63166627466639" lon="19.976610770155613"><ele>226.0</ele><time>2026-05-05T10:52:21Z</time></trkpt><trkpt lat="41.63160419971712" lon="19.976350182087028"><ele>227.66666666666666</ele><time>2026-05-05T10:52:22Z</time></trkpt><trkpt lat="41.63155140253059" lon="19.976086380418124"><ele>229.33333333333331</ele><time>2026-05-05T10:52:23Z</time></trkpt><trkpt lat="41.63152795930147" lon="19.975800207193966"><ele>231.0</ele><time>2026-05-05T10:52:24Z</time></trkpt><trkpt lat="41.631542584076215" lon="19.975510464742538"><ele>231.0</ele><time>2026-05-05T10:52:25Z</time></trkpt><trkpt lat="41.63157232281188" lon="19.97521710433338"><ele>231.0</ele><time>2026-05-05T10:52:26Z</time></trkpt><trkpt lat="41.63160729251706" lon="19.974913187807612"><ele>234.0</ele><time>2026-05-05T10:52:27Z</time></trkpt><trkpt lat="41.631643687313996" lon="19.97461298994168"><ele>237.0</ele><time>2026-05-05T10:52:28Z</time></trkpt><trkpt lat="41.63167214939451" lon="19.974348367278665"><ele>240.0</ele><time>2026-05-05T10:52:29Z</time></trkpt><trkpt lat="41.63167589936335" lon="19.974107249013656"><ele>241.66666666666669</ele><time>2026-05-05T10:52:30Z</time></trkpt><trkpt lat="41.63164555644246" lon="19.973893866730563"><ele>243.33333333333334</ele><time>2026-05-05T10:52:31Z</time></trkpt><trkpt lat="41.63158908176713" lon="19.97371484684037"><ele>245.0</ele><time>2026-05-05T10:52:32Z</time></trkpt><trkpt lat="41.631479058659906" lon="19.973552658210085"><ele>245.0</ele><time>2026-05-05T10:52:33Z</time></trkpt><trkpt lat="41.63134017115834" lon="19.973418466052443"><ele>245.0</ele><time>2026-05-05T10:52:34Z</time></trkpt><trkpt lat="41.63125153535048" lon="19.973282365880934"><ele>245.0</ele><time>2026-05-05T10:52:35Z</time></trkpt><trkpt lat="41.63122741865025" lon="19.973114915798643"><ele>245.0</ele><time>2026-05-05T10:52:36Z</time></trkpt><trkpt lat="41.631249198481996" lon="19.972912622886977"><ele>245.33333333333334</ele><time>2026-05-05T10:52:37Z</time></trkpt><trkpt lat="41.63131811856598" lon="19.97269157544119"><ele>245.66666666666669</ele><time>2026-05-05T10:52:38Z</time></trkpt><trkpt lat="41.63139648733385" lon="19.97246800626968"><ele>246.0</ele><time>2026-05-05T10:52:39Z</time></trkpt><trkpt lat="41.631451047213794" lon="19.972242153562576"><ele>247.0</ele><time>2026-05-05T10:52:40Z</time></trkpt><trkpt lat="41.631503283957024" lon="19.972019927308505"><ele>248.0</ele><time>2026-05-05T10:52:41Z</time></trkpt><trkpt lat="41.63151764754469" lon="19.97168571665008"><ele>249.0</ele><time>2026-05-05T10:52:42Z</time></trkpt><trkpt lat="41.63154542627134" lon="19.97143254528164"><ele>250.66666666666669</ele><time>2026-05-05T10:52:43Z</time></trkpt><trkpt lat="41.63159338047891" lon="19.971198672259256"><ele>252.33333333333334</ele><time>2026-05-05T10:52:44Z</time></trkpt><trkpt lat="41.63167559097334" lon="19.970979458086077"><ele>254.0</ele><time>2026-05-05T10:52:45Z</time></trkpt><trkpt lat="41.63176479623006" lon="19.970767045396173"><ele>254.0</ele><time>2026-05-05T10:52:46Z</time></trkpt><trkpt lat="41.63186106267161" lon="19.970547022250592"><ele>254.0</ele><time>2026-05-05T10:52:47Z</time></trkpt><trkpt lat="41.63196272229997" lon="19.97032525194897"><ele>254.0</ele><time>2026-05-05T10:52:48Z</time></trkpt><trkpt lat="41.6320595813708" lon="19.97010003678682"><ele>258.33333333333337</ele><time>2026-05-05T10:52:49Z</time></trkpt><trkpt lat="41.63214145852492" lon="19.969848313930488"><ele>262.6666666666667</ele><time>2026-05-05T10:52:50Z</time></trkpt><trkpt lat="41.63223199277644" lon="19.96958212530246"><ele>267.0</ele><time>2026-05-05T10:52:51Z</time></trkpt><trkpt lat="41.632308859208" lon="19.969326089339564"><ele>269.3333333333333</ele><time>2026-05-05T10:52:52Z</time></trkpt><trkpt lat="41.63233150830814" lon="19.969052719967713"><ele>271.66666666666663</ele><time>2026-05-05T10:52:53Z</time></trkpt><trkpt lat="41.63230571169754" lon="19.968784405906018"><ele>274.0</ele><time>2026-05-05T10:52:54Z</time></trkpt><trkpt lat="41.63226172840824" lon="19.96855740520724"><ele>275.0</ele><time>2026-05-05T10:52:55Z</time></trkpt><trkpt lat="41.63224427166452" lon="19.968359771164266"><ele>276.0</ele><time>2026-05-05T10:52:56Z</time></trkpt><trkpt lat="41.63229645632146" lon="19.968187324523658"><ele>277.0</ele><time>2026-05-05T10:52:56.999Z</time></trkpt><trkpt lat="41.63239421371479" lon="19.968029196137778"><ele>278.0</ele><time>2026-05-05T10:52:57.999Z</time></trkpt><trkpt lat="41.632518008756996" lon="19.96789473099751"><ele>278.0</ele><time>2026-05-05T10:52:58.999Z</time></trkpt><trkpt lat="41.63265077465069" lon="19.96776264528685"><ele>278.0</ele><time>2026-05-05T10:52:59.999Z</time></trkpt><trkpt lat="41.632758422920055" lon="19.967602459299883"><ele>278.0</ele><time>2026-05-05T10:53:00.999Z</time></trkpt><trkpt lat="41.632831697765866" lon="19.967408986009815"><ele>274.6666666666667</ele><time>2026-05-05T10:53:01.999Z</time></trkpt><trkpt lat="41.63286667754667" lon="19.967193872275466"><ele>271.3333333333333</ele><time>2026-05-05T10:53:02.999Z</time></trkpt><trkpt lat="41.632851719934095" lon="19.96697759196277"><ele>268.0</ele><time>2026-05-05T10:53:03.999Z</time></trkpt><trkpt lat="41.63280456209452" lon="19.966756061995376"><ele>268.3333333333333</ele><time>2026-05-05T10:53:04.999Z</time></trkpt><trkpt lat="41.63272417005367" lon="19.966551795410236"><ele>268.6666666666667</ele><time>2026-05-05T10:53:05.999Z</time></trkpt><trkpt lat="41.63263816758824" lon="19.966382328748566"><ele>269.0</ele><time>2026-05-05T10:53:06.999Z</time></trkpt><trkpt lat="41.63258609981144" lon="19.966209801413562"><ele>269.0</ele><time>2026-05-05T10:53:07.999Z</time></trkpt><trkpt lat="41.63258195418743" lon="19.966034896504897"><ele>269.0</ele><time>2026-05-05T10:53:08.999Z</time></trkpt><trkpt lat="41.632614657792764" lon="19.96586777932687"><ele>269.0</ele><time>2026-05-05T10:53:09.999Z</time></trkpt><trkpt lat="41.63268929771662" lon="19.96569915452164"><ele>269.0</ele><time>2026-05-05T10:53:10.999Z</time></trkpt><trkpt lat="41.63278648840949" lon="19.965535528226226"><ele>268.6666666666667</ele><time>2026-05-05T10:53:11.999Z</time></trkpt><trkpt lat="41.632885346459524" lon="19.96536101860633"><ele>268.3333333333333</ele><time>2026-05-05T10:53:12.999Z</time></trkpt><trkpt lat="41.63295214973124" lon="19.965177309962886"><ele>268.0</ele><time>2026-05-05T10:53:13.999Z</time></trkpt><trkpt lat="41.63297686944066" lon="19.96496987671785"><ele>266.66666666666663</ele><time>2026-05-05T10:53:14.999Z</time></trkpt><trkpt lat="41.63295701591386" lon="19.96473482974254"><ele>265.3333333333333</ele><time>2026-05-05T10:53:15.999Z</time></trkpt><trkpt lat="41.632933974252296" lon="19.964483291807667"><ele>264.0</ele><time>2026-05-05T10:53:16.999Z</time></trkpt><trkpt lat="41.63291420511084" lon="19.964217717836696"><ele>265.0</ele><time>2026-05-05T10:53:17.999Z</time></trkpt><trkpt lat="41.63289327045656" lon="19.96394612038965"><ele>266.0</ele><time>2026-05-05T10:53:18.999Z</time></trkpt><trkpt lat="41.63286316570367" lon="19.96366886174952"><ele>267.0</ele><time>2026-05-05T10:53:19.999Z</time></trkpt><trkpt lat="41.63282041450813" lon="19.963412673439276"><ele>265.6666666666667</ele><time>2026-05-05T10:53:20.999Z</time></trkpt><trkpt lat="41.63275693673022" lon="19.96320907184928"><ele>264.33333333333337</ele><time>2026-05-05T10:53:21.999Z</time></trkpt><trkpt lat="41.632661961173135" lon="19.963043507009008"><ele>263.0</ele><time>2026-05-05T10:53:22.999Z</time></trkpt><trkpt lat="41.63253364470353" lon="19.96291026903657"><ele>263.0</ele><time>2026-05-05T10:53:23.999Z</time></trkpt><trkpt lat="41.632388215416164" lon="19.962788588976878"><ele>263.0</ele><time>2026-05-05T10:53:24.999Z</time></trkpt><trkpt lat="41.632247429992006" lon="19.9626442728623"><ele>263.0</ele><time>2026-05-05T10:53:25.999Z</time></trkpt><trkpt lat="41.6321202121454" lon="19.962469835101935"><ele>263.6666666666667</ele><time>2026-05-05T10:53:26.999Z</time></trkpt><trkpt lat="41.632014914342186" lon="19.962272846385908"><ele>264.3333333333333</ele><time>2026-05-05T10:53:27.999Z</time></trkpt><trkpt lat="41.63192780662347" lon="19.962049465842732"><ele>265.0</ele><time>2026-05-05T10:53:28.999Z</time></trkpt><trkpt lat="41.631864976274905" lon="19.96181659835392"><ele>268.0</ele><time>2026-05-05T10:53:29.999Z</time></trkpt><trkpt lat="41.631817914342584" lon="19.96158376716504"><ele>271.0</ele><time>2026-05-05T10:53:30.999Z</time></trkpt><trkpt lat="41.63179567176979" lon="19.96136653806405"><ele>274.0</ele><time>2026-05-05T10:53:31.999Z</time></trkpt><trkpt lat="41.63178726193571" lon="19.961166861695176"><ele>274.0</ele><time>2026-05-05T10:53:32.999Z</time></trkpt><trkpt lat="41.6317547278381" lon="19.960976078060817"><ele>274.0</ele><time>2026-05-05T10:53:33.999Z</time></trkpt><trkpt lat="41.63167201376372" lon="19.960785488183603"><ele>274.0</ele><time>2026-05-05T10:53:34.999Z</time></trkpt><trkpt lat="41.63156440878384" lon="19.960610453835322"><ele>274.66666666666663</ele><time>2026-05-05T10:53:35.999Z</time></trkpt><trkpt lat="41.63147603145664" lon="19.960434325270835"><ele>275.3333333333333</ele><time>2026-05-05T10:53:36.999Z</time></trkpt><trkpt lat="41.631426968069675" lon="19.960217458714688"><ele>276.0</ele><time>2026-05-05T10:53:37.999Z</time></trkpt><trkpt lat="41.63139452449732" lon="19.959991817505127"><ele>278.3333333333333</ele><time>2026-05-05T10:53:38.999Z</time></trkpt><trkpt lat="41.63137800542899" lon="19.95976279223993"><ele>280.66666666666663</ele><time>2026-05-05T10:53:39.999Z</time></trkpt><trkpt lat="41.63136512379551" lon="19.959526911122378"><ele>283.0</ele><time>2026-05-05T10:53:40.999Z</time></trkpt><trkpt lat="41.63136832789435" lon="19.95931030021154"><ele>281.3333333333333</ele><time>2026-05-05T10:53:41.999Z</time></trkpt><trkpt lat="41.63140092297046" lon="19.959119944612997"><ele>279.6666666666667</ele><time>2026-05-05T10:53:42.999Z</time></trkpt><trkpt lat="41.631463298650345" lon="19.95892198759013"><ele>278.0</ele><time>2026-05-05T10:53:43.999Z</time></trkpt><trkpt lat="41.631535703103616" lon="19.95872392887156"><ele>278.0</ele><time>2026-05-05T10:53:44.999Z</time></trkpt><trkpt lat="41.631610845391656" lon="19.958501540718718"><ele>278.0</ele><time>2026-05-05T10:53:45.999Z</time></trkpt><trkpt lat="41.63168680814868" lon="19.958278711980956"><ele>278.0</ele><time>2026-05-05T10:53:46.999Z</time></trkpt><trkpt lat="41.631754255675425" lon="19.95804600123081"><ele>278.0</ele><time>2026-05-05T10:53:47.999Z</time></trkpt><trkpt lat="41.63180090607499" lon="19.957805992193446"><ele>278.0</ele><time>2026-05-05T10:53:48.999Z</time></trkpt><trkpt lat="41.631826735139406" lon="19.95755475530244"><ele>278.0</ele><time>2026-05-05T10:53:49.999Z</time></trkpt><trkpt lat="41.63184607140287" lon="19.957283970626694"><ele>277.6666666666667</ele><time>2026-05-05T10:53:50.999Z</time></trkpt><trkpt lat="41.63186397613401" lon="19.957006899618165"><ele>277.3333333333333</ele><time>2026-05-05T10:53:51.999Z</time></trkpt><trkpt lat="41.631869067518934" lon="19.95675514819922"><ele>277.0</ele><time>2026-05-05T10:53:52.999Z</time></trkpt><trkpt lat="41.631850819650616" lon="19.95653440202015"><ele>276.0</ele><time>2026-05-05T10:53:53.999Z</time></trkpt><trkpt lat="41.631793231912184" lon="19.95633152648183"><ele>275.0</ele><time>2026-05-05T10:53:54.999Z</time></trkpt><trkpt lat="41.63170021445048" lon="19.95611135369039"><ele>274.0</ele><time>2026-05-05T10:53:55.999Z</time></trkpt><trkpt lat="41.63158167091716" lon="19.9558848828767"><ele>274.0</ele><time>2026-05-05T10:53:56.999Z</time></trkpt><trkpt lat="41.63145793610752" lon="19.95566731974172"><ele>274.0</ele><time>2026-05-05T10:53:57.999Z</time></trkpt><trkpt lat="41.63133852091098" lon="19.95544440497741"><ele>274.0</ele><time>2026-05-05T10:53:58.999Z</time></trkpt><trkpt lat="41.631249550396404" lon="19.955234166650236"><ele>274.66666666666663</ele><time>2026-05-05T10:53:59.999Z</time></trkpt><trkpt lat="41.63120201610862" lon="19.955027350733914"><ele>275.3333333333333</ele><time>2026-05-05T10:54:00.999Z</time></trkpt><trkpt lat="41.63119502222383" lon="19.95481651524153"><ele>276.0</ele><time>2026-05-05T10:54:01.999Z</time></trkpt><trkpt lat="41.6312002644679" lon="19.954590663205295"><ele>276.0</ele><time>2026-05-05T10:54:02.999Z</time></trkpt><trkpt lat="41.631204468367095" lon="19.954360109322216"><ele>276.0</ele><time>2026-05-05T10:54:03.999Z</time></trkpt><trkpt lat="41.631199030665364" lon="19.954148457351547"><ele>276.0</ele><time>2026-05-05T10:54:04.999Z</time></trkpt><trkpt lat="41.631217576095544" lon="19.953968763493197"><ele>278.0</ele><time>2026-05-05T10:54:05.999Z</time></trkpt><trkpt lat="41.63128585267521" lon="19.953820865185154"><ele>280.0</ele><time>2026-05-05T10:54:06.999Z</time></trkpt><trkpt lat="41.631393901311654" lon="19.953667654166892"><ele>282.0</ele><time>2026-05-05T10:54:07.999Z</time></trkpt><trkpt lat="41.63149628075834" lon="19.953488230237234"><ele>284.3333333333333</ele><time>2026-05-05T10:54:08.999Z</time></trkpt><trkpt lat="41.63155122751193" lon="19.95327573882611"><ele>286.66666666666663</ele><time>2026-05-05T10:54:09.999Z</time></trkpt><trkpt lat="41.63154952855684" lon="19.9530295185032"><ele>289.0</ele><time>2026-05-05T10:54:10.999Z</time></trkpt><trkpt lat="41.631501505950375" lon="19.95278455815954"><ele>289.0</ele><time>2026-05-05T10:54:11.999Z</time></trkpt><trkpt lat="41.63147566763965" lon="19.952546648414547"><ele>289.0</ele><time>2026-05-05T10:54:12.999Z</time></trkpt><trkpt lat="41.63151037870097" lon="19.952301549788853"><ele>289.0</ele><time>2026-05-05T10:54:13.999Z</time></trkpt><trkpt lat="41.63156656869535" lon="19.95203559979488"><ele>289.66666666666663</ele><time>2026-05-05T10:54:15Z</time></trkpt><trkpt lat="41.631601570242736" lon="19.95176965237238"><ele>290.3333333333333</ele><time>2026-05-05T10:54:16Z</time></trkpt><trkpt lat="41.6315954628064" lon="19.951518226654592"><ele>291.0</ele><time>2026-05-05T10:54:17Z</time></trkpt><trkpt lat="41.63155125282382" lon="19.951271143343018"><ele>289.0</ele><time>2026-05-05T10:54:18Z</time></trkpt><trkpt lat="41.63145998071526" lon="19.95103580413994"><ele>287.0</ele><time>2026-05-05T10:54:19Z</time></trkpt><trkpt lat="41.631350530666694" lon="19.950801576495046"><ele>285.0</ele><time>2026-05-05T10:54:20Z</time></trkpt><trkpt lat="41.63122838164021" lon="19.950575428283113"><ele>284.3333333333333</ele><time>2026-05-05T10:54:21Z</time></trkpt><trkpt lat="41.63110184548364" lon="19.950359585764335"><ele>283.66666666666663</ele><time>2026-05-05T10:54:22Z</time></trkpt><trkpt lat="41.630965736104535" lon="19.95016603734583"><ele>283.0</ele><time>2026-05-05T10:54:23Z</time></trkpt><trkpt lat="41.63080866626994" lon="19.949997055025722"><ele>286.0</ele><time>2026-05-05T10:54:24Z</time></trkpt><trkpt lat="41.6306547671539" lon="19.949869991759336"><ele>289.0</ele><time>2026-05-05T10:54:25Z</time></trkpt><trkpt lat="41.63054011100142" lon="19.949754649217688"><ele>292.0</ele><time>2026-05-05T10:54:26Z</time></trkpt><trkpt lat="41.63045268175709" lon="19.94960100904283"><ele>292.0</ele><time>2026-05-05T10:54:27Z</time></trkpt><trkpt lat="41.63037776384322" lon="19.94940532422249"><ele>292.0</ele><time>2026-05-05T10:54:28Z</time></trkpt><trkpt lat="41.6303253027325" lon="19.94918540587169"><ele>292.0</ele><time>2026-05-05T10:54:29Z</time></trkpt><trkpt lat="41.63029929860502" lon="19.9489592539287"><ele>291.0</ele><time>2026-05-05T10:54:30Z</time></trkpt><trkpt lat="41.63030461934673" lon="19.948749849475877"><ele>290.0</ele><time>2026-05-05T10:54:31Z</time></trkpt><trkpt lat="41.63034820043414" lon="19.948540973857995"><ele>289.0</ele><time>2026-05-05T10:54:32Z</time></trkpt><trkpt lat="41.63040608630288" lon="19.948338457113934"><ele>289.0</ele><time>2026-05-05T10:54:33Z</time></trkpt><trkpt lat="41.63044513548046" lon="19.948135726401826"><ele>289.0</ele><time>2026-05-05T10:54:34Z</time></trkpt><trkpt lat="41.63047560328029" lon="19.94793641904931"><ele>289.0</ele><time>2026-05-05T10:54:35Z</time></trkpt><trkpt lat="41.63052702093346" lon="19.947757589483825"><ele>289.0</ele><time>2026-05-05T10:54:36Z</time></trkpt><trkpt lat="41.63060692224668" lon="19.94760686607088"><ele>289.0</ele><time>2026-05-05T10:54:37Z</time></trkpt><trkpt lat="41.6307073142019" lon="19.947481470502446"><ele>289.0</ele><time>2026-05-05T10:54:38Z</time></trkpt><trkpt lat="41.630809828165724" lon="19.94736034686443"><ele>289.0</ele><time>2026-05-05T10:54:39Z</time></trkpt><trkpt lat="41.63090833591802" lon="19.947234579389363"><ele>290.5</ele><time>2026-05-05T10:54:40Z</time></trkpt><trkpt lat="41.63099812209679" lon="19.94710889365901"><ele>292.0</ele><time>2026-05-05T10:54:41Z</time></trkpt><trkpt lat="41.631086735616805" lon="19.94697234253334"><ele>293.5</ele><time>2026-05-05T10:54:42Z</time></trkpt><trkpt lat="41.63116646007779" lon="19.946824515394667"><ele>295.0</ele><time>2026-05-05T10:54:43Z</time></trkpt><trkpt lat="41.63123873340986" lon="19.94665307422232"><ele>295.75</ele><time>2026-05-05T10:54:44Z</time></trkpt><trkpt lat="41.63130271507271" lon="19.94647041907842"><ele>296.5</ele><time>2026-05-05T10:54:45Z</time></trkpt><trkpt lat="41.63137071496106" lon="19.946290287739"><ele>297.25</ele><time>2026-05-05T10:54:46Z</time></trkpt><trkpt lat="41.63143801861147" lon="19.946145430834623"><ele>298.0</ele><time>2026-05-05T10:54:47Z</time></trkpt><trkpt lat="41.631520068674064" lon="19.94602474927293"><ele>298.0</ele><time>2026-05-05T10:54:48Z</time></trkpt><trkpt lat="41.631616852358995" lon="19.94592847072999"><ele>298.0</ele><time>2026-05-05T10:54:49Z</time></trkpt><trkpt lat="41.63172555644868" lon="19.945844930816804"><ele>298.0</ele><time>2026-05-05T10:54:50Z</time></trkpt><trkpt lat="41.631833607409284" lon="19.94574226182049"><ele>298.0</ele><time>2026-05-05T10:54:51Z</time></trkpt><trkpt lat="41.631931802237105" lon="19.945599239654502"><ele>296.0</ele><time>2026-05-05T10:54:52Z</time></trkpt><trkpt lat="41.631997793733014" lon="19.9454126259934"><ele>294.0</ele><time>2026-05-05T10:54:53Z</time></trkpt><trkpt lat="41.63204342655069" lon="19.945209574402263"><ele>292.0</ele><time>2026-05-05T10:54:54Z</time></trkpt><trkpt lat="41.63210821261614" lon="19.945008728079536"><ele>291.66666666666663</ele><time>2026-05-05T10:54:55Z</time></trkpt><trkpt lat="41.632188137114035" lon="19.944820075732697"><ele>291.3333333333333</ele><time>2026-05-05T10:54:56Z</time></trkpt><trkpt lat="41.63228975703059" lon="19.944652532771098"><ele>291.0</ele><time>2026-05-05T10:54:57Z</time></trkpt><trkpt lat="41.63241059907015" lon="19.944508585460984"><ele>291.0</ele><time>2026-05-05T10:54:58Z</time></trkpt><trkpt lat="41.63253795948567" lon="19.944379735934625"><ele>291.0</ele><time>2026-05-05T10:54:59Z</time></trkpt><trkpt lat="41.632664925858045" lon="19.9442503686507"><ele>291.0</ele><time>2026-05-05T10:55:00Z</time></trkpt><trkpt lat="41.63279596662888" lon="19.944118967153862"><ele>289.6666666666667</ele><time>2026-05-05T10:55:01Z</time></trkpt><trkpt lat="41.632926340342614" lon="19.943984915451235"><ele>288.33333333333337</ele><time>2026-05-05T10:55:02Z</time></trkpt><trkpt lat="41.633059304850555" lon="19.943846672752024"><ele>287.0</ele><time>2026-05-05T10:55:03Z</time></trkpt><trkpt lat="41.63319408223844" lon="19.943695894335917"><ele>287.0</ele><time>2026-05-05T10:55:04Z</time></trkpt><trkpt lat="41.63332847394612" lon="19.943548214091514"><ele>287.0</ele><time>2026-05-05T10:55:05Z</time></trkpt><trkpt lat="41.63346395900463" lon="19.94340403466489"><ele>287.0</ele><time>2026-05-05T10:55:06Z</time></trkpt><trkpt lat="41.63359557159213" lon="19.943269406647516"><ele>289.6666666666667</ele><time>2026-05-05T10:55:07Z</time></trkpt><trkpt lat="41.63372386901721" lon="19.943124369933475"><ele>292.3333333333333</ele><time>2026-05-05T10:55:08Z</time></trkpt><trkpt lat="41.6338365065068" lon="19.94295863108496"><ele>295.0</ele><time>2026-05-05T10:55:09Z</time></trkpt><trkpt lat="41.63392499195335" lon="19.94276892307706"><ele>295.0</ele><time>2026-05-05T10:55:10Z</time></trkpt><trkpt lat="41.633995930287824" lon="19.942562192859594"><ele>295.0</ele><time>2026-05-05T10:55:11Z</time></trkpt><trkpt lat="41.634064565710425" lon="19.942343094980902"><ele>295.0</ele><time>2026-05-05T10:55:12Z</time></trkpt><trkpt lat="41.63414678142452" lon="19.942133947788314"><ele>296.3333333333333</ele><time>2026-05-05T10:55:13Z</time></trkpt><trkpt lat="41.634251538037525" lon="19.94195101171824"><ele>297.6666666666667</ele><time>2026-05-05T10:55:14Z</time></trkpt><trkpt lat="41.63437457789227" lon="19.941807091056653"><ele>299.0</ele><time>2026-05-05T10:55:15Z</time></trkpt><trkpt lat="41.63449879477435" lon="19.941690143816604"><ele>295.75</ele><time>2026-05-05T10:55:16Z</time></trkpt><trkpt lat="41.63459466407861" lon="19.941558845688583"><ele>292.5</ele><time>2026-05-05T10:55:17Z</time></trkpt><trkpt lat="41.63463697174268" lon="19.941429442318746"><ele>289.25</ele><time>2026-05-05T10:55:18Z</time></trkpt><trkpt lat="41.63465609136893" lon="19.941273061722118"><ele>286.0</ele><time>2026-05-05T10:55:19Z</time></trkpt><trkpt lat="41.63462608767402" lon="19.941112106119967"><ele>286.0</ele><time>2026-05-05T10:55:20Z</time></trkpt><trkpt lat="41.634557124979985" lon="19.94094560720735"><ele>286.0</ele><time>2026-05-05T10:55:21Z</time></trkpt><trkpt lat="41.63446040590126" lon="19.94075785844227"><ele>286.0</ele><time>2026-05-05T10:55:22Z</time></trkpt><trkpt lat="41.63435423823515" lon="19.94055914821869"><ele>286.3333333333333</ele><time>2026-05-05T10:55:23Z</time></trkpt><trkpt lat="41.634254317765745" lon="19.9403707828876"><ele>286.6666666666667</ele><time>2026-05-05T10:55:24Z</time></trkpt><trkpt lat="41.634181668742286" lon="19.940203567382042"><ele>287.0</ele><time>2026-05-05T10:55:25Z</time></trkpt><trkpt lat="41.63413482841434" lon="19.94002876673167"><ele>287.75</ele><time>2026-05-05T10:55:26Z</time></trkpt><trkpt lat="41.63413043363179" lon="19.939870780618623"><ele>288.5</ele><time>2026-05-05T10:55:27Z</time></trkpt><trkpt lat="41.63415230163014" lon="19.939732228992902"><ele>289.25</ele><time>2026-05-05T10:55:28Z</time></trkpt><trkpt lat="41.634208576551764" lon="19.939605710094344"><ele>290.0</ele><time>2026-05-05T10:55:29Z</time></trkpt><trkpt lat="41.63430712017067" lon="19.939473627541137"><ele>290.0</ele><time>2026-05-05T10:55:30Z</time></trkpt><trkpt lat="41.6344263965565" lon="19.939308125276618"><ele>290.0</ele><time>2026-05-05T10:55:31Z</time></trkpt><trkpt lat="41.63453623690882" lon="19.93910961496482"><ele>290.0</ele><time>2026-05-05T10:55:32Z</time></trkpt><trkpt lat="41.63464449767051" lon="19.938877435185052"><ele>289.6666666666667</ele><time>2026-05-05T10:55:33Z</time></trkpt><trkpt lat="41.63474361062873" lon="19.938642757681926"><ele>289.3333333333333</ele><time>2026-05-05T10:55:34Z</time></trkpt><trkpt lat="41.63480948281706" lon="19.93842804186425"><ele>289.0</ele><time>2026-05-05T10:55:35Z</time></trkpt><trkpt lat="41.63485061296327" lon="19.938202479373526"><ele>289.0</ele><time>2026-05-05T10:55:36Z</time></trkpt><trkpt lat="41.63488015616558" lon="19.93795084680099"><ele>289.0</ele><time>2026-05-05T10:55:37Z</time></trkpt><trkpt lat="41.63487525066399" lon="19.937706059040995"><ele>289.0</ele><time>2026-05-05T10:55:38Z</time></trkpt><trkpt lat="41.63482984629631" lon="19.93747908709929"><ele>290.3333333333333</ele><time>2026-05-05T10:55:39Z</time></trkpt><trkpt lat="41.6347572532122" lon="19.937254917347197"><ele>291.6666666666667</ele><time>2026-05-05T10:55:40Z</time></trkpt><trkpt lat="41.6346722948337" lon="19.937064942303156"><ele>293.0</ele><time>2026-05-05T10:55:41Z</time></trkpt><trkpt lat="41.63456402100938" lon="19.93688107452244"><ele>293.0</ele><time>2026-05-05T10:55:42Z</time></trkpt><trkpt lat="41.63444147668578" lon="19.93671252993875"><ele>293.0</ele><time>2026-05-05T10:55:43Z</time></trkpt><trkpt lat="41.63431360683214" lon="19.936572209332915"><ele>293.0</ele><time>2026-05-05T10:55:43.999Z</time></trkpt><trkpt lat="41.63416197797795" lon="19.93645853593771"><ele>293.0</ele><time>2026-05-05T10:55:44.999Z</time></trkpt><trkpt lat="41.633979492293456" lon="19.936353778646218"><ele>293.0</ele><time>2026-05-05T10:55:45.999Z</time></trkpt><trkpt lat="41.63378153700346" lon="19.936259196465837"><ele>293.0</ele><time>2026-05-05T10:55:46.999Z</time></trkpt><trkpt lat="41.63357551930046" lon="19.936147187156912"><ele>291.0</ele><time>2026-05-05T10:55:47.999Z</time></trkpt><trkpt lat="41.633354383314675" lon="19.936006825414957"><ele>289.0</ele><time>2026-05-05T10:55:48.999Z</time></trkpt><trkpt lat="41.633136864364914" lon="19.935858924480144"><ele>288.5</ele><time>2026-05-05T10:55:49.999Z</time></trkpt><trkpt lat="41.632927637408734" lon="19.935717303655057"><ele>288.0</ele><time>2026-05-05T10:55:50.999Z</time></trkpt><trkpt lat="41.63273621934874" lon="19.935578241230033"><ele>288.0</ele><time>2026-05-05T10:55:51.999Z</time></trkpt><trkpt lat="41.63256386552571" lon="19.935447129596774"><ele>288.0</ele><time>2026-05-05T10:55:52.999Z</time></trkpt><trkpt lat="41.632408278686334" lon="19.935323305738766"><ele>288.0</ele><time>2026-05-05T10:55:53.999Z</time></trkpt><trkpt lat="41.63226674345941" lon="19.935216183674736"><ele>288.0</ele><time>2026-05-05T10:55:54.999Z</time></trkpt><trkpt lat="41.63211758671817" lon="19.935110414360146"><ele>288.0</ele><time>2026-05-05T10:55:55.999Z</time></trkpt><trkpt lat="41.63197405247554" lon="19.935002444869163"><ele>288.0</ele><time>2026-05-05T10:55:56.999Z</time></trkpt><trkpt lat="41.631861160942854" lon="19.934911373882812"><ele>290.5</ele><time>2026-05-05T10:55:57.999Z</time></trkpt><trkpt lat="41.631749888454635" lon="19.93479847493212"><ele>293.0</ele><time>2026-05-05T10:55:58.999Z</time></trkpt><trkpt lat="41.631645294412294" lon="19.934671688688564"><ele>295.5</ele><time>2026-05-05T10:55:59.999Z</time></trkpt><trkpt lat="41.631568223709984" lon="19.934533689977506"><ele>298.0</ele><time>2026-05-05T10:56:00.999Z</time></trkpt><trkpt lat="41.631522485350295" lon="19.93438885406362"><ele>298.0</ele><time>2026-05-05T10:56:01.999Z</time></trkpt><trkpt lat="41.63151820077564" lon="19.93423710506797"><ele>298.0</ele><time>2026-05-05T10:56:02.999Z</time></trkpt><trkpt lat="41.631553171874835" lon="19.934069871037345"><ele>298.0</ele><time>2026-05-05T10:56:03.999Z</time></trkpt><trkpt lat="41.631602857389595" lon="19.93390373200232"><ele>298.0</ele><time>2026-05-05T10:56:04.999Z</time></trkpt><trkpt lat="41.63164698962454" lon="19.93373983668435"><ele>298.25</ele><time>2026-05-05T10:56:05.999Z</time></trkpt><trkpt lat="41.631677362574656" lon="19.933583698685965"><ele>298.5</ele><time>2026-05-05T10:56:06.999Z</time></trkpt><trkpt lat="41.63170420844127" lon="19.933427463000513"><ele>298.75</ele><time>2026-05-05T10:56:07.999Z</time></trkpt><trkpt lat="41.63172502134269" lon="19.933266716299112"><ele>299.0</ele><time>2026-05-05T10:56:08.999Z</time></trkpt><trkpt lat="41.6317394703926" lon="19.933098236359104"><ele>300.75</ele><time>2026-05-05T10:56:09.999Z</time></trkpt><trkpt lat="41.631752478154205" lon="19.93293417264027"><ele>302.5</ele><time>2026-05-05T10:56:10.999Z</time></trkpt><trkpt lat="41.631766896482084" lon="19.932767618777884"><ele>304.25</ele><time>2026-05-05T10:56:11.999Z</time></trkpt><trkpt lat="41.631780283621715" lon="19.93259389202712"><ele>306.0</ele><time>2026-05-05T10:56:12.999Z</time></trkpt><trkpt lat="41.63179669827459" lon="19.932410453298996"><ele>308.0</ele><time>2026-05-05T10:56:13.999Z</time></trkpt><trkpt lat="41.63181829208417" lon="19.932216317461165"><ele>310.0</ele><time>2026-05-05T10:56:14.999Z</time></trkpt><trkpt lat="41.63184371303757" lon="19.93201030348315"><ele>312.0</ele><time>2026-05-05T10:56:15.999Z</time></trkpt><trkpt lat="41.63186866629206" lon="19.93180380832923"><ele>313.6666666666667</ele><time>2026-05-05T10:56:16.999Z</time></trkpt><trkpt lat="41.631891581410635" lon="19.931589688928433"><ele>315.33333333333337</ele><time>2026-05-05T10:56:17.999Z</time></trkpt><trkpt lat="41.63191840185565" lon="19.93139178588921"><ele>317.0</ele><time>2026-05-05T10:56:18.999Z</time></trkpt><trkpt lat="41.63194972612229" lon="19.93120313023966"><ele>317.0</ele><time>2026-05-05T10:56:19.999Z</time></trkpt><trkpt lat="41.63199991742675" lon="19.931033482741316"><ele>317.0</ele><time>2026-05-05T10:56:21Z</time></trkpt><trkpt lat="41.632071050254105" lon="19.930878252308176"><ele>317.0</ele><time>2026-05-05T10:56:22Z</time></trkpt><trkpt lat="41.63215456588272" lon="19.930731026736584"><ele>317.0</ele><time>2026-05-05T10:56:23Z</time></trkpt><trkpt lat="41.632236677397714" lon="19.93058771717707"><ele>317.0</ele><time>2026-05-05T10:56:24Z</time></trkpt><trkpt lat="41.63230464283824" lon="19.9304390505863"><ele>317.0</ele><time>2026-05-05T10:56:25Z</time></trkpt><trkpt lat="41.63235955865359" lon="19.930272145259597"><ele>317.0</ele><time>2026-05-05T10:56:26Z</time></trkpt><trkpt lat="41.63240309835804" lon="19.930090703895875"><ele>317.0</ele><time>2026-05-05T10:56:27Z</time></trkpt><trkpt lat="41.63244311701488" lon="19.92990962558161"><ele>318.0</ele><time>2026-05-05T10:56:28Z</time></trkpt><trkpt lat="41.632495246784806" lon="19.92971630062351"><ele>319.0</ele><time>2026-05-05T10:56:29Z</time></trkpt><trkpt lat="41.632580311804986" lon="19.92953989961601"><ele>320.0</ele><time>2026-05-05T10:56:30Z</time></trkpt><trkpt lat="41.63270278736683" lon="19.92939935274206"><ele>318.0</ele><time>2026-05-05T10:56:31Z</time></trkpt><trkpt lat="41.63285185887522" lon="19.929293024377273"><ele>316.0</ele><time>2026-05-05T10:56:32Z</time></trkpt><trkpt lat="41.63302353342373" lon="19.929233024747205"><ele>314.0</ele><time>2026-05-05T10:56:33Z</time></trkpt><trkpt lat="41.633188588762025" lon="19.929206124286434"><ele>314.0</ele><time>2026-05-05T10:56:34Z</time></trkpt><trkpt lat="41.633337580894725" lon="19.929145934981502"><ele>314.0</ele><time>2026-05-05T10:56:35Z</time></trkpt><trkpt lat="41.63346820744858" lon="19.929018571772147"><ele>314.0</ele><time>2026-05-05T10:56:36Z</time></trkpt><trkpt lat="41.63359481388059" lon="19.928839888745106"><ele>312.0</ele><time>2026-05-05T10:56:37Z</time></trkpt><trkpt lat="41.63371708109849" lon="19.928637256422245"><ele>310.0</ele><time>2026-05-05T10:56:38Z</time></trkpt><trkpt lat="41.63385438594504" lon="19.928429475561575"><ele>308.0</ele><time>2026-05-05T10:56:39Z</time></trkpt><trkpt lat="41.633981808549564" lon="19.928231905939477"><ele>308.0</ele><time>2026-05-05T10:56:40Z</time></trkpt><trkpt lat="41.63409736117366" lon="19.92805332516226"><ele>308.0</ele><time>2026-05-05T10:56:41Z</time></trkpt><trkpt lat="41.63420305472098" lon="19.927870268663273"><ele>308.0</ele><time>2026-05-05T10:56:42Z</time></trkpt><trkpt lat="41.634304552409446" lon="19.92770094120301"><ele>306.33333333333337</ele><time>2026-05-05T10:56:43Z</time></trkpt><trkpt lat="41.6344123014184" lon="19.927535922964687"><ele>304.6666666666667</ele><time>2026-05-05T10:56:44Z</time></trkpt><trkpt lat="41.63452530740089" lon="19.927385052380707"><ele>303.0</ele><time>2026-05-05T10:56:45Z</time></trkpt><trkpt lat="41.634658491039424" lon="19.927257543607293"><ele>302.0</ele><time>2026-05-05T10:56:46Z</time></trkpt><trkpt lat="41.634827627802764" lon="19.927153143718925"><ele>301.0</ele><time>2026-05-05T10:56:47Z</time></trkpt><trkpt lat="41.635021075806044" lon="19.92707970113856"><ele>300.0</ele><time>2026-05-05T10:56:48Z</time></trkpt><trkpt lat="41.635223536464444" lon="19.92701936622816"><ele>299.0</ele><time>2026-05-05T10:56:49Z</time></trkpt><trkpt lat="41.635439008697944" lon="19.92695509633627"><ele>298.0</ele><time>2026-05-05T10:56:50Z</time></trkpt><trkpt lat="41.635655484645916" lon="19.926892708661487"><ele>297.0</ele><time>2026-05-05T10:56:51Z</time></trkpt><trkpt lat="41.63588083296835" lon="19.92684083154616"><ele>297.0</ele><time>2026-05-05T10:56:52Z</time></trkpt><trkpt lat="41.63609340032796" lon="19.92677532652276"><ele>297.0</ele><time>2026-05-05T10:56:53Z</time></trkpt><trkpt lat="41.63629353310252" lon="19.92666379699492"><ele>297.0</ele><time>2026-05-05T10:56:54Z</time></trkpt><trkpt lat="41.6364875789381" lon="19.92651602366747"><ele>296.6666666666667</ele><time>2026-05-05T10:56:55Z</time></trkpt><trkpt lat="41.63666183572277" lon="19.92635117720942"><ele>296.33333333333337</ele><time>2026-05-05T10:56:56Z</time></trkpt><trkpt lat="41.63682102338077" lon="19.926162728247952"><ele>296.0</ele><time>2026-05-05T10:56:57Z</time></trkpt><trkpt lat="41.63697762169694" lon="19.92595739337086"><ele>298.33333333333337</ele><time>2026-05-05T10:56:58Z</time></trkpt><trkpt lat="41.63713217713454" lon="19.925776450009963"><ele>300.6666666666667</ele><time>2026-05-05T10:56:59Z</time></trkpt><trkpt lat="41.637298332833964" lon="19.9255945023293"><ele>303.0</ele><time>2026-05-05T10:57:00Z</time></trkpt><trkpt lat="41.6374512448765" lon="19.925426936905776"><ele>303.0</ele><time>2026-05-05T10:57:01Z</time></trkpt><trkpt lat="41.637590229619896" lon="19.925286457965264"><ele>303.0</ele><time>2026-05-05T10:57:02Z</time></trkpt><trkpt lat="41.6377458062507" lon="19.925172408889157"><ele>303.0</ele><time>2026-05-05T10:57:03Z</time></trkpt><trkpt lat="41.637932149970766" lon="19.925092336907547"><ele>304.0</ele><time>2026-05-05T10:57:04Z</time></trkpt><trkpt lat="41.63812729137456" lon="19.925028714781018"><ele>305.0</ele><time>2026-05-05T10:57:05Z</time></trkpt><trkpt lat="41.638302986062655" lon="19.92494480057137"><ele>306.0</ele><time>2026-05-05T10:57:06Z</time></trkpt><trkpt lat="41.63847904433748" lon="19.92481472638255"><ele>305.0</ele><time>2026-05-05T10:57:07Z</time></trkpt><trkpt lat="41.6386575645091" lon="19.92467010902191"><ele>304.0</ele><time>2026-05-05T10:57:08Z</time></trkpt><trkpt lat="41.638823041600325" lon="19.924541809405582"><ele>303.0</ele><time>2026-05-05T10:57:09Z</time></trkpt><trkpt lat="41.63897576406826" lon="19.92443539541518"><ele>303.0</ele><time>2026-05-05T10:57:10Z</time></trkpt><trkpt lat="41.639110031152434" lon="19.924346559112976"><ele>303.0</ele><time>2026-05-05T10:57:11Z</time></trkpt><trkpt lat="41.63924121376066" lon="19.924257603457878"><ele>303.0</ele><time>2026-05-05T10:57:12Z</time></trkpt><trkpt lat="41.63936607227711" lon="19.92416936975546"><ele>303.0</ele><time>2026-05-05T10:57:13Z</time></trkpt><trkpt lat="41.639522332386434" lon="19.924070000619437"><ele>302.0</ele><time>2026-05-05T10:57:14Z</time></trkpt><trkpt lat="41.63968277556703" lon="19.92397874451646"><ele>301.0</ele><time>2026-05-05T10:57:15Z</time></trkpt><trkpt lat="41.63985183066511" lon="19.92389009281258"><ele>300.0</ele><time>2026-05-05T10:57:16Z</time></trkpt><trkpt lat="41.640015026793776" lon="19.923780451071828"><ele>300.0</ele><time>2026-05-05T10:57:17Z</time></trkpt><trkpt lat="41.64016393445013" lon="19.92364686967273"><ele>300.0</ele><time>2026-05-05T10:57:18Z</time></trkpt><trkpt lat="41.640306173152204" lon="19.92348181560214"><ele>300.0</ele><time>2026-05-05T10:57:19Z</time></trkpt><trkpt lat="41.640428989246296" lon="19.923287061034117"><ele>299.3333333333333</ele><time>2026-05-05T10:57:20Z</time></trkpt><trkpt lat="41.640539355738504" lon="19.923063766303063"><ele>298.66666666666663</ele><time>2026-05-05T10:57:21Z</time></trkpt><trkpt lat="41.64064764176105" lon="19.92281460171051"><ele>298.0</ele><time>2026-05-05T10:57:22Z</time></trkpt><trkpt lat="41.64075890676771" lon="19.92258679426827"><ele>299.3333333333333</ele><time>2026-05-05T10:57:23Z</time></trkpt><trkpt lat="41.64088781302567" lon="19.92236923733722"><ele>300.6666666666667</ele><time>2026-05-05T10:57:24Z</time></trkpt><trkpt lat="41.6410143117518" lon="19.922192163889715"><ele>302.0</ele><time>2026-05-05T10:57:25Z</time></trkpt><trkpt lat="41.64114099411737" lon="19.922019006664197"><ele>302.0</ele><time>2026-05-05T10:57:26Z</time></trkpt><trkpt lat="41.641272084564925" lon="19.921850266307903"><ele>302.0</ele><time>2026-05-05T10:57:27Z</time></trkpt><trkpt lat="41.64140426189381" lon="19.92167894641072"><ele>302.0</ele><time>2026-05-05T10:57:28Z</time></trkpt><trkpt lat="41.641540460027784" lon="19.92149720026371"><ele>302.0</ele><time>2026-05-05T10:57:29Z</time></trkpt><trkpt lat="41.64167837180759" lon="19.92131823417548"><ele>302.0</ele><time>2026-05-05T10:57:30Z</time></trkpt><trkpt lat="41.64182661300108" lon="19.92113162037696"><ele>302.0</ele><time>2026-05-05T10:57:31Z</time></trkpt><trkpt lat="41.64198385518634" lon="19.920950549286147"><ele>301.0</ele><time>2026-05-05T10:57:32Z</time></trkpt><trkpt lat="41.642148192182916" lon="19.920775925595734"><ele>300.0</ele><time>2026-05-05T10:57:33Z</time></trkpt><trkpt lat="41.64232206303331" lon="19.92060326810475"><ele>299.0</ele><time>2026-05-05T10:57:34Z</time></trkpt><trkpt lat="41.64249623997138" lon="19.920436851136557"><ele>299.0</ele><time>2026-05-05T10:57:35Z</time></trkpt><trkpt lat="41.642675883142644" lon="19.92025469829788"><ele>299.0</ele><time>2026-05-05T10:57:36Z</time></trkpt><trkpt lat="41.64285724555114" lon="19.920062008183482"><ele>298.0</ele><time>2026-05-05T10:57:37Z</time></trkpt><trkpt lat="41.643045212985875" lon="19.919871542301255"><ele>297.0</ele><time>2026-05-05T10:57:38Z</time></trkpt><trkpt lat="41.64322511944111" lon="19.919673939646625"><ele>297.0</ele><time>2026-05-05T10:57:39Z</time></trkpt><trkpt lat="41.6433841280483" lon="19.91947956252616"><ele>297.0</ele><time>2026-05-05T10:57:40Z</time></trkpt><trkpt lat="41.643546280808636" lon="19.919267874586893"><ele>297.0</ele><time>2026-05-05T10:57:41Z</time></trkpt><trkpt lat="41.64371394222478" lon="19.91906279827731"><ele>296.0</ele><time>2026-05-05T10:57:42Z</time></trkpt><trkpt lat="41.64387576281043" lon="19.918902574300198"><ele>295.0</ele><time>2026-05-05T10:57:43Z</time></trkpt><trkpt lat="41.64405901672692" lon="19.918768744378013"><ele>294.0</ele><time>2026-05-05T10:57:44Z</time></trkpt><trkpt lat="41.64424986585665" lon="19.91865997863455"><ele>294.0</ele><time>2026-05-05T10:57:45Z</time></trkpt><trkpt lat="41.6444499643241" lon="19.91853165171595"><ele>294.0</ele><time>2026-05-05T10:57:46Z</time></trkpt><trkpt lat="41.64465711316772" lon="19.918391969919856"><ele>291.0</ele><time>2026-05-05T10:57:47Z</time></trkpt><trkpt lat="41.64486300709069" lon="19.91824252343683"><ele>288.0</ele><time>2026-05-05T10:57:48Z</time></trkpt><trkpt lat="41.645060479195976" lon="19.91809820302458"><ele>288.0</ele><time>2026-05-05T10:57:49Z</time></trkpt><trkpt lat="41.64527304529746" lon="19.917961410024883"><ele>288.0</ele><time>2026-05-05T10:57:50Z</time></trkpt><trkpt lat="41.64548974305343" lon="19.917827563409745"><ele>282.5</ele><time>2026-05-05T10:57:51Z</time></trkpt><trkpt lat="41.64570058846899" lon="19.91770818156883"><ele>277.0</ele><time>2026-05-05T10:57:52Z</time></trkpt><trkpt lat="41.645912620353" lon="19.917600155540168"><ele>278.3333333333333</ele><time>2026-05-05T10:57:53Z</time></trkpt><trkpt lat="41.64612072445936" lon="19.91750633345584"><ele>279.6666666666667</ele><time>2026-05-05T10:57:54Z</time></trkpt><trkpt lat="41.64633447313777" lon="19.917425310833263"><ele>281.0</ele><time>2026-05-05T10:57:55Z</time></trkpt><trkpt lat="41.646552104630075" lon="19.91735825223796"><ele>281.0</ele><time>2026-05-05T10:57:56Z</time></trkpt><trkpt lat="41.64675046905069" lon="19.917295650679705"><ele>281.0</ele><time>2026-05-05T10:57:57Z</time></trkpt><trkpt lat="41.64695416487445" lon="19.917216605551264"><ele>281.0</ele><time>2026-05-05T10:57:58Z</time></trkpt><trkpt lat="41.647165099678475" lon="19.917108567417436"><ele>275.5</ele><time>2026-05-05T10:57:59Z</time></trkpt><trkpt lat="41.64737548621091" lon="19.91698064789733"><ele>270.0</ele><time>2026-05-05T10:58:00Z</time></trkpt><trkpt lat="41.647592605441496" lon="19.91684137011243"><ele>270.5</ele><time>2026-05-05T10:58:01Z</time></trkpt><trkpt lat="41.64780997846151" lon="19.916695861395663"><ele>271.0</ele><time>2026-05-05T10:58:02Z</time></trkpt><trkpt lat="41.64802009372221" lon="19.916552041864563"><ele>271.0</ele><time>2026-05-05T10:58:03Z</time></trkpt><trkpt lat="41.648214628516854" lon="19.916424486412573"><ele>271.0</ele><time>2026-05-05T10:58:04Z</time></trkpt><trkpt lat="41.64840138377265" lon="19.916299360079858"><ele>271.0</ele><time>2026-05-05T10:58:05Z</time></trkpt><trkpt lat="41.648594528667665" lon="19.916179146893096"><ele>266.3333333333333</ele><time>2026-05-05T10:58:06Z</time></trkpt><trkpt lat="41.64880234749085" lon="19.91607407001241"><ele>261.6666666666667</ele><time>2026-05-05T10:58:07Z</time></trkpt><trkpt lat="41.64900541215802" lon="19.91598139734484"><ele>257.0</ele><time>2026-05-05T10:58:08Z</time></trkpt><trkpt lat="41.649202212271256" lon="19.915903538339037"><ele>260.0</ele><time>2026-05-05T10:58:09Z</time></trkpt><trkpt lat="41.64939367583005" lon="19.915835079944035"><ele>263.0</ele><time>2026-05-05T10:58:10Z</time></trkpt><trkpt lat="41.649577034507416" lon="19.915776152417113"><ele>266.0</ele><time>2026-05-05T10:58:11Z</time></trkpt><trkpt lat="41.64974325067836" lon="19.91569893945518"><ele>266.0</ele><time>2026-05-05T10:58:12Z</time></trkpt><trkpt lat="41.649900315078604" lon="19.91558613908581"><ele>266.0</ele><time>2026-05-05T10:58:12.999Z</time></trkpt><trkpt lat="41.650056481887866" lon="19.91542429388567"><ele>266.0</ele><time>2026-05-05T10:58:13.999Z</time></trkpt><trkpt lat="41.65020506663767" lon="19.91522706636685"><ele>263.6666666666667</ele><time>2026-05-05T10:58:14.999Z</time></trkpt><trkpt lat="41.650345487674485" lon="19.915009739941244"><ele>261.3333333333333</ele><time>2026-05-05T10:58:15.999Z</time></trkpt><trkpt lat="41.650500396671845" lon="19.914820642191728"><ele>259.0</ele><time>2026-05-05T10:58:16.999Z</time></trkpt><trkpt lat="41.650693326796045" lon="19.91466533207837"><ele>259.0</ele><time>2026-05-05T10:58:17.999Z</time></trkpt><trkpt lat="41.65090664771467" lon="19.914546339402495"><ele>259.0</ele><time>2026-05-05T10:58:18.999Z</time></trkpt><trkpt lat="41.65111835087749" lon="19.914415767891683"><ele>257.5</ele><time>2026-05-05T10:58:19.999Z</time></trkpt><trkpt lat="41.6513164003911" lon="19.914246808645654"><ele>256.0</ele><time>2026-05-05T10:58:20.999Z</time></trkpt><trkpt lat="41.651522113600194" lon="19.914060440425278"><ele>256.0</ele><time>2026-05-05T10:58:21.999Z</time></trkpt><trkpt lat="41.651721888289735" lon="19.91387471570649"><ele>256.0</ele><time>2026-05-05T10:58:22.999Z</time></trkpt><trkpt lat="41.65192094391995" lon="19.913677510904254"><ele>255.0</ele><time>2026-05-05T10:58:23.999Z</time></trkpt><trkpt lat="41.652119112752835" lon="19.913485209789673"><ele>254.0</ele><time>2026-05-05T10:58:24.999Z</time></trkpt><trkpt lat="41.652306665788316" lon="19.913327499579392"><ele>254.0</ele><time>2026-05-05T10:58:25.999Z</time></trkpt><trkpt lat="41.65248651186283" lon="19.913213712353627"><ele>254.0</ele><time>2026-05-05T10:58:27Z</time></trkpt><trkpt lat="41.65268025270329" lon="19.913139694865077"><ele>254.0</ele><time>2026-05-05T10:58:28Z</time></trkpt><trkpt lat="41.65287200626526" lon="19.913114461016388"><ele>249.66666666666669</ele><time>2026-05-05T10:58:29Z</time></trkpt><trkpt lat="41.65305388163289" lon="19.9130701488221"><ele>245.33333333333331</ele><time>2026-05-05T10:58:30Z</time></trkpt><trkpt lat="41.653242301676976" lon="19.912947927176916"><ele>241.0</ele><time>2026-05-05T10:58:31Z</time></trkpt><trkpt lat="41.65342706723258" lon="19.912800287103124"><ele>241.0</ele><time>2026-05-05T10:58:32Z</time></trkpt><trkpt lat="41.6536207284289" lon="19.912648857146998"><ele>241.0</ele><time>2026-05-05T10:58:33Z</time></trkpt><trkpt lat="41.653823368138866" lon="19.91250465471559"><ele>237.5</ele><time>2026-05-05T10:58:34Z</time></trkpt><trkpt lat="41.6540353785932" lon="19.912363883783573"><ele>234.0</ele><time>2026-05-05T10:58:35Z</time></trkpt><trkpt lat="41.65425840335082" lon="19.912222104676907"><ele>226.0</ele><time>2026-05-05T10:58:36Z</time></trkpt><trkpt lat="41.6544782433578" lon="19.912075263221087"><ele>218.0</ele><time>2026-05-05T10:58:37Z</time></trkpt><trkpt lat="41.6547043360864" lon="19.911937697054274"><ele>218.0</ele><time>2026-05-05T10:58:38Z</time></trkpt><trkpt lat="41.65494070234246" lon="19.91179348988718"><ele>218.0</ele><time>2026-05-05T10:58:39Z</time></trkpt><trkpt lat="41.655167993143465" lon="19.911653107693397"><ele>218.5</ele><time>2026-05-05T10:58:40Z</time></trkpt><trkpt lat="41.655394284251294" lon="19.91150843777969"><ele>219.0</ele><time>2026-05-05T10:58:41Z</time></trkpt><trkpt lat="41.65561382362479" lon="19.911349264413072"><ele>219.0</ele><time>2026-05-05T10:58:42Z</time></trkpt><trkpt lat="41.65582214013502" lon="19.911182734529106"><ele>219.0</ele><time>2026-05-05T10:58:43Z</time></trkpt><trkpt lat="41.65601092365712" lon="19.91103259259089"><ele>219.33333333333331</ele><time>2026-05-05T10:58:44Z</time></trkpt><trkpt lat="41.656203972681176" lon="19.91088730535889"><ele>219.66666666666666</ele><time>2026-05-05T10:58:45Z</time></trkpt><trkpt lat="41.65640162332087" lon="19.910755228676262"><ele>220.0</ele><time>2026-05-05T10:58:46Z</time></trkpt><trkpt lat="41.65659460192347" lon="19.91066044662346"><ele>220.0</ele><time>2026-05-05T10:58:47Z</time></trkpt><trkpt lat="41.65677486485598" lon="19.910612894884952"><ele>220.0</ele><time>2026-05-05T10:58:48Z</time></trkpt><trkpt lat="41.65694983273612" lon="19.91061421526758"><ele>220.0</ele><time>2026-05-05T10:58:49Z</time></trkpt><trkpt lat="41.65712496871376" lon="19.91064568350539"><ele>218.33333333333331</ele><time>2026-05-05T10:58:50Z</time></trkpt><trkpt lat="41.65729043574406" lon="19.91065647030605"><ele>216.66666666666669</ele><time>2026-05-05T10:58:51Z</time></trkpt><trkpt lat="41.657448254776746" lon="19.91063533933479"><ele>215.0</ele><time>2026-05-05T10:58:52Z</time></trkpt><trkpt lat="41.6575898532222" lon="19.91065524339293"><ele>215.0</ele><time>2026-05-05T10:58:53Z</time></trkpt><trkpt lat="41.657736058675034" lon="19.910753657591023"><ele>215.0</ele><time>2026-05-05T10:58:54Z</time></trkpt><trkpt lat="41.65785217651046" lon="19.91089156957468"><ele>215.0</ele><time>2026-05-05T10:58:55Z</time></trkpt><trkpt lat="41.65791800891365" lon="19.91104961511974"><ele>214.66666666666669</ele><time>2026-05-05T10:58:56Z</time></trkpt><trkpt lat="41.65795058186501" lon="19.911248615404144"><ele>214.33333333333331</ele><time>2026-05-05T10:58:57Z</time></trkpt><trkpt lat="41.657985293565055" lon="19.911477557195266"><ele>214.0</ele><time>2026-05-05T10:58:58Z</time></trkpt><trkpt lat="41.6580383030938" lon="19.91171944635879"><ele>211.66666666666666</ele><time>2026-05-05T10:58:59Z</time></trkpt><trkpt lat="41.658114587795914" lon="19.9119694655191"><ele>209.33333333333331</ele><time>2026-05-05T10:59:00Z</time></trkpt><trkpt lat="41.65821573176027" lon="19.91221845614217"><ele>207.0</ele><time>2026-05-05T10:59:01Z</time></trkpt><trkpt lat="41.65830562913834" lon="19.912454991584188"><ele>203.66666666666669</ele><time>2026-05-05T10:59:02Z</time></trkpt><trkpt lat="41.658355530578646" lon="19.912689571464938"><ele>200.33333333333334</ele><time>2026-05-05T10:59:03Z</time></trkpt><trkpt lat="41.658386485601696" lon="19.912901554452038"><ele>197.0</ele><time>2026-05-05T10:59:04Z</time></trkpt><trkpt lat="41.65841026999663" lon="19.91304715010177"><ele>197.0</ele><time>2026-05-05T10:59:05Z</time></trkpt><trkpt lat="41.658452306486424" lon="19.91315331480698"><ele>197.0</ele><time>2026-05-05T10:59:06Z</time></trkpt><trkpt lat="41.65853048418049" lon="19.91323493540877"><ele>197.0</ele><time>2026-05-05T10:59:07Z</time></trkpt><trkpt lat="41.65865526206088" lon="19.913301887088803"><ele>197.0</ele><time>2026-05-05T10:59:08Z</time></trkpt><trkpt lat="41.658808626341624" lon="19.91337099331501"><ele>196.33333333333334</ele><time>2026-05-05T10:59:09Z</time></trkpt><trkpt lat="41.658947852192135" lon="19.913486307014878"><ele>195.66666666666669</ele><time>2026-05-05T10:59:10Z</time></trkpt><trkpt lat="41.6590656070074" lon="19.91363404223966"><ele>195.0</ele><time>2026-05-05T10:59:11Z</time></trkpt><trkpt lat="41.65917866770154" lon="19.9137847067528"><ele>195.0</ele><time>2026-05-05T10:59:12Z</time></trkpt><trkpt lat="41.65928436461528" lon="19.913934548358917"><ele>195.0</ele><time>2026-05-05T10:59:13Z</time></trkpt><trkpt lat="41.659364277461336" lon="19.91409279267167"><ele>195.0</ele><time>2026-05-05T10:59:14Z</time></trkpt><trkpt lat="41.65944413173525" lon="19.914251668308694"><ele>195.0</ele><time>2026-05-05T10:59:15Z</time></trkpt><trkpt lat="41.659531438742626" lon="19.914396410738014"><ele>194.75</ele><time>2026-05-05T10:59:16Z</time></trkpt><trkpt lat="41.65962344569939" lon="19.91452165733018"><ele>194.5</ele><time>2026-05-05T10:59:17Z</time></trkpt><trkpt lat="41.659725851100305" lon="19.914623557126927"><ele>194.25</ele><time>2026-05-05T10:59:18Z</time></trkpt><trkpt lat="41.65983973092711" lon="19.91471765298769"><ele>194.0</ele><time>2026-05-05T10:59:19Z</time></trkpt><trkpt lat="41.65997362674428" lon="19.914804089062407"><ele>194.0</ele><time>2026-05-05T10:59:20Z</time></trkpt><trkpt lat="41.660115628928175" lon="19.91486681901506"><ele>194.0</ele><time>2026-05-05T10:59:21Z</time></trkpt><trkpt lat="41.66025625377647" lon="19.914920502204275"><ele>194.0</ele><time>2026-05-05T10:59:22Z</time></trkpt><trkpt lat="41.660382326554775" lon="19.91498256358095"><ele>194.0</ele><time>2026-05-05T10:59:23Z</time></trkpt><trkpt lat="41.660512664806845" lon="19.91505388211767"><ele>191.0</ele><time>2026-05-05T10:59:24Z</time></trkpt><trkpt lat="41.66064750991725" lon="19.915123436647807"><ele>188.0</ele><time>2026-05-05T10:59:25Z</time></trkpt><trkpt lat="41.66077032665562" lon="19.915186191476806"><ele>185.0</ele><time>2026-05-05T10:59:26Z</time></trkpt><trkpt lat="41.66090348154961" lon="19.91523200492217"><ele>182.0</ele><time>2026-05-05T10:59:27Z</time></trkpt><trkpt lat="41.66104097816743" lon="19.915251735334582"><ele>183.0</ele><time>2026-05-05T10:59:28Z</time></trkpt><trkpt lat="41.66117872651565" lon="19.915249162685768"><ele>184.0</ele><time>2026-05-05T10:59:29Z</time></trkpt><trkpt lat="41.66130414173946" lon="19.915238239852368"><ele>185.0</ele><time>2026-05-05T10:59:30Z</time></trkpt><trkpt lat="41.66142399569517" lon="19.9152450383121"><ele>186.0</ele><time>2026-05-05T10:59:31Z</time></trkpt><trkpt lat="41.661522904681085" lon="19.9152810351834"><ele>186.0</ele><time>2026-05-05T10:59:32Z</time></trkpt><trkpt lat="41.661626414139" lon="19.915334660271814"><ele>186.0</ele><time>2026-05-05T10:59:33Z</time></trkpt><trkpt lat="41.66171996750001" lon="19.91538834650879"><ele>186.0</ele><time>2026-05-05T10:59:34Z</time></trkpt><trkpt lat="41.66181444632405" lon="19.915442982426114"><ele>186.0</ele><time>2026-05-05T10:59:35Z</time></trkpt><trkpt lat="41.66190793645217" lon="19.915502138341594"><ele>186.0</ele><time>2026-05-05T10:59:36Z</time></trkpt><trkpt lat="41.66200096778011" lon="19.91555491689152"><ele>185.0</ele><time>2026-05-05T10:59:37Z</time></trkpt><trkpt lat="41.662102441405125" lon="19.91560230958557"><ele>184.0</ele><time>2026-05-05T10:59:38Z</time></trkpt><trkpt lat="41.6622119591878" lon="19.915657387870265"><ele>183.0</ele><time>2026-05-05T10:59:39Z</time></trkpt><trkpt lat="41.66232634677873" lon="19.91572498245045"><ele>182.0</ele><time>2026-05-05T10:59:40Z</time></trkpt><trkpt lat="41.66244432489418" lon="19.915797760641315"><ele>182.0</ele><time>2026-05-05T10:59:41Z</time></trkpt><trkpt lat="41.66256558298395" lon="19.91587416870639"><ele>182.0</ele><time>2026-05-05T10:59:42Z</time></trkpt><trkpt lat="41.66269101525265" lon="19.915939108112298"><ele>182.0</ele><time>2026-05-05T10:59:43Z</time></trkpt><trkpt lat="41.6628294371681" lon="19.915991010632492"><ele>182.0</ele><time>2026-05-05T10:59:44Z</time></trkpt><trkpt lat="41.66296737496353" lon="19.91601423419793"><ele>180.75</ele><time>2026-05-05T10:59:45Z</time></trkpt><trkpt lat="41.66310492558652" lon="19.915994265045875"><ele>179.5</ele><time>2026-05-05T10:59:46Z</time></trkpt><trkpt lat="41.66323801102016" lon="19.91594698781203"><ele>178.25</ele><time>2026-05-05T10:59:47Z</time></trkpt><trkpt lat="41.663349993632075" lon="19.9158883619563"><ele>177.0</ele><time>2026-05-05T10:59:48Z</time></trkpt><trkpt lat="41.663465426513035" lon="19.915819214680642"><ele>177.0</ele><time>2026-05-05T10:59:49Z</time></trkpt><trkpt lat="41.663591983873495" lon="19.915750589324258"><ele>177.0</ele><time>2026-05-05T10:59:50Z</time></trkpt><trkpt lat="41.66372228435987" lon="19.915675586203307"><ele>177.0</ele><time>2026-05-05T10:59:51Z</time></trkpt><trkpt lat="41.663862465923806" lon="19.91560372018846"><ele>177.0</ele><time>2026-05-05T10:59:52Z</time></trkpt><trkpt lat="41.664004661404626" lon="19.915529986151167"><ele>177.75</ele><time>2026-05-05T10:59:53Z</time></trkpt><trkpt lat="41.664142988509695" lon="19.91545215521016"><ele>178.5</ele><time>2026-05-05T10:59:54Z</time></trkpt><trkpt lat="41.66426980900587" lon="19.915357638453955"><ele>179.25</ele><time>2026-05-05T10:59:55Z</time></trkpt><trkpt lat="41.66436863524091" lon="19.915256110029752"><ele>180.0</ele><time>2026-05-05T10:59:56Z</time></trkpt><trkpt lat="41.66443644362932" lon="19.915135240307137"><ele>177.25</ele><time>2026-05-05T10:59:57Z</time></trkpt><trkpt lat="41.66445804681896" lon="19.914982760321024"><ele>174.5</ele><time>2026-05-05T10:59:58Z</time></trkpt><trkpt lat="41.664430701832714" lon="19.914814884373317"><ele>171.75</ele><time>2026-05-05T10:59:59Z</time></trkpt><trkpt lat="41.66436303461429" lon="19.914655008429847"><ele>169.0</ele><time>2026-05-05T11:00:00Z</time></trkpt><trkpt lat="41.664269010449345" lon="19.91452395523968"><ele>169.0</ele><time>2026-05-05T11:00:01Z</time></trkpt><trkpt lat="41.66414799301263" lon="19.914449354312374"><ele>169.0</ele><time>2026-05-05T11:00:02Z</time></trkpt><trkpt lat="41.66400355506263" lon="19.91443670389303"><ele>169.0</ele><time>2026-05-05T11:00:03Z</time></trkpt><trkpt lat="41.663842662175014" lon="19.914462691944433"><ele>169.0</ele><time>2026-05-05T11:00:04Z</time></trkpt><trkpt lat="41.6636681768235" lon="19.91447734722269"><ele>169.25</ele><time>2026-05-05T11:00:05Z</time></trkpt><trkpt lat="41.66351316023398" lon="19.914449396846532"><ele>169.5</ele><time>2026-05-05T11:00:06Z</time></trkpt><trkpt lat="41.663390191632494" lon="19.91438022246048"><ele>169.75</ele><time>2026-05-05T11:00:07Z</time></trkpt><trkpt lat="41.66330163542067" lon="19.91427875926795"><ele>170.0</ele><time>2026-05-05T11:00:08Z</time></trkpt><trkpt lat="41.66323048285556" lon="19.9141586387306"><ele>167.5</ele><time>2026-05-05T11:00:09Z</time></trkpt><trkpt lat="41.66315607648592" lon="19.91403068968531"><ele>165.0</ele><time>2026-05-05T11:00:10Z</time></trkpt><trkpt lat="41.66308021397882" lon="19.91389221088502"><ele>162.5</ele><time>2026-05-05T11:00:11Z</time></trkpt><trkpt lat="41.66300916104304" lon="19.91374288403554"><ele>160.0</ele><time>2026-05-05T11:00:12Z</time></trkpt><trkpt lat="41.66295071434212" lon="19.913567113376107"><ele>160.0</ele><time>2026-05-05T11:00:13Z</time></trkpt><trkpt lat="41.66290456810282" lon="19.913427323876025"><ele>160.0</ele><time>2026-05-05T11:00:14Z</time></trkpt><trkpt lat="41.662857733514215" lon="19.913299570236575"><ele>160.0</ele><time>2026-05-05T11:00:15Z</time></trkpt><trkpt lat="41.66278938429465" lon="19.91320253761642"><ele>160.0</ele><time>2026-05-05T11:00:16Z</time></trkpt><trkpt lat="41.66269232402398" lon="19.913127681200802"><ele>160.0</ele><time>2026-05-05T11:00:17Z</time></trkpt><trkpt lat="41.66257713862924" lon="19.913068362226507"><ele>159.0</ele><time>2026-05-05T11:00:18Z</time></trkpt><trkpt lat="41.66245221908933" lon="19.913041367535715"><ele>158.0</ele><time>2026-05-05T11:00:19Z</time></trkpt><trkpt lat="41.662334243685095" lon="19.913011533866506"><ele>157.0</ele><time>2026-05-05T11:00:20Z</time></trkpt><trkpt lat="41.66224666251013" lon="19.9129206334326"><ele>156.0</ele><time>2026-05-05T11:00:21Z</time></trkpt><trkpt lat="41.66221347274362" lon="19.912796291853542"><ele>156.0</ele><time>2026-05-05T11:00:21.999Z</time></trkpt><trkpt lat="41.66223708114319" lon="19.91264848951053"><ele>156.0</ele><time>2026-05-05T11:00:22.999Z</time></trkpt><trkpt lat="41.66229134424525" lon="19.912486777672715"><ele>156.0</ele><time>2026-05-05T11:00:23.999Z</time></trkpt><trkpt lat="41.66233377711502" lon="19.91230922971617"><ele>156.0</ele><time>2026-05-05T11:00:24.999Z</time></trkpt><trkpt lat="41.66233180950606" lon="19.912119445991664"><ele>153.0</ele><time>2026-05-05T11:00:25.999Z</time></trkpt><trkpt lat="41.66228488449142" lon="19.911928364408464"><ele>150.0</ele><time>2026-05-05T11:00:26.999Z</time></trkpt><trkpt lat="41.66220562072937" lon="19.911758161249846"><ele>147.0</ele><time>2026-05-05T11:00:27.999Z</time></trkpt><trkpt lat="41.66215140210536" lon="19.9116033571891"><ele>144.0</ele><time>2026-05-05T11:00:28.999Z</time></trkpt><trkpt lat="41.66214816910368" lon="19.91143323898758"><ele>143.5</ele><time>2026-05-05T11:00:29.999Z</time></trkpt><trkpt lat="41.66219082222029" lon="19.911261598235637"><ele>143.0</ele><time>2026-05-05T11:00:30.999Z</time></trkpt><trkpt lat="41.66226633952591" lon="19.91111176332687"><ele>142.5</ele><time>2026-05-05T11:00:32Z</time></trkpt><trkpt lat="41.6623684262086" lon="19.91099317442765"><ele>142.0</ele><time>2026-05-05T11:00:33Z</time></trkpt><trkpt lat="41.662461494737755" lon="19.910899740604908"><ele>142.0</ele><time>2026-05-05T11:00:34Z</time></trkpt><trkpt lat="41.662535584419615" lon="19.91082430228715"><ele>142.0</ele><time>2026-05-05T11:00:35Z</time></trkpt><trkpt lat="41.66261030373627" lon="19.910761513723806"><ele>142.0</ele><time>2026-05-05T11:00:36Z</time></trkpt><trkpt lat="41.662704438536075" lon="19.91071006779153"><ele>142.0</ele><time>2026-05-05T11:00:37Z</time></trkpt><trkpt lat="41.66280736471444" lon="19.910700367485582"><ele>142.0</ele><time>2026-05-05T11:00:38Z</time></trkpt><trkpt lat="41.662914194125754" lon="19.910701392883055"><ele>141.79999999999998</ele><time>2026-05-05T11:00:39Z</time></trkpt><trkpt lat="41.66302319578927" lon="19.91069311919806"><ele>141.6</ele><time>2026-05-05T11:00:40Z</time></trkpt><trkpt lat="41.663128491490376" lon="19.910677035534427"><ele>141.39999999999998</ele><time>2026-05-05T11:00:41Z</time></trkpt><trkpt lat="41.66323094783399" lon="19.910648303358688"><ele>141.2</ele><time>2026-05-05T11:00:42Z</time></trkpt><trkpt lat="41.66333820721308" lon="19.910599462799897"><ele>141.0</ele><time>2026-05-05T11:00:43Z</time></trkpt><trkpt lat="41.66345031148359" lon="19.910536303158377"><ele>141.0</ele><time>2026-05-05T11:00:44Z</time></trkpt><trkpt lat="41.66355665258961" lon="19.910450974159378"><ele>141.0</ele><time>2026-05-05T11:00:45Z</time></trkpt><trkpt lat="41.66365121814109" lon="19.910333115538485"><ele>141.0</ele><time>2026-05-05T11:00:46Z</time></trkpt><trkpt lat="41.66373377932045" lon="19.910206159907496"><ele>141.0</ele><time>2026-05-05T11:00:47Z</time></trkpt><trkpt lat="41.66382302759795" lon="19.910072238749777"><ele>142.0</ele><time>2026-05-05T11:00:48Z</time></trkpt><trkpt lat="41.66391332508396" lon="19.90995466193161"><ele>143.0</ele><time>2026-05-05T11:00:49Z</time></trkpt><trkpt lat="41.663995020812564" lon="19.909844927372248"><ele>144.0</ele><time>2026-05-05T11:00:50Z</time></trkpt><trkpt lat="41.6640631692414" lon="19.90970584541888"><ele>145.0</ele><time>2026-05-05T11:00:51Z</time></trkpt><trkpt lat="41.664099172051266" lon="19.909544706759153"><ele>145.0</ele><time>2026-05-05T11:00:52Z</time></trkpt><trkpt lat="41.66411999389648" lon="19.909392774696812"><ele>145.0</ele><time>2026-05-05T11:00:53Z</time></trkpt><trkpt lat="41.664161658755326" lon="19.909284825643045"><ele>145.0</ele><time>2026-05-05T11:00:54Z</time></trkpt><trkpt lat="41.66423280194973" lon="19.909206867593223"><ele>145.0</ele><time>2026-05-05T11:00:55Z</time></trkpt><trkpt lat="41.664334513825004" lon="19.90918367844557"><ele>145.0</ele><time>2026-05-05T11:00:56Z</time></trkpt><trkpt lat="41.66444046540166" lon="19.909224958814278"><ele>145.0</ele><time>2026-05-05T11:00:57Z</time></trkpt><trkpt lat="41.66454613600561" lon="19.909296532256363"><ele>145.0</ele><time>2026-05-05T11:00:58Z</time></trkpt><trkpt lat="41.66465863091623" lon="19.909355996343983"><ele>145.0</ele><time>2026-05-05T11:00:59Z</time></trkpt><trkpt lat="41.66478937905649" lon="19.909375152307888"><ele>145.0</ele><time>2026-05-05T11:01:00Z</time></trkpt><trkpt lat="41.664933906970845" lon="19.90936550033259"><ele>145.0</ele><time>2026-05-05T11:01:01Z</time></trkpt><trkpt lat="41.66508764552011" lon="19.909314763660472"><ele>145.0</ele><time>2026-05-05T11:01:02Z</time></trkpt><trkpt lat="41.665255383633685" lon="19.90925679923092"><ele>145.0</ele><time>2026-05-05T11:01:03Z</time></trkpt><trkpt lat="41.66542781341159" lon="19.909202089297867"><ele>149.66666666666669</ele><time>2026-05-05T11:01:04Z</time></trkpt><trkpt lat="41.66560864386211" lon="19.909145316594817"><ele>154.33333333333334</ele><time>2026-05-05T11:01:05Z</time></trkpt><trkpt lat="41.66578988692205" lon="19.909081998144913"><ele>159.0</ele><time>2026-05-05T11:01:06Z</time></trkpt><trkpt lat="41.665979774836025" lon="19.90902593712985"><ele>158.0</ele><time>2026-05-05T11:01:07Z</time></trkpt><trkpt lat="41.66617595708311" lon="19.908956345390166"><ele>157.0</ele><time>2026-05-05T11:01:08Z</time></trkpt><trkpt lat="41.666369311003166" lon="19.90885298403171"><ele>156.0</ele><time>2026-05-05T11:01:09Z</time></trkpt><trkpt lat="41.666558741594706" lon="19.908729609327345"><ele>156.0</ele><time>2026-05-05T11:01:09.999Z</time></trkpt><trkpt lat="41.66675150455224" lon="19.90860980312455"><ele>156.0</ele><time>2026-05-05T11:01:10.999Z</time></trkpt><trkpt lat="41.666934055719416" lon="19.90853158421813"><ele>156.0</ele><time>2026-05-05T11:01:11.999Z</time></trkpt><trkpt lat="41.66711900594441" lon="19.908497419542925"><ele>155.66666666666666</ele><time>2026-05-05T11:01:12.999Z</time></trkpt><trkpt lat="41.667306639342655" lon="19.908519243592792"><ele>155.33333333333331</ele><time>2026-05-05T11:01:13.999Z</time></trkpt><trkpt lat="41.66749086830046" lon="19.90856482311461"><ele>155.0</ele><time>2026-05-05T11:01:14.999Z</time></trkpt><trkpt lat="41.667675307291276" lon="19.908617529157745"><ele>153.33333333333331</ele><time>2026-05-05T11:01:15.999Z</time></trkpt><trkpt lat="41.66783616211677" lon="19.90866732014327"><ele>151.66666666666666</ele><time>2026-05-05T11:01:16.999Z</time></trkpt><trkpt lat="41.66798928055029" lon="19.908705159668155"><ele>150.0</ele><time>2026-05-05T11:01:17.999Z</time></trkpt><trkpt lat="41.668130346257016" lon="19.908691997340465"><ele>150.0</ele><time>2026-05-05T11:01:18.999Z</time></trkpt><trkpt lat="41.668285335412314" lon="19.90864527159104"><ele>150.0</ele><time>2026-05-05T11:01:19.999Z</time></trkpt><trkpt lat="41.668446645459994" lon="19.908572227253135"><ele>150.0</ele><time>2026-05-05T11:01:20.999Z</time></trkpt><trkpt lat="41.6686075452039" lon="19.908478703403127"><ele>151.33333333333334</ele><time>2026-05-05T11:01:21.999Z</time></trkpt><trkpt lat="41.66874549357905" lon="19.90836222405677"><ele>152.66666666666669</ele><time>2026-05-05T11:01:22.999Z</time></trkpt><trkpt lat="41.668857625420486" lon="19.9082236867877"><ele>154.0</ele><time>2026-05-05T11:01:23.999Z</time></trkpt><trkpt lat="41.66894635800022" lon="19.90808140676439"><ele>154.0</ele><time>2026-05-05T11:01:24.999Z</time></trkpt><trkpt lat="41.66899418618837" lon="19.90793647185374"><ele>154.0</ele><time>2026-05-05T11:01:25.999Z</time></trkpt><trkpt lat="41.66900644657392" lon="19.907792512271108"><ele>154.0</ele><time>2026-05-05T11:01:26.999Z</time></trkpt><trkpt lat="41.66897531226034" lon="19.907642073921018"><ele>154.0</ele><time>2026-05-05T11:01:27.999Z</time></trkpt><trkpt lat="41.668929074950555" lon="19.907479910167975"><ele>156.0</ele><time>2026-05-05T11:01:28.999Z</time></trkpt><trkpt lat="41.66887755839927" lon="19.90731394377596"><ele>158.0</ele><time>2026-05-05T11:01:29.999Z</time></trkpt><trkpt lat="41.66882957553769" lon="19.90714410870276"><ele>160.0</ele><time>2026-05-05T11:01:30.999Z</time></trkpt><trkpt lat="41.668816313892656" lon="19.906963122615146"><ele>162.0</ele><time>2026-05-05T11:01:31.999Z</time></trkpt><trkpt lat="41.66883843001963" lon="19.906783124801198"><ele>161.5</ele><time>2026-05-05T11:01:32.999Z</time></trkpt><trkpt lat="41.66888420160013" lon="19.906613293832127"><ele>161.0</ele><time>2026-05-05T11:01:33.999Z</time></trkpt><trkpt lat="41.6689181473955" lon="19.906447388289557"><ele>160.5</ele><time>2026-05-05T11:01:34.999Z</time></trkpt><trkpt lat="41.66891913716452" lon="19.90626935654559"><ele>160.0</ele><time>2026-05-05T11:01:35.999Z</time></trkpt><trkpt lat="41.668892848753664" lon="19.90607752724323"><ele>160.66666666666669</ele><time>2026-05-05T11:01:36.999Z</time></trkpt><trkpt lat="41.66888122543604" lon="19.905880616324392"><ele>161.33333333333334</ele><time>2026-05-05T11:01:37.999Z</time></trkpt><trkpt lat="41.668906402719614" lon="19.90568231497354"><ele>162.0</ele><time>2026-05-05T11:01:38.999Z</time></trkpt><trkpt lat="41.66897054436334" lon="19.905492422439686"><ele>162.0</ele><time>2026-05-05T11:01:39.999Z</time></trkpt><trkpt lat="41.669076742715625" lon="19.905323761609527"><ele>162.0</ele><time>2026-05-05T11:01:40.999Z</time></trkpt><trkpt lat="41.66919737968397" lon="19.90517420120679"><ele>162.0</ele><time>2026-05-05T11:01:41.999Z</time></trkpt><trkpt lat="41.66932999635561" lon="19.90503979797131"><ele>158.33333333333334</ele><time>2026-05-05T11:01:42.999Z</time></trkpt><trkpt lat="41.66945711788015" lon="19.9049090497956"><ele>154.66666666666669</ele><time>2026-05-05T11:01:43.999Z</time></trkpt><trkpt lat="41.66956451277137" lon="19.904769150886285"><ele>151.0</ele><time>2026-05-05T11:01:44.999Z</time></trkpt><trkpt lat="41.66965038333256" lon="19.90461153481883"><ele>151.0</ele><time>2026-05-05T11:01:45.999Z</time></trkpt><trkpt lat="41.669722179110614" lon="19.90443508912509"><ele>151.0</ele><time>2026-05-05T11:01:46.999Z</time></trkpt><trkpt lat="41.669789951039384" lon="19.904228912998274"><ele>151.0</ele><time>2026-05-05T11:01:47.999Z</time></trkpt><trkpt lat="41.669853219749115" lon="19.904037598540324"><ele>152.8</ele><time>2026-05-05T11:01:48.999Z</time></trkpt><trkpt lat="41.669919605701544" lon="19.903853635768545"><ele>154.6</ele><time>2026-05-05T11:01:49.999Z</time></trkpt><trkpt lat="41.66999036872573" lon="19.903729569114414"><ele>156.4</ele><time>2026-05-05T11:01:50.999Z</time></trkpt><trkpt lat="41.6700690036907" lon="19.903671485082814"><ele>158.2</ele><time>2026-05-05T11:01:51.999Z</time></trkpt><trkpt lat="41.67015575837068" lon="19.903672412978718"><ele>160.0</ele><time>2026-05-05T11:01:52.999Z</time></trkpt><trkpt lat="41.670241732485266" lon="19.903736591512644"><ele>158.25</ele><time>2026-05-05T11:01:53.999Z</time></trkpt><trkpt lat="41.67035678805342" lon="19.90379636858154"><ele>156.5</ele><time>2026-05-05T11:01:54.999Z</time></trkpt><trkpt lat="41.670486123599765" lon="19.903809006854555"><ele>154.75</ele><time>2026-05-05T11:01:55.999Z</time></trkpt><trkpt lat="41.67062093597787" lon="19.90375841038686"><ele>153.0</ele><time>2026-05-05T11:01:56.999Z</time></trkpt><trkpt lat="41.670762630499894" lon="19.903658180433276"><ele>153.0</ele><time>2026-05-05T11:01:57.999Z</time></trkpt><trkpt lat="41.67090279020232" lon="19.903538263211203"><ele>153.0</ele><time>2026-05-05T11:01:58.999Z</time></trkpt><trkpt lat="41.67104903946926" lon="19.90342576039829"><ele>153.0</ele><time>2026-05-05T11:01:59.999Z</time></trkpt><trkpt lat="41.67119793745705" lon="19.903322700500972"><ele>153.0</ele><time>2026-05-05T11:02:00.999Z</time></trkpt><trkpt lat="41.67133023766294" lon="19.903224287989556"><ele>153.0</ele><time>2026-05-05T11:02:01.999Z</time></trkpt><trkpt lat="41.671456025752455" lon="19.903108364776074"><ele>153.0</ele><time>2026-05-05T11:02:02.999Z</time></trkpt><trkpt lat="41.671560211307316" lon="19.90299691208732"><ele>153.0</ele><time>2026-05-05T11:02:03.999Z</time></trkpt><trkpt lat="41.67163487314143" lon="19.90287708522171"><ele>153.0</ele><time>2026-05-05T11:02:04.999Z</time></trkpt><trkpt lat="41.67166047186958" lon="19.9027494785143"><ele>153.0</ele><time>2026-05-05T11:02:05.999Z</time></trkpt><trkpt lat="41.6716456998459" lon="19.902611432013444"><ele>153.0</ele><time>2026-05-05T11:02:06.999Z</time></trkpt><trkpt lat="41.671633595632755" lon="19.902491312064225"><ele>153.0</ele><time>2026-05-05T11:02:07.999Z</time></trkpt><trkpt lat="41.671660755868295" lon="19.90237653378523"><ele>153.0</ele><time>2026-05-05T11:02:08.999Z</time></trkpt><trkpt lat="41.671725712430565" lon="19.902305416523713"><ele>153.20000000000002</ele><time>2026-05-05T11:02:09.999Z</time></trkpt><trkpt lat="41.67181679749867" lon="19.902296369789436"><ele>153.4</ele><time>2026-05-05T11:02:10.999Z</time></trkpt><trkpt lat="41.67191541269199" lon="19.902326885635606"><ele>153.60000000000002</ele><time>2026-05-05T11:02:11.999Z</time></trkpt><trkpt lat="41.6720013505253" lon="19.90240200343132"><ele>153.8</ele><time>2026-05-05T11:02:12.999Z</time></trkpt><trkpt lat="41.67208712703845" lon="19.902461841862113"><ele>154.0</ele><time>2026-05-05T11:02:13.999Z</time></trkpt><trkpt lat="41.672180846034614" lon="19.90245894590684"><ele>154.0</ele><time>2026-05-05T11:02:14.999Z</time></trkpt><trkpt lat="41.67227610018355" lon="19.902371537971877"><ele>154.0</ele><time>2026-05-05T11:02:15.999Z</time></trkpt><trkpt lat="41.67235659677185" lon="19.90224986494718"><ele>154.0</ele><time>2026-05-05T11:02:16.999Z</time></trkpt><trkpt lat="41.672415603619214" lon="19.902100828574845"><ele>154.0</ele><time>2026-05-05T11:02:17.999Z</time></trkpt><trkpt lat="41.67245220534422" lon="19.901941816567884"><ele>154.0</ele><time>2026-05-05T11:02:18.999Z</time></trkpt><trkpt lat="41.67248045878189" lon="19.901778853997982"><ele>154.0</ele><time>2026-05-05T11:02:19.999Z</time></trkpt><trkpt lat="41.67252105226399" lon="19.901620936186358"><ele>154.0</ele><time>2026-05-05T11:02:20.999Z</time></trkpt><trkpt lat="41.67256945607237" lon="19.901472401280188"><ele>154.0</ele><time>2026-05-05T11:02:21.999Z</time></trkpt><trkpt lat="41.67261785280355" lon="19.901332937688203"><ele>155.6</ele><time>2026-05-05T11:02:22.999Z</time></trkpt><trkpt lat="41.67265656183949" lon="19.901192423076242"><ele>157.2</ele><time>2026-05-05T11:02:23.999Z</time></trkpt><trkpt lat="41.67269034523043" lon="19.901051699180346"><ele>158.79999999999998</ele><time>2026-05-05T11:02:24.999Z</time></trkpt><trkpt lat="41.67274586914295" lon="19.90092341686732"><ele>160.4</ele><time>2026-05-05T11:02:25.999Z</time></trkpt><trkpt lat="41.672836786219975" lon="19.90083173859776"><ele>162.0</ele><time>2026-05-05T11:02:26.999Z</time></trkpt><trkpt lat="41.67295777420641" lon="19.900770440730096"><ele>162.0</ele><time>2026-05-05T11:02:27.999Z</time></trkpt><trkpt lat="41.673089652477536" lon="19.90071738422723"><ele>162.0</ele><time>2026-05-05T11:02:28.999Z</time></trkpt><trkpt lat="41.67321559623926" lon="19.900639919367226"><ele>162.0</ele><time>2026-05-05T11:02:29.999Z</time></trkpt><trkpt lat="41.673342521603566" lon="19.90053001573675"><ele>162.0</ele><time>2026-05-05T11:02:30.999Z</time></trkpt><trkpt lat="41.6734678630241" lon="19.900398192835784"><ele>162.0</ele><time>2026-05-05T11:02:31.999Z</time></trkpt><trkpt lat="41.67360216224125" lon="19.900270768849055"><ele>162.0</ele><time>2026-05-05T11:02:32.999Z</time></trkpt><trkpt lat="41.67374729637172" lon="19.900147270194473"><ele>162.0</ele><time>2026-05-05T11:02:33.999Z</time></trkpt><trkpt lat="41.67389683981986" lon="19.90001107612778"><ele>165.33333333333334</ele><time>2026-05-05T11:02:34.999Z</time></trkpt><trkpt lat="41.67404772243284" lon="19.89986119825336"><ele>168.66666666666669</ele><time>2026-05-05T11:02:35.999Z</time></trkpt><trkpt lat="41.67418459229608" lon="19.899703832096144"><ele>172.0</ele><time>2026-05-05T11:02:37Z</time></trkpt><trkpt lat="41.674306206631734" lon="19.899518081895778"><ele>172.0</ele><time>2026-05-05T11:02:38Z</time></trkpt><trkpt lat="41.674416496491595" lon="19.89935098088891"><ele>172.0</ele><time>2026-05-05T11:02:39Z</time></trkpt><trkpt lat="41.674548549106376" lon="19.899226794362704"><ele>172.0</ele><time>2026-05-05T11:02:40Z</time></trkpt><trkpt lat="41.674699882756464" lon="19.899148680819927"><ele>173.75</ele><time>2026-05-05T11:02:41Z</time></trkpt><trkpt lat="41.67484203315135" lon="19.899094248660752"><ele>175.5</ele><time>2026-05-05T11:02:42Z</time></trkpt><trkpt lat="41.674962244661906" lon="19.89900137105443"><ele>177.25</ele><time>2026-05-05T11:02:43Z</time></trkpt><trkpt lat="41.67504376162674" lon="19.89886625562514"><ele>179.0</ele><time>2026-05-05T11:02:44Z</time></trkpt><trkpt lat="41.67507752546917" lon="19.89869253373728"><ele>179.0</ele><time>2026-05-05T11:02:45Z</time></trkpt><trkpt lat="41.67506327321166" lon="19.898555859421077"><ele>179.0</ele><time>2026-05-05T11:02:46Z</time></trkpt><trkpt lat="41.67503637017687" lon="19.898473435883908"><ele>179.0</ele><time>2026-05-05T11:03:09Z</time></trkpt><trkpt lat="41.674930417251055" lon="19.898382566476204"><ele>179.0</ele><time>2026-05-05T11:03:12Z</time></trkpt><trkpt lat="41.67484989481632" lon="19.89835427747012"><ele>179.0</ele><time>2026-05-05T11:03:13Z</time></trkpt><trkpt lat="41.6747681210364" lon="19.8983727786054"><ele>179.0</ele><time>2026-05-05T11:03:14Z</time></trkpt><trkpt lat="41.67467291113294" lon="19.898430356511525"><ele>179.0</ele><time>2026-05-05T11:03:15Z</time></trkpt><trkpt lat="41.67458368147332" lon="19.898510724964964"><ele>179.0</ele><time>2026-05-05T11:03:16Z</time></trkpt><trkpt lat="41.674496706574416" lon="19.898605266282427"><ele>179.0</ele><time>2026-05-05T11:03:17Z</time></trkpt><trkpt lat="41.674401919980795" lon="19.89870055820672"><ele>179.0</ele><time>2026-05-05T11:03:18Z</time></trkpt><trkpt lat="41.67429720519858" lon="19.898795205746037"><ele>181.75</ele><time>2026-05-05T11:03:19Z</time></trkpt><trkpt lat="41.674189538828244" lon="19.898892596206924"><ele>184.5</ele><time>2026-05-05T11:03:20Z</time></trkpt><trkpt lat="41.674080463475924" lon="19.89900596776634"><ele>187.25</ele><time>2026-05-05T11:03:21Z</time></trkpt><trkpt lat="41.67397503831454" lon="19.899115215308868"><ele>190.0</ele><time>2026-05-05T11:03:22Z</time></trkpt><trkpt lat="41.67386207177061" lon="19.899186458998745"><ele>190.0</ele><time>2026-05-05T11:03:23Z</time></trkpt><trkpt lat="41.67375163012506" lon="19.89918802360811"><ele>190.0</ele><time>2026-05-05T11:03:24Z</time></trkpt><trkpt lat="41.6736769348856" lon="19.89911916364136"><ele>190.0</ele><time>2026-05-05T11:03:25Z</time></trkpt><trkpt lat="41.673653535848835" lon="19.89900400120961"><ele>190.0</ele><time>2026-05-05T11:03:26Z</time></trkpt><trkpt lat="41.673654694227515" lon="19.898858092142248"><ele>190.0</ele><time>2026-05-05T11:03:27Z</time></trkpt><trkpt lat="41.67366700983203" lon="19.89869701947449"><ele>190.0</ele><time>2026-05-05T11:03:28Z</time></trkpt><trkpt lat="41.67372344208381" lon="19.89853486062729"><ele>190.0</ele><time>2026-05-05T11:03:29Z</time></trkpt><trkpt lat="41.67380271023817" lon="19.89838059149326"><ele>190.0</ele><time>2026-05-05T11:03:30Z</time></trkpt><trkpt lat="41.673889568765425" lon="19.898243288521982"><ele>190.0</ele><time>2026-05-05T11:03:31Z</time></trkpt><trkpt lat="41.67396561060538" lon="19.898126486528742"><ele>192.6</ele><time>2026-05-05T11:03:32Z</time></trkpt><trkpt lat="41.67403422964344" lon="19.898018748223716"><ele>195.2</ele><time>2026-05-05T11:03:33Z</time></trkpt><trkpt lat="41.67410405294468" lon="19.89791220575616"><ele>197.8</ele><time>2026-05-05T11:03:34Z</time></trkpt><trkpt lat="41.674175063401606" lon="19.897803252570647"><ele>200.4</ele><time>2026-05-05T11:03:35Z</time></trkpt><trkpt lat="41.67424843959716" lon="19.897687533747145"><ele>203.0</ele><time>2026-05-05T11:03:36Z</time></trkpt><trkpt lat="41.674325511537944" lon="19.89757449537807"><ele>203.25</ele><time>2026-05-05T11:03:37Z</time></trkpt><trkpt lat="41.67441783481551" lon="19.897478846569538"><ele>203.5</ele><time>2026-05-05T11:03:38Z</time></trkpt><trkpt lat="41.674529638391554" lon="19.897434206228404"><ele>203.75</ele><time>2026-05-05T11:03:39Z</time></trkpt><trkpt lat="41.67464414792192" lon="19.897425097434667"><ele>204.0</ele><time>2026-05-05T11:03:40Z</time></trkpt><trkpt lat="41.67474764976819" lon="19.89740500910746"><ele>204.0</ele><time>2026-05-05T11:03:41Z</time></trkpt><trkpt lat="41.67483961267595" lon="19.89733407459062"><ele>204.0</ele><time>2026-05-05T11:03:42Z</time></trkpt><trkpt lat="41.67490106797684" lon="19.897225192039954"><ele>204.0</ele><time>2026-05-05T11:03:43Z</time></trkpt><trkpt lat="41.674946857090674" lon="19.89711916933412"><ele>204.0</ele><time>2026-05-05T11:03:44Z</time></trkpt><trkpt lat="41.67500839851684" lon="19.897058485480045"><ele>204.0</ele><time>2026-05-05T11:03:45Z</time></trkpt><trkpt lat="41.675101174271724" lon="19.897008632462263"><ele>204.0</ele><time>2026-05-05T11:03:46Z</time></trkpt><trkpt lat="41.675205469904775" lon="19.896973944122898"><ele>204.0</ele><time>2026-05-05T11:03:47Z</time></trkpt><trkpt lat="41.67531374309319" lon="19.896936620380526"><ele>204.0</ele><time>2026-05-05T11:03:48Z</time></trkpt><trkpt lat="41.67542641058252" lon="19.896886430307514"><ele>204.0</ele><time>2026-05-05T11:03:49Z</time></trkpt><trkpt lat="41.67552718366631" lon="19.8968166830318"><ele>206.5</ele><time>2026-05-05T11:03:50Z</time></trkpt><trkpt lat="41.67563452565131" lon="19.896740588638632"><ele>209.0</ele><time>2026-05-05T11:03:50.999Z</time></trkpt><trkpt lat="41.67574494511162" lon="19.896664814634704"><ele>211.5</ele><time>2026-05-05T11:03:51.999Z</time></trkpt><trkpt lat="41.675846095358914" lon="19.896590659555834"><ele>214.0</ele><time>2026-05-05T11:03:52.999Z</time></trkpt><trkpt lat="41.67594148190317" lon="19.896496789112476"><ele>214.0</ele><time>2026-05-05T11:03:53.999Z</time></trkpt><trkpt lat="41.67603735910302" lon="19.896398584824485"><ele>214.0</ele><time>2026-05-05T11:03:54.999Z</time></trkpt><trkpt lat="41.67614096878434" lon="19.896303940774466"><ele>214.0</ele><time>2026-05-05T11:03:55.999Z</time></trkpt><trkpt lat="41.67622928603732" lon="19.896201339150718"><ele>214.0</ele><time>2026-05-05T11:03:56.999Z</time></trkpt><trkpt lat="41.676313846206845" lon="19.896101623051315"><ele>214.6</ele><time>2026-05-05T11:03:57.999Z</time></trkpt><trkpt lat="41.67640076039811" lon="19.896032375881262"><ele>215.2</ele><time>2026-05-05T11:03:58.999Z</time></trkpt><trkpt lat="41.676486892861014" lon="19.89598701490729"><ele>215.79999999999998</ele><time>2026-05-05T11:03:59.999Z</time></trkpt><trkpt lat="41.67656215978766" lon="19.89594514902418"><ele>216.39999999999998</ele><time>2026-05-05T11:04:00.999Z</time></trkpt><trkpt lat="41.67667239672403" lon="19.895876069356643"><ele>217.0</ele><time>2026-05-05T11:04:02.999Z</time></trkpt><trkpt lat="41.676742883864904" lon="19.895806343834085"><ele>216.99999999999997</ele><time>2026-05-05T11:04:03.999Z</time></trkpt><trkpt lat="41.67680450779755" lon="19.895732544310384"><ele>217.0</ele><time>2026-05-05T11:04:04.999Z</time></trkpt><trkpt lat="41.67686747545005" lon="19.895648415832103"><ele>217.0</ele><time>2026-05-05T11:04:05.999Z</time></trkpt><trkpt lat="41.67692295899214" lon="19.895584409908416"><ele>217.0</ele><time>2026-05-05T11:04:06.999Z</time></trkpt><trkpt lat="41.67698530959001" lon="19.895511973791056"><ele>216.99999999999997</ele><time>2026-05-05T11:04:08.999Z</time></trkpt><trkpt lat="41.677045192465" lon="19.895439896341397"><ele>217.0</ele><time>2026-05-05T11:04:15.999Z</time></trkpt><trkpt lat="41.67711879195657" lon="19.89542477552215"><ele>215.16666666666666</ele><time>2026-05-05T11:04:17.999Z</time></trkpt><trkpt lat="41.67721036725348" lon="19.895423658130206"><ele>213.33333333333331</ele><time>2026-05-05T11:04:19.999Z</time></trkpt><trkpt lat="41.67729458101901" lon="19.895464160611635"><ele>211.5</ele><time>2026-05-05T11:04:22.999Z</time></trkpt><trkpt lat="41.67735764561806" lon="19.8954574123428"><ele>209.66666666666669</ele><time>2026-05-05T11:04:32.999Z</time></trkpt><trkpt lat="41.67742214415002" lon="19.89543018947229"><ele>207.83333333333334</ele><time>2026-05-05T11:04:35.999Z</time></trkpt><trkpt lat="41.67749368316756" lon="19.89539418846621"><ele>206.0</ele><time>2026-05-05T11:04:37.999Z</time></trkpt><trkpt lat="41.67755768425264" lon="19.895381930811784"><ele>206.00000000000003</ele><time>2026-05-05T11:04:39.999Z</time></trkpt><trkpt lat="41.677639659070046" lon="19.895375667295447"><ele>206.0</ele><time>2026-05-05T11:04:43Z</time></trkpt><trkpt lat="41.67768947280029" lon="19.89544198783074"><ele>206.0</ele><time>2026-05-05T11:05:18Z</time></trkpt><trkpt lat="41.67761739876164" lon="19.895402483200705"><ele>206.0</ele><time>2026-05-05T11:05:41Z</time></trkpt><trkpt lat="41.6775254408735" lon="19.895382891514338"><ele>206.00000000000003</ele><time>2026-05-05T11:05:43Z</time></trkpt><trkpt lat="41.67746194454543" lon="19.8954249526016"><ele>206.0</ele><time>2026-05-05T11:05:45Z</time></trkpt><trkpt lat="41.67738884777803" lon="19.89546433305003"><ele>206.0</ele><time>2026-05-05T11:05:47Z</time></trkpt><trkpt lat="41.677309700864456" lon="19.89547519892838"><ele>206.0</ele><time>2026-05-05T11:05:50Z</time></trkpt><trkpt lat="41.67721078987198" lon="19.895434032533764"><ele>206.0</ele><time>2026-05-05T11:05:52Z</time></trkpt><trkpt lat="41.677089946344736" lon="19.895426397868306"><ele>206.0</ele><time>2026-05-05T11:05:54Z</time></trkpt><trkpt lat="41.67702963620498" lon="19.895469814752413"><ele>206.0</ele><time>2026-05-05T11:05:55Z</time></trkpt><trkpt lat="41.676925229493364" lon="19.895591611167728"><ele>204.66666666666669</ele><time>2026-05-05T11:05:57Z</time></trkpt><trkpt lat="41.67686903670393" lon="19.895666464769374"><ele>203.33333333333334</ele><time>2026-05-05T11:05:58Z</time></trkpt><trkpt lat="41.676807917734976" lon="19.89573828233295"><ele>202.0</ele><time>2026-05-05T11:05:59Z</time></trkpt><trkpt lat="41.67674919038248" lon="19.895804790277413"><ele>200.66666666666669</ele><time>2026-05-05T11:06:00Z</time></trkpt><trkpt lat="41.67667741018322" lon="19.895882914372514"><ele>199.33333333333334</ele><time>2026-05-05T11:06:01Z</time></trkpt><trkpt lat="41.67660794251764" lon="19.8959422157396"><ele>198.0</ele><time>2026-05-05T11:06:02Z</time></trkpt><trkpt lat="41.67652909334428" lon="19.895986607422007"><ele>198.0</ele><time>2026-05-05T11:06:03Z</time></trkpt><trkpt lat="41.676444710080645" lon="19.896032541180634"><ele>198.0</ele><time>2026-05-05T11:06:04Z</time></trkpt><trkpt lat="41.67635357002276" lon="19.896085299902854"><ele>198.0</ele><time>2026-05-05T11:06:05Z</time></trkpt><trkpt lat="41.6762787985836" lon="19.896140111994246"><ele>198.0</ele><time>2026-05-05T11:06:06Z</time></trkpt><trkpt lat="41.67620886179176" lon="19.89621366854134"><ele>198.0</ele><time>2026-05-05T11:06:07Z</time></trkpt><trkpt lat="41.67614422578327" lon="19.896291716658943"><ele>201.2</ele><time>2026-05-05T11:06:08Z</time></trkpt><trkpt lat="41.67607450350798" lon="19.896370987166584"><ele>204.4</ele><time>2026-05-05T11:06:09Z</time></trkpt><trkpt lat="41.67599255571034" lon="19.896464652089968"><ele>207.59999999999997</ele><time>2026-05-05T11:06:10Z</time></trkpt><trkpt lat="41.675907319643414" lon="19.89654692975652"><ele>210.79999999999998</ele><time>2026-05-05T11:06:11Z</time></trkpt><trkpt lat="41.67582710665118" lon="19.8966164976938"><ele>214.0</ele><time>2026-05-05T11:06:12Z</time></trkpt><trkpt lat="41.67573504331329" lon="19.896689589359344"><ele>214.0</ele><time>2026-05-05T11:06:13Z</time></trkpt><trkpt lat="41.675644815883985" lon="19.896748078125544"><ele>214.0</ele><time>2026-05-05T11:06:14Z</time></trkpt><trkpt lat="41.67554023599341" lon="19.896807371877173"><ele>214.0</ele><time>2026-05-05T11:06:15Z</time></trkpt><trkpt lat="41.675431663647586" lon="19.896876401099817"><ele>214.0</ele><time>2026-05-05T11:06:16Z</time></trkpt><trkpt lat="41.675325825612504" lon="19.89694238345544"><ele>212.0</ele><time>2026-05-05T11:06:17Z</time></trkpt><trkpt lat="41.67521779738374" lon="19.896997718212013"><ele>209.99999999999997</ele><time>2026-05-05T11:06:18Z</time></trkpt><trkpt lat="41.67512002872798" lon="19.897035623041496"><ele>208.0</ele><time>2026-05-05T11:06:19Z</time></trkpt><trkpt lat="41.67505469959871" lon="19.89705909532368"><ele>206.0</ele><time>2026-05-05T11:06:20Z</time></trkpt><trkpt lat="41.67495054832294" lon="19.897045536930015"><ele>204.0</ele><time>2026-05-05T11:06:22Z</time></trkpt><trkpt lat="41.674885861950074" lon="19.896944002879312"><ele>204.0</ele><time>2026-05-05T11:06:24Z</time></trkpt><trkpt lat="41.67484404037817" lon="19.896859138119304"><ele>204.0</ele><time>2026-05-05T11:06:25Z</time></trkpt><trkpt lat="41.67478799779283" lon="19.896758360809713"><ele>204.0</ele><time>2026-05-05T11:06:26Z</time></trkpt><trkpt lat="41.674718327503925" lon="19.89667011307123"><ele>204.0</ele><time>2026-05-05T11:06:27Z</time></trkpt><trkpt lat="41.67463613730763" lon="19.896594860817185"><ele>204.0</ele><time>2026-05-05T11:06:28Z</time></trkpt><trkpt lat="41.67455216413818" lon="19.896524983871288"><ele>205.79999999999998</ele><time>2026-05-05T11:06:28.999Z</time></trkpt><trkpt lat="41.674478954125874" lon="19.89646186128805"><ele>207.6</ele><time>2026-05-05T11:06:29.999Z</time></trkpt><trkpt lat="41.67441339831553" lon="19.896405275598287"><ele>209.4</ele><time>2026-05-05T11:06:30.999Z</time></trkpt><trkpt lat="41.674334623569045" lon="19.89633735665403"><ele>211.2</ele><time>2026-05-05T11:06:31.999Z</time></trkpt><trkpt lat="41.6742538370855" lon="19.89626210448139"><ele>213.0</ele><time>2026-05-05T11:06:32.999Z</time></trkpt><trkpt lat="41.67416653196505" lon="19.896186696928694"><ele>213.5</ele><time>2026-05-05T11:06:33.999Z</time></trkpt><trkpt lat="41.67407388420159" lon="19.89611966258116"><ele>214.0</ele><time>2026-05-05T11:06:34.999Z</time></trkpt><trkpt lat="41.673966093200306" lon="19.89607430975838"><ele>214.5</ele><time>2026-05-05T11:06:35.999Z</time></trkpt><trkpt lat="41.67384143697673" lon="19.896032429206794"><ele>215.0</ele><time>2026-05-05T11:06:36.999Z</time></trkpt><trkpt lat="41.67370428850451" lon="19.89598811475753"><ele>219.25</ele><time>2026-05-05T11:06:37.999Z</time></trkpt><trkpt lat="41.67355729443874" lon="19.89593658322727"><ele>223.5</ele><time>2026-05-05T11:06:38.999Z</time></trkpt><trkpt lat="41.67341747378656" lon="19.89588613902413"><ele>227.75</ele><time>2026-05-05T11:06:39.999Z</time></trkpt><trkpt lat="41.67328263966309" lon="19.895856362947406"><ele>232.0</ele><time>2026-05-05T11:06:40.999Z</time></trkpt><trkpt lat="41.67314536347387" lon="19.895847958433613"><ele>229.66666666666666</ele><time>2026-05-05T11:06:41.999Z</time></trkpt><trkpt lat="41.672998267567856" lon="19.895856365686143"><ele>227.33333333333331</ele><time>2026-05-05T11:06:42.999Z</time></trkpt><trkpt lat="41.67284074958314" lon="19.8958877961907"><ele>225.0</ele><time>2026-05-05T11:06:43.999Z</time></trkpt><trkpt lat="41.67267947436124" lon="19.895929680536685"><ele>225.0</ele><time>2026-05-05T11:06:44.999Z</time></trkpt><trkpt lat="41.67252281904438" lon="19.89597149919173"><ele>225.0</ele><time>2026-05-05T11:06:45.999Z</time></trkpt><trkpt lat="41.67238234911026" lon="19.89600692436419"><ele>225.0</ele><time>2026-05-05T11:06:46.999Z</time></trkpt><trkpt lat="41.672235679279595" lon="19.896040340291083"><ele>225.0</ele><time>2026-05-05T11:06:48Z</time></trkpt><trkpt lat="41.672074820229824" lon="19.89609022624762"><ele>225.0</ele><time>2026-05-05T11:06:49Z</time></trkpt><trkpt lat="41.6719188804517" lon="19.89616625334681"><ele>225.0</ele><time>2026-05-05T11:06:50Z</time></trkpt><trkpt lat="41.67178795684211" lon="19.896285856535865"><ele>218.0</ele><time>2026-05-05T11:06:51Z</time></trkpt><trkpt lat="41.67168720564189" lon="19.89643790021715"><ele>211.0</ele><time>2026-05-05T11:06:52Z</time></trkpt><trkpt lat="41.67161368784089" lon="19.89657236044676"><ele>204.0</ele><time>2026-05-05T11:06:53Z</time></trkpt><trkpt lat="41.67152577315351" lon="19.896656810083684"><ele>197.0</ele><time>2026-05-05T11:06:54Z</time></trkpt><trkpt lat="41.67142610929113" lon="19.896662924663918"><ele>197.0</ele><time>2026-05-05T11:06:55Z</time></trkpt><trkpt lat="41.67131746645784" lon="19.89660965952293"><ele>197.0</ele><time>2026-05-05T11:06:56Z</time></trkpt><trkpt lat="41.67119327577" lon="19.89651831050189"><ele>197.0</ele><time>2026-05-05T11:06:57Z</time></trkpt><trkpt lat="41.67105733578707" lon="19.896423602037416"><ele>197.0</ele><time>2026-05-05T11:06:58Z</time></trkpt><trkpt lat="41.67090351281945" lon="19.896340671936457"><ele>197.33333333333334</ele><time>2026-05-05T11:06:59Z</time></trkpt><trkpt lat="41.67074775727059" lon="19.896282145113112"><ele>197.66666666666669</ele><time>2026-05-05T11:07:00Z</time></trkpt><trkpt lat="41.67059418047177" lon="19.896260521752936"><ele>198.0</ele><time>2026-05-05T11:07:01Z</time></trkpt><trkpt lat="41.67045054751028" lon="19.896258541514264"><ele>198.0</ele><time>2026-05-05T11:07:02Z</time></trkpt><trkpt lat="41.67034042603692" lon="19.896210563649298"><ele>198.0</ele><time>2026-05-05T11:07:03Z</time></trkpt><trkpt lat="41.67025180433441" lon="19.896096531364982"><ele>198.0</ele><time>2026-05-05T11:07:04Z</time></trkpt><trkpt lat="41.67016901969654" lon="19.895939786417646"><ele>198.0</ele><time>2026-05-05T11:07:05Z</time></trkpt><trkpt lat="41.6700734316623" lon="19.895787485546187"><ele>194.25</ele><time>2026-05-05T11:07:06Z</time></trkpt><trkpt lat="41.66994913828353" lon="19.895693518862018"><ele>190.5</ele><time>2026-05-05T11:07:07Z</time></trkpt><trkpt lat="41.669843714516226" lon="19.895611760224714"><ele>186.75</ele><time>2026-05-05T11:07:08Z</time></trkpt><trkpt lat="41.669781894179714" lon="19.89548727130997"><ele>183.0</ele><time>2026-05-05T11:07:09Z</time></trkpt><trkpt lat="41.66977276947446" lon="19.895322901487447"><ele>183.0</ele><time>2026-05-05T11:07:10Z</time></trkpt><trkpt lat="41.66976327377775" lon="19.895174651997728"><ele>183.0</ele><time>2026-05-05T11:07:11Z</time></trkpt><trkpt lat="41.66971361616952" lon="19.895074871741713"><ele>183.0</ele><time>2026-05-05T11:07:12Z</time></trkpt><trkpt lat="41.66961019438189" lon="19.895016661693905"><ele>183.0</ele><time>2026-05-05T11:07:13Z</time></trkpt><trkpt lat="41.66948895495351" lon="19.89500688953252"><ele>183.0</ele><time>2026-05-05T11:07:14Z</time></trkpt><trkpt lat="41.66934868717815" lon="19.89503749004936"><ele>181.8</ele><time>2026-05-05T11:07:15Z</time></trkpt><trkpt lat="41.66922563222016" lon="19.8950468005422"><ele>180.60000000000002</ele><time>2026-05-05T11:07:16Z</time></trkpt><trkpt lat="41.66913125334603" lon="19.895017178721687"><ele>179.39999999999998</ele><time>2026-05-05T11:07:17Z</time></trkpt><trkpt lat="41.66905789377576" lon="19.894932648150416"><ele>178.2</ele><time>2026-05-05T11:07:18Z</time></trkpt><trkpt lat="41.66903346058104" lon="19.8947925256161"><ele>177.0</ele><time>2026-05-05T11:07:19Z</time></trkpt><trkpt lat="41.66905669701823" lon="19.894612405300002"><ele>177.0</ele><time>2026-05-05T11:07:20Z</time></trkpt><trkpt lat="41.66908660823798" lon="19.89442633822623"><ele>177.0</ele><time>2026-05-05T11:07:21Z</time></trkpt><trkpt lat="41.66910429354881" lon="19.89422297220871"><ele>177.0</ele><time>2026-05-05T11:07:22Z</time></trkpt><trkpt lat="41.66911482309606" lon="19.89400982896938"><ele>174.5</ele><time>2026-05-05T11:07:23Z</time></trkpt><trkpt lat="41.66916787797754" lon="19.89383249917676"><ele>172.0</ele><time>2026-05-05T11:07:24Z</time></trkpt><trkpt lat="41.66926360514517" lon="19.893679554749507"><ele>169.5</ele><time>2026-05-05T11:07:25Z</time></trkpt><trkpt lat="41.6693443144682" lon="19.893555515908094"><ele>167.0</ele><time>2026-05-05T11:07:26Z</time></trkpt><trkpt lat="41.669360306561245" lon="19.893428804632578"><ele>166.6</ele><time>2026-05-05T11:07:27Z</time></trkpt><trkpt lat="41.66933150104453" lon="19.89330605717976"><ele>166.2</ele><time>2026-05-05T11:07:28Z</time></trkpt><trkpt lat="41.66928284261933" lon="19.893194339533167"><ele>165.8</ele><time>2026-05-05T11:07:29Z</time></trkpt><trkpt lat="41.66923078728819" lon="19.893097139144643"><ele>165.4</ele><time>2026-05-05T11:07:30Z</time></trkpt><trkpt lat="41.66918447218877" lon="19.892997104896754"><ele>165.0</ele><time>2026-05-05T11:07:31Z</time></trkpt><trkpt lat="41.66914393269671" lon="19.89289853771728"><ele>165.0</ele><time>2026-05-05T11:07:32Z</time></trkpt><trkpt lat="41.66909917369529" lon="19.892785848149366"><ele>165.0</ele><time>2026-05-05T11:07:33Z</time></trkpt><trkpt lat="41.66905428177875" lon="19.892664116138814"><ele>165.0</ele><time>2026-05-05T11:07:34Z</time></trkpt><trkpt lat="41.66902825855416" lon="19.892545093594315"><ele>165.0</ele><time>2026-05-05T11:07:35Z</time></trkpt><trkpt lat="41.66902155523114" lon="19.89240023112572"><ele>165.0</ele><time>2026-05-05T11:07:36Z</time></trkpt><trkpt lat="41.669039883530395" lon="19.89225968275025"><ele>162.25</ele><time>2026-05-05T11:07:37Z</time></trkpt><trkpt lat="41.66907673325168" lon="19.892120285268096"><ele>159.5</ele><time>2026-05-05T11:07:38Z</time></trkpt><trkpt lat="41.669116609439605" lon="19.89198180302545"><ele>156.75</ele><time>2026-05-05T11:07:39Z</time></trkpt><trkpt lat="41.66914543614316" lon="19.891831676998887"><ele>154.0</ele><time>2026-05-05T11:07:40Z</time></trkpt><trkpt lat="41.66916216908158" lon="19.89167995187586"><ele>154.0</ele><time>2026-05-05T11:07:41Z</time></trkpt><trkpt lat="41.66918195862632" lon="19.89152500428425"><ele>154.0</ele><time>2026-05-05T11:07:42Z</time></trkpt><trkpt lat="41.669210350642814" lon="19.891369216994626"><ele>154.0</ele><time>2026-05-05T11:07:43Z</time></trkpt><trkpt lat="41.66924428791183" lon="19.891215036579723"><ele>154.0</ele><time>2026-05-05T11:07:44Z</time></trkpt><trkpt lat="41.66928981640459" lon="19.89105605883118"><ele>157.0</ele><time>2026-05-05T11:07:45Z</time></trkpt><trkpt lat="41.669349545434095" lon="19.890903499005024"><ele>160.0</ele><time>2026-05-05T11:07:46Z</time></trkpt><trkpt lat="41.669428261227736" lon="19.89076471260777"><ele>163.0</ele><time>2026-05-05T11:07:47Z</time></trkpt><trkpt lat="41.669522248312234" lon="19.89063236919013"><ele>166.0</ele><time>2026-05-05T11:07:48Z</time></trkpt><trkpt lat="41.66960575196447" lon="19.890487121269157"><ele>157.75</ele><time>2026-05-05T11:07:49Z</time></trkpt><trkpt lat="41.669678831362575" lon="19.890335588476198"><ele>149.5</ele><time>2026-05-05T11:07:50Z</time></trkpt><trkpt lat="41.66976341382506" lon="19.89018052139217"><ele>141.25</ele><time>2026-05-05T11:07:51Z</time></trkpt><trkpt lat="41.66986205517081" lon="19.890036195507193"><ele>133.0</ele><time>2026-05-05T11:07:52Z</time></trkpt><trkpt lat="41.669962691367886" lon="19.889923074685953"><ele>133.0</ele><time>2026-05-05T11:07:53Z</time></trkpt><trkpt lat="41.670072413866954" lon="19.889815456828256"><ele>133.0</ele><time>2026-05-05T11:07:54Z</time></trkpt><trkpt lat="41.67017648946754" lon="19.88972290930629"><ele>133.0</ele><time>2026-05-05T11:07:55Z</time></trkpt><trkpt lat="41.67027164293284" lon="19.889630161330683"><ele>133.0</ele><time>2026-05-05T11:07:56Z</time></trkpt><trkpt lat="41.670346103834724" lon="19.889534370954234"><ele>134.4</ele><time>2026-05-05T11:07:57Z</time></trkpt><trkpt lat="41.67038221865848" lon="19.88942348273273"><ele>135.8</ele><time>2026-05-05T11:07:58Z</time></trkpt><trkpt lat="41.67037342922136" lon="19.8892983487438"><ele>137.2</ele><time>2026-05-05T11:07:59Z</time></trkpt><trkpt lat="41.67031126634306" lon="19.889173258060776"><ele>138.6</ele><time>2026-05-05T11:08:00Z</time></trkpt><trkpt lat="41.670245130474626" lon="19.88904107205436"><ele>140.0</ele><time>2026-05-05T11:08:01Z</time></trkpt><trkpt lat="41.67021021946384" lon="19.888890302494044"><ele>140.0</ele><time>2026-05-05T11:08:02Z</time></trkpt><trkpt lat="41.67020086828046" lon="19.888719682335545"><ele>140.0</ele><time>2026-05-05T11:08:03Z</time></trkpt><trkpt lat="41.670207891611646" lon="19.888553110572683"><ele>140.0</ele><time>2026-05-05T11:08:04Z</time></trkpt><trkpt lat="41.67021695298361" lon="19.888399041182392"><ele>140.0</ele><time>2026-05-05T11:08:05Z</time></trkpt><trkpt lat="41.6702024436793" lon="19.88826949762462"><ele>134.5</ele><time>2026-05-05T11:08:06Z</time></trkpt><trkpt lat="41.67014260529939" lon="19.88816984054729"><ele>129.0</ele><time>2026-05-05T11:08:07Z</time></trkpt><trkpt lat="41.67004781480976" lon="19.88810460474419"><ele>123.5</ele><time>2026-05-05T11:08:08Z</time></trkpt><trkpt lat="41.66992795485286" lon="19.88807712608528"><ele>118.0</ele><time>2026-05-05T11:08:09Z</time></trkpt><trkpt lat="41.669801274727085" lon="19.888057613464234"><ele>118.0</ele><time>2026-05-05T11:08:10Z</time></trkpt><trkpt lat="41.66967441239487" lon="19.888019615607305"><ele>118.0</ele><time>2026-05-05T11:08:11Z</time></trkpt><trkpt lat="41.66954717083801" lon="19.887940503926774"><ele>118.0</ele><time>2026-05-05T11:08:12Z</time></trkpt><trkpt lat="41.66942209189264" lon="19.887832533286964"><ele>118.0</ele><time>2026-05-05T11:08:13Z</time></trkpt><trkpt lat="41.6693143858524" lon="19.887718691658122"><ele>113.66666666666667</ele><time>2026-05-05T11:08:14Z</time></trkpt><trkpt lat="41.669193277173704" lon="19.88760291972088"><ele>109.33333333333334</ele><time>2026-05-05T11:08:15Z</time></trkpt><trkpt lat="41.66906245341692" lon="19.887490403523792"><ele>105.0</ele><time>2026-05-05T11:08:16Z</time></trkpt><trkpt lat="41.66892655772556" lon="19.887379140880352"><ele>105.0</ele><time>2026-05-05T11:08:17Z</time></trkpt><trkpt lat="41.66880020614819" lon="19.88727376015894"><ele>105.0</ele><time>2026-05-05T11:08:18Z</time></trkpt><trkpt lat="41.66868584938311" lon="19.887181201281628"><ele>105.0</ele><time>2026-05-05T11:08:19Z</time></trkpt><trkpt lat="41.668582475847515" lon="19.88709946253212"><ele>105.0</ele><time>2026-05-05T11:08:20Z</time></trkpt><trkpt lat="41.668486222549305" lon="19.886994115190497"><ele>103.25</ele><time>2026-05-05T11:08:21Z</time></trkpt><trkpt lat="41.66840236409865" lon="19.88685795756554"><ele>101.5</ele><time>2026-05-05T11:08:22Z</time></trkpt><trkpt lat="41.66831844904535" lon="19.886707402185035"><ele>99.75</ele><time>2026-05-05T11:08:23Z</time></trkpt><trkpt lat="41.66821080361235" lon="19.886571555239676"><ele>98.0</ele><time>2026-05-05T11:08:24Z</time></trkpt><trkpt lat="41.66808392779668" lon="19.886460215098218"><ele>98.0</ele><time>2026-05-05T11:08:25Z</time></trkpt><trkpt lat="41.667945710598694" lon="19.8863454938799"><ele>98.0</ele><time>2026-05-05T11:08:26Z</time></trkpt><trkpt lat="41.667792190892996" lon="19.886232618671617"><ele>98.0</ele><time>2026-05-05T11:08:27Z</time></trkpt><trkpt lat="41.667647005493244" lon="19.886105216237425"><ele>97.66666666666666</ele><time>2026-05-05T11:08:28Z</time></trkpt><trkpt lat="41.667500996001905" lon="19.885960684421757"><ele>97.33333333333334</ele><time>2026-05-05T11:08:29Z</time></trkpt><trkpt lat="41.66736603291574" lon="19.88582639054986"><ele>97.0</ele><time>2026-05-05T11:08:30Z</time></trkpt><trkpt lat="41.66722493353512" lon="19.88570063791793"><ele>97.0</ele><time>2026-05-05T11:08:31Z</time></trkpt><trkpt lat="41.66709105193924" lon="19.88560133696864"><ele>97.0</ele><time>2026-05-05T11:08:32Z</time></trkpt><trkpt lat="41.666978012629805" lon="19.885512858281114"><ele>97.0</ele><time>2026-05-05T11:08:33Z</time></trkpt><trkpt lat="41.666875210917546" lon="19.885422540836274"><ele>97.0</ele><time>2026-05-05T11:08:34Z</time></trkpt><trkpt lat="41.66680470316204" lon="19.885311893903772"><ele>97.33333333333334</ele><time>2026-05-05T11:08:35Z</time></trkpt><trkpt lat="41.66677109576025" lon="19.885198556282663"><ele>97.66666666666667</ele><time>2026-05-05T11:08:35.999Z</time></trkpt><trkpt lat="41.66676240768655" lon="19.885069518057648"><ele>98.0</ele><time>2026-05-05T11:08:36.999Z</time></trkpt><trkpt lat="41.66679508453909" lon="19.884950552223586"><ele>98.33333333333334</ele><time>2026-05-05T11:08:37.999Z</time></trkpt><trkpt lat="41.666842435246366" lon="19.884848702356038"><ele>98.66666666666667</ele><time>2026-05-05T11:08:38.999Z</time></trkpt><trkpt lat="41.66687787585394" lon="19.884769785044647"><ele>99.0</ele><time>2026-05-05T11:08:39.999Z</time></trkpt><trkpt lat="41.66692042747623" lon="19.884661827035355"><ele>97.66666666666667</ele><time>2026-05-05T11:10:28.999Z</time></trkpt><trkpt lat="41.66695191185256" lon="19.884541854476403"><ele>96.33333333333333</ele><time>2026-05-05T11:10:30.999Z</time></trkpt><trkpt lat="41.666978006359756" lon="19.884462802847118"><ele>95.0</ele><time>2026-05-05T11:10:31.999Z</time></trkpt><trkpt lat="41.6670115781672" lon="19.884364998690522"><ele>93.66666666666666</ele><time>2026-05-05T11:10:32.999Z</time></trkpt><trkpt lat="41.66704739442053" lon="19.884256447132632"><ele>92.33333333333333</ele><time>2026-05-05T11:10:33.999Z</time></trkpt><trkpt lat="41.66708055822216" lon="19.88415742008608"><ele>91.0</ele><time>2026-05-05T11:10:34.999Z</time></trkpt><trkpt lat="41.6670983533698" lon="19.884076182136262"><ele>91.0</ele><time>2026-05-05T11:10:35.999Z</time></trkpt><trkpt lat="41.66712920244822" lon="19.883970857048812"><ele>91.0</ele><time>2026-05-05T11:10:36.999Z</time></trkpt><trkpt lat="41.66715329821544" lon="19.883871448175857"><ele>91.0</ele><time>2026-05-05T11:10:37.999Z</time></trkpt><trkpt lat="41.66713689543214" lon="19.88373687699301"><ele>91.0</ele><time>2026-05-05T11:10:39.999Z</time></trkpt><trkpt lat="41.667060243019726" lon="19.883630186784504"><ele>91.0</ele><time>2026-05-05T11:10:41.999Z</time></trkpt><trkpt lat="41.66698596114084" lon="19.883570972687757"><ele>90.6</ele><time>2026-05-05T11:10:42.999Z</time></trkpt><trkpt lat="41.66691209779458" lon="19.88349238400553"><ele>90.19999999999999</ele><time>2026-05-05T11:10:43.999Z</time></trkpt><trkpt lat="41.666839440108426" lon="19.88340370266103"><ele>89.80000000000001</ele><time>2026-05-05T11:10:44.999Z</time></trkpt><trkpt lat="41.66676657010676" lon="19.883290852375655"><ele>89.4</ele><time>2026-05-05T11:10:45.999Z</time></trkpt><trkpt lat="41.66670383546816" lon="19.883149787123816"><ele>89.0</ele><time>2026-05-05T11:10:46.999Z</time></trkpt><trkpt lat="41.66665035799014" lon="19.882997682890657"><ele>89.0</ele><time>2026-05-05T11:10:47.999Z</time></trkpt><trkpt lat="41.66660556142016" lon="19.882833869018857"><ele>89.0</ele><time>2026-05-05T11:10:48.999Z</time></trkpt><trkpt lat="41.666586366140436" lon="19.88264526004354"><ele>89.0</ele><time>2026-05-05T11:10:49.999Z</time></trkpt><trkpt lat="41.66658045218874" lon="19.882447774458527"><ele>89.0</ele><time>2026-05-05T11:10:50.999Z</time></trkpt><trkpt lat="41.66658270574172" lon="19.882240689557555"><ele>90.66666666666667</ele><time>2026-05-05T11:10:51.999Z</time></trkpt><trkpt lat="41.66660486846211" lon="19.88202055773417"><ele>92.33333333333333</ele><time>2026-05-05T11:10:52.999Z</time></trkpt><trkpt lat="41.66663530489154" lon="19.88180839049124"><ele>94.0</ele><time>2026-05-05T11:10:53.999Z</time></trkpt><trkpt lat="41.66668715025888" lon="19.881613590459754"><ele>94.0</ele><time>2026-05-05T11:10:54.999Z</time></trkpt><trkpt lat="41.66675935083844" lon="19.881469448993606"><ele>94.0</ele><time>2026-05-05T11:10:55.999Z</time></trkpt><trkpt lat="41.66685658130657" lon="19.88137535139403"><ele>94.0</ele><time>2026-05-05T11:10:56.999Z</time></trkpt><trkpt lat="41.66694529399728" lon="19.881288798863643"><ele>94.0</ele><time>2026-05-05T11:10:57.999Z</time></trkpt><trkpt lat="41.6669886190373" lon="19.881166061491314"><ele>100.5</ele><time>2026-05-05T11:10:58.999Z</time></trkpt><trkpt lat="41.66699148182409" lon="19.880994489615837"><ele>107.0</ele><time>2026-05-05T11:11:00Z</time></trkpt><trkpt lat="41.6669792927489" lon="19.880811053171236"><ele>113.5</ele><time>2026-05-05T11:11:01Z</time></trkpt><trkpt lat="41.66698313703057" lon="19.88061842179809"><ele>120.0</ele><time>2026-05-05T11:11:02Z</time></trkpt><trkpt lat="41.667011757980305" lon="19.88042242521195"><ele>120.0</ele><time>2026-05-05T11:11:03Z</time></trkpt><trkpt lat="41.6670523377663" lon="19.88022520651796"><ele>120.0</ele><time>2026-05-05T11:11:04Z</time></trkpt><trkpt lat="41.667099110591614" lon="19.88002167688109"><ele>120.0</ele><time>2026-05-05T11:11:05Z</time></trkpt><trkpt lat="41.66714965742485" lon="19.879816617560333"><ele>119.66666666666666</ele><time>2026-05-05T11:11:06Z</time></trkpt><trkpt lat="41.66719723357059" lon="19.879613719886308"><ele>119.33333333333333</ele><time>2026-05-05T11:11:07Z</time></trkpt><trkpt lat="41.6672427484193" lon="19.879405713743566"><ele>119.0</ele><time>2026-05-05T11:11:08Z</time></trkpt><trkpt lat="41.66726225010953" lon="19.87922219900669"><ele>119.0</ele><time>2026-05-05T11:11:09Z</time></trkpt><trkpt lat="41.66724576766453" lon="19.879049937945297"><ele>119.0</ele><time>2026-05-05T11:11:10Z</time></trkpt><trkpt lat="41.66717817654695" lon="19.878898301701884"><ele>119.0</ele><time>2026-05-05T11:11:11Z</time></trkpt><trkpt lat="41.66708328109376" lon="19.87876645212396"><ele>119.0</ele><time>2026-05-05T11:11:12Z</time></trkpt><trkpt lat="41.66696803532925" lon="19.87864003748463"><ele>113.33333333333333</ele><time>2026-05-05T11:11:13Z</time></trkpt><trkpt lat="41.666858962184364" lon="19.878501035903625"><ele>107.66666666666666</ele><time>2026-05-05T11:11:14Z</time></trkpt><trkpt lat="41.66676395745304" lon="19.878341486249163"><ele>102.0</ele><time>2026-05-05T11:11:15Z</time></trkpt><trkpt lat="41.66667706633977" lon="19.878155022986917"><ele>102.0</ele><time>2026-05-05T11:11:16Z</time></trkpt><trkpt lat="41.66661527361163" lon="19.877968999882434"><ele>102.0</ele><time>2026-05-05T11:11:17Z</time></trkpt><trkpt lat="41.66657759773533" lon="19.87778500232079"><ele>102.0</ele><time>2026-05-05T11:11:18Z</time></trkpt><trkpt lat="41.666579775657716" lon="19.87762137617089"><ele>102.0</ele><time>2026-05-05T11:11:19Z</time></trkpt><trkpt lat="41.66662689320687" lon="19.877474214554752"><ele>103.8</ele><time>2026-05-05T11:11:20Z</time></trkpt><trkpt lat="41.666666570834124" lon="19.877331630314387"><ele>105.6</ele><time>2026-05-05T11:11:21Z</time></trkpt><trkpt lat="41.666659772365875" lon="19.877202255530655"><ele>107.39999999999999</ele><time>2026-05-05T11:11:22Z</time></trkpt><trkpt lat="41.66660814985627" lon="19.87709232625979"><ele>109.19999999999999</ele><time>2026-05-05T11:11:23Z</time></trkpt><trkpt lat="41.6665287368672" lon="19.877019604877077"><ele>111.0</ele><time>2026-05-05T11:11:24Z</time></trkpt><trkpt lat="41.666430366239545" lon="19.87701070596747"><ele>111.0</ele><time>2026-05-05T11:11:25Z</time></trkpt><trkpt lat="41.6663234404454" lon="19.87704508358197"><ele>111.0</ele><time>2026-05-05T11:11:26Z</time></trkpt><trkpt lat="41.66620929245496" lon="19.877105245276297"><ele>111.0</ele><time>2026-05-05T11:11:27Z</time></trkpt><trkpt lat="41.66607950095272" lon="19.8771681651909"><ele>111.0</ele><time>2026-05-05T11:11:28Z</time></trkpt><trkpt lat="41.66593579298066" lon="19.877208982359154"><ele>107.33333333333334</ele><time>2026-05-05T11:11:29Z</time></trkpt><trkpt lat="41.66578829236131" lon="19.87721834190038"><ele>103.66666666666667</ele><time>2026-05-05T11:11:30Z</time></trkpt><trkpt lat="41.66563620003456" lon="19.87719818088493"><ele>100.0</ele><time>2026-05-05T11:11:31Z</time></trkpt><trkpt lat="41.6654912044736" lon="19.877150990453238"><ele>100.0</ele><time>2026-05-05T11:11:32Z</time></trkpt><trkpt lat="41.665355810107116" lon="19.87710638287622"><ele>100.0</ele><time>2026-05-05T11:11:33Z</time></trkpt><trkpt lat="41.66521368103557" lon="19.87708340997355"><ele>100.0</ele><time>2026-05-05T11:11:34Z</time></trkpt><trkpt lat="41.66506520597278" lon="19.877089795645865"><ele>100.0</ele><time>2026-05-05T11:11:35Z</time></trkpt><trkpt lat="41.66490654062366" lon="19.87711600295753"><ele>98.66666666666667</ele><time>2026-05-05T11:11:36Z</time></trkpt><trkpt lat="41.664755784750945" lon="19.877171496982676"><ele>97.33333333333334</ele><time>2026-05-05T11:11:37Z</time></trkpt><trkpt lat="41.66461112428285" lon="19.87724307184117"><ele>96.0</ele><time>2026-05-05T11:11:38Z</time></trkpt><trkpt lat="41.66447082774114" lon="19.877299647013913"><ele>97.0</ele><time>2026-05-05T11:11:39Z</time></trkpt><trkpt lat="41.66432976906606" lon="19.877310662419365"><ele>98.0</ele><time>2026-05-05T11:11:40Z</time></trkpt><trkpt lat="41.66419725945196" lon="19.877265437856146"><ele>99.0</ele><time>2026-05-05T11:11:41Z</time></trkpt><trkpt lat="41.66406372504756" lon="19.87717453094257"><ele>100.0</ele><time>2026-05-05T11:11:42Z</time></trkpt><trkpt lat="41.663914450325876" lon="19.87706303218421"><ele>100.0</ele><time>2026-05-05T11:11:43Z</time></trkpt><trkpt lat="41.66377416880645" lon="19.87695029042172"><ele>100.0</ele><time>2026-05-05T11:11:44Z</time></trkpt><trkpt lat="41.663638452646346" lon="19.876814425944936"><ele>100.0</ele><time>2026-05-05T11:11:45Z</time></trkpt><trkpt lat="41.663518186315635" lon="19.87665629224726"><ele>103.0</ele><time>2026-05-05T11:11:46Z</time></trkpt><trkpt lat="41.66340499136911" lon="19.876481267062264"><ele>106.0</ele><time>2026-05-05T11:11:47Z</time></trkpt><trkpt lat="41.66330432966871" lon="19.876309158328876"><ele>109.0</ele><time>2026-05-05T11:11:48Z</time></trkpt><trkpt lat="41.663247903803935" lon="19.876139411624614"><ele>109.0</ele><time>2026-05-05T11:11:49Z</time></trkpt><trkpt lat="41.66323855021902" lon="19.87596778472587"><ele>109.0</ele><time>2026-05-05T11:11:50Z</time></trkpt><trkpt lat="41.66327480568238" lon="19.875769498849262"><ele>109.0</ele><time>2026-05-05T11:11:51Z</time></trkpt><trkpt lat="41.66333004193792" lon="19.8755591301438"><ele>109.0</ele><time>2026-05-05T11:11:52Z</time></trkpt><trkpt lat="41.66338914563417" lon="19.87532719039936"><ele>110.66666666666667</ele><time>2026-05-05T11:11:53Z</time></trkpt><trkpt lat="41.66343150431837" lon="19.87507442054244"><ele>112.33333333333334</ele><time>2026-05-05T11:11:54Z</time></trkpt><trkpt lat="41.66344063147456" lon="19.8747990453977"><ele>114.0</ele><time>2026-05-05T11:11:55Z</time></trkpt><trkpt lat="41.663427353822314" lon="19.874507327338804"><ele>115.33333333333334</ele><time>2026-05-05T11:11:56Z</time></trkpt><trkpt lat="41.66340247372243" lon="19.874216554328655"><ele>116.66666666666667</ele><time>2026-05-05T11:11:57Z</time></trkpt><trkpt lat="41.663361982240694" lon="19.873925164301603"><ele>118.0</ele><time>2026-05-05T11:11:58Z</time></trkpt><trkpt lat="41.66328892029385" lon="19.87366605487503"><ele>126.5</ele><time>2026-05-05T11:11:59Z</time></trkpt><trkpt lat="41.66317304451529" lon="19.873420348908862"><ele>135.0</ele><time>2026-05-05T11:12:00Z</time></trkpt><trkpt lat="41.66302468702731" lon="19.87318030133922"><ele>135.0</ele><time>2026-05-05T11:12:01Z</time></trkpt><trkpt lat="41.662870304995025" lon="19.872936862541557"><ele>135.0</ele><time>2026-05-05T11:12:02Z</time></trkpt><trkpt lat="41.6627069320574" lon="19.872687117710523"><ele>128.0</ele><time>2026-05-05T11:12:03Z</time></trkpt><trkpt lat="41.66255039116468" lon="19.87244742614724"><ele>121.0</ele><time>2026-05-05T11:12:04Z</time></trkpt><trkpt lat="41.66240359681061" lon="19.87223159472019"><ele>121.0</ele><time>2026-05-05T11:12:05Z</time></trkpt><trkpt lat="41.66227101728733" lon="19.872032515853785"><ele>121.0</ele><time>2026-05-05T11:12:06Z</time></trkpt><trkpt lat="41.66215619293262" lon="19.87184428635114"><ele>121.0</ele><time>2026-05-05T11:12:06.999Z</time></trkpt><trkpt lat="41.66206308578304" lon="19.871645926751487"><ele>118.5</ele><time>2026-05-05T11:12:07.999Z</time></trkpt><trkpt lat="41.661984198360855" lon="19.871467805299453"><ele>116.0</ele><time>2026-05-05T11:12:08.999Z</time></trkpt><trkpt lat="41.66188729389961" lon="19.871336644078184"><ele>113.5</ele><time>2026-05-05T11:12:09.999Z</time></trkpt><trkpt lat="41.661764002858824" lon="19.871274316583783"><ele>111.0</ele><time>2026-05-05T11:12:10.999Z</time></trkpt><trkpt lat="41.66162534296279" lon="19.87125338583181"><ele>111.0</ele><time>2026-05-05T11:12:11.999Z</time></trkpt><trkpt lat="41.661485621276505" lon="19.87120909122687"><ele>111.0</ele><time>2026-05-05T11:12:12.999Z</time></trkpt><trkpt lat="41.66137515440619" lon="19.871091633650213"><ele>111.0</ele><time>2026-05-05T11:12:13.999Z</time></trkpt><trkpt lat="41.661291949169566" lon="19.870939698681305"><ele>111.0</ele><time>2026-05-05T11:12:14.999Z</time></trkpt><trkpt lat="41.66122892796488" lon="19.87075129945556"><ele>109.33333333333334</ele><time>2026-05-05T11:12:15.999Z</time></trkpt><trkpt lat="41.66115811154595" lon="19.870552650832764"><ele>107.66666666666667</ele><time>2026-05-05T11:12:16.999Z</time></trkpt><trkpt lat="41.66106478314401" lon="19.870372311811636"><ele>106.0</ele><time>2026-05-05T11:12:17.999Z</time></trkpt><trkpt lat="41.66094911395018" lon="19.87020306515281"><ele>116.33333333333334</ele><time>2026-05-05T11:12:18.999Z</time></trkpt><trkpt lat="41.66082137230145" lon="19.870034880668467"><ele>126.66666666666666</ele><time>2026-05-05T11:12:19.999Z</time></trkpt><trkpt lat="41.660713345326386" lon="19.869841180267315"><ele>137.0</ele><time>2026-05-05T11:12:20.999Z</time></trkpt><trkpt lat="41.660618764958826" lon="19.869626056408055"><ele>137.0</ele><time>2026-05-05T11:12:21.999Z</time></trkpt><trkpt lat="41.66052832494305" lon="19.86940780572675"><ele>137.0</ele><time>2026-05-05T11:12:22.999Z</time></trkpt><trkpt lat="41.66043039435068" lon="19.86920240862425"><ele>137.0</ele><time>2026-05-05T11:12:23.999Z</time></trkpt><trkpt lat="41.66030411306214" lon="19.869000910616737"><ele>130.0</ele><time>2026-05-05T11:12:24.999Z</time></trkpt><trkpt lat="41.66015894455031" lon="19.868826469029955"><ele>123.0</ele><time>2026-05-05T11:12:25.999Z</time></trkpt><trkpt lat="41.660006470439505" lon="19.868654969250155"><ele>116.0</ele><time>2026-05-05T11:12:26.999Z</time></trkpt><trkpt lat="41.659858668587844" lon="19.868468346460528"><ele>115.66666666666666</ele><time>2026-05-05T11:12:27.999Z</time></trkpt><trkpt lat="41.65970988436906" lon="19.868281503249253"><ele>115.33333333333334</ele><time>2026-05-05T11:12:28.999Z</time></trkpt><trkpt lat="41.65954631012648" lon="19.868116043710916"><ele>115.0</ele><time>2026-05-05T11:12:29.999Z</time></trkpt><trkpt lat="41.65938081004578" lon="19.867979458263434"><ele>115.0</ele><time>2026-05-05T11:12:30.999Z</time></trkpt><trkpt lat="41.65922480313998" lon="19.867859490747318"><ele>115.0</ele><time>2026-05-05T11:12:31.999Z</time></trkpt><trkpt lat="41.659087071221784" lon="19.867733602322865"><ele>115.0</ele><time>2026-05-05T11:12:32.999Z</time></trkpt><trkpt lat="41.65896850229392" lon="19.86758643110189"><ele>124.66666666666667</ele><time>2026-05-05T11:12:33.999Z</time></trkpt><trkpt lat="41.658879898848234" lon="19.867401123727525"><ele>134.33333333333334</ele><time>2026-05-05T11:12:34.999Z</time></trkpt><trkpt lat="41.65881897320144" lon="19.867176534756005"><ele>144.0</ele><time>2026-05-05T11:12:35.999Z</time></trkpt><trkpt lat="41.65875696240337" lon="19.8669405214935"><ele>137.33333333333334</ele><time>2026-05-05T11:12:36.999Z</time></trkpt><trkpt lat="41.65867055837671" lon="19.866739451264237"><ele>130.66666666666669</ele><time>2026-05-05T11:12:37.999Z</time></trkpt><trkpt lat="41.658543797944425" lon="19.866568890161812"><ele>124.0</ele><time>2026-05-05T11:12:38.999Z</time></trkpt><trkpt lat="41.658410491022245" lon="19.866407357518504"><ele>124.0</ele><time>2026-05-05T11:12:39.999Z</time></trkpt><trkpt lat="41.658293169650435" lon="19.866216563978124"><ele>124.0</ele><time>2026-05-05T11:12:40.999Z</time></trkpt><trkpt lat="41.65818538760859" lon="19.865995640190608"><ele>124.0</ele><time>2026-05-05T11:12:41.999Z</time></trkpt><trkpt lat="41.6580933927366" lon="19.865768247019858"><ele>132.33333333333334</ele><time>2026-05-05T11:12:42.999Z</time></trkpt><trkpt lat="41.65801407562456" lon="19.86553067119733"><ele>140.66666666666666</ele><time>2026-05-05T11:12:43.999Z</time></trkpt><trkpt lat="41.657952978776024" lon="19.8653002498853"><ele>149.0</ele><time>2026-05-05T11:12:44.999Z</time></trkpt><trkpt lat="41.65789484063205" lon="19.8650826097538"><ele>141.33333333333331</ele><time>2026-05-05T11:12:45.999Z</time></trkpt><trkpt lat="41.65781451796276" lon="19.86489137304504"><ele>133.66666666666666</ele><time>2026-05-05T11:12:46.999Z</time></trkpt><trkpt lat="41.65770381511482" lon="19.864721807699432"><ele>126.0</ele><time>2026-05-05T11:12:47.999Z</time></trkpt><trkpt lat="41.65755859873643" lon="19.864593364292254"><ele>126.0</ele><time>2026-05-05T11:12:48.999Z</time></trkpt><trkpt lat="41.657416255954004" lon="19.86446270192159"><ele>126.0</ele><time>2026-05-05T11:12:49.999Z</time></trkpt><trkpt lat="41.657278449916845" lon="19.864297001115933"><ele>126.0</ele><time>2026-05-05T11:12:50.999Z</time></trkpt><trkpt lat="41.65717608435382" lon="19.86411697697935"><ele>131.75</ele><time>2026-05-05T11:12:51.999Z</time></trkpt><trkpt lat="41.657124156994" lon="19.86395191279636"><ele>137.5</ele><time>2026-05-05T11:12:52.999Z</time></trkpt><trkpt lat="41.657096859628055" lon="19.86378372894499"><ele>143.25</ele><time>2026-05-05T11:12:53.999Z</time></trkpt><trkpt lat="41.65710866547133" lon="19.863604987804553"><ele>149.0</ele><time>2026-05-05T11:12:54.999Z</time></trkpt><trkpt lat="41.657140943377776" lon="19.863416564285423"><ele>149.0</ele><time>2026-05-05T11:12:55.999Z</time></trkpt><trkpt lat="41.65718875322677" lon="19.86322934109658"><ele>149.0</ele><time>2026-05-05T11:12:56.999Z</time></trkpt><trkpt lat="41.65727402196586" lon="19.863072965239343"><ele>149.0</ele><time>2026-05-05T11:12:57.999Z</time></trkpt><trkpt lat="41.65738340533077" lon="19.86295435477882"><ele>149.0</ele><time>2026-05-05T11:12:58.999Z</time></trkpt><trkpt lat="41.65750285023275" lon="19.86289236208363"><ele>149.0</ele><time>2026-05-05T11:12:59.999Z</time></trkpt><trkpt lat="41.65764804366989" lon="19.862879820349757"><ele>149.0</ele><time>2026-05-05T11:13:00.999Z</time></trkpt><trkpt lat="41.657805496240165" lon="19.862886578878154"><ele>149.0</ele><time>2026-05-05T11:13:01.999Z</time></trkpt><trkpt lat="41.6579821340954" lon="19.86291372919555"><ele>154.66666666666666</ele><time>2026-05-05T11:13:02.999Z</time></trkpt><trkpt lat="41.65816010588706" lon="19.8629346690426"><ele>160.33333333333334</ele><time>2026-05-05T11:13:03.999Z</time></trkpt><trkpt lat="41.65834262966479" lon="19.862947119200115"><ele>166.0</ele><time>2026-05-05T11:13:04.999Z</time></trkpt><trkpt lat="41.658525839014246" lon="19.862941403126076"><ele>168.33333333333334</ele><time>2026-05-05T11:13:06Z</time></trkpt><trkpt lat="41.65870951904496" lon="19.862933462185655"><ele>170.66666666666666</ele><time>2026-05-05T11:13:07Z</time></trkpt><trkpt lat="41.658883244039984" lon="19.862930099459938"><ele>173.0</ele><time>2026-05-05T11:13:08Z</time></trkpt><trkpt lat="41.65905006111442" lon="19.862924896171783"><ele>173.0</ele><time>2026-05-05T11:13:09Z</time></trkpt><trkpt lat="41.65922029355144" lon="19.862918541925573"><ele>173.0</ele><time>2026-05-05T11:13:10Z</time></trkpt><trkpt lat="41.65938012794213" lon="19.862909186111363"><ele>173.0</ele><time>2026-05-05T11:13:11Z</time></trkpt><trkpt lat="41.659532431064356" lon="19.862889873159897"><ele>178.0</ele><time>2026-05-05T11:13:12Z</time></trkpt><trkpt lat="41.65967396254122" lon="19.862861412692403"><ele>183.0</ele><time>2026-05-05T11:13:13Z</time></trkpt><trkpt lat="41.65982787493889" lon="19.86282001706574"><ele>188.0</ele><time>2026-05-05T11:13:14Z</time></trkpt><trkpt lat="41.65997873009549" lon="19.862778861690888"><ele>188.0</ele><time>2026-05-05T11:13:15Z</time></trkpt><trkpt lat="41.66013809327112" lon="19.862740980506214"><ele>188.0</ele><time>2026-05-05T11:13:16Z</time></trkpt><trkpt lat="41.660292477852515" lon="19.86272254304479"><ele>188.0</ele><time>2026-05-05T11:13:17Z</time></trkpt><trkpt lat="41.66044166104117" lon="19.862720429580634"><ele>189.33333333333331</ele><time>2026-05-05T11:13:18Z</time></trkpt><trkpt lat="41.6605937048772" lon="19.862728594002412"><ele>190.66666666666666</ele><time>2026-05-05T11:13:19Z</time></trkpt><trkpt lat="41.66074075131282" lon="19.862731622263983"><ele>192.0</ele><time>2026-05-05T11:13:20Z</time></trkpt><trkpt lat="41.66089252775779" lon="19.86271303021145"><ele>192.0</ele><time>2026-05-05T11:13:21Z</time></trkpt><trkpt lat="41.66104109590303" lon="19.862675289293552"><ele>192.0</ele><time>2026-05-05T11:13:22Z</time></trkpt><trkpt lat="41.66118292758406" lon="19.862619098899124"><ele>192.0</ele><time>2026-05-05T11:13:23Z</time></trkpt><trkpt lat="41.661321837792194" lon="19.862542191388396"><ele>192.0</ele><time>2026-05-05T11:13:24Z</time></trkpt><trkpt lat="41.661457011315775" lon="19.862437094557844"><ele>177.33333333333334</ele><time>2026-05-05T11:13:25Z</time></trkpt><trkpt lat="41.66159111286844" lon="19.862332986344096"><ele>162.66666666666669</ele><time>2026-05-05T11:13:26Z</time></trkpt><trkpt lat="41.66172825774509" lon="19.862239155888755"><ele>148.0</ele><time>2026-05-05T11:13:27Z</time></trkpt><trkpt lat="41.66185568369886" lon="19.862159263760613"><ele>157.75</ele><time>2026-05-05T11:13:28Z</time></trkpt><trkpt lat="41.661980477145434" lon="19.862078912649384"><ele>167.5</ele><time>2026-05-05T11:13:29Z</time></trkpt><trkpt lat="41.66210227319757" lon="19.86200281107889"><ele>177.25</ele><time>2026-05-05T11:13:30Z</time></trkpt><trkpt lat="41.66222185212869" lon="19.86192684278883"><ele>187.0</ele><time>2026-05-05T11:13:31Z</time></trkpt><trkpt lat="41.66234341184024" lon="19.86183906371839"><ele>180.75</ele><time>2026-05-05T11:13:32Z</time></trkpt><trkpt lat="41.6624651158172" lon="19.861737703193075"><ele>174.5</ele><time>2026-05-05T11:13:33Z</time></trkpt><trkpt lat="41.66259189339267" lon="19.861633391645995"><ele>168.25</ele><time>2026-05-05T11:13:34Z</time></trkpt><trkpt lat="41.66272611386579" lon="19.861531326707688"><ele>162.0</ele><time>2026-05-05T11:13:35Z</time></trkpt><trkpt lat="41.662863097819844" lon="19.861437083958233"><ele>162.0</ele><time>2026-05-05T11:13:36Z</time></trkpt><trkpt lat="41.663012202120235" lon="19.861364899272935"><ele>162.0</ele><time>2026-05-05T11:13:37Z</time></trkpt><trkpt lat="41.663163818935665" lon="19.86132115566474"><ele>162.0</ele><time>2026-05-05T11:13:38Z</time></trkpt><trkpt lat="41.66330992130646" lon="19.861271003884507"><ele>162.0</ele><time>2026-05-05T11:13:39Z</time></trkpt><trkpt lat="41.66343852437766" lon="19.861186321418206"><ele>162.0</ele><time>2026-05-05T11:13:40Z</time></trkpt><trkpt lat="41.66356914903166" lon="19.861071325248563"><ele>162.0</ele><time>2026-05-05T11:13:41Z</time></trkpt><trkpt lat="41.66368638553667" lon="19.860948571974433"><ele>162.0</ele><time>2026-05-05T11:13:42Z</time></trkpt><trkpt lat="41.66380916406633" lon="19.86082472260237"><ele>157.66666666666666</ele><time>2026-05-05T11:13:43Z</time></trkpt><trkpt lat="41.66393399651787" lon="19.860707699174448"><ele>153.33333333333331</ele><time>2026-05-05T11:13:44Z</time></trkpt><trkpt lat="41.66406865832069" lon="19.86058643663035"><ele>149.0</ele><time>2026-05-05T11:13:45Z</time></trkpt><trkpt lat="41.664207468969494" lon="19.860471718794322"><ele>149.0</ele><time>2026-05-05T11:13:46Z</time></trkpt><trkpt lat="41.664345980379" lon="19.860363658979193"><ele>149.0</ele><time>2026-05-05T11:13:47Z</time></trkpt><trkpt lat="41.664489070402865" lon="19.86024704027849"><ele>149.0</ele><time>2026-05-05T11:13:48Z</time></trkpt><trkpt lat="41.66463729398431" lon="19.860131354575316"><ele>146.33333333333331</ele><time>2026-05-05T11:13:49Z</time></trkpt><trkpt lat="41.664787412374636" lon="19.86002443909413"><ele>143.66666666666666</ele><time>2026-05-05T11:13:50Z</time></trkpt><trkpt lat="41.664945983844106" lon="19.859927119298664"><ele>141.0</ele><time>2026-05-05T11:13:51Z</time></trkpt><trkpt lat="41.66510904021393" lon="19.85983725090854"><ele>141.0</ele><time>2026-05-05T11:13:52Z</time></trkpt><trkpt lat="41.66527507197632" lon="19.859753255086446"><ele>141.0</ele><time>2026-05-05T11:13:53Z</time></trkpt><trkpt lat="41.66544211457969" lon="19.859664882612726"><ele>141.0</ele><time>2026-05-05T11:13:54Z</time></trkpt><trkpt lat="41.665604968006505" lon="19.85957836932824"><ele>139.25</ele><time>2026-05-05T11:13:55Z</time></trkpt><trkpt lat="41.66574789770418" lon="19.859499729107533"><ele>137.5</ele><time>2026-05-05T11:13:56Z</time></trkpt><trkpt lat="41.66587785300915" lon="19.859399889648934"><ele>135.75</ele><time>2026-05-05T11:13:57Z</time></trkpt><trkpt lat="41.66596636299428" lon="19.859272257056237"><ele>134.0</ele><time>2026-05-05T11:13:58Z</time></trkpt><trkpt lat="41.66602381476408" lon="19.85910544100248"><ele>134.0</ele><time>2026-05-05T11:13:59Z</time></trkpt><trkpt lat="41.66605537179162" lon="19.858897051539266"><ele>134.0</ele><time>2026-05-05T11:14:00Z</time></trkpt><trkpt lat="41.66610481491901" lon="19.858689426481845"><ele>134.0</ele><time>2026-05-05T11:14:01Z</time></trkpt><trkpt lat="41.66619636704604" lon="19.858484734300305"><ele>138.33333333333331</ele><time>2026-05-05T11:14:02Z</time></trkpt><trkpt lat="41.66632201625389" lon="19.858287496717786"><ele>142.66666666666666</ele><time>2026-05-05T11:14:03Z</time></trkpt><trkpt lat="41.66644995368249" lon="19.85809038393364"><ele>147.0</ele><time>2026-05-05T11:14:04Z</time></trkpt><trkpt lat="41.66658584550145" lon="19.857889964935186"><ele>147.0</ele><time>2026-05-05T11:14:05Z</time></trkpt><trkpt lat="41.66673023423004" lon="19.857684593181045"><ele>147.0</ele><time>2026-05-05T11:14:06Z</time></trkpt><trkpt lat="41.666874313593695" lon="19.857479644361504"><ele>147.0</ele><time>2026-05-05T11:14:07Z</time></trkpt><trkpt lat="41.66702144744957" lon="19.857274163294157"><ele>149.33333333333334</ele><time>2026-05-05T11:14:08Z</time></trkpt><trkpt lat="41.667172376244665" lon="19.857071438435014"><ele>151.66666666666669</ele><time>2026-05-05T11:14:09Z</time></trkpt><trkpt lat="41.66732855947903" lon="19.856881306009225"><ele>154.0</ele><time>2026-05-05T11:14:10Z</time></trkpt><trkpt lat="41.66748873736861" lon="19.8567256172943"><ele>150.0</ele><time>2026-05-05T11:14:11Z</time></trkpt><trkpt lat="41.66766000892917" lon="19.856599840634534"><ele>146.0</ele><time>2026-05-05T11:14:12Z</time></trkpt><trkpt lat="41.66783835387994" lon="19.85647764357642"><ele>142.0</ele><time>2026-05-05T11:14:13Z</time></trkpt><trkpt lat="41.66802446087126" lon="19.856356615622385"><ele>142.0</ele><time>2026-05-05T11:14:14Z</time></trkpt><trkpt lat="41.66821813857327" lon="19.856232472728678"><ele>142.0</ele><time>2026-05-05T11:14:15Z</time></trkpt><trkpt lat="41.668416520146565" lon="19.856109566621324"><ele>142.0</ele><time>2026-05-05T11:14:16Z</time></trkpt><trkpt lat="41.66861208619293" lon="19.85599307083955"><ele>133.33333333333334</ele><time>2026-05-05T11:14:17Z</time></trkpt><trkpt lat="41.66879380344473" lon="19.85589258440984"><ele>124.66666666666666</ele><time>2026-05-05T11:14:18Z</time></trkpt><trkpt lat="41.66896516349183" lon="19.85581440982605"><ele>116.0</ele><time>2026-05-05T11:14:19Z</time></trkpt><trkpt lat="41.66913435237219" lon="19.85576891341122"><ele>116.0</ele><time>2026-05-05T11:14:20Z</time></trkpt><trkpt lat="41.669295941716875" lon="19.85576285922153"><ele>116.0</ele><time>2026-05-05T11:14:21Z</time></trkpt><trkpt lat="41.66945217483981" lon="19.855799562038662"><ele>116.0</ele><time>2026-05-05T11:14:22Z</time></trkpt><trkpt lat="41.669590622768794" lon="19.855843455171215"><ele>118.8</ele><time>2026-05-05T11:14:23Z</time></trkpt><trkpt lat="41.6697015209277" lon="19.855856806688145"><ele>121.6</ele><time>2026-05-05T11:14:24Z</time></trkpt><trkpt lat="41.66979165562273" lon="19.855809969694675"><ele>124.4</ele><time>2026-05-05T11:14:25Z</time></trkpt><trkpt lat="41.66985281067596" lon="19.85571866855554"><ele>127.2</ele><time>2026-05-05T11:14:26Z</time></trkpt><trkpt lat="41.669875002779364" lon="19.855595519940096"><ele>130.0</ele><time>2026-05-05T11:14:27Z</time></trkpt><trkpt lat="41.66986220590311" lon="19.855435511817394"><ele>130.0</ele><time>2026-05-05T11:14:28Z</time></trkpt><trkpt lat="41.669853505447946" lon="19.855262183529295"><ele>130.0</ele><time>2026-05-05T11:14:29Z</time></trkpt><trkpt lat="41.66989046542057" lon="19.855126360344467"><ele>130.0</ele><time>2026-05-05T11:14:30Z</time></trkpt><trkpt lat="41.66997361412121" lon="19.855036960744552"><ele>130.0</ele><time>2026-05-05T11:14:31Z</time></trkpt><trkpt lat="41.67010742792543" lon="19.85497874839446"><ele>122.66666666666667</ele><time>2026-05-05T11:14:32Z</time></trkpt><trkpt lat="41.670255894449454" lon="19.854935595259857"><ele>115.33333333333334</ele><time>2026-05-05T11:14:33Z</time></trkpt><trkpt lat="41.670408416197596" lon="19.85489726034177"><ele>108.0</ele><time>2026-05-05T11:14:34Z</time></trkpt><trkpt lat="41.67057276245333" lon="19.854868523294556"><ele>108.0</ele><time>2026-05-05T11:14:35Z</time></trkpt><trkpt lat="41.67074132349368" lon="19.85487157917059"><ele>108.0</ele><time>2026-05-05T11:14:36Z</time></trkpt><trkpt lat="41.670881503242484" lon="19.854915121594935"><ele>108.0</ele><time>2026-05-05T11:14:37Z</time></trkpt><trkpt lat="41.670982907038805" lon="19.855000450054117"><ele>108.0</ele><time>2026-05-05T11:14:38Z</time></trkpt><trkpt lat="41.67104755428203" lon="19.855136945387763"><ele>113.25</ele><time>2026-05-05T11:14:39Z</time></trkpt><trkpt lat="41.67109613766262" lon="19.85531350477427"><ele>118.5</ele><time>2026-05-05T11:14:40Z</time></trkpt><trkpt lat="41.67116793083742" lon="19.855471916038557"><ele>123.75</ele><time>2026-05-05T11:14:41Z</time></trkpt><trkpt lat="41.671283939566294" lon="19.855565288458198"><ele>129.0</ele><time>2026-05-05T11:14:42Z</time></trkpt><trkpt lat="41.67141548974179" lon="19.855607929570574"><ele>129.0</ele><time>2026-05-05T11:14:43Z</time></trkpt><trkpt lat="41.67154400952185" lon="19.855601075751004"><ele>129.0</ele><time>2026-05-05T11:14:44Z</time></trkpt><trkpt lat="41.67164619174566" lon="19.855542482056258"><ele>129.0</ele><time>2026-05-05T11:14:45Z</time></trkpt><trkpt lat="41.671719114963636" lon="19.855447218082787"><ele>129.0</ele><time>2026-05-05T11:14:46Z</time></trkpt><trkpt lat="41.67175169857848" lon="19.855279254111196"><ele>124.5</ele><time>2026-05-05T11:14:47Z</time></trkpt><trkpt lat="41.67178491782261" lon="19.85511065062569"><ele>120.0</ele><time>2026-05-05T11:14:48Z</time></trkpt><trkpt lat="41.671848746970525" lon="19.85498828894756"><ele>115.5</ele><time>2026-05-05T11:14:49Z</time></trkpt><trkpt lat="41.67194497596737" lon="19.85493286681158"><ele>111.0</ele><time>2026-05-05T11:14:50Z</time></trkpt><trkpt lat="41.672063688738845" lon="19.85493061036352"><ele>111.0</ele><time>2026-05-05T11:14:51Z</time></trkpt><trkpt lat="41.67220319944393" lon="19.85496452927194"><ele>111.0</ele><time>2026-05-05T11:14:51.999Z</time></trkpt><trkpt lat="41.672324486739406" lon="19.85498510160728"><ele>111.0</ele><time>2026-05-05T11:14:52.999Z</time></trkpt><trkpt lat="41.672414322117945" lon="19.854989004879734"><ele>111.0</ele><time>2026-05-05T11:14:53.999Z</time></trkpt><trkpt lat="41.6724976868483" lon="19.854957664968882"><ele>111.0</ele><time>2026-05-05T11:14:55.999Z</time></trkpt><trkpt lat="41.672572911916404" lon="19.854944175237872"><ele>111.0</ele><time>2026-05-05T11:14:57.999Z</time></trkpt><trkpt lat="41.672635761079185" lon="19.854938039572577"><ele>111.0</ele><time>2026-05-05T11:15:05.999Z</time></trkpt><trkpt lat="41.672607218048256" lon="19.855056576875583"><ele>111.0</ele><time>2026-05-05T11:15:51Z</time></trkpt><trkpt lat="41.672609155102165" lon="19.855208005366336"><ele>111.0</ele><time>2026-05-05T11:15:53Z</time></trkpt><trkpt lat="41.67264194519223" lon="19.855326438651442"><ele>111.0</ele><time>2026-05-05T11:15:54Z</time></trkpt><trkpt lat="41.67267259091289" lon="19.855435190838325"><ele>113.6</ele><time>2026-05-05T11:15:55Z</time></trkpt><trkpt lat="41.672712394272004" lon="19.85554883663549"><ele>116.19999999999999</ele><time>2026-05-05T11:15:56Z</time></trkpt><trkpt lat="41.67277541702843" lon="19.855655689700747"><ele>118.80000000000001</ele><time>2026-05-05T11:15:57Z</time></trkpt><trkpt lat="41.6728705957637" lon="19.855731431683566"><ele>121.4</ele><time>2026-05-05T11:15:58Z</time></trkpt><trkpt lat="41.6729811442425" lon="19.85575633916641"><ele>124.0</ele><time>2026-05-05T11:15:59Z</time></trkpt><trkpt lat="41.67308940037151" lon="19.85571287010664"><ele>124.0</ele><time>2026-05-05T11:16:00Z</time></trkpt><trkpt lat="41.67317009090683" lon="19.855604320472395"><ele>124.0</ele><time>2026-05-05T11:16:01Z</time></trkpt><trkpt lat="41.6732250240623" lon="19.855447901198463"><ele>124.0</ele><time>2026-05-05T11:16:02Z</time></trkpt><trkpt lat="41.67325548511439" lon="19.855288249782436"><ele>124.0</ele><time>2026-05-05T11:16:03Z</time></trkpt><trkpt lat="41.67330692760461" lon="19.855148207763936"><ele>121.0</ele><time>2026-05-05T11:16:04Z</time></trkpt><trkpt lat="41.6733746265345" lon="19.855017064941542"><ele>118.0</ele><time>2026-05-05T11:16:05Z</time></trkpt><trkpt lat="41.67347683659044" lon="19.854913318131068"><ele>115.0</ele><time>2026-05-05T11:16:06Z</time></trkpt><trkpt lat="41.67359124841392" lon="19.854862684662027"><ele>112.0</ele><time>2026-05-05T11:16:07Z</time></trkpt><trkpt lat="41.67372265746934" lon="19.854879170718657"><ele>112.0</ele><time>2026-05-05T11:16:08Z</time></trkpt><trkpt lat="41.67385724621514" lon="19.854916136027285"><ele>112.0</ele><time>2026-05-05T11:16:09Z</time></trkpt><trkpt lat="41.67399684133614" lon="19.854962008187716"><ele>112.0</ele><time>2026-05-05T11:16:10Z</time></trkpt><trkpt lat="41.6741203833367" lon="19.854999982105607"><ele>112.0</ele><time>2026-05-05T11:16:11Z</time></trkpt><trkpt lat="41.674212978156916" lon="19.8550045154031"><ele>112.0</ele><time>2026-05-05T11:16:12Z</time></trkpt><trkpt lat="41.674285147907725" lon="19.8548949030559"><ele>112.0</ele><time>2026-05-05T11:16:13Z</time></trkpt><trkpt lat="41.67435743541597" lon="19.854747457656824"><ele>112.0</ele><time>2026-05-05T11:16:14Z</time></trkpt><trkpt lat="41.674437751262936" lon="19.854598063741822"><ele>112.0</ele><time>2026-05-05T11:16:15Z</time></trkpt><trkpt lat="41.67455619131686" lon="19.854475700698504"><ele>108.0</ele><time>2026-05-05T11:16:16Z</time></trkpt><trkpt lat="41.674718107540386" lon="19.854367433677396"><ele>104.0</ele><time>2026-05-05T11:16:17Z</time></trkpt><trkpt lat="41.67487502835243" lon="19.854268703072293"><ele>100.0</ele><time>2026-05-05T11:16:18Z</time></trkpt><trkpt lat="41.675044090956675" lon="19.85416010678829"><ele>100.0</ele><time>2026-05-05T11:16:19Z</time></trkpt><trkpt lat="41.67521644112739" lon="19.854049635826907"><ele>100.0</ele><time>2026-05-05T11:16:20Z</time></trkpt><trkpt lat="41.67539183116378" lon="19.85393482048793"><ele>100.0</ele><time>2026-05-05T11:16:21Z</time></trkpt><trkpt lat="41.675565333973715" lon="19.853805228341386"><ele>96.0</ele><time>2026-05-05T11:16:22Z</time></trkpt><trkpt lat="41.675733015041" lon="19.853665751623357"><ele>92.0</ele><time>2026-05-05T11:16:23Z</time></trkpt><trkpt lat="41.67589318482853" lon="19.85352985563639"><ele>88.0</ele><time>2026-05-05T11:16:24Z</time></trkpt><trkpt lat="41.67604617312177" lon="19.853402730262246"><ele>94.33333333333333</ele><time>2026-05-05T11:16:25Z</time></trkpt><trkpt lat="41.67620138984327" lon="19.853274798178457"><ele>100.66666666666666</ele><time>2026-05-05T11:16:26Z</time></trkpt><trkpt lat="41.67634843480025" lon="19.85315489475811"><ele>107.0</ele><time>2026-05-05T11:16:27Z</time></trkpt><trkpt lat="41.67649767921902" lon="19.853042023427136"><ele>107.0</ele><time>2026-05-05T11:16:28Z</time></trkpt><trkpt lat="41.676645168845845" lon="19.85294644585945"><ele>107.0</ele><time>2026-05-05T11:16:29Z</time></trkpt><trkpt lat="41.67678839264561" lon="19.852847820839255"><ele>107.0</ele><time>2026-05-05T11:16:30Z</time></trkpt><trkpt lat="41.67692213389741" lon="19.85276156816907"><ele>109.0</ele><time>2026-05-05T11:16:31Z</time></trkpt><trkpt lat="41.67704537596102" lon="19.852722019888038"><ele>111.0</ele><time>2026-05-05T11:16:32Z</time></trkpt><trkpt lat="41.67717603976212" lon="19.852734240413735"><ele>113.0</ele><time>2026-05-05T11:16:33Z</time></trkpt><trkpt lat="41.677317296065574" lon="19.85279547150666"><ele>115.0</ele><time>2026-05-05T11:16:34Z</time></trkpt><trkpt lat="41.67747107134418" lon="19.852892270411147"><ele>115.0</ele><time>2026-05-05T11:16:35Z</time></trkpt><trkpt lat="41.67762344787738" lon="19.85298717253828"><ele>115.0</ele><time>2026-05-05T11:16:36Z</time></trkpt><trkpt lat="41.67776149038495" lon="19.853047531278712"><ele>115.0</ele><time>2026-05-05T11:16:37Z</time></trkpt><trkpt lat="41.67787444345597" lon="19.853070464442116"><ele>115.0</ele><time>2026-05-05T11:16:38Z</time></trkpt><trkpt lat="41.67795898559618" lon="19.853041601260212"><ele>116.16666666666667</ele><time>2026-05-05T11:16:39Z</time></trkpt><trkpt lat="41.67801411978567" lon="19.85297547507495"><ele>117.33333333333334</ele><time>2026-05-05T11:16:40Z</time></trkpt><trkpt lat="41.67803143800248" lon="19.852890683782753"><ele>118.5</ele><time>2026-05-05T11:16:41Z</time></trkpt><trkpt lat="41.67804079771201" lon="19.852784778765773"><ele>119.66666666666666</ele><time>2026-05-05T11:16:42Z</time></trkpt><trkpt lat="41.67805220369689" lon="19.852662882694613"><ele>120.83333333333333</ele><time>2026-05-05T11:16:43Z</time></trkpt><trkpt lat="41.67806006229918" lon="19.852544275438127"><ele>122.0</ele><time>2026-05-05T11:16:44Z</time></trkpt><trkpt lat="41.67805727283141" lon="19.852428456719313"><ele>121.99999999999999</ele><time>2026-05-05T11:16:45Z</time></trkpt><trkpt lat="41.678049561156094" lon="19.852326309855407"><ele>122.0</ele><time>2026-05-05T11:16:46Z</time></trkpt><trkpt lat="41.678039105328686" lon="19.852239139920748"><ele>122.0</ele><time>2026-05-05T11:16:47Z</time></trkpt><trkpt lat="41.67802826632708" lon="19.852150695871977"><ele>122.0</ele><time>2026-05-05T11:16:48Z</time></trkpt><trkpt lat="41.67802175135148" lon="19.852051707079074"><ele>121.99999999999999</ele><time>2026-05-05T11:16:49Z</time></trkpt><trkpt lat="41.678023549653155" lon="19.851940445609188"><ele>122.0</ele><time>2026-05-05T11:16:50Z</time></trkpt><trkpt lat="41.678022484579635" lon="19.85182758240696"><ele>121.6</ele><time>2026-05-05T11:16:50.999Z</time></trkpt><trkpt lat="41.678011744744964" lon="19.851709921417026"><ele>121.19999999999999</ele><time>2026-05-05T11:16:51.999Z</time></trkpt><trkpt lat="41.67799590852289" lon="19.851588827332304"><ele>120.8</ele><time>2026-05-05T11:16:52.999Z</time></trkpt><trkpt lat="41.67799309787897" lon="19.85147163128749"><ele>120.4</ele><time>2026-05-05T11:16:53.999Z</time></trkpt><trkpt lat="41.67800605406279" lon="19.851348152486906"><ele>120.0</ele><time>2026-05-05T11:16:54.999Z</time></trkpt><trkpt lat="41.678034998010446" lon="19.851214378781673"><ele>120.0</ele><time>2026-05-05T11:16:55.999Z</time></trkpt><trkpt lat="41.67807988497264" lon="19.851067350766233"><ele>120.0</ele><time>2026-05-05T11:16:56.999Z</time></trkpt><trkpt lat="41.678130100916675" lon="19.850914561525457"><ele>120.0</ele><time>2026-05-05T11:16:57.999Z</time></trkpt><trkpt lat="41.678184321508105" lon="19.850755333926095"><ele>120.0</ele><time>2026-05-05T11:16:58.999Z</time></trkpt><trkpt lat="41.678233160264895" lon="19.85058386583227"><ele>117.25</ele><time>2026-05-05T11:16:59.999Z</time></trkpt><trkpt lat="41.67827082021358" lon="19.850406199922578"><ele>114.5</ele><time>2026-05-05T11:17:00.999Z</time></trkpt><trkpt lat="41.67831665529678" lon="19.850225538786177"><ele>111.75</ele><time>2026-05-05T11:17:01.999Z</time></trkpt><trkpt lat="41.67836927957572" lon="19.850064208422886"><ele>109.0</ele><time>2026-05-05T11:17:02.999Z</time></trkpt><trkpt lat="41.67845291820374" lon="19.849926251607133"><ele>105.0</ele><time>2026-05-05T11:17:03.999Z</time></trkpt><trkpt lat="41.67857317743445" lon="19.84983585798996"><ele>101.0</ele><time>2026-05-05T11:17:04.999Z</time></trkpt><trkpt lat="41.678703797732254" lon="19.84978036413541"><ele>97.0</ele><time>2026-05-05T11:17:05.999Z</time></trkpt><trkpt lat="41.678832287023425" lon="19.849771364045"><ele>93.0</ele><time>2026-05-05T11:17:06.999Z</time></trkpt><trkpt lat="41.678929646603116" lon="19.849725192275184"><ele>100.25</ele><time>2026-05-05T11:17:07.999Z</time></trkpt><trkpt lat="41.6789818335288" lon="19.8496234256175"><ele>107.5</ele><time>2026-05-05T11:17:08.999Z</time></trkpt><trkpt lat="41.67898619527424" lon="19.849475156256567"><ele>114.75</ele><time>2026-05-05T11:17:09.999Z</time></trkpt><trkpt lat="41.67894245524319" lon="19.849329411926536"><ele>122.0</ele><time>2026-05-05T11:17:10.999Z</time></trkpt><trkpt lat="41.67885791990456" lon="19.849189492944074"><ele>122.0</ele><time>2026-05-05T11:17:11.999Z</time></trkpt><trkpt lat="41.67876185772949" lon="19.84903470692849"><ele>122.0</ele><time>2026-05-05T11:17:12.999Z</time></trkpt><trkpt lat="41.67870497805071" lon="19.848879744347308"><ele>122.0</ele><time>2026-05-05T11:17:13.999Z</time></trkpt><trkpt lat="41.678707240272786" lon="19.84871789447273"><ele>122.0</ele><time>2026-05-05T11:17:14.999Z</time></trkpt><trkpt lat="41.67875410319079" lon="19.84855887217927"><ele>121.0</ele><time>2026-05-05T11:17:15.999Z</time></trkpt><trkpt lat="41.67884578792866" lon="19.848406601267275"><ele>120.0</ele><time>2026-05-05T11:17:17Z</time></trkpt><trkpt lat="41.67895978998916" lon="19.84826339520367"><ele>119.0</ele><time>2026-05-05T11:17:18Z</time></trkpt><trkpt lat="41.67908100215148" lon="19.84810268260928"><ele>119.0</ele><time>2026-05-05T11:17:19Z</time></trkpt><trkpt lat="41.67919791260176" lon="19.84792807464742"><ele>119.0</ele><time>2026-05-05T11:17:20Z</time></trkpt><trkpt lat="41.67931124662523" lon="19.847742291176523"><ele>119.0</ele><time>2026-05-05T11:17:21Z</time></trkpt><trkpt lat="41.67942351797528" lon="19.84755259451335"><ele>120.0</ele><time>2026-05-05T11:17:22Z</time></trkpt><trkpt lat="41.67952892555572" lon="19.847379689612925"><ele>121.0</ele><time>2026-05-05T11:17:23Z</time></trkpt><trkpt lat="41.679642921769876" lon="19.84723407905611"><ele>122.0</ele><time>2026-05-05T11:17:24Z</time></trkpt><trkpt lat="41.67975724317425" lon="19.84715036774509"><ele>122.0</ele><time>2026-05-05T11:17:25Z</time></trkpt><trkpt lat="41.6798749220027" lon="19.84714230421517"><ele>122.0</ele><time>2026-05-05T11:17:26Z</time></trkpt><trkpt lat="41.679991731019555" lon="19.847200378882757"><ele>122.0</ele><time>2026-05-05T11:17:27Z</time></trkpt><trkpt lat="41.680121424746076" lon="19.84727108271441"><ele>122.0</ele><time>2026-05-05T11:17:28Z</time></trkpt><trkpt lat="41.680254407674624" lon="19.847287996104473"><ele>128.5</ele><time>2026-05-05T11:17:29Z</time></trkpt><trkpt lat="41.680380714039345" lon="19.847241572395635"><ele>135.0</ele><time>2026-05-05T11:17:30Z</time></trkpt><trkpt lat="41.680504002902815" lon="19.84712357617428"><ele>141.5</ele><time>2026-05-05T11:17:31Z</time></trkpt><trkpt lat="41.68063041220643" lon="19.84697908583394"><ele>148.0</ele><time>2026-05-05T11:17:32Z</time></trkpt><trkpt lat="41.68076761933285" lon="19.846819691938837"><ele>145.0</ele><time>2026-05-05T11:17:33Z</time></trkpt><trkpt lat="41.68091504132585" lon="19.846680335637984"><ele>142.0</ele><time>2026-05-05T11:17:34Z</time></trkpt><trkpt lat="41.68109037094273" lon="19.846548451310827"><ele>139.0</ele><time>2026-05-05T11:17:35Z</time></trkpt><trkpt lat="41.68128213056126" lon="19.846423749480483"><ele>139.0</ele><time>2026-05-05T11:17:36Z</time></trkpt><trkpt lat="41.68147669461314" lon="19.846289835010335"><ele>139.0</ele><time>2026-05-05T11:17:37Z</time></trkpt><trkpt lat="41.68164620813264" lon="19.846162339243257"><ele>139.0</ele><time>2026-05-05T11:17:38Z</time></trkpt><trkpt lat="41.681798951682005" lon="19.846075027558147"><ele>133.66666666666669</ele><time>2026-05-05T11:17:39Z</time></trkpt><trkpt lat="41.681974425853504" lon="19.8460087581083"><ele>128.33333333333334</ele><time>2026-05-05T11:17:40Z</time></trkpt><trkpt lat="41.68217023635816" lon="19.84594297137243"><ele>123.0</ele><time>2026-05-05T11:17:41Z</time></trkpt><trkpt lat="41.68236490284769" lon="19.845843232034095"><ele>123.0</ele><time>2026-05-05T11:17:41.999Z</time></trkpt><trkpt lat="41.682555782132454" lon="19.84571507753051"><ele>123.0</ele><time>2026-05-05T11:17:42.999Z</time></trkpt><trkpt lat="41.68273789682388" lon="19.845587569655365"><ele>123.0</ele><time>2026-05-05T11:17:43.999Z</time></trkpt><trkpt lat="41.682916908874915" lon="19.84548419736247"><ele>132.0</ele><time>2026-05-05T11:17:44.999Z</time></trkpt><trkpt lat="41.683104883075345" lon="19.845388215387235"><ele>141.0</ele><time>2026-05-05T11:17:45.999Z</time></trkpt><trkpt lat="41.68328119055347" lon="19.845292661355938"><ele>150.0</ele><time>2026-05-05T11:17:46.999Z</time></trkpt><trkpt lat="41.68344923046949" lon="19.84518394266976"><ele>144.66666666666666</ele><time>2026-05-05T11:17:47.999Z</time></trkpt><trkpt lat="41.6836032148725" lon="19.845068967964092"><ele>139.33333333333331</ele><time>2026-05-05T11:17:48.999Z</time></trkpt><trkpt lat="41.68375931963819" lon="19.844961305709695"><ele>134.0</ele><time>2026-05-05T11:17:49.999Z</time></trkpt><trkpt lat="41.68392247746871" lon="19.844882123554004"><ele>134.0</ele><time>2026-05-05T11:17:50.999Z</time></trkpt><trkpt lat="41.68408646714437" lon="19.844830781363246"><ele>134.0</ele><time>2026-05-05T11:17:51.999Z</time></trkpt><trkpt lat="41.68425693576241" lon="19.844782198965312"><ele>134.0</ele><time>2026-05-05T11:17:52.999Z</time></trkpt><trkpt lat="41.6844205211748" lon="19.84474178813276"><ele>131.75</ele><time>2026-05-05T11:17:53.999Z</time></trkpt><trkpt lat="41.68457311135309" lon="19.844715298095878"><ele>129.5</ele><time>2026-05-05T11:17:54.999Z</time></trkpt><trkpt lat="41.684713848484456" lon="19.84472289503881"><ele>127.25</ele><time>2026-05-05T11:17:55.999Z</time></trkpt><trkpt lat="41.68485128819043" lon="19.84477312610903"><ele>125.0</ele><time>2026-05-05T11:17:56.999Z</time></trkpt><trkpt lat="41.68498565864797" lon="19.844850690134038"><ele>125.0</ele><time>2026-05-05T11:17:57.999Z</time></trkpt><trkpt lat="41.68511660590729" lon="19.84493957514326"><ele>125.0</ele><time>2026-05-05T11:17:58.999Z</time></trkpt><trkpt lat="41.68523396352632" lon="19.845038128484347"><ele>125.0</ele><time>2026-05-05T11:17:59.999Z</time></trkpt><trkpt lat="41.685319764287236" lon="19.8451690219528"><ele>125.0</ele><time>2026-05-05T11:18:00.999Z</time></trkpt><trkpt lat="41.68537696945858" lon="19.84533049627363"><ele>127.6</ele><time>2026-05-05T11:18:01.999Z</time></trkpt><trkpt lat="41.68540491309439" lon="19.845500934922384"><ele>130.2</ele><time>2026-05-05T11:18:02.999Z</time></trkpt><trkpt lat="41.68543185293548" lon="19.845642660123595"><ele>132.8</ele><time>2026-05-05T11:18:03.999Z</time></trkpt><trkpt lat="41.6854871246227" lon="19.84575002848595"><ele>135.4</ele><time>2026-05-05T11:18:04.999Z</time></trkpt><trkpt lat="41.68556075670659" lon="19.845802343494864"><ele>138.0</ele><time>2026-05-05T11:18:05.999Z</time></trkpt><trkpt lat="41.68564107647307" lon="19.845811313350712"><ele>138.0</ele><time>2026-05-05T11:18:06.999Z</time></trkpt><trkpt lat="41.68572281443874" lon="19.845784642496362"><ele>138.0</ele><time>2026-05-05T11:18:07.999Z</time></trkpt><trkpt lat="41.685803871056905" lon="19.845718981680623"><ele>138.0</ele><time>2026-05-05T11:18:08.999Z</time></trkpt><trkpt lat="41.68587318167185" lon="19.845643480997808"><ele>138.0</ele><time>2026-05-05T11:18:09.999Z</time></trkpt><trkpt lat="41.68591805985541" lon="19.845537472279375"><ele>138.0</ele><time>2026-05-05T11:18:10.999Z</time></trkpt><trkpt lat="41.685957726279895" lon="19.845388066958645"><ele>138.0</ele><time>2026-05-05T11:18:11.999Z</time></trkpt><trkpt lat="41.68599915008336" lon="19.845223710348744"><ele>138.0</ele><time>2026-05-05T11:18:12.999Z</time></trkpt><trkpt lat="41.6860251427066" lon="19.845058170911955"><ele>138.0</ele><time>2026-05-05T11:18:13.999Z</time></trkpt><trkpt lat="41.68601882270984" lon="19.84485291000108"><ele>138.0</ele><time>2026-05-05T11:18:14.999Z</time></trkpt><trkpt lat="41.68601824248383" lon="19.844635012351283"><ele>135.75</ele><time>2026-05-05T11:18:15.999Z</time></trkpt><trkpt lat="41.68604198894081" lon="19.8444387522426"><ele>133.5</ele><time>2026-05-05T11:18:16.999Z</time></trkpt><trkpt lat="41.68608184954066" lon="19.844287631218382"><ele>131.25</ele><time>2026-05-05T11:18:17.999Z</time></trkpt><trkpt lat="41.686155640024324" lon="19.84419221926574"><ele>129.0</ele><time>2026-05-05T11:18:18.999Z</time></trkpt><trkpt lat="41.68626866632971" lon="19.84410382388121"><ele>129.0</ele><time>2026-05-05T11:18:19.999Z</time></trkpt><trkpt lat="41.686407337152126" lon="19.844017836747348"><ele>129.0</ele><time>2026-05-05T11:18:20.999Z</time></trkpt><trkpt lat="41.68653683632671" lon="19.84391811796557"><ele>129.0</ele><time>2026-05-05T11:18:21.999Z</time></trkpt><trkpt lat="41.68667576553568" lon="19.84382424612161"><ele>129.0</ele><time>2026-05-05T11:18:22.999Z</time></trkpt><trkpt lat="41.6868188416607" lon="19.843727597107645"><ele>129.0</ele><time>2026-05-05T11:18:23.999Z</time></trkpt><trkpt lat="41.68694396141108" lon="19.84361751791711"><ele>129.0</ele><time>2026-05-05T11:18:24.999Z</time></trkpt><trkpt lat="41.687077583302006" lon="19.843508703330222"><ele>127.0</ele><time>2026-05-05T11:18:25.999Z</time></trkpt><trkpt lat="41.68721455384629" lon="19.843436302703136"><ele>125.0</ele><time>2026-05-05T11:18:26.999Z</time></trkpt><trkpt lat="41.68735979627252" lon="19.84335359834167"><ele>123.0</ele><time>2026-05-05T11:18:27.999Z</time></trkpt><trkpt lat="41.68749495876902" lon="19.843227494239972"><ele>123.0</ele><time>2026-05-05T11:18:28.999Z</time></trkpt><trkpt lat="41.68760536978086" lon="19.843064947970753"><ele>123.0</ele><time>2026-05-05T11:18:29.999Z</time></trkpt><trkpt lat="41.68771985576611" lon="19.842909906248305"><ele>123.0</ele><time>2026-05-05T11:18:30.999Z</time></trkpt><trkpt lat="41.68784604638193" lon="19.842765945656684"><ele>118.0</ele><time>2026-05-05T11:18:31.999Z</time></trkpt><trkpt lat="41.68798873321705" lon="19.84263322972824"><ele>113.0</ele><time>2026-05-05T11:18:32.999Z</time></trkpt><trkpt lat="41.68814759664174" lon="19.842514908879554"><ele>108.0</ele><time>2026-05-05T11:18:33.999Z</time></trkpt><trkpt lat="41.68828680973241" lon="19.84241757867817"><ele>108.0</ele><time>2026-05-05T11:18:34.999Z</time></trkpt><trkpt lat="41.68839520857305" lon="19.84232604154603"><ele>108.00000000000001</ele><time>2026-05-05T11:18:35.999Z</time></trkpt><trkpt lat="41.68848922757188" lon="19.842286655169342"><ele>108.00000000000001</ele><time>2026-05-05T11:18:36.999Z</time></trkpt><trkpt lat="41.68859332751832" lon="19.842315576273126"><ele>108.0</ele><time>2026-05-05T11:18:37.999Z</time></trkpt><trkpt lat="41.688682164847414" lon="19.84240203382012"><ele>108.0</ele><time>2026-05-05T11:18:38.999Z</time></trkpt><trkpt lat="41.68873432135144" lon="19.842536529018606"><ele>113.80000000000001</ele><time>2026-05-05T11:18:39.999Z</time></trkpt><trkpt lat="41.688754127329304" lon="19.84269847389222"><ele>119.60000000000001</ele><time>2026-05-05T11:18:40.999Z</time></trkpt><trkpt lat="41.68876195791132" lon="19.842850690266395"><ele>125.39999999999999</ele><time>2026-05-05T11:18:41.999Z</time></trkpt><trkpt lat="41.688812473306086" lon="19.842952926838482"><ele>131.2</ele><time>2026-05-05T11:18:42.999Z</time></trkpt><trkpt lat="41.68890947580125" lon="19.84298725049737"><ele>137.0</ele><time>2026-05-05T11:18:43.999Z</time></trkpt><trkpt lat="41.68900255158958" lon="19.842957494887422"><ele>137.0</ele><time>2026-05-05T11:18:44.999Z</time></trkpt><trkpt lat="41.68908329564998" lon="19.842849851408292"><ele>137.0</ele><time>2026-05-05T11:18:45.999Z</time></trkpt><trkpt lat="41.68915802030089" lon="19.84270164774238"><ele>137.0</ele><time>2026-05-05T11:18:46.999Z</time></trkpt><trkpt lat="41.689230118281344" lon="19.84251853055158"><ele>137.0</ele><time>2026-05-05T11:18:47.999Z</time></trkpt><trkpt lat="41.689302455207226" lon="19.84232312020549"><ele>130.0</ele><time>2026-05-05T11:18:48.999Z</time></trkpt><trkpt lat="41.68935330057334" lon="19.842093684081096"><ele>123.0</ele><time>2026-05-05T11:18:49.999Z</time></trkpt><trkpt lat="41.68936647462763" lon="19.84184553357822"><ele>116.0</ele><time>2026-05-05T11:18:50.999Z</time></trkpt><trkpt lat="41.68935257221583" lon="19.84158687498145"><ele>112.33333333333333</ele><time>2026-05-05T11:18:51.999Z</time></trkpt><trkpt lat="41.68934747725595" lon="19.841341535141556"><ele>108.66666666666666</ele><time>2026-05-05T11:18:52.999Z</time></trkpt><trkpt lat="41.68937302311354" lon="19.841129588627005"><ele>105.0</ele><time>2026-05-05T11:18:53.999Z</time></trkpt><trkpt lat="41.68940176297564" lon="19.840961131518817"><ele>105.0</ele><time>2026-05-05T11:18:54.999Z</time></trkpt><trkpt lat="41.689393487227434" lon="19.84083597581654"><ele>105.0</ele><time>2026-05-05T11:18:55.999Z</time></trkpt><trkpt lat="41.689346223885664" lon="19.840717459717567"><ele>105.0</ele><time>2026-05-05T11:18:56.999Z</time></trkpt><trkpt lat="41.68924179667553" lon="19.840624749883528"><ele>105.0</ele><time>2026-05-05T11:18:57.999Z</time></trkpt><trkpt lat="41.6891155008642" lon="19.840562783594574"><ele>105.0</ele><time>2026-05-05T11:18:58.999Z</time></trkpt><trkpt lat="41.688972898882014" lon="19.840510895717394"><ele>105.0</ele><time>2026-05-05T11:18:59.999Z</time></trkpt><trkpt lat="41.68883514815669" lon="19.840417149185694"><ele>105.0</ele><time>2026-05-05T11:19:00.999Z</time></trkpt><trkpt lat="41.688734926110406" lon="19.840284042432025"><ele>105.0</ele><time>2026-05-05T11:19:01.999Z</time></trkpt><trkpt lat="41.688677023427054" lon="19.840121392786983"><ele>110.0</ele><time>2026-05-05T11:19:02.999Z</time></trkpt><trkpt lat="41.68864504957788" lon="19.839932381539082"><ele>115.0</ele><time>2026-05-05T11:19:03.999Z</time></trkpt><trkpt lat="41.68860829481252" lon="19.83973090914679"><ele>120.0</ele><time>2026-05-05T11:19:04.999Z</time></trkpt><trkpt lat="41.6885727582515" lon="19.83951963732888"><ele>120.0</ele><time>2026-05-05T11:19:05.999Z</time></trkpt><trkpt lat="41.68857394024471" lon="19.839299375651542"><ele>120.0</ele><time>2026-05-05T11:19:06.999Z</time></trkpt><trkpt lat="41.6886157253637" lon="19.839070409635898"><ele>120.0</ele><time>2026-05-05T11:19:07.999Z</time></trkpt><trkpt lat="41.6886869953694" lon="19.838841179908133"><ele>120.0</ele><time>2026-05-05T11:19:08.999Z</time></trkpt><trkpt lat="41.68876744492137" lon="19.83864564207416"><ele>120.0</ele><time>2026-05-05T11:19:09.999Z</time></trkpt><trkpt lat="41.68884881428005" lon="19.838477890987274"><ele>120.0</ele><time>2026-05-05T11:19:10.999Z</time></trkpt><trkpt lat="41.68891361272118" lon="19.838328870391926"><ele>120.0</ele><time>2026-05-05T11:19:11.999Z</time></trkpt><trkpt lat="41.68896233818313" lon="19.838179080426322"><ele>116.2</ele><time>2026-05-05T11:19:12.999Z</time></trkpt><trkpt lat="41.6890177188414" lon="19.838052001747354"><ele>112.4</ele><time>2026-05-05T11:19:13.999Z</time></trkpt><trkpt lat="41.689099326121074" lon="19.837949711967866"><ele>108.6</ele><time>2026-05-05T11:19:14.999Z</time></trkpt><trkpt lat="41.6892102195106" lon="19.83793218298721"><ele>104.8</ele><time>2026-05-05T11:19:15.999Z</time></trkpt><trkpt lat="41.689316816484094" lon="19.83794473285741"><ele>101.0</ele><time>2026-05-05T11:19:16.999Z</time></trkpt><trkpt lat="41.68942094740852" lon="19.837958912695687"><ele>103.8</ele><time>2026-05-05T11:19:17.999Z</time></trkpt><trkpt lat="41.68951824458493" lon="19.83794570579743"><ele>106.6</ele><time>2026-05-05T11:19:18.999Z</time></trkpt><trkpt lat="41.68960331392967" lon="19.837881702704387"><ele>109.4</ele><time>2026-05-05T11:19:19.999Z</time></trkpt><trkpt lat="41.68965975119177" lon="19.837763756230853"><ele>112.2</ele><time>2026-05-05T11:19:20.999Z</time></trkpt><trkpt lat="41.68966623288825" lon="19.83760869508337"><ele>115.0</ele><time>2026-05-05T11:19:21.999Z</time></trkpt><trkpt lat="41.68962065148538" lon="19.837429725139845"><ele>115.0</ele><time>2026-05-05T11:19:23Z</time></trkpt><trkpt lat="41.68959112356231" lon="19.837245780206086"><ele>115.0</ele><time>2026-05-05T11:19:24Z</time></trkpt><trkpt lat="41.68958224154341" lon="19.837050614886714"><ele>115.0</ele><time>2026-05-05T11:19:25Z</time></trkpt><trkpt lat="41.689611409835834" lon="19.836871569451898"><ele>115.0</ele><time>2026-05-05T11:19:26Z</time></trkpt><trkpt lat="41.689675534779035" lon="19.83672163981123"><ele>112.0</ele><time>2026-05-05T11:19:27Z</time></trkpt><trkpt lat="41.68978020389229" lon="19.83662493095708"><ele>109.0</ele><time>2026-05-05T11:19:28Z</time></trkpt><trkpt lat="41.68990112010615" lon="19.83655267971159"><ele>106.0</ele><time>2026-05-05T11:19:29Z</time></trkpt><trkpt lat="41.69004699922814" lon="19.836508867728426"><ele>103.0</ele><time>2026-05-05T11:19:30Z</time></trkpt><trkpt lat="41.690198501651956" lon="19.836486792067937"><ele>108.0</ele><time>2026-05-05T11:19:31Z</time></trkpt><trkpt lat="41.69035651216599" lon="19.83646975697978"><ele>113.0</ele><time>2026-05-05T11:19:32Z</time></trkpt><trkpt lat="41.69050087169335" lon="19.836424361765943"><ele>118.0</ele><time>2026-05-05T11:19:33Z</time></trkpt><trkpt lat="41.690639243801975" lon="19.836338042295733"><ele>118.0</ele><time>2026-05-05T11:19:34Z</time></trkpt><trkpt lat="41.690775172078844" lon="19.83621922819302"><ele>118.0</ele><time>2026-05-05T11:19:35Z</time></trkpt><trkpt lat="41.690909544072525" lon="19.83608811178412"><ele>118.0</ele><time>2026-05-05T11:19:36Z</time></trkpt><trkpt lat="41.69105049365343" lon="19.83596455860206"><ele>114.33333333333334</ele><time>2026-05-05T11:19:37Z</time></trkpt><trkpt lat="41.69120034452457" lon="19.835832812626418"><ele>110.66666666666666</ele><time>2026-05-05T11:19:38Z</time></trkpt><trkpt lat="41.69133114207852" lon="19.83569938093511"><ele>107.0</ele><time>2026-05-05T11:19:39Z</time></trkpt><trkpt lat="41.691447346879215" lon="19.835551938525196"><ele>107.0</ele><time>2026-05-05T11:19:40Z</time></trkpt><trkpt lat="41.69156333304146" lon="19.8353830012006"><ele>107.0</ele><time>2026-05-05T11:19:41Z</time></trkpt><trkpt lat="41.69168834384102" lon="19.835199805260267"><ele>107.0</ele><time>2026-05-05T11:19:42Z</time></trkpt><trkpt lat="41.69183186373704" lon="19.83503053733539"><ele>105.66666666666666</ele><time>2026-05-05T11:19:43Z</time></trkpt><trkpt lat="41.69197346493884" lon="19.834899264782965"><ele>104.33333333333334</ele><time>2026-05-05T11:19:44Z</time></trkpt><trkpt lat="41.692123094841094" lon="19.83478997171029"><ele>103.0</ele><time>2026-05-05T11:19:45Z</time></trkpt><trkpt lat="41.69227707313201" lon="19.83471367521279"><ele>103.0</ele><time>2026-05-05T11:19:46Z</time></trkpt><trkpt lat="41.69241538434064" lon="19.834651813978784"><ele>103.0</ele><time>2026-05-05T11:19:47Z</time></trkpt><trkpt lat="41.692517741942524" lon="19.8345730234572"><ele>103.0</ele><time>2026-05-05T11:19:48Z</time></trkpt><trkpt lat="41.69257883792221" lon="19.83446945212474"><ele>103.0</ele><time>2026-05-05T11:19:49Z</time></trkpt><trkpt lat="41.692592982743996" lon="19.834340250572428"><ele>99.25</ele><time>2026-05-05T11:19:50Z</time></trkpt><trkpt lat="41.692561045654266" lon="19.83419469687944"><ele>95.5</ele><time>2026-05-05T11:19:51Z</time></trkpt><trkpt lat="41.69249156962502" lon="19.834075262035377"><ele>91.75</ele><time>2026-05-05T11:19:52Z</time></trkpt><trkpt lat="41.69237658766772" lon="19.83401569736049"><ele>88.0</ele><time>2026-05-05T11:19:53Z</time></trkpt><trkpt lat="41.69224866272564" lon="19.83398859183312"><ele>88.0</ele><time>2026-05-05T11:19:54Z</time></trkpt><trkpt lat="41.69213520732737" lon="19.833947606650522"><ele>88.0</ele><time>2026-05-05T11:19:55Z</time></trkpt><trkpt lat="41.69204626098392" lon="19.833856199679065"><ele>88.0</ele><time>2026-05-05T11:19:56Z</time></trkpt><trkpt lat="41.69200016042558" lon="19.833715599898856"><ele>88.0</ele><time>2026-05-05T11:19:57Z</time></trkpt><trkpt lat="41.69198630066566" lon="19.833534962139172"><ele>88.75</ele><time>2026-05-05T11:19:58Z</time></trkpt><trkpt lat="41.69198051288795" lon="19.833342604320702"><ele>89.5</ele><time>2026-05-05T11:19:59Z</time></trkpt><trkpt lat="41.691971929774134" lon="19.833157275600982"><ele>90.25</ele><time>2026-05-05T11:20:00Z</time></trkpt><trkpt lat="41.69197730236355" lon="19.832976383073248"><ele>91.0</ele><time>2026-05-05T11:20:01Z</time></trkpt><trkpt lat="41.692006730432354" lon="19.832786088304438"><ele>91.75</ele><time>2026-05-05T11:20:02Z</time></trkpt><trkpt lat="41.69204439414454" lon="19.83261510384155"><ele>92.5</ele><time>2026-05-05T11:20:03Z</time></trkpt><trkpt lat="41.69205825020562" lon="19.83246657279411"><ele>93.25</ele><time>2026-05-05T11:20:04Z</time></trkpt><trkpt lat="41.69204337969083" lon="19.832317023050525"><ele>94.0</ele><time>2026-05-05T11:20:05Z</time></trkpt><trkpt lat="41.692001925366746" lon="19.8321850709981"><ele>94.0</ele><time>2026-05-05T11:20:06Z</time></trkpt><trkpt lat="41.69195228445907" lon="19.832073631159115"><ele>94.0</ele><time>2026-05-05T11:20:07Z</time></trkpt><trkpt lat="41.69190640163062" lon="19.831973438167736"><ele>94.0</ele><time>2026-05-05T11:20:08Z</time></trkpt><trkpt lat="41.691879856761986" lon="19.83187852175028"><ele>94.0</ele><time>2026-05-05T11:20:09Z</time></trkpt><trkpt lat="41.69187330282052" lon="19.831781079050334"><ele>94.0</ele><time>2026-05-05T11:20:10Z</time></trkpt><trkpt lat="41.691889154554275" lon="19.831697006732714"><ele>94.0</ele><time>2026-05-05T11:20:11Z</time></trkpt><trkpt lat="41.691928807998494" lon="19.831588836712953"><ele>94.0</ele><time>2026-05-05T11:20:12Z</time></trkpt><trkpt lat="41.69199465352632" lon="19.831479236815664"><ele>94.0</ele><time>2026-05-05T11:20:13Z</time></trkpt><trkpt lat="41.69204497513452" lon="19.831380787064138"><ele>94.0</ele><time>2026-05-05T11:20:14Z</time></trkpt><trkpt lat="41.69209576716305" lon="19.8312887232125"><ele>94.0</ele><time>2026-05-05T11:20:15Z</time></trkpt><trkpt lat="41.692156548653564" lon="19.83121627821978"><ele>94.0</ele><time>2026-05-05T11:20:16Z</time></trkpt><trkpt lat="41.69220770271891" lon="19.831143437411075"><ele>94.0</ele><time>2026-05-05T11:20:17Z</time></trkpt><trkpt lat="41.692250368705054" lon="19.83107141417296"><ele>101.75</ele><time>2026-05-05T11:20:18Z</time></trkpt><trkpt lat="41.6922909426083" lon="19.830990133554558"><ele>109.5</ele><time>2026-05-05T11:20:19Z</time></trkpt><trkpt lat="41.69234471605211" lon="19.830916513015328"><ele>117.25</ele><time>2026-05-05T11:20:20.07Z</time></trkpt><trkpt lat="41.6923948904652" lon="19.830837506951895"><ele>125.0</ele><time>2026-05-05T11:20:21.052Z</time></trkpt><trkpt lat="41.69372775811748" lon="19.828719457874044"><ele>125.0</ele><time>2026-05-05T11:20:34.999Z</time></trkpt><trkpt lat="41.693795119019306" lon="19.828680293441636"><ele>125.0</ele><time>2026-05-05T11:20:35.999Z</time></trkpt><trkpt lat="41.69395485147107" lon="19.82858895424441"><ele>125.0</ele><time>2026-05-05T11:20:36.999Z</time></trkpt><trkpt lat="41.69404714755079" lon="19.828572533389302"><ele>125.0</ele><time>2026-05-05T11:20:37.999Z</time></trkpt><trkpt lat="41.69414597108714" lon="19.82852596892567"><ele>125.0</ele><time>2026-05-05T11:20:38.999Z</time></trkpt><trkpt lat="41.69425643669307" lon="19.828468279376644"><ele>116.0</ele><time>2026-05-05T11:20:39.999Z</time></trkpt><trkpt lat="41.69436456152407" lon="19.8283724282817"><ele>107.0</ele><time>2026-05-05T11:20:40.999Z</time></trkpt><trkpt lat="41.69446911866937" lon="19.828233728060848"><ele>98.0</ele><time>2026-05-05T11:20:41.999Z</time></trkpt><trkpt lat="41.69458595678988" lon="19.828072532095028"><ele>89.0</ele><time>2026-05-05T11:20:42.999Z</time></trkpt><trkpt lat="41.694720743913386" lon="19.82792927943954"><ele>89.0</ele><time>2026-05-05T11:20:43.999Z</time></trkpt><trkpt lat="41.694870380701346" lon="19.827813562497585"><ele>89.0</ele><time>2026-05-05T11:20:44.999Z</time></trkpt><trkpt lat="41.69503360757037" lon="19.82771296010104"><ele>89.0</ele><time>2026-05-05T11:20:45.999Z</time></trkpt><trkpt lat="41.69520784335871" lon="19.82763726504029"><ele>81.66666666666667</ele><time>2026-05-05T11:20:46.999Z</time></trkpt><trkpt lat="41.69538886373699" lon="19.827578249540917"><ele>74.33333333333333</ele><time>2026-05-05T11:20:47.999Z</time></trkpt><trkpt lat="41.69555833763568" lon="19.82752973015289"><ele>67.0</ele><time>2026-05-05T11:20:48.999Z</time></trkpt><trkpt lat="41.69572628078298" lon="19.827485289365306"><ele>67.0</ele><time>2026-05-05T11:20:49.999Z</time></trkpt><trkpt lat="41.69588926000938" lon="19.827439350875895"><ele>67.0</ele><time>2026-05-05T11:20:50.999Z</time></trkpt><trkpt lat="41.69603892678415" lon="19.8274024649823"><ele>67.0</ele><time>2026-05-05T11:20:51.999Z</time></trkpt><trkpt lat="41.696180226161204" lon="19.82737670876616"><ele>68.2</ele><time>2026-05-05T11:20:52.999Z</time></trkpt><trkpt lat="41.69631276607438" lon="19.827351121190492"><ele>69.4</ele><time>2026-05-05T11:20:53.999Z</time></trkpt><trkpt lat="41.69642689224905" lon="19.827323007069182"><ele>70.6</ele><time>2026-05-05T11:20:54.999Z</time></trkpt><trkpt lat="41.69652807295547" lon="19.82729786240321"><ele>71.8</ele><time>2026-05-05T11:20:55.999Z</time></trkpt><trkpt lat="41.696612272428396" lon="19.8272700473749"><ele>73.0</ele><time>2026-05-05T11:20:56.999Z</time></trkpt><trkpt lat="41.69667743535002" lon="19.82723698963664"><ele>73.0</ele><time>2026-05-05T11:20:57.999Z</time></trkpt><trkpt lat="41.6967410978882" lon="19.827170649295823"><ele>73.0</ele><time>2026-05-05T11:20:58.999Z</time></trkpt><trkpt lat="41.6967916404355" lon="19.827067322195163"><ele>73.0</ele><time>2026-05-05T11:20:59.999Z</time></trkpt><trkpt lat="41.69680778233776" lon="19.82690873158905"><ele>73.0</ele><time>2026-05-05T11:21:00.999Z</time></trkpt><trkpt lat="41.69681778866189" lon="19.826766347926373"><ele>73.0</ele><time>2026-05-05T11:21:01.999Z</time></trkpt><trkpt lat="41.69679513524124" lon="19.82662750876911"><ele>71.0</ele><time>2026-05-05T11:21:02.999Z</time></trkpt><trkpt lat="41.69675327126363" lon="19.826500016572115"><ele>69.0</ele><time>2026-05-05T11:21:03.999Z</time></trkpt><trkpt lat="41.69670636449111" lon="19.826380608192267"><ele>67.0</ele><time>2026-05-05T11:21:04.999Z</time></trkpt><trkpt lat="41.696656391941005" lon="19.826251760051395"><ele>65.0</ele><time>2026-05-05T11:21:05.999Z</time></trkpt><trkpt lat="41.6966162192241" lon="19.826100827973463"><ele>63.0</ele><time>2026-05-05T11:21:06.999Z</time></trkpt><trkpt lat="41.69660938392644" lon="19.825942469293516"><ele>62.5</ele><time>2026-05-05T11:21:07.999Z</time></trkpt><trkpt lat="41.69665472596911" lon="19.825796728322"><ele>62.0</ele><time>2026-05-05T11:21:08.999Z</time></trkpt><trkpt lat="41.696722018386026" lon="19.825643892961693"><ele>61.5</ele><time>2026-05-05T11:21:09.999Z</time></trkpt><trkpt lat="41.69675815988223" lon="19.825457742754818"><ele>61.0</ele><time>2026-05-05T11:21:10.999Z</time></trkpt><trkpt lat="41.69675597070079" lon="19.825247974076674"><ele>60.0</ele><time>2026-05-05T11:21:11.999Z</time></trkpt><trkpt lat="41.6967159937131" lon="19.8250217932589"><ele>59.0</ele><time>2026-05-05T11:21:12.999Z</time></trkpt><trkpt lat="41.69665751474261" lon="19.824799559814114"><ele>58.0</ele><time>2026-05-05T11:21:13.999Z</time></trkpt><trkpt lat="41.69659997946913" lon="19.82458576934436"><ele>58.0</ele><time>2026-05-05T11:21:14.999Z</time></trkpt><trkpt lat="41.69653842157552" lon="19.824390777388416"><ele>58.0</ele><time>2026-05-05T11:21:15.999Z</time></trkpt><trkpt lat="41.69648473639094" lon="19.82419537283078"><ele>58.0</ele><time>2026-05-05T11:21:16.999Z</time></trkpt><trkpt lat="41.69648124676015" lon="19.824028326466987"><ele>58.0</ele><time>2026-05-05T11:21:17.999Z</time></trkpt><trkpt lat="41.69650538756042" lon="19.82386109038702"><ele>57.75</ele><time>2026-05-05T11:21:18.999Z</time></trkpt><trkpt lat="41.69654472879401" lon="19.823672944836368"><ele>57.5</ele><time>2026-05-05T11:21:19.999Z</time></trkpt><trkpt lat="41.696581027180265" lon="19.823480563485187"><ele>57.25</ele><time>2026-05-05T11:21:20.999Z</time></trkpt><trkpt lat="41.69661934984878" lon="19.82328238976864"><ele>57.0</ele><time>2026-05-05T11:21:21.999Z</time></trkpt><trkpt lat="41.696653991973015" lon="19.823098806084737"><ele>57.0</ele><time>2026-05-05T11:21:22.999Z</time></trkpt><trkpt lat="41.69669661570585" lon="19.822905262890977"><ele>57.0</ele><time>2026-05-05T11:21:23.999Z</time></trkpt><trkpt lat="41.69675087347744" lon="19.822711506196597"><ele>57.0</ele><time>2026-05-05T11:21:24.999Z</time></trkpt><trkpt lat="41.696816165982625" lon="19.822527741377062"><ele>54.75</ele><time>2026-05-05T11:21:25.999Z</time></trkpt><trkpt lat="41.69687391689271" lon="19.822343667318897"><ele>52.5</ele><time>2026-05-05T11:21:26.999Z</time></trkpt><trkpt lat="41.69689579548337" lon="19.822157818299722"><ele>50.25</ele><time>2026-05-05T11:21:27.999Z</time></trkpt><trkpt lat="41.696877425093945" lon="19.82195589986694"><ele>48.0</ele><time>2026-05-05T11:21:29Z</time></trkpt><trkpt lat="41.696812119916395" lon="19.8217604922686"><ele>48.0</ele><time>2026-05-05T11:21:30Z</time></trkpt><trkpt lat="41.696735655372414" lon="19.821578749742798"><ele>48.0</ele><time>2026-05-05T11:21:31Z</time></trkpt><trkpt lat="41.69668603367356" lon="19.82138379634301"><ele>48.0</ele><time>2026-05-05T11:21:32Z</time></trkpt><trkpt lat="41.69669079270589" lon="19.821190677369003"><ele>48.0</ele><time>2026-05-05T11:21:33Z</time></trkpt><trkpt lat="41.69674297488363" lon="19.82101436170546"><ele>48.0</ele><time>2026-05-05T11:21:34Z</time></trkpt><trkpt lat="41.69683238416593" lon="19.820860510493848"><ele>48.0</ele><time>2026-05-05T11:21:35Z</time></trkpt><trkpt lat="41.69695536142543" lon="19.820743635718006"><ele>48.0</ele><time>2026-05-05T11:21:36Z</time></trkpt><trkpt lat="41.69707488809724" lon="19.820635061940738"><ele>51.25</ele><time>2026-05-05T11:21:37Z</time></trkpt><trkpt lat="41.697165325642" lon="19.820499564062377"><ele>54.5</ele><time>2026-05-05T11:21:38Z</time></trkpt><trkpt lat="41.69720969031385" lon="19.820324828623722"><ele>57.75</ele><time>2026-05-05T11:21:39Z</time></trkpt><trkpt lat="41.69721429863289" lon="19.82013717282705"><ele>61.0</ele><time>2026-05-05T11:21:40Z</time></trkpt><trkpt lat="41.697183373253935" lon="19.819968077796652"><ele>62.5</ele><time>2026-05-05T11:21:41Z</time></trkpt><trkpt lat="41.69713935413298" lon="19.819810333119047"><ele>64.0</ele><time>2026-05-05T11:21:42Z</time></trkpt><trkpt lat="41.69709309942421" lon="19.819632824072265"><ele>65.5</ele><time>2026-05-05T11:21:43Z</time></trkpt><trkpt lat="41.69705990944162" lon="19.81946091600528"><ele>67.0</ele><time>2026-05-05T11:21:44Z</time></trkpt><trkpt lat="41.69703666575924" lon="19.819267266550124"><ele>68.75</ele><time>2026-05-05T11:21:45Z</time></trkpt><trkpt lat="41.69704151959171" lon="19.819076374799184"><ele>70.5</ele><time>2026-05-05T11:21:46Z</time></trkpt><trkpt lat="41.69706889192145" lon="19.818897692282142"><ele>72.25</ele><time>2026-05-05T11:21:47Z</time></trkpt><trkpt lat="41.697113031479475" lon="19.818727904634315"><ele>74.0</ele><time>2026-05-05T11:21:48Z</time></trkpt><trkpt lat="41.69713447435556" lon="19.81859784548188"><ele>74.0</ele><time>2026-05-05T11:21:49Z</time></trkpt><trkpt lat="41.69710348088596" lon="19.81848489359764"><ele>74.0</ele><time>2026-05-05T11:21:50Z</time></trkpt><trkpt lat="41.697029128458915" lon="19.818362774505264"><ele>74.0</ele><time>2026-05-05T11:21:51Z</time></trkpt><trkpt lat="41.69697244368579" lon="19.81822780256715"><ele>74.0</ele><time>2026-05-05T11:21:52Z</time></trkpt><trkpt lat="41.696968120823186" lon="19.818077773091126"><ele>74.0</ele><time>2026-05-05T11:21:53Z</time></trkpt><trkpt lat="41.69701467992102" lon="19.81789946398411"><ele>74.5</ele><time>2026-05-05T11:21:54Z</time></trkpt><trkpt lat="41.69704373710268" lon="19.817732324451185"><ele>75.0</ele><time>2026-05-05T11:21:55Z</time></trkpt><trkpt lat="41.69701103259503" lon="19.81759770707012"><ele>75.5</ele><time>2026-05-05T11:21:56Z</time></trkpt><trkpt lat="41.69692935497504" lon="19.817492332693387"><ele>76.0</ele><time>2026-05-05T11:21:57Z</time></trkpt><trkpt lat="41.69681427042937" lon="19.817419152456804"><ele>69.75</ele><time>2026-05-05T11:21:58Z</time></trkpt><trkpt lat="41.696710337458725" lon="19.8173265624986"><ele>63.5</ele><time>2026-05-05T11:21:59Z</time></trkpt><trkpt lat="41.6966502564102" lon="19.817203966121575"><ele>57.25</ele><time>2026-05-05T11:22:00Z</time></trkpt><trkpt lat="41.69663650274948" lon="19.81704108901459"><ele>51.0</ele><time>2026-05-05T11:22:01Z</time></trkpt><trkpt lat="41.696636977855604" lon="19.816850022438647"><ele>53.33333333333333</ele><time>2026-05-05T11:22:02Z</time></trkpt><trkpt lat="41.696644018793535" lon="19.81664688494397"><ele>55.666666666666664</ele><time>2026-05-05T11:22:03Z</time></trkpt><trkpt lat="41.696653830219006" lon="19.81643872257894"><ele>58.0</ele><time>2026-05-05T11:22:04Z</time></trkpt><trkpt lat="41.69663219417852" lon="19.816226794891264"><ele>58.0</ele><time>2026-05-05T11:22:05Z</time></trkpt><trkpt lat="41.69656851982422" lon="19.816049027889743"><ele>58.0</ele><time>2026-05-05T11:22:06Z</time></trkpt><trkpt lat="41.69646425135464" lon="19.815901744526546"><ele>58.0</ele><time>2026-05-05T11:22:07Z</time></trkpt><trkpt lat="41.69635286405116" lon="19.815758174547142"><ele>63.0</ele><time>2026-05-05T11:22:08Z</time></trkpt><trkpt lat="41.69626451165585" lon="19.815585635019673"><ele>68.0</ele><time>2026-05-05T11:22:09Z</time></trkpt><trkpt lat="41.69620075004382" lon="19.815374816294202"><ele>73.0</ele><time>2026-05-05T11:22:10Z</time></trkpt><trkpt lat="41.69612697449455" lon="19.815172969891474"><ele>69.66666666666666</ele><time>2026-05-05T11:22:11Z</time></trkpt><trkpt lat="41.69603622743712" lon="19.815012147034025"><ele>66.33333333333333</ele><time>2026-05-05T11:22:12Z</time></trkpt><trkpt lat="41.695919125875676" lon="19.814870082412305"><ele>63.0</ele><time>2026-05-05T11:22:13Z</time></trkpt><trkpt lat="41.69577346812982" lon="19.814778777206847"><ele>63.0</ele><time>2026-05-05T11:22:14Z</time></trkpt><trkpt lat="41.695618858587174" lon="19.814669294267933"><ele>63.0</ele><time>2026-05-05T11:22:15Z</time></trkpt><trkpt lat="41.69548721626318" lon="19.81450987500587"><ele>63.0</ele><time>2026-05-05T11:22:16Z</time></trkpt><trkpt lat="41.695380363381204" lon="19.814353961186"><ele>61.33333333333333</ele><time>2026-05-05T11:22:17Z</time></trkpt><trkpt lat="41.695240124684204" lon="19.814254727671475"><ele>59.666666666666664</ele><time>2026-05-05T11:22:18Z</time></trkpt><trkpt lat="41.695080858003514" lon="19.814179255672823"><ele>58.0</ele><time>2026-05-05T11:22:19Z</time></trkpt><trkpt lat="41.69493930099182" lon="19.81411774341029"><ele>57.99999999999999</ele><time>2026-05-05T11:22:20Z</time></trkpt><trkpt lat="41.69484109661517" lon="19.814050025913033"><ele>58.0</ele><time>2026-05-05T11:22:21Z</time></trkpt><trkpt lat="41.69477820639859" lon="19.813965563994802"><ele>58.0</ele><time>2026-05-05T11:22:22Z</time></trkpt><trkpt lat="41.69474443646503" lon="19.813882409395614"><ele>58.0</ele><time>2026-05-05T11:22:23Z</time></trkpt><trkpt lat="41.694704041501865" lon="19.813807304644683"><ele>57.99999999999999</ele><time>2026-05-05T11:22:25Z</time></trkpt><trkpt lat="41.69467003392978" lon="19.81372430651391"><ele>58.0</ele><time>2026-05-05T11:22:28Z</time></trkpt><trkpt lat="41.69470316412961" lon="19.813644400472644"><ele>58.0</ele><time>2026-05-05T11:24:12Z</time></trkpt><trkpt lat="41.69469352408916" lon="19.81352689779661"><ele>58.0</ele><time>2026-05-05T11:24:14Z</time></trkpt><trkpt lat="41.69468430170492" lon="19.8134043603028"><ele>58.0</ele><time>2026-05-05T11:24:15Z</time></trkpt><trkpt lat="41.694669455683304" lon="19.813255618278106"><ele>58.0</ele><time>2026-05-05T11:24:16Z</time></trkpt><trkpt lat="41.694666860165825" lon="19.813097587969324"><ele>58.0</ele><time>2026-05-05T11:24:17Z</time></trkpt><trkpt lat="41.69465796058761" lon="19.812909837338506"><ele>60.5</ele><time>2026-05-05T11:24:18Z</time></trkpt><trkpt lat="41.69462152918269" lon="19.812731168474656"><ele>63.0</ele><time>2026-05-05T11:24:19Z</time></trkpt><trkpt lat="41.69458573908343" lon="19.812544714447405"><ele>65.5</ele><time>2026-05-05T11:24:20Z</time></trkpt><trkpt lat="41.69453861759701" lon="19.81235723278488"><ele>68.0</ele><time>2026-05-05T11:24:21Z</time></trkpt><trkpt lat="41.6944667024111" lon="19.812174992761765"><ele>65.33333333333334</ele><time>2026-05-05T11:24:22Z</time></trkpt><trkpt lat="41.69438408131303" lon="19.81200024133227"><ele>62.66666666666667</ele><time>2026-05-05T11:24:23Z</time></trkpt><trkpt lat="41.694318197450386" lon="19.811818864072823"><ele>60.0</ele><time>2026-05-05T11:24:24Z</time></trkpt><trkpt lat="41.69426117279556" lon="19.81162993835441"><ele>65.0</ele><time>2026-05-05T11:24:25Z</time></trkpt><trkpt lat="41.69420621636815" lon="19.811449254525964"><ele>70.0</ele><time>2026-05-05T11:24:26Z</time></trkpt><trkpt lat="41.69419458221796" lon="19.81128092815653"><ele>75.0</ele><time>2026-05-05T11:24:27Z</time></trkpt><trkpt lat="41.694154852705346" lon="19.81113290301368"><ele>80.0</ele><time>2026-05-05T11:24:28Z</time></trkpt><trkpt lat="41.69416834014828" lon="19.811006001785135"><ele>78.2</ele><time>2026-05-05T11:24:29Z</time></trkpt><trkpt lat="41.694215616640136" lon="19.810896704278733"><ele>76.4</ele><time>2026-05-05T11:24:30Z</time></trkpt><trkpt lat="41.69425846363395" lon="19.810774110990938"><ele>74.6</ele><time>2026-05-05T11:24:31Z</time></trkpt><trkpt lat="41.69426638699081" lon="19.81062191912858"><ele>72.8</ele><time>2026-05-05T11:24:32Z</time></trkpt><trkpt lat="41.69422910457078" lon="19.81044909103483"><ele>71.0</ele><time>2026-05-05T11:24:33Z</time></trkpt><trkpt lat="41.694153883188726" lon="19.810279814168375"><ele>73.0</ele><time>2026-05-05T11:24:34Z</time></trkpt><trkpt lat="41.69404548056188" lon="19.81013786958457"><ele>75.0</ele><time>2026-05-05T11:24:35Z</time></trkpt><trkpt lat="41.69391872360636" lon="19.809994107239795"><ele>77.0</ele><time>2026-05-05T11:24:36Z</time></trkpt><trkpt lat="41.69383708035979" lon="19.80986828320896"><ele>79.0</ele><time>2026-05-05T11:24:37Z</time></trkpt><trkpt lat="41.693780566064284" lon="19.809724625659676"><ele>79.0</ele><time>2026-05-05T11:24:38Z</time></trkpt><trkpt lat="41.6937739379795" lon="19.80956962777524"><ele>79.0</ele><time>2026-05-05T11:24:39Z</time></trkpt><trkpt lat="41.69379472864159" lon="19.80940915451171"><ele>79.0</ele><time>2026-05-05T11:24:40Z</time></trkpt><trkpt lat="41.6937994309685" lon="19.809235285268564"><ele>79.0</ele><time>2026-05-05T11:24:41Z</time></trkpt><trkpt lat="41.69377158155799" lon="19.809047015606836"><ele>78.33333333333333</ele><time>2026-05-05T11:24:42Z</time></trkpt><trkpt lat="41.693709269657596" lon="19.808850994270603"><ele>77.66666666666667</ele><time>2026-05-05T11:24:43Z</time></trkpt><trkpt lat="41.69360938380869" lon="19.808678983248196"><ele>77.0</ele><time>2026-05-05T11:24:44Z</time></trkpt><trkpt lat="41.69350600725185" lon="19.80849737205013"><ele>68.33333333333334</ele><time>2026-05-05T11:24:45Z</time></trkpt><trkpt lat="41.693414926881964" lon="19.80828981156026"><ele>59.66666666666667</ele><time>2026-05-05T11:24:46Z</time></trkpt><trkpt lat="41.693334561693064" lon="19.80808416279053"><ele>51.0</ele><time>2026-05-05T11:24:47Z</time></trkpt><trkpt lat="41.693226365277965" lon="19.80790534768749"><ele>51.0</ele><time>2026-05-05T11:24:48Z</time></trkpt><trkpt lat="41.69307581065291" lon="19.80776898156246"><ele>51.0</ele><time>2026-05-05T11:24:49Z</time></trkpt><trkpt lat="41.69296361858594" lon="19.80763213224953"><ele>51.0</ele><time>2026-05-05T11:24:50Z</time></trkpt><trkpt lat="41.692887472674244" lon="19.80746818440882"><ele>47.0</ele><time>2026-05-05T11:24:51Z</time></trkpt><trkpt lat="41.69283260022649" lon="19.807274358671123"><ele>43.0</ele><time>2026-05-05T11:24:52Z</time></trkpt><trkpt lat="41.69277502946903" lon="19.80706365616746"><ele>39.0</ele><time>2026-05-05T11:24:53Z</time></trkpt><trkpt lat="41.69270038435351" lon="19.8068420751243"><ele>40.666666666666664</ele><time>2026-05-05T11:24:54Z</time></trkpt><trkpt lat="41.692629668121036" lon="19.806609519895535"><ele>42.33333333333333</ele><time>2026-05-05T11:24:55Z</time></trkpt><trkpt lat="41.692569231954906" lon="19.806359513356135"><ele>44.0</ele><time>2026-05-05T11:24:56Z</time></trkpt><trkpt lat="41.69252378553819" lon="19.806113070724965"><ele>47.33333333333333</ele><time>2026-05-05T11:24:57Z</time></trkpt><trkpt lat="41.69249113972573" lon="19.805893846012566"><ele>50.666666666666664</ele><time>2026-05-05T11:24:58Z</time></trkpt><trkpt lat="41.69248180499204" lon="19.805684297276734"><ele>54.0</ele><time>2026-05-05T11:24:59Z</time></trkpt><trkpt lat="41.69249521209176" lon="19.805459152390537"><ele>54.0</ele><time>2026-05-05T11:25:00Z</time></trkpt><trkpt lat="41.69252562969474" lon="19.80522736572096"><ele>54.0</ele><time>2026-05-05T11:25:01Z</time></trkpt><trkpt lat="41.692567174209" lon="19.80497996565895"><ele>54.0</ele><time>2026-05-05T11:25:02Z</time></trkpt><trkpt lat="41.69262924491591" lon="19.804739980106557"><ele>52.0</ele><time>2026-05-05T11:25:03Z</time></trkpt><trkpt lat="41.69270508087917" lon="19.804503592485467"><ele>50.0</ele><time>2026-05-05T11:25:04Z</time></trkpt><trkpt lat="41.69278882846437" lon="19.80426075490214"><ele>48.0</ele><time>2026-05-05T11:25:05Z</time></trkpt><trkpt lat="41.69287011289109" lon="19.80401604901288"><ele>51.66666666666667</ele><time>2026-05-05T11:25:05.999Z</time></trkpt><trkpt lat="41.692935919400156" lon="19.80375585603685"><ele>55.333333333333336</ele><time>2026-05-05T11:25:06.999Z</time></trkpt><trkpt lat="41.692984494708355" lon="19.803482967344532"><ele>59.0</ele><time>2026-05-05T11:25:07.999Z</time></trkpt><trkpt lat="41.69301013647395" lon="19.803205440123346"><ele>59.0</ele><time>2026-05-05T11:25:08.999Z</time></trkpt><trkpt lat="41.69300722004617" lon="19.802939870595218"><ele>59.0</ele><time>2026-05-05T11:25:09.999Z</time></trkpt><trkpt lat="41.69297345590648" lon="19.802677211474684"><ele>59.0</ele><time>2026-05-05T11:25:10.999Z</time></trkpt><trkpt lat="41.692905312089096" lon="19.802442120842038"><ele>56.66666666666667</ele><time>2026-05-05T11:25:11.999Z</time></trkpt><trkpt lat="41.69281654795782" lon="19.802223144252316"><ele>54.33333333333333</ele><time>2026-05-05T11:25:12.999Z</time></trkpt><trkpt lat="41.692728931387656" lon="19.80200337851868"><ele>52.0</ele><time>2026-05-05T11:25:13.999Z</time></trkpt><trkpt lat="41.69266441791293" lon="19.801768875532147"><ele>46.33333333333333</ele><time>2026-05-05T11:25:14.999Z</time></trkpt><trkpt lat="41.69262542936026" lon="19.801524858136098"><ele>40.666666666666664</ele><time>2026-05-05T11:25:15.999Z</time></trkpt><trkpt lat="41.69261481741816" lon="19.801269094351724"><ele>35.0</ele><time>2026-05-05T11:25:16.999Z</time></trkpt><trkpt lat="41.69262724538585" lon="19.801003792516575"><ele>33.666666666666664</ele><time>2026-05-05T11:25:17.999Z</time></trkpt><trkpt lat="41.692656032584054" lon="19.80073700942897"><ele>32.333333333333336</ele><time>2026-05-05T11:25:18.999Z</time></trkpt><trkpt lat="41.69268701756198" lon="19.8004722439465"><ele>31.0</ele><time>2026-05-05T11:25:19.999Z</time></trkpt><trkpt lat="41.69271144636097" lon="19.800198414763553"><ele>31.666666666666668</ele><time>2026-05-05T11:25:20.999Z</time></trkpt><trkpt lat="41.69272208204639" lon="19.79992753446325"><ele>32.333333333333336</ele><time>2026-05-05T11:25:21.999Z</time></trkpt><trkpt lat="41.692710181357135" lon="19.799653844517877"><ele>33.0</ele><time>2026-05-05T11:25:22.999Z</time></trkpt><trkpt lat="41.692707903697745" lon="19.79938200364567"><ele>34.0</ele><time>2026-05-05T11:25:23.999Z</time></trkpt><trkpt lat="41.69272774998361" lon="19.799103685309273"><ele>35.0</ele><time>2026-05-05T11:25:24.999Z</time></trkpt><trkpt lat="41.69276208994669" lon="19.79882934606668"><ele>36.0</ele><time>2026-05-05T11:25:25.999Z</time></trkpt><trkpt lat="41.69280139957801" lon="19.798565688972946"><ele>39.0</ele><time>2026-05-05T11:25:26.999Z</time></trkpt><trkpt lat="41.69283657306784" lon="19.798306522280512"><ele>42.0</ele><time>2026-05-05T11:25:27.999Z</time></trkpt><trkpt lat="41.69287824163706" lon="19.798067284557227"><ele>45.0</ele><time>2026-05-05T11:25:28.999Z</time></trkpt><trkpt lat="41.692936405115155" lon="19.79784763479476"><ele>44.5</ele><time>2026-05-05T11:25:29.999Z</time></trkpt><trkpt lat="41.693008274956796" lon="19.79766498065339"><ele>44.0</ele><time>2026-05-05T11:25:30.999Z</time></trkpt><trkpt lat="41.693090997998695" lon="19.797501645678906"><ele>43.5</ele><time>2026-05-05T11:25:31.999Z</time></trkpt><trkpt lat="41.69316795825074" lon="19.797352386760654"><ele>43.0</ele><time>2026-05-05T11:25:32.999Z</time></trkpt><trkpt lat="41.69325546424605" lon="19.79722540398091"><ele>43.0</ele><time>2026-05-05T11:25:33.999Z</time></trkpt><trkpt lat="41.69335684140965" lon="19.797167604880077"><ele>43.0</ele><time>2026-05-05T11:25:34.999Z</time></trkpt><trkpt lat="41.69347744150531" lon="19.797155855510876"><ele>43.0</ele><time>2026-05-05T11:25:35.999Z</time></trkpt><trkpt lat="41.693615226819205" lon="19.797150448525407"><ele>43.0</ele><time>2026-05-05T11:25:36.999Z</time></trkpt><trkpt lat="41.693753353859854" lon="19.797110254012797"><ele>43.333333333333336</ele><time>2026-05-05T11:25:37.999Z</time></trkpt><trkpt lat="41.693881771853704" lon="19.797006181999226"><ele>43.666666666666664</ele><time>2026-05-05T11:25:38.999Z</time></trkpt><trkpt lat="41.69399601458527" lon="19.79685973146253"><ele>44.0</ele><time>2026-05-05T11:25:39.999Z</time></trkpt><trkpt lat="41.694108146767746" lon="19.796702136666763"><ele>44.0</ele><time>2026-05-05T11:25:41Z</time></trkpt><trkpt lat="41.69422015570204" lon="19.796558372015234"><ele>44.0</ele><time>2026-05-05T11:25:42Z</time></trkpt><trkpt lat="41.69433758015077" lon="19.79642704395705"><ele>44.0</ele><time>2026-05-05T11:25:43Z</time></trkpt><trkpt lat="41.69446103781054" lon="19.79629653162568"><ele>42.666666666666664</ele><time>2026-05-05T11:25:44Z</time></trkpt><trkpt lat="41.69458944645303" lon="19.796165944855385"><ele>41.333333333333336</ele><time>2026-05-05T11:25:45Z</time></trkpt><trkpt lat="41.694721880642575" lon="19.796041576894197"><ele>40.0</ele><time>2026-05-05T11:25:46Z</time></trkpt><trkpt lat="41.6948718039854" lon="19.79592987112311"><ele>40.0</ele><time>2026-05-05T11:25:47Z</time></trkpt><trkpt lat="41.695039131928" lon="19.795830179487506"><ele>40.0</ele><time>2026-05-05T11:25:48Z</time></trkpt><trkpt lat="41.69521276617843" lon="19.79573155877053"><ele>40.0</ele><time>2026-05-05T11:25:49Z</time></trkpt><trkpt lat="41.69539427741155" lon="19.79560962572937"><ele>49.0</ele><time>2026-05-05T11:25:50Z</time></trkpt><trkpt lat="41.69557541327649" lon="19.795478860808014"><ele>58.0</ele><time>2026-05-05T11:25:51Z</time></trkpt><trkpt lat="41.69576324684964" lon="19.7953314801769"><ele>67.0</ele><time>2026-05-05T11:25:52Z</time></trkpt><trkpt lat="41.69594700431433" lon="19.795175022843466"><ele>68.33333333333333</ele><time>2026-05-05T11:25:53Z</time></trkpt><trkpt lat="41.69612415209967" lon="19.79499996602724"><ele>69.66666666666667</ele><time>2026-05-05T11:25:54Z</time></trkpt><trkpt lat="41.696287536624226" lon="19.79479914256138"><ele>71.0</ele><time>2026-05-05T11:25:55Z</time></trkpt><trkpt lat="41.69644190860298" lon="19.794578683037905"><ele>71.0</ele><time>2026-05-05T11:25:56Z</time></trkpt><trkpt lat="41.696592812312666" lon="19.794366388110618"><ele>71.0</ele><time>2026-05-05T11:25:57Z</time></trkpt><trkpt lat="41.69675584008222" lon="19.79416390445954"><ele>71.0</ele><time>2026-05-05T11:25:58Z</time></trkpt><trkpt lat="41.69692485792903" lon="19.793952112333763"><ele>73.0</ele><time>2026-05-05T11:25:59Z</time></trkpt><trkpt lat="41.69708263960633" lon="19.79372443601292"><ele>75.0</ele><time>2026-05-05T11:26:00Z</time></trkpt><trkpt lat="41.697234467176266" lon="19.793491521038103"><ele>61.0</ele><time>2026-05-05T11:26:01Z</time></trkpt><trkpt lat="41.69740380558406" lon="19.793279083293303"><ele>47.0</ele><time>2026-05-05T11:26:02Z</time></trkpt><trkpt lat="41.697588593643886" lon="19.793078188467177"><ele>61.5</ele><time>2026-05-05T11:26:03Z</time></trkpt><trkpt lat="41.69776566107072" lon="19.792892408548205"><ele>76.0</ele><time>2026-05-05T11:26:04Z</time></trkpt><trkpt lat="41.69794639448152" lon="19.792699934904128"><ele>66.33333333333333</ele><time>2026-05-05T11:26:05Z</time></trkpt><trkpt lat="41.6981219377511" lon="19.79252423325778"><ele>56.666666666666664</ele><time>2026-05-05T11:26:06Z</time></trkpt><trkpt lat="41.698280324122955" lon="19.792403285841278"><ele>47.0</ele><time>2026-05-05T11:26:07Z</time></trkpt><trkpt lat="41.69843174773298" lon="19.792325374353954"><ele>47.0</ele><time>2026-05-05T11:26:08Z</time></trkpt><trkpt lat="41.69855537092291" lon="19.792257681864374"><ele>47.0</ele><time>2026-05-05T11:26:09Z</time></trkpt><trkpt lat="41.698665558075376" lon="19.792142597540323"><ele>47.0</ele><time>2026-05-05T11:26:10Z</time></trkpt><trkpt lat="41.69875869894028" lon="19.791967143328066"><ele>47.0</ele><time>2026-05-05T11:26:10.999Z</time></trkpt><trkpt lat="41.69885382188058" lon="19.79177463802206"><ele>47.666666666666664</ele><time>2026-05-05T11:26:11.999Z</time></trkpt><trkpt lat="41.69896789845223" lon="19.79158956710052"><ele>48.33333333333333</ele><time>2026-05-05T11:26:12.999Z</time></trkpt><trkpt lat="41.6990990415312" lon="19.79141641025815"><ele>49.0</ele><time>2026-05-05T11:26:13.999Z</time></trkpt><trkpt lat="41.699248809841635" lon="19.791249029912652"><ele>49.0</ele><time>2026-05-05T11:26:14.999Z</time></trkpt><trkpt lat="41.699405962858116" lon="19.79107103287811"><ele>49.0</ele><time>2026-05-05T11:26:15.999Z</time></trkpt><trkpt lat="41.69955861661254" lon="19.79088997914154"><ele>49.0</ele><time>2026-05-05T11:26:16.999Z</time></trkpt><trkpt lat="41.69969286845613" lon="19.79071547881904"><ele>51.0</ele><time>2026-05-05T11:26:17.999Z</time></trkpt><trkpt lat="41.69979762575445" lon="19.790536470583227"><ele>53.0</ele><time>2026-05-05T11:26:18.999Z</time></trkpt><trkpt lat="41.69986178404839" lon="19.79033185450818"><ele>55.0</ele><time>2026-05-05T11:26:19.999Z</time></trkpt><trkpt lat="41.699920242044385" lon="19.79008662905819"><ele>52.0</ele><time>2026-05-05T11:26:20.999Z</time></trkpt><trkpt lat="41.69997720938067" lon="19.789860484907994"><ele>49.0</ele><time>2026-05-05T11:26:21.999Z</time></trkpt><trkpt lat="41.70003141259005" lon="19.78973398872405"><ele>46.0</ele><time>2026-05-05T11:26:22.999Z</time></trkpt><trkpt lat="41.70007919828954" lon="19.789617382868563"><ele>43.0</ele><time>2026-05-05T11:26:24.999Z</time></trkpt><trkpt lat="41.70012834629429" lon="19.78951745384807"><ele>43.0</ele><time>2026-05-05T11:26:26.999Z</time></trkpt><trkpt lat="41.70021493861063" lon="19.789395896957387"><ele>43.0</ele><time>2026-05-05T11:26:28.999Z</time></trkpt><trkpt lat="41.70030379570216" lon="19.789298512843736"><ele>43.0</ele><time>2026-05-05T11:26:29.999Z</time></trkpt><trkpt lat="41.70041937207166" lon="19.789182921171154"><ele>43.0</ele><time>2026-05-05T11:26:30.999Z</time></trkpt><trkpt lat="41.700555888238405" lon="19.78907711170937"><ele>43.333333333333336</ele><time>2026-05-05T11:26:31.999Z</time></trkpt><trkpt lat="41.70070993041053" lon="19.788989809788845"><ele>43.666666666666664</ele><time>2026-05-05T11:26:32.999Z</time></trkpt><trkpt lat="41.70088243969268" lon="19.788893656914055"><ele>44.0</ele><time>2026-05-05T11:26:33.999Z</time></trkpt><trkpt lat="41.70104710940785" lon="19.78875694884494"><ele>45.0</ele><time>2026-05-05T11:26:34.999Z</time></trkpt><trkpt lat="41.701202522424644" lon="19.788588529859435"><ele>46.0</ele><time>2026-05-05T11:26:35.999Z</time></trkpt><trkpt lat="41.701353919958486" lon="19.788407238238033"><ele>47.0</ele><time>2026-05-05T11:26:36.999Z</time></trkpt><trkpt lat="41.70149674546841" lon="19.788242494831444"><ele>47.0</ele><time>2026-05-05T11:26:37.999Z</time></trkpt><trkpt lat="41.701621172822186" lon="19.788058662268227"><ele>47.0</ele><time>2026-05-05T11:26:38.999Z</time></trkpt><trkpt lat="41.70172417411714" lon="19.787838404066978"><ele>47.0</ele><time>2026-05-05T11:26:39.999Z</time></trkpt><trkpt lat="41.701826553852115" lon="19.787587934789148"><ele>57.5</ele><time>2026-05-05T11:26:40.999Z</time></trkpt><trkpt lat="41.701935878154565" lon="19.7873207958734"><ele>68.0</ele><time>2026-05-05T11:26:41.999Z</time></trkpt><trkpt lat="41.702052425515376" lon="19.787051562874584"><ele>58.5</ele><time>2026-05-05T11:26:42.999Z</time></trkpt><trkpt lat="41.70217452377894" lon="19.786781962714205"><ele>49.0</ele><time>2026-05-05T11:26:43.999Z</time></trkpt><trkpt lat="41.702295845755536" lon="19.78649508914694"><ele>49.0</ele><time>2026-05-05T11:26:44.999Z</time></trkpt><trkpt lat="41.70239633358223" lon="19.786192453224444"><ele>49.0</ele><time>2026-05-05T11:26:45.999Z</time></trkpt><trkpt lat="41.70247220379054" lon="19.7858761695764"><ele>41.0</ele><time>2026-05-05T11:26:46.999Z</time></trkpt><trkpt lat="41.702549689243625" lon="19.785556716969527"><ele>33.0</ele><time>2026-05-05T11:26:47.999Z</time></trkpt><trkpt lat="41.70262520398299" lon="19.785245938708016"><ele>31.666666666666664</ele><time>2026-05-05T11:26:48.999Z</time></trkpt><trkpt lat="41.70268943247209" lon="19.784967509696333"><ele>30.333333333333332</ele><time>2026-05-05T11:26:49.999Z</time></trkpt><trkpt lat="41.70274412628509" lon="19.784727582745216"><ele>29.0</ele><time>2026-05-05T11:26:50.999Z</time></trkpt><trkpt lat="41.70278968216246" lon="19.784528279706112"><ele>30.5</ele><time>2026-05-05T11:26:51.999Z</time></trkpt><trkpt lat="41.70284891259105" lon="19.784352925575952"><ele>32.0</ele><time>2026-05-05T11:26:52.999Z</time></trkpt><trkpt lat="41.702931911428145" lon="19.784192615086276"><ele>33.5</ele><time>2026-05-05T11:26:53.999Z</time></trkpt><trkpt lat="41.70302545395505" lon="19.784039452069358"><ele>35.0</ele><time>2026-05-05T11:26:54.999Z</time></trkpt><trkpt lat="41.70312451100289" lon="19.78387612484799"><ele>35.0</ele><time>2026-05-05T11:26:55.999Z</time></trkpt><trkpt lat="41.70323116017512" lon="19.78369503932727"><ele>35.0</ele><time>2026-05-05T11:26:56.999Z</time></trkpt><trkpt lat="41.70334230224389" lon="19.783500485414766"><ele>35.0</ele><time>2026-05-05T11:26:57.999Z</time></trkpt><trkpt lat="41.703453419354425" lon="19.78329659249499"><ele>34.0</ele><time>2026-05-05T11:26:58.999Z</time></trkpt><trkpt lat="41.703556001629984" lon="19.78310072135321"><ele>33.0</ele><time>2026-05-05T11:26:59.999Z</time></trkpt><trkpt lat="41.703641593994575" lon="19.78292245053001"><ele>32.0</ele><time>2026-05-05T11:27:00.999Z</time></trkpt><trkpt lat="41.70371257475392" lon="19.78273927779352"><ele>32.5</ele><time>2026-05-05T11:27:01.999Z</time></trkpt><trkpt lat="41.70376745734793" lon="19.782544701641893"><ele>33.0</ele><time>2026-05-05T11:27:02.999Z</time></trkpt><trkpt lat="41.70378972124585" lon="19.782352469184662"><ele>33.5</ele><time>2026-05-05T11:27:03.999Z</time></trkpt><trkpt lat="41.703799089931024" lon="19.782177074000987"><ele>34.0</ele><time>2026-05-05T11:27:04.999Z</time></trkpt><trkpt lat="41.7038044040112" lon="19.78200727730545"><ele>34.66666666666667</ele><time>2026-05-05T11:27:05.999Z</time></trkpt><trkpt lat="41.70381354716661" lon="19.78182458116722"><ele>35.333333333333336</ele><time>2026-05-05T11:27:06.999Z</time></trkpt><trkpt lat="41.70382654029453" lon="19.781607684322324"><ele>36.0</ele><time>2026-05-05T11:27:07.999Z</time></trkpt><trkpt lat="41.70384591573988" lon="19.781352201476817"><ele>36.0</ele><time>2026-05-05T11:27:08.999Z</time></trkpt><trkpt lat="41.70387320720264" lon="19.78107977486123"><ele>36.0</ele><time>2026-05-05T11:27:09.999Z</time></trkpt><trkpt lat="41.70390557937516" lon="19.780807241592747"><ele>36.0</ele><time>2026-05-05T11:27:10.999Z</time></trkpt><trkpt lat="41.70394241946265" lon="19.78052229388058"><ele>34.5</ele><time>2026-05-05T11:27:11.999Z</time></trkpt><trkpt lat="41.7039857592715" lon="19.780227606374165"><ele>33.0</ele><time>2026-05-05T11:27:12.999Z</time></trkpt><trkpt lat="41.70405346785382" lon="19.779933485374155"><ele>33.0</ele><time>2026-05-05T11:27:13.999Z</time></trkpt><trkpt lat="41.70414645038997" lon="19.77963496254323"><ele>33.0</ele><time>2026-05-05T11:27:14.999Z</time></trkpt><trkpt lat="41.704241521371465" lon="19.779327681040847"><ele>31.0</ele><time>2026-05-05T11:27:15.999Z</time></trkpt><trkpt lat="41.70431717209813" lon="19.779026470535225"><ele>29.0</ele><time>2026-05-05T11:27:16.999Z</time></trkpt><trkpt lat="41.70437025935509" lon="19.778719769642723"><ele>28.0</ele><time>2026-05-05T11:27:17.999Z</time></trkpt><trkpt lat="41.70439778770705" lon="19.77840647668238"><ele>27.0</ele><time>2026-05-05T11:27:18.999Z</time></trkpt><trkpt lat="41.704403301394905" lon="19.77806874754374"><ele>27.0</ele><time>2026-05-05T11:27:19.999Z</time></trkpt><trkpt lat="41.704401553795414" lon="19.777725831431997"><ele>27.0</ele><time>2026-05-05T11:27:20.999Z</time></trkpt><trkpt lat="41.70440131468445" lon="19.777361516162003"><ele>27.0</ele><time>2026-05-05T11:27:21.999Z</time></trkpt><trkpt lat="41.70440682654196" lon="19.777007135700583"><ele>27.0</ele><time>2026-05-05T11:27:22.999Z</time></trkpt><trkpt lat="41.70441234878163" lon="19.776651494683243"><ele>27.333333333333336</ele><time>2026-05-05T11:27:23.999Z</time></trkpt><trkpt lat="41.704415426157205" lon="19.77631906527487"><ele>27.666666666666668</ele><time>2026-05-05T11:27:24.999Z</time></trkpt><trkpt lat="41.70441408190138" lon="19.776073019525327"><ele>28.0</ele><time>2026-05-05T11:27:25.999Z</time></trkpt><trkpt lat="41.704422520230004" lon="19.77587237095816"><ele>28.0</ele><time>2026-05-05T11:27:26.999Z</time></trkpt><trkpt lat="41.70445022426061" lon="19.77570556620117"><ele>27.999999999999996</ele><time>2026-05-05T11:27:27.999Z</time></trkpt><trkpt lat="41.70450799117537" lon="19.775600733262316"><ele>27.999999999999996</ele><time>2026-05-05T11:27:28.999Z</time></trkpt><trkpt lat="41.70458422308585" lon="19.775543924348064"><ele>28.0</ele><time>2026-05-05T11:27:29.999Z</time></trkpt><trkpt lat="41.70468304842501" lon="19.775517571210912"><ele>28.0</ele><time>2026-05-05T11:27:30.999Z</time></trkpt><trkpt lat="41.704767635358074" lon="19.775453434793953"><ele>28.0</ele><time>2026-05-05T11:27:31.999Z</time></trkpt><trkpt lat="41.70481143600685" lon="19.775330313919255"><ele>27.999999999999996</ele><time>2026-05-05T11:27:32.999Z</time></trkpt><trkpt lat="41.70482860118894" lon="19.775185356677028"><ele>27.999999999999996</ele><time>2026-05-05T11:27:33.999Z</time></trkpt><trkpt lat="41.70486764688963" lon="19.775049787693565"><ele>28.0</ele><time>2026-05-05T11:27:34.999Z</time></trkpt><trkpt lat="41.704930010580135" lon="19.774956125815173"><ele>28.0</ele><time>2026-05-05T11:27:35.999Z</time></trkpt><trkpt lat="41.7049804227664" lon="19.774884405178007"><ele>27.500000000000004</ele><time>2026-05-05T11:27:36.999Z</time></trkpt><trkpt lat="41.70498528569575" lon="19.774796331481426"><ele>27.0</ele><time>2026-05-05T11:27:38.999Z</time></trkpt><trkpt lat="41.70495153414249" lon="19.774699140194098"><ele>26.5</ele><time>2026-05-05T11:27:40.999Z</time></trkpt><trkpt lat="41.70489064354216" lon="19.774613820692775"><ele>26.0</ele><time>2026-05-05T11:27:41.999Z</time></trkpt><trkpt lat="41.70482017021999" lon="19.774535508305245"><ele>25.500000000000004</ele><time>2026-05-05T11:27:42.999Z</time></trkpt><trkpt lat="41.70474066001285" lon="19.774435836579737"><ele>25.0</ele><time>2026-05-05T11:27:43.999Z</time></trkpt><trkpt lat="41.70466989298949" lon="19.77432965220257"><ele>25.0</ele><time>2026-05-05T11:27:44.999Z</time></trkpt><trkpt lat="41.704579679652106" lon="19.774200073498427"><ele>25.0</ele><time>2026-05-05T11:27:45.999Z</time></trkpt><trkpt lat="41.704468459970755" lon="19.774057778646263"><ele>25.0</ele><time>2026-05-05T11:27:47Z</time></trkpt><trkpt lat="41.70435331053624" lon="19.773916582795803"><ele>25.0</ele><time>2026-05-05T11:27:48Z</time></trkpt><trkpt lat="41.704229545473055" lon="19.773769561202126"><ele>25.333333333333336</ele><time>2026-05-05T11:27:49Z</time></trkpt><trkpt lat="41.70410379030645" lon="19.773624854311606"><ele>25.666666666666664</ele><time>2026-05-05T11:27:50Z</time></trkpt><trkpt lat="41.703976159729244" lon="19.773469012483663"><ele>26.0</ele><time>2026-05-05T11:27:51Z</time></trkpt><trkpt lat="41.70384734940381" lon="19.773308018268693"><ele>25.333333333333332</ele><time>2026-05-05T11:27:52Z</time></trkpt><trkpt lat="41.70373044775843" lon="19.773164808808563"><ele>24.666666666666664</ele><time>2026-05-05T11:27:53Z</time></trkpt><trkpt lat="41.70361165383603" lon="19.773004861562185"><ele>24.0</ele><time>2026-05-05T11:27:54Z</time></trkpt><trkpt lat="41.70350769654997" lon="19.77286288069861"><ele>24.0</ele><time>2026-05-05T11:27:55Z</time></trkpt><trkpt lat="41.70340120270254" lon="19.772725792541905"><ele>24.0</ele><time>2026-05-05T11:27:56Z</time></trkpt><trkpt lat="41.70329270156026" lon="19.77258188435033"><ele>24.0</ele><time>2026-05-05T11:27:57Z</time></trkpt><trkpt lat="41.70317946754957" lon="19.772429145858904"><ele>24.0</ele><time>2026-05-05T11:27:58Z</time></trkpt><trkpt lat="41.703063625243615" lon="19.772280554068356"><ele>24.0</ele><time>2026-05-05T11:27:59Z</time></trkpt><trkpt lat="41.70294727747924" lon="19.77213385775292"><ele>24.0</ele><time>2026-05-05T11:28:00Z</time></trkpt><trkpt lat="41.702831125031445" lon="19.77199223092803"><ele>25.0</ele><time>2026-05-05T11:28:01Z</time></trkpt><trkpt lat="41.70270928345703" lon="19.771843447501627"><ele>26.0</ele><time>2026-05-05T11:28:02Z</time></trkpt><trkpt lat="41.7025900634283" lon="19.771688576387948"><ele>27.0</ele><time>2026-05-05T11:28:03Z</time></trkpt><trkpt lat="41.70246907520509" lon="19.77152637266281"><ele>27.0</ele><time>2026-05-05T11:28:04Z</time></trkpt><trkpt lat="41.7023488470332" lon="19.771372158191255"><ele>27.0</ele><time>2026-05-05T11:28:05Z</time></trkpt><trkpt lat="41.70223025267791" lon="19.771203719920166"><ele>27.0</ele><time>2026-05-05T11:28:06Z</time></trkpt><trkpt lat="41.702103018263614" lon="19.771036572724377"><ele>27.666666666666664</ele><time>2026-05-05T11:28:07Z</time></trkpt><trkpt lat="41.701966681287864" lon="19.770861569026913"><ele>28.333333333333332</ele><time>2026-05-05T11:28:08Z</time></trkpt><trkpt lat="41.70182798878255" lon="19.770684578054126"><ele>29.0</ele><time>2026-05-05T11:28:09Z</time></trkpt><trkpt lat="41.70169418920836" lon="19.77051679634343"><ele>29.0</ele><time>2026-05-05T11:28:10Z</time></trkpt><trkpt lat="41.70156149966582" lon="19.77034146923541"><ele>29.0</ele><time>2026-05-05T11:28:11Z</time></trkpt><trkpt lat="41.70141653217862" lon="19.770161077237102"><ele>29.0</ele><time>2026-05-05T11:28:12Z</time></trkpt><trkpt lat="41.70127073038411" lon="19.769964846395936"><ele>29.666666666666664</ele><time>2026-05-05T11:28:13Z</time></trkpt><trkpt lat="41.7011213315034" lon="19.76977400104844"><ele>30.333333333333336</ele><time>2026-05-05T11:28:14Z</time></trkpt><trkpt lat="41.70097590885824" lon="19.769582488597706"><ele>31.0</ele><time>2026-05-05T11:28:15Z</time></trkpt><trkpt lat="41.70081761688048" lon="19.769386133956257"><ele>27.666666666666668</ele><time>2026-05-05T11:28:16Z</time></trkpt><trkpt lat="41.70065972799026" lon="19.769183607061148"><ele>24.333333333333336</ele><time>2026-05-05T11:28:17Z</time></trkpt><trkpt lat="41.70050389004926" lon="19.76898339179922"><ele>21.0</ele><time>2026-05-05T11:28:18Z</time></trkpt><trkpt lat="41.70034457349988" lon="19.768778018011268"><ele>25.0</ele><time>2026-05-05T11:28:19Z</time></trkpt><trkpt lat="41.70018027268957" lon="19.768570405635607"><ele>29.0</ele><time>2026-05-05T11:28:20Z</time></trkpt><trkpt lat="41.7000139793879" lon="19.768361166112932"><ele>29.0</ele><time>2026-05-05T11:28:21Z</time></trkpt><trkpt lat="41.699850286859885" lon="19.768134753459286"><ele>29.0</ele><time>2026-05-05T11:28:22Z</time></trkpt><trkpt lat="41.699693334553565" lon="19.767906519927976"><ele>26.0</ele><time>2026-05-05T11:28:23Z</time></trkpt><trkpt lat="41.69955393037389" lon="19.767656370397223"><ele>23.0</ele><time>2026-05-05T11:28:24Z</time></trkpt><trkpt lat="41.69943541694266" lon="19.76738996522179"><ele>25.0</ele><time>2026-05-05T11:28:25Z</time></trkpt><trkpt lat="41.69932802947141" lon="19.76711212572042"><ele>27.0</ele><time>2026-05-05T11:28:26Z</time></trkpt><trkpt lat="41.699232589686055" lon="19.766826830749476"><ele>27.0</ele><time>2026-05-05T11:28:27Z</time></trkpt><trkpt lat="41.699154035997644" lon="19.76652382017941"><ele>27.0</ele><time>2026-05-05T11:28:28Z</time></trkpt><trkpt lat="41.699096697162794" lon="19.766199120736452"><ele>25.0</ele><time>2026-05-05T11:28:29Z</time></trkpt><trkpt lat="41.69906616122645" lon="19.765855659214246"><ele>23.0</ele><time>2026-05-05T11:28:30Z</time></trkpt><trkpt lat="41.69906033824941" lon="19.765502252741577"><ele>23.0</ele><time>2026-05-05T11:28:31Z</time></trkpt><trkpt lat="41.69908571917759" lon="19.765141516077236"><ele>23.0</ele><time>2026-05-05T11:28:32Z</time></trkpt><trkpt lat="41.69912708316169" lon="19.764774828250268"><ele>23.0</ele><time>2026-05-05T11:28:33Z</time></trkpt><trkpt lat="41.69918238861614" lon="19.764404007353626"><ele>23.0</ele><time>2026-05-05T11:28:34Z</time></trkpt><trkpt lat="41.69924333262117" lon="19.764028625296756"><ele>22.5</ele><time>2026-05-05T11:28:35Z</time></trkpt><trkpt lat="41.69929622565475" lon="19.763648406511233"><ele>22.0</ele><time>2026-05-05T11:28:36Z</time></trkpt><trkpt lat="41.69935193508893" lon="19.763262701381297"><ele>23.0</ele><time>2026-05-05T11:28:37Z</time></trkpt><trkpt lat="41.69941654956767" lon="19.762887120820146"><ele>24.0</ele><time>2026-05-05T11:28:38Z</time></trkpt><trkpt lat="41.69948280666721" lon="19.76254547944136"><ele>21.0</ele><time>2026-05-05T11:28:39Z</time></trkpt><trkpt lat="41.69953848374495" lon="19.76221759749709"><ele>18.0</ele><time>2026-05-05T11:28:40Z</time></trkpt><trkpt lat="41.69957128222809" lon="19.761886105592872"><ele>20.0</ele><time>2026-05-05T11:28:41Z</time></trkpt><trkpt lat="41.69957794106954" lon="19.76155448439346"><ele>22.0</ele><time>2026-05-05T11:28:42Z</time></trkpt><trkpt lat="41.69956168553183" lon="19.76121594757878"><ele>27.5</ele><time>2026-05-05T11:28:43Z</time></trkpt><trkpt lat="41.69953573560986" lon="19.760866664288816"><ele>33.0</ele><time>2026-05-05T11:28:44Z</time></trkpt><trkpt lat="41.69949802669458" lon="19.760517181665126"><ele>30.0</ele><time>2026-05-05T11:28:45Z</time></trkpt><trkpt lat="41.69945092151783" lon="19.760165609139317"><ele>27.0</ele><time>2026-05-05T11:28:46Z</time></trkpt><trkpt lat="41.69939933909677" lon="19.75981635266447"><ele>26.0</ele><time>2026-05-05T11:28:47Z</time></trkpt><trkpt lat="41.699344634987156" lon="19.759459285938362"><ele>25.0</ele><time>2026-05-05T11:28:48Z</time></trkpt><trkpt lat="41.699293429077045" lon="19.759108115824883"><ele>25.0</ele><time>2026-05-05T11:28:49Z</time></trkpt><trkpt lat="41.69924252040802" lon="19.758757139427114"><ele>25.0</ele><time>2026-05-05T11:28:50Z</time></trkpt><trkpt lat="41.699196104370735" lon="19.758412123677935"><ele>26.5</ele><time>2026-05-05T11:28:51Z</time></trkpt><trkpt lat="41.699148788038165" lon="19.758072263254082"><ele>28.0</ele><time>2026-05-05T11:28:52Z</time></trkpt><trkpt lat="41.699100376561944" lon="19.757735764649226"><ele>29.5</ele><time>2026-05-05T11:28:53Z</time></trkpt><trkpt lat="41.69906112323281" lon="19.757399074449225"><ele>31.0</ele><time>2026-05-05T11:28:54Z</time></trkpt><trkpt lat="41.699034557877674" lon="19.75706310500766"><ele>28.5</ele><time>2026-05-05T11:28:54.999Z</time></trkpt><trkpt lat="41.6990168618043" lon="19.75672426277959"><ele>26.0</ele><time>2026-05-05T11:28:55.999Z</time></trkpt><trkpt lat="41.699000519484805" lon="19.756390785237166"><ele>26.0</ele><time>2026-05-05T11:28:56.999Z</time></trkpt><trkpt lat="41.698981968385176" lon="19.756051668884695"><ele>26.0</ele><time>2026-05-05T11:28:57.999Z</time></trkpt><trkpt lat="41.69896727298272" lon="19.755716258140115"><ele>25.0</ele><time>2026-05-05T11:28:58.999Z</time></trkpt><trkpt lat="41.69895170405787" lon="19.755376931121443"><ele>24.0</ele><time>2026-05-05T11:28:59.999Z</time></trkpt><trkpt lat="41.69893103192385" lon="19.75503771066071"><ele>23.0</ele><time>2026-05-05T11:29:00.999Z</time></trkpt><trkpt lat="41.69890969863041" lon="19.754695312104403"><ele>22.0</ele><time>2026-05-05T11:29:01.999Z</time></trkpt><trkpt lat="41.69889025120386" lon="19.75434604639858"><ele>22.0</ele><time>2026-05-05T11:29:02.999Z</time></trkpt><trkpt lat="41.69887732759004" lon="19.753997009249545"><ele>22.0</ele><time>2026-05-05T11:29:03.999Z</time></trkpt><trkpt lat="41.69886550575084" lon="19.75365141477367"><ele>22.0</ele><time>2026-05-05T11:29:04.999Z</time></trkpt><trkpt lat="41.69885312062693" lon="19.753308587285918"><ele>22.0</ele><time>2026-05-05T11:29:05.999Z</time></trkpt><trkpt lat="41.69883973160178" lon="19.752963638968286"><ele>20.0</ele><time>2026-05-05T11:29:06.999Z</time></trkpt><trkpt lat="41.69882589525772" lon="19.752617544374537"><ele>18.0</ele><time>2026-05-05T11:29:07.999Z</time></trkpt><trkpt lat="41.69880573582201" lon="19.752270612659487"><ele>18.0</ele><time>2026-05-05T11:29:08.999Z</time></trkpt><trkpt lat="41.69878570404202" lon="19.751922832450198"><ele>18.0</ele><time>2026-05-05T11:29:09.999Z</time></trkpt><trkpt lat="41.69876367699299" lon="19.7515708558172"><ele>18.0</ele><time>2026-05-05T11:29:10.999Z</time></trkpt><trkpt lat="41.69874243110503" lon="19.7512173467438"><ele>18.0</ele><time>2026-05-05T11:29:11.999Z</time></trkpt><trkpt lat="41.69872230718642" lon="19.750855957181265"><ele>19.0</ele><time>2026-05-05T11:29:12.999Z</time></trkpt><trkpt lat="41.698706890655735" lon="19.75049661150055"><ele>20.0</ele><time>2026-05-05T11:29:13.999Z</time></trkpt><trkpt lat="41.69869138186561" lon="19.750133373286182"><ele>20.0</ele><time>2026-05-05T11:29:14.999Z</time></trkpt><trkpt lat="41.69867587923747" lon="19.749769435485735"><ele>20.0</ele><time>2026-05-05T11:29:15.999Z</time></trkpt><trkpt lat="41.69865977415339" lon="19.74940427898977"><ele>19.5</ele><time>2026-05-05T11:29:16.999Z</time></trkpt><trkpt lat="41.69864194545029" lon="19.749040894304475"><ele>19.0</ele><time>2026-05-05T11:29:17.999Z</time></trkpt><trkpt lat="41.69862347169351" lon="19.74867927728691"><ele>19.5</ele><time>2026-05-05T11:29:18.999Z</time></trkpt><trkpt lat="41.69860273017327" lon="19.74832059668066"><ele>20.0</ele><time>2026-05-05T11:29:19.999Z</time></trkpt><trkpt lat="41.698581224256806" lon="19.747966656884643"><ele>22.0</ele><time>2026-05-05T11:29:20.999Z</time></trkpt><trkpt lat="41.698559300448196" lon="19.74761397495466"><ele>24.0</ele><time>2026-05-05T11:29:21.999Z</time></trkpt><trkpt lat="41.69853840285477" lon="19.7472619450101"><ele>24.0</ele><time>2026-05-05T11:29:22.999Z</time></trkpt><trkpt lat="41.698521442874195" lon="19.746915689490418"><ele>24.0</ele><time>2026-05-05T11:29:23.999Z</time></trkpt><trkpt lat="41.6985070826813" lon="19.74656296009915"><ele>22.5</ele><time>2026-05-05T11:29:24.999Z</time></trkpt><trkpt lat="41.69849078263972" lon="19.74620420591523"><ele>21.0</ele><time>2026-05-05T11:29:25.999Z</time></trkpt><trkpt lat="41.69847257816542" lon="19.7458475838838"><ele>21.0</ele><time>2026-05-05T11:29:26.999Z</time></trkpt><trkpt lat="41.69844952879792" lon="19.745492617515346"><ele>21.0</ele><time>2026-05-05T11:29:27.999Z</time></trkpt><trkpt lat="41.698426494063284" lon="19.745131457050505"><ele>20.5</ele><time>2026-05-05T11:29:28.999Z</time></trkpt><trkpt lat="41.698406905113345" lon="19.74476440244429"><ele>20.0</ele><time>2026-05-05T11:29:29.999Z</time></trkpt><trkpt lat="41.6983873684227" lon="19.744400668411345"><ele>21.0</ele><time>2026-05-05T11:29:30.999Z</time></trkpt><trkpt lat="41.69836898837379" lon="19.744034213535976"><ele>22.0</ele><time>2026-05-05T11:29:31.999Z</time></trkpt><trkpt lat="41.69834791686025" lon="19.74366469068502"><ele>22.0</ele><time>2026-05-05T11:29:32.999Z</time></trkpt><trkpt lat="41.69832934914175" lon="19.743288575259978"><ele>22.0</ele><time>2026-05-05T11:29:33.999Z</time></trkpt><trkpt lat="41.69830947555993" lon="19.742913523802606"><ele>22.0</ele><time>2026-05-05T11:29:34.999Z</time></trkpt><trkpt lat="41.69829483462443" lon="19.742537879577554"><ele>22.0</ele><time>2026-05-05T11:29:35.999Z</time></trkpt><trkpt lat="41.698283858344794" lon="19.742161530912938"><ele>21.5</ele><time>2026-05-05T11:29:36.999Z</time></trkpt><trkpt lat="41.69827790533461" lon="19.7417859270149"><ele>21.0</ele><time>2026-05-05T11:29:37.999Z</time></trkpt><trkpt lat="41.698268636725" lon="19.74140786837446"><ele>20.5</ele><time>2026-05-05T11:29:38.999Z</time></trkpt><trkpt lat="41.69825034247404" lon="19.74103495334664"><ele>20.0</ele><time>2026-05-05T11:29:39.999Z</time></trkpt><trkpt lat="41.698230613832216" lon="19.740658622924503"><ele>20.0</ele><time>2026-05-05T11:29:40.999Z</time></trkpt><trkpt lat="41.698206498004225" lon="19.740273642660835"><ele>20.0</ele><time>2026-05-05T11:29:41.999Z</time></trkpt><trkpt lat="41.69818388387618" lon="19.739891013416138"><ele>19.5</ele><time>2026-05-05T11:29:42.999Z</time></trkpt><trkpt lat="41.69816522668704" lon="19.739513441670535"><ele>19.0</ele><time>2026-05-05T11:29:43.999Z</time></trkpt><trkpt lat="41.69815354090978" lon="19.73913675351681"><ele>18.0</ele><time>2026-05-05T11:29:44.999Z</time></trkpt><trkpt lat="41.698144038513284" lon="19.738763718517337"><ele>17.0</ele><time>2026-05-05T11:29:45.999Z</time></trkpt><trkpt lat="41.69814209430512" lon="19.73839210166014"><ele>17.0</ele><time>2026-05-05T11:29:46.999Z</time></trkpt><trkpt lat="41.69814858213617" lon="19.73801823649823"><ele>17.0</ele><time>2026-05-05T11:29:47.999Z</time></trkpt><trkpt lat="41.69816648807467" lon="19.737650897818884"><ele>17.0</ele><time>2026-05-05T11:29:48.999Z</time></trkpt><trkpt lat="41.69820456119436" lon="19.737289095462703"><ele>17.0</ele><time>2026-05-05T11:29:49.999Z</time></trkpt><trkpt lat="41.69826299183237" lon="19.73693575385415"><ele>18.5</ele><time>2026-05-05T11:29:50.999Z</time></trkpt><trkpt lat="41.69833699497883" lon="19.73659124798937"><ele>20.0</ele><time>2026-05-05T11:29:51.999Z</time></trkpt><trkpt lat="41.698415756582136" lon="19.736250894137495"><ele>25.0</ele><time>2026-05-05T11:29:53Z</time></trkpt><trkpt lat="41.6984947733741" lon="19.73591098284678"><ele>30.0</ele><time>2026-05-05T11:29:54Z</time></trkpt><trkpt lat="41.69857133725834" lon="19.735572962079907"><ele>21.0</ele><time>2026-05-05T11:29:55Z</time></trkpt><trkpt lat="41.698644953231394" lon="19.735236292304506"><ele>12.0</ele><time>2026-05-05T11:29:56Z</time></trkpt><trkpt lat="41.69871679344779" lon="19.734894425318487"><ele>12.0</ele><time>2026-05-05T11:29:57Z</time></trkpt><trkpt lat="41.69878579663219" lon="19.734550804588395"><ele>12.0</ele><time>2026-05-05T11:29:58Z</time></trkpt><trkpt lat="41.69884780945404" lon="19.734206261009525"><ele>13.5</ele><time>2026-05-05T11:29:59Z</time></trkpt><trkpt lat="41.69889188198754" lon="19.733857547106762"><ele>15.0</ele><time>2026-05-05T11:30:00Z</time></trkpt><trkpt lat="41.698920765528186" lon="19.73350955614139"><ele>15.0</ele><time>2026-05-05T11:30:01Z</time></trkpt><trkpt lat="41.69893225708333" lon="19.7331591299132"><ele>15.0</ele><time>2026-05-05T11:30:02Z</time></trkpt><trkpt lat="41.69893073746068" lon="19.732807910311834"><ele>10.0</ele><time>2026-05-05T11:30:03Z</time></trkpt><trkpt lat="41.69890901876611" lon="19.73245607189703"><ele>5.0</ele><time>2026-05-05T11:30:04Z</time></trkpt><trkpt lat="41.69886055565322" lon="19.73210860383385"><ele>11.0</ele><time>2026-05-05T11:30:05Z</time></trkpt><trkpt lat="41.69879117849064" lon="19.731768063724292"><ele>17.0</ele><time>2026-05-05T11:30:06Z</time></trkpt><trkpt lat="41.69870403869042" lon="19.731431429035055"><ele>17.0</ele><time>2026-05-05T11:30:07Z</time></trkpt><trkpt lat="41.69859824327409" lon="19.731093499785747"><ele>17.0</ele><time>2026-05-05T11:30:08Z</time></trkpt><trkpt lat="41.69848208703105" lon="19.730761510840495"><ele>18.5</ele><time>2026-05-05T11:30:09Z</time></trkpt><trkpt lat="41.69834532476067" lon="19.730430148368203"><ele>20.0</ele><time>2026-05-05T11:30:10Z</time></trkpt><trkpt lat="41.69818065393115" lon="19.73010632495479"><ele>20.0</ele><time>2026-05-05T11:30:11Z</time></trkpt><trkpt lat="41.69799708892912" lon="19.729781421402247"><ele>20.0</ele><time>2026-05-05T11:30:12Z</time></trkpt><trkpt lat="41.697807072490086" lon="19.729458634567397"><ele>23.5</ele><time>2026-05-05T11:30:13Z</time></trkpt><trkpt lat="41.69761660744329" lon="19.72914293397632"><ele>27.0</ele><time>2026-05-05T11:30:14Z</time></trkpt><trkpt lat="41.69742462083612" lon="19.728829944048076"><ele>22.0</ele><time>2026-05-05T11:30:15Z</time></trkpt><trkpt lat="41.69723471373145" lon="19.728513890277757"><ele>17.0</ele><time>2026-05-05T11:30:16Z</time></trkpt><trkpt lat="41.69704643506303" lon="19.728200239324075"><ele>16.5</ele><time>2026-05-05T11:30:17Z</time></trkpt><trkpt lat="41.696858213964184" lon="19.727887555497354"><ele>16.0</ele><time>2026-05-05T11:30:18Z</time></trkpt><trkpt lat="41.69666703037361" lon="19.727576203524496"><ele>16.0</ele><time>2026-05-05T11:30:19Z</time></trkpt><trkpt lat="41.69647774302573" lon="19.72726755774661"><ele>16.0</ele><time>2026-05-05T11:30:20Z</time></trkpt><trkpt lat="41.69628652043588" lon="19.726954887651463"><ele>17.0</ele><time>2026-05-05T11:30:21Z</time></trkpt><trkpt lat="41.696098556569034" lon="19.726641899090453"><ele>18.0</ele><time>2026-05-05T11:30:22Z</time></trkpt><trkpt lat="41.69591269291988" lon="19.726329290087428"><ele>19.0</ele><time>2026-05-05T11:30:23Z</time></trkpt><trkpt lat="41.695726978860264" lon="19.726015505693717"><ele>20.0</ele><time>2026-05-05T11:30:24Z</time></trkpt><trkpt lat="41.6955436708728" lon="19.725702883204193"><ele>20.0</ele><time>2026-05-05T11:30:25Z</time></trkpt><trkpt lat="41.6953596404784" lon="19.725390454513956"><ele>20.0</ele><time>2026-05-05T11:30:26Z</time></trkpt><trkpt lat="41.69517585563476" lon="19.72507651586951"><ele>19.0</ele><time>2026-05-05T11:30:27Z</time></trkpt><trkpt lat="41.69498870851384" lon="19.72476346191681"><ele>18.0</ele><time>2026-05-05T11:30:28Z</time></trkpt><trkpt lat="41.69480049328779" lon="19.724452234919244"><ele>18.0</ele><time>2026-05-05T11:30:29Z</time></trkpt><trkpt lat="41.69460176674497" lon="19.724148409225023"><ele>18.0</ele><time>2026-05-05T11:30:30Z</time></trkpt><trkpt lat="41.694386223385365" lon="19.723871367723593"><ele>18.0</ele><time>2026-05-05T11:30:31Z</time></trkpt><trkpt lat="41.6941558639393" lon="19.723609248533798"><ele>18.0</ele><time>2026-05-05T11:30:32Z</time></trkpt><trkpt lat="41.69392344289563" lon="19.72336406508432"><ele>18.0</ele><time>2026-05-05T11:30:33Z</time></trkpt><trkpt lat="41.693684938440946" lon="19.72312560603063"><ele>18.0</ele><time>2026-05-05T11:30:34Z</time></trkpt><trkpt lat="41.69344227891908" lon="19.72290243122908"><ele>15.5</ele><time>2026-05-05T11:30:35Z</time></trkpt><trkpt lat="41.693201983112274" lon="19.722685757708494"><ele>13.0</ele><time>2026-05-05T11:30:36Z</time></trkpt><trkpt lat="41.69297810137959" lon="19.72248820078955"><ele>13.0</ele><time>2026-05-05T11:30:37Z</time></trkpt><trkpt lat="41.69276665219147" lon="19.72230004515352"><ele>13.0</ele><time>2026-05-05T11:30:38Z</time></trkpt><trkpt lat="41.69254979323578" lon="19.722102128819582"><ele>13.0</ele><time>2026-05-05T11:30:39Z</time></trkpt><trkpt lat="41.6923581802582" lon="19.721915656645592"><ele>13.0</ele><time>2026-05-05T11:30:40Z</time></trkpt><trkpt lat="41.692178537221345" lon="19.721736065407285"><ele>13.333333333333332</ele><time>2026-05-05T11:30:41Z</time></trkpt><trkpt lat="41.691993329301255" lon="19.72155897869577"><ele>13.666666666666668</ele><time>2026-05-05T11:30:42Z</time></trkpt><trkpt lat="41.691812377233994" lon="19.721391210145665"><ele>14.0</ele><time>2026-05-05T11:30:43Z</time></trkpt><trkpt lat="41.69164025988314" lon="19.72124916844315"><ele>14.333333333333334</ele><time>2026-05-05T11:30:44Z</time></trkpt><trkpt lat="41.69147556910011" lon="19.721112707553733"><ele>14.666666666666668</ele><time>2026-05-05T11:30:45Z</time></trkpt><trkpt lat="41.69131521218324" lon="19.721001210740308"><ele>15.0</ele><time>2026-05-05T11:30:46Z</time></trkpt><trkpt lat="41.69115425488178" lon="19.720899300659255"><ele>15.0</ele><time>2026-05-05T11:30:47Z</time></trkpt><trkpt lat="41.690990395867715" lon="19.720790031729607"><ele>15.0</ele><time>2026-05-05T11:30:48Z</time></trkpt><trkpt lat="41.69082819930975" lon="19.720674423587024"><ele>15.0</ele><time>2026-05-05T11:30:49Z</time></trkpt><trkpt lat="41.69066569737054" lon="19.720557113014003"><ele>15.0</ele><time>2026-05-05T11:30:50Z</time></trkpt><trkpt lat="41.69050380892894" lon="19.72043594624402"><ele>15.0</ele><time>2026-05-05T11:30:51Z</time></trkpt><trkpt lat="41.690347763000794" lon="19.72033369018828"><ele>15.0</ele><time>2026-05-05T11:30:52Z</time></trkpt><trkpt lat="41.69020566208979" lon="19.72023758313611"><ele>14.75</ele><time>2026-05-05T11:30:53Z</time></trkpt><trkpt lat="41.69007243149814" lon="19.720139227005355"><ele>14.5</ele><time>2026-05-05T11:30:54Z</time></trkpt><trkpt lat="41.689945044127754" lon="19.720050136794377"><ele>14.25</ele><time>2026-05-05T11:30:55Z</time></trkpt><trkpt lat="41.6898211457435" lon="19.71996060313805"><ele>14.0</ele><time>2026-05-05T11:30:56Z</time></trkpt><trkpt lat="41.68970481346454" lon="19.719865117297797"><ele>14.0</ele><time>2026-05-05T11:30:57Z</time></trkpt><trkpt lat="41.68959025120616" lon="19.719754830824805"><ele>14.0</ele><time>2026-05-05T11:30:58Z</time></trkpt><trkpt lat="41.68947941230895" lon="19.719634574016474"><ele>14.0</ele><time>2026-05-05T11:30:59Z</time></trkpt><trkpt lat="41.68935916712603" lon="19.719510281453676"><ele>14.0</ele><time>2026-05-05T11:31:00Z</time></trkpt><trkpt lat="41.689243579374384" lon="19.719381290844115"><ele>15.0</ele><time>2026-05-05T11:31:01Z</time></trkpt><trkpt lat="41.689129272648984" lon="19.719237807947284"><ele>16.0</ele><time>2026-05-05T11:31:02Z</time></trkpt><trkpt lat="41.689017244370135" lon="19.719077823240287"><ele>17.0</ele><time>2026-05-05T11:31:03Z</time></trkpt><trkpt lat="41.68890130868831" lon="19.71892770505542"><ele>17.0</ele><time>2026-05-05T11:31:04Z</time></trkpt><trkpt lat="41.688774064815675" lon="19.718779715884427"><ele>17.0</ele><time>2026-05-05T11:31:05Z</time></trkpt><trkpt lat="41.688647383760674" lon="19.718623035329355"><ele>17.0</ele><time>2026-05-05T11:31:06Z</time></trkpt><trkpt lat="41.68852719365161" lon="19.71846170512734"><ele>18.0</ele><time>2026-05-05T11:31:07Z</time></trkpt><trkpt lat="41.68840631471624" lon="19.718309803446143"><ele>19.0</ele><time>2026-05-05T11:31:08Z</time></trkpt><trkpt lat="41.68828838521587" lon="19.71816394014445"><ele>20.0</ele><time>2026-05-05T11:31:09Z</time></trkpt><trkpt lat="41.68816815742289" lon="19.71800793917474"><ele>20.0</ele><time>2026-05-05T11:31:10Z</time></trkpt><trkpt lat="41.688048368710774" lon="19.717861729345834"><ele>20.0</ele><time>2026-05-05T11:31:11Z</time></trkpt><trkpt lat="41.687922731147424" lon="19.71771474053717"><ele>20.0</ele><time>2026-05-05T11:31:12Z</time></trkpt><trkpt lat="41.6878001692563" lon="19.717563918477822"><ele>20.666666666666668</ele><time>2026-05-05T11:31:13Z</time></trkpt><trkpt lat="41.68768308721753" lon="19.717421830587547"><ele>21.333333333333332</ele><time>2026-05-05T11:31:14Z</time></trkpt><trkpt lat="41.68755963123506" lon="19.71727390178022"><ele>22.0</ele><time>2026-05-05T11:31:15Z</time></trkpt><trkpt lat="41.68743948042629" lon="19.717125283403035"><ele>22.0</ele><time>2026-05-05T11:31:16Z</time></trkpt><trkpt lat="41.68732372377835" lon="19.716977124917808"><ele>22.0</ele><time>2026-05-05T11:31:17Z</time></trkpt><trkpt lat="41.68721729810329" lon="19.716821812659457"><ele>22.0</ele><time>2026-05-05T11:31:18Z</time></trkpt><trkpt lat="41.68710212097937" lon="19.716670544593544"><ele>21.333333333333332</ele><time>2026-05-05T11:31:19Z</time></trkpt><trkpt lat="41.68698293718607" lon="19.71651958546615"><ele>20.666666666666668</ele><time>2026-05-05T11:31:20Z</time></trkpt><trkpt lat="41.68686262874893" lon="19.716371139991885"><ele>20.0</ele><time>2026-05-05T11:31:21Z</time></trkpt><trkpt lat="41.68673404486645" lon="19.716228514565568"><ele>20.0</ele><time>2026-05-05T11:31:22Z</time></trkpt><trkpt lat="41.68660570219313" lon="19.716080737220103"><ele>20.0</ele><time>2026-05-05T11:31:23Z</time></trkpt><trkpt lat="41.686483182829214" lon="19.71593253757429"><ele>20.0</ele><time>2026-05-05T11:31:24Z</time></trkpt><trkpt lat="41.68636358892573" lon="19.715778788700387"><ele>19.333333333333336</ele><time>2026-05-05T11:31:25Z</time></trkpt><trkpt lat="41.68623980089215" lon="19.71562718752646"><ele>18.666666666666668</ele><time>2026-05-05T11:31:26Z</time></trkpt><trkpt lat="41.68611585368691" lon="19.715477831837116"><ele>18.0</ele><time>2026-05-05T11:31:27Z</time></trkpt><trkpt lat="41.68599118689909" lon="19.715325985717687"><ele>17.333333333333332</ele><time>2026-05-05T11:31:28Z</time></trkpt><trkpt lat="41.68587267608463" lon="19.715171793528143"><ele>16.666666666666664</ele><time>2026-05-05T11:31:29Z</time></trkpt><trkpt lat="41.68575501714688" lon="19.715010331828548"><ele>16.0</ele><time>2026-05-05T11:31:30Z</time></trkpt><trkpt lat="41.68563559682454" lon="19.714846322146837"><ele>16.0</ele><time>2026-05-05T11:31:31Z</time></trkpt><trkpt lat="41.68550607547476" lon="19.71468482968927"><ele>16.0</ele><time>2026-05-05T11:31:32Z</time></trkpt><trkpt lat="41.68537302767689" lon="19.71452248093791"><ele>16.0</ele><time>2026-05-05T11:31:33Z</time></trkpt><trkpt lat="41.68523862597689" lon="19.714356710412055"><ele>16.0</ele><time>2026-05-05T11:31:34Z</time></trkpt><trkpt lat="41.685113286082505" lon="19.714190201614695"><ele>16.0</ele><time>2026-05-05T11:31:35Z</time></trkpt><trkpt lat="41.68498334839903" lon="19.714021454328815"><ele>16.0</ele><time>2026-05-05T11:31:36Z</time></trkpt><trkpt lat="41.68485557277452" lon="19.71385582590012"><ele>16.0</ele><time>2026-05-05T11:31:37Z</time></trkpt><trkpt lat="41.68473646521329" lon="19.7136928728953"><ele>16.0</ele><time>2026-05-05T11:31:38Z</time></trkpt><trkpt lat="41.68462206448813" lon="19.71353390920006"><ele>16.0</ele><time>2026-05-05T11:31:39Z</time></trkpt><trkpt lat="41.68450698451451" lon="19.71337633780853"><ele>15.0</ele><time>2026-05-05T11:31:40Z</time></trkpt><trkpt lat="41.68438648569474" lon="19.713224984494456"><ele>14.0</ele><time>2026-05-05T11:31:41Z</time></trkpt><trkpt lat="41.68427137967564" lon="19.71306518746484"><ele>13.0</ele><time>2026-05-05T11:31:42Z</time></trkpt><trkpt lat="41.684169830257176" lon="19.712893846783917"><ele>13.5</ele><time>2026-05-05T11:31:42.999Z</time></trkpt><trkpt lat="41.684117052291214" lon="19.71272641500501"><ele>14.0</ele><time>2026-05-05T11:31:43.999Z</time></trkpt><trkpt lat="41.684095582154846" lon="19.71255125156923"><ele>14.5</ele><time>2026-05-05T11:31:44.999Z</time></trkpt><trkpt lat="41.68409244955239" lon="19.712388323101734"><ele>15.0</ele><time>2026-05-05T11:31:45.999Z</time></trkpt><trkpt lat="41.68409973282679" lon="19.712240147276173"><ele>15.0</ele><time>2026-05-05T11:31:46.999Z</time></trkpt><trkpt lat="41.68410602274983" lon="19.712105642881443"><ele>15.0</ele><time>2026-05-05T11:31:47.999Z</time></trkpt><trkpt lat="41.68410868777849" lon="19.71197753678444"><ele>15.0</ele><time>2026-05-05T11:31:48.999Z</time></trkpt><trkpt lat="41.68410562793571" lon="19.71185561457787"><ele>15.0</ele><time>2026-05-05T11:31:49.999Z</time></trkpt><trkpt lat="41.68409437803213" lon="19.711734464478596"><ele>15.0</ele><time>2026-05-05T11:31:50.999Z</time></trkpt><trkpt lat="41.68406085137625" lon="19.71159474848148"><ele>14.75</ele><time>2026-05-05T11:31:51.999Z</time></trkpt><trkpt lat="41.683997105818364" lon="19.71144854577665"><ele>14.5</ele><time>2026-05-05T11:31:52.999Z</time></trkpt><trkpt lat="41.683899425902254" lon="19.711321815482194"><ele>14.25</ele><time>2026-05-05T11:31:53.999Z</time></trkpt><trkpt lat="41.683780643368" lon="19.711194830455636"><ele>14.0</ele><time>2026-05-05T11:31:54.999Z</time></trkpt><trkpt lat="41.683652840704895" lon="19.711042386462235"><ele>13.0</ele><time>2026-05-05T11:31:55.999Z</time></trkpt><trkpt lat="41.683530068204036" lon="19.710876293475557"><ele>12.0</ele><time>2026-05-05T11:31:56.999Z</time></trkpt><trkpt lat="41.683405090682484" lon="19.710703442647084"><ele>11.0</ele><time>2026-05-05T11:31:58Z</time></trkpt><trkpt lat="41.68315320252926" lon="19.710393011865936"><ele>11.0</ele><time>2026-05-05T11:32:00Z</time></trkpt><trkpt lat="41.68303562135794" lon="19.71025571405131"><ele>11.0</ele><time>2026-05-05T11:32:01Z</time></trkpt><trkpt lat="41.68293360395211" lon="19.710126119716886"><ele>11.0</ele><time>2026-05-05T11:32:02Z</time></trkpt><trkpt lat="41.682848250932" lon="19.710009059765326"><ele>11.0</ele><time>2026-05-05T11:32:03Z</time></trkpt><trkpt lat="41.68279169351446" lon="19.709915917445283"><ele>11.0</ele><time>2026-05-05T11:32:04Z</time></trkpt><trkpt lat="41.682781897969626" lon="19.709802830913542"><ele>11.0</ele><time>2026-05-05T11:32:06Z</time></trkpt><trkpt lat="41.682831520357034" lon="19.709717379255284"><ele>11.0</ele><time>2026-05-05T11:32:08Z</time></trkpt><trkpt lat="41.68292939385803" lon="19.709576164959675"><ele>11.0</ele><time>2026-05-05T11:32:10Z</time></trkpt><trkpt lat="41.683009084287214" lon="19.7094767087158"><ele>11.0</ele><time>2026-05-05T11:32:11Z</time></trkpt><trkpt lat="41.68309250962868" lon="19.7093780700766"><ele>12.25</ele><time>2026-05-05T11:32:12Z</time></trkpt><trkpt lat="41.683176234824394" lon="19.709269737334694"><ele>13.5</ele><time>2026-05-05T11:32:13Z</time></trkpt><trkpt lat="41.68325638632987" lon="19.709152664002715"><ele>14.75</ele><time>2026-05-05T11:32:14Z</time></trkpt><trkpt lat="41.68334588143407" lon="19.70902825971687"><ele>16.0</ele><time>2026-05-05T11:32:15Z</time></trkpt><trkpt lat="41.683439165261674" lon="19.70891217687117"><ele>16.0</ele><time>2026-05-05T11:32:16Z</time></trkpt><trkpt lat="41.6835372715215" lon="19.708784802454876"><ele>16.0</ele><time>2026-05-05T11:32:17Z</time></trkpt><trkpt lat="41.68364092313581" lon="19.70864972421905"><ele>16.0</ele><time>2026-05-05T11:32:18Z</time></trkpt><trkpt lat="41.68374146521137" lon="19.70852331732121"><ele>16.0</ele><time>2026-05-05T11:32:19Z</time></trkpt><trkpt lat="41.683846579053096" lon="19.70838682669154"><ele>15.666666666666666</ele><time>2026-05-05T11:32:20Z</time></trkpt><trkpt lat="41.68395280769128" lon="19.70824909443622"><ele>15.333333333333332</ele><time>2026-05-05T11:32:21Z</time></trkpt><trkpt lat="41.68406977769095" lon="19.708108404403614"><ele>15.0</ele><time>2026-05-05T11:32:22Z</time></trkpt><trkpt lat="41.684190732356264" lon="19.707958144492398"><ele>15.0</ele><time>2026-05-05T11:32:23Z</time></trkpt><trkpt lat="41.684312049341244" lon="19.70780849009242"><ele>15.0</ele><time>2026-05-05T11:32:24Z</time></trkpt><trkpt lat="41.684432684446904" lon="19.707651518655656"><ele>15.0</ele><time>2026-05-05T11:32:25Z</time></trkpt><trkpt lat="41.68456572333899" lon="19.70747730804714"><ele>14.0</ele><time>2026-05-05T11:32:26Z</time></trkpt><trkpt lat="41.68468892331246" lon="19.707315785359985"><ele>13.0</ele><time>2026-05-05T11:32:27Z</time></trkpt><trkpt lat="41.68481976996536" lon="19.70714598280658"><ele>12.0</ele><time>2026-05-05T11:32:28Z</time></trkpt><trkpt lat="41.68495248114867" lon="19.706977587516096"><ele>11.666666666666666</ele><time>2026-05-05T11:32:29Z</time></trkpt><trkpt lat="41.685087196245725" lon="19.70680812373459"><ele>11.333333333333332</ele><time>2026-05-05T11:32:30Z</time></trkpt><trkpt lat="41.68521559627165" lon="19.706638537218733"><ele>11.0</ele><time>2026-05-05T11:32:31Z</time></trkpt><trkpt lat="41.68534119035351" lon="19.70647044242684"><ele>10.333333333333332</ele><time>2026-05-05T11:32:32Z</time></trkpt><trkpt lat="41.685470343412376" lon="19.706296902989617"><ele>9.666666666666666</ele><time>2026-05-05T11:32:33Z</time></trkpt><trkpt lat="41.68559540962881" lon="19.706131484313897"><ele>9.0</ele><time>2026-05-05T11:32:34Z</time></trkpt><trkpt lat="41.68572262112724" lon="19.705965557540917"><ele>9.0</ele><time>2026-05-05T11:32:35Z</time></trkpt><trkpt lat="41.68584944334688" lon="19.705804208735586"><ele>9.0</ele><time>2026-05-05T11:32:36Z</time></trkpt><trkpt lat="41.68597814202478" lon="19.705638006005564"><ele>9.0</ele><time>2026-05-05T11:32:37Z</time></trkpt><trkpt lat="41.68610968363033" lon="19.705467403192575"><ele>10.666666666666668</ele><time>2026-05-05T11:32:38Z</time></trkpt><trkpt lat="41.68624110966395" lon="19.705297855871027"><ele>12.333333333333334</ele><time>2026-05-05T11:32:39Z</time></trkpt><trkpt lat="41.68637022429293" lon="19.70512742227729"><ele>14.0</ele><time>2026-05-05T11:32:40Z</time></trkpt><trkpt lat="41.68650507289424" lon="19.704961026414104"><ele>14.0</ele><time>2026-05-05T11:32:41Z</time></trkpt><trkpt lat="41.686635049680916" lon="19.704790534157546"><ele>14.0</ele><time>2026-05-05T11:32:42Z</time></trkpt><trkpt lat="41.686768706003974" lon="19.70461834030302"><ele>14.0</ele><time>2026-05-05T11:32:43Z</time></trkpt><trkpt lat="41.68690436300702" lon="19.704449051755322"><ele>13.333333333333334</ele><time>2026-05-05T11:32:44Z</time></trkpt><trkpt lat="41.68702695552439" lon="19.704281821166084"><ele>12.666666666666668</ele><time>2026-05-05T11:32:45Z</time></trkpt><trkpt lat="41.68715806463531" lon="19.704117497764884"><ele>12.0</ele><time>2026-05-05T11:32:46Z</time></trkpt><trkpt lat="41.68730519576578" lon="19.703936333171118"><ele>12.0</ele><time>2026-05-05T11:32:47Z</time></trkpt><trkpt lat="41.68742610828328" lon="19.70376998464652"><ele>12.0</ele><time>2026-05-05T11:32:48Z</time></trkpt><trkpt lat="41.687551739079154" lon="19.703605404468206"><ele>12.0</ele><time>2026-05-05T11:32:49Z</time></trkpt><trkpt lat="41.687679496868775" lon="19.703442486089138"><ele>12.0</ele><time>2026-05-05T11:32:50Z</time></trkpt><trkpt lat="41.68781556393697" lon="19.703269503532884"><ele>12.0</ele><time>2026-05-05T11:32:51Z</time></trkpt><trkpt lat="41.68794392408034" lon="19.70310710234239"><ele>12.0</ele><time>2026-05-05T11:32:52Z</time></trkpt><trkpt lat="41.68808112092752" lon="19.702931301727435"><ele>13.333333333333332</ele><time>2026-05-05T11:32:53Z</time></trkpt><trkpt lat="41.688222499741514" lon="19.70274663356506"><ele>14.666666666666666</ele><time>2026-05-05T11:32:54Z</time></trkpt><trkpt lat="41.688363787422695" lon="19.702563421198327"><ele>16.0</ele><time>2026-05-05T11:32:55Z</time></trkpt><trkpt lat="41.688494630160804" lon="19.70238787114512"><ele>16.0</ele><time>2026-05-05T11:32:56Z</time></trkpt><trkpt lat="41.68863227660699" lon="19.702204267163065"><ele>16.0</ele><time>2026-05-05T11:32:57Z</time></trkpt><trkpt lat="41.68876432468083" lon="19.70203178170491"><ele>16.0</ele><time>2026-05-05T11:32:58Z</time></trkpt><trkpt lat="41.68889311529325" lon="19.701868127019004"><ele>16.0</ele><time>2026-05-05T11:32:59Z</time></trkpt><trkpt lat="41.689018864140124" lon="19.70170837842678"><ele>16.0</ele><time>2026-05-05T11:33:00Z</time></trkpt><trkpt lat="41.689144781847155" lon="19.70153816756183"><ele>16.0</ele><time>2026-05-05T11:33:01Z</time></trkpt><trkpt lat="41.68926862237608" lon="19.701372690503515"><ele>16.0</ele><time>2026-05-05T11:33:02Z</time></trkpt><trkpt lat="41.68940238083563" lon="19.701204677979113"><ele>16.0</ele><time>2026-05-05T11:33:03Z</time></trkpt><trkpt lat="41.689532379404994" lon="19.701038807381757"><ele>16.0</ele><time>2026-05-05T11:33:04Z</time></trkpt><trkpt lat="41.68965801212507" lon="19.700870396895805"><ele>16.666666666666664</ele><time>2026-05-05T11:33:05Z</time></trkpt><trkpt lat="41.68977506017518" lon="19.7007109596701"><ele>17.333333333333332</ele><time>2026-05-05T11:33:06Z</time></trkpt><trkpt lat="41.689902956129714" lon="19.700549568215223"><ele>18.0</ele><time>2026-05-05T11:33:07Z</time></trkpt><trkpt lat="41.69002424769186" lon="19.700399754160188"><ele>16.666666666666668</ele><time>2026-05-05T11:33:08Z</time></trkpt><trkpt lat="41.6901467618853" lon="19.700242996368427"><ele>15.333333333333334</ele><time>2026-05-05T11:33:09Z</time></trkpt><trkpt lat="41.69027032037918" lon="19.700090754063527"><ele>14.0</ele><time>2026-05-05T11:33:10Z</time></trkpt><trkpt lat="41.69039155203939" lon="19.69993166252392"><ele>17.333333333333336</ele><time>2026-05-05T11:33:11Z</time></trkpt><trkpt lat="41.690510368831454" lon="19.69976987829148"><ele>20.666666666666668</ele><time>2026-05-05T11:33:12Z</time></trkpt><trkpt lat="41.69064169284955" lon="19.699598727521412"><ele>24.0</ele><time>2026-05-05T11:33:13Z</time></trkpt><trkpt lat="41.690771305299776" lon="19.69943179516823"><ele>23.333333333333332</ele><time>2026-05-05T11:33:14Z</time></trkpt><trkpt lat="41.69090714002966" lon="19.699256442009588"><ele>22.666666666666664</ele><time>2026-05-05T11:33:15Z</time></trkpt><trkpt lat="41.69103742094485" lon="19.699079348480716"><ele>22.0</ele><time>2026-05-05T11:33:15.999Z</time></trkpt><trkpt lat="41.69117395907109" lon="19.698895968782043"><ele>22.0</ele><time>2026-05-05T11:33:16.999Z</time></trkpt><trkpt lat="41.69131466957361" lon="19.69871336780036"><ele>22.0</ele><time>2026-05-05T11:33:17.999Z</time></trkpt><trkpt lat="41.69145816749005" lon="19.698527508605313"><ele>22.0</ele><time>2026-05-05T11:33:18.999Z</time></trkpt><trkpt lat="41.69159537124432" lon="19.698348956270085"><ele>19.666666666666664</ele><time>2026-05-05T11:33:19.999Z</time></trkpt><trkpt lat="41.69173456617543" lon="19.698180056365015"><ele>17.333333333333332</ele><time>2026-05-05T11:33:20.999Z</time></trkpt><trkpt lat="41.691880457294396" lon="19.69799661492774"><ele>15.0</ele><time>2026-05-05T11:33:21.999Z</time></trkpt><trkpt lat="41.692020489940916" lon="19.69781858019815"><ele>18.0</ele><time>2026-05-05T11:33:22.999Z</time></trkpt><trkpt lat="41.692157012949394" lon="19.69764441826967"><ele>21.0</ele><time>2026-05-05T11:33:23.999Z</time></trkpt><trkpt lat="41.69229342687671" lon="19.697459057797197"><ele>24.0</ele><time>2026-05-05T11:33:24.999Z</time></trkpt><trkpt lat="41.692433051321714" lon="19.69726635645027"><ele>24.0</ele><time>2026-05-05T11:33:25.999Z</time></trkpt><trkpt lat="41.69257483891217" lon="19.697075950549994"><ele>24.0</ele><time>2026-05-05T11:33:26.999Z</time></trkpt><trkpt lat="41.69272088925302" lon="19.696891519954445"><ele>24.0</ele><time>2026-05-05T11:33:27.999Z</time></trkpt><trkpt lat="41.69287894400383" lon="19.69671958839766"><ele>22.0</ele><time>2026-05-05T11:33:28.999Z</time></trkpt><trkpt lat="41.69304751023064" lon="19.69657501407466"><ele>20.0</ele><time>2026-05-05T11:33:29.999Z</time></trkpt><trkpt lat="41.69322329578042" lon="19.696452273476236"><ele>18.0</ele><time>2026-05-05T11:33:30.999Z</time></trkpt><trkpt lat="41.693411981292456" lon="19.696323542605015"><ele>17.333333333333332</ele><time>2026-05-05T11:33:31.999Z</time></trkpt><trkpt lat="41.693595934586455" lon="19.69618601892865"><ele>16.666666666666664</ele><time>2026-05-05T11:33:32.999Z</time></trkpt><trkpt lat="41.693773917236406" lon="19.69603335866789"><ele>16.0</ele><time>2026-05-05T11:33:33.999Z</time></trkpt><trkpt lat="41.693948760403174" lon="19.695878997089693"><ele>13.666666666666666</ele><time>2026-05-05T11:33:34.999Z</time></trkpt><trkpt lat="41.6941324496576" lon="19.69573497556886"><ele>11.333333333333332</ele><time>2026-05-05T11:33:35.999Z</time></trkpt><trkpt lat="41.694335100451006" lon="19.695589669053113"><ele>9.0</ele><time>2026-05-05T11:33:36.999Z</time></trkpt><trkpt lat="41.69453622089961" lon="19.69545989583709"><ele>9.0</ele><time>2026-05-05T11:33:37.999Z</time></trkpt><trkpt lat="41.69475373976625" lon="19.695322467843187"><ele>9.0</ele><time>2026-05-05T11:33:38.999Z</time></trkpt><trkpt lat="41.694976139044385" lon="19.695183166117346"><ele>9.5</ele><time>2026-05-05T11:33:39.999Z</time></trkpt><trkpt lat="41.6952110218993" lon="19.695037880959582"><ele>10.0</ele><time>2026-05-05T11:33:40.999Z</time></trkpt><trkpt lat="41.695452348811365" lon="19.694895971860973"><ele>10.5</ele><time>2026-05-05T11:33:41.999Z</time></trkpt><trkpt lat="41.69570049790143" lon="19.69475395766395"><ele>11.0</ele><time>2026-05-05T11:33:42.999Z</time></trkpt><trkpt lat="41.69593627409843" lon="19.694627107284422"><ele>12.0</ele><time>2026-05-05T11:33:43.999Z</time></trkpt><trkpt lat="41.69615785805677" lon="19.69451714329984"><ele>13.0</ele><time>2026-05-05T11:33:44.999Z</time></trkpt><trkpt lat="41.69636375733746" lon="19.694422534174034"><ele>12.666666666666666</ele><time>2026-05-05T11:33:45.999Z</time></trkpt><trkpt lat="41.696549902627304" lon="19.694339178170296"><ele>12.333333333333332</ele><time>2026-05-05T11:33:46.999Z</time></trkpt><trkpt lat="41.696707930075085" lon="19.69426652974183"><ele>12.0</ele><time>2026-05-05T11:33:47.999Z</time></trkpt><trkpt lat="41.696852695943114" lon="19.69419608655064"><ele>11.75</ele><time>2026-05-05T11:33:48.999Z</time></trkpt><trkpt lat="41.69698261770575" lon="19.694131166729235"><ele>11.5</ele><time>2026-05-05T11:33:49.999Z</time></trkpt><trkpt lat="41.697103357688" lon="19.69406763579826"><ele>11.25</ele><time>2026-05-05T11:33:50.999Z</time></trkpt><trkpt lat="41.69722461809303" lon="19.69400582722574"><ele>11.0</ele><time>2026-05-05T11:33:51.999Z</time></trkpt><trkpt lat="41.69736986450254" lon="19.693927254043203"><ele>11.0</ele><time>2026-05-05T11:33:52.999Z</time></trkpt><trkpt lat="41.69753809071952" lon="19.693842399811867"><ele>11.0</ele><time>2026-05-05T11:33:53.999Z</time></trkpt><trkpt lat="41.697712583487586" lon="19.69377043264529"><ele>11.0</ele><time>2026-05-05T11:33:54.999Z</time></trkpt><trkpt lat="41.69788994491146" lon="19.693698779272655"><ele>11.333333333333332</ele><time>2026-05-05T11:33:55.999Z</time></trkpt><trkpt lat="41.698066617081274" lon="19.69362006460815"><ele>11.666666666666666</ele><time>2026-05-05T11:33:56.999Z</time></trkpt><trkpt lat="41.698240853601355" lon="19.693537660560057"><ele>12.0</ele><time>2026-05-05T11:33:57.999Z</time></trkpt><trkpt lat="41.698411021460494" lon="19.693453519964173"><ele>12.0</ele><time>2026-05-05T11:33:58.999Z</time></trkpt><trkpt lat="41.698580970601796" lon="19.693367524923847"><ele>12.0</ele><time>2026-05-05T11:33:59.999Z</time></trkpt><trkpt lat="41.698749183450225" lon="19.693274454166605"><ele>12.0</ele><time>2026-05-05T11:34:00.999Z</time></trkpt><trkpt lat="41.69891748143803" lon="19.693177361733664"><ele>12.333333333333332</ele><time>2026-05-05T11:34:01.999Z</time></trkpt><trkpt lat="41.699084142130836" lon="19.693076429092482"><ele>12.666666666666666</ele><time>2026-05-05T11:34:02.999Z</time></trkpt><trkpt lat="41.69924604627484" lon="19.692978418512013"><ele>13.0</ele><time>2026-05-05T11:34:04Z</time></trkpt><trkpt lat="41.69942154590978" lon="19.692868196838106"><ele>12.666666666666666</ele><time>2026-05-05T11:34:05Z</time></trkpt><trkpt lat="41.69959019453732" lon="19.692771693693665"><ele>12.333333333333332</ele><time>2026-05-05T11:34:06Z</time></trkpt><trkpt lat="41.699760035688335" lon="19.692676233507818"><ele>12.0</ele><time>2026-05-05T11:34:07Z</time></trkpt><trkpt lat="41.699936412260065" lon="19.692581061335133"><ele>12.0</ele><time>2026-05-05T11:34:08Z</time></trkpt><trkpt lat="41.700110351288004" lon="19.692485665353228"><ele>12.0</ele><time>2026-05-05T11:34:09Z</time></trkpt><trkpt lat="41.70028184829843" lon="19.69238452153821"><ele>12.0</ele><time>2026-05-05T11:34:10Z</time></trkpt><trkpt lat="41.700455046736266" lon="19.692273758729446"><ele>13.333333333333332</ele><time>2026-05-05T11:34:11Z</time></trkpt><trkpt lat="41.70062631453368" lon="19.69216273232817"><ele>14.666666666666666</ele><time>2026-05-05T11:34:12Z</time></trkpt><trkpt lat="41.70079693442829" lon="19.69204286973511"><ele>16.0</ele><time>2026-05-05T11:34:13Z</time></trkpt><trkpt lat="41.70096252764893" lon="19.6919032037645"><ele>16.666666666666664</ele><time>2026-05-05T11:34:14Z</time></trkpt><trkpt lat="41.70112085741523" lon="19.691749370330058"><ele>17.333333333333332</ele><time>2026-05-05T11:34:15Z</time></trkpt><trkpt lat="41.701282426697254" lon="19.691587357201033"><ele>18.0</ele><time>2026-05-05T11:34:16Z</time></trkpt><trkpt lat="41.70144093891777" lon="19.691430304821836"><ele>18.0</ele><time>2026-05-05T11:34:17Z</time></trkpt><trkpt lat="41.701605421926814" lon="19.69127014235992"><ele>18.0</ele><time>2026-05-05T11:34:18Z</time></trkpt><trkpt lat="41.70177040808898" lon="19.691116895296748"><ele>18.0</ele><time>2026-05-05T11:34:19Z</time></trkpt><trkpt lat="41.70193829796222" lon="19.690953387175977"><ele>15.0</ele><time>2026-05-05T11:34:20Z</time></trkpt><trkpt lat="41.70210482156335" lon="19.690785666562792"><ele>12.0</ele><time>2026-05-05T11:34:21Z</time></trkpt><trkpt lat="41.70227353559772" lon="19.690618840096906"><ele>9.0</ele><time>2026-05-05T11:34:22Z</time></trkpt><trkpt lat="41.70244050793588" lon="19.6904536077457"><ele>9.0</ele><time>2026-05-05T11:34:23Z</time></trkpt><trkpt lat="41.702609794556714" lon="19.690289043882526"><ele>9.0</ele><time>2026-05-05T11:34:24Z</time></trkpt><trkpt lat="41.70277831066584" lon="19.690121961312038"><ele>9.0</ele><time>2026-05-05T11:34:25Z</time></trkpt><trkpt lat="41.70294673986172" lon="19.689954534842542"><ele>9.333333333333334</ele><time>2026-05-05T11:34:26Z</time></trkpt><trkpt lat="41.70311809871612" lon="19.689787279282182"><ele>9.666666666666668</ele><time>2026-05-05T11:34:27Z</time></trkpt><trkpt lat="41.70328201472883" lon="19.689625954350316"><ele>10.0</ele><time>2026-05-05T11:34:28Z</time></trkpt><trkpt lat="41.703435607360454" lon="19.68946957933057"><ele>8.666666666666668</ele><time>2026-05-05T11:34:29Z</time></trkpt><trkpt lat="41.70358181438746" lon="19.68933117684586"><ele>7.333333333333334</ele><time>2026-05-05T11:34:30Z</time></trkpt><trkpt lat="41.70372883373395" lon="19.68922294990632"><ele>6.0</ele><time>2026-05-05T11:34:31Z</time></trkpt><trkpt lat="41.703896248088064" lon="19.68916991852462"><ele>6.0</ele><time>2026-05-05T11:34:32Z</time></trkpt><trkpt lat="41.70407559580564" lon="19.689121205191043"><ele>6.0</ele><time>2026-05-05T11:34:33Z</time></trkpt><trkpt lat="41.704259447849516" lon="19.68906506761153"><ele>6.0</ele><time>2026-05-05T11:34:34Z</time></trkpt><trkpt lat="41.70444220852414" lon="19.688998824980366"><ele>6.0</ele><time>2026-05-05T11:34:35Z</time></trkpt><trkpt lat="41.70462692835714" lon="19.688937041097347"><ele>6.0</ele><time>2026-05-05T11:34:36Z</time></trkpt><trkpt lat="41.70481776827093" lon="19.688867991156073"><ele>6.0</ele><time>2026-05-05T11:34:37Z</time></trkpt><trkpt lat="41.70501156754338" lon="19.688798558752765"><ele>6.0</ele><time>2026-05-05T11:34:38Z</time></trkpt><trkpt lat="41.70520864184578" lon="19.68873049584075"><ele>6.0</ele><time>2026-05-05T11:34:39Z</time></trkpt><trkpt lat="41.70540419669159" lon="19.688663203073936"><ele>6.0</ele><time>2026-05-05T11:34:40Z</time></trkpt><trkpt lat="41.70558025729367" lon="19.68859814773442"><ele>5.666666666666667</ele><time>2026-05-05T11:34:41Z</time></trkpt><trkpt lat="41.705754771998464" lon="19.68853648259237"><ele>5.333333333333334</ele><time>2026-05-05T11:34:42Z</time></trkpt><trkpt lat="41.70590551920175" lon="19.68848299205569"><ele>5.0</ele><time>2026-05-05T11:34:43Z</time></trkpt><trkpt lat="41.706055054059235" lon="19.688427230591305"><ele>5.75</ele><time>2026-05-05T11:34:44Z</time></trkpt><trkpt lat="41.70619779159548" lon="19.688376024998874"><ele>6.5</ele><time>2026-05-05T11:34:45Z</time></trkpt><trkpt lat="41.706333618309074" lon="19.68832640459027"><ele>7.25</ele><time>2026-05-05T11:34:46Z</time></trkpt><trkpt lat="41.70645786945142" lon="19.688285597337114"><ele>8.0</ele><time>2026-05-05T11:34:47Z</time></trkpt><trkpt lat="41.70657993199493" lon="19.688249632843288"><ele>8.0</ele><time>2026-05-05T11:34:48Z</time></trkpt><trkpt lat="41.70670011088344" lon="19.688209077366533"><ele>8.0</ele><time>2026-05-05T11:34:49Z</time></trkpt><trkpt lat="41.706820717686604" lon="19.68817225131041"><ele>8.0</ele><time>2026-05-05T11:34:49.999Z</time></trkpt><trkpt lat="41.70693973308121" lon="19.68813044072058"><ele>8.0</ele><time>2026-05-05T11:34:50.999Z</time></trkpt><trkpt lat="41.707056280639335" lon="19.688084679130373"><ele>8.0</ele><time>2026-05-05T11:34:51.999Z</time></trkpt><trkpt lat="41.70717012595459" lon="19.6880382992959"><ele>8.0</ele><time>2026-05-05T11:34:52.999Z</time></trkpt><trkpt lat="41.70727642019393" lon="19.687999919289265"><ele>8.0</ele><time>2026-05-05T11:34:53.999Z</time></trkpt><trkpt lat="41.707377592633314" lon="19.687964266417477"><ele>8.0</ele><time>2026-05-05T11:34:54.999Z</time></trkpt><trkpt lat="41.707473472311335" lon="19.68793191814121"><ele>8.0</ele><time>2026-05-05T11:34:55.999Z</time></trkpt><trkpt lat="41.70758128648885" lon="19.687894400284378"><ele>8.0</ele><time>2026-05-05T11:34:56.999Z</time></trkpt><trkpt lat="41.70769453400807" lon="19.6878524781975"><ele>8.0</ele><time>2026-05-05T11:34:57.999Z</time></trkpt><trkpt lat="41.707806243904365" lon="19.687808201532143"><ele>8.0</ele><time>2026-05-05T11:34:58.999Z</time></trkpt><trkpt lat="41.70793529309419" lon="19.68775362427786"><ele>8.0</ele><time>2026-05-05T11:34:59.999Z</time></trkpt><trkpt lat="41.7080775937675" lon="19.687708867457975"><ele>7.5</ele><time>2026-05-05T11:35:00.999Z</time></trkpt><trkpt lat="41.7082205376774" lon="19.687670009100824"><ele>7.0</ele><time>2026-05-05T11:35:01.999Z</time></trkpt><trkpt lat="41.70835399032591" lon="19.687630394231515"><ele>6.5</ele><time>2026-05-05T11:35:02.999Z</time></trkpt><trkpt lat="41.708486389275336" lon="19.68758193715317"><ele>6.0</ele><time>2026-05-05T11:35:03.999Z</time></trkpt><trkpt lat="41.70860801402077" lon="19.687538581651594"><ele>6.0</ele><time>2026-05-05T11:35:04.999Z</time></trkpt><trkpt lat="41.708718855964044" lon="19.687497866669258"><ele>6.0</ele><time>2026-05-05T11:35:05.999Z</time></trkpt><trkpt lat="41.7088173391505" lon="19.687465626327075"><ele>6.0</ele><time>2026-05-05T11:35:06.999Z</time></trkpt><trkpt lat="41.70891954466252" lon="19.687430006661643"><ele>6.0</ele><time>2026-05-05T11:35:07.999Z</time></trkpt><trkpt lat="41.709011687829566" lon="19.68738249367222"><ele>6.0</ele><time>2026-05-05T11:35:08.999Z</time></trkpt><trkpt lat="41.70912836747243" lon="19.687322575537145"><ele>6.0</ele><time>2026-05-05T11:35:09.999Z</time></trkpt><trkpt lat="41.70925637874596" lon="19.68726474593685"><ele>6.0</ele><time>2026-05-05T11:35:10.999Z</time></trkpt><trkpt lat="41.70939004334078" lon="19.687216277254006"><ele>6.0</ele><time>2026-05-05T11:35:11.999Z</time></trkpt><trkpt lat="41.709525780645315" lon="19.68716987827491"><ele>6.0</ele><time>2026-05-05T11:35:12.999Z</time></trkpt><trkpt lat="41.70966628953732" lon="19.68713082503251"><ele>7.0</ele><time>2026-05-05T11:35:13.999Z</time></trkpt><trkpt lat="41.709809436937306" lon="19.687093925653077"><ele>8.0</ele><time>2026-05-05T11:35:14.999Z</time></trkpt><trkpt lat="41.70995640756671" lon="19.687060196088662"><ele>9.0</ele><time>2026-05-05T11:35:15.999Z</time></trkpt><trkpt lat="41.71010371475095" lon="19.687022742119378"><ele>10.0</ele><time>2026-05-05T11:35:16.999Z</time></trkpt><trkpt lat="41.710253263351326" lon="19.686993316985593"><ele>12.0</ele><time>2026-05-05T11:35:17.999Z</time></trkpt><trkpt lat="41.71039922087054" lon="19.686973857484897"><ele>14.0</ele><time>2026-05-05T11:35:18.999Z</time></trkpt><trkpt lat="41.7105489292797" lon="19.686980213176337"><ele>16.0</ele><time>2026-05-05T11:35:19.999Z</time></trkpt><trkpt lat="41.710710333528894" lon="19.687006920758048"><ele>16.0</ele><time>2026-05-05T11:35:20.999Z</time></trkpt><trkpt lat="41.71087220340111" lon="19.687047352080516"><ele>16.0</ele><time>2026-05-05T11:35:21.999Z</time></trkpt><trkpt lat="41.71103773358187" lon="19.687102511542317"><ele>16.0</ele><time>2026-05-05T11:35:22.999Z</time></trkpt><trkpt lat="41.71120274913199" lon="19.6871630145627"><ele>14.333333333333332</ele><time>2026-05-05T11:35:23.999Z</time></trkpt><trkpt lat="41.711364031144555" lon="19.68721502118009"><ele>12.666666666666666</ele><time>2026-05-05T11:35:24.999Z</time></trkpt><trkpt lat="41.71152368465716" lon="19.68725279527411"><ele>11.0</ele><time>2026-05-05T11:35:25.999Z</time></trkpt><trkpt lat="41.71169895303082" lon="19.68726469076501"><ele>11.0</ele><time>2026-05-05T11:35:26.999Z</time></trkpt><trkpt lat="41.711865730805606" lon="19.6872625727795"><ele>11.0</ele><time>2026-05-05T11:35:27.999Z</time></trkpt><trkpt lat="41.7120281465797" lon="19.68725897764678"><ele>11.0</ele><time>2026-05-05T11:35:28.999Z</time></trkpt><trkpt lat="41.71219459618747" lon="19.68725126236002"><ele>9.0</ele><time>2026-05-05T11:35:29.999Z</time></trkpt><trkpt lat="41.712361466351865" lon="19.687238707723942"><ele>7.0</ele><time>2026-05-05T11:35:30.999Z</time></trkpt><trkpt lat="41.71252847533341" lon="19.687228385147435"><ele>5.0</ele><time>2026-05-05T11:35:31.999Z</time></trkpt><trkpt lat="41.71267267305734" lon="19.68722329271727"><ele>4.6</ele><time>2026-05-05T11:35:32.999Z</time></trkpt><trkpt lat="41.71278704741935" lon="19.68721041781734"><ele>4.2</ele><time>2026-05-05T11:35:33.999Z</time></trkpt><trkpt lat="41.712855042286854" lon="19.687161396944823"><ele>3.8</ele><time>2026-05-05T11:35:35.999Z</time></trkpt><trkpt lat="41.71284832595404" lon="19.687005195087178"><ele>3.4</ele><time>2026-05-05T11:35:37.999Z</time></trkpt><trkpt lat="41.7128184655803" lon="19.686895612368232"><ele>3.0</ele><time>2026-05-05T11:35:38.999Z</time></trkpt><trkpt lat="41.712770020356174" lon="19.68675763569044"><ele>2.75</ele><time>2026-05-05T11:35:39.999Z</time></trkpt><trkpt lat="41.71271778650535" lon="19.68660861609312"><ele>2.5</ele><time>2026-05-05T11:35:40.999Z</time></trkpt><trkpt lat="41.71267115257347" lon="19.686446953819296"><ele>2.25</ele><time>2026-05-05T11:35:41.999Z</time></trkpt><trkpt lat="41.71263075383046" lon="19.686283768219756"><ele>2.0</ele><time>2026-05-05T11:35:42.999Z</time></trkpt><trkpt lat="41.71259164992596" lon="19.686112847034416"><ele>2.25</ele><time>2026-05-05T11:35:43.999Z</time></trkpt><trkpt lat="41.712549108576304" lon="19.68596308434342"><ele>2.5</ele><time>2026-05-05T11:35:44.999Z</time></trkpt><trkpt lat="41.71250326927017" lon="19.685815663704965"><ele>2.75</ele><time>2026-05-05T11:35:45.999Z</time></trkpt><trkpt lat="41.71245790789856" lon="19.685667242537015"><ele>3.0</ele><time>2026-05-05T11:35:46.999Z</time></trkpt><trkpt lat="41.71240334850833" lon="19.68548341670259"><ele>3.0</ele><time>2026-05-05T11:35:47.999Z</time></trkpt><trkpt lat="41.71234313996199" lon="19.68527894562234"><ele>3.0</ele><time>2026-05-05T11:35:48.999Z</time></trkpt><trkpt lat="41.712279911120056" lon="19.685059090923197"><ele>3.0</ele><time>2026-05-05T11:35:49.999Z</time></trkpt><trkpt lat="41.7122156657732" lon="19.684834839168865"><ele>3.333333333333333</ele><time>2026-05-05T11:35:50.999Z</time></trkpt><trkpt lat="41.712147250137036" lon="19.68460186764375"><ele>3.6666666666666665</ele><time>2026-05-05T11:35:51.999Z</time></trkpt><trkpt lat="41.7120734435421" lon="19.68436584342119"><ele>4.0</ele><time>2026-05-05T11:35:52.999Z</time></trkpt><trkpt lat="41.711987097373566" lon="19.684105959188578"><ele>2.5</ele><time>2026-05-05T11:35:53.999Z</time></trkpt><trkpt lat="41.71189941910838" lon="19.683818089324042"><ele>1.0</ele><time>2026-05-05T11:35:54.999Z</time></trkpt><trkpt lat="41.7118098455591" lon="19.68350733713561"><ele>1.0</ele><time>2026-05-05T11:35:55.999Z</time></trkpt><trkpt lat="41.71172220352419" lon="19.683194215514412"><ele>1.0</ele><time>2026-05-05T11:35:56.999Z</time></trkpt><trkpt lat="41.71162704558087" lon="19.682864728927097"><ele>1.5</ele><time>2026-05-05T11:35:57.999Z</time></trkpt><trkpt lat="41.711529375698035" lon="19.68252784490269"><ele>2.0</ele><time>2026-05-05T11:35:58.999Z</time></trkpt><trkpt lat="41.7114282443677" lon="19.682193431672598"><ele>1.5</ele><time>2026-05-05T11:35:59.999Z</time></trkpt><trkpt lat="41.71132707568409" lon="19.68185877286999"><ele>1.0</ele><time>2026-05-05T11:36:00.999Z</time></trkpt><trkpt lat="41.71122612016099" lon="19.681526191328516"><ele>1.0</ele><time>2026-05-05T11:36:01.999Z</time></trkpt><trkpt lat="41.71112647725372" lon="19.681190250754756"><ele>1.0</ele><time>2026-05-05T11:36:02.999Z</time></trkpt><trkpt lat="41.71102961065302" lon="19.680854045072454"><ele>1.5</ele><time>2026-05-05T11:36:03.999Z</time></trkpt><trkpt lat="41.71093298094124" lon="19.68051849472821"><ele>2.0</ele><time>2026-05-05T11:36:04.999Z</time></trkpt><trkpt lat="41.71083255098295" lon="19.680181690064682"><ele>2.5</ele><time>2026-05-05T11:36:05.999Z</time></trkpt><trkpt lat="41.71073290567473" lon="19.679845867753937"><ele>3.0</ele><time>2026-05-05T11:36:06.999Z</time></trkpt><trkpt lat="41.71063899486044" lon="19.67952808823206"><ele>2.5</ele><time>2026-05-05T11:36:07.999Z</time></trkpt><trkpt lat="41.71055255442494" lon="19.67922394819838"><ele>2.0</ele><time>2026-05-05T11:36:08.999Z</time></trkpt><trkpt lat="41.710465884383154" lon="19.678923731887817"><ele>2.0</ele><time>2026-05-05T11:36:10Z</time></trkpt><trkpt lat="41.71037578433245" lon="19.678621332835814"><ele>2.0</ele><time>2026-05-05T11:36:11Z</time></trkpt><trkpt lat="41.71028517851368" lon="19.678320085629455"><ele>2.0</ele><time>2026-05-05T11:36:12Z</time></trkpt><trkpt lat="41.71018339854123" lon="19.67800925879705"><ele>2.0</ele><time>2026-05-05T11:36:13Z</time></trkpt><trkpt lat="41.71008071812798" lon="19.67768992174034"><ele>2.0</ele><time>2026-05-05T11:36:14Z</time></trkpt><trkpt lat="41.70998011332779" lon="19.67735843817479"><ele>2.0</ele><time>2026-05-05T11:36:15Z</time></trkpt><trkpt lat="41.709885232651246" lon="19.67702718303864"><ele>3.0</ele><time>2026-05-05T11:36:16Z</time></trkpt><trkpt lat="41.70979020416157" lon="19.67669796360562"><ele>4.0</ele><time>2026-05-05T11:36:17Z</time></trkpt><trkpt lat="41.709692458676585" lon="19.676371410486155"><ele>4.5</ele><time>2026-05-05T11:36:18Z</time></trkpt><trkpt lat="41.70959901696012" lon="19.67605075231571"><ele>5.0</ele><time>2026-05-05T11:36:19Z</time></trkpt><trkpt lat="41.70950487739281" lon="19.675727849460525"><ele>5.0</ele><time>2026-05-05T11:36:20Z</time></trkpt><trkpt lat="41.70941477930986" lon="19.675422503896677"><ele>5.0</ele><time>2026-05-05T11:36:21Z</time></trkpt><trkpt lat="41.709329546184996" lon="19.675149131860522"><ele>4.333333333333334</ele><time>2026-05-05T11:36:22Z</time></trkpt><trkpt lat="41.709246080323645" lon="19.67488611104263"><ele>3.666666666666667</ele><time>2026-05-05T11:36:23Z</time></trkpt><trkpt lat="41.70917108419585" lon="19.674629452107222"><ele>3.0</ele><time>2026-05-05T11:36:24Z</time></trkpt><trkpt lat="41.70909912113159" lon="19.67438132629252"><ele>2.3333333333333335</ele><time>2026-05-05T11:36:25Z</time></trkpt><trkpt lat="41.70903218039831" lon="19.67415421364807"><ele>1.6666666666666665</ele><time>2026-05-05T11:36:26Z</time></trkpt><trkpt lat="41.70898050561964" lon="19.67397997630771"><ele>1.0</ele><time>2026-05-05T11:36:27Z</time></trkpt><trkpt lat="41.70893169706939" lon="19.673813522307476"><ele>1.0</ele><time>2026-05-05T11:36:28Z</time></trkpt><trkpt lat="41.70888108249807" lon="19.67363450109811"><ele>1.0</ele><time>2026-05-05T11:36:29Z</time></trkpt><trkpt lat="41.70883795450832" lon="19.67347541109176"><ele>1.0</ele><time>2026-05-05T11:36:30Z</time></trkpt><trkpt lat="41.70879634758887" lon="19.6733269504238"><ele>1.0</ele><time>2026-05-05T11:36:31Z</time></trkpt><trkpt lat="41.70874913823332" lon="19.673161030112837"><ele>0.75</ele><time>2026-05-05T11:36:32Z</time></trkpt><trkpt lat="41.70870151986283" lon="19.672998992051053"><ele>0.5</ele><time>2026-05-05T11:36:33Z</time></trkpt><trkpt lat="41.708651112800034" lon="19.672834923238565"><ele>0.25</ele><time>2026-05-05T11:36:34Z</time></trkpt><trkpt lat="41.70859572779766" lon="19.67266069963821"><ele>0.0</ele><time>2026-05-05T11:36:35Z</time></trkpt><trkpt lat="41.7085388988801" lon="19.67247569649765"><ele>0.6666666666666666</ele><time>2026-05-05T11:36:36Z</time></trkpt><trkpt lat="41.708484296110285" lon="19.67227530663565"><ele>1.3333333333333333</ele><time>2026-05-05T11:36:37Z</time></trkpt><trkpt lat="41.70842880535177" lon="19.672078247284823"><ele>2.0</ele><time>2026-05-05T11:36:38Z</time></trkpt><trkpt lat="41.70836889868209" lon="19.67187711279639"><ele>2.0</ele><time>2026-05-05T11:36:39Z</time></trkpt><trkpt lat="41.708310540180584" lon="19.67167699987266"><ele>2.0</ele><time>2026-05-05T11:36:40Z</time></trkpt><trkpt lat="41.70825174041029" lon="19.67147612100615"><ele>2.0</ele><time>2026-05-05T11:36:41Z</time></trkpt><trkpt lat="41.70819102874795" lon="19.671267724620876"><ele>2.0</ele><time>2026-05-05T11:36:42Z</time></trkpt><trkpt lat="41.70813272471622" lon="19.671058711216133"><ele>2.0</ele><time>2026-05-05T11:36:43Z</time></trkpt><trkpt lat="41.70806937110605" lon="19.670844653885673"><ele>2.0</ele><time>2026-05-05T11:36:44Z</time></trkpt><trkpt lat="41.70800142464437" lon="19.670632049013417"><ele>2.0</ele><time>2026-05-05T11:36:45Z</time></trkpt><trkpt lat="41.70793714547608" lon="19.670419082898675"><ele>2.0</ele><time>2026-05-05T11:36:46Z</time></trkpt><trkpt lat="41.70787411122275" lon="19.670207526766873"><ele>2.0</ele><time>2026-05-05T11:36:47Z</time></trkpt><trkpt lat="41.70781626301076" lon="19.670009433022724"><ele>2.0</ele><time>2026-05-05T11:36:48Z</time></trkpt><trkpt lat="41.70776037406406" lon="19.66983261138937"><ele>2.0</ele><time>2026-05-05T11:36:49Z</time></trkpt><trkpt lat="41.70769929950737" lon="19.66964674409601"><ele>2.0</ele><time>2026-05-05T11:36:50Z</time></trkpt><trkpt lat="41.70764090042584" lon="19.669442460413425"><ele>1.3333333333333333</ele><time>2026-05-05T11:36:51Z</time></trkpt><trkpt lat="41.70757313391087" lon="19.669207386973852"><ele>0.6666666666666666</ele><time>2026-05-05T11:36:52Z</time></trkpt><trkpt lat="41.707505451562795" lon="19.66896103131058"><ele>0.0</ele><time>2026-05-05T11:36:53Z</time></trkpt><trkpt lat="41.70743355292088" lon="19.668701020234174"><ele>0.3333333333333333</ele><time>2026-05-05T11:36:54Z</time></trkpt><trkpt lat="41.70735813950218" lon="19.668434113150948"><ele>0.6666666666666666</ele><time>2026-05-05T11:36:55Z</time></trkpt><trkpt lat="41.707280409975965" lon="19.668164116864457"><ele>1.0</ele><time>2026-05-05T11:36:56Z</time></trkpt><trkpt lat="41.707201588782524" lon="19.66790260877307"><ele>1.3333333333333333</ele><time>2026-05-05T11:36:57Z</time></trkpt><trkpt lat="41.70712990735774" lon="19.667656481858597"><ele>1.6666666666666665</ele><time>2026-05-05T11:36:58Z</time></trkpt><trkpt lat="41.70706411573696" lon="19.667426918571998"><ele>2.0</ele><time>2026-05-05T11:36:59Z</time></trkpt><trkpt lat="41.707004145911355" lon="19.667223588462374"><ele>2.0</ele><time>2026-05-05T11:37:00Z</time></trkpt><trkpt lat="41.7069552002492" lon="19.66705303328627"><ele>2.0</ele><time>2026-05-05T11:37:01Z</time></trkpt><trkpt lat="41.70691623781909" lon="19.66690020413281"><ele>2.0</ele><time>2026-05-05T11:37:02Z</time></trkpt><trkpt lat="41.70689001063365" lon="19.66678769779858"><ele>2.0</ele><time>2026-05-05T11:37:03Z</time></trkpt><trkpt lat="41.70687063553803" lon="19.666702359247633"><ele>2.0</ele><time>2026-05-05T11:37:04Z</time></trkpt><trkpt lat="41.70685018857845" lon="19.666615627496725"><ele>2.4000000000000004</ele><time>2026-05-05T11:37:13Z</time></trkpt><trkpt lat="41.7067940091286" lon="19.666461351760677"><ele>2.8000000000000003</ele><time>2026-05-05T11:37:16Z</time></trkpt><trkpt lat="41.70676590461514" lon="19.66636600629479"><ele>3.2</ele><time>2026-05-05T11:37:17Z</time></trkpt><trkpt lat="41.706729842733296" lon="19.666247715019626"><ele>3.6</ele><time>2026-05-05T11:37:18Z</time></trkpt><trkpt lat="41.70669315315625" lon="19.666126900728827"><ele>4.0</ele><time>2026-05-05T11:37:19Z</time></trkpt><trkpt lat="41.70665224299736" lon="19.665994539641567"><ele>4.0</ele><time>2026-05-05T11:37:20Z</time></trkpt><trkpt lat="41.70660434769196" lon="19.665842920252846"><ele>4.0</ele><time>2026-05-05T11:37:21Z</time></trkpt><trkpt lat="41.706558285323965" lon="19.66568837491695"><ele>4.0</ele><time>2026-05-05T11:37:22Z</time></trkpt><trkpt lat="41.706509932320174" lon="19.665518824905728"><ele>4.0</ele><time>2026-05-05T11:37:23Z</time></trkpt><trkpt lat="41.706457258175334" lon="19.66532624666207"><ele>3.6666666666666665</ele><time>2026-05-05T11:37:23.999Z</time></trkpt><trkpt lat="41.70639847543126" lon="19.66512588412488"><ele>3.333333333333333</ele><time>2026-05-05T11:37:24.999Z</time></trkpt><trkpt lat="41.706341701867444" lon="19.66492197105569"><ele>3.0</ele><time>2026-05-05T11:37:25.999Z</time></trkpt><trkpt lat="41.70628094152587" lon="19.664707845314076"><ele>3.0</ele><time>2026-05-05T11:37:26.999Z</time></trkpt><trkpt lat="41.70621331041978" lon="19.664480204867345"><ele>3.0</ele><time>2026-05-05T11:37:27.999Z</time></trkpt><trkpt lat="41.70614756629444" lon="19.664253441644544"><ele>3.0</ele><time>2026-05-05T11:37:28.999Z</time></trkpt><trkpt lat="41.70606968299676" lon="19.664020291759737"><ele>3.0</ele><time>2026-05-05T11:37:29.999Z</time></trkpt><trkpt lat="41.70599355967389" lon="19.663776816840027"><ele>3.0</ele><time>2026-05-05T11:37:30.999Z</time></trkpt><trkpt lat="41.70591892521018" lon="19.663530026965667"><ele>3.0</ele><time>2026-05-05T11:37:31.999Z</time></trkpt><trkpt lat="41.70584850143396" lon="19.663279353778336"><ele>3.0</ele><time>2026-05-05T11:37:32.999Z</time></trkpt><trkpt lat="41.705776299645" lon="19.663033761114402"><ele>3.0</ele><time>2026-05-05T11:37:33.999Z</time></trkpt><trkpt lat="41.70570271048284" lon="19.662791868119605"><ele>3.0</ele><time>2026-05-05T11:37:34.999Z</time></trkpt><trkpt lat="41.70563144515521" lon="19.662566237481354"><ele>2.6666666666666665</ele><time>2026-05-05T11:37:35.999Z</time></trkpt><trkpt lat="41.70556374446364" lon="19.662345168860014"><ele>2.333333333333333</ele><time>2026-05-05T11:37:36.999Z</time></trkpt><trkpt lat="41.705495056736254" lon="19.662116764754177"><ele>2.0</ele><time>2026-05-05T11:37:37.999Z</time></trkpt><trkpt lat="41.705431937672586" lon="19.661888519424494"><ele>2.0</ele><time>2026-05-05T11:37:38.999Z</time></trkpt><trkpt lat="41.70537112030541" lon="19.66166345127092"><ele>2.0</ele><time>2026-05-05T11:37:39.999Z</time></trkpt><trkpt lat="41.7052976943521" lon="19.661431438261676"><ele>2.0</ele><time>2026-05-05T11:37:40.999Z</time></trkpt><trkpt lat="41.705229967237344" lon="19.66119762887605"><ele>2.0</ele><time>2026-05-05T11:37:41.999Z</time></trkpt><trkpt lat="41.70516534319275" lon="19.660960074893424"><ele>2.0</ele><time>2026-05-05T11:37:42.999Z</time></trkpt><trkpt lat="41.705091701304355" lon="19.660716458332416"><ele>2.0</ele><time>2026-05-05T11:37:43.999Z</time></trkpt><trkpt lat="41.70502291975005" lon="19.660480521501604"><ele>2.0</ele><time>2026-05-05T11:37:44.999Z</time></trkpt><trkpt lat="41.70495525504031" lon="19.66024973796961"><ele>2.0</ele><time>2026-05-05T11:37:45.999Z</time></trkpt><trkpt lat="41.70488361527298" lon="19.660002177706538"><ele>2.0</ele><time>2026-05-05T11:37:46.999Z</time></trkpt><trkpt lat="41.704809160387484" lon="19.65975200248622"><ele>2.0</ele><time>2026-05-05T11:37:47.999Z</time></trkpt><trkpt lat="41.70473509466368" lon="19.659501904403847"><ele>2.0</ele><time>2026-05-05T11:37:48.999Z</time></trkpt><trkpt lat="41.704664282971" lon="19.659247593016453"><ele>2.0</ele><time>2026-05-05T11:37:49.999Z</time></trkpt><trkpt lat="41.70459371931613" lon="19.65899467516931"><ele>2.0</ele><time>2026-05-05T11:37:50.999Z</time></trkpt><trkpt lat="41.7045153962547" lon="19.658747481018153"><ele>2.0</ele><time>2026-05-05T11:37:51.999Z</time></trkpt><trkpt lat="41.70443800046257" lon="19.658488510373193"><ele>2.0</ele><time>2026-05-05T11:37:52.999Z</time></trkpt><trkpt lat="41.70436558881067" lon="19.658241993986707"><ele>2.0</ele><time>2026-05-05T11:37:53.999Z</time></trkpt><trkpt lat="41.70428704316527" lon="19.657983617357665"><ele>2.0</ele><time>2026-05-05T11:37:54.999Z</time></trkpt><trkpt lat="41.70421258091945" lon="19.657724053083765"><ele>2.0</ele><time>2026-05-05T11:37:55.999Z</time></trkpt><trkpt lat="41.704134868296784" lon="19.657450095853918"><ele>2.0</ele><time>2026-05-05T11:37:56.999Z</time></trkpt><trkpt lat="41.704051820865196" lon="19.657187882416608"><ele>2.0</ele><time>2026-05-05T11:37:57.999Z</time></trkpt><trkpt lat="41.70397202471678" lon="19.65692263025951"><ele>2.0</ele><time>2026-05-05T11:37:58.999Z</time></trkpt><trkpt lat="41.70389411046682" lon="19.65666710223211"><ele>2.333333333333333</ele><time>2026-05-05T11:37:59.999Z</time></trkpt><trkpt lat="41.70381316609326" lon="19.656407243201826"><ele>2.6666666666666665</ele><time>2026-05-05T11:38:00.999Z</time></trkpt><trkpt lat="41.70373765730195" lon="19.656146152596737"><ele>3.0</ele><time>2026-05-05T11:38:01.999Z</time></trkpt><trkpt lat="41.70366492719781" lon="19.65589009614174"><ele>3.0</ele><time>2026-05-05T11:38:02.999Z</time></trkpt><trkpt lat="41.70359630557019" lon="19.655641850029937"><ele>3.0</ele><time>2026-05-05T11:38:03.999Z</time></trkpt><trkpt lat="41.70353039459963" lon="19.6554102328176"><ele>3.0</ele><time>2026-05-05T11:38:04.999Z</time></trkpt><trkpt lat="41.70347169023301" lon="19.655204826084614"><ele>2.6666666666666665</ele><time>2026-05-05T11:38:05.999Z</time></trkpt><trkpt lat="41.7034023623326" lon="19.654986726780344"><ele>2.333333333333333</ele><time>2026-05-05T11:38:06.999Z</time></trkpt><trkpt lat="41.703330078542166" lon="19.654771902867957"><ele>2.0</ele><time>2026-05-05T11:38:07.999Z</time></trkpt><trkpt lat="41.70325657278799" lon="19.654559677304093"><ele>2.0</ele><time>2026-05-05T11:38:08.999Z</time></trkpt><trkpt lat="41.703196693700995" lon="19.65435687029185"><ele>2.0</ele><time>2026-05-05T11:38:09.999Z</time></trkpt><trkpt lat="41.70314083160076" lon="19.65413372410331"><ele>2.0</ele><time>2026-05-05T11:38:10.999Z</time></trkpt><trkpt lat="41.70308974040416" lon="19.653932342727337"><ele>2.0</ele><time>2026-05-05T11:38:11.999Z</time></trkpt><trkpt lat="41.7030450202842" lon="19.65374222303066"><ele>2.0</ele><time>2026-05-05T11:38:12.999Z</time></trkpt><trkpt lat="41.70299889923857" lon="19.65356608086225"><ele>2.0</ele><time>2026-05-05T11:38:13.999Z</time></trkpt><trkpt lat="41.70293638621258" lon="19.65338019530532"><ele>2.0</ele><time>2026-05-05T11:38:14.999Z</time></trkpt><trkpt lat="41.702856861210684" lon="19.653160430166963"><ele>2.333333333333333</ele><time>2026-05-05T11:38:16Z</time></trkpt><trkpt lat="41.702772774082185" lon="19.65290032939484"><ele>2.6666666666666665</ele><time>2026-05-05T11:38:17Z</time></trkpt><trkpt lat="41.7026954890016" lon="19.652627629992157"><ele>3.0</ele><time>2026-05-05T11:38:18Z</time></trkpt><trkpt lat="41.702613367310285" lon="19.652322748059674"><ele>2.0</ele><time>2026-05-05T11:38:19Z</time></trkpt><trkpt lat="41.702522870413894" lon="19.65200057559466"><ele>1.0</ele><time>2026-05-05T11:38:20Z</time></trkpt><trkpt lat="41.70242573251956" lon="19.65167522212466"><ele>1.0</ele><time>2026-05-05T11:38:21Z</time></trkpt><trkpt lat="41.70232142897556" lon="19.6513345635162"><ele>1.0</ele><time>2026-05-05T11:38:22Z</time></trkpt><trkpt lat="41.702217604403444" lon="19.650991154903124"><ele>2.0</ele><time>2026-05-05T11:38:23Z</time></trkpt><trkpt lat="41.702116546425934" lon="19.65064243889473"><ele>3.0</ele><time>2026-05-05T11:38:24Z</time></trkpt><trkpt lat="41.70201781769527" lon="19.650313282080397"><ele>2.6666666666666665</ele><time>2026-05-05T11:38:25Z</time></trkpt><trkpt lat="41.701930991826806" lon="19.650031035679316"><ele>2.333333333333333</ele><time>2026-05-05T11:38:26Z</time></trkpt><trkpt lat="41.70185352663446" lon="19.649782695209552"><ele>2.0</ele><time>2026-05-05T11:38:27Z</time></trkpt><trkpt lat="41.701783351332374" lon="19.64954994796189"><ele>2.0</ele><time>2026-05-05T11:38:28Z</time></trkpt><trkpt lat="41.701726105518134" lon="19.649341704042417"><ele>2.0</ele><time>2026-05-05T11:38:29Z</time></trkpt><trkpt lat="41.7016690106846" lon="19.649155965435394"><ele>2.0</ele><time>2026-05-05T11:38:30Z</time></trkpt><trkpt lat="41.701607540764265" lon="19.6489629519748"><ele>2.0</ele><time>2026-05-05T11:38:31Z</time></trkpt><trkpt lat="41.70155835572437" lon="19.648757497366457"><ele>2.0</ele><time>2026-05-05T11:38:32Z</time></trkpt><trkpt lat="41.70152080946072" lon="19.648544234725712"><ele>2.0</ele><time>2026-05-05T11:38:33Z</time></trkpt><trkpt lat="41.70147896660815" lon="19.64837471965204"><ele>2.0</ele><time>2026-05-05T11:38:34Z</time></trkpt><trkpt lat="41.701427396260286" lon="19.648214028848532"><ele>2.0</ele><time>2026-05-05T11:38:35Z</time></trkpt><trkpt lat="41.701371138209154" lon="19.64804501859548"><ele>2.0</ele><time>2026-05-05T11:38:36Z</time></trkpt><trkpt lat="41.701321613782405" lon="19.647877596426643"><ele>2.0</ele><time>2026-05-05T11:38:37Z</time></trkpt><trkpt lat="41.70126812187256" lon="19.647703854977664"><ele>2.0</ele><time>2026-05-05T11:38:38Z</time></trkpt><trkpt lat="41.70120673063481" lon="19.647522660659746"><ele>2.0</ele><time>2026-05-05T11:38:39Z</time></trkpt><trkpt lat="41.70115171669852" lon="19.647351431177334"><ele>2.0</ele><time>2026-05-05T11:38:40Z</time></trkpt><trkpt lat="41.70110006364145" lon="19.64718346156516"><ele>2.0</ele><time>2026-05-05T11:38:41Z</time></trkpt><trkpt lat="41.70104985988441" lon="19.647005874717113"><ele>2.6666666666666665</ele><time>2026-05-05T11:38:42Z</time></trkpt><trkpt lat="41.70100068832483" lon="19.646822698162875"><ele>3.333333333333333</ele><time>2026-05-05T11:38:43Z</time></trkpt><trkpt lat="41.70094505432774" lon="19.646632886906502"><ele>4.0</ele><time>2026-05-05T11:38:44Z</time></trkpt><trkpt lat="41.70088167924516" lon="19.646426256737275"><ele>4.0</ele><time>2026-05-05T11:38:45Z</time></trkpt><trkpt lat="41.70081859190599" lon="19.646213811659464"><ele>4.0</ele><time>2026-05-05T11:38:46Z</time></trkpt><trkpt lat="41.70075014147077" lon="19.64598690717057"><ele>4.0</ele><time>2026-05-05T11:38:47Z</time></trkpt><trkpt lat="41.70067851086867" lon="19.64574637446686"><ele>3.6666666666666665</ele><time>2026-05-05T11:38:48Z</time></trkpt><trkpt lat="41.70060840822139" lon="19.64549952596709"><ele>3.333333333333333</ele><time>2026-05-05T11:38:49Z</time></trkpt><trkpt lat="41.70053199656293" lon="19.645248806279003"><ele>3.0</ele><time>2026-05-05T11:38:50Z</time></trkpt><trkpt lat="41.70045067884808" lon="19.64498761759285"><ele>2.3333333333333335</ele><time>2026-05-05T11:38:51Z</time></trkpt><trkpt lat="41.700368881253596" lon="19.644724091011117"><ele>1.6666666666666665</ele><time>2026-05-05T11:38:52Z</time></trkpt><trkpt lat="41.700289241866194" lon="19.644457674146597"><ele>1.0</ele><time>2026-05-05T11:38:53Z</time></trkpt><trkpt lat="41.70021080890267" lon="19.644188600294083"><ele>1.3333333333333333</ele><time>2026-05-05T11:38:54Z</time></trkpt><trkpt lat="41.70012831323838" lon="19.643920910717476"><ele>1.6666666666666665</ele><time>2026-05-05T11:38:55Z</time></trkpt><trkpt lat="41.70004127150545" lon="19.643651075883035"><ele>2.0</ele><time>2026-05-05T11:38:56Z</time></trkpt><trkpt lat="41.69995512018501" lon="19.643379251452433"><ele>2.0</ele><time>2026-05-05T11:38:57Z</time></trkpt><trkpt lat="41.699871095792865" lon="19.643094894736507"><ele>2.0</ele><time>2026-05-05T11:38:58Z</time></trkpt><trkpt lat="41.699791106171894" lon="19.64281572480045"><ele>2.5</ele><time>2026-05-05T11:38:59Z</time></trkpt><trkpt lat="41.699712576902535" lon="19.642533582641427"><ele>3.0</ele><time>2026-05-05T11:39:00Z</time></trkpt><trkpt lat="41.6996308081123" lon="19.64224654343783"><ele>3.0</ele><time>2026-05-05T11:39:01Z</time></trkpt><trkpt lat="41.699547077989386" lon="19.641962182117005"><ele>3.0</ele><time>2026-05-05T11:39:02Z</time></trkpt><trkpt lat="41.6994592329543" lon="19.641676268812326"><ele>3.0</ele><time>2026-05-05T11:39:03Z</time></trkpt><trkpt lat="41.69937029540788" lon="19.64138214651044"><ele>3.0</ele><time>2026-05-05T11:39:04Z</time></trkpt><trkpt lat="41.69928555787384" lon="19.64108401392142"><ele>3.0</ele><time>2026-05-05T11:39:05Z</time></trkpt><trkpt lat="41.69919556975737" lon="19.640777272761433"><ele>3.0</ele><time>2026-05-05T11:39:06Z</time></trkpt><trkpt lat="41.69910413572495" lon="19.640471019690672"><ele>2.5</ele><time>2026-05-05T11:39:07Z</time></trkpt><trkpt lat="41.699013466753534" lon="19.640159581947493"><ele>2.0</ele><time>2026-05-05T11:39:08Z</time></trkpt><trkpt lat="41.69892609337711" lon="19.639846043369083"><ele>2.0</ele><time>2026-05-05T11:39:09Z</time></trkpt><trkpt lat="41.69883378328978" lon="19.63953349586429"><ele>2.0</ele><time>2026-05-05T11:39:10Z</time></trkpt><trkpt lat="41.69873937191035" lon="19.639221529857426"><ele>2.0</ele><time>2026-05-05T11:39:11Z</time></trkpt><trkpt lat="41.69864495953621" lon="19.638911045061842"><ele>2.0</ele><time>2026-05-05T11:39:12Z</time></trkpt><trkpt lat="41.69855017712007" lon="19.638601858114697"><ele>2.0</ele><time>2026-05-05T11:39:13Z</time></trkpt><trkpt lat="41.69846188989087" lon="19.63829510214935"><ele>2.0</ele><time>2026-05-05T11:39:14Z</time></trkpt><trkpt lat="41.69837370322089" lon="19.637983416375032"><ele>1.0</ele><time>2026-05-05T11:39:15Z</time></trkpt><trkpt lat="41.69828443221815" lon="19.6376733107255"><ele>0.0</ele><time>2026-05-05T11:39:16Z</time></trkpt><trkpt lat="41.698198094922425" lon="19.637368391832652"><ele>0.0</ele><time>2026-05-05T11:39:17Z</time></trkpt><trkpt lat="41.69811053445912" lon="19.637058470425004"><ele>0.0</ele><time>2026-05-05T11:39:18Z</time></trkpt><trkpt lat="41.69801815810319" lon="19.63675141241532"><ele>0.0</ele><time>2026-05-05T11:39:19Z</time></trkpt><trkpt lat="41.69792314380759" lon="19.636438612813553"><ele>0.0</ele><time>2026-05-05T11:39:20Z</time></trkpt><trkpt lat="41.697826778288515" lon="19.636119638038032"><ele>0.0</ele><time>2026-05-05T11:39:21Z</time></trkpt><trkpt lat="41.69773177533851" lon="19.635802107385885"><ele>0.0</ele><time>2026-05-05T11:39:22Z</time></trkpt><trkpt lat="41.697636995642625" lon="19.63547483607565"><ele>0.0</ele><time>2026-05-05T11:39:23Z</time></trkpt><trkpt lat="41.6975390333989" lon="19.635142167249562"><ele>0.0</ele><time>2026-05-05T11:39:24Z</time></trkpt><trkpt lat="41.69744165661048" lon="19.63480457177972"><ele>-0.5</ele><time>2026-05-05T11:39:25Z</time></trkpt><trkpt lat="41.69734216474324" lon="19.63446026285501"><ele>-1.0</ele><time>2026-05-05T11:39:26Z</time></trkpt><trkpt lat="41.69723716382439" lon="19.634117033812572"><ele>-1.0</ele><time>2026-05-05T11:39:27Z</time></trkpt><trkpt lat="41.69712835459616" lon="19.633768068513646"><ele>-1.0</ele><time>2026-05-05T11:39:28Z</time></trkpt><trkpt lat="41.69701936936409" lon="19.633416706493815"><ele>-1.5</ele><time>2026-05-05T11:39:29Z</time></trkpt><trkpt lat="41.69692074806538" lon="19.633080106631844"><ele>-2.0</ele><time>2026-05-05T11:39:30Z</time></trkpt><trkpt lat="41.69681834609109" lon="19.632739029207"><ele>-1.0</ele><time>2026-05-05T11:39:31Z</time></trkpt><trkpt lat="41.696713749920136" lon="19.632394822454454"><ele>0.0</ele><time>2026-05-05T11:39:32Z</time></trkpt><trkpt lat="41.696608614710286" lon="19.63205134245003"><ele>0.5</ele><time>2026-05-05T11:39:33Z</time></trkpt><trkpt lat="41.69650436053445" lon="19.631704826959815"><ele>1.0</ele><time>2026-05-05T11:39:34Z</time></trkpt><trkpt lat="41.696399580919454" lon="19.63135216490146"><ele>0.0</ele><time>2026-05-05T11:39:35Z</time></trkpt><trkpt lat="41.69629877348563" lon="19.63100102629831"><ele>-1.0</ele><time>2026-05-05T11:39:36Z</time></trkpt><trkpt lat="41.69619890062918" lon="19.6306494892897"><ele>-1.0</ele><time>2026-05-05T11:39:37Z</time></trkpt><trkpt lat="41.69609717506059" lon="19.63030252040978"><ele>-1.0</ele><time>2026-05-05T11:39:38Z</time></trkpt><trkpt lat="41.69599401097735" lon="19.629959674272648"><ele>-0.5</ele><time>2026-05-05T11:39:39Z</time></trkpt><trkpt lat="41.69588871141227" lon="19.629615009536774"><ele>0.0</ele><time>2026-05-05T11:39:40Z</time></trkpt><trkpt lat="41.69578658381522" lon="19.629270523839264"><ele>0.5</ele><time>2026-05-05T11:39:41Z</time></trkpt><trkpt lat="41.695693196590916" lon="19.62894473746459"><ele>1.0</ele><time>2026-05-05T11:39:42Z</time></trkpt><trkpt lat="41.69560191348042" lon="19.628636705075966"><ele>1.5</ele><time>2026-05-05T11:39:43Z</time></trkpt><trkpt lat="41.69551780008792" lon="19.628340338061772"><ele>2.0</ele><time>2026-05-05T11:39:44Z</time></trkpt><trkpt lat="41.69543373962572" lon="19.628039932596863"><ele>1.5</ele><time>2026-05-05T11:39:45Z</time></trkpt><trkpt lat="41.695349122264744" lon="19.62774337374208"><ele>1.0</ele><time>2026-05-05T11:39:46Z</time></trkpt><trkpt lat="41.69526087811404" lon="19.62745413243948"><ele>0.0</ele><time>2026-05-05T11:39:47Z</time></trkpt><trkpt lat="41.69515993912741" lon="19.627170047358"><ele>-1.0</ele><time>2026-05-05T11:39:48Z</time></trkpt><trkpt lat="41.69505160066055" lon="19.626891320107813"><ele>-1.0</ele><time>2026-05-05T11:39:49Z</time></trkpt><trkpt lat="41.69493617271376" lon="19.62661751960531"><ele>-1.0</ele><time>2026-05-05T11:39:50Z</time></trkpt><trkpt lat="41.69481562519864" lon="19.626346424135612"><ele>0.0</ele><time>2026-05-05T11:39:51Z</time></trkpt><trkpt lat="41.69469071912655" lon="19.62605863629252"><ele>1.0</ele><time>2026-05-05T11:39:52Z</time></trkpt><trkpt lat="41.69456128442542" lon="19.625755331519084"><ele>0.5</ele><time>2026-05-05T11:39:53Z</time></trkpt><trkpt lat="41.69441915056807" lon="19.625441163841884"><ele>0.0</ele><time>2026-05-05T11:39:54Z</time></trkpt><trkpt lat="41.69426713943428" lon="19.62511969478167"><ele>0.0</ele><time>2026-05-05T11:39:55Z</time></trkpt><trkpt lat="41.69411107463126" lon="19.624787743140935"><ele>0.0</ele><time>2026-05-05T11:39:56Z</time></trkpt><trkpt lat="41.69395965359909" lon="19.624454885600414"><ele>-0.5</ele><time>2026-05-05T11:39:57Z</time></trkpt><trkpt lat="41.69381268622044" lon="19.62412526823024"><ele>-1.0</ele><time>2026-05-05T11:39:58Z</time></trkpt><trkpt lat="41.69367453375387" lon="19.623813660471328"><ele>0.0</ele><time>2026-05-05T11:39:59Z</time></trkpt><trkpt lat="41.6935364487827" lon="19.623510745652542"><ele>1.0</ele><time>2026-05-05T11:40:00Z</time></trkpt><trkpt lat="41.693403484714295" lon="19.62321782340609"><ele>1.0</ele><time>2026-05-05T11:40:01Z</time></trkpt><trkpt lat="41.693275469878785" lon="19.622932070389535"><ele>1.0</ele><time>2026-05-05T11:40:02Z</time></trkpt><trkpt lat="41.69315614032673" lon="19.6226629305712"><ele>0.6666666666666666</ele><time>2026-05-05T11:40:03Z</time></trkpt><trkpt lat="41.69304632412906" lon="19.622414301512435"><ele>0.3333333333333333</ele><time>2026-05-05T11:40:04Z</time></trkpt><trkpt lat="41.69294773290572" lon="19.622186144286015"><ele>0.0</ele><time>2026-05-05T11:40:05Z</time></trkpt><trkpt lat="41.69286314188268" lon="19.62200007381444"><ele>0.0</ele><time>2026-05-05T11:40:05.999Z</time></trkpt><trkpt lat="41.69276743739407" lon="19.62182100980033"><ele>0.0</ele><time>2026-05-05T11:40:06.999Z</time></trkpt><trkpt lat="41.692670610531046" lon="19.621639550114267"><ele>0.0</ele><time>2026-05-05T11:40:07.999Z</time></trkpt><trkpt lat="41.69258909981831" lon="19.62142890691108"><ele>0.0</ele><time>2026-05-05T11:40:08.999Z</time></trkpt><trkpt lat="41.69251605119751" lon="19.621206266142426"><ele>0.0</ele><time>2026-05-05T11:40:09.999Z</time></trkpt><trkpt lat="41.69243285281404" lon="19.62099199202559"><ele>0.0</ele><time>2026-05-05T11:40:10.999Z</time></trkpt><trkpt lat="41.69233440344839" lon="19.620780471491734"><ele>0.0</ele><time>2026-05-05T11:40:11.999Z</time></trkpt><trkpt lat="41.692229171836004" lon="19.62056538858126"><ele>0.0</ele><time>2026-05-05T11:40:12.999Z</time></trkpt><trkpt lat="41.69212975707907" lon="19.62034115591957"><ele>0.0</ele><time>2026-05-05T11:40:13.999Z</time></trkpt><trkpt lat="41.69203127841279" lon="19.62011071486457"><ele>0.3333333333333333</ele><time>2026-05-05T11:40:14.999Z</time></trkpt><trkpt lat="41.691928534771186" lon="19.619875210454303"><ele>0.6666666666666666</ele><time>2026-05-05T11:40:15.999Z</time></trkpt><trkpt lat="41.691818114074" lon="19.619631353208597"><ele>1.0</ele><time>2026-05-05T11:40:16.999Z</time></trkpt><trkpt lat="41.69171169430799" lon="19.619399709346887"><ele>1.0</ele><time>2026-05-05T11:40:17.999Z</time></trkpt><trkpt lat="41.69158295612686" lon="19.619141888221815"><ele>1.0</ele><time>2026-05-05T11:40:18.999Z</time></trkpt><trkpt lat="41.69144895100587" lon="19.61887482008271"><ele>1.5</ele><time>2026-05-05T11:40:19.999Z</time></trkpt><trkpt lat="41.69132948888321" lon="19.618600316806848"><ele>2.0</ele><time>2026-05-05T11:40:20.999Z</time></trkpt><trkpt lat="41.6912060450503" lon="19.61830408224528"><ele>1.0</ele><time>2026-05-05T11:40:22Z</time></trkpt><trkpt lat="41.69107411673779" lon="19.617996477163913"><ele>0.0</ele><time>2026-05-05T11:40:23Z</time></trkpt><trkpt lat="41.69093931104455" lon="19.61768943562949"><ele>0.0</ele><time>2026-05-05T11:40:24Z</time></trkpt><trkpt lat="41.690791546633704" lon="19.617374670792874"><ele>0.0</ele><time>2026-05-05T11:40:25Z</time></trkpt><trkpt lat="41.6906420666414" lon="19.6170513917467"><ele>1.0</ele><time>2026-05-05T11:40:26Z</time></trkpt><trkpt lat="41.69049871572318" lon="19.61672878620905"><ele>2.0</ele><time>2026-05-05T11:40:27Z</time></trkpt><trkpt lat="41.690351781313744" lon="19.616400589469954"><ele>2.5</ele><time>2026-05-05T11:40:28Z</time></trkpt><trkpt lat="41.6902185945658" lon="19.61609669473507"><ele>3.0</ele><time>2026-05-05T11:40:29Z</time></trkpt><trkpt lat="41.6900957375691" lon="19.615822793278184"><ele>3.0</ele><time>2026-05-05T11:40:30Z</time></trkpt><trkpt lat="41.68998214653107" lon="19.615574068174396"><ele>3.0</ele><time>2026-05-05T11:40:31Z</time></trkpt><trkpt lat="41.68986615393901" lon="19.615332730344093"><ele>3.0</ele><time>2026-05-05T11:40:32Z</time></trkpt><trkpt lat="41.689768701488326" lon="19.61509126189131"><ele>2.6666666666666665</ele><time>2026-05-05T11:40:33Z</time></trkpt><trkpt lat="41.68969793710785" lon="19.6148309254004"><ele>2.333333333333333</ele><time>2026-05-05T11:40:34Z</time></trkpt><trkpt lat="41.68964837263894" lon="19.614529175138095"><ele>2.0</ele><time>2026-05-05T11:40:35Z</time></trkpt><trkpt lat="41.68961675501004" lon="19.614223786638224"><ele>1.6666666666666665</ele><time>2026-05-05T11:40:36Z</time></trkpt><trkpt lat="41.68957803804534" lon="19.613939805313684"><ele>1.3333333333333333</ele><time>2026-05-05T11:40:37Z</time></trkpt><trkpt lat="41.68954118436563" lon="19.613649979582636"><ele>1.0</ele><time>2026-05-05T11:40:38Z</time></trkpt><trkpt lat="41.68949928882852" lon="19.61335675101223"><ele>1.0</ele><time>2026-05-05T11:40:39Z</time></trkpt><trkpt lat="41.68945803662276" lon="19.61305798079467"><ele>1.0</ele><time>2026-05-05T11:40:40Z</time></trkpt><trkpt lat="41.68941667802638" lon="19.61275176211671"><ele>1.5</ele><time>2026-05-05T11:40:41Z</time></trkpt><trkpt lat="41.68937196483318" lon="19.612433050372278"><ele>2.0</ele><time>2026-05-05T11:40:42Z</time></trkpt><trkpt lat="41.68932374576209" lon="19.612105232073784"><ele>1.5</ele><time>2026-05-05T11:40:43Z</time></trkpt><trkpt lat="41.689275078265474" lon="19.611771114779703"><ele>1.0</ele><time>2026-05-05T11:40:44Z</time></trkpt><trkpt lat="41.68922858758677" lon="19.61143116101812"><ele>0.0</ele><time>2026-05-05T11:40:45Z</time></trkpt><trkpt lat="41.68918254983759" lon="19.611083984574393"><ele>-1.0</ele><time>2026-05-05T11:40:46Z</time></trkpt><trkpt lat="41.689135176013565" lon="19.610729838407018"><ele>-1.0</ele><time>2026-05-05T11:40:47Z</time></trkpt><trkpt lat="41.68907752776391" lon="19.610370390454218"><ele>-1.0</ele><time>2026-05-05T11:40:48Z</time></trkpt><trkpt lat="41.68901498126109" lon="19.610008277169904"><ele>0.0</ele><time>2026-05-05T11:40:49Z</time></trkpt><trkpt lat="41.688955584442816" lon="19.609641262921954"><ele>1.0</ele><time>2026-05-05T11:40:50Z</time></trkpt><trkpt lat="41.68889702001633" lon="19.60925911453198"><ele>1.5</ele><time>2026-05-05T11:40:51Z</time></trkpt><trkpt lat="41.68884337492415" lon="19.608876872320447"><ele>2.0</ele><time>2026-05-05T11:40:52Z</time></trkpt><trkpt lat="41.68879328837115" lon="19.608495069922583"><ele>2.0</ele><time>2026-05-05T11:40:53Z</time></trkpt><trkpt lat="41.68874190555885" lon="19.60810795198238"><ele>2.0</ele><time>2026-05-05T11:40:54Z</time></trkpt><trkpt lat="41.688689954437294" lon="19.607719984656914"><ele>1.5</ele><time>2026-05-05T11:40:55Z</time></trkpt><trkpt lat="41.68863664361582" lon="19.60735734288108"><ele>1.0</ele><time>2026-05-05T11:40:56Z</time></trkpt><trkpt lat="41.68858733694164" lon="19.60703081979534"><ele>1.5</ele><time>2026-05-05T11:40:57Z</time></trkpt><trkpt lat="41.68853639829198" lon="19.606714647222113"><ele>2.0</ele><time>2026-05-05T11:40:58Z</time></trkpt><trkpt lat="41.68848290597024" lon="19.606393494763505"><ele>2.5</ele><time>2026-05-05T11:40:59Z</time></trkpt><trkpt lat="41.68842698291716" lon="19.606069023712383"><ele>3.0</ele><time>2026-05-05T11:41:00Z</time></trkpt><trkpt lat="41.6883741066267" lon="19.605733923429007"><ele>3.0</ele><time>2026-05-05T11:41:01Z</time></trkpt><trkpt lat="41.688321982637916" lon="19.605374239818534"><ele>3.0</ele><time>2026-05-05T11:41:02Z</time></trkpt><trkpt lat="41.68827495231945" lon="19.605013510441935"><ele>2.0</ele><time>2026-05-05T11:41:03Z</time></trkpt><trkpt lat="41.68822766941829" lon="19.604641937598092"><ele>1.0</ele><time>2026-05-05T11:41:04Z</time></trkpt><trkpt lat="41.68817879367679" lon="19.60427366198603"><ele>0.5</ele><time>2026-05-05T11:41:05Z</time></trkpt><trkpt lat="41.68812475546188" lon="19.603898829673106"><ele>0.0</ele><time>2026-05-05T11:41:06Z</time></trkpt><trkpt lat="41.68806801270464" lon="19.60352673136772"><ele>0.0</ele><time>2026-05-05T11:41:07Z</time></trkpt><trkpt lat="41.68800555773399" lon="19.60315203843455"><ele>0.0</ele><time>2026-05-05T11:41:08Z</time></trkpt><trkpt lat="41.68794238498709" lon="19.602773714576077"><ele>0.0</ele><time>2026-05-05T11:41:09Z</time></trkpt><trkpt lat="41.687884218053284" lon="19.602399276221004"><ele>0.0</ele><time>2026-05-05T11:41:10Z</time></trkpt><trkpt lat="41.687828181054556" lon="19.602022664090047"><ele>0.0</ele><time>2026-05-05T11:41:11Z</time></trkpt><trkpt lat="41.687778835890406" lon="19.601643638023837"><ele>0.0</ele><time>2026-05-05T11:41:12Z</time></trkpt><trkpt lat="41.68773535823136" lon="19.601276969433485"><ele>0.0</ele><time>2026-05-05T11:41:13Z</time></trkpt><trkpt lat="41.687691621988385" lon="19.600931161871575"><ele>0.0</ele><time>2026-05-05T11:41:14Z</time></trkpt><trkpt lat="41.687650495449624" lon="19.600602455987428"><ele>0.0</ele><time>2026-05-05T11:41:15Z</time></trkpt><trkpt lat="41.687608130589226" lon="19.600287268164557"><ele>0.0</ele><time>2026-05-05T11:41:16Z</time></trkpt><trkpt lat="41.68756550724407" lon="19.59997730179398"><ele>0.0</ele><time>2026-05-05T11:41:17Z</time></trkpt><trkpt lat="41.687514744425314" lon="19.599675458966686"><ele>0.0</ele><time>2026-05-05T11:41:18Z</time></trkpt><trkpt lat="41.68746745318222" lon="19.59937491166068"><ele>-0.5</ele><time>2026-05-05T11:41:19Z</time></trkpt><trkpt lat="41.68742082307909" lon="19.599078772775382"><ele>-1.0</ele><time>2026-05-05T11:41:20Z</time></trkpt><trkpt lat="41.68737452991138" lon="19.59878338992036"><ele>-1.5</ele><time>2026-05-05T11:41:20.999Z</time></trkpt><trkpt lat="41.68732479109669" lon="19.598478693043873"><ele>-2.0</ele><time>2026-05-05T11:41:21.999Z</time></trkpt><trkpt lat="41.68727243733815" lon="19.598167061718645"><ele>-2.0</ele><time>2026-05-05T11:41:22.999Z</time></trkpt><trkpt lat="41.6872193635652" lon="19.59785133878186"><ele>-2.0</ele><time>2026-05-05T11:41:23.999Z</time></trkpt><trkpt lat="41.68716738917632" lon="19.597521758022722"><ele>-2.0</ele><time>2026-05-05T11:41:24.999Z</time></trkpt><trkpt lat="41.68711450627525" lon="19.597183778915294"><ele>-2.0</ele><time>2026-05-05T11:41:25.999Z</time></trkpt><trkpt lat="41.68706480468255" lon="19.596828655624567"><ele>-1.5</ele><time>2026-05-05T11:41:26.999Z</time></trkpt><trkpt lat="41.687021654212636" lon="19.596452584618227"><ele>-1.0</ele><time>2026-05-05T11:41:27.999Z</time></trkpt><trkpt lat="41.686985896240564" lon="19.596080080290804"><ele>-1.0</ele><time>2026-05-05T11:41:28.999Z</time></trkpt><trkpt lat="41.68693678774172" lon="19.595715844161074"><ele>-1.0</ele><time>2026-05-05T11:41:29.999Z</time></trkpt><trkpt lat="41.68687572306301" lon="19.595358654758428"><ele>-0.5</ele><time>2026-05-05T11:41:30.999Z</time></trkpt><trkpt lat="41.686815061980354" lon="19.59500062544694"><ele>0.0</ele><time>2026-05-05T11:41:31.999Z</time></trkpt><trkpt lat="41.686759592463666" lon="19.594640785649922"><ele>0.0</ele><time>2026-05-05T11:41:32.999Z</time></trkpt><trkpt lat="41.686706892477254" lon="19.59428579922568"><ele>0.0</ele><time>2026-05-05T11:41:33.999Z</time></trkpt><trkpt lat="41.68665853992913" lon="19.593936618628998"><ele>0.5</ele><time>2026-05-05T11:41:34.999Z</time></trkpt><trkpt lat="41.686609734701356" lon="19.59358803874071"><ele>1.0</ele><time>2026-05-05T11:41:35.999Z</time></trkpt><trkpt lat="41.68655778167597" lon="19.59323647699658"><ele>1.0</ele><time>2026-05-05T11:41:36.999Z</time></trkpt><trkpt lat="41.6865079814939" lon="19.592885991399502"><ele>1.0</ele><time>2026-05-05T11:41:37.999Z</time></trkpt><trkpt lat="41.68645683598063" lon="19.592540323326162"><ele>0.5</ele><time>2026-05-05T11:41:38.999Z</time></trkpt><trkpt lat="41.68640256021139" lon="19.592191604644448"><ele>0.0</ele><time>2026-05-05T11:41:39.999Z</time></trkpt><trkpt lat="41.68635096556113" lon="19.591844963216754"><ele>-0.5</ele><time>2026-05-05T11:41:40.999Z</time></trkpt><trkpt lat="41.68630203610638" lon="19.59150450227053"><ele>-1.0</ele><time>2026-05-05T11:41:41.999Z</time></trkpt><trkpt lat="41.6862564541621" lon="19.591165448128063"><ele>-1.0</ele><time>2026-05-05T11:41:42.999Z</time></trkpt><trkpt lat="41.68620870851162" lon="19.590831327172168"><ele>-1.0</ele><time>2026-05-05T11:41:43.999Z</time></trkpt><trkpt lat="41.68615689378547" lon="19.590496102057163"><ele>-1.0</ele><time>2026-05-05T11:41:44.999Z</time></trkpt><trkpt lat="41.68610543834548" lon="19.590160483539226"><ele>-1.0</ele><time>2026-05-05T11:41:45.999Z</time></trkpt><trkpt lat="41.68605820136101" lon="19.589826466205007"><ele>-1.5</ele><time>2026-05-05T11:41:46.999Z</time></trkpt><trkpt lat="41.68601165877977" lon="19.58949665248329"><ele>-2.0</ele><time>2026-05-05T11:41:47.999Z</time></trkpt><trkpt lat="41.68596113794419" lon="19.58917016377863"><ele>-2.0</ele><time>2026-05-05T11:41:48.999Z</time></trkpt><trkpt lat="41.68591176846168" lon="19.588843237589426"><ele>-2.0</ele><time>2026-05-05T11:41:49.999Z</time></trkpt><trkpt lat="41.6858674762777" lon="19.58854051388783"><ele>-2.0</ele><time>2026-05-05T11:41:50.999Z</time></trkpt><trkpt lat="41.68583320737755" lon="19.58829341022253"><ele>-2.0</ele><time>2026-05-05T11:41:51.999Z</time></trkpt><trkpt lat="41.68580358053814" lon="19.588104362663714"><ele>-2.0</ele><time>2026-05-05T11:41:52.999Z</time></trkpt><trkpt lat="41.68578560881658" lon="19.587965062763786"><ele>-2.0</ele><time>2026-05-05T11:41:53.999Z</time></trkpt><trkpt lat="41.68578218914882" lon="19.5878628436461"><ele>-1.8333333333333333</ele><time>2026-05-05T11:41:54.999Z</time></trkpt><trkpt lat="41.68576509257409" lon="19.587750123964362"><ele>-1.6666666666666665</ele><time>2026-05-05T11:41:56.999Z</time></trkpt><trkpt lat="41.68570685818973" lon="19.58778609099906"><ele>-1.5</ele><time>2026-05-05T11:42:00.999Z</time></trkpt><trkpt lat="41.685640201641576" lon="19.587812498524254"><ele>-1.3333333333333333</ele><time>2026-05-05T11:42:15.999Z</time></trkpt><trkpt lat="41.68555025238932" lon="19.587810645197898"><ele>-1.1666666666666665</ele><time>2026-05-05T11:42:16.999Z</time></trkpt><trkpt lat="41.6854498220766" lon="19.587816128623334"><ele>-1.0</ele><time>2026-05-05T11:42:17.999Z</time></trkpt><trkpt lat="41.68532293971074" lon="19.58783973451953"><ele>-1.3333333333333333</ele><time>2026-05-05T11:42:18.999Z</time></trkpt><trkpt lat="41.68518274242211" lon="19.587859106075744"><ele>-1.6666666666666665</ele><time>2026-05-05T11:42:19.999Z</time></trkpt><trkpt lat="41.68502511167363" lon="19.58787793633381"><ele>-2.0</ele><time>2026-05-05T11:42:20.999Z</time></trkpt><trkpt lat="41.68485864242128" lon="19.587899691648094"><ele>-2.0</ele><time>2026-05-05T11:42:21.999Z</time></trkpt><trkpt lat="41.68468267568885" lon="19.587921980261154"><ele>-2.0</ele><time>2026-05-05T11:42:22.999Z</time></trkpt><trkpt lat="41.684494342689206" lon="19.587934948654237"><ele>-2.0</ele><time>2026-05-05T11:42:23.999Z</time></trkpt><trkpt lat="41.68430663406287" lon="19.587944159356653"><ele>-2.0</ele><time>2026-05-05T11:42:24.999Z</time></trkpt><trkpt lat="41.68411490813202" lon="19.58795716402384"><ele>-2.0</ele><time>2026-05-05T11:42:25.999Z</time></trkpt><trkpt lat="41.68393456844641" lon="19.587970196086214"><ele>-2.0</ele><time>2026-05-05T11:42:26.999Z</time></trkpt><trkpt lat="41.683759309875235" lon="19.587979232815364"><ele>-1.6666666666666665</ele><time>2026-05-05T11:42:28Z</time></trkpt><trkpt lat="41.68359365357132" lon="19.587994541636075"><ele>-1.3333333333333333</ele><time>2026-05-05T11:42:29Z</time></trkpt><trkpt lat="41.683426282033764" lon="19.58801564567916"><ele>-1.0</ele><time>2026-05-05T11:42:30Z</time></trkpt><trkpt lat="41.68325411049639" lon="19.58803304993578"><ele>-1.0</ele><time>2026-05-05T11:42:31Z</time></trkpt><trkpt lat="41.6830772574676" lon="19.58804090295519"><ele>-1.0</ele><time>2026-05-05T11:42:32Z</time></trkpt><trkpt lat="41.682910438110476" lon="19.58805251723231"><ele>-1.0</ele><time>2026-05-05T11:42:33Z</time></trkpt><trkpt lat="41.68273316476718" lon="19.58806031487169"><ele>-1.0</ele><time>2026-05-05T11:42:34Z</time></trkpt><trkpt lat="41.68256755875584" lon="19.58806549130872"><ele>-1.0</ele><time>2026-05-05T11:42:35Z</time></trkpt><trkpt lat="41.68238286885835" lon="19.58806356414029"><ele>-1.0</ele><time>2026-05-05T11:42:36Z</time></trkpt><trkpt lat="41.68219249482643" lon="19.588069046727092"><ele>-1.0</ele><time>2026-05-05T11:42:37Z</time></trkpt><trkpt lat="41.681999399593394" lon="19.588077948229778"><ele>-1.0</ele><time>2026-05-05T11:42:38Z</time></trkpt><trkpt lat="41.68180916414717" lon="19.588094587194508"><ele>-1.0</ele><time>2026-05-05T11:42:39Z</time></trkpt><trkpt lat="41.68161795131445" lon="19.588101821158475"><ele>-1.0</ele><time>2026-05-05T11:42:40Z</time></trkpt><trkpt lat="41.68141760006562" lon="19.58812020050423"><ele>-1.0</ele><time>2026-05-05T11:42:41Z</time></trkpt><trkpt lat="41.68121412388009" lon="19.588128460869832"><ele>-1.0</ele><time>2026-05-05T11:42:42Z</time></trkpt><trkpt lat="41.68101473124459" lon="19.588139007350748"><ele>-1.0</ele><time>2026-05-05T11:42:43Z</time></trkpt><trkpt lat="41.68082030860647" lon="19.588167787206295"><ele>-1.0</ele><time>2026-05-05T11:42:44Z</time></trkpt><trkpt lat="41.68062657407709" lon="19.58818460390552"><ele>-1.0</ele><time>2026-05-05T11:42:45Z</time></trkpt><trkpt lat="41.68043385784408" lon="19.588202881867346"><ele>-1.3333333333333333</ele><time>2026-05-05T11:42:46Z</time></trkpt><trkpt lat="41.68023650206308" lon="19.588222937718104"><ele>-1.6666666666666665</ele><time>2026-05-05T11:42:47Z</time></trkpt><trkpt lat="41.680066697836374" lon="19.588235524972102"><ele>-2.0</ele><time>2026-05-05T11:42:48Z</time></trkpt><trkpt lat="41.679904756821884" lon="19.58825314920602"><ele>-2.0</ele><time>2026-05-05T11:42:49Z</time></trkpt><trkpt lat="41.67974598754689" lon="19.588268086009215"><ele>-2.0</ele><time>2026-05-05T11:42:50Z</time></trkpt><trkpt lat="41.679596983912155" lon="19.588283135564257"><ele>-2.0</ele><time>2026-05-05T11:42:51Z</time></trkpt><trkpt lat="41.6794557928607" lon="19.58829794893452"><ele>-1.75</ele><time>2026-05-05T11:42:52Z</time></trkpt><trkpt lat="41.679323320827955" lon="19.58831382394228"><ele>-1.5</ele><time>2026-05-05T11:42:53Z</time></trkpt><trkpt lat="41.679189151108794" lon="19.588326104597385"><ele>-1.25</ele><time>2026-05-05T11:42:54Z</time></trkpt><trkpt lat="41.67905628171694" lon="19.588340379930674"><ele>-1.0</ele><time>2026-05-05T11:42:55Z</time></trkpt><trkpt lat="41.67891745337047" lon="19.588344096810708"><ele>-1.0</ele><time>2026-05-05T11:42:56Z</time></trkpt><trkpt lat="41.67879271710543" lon="19.58833760370011"><ele>-1.0</ele><time>2026-05-05T11:42:57Z</time></trkpt><trkpt lat="41.67866809338468" lon="19.58833362344902"><ele>-1.0</ele><time>2026-05-05T11:42:58Z</time></trkpt><trkpt lat="41.678562465158805" lon="19.588340440219927"><ele>-1.0</ele><time>2026-05-05T11:42:59Z</time></trkpt><trkpt lat="41.67848031019089" lon="19.588357377472384"><ele>-1.0</ele><time>2026-05-05T11:43:00Z</time></trkpt><trkpt lat="41.67839435930319" lon="19.588338779251977"><ele>-1.1666666666666665</ele><time>2026-05-05T11:43:02Z</time></trkpt><trkpt lat="41.678371577146834" lon="19.588230382709135"><ele>-1.3333333333333333</ele><time>2026-05-05T11:43:07Z</time></trkpt><trkpt lat="41.67835808564482" lon="19.58814654789534"><ele>-1.5</ele><time>2026-05-05T11:43:07.999Z</time></trkpt><trkpt lat="41.6783597950279" lon="19.588027524913027"><ele>-1.6666666666666665</ele><time>2026-05-05T11:43:08.999Z</time></trkpt><trkpt lat="41.67836785330001" lon="19.587907135926116"><ele>-1.8333333333333333</ele><time>2026-05-05T11:43:09.999Z</time></trkpt><trkpt lat="41.67836933594094" lon="19.5877683961294"><ele>-2.0</ele><time>2026-05-05T11:43:10.999Z</time></trkpt><trkpt lat="41.67836800659516" lon="19.5876075580594"><ele>-2.75</ele><time>2026-05-05T11:43:11.999Z</time></trkpt><trkpt lat="41.678366205254605" lon="19.5874265172877"><ele>-3.5</ele><time>2026-05-05T11:43:12.999Z</time></trkpt><trkpt lat="41.67836525501428" lon="19.58724284381025"><ele>-4.25</ele><time>2026-05-05T11:43:13.999Z</time></trkpt><trkpt lat="41.67836320460951" lon="19.587047778795434"><ele>-5.0</ele><time>2026-05-05T11:43:14.999Z</time></trkpt><trkpt lat="41.67836195186092" lon="19.586844749425097"><ele>-5.0</ele><time>2026-05-05T11:43:15.999Z</time></trkpt><trkpt lat="41.67836176501296" lon="19.586643291390125"><ele>-5.0</ele><time>2026-05-05T11:43:16.999Z</time></trkpt><trkpt lat="41.67835896340492" lon="19.586432968247635"><ele>-5.0</ele><time>2026-05-05T11:43:17.999Z</time></trkpt><trkpt lat="41.67835617242889" lon="19.58621515064452"><ele>-2.3333333333333335</ele><time>2026-05-05T11:43:18.999Z</time></trkpt><trkpt lat="41.67835521164347" lon="19.585988370738384"><ele>0.33333333333333326</ele><time>2026-05-05T11:43:19.999Z</time></trkpt><trkpt lat="41.678354556796684" lon="19.58575901572947"><ele>3.0</ele><time>2026-05-05T11:43:20.999Z</time></trkpt><trkpt lat="41.678351138174165" lon="19.585534174425977"><ele>1.3333333333333335</ele><time>2026-05-05T11:43:21.999Z</time></trkpt><trkpt lat="41.678344283292354" lon="19.585309413165447"><ele>-0.33333333333333326</ele><time>2026-05-05T11:43:22.999Z</time></trkpt><trkpt lat="41.678341261626585" lon="19.585077857993006"><ele>-2.0</ele><time>2026-05-05T11:43:23.999Z</time></trkpt><trkpt lat="41.67833943999918" lon="19.584857245959455"><ele>-2.0</ele><time>2026-05-05T11:43:24.999Z</time></trkpt><trkpt lat="41.6783388681085" lon="19.584643667220476"><ele>-2.0</ele><time>2026-05-05T11:43:25.999Z</time></trkpt><trkpt lat="41.67833623016535" lon="19.58443046221562"><ele>-2.0</ele><time>2026-05-05T11:43:26.999Z</time></trkpt><trkpt lat="41.678333721751464" lon="19.58423404644816"><ele>-2.6666666666666665</ele><time>2026-05-05T11:43:27.999Z</time></trkpt><trkpt lat="41.678344441552085" lon="19.58399508487462"><ele>-3.333333333333333</ele><time>2026-05-05T11:43:28.999Z</time></trkpt><trkpt lat="41.67834407718791" lon="19.583785115010794"><ele>-4.0</ele><time>2026-05-05T11:43:29.999Z</time></trkpt><trkpt lat="41.678342520311276" lon="19.583552048717504"><ele>-4.0</ele><time>2026-05-05T11:43:30.999Z</time></trkpt><trkpt lat="41.67833597198536" lon="19.583322308973006"><ele>-4.0</ele><time>2026-05-05T11:43:31.999Z</time></trkpt><trkpt lat="41.67833353328043" lon="19.583083782953093"><ele>-4.0</ele><time>2026-05-05T11:43:32.999Z</time></trkpt><trkpt lat="41.67832749673897" lon="19.58284063713203"><ele>-3.333333333333333</ele><time>2026-05-05T11:43:33.999Z</time></trkpt><trkpt lat="41.67832477316435" lon="19.582599742760287"><ele>-2.6666666666666665</ele><time>2026-05-05T11:43:34.999Z</time></trkpt><trkpt lat="41.67832269592883" lon="19.582399222281435"><ele>-2.0</ele><time>2026-05-05T11:43:35.999Z</time></trkpt><trkpt lat="41.678334714513255" lon="19.58219617602231"><ele>-2.0</ele><time>2026-05-05T11:43:36.999Z</time></trkpt><trkpt lat="41.678336181032485" lon="19.5819681946538"><ele>-2.0</ele><time>2026-05-05T11:43:37.999Z</time></trkpt><trkpt lat="41.67833473774101" lon="19.581748665237647"><ele>-2.0</ele><time>2026-05-05T11:43:38.999Z</time></trkpt><trkpt lat="41.67833356852753" lon="19.58151929506634"><ele>-2.0</ele><time>2026-05-05T11:43:39.999Z</time></trkpt><trkpt lat="41.67833182416189" lon="19.58129537565174"><ele>-2.0</ele><time>2026-05-05T11:43:40.999Z</time></trkpt><trkpt lat="41.67833012918328" lon="19.58106711999657"><ele>-2.0</ele><time>2026-05-05T11:43:41.999Z</time></trkpt><trkpt lat="41.67832909963545" lon="19.580836872661454"><ele>-2.333333333333333</ele><time>2026-05-05T11:43:42.999Z</time></trkpt><trkpt lat="41.67832105705774" lon="19.580607283334196"><ele>-2.6666666666666665</ele><time>2026-05-05T11:43:43.999Z</time></trkpt><trkpt lat="41.67831176744973" lon="19.580395998518576"><ele>-3.0</ele><time>2026-05-05T11:43:44.999Z</time></trkpt><trkpt lat="41.678300323486596" lon="19.58019888259087"><ele>-3.333333333333333</ele><time>2026-05-05T11:43:45.999Z</time></trkpt><trkpt lat="41.67828637628435" lon="19.579991601429658"><ele>-3.6666666666666665</ele><time>2026-05-05T11:43:46.999Z</time></trkpt><trkpt lat="41.67828011496953" lon="19.5797917290479"><ele>-4.0</ele><time>2026-05-05T11:43:47.999Z</time></trkpt><trkpt lat="41.67827272311157" lon="19.57957710684291"><ele>-3.0</ele><time>2026-05-05T11:43:48.999Z</time></trkpt><trkpt lat="41.67826831481267" lon="19.579363190982647"><ele>-2.0</ele><time>2026-05-05T11:43:49.999Z</time></trkpt><trkpt lat="41.67826455302606" lon="19.579147414299193"><ele>-1.0</ele><time>2026-05-05T11:43:50.999Z</time></trkpt><trkpt lat="41.67826447956599" lon="19.578921178023503"><ele>-1.0</ele><time>2026-05-05T11:43:51.999Z</time></trkpt><trkpt lat="41.678258355249106" lon="19.578692044028625"><ele>-1.0</ele><time>2026-05-05T11:43:52.999Z</time></trkpt><trkpt lat="41.67825808610364" lon="19.57847139412564"><ele>-1.0</ele><time>2026-05-05T11:43:53.999Z</time></trkpt><trkpt lat="41.678239624821174" lon="19.578223027834458"><ele>-1.0</ele><time>2026-05-05T11:43:54.999Z</time></trkpt><trkpt lat="41.6782360999836" lon="19.57800770049244"><ele>-1.0</ele><time>2026-05-05T11:43:55.999Z</time></trkpt><trkpt lat="41.678228123089085" lon="19.577805494628095"><ele>-1.0</ele><time>2026-05-05T11:43:56.999Z</time></trkpt><trkpt lat="41.6782182283926" lon="19.577630505039668"><ele>-1.0</ele><time>2026-05-05T11:43:57.999Z</time></trkpt><trkpt lat="41.6782150734877" lon="19.57748481494928"><ele>-1.0</ele><time>2026-05-05T11:43:58.999Z</time></trkpt><trkpt lat="41.67820966114766" lon="19.577374092744755"><ele>-0.9999999999999999</ele><time>2026-05-05T11:43:59.999Z</time></trkpt><trkpt lat="41.67821104707038" lon="19.57727452785324"><ele>-1.0</ele><time>2026-05-05T11:44:00.999Z</time></trkpt><trkpt lat="41.67820881762976" lon="19.577179139278115"><ele>-1.0</ele><time>2026-05-05T11:44:01.999Z</time></trkpt><trkpt lat="41.67821881178598" lon="19.577088144221996"><ele>-0.9999999999999999</ele><time>2026-05-05T11:44:03.999Z</time></trkpt><trkpt lat="41.678291300597266" lon="19.577075301423548"><ele>-1.0</ele><time>2026-05-05T11:44:08.999Z</time></trkpt><trkpt lat="41.67831448174424" lon="19.577158968548584"><ele>-1.0</ele><time>2026-05-05T11:46:53Z</time></trkpt><trkpt lat="41.678376642356106" lon="19.57720308424625"><ele>-1.0</ele><time>2026-05-05T11:47:03Z</time></trkpt><trkpt lat="41.6784444782489" lon="19.577172361414767"><ele>-1.0</ele><time>2026-05-05T11:47:30Z</time></trkpt></trkseg></trk></gpx>